<?xml version="1.0" encoding="UTF-8"?>
<gpx version="1.1" creator="https://www.youtrack.es" xsi:schemaLocation="http://www.topografix.com/GPX/1/1 http://www.topografix.com/GPX/1/1/gpx.xsd http://www.garmin.com/xmlschemas/GpxExtensions/v3 http://www.garmin.com/xmlschemas/GpxExtensionsv3.xsd http://www.garmin.com/xmlschemas/TrackPointExtension/v1 http://www.garmin.com/xmlschemas/TrackPointExtensionv1.xsd" xmlns:gpxtpx="http://www.garmin.com/xmlschemas/TrackPointExtension/v1" xmlns:gpxx="http://www.garmin.com/xmlschemas/GpxExtensions/v3" xmlns:xsi="http://www.w3.org/2001/XMLSchema-instance">
  <metadata>
    <link href="https://www.youtrack.es">
      <text>YouTrack.es</text>
    </link>
    <time>2026-05-07T23:02:32Z</time>
  </metadata>
  <trk>
    <src>https://www.youtrack.es</src>
    <link href="https://www.youtrack.es/ruta/24894-annecy-autodrome-miramas-mt-ventoux-istres">
      <text>YouTrack.es</text>
    </link>
    <trkseg>
      <trkpt lat="45.901409" lon="6.128890">
        <ele>422.59698</ele>
        <time>2021-06-30T07:10:21Z</time>
      </trkpt>
      <trkpt lat="45.901409" lon="6.128890">
        <ele>422.59698</ele>
        <time>2021-06-30T07:10:22Z</time>
      </trkpt>
      <trkpt lat="45.901409" lon="6.128890">
        <ele>422.59698</ele>
        <time>2021-06-30T07:10:23Z</time>
      </trkpt>
      <trkpt lat="45.901409" lon="6.128890">
        <ele>422.59698</ele>
        <time>2021-06-30T07:10:24Z</time>
      </trkpt>
      <trkpt lat="45.901409" lon="6.128890">
        <ele>422.59698</ele>
        <time>2021-06-30T07:10:25Z</time>
      </trkpt>
      <trkpt lat="45.901409" lon="6.128890">
        <ele>422.59698</ele>
        <time>2021-06-30T07:10:26Z</time>
      </trkpt>
      <trkpt lat="45.901360" lon="6.128362">
        <ele>422.59698</ele>
        <time>2021-06-30T07:10:27Z</time>
      </trkpt>
      <trkpt lat="45.901360" lon="6.128362">
        <ele>422.59698</ele>
        <time>2021-06-30T07:10:28Z</time>
      </trkpt>
      <trkpt lat="45.901360" lon="6.128362">
        <ele>422.59698</ele>
        <time>2021-06-30T07:10:29Z</time>
      </trkpt>
      <trkpt lat="45.901360" lon="6.128362">
        <ele>422.59698</ele>
        <time>2021-06-30T07:10:30Z</time>
      </trkpt>
      <trkpt lat="45.901360" lon="6.128362">
        <ele>422.59698</ele>
        <time>2021-06-30T07:10:31Z</time>
      </trkpt>
      <trkpt lat="45.901360" lon="6.128362">
        <ele>422.59698</ele>
        <time>2021-06-30T07:10:32Z</time>
      </trkpt>
      <trkpt lat="45.901440" lon="6.128026">
        <ele>422.59698</ele>
        <time>2021-06-30T07:10:33Z</time>
      </trkpt>
      <trkpt lat="45.901440" lon="6.128026">
        <ele>422.59698</ele>
        <time>2021-06-30T07:10:34Z</time>
      </trkpt>
      <trkpt lat="45.901440" lon="6.128026">
        <ele>422.59698</ele>
        <time>2021-06-30T07:10:35Z</time>
      </trkpt>
      <trkpt lat="45.901440" lon="6.128026">
        <ele>422.59698</ele>
        <time>2021-06-30T07:10:36Z</time>
      </trkpt>
      <trkpt lat="45.901440" lon="6.128026">
        <ele>422.59698</ele>
        <time>2021-06-30T07:10:37Z</time>
      </trkpt>
      <trkpt lat="45.901440" lon="6.128026">
        <ele>422.59698</ele>
        <time>2021-06-30T07:10:38Z</time>
      </trkpt>
      <trkpt lat="45.901463" lon="6.127672">
        <ele>422.59698</ele>
        <time>2021-06-30T07:10:39Z</time>
      </trkpt>
      <trkpt lat="45.901463" lon="6.127672">
        <ele>422.59698</ele>
        <time>2021-06-30T07:10:40Z</time>
      </trkpt>
      <trkpt lat="45.901463" lon="6.127672">
        <ele>422.59698</ele>
        <time>2021-06-30T07:10:41Z</time>
      </trkpt>
      <trkpt lat="45.901463" lon="6.127672">
        <ele>422.59698</ele>
        <time>2021-06-30T07:10:42Z</time>
      </trkpt>
      <trkpt lat="45.901463" lon="6.127672">
        <ele>422.59698</ele>
        <time>2021-06-30T07:10:43Z</time>
      </trkpt>
      <trkpt lat="45.901463" lon="6.127672">
        <ele>422.59698</ele>
        <time>2021-06-30T07:10:44Z</time>
      </trkpt>
      <trkpt lat="45.901367" lon="6.127717">
        <ele>422.59698</ele>
        <time>2021-06-30T07:10:45Z</time>
      </trkpt>
      <trkpt lat="45.901367" lon="6.127717">
        <ele>422.59698</ele>
        <time>2021-06-30T07:10:46Z</time>
      </trkpt>
      <trkpt lat="45.901367" lon="6.127717">
        <ele>422.59698</ele>
        <time>2021-06-30T07:10:47Z</time>
      </trkpt>
      <trkpt lat="45.901367" lon="6.127717">
        <ele>422.59698</ele>
        <time>2021-06-30T07:10:48Z</time>
      </trkpt>
      <trkpt lat="45.901367" lon="6.127717">
        <ele>422.59698</ele>
        <time>2021-06-30T07:10:49Z</time>
      </trkpt>
      <trkpt lat="45.901371" lon="6.128180">
        <ele>422.59698</ele>
        <time>2021-06-30T07:10:50Z</time>
      </trkpt>
      <trkpt lat="45.901371" lon="6.128180">
        <ele>422.59698</ele>
        <time>2021-06-30T07:10:51Z</time>
      </trkpt>
      <trkpt lat="45.901371" lon="6.128180">
        <ele>422.59698</ele>
        <time>2021-06-30T07:10:52Z</time>
      </trkpt>
      <trkpt lat="45.901371" lon="6.128180">
        <ele>422.59698</ele>
        <time>2021-06-30T07:10:53Z</time>
      </trkpt>
      <trkpt lat="45.901371" lon="6.128180">
        <ele>422.59698</ele>
        <time>2021-06-30T07:10:54Z</time>
      </trkpt>
      <trkpt lat="45.901371" lon="6.128180">
        <ele>422.59698</ele>
        <time>2021-06-30T07:10:55Z</time>
      </trkpt>
      <trkpt lat="45.901371" lon="6.128180">
        <ele>422.59698</ele>
        <time>2021-06-30T07:10:56Z</time>
      </trkpt>
      <trkpt lat="45.901394" lon="6.128269">
        <ele>422.59698</ele>
        <time>2021-06-30T07:10:57Z</time>
      </trkpt>
      <trkpt lat="45.901394" lon="6.128269">
        <ele>422.59698</ele>
        <time>2021-06-30T07:10:58Z</time>
      </trkpt>
      <trkpt lat="45.901394" lon="6.128269">
        <ele>422.59698</ele>
        <time>2021-06-30T07:10:59Z</time>
      </trkpt>
      <trkpt lat="45.901394" lon="6.128269">
        <ele>422.59698</ele>
        <time>2021-06-30T07:11:00Z</time>
      </trkpt>
      <trkpt lat="45.901394" lon="6.128269">
        <ele>422.59698</ele>
        <time>2021-06-30T07:11:01Z</time>
      </trkpt>
      <trkpt lat="45.901367" lon="6.128495">
        <ele>422.59698</ele>
        <time>2021-06-30T07:11:02Z</time>
      </trkpt>
      <trkpt lat="45.901367" lon="6.128495">
        <ele>422.59698</ele>
        <time>2021-06-30T07:11:03Z</time>
      </trkpt>
      <trkpt lat="45.901367" lon="6.128495">
        <ele>422.59698</ele>
        <time>2021-06-30T07:11:04Z</time>
      </trkpt>
      <trkpt lat="45.901367" lon="6.128495">
        <ele>422.59698</ele>
        <time>2021-06-30T07:11:05Z</time>
      </trkpt>
      <trkpt lat="45.901367" lon="6.128495">
        <ele>422.59698</ele>
        <time>2021-06-30T07:11:06Z</time>
      </trkpt>
      <trkpt lat="45.901367" lon="6.128495">
        <ele>422.59698</ele>
        <time>2021-06-30T07:11:07Z</time>
      </trkpt>
      <trkpt lat="45.901367" lon="6.128495">
        <ele>422.59698</ele>
        <time>2021-06-30T07:11:08Z</time>
      </trkpt>
      <trkpt lat="45.901440" lon="6.128934">
        <ele>422.59698</ele>
        <time>2021-06-30T07:11:09Z</time>
      </trkpt>
      <trkpt lat="45.901440" lon="6.128934">
        <ele>422.59698</ele>
        <time>2021-06-30T07:11:10Z</time>
      </trkpt>
      <trkpt lat="45.901440" lon="6.128934">
        <ele>422.59698</ele>
        <time>2021-06-30T07:11:11Z</time>
      </trkpt>
      <trkpt lat="45.901440" lon="6.128934">
        <ele>422.59698</ele>
        <time>2021-06-30T07:11:12Z</time>
      </trkpt>
      <trkpt lat="45.901440" lon="6.128934">
        <ele>422.59698</ele>
        <time>2021-06-30T07:11:13Z</time>
      </trkpt>
      <trkpt lat="45.901440" lon="6.128934">
        <ele>422.59698</ele>
        <time>2021-06-30T07:11:14Z</time>
      </trkpt>
      <trkpt lat="45.901451" lon="6.128911">
        <ele>422.59698</ele>
        <time>2021-06-30T07:11:15Z</time>
      </trkpt>
      <trkpt lat="45.901451" lon="6.128911">
        <ele>422.59698</ele>
        <time>2021-06-30T07:11:16Z</time>
      </trkpt>
      <trkpt lat="45.901451" lon="6.128911">
        <ele>422.59698</ele>
        <time>2021-06-30T07:11:17Z</time>
      </trkpt>
      <trkpt lat="45.901451" lon="6.128911">
        <ele>422.59698</ele>
        <time>2021-06-30T07:11:18Z</time>
      </trkpt>
      <trkpt lat="45.901451" lon="6.128911">
        <ele>422.59698</ele>
        <time>2021-06-30T07:11:19Z</time>
      </trkpt>
      <trkpt lat="45.901451" lon="6.128911">
        <ele>422.59698</ele>
        <time>2021-06-30T07:11:20Z</time>
      </trkpt>
      <trkpt lat="45.901569" lon="6.128909">
        <ele>422.59698</ele>
        <time>2021-06-30T07:11:21Z</time>
      </trkpt>
      <trkpt lat="45.901569" lon="6.128909">
        <ele>422.59698</ele>
        <time>2021-06-30T07:11:22Z</time>
      </trkpt>
      <trkpt lat="45.901569" lon="6.128909">
        <ele>422.59698</ele>
        <time>2021-06-30T07:11:23Z</time>
      </trkpt>
      <trkpt lat="45.901569" lon="6.128909">
        <ele>422.59698</ele>
        <time>2021-06-30T07:11:24Z</time>
      </trkpt>
      <trkpt lat="45.901569" lon="6.128909">
        <ele>422.59698</ele>
        <time>2021-06-30T07:11:25Z</time>
      </trkpt>
      <trkpt lat="45.901569" lon="6.128909">
        <ele>422.59698</ele>
        <time>2021-06-30T07:11:26Z</time>
      </trkpt>
      <trkpt lat="45.901585" lon="6.128867">
        <ele>422.59698</ele>
        <time>2021-06-30T07:11:27Z</time>
      </trkpt>
      <trkpt lat="45.901585" lon="6.128867">
        <ele>422.59698</ele>
        <time>2021-06-30T07:11:28Z</time>
      </trkpt>
      <trkpt lat="45.901585" lon="6.128867">
        <ele>422.59698</ele>
        <time>2021-06-30T07:11:29Z</time>
      </trkpt>
      <trkpt lat="45.901585" lon="6.128867">
        <ele>422.59698</ele>
        <time>2021-06-30T07:11:30Z</time>
      </trkpt>
      <trkpt lat="45.901585" lon="6.128867">
        <ele>422.59698</ele>
        <time>2021-06-30T07:11:31Z</time>
      </trkpt>
      <trkpt lat="45.901585" lon="6.128867">
        <ele>422.59698</ele>
        <time>2021-06-30T07:11:32Z</time>
      </trkpt>
      <trkpt lat="45.901817" lon="6.129136">
        <ele>422.59698</ele>
        <time>2021-06-30T07:11:33Z</time>
      </trkpt>
      <trkpt lat="45.901817" lon="6.129136">
        <ele>453.87875</ele>
        <time>2021-06-30T07:11:34Z</time>
      </trkpt>
      <trkpt lat="45.901817" lon="6.129136">
        <ele>454.44986</ele>
        <time>2021-06-30T07:11:35Z</time>
      </trkpt>
      <trkpt lat="45.901836" lon="6.129175">
        <ele>453.29489</ele>
        <time>2021-06-30T07:11:36Z</time>
      </trkpt>
      <trkpt lat="45.901936" lon="6.129351">
        <ele>459.20541</ele>
        <time>2021-06-30T07:11:37Z</time>
      </trkpt>
      <trkpt lat="45.901966" lon="6.129352">
        <ele>462.22177</ele>
        <time>2021-06-30T07:11:38Z</time>
      </trkpt>
      <trkpt lat="45.901981" lon="6.129485">
        <ele>446.98734</ele>
        <time>2021-06-30T07:11:39Z</time>
      </trkpt>
      <trkpt lat="45.902046" lon="6.129635">
        <ele>451.09714</ele>
        <time>2021-06-30T07:11:40Z</time>
      </trkpt>
      <trkpt lat="45.902100" lon="6.129730">
        <ele>451.21201</ele>
        <time>2021-06-30T07:11:41Z</time>
      </trkpt>
      <trkpt lat="45.902107" lon="6.129783">
        <ele>450.60361</ele>
        <time>2021-06-30T07:11:42Z</time>
      </trkpt>
      <trkpt lat="45.902126" lon="6.129846">
        <ele>452.16586</ele>
        <time>2021-06-30T07:11:43Z</time>
      </trkpt>
      <trkpt lat="45.902142" lon="6.129899">
        <ele>453.33664</ele>
        <time>2021-06-30T07:11:44Z</time>
      </trkpt>
      <trkpt lat="45.902172" lon="6.129927">
        <ele>452.10995</ele>
        <time>2021-06-30T07:11:45Z</time>
      </trkpt>
      <trkpt lat="45.902191" lon="6.129983">
        <ele>451.41367</ele>
        <time>2021-06-30T07:11:46Z</time>
      </trkpt>
      <trkpt lat="45.902218" lon="6.130025">
        <ele>451.37961</ele>
        <time>2021-06-30T07:11:47Z</time>
      </trkpt>
      <trkpt lat="45.902214" lon="6.130012">
        <ele>452.74466</ele>
        <time>2021-06-30T07:11:48Z</time>
      </trkpt>
      <trkpt lat="45.902214" lon="6.130012">
        <ele>453.30832</ele>
        <time>2021-06-30T07:11:49Z</time>
      </trkpt>
      <trkpt lat="45.902229" lon="6.130041">
        <ele>453.67111</ele>
        <time>2021-06-30T07:11:50Z</time>
      </trkpt>
      <trkpt lat="45.902241" lon="6.130034">
        <ele>454.22604</ele>
        <time>2021-06-30T07:11:51Z</time>
      </trkpt>
      <trkpt lat="45.902260" lon="6.130030">
        <ele>454.49460</ele>
        <time>2021-06-30T07:11:52Z</time>
      </trkpt>
      <trkpt lat="45.902271" lon="6.130024">
        <ele>454.43808</ele>
        <time>2021-06-30T07:11:53Z</time>
      </trkpt>
      <trkpt lat="45.902264" lon="6.130026">
        <ele>454.40634</ele>
        <time>2021-06-30T07:11:54Z</time>
      </trkpt>
      <trkpt lat="45.902271" lon="6.130022">
        <ele>455.02585</ele>
        <time>2021-06-30T07:11:55Z</time>
      </trkpt>
      <trkpt lat="45.902294" lon="6.130011">
        <ele>455.33481</ele>
        <time>2021-06-30T07:11:56Z</time>
      </trkpt>
      <trkpt lat="45.902321" lon="6.129999">
        <ele>454.42551</ele>
        <time>2021-06-30T07:11:57Z</time>
      </trkpt>
      <trkpt lat="45.902309" lon="6.130003">
        <ele>454.97232</ele>
        <time>2021-06-30T07:11:58Z</time>
      </trkpt>
      <trkpt lat="45.902302" lon="6.130010">
        <ele>454.97458</ele>
        <time>2021-06-30T07:11:59Z</time>
      </trkpt>
      <trkpt lat="45.902302" lon="6.130010">
        <ele>455.33353</ele>
        <time>2021-06-30T07:12:00Z</time>
      </trkpt>
      <trkpt lat="45.902302" lon="6.130010">
        <ele>455.22287</ele>
        <time>2021-06-30T07:12:01Z</time>
      </trkpt>
      <trkpt lat="45.902302" lon="6.130010">
        <ele>454.83548</ele>
        <time>2021-06-30T07:12:02Z</time>
      </trkpt>
      <trkpt lat="45.902302" lon="6.130010">
        <ele>454.45529</ele>
        <time>2021-06-30T07:12:03Z</time>
      </trkpt>
      <trkpt lat="45.902302" lon="6.130010">
        <ele>454.12253</ele>
        <time>2021-06-30T07:12:04Z</time>
      </trkpt>
      <trkpt lat="45.902302" lon="6.130010">
        <ele>453.17807</ele>
        <time>2021-06-30T07:12:05Z</time>
      </trkpt>
      <trkpt lat="45.902302" lon="6.130010">
        <ele>453.62997</ele>
        <time>2021-06-30T07:12:06Z</time>
      </trkpt>
      <trkpt lat="45.902302" lon="6.130010">
        <ele>453.73166</ele>
        <time>2021-06-30T07:12:07Z</time>
      </trkpt>
      <trkpt lat="45.902302" lon="6.130010">
        <ele>453.39743</ele>
        <time>2021-06-30T07:12:08Z</time>
      </trkpt>
      <trkpt lat="45.902302" lon="6.130010">
        <ele>453.06003</ele>
        <time>2021-06-30T07:12:12Z</time>
      </trkpt>
      <trkpt lat="45.902302" lon="6.130010">
        <ele>452.61874</ele>
        <time>2021-06-30T07:12:14Z</time>
      </trkpt>
      <trkpt lat="45.902302" lon="6.130010">
        <ele>452.61874</ele>
        <time>2021-06-30T07:12:14Z</time>
      </trkpt>
      <trkpt lat="45.902283" lon="6.130014">
        <ele>446.66025</ele>
        <time>2021-06-30T07:15:40Z</time>
      </trkpt>
      <trkpt lat="45.902290" lon="6.129864">
        <ele>446.29831</ele>
        <time>2021-06-30T07:15:41Z</time>
      </trkpt>
      <trkpt lat="45.902290" lon="6.129864">
        <ele>446.19791</ele>
        <time>2021-06-30T07:15:42Z</time>
      </trkpt>
      <trkpt lat="45.902290" lon="6.129864">
        <ele>446.17978</ele>
        <time>2021-06-30T07:15:43Z</time>
      </trkpt>
      <trkpt lat="45.902290" lon="6.129864">
        <ele>446.02231</ele>
        <time>2021-06-30T07:15:44Z</time>
      </trkpt>
      <trkpt lat="45.902290" lon="6.129864">
        <ele>445.79471</ele>
        <time>2021-06-30T07:15:45Z</time>
      </trkpt>
      <trkpt lat="45.902290" lon="6.129864">
        <ele>445.91782</ele>
        <time>2021-06-30T07:15:46Z</time>
      </trkpt>
      <trkpt lat="45.902290" lon="6.129864">
        <ele>445.30954</ele>
        <time>2021-06-30T07:15:47Z</time>
      </trkpt>
      <trkpt lat="45.902290" lon="6.129864">
        <ele>445.14536</ele>
        <time>2021-06-30T07:15:48Z</time>
      </trkpt>
      <trkpt lat="45.902290" lon="6.129864">
        <ele>445.02780</ele>
        <time>2021-06-30T07:15:49Z</time>
      </trkpt>
      <trkpt lat="45.902290" lon="6.129864">
        <ele>444.43344</ele>
        <time>2021-06-30T07:15:50Z</time>
      </trkpt>
      <trkpt lat="45.902290" lon="6.129864">
        <ele>445.30283</ele>
        <time>2021-06-30T07:15:51Z</time>
      </trkpt>
      <trkpt lat="45.902290" lon="6.129864">
        <ele>445.37723</ele>
        <time>2021-06-30T07:15:52Z</time>
      </trkpt>
      <trkpt lat="45.902290" lon="6.129864">
        <ele>445.53024</ele>
        <time>2021-06-30T07:15:53Z</time>
      </trkpt>
      <trkpt lat="45.902290" lon="6.129864">
        <ele>445.70212</ele>
        <time>2021-06-30T07:15:54Z</time>
      </trkpt>
      <trkpt lat="45.902290" lon="6.129864">
        <ele>445.56918</ele>
        <time>2021-06-30T07:15:55Z</time>
      </trkpt>
      <trkpt lat="45.902290" lon="6.129864">
        <ele>445.67581</ele>
        <time>2021-06-30T07:15:56Z</time>
      </trkpt>
      <trkpt lat="45.902290" lon="6.129864">
        <ele>445.71683</ele>
        <time>2021-06-30T07:15:57Z</time>
      </trkpt>
      <trkpt lat="45.902290" lon="6.129864">
        <ele>445.70212</ele>
        <time>2021-06-30T07:15:58Z</time>
      </trkpt>
      <trkpt lat="45.902290" lon="6.129864">
        <ele>445.77719</ele>
        <time>2021-06-30T07:15:59Z</time>
      </trkpt>
      <trkpt lat="45.902290" lon="6.129864">
        <ele>445.88486</ele>
        <time>2021-06-30T07:16:00Z</time>
      </trkpt>
      <trkpt lat="45.902290" lon="6.129864">
        <ele>445.95334</ele>
        <time>2021-06-30T07:16:01Z</time>
      </trkpt>
      <trkpt lat="45.902290" lon="6.129864">
        <ele>446.54794</ele>
        <time>2021-06-30T07:16:02Z</time>
      </trkpt>
      <trkpt lat="45.902290" lon="6.129864">
        <ele>445.97897</ele>
        <time>2021-06-30T07:16:03Z</time>
      </trkpt>
      <trkpt lat="45.902290" lon="6.129864">
        <ele>446.15775</ele>
        <time>2021-06-30T07:16:04Z</time>
      </trkpt>
      <trkpt lat="45.902290" lon="6.129864">
        <ele>446.43716</ele>
        <time>2021-06-30T07:16:05Z</time>
      </trkpt>
      <trkpt lat="45.902290" lon="6.129864">
        <ele>446.76913</ele>
        <time>2021-06-30T07:16:06Z</time>
      </trkpt>
      <trkpt lat="45.902290" lon="6.129864">
        <ele>446.89584</ele>
        <time>2021-06-30T07:16:07Z</time>
      </trkpt>
      <trkpt lat="45.902290" lon="6.129864">
        <ele>447.09860</ele>
        <time>2021-06-30T07:16:08Z</time>
      </trkpt>
      <trkpt lat="45.902290" lon="6.129864">
        <ele>447.22092</ele>
        <time>2021-06-30T07:16:09Z</time>
      </trkpt>
      <trkpt lat="45.902290" lon="6.129864">
        <ele>447.71323</ele>
        <time>2021-06-30T07:16:10Z</time>
      </trkpt>
      <trkpt lat="45.902290" lon="6.129864">
        <ele>448.06613</ele>
        <time>2021-06-30T07:16:11Z</time>
      </trkpt>
      <trkpt lat="45.902290" lon="6.129864">
        <ele>448.42661</ele>
        <time>2021-06-30T07:16:12Z</time>
      </trkpt>
      <trkpt lat="45.902290" lon="6.129864">
        <ele>448.86301</ele>
        <time>2021-06-30T07:16:13Z</time>
      </trkpt>
      <trkpt lat="45.902290" lon="6.129864">
        <ele>449.07516</ele>
        <time>2021-06-30T07:16:14Z</time>
      </trkpt>
      <trkpt lat="45.902290" lon="6.129864">
        <ele>449.03629</ele>
        <time>2021-06-30T07:16:15Z</time>
      </trkpt>
      <trkpt lat="45.902290" lon="6.129864">
        <ele>449.36044</ele>
        <time>2021-06-30T07:16:16Z</time>
      </trkpt>
      <trkpt lat="45.902290" lon="6.129864">
        <ele>449.49789</ele>
        <time>2021-06-30T07:16:17Z</time>
      </trkpt>
      <trkpt lat="45.902290" lon="6.129864">
        <ele>449.79001</ele>
        <time>2021-06-30T07:16:18Z</time>
      </trkpt>
      <trkpt lat="45.902290" lon="6.129864">
        <ele>450.44266</ele>
        <time>2021-06-30T07:16:19Z</time>
      </trkpt>
      <trkpt lat="45.902290" lon="6.129864">
        <ele>450.76694</ele>
        <time>2021-06-30T07:16:20Z</time>
      </trkpt>
      <trkpt lat="45.902290" lon="6.129864">
        <ele>451.57370</ele>
        <time>2021-06-30T07:16:21Z</time>
      </trkpt>
      <trkpt lat="45.902290" lon="6.129864">
        <ele>451.84055</ele>
        <time>2021-06-30T07:16:22Z</time>
      </trkpt>
      <trkpt lat="45.902290" lon="6.129864">
        <ele>451.90305</ele>
        <time>2021-06-30T07:16:23Z</time>
      </trkpt>
      <trkpt lat="45.902290" lon="6.129864">
        <ele>452.02890</ele>
        <time>2021-06-30T07:16:24Z</time>
      </trkpt>
      <trkpt lat="45.902290" lon="6.129864">
        <ele>452.02951</ele>
        <time>2021-06-30T07:16:25Z</time>
      </trkpt>
      <trkpt lat="45.902290" lon="6.129864">
        <ele>451.96518</ele>
        <time>2021-06-30T07:16:26Z</time>
      </trkpt>
      <trkpt lat="45.902290" lon="6.129864">
        <ele>452.20322</ele>
        <time>2021-06-30T07:16:27Z</time>
      </trkpt>
      <trkpt lat="45.902290" lon="6.129864">
        <ele>452.17532</ele>
        <time>2021-06-30T07:16:28Z</time>
      </trkpt>
      <trkpt lat="45.902290" lon="6.129864">
        <ele>452.28085</ele>
        <time>2021-06-30T07:16:29Z</time>
      </trkpt>
      <trkpt lat="45.902290" lon="6.129864">
        <ele>452.21213</ele>
        <time>2021-06-30T07:16:30Z</time>
      </trkpt>
      <trkpt lat="45.902290" lon="6.129864">
        <ele>452.15933</ele>
        <time>2021-06-30T07:16:31Z</time>
      </trkpt>
      <trkpt lat="45.902290" lon="6.129864">
        <ele>452.54587</ele>
        <time>2021-06-30T07:16:32Z</time>
      </trkpt>
      <trkpt lat="45.902290" lon="6.129864">
        <ele>452.17343</ele>
        <time>2021-06-30T07:16:33Z</time>
      </trkpt>
      <trkpt lat="45.902290" lon="6.129864">
        <ele>452.00082</ele>
        <time>2021-06-30T07:16:34Z</time>
      </trkpt>
      <trkpt lat="45.902382" lon="6.129811">
        <ele>452.08975</ele>
        <time>2021-06-30T07:16:35Z</time>
      </trkpt>
      <trkpt lat="45.902409" lon="6.129794">
        <ele>452.78659</ele>
        <time>2021-06-30T07:16:36Z</time>
      </trkpt>
      <trkpt lat="45.902439" lon="6.129776">
        <ele>452.66867</ele>
        <time>2021-06-30T07:16:37Z</time>
      </trkpt>
      <trkpt lat="45.902443" lon="6.129773">
        <ele>453.27170</ele>
        <time>2021-06-30T07:16:38Z</time>
      </trkpt>
      <trkpt lat="45.902443" lon="6.129773">
        <ele>453.31161</ele>
        <time>2021-06-30T07:16:39Z</time>
      </trkpt>
      <trkpt lat="45.902470" lon="6.129754">
        <ele>452.94785</ele>
        <time>2021-06-30T07:16:40Z</time>
      </trkpt>
      <trkpt lat="45.902470" lon="6.129753">
        <ele>452.80148</ele>
        <time>2021-06-30T07:16:41Z</time>
      </trkpt>
      <trkpt lat="45.902470" lon="6.129753">
        <ele>453.00754</ele>
        <time>2021-06-30T07:16:42Z</time>
      </trkpt>
      <trkpt lat="45.902470" lon="6.129753">
        <ele>453.10898</ele>
        <time>2021-06-30T07:16:43Z</time>
      </trkpt>
      <trkpt lat="45.902470" lon="6.129753">
        <ele>453.05612</ele>
        <time>2021-06-30T07:16:44Z</time>
      </trkpt>
      <trkpt lat="45.902470" lon="6.129753">
        <ele>453.02292</ele>
        <time>2021-06-30T07:16:45Z</time>
      </trkpt>
      <trkpt lat="45.902470" lon="6.129753">
        <ele>453.17062</ele>
        <time>2021-06-30T07:16:46Z</time>
      </trkpt>
      <trkpt lat="45.902470" lon="6.129753">
        <ele>453.43271</ele>
        <time>2021-06-30T07:16:47Z</time>
      </trkpt>
      <trkpt lat="45.902470" lon="6.129753">
        <ele>453.84756</ele>
        <time>2021-06-30T07:16:48Z</time>
      </trkpt>
      <trkpt lat="45.902481" lon="6.129742">
        <ele>454.10422</ele>
        <time>2021-06-30T07:16:49Z</time>
      </trkpt>
      <trkpt lat="45.902489" lon="6.129736">
        <ele>454.29214</ele>
        <time>2021-06-30T07:16:50Z</time>
      </trkpt>
      <trkpt lat="45.902489" lon="6.129736">
        <ele>453.42282</ele>
        <time>2021-06-30T07:16:51Z</time>
      </trkpt>
      <trkpt lat="45.902489" lon="6.129736">
        <ele>451.30515</ele>
        <time>2021-06-30T07:16:52Z</time>
      </trkpt>
      <trkpt lat="45.902489" lon="6.129736">
        <ele>449.88589</ele>
        <time>2021-06-30T07:16:54Z</time>
      </trkpt>
      <trkpt lat="45.902489" lon="6.129736">
        <ele>449.85678</ele>
        <time>2021-06-30T07:16:54Z</time>
      </trkpt>
      <trkpt lat="45.902489" lon="6.129736">
        <ele>449.72849</ele>
        <time>2021-06-30T07:16:55Z</time>
      </trkpt>
      <trkpt lat="45.902489" lon="6.129736">
        <ele>449.67331</ele>
        <time>2021-06-30T07:16:57Z</time>
      </trkpt>
      <trkpt lat="45.902489" lon="6.129736">
        <ele>449.40176</ele>
        <time>2021-06-30T07:16:57Z</time>
      </trkpt>
      <trkpt lat="45.902489" lon="6.129736">
        <ele>449.53378</ele>
        <time>2021-06-30T07:16:58Z</time>
      </trkpt>
      <trkpt lat="45.902489" lon="6.129736">
        <ele>449.72226</ele>
        <time>2021-06-30T07:16:59Z</time>
      </trkpt>
      <trkpt lat="45.902489" lon="6.129736">
        <ele>449.95206</ele>
        <time>2021-06-30T07:17:00Z</time>
      </trkpt>
      <trkpt lat="45.902489" lon="6.129736">
        <ele>449.68790</ele>
        <time>2021-06-30T07:17:01Z</time>
      </trkpt>
      <trkpt lat="45.902489" lon="6.129736">
        <ele>450.13168</ele>
        <time>2021-06-30T07:17:02Z</time>
      </trkpt>
      <trkpt lat="45.902489" lon="6.129736">
        <ele>450.16745</ele>
        <time>2021-06-30T07:17:03Z</time>
      </trkpt>
      <trkpt lat="45.902489" lon="6.129736">
        <ele>450.49118</ele>
        <time>2021-06-30T07:17:04Z</time>
      </trkpt>
      <trkpt lat="45.902489" lon="6.129736">
        <ele>450.79465</ele>
        <time>2021-06-30T07:17:05Z</time>
      </trkpt>
      <trkpt lat="45.902489" lon="6.129736">
        <ele>450.88998</ele>
        <time>2021-06-30T07:17:06Z</time>
      </trkpt>
      <trkpt lat="45.902489" lon="6.129736">
        <ele>451.09061</ele>
        <time>2021-06-30T07:17:07Z</time>
      </trkpt>
      <trkpt lat="45.902489" lon="6.129736">
        <ele>451.54208</ele>
        <time>2021-06-30T07:17:08Z</time>
      </trkpt>
      <trkpt lat="45.902489" lon="6.129736">
        <ele>451.64413</ele>
        <time>2021-06-30T07:17:09Z</time>
      </trkpt>
      <trkpt lat="45.902489" lon="6.129736">
        <ele>451.80417</ele>
        <time>2021-06-30T07:17:10Z</time>
      </trkpt>
      <trkpt lat="45.902489" lon="6.129736">
        <ele>452.17319</ele>
        <time>2021-06-30T07:17:11Z</time>
      </trkpt>
      <trkpt lat="45.902489" lon="6.129736">
        <ele>452.46317</ele>
        <time>2021-06-30T07:17:12Z</time>
      </trkpt>
      <trkpt lat="45.902489" lon="6.129736">
        <ele>452.76120</ele>
        <time>2021-06-30T07:17:13Z</time>
      </trkpt>
      <trkpt lat="45.902489" lon="6.129736">
        <ele>452.76859</ele>
        <time>2021-06-30T07:17:14Z</time>
      </trkpt>
      <trkpt lat="45.902489" lon="6.129736">
        <ele>452.79013</ele>
        <time>2021-06-30T07:17:15Z</time>
      </trkpt>
      <trkpt lat="45.902489" lon="6.129736">
        <ele>452.80258</ele>
        <time>2021-06-30T07:17:16Z</time>
      </trkpt>
      <trkpt lat="45.902489" lon="6.129736">
        <ele>452.70572</ele>
        <time>2021-06-30T07:17:17Z</time>
      </trkpt>
      <trkpt lat="45.902489" lon="6.129736">
        <ele>452.74966</ele>
        <time>2021-06-30T07:17:18Z</time>
      </trkpt>
      <trkpt lat="45.902489" lon="6.129736">
        <ele>452.74481</ele>
        <time>2021-06-30T07:17:19Z</time>
      </trkpt>
      <trkpt lat="45.902489" lon="6.129736">
        <ele>452.77679</ele>
        <time>2021-06-30T07:17:20Z</time>
      </trkpt>
      <trkpt lat="45.902489" lon="6.129736">
        <ele>452.79517</ele>
        <time>2021-06-30T07:17:21Z</time>
      </trkpt>
      <trkpt lat="45.902489" lon="6.129736">
        <ele>452.78256</ele>
        <time>2021-06-30T07:17:22Z</time>
      </trkpt>
      <trkpt lat="45.902489" lon="6.129736">
        <ele>452.82214</ele>
        <time>2021-06-30T07:17:23Z</time>
      </trkpt>
      <trkpt lat="45.902489" lon="6.129736">
        <ele>452.75583</ele>
        <time>2021-06-30T07:17:24Z</time>
      </trkpt>
      <trkpt lat="45.902489" lon="6.129736">
        <ele>452.76596</ele>
        <time>2021-06-30T07:17:25Z</time>
      </trkpt>
      <trkpt lat="45.902489" lon="6.129736">
        <ele>452.79605</ele>
        <time>2021-06-30T07:17:26Z</time>
      </trkpt>
      <trkpt lat="45.902489" lon="6.129736">
        <ele>452.83508</ele>
        <time>2021-06-30T07:17:27Z</time>
      </trkpt>
      <trkpt lat="45.902489" lon="6.129736">
        <ele>452.82294</ele>
        <time>2021-06-30T07:17:28Z</time>
      </trkpt>
      <trkpt lat="45.902489" lon="6.129736">
        <ele>452.78906</ele>
        <time>2021-06-30T07:17:29Z</time>
      </trkpt>
      <trkpt lat="45.902489" lon="6.129736">
        <ele>452.76221</ele>
        <time>2021-06-30T07:17:30Z</time>
      </trkpt>
      <trkpt lat="45.902489" lon="6.129736">
        <ele>452.83380</ele>
        <time>2021-06-30T07:17:31Z</time>
      </trkpt>
      <trkpt lat="45.902489" lon="6.129736">
        <ele>452.84128</ele>
        <time>2021-06-30T07:17:32Z</time>
      </trkpt>
      <trkpt lat="45.902489" lon="6.129736">
        <ele>452.77719</ele>
        <time>2021-06-30T07:17:33Z</time>
      </trkpt>
      <trkpt lat="45.902489" lon="6.129736">
        <ele>452.77655</ele>
        <time>2021-06-30T07:17:34Z</time>
      </trkpt>
      <trkpt lat="45.902489" lon="6.129736">
        <ele>452.81830</ele>
        <time>2021-06-30T07:17:35Z</time>
      </trkpt>
      <trkpt lat="45.902489" lon="6.129736">
        <ele>452.70981</ele>
        <time>2021-06-30T07:17:36Z</time>
      </trkpt>
      <trkpt lat="45.902489" lon="6.129736">
        <ele>452.63864</ele>
        <time>2021-06-30T07:17:37Z</time>
      </trkpt>
      <trkpt lat="45.902489" lon="6.129736">
        <ele>452.64178</ele>
        <time>2021-06-30T07:17:38Z</time>
      </trkpt>
      <trkpt lat="45.902489" lon="6.129736">
        <ele>452.59082</ele>
        <time>2021-06-30T07:17:39Z</time>
      </trkpt>
      <trkpt lat="45.902489" lon="6.129736">
        <ele>452.52405</ele>
        <time>2021-06-30T07:17:40Z</time>
      </trkpt>
      <trkpt lat="45.902489" lon="6.129736">
        <ele>452.51669</ele>
        <time>2021-06-30T07:17:41Z</time>
      </trkpt>
      <trkpt lat="45.902489" lon="6.129736">
        <ele>452.49496</ele>
        <time>2021-06-30T07:17:42Z</time>
      </trkpt>
      <trkpt lat="45.902489" lon="6.129736">
        <ele>452.47739</ele>
        <time>2021-06-30T07:17:43Z</time>
      </trkpt>
      <trkpt lat="45.902489" lon="6.129736">
        <ele>452.46625</ele>
        <time>2021-06-30T07:17:44Z</time>
      </trkpt>
      <trkpt lat="45.902489" lon="6.129736">
        <ele>452.44705</ele>
        <time>2021-06-30T07:17:45Z</time>
      </trkpt>
      <trkpt lat="45.902489" lon="6.129736">
        <ele>452.45453</ele>
        <time>2021-06-30T07:17:46Z</time>
      </trkpt>
      <trkpt lat="45.902489" lon="6.129736">
        <ele>452.45621</ele>
        <time>2021-06-30T07:17:47Z</time>
      </trkpt>
      <trkpt lat="45.902489" lon="6.129736">
        <ele>452.44873</ele>
        <time>2021-06-30T07:17:48Z</time>
      </trkpt>
      <trkpt lat="45.902489" lon="6.129736">
        <ele>452.45416</ele>
        <time>2021-06-30T07:17:49Z</time>
      </trkpt>
      <trkpt lat="45.902489" lon="6.129736">
        <ele>452.47986</ele>
        <time>2021-06-30T07:17:50Z</time>
      </trkpt>
      <trkpt lat="45.902489" lon="6.129736">
        <ele>452.46130</ele>
        <time>2021-06-30T07:17:51Z</time>
      </trkpt>
      <trkpt lat="45.902489" lon="6.129736">
        <ele>452.45395</ele>
        <time>2021-06-30T07:17:52Z</time>
      </trkpt>
      <trkpt lat="45.902489" lon="6.129736">
        <ele>452.45950</ele>
        <time>2021-06-30T07:17:53Z</time>
      </trkpt>
      <trkpt lat="45.902489" lon="6.129736">
        <ele>452.47189</ele>
        <time>2021-06-30T07:17:54Z</time>
      </trkpt>
      <trkpt lat="45.902489" lon="6.129736">
        <ele>452.93027</ele>
        <time>2021-06-30T07:17:55Z</time>
      </trkpt>
      <trkpt lat="45.902489" lon="6.129736">
        <ele>452.93027</ele>
        <time>2021-06-30T07:17:56Z</time>
      </trkpt>
      <trkpt lat="45.902489" lon="6.129736">
        <ele>452.93088</ele>
        <time>2021-06-30T07:17:57Z</time>
      </trkpt>
      <trkpt lat="45.902489" lon="6.129736">
        <ele>452.52133</ele>
        <time>2021-06-30T07:17:58Z</time>
      </trkpt>
      <trkpt lat="45.902489" lon="6.129736">
        <ele>452.53815</ele>
        <time>2021-06-30T07:17:59Z</time>
      </trkpt>
      <trkpt lat="45.902489" lon="6.129736">
        <ele>452.61969</ele>
        <time>2021-06-30T07:18:00Z</time>
      </trkpt>
      <trkpt lat="45.902489" lon="6.129736">
        <ele>452.62238</ele>
        <time>2021-06-30T07:18:01Z</time>
      </trkpt>
      <trkpt lat="45.902489" lon="6.129736">
        <ele>452.57098</ele>
        <time>2021-06-30T07:18:02Z</time>
      </trkpt>
      <trkpt lat="45.902489" lon="6.129736">
        <ele>452.60562</ele>
        <time>2021-06-30T07:18:03Z</time>
      </trkpt>
      <trkpt lat="45.902489" lon="6.129736">
        <ele>452.64401</ele>
        <time>2021-06-30T07:18:04Z</time>
      </trkpt>
      <trkpt lat="45.902489" lon="6.129736">
        <ele>452.59619</ele>
        <time>2021-06-30T07:18:05Z</time>
      </trkpt>
      <trkpt lat="45.902489" lon="6.129736">
        <ele>452.66193</ele>
        <time>2021-06-30T07:18:06Z</time>
      </trkpt>
      <trkpt lat="45.902489" lon="6.129736">
        <ele>452.62238</ele>
        <time>2021-06-30T07:18:07Z</time>
      </trkpt>
      <trkpt lat="45.902489" lon="6.129736">
        <ele>452.63397</ele>
        <time>2021-06-30T07:18:08Z</time>
      </trkpt>
      <trkpt lat="45.902489" lon="6.129736">
        <ele>452.62186</ele>
        <time>2021-06-30T07:18:09Z</time>
      </trkpt>
      <trkpt lat="45.902489" lon="6.129736">
        <ele>452.71494</ele>
        <time>2021-06-30T07:18:10Z</time>
      </trkpt>
      <trkpt lat="45.902489" lon="6.129736">
        <ele>452.64761</ele>
        <time>2021-06-30T07:18:11Z</time>
      </trkpt>
      <trkpt lat="45.902489" lon="6.129736">
        <ele>452.65417</ele>
        <time>2021-06-30T07:18:12Z</time>
      </trkpt>
      <trkpt lat="45.902489" lon="6.129736">
        <ele>452.65421</ele>
        <time>2021-06-30T07:18:13Z</time>
      </trkpt>
      <trkpt lat="45.902489" lon="6.129736">
        <ele>452.62921</ele>
        <time>2021-06-30T07:18:14Z</time>
      </trkpt>
      <trkpt lat="45.902489" lon="6.129736">
        <ele>452.65781</ele>
        <time>2021-06-30T07:18:16Z</time>
      </trkpt>
      <trkpt lat="45.902489" lon="6.129736">
        <ele>452.71774</ele>
        <time>2021-06-30T07:18:16Z</time>
      </trkpt>
      <trkpt lat="45.902489" lon="6.129736">
        <ele>452.65543</ele>
        <time>2021-06-30T07:18:17Z</time>
      </trkpt>
      <trkpt lat="45.902489" lon="6.129736">
        <ele>452.69717</ele>
        <time>2021-06-30T07:18:18Z</time>
      </trkpt>
      <trkpt lat="45.902489" lon="6.129736">
        <ele>452.71796</ele>
        <time>2021-06-30T07:18:19Z</time>
      </trkpt>
      <trkpt lat="45.902489" lon="6.129736">
        <ele>452.61041</ele>
        <time>2021-06-30T07:18:20Z</time>
      </trkpt>
      <trkpt lat="45.902489" lon="6.129736">
        <ele>453.37784</ele>
        <time>2021-06-30T07:18:21Z</time>
      </trkpt>
      <trkpt lat="45.902489" lon="6.129736">
        <ele>452.74866</ele>
        <time>2021-06-30T07:18:22Z</time>
      </trkpt>
      <trkpt lat="45.902489" lon="6.129736">
        <ele>452.80136</ele>
        <time>2021-06-30T07:18:23Z</time>
      </trkpt>
      <trkpt lat="45.902489" lon="6.129736">
        <ele>452.89594</ele>
        <time>2021-06-30T07:18:24Z</time>
      </trkpt>
      <trkpt lat="45.902489" lon="6.129736">
        <ele>452.97531</ele>
        <time>2021-06-30T07:18:25Z</time>
      </trkpt>
      <trkpt lat="45.902489" lon="6.129736">
        <ele>452.96063</ele>
        <time>2021-06-30T07:18:26Z</time>
      </trkpt>
      <trkpt lat="45.902489" lon="6.129736">
        <ele>452.98160</ele>
        <time>2021-06-30T07:18:27Z</time>
      </trkpt>
      <trkpt lat="45.902489" lon="6.129736">
        <ele>452.94077</ele>
        <time>2021-06-30T07:18:29Z</time>
      </trkpt>
      <trkpt lat="45.902489" lon="6.129736">
        <ele>452.71051</ele>
        <time>2021-06-30T07:18:30Z</time>
      </trkpt>
      <trkpt lat="45.902489" lon="6.129736">
        <ele>452.71051</ele>
        <time>2021-06-30T07:18:30Z</time>
      </trkpt>
      <trkpt lat="45.902489" lon="6.129736">
        <ele>453.24768</ele>
        <time>2021-06-30T07:18:31Z</time>
      </trkpt>
      <trkpt lat="45.902489" lon="6.129736">
        <ele>453.05920</ele>
        <time>2021-06-30T07:18:32Z</time>
      </trkpt>
      <trkpt lat="45.902489" lon="6.129736">
        <ele>452.77850</ele>
        <time>2021-06-30T07:18:33Z</time>
      </trkpt>
      <trkpt lat="45.902489" lon="6.129736">
        <ele>453.06519</ele>
        <time>2021-06-30T07:18:34Z</time>
      </trkpt>
      <trkpt lat="45.902489" lon="6.129736">
        <ele>452.83182</ele>
        <time>2021-06-30T07:18:35Z</time>
      </trkpt>
      <trkpt lat="45.902489" lon="6.129736">
        <ele>453.25412</ele>
        <time>2021-06-30T07:18:36Z</time>
      </trkpt>
      <trkpt lat="45.902489" lon="6.129736">
        <ele>452.61566</ele>
        <time>2021-06-30T07:18:37Z</time>
      </trkpt>
      <trkpt lat="45.902489" lon="6.129736">
        <ele>452.72162</ele>
        <time>2021-06-30T07:18:38Z</time>
      </trkpt>
      <trkpt lat="45.902489" lon="6.129736">
        <ele>452.88486</ele>
        <time>2021-06-30T07:18:39Z</time>
      </trkpt>
      <trkpt lat="45.902489" lon="6.129736">
        <ele>452.83929</ele>
        <time>2021-06-30T07:18:40Z</time>
      </trkpt>
      <trkpt lat="45.902489" lon="6.129736">
        <ele>451.92731</ele>
        <time>2021-06-30T07:18:41Z</time>
      </trkpt>
      <trkpt lat="45.902489" lon="6.129736">
        <ele>451.90338</ele>
        <time>2021-06-30T07:18:42Z</time>
      </trkpt>
      <trkpt lat="45.902489" lon="6.129736">
        <ele>452.79086</ele>
        <time>2021-06-30T07:18:43Z</time>
      </trkpt>
      <trkpt lat="45.902489" lon="6.129736">
        <ele>452.59103</ele>
        <time>2021-06-30T07:18:44Z</time>
      </trkpt>
      <trkpt lat="45.902489" lon="6.129736">
        <ele>452.54800</ele>
        <time>2021-06-30T07:18:45Z</time>
      </trkpt>
      <trkpt lat="45.902489" lon="6.129736">
        <ele>452.63959</ele>
        <time>2021-06-30T07:18:46Z</time>
      </trkpt>
      <trkpt lat="45.902489" lon="6.129736">
        <ele>452.37866</ele>
        <time>2021-06-30T07:18:47Z</time>
      </trkpt>
      <trkpt lat="45.902489" lon="6.129736">
        <ele>452.49930</ele>
        <time>2021-06-30T07:18:48Z</time>
      </trkpt>
      <trkpt lat="45.902489" lon="6.129736">
        <ele>452.44601</ele>
        <time>2021-06-30T07:18:49Z</time>
      </trkpt>
      <trkpt lat="45.902489" lon="6.129736">
        <ele>452.45325</ele>
        <time>2021-06-30T07:18:50Z</time>
      </trkpt>
      <trkpt lat="45.902489" lon="6.129736">
        <ele>452.63049</ele>
        <time>2021-06-30T07:18:51Z</time>
      </trkpt>
      <trkpt lat="45.902489" lon="6.129736">
        <ele>452.47531</ele>
        <time>2021-06-30T07:18:52Z</time>
      </trkpt>
      <trkpt lat="45.902489" lon="6.129736">
        <ele>452.28912</ele>
        <time>2021-06-30T07:18:53Z</time>
      </trkpt>
      <trkpt lat="45.902489" lon="6.129736">
        <ele>452.72037</ele>
        <time>2021-06-30T07:18:54Z</time>
      </trkpt>
      <trkpt lat="45.902489" lon="6.129736">
        <ele>453.04074</ele>
        <time>2021-06-30T07:18:55Z</time>
      </trkpt>
      <trkpt lat="45.902489" lon="6.129736">
        <ele>452.42615</ele>
        <time>2021-06-30T07:18:56Z</time>
      </trkpt>
      <trkpt lat="45.902489" lon="6.129736">
        <ele>452.82513</ele>
        <time>2021-06-30T07:18:57Z</time>
      </trkpt>
      <trkpt lat="45.902489" lon="6.129736">
        <ele>452.80276</ele>
        <time>2021-06-30T07:18:58Z</time>
      </trkpt>
      <trkpt lat="45.902489" lon="6.129736">
        <ele>453.16553</ele>
        <time>2021-06-30T07:18:59Z</time>
      </trkpt>
      <trkpt lat="45.902489" lon="6.129736">
        <ele>452.91727</ele>
        <time>2021-06-30T07:19:00Z</time>
      </trkpt>
      <trkpt lat="45.902489" lon="6.129736">
        <ele>452.96930</ele>
        <time>2021-06-30T07:19:01Z</time>
      </trkpt>
      <trkpt lat="45.902489" lon="6.129736">
        <ele>452.85629</ele>
        <time>2021-06-30T07:19:02Z</time>
      </trkpt>
      <trkpt lat="45.902489" lon="6.129736">
        <ele>452.89218</ele>
        <time>2021-06-30T07:19:03Z</time>
      </trkpt>
      <trkpt lat="45.902489" lon="6.129736">
        <ele>452.87433</ele>
        <time>2021-06-30T07:19:04Z</time>
      </trkpt>
      <trkpt lat="45.902489" lon="6.129736">
        <ele>452.87018</ele>
        <time>2021-06-30T07:19:05Z</time>
      </trkpt>
      <trkpt lat="45.902489" lon="6.129736">
        <ele>452.91260</ele>
        <time>2021-06-30T07:19:06Z</time>
      </trkpt>
      <trkpt lat="45.902489" lon="6.129736">
        <ele>452.75006</ele>
        <time>2021-06-30T07:19:07Z</time>
      </trkpt>
      <trkpt lat="45.902489" lon="6.129736">
        <ele>452.82925</ele>
        <time>2021-06-30T07:19:08Z</time>
      </trkpt>
      <trkpt lat="45.902489" lon="6.129736">
        <ele>452.78848</ele>
        <time>2021-06-30T07:19:09Z</time>
      </trkpt>
      <trkpt lat="45.902489" lon="6.129736">
        <ele>452.79718</ele>
        <time>2021-06-30T07:19:10Z</time>
      </trkpt>
      <trkpt lat="45.902489" lon="6.129736">
        <ele>452.75583</ele>
        <time>2021-06-30T07:19:11Z</time>
      </trkpt>
      <trkpt lat="45.902489" lon="6.129736">
        <ele>452.74405</ele>
        <time>2021-06-30T07:19:12Z</time>
      </trkpt>
      <trkpt lat="45.902489" lon="6.129736">
        <ele>452.67484</ele>
        <time>2021-06-30T07:19:13Z</time>
      </trkpt>
      <trkpt lat="45.902489" lon="6.129736">
        <ele>452.63492</ele>
        <time>2021-06-30T07:19:14Z</time>
      </trkpt>
      <trkpt lat="45.902489" lon="6.129736">
        <ele>452.68921</ele>
        <time>2021-06-30T07:19:15Z</time>
      </trkpt>
      <trkpt lat="45.902489" lon="6.129736">
        <ele>452.66965</ele>
        <time>2021-06-30T07:19:16Z</time>
      </trkpt>
      <trkpt lat="45.902489" lon="6.129736">
        <ele>452.69199</ele>
        <time>2021-06-30T07:19:17Z</time>
      </trkpt>
      <trkpt lat="45.902489" lon="6.129736">
        <ele>452.72348</ele>
        <time>2021-06-30T07:19:18Z</time>
      </trkpt>
      <trkpt lat="45.902489" lon="6.129736">
        <ele>452.75381</ele>
        <time>2021-06-30T07:19:19Z</time>
      </trkpt>
      <trkpt lat="45.902489" lon="6.129736">
        <ele>452.66644</ele>
        <time>2021-06-30T07:19:20Z</time>
      </trkpt>
      <trkpt lat="45.902489" lon="6.129736">
        <ele>453.77960</ele>
        <time>2021-06-30T07:19:21Z</time>
      </trkpt>
      <trkpt lat="45.902489" lon="6.129736">
        <ele>452.31116</ele>
        <time>2021-06-30T07:19:22Z</time>
      </trkpt>
      <trkpt lat="45.902489" lon="6.129736">
        <ele>453.00232</ele>
        <time>2021-06-30T07:19:23Z</time>
      </trkpt>
      <trkpt lat="45.902489" lon="6.129736">
        <ele>452.89014</ele>
        <time>2021-06-30T07:19:24Z</time>
      </trkpt>
      <trkpt lat="45.902489" lon="6.129736">
        <ele>451.93469</ele>
        <time>2021-06-30T07:19:25Z</time>
      </trkpt>
      <trkpt lat="45.902489" lon="6.129736">
        <ele>453.26083</ele>
        <time>2021-06-30T07:19:26Z</time>
      </trkpt>
      <trkpt lat="45.902489" lon="6.129736">
        <ele>452.87796</ele>
        <time>2021-06-30T07:19:27Z</time>
      </trkpt>
      <trkpt lat="45.902489" lon="6.129736">
        <ele>453.07849</ele>
        <time>2021-06-30T07:19:28Z</time>
      </trkpt>
      <trkpt lat="45.902489" lon="6.129736">
        <ele>452.93735</ele>
        <time>2021-06-30T07:19:29Z</time>
      </trkpt>
      <trkpt lat="45.902489" lon="6.129736">
        <ele>452.87814</ele>
        <time>2021-06-30T07:19:30Z</time>
      </trkpt>
      <trkpt lat="45.902489" lon="6.129736">
        <ele>452.82074</ele>
        <time>2021-06-30T07:19:31Z</time>
      </trkpt>
      <trkpt lat="45.902489" lon="6.129736">
        <ele>452.83374</ele>
        <time>2021-06-30T07:19:32Z</time>
      </trkpt>
      <trkpt lat="45.902489" lon="6.129736">
        <ele>453.10620</ele>
        <time>2021-06-30T07:19:33Z</time>
      </trkpt>
      <trkpt lat="45.902489" lon="6.129736">
        <ele>452.61310</ele>
        <time>2021-06-30T07:19:34Z</time>
      </trkpt>
      <trkpt lat="45.902489" lon="6.129736">
        <ele>452.67139</ele>
        <time>2021-06-30T07:19:35Z</time>
      </trkpt>
      <trkpt lat="45.902489" lon="6.129736">
        <ele>452.43243</ele>
        <time>2021-06-30T07:19:36Z</time>
      </trkpt>
      <trkpt lat="45.902489" lon="6.129736">
        <ele>452.65692</ele>
        <time>2021-06-30T07:19:37Z</time>
      </trkpt>
      <trkpt lat="45.902489" lon="6.129736">
        <ele>452.69318</ele>
        <time>2021-06-30T07:19:38Z</time>
      </trkpt>
      <trkpt lat="45.902489" lon="6.129736">
        <ele>452.75961</ele>
        <time>2021-06-30T07:19:39Z</time>
      </trkpt>
      <trkpt lat="45.902489" lon="6.129736">
        <ele>452.80197</ele>
        <time>2021-06-30T07:19:40Z</time>
      </trkpt>
      <trkpt lat="45.902489" lon="6.129736">
        <ele>452.72684</ele>
        <time>2021-06-30T07:19:41Z</time>
      </trkpt>
      <trkpt lat="45.902489" lon="6.129736">
        <ele>452.71509</ele>
        <time>2021-06-30T07:19:42Z</time>
      </trkpt>
      <trkpt lat="45.902489" lon="6.129736">
        <ele>452.71088</ele>
        <time>2021-06-30T07:19:43Z</time>
      </trkpt>
      <trkpt lat="45.902489" lon="6.129736">
        <ele>452.72412</ele>
        <time>2021-06-30T07:19:44Z</time>
      </trkpt>
      <trkpt lat="45.902489" lon="6.129736">
        <ele>451.90253</ele>
        <time>2021-06-30T07:19:45Z</time>
      </trkpt>
      <trkpt lat="45.902489" lon="6.129736">
        <ele>450.75415</ele>
        <time>2021-06-30T07:19:46Z</time>
      </trkpt>
      <trkpt lat="45.902489" lon="6.129736">
        <ele>453.33463</ele>
        <time>2021-06-30T07:19:47Z</time>
      </trkpt>
      <trkpt lat="45.902489" lon="6.129736">
        <ele>450.94406</ele>
        <time>2021-06-30T07:19:48Z</time>
      </trkpt>
      <trkpt lat="45.902489" lon="6.129736">
        <ele>452.63623</ele>
        <time>2021-06-30T07:19:49Z</time>
      </trkpt>
      <trkpt lat="45.902489" lon="6.129736">
        <ele>451.80258</ele>
        <time>2021-06-30T07:19:50Z</time>
      </trkpt>
      <trkpt lat="45.902489" lon="6.129736">
        <ele>452.96729</ele>
        <time>2021-06-30T07:19:51Z</time>
      </trkpt>
      <trkpt lat="45.902489" lon="6.129736">
        <ele>452.56805</ele>
        <time>2021-06-30T07:19:52Z</time>
      </trkpt>
      <trkpt lat="45.902489" lon="6.129736">
        <ele>452.26913</ele>
        <time>2021-06-30T07:19:53Z</time>
      </trkpt>
      <trkpt lat="45.902489" lon="6.129736">
        <ele>452.69598</ele>
        <time>2021-06-30T07:19:54Z</time>
      </trkpt>
      <trkpt lat="45.902489" lon="6.129736">
        <ele>450.86050</ele>
        <time>2021-06-30T07:19:55Z</time>
      </trkpt>
      <trkpt lat="45.902489" lon="6.129736">
        <ele>453.08740</ele>
        <time>2021-06-30T07:19:56Z</time>
      </trkpt>
      <trkpt lat="45.902489" lon="6.129736">
        <ele>451.68692</ele>
        <time>2021-06-30T07:19:57Z</time>
      </trkpt>
      <trkpt lat="45.902489" lon="6.129736">
        <ele>452.46744</ele>
        <time>2021-06-30T07:19:58Z</time>
      </trkpt>
      <trkpt lat="45.902489" lon="6.129736">
        <ele>451.76993</ele>
        <time>2021-06-30T07:19:59Z</time>
      </trkpt>
      <trkpt lat="45.902489" lon="6.129736">
        <ele>452.66934</ele>
        <time>2021-06-30T07:20:00Z</time>
      </trkpt>
      <trkpt lat="45.902489" lon="6.129736">
        <ele>453.50687</ele>
        <time>2021-06-30T07:20:01Z</time>
      </trkpt>
      <trkpt lat="45.902489" lon="6.129736">
        <ele>452.98508</ele>
        <time>2021-06-30T07:20:02Z</time>
      </trkpt>
      <trkpt lat="45.902489" lon="6.129736">
        <ele>452.22263</ele>
        <time>2021-06-30T07:20:03Z</time>
      </trkpt>
      <trkpt lat="45.902489" lon="6.129736">
        <ele>453.23221</ele>
        <time>2021-06-30T07:20:04Z</time>
      </trkpt>
      <trkpt lat="45.902489" lon="6.129736">
        <ele>452.49701</ele>
        <time>2021-06-30T07:20:05Z</time>
      </trkpt>
      <trkpt lat="45.902489" lon="6.129736">
        <ele>452.44934</ele>
        <time>2021-06-30T07:20:06Z</time>
      </trkpt>
      <trkpt lat="45.902489" lon="6.129736">
        <ele>452.46207</ele>
        <time>2021-06-30T07:20:07Z</time>
      </trkpt>
      <trkpt lat="45.902489" lon="6.129736">
        <ele>452.50327</ele>
        <time>2021-06-30T07:20:08Z</time>
      </trkpt>
      <trkpt lat="45.902489" lon="6.129736">
        <ele>452.71341</ele>
        <time>2021-06-30T07:20:09Z</time>
      </trkpt>
      <trkpt lat="45.902489" lon="6.129736">
        <ele>453.15918</ele>
        <time>2021-06-30T07:20:10Z</time>
      </trkpt>
      <trkpt lat="45.902489" lon="6.129736">
        <ele>452.34662</ele>
        <time>2021-06-30T07:20:11Z</time>
      </trkpt>
      <trkpt lat="45.902489" lon="6.129736">
        <ele>453.48181</ele>
        <time>2021-06-30T07:20:12Z</time>
      </trkpt>
      <trkpt lat="45.902489" lon="6.129736">
        <ele>453.16354</ele>
        <time>2021-06-30T07:20:13Z</time>
      </trkpt>
      <trkpt lat="45.902489" lon="6.129736">
        <ele>453.15186</ele>
        <time>2021-06-30T07:20:14Z</time>
      </trkpt>
      <trkpt lat="45.902489" lon="6.129736">
        <ele>453.03998</ele>
        <time>2021-06-30T07:20:15Z</time>
      </trkpt>
      <trkpt lat="45.902489" lon="6.129736">
        <ele>453.07098</ele>
        <time>2021-06-30T07:20:16Z</time>
      </trkpt>
      <trkpt lat="45.902489" lon="6.129736">
        <ele>453.06244</ele>
        <time>2021-06-30T07:20:17Z</time>
      </trkpt>
      <trkpt lat="45.902489" lon="6.129736">
        <ele>452.97293</ele>
        <time>2021-06-30T07:20:18Z</time>
      </trkpt>
      <trkpt lat="45.902489" lon="6.129736">
        <ele>453.00186</ele>
        <time>2021-06-30T07:20:19Z</time>
      </trkpt>
      <trkpt lat="45.902489" lon="6.129736">
        <ele>453.10220</ele>
        <time>2021-06-30T07:20:20Z</time>
      </trkpt>
      <trkpt lat="45.902489" lon="6.129736">
        <ele>453.14978</ele>
        <time>2021-06-30T07:20:21Z</time>
      </trkpt>
      <trkpt lat="45.902489" lon="6.129736">
        <ele>453.40268</ele>
        <time>2021-06-30T07:20:22Z</time>
      </trkpt>
      <trkpt lat="45.902489" lon="6.129736">
        <ele>452.83871</ele>
        <time>2021-06-30T07:20:23Z</time>
      </trkpt>
      <trkpt lat="45.902489" lon="6.129736">
        <ele>453.16669</ele>
        <time>2021-06-30T07:20:24Z</time>
      </trkpt>
      <trkpt lat="45.902489" lon="6.129736">
        <ele>452.99619</ele>
        <time>2021-06-30T07:20:25Z</time>
      </trkpt>
      <trkpt lat="45.902489" lon="6.129736">
        <ele>453.05893</ele>
        <time>2021-06-30T07:20:26Z</time>
      </trkpt>
      <trkpt lat="45.902489" lon="6.129736">
        <ele>452.54507</ele>
        <time>2021-06-30T07:20:27Z</time>
      </trkpt>
      <trkpt lat="45.902489" lon="6.129736">
        <ele>454.60931</ele>
        <time>2021-06-30T07:20:28Z</time>
      </trkpt>
      <trkpt lat="45.902489" lon="6.129736">
        <ele>453.53555</ele>
        <time>2021-06-30T07:20:29Z</time>
      </trkpt>
      <trkpt lat="45.902489" lon="6.129736">
        <ele>453.51248</ele>
        <time>2021-06-30T07:20:30Z</time>
      </trkpt>
      <trkpt lat="45.902489" lon="6.129736">
        <ele>453.56805</ele>
        <time>2021-06-30T07:20:31Z</time>
      </trkpt>
      <trkpt lat="45.902489" lon="6.129736">
        <ele>453.24475</ele>
        <time>2021-06-30T07:20:32Z</time>
      </trkpt>
      <trkpt lat="45.902489" lon="6.129736">
        <ele>453.09167</ele>
        <time>2021-06-30T07:20:33Z</time>
      </trkpt>
      <trkpt lat="45.902489" lon="6.129736">
        <ele>453.28976</ele>
        <time>2021-06-30T07:20:34Z</time>
      </trkpt>
      <trkpt lat="45.902489" lon="6.129736">
        <ele>453.16052</ele>
        <time>2021-06-30T07:20:35Z</time>
      </trkpt>
      <trkpt lat="45.902489" lon="6.129736">
        <ele>453.32077</ele>
        <time>2021-06-30T07:20:36Z</time>
      </trkpt>
      <trkpt lat="45.902489" lon="6.129736">
        <ele>452.86694</ele>
        <time>2021-06-30T07:20:37Z</time>
      </trkpt>
      <trkpt lat="45.902489" lon="6.129736">
        <ele>452.26077</ele>
        <time>2021-06-30T07:20:38Z</time>
      </trkpt>
      <trkpt lat="45.902489" lon="6.129736">
        <ele>453.15485</ele>
        <time>2021-06-30T07:20:39Z</time>
      </trkpt>
      <trkpt lat="45.902489" lon="6.129736">
        <ele>453.03189</ele>
        <time>2021-06-30T07:20:40Z</time>
      </trkpt>
      <trkpt lat="45.902489" lon="6.129736">
        <ele>452.48773</ele>
        <time>2021-06-30T07:20:41Z</time>
      </trkpt>
      <trkpt lat="45.902489" lon="6.129736">
        <ele>453.51813</ele>
        <time>2021-06-30T07:20:42Z</time>
      </trkpt>
      <trkpt lat="45.902489" lon="6.129736">
        <ele>453.40396</ele>
        <time>2021-06-30T07:20:43Z</time>
      </trkpt>
      <trkpt lat="45.902489" lon="6.129736">
        <ele>452.90384</ele>
        <time>2021-06-30T07:20:44Z</time>
      </trkpt>
      <trkpt lat="45.902489" lon="6.129736">
        <ele>452.88190</ele>
        <time>2021-06-30T07:20:45Z</time>
      </trkpt>
      <trkpt lat="45.902489" lon="6.129736">
        <ele>452.77652</ele>
        <time>2021-06-30T07:20:46Z</time>
      </trkpt>
      <trkpt lat="45.902489" lon="6.129736">
        <ele>452.66467</ele>
        <time>2021-06-30T07:20:47Z</time>
      </trkpt>
      <trkpt lat="45.902489" lon="6.129736">
        <ele>452.74884</ele>
        <time>2021-06-30T07:20:48Z</time>
      </trkpt>
      <trkpt lat="45.902489" lon="6.129736">
        <ele>452.80936</ele>
        <time>2021-06-30T07:20:49Z</time>
      </trkpt>
      <trkpt lat="45.902489" lon="6.129736">
        <ele>452.84747</ele>
        <time>2021-06-30T07:20:50Z</time>
      </trkpt>
      <trkpt lat="45.902489" lon="6.129736">
        <ele>452.92386</ele>
        <time>2021-06-30T07:20:51Z</time>
      </trkpt>
      <trkpt lat="45.902489" lon="6.129736">
        <ele>452.61624</ele>
        <time>2021-06-30T07:20:52Z</time>
      </trkpt>
      <trkpt lat="45.902489" lon="6.129736">
        <ele>452.46875</ele>
        <time>2021-06-30T07:20:53Z</time>
      </trkpt>
      <trkpt lat="45.902489" lon="6.129736">
        <ele>453.30670</ele>
        <time>2021-06-30T07:20:54Z</time>
      </trkpt>
      <trkpt lat="45.902489" lon="6.129736">
        <ele>453.10403</ele>
        <time>2021-06-30T07:20:55Z</time>
      </trkpt>
      <trkpt lat="45.902489" lon="6.129736">
        <ele>452.53033</ele>
        <time>2021-06-30T07:20:56Z</time>
      </trkpt>
      <trkpt lat="45.902489" lon="6.129736">
        <ele>445.07953</ele>
        <time>2021-06-30T07:20:57Z</time>
      </trkpt>
      <trkpt lat="45.902489" lon="6.129736">
        <ele>456.90970</ele>
        <time>2021-06-30T07:20:58Z</time>
      </trkpt>
      <trkpt lat="45.902489" lon="6.129736">
        <ele>454.29999</ele>
        <time>2021-06-30T07:20:59Z</time>
      </trkpt>
      <trkpt lat="45.902489" lon="6.129736">
        <ele>452.55679</ele>
        <time>2021-06-30T07:21:00Z</time>
      </trkpt>
      <trkpt lat="45.902489" lon="6.129736">
        <ele>452.37177</ele>
        <time>2021-06-30T07:21:01Z</time>
      </trkpt>
      <trkpt lat="45.902489" lon="6.129736">
        <ele>452.67044</ele>
        <time>2021-06-30T07:21:02Z</time>
      </trkpt>
      <trkpt lat="45.902489" lon="6.129736">
        <ele>452.22672</ele>
        <time>2021-06-30T07:21:03Z</time>
      </trkpt>
      <trkpt lat="45.902489" lon="6.129736">
        <ele>452.26163</ele>
        <time>2021-06-30T07:21:04Z</time>
      </trkpt>
      <trkpt lat="45.902489" lon="6.129736">
        <ele>451.00601</ele>
        <time>2021-06-30T07:21:05Z</time>
      </trkpt>
      <trkpt lat="45.902489" lon="6.129736">
        <ele>452.71283</ele>
        <time>2021-06-30T07:21:06Z</time>
      </trkpt>
      <trkpt lat="45.902489" lon="6.129736">
        <ele>451.97055</ele>
        <time>2021-06-30T07:21:07Z</time>
      </trkpt>
      <trkpt lat="45.902489" lon="6.129736">
        <ele>452.83337</ele>
        <time>2021-06-30T07:21:08Z</time>
      </trkpt>
      <trkpt lat="45.902489" lon="6.129736">
        <ele>453.09891</ele>
        <time>2021-06-30T07:21:09Z</time>
      </trkpt>
      <trkpt lat="45.902489" lon="6.129736">
        <ele>452.92191</ele>
        <time>2021-06-30T07:21:10Z</time>
      </trkpt>
      <trkpt lat="45.902489" lon="6.129736">
        <ele>453.00507</ele>
        <time>2021-06-30T07:21:11Z</time>
      </trkpt>
      <trkpt lat="45.902489" lon="6.129736">
        <ele>449.85617</ele>
        <time>2021-06-30T07:21:12Z</time>
      </trkpt>
      <trkpt lat="45.902489" lon="6.129736">
        <ele>449.75803</ele>
        <time>2021-06-30T07:21:13Z</time>
      </trkpt>
      <trkpt lat="45.902489" lon="6.129736">
        <ele>449.75302</ele>
        <time>2021-06-30T07:21:14Z</time>
      </trkpt>
      <trkpt lat="45.902489" lon="6.129736">
        <ele>449.66721</ele>
        <time>2021-06-30T07:21:15Z</time>
      </trkpt>
      <trkpt lat="45.902489" lon="6.129736">
        <ele>449.55563</ele>
        <time>2021-06-30T07:21:16Z</time>
      </trkpt>
      <trkpt lat="45.902489" lon="6.129736">
        <ele>449.57162</ele>
        <time>2021-06-30T07:21:17Z</time>
      </trkpt>
      <trkpt lat="45.902489" lon="6.129736">
        <ele>449.49435</ele>
        <time>2021-06-30T07:21:18Z</time>
      </trkpt>
      <trkpt lat="45.902489" lon="6.129736">
        <ele>449.46463</ele>
        <time>2021-06-30T07:21:19Z</time>
      </trkpt>
      <trkpt lat="45.902489" lon="6.129736">
        <ele>449.60483</ele>
        <time>2021-06-30T07:21:20Z</time>
      </trkpt>
      <trkpt lat="45.902489" lon="6.129736">
        <ele>449.71078</ele>
        <time>2021-06-30T07:21:21Z</time>
      </trkpt>
      <trkpt lat="45.902489" lon="6.129736">
        <ele>449.72128</ele>
        <time>2021-06-30T07:21:22Z</time>
      </trkpt>
      <trkpt lat="45.902489" lon="6.129736">
        <ele>449.71872</ele>
        <time>2021-06-30T07:21:23Z</time>
      </trkpt>
      <trkpt lat="45.902489" lon="6.129736">
        <ele>449.78159</ele>
        <time>2021-06-30T07:21:24Z</time>
      </trkpt>
      <trkpt lat="45.902489" lon="6.129736">
        <ele>449.87534</ele>
        <time>2021-06-30T07:21:25Z</time>
      </trkpt>
      <trkpt lat="45.902489" lon="6.129736">
        <ele>449.91360</ele>
        <time>2021-06-30T07:21:26Z</time>
      </trkpt>
      <trkpt lat="45.902489" lon="6.129736">
        <ele>449.99844</ele>
        <time>2021-06-30T07:21:27Z</time>
      </trkpt>
      <trkpt lat="45.902489" lon="6.129736">
        <ele>450.02963</ele>
        <time>2021-06-30T07:21:28Z</time>
      </trkpt>
      <trkpt lat="45.902489" lon="6.129736">
        <ele>450.01334</ele>
        <time>2021-06-30T07:21:29Z</time>
      </trkpt>
      <trkpt lat="45.902489" lon="6.129736">
        <ele>450.09030</ele>
        <time>2021-06-30T07:21:30Z</time>
      </trkpt>
      <trkpt lat="45.902489" lon="6.129736">
        <ele>450.11679</ele>
        <time>2021-06-30T07:21:31Z</time>
      </trkpt>
      <trkpt lat="45.902489" lon="6.129736">
        <ele>450.10928</ele>
        <time>2021-06-30T07:21:32Z</time>
      </trkpt>
      <trkpt lat="45.902489" lon="6.129736">
        <ele>450.20218</ele>
        <time>2021-06-30T07:21:33Z</time>
      </trkpt>
      <trkpt lat="45.902489" lon="6.129736">
        <ele>450.28934</ele>
        <time>2021-06-30T07:21:34Z</time>
      </trkpt>
      <trkpt lat="45.902489" lon="6.129736">
        <ele>450.34915</ele>
        <time>2021-06-30T07:21:35Z</time>
      </trkpt>
      <trkpt lat="45.902489" lon="6.129736">
        <ele>450.36655</ele>
        <time>2021-06-30T07:21:36Z</time>
      </trkpt>
      <trkpt lat="45.902489" lon="6.129736">
        <ele>452.70517</ele>
        <time>2021-06-30T07:21:37Z</time>
      </trkpt>
      <trkpt lat="45.902489" lon="6.129736">
        <ele>452.65436</ele>
        <time>2021-06-30T07:21:38Z</time>
      </trkpt>
      <trkpt lat="45.902489" lon="6.129736">
        <ele>452.68893</ele>
        <time>2021-06-30T07:21:39Z</time>
      </trkpt>
      <trkpt lat="45.902489" lon="6.129736">
        <ele>452.62677</ele>
        <time>2021-06-30T07:21:40Z</time>
      </trkpt>
      <trkpt lat="45.902489" lon="6.129736">
        <ele>452.59964</ele>
        <time>2021-06-30T07:21:41Z</time>
      </trkpt>
      <trkpt lat="45.902489" lon="6.129736">
        <ele>452.54156</ele>
        <time>2021-06-30T07:21:42Z</time>
      </trkpt>
      <trkpt lat="45.902489" lon="6.129736">
        <ele>452.40369</ele>
        <time>2021-06-30T07:21:43Z</time>
      </trkpt>
      <trkpt lat="45.902489" lon="6.129736">
        <ele>452.27411</ele>
        <time>2021-06-30T07:21:44Z</time>
      </trkpt>
      <trkpt lat="45.902489" lon="6.129736">
        <ele>452.10098</ele>
        <time>2021-06-30T07:21:45Z</time>
      </trkpt>
      <trkpt lat="45.902489" lon="6.129736">
        <ele>451.94632</ele>
        <time>2021-06-30T07:21:46Z</time>
      </trkpt>
      <trkpt lat="45.902489" lon="6.129736">
        <ele>451.83469</ele>
        <time>2021-06-30T07:21:47Z</time>
      </trkpt>
      <trkpt lat="45.902489" lon="6.129736">
        <ele>451.70844</ele>
        <time>2021-06-30T07:21:48Z</time>
      </trkpt>
      <trkpt lat="45.902489" lon="6.129736">
        <ele>451.59589</ele>
        <time>2021-06-30T07:21:49Z</time>
      </trkpt>
      <trkpt lat="45.902489" lon="6.129736">
        <ele>451.48163</ele>
        <time>2021-06-30T07:21:50Z</time>
      </trkpt>
      <trkpt lat="45.902489" lon="6.129736">
        <ele>451.49628</ele>
        <time>2021-06-30T07:21:51Z</time>
      </trkpt>
      <trkpt lat="45.902489" lon="6.129736">
        <ele>451.34622</ele>
        <time>2021-06-30T07:21:52Z</time>
      </trkpt>
      <trkpt lat="45.902489" lon="6.129736">
        <ele>451.32455</ele>
        <time>2021-06-30T07:21:53Z</time>
      </trkpt>
      <trkpt lat="45.902489" lon="6.129736">
        <ele>451.34451</ele>
        <time>2021-06-30T07:21:54Z</time>
      </trkpt>
      <trkpt lat="45.902489" lon="6.129736">
        <ele>451.27319</ele>
        <time>2021-06-30T07:21:55Z</time>
      </trkpt>
      <trkpt lat="45.902489" lon="6.129736">
        <ele>451.17661</ele>
        <time>2021-06-30T07:21:56Z</time>
      </trkpt>
      <trkpt lat="45.902489" lon="6.129736">
        <ele>451.14709</ele>
        <time>2021-06-30T07:21:57Z</time>
      </trkpt>
      <trkpt lat="45.902489" lon="6.129736">
        <ele>451.09906</ele>
        <time>2021-06-30T07:21:58Z</time>
      </trkpt>
      <trkpt lat="45.902489" lon="6.129736">
        <ele>451.00879</ele>
        <time>2021-06-30T07:21:59Z</time>
      </trkpt>
      <trkpt lat="45.902489" lon="6.129736">
        <ele>451.08160</ele>
        <time>2021-06-30T07:22:00Z</time>
      </trkpt>
      <trkpt lat="45.902489" lon="6.129736">
        <ele>451.14838</ele>
        <time>2021-06-30T07:22:01Z</time>
      </trkpt>
      <trkpt lat="45.902489" lon="6.129736">
        <ele>451.26575</ele>
        <time>2021-06-30T07:22:02Z</time>
      </trkpt>
      <trkpt lat="45.902489" lon="6.129736">
        <ele>451.22971</ele>
        <time>2021-06-30T07:22:03Z</time>
      </trkpt>
      <trkpt lat="45.902489" lon="6.129736">
        <ele>451.17984</ele>
        <time>2021-06-30T07:22:04Z</time>
      </trkpt>
      <trkpt lat="45.902489" lon="6.129736">
        <ele>451.15759</ele>
        <time>2021-06-30T07:22:05Z</time>
      </trkpt>
      <trkpt lat="45.902489" lon="6.129736">
        <ele>451.12097</ele>
        <time>2021-06-30T07:22:06Z</time>
      </trkpt>
      <trkpt lat="45.902489" lon="6.129736">
        <ele>451.08826</ele>
        <time>2021-06-30T07:22:07Z</time>
      </trkpt>
      <trkpt lat="45.902489" lon="6.129736">
        <ele>451.05344</ele>
        <time>2021-06-30T07:22:08Z</time>
      </trkpt>
      <trkpt lat="45.902489" lon="6.129736">
        <ele>451.00732</ele>
        <time>2021-06-30T07:22:09Z</time>
      </trkpt>
      <trkpt lat="45.902489" lon="6.129736">
        <ele>450.98047</ele>
        <time>2021-06-30T07:22:10Z</time>
      </trkpt>
      <trkpt lat="45.902489" lon="6.129736">
        <ele>450.84579</ele>
        <time>2021-06-30T07:22:11Z</time>
      </trkpt>
      <trkpt lat="45.902489" lon="6.129736">
        <ele>450.88306</ele>
        <time>2021-06-30T07:22:12Z</time>
      </trkpt>
      <trkpt lat="45.902489" lon="6.129736">
        <ele>450.83929</ele>
        <time>2021-06-30T07:22:13Z</time>
      </trkpt>
      <trkpt lat="45.902489" lon="6.129736">
        <ele>450.83258</ele>
        <time>2021-06-30T07:22:14Z</time>
      </trkpt>
      <trkpt lat="45.902489" lon="6.129736">
        <ele>450.77237</ele>
        <time>2021-06-30T07:22:15Z</time>
      </trkpt>
      <trkpt lat="45.902489" lon="6.129736">
        <ele>450.71255</ele>
        <time>2021-06-30T07:22:16Z</time>
      </trkpt>
      <trkpt lat="45.902489" lon="6.129736">
        <ele>450.63947</ele>
        <time>2021-06-30T07:22:17Z</time>
      </trkpt>
      <trkpt lat="45.902489" lon="6.129736">
        <ele>450.59741</ele>
        <time>2021-06-30T07:22:18Z</time>
      </trkpt>
      <trkpt lat="45.902489" lon="6.129736">
        <ele>450.55200</ele>
        <time>2021-06-30T07:22:19Z</time>
      </trkpt>
      <trkpt lat="45.902489" lon="6.129736">
        <ele>450.45129</ele>
        <time>2021-06-30T07:22:20Z</time>
      </trkpt>
      <trkpt lat="45.902489" lon="6.129736">
        <ele>450.30844</ele>
        <time>2021-06-30T07:22:21Z</time>
      </trkpt>
      <trkpt lat="45.902489" lon="6.129736">
        <ele>450.25699</ele>
        <time>2021-06-30T07:22:22Z</time>
      </trkpt>
      <trkpt lat="45.902489" lon="6.129736">
        <ele>450.22507</ele>
        <time>2021-06-30T07:22:23Z</time>
      </trkpt>
      <trkpt lat="45.902489" lon="6.129736">
        <ele>450.17789</ele>
        <time>2021-06-30T07:22:24Z</time>
      </trkpt>
      <trkpt lat="45.902489" lon="6.129736">
        <ele>450.06790</ele>
        <time>2021-06-30T07:22:25Z</time>
      </trkpt>
      <trkpt lat="45.902489" lon="6.129736">
        <ele>450.12860</ele>
        <time>2021-06-30T07:22:26Z</time>
      </trkpt>
      <trkpt lat="45.902489" lon="6.129736">
        <ele>450.10989</ele>
        <time>2021-06-30T07:22:27Z</time>
      </trkpt>
      <trkpt lat="45.902489" lon="6.129736">
        <ele>450.10721</ele>
        <time>2021-06-30T07:22:28Z</time>
      </trkpt>
      <trkpt lat="45.902489" lon="6.129736">
        <ele>450.14288</ele>
        <time>2021-06-30T07:22:29Z</time>
      </trkpt>
      <trkpt lat="45.902489" lon="6.129736">
        <ele>450.05960</ele>
        <time>2021-06-30T07:22:30Z</time>
      </trkpt>
      <trkpt lat="45.902489" lon="6.129736">
        <ele>450.11899</ele>
        <time>2021-06-30T07:22:31Z</time>
      </trkpt>
      <trkpt lat="45.902489" lon="6.129736">
        <ele>450.08221</ele>
        <time>2021-06-30T07:22:32Z</time>
      </trkpt>
      <trkpt lat="45.902489" lon="6.129736">
        <ele>450.06592</ele>
        <time>2021-06-30T07:22:33Z</time>
      </trkpt>
      <trkpt lat="45.902489" lon="6.129736">
        <ele>449.97131</ele>
        <time>2021-06-30T07:22:34Z</time>
      </trkpt>
      <trkpt lat="45.902489" lon="6.129736">
        <ele>449.97879</ele>
        <time>2021-06-30T07:22:35Z</time>
      </trkpt>
      <trkpt lat="45.902489" lon="6.129736">
        <ele>449.97009</ele>
        <time>2021-06-30T07:22:36Z</time>
      </trkpt>
      <trkpt lat="45.902489" lon="6.129736">
        <ele>450.02213</ele>
        <time>2021-06-30T07:22:37Z</time>
      </trkpt>
      <trkpt lat="45.902489" lon="6.129736">
        <ele>449.97388</ele>
        <time>2021-06-30T07:22:38Z</time>
      </trkpt>
      <trkpt lat="45.902489" lon="6.129736">
        <ele>450.01907</ele>
        <time>2021-06-30T07:22:39Z</time>
      </trkpt>
      <trkpt lat="45.902489" lon="6.129736">
        <ele>450.04547</ele>
        <time>2021-06-30T07:22:40Z</time>
      </trkpt>
      <trkpt lat="45.902489" lon="6.129736">
        <ele>449.97049</ele>
        <time>2021-06-30T07:22:41Z</time>
      </trkpt>
      <trkpt lat="45.902489" lon="6.129736">
        <ele>449.97284</ele>
        <time>2021-06-30T07:22:42Z</time>
      </trkpt>
      <trkpt lat="45.902489" lon="6.129736">
        <ele>449.85217</ele>
        <time>2021-06-30T07:22:43Z</time>
      </trkpt>
      <trkpt lat="45.902489" lon="6.129736">
        <ele>449.87433</ele>
        <time>2021-06-30T07:22:44Z</time>
      </trkpt>
      <trkpt lat="45.902489" lon="6.129736">
        <ele>449.91556</ele>
        <time>2021-06-30T07:22:45Z</time>
      </trkpt>
      <trkpt lat="45.902489" lon="6.129736">
        <ele>450.14948</ele>
        <time>2021-06-30T07:22:46Z</time>
      </trkpt>
      <trkpt lat="45.902489" lon="6.129736">
        <ele>450.20312</ele>
        <time>2021-06-30T07:22:47Z</time>
      </trkpt>
      <trkpt lat="45.902489" lon="6.129736">
        <ele>450.22974</ele>
        <time>2021-06-30T07:22:48Z</time>
      </trkpt>
      <trkpt lat="45.902489" lon="6.129736">
        <ele>450.31122</ele>
        <time>2021-06-30T07:22:49Z</time>
      </trkpt>
      <trkpt lat="45.902489" lon="6.129736">
        <ele>450.34940</ele>
        <time>2021-06-30T07:22:50Z</time>
      </trkpt>
      <trkpt lat="45.902489" lon="6.129736">
        <ele>450.41052</ele>
        <time>2021-06-30T07:22:51Z</time>
      </trkpt>
      <trkpt lat="45.902489" lon="6.129736">
        <ele>450.42285</ele>
        <time>2021-06-30T07:22:52Z</time>
      </trkpt>
      <trkpt lat="45.902489" lon="6.129736">
        <ele>450.43024</ele>
        <time>2021-06-30T07:22:53Z</time>
      </trkpt>
      <trkpt lat="45.902489" lon="6.129736">
        <ele>450.44672</ele>
        <time>2021-06-30T07:22:54Z</time>
      </trkpt>
      <trkpt lat="45.902489" lon="6.129736">
        <ele>450.42108</ele>
        <time>2021-06-30T07:22:55Z</time>
      </trkpt>
      <trkpt lat="45.902489" lon="6.129736">
        <ele>450.41141</ele>
        <time>2021-06-30T07:22:56Z</time>
      </trkpt>
      <trkpt lat="45.902489" lon="6.129736">
        <ele>450.41382</ele>
        <time>2021-06-30T07:22:57Z</time>
      </trkpt>
      <trkpt lat="45.902489" lon="6.129736">
        <ele>450.38113</ele>
        <time>2021-06-30T07:22:58Z</time>
      </trkpt>
      <trkpt lat="45.902489" lon="6.129736">
        <ele>450.40390</ele>
        <time>2021-06-30T07:22:59Z</time>
      </trkpt>
      <trkpt lat="45.902489" lon="6.129736">
        <ele>450.41281</ele>
        <time>2021-06-30T07:23:00Z</time>
      </trkpt>
      <trkpt lat="45.902489" lon="6.129736">
        <ele>450.39963</ele>
        <time>2021-06-30T07:23:01Z</time>
      </trkpt>
      <trkpt lat="45.902489" lon="6.129736">
        <ele>450.39014</ele>
        <time>2021-06-30T07:23:02Z</time>
      </trkpt>
      <trkpt lat="45.902489" lon="6.129736">
        <ele>450.40924</ele>
        <time>2021-06-30T07:23:03Z</time>
      </trkpt>
      <trkpt lat="45.902489" lon="6.129736">
        <ele>450.41772</ele>
        <time>2021-06-30T07:23:04Z</time>
      </trkpt>
      <trkpt lat="45.902489" lon="6.129736">
        <ele>450.33676</ele>
        <time>2021-06-30T07:23:05Z</time>
      </trkpt>
      <trkpt lat="45.902489" lon="6.129736">
        <ele>450.40524</ele>
        <time>2021-06-30T07:23:06Z</time>
      </trkpt>
      <trkpt lat="45.902489" lon="6.129736">
        <ele>450.37540</ele>
        <time>2021-06-30T07:23:07Z</time>
      </trkpt>
      <trkpt lat="45.902489" lon="6.129736">
        <ele>450.40237</ele>
        <time>2021-06-30T07:23:08Z</time>
      </trkpt>
      <trkpt lat="45.902489" lon="6.129736">
        <ele>450.36386</ele>
        <time>2021-06-30T07:23:09Z</time>
      </trkpt>
      <trkpt lat="45.902489" lon="6.129736">
        <ele>450.32477</ele>
        <time>2021-06-30T07:23:10Z</time>
      </trkpt>
      <trkpt lat="45.902489" lon="6.129736">
        <ele>450.43576</ele>
        <time>2021-06-30T07:23:11Z</time>
      </trkpt>
      <trkpt lat="45.902489" lon="6.129736">
        <ele>450.23505</ele>
        <time>2021-06-30T07:23:12Z</time>
      </trkpt>
      <trkpt lat="45.902489" lon="6.129736">
        <ele>450.21512</ele>
        <time>2021-06-30T07:23:13Z</time>
      </trkpt>
      <trkpt lat="45.902489" lon="6.129736">
        <ele>450.20697</ele>
        <time>2021-06-30T07:23:14Z</time>
      </trkpt>
      <trkpt lat="45.902489" lon="6.129736">
        <ele>450.16183</ele>
        <time>2021-06-30T07:23:15Z</time>
      </trkpt>
      <trkpt lat="45.902489" lon="6.129736">
        <ele>450.17477</ele>
        <time>2021-06-30T07:23:16Z</time>
      </trkpt>
      <trkpt lat="45.902489" lon="6.129736">
        <ele>450.14700</ele>
        <time>2021-06-30T07:23:17Z</time>
      </trkpt>
      <trkpt lat="45.902489" lon="6.129736">
        <ele>450.17947</ele>
        <time>2021-06-30T07:23:18Z</time>
      </trkpt>
      <trkpt lat="45.902489" lon="6.129736">
        <ele>450.20428</ele>
        <time>2021-06-30T07:23:19Z</time>
      </trkpt>
      <trkpt lat="45.902489" lon="6.129736">
        <ele>450.21118</ele>
        <time>2021-06-30T07:23:20Z</time>
      </trkpt>
      <trkpt lat="45.902489" lon="6.129736">
        <ele>450.14120</ele>
        <time>2021-06-30T07:23:21Z</time>
      </trkpt>
      <trkpt lat="45.902489" lon="6.129736">
        <ele>450.22412</ele>
        <time>2021-06-30T07:23:22Z</time>
      </trkpt>
      <trkpt lat="45.902489" lon="6.129736">
        <ele>450.14395</ele>
        <time>2021-06-30T07:23:23Z</time>
      </trkpt>
      <trkpt lat="45.902489" lon="6.129736">
        <ele>450.29221</ele>
        <time>2021-06-30T07:23:24Z</time>
      </trkpt>
      <trkpt lat="45.902489" lon="6.129736">
        <ele>450.23843</ele>
        <time>2021-06-30T07:23:25Z</time>
      </trkpt>
      <trkpt lat="45.902489" lon="6.129736">
        <ele>450.39737</ele>
        <time>2021-06-30T07:23:26Z</time>
      </trkpt>
      <trkpt lat="45.902489" lon="6.129736">
        <ele>450.56177</ele>
        <time>2021-06-30T07:23:27Z</time>
      </trkpt>
      <trkpt lat="45.902489" lon="6.129736">
        <ele>450.57629</ele>
        <time>2021-06-30T07:23:28Z</time>
      </trkpt>
      <trkpt lat="45.902489" lon="6.129736">
        <ele>450.58688</ele>
        <time>2021-06-30T07:23:29Z</time>
      </trkpt>
      <trkpt lat="45.902489" lon="6.129736">
        <ele>450.49432</ele>
        <time>2021-06-30T07:23:30Z</time>
      </trkpt>
      <trkpt lat="45.902489" lon="6.129736">
        <ele>450.49149</ele>
        <time>2021-06-30T07:23:31Z</time>
      </trkpt>
      <trkpt lat="45.902489" lon="6.129736">
        <ele>450.43365</ele>
        <time>2021-06-30T07:23:32Z</time>
      </trkpt>
      <trkpt lat="45.902489" lon="6.129736">
        <ele>450.48294</ele>
        <time>2021-06-30T07:23:33Z</time>
      </trkpt>
      <trkpt lat="45.902489" lon="6.129736">
        <ele>450.50134</ele>
        <time>2021-06-30T07:23:34Z</time>
      </trkpt>
      <trkpt lat="45.902489" lon="6.129736">
        <ele>450.50735</ele>
        <time>2021-06-30T07:23:35Z</time>
      </trkpt>
      <trkpt lat="45.902489" lon="6.129736">
        <ele>450.48431</ele>
        <time>2021-06-30T07:23:36Z</time>
      </trkpt>
      <trkpt lat="45.902489" lon="6.129736">
        <ele>450.46527</ele>
        <time>2021-06-30T07:23:37Z</time>
      </trkpt>
      <trkpt lat="45.902489" lon="6.129736">
        <ele>450.48987</ele>
        <time>2021-06-30T07:23:38Z</time>
      </trkpt>
      <trkpt lat="45.902489" lon="6.129736">
        <ele>450.49570</ele>
        <time>2021-06-30T07:23:39Z</time>
      </trkpt>
      <trkpt lat="45.902489" lon="6.129736">
        <ele>450.49057</ele>
        <time>2021-06-30T07:23:40Z</time>
      </trkpt>
      <trkpt lat="45.902489" lon="6.129736">
        <ele>450.44550</ele>
        <time>2021-06-30T07:23:41Z</time>
      </trkpt>
      <trkpt lat="45.902489" lon="6.129736">
        <ele>450.47427</ele>
        <time>2021-06-30T07:23:42Z</time>
      </trkpt>
      <trkpt lat="45.902489" lon="6.129736">
        <ele>450.45370</ele>
        <time>2021-06-30T07:23:43Z</time>
      </trkpt>
      <trkpt lat="45.902489" lon="6.129736">
        <ele>450.31638</ele>
        <time>2021-06-30T07:23:44Z</time>
      </trkpt>
      <trkpt lat="45.902489" lon="6.129736">
        <ele>450.32571</ele>
        <time>2021-06-30T07:23:45Z</time>
      </trkpt>
      <trkpt lat="45.902489" lon="6.129736">
        <ele>450.26978</ele>
        <time>2021-06-30T07:23:46Z</time>
      </trkpt>
      <trkpt lat="45.902489" lon="6.129736">
        <ele>452.94138</ele>
        <time>2021-06-30T07:23:47Z</time>
      </trkpt>
      <trkpt lat="45.902489" lon="6.129736">
        <ele>452.16974</ele>
        <time>2021-06-30T07:23:48Z</time>
      </trkpt>
      <trkpt lat="45.902489" lon="6.129736">
        <ele>450.77444</ele>
        <time>2021-06-30T07:23:49Z</time>
      </trkpt>
      <trkpt lat="45.902489" lon="6.129736">
        <ele>450.56360</ele>
        <time>2021-06-30T07:23:50Z</time>
      </trkpt>
      <trkpt lat="45.902489" lon="6.129736">
        <ele>450.41956</ele>
        <time>2021-06-30T07:23:51Z</time>
      </trkpt>
      <trkpt lat="45.902489" lon="6.129736">
        <ele>450.41043</ele>
        <time>2021-06-30T07:23:52Z</time>
      </trkpt>
      <trkpt lat="45.902489" lon="6.129736">
        <ele>450.21906</ele>
        <time>2021-06-30T07:23:53Z</time>
      </trkpt>
      <trkpt lat="45.902542" lon="6.129728">
        <ele>450.22644</ele>
        <time>2021-06-30T07:23:54Z</time>
      </trkpt>
      <trkpt lat="45.902557" lon="6.129734">
        <ele>450.14450</ele>
        <time>2021-06-30T07:23:55Z</time>
      </trkpt>
      <trkpt lat="45.902569" lon="6.129734">
        <ele>450.14380</ele>
        <time>2021-06-30T07:23:56Z</time>
      </trkpt>
      <trkpt lat="45.902718" lon="6.129672">
        <ele>450.14822</ele>
        <time>2021-06-30T07:23:57Z</time>
      </trkpt>
      <trkpt lat="45.902775" lon="6.129629">
        <ele>450.14450</ele>
        <time>2021-06-30T07:23:58Z</time>
      </trkpt>
      <trkpt lat="45.902805" lon="6.129602">
        <ele>450.15616</ele>
        <time>2021-06-30T07:23:59Z</time>
      </trkpt>
      <trkpt lat="45.902836" lon="6.129581">
        <ele>450.22778</ele>
        <time>2021-06-30T07:24:00Z</time>
      </trkpt>
      <trkpt lat="45.902870" lon="6.129553">
        <ele>450.21204</ele>
        <time>2021-06-30T07:24:01Z</time>
      </trkpt>
      <trkpt lat="45.902905" lon="6.129526">
        <ele>450.24957</ele>
        <time>2021-06-30T07:24:02Z</time>
      </trkpt>
      <trkpt lat="45.902943" lon="6.129496">
        <ele>450.24149</ele>
        <time>2021-06-30T07:24:03Z</time>
      </trkpt>
      <trkpt lat="45.902958" lon="6.129531">
        <ele>450.30399</ele>
        <time>2021-06-30T07:24:04Z</time>
      </trkpt>
      <trkpt lat="45.903004" lon="6.129708">
        <ele>450.45496</ele>
        <time>2021-06-30T07:24:05Z</time>
      </trkpt>
      <trkpt lat="45.903023" lon="6.129788">
        <ele>450.62961</ele>
        <time>2021-06-30T07:24:06Z</time>
      </trkpt>
      <trkpt lat="45.903049" lon="6.129900">
        <ele>450.64874</ele>
        <time>2021-06-30T07:24:07Z</time>
      </trkpt>
      <trkpt lat="45.903084" lon="6.130008">
        <ele>450.60144</ele>
        <time>2021-06-30T07:24:08Z</time>
      </trkpt>
      <trkpt lat="45.903111" lon="6.130091">
        <ele>450.65485</ele>
        <time>2021-06-30T07:24:09Z</time>
      </trkpt>
      <trkpt lat="45.903145" lon="6.130176">
        <ele>450.75693</ele>
        <time>2021-06-30T07:24:10Z</time>
      </trkpt>
      <trkpt lat="45.903145" lon="6.130176">
        <ele>450.72363</ele>
        <time>2021-06-30T07:24:11Z</time>
      </trkpt>
      <trkpt lat="45.903179" lon="6.130270">
        <ele>450.61328</ele>
        <time>2021-06-30T07:24:12Z</time>
      </trkpt>
      <trkpt lat="45.903217" lon="6.130352">
        <ele>450.58621</ele>
        <time>2021-06-30T07:24:13Z</time>
      </trkpt>
      <trkpt lat="45.903252" lon="6.130418">
        <ele>450.59982</ele>
        <time>2021-06-30T07:24:14Z</time>
      </trkpt>
      <trkpt lat="45.903282" lon="6.130476">
        <ele>450.74527</ele>
        <time>2021-06-30T07:24:15Z</time>
      </trkpt>
      <trkpt lat="45.903328" lon="6.130543">
        <ele>450.69827</ele>
        <time>2021-06-30T07:24:16Z</time>
      </trkpt>
      <trkpt lat="45.903381" lon="6.130587">
        <ele>450.80716</ele>
        <time>2021-06-30T07:24:17Z</time>
      </trkpt>
      <trkpt lat="45.903446" lon="6.130611">
        <ele>450.81177</ele>
        <time>2021-06-30T07:24:18Z</time>
      </trkpt>
      <trkpt lat="45.903446" lon="6.130612">
        <ele>450.94742</ele>
        <time>2021-06-30T07:24:19Z</time>
      </trkpt>
      <trkpt lat="45.903446" lon="6.130612">
        <ele>451.02649</ele>
        <time>2021-06-30T07:24:20Z</time>
      </trkpt>
      <trkpt lat="45.903446" lon="6.130612">
        <ele>451.28052</ele>
        <time>2021-06-30T07:24:21Z</time>
      </trkpt>
      <trkpt lat="45.903591" lon="6.130696">
        <ele>451.45450</ele>
        <time>2021-06-30T07:24:22Z</time>
      </trkpt>
      <trkpt lat="45.903755" lon="6.130813">
        <ele>451.35397</ele>
        <time>2021-06-30T07:24:23Z</time>
      </trkpt>
      <trkpt lat="45.903858" lon="6.130876">
        <ele>451.09512</ele>
        <time>2021-06-30T07:24:24Z</time>
      </trkpt>
      <trkpt lat="45.903934" lon="6.130922">
        <ele>450.94049</ele>
        <time>2021-06-30T07:24:25Z</time>
      </trkpt>
      <trkpt lat="45.903984" lon="6.130953">
        <ele>450.93478</ele>
        <time>2021-06-30T07:24:26Z</time>
      </trkpt>
      <trkpt lat="45.904041" lon="6.130989">
        <ele>450.88226</ele>
        <time>2021-06-30T07:24:27Z</time>
      </trkpt>
      <trkpt lat="45.904102" lon="6.131028">
        <ele>451.01337</ele>
        <time>2021-06-30T07:24:28Z</time>
      </trkpt>
      <trkpt lat="45.904171" lon="6.131086">
        <ele>451.02032</ele>
        <time>2021-06-30T07:24:29Z</time>
      </trkpt>
      <trkpt lat="45.904243" lon="6.131161">
        <ele>450.97772</ele>
        <time>2021-06-30T07:24:30Z</time>
      </trkpt>
      <trkpt lat="45.904327" lon="6.131216">
        <ele>450.99756</ele>
        <time>2021-06-30T07:24:31Z</time>
      </trkpt>
      <trkpt lat="45.904415" lon="6.131274">
        <ele>451.05118</ele>
        <time>2021-06-30T07:24:32Z</time>
      </trkpt>
      <trkpt lat="45.904488" lon="6.131340">
        <ele>451.04816</ele>
        <time>2021-06-30T07:24:33Z</time>
      </trkpt>
      <trkpt lat="45.904545" lon="6.131404">
        <ele>451.16422</ele>
        <time>2021-06-30T07:24:34Z</time>
      </trkpt>
      <trkpt lat="45.904602" lon="6.131472">
        <ele>451.04099</ele>
        <time>2021-06-30T07:24:35Z</time>
      </trkpt>
      <trkpt lat="45.904663" lon="6.131539">
        <ele>451.26456</ele>
        <time>2021-06-30T07:24:36Z</time>
      </trkpt>
      <trkpt lat="45.904739" lon="6.131629">
        <ele>451.01077</ele>
        <time>2021-06-30T07:24:37Z</time>
      </trkpt>
      <trkpt lat="45.904812" lon="6.131719">
        <ele>450.87335</ele>
        <time>2021-06-30T07:24:38Z</time>
      </trkpt>
      <trkpt lat="45.904884" lon="6.131822">
        <ele>450.92941</ele>
        <time>2021-06-30T07:24:39Z</time>
      </trkpt>
      <trkpt lat="45.904949" lon="6.131907">
        <ele>450.82401</ele>
        <time>2021-06-30T07:24:40Z</time>
      </trkpt>
      <trkpt lat="45.905010" lon="6.131991">
        <ele>450.64734</ele>
        <time>2021-06-30T07:24:41Z</time>
      </trkpt>
      <trkpt lat="45.905071" lon="6.132071">
        <ele>450.55966</ele>
        <time>2021-06-30T07:24:42Z</time>
      </trkpt>
      <trkpt lat="45.905113" lon="6.132132">
        <ele>450.61008</ele>
        <time>2021-06-30T07:24:43Z</time>
      </trkpt>
      <trkpt lat="45.905155" lon="6.132189">
        <ele>450.61868</ele>
        <time>2021-06-30T07:24:44Z</time>
      </trkpt>
      <trkpt lat="45.905193" lon="6.132243">
        <ele>450.68420</ele>
        <time>2021-06-30T07:24:45Z</time>
      </trkpt>
      <trkpt lat="45.905239" lon="6.132309">
        <ele>450.64148</ele>
        <time>2021-06-30T07:24:46Z</time>
      </trkpt>
      <trkpt lat="45.905231" lon="6.132442">
        <ele>450.77631</ele>
        <time>2021-06-30T07:24:47Z</time>
      </trkpt>
      <trkpt lat="45.905231" lon="6.132442">
        <ele>450.87952</ele>
        <time>2021-06-30T07:24:48Z</time>
      </trkpt>
      <trkpt lat="45.905296" lon="6.132584">
        <ele>451.00494</ele>
        <time>2021-06-30T07:24:49Z</time>
      </trkpt>
      <trkpt lat="45.905319" lon="6.132598">
        <ele>450.97470</ele>
        <time>2021-06-30T07:24:50Z</time>
      </trkpt>
      <trkpt lat="45.905376" lon="6.132599">
        <ele>451.08783</ele>
        <time>2021-06-30T07:24:51Z</time>
      </trkpt>
      <trkpt lat="45.905415" lon="6.132569">
        <ele>451.17426</ele>
        <time>2021-06-30T07:24:52Z</time>
      </trkpt>
      <trkpt lat="45.905457" lon="6.132479">
        <ele>451.37180</ele>
        <time>2021-06-30T07:24:53Z</time>
      </trkpt>
      <trkpt lat="45.905457" lon="6.132386">
        <ele>451.27039</ele>
        <time>2021-06-30T07:24:54Z</time>
      </trkpt>
      <trkpt lat="45.905483" lon="6.132291">
        <ele>451.19016</ele>
        <time>2021-06-30T07:24:55Z</time>
      </trkpt>
      <trkpt lat="45.905544" lon="6.132140">
        <ele>451.24850</ele>
        <time>2021-06-30T07:24:56Z</time>
      </trkpt>
      <trkpt lat="45.905594" lon="6.132018">
        <ele>451.11957</ele>
        <time>2021-06-30T07:24:57Z</time>
      </trkpt>
      <trkpt lat="45.905643" lon="6.131900">
        <ele>451.14505</ele>
        <time>2021-06-30T07:24:58Z</time>
      </trkpt>
      <trkpt lat="45.905689" lon="6.131787">
        <ele>451.22751</ele>
        <time>2021-06-30T07:24:59Z</time>
      </trkpt>
      <trkpt lat="45.905731" lon="6.131678">
        <ele>451.25879</ele>
        <time>2021-06-30T07:25:00Z</time>
      </trkpt>
      <trkpt lat="45.905781" lon="6.131564">
        <ele>451.42776</ele>
        <time>2021-06-30T07:25:01Z</time>
      </trkpt>
      <trkpt lat="45.905838" lon="6.131461">
        <ele>451.28067</ele>
        <time>2021-06-30T07:25:02Z</time>
      </trkpt>
      <trkpt lat="45.905907" lon="6.131373">
        <ele>451.14209</ele>
        <time>2021-06-30T07:25:03Z</time>
      </trkpt>
      <trkpt lat="45.905952" lon="6.131335">
        <ele>451.14816</ele>
        <time>2021-06-30T07:25:04Z</time>
      </trkpt>
      <trkpt lat="45.905991" lon="6.131315">
        <ele>451.16797</ele>
        <time>2021-06-30T07:25:05Z</time>
      </trkpt>
      <trkpt lat="45.906036" lon="6.131297">
        <ele>451.14374</ele>
        <time>2021-06-30T07:25:06Z</time>
      </trkpt>
      <trkpt lat="45.906048" lon="6.131293">
        <ele>451.27945</ele>
        <time>2021-06-30T07:25:07Z</time>
      </trkpt>
      <trkpt lat="45.906055" lon="6.131288">
        <ele>451.42130</ele>
        <time>2021-06-30T07:25:08Z</time>
      </trkpt>
      <trkpt lat="45.906120" lon="6.131293">
        <ele>451.65262</ele>
        <time>2021-06-30T07:25:09Z</time>
      </trkpt>
      <trkpt lat="45.906178" lon="6.131285">
        <ele>451.83090</ele>
        <time>2021-06-30T07:25:10Z</time>
      </trkpt>
      <trkpt lat="45.906254" lon="6.131224">
        <ele>451.84387</ele>
        <time>2021-06-30T07:25:11Z</time>
      </trkpt>
      <trkpt lat="45.906311" lon="6.131104">
        <ele>451.72504</ele>
        <time>2021-06-30T07:25:12Z</time>
      </trkpt>
      <trkpt lat="45.906322" lon="6.130984">
        <ele>451.76910</ele>
        <time>2021-06-30T07:25:13Z</time>
      </trkpt>
      <trkpt lat="45.906303" lon="6.130903">
        <ele>451.72797</ele>
        <time>2021-06-30T07:25:14Z</time>
      </trkpt>
      <trkpt lat="45.906277" lon="6.130847">
        <ele>451.82614</ele>
        <time>2021-06-30T07:25:15Z</time>
      </trkpt>
      <trkpt lat="45.906212" lon="6.130778">
        <ele>451.81680</ele>
        <time>2021-06-30T07:25:16Z</time>
      </trkpt>
      <trkpt lat="45.906178" lon="6.130760">
        <ele>451.77103</ele>
        <time>2021-06-30T07:25:17Z</time>
      </trkpt>
      <trkpt lat="45.906132" lon="6.130621">
        <ele>451.82739</ele>
        <time>2021-06-30T07:25:18Z</time>
      </trkpt>
      <trkpt lat="45.906120" lon="6.130498">
        <ele>451.68353</ele>
        <time>2021-06-30T07:25:19Z</time>
      </trkpt>
      <trkpt lat="45.906105" lon="6.130344">
        <ele>451.70346</ele>
        <time>2021-06-30T07:25:20Z</time>
      </trkpt>
      <trkpt lat="45.906094" lon="6.130206">
        <ele>451.61945</ele>
        <time>2021-06-30T07:25:21Z</time>
      </trkpt>
      <trkpt lat="45.906086" lon="6.130103">
        <ele>451.46826</ele>
        <time>2021-06-30T07:25:22Z</time>
      </trkpt>
      <trkpt lat="45.906055" lon="6.130007">
        <ele>451.51990</ele>
        <time>2021-06-30T07:25:23Z</time>
      </trkpt>
      <trkpt lat="45.906044" lon="6.129921">
        <ele>451.55792</ele>
        <time>2021-06-30T07:25:24Z</time>
      </trkpt>
      <trkpt lat="45.906036" lon="6.129805">
        <ele>451.63235</ele>
        <time>2021-06-30T07:25:25Z</time>
      </trkpt>
      <trkpt lat="45.906036" lon="6.129805">
        <ele>451.57666</ele>
        <time>2021-06-30T07:25:26Z</time>
      </trkpt>
      <trkpt lat="45.906036" lon="6.129668">
        <ele>451.63623</ele>
        <time>2021-06-30T07:25:27Z</time>
      </trkpt>
      <trkpt lat="45.906033" lon="6.129524">
        <ele>451.49658</ele>
        <time>2021-06-30T07:25:28Z</time>
      </trkpt>
      <trkpt lat="45.906029" lon="6.129402">
        <ele>451.29074</ele>
        <time>2021-06-30T07:25:29Z</time>
      </trkpt>
      <trkpt lat="45.906029" lon="6.129321">
        <ele>451.45642</ele>
        <time>2021-06-30T07:25:30Z</time>
      </trkpt>
      <trkpt lat="45.906025" lon="6.129284">
        <ele>451.67139</ele>
        <time>2021-06-30T07:25:31Z</time>
      </trkpt>
      <trkpt lat="45.906055" lon="6.129275">
        <ele>451.73486</ele>
        <time>2021-06-30T07:25:32Z</time>
      </trkpt>
      <trkpt lat="45.906109" lon="6.129247">
        <ele>451.85181</ele>
        <time>2021-06-30T07:25:33Z</time>
      </trkpt>
      <trkpt lat="45.906158" lon="6.129161">
        <ele>451.76160</ele>
        <time>2021-06-30T07:25:34Z</time>
      </trkpt>
      <trkpt lat="45.906174" lon="6.129009">
        <ele>451.96219</ele>
        <time>2021-06-30T07:25:35Z</time>
      </trkpt>
      <trkpt lat="45.906151" lon="6.128936">
        <ele>452.03369</ele>
        <time>2021-06-30T07:25:36Z</time>
      </trkpt>
      <trkpt lat="45.906097" lon="6.128855">
        <ele>451.98907</ele>
        <time>2021-06-30T07:25:37Z</time>
      </trkpt>
      <trkpt lat="45.906006" lon="6.128839">
        <ele>452.03287</ele>
        <time>2021-06-30T07:25:38Z</time>
      </trkpt>
      <trkpt lat="45.905994" lon="6.128842">
        <ele>452.14001</ele>
        <time>2021-06-30T07:25:39Z</time>
      </trkpt>
      <trkpt lat="45.905968" lon="6.128587">
        <ele>452.26733</ele>
        <time>2021-06-30T07:25:40Z</time>
      </trkpt>
      <trkpt lat="45.905949" lon="6.128389">
        <ele>452.39200</ele>
        <time>2021-06-30T07:25:41Z</time>
      </trkpt>
      <trkpt lat="45.905937" lon="6.128272">
        <ele>452.62085</ele>
        <time>2021-06-30T07:25:42Z</time>
      </trkpt>
      <trkpt lat="45.905922" lon="6.128161">
        <ele>452.71121</ele>
        <time>2021-06-30T07:25:43Z</time>
      </trkpt>
      <trkpt lat="45.905907" lon="6.128038">
        <ele>452.62689</ele>
        <time>2021-06-30T07:25:44Z</time>
      </trkpt>
      <trkpt lat="45.905891" lon="6.127926">
        <ele>452.50232</ele>
        <time>2021-06-30T07:25:45Z</time>
      </trkpt>
      <trkpt lat="45.905880" lon="6.127825">
        <ele>452.50052</ele>
        <time>2021-06-30T07:25:46Z</time>
      </trkpt>
      <trkpt lat="45.905869" lon="6.127755">
        <ele>452.65686</ele>
        <time>2021-06-30T07:25:47Z</time>
      </trkpt>
      <trkpt lat="45.905861" lon="6.127663">
        <ele>452.79517</ele>
        <time>2021-06-30T07:25:48Z</time>
      </trkpt>
      <trkpt lat="45.905857" lon="6.127574">
        <ele>452.66943</ele>
        <time>2021-06-30T07:25:49Z</time>
      </trkpt>
      <trkpt lat="45.905872" lon="6.127479">
        <ele>452.67227</ele>
        <time>2021-06-30T07:25:50Z</time>
      </trkpt>
      <trkpt lat="45.905872" lon="6.127426">
        <ele>452.75024</ele>
        <time>2021-06-30T07:25:51Z</time>
      </trkpt>
      <trkpt lat="45.905861" lon="6.127252">
        <ele>452.74030</ele>
        <time>2021-06-30T07:25:52Z</time>
      </trkpt>
      <trkpt lat="45.905853" lon="6.127112">
        <ele>452.72345</ele>
        <time>2021-06-30T07:25:53Z</time>
      </trkpt>
      <trkpt lat="45.905849" lon="6.126997">
        <ele>452.89914</ele>
        <time>2021-06-30T07:25:54Z</time>
      </trkpt>
      <trkpt lat="45.905842" lon="6.126878">
        <ele>452.79001</ele>
        <time>2021-06-30T07:25:55Z</time>
      </trkpt>
      <trkpt lat="45.905838" lon="6.126767">
        <ele>452.82687</ele>
        <time>2021-06-30T07:25:56Z</time>
      </trkpt>
      <trkpt lat="45.905830" lon="6.126639">
        <ele>452.87360</ele>
        <time>2021-06-30T07:25:57Z</time>
      </trkpt>
      <trkpt lat="45.905827" lon="6.126527">
        <ele>453.03998</ele>
        <time>2021-06-30T07:25:58Z</time>
      </trkpt>
      <trkpt lat="45.905819" lon="6.126410">
        <ele>453.24554</ele>
        <time>2021-06-30T07:25:59Z</time>
      </trkpt>
      <trkpt lat="45.905815" lon="6.126293">
        <ele>453.08133</ele>
        <time>2021-06-30T07:26:00Z</time>
      </trkpt>
      <trkpt lat="45.905807" lon="6.126179">
        <ele>452.94415</ele>
        <time>2021-06-30T07:26:01Z</time>
      </trkpt>
      <trkpt lat="45.905807" lon="6.126179">
        <ele>452.92627</ele>
        <time>2021-06-30T07:26:02Z</time>
      </trkpt>
      <trkpt lat="45.905807" lon="6.126122">
        <ele>452.92151</ele>
        <time>2021-06-30T07:26:03Z</time>
      </trkpt>
      <trkpt lat="45.905807" lon="6.126117">
        <ele>453.11179</ele>
        <time>2021-06-30T07:26:04Z</time>
      </trkpt>
      <trkpt lat="45.905807" lon="6.126117">
        <ele>453.25430</ele>
        <time>2021-06-30T07:26:05Z</time>
      </trkpt>
      <trkpt lat="45.905811" lon="6.126091">
        <ele>453.43042</ele>
        <time>2021-06-30T07:26:06Z</time>
      </trkpt>
      <trkpt lat="45.905861" lon="6.126024">
        <ele>453.82523</ele>
        <time>2021-06-30T07:26:07Z</time>
      </trkpt>
      <trkpt lat="45.905888" lon="6.125904">
        <ele>453.87161</ele>
        <time>2021-06-30T07:26:08Z</time>
      </trkpt>
      <trkpt lat="45.905884" lon="6.125792">
        <ele>453.76196</ele>
        <time>2021-06-30T07:26:09Z</time>
      </trkpt>
      <trkpt lat="45.905842" lon="6.125702">
        <ele>453.76364</ele>
        <time>2021-06-30T07:26:10Z</time>
      </trkpt>
      <trkpt lat="45.905792" lon="6.125665">
        <ele>453.64444</ele>
        <time>2021-06-30T07:26:11Z</time>
      </trkpt>
      <trkpt lat="45.905731" lon="6.125648">
        <ele>453.56131</ele>
        <time>2021-06-30T07:26:12Z</time>
      </trkpt>
      <trkpt lat="45.905682" lon="6.125649">
        <ele>453.73285</ele>
        <time>2021-06-30T07:26:13Z</time>
      </trkpt>
      <trkpt lat="45.905617" lon="6.125677">
        <ele>453.81128</ele>
        <time>2021-06-30T07:26:14Z</time>
      </trkpt>
      <trkpt lat="45.905567" lon="6.125738">
        <ele>453.70224</ele>
        <time>2021-06-30T07:26:15Z</time>
      </trkpt>
      <trkpt lat="45.905556" lon="6.125776">
        <ele>453.59232</ele>
        <time>2021-06-30T07:26:16Z</time>
      </trkpt>
      <trkpt lat="45.905556" lon="6.125776">
        <ele>453.48209</ele>
        <time>2021-06-30T07:26:17Z</time>
      </trkpt>
      <trkpt lat="45.905453" lon="6.125735">
        <ele>453.41693</ele>
        <time>2021-06-30T07:26:18Z</time>
      </trkpt>
      <trkpt lat="45.905357" lon="6.126152">
        <ele>453.34119</ele>
        <time>2021-06-30T07:26:19Z</time>
      </trkpt>
      <trkpt lat="45.905289" lon="6.126183">
        <ele>453.09924</ele>
        <time>2021-06-30T07:26:20Z</time>
      </trkpt>
      <trkpt lat="45.905235" lon="6.126206">
        <ele>453.04453</ele>
        <time>2021-06-30T07:26:21Z</time>
      </trkpt>
      <trkpt lat="45.905170" lon="6.126241">
        <ele>452.99707</ele>
        <time>2021-06-30T07:26:22Z</time>
      </trkpt>
      <trkpt lat="45.905087" lon="6.126290">
        <ele>453.02664</ele>
        <time>2021-06-30T07:26:23Z</time>
      </trkpt>
      <trkpt lat="45.905010" lon="6.126352">
        <ele>453.13538</ele>
        <time>2021-06-30T07:26:24Z</time>
      </trkpt>
      <trkpt lat="45.904930" lon="6.126419">
        <ele>453.13239</ele>
        <time>2021-06-30T07:26:25Z</time>
      </trkpt>
      <trkpt lat="45.904816" lon="6.126508">
        <ele>453.40430</ele>
        <time>2021-06-30T07:26:26Z</time>
      </trkpt>
      <trkpt lat="45.904694" lon="6.126593">
        <ele>453.23538</ele>
        <time>2021-06-30T07:26:27Z</time>
      </trkpt>
      <trkpt lat="45.904579" lon="6.126673">
        <ele>453.26562</ele>
        <time>2021-06-30T07:26:28Z</time>
      </trkpt>
      <trkpt lat="45.904480" lon="6.126743">
        <ele>453.22256</ele>
        <time>2021-06-30T07:26:29Z</time>
      </trkpt>
      <trkpt lat="45.904385" lon="6.126810">
        <ele>452.82797</ele>
        <time>2021-06-30T07:26:30Z</time>
      </trkpt>
      <trkpt lat="45.904289" lon="6.126878">
        <ele>452.62625</ele>
        <time>2021-06-30T07:26:31Z</time>
      </trkpt>
      <trkpt lat="45.904198" lon="6.126942">
        <ele>452.43594</ele>
        <time>2021-06-30T07:26:32Z</time>
      </trkpt>
      <trkpt lat="45.904121" lon="6.126995">
        <ele>452.05215</ele>
        <time>2021-06-30T07:26:33Z</time>
      </trkpt>
      <trkpt lat="45.904064" lon="6.127036">
        <ele>452.02731</ele>
        <time>2021-06-30T07:26:34Z</time>
      </trkpt>
      <trkpt lat="45.904026" lon="6.127062">
        <ele>451.99521</ele>
        <time>2021-06-30T07:26:35Z</time>
      </trkpt>
      <trkpt lat="45.903965" lon="6.127104">
        <ele>451.90140</ele>
        <time>2021-06-30T07:26:36Z</time>
      </trkpt>
      <trkpt lat="45.903915" lon="6.127155">
        <ele>451.74893</ele>
        <time>2021-06-30T07:26:37Z</time>
      </trkpt>
      <trkpt lat="45.903915" lon="6.127155">
        <ele>451.60739</ele>
        <time>2021-06-30T07:26:38Z</time>
      </trkpt>
      <trkpt lat="45.903889" lon="6.127194">
        <ele>451.61002</ele>
        <time>2021-06-30T07:26:39Z</time>
      </trkpt>
      <trkpt lat="45.903877" lon="6.127207">
        <ele>451.60718</ele>
        <time>2021-06-30T07:26:40Z</time>
      </trkpt>
      <trkpt lat="45.903862" lon="6.127227">
        <ele>451.67560</ele>
        <time>2021-06-30T07:26:41Z</time>
      </trkpt>
      <trkpt lat="45.903831" lon="6.127266">
        <ele>451.55185</ele>
        <time>2021-06-30T07:26:42Z</time>
      </trkpt>
      <trkpt lat="45.903809" lon="6.127296">
        <ele>451.62125</ele>
        <time>2021-06-30T07:26:43Z</time>
      </trkpt>
      <trkpt lat="45.903790" lon="6.127319">
        <ele>451.56305</ele>
        <time>2021-06-30T07:26:44Z</time>
      </trkpt>
      <trkpt lat="45.903774" lon="6.127339">
        <ele>451.88522</ele>
        <time>2021-06-30T07:26:45Z</time>
      </trkpt>
      <trkpt lat="45.903748" lon="6.127373">
        <ele>454.99677</ele>
        <time>2021-06-30T07:26:46Z</time>
      </trkpt>
      <trkpt lat="45.903728" lon="6.127399">
        <ele>455.26428</ele>
        <time>2021-06-30T07:26:47Z</time>
      </trkpt>
      <trkpt lat="45.903725" lon="6.127401">
        <ele>455.40149</ele>
        <time>2021-06-30T07:26:48Z</time>
      </trkpt>
      <trkpt lat="45.903725" lon="6.127403">
        <ele>455.61630</ele>
        <time>2021-06-30T07:26:49Z</time>
      </trkpt>
      <trkpt lat="45.903725" lon="6.127404">
        <ele>455.62103</ele>
        <time>2021-06-30T07:26:50Z</time>
      </trkpt>
      <trkpt lat="45.903725" lon="6.127404">
        <ele>455.77588</ele>
        <time>2021-06-30T07:26:51Z</time>
      </trkpt>
      <trkpt lat="45.903622" lon="6.127260">
        <ele>455.95093</ele>
        <time>2021-06-30T07:26:52Z</time>
      </trkpt>
      <trkpt lat="45.903557" lon="6.127036">
        <ele>456.21463</ele>
        <time>2021-06-30T07:26:53Z</time>
      </trkpt>
      <trkpt lat="45.903526" lon="6.126934">
        <ele>456.29645</ele>
        <time>2021-06-30T07:26:54Z</time>
      </trkpt>
      <trkpt lat="45.903492" lon="6.126819">
        <ele>456.27744</ele>
        <time>2021-06-30T07:26:55Z</time>
      </trkpt>
      <trkpt lat="45.903461" lon="6.126716">
        <ele>456.41229</ele>
        <time>2021-06-30T07:26:56Z</time>
      </trkpt>
      <trkpt lat="45.903435" lon="6.126624">
        <ele>456.60709</ele>
        <time>2021-06-30T07:26:57Z</time>
      </trkpt>
      <trkpt lat="45.903400" lon="6.126512">
        <ele>456.44101</ele>
        <time>2021-06-30T07:26:58Z</time>
      </trkpt>
      <trkpt lat="45.903370" lon="6.126410">
        <ele>456.72614</ele>
        <time>2021-06-30T07:26:59Z</time>
      </trkpt>
      <trkpt lat="45.903351" lon="6.126341">
        <ele>456.72968</ele>
        <time>2021-06-30T07:27:00Z</time>
      </trkpt>
      <trkpt lat="45.903328" lon="6.126262">
        <ele>456.71735</ele>
        <time>2021-06-30T07:27:01Z</time>
      </trkpt>
      <trkpt lat="45.903301" lon="6.126169">
        <ele>456.70264</ele>
        <time>2021-06-30T07:27:02Z</time>
      </trkpt>
      <trkpt lat="45.903290" lon="6.126131">
        <ele>456.55923</ele>
        <time>2021-06-30T07:27:03Z</time>
      </trkpt>
      <trkpt lat="45.903286" lon="6.126123">
        <ele>456.43698</ele>
        <time>2021-06-30T07:27:04Z</time>
      </trkpt>
      <trkpt lat="45.903282" lon="6.126115">
        <ele>456.49402</ele>
        <time>2021-06-30T07:27:05Z</time>
      </trkpt>
      <trkpt lat="45.903282" lon="6.126114">
        <ele>456.55157</ele>
        <time>2021-06-30T07:27:06Z</time>
      </trkpt>
      <trkpt lat="45.903282" lon="6.126109">
        <ele>456.56015</ele>
        <time>2021-06-30T07:27:07Z</time>
      </trkpt>
      <trkpt lat="45.903282" lon="6.126109">
        <ele>456.58945</ele>
        <time>2021-06-30T07:27:08Z</time>
      </trkpt>
      <trkpt lat="45.903275" lon="6.126090">
        <ele>456.66650</ele>
        <time>2021-06-30T07:27:09Z</time>
      </trkpt>
      <trkpt lat="45.903271" lon="6.126074">
        <ele>456.70856</ele>
        <time>2021-06-30T07:27:10Z</time>
      </trkpt>
      <trkpt lat="45.903263" lon="6.126035">
        <ele>456.90955</ele>
        <time>2021-06-30T07:27:11Z</time>
      </trkpt>
      <trkpt lat="45.903400" lon="6.125949">
        <ele>457.22394</ele>
        <time>2021-06-30T07:27:12Z</time>
      </trkpt>
      <trkpt lat="45.903519" lon="6.125877">
        <ele>457.26501</ele>
        <time>2021-06-30T07:27:13Z</time>
      </trkpt>
      <trkpt lat="45.903603" lon="6.125826">
        <ele>457.21606</ele>
        <time>2021-06-30T07:27:14Z</time>
      </trkpt>
      <trkpt lat="45.903713" lon="6.125756">
        <ele>457.08844</ele>
        <time>2021-06-30T07:27:15Z</time>
      </trkpt>
      <trkpt lat="45.903763" lon="6.125727">
        <ele>456.88556</ele>
        <time>2021-06-30T07:27:16Z</time>
      </trkpt>
      <trkpt lat="45.903797" lon="6.125704">
        <ele>456.79413</ele>
        <time>2021-06-30T07:27:17Z</time>
      </trkpt>
      <trkpt lat="45.903824" lon="6.125688">
        <ele>456.66330</ele>
        <time>2021-06-30T07:27:18Z</time>
      </trkpt>
      <trkpt lat="45.903824" lon="6.125688">
        <ele>456.72736</ele>
        <time>2021-06-30T07:27:19Z</time>
      </trkpt>
      <trkpt lat="45.903824" lon="6.125688">
        <ele>456.73230</ele>
        <time>2021-06-30T07:27:20Z</time>
      </trkpt>
      <trkpt lat="45.903824" lon="6.125688">
        <ele>456.84753</ele>
        <time>2021-06-30T07:27:21Z</time>
      </trkpt>
      <trkpt lat="45.903831" lon="6.125684">
        <ele>456.94427</ele>
        <time>2021-06-30T07:27:22Z</time>
      </trkpt>
      <trkpt lat="45.903873" lon="6.125658">
        <ele>457.02710</ele>
        <time>2021-06-30T07:27:23Z</time>
      </trkpt>
      <trkpt lat="45.903927" lon="6.125623">
        <ele>456.89334</ele>
        <time>2021-06-30T07:27:24Z</time>
      </trkpt>
      <trkpt lat="45.903980" lon="6.125586">
        <ele>456.92374</ele>
        <time>2021-06-30T07:27:25Z</time>
      </trkpt>
      <trkpt lat="45.904030" lon="6.125553">
        <ele>457.03561</ele>
        <time>2021-06-30T07:27:26Z</time>
      </trkpt>
      <trkpt lat="45.904083" lon="6.125516">
        <ele>457.18176</ele>
        <time>2021-06-30T07:27:27Z</time>
      </trkpt>
      <trkpt lat="45.904083" lon="6.125516">
        <ele>457.17197</ele>
        <time>2021-06-30T07:27:28Z</time>
      </trkpt>
      <trkpt lat="45.904156" lon="6.125468">
        <ele>457.17023</ele>
        <time>2021-06-30T07:27:29Z</time>
      </trkpt>
      <trkpt lat="45.904209" lon="6.125431">
        <ele>457.23615</ele>
        <time>2021-06-30T07:27:30Z</time>
      </trkpt>
      <trkpt lat="45.904270" lon="6.125388">
        <ele>457.14655</ele>
        <time>2021-06-30T07:27:31Z</time>
      </trkpt>
      <trkpt lat="45.904316" lon="6.125359">
        <ele>457.21533</ele>
        <time>2021-06-30T07:27:32Z</time>
      </trkpt>
      <trkpt lat="45.904362" lon="6.125320">
        <ele>457.27832</ele>
        <time>2021-06-30T07:27:33Z</time>
      </trkpt>
      <trkpt lat="45.904415" lon="6.125280">
        <ele>457.24530</ele>
        <time>2021-06-30T07:27:34Z</time>
      </trkpt>
      <trkpt lat="45.904465" lon="6.125240">
        <ele>457.16806</ele>
        <time>2021-06-30T07:27:35Z</time>
      </trkpt>
      <trkpt lat="45.904514" lon="6.125202">
        <ele>457.23999</ele>
        <time>2021-06-30T07:27:36Z</time>
      </trkpt>
      <trkpt lat="45.904552" lon="6.125226">
        <ele>457.48511</ele>
        <time>2021-06-30T07:27:37Z</time>
      </trkpt>
      <trkpt lat="45.904606" lon="6.125272">
        <ele>457.67276</ele>
        <time>2021-06-30T07:27:38Z</time>
      </trkpt>
      <trkpt lat="45.904701" lon="6.125359">
        <ele>457.62527</ele>
        <time>2021-06-30T07:27:39Z</time>
      </trkpt>
      <trkpt lat="45.904766" lon="6.125417">
        <ele>457.51517</ele>
        <time>2021-06-30T07:27:40Z</time>
      </trkpt>
      <trkpt lat="45.904835" lon="6.125479">
        <ele>457.47495</ele>
        <time>2021-06-30T07:27:41Z</time>
      </trkpt>
      <trkpt lat="45.904900" lon="6.125537">
        <ele>457.64157</ele>
        <time>2021-06-30T07:27:42Z</time>
      </trkpt>
      <trkpt lat="45.904964" lon="6.125597">
        <ele>457.44699</ele>
        <time>2021-06-30T07:27:43Z</time>
      </trkpt>
      <trkpt lat="45.905029" lon="6.125655">
        <ele>457.42966</ele>
        <time>2021-06-30T07:27:44Z</time>
      </trkpt>
      <trkpt lat="45.905094" lon="6.125713">
        <ele>457.42892</ele>
        <time>2021-06-30T07:27:45Z</time>
      </trkpt>
      <trkpt lat="45.905155" lon="6.125768">
        <ele>457.54361</ele>
        <time>2021-06-30T07:27:46Z</time>
      </trkpt>
      <trkpt lat="45.905220" lon="6.125820">
        <ele>457.75510</ele>
        <time>2021-06-30T07:27:47Z</time>
      </trkpt>
      <trkpt lat="45.905319" lon="6.125881">
        <ele>457.36670</ele>
        <time>2021-06-30T07:27:48Z</time>
      </trkpt>
      <trkpt lat="45.905415" lon="6.125923">
        <ele>457.21591</ele>
        <time>2021-06-30T07:27:49Z</time>
      </trkpt>
      <trkpt lat="45.905453" lon="6.125939">
        <ele>457.16107</ele>
        <time>2021-06-30T07:27:50Z</time>
      </trkpt>
      <trkpt lat="45.905472" lon="6.125947">
        <ele>457.14673</ele>
        <time>2021-06-30T07:27:51Z</time>
      </trkpt>
      <trkpt lat="45.905476" lon="6.125949">
        <ele>457.27496</ele>
        <time>2021-06-30T07:27:52Z</time>
      </trkpt>
      <trkpt lat="45.905476" lon="6.125949">
        <ele>457.34491</ele>
        <time>2021-06-30T07:27:53Z</time>
      </trkpt>
      <trkpt lat="45.905476" lon="6.125949">
        <ele>457.39536</ele>
        <time>2021-06-30T07:27:54Z</time>
      </trkpt>
      <trkpt lat="45.905476" lon="6.125949">
        <ele>457.58145</ele>
        <time>2021-06-30T07:27:55Z</time>
      </trkpt>
      <trkpt lat="45.905563" lon="6.126001">
        <ele>457.78500</ele>
        <time>2021-06-30T07:27:56Z</time>
      </trkpt>
      <trkpt lat="45.905579" lon="6.126029">
        <ele>457.91620</ele>
        <time>2021-06-30T07:27:57Z</time>
      </trkpt>
      <trkpt lat="45.905624" lon="6.126068">
        <ele>457.95798</ele>
        <time>2021-06-30T07:27:58Z</time>
      </trkpt>
      <trkpt lat="45.905682" lon="6.126095">
        <ele>458.04764</ele>
        <time>2021-06-30T07:27:59Z</time>
      </trkpt>
      <trkpt lat="45.905739" lon="6.126105">
        <ele>457.91791</ele>
        <time>2021-06-30T07:28:00Z</time>
      </trkpt>
      <trkpt lat="45.905800" lon="6.126099">
        <ele>457.86987</ele>
        <time>2021-06-30T07:28:01Z</time>
      </trkpt>
      <trkpt lat="45.905830" lon="6.126068">
        <ele>457.88147</ele>
        <time>2021-06-30T07:28:02Z</time>
      </trkpt>
      <trkpt lat="45.905861" lon="6.126026">
        <ele>457.92282</ele>
        <time>2021-06-30T07:28:03Z</time>
      </trkpt>
      <trkpt lat="45.905888" lon="6.125902">
        <ele>457.44339</ele>
        <time>2021-06-30T07:28:04Z</time>
      </trkpt>
      <trkpt lat="45.905884" lon="6.125790">
        <ele>457.14893</ele>
        <time>2021-06-30T07:28:05Z</time>
      </trkpt>
      <trkpt lat="45.905849" lon="6.125709">
        <ele>457.49741</ele>
        <time>2021-06-30T07:28:06Z</time>
      </trkpt>
      <trkpt lat="45.905792" lon="6.125665">
        <ele>457.32764</ele>
        <time>2021-06-30T07:28:07Z</time>
      </trkpt>
      <trkpt lat="45.905712" lon="6.125644">
        <ele>457.56662</ele>
        <time>2021-06-30T07:28:08Z</time>
      </trkpt>
      <trkpt lat="45.905659" lon="6.125659">
        <ele>457.51303</ele>
        <time>2021-06-30T07:28:09Z</time>
      </trkpt>
      <trkpt lat="45.905602" lon="6.125689">
        <ele>457.49783</ele>
        <time>2021-06-30T07:28:10Z</time>
      </trkpt>
      <trkpt lat="45.905602" lon="6.125689">
        <ele>457.52377</ele>
        <time>2021-06-30T07:28:11Z</time>
      </trkpt>
      <trkpt lat="45.905582" lon="6.125713">
        <ele>457.57913</ele>
        <time>2021-06-30T07:28:12Z</time>
      </trkpt>
      <trkpt lat="45.905540" lon="6.125770">
        <ele>457.32938</ele>
        <time>2021-06-30T07:28:13Z</time>
      </trkpt>
      <trkpt lat="45.905430" lon="6.125725">
        <ele>457.25757</ele>
        <time>2021-06-30T07:28:14Z</time>
      </trkpt>
      <trkpt lat="45.905361" lon="6.125692">
        <ele>457.09567</ele>
        <time>2021-06-30T07:28:15Z</time>
      </trkpt>
      <trkpt lat="45.905296" lon="6.125654">
        <ele>456.84705</ele>
        <time>2021-06-30T07:28:16Z</time>
      </trkpt>
      <trkpt lat="45.905235" lon="6.125621">
        <ele>456.34952</ele>
        <time>2021-06-30T07:28:17Z</time>
      </trkpt>
      <trkpt lat="45.905182" lon="6.125590">
        <ele>455.50735</ele>
        <time>2021-06-30T07:28:18Z</time>
      </trkpt>
      <trkpt lat="45.905109" lon="6.125550">
        <ele>455.20941</ele>
        <time>2021-06-30T07:28:19Z</time>
      </trkpt>
      <trkpt lat="45.905025" lon="6.125487">
        <ele>454.50415</ele>
        <time>2021-06-30T07:28:20Z</time>
      </trkpt>
      <trkpt lat="45.904957" lon="6.125436">
        <ele>454.50415</ele>
        <time>2021-06-30T07:28:21Z</time>
      </trkpt>
      <trkpt lat="45.904900" lon="6.125390">
        <ele>454.50415</ele>
        <time>2021-06-30T07:28:22Z</time>
      </trkpt>
      <trkpt lat="45.904884" lon="6.125379">
        <ele>454.50415</ele>
        <time>2021-06-30T07:28:23Z</time>
      </trkpt>
      <trkpt lat="45.904884" lon="6.125379">
        <ele>454.50415</ele>
        <time>2021-06-30T07:28:24Z</time>
      </trkpt>
      <trkpt lat="45.904884" lon="6.125379">
        <ele>454.50415</ele>
        <time>2021-06-30T07:28:25Z</time>
      </trkpt>
      <trkpt lat="45.904884" lon="6.125379">
        <ele>454.50415</ele>
        <time>2021-06-30T07:28:26Z</time>
      </trkpt>
      <trkpt lat="45.904884" lon="6.125379">
        <ele>454.50415</ele>
        <time>2021-06-30T07:28:27Z</time>
      </trkpt>
      <trkpt lat="45.904884" lon="6.125379">
        <ele>454.50415</ele>
        <time>2021-06-30T07:28:28Z</time>
      </trkpt>
      <trkpt lat="45.904884" lon="6.125379">
        <ele>454.50415</ele>
        <time>2021-06-30T07:28:29Z</time>
      </trkpt>
      <trkpt lat="45.904884" lon="6.125379">
        <ele>454.50415</ele>
        <time>2021-06-30T07:28:30Z</time>
      </trkpt>
      <trkpt lat="45.904884" lon="6.125379">
        <ele>454.50415</ele>
        <time>2021-06-30T07:28:31Z</time>
      </trkpt>
      <trkpt lat="45.904884" lon="6.125379">
        <ele>454.50415</ele>
        <time>2021-06-30T07:28:32Z</time>
      </trkpt>
      <trkpt lat="45.904884" lon="6.125379">
        <ele>454.50415</ele>
        <time>2021-06-30T07:28:33Z</time>
      </trkpt>
      <trkpt lat="45.904884" lon="6.125379">
        <ele>454.50415</ele>
        <time>2021-06-30T07:28:34Z</time>
      </trkpt>
      <trkpt lat="45.904884" lon="6.125379">
        <ele>454.50415</ele>
        <time>2021-06-30T07:28:35Z</time>
      </trkpt>
      <trkpt lat="45.904884" lon="6.125379">
        <ele>454.50415</ele>
        <time>2021-06-30T07:28:36Z</time>
      </trkpt>
      <trkpt lat="45.904884" lon="6.125379">
        <ele>454.50415</ele>
        <time>2021-06-30T07:28:37Z</time>
      </trkpt>
      <trkpt lat="45.904884" lon="6.125379">
        <ele>441.53699</ele>
        <time>2021-06-30T07:28:38Z</time>
      </trkpt>
      <trkpt lat="45.904884" lon="6.125379">
        <ele>441.53699</ele>
        <time>2021-06-30T07:28:39Z</time>
      </trkpt>
      <trkpt lat="45.904682" lon="6.125183">
        <ele>441.53699</ele>
        <time>2021-06-30T07:28:40Z</time>
      </trkpt>
      <trkpt lat="45.904118" lon="6.124538">
        <ele>441.53699</ele>
        <time>2021-06-30T07:28:41Z</time>
      </trkpt>
      <trkpt lat="45.904118" lon="6.124538">
        <ele>441.53699</ele>
        <time>2021-06-30T07:28:42Z</time>
      </trkpt>
      <trkpt lat="45.904118" lon="6.124538">
        <ele>439.29700</ele>
        <time>2021-06-30T07:28:43Z</time>
      </trkpt>
      <trkpt lat="45.904118" lon="6.124538">
        <ele>439.29700</ele>
        <time>2021-06-30T07:28:44Z</time>
      </trkpt>
      <trkpt lat="45.904114" lon="6.124535">
        <ele>439.29700</ele>
        <time>2021-06-30T07:28:45Z</time>
      </trkpt>
      <trkpt lat="45.904057" lon="6.124451">
        <ele>439.29700</ele>
        <time>2021-06-30T07:28:46Z</time>
      </trkpt>
      <trkpt lat="45.903976" lon="6.124334">
        <ele>439.29700</ele>
        <time>2021-06-30T07:28:47Z</time>
      </trkpt>
      <trkpt lat="45.903976" lon="6.124334">
        <ele>439.29700</ele>
        <time>2021-06-30T07:28:48Z</time>
      </trkpt>
      <trkpt lat="45.903976" lon="6.124334">
        <ele>439.29700</ele>
        <time>2021-06-30T07:28:49Z</time>
      </trkpt>
      <trkpt lat="45.903976" lon="6.124334">
        <ele>439.29700</ele>
        <time>2021-06-30T07:28:50Z</time>
      </trkpt>
      <trkpt lat="45.903976" lon="6.124334">
        <ele>439.29700</ele>
        <time>2021-06-30T07:28:51Z</time>
      </trkpt>
      <trkpt lat="45.903976" lon="6.124334">
        <ele>439.29700</ele>
        <time>2021-06-30T07:28:52Z</time>
      </trkpt>
      <trkpt lat="45.903976" lon="6.124334">
        <ele>439.29700</ele>
        <time>2021-06-30T07:28:53Z</time>
      </trkpt>
      <trkpt lat="45.903976" lon="6.124334">
        <ele>439.29700</ele>
        <time>2021-06-30T07:28:54Z</time>
      </trkpt>
      <trkpt lat="45.903976" lon="6.124334">
        <ele>439.29700</ele>
        <time>2021-06-30T07:28:55Z</time>
      </trkpt>
      <trkpt lat="45.903976" lon="6.124334">
        <ele>439.29700</ele>
        <time>2021-06-30T07:28:56Z</time>
      </trkpt>
      <trkpt lat="45.903976" lon="6.124334">
        <ele>439.29700</ele>
        <time>2021-06-30T07:28:57Z</time>
      </trkpt>
      <trkpt lat="45.903976" lon="6.124334">
        <ele>439.29700</ele>
        <time>2021-06-30T07:28:58Z</time>
      </trkpt>
      <trkpt lat="45.903976" lon="6.124334">
        <ele>439.29700</ele>
        <time>2021-06-30T07:28:59Z</time>
      </trkpt>
      <trkpt lat="45.903976" lon="6.124334">
        <ele>439.29700</ele>
        <time>2021-06-30T07:29:00Z</time>
      </trkpt>
      <trkpt lat="45.903976" lon="6.124334">
        <ele>439.29700</ele>
        <time>2021-06-30T07:29:01Z</time>
      </trkpt>
      <trkpt lat="45.903976" lon="6.124334">
        <ele>441.78699</ele>
        <time>2021-06-30T07:29:02Z</time>
      </trkpt>
      <trkpt lat="45.903976" lon="6.124334">
        <ele>441.78699</ele>
        <time>2021-06-30T07:29:03Z</time>
      </trkpt>
      <trkpt lat="45.903976" lon="6.124331">
        <ele>456.40662</ele>
        <time>2021-06-30T07:29:04Z</time>
      </trkpt>
      <trkpt lat="45.902843" lon="6.118981">
        <ele>456.25592</ele>
        <time>2021-06-30T07:29:05Z</time>
      </trkpt>
      <trkpt lat="45.902821" lon="6.118820">
        <ele>456.08124</ele>
        <time>2021-06-30T07:29:06Z</time>
      </trkpt>
      <trkpt lat="45.902809" lon="6.118763">
        <ele>455.38736</ele>
        <time>2021-06-30T07:29:07Z</time>
      </trkpt>
      <trkpt lat="45.902798" lon="6.118697">
        <ele>455.03699</ele>
        <time>2021-06-30T07:29:08Z</time>
      </trkpt>
      <trkpt lat="45.902786" lon="6.118632">
        <ele>454.85849</ele>
        <time>2021-06-30T07:29:09Z</time>
      </trkpt>
      <trkpt lat="45.902775" lon="6.118594">
        <ele>454.73328</ele>
        <time>2021-06-30T07:29:10Z</time>
      </trkpt>
      <trkpt lat="45.902775" lon="6.118544">
        <ele>454.93915</ele>
        <time>2021-06-30T07:29:11Z</time>
      </trkpt>
      <trkpt lat="45.902802" lon="6.118481">
        <ele>454.94669</ele>
        <time>2021-06-30T07:29:12Z</time>
      </trkpt>
      <trkpt lat="45.902821" lon="6.118427">
        <ele>455.44238</ele>
        <time>2021-06-30T07:29:13Z</time>
      </trkpt>
      <trkpt lat="45.902927" lon="6.118331">
        <ele>455.51587</ele>
        <time>2021-06-30T07:29:14Z</time>
      </trkpt>
      <trkpt lat="45.903027" lon="6.118230">
        <ele>455.91953</ele>
        <time>2021-06-30T07:29:15Z</time>
      </trkpt>
      <trkpt lat="45.903103" lon="6.118078">
        <ele>455.87500</ele>
        <time>2021-06-30T07:29:16Z</time>
      </trkpt>
      <trkpt lat="45.903194" lon="6.117971">
        <ele>455.92630</ele>
        <time>2021-06-30T07:29:17Z</time>
      </trkpt>
      <trkpt lat="45.903286" lon="6.117871">
        <ele>455.94400</ele>
        <time>2021-06-30T07:29:18Z</time>
      </trkpt>
      <trkpt lat="45.903286" lon="6.117871">
        <ele>455.92862</ele>
        <time>2021-06-30T07:29:19Z</time>
      </trkpt>
      <trkpt lat="45.903370" lon="6.117775">
        <ele>455.67554</ele>
        <time>2021-06-30T07:29:20Z</time>
      </trkpt>
      <trkpt lat="45.903446" lon="6.117688">
        <ele>455.62265</ele>
        <time>2021-06-30T07:29:21Z</time>
      </trkpt>
      <trkpt lat="45.903519" lon="6.117602">
        <ele>455.51901</ele>
        <time>2021-06-30T07:29:22Z</time>
      </trkpt>
      <trkpt lat="45.903599" lon="6.117511">
        <ele>455.64493</ele>
        <time>2021-06-30T07:29:23Z</time>
      </trkpt>
      <trkpt lat="45.903683" lon="6.117417">
        <ele>455.57147</ele>
        <time>2021-06-30T07:29:24Z</time>
      </trkpt>
      <trkpt lat="45.903748" lon="6.117304">
        <ele>455.58087</ele>
        <time>2021-06-30T07:29:25Z</time>
      </trkpt>
      <trkpt lat="45.903801" lon="6.117183">
        <ele>455.47455</ele>
        <time>2021-06-30T07:29:26Z</time>
      </trkpt>
      <trkpt lat="45.903843" lon="6.117046">
        <ele>455.29547</ele>
        <time>2021-06-30T07:29:27Z</time>
      </trkpt>
      <trkpt lat="45.903885" lon="6.116907">
        <ele>455.28238</ele>
        <time>2021-06-30T07:29:28Z</time>
      </trkpt>
      <trkpt lat="45.903923" lon="6.116779">
        <ele>455.34085</ele>
        <time>2021-06-30T07:29:29Z</time>
      </trkpt>
      <trkpt lat="45.903965" lon="6.116652">
        <ele>455.19470</ele>
        <time>2021-06-30T07:29:30Z</time>
      </trkpt>
      <trkpt lat="45.904007" lon="6.116517">
        <ele>455.16534</ele>
        <time>2021-06-30T07:29:31Z</time>
      </trkpt>
      <trkpt lat="45.904053" lon="6.116380">
        <ele>455.27466</ele>
        <time>2021-06-30T07:29:32Z</time>
      </trkpt>
      <trkpt lat="45.904102" lon="6.116232">
        <ele>455.16046</ele>
        <time>2021-06-30T07:29:33Z</time>
      </trkpt>
      <trkpt lat="45.904144" lon="6.116085">
        <ele>455.23395</ele>
        <time>2021-06-30T07:29:34Z</time>
      </trkpt>
      <trkpt lat="45.904186" lon="6.115950">
        <ele>455.40292</ele>
        <time>2021-06-30T07:29:35Z</time>
      </trkpt>
      <trkpt lat="45.904247" lon="6.115830">
        <ele>455.40332</ele>
        <time>2021-06-30T07:29:36Z</time>
      </trkpt>
      <trkpt lat="45.904316" lon="6.115717">
        <ele>455.44119</ele>
        <time>2021-06-30T07:29:37Z</time>
      </trkpt>
      <trkpt lat="45.904388" lon="6.115608">
        <ele>455.41263</ele>
        <time>2021-06-30T07:29:38Z</time>
      </trkpt>
      <trkpt lat="45.904461" lon="6.115522">
        <ele>455.59137</ele>
        <time>2021-06-30T07:29:39Z</time>
      </trkpt>
      <trkpt lat="45.904552" lon="6.115422">
        <ele>455.50757</ele>
        <time>2021-06-30T07:29:40Z</time>
      </trkpt>
      <trkpt lat="45.904633" lon="6.115335">
        <ele>455.68930</ele>
        <time>2021-06-30T07:29:41Z</time>
      </trkpt>
      <trkpt lat="45.904716" lon="6.115252">
        <ele>455.67075</ele>
        <time>2021-06-30T07:29:42Z</time>
      </trkpt>
      <trkpt lat="45.904797" lon="6.115173">
        <ele>455.78082</ele>
        <time>2021-06-30T07:29:43Z</time>
      </trkpt>
      <trkpt lat="45.904884" lon="6.115083">
        <ele>455.81830</ele>
        <time>2021-06-30T07:29:44Z</time>
      </trkpt>
      <trkpt lat="45.904968" lon="6.115002">
        <ele>456.09781</ele>
        <time>2021-06-30T07:29:45Z</time>
      </trkpt>
      <trkpt lat="45.905048" lon="6.114916">
        <ele>455.93570</ele>
        <time>2021-06-30T07:29:46Z</time>
      </trkpt>
      <trkpt lat="45.905136" lon="6.114821">
        <ele>456.01233</ele>
        <time>2021-06-30T07:29:47Z</time>
      </trkpt>
      <trkpt lat="45.905235" lon="6.114737">
        <ele>456.10092</ele>
        <time>2021-06-30T07:29:48Z</time>
      </trkpt>
      <trkpt lat="45.905323" lon="6.114685">
        <ele>456.34326</ele>
        <time>2021-06-30T07:29:49Z</time>
      </trkpt>
      <trkpt lat="45.905403" lon="6.114607">
        <ele>456.59445</ele>
        <time>2021-06-30T07:29:50Z</time>
      </trkpt>
      <trkpt lat="45.905403" lon="6.114607">
        <ele>456.73569</ele>
        <time>2021-06-30T07:29:51Z</time>
      </trkpt>
      <trkpt lat="45.905483" lon="6.114535">
        <ele>457.20087</ele>
        <time>2021-06-30T07:29:52Z</time>
      </trkpt>
      <trkpt lat="45.905552" lon="6.114468">
        <ele>457.31049</ele>
        <time>2021-06-30T07:29:53Z</time>
      </trkpt>
      <trkpt lat="45.905605" lon="6.114435">
        <ele>457.35464</ele>
        <time>2021-06-30T07:29:54Z</time>
      </trkpt>
      <trkpt lat="45.905651" lon="6.114412">
        <ele>457.51517</ele>
        <time>2021-06-30T07:29:55Z</time>
      </trkpt>
      <trkpt lat="45.905689" lon="6.114396">
        <ele>457.46313</ele>
        <time>2021-06-30T07:29:56Z</time>
      </trkpt>
      <trkpt lat="45.905750" lon="6.114417">
        <ele>457.32651</ele>
        <time>2021-06-30T07:29:57Z</time>
      </trkpt>
      <trkpt lat="45.905834" lon="6.114432">
        <ele>457.23239</ele>
        <time>2021-06-30T07:29:58Z</time>
      </trkpt>
      <trkpt lat="45.905888" lon="6.114392">
        <ele>457.33502</ele>
        <time>2021-06-30T07:29:59Z</time>
      </trkpt>
      <trkpt lat="45.905903" lon="6.114334">
        <ele>457.48547</ele>
        <time>2021-06-30T07:30:00Z</time>
      </trkpt>
      <trkpt lat="45.905899" lon="6.114242">
        <ele>457.53644</ele>
        <time>2021-06-30T07:30:01Z</time>
      </trkpt>
      <trkpt lat="45.905876" lon="6.114125">
        <ele>457.77658</ele>
        <time>2021-06-30T07:30:02Z</time>
      </trkpt>
      <trkpt lat="45.905819" lon="6.114000">
        <ele>458.26535</ele>
        <time>2021-06-30T07:30:03Z</time>
      </trkpt>
      <trkpt lat="45.905754" lon="6.113900">
        <ele>458.62497</ele>
        <time>2021-06-30T07:30:04Z</time>
      </trkpt>
      <trkpt lat="45.905647" lon="6.113776">
        <ele>458.76529</ele>
        <time>2021-06-30T07:30:05Z</time>
      </trkpt>
      <trkpt lat="45.905521" lon="6.113634">
        <ele>458.95358</ele>
        <time>2021-06-30T07:30:06Z</time>
      </trkpt>
      <trkpt lat="45.905418" lon="6.113517">
        <ele>459.28723</ele>
        <time>2021-06-30T07:30:07Z</time>
      </trkpt>
      <trkpt lat="45.905312" lon="6.113394">
        <ele>459.71179</ele>
        <time>2021-06-30T07:30:08Z</time>
      </trkpt>
      <trkpt lat="45.905193" lon="6.113259">
        <ele>459.83463</ele>
        <time>2021-06-30T07:30:09Z</time>
      </trkpt>
      <trkpt lat="45.905071" lon="6.113121">
        <ele>460.03577</ele>
        <time>2021-06-30T07:30:10Z</time>
      </trkpt>
      <trkpt lat="45.904949" lon="6.112981">
        <ele>460.24182</ele>
        <time>2021-06-30T07:30:11Z</time>
      </trkpt>
      <trkpt lat="45.904823" lon="6.112835">
        <ele>460.24527</ele>
        <time>2021-06-30T07:30:12Z</time>
      </trkpt>
      <trkpt lat="45.904705" lon="6.112700">
        <ele>460.85898</ele>
        <time>2021-06-30T07:30:13Z</time>
      </trkpt>
      <trkpt lat="45.904572" lon="6.112548">
        <ele>461.16272</ele>
        <time>2021-06-30T07:30:14Z</time>
      </trkpt>
      <trkpt lat="45.904430" lon="6.112388">
        <ele>461.09863</ele>
        <time>2021-06-30T07:30:15Z</time>
      </trkpt>
      <trkpt lat="45.904285" lon="6.112220">
        <ele>461.01703</ele>
        <time>2021-06-30T07:30:16Z</time>
      </trkpt>
      <trkpt lat="45.904160" lon="6.112079">
        <ele>460.91269</ele>
        <time>2021-06-30T07:30:17Z</time>
      </trkpt>
      <trkpt lat="45.904030" lon="6.111928">
        <ele>461.11264</ele>
        <time>2021-06-30T07:30:18Z</time>
      </trkpt>
      <trkpt lat="45.903889" lon="6.111766">
        <ele>461.61945</ele>
        <time>2021-06-30T07:30:19Z</time>
      </trkpt>
      <trkpt lat="45.903736" lon="6.111595">
        <ele>461.77188</ele>
        <time>2021-06-30T07:30:20Z</time>
      </trkpt>
      <trkpt lat="45.903591" lon="6.111436">
        <ele>462.52719</ele>
        <time>2021-06-30T07:30:21Z</time>
      </trkpt>
      <trkpt lat="45.903442" lon="6.111282">
        <ele>463.02017</ele>
        <time>2021-06-30T07:30:22Z</time>
      </trkpt>
      <trkpt lat="45.903297" lon="6.111128">
        <ele>459.03122</ele>
        <time>2021-06-30T07:30:23Z</time>
      </trkpt>
      <trkpt lat="45.903141" lon="6.110970">
        <ele>460.11984</ele>
        <time>2021-06-30T07:30:24Z</time>
      </trkpt>
      <trkpt lat="45.902981" lon="6.110825">
        <ele>460.82620</ele>
        <time>2021-06-30T07:30:25Z</time>
      </trkpt>
      <trkpt lat="45.902843" lon="6.110658">
        <ele>461.68564</ele>
        <time>2021-06-30T07:30:26Z</time>
      </trkpt>
      <trkpt lat="45.902687" lon="6.110468">
        <ele>468.67505</ele>
        <time>2021-06-30T07:30:27Z</time>
      </trkpt>
      <trkpt lat="45.902550" lon="6.110307">
        <ele>469.63504</ele>
        <time>2021-06-30T07:30:28Z</time>
      </trkpt>
      <trkpt lat="45.902424" lon="6.110154">
        <ele>471.25137</ele>
        <time>2021-06-30T07:30:29Z</time>
      </trkpt>
      <trkpt lat="45.902283" lon="6.109991">
        <ele>471.59186</ele>
        <time>2021-06-30T07:30:30Z</time>
      </trkpt>
      <trkpt lat="45.902142" lon="6.109830">
        <ele>472.47070</ele>
        <time>2021-06-30T07:30:31Z</time>
      </trkpt>
      <trkpt lat="45.902016" lon="6.109683">
        <ele>474.58893</ele>
        <time>2021-06-30T07:30:32Z</time>
      </trkpt>
      <trkpt lat="45.902016" lon="6.109683">
        <ele>475.12601</ele>
        <time>2021-06-30T07:30:33Z</time>
      </trkpt>
      <trkpt lat="45.901882" lon="6.109531">
        <ele>475.89609</ele>
        <time>2021-06-30T07:30:34Z</time>
      </trkpt>
      <trkpt lat="45.901733" lon="6.109363">
        <ele>477.56796</ele>
        <time>2021-06-30T07:30:35Z</time>
      </trkpt>
      <trkpt lat="45.901596" lon="6.109204">
        <ele>472.19516</ele>
        <time>2021-06-30T07:30:36Z</time>
      </trkpt>
      <trkpt lat="45.901455" lon="6.109045">
        <ele>473.42264</ele>
        <time>2021-06-30T07:30:37Z</time>
      </trkpt>
      <trkpt lat="45.901302" lon="6.108872">
        <ele>474.42050</ele>
        <time>2021-06-30T07:30:38Z</time>
      </trkpt>
      <trkpt lat="45.901150" lon="6.108692">
        <ele>475.38388</ele>
        <time>2021-06-30T07:30:39Z</time>
      </trkpt>
      <trkpt lat="45.901005" lon="6.108525">
        <ele>476.81332</ele>
        <time>2021-06-30T07:30:40Z</time>
      </trkpt>
      <trkpt lat="45.900860" lon="6.108351">
        <ele>478.40768</ele>
        <time>2021-06-30T07:30:41Z</time>
      </trkpt>
      <trkpt lat="45.900711" lon="6.108178">
        <ele>486.59921</ele>
        <time>2021-06-30T07:30:42Z</time>
      </trkpt>
      <trkpt lat="45.900562" lon="6.108006">
        <ele>486.93823</ele>
        <time>2021-06-30T07:30:43Z</time>
      </trkpt>
      <trkpt lat="45.900429" lon="6.107842">
        <ele>487.43774</ele>
        <time>2021-06-30T07:30:44Z</time>
      </trkpt>
      <trkpt lat="45.900311" lon="6.107699">
        <ele>489.07367</ele>
        <time>2021-06-30T07:30:45Z</time>
      </trkpt>
      <trkpt lat="45.900177" lon="6.107537">
        <ele>490.51688</ele>
        <time>2021-06-30T07:30:46Z</time>
      </trkpt>
      <trkpt lat="45.900063" lon="6.107399">
        <ele>491.12576</ele>
        <time>2021-06-30T07:30:47Z</time>
      </trkpt>
      <trkpt lat="45.900063" lon="6.107398">
        <ele>491.47711</ele>
        <time>2021-06-30T07:30:48Z</time>
      </trkpt>
      <trkpt lat="45.899895" lon="6.107119">
        <ele>493.62570</ele>
        <time>2021-06-30T07:30:49Z</time>
      </trkpt>
      <trkpt lat="45.899738" lon="6.106863">
        <ele>494.58899</ele>
        <time>2021-06-30T07:30:50Z</time>
      </trkpt>
      <trkpt lat="45.899624" lon="6.106663">
        <ele>495.16272</ele>
        <time>2021-06-30T07:30:51Z</time>
      </trkpt>
      <trkpt lat="45.899529" lon="6.106460">
        <ele>495.71335</ele>
        <time>2021-06-30T07:30:52Z</time>
      </trkpt>
      <trkpt lat="45.899464" lon="6.106249">
        <ele>495.96619</ele>
        <time>2021-06-30T07:30:53Z</time>
      </trkpt>
      <trkpt lat="45.899406" lon="6.106034">
        <ele>496.09448</ele>
        <time>2021-06-30T07:30:54Z</time>
      </trkpt>
      <trkpt lat="45.899357" lon="6.105797">
        <ele>496.41397</ele>
        <time>2021-06-30T07:30:55Z</time>
      </trkpt>
      <trkpt lat="45.899334" lon="6.105525">
        <ele>486.63083</ele>
        <time>2021-06-30T07:30:56Z</time>
      </trkpt>
      <trkpt lat="45.899342" lon="6.105250">
        <ele>486.72812</ele>
        <time>2021-06-30T07:30:57Z</time>
      </trkpt>
      <trkpt lat="45.899368" lon="6.104978">
        <ele>487.29953</ele>
        <time>2021-06-30T07:30:58Z</time>
      </trkpt>
      <trkpt lat="45.899410" lon="6.104703">
        <ele>487.49130</ele>
        <time>2021-06-30T07:30:59Z</time>
      </trkpt>
      <trkpt lat="45.899475" lon="6.104420">
        <ele>487.83701</ele>
        <time>2021-06-30T07:31:00Z</time>
      </trkpt>
      <trkpt lat="45.899551" lon="6.104108">
        <ele>488.95370</ele>
        <time>2021-06-30T07:31:01Z</time>
      </trkpt>
      <trkpt lat="45.899628" lon="6.103843">
        <ele>490.40976</ele>
        <time>2021-06-30T07:31:02Z</time>
      </trkpt>
      <trkpt lat="45.899712" lon="6.103524">
        <ele>492.00790</ele>
        <time>2021-06-30T07:31:03Z</time>
      </trkpt>
      <trkpt lat="45.899799" lon="6.103257">
        <ele>493.71176</ele>
        <time>2021-06-30T07:31:04Z</time>
      </trkpt>
      <trkpt lat="45.899887" lon="6.102993">
        <ele>494.78110</ele>
        <time>2021-06-30T07:31:05Z</time>
      </trkpt>
      <trkpt lat="45.899975" lon="6.102715">
        <ele>495.49008</ele>
        <time>2021-06-30T07:31:06Z</time>
      </trkpt>
      <trkpt lat="45.900055" lon="6.102423">
        <ele>497.21078</ele>
        <time>2021-06-30T07:31:07Z</time>
      </trkpt>
      <trkpt lat="45.900135" lon="6.102147">
        <ele>498.01279</ele>
        <time>2021-06-30T07:31:08Z</time>
      </trkpt>
      <trkpt lat="45.900219" lon="6.101855">
        <ele>499.20639</ele>
        <time>2021-06-30T07:31:09Z</time>
      </trkpt>
      <trkpt lat="45.900284" lon="6.101550">
        <ele>500.22690</ele>
        <time>2021-06-30T07:31:10Z</time>
      </trkpt>
      <trkpt lat="45.900330" lon="6.101275">
        <ele>500.41562</ele>
        <time>2021-06-30T07:31:11Z</time>
      </trkpt>
      <trkpt lat="45.900330" lon="6.101275">
        <ele>501.25717</ele>
        <time>2021-06-30T07:31:12Z</time>
      </trkpt>
      <trkpt lat="45.900372" lon="6.100985">
        <ele>502.34824</ele>
        <time>2021-06-30T07:31:13Z</time>
      </trkpt>
      <trkpt lat="45.900398" lon="6.100706">
        <ele>502.98325</ele>
        <time>2021-06-30T07:31:14Z</time>
      </trkpt>
      <trkpt lat="45.900406" lon="6.100402">
        <ele>503.26279</ele>
        <time>2021-06-30T07:31:15Z</time>
      </trkpt>
      <trkpt lat="45.900414" lon="6.100106">
        <ele>502.47018</ele>
        <time>2021-06-30T07:31:16Z</time>
      </trkpt>
      <trkpt lat="45.900402" lon="6.099821">
        <ele>502.81015</ele>
        <time>2021-06-30T07:31:17Z</time>
      </trkpt>
      <trkpt lat="45.900394" lon="6.099551">
        <ele>502.96384</ele>
        <time>2021-06-30T07:31:18Z</time>
      </trkpt>
      <trkpt lat="45.900364" lon="6.099291">
        <ele>503.31125</ele>
        <time>2021-06-30T07:31:19Z</time>
      </trkpt>
      <trkpt lat="45.900326" lon="6.099031">
        <ele>503.50204</ele>
        <time>2021-06-30T07:31:20Z</time>
      </trkpt>
      <trkpt lat="45.900288" lon="6.098766">
        <ele>503.80185</ele>
        <time>2021-06-30T07:31:21Z</time>
      </trkpt>
      <trkpt lat="45.900230" lon="6.098518">
        <ele>503.53232</ele>
        <time>2021-06-30T07:31:22Z</time>
      </trkpt>
      <trkpt lat="45.900169" lon="6.098260">
        <ele>513.16571</ele>
        <time>2021-06-30T07:31:23Z</time>
      </trkpt>
      <trkpt lat="45.900093" lon="6.098010">
        <ele>513.03845</ele>
        <time>2021-06-30T07:31:24Z</time>
      </trkpt>
      <trkpt lat="45.900021" lon="6.097787">
        <ele>512.68982</ele>
        <time>2021-06-30T07:31:25Z</time>
      </trkpt>
      <trkpt lat="45.899956" lon="6.097593">
        <ele>512.66766</ele>
        <time>2021-06-30T07:31:26Z</time>
      </trkpt>
      <trkpt lat="45.899952" lon="6.097590">
        <ele>512.50256</ele>
        <time>2021-06-30T07:31:27Z</time>
      </trkpt>
      <trkpt lat="45.899830" lon="6.097182">
        <ele>512.61432</ele>
        <time>2021-06-30T07:31:28Z</time>
      </trkpt>
      <trkpt lat="45.899723" lon="6.096956">
        <ele>513.08789</ele>
        <time>2021-06-30T07:31:29Z</time>
      </trkpt>
      <trkpt lat="45.899635" lon="6.096719">
        <ele>512.53766</ele>
        <time>2021-06-30T07:31:30Z</time>
      </trkpt>
      <trkpt lat="45.899582" lon="6.096503">
        <ele>512.45844</ele>
        <time>2021-06-30T07:31:31Z</time>
      </trkpt>
      <trkpt lat="45.899353" lon="6.096412">
        <ele>512.39862</ele>
        <time>2021-06-30T07:31:32Z</time>
      </trkpt>
      <trkpt lat="45.899250" lon="6.096221">
        <ele>511.70016</ele>
        <time>2021-06-30T07:31:33Z</time>
      </trkpt>
      <trkpt lat="45.899158" lon="6.096030">
        <ele>511.93463</ele>
        <time>2021-06-30T07:31:34Z</time>
      </trkpt>
      <trkpt lat="45.899067" lon="6.095822">
        <ele>511.42538</ele>
        <time>2021-06-30T07:31:35Z</time>
      </trkpt>
      <trkpt lat="45.898968" lon="6.095572">
        <ele>510.82687</ele>
        <time>2021-06-30T07:31:36Z</time>
      </trkpt>
      <trkpt lat="45.898899" lon="6.095322">
        <ele>510.69562</ele>
        <time>2021-06-30T07:31:37Z</time>
      </trkpt>
      <trkpt lat="45.898834" lon="6.095079">
        <ele>509.73404</ele>
        <time>2021-06-30T07:31:38Z</time>
      </trkpt>
      <trkpt lat="45.898773" lon="6.094841">
        <ele>508.37564</ele>
        <time>2021-06-30T07:31:39Z</time>
      </trkpt>
      <trkpt lat="45.898720" lon="6.094588">
        <ele>507.51825</ele>
        <time>2021-06-30T07:31:40Z</time>
      </trkpt>
      <trkpt lat="45.898689" lon="6.094324">
        <ele>506.86942</ele>
        <time>2021-06-30T07:31:41Z</time>
      </trkpt>
      <trkpt lat="45.898689" lon="6.094324">
        <ele>504.23306</ele>
        <time>2021-06-30T07:31:42Z</time>
      </trkpt>
      <trkpt lat="45.898670" lon="6.094058">
        <ele>503.55939</ele>
        <time>2021-06-30T07:31:43Z</time>
      </trkpt>
      <trkpt lat="45.898659" lon="6.093822">
        <ele>502.49936</ele>
        <time>2021-06-30T07:31:44Z</time>
      </trkpt>
      <trkpt lat="45.898659" lon="6.093582">
        <ele>501.33716</ele>
        <time>2021-06-30T07:31:45Z</time>
      </trkpt>
      <trkpt lat="45.898655" lon="6.093324">
        <ele>500.32040</ele>
        <time>2021-06-30T07:31:46Z</time>
      </trkpt>
      <trkpt lat="45.898666" lon="6.093060">
        <ele>499.41623</ele>
        <time>2021-06-30T07:31:47Z</time>
      </trkpt>
      <trkpt lat="45.898678" lon="6.092788">
        <ele>493.36786</ele>
        <time>2021-06-30T07:31:48Z</time>
      </trkpt>
      <trkpt lat="45.898708" lon="6.092521">
        <ele>492.61383</ele>
        <time>2021-06-30T07:31:49Z</time>
      </trkpt>
      <trkpt lat="45.898746" lon="6.092263">
        <ele>491.74261</ele>
        <time>2021-06-30T07:31:50Z</time>
      </trkpt>
      <trkpt lat="45.898811" lon="6.092007">
        <ele>491.02826</ele>
        <time>2021-06-30T07:31:51Z</time>
      </trkpt>
      <trkpt lat="45.898884" lon="6.091767">
        <ele>490.41608</ele>
        <time>2021-06-30T07:31:52Z</time>
      </trkpt>
      <trkpt lat="45.898979" lon="6.091514">
        <ele>489.43024</ele>
        <time>2021-06-30T07:31:53Z</time>
      </trkpt>
      <trkpt lat="45.899075" lon="6.091275">
        <ele>488.11615</ele>
        <time>2021-06-30T07:31:54Z</time>
      </trkpt>
      <trkpt lat="45.899155" lon="6.091025">
        <ele>491.75772</ele>
        <time>2021-06-30T07:31:55Z</time>
      </trkpt>
      <trkpt lat="45.899231" lon="6.090801">
        <ele>491.19748</ele>
        <time>2021-06-30T07:31:56Z</time>
      </trkpt>
      <trkpt lat="45.899330" lon="6.090590">
        <ele>490.39896</ele>
        <time>2021-06-30T07:31:57Z</time>
      </trkpt>
      <trkpt lat="45.899433" lon="6.090371">
        <ele>490.06799</ele>
        <time>2021-06-30T07:31:58Z</time>
      </trkpt>
      <trkpt lat="45.899540" lon="6.090168">
        <ele>489.58331</ele>
        <time>2021-06-30T07:31:59Z</time>
      </trkpt>
      <trkpt lat="45.899647" lon="6.089997">
        <ele>489.34232</ele>
        <time>2021-06-30T07:32:00Z</time>
      </trkpt>
      <trkpt lat="45.899765" lon="6.089824">
        <ele>488.55334</ele>
        <time>2021-06-30T07:32:01Z</time>
      </trkpt>
      <trkpt lat="45.899876" lon="6.089663">
        <ele>487.67270</ele>
        <time>2021-06-30T07:32:02Z</time>
      </trkpt>
      <trkpt lat="45.900002" lon="6.089504">
        <ele>488.03845</ele>
        <time>2021-06-30T07:32:03Z</time>
      </trkpt>
      <trkpt lat="45.900143" lon="6.089354">
        <ele>487.71017</ele>
        <time>2021-06-30T07:32:04Z</time>
      </trkpt>
      <trkpt lat="45.900265" lon="6.089234">
        <ele>486.61606</ele>
        <time>2021-06-30T07:32:05Z</time>
      </trkpt>
      <trkpt lat="45.900406" lon="6.089108">
        <ele>485.92407</ele>
        <time>2021-06-30T07:32:06Z</time>
      </trkpt>
      <trkpt lat="45.900543" lon="6.088995">
        <ele>485.67081</ele>
        <time>2021-06-30T07:32:07Z</time>
      </trkpt>
      <trkpt lat="45.900700" lon="6.088885">
        <ele>484.29584</ele>
        <time>2021-06-30T07:32:08Z</time>
      </trkpt>
      <trkpt lat="45.900852" lon="6.088788">
        <ele>483.46695</ele>
        <time>2021-06-30T07:32:09Z</time>
      </trkpt>
      <trkpt lat="45.901012" lon="6.088695">
        <ele>482.89474</ele>
        <time>2021-06-30T07:32:10Z</time>
      </trkpt>
      <trkpt lat="45.901176" lon="6.088621">
        <ele>482.42203</ele>
        <time>2021-06-30T07:32:11Z</time>
      </trkpt>
      <trkpt lat="45.901348" lon="6.088557">
        <ele>481.03836</ele>
        <time>2021-06-30T07:32:12Z</time>
      </trkpt>
      <trkpt lat="45.901512" lon="6.088517">
        <ele>479.83890</ele>
        <time>2021-06-30T07:32:13Z</time>
      </trkpt>
      <trkpt lat="45.901512" lon="6.088517">
        <ele>479.10788</ele>
        <time>2021-06-30T07:32:14Z</time>
      </trkpt>
      <trkpt lat="45.901688" lon="6.088490">
        <ele>477.97034</ele>
        <time>2021-06-30T07:32:15Z</time>
      </trkpt>
      <trkpt lat="45.901875" lon="6.088465">
        <ele>470.62756</ele>
        <time>2021-06-30T07:32:16Z</time>
      </trkpt>
      <trkpt lat="45.902065" lon="6.088459">
        <ele>469.52545</ele>
        <time>2021-06-30T07:32:17Z</time>
      </trkpt>
      <trkpt lat="45.902248" lon="6.088466">
        <ele>468.42731</ele>
        <time>2021-06-30T07:32:18Z</time>
      </trkpt>
      <trkpt lat="45.902431" lon="6.088474">
        <ele>467.35193</ele>
        <time>2021-06-30T07:32:19Z</time>
      </trkpt>
      <trkpt lat="45.902618" lon="6.088506">
        <ele>466.29230</ele>
        <time>2021-06-30T07:32:20Z</time>
      </trkpt>
      <trkpt lat="45.902802" lon="6.088561">
        <ele>465.06104</ele>
        <time>2021-06-30T07:32:21Z</time>
      </trkpt>
      <trkpt lat="45.902985" lon="6.088639">
        <ele>469.63797</ele>
        <time>2021-06-30T07:32:22Z</time>
      </trkpt>
      <trkpt lat="45.903160" lon="6.088712">
        <ele>468.70874</ele>
        <time>2021-06-30T07:32:23Z</time>
      </trkpt>
      <trkpt lat="45.903339" lon="6.088797">
        <ele>468.15234</ele>
        <time>2021-06-30T07:32:24Z</time>
      </trkpt>
      <trkpt lat="45.903511" lon="6.088886">
        <ele>466.72354</ele>
        <time>2021-06-30T07:32:25Z</time>
      </trkpt>
      <trkpt lat="45.903675" lon="6.088978">
        <ele>466.22433</ele>
        <time>2021-06-30T07:32:26Z</time>
      </trkpt>
      <trkpt lat="45.903839" lon="6.089072">
        <ele>465.80743</ele>
        <time>2021-06-30T07:32:27Z</time>
      </trkpt>
      <trkpt lat="45.903999" lon="6.089160">
        <ele>464.49042</ele>
        <time>2021-06-30T07:32:28Z</time>
      </trkpt>
      <trkpt lat="45.904156" lon="6.089243">
        <ele>463.91885</ele>
        <time>2021-06-30T07:32:29Z</time>
      </trkpt>
      <trkpt lat="45.904324" lon="6.089324">
        <ele>462.85388</ele>
        <time>2021-06-30T07:32:30Z</time>
      </trkpt>
      <trkpt lat="45.904484" lon="6.089405">
        <ele>462.09570</ele>
        <time>2021-06-30T07:32:31Z</time>
      </trkpt>
      <trkpt lat="45.904549" lon="6.089437">
        <ele>461.33154</ele>
        <time>2021-06-30T07:32:32Z</time>
      </trkpt>
      <trkpt lat="45.904716" lon="6.089634">
        <ele>460.90143</ele>
        <time>2021-06-30T07:32:33Z</time>
      </trkpt>
      <trkpt lat="45.904922" lon="6.089719">
        <ele>460.29538</ele>
        <time>2021-06-30T07:32:34Z</time>
      </trkpt>
      <trkpt lat="45.905098" lon="6.089792">
        <ele>459.56250</ele>
        <time>2021-06-30T07:32:35Z</time>
      </trkpt>
      <trkpt lat="45.905277" lon="6.089866">
        <ele>459.06543</ele>
        <time>2021-06-30T07:32:36Z</time>
      </trkpt>
      <trkpt lat="45.905437" lon="6.089938">
        <ele>458.34271</ele>
        <time>2021-06-30T07:32:37Z</time>
      </trkpt>
      <trkpt lat="45.905586" lon="6.090008">
        <ele>457.42957</ele>
        <time>2021-06-30T07:32:38Z</time>
      </trkpt>
      <trkpt lat="45.905724" lon="6.090092">
        <ele>457.28445</ele>
        <time>2021-06-30T07:32:39Z</time>
      </trkpt>
      <trkpt lat="45.905830" lon="6.090180">
        <ele>457.14111</ele>
        <time>2021-06-30T07:32:40Z</time>
      </trkpt>
      <trkpt lat="45.905910" lon="6.090287">
        <ele>457.32739</ele>
        <time>2021-06-30T07:32:41Z</time>
      </trkpt>
      <trkpt lat="45.905972" lon="6.090429">
        <ele>459.11292</ele>
        <time>2021-06-30T07:32:42Z</time>
      </trkpt>
      <trkpt lat="45.906013" lon="6.090630">
        <ele>460.15118</ele>
        <time>2021-06-30T07:32:43Z</time>
      </trkpt>
      <trkpt lat="45.906025" lon="6.090831">
        <ele>460.29147</ele>
        <time>2021-06-30T07:32:44Z</time>
      </trkpt>
      <trkpt lat="45.906036" lon="6.091037">
        <ele>462.66998</ele>
        <time>2021-06-30T07:32:45Z</time>
      </trkpt>
      <trkpt lat="45.906040" lon="6.091301">
        <ele>463.23328</ele>
        <time>2021-06-30T07:32:46Z</time>
      </trkpt>
      <trkpt lat="45.906017" lon="6.091523">
        <ele>463.79193</ele>
        <time>2021-06-30T07:32:47Z</time>
      </trkpt>
      <trkpt lat="45.905998" lon="6.091728">
        <ele>464.42664</ele>
        <time>2021-06-30T07:32:48Z</time>
      </trkpt>
      <trkpt lat="45.905979" lon="6.091913">
        <ele>464.68741</ele>
        <time>2021-06-30T07:32:49Z</time>
      </trkpt>
      <trkpt lat="45.905952" lon="6.092082">
        <ele>465.06360</ele>
        <time>2021-06-30T07:32:50Z</time>
      </trkpt>
      <trkpt lat="45.905952" lon="6.092082">
        <ele>465.32013</ele>
        <time>2021-06-30T07:32:51Z</time>
      </trkpt>
      <trkpt lat="45.905926" lon="6.092247">
        <ele>465.86905</ele>
        <time>2021-06-30T07:32:52Z</time>
      </trkpt>
      <trkpt lat="45.905903" lon="6.092385">
        <ele>466.28177</ele>
        <time>2021-06-30T07:32:53Z</time>
      </trkpt>
      <trkpt lat="45.905884" lon="6.092514">
        <ele>466.62488</ele>
        <time>2021-06-30T07:32:54Z</time>
      </trkpt>
      <trkpt lat="45.905857" lon="6.092657">
        <ele>466.89194</ele>
        <time>2021-06-30T07:32:55Z</time>
      </trkpt>
      <trkpt lat="45.905823" lon="6.092818">
        <ele>466.81030</ele>
        <time>2021-06-30T07:32:56Z</time>
      </trkpt>
      <trkpt lat="45.905785" lon="6.092957">
        <ele>466.92291</ele>
        <time>2021-06-30T07:32:57Z</time>
      </trkpt>
      <trkpt lat="45.905762" lon="6.093040">
        <ele>467.25818</ele>
        <time>2021-06-30T07:32:58Z</time>
      </trkpt>
      <trkpt lat="45.905739" lon="6.093099">
        <ele>467.52048</ele>
        <time>2021-06-30T07:32:59Z</time>
      </trkpt>
      <trkpt lat="45.905613" lon="6.093103">
        <ele>467.53223</ele>
        <time>2021-06-30T07:33:00Z</time>
      </trkpt>
      <trkpt lat="45.905537" lon="6.093202">
        <ele>467.87576</ele>
        <time>2021-06-30T07:33:01Z</time>
      </trkpt>
      <trkpt lat="45.905415" lon="6.093137">
        <ele>467.74976</ele>
        <time>2021-06-30T07:33:02Z</time>
      </trkpt>
      <trkpt lat="45.905289" lon="6.093092">
        <ele>467.99512</ele>
        <time>2021-06-30T07:33:03Z</time>
      </trkpt>
      <trkpt lat="45.905190" lon="6.093059">
        <ele>467.97522</ele>
        <time>2021-06-30T07:33:04Z</time>
      </trkpt>
      <trkpt lat="45.905075" lon="6.093019">
        <ele>468.22464</ele>
        <time>2021-06-30T07:33:05Z</time>
      </trkpt>
      <trkpt lat="45.904949" lon="6.092983">
        <ele>468.21088</ele>
        <time>2021-06-30T07:33:06Z</time>
      </trkpt>
      <trkpt lat="45.904827" lon="6.092951">
        <ele>468.37515</ele>
        <time>2021-06-30T07:33:07Z</time>
      </trkpt>
      <trkpt lat="45.904709" lon="6.092912">
        <ele>468.76810</ele>
        <time>2021-06-30T07:33:08Z</time>
      </trkpt>
      <trkpt lat="45.904587" lon="6.092859">
        <ele>469.11932</ele>
        <time>2021-06-30T07:33:09Z</time>
      </trkpt>
      <trkpt lat="45.904469" lon="6.092793">
        <ele>469.35434</ele>
        <time>2021-06-30T07:33:10Z</time>
      </trkpt>
      <trkpt lat="45.904354" lon="6.092718">
        <ele>468.19772</ele>
        <time>2021-06-30T07:33:11Z</time>
      </trkpt>
      <trkpt lat="45.904236" lon="6.092637">
        <ele>467.49374</ele>
        <time>2021-06-30T07:33:12Z</time>
      </trkpt>
      <trkpt lat="45.904121" lon="6.092556">
        <ele>466.92575</ele>
        <time>2021-06-30T07:33:13Z</time>
      </trkpt>
      <trkpt lat="45.904003" lon="6.092464">
        <ele>466.23895</ele>
        <time>2021-06-30T07:33:14Z</time>
      </trkpt>
      <trkpt lat="45.903900" lon="6.092381">
        <ele>466.24612</ele>
        <time>2021-06-30T07:33:15Z</time>
      </trkpt>
      <trkpt lat="45.903793" lon="6.092292">
        <ele>466.01434</ele>
        <time>2021-06-30T07:33:16Z</time>
      </trkpt>
      <trkpt lat="45.903667" lon="6.092188">
        <ele>465.86621</ele>
        <time>2021-06-30T07:33:17Z</time>
      </trkpt>
      <trkpt lat="45.903534" lon="6.092078">
        <ele>466.07498</ele>
        <time>2021-06-30T07:33:18Z</time>
      </trkpt>
      <trkpt lat="45.903408" lon="6.091972">
        <ele>465.70859</ele>
        <time>2021-06-30T07:33:19Z</time>
      </trkpt>
      <trkpt lat="45.903290" lon="6.091873">
        <ele>465.68506</ele>
        <time>2021-06-30T07:33:20Z</time>
      </trkpt>
      <trkpt lat="45.903175" lon="6.091778">
        <ele>465.23096</ele>
        <time>2021-06-30T07:33:21Z</time>
      </trkpt>
      <trkpt lat="45.903084" lon="6.091703">
        <ele>465.35178</ele>
        <time>2021-06-30T07:33:22Z</time>
      </trkpt>
      <trkpt lat="45.903084" lon="6.091703">
        <ele>465.27069</ele>
        <time>2021-06-30T07:33:23Z</time>
      </trkpt>
      <trkpt lat="45.902977" lon="6.091613">
        <ele>465.49820</ele>
        <time>2021-06-30T07:33:24Z</time>
      </trkpt>
      <trkpt lat="45.902866" lon="6.091521">
        <ele>465.63043</ele>
        <time>2021-06-30T07:33:25Z</time>
      </trkpt>
      <trkpt lat="45.902756" lon="6.091427">
        <ele>465.87659</ele>
        <time>2021-06-30T07:33:26Z</time>
      </trkpt>
      <trkpt lat="45.902641" lon="6.091332">
        <ele>466.24493</ele>
        <time>2021-06-30T07:33:27Z</time>
      </trkpt>
      <trkpt lat="45.902527" lon="6.091237">
        <ele>467.26297</ele>
        <time>2021-06-30T07:33:28Z</time>
      </trkpt>
      <trkpt lat="45.902401" lon="6.091139">
        <ele>467.44336</ele>
        <time>2021-06-30T07:33:29Z</time>
      </trkpt>
      <trkpt lat="45.902283" lon="6.091046">
        <ele>467.73438</ele>
        <time>2021-06-30T07:33:30Z</time>
      </trkpt>
      <trkpt lat="45.902168" lon="6.090957">
        <ele>468.09961</ele>
        <time>2021-06-30T07:33:31Z</time>
      </trkpt>
      <trkpt lat="45.902061" lon="6.090872">
        <ele>468.69260</ele>
        <time>2021-06-30T07:33:32Z</time>
      </trkpt>
      <trkpt lat="45.901958" lon="6.090758">
        <ele>468.75696</ele>
        <time>2021-06-30T07:33:33Z</time>
      </trkpt>
      <trkpt lat="45.901875" lon="6.090615">
        <ele>469.74594</ele>
        <time>2021-06-30T07:33:34Z</time>
      </trkpt>
      <trkpt lat="45.901806" lon="6.090468">
        <ele>469.94226</ele>
        <time>2021-06-30T07:33:35Z</time>
      </trkpt>
      <trkpt lat="45.901730" lon="6.090298">
        <ele>470.13559</ele>
        <time>2021-06-30T07:33:36Z</time>
      </trkpt>
      <trkpt lat="45.901688" lon="6.090197">
        <ele>470.12625</ele>
        <time>2021-06-30T07:33:37Z</time>
      </trkpt>
      <trkpt lat="45.901642" lon="6.090093">
        <ele>470.22348</ele>
        <time>2021-06-30T07:33:38Z</time>
      </trkpt>
      <trkpt lat="45.901611" lon="6.090034">
        <ele>470.13422</ele>
        <time>2021-06-30T07:33:39Z</time>
      </trkpt>
      <trkpt lat="45.901573" lon="6.089939">
        <ele>469.70483</ele>
        <time>2021-06-30T07:33:40Z</time>
      </trkpt>
      <trkpt lat="45.901562" lon="6.089879">
        <ele>469.51013</ele>
        <time>2021-06-30T07:33:41Z</time>
      </trkpt>
      <trkpt lat="45.901569" lon="6.089843">
        <ele>469.57965</ele>
        <time>2021-06-30T07:33:42Z</time>
      </trkpt>
      <trkpt lat="45.901600" lon="6.089730">
        <ele>469.75049</ele>
        <time>2021-06-30T07:33:43Z</time>
      </trkpt>
      <trkpt lat="45.901642" lon="6.089542">
        <ele>469.48044</ele>
        <time>2021-06-30T07:33:44Z</time>
      </trkpt>
      <trkpt lat="45.901661" lon="6.089336">
        <ele>468.39062</ele>
        <time>2021-06-30T07:33:45Z</time>
      </trkpt>
      <trkpt lat="45.901665" lon="6.089139">
        <ele>467.69586</ele>
        <time>2021-06-30T07:33:46Z</time>
      </trkpt>
      <trkpt lat="45.901653" lon="6.088937">
        <ele>467.24689</ele>
        <time>2021-06-30T07:33:47Z</time>
      </trkpt>
      <trkpt lat="45.901630" lon="6.088783">
        <ele>466.33157</ele>
        <time>2021-06-30T07:33:48Z</time>
      </trkpt>
      <trkpt lat="45.901600" lon="6.088593">
        <ele>465.85007</ele>
        <time>2021-06-30T07:33:49Z</time>
      </trkpt>
      <trkpt lat="45.901569" lon="6.088444">
        <ele>465.12781</ele>
        <time>2021-06-30T07:33:50Z</time>
      </trkpt>
      <trkpt lat="45.901539" lon="6.088291">
        <ele>464.67960</ele>
        <time>2021-06-30T07:33:51Z</time>
      </trkpt>
      <trkpt lat="45.901512" lon="6.088169">
        <ele>464.45139</ele>
        <time>2021-06-30T07:33:52Z</time>
      </trkpt>
      <trkpt lat="45.901501" lon="6.088121">
        <ele>464.24997</ele>
        <time>2021-06-30T07:33:53Z</time>
      </trkpt>
      <trkpt lat="45.901501" lon="6.088121">
        <ele>464.35431</ele>
        <time>2021-06-30T07:33:54Z</time>
      </trkpt>
      <trkpt lat="45.901512" lon="6.088024">
        <ele>464.27136</ele>
        <time>2021-06-30T07:33:55Z</time>
      </trkpt>
      <trkpt lat="45.901569" lon="6.087813">
        <ele>464.23148</ele>
        <time>2021-06-30T07:33:56Z</time>
      </trkpt>
      <trkpt lat="45.901642" lon="6.087727">
        <ele>464.52200</ele>
        <time>2021-06-30T07:33:57Z</time>
      </trkpt>
      <trkpt lat="45.901703" lon="6.087710">
        <ele>465.41974</ele>
        <time>2021-06-30T07:33:58Z</time>
      </trkpt>
      <trkpt lat="45.901752" lon="6.087710">
        <ele>466.02478</ele>
        <time>2021-06-30T07:33:59Z</time>
      </trkpt>
      <trkpt lat="45.901836" lon="6.087755">
        <ele>466.78375</ele>
        <time>2021-06-30T07:34:00Z</time>
      </trkpt>
      <trkpt lat="45.901913" lon="6.087874">
        <ele>467.71829</ele>
        <time>2021-06-30T07:34:01Z</time>
      </trkpt>
      <trkpt lat="45.901936" lon="6.088043">
        <ele>468.29553</ele>
        <time>2021-06-30T07:34:02Z</time>
      </trkpt>
      <trkpt lat="45.901905" lon="6.088206">
        <ele>468.83313</ele>
        <time>2021-06-30T07:34:03Z</time>
      </trkpt>
      <trkpt lat="45.901840" lon="6.088331">
        <ele>470.14999</ele>
        <time>2021-06-30T07:34:04Z</time>
      </trkpt>
      <trkpt lat="45.901749" lon="6.088390">
        <ele>470.88559</ele>
        <time>2021-06-30T07:34:05Z</time>
      </trkpt>
      <trkpt lat="45.901630" lon="6.088424">
        <ele>471.69226</ele>
        <time>2021-06-30T07:34:06Z</time>
      </trkpt>
      <trkpt lat="45.901489" lon="6.088449">
        <ele>472.38785</ele>
        <time>2021-06-30T07:34:07Z</time>
      </trkpt>
      <trkpt lat="45.901329" lon="6.088481">
        <ele>474.62332</ele>
        <time>2021-06-30T07:34:08Z</time>
      </trkpt>
      <trkpt lat="45.901180" lon="6.088534">
        <ele>475.54675</ele>
        <time>2021-06-30T07:34:09Z</time>
      </trkpt>
      <trkpt lat="45.901028" lon="6.088602">
        <ele>477.07333</ele>
        <time>2021-06-30T07:34:10Z</time>
      </trkpt>
      <trkpt lat="45.900822" lon="6.088711">
        <ele>478.24152</ele>
        <time>2021-06-30T07:34:11Z</time>
      </trkpt>
      <trkpt lat="45.900658" lon="6.088812">
        <ele>479.15613</ele>
        <time>2021-06-30T07:34:12Z</time>
      </trkpt>
      <trkpt lat="45.900520" lon="6.088908">
        <ele>479.70276</ele>
        <time>2021-06-30T07:34:13Z</time>
      </trkpt>
      <trkpt lat="45.900352" lon="6.089038">
        <ele>475.76263</ele>
        <time>2021-06-30T07:34:14Z</time>
      </trkpt>
      <trkpt lat="45.900181" lon="6.089209">
        <ele>476.30621</ele>
        <time>2021-06-30T07:34:15Z</time>
      </trkpt>
      <trkpt lat="45.899986" lon="6.089430">
        <ele>477.45929</ele>
        <time>2021-06-30T07:34:16Z</time>
      </trkpt>
      <trkpt lat="45.899822" lon="6.089640">
        <ele>478.23016</ele>
        <time>2021-06-30T07:34:17Z</time>
      </trkpt>
      <trkpt lat="45.899693" lon="6.089830">
        <ele>478.15741</ele>
        <time>2021-06-30T07:34:18Z</time>
      </trkpt>
      <trkpt lat="45.899567" lon="6.090031">
        <ele>479.08026</ele>
        <time>2021-06-30T07:34:19Z</time>
      </trkpt>
      <trkpt lat="45.899433" lon="6.090243">
        <ele>479.81085</ele>
        <time>2021-06-30T07:34:20Z</time>
      </trkpt>
      <trkpt lat="45.899311" lon="6.090437">
        <ele>480.82587</ele>
        <time>2021-06-30T07:34:21Z</time>
      </trkpt>
      <trkpt lat="45.899185" lon="6.090639">
        <ele>481.82318</ele>
        <time>2021-06-30T07:34:22Z</time>
      </trkpt>
      <trkpt lat="45.899082" lon="6.090890">
        <ele>482.38593</ele>
        <time>2021-06-30T07:34:23Z</time>
      </trkpt>
      <trkpt lat="45.899002" lon="6.091140">
        <ele>483.03156</ele>
        <time>2021-06-30T07:34:24Z</time>
      </trkpt>
      <trkpt lat="45.899002" lon="6.091140">
        <ele>483.74042</ele>
        <time>2021-06-30T07:34:25Z</time>
      </trkpt>
      <trkpt lat="45.898922" lon="6.091372">
        <ele>484.75018</ele>
        <time>2021-06-30T07:34:26Z</time>
      </trkpt>
      <trkpt lat="45.898838" lon="6.091612">
        <ele>489.16458</ele>
        <time>2021-06-30T07:34:27Z</time>
      </trkpt>
      <trkpt lat="45.898773" lon="6.091855">
        <ele>490.22107</ele>
        <time>2021-06-30T07:34:28Z</time>
      </trkpt>
      <trkpt lat="45.898708" lon="6.092098">
        <ele>490.71313</ele>
        <time>2021-06-30T07:34:29Z</time>
      </trkpt>
      <trkpt lat="45.898659" lon="6.092282">
        <ele>491.37946</ele>
        <time>2021-06-30T07:34:30Z</time>
      </trkpt>
      <trkpt lat="45.898594" lon="6.092461">
        <ele>492.77780</ele>
        <time>2021-06-30T07:34:31Z</time>
      </trkpt>
      <trkpt lat="45.898540" lon="6.092787">
        <ele>493.14575</ele>
        <time>2021-06-30T07:34:32Z</time>
      </trkpt>
      <trkpt lat="45.898510" lon="6.093024">
        <ele>493.21497</ele>
        <time>2021-06-30T07:34:33Z</time>
      </trkpt>
      <trkpt lat="45.898487" lon="6.093226">
        <ele>494.69418</ele>
        <time>2021-06-30T07:34:34Z</time>
      </trkpt>
      <trkpt lat="45.898464" lon="6.093423">
        <ele>495.07291</ele>
        <time>2021-06-30T07:34:35Z</time>
      </trkpt>
      <trkpt lat="45.898445" lon="6.093597">
        <ele>495.23538</ele>
        <time>2021-06-30T07:34:36Z</time>
      </trkpt>
      <trkpt lat="45.898438" lon="6.093737">
        <ele>495.07986</ele>
        <time>2021-06-30T07:34:37Z</time>
      </trkpt>
      <trkpt lat="45.898434" lon="6.093861">
        <ele>494.96634</ele>
        <time>2021-06-30T07:34:38Z</time>
      </trkpt>
      <trkpt lat="45.898422" lon="6.093961">
        <ele>495.05133</ele>
        <time>2021-06-30T07:34:39Z</time>
      </trkpt>
      <trkpt lat="45.898392" lon="6.094063">
        <ele>494.79507</ele>
        <time>2021-06-30T07:34:40Z</time>
      </trkpt>
      <trkpt lat="45.898304" lon="6.094179">
        <ele>494.47748</ele>
        <time>2021-06-30T07:34:41Z</time>
      </trkpt>
      <trkpt lat="45.898216" lon="6.094221">
        <ele>494.29831</ele>
        <time>2021-06-30T07:34:42Z</time>
      </trkpt>
      <trkpt lat="45.898129" lon="6.094208">
        <ele>494.19559</ele>
        <time>2021-06-30T07:34:43Z</time>
      </trkpt>
      <trkpt lat="45.898052" lon="6.094165">
        <ele>494.12433</ele>
        <time>2021-06-30T07:34:44Z</time>
      </trkpt>
      <trkpt lat="45.897964" lon="6.094009">
        <ele>493.76773</ele>
        <time>2021-06-30T07:34:45Z</time>
      </trkpt>
      <trkpt lat="45.897957" lon="6.093877">
        <ele>493.46017</ele>
        <time>2021-06-30T07:34:46Z</time>
      </trkpt>
      <trkpt lat="45.897949" lon="6.093783">
        <ele>493.33411</ele>
        <time>2021-06-30T07:34:47Z</time>
      </trkpt>
      <trkpt lat="45.897942" lon="6.093697">
        <ele>493.25049</ele>
        <time>2021-06-30T07:34:48Z</time>
      </trkpt>
      <trkpt lat="45.897968" lon="6.093550">
        <ele>493.25867</ele>
        <time>2021-06-30T07:34:49Z</time>
      </trkpt>
      <trkpt lat="45.897987" lon="6.093413">
        <ele>492.93161</ele>
        <time>2021-06-30T07:34:50Z</time>
      </trkpt>
      <trkpt lat="45.898003" lon="6.093288">
        <ele>492.45154</ele>
        <time>2021-06-30T07:34:51Z</time>
      </trkpt>
      <trkpt lat="45.898006" lon="6.093200">
        <ele>492.34515</ele>
        <time>2021-06-30T07:34:52Z</time>
      </trkpt>
      <trkpt lat="45.898014" lon="6.093111">
        <ele>492.45837</ele>
        <time>2021-06-30T07:34:53Z</time>
      </trkpt>
      <trkpt lat="45.898026" lon="6.092981">
        <ele>493.04153</ele>
        <time>2021-06-30T07:34:54Z</time>
      </trkpt>
      <trkpt lat="45.898041" lon="6.092785">
        <ele>492.80362</ele>
        <time>2021-06-30T07:34:55Z</time>
      </trkpt>
      <trkpt lat="45.898045" lon="6.092621">
        <ele>492.37537</ele>
        <time>2021-06-30T07:34:56Z</time>
      </trkpt>
      <trkpt lat="45.898045" lon="6.092621">
        <ele>491.60294</ele>
        <time>2021-06-30T07:34:57Z</time>
      </trkpt>
      <trkpt lat="45.898045" lon="6.092566">
        <ele>491.33450</ele>
        <time>2021-06-30T07:34:58Z</time>
      </trkpt>
      <trkpt lat="45.898045" lon="6.092537">
        <ele>491.34158</ele>
        <time>2021-06-30T07:34:59Z</time>
      </trkpt>
      <trkpt lat="45.898045" lon="6.092520">
        <ele>491.23157</ele>
        <time>2021-06-30T07:35:00Z</time>
      </trkpt>
      <trkpt lat="45.898045" lon="6.092520">
        <ele>491.23813</ele>
        <time>2021-06-30T07:35:01Z</time>
      </trkpt>
      <trkpt lat="45.898045" lon="6.092520">
        <ele>491.31693</ele>
        <time>2021-06-30T07:35:02Z</time>
      </trkpt>
      <trkpt lat="45.898045" lon="6.092501">
        <ele>491.53635</ele>
        <time>2021-06-30T07:35:03Z</time>
      </trkpt>
      <trkpt lat="45.898045" lon="6.092413">
        <ele>491.59238</ele>
        <time>2021-06-30T07:35:04Z</time>
      </trkpt>
      <trkpt lat="45.898045" lon="6.092300">
        <ele>491.33871</ele>
        <time>2021-06-30T07:35:05Z</time>
      </trkpt>
      <trkpt lat="45.898037" lon="6.092197">
        <ele>491.41660</ele>
        <time>2021-06-30T07:35:06Z</time>
      </trkpt>
      <trkpt lat="45.898029" lon="6.092097">
        <ele>491.15601</ele>
        <time>2021-06-30T07:35:07Z</time>
      </trkpt>
      <trkpt lat="45.898026" lon="6.091993">
        <ele>490.79059</ele>
        <time>2021-06-30T07:35:08Z</time>
      </trkpt>
      <trkpt lat="45.898018" lon="6.091889">
        <ele>490.90732</ele>
        <time>2021-06-30T07:35:09Z</time>
      </trkpt>
      <trkpt lat="45.898010" lon="6.091796">
        <ele>490.87793</ele>
        <time>2021-06-30T07:35:10Z</time>
      </trkpt>
      <trkpt lat="45.897999" lon="6.091691">
        <ele>490.48288</ele>
        <time>2021-06-30T07:35:11Z</time>
      </trkpt>
      <trkpt lat="45.897987" lon="6.091576">
        <ele>490.25372</ele>
        <time>2021-06-30T07:35:12Z</time>
      </trkpt>
      <trkpt lat="45.897976" lon="6.091467">
        <ele>489.85651</ele>
        <time>2021-06-30T07:35:13Z</time>
      </trkpt>
      <trkpt lat="45.897972" lon="6.091399">
        <ele>489.40851</ele>
        <time>2021-06-30T07:35:14Z</time>
      </trkpt>
      <trkpt lat="45.897964" lon="6.091336">
        <ele>489.11621</ele>
        <time>2021-06-30T07:35:15Z</time>
      </trkpt>
      <trkpt lat="45.897964" lon="6.091307">
        <ele>488.84052</ele>
        <time>2021-06-30T07:35:16Z</time>
      </trkpt>
      <trkpt lat="45.897964" lon="6.091305">
        <ele>488.82932</ele>
        <time>2021-06-30T07:35:17Z</time>
      </trkpt>
      <trkpt lat="45.897964" lon="6.091305">
        <ele>488.89282</ele>
        <time>2021-06-30T07:35:18Z</time>
      </trkpt>
      <trkpt lat="45.897964" lon="6.091305">
        <ele>488.81775</ele>
        <time>2021-06-30T07:35:19Z</time>
      </trkpt>
      <trkpt lat="45.897964" lon="6.091305">
        <ele>488.89059</ele>
        <time>2021-06-30T07:35:20Z</time>
      </trkpt>
      <trkpt lat="45.897964" lon="6.091305">
        <ele>488.87674</ele>
        <time>2021-06-30T07:35:21Z</time>
      </trkpt>
      <trkpt lat="45.897964" lon="6.091305">
        <ele>488.94870</ele>
        <time>2021-06-30T07:35:22Z</time>
      </trkpt>
      <trkpt lat="45.897964" lon="6.091305">
        <ele>488.88608</ele>
        <time>2021-06-30T07:35:23Z</time>
      </trkpt>
      <trkpt lat="45.897964" lon="6.091305">
        <ele>488.84460</ele>
        <time>2021-06-30T07:35:24Z</time>
      </trkpt>
      <trkpt lat="45.897964" lon="6.091305">
        <ele>488.82050</ele>
        <time>2021-06-30T07:35:25Z</time>
      </trkpt>
      <trkpt lat="45.897961" lon="6.091300">
        <ele>488.82004</ele>
        <time>2021-06-30T07:35:26Z</time>
      </trkpt>
      <trkpt lat="45.897961" lon="6.091262">
        <ele>488.93402</ele>
        <time>2021-06-30T07:35:27Z</time>
      </trkpt>
      <trkpt lat="45.897953" lon="6.091190">
        <ele>488.92032</ele>
        <time>2021-06-30T07:35:28Z</time>
      </trkpt>
      <trkpt lat="45.897945" lon="6.091101">
        <ele>488.89136</ele>
        <time>2021-06-30T07:35:29Z</time>
      </trkpt>
      <trkpt lat="45.897945" lon="6.091101">
        <ele>488.93182</ele>
        <time>2021-06-30T07:35:30Z</time>
      </trkpt>
      <trkpt lat="45.897934" lon="6.090977">
        <ele>488.70407</ele>
        <time>2021-06-30T07:35:31Z</time>
      </trkpt>
      <trkpt lat="45.897930" lon="6.090820">
        <ele>488.99185</ele>
        <time>2021-06-30T07:35:32Z</time>
      </trkpt>
      <trkpt lat="45.897942" lon="6.090614">
        <ele>489.59058</ele>
        <time>2021-06-30T07:35:33Z</time>
      </trkpt>
      <trkpt lat="45.897945" lon="6.090480">
        <ele>489.29065</ele>
        <time>2021-06-30T07:35:34Z</time>
      </trkpt>
      <trkpt lat="45.897934" lon="6.090207">
        <ele>487.08746</ele>
        <time>2021-06-30T07:35:35Z</time>
      </trkpt>
      <trkpt lat="45.897942" lon="6.089830">
        <ele>487.30280</ele>
        <time>2021-06-30T07:35:36Z</time>
      </trkpt>
      <trkpt lat="45.897957" lon="6.089524">
        <ele>487.87689</ele>
        <time>2021-06-30T07:35:37Z</time>
      </trkpt>
      <trkpt lat="45.897972" lon="6.089206">
        <ele>488.47992</ele>
        <time>2021-06-30T07:35:38Z</time>
      </trkpt>
      <trkpt lat="45.897987" lon="6.088920">
        <ele>492.57031</ele>
        <time>2021-06-30T07:35:39Z</time>
      </trkpt>
      <trkpt lat="45.897999" lon="6.088659">
        <ele>492.98480</ele>
        <time>2021-06-30T07:35:40Z</time>
      </trkpt>
      <trkpt lat="45.898010" lon="6.088428">
        <ele>493.18338</ele>
        <time>2021-06-30T07:35:41Z</time>
      </trkpt>
      <trkpt lat="45.898018" lon="6.088203">
        <ele>493.40692</ele>
        <time>2021-06-30T07:35:42Z</time>
      </trkpt>
      <trkpt lat="45.898029" lon="6.087980">
        <ele>493.78665</ele>
        <time>2021-06-30T07:35:43Z</time>
      </trkpt>
      <trkpt lat="45.898041" lon="6.087774">
        <ele>493.66599</ele>
        <time>2021-06-30T07:35:44Z</time>
      </trkpt>
      <trkpt lat="45.898048" lon="6.087579">
        <ele>493.58694</ele>
        <time>2021-06-30T07:35:45Z</time>
      </trkpt>
      <trkpt lat="45.898056" lon="6.087361">
        <ele>493.53406</ele>
        <time>2021-06-30T07:35:46Z</time>
      </trkpt>
      <trkpt lat="45.898052" lon="6.087135">
        <ele>493.45837</ele>
        <time>2021-06-30T07:35:47Z</time>
      </trkpt>
      <trkpt lat="45.898033" lon="6.086945">
        <ele>492.72824</ele>
        <time>2021-06-30T07:35:48Z</time>
      </trkpt>
      <trkpt lat="45.897987" lon="6.086769">
        <ele>492.72604</ele>
        <time>2021-06-30T07:35:49Z</time>
      </trkpt>
      <trkpt lat="45.897919" lon="6.086636">
        <ele>492.33450</ele>
        <time>2021-06-30T07:35:50Z</time>
      </trkpt>
      <trkpt lat="45.897846" lon="6.086523">
        <ele>492.14252</ele>
        <time>2021-06-30T07:35:51Z</time>
      </trkpt>
      <trkpt lat="45.897743" lon="6.086446">
        <ele>492.22845</ele>
        <time>2021-06-30T07:35:52Z</time>
      </trkpt>
      <trkpt lat="45.897633" lon="6.086389">
        <ele>492.72705</ele>
        <time>2021-06-30T07:35:53Z</time>
      </trkpt>
      <trkpt lat="45.897507" lon="6.086365">
        <ele>492.78638</ele>
        <time>2021-06-30T07:35:54Z</time>
      </trkpt>
      <trkpt lat="45.897373" lon="6.086389">
        <ele>492.47299</ele>
        <time>2021-06-30T07:35:55Z</time>
      </trkpt>
      <trkpt lat="45.897251" lon="6.086454">
        <ele>492.21960</ele>
        <time>2021-06-30T07:35:56Z</time>
      </trkpt>
      <trkpt lat="45.897141" lon="6.086533">
        <ele>492.02045</ele>
        <time>2021-06-30T07:35:57Z</time>
      </trkpt>
      <trkpt lat="45.897141" lon="6.086533">
        <ele>492.09311</ele>
        <time>2021-06-30T07:35:58Z</time>
      </trkpt>
      <trkpt lat="45.897026" lon="6.086637">
        <ele>492.22403</ele>
        <time>2021-06-30T07:35:59Z</time>
      </trkpt>
      <trkpt lat="45.896889" lon="6.086765">
        <ele>492.72803</ele>
        <time>2021-06-30T07:36:00Z</time>
      </trkpt>
      <trkpt lat="45.896744" lon="6.086894">
        <ele>492.89209</ele>
        <time>2021-06-30T07:36:01Z</time>
      </trkpt>
      <trkpt lat="45.896587" lon="6.087011">
        <ele>493.20279</ele>
        <time>2021-06-30T07:36:02Z</time>
      </trkpt>
      <trkpt lat="45.896435" lon="6.087082">
        <ele>494.14447</ele>
        <time>2021-06-30T07:36:03Z</time>
      </trkpt>
      <trkpt lat="45.896275" lon="6.087118">
        <ele>494.68091</ele>
        <time>2021-06-30T07:36:04Z</time>
      </trkpt>
      <trkpt lat="45.896099" lon="6.087122">
        <ele>495.25101</ele>
        <time>2021-06-30T07:36:05Z</time>
      </trkpt>
      <trkpt lat="45.895924" lon="6.087083">
        <ele>495.93008</ele>
        <time>2021-06-30T07:36:06Z</time>
      </trkpt>
      <trkpt lat="45.895779" lon="6.087032">
        <ele>497.00198</ele>
        <time>2021-06-30T07:36:07Z</time>
      </trkpt>
      <trkpt lat="45.895618" lon="6.086978">
        <ele>497.60873</ele>
        <time>2021-06-30T07:36:08Z</time>
      </trkpt>
      <trkpt lat="45.895451" lon="6.086961">
        <ele>498.19888</ele>
        <time>2021-06-30T07:36:09Z</time>
      </trkpt>
      <trkpt lat="45.895287" lon="6.086893">
        <ele>494.13629</ele>
        <time>2021-06-30T07:36:10Z</time>
      </trkpt>
      <trkpt lat="45.895107" lon="6.086820">
        <ele>494.76691</ele>
        <time>2021-06-30T07:36:11Z</time>
      </trkpt>
      <trkpt lat="45.894917" lon="6.086743">
        <ele>494.97150</ele>
        <time>2021-06-30T07:36:12Z</time>
      </trkpt>
      <trkpt lat="45.894714" lon="6.086663">
        <ele>495.07501</ele>
        <time>2021-06-30T07:36:13Z</time>
      </trkpt>
      <trkpt lat="45.894543" lon="6.086593">
        <ele>495.48102</ele>
        <time>2021-06-30T07:36:14Z</time>
      </trkpt>
      <trkpt lat="45.894367" lon="6.086520">
        <ele>495.82208</ele>
        <time>2021-06-30T07:36:15Z</time>
      </trkpt>
      <trkpt lat="45.894173" lon="6.086438">
        <ele>496.45099</ele>
        <time>2021-06-30T07:36:16Z</time>
      </trkpt>
      <trkpt lat="45.893986" lon="6.086358">
        <ele>497.40717</ele>
        <time>2021-06-30T07:36:17Z</time>
      </trkpt>
      <trkpt lat="45.893806" lon="6.086282">
        <ele>498.48029</ele>
        <time>2021-06-30T07:36:18Z</time>
      </trkpt>
      <trkpt lat="45.893620" lon="6.086203">
        <ele>498.73248</ele>
        <time>2021-06-30T07:36:19Z</time>
      </trkpt>
      <trkpt lat="45.893429" lon="6.086123">
        <ele>499.09637</ele>
        <time>2021-06-30T07:36:20Z</time>
      </trkpt>
      <trkpt lat="45.893253" lon="6.086045">
        <ele>499.54596</ele>
        <time>2021-06-30T07:36:21Z</time>
      </trkpt>
      <trkpt lat="45.893066" lon="6.085965">
        <ele>499.98431</ele>
        <time>2021-06-30T07:36:22Z</time>
      </trkpt>
      <trkpt lat="45.892872" lon="6.085880">
        <ele>501.03058</ele>
        <time>2021-06-30T07:36:23Z</time>
      </trkpt>
      <trkpt lat="45.892666" lon="6.085790">
        <ele>501.74811</ele>
        <time>2021-06-30T07:36:24Z</time>
      </trkpt>
      <trkpt lat="45.892422" lon="6.085675">
        <ele>502.70514</ele>
        <time>2021-06-30T07:36:25Z</time>
      </trkpt>
      <trkpt lat="45.892189" lon="6.085564">
        <ele>504.16974</ele>
        <time>2021-06-30T07:36:26Z</time>
      </trkpt>
      <trkpt lat="45.891949" lon="6.085452">
        <ele>505.04938</ele>
        <time>2021-06-30T07:36:27Z</time>
      </trkpt>
      <trkpt lat="45.891708" lon="6.085338">
        <ele>507.37726</ele>
        <time>2021-06-30T07:36:28Z</time>
      </trkpt>
      <trkpt lat="45.891460" lon="6.085221">
        <ele>509.88434</ele>
        <time>2021-06-30T07:36:29Z</time>
      </trkpt>
      <trkpt lat="45.891460" lon="6.085221">
        <ele>511.24591</ele>
        <time>2021-06-30T07:36:30Z</time>
      </trkpt>
      <trkpt lat="45.891212" lon="6.085103">
        <ele>512.81195</ele>
        <time>2021-06-30T07:36:31Z</time>
      </trkpt>
      <trkpt lat="45.890980" lon="6.084993">
        <ele>514.51093</ele>
        <time>2021-06-30T07:36:32Z</time>
      </trkpt>
      <trkpt lat="45.890739" lon="6.084869">
        <ele>515.88654</ele>
        <time>2021-06-30T07:36:33Z</time>
      </trkpt>
      <trkpt lat="45.890488" lon="6.084740">
        <ele>517.41107</ele>
        <time>2021-06-30T07:36:34Z</time>
      </trkpt>
      <trkpt lat="45.890232" lon="6.084607">
        <ele>518.63336</ele>
        <time>2021-06-30T07:36:35Z</time>
      </trkpt>
      <trkpt lat="45.889973" lon="6.084469">
        <ele>519.03107</ele>
        <time>2021-06-30T07:36:36Z</time>
      </trkpt>
      <trkpt lat="45.889706" lon="6.084324">
        <ele>519.38373</ele>
        <time>2021-06-30T07:36:37Z</time>
      </trkpt>
      <trkpt lat="45.889442" lon="6.084172">
        <ele>520.81549</ele>
        <time>2021-06-30T07:36:38Z</time>
      </trkpt>
      <trkpt lat="45.889175" lon="6.084013">
        <ele>521.23444</ele>
        <time>2021-06-30T07:36:39Z</time>
      </trkpt>
      <trkpt lat="45.888901" lon="6.083851">
        <ele>521.51398</ele>
        <time>2021-06-30T07:36:40Z</time>
      </trkpt>
      <trkpt lat="45.888638" lon="6.083688">
        <ele>523.00006</ele>
        <time>2021-06-30T07:36:41Z</time>
      </trkpt>
      <trkpt lat="45.888374" lon="6.083518">
        <ele>523.38397</ele>
        <time>2021-06-30T07:36:42Z</time>
      </trkpt>
      <trkpt lat="45.888084" lon="6.083333">
        <ele>523.77496</ele>
        <time>2021-06-30T07:36:43Z</time>
      </trkpt>
      <trkpt lat="45.887829" lon="6.083168">
        <ele>524.45563</ele>
        <time>2021-06-30T07:36:44Z</time>
      </trkpt>
      <trkpt lat="45.887562" lon="6.082998">
        <ele>527.22760</ele>
        <time>2021-06-30T07:36:45Z</time>
      </trkpt>
      <trkpt lat="45.887287" lon="6.082801">
        <ele>527.41852</ele>
        <time>2021-06-30T07:36:46Z</time>
      </trkpt>
      <trkpt lat="45.887016" lon="6.082604">
        <ele>526.40131</ele>
        <time>2021-06-30T07:36:47Z</time>
      </trkpt>
      <trkpt lat="45.886765" lon="6.082422">
        <ele>528.19025</ele>
        <time>2021-06-30T07:36:48Z</time>
      </trkpt>
      <trkpt lat="45.886497" lon="6.082209">
        <ele>529.92633</ele>
        <time>2021-06-30T07:36:49Z</time>
      </trkpt>
      <trkpt lat="45.886227" lon="6.081995">
        <ele>530.13873</ele>
        <time>2021-06-30T07:36:50Z</time>
      </trkpt>
      <trkpt lat="45.885960" lon="6.081779">
        <ele>529.08868</ele>
        <time>2021-06-30T07:36:51Z</time>
      </trkpt>
      <trkpt lat="45.885677" lon="6.081548">
        <ele>529.72101</ele>
        <time>2021-06-30T07:36:52Z</time>
      </trkpt>
      <trkpt lat="45.885414" lon="6.081331">
        <ele>529.43170</ele>
        <time>2021-06-30T07:36:53Z</time>
      </trkpt>
      <trkpt lat="45.885155" lon="6.081090">
        <ele>530.84857</ele>
        <time>2021-06-30T07:36:54Z</time>
      </trkpt>
      <trkpt lat="45.884892" lon="6.080856">
        <ele>531.02960</ele>
        <time>2021-06-30T07:36:55Z</time>
      </trkpt>
      <trkpt lat="45.884613" lon="6.080583">
        <ele>531.26764</ele>
        <time>2021-06-30T07:36:56Z</time>
      </trkpt>
      <trkpt lat="45.884342" lon="6.080317">
        <ele>532.04987</ele>
        <time>2021-06-30T07:36:57Z</time>
      </trkpt>
      <trkpt lat="45.884075" lon="6.080058">
        <ele>533.05255</ele>
        <time>2021-06-30T07:36:58Z</time>
      </trkpt>
      <trkpt lat="45.883823" lon="6.079803">
        <ele>533.87384</ele>
        <time>2021-06-30T07:36:59Z</time>
      </trkpt>
      <trkpt lat="45.883553" lon="6.079511">
        <ele>533.99518</ele>
        <time>2021-06-30T07:37:00Z</time>
      </trkpt>
      <trkpt lat="45.883301" lon="6.079237">
        <ele>534.46515</ele>
        <time>2021-06-30T07:37:01Z</time>
      </trkpt>
      <trkpt lat="45.883053" lon="6.078977">
        <ele>535.82159</ele>
        <time>2021-06-30T07:37:02Z</time>
      </trkpt>
      <trkpt lat="45.883053" lon="6.078977">
        <ele>536.98248</ele>
        <time>2021-06-30T07:37:03Z</time>
      </trkpt>
      <trkpt lat="45.882793" lon="6.078702">
        <ele>537.44696</ele>
        <time>2021-06-30T07:37:04Z</time>
      </trkpt>
      <trkpt lat="45.882545" lon="6.078421">
        <ele>537.90851</ele>
        <time>2021-06-30T07:37:05Z</time>
      </trkpt>
      <trkpt lat="45.882301" lon="6.078140">
        <ele>538.57501</ele>
        <time>2021-06-30T07:37:06Z</time>
      </trkpt>
      <trkpt lat="45.882050" lon="6.077843">
        <ele>538.97955</ele>
        <time>2021-06-30T07:37:07Z</time>
      </trkpt>
      <trkpt lat="45.881802" lon="6.077544">
        <ele>539.68365</ele>
        <time>2021-06-30T07:37:08Z</time>
      </trkpt>
      <trkpt lat="45.881557" lon="6.077255">
        <ele>540.22736</ele>
        <time>2021-06-30T07:37:09Z</time>
      </trkpt>
      <trkpt lat="45.881317" lon="6.076970">
        <ele>540.59088</ele>
        <time>2021-06-30T07:37:10Z</time>
      </trkpt>
      <trkpt lat="45.881065" lon="6.076668">
        <ele>541.16315</ele>
        <time>2021-06-30T07:37:11Z</time>
      </trkpt>
      <trkpt lat="45.880814" lon="6.076370">
        <ele>541.81622</ele>
        <time>2021-06-30T07:37:12Z</time>
      </trkpt>
      <trkpt lat="45.880558" lon="6.076059">
        <ele>542.26459</ele>
        <time>2021-06-30T07:37:13Z</time>
      </trkpt>
      <trkpt lat="45.880314" lon="6.075759">
        <ele>542.64886</ele>
        <time>2021-06-30T07:37:14Z</time>
      </trkpt>
      <trkpt lat="45.880058" lon="6.075453">
        <ele>543.17853</ele>
        <time>2021-06-30T07:37:15Z</time>
      </trkpt>
      <trkpt lat="45.879799" lon="6.075134">
        <ele>543.74469</ele>
        <time>2021-06-30T07:37:16Z</time>
      </trkpt>
      <trkpt lat="45.879555" lon="6.074833">
        <ele>543.91974</ele>
        <time>2021-06-30T07:37:17Z</time>
      </trkpt>
      <trkpt lat="45.879318" lon="6.074543">
        <ele>544.44977</ele>
        <time>2021-06-30T07:37:18Z</time>
      </trkpt>
      <trkpt lat="45.879063" lon="6.074224">
        <ele>544.96637</ele>
        <time>2021-06-30T07:37:19Z</time>
      </trkpt>
      <trkpt lat="45.878815" lon="6.073918">
        <ele>545.94061</ele>
        <time>2021-06-30T07:37:20Z</time>
      </trkpt>
      <trkpt lat="45.878567" lon="6.073615">
        <ele>546.23370</ele>
        <time>2021-06-30T07:37:21Z</time>
      </trkpt>
      <trkpt lat="45.878330" lon="6.073322">
        <ele>546.41547</ele>
        <time>2021-06-30T07:37:22Z</time>
      </trkpt>
      <trkpt lat="45.878098" lon="6.073037">
        <ele>546.00116</ele>
        <time>2021-06-30T07:37:23Z</time>
      </trkpt>
      <trkpt lat="45.877850" lon="6.072743">
        <ele>546.25983</ele>
        <time>2021-06-30T07:37:24Z</time>
      </trkpt>
      <trkpt lat="45.877602" lon="6.072446">
        <ele>546.23615</ele>
        <time>2021-06-30T07:37:25Z</time>
      </trkpt>
      <trkpt lat="45.877361" lon="6.072161">
        <ele>546.83063</ele>
        <time>2021-06-30T07:37:26Z</time>
      </trkpt>
      <trkpt lat="45.877125" lon="6.071876">
        <ele>546.81451</ele>
        <time>2021-06-30T07:37:27Z</time>
      </trkpt>
      <trkpt lat="45.876884" lon="6.071593">
        <ele>547.00629</ele>
        <time>2021-06-30T07:37:28Z</time>
      </trkpt>
      <trkpt lat="45.876633" lon="6.071303">
        <ele>547.46466</ele>
        <time>2021-06-30T07:37:29Z</time>
      </trkpt>
      <trkpt lat="45.876373" lon="6.071007">
        <ele>547.65887</ele>
        <time>2021-06-30T07:37:30Z</time>
      </trkpt>
      <trkpt lat="45.876144" lon="6.070725">
        <ele>547.48468</ele>
        <time>2021-06-30T07:37:31Z</time>
      </trkpt>
      <trkpt lat="45.875893" lon="6.070421">
        <ele>547.36017</ele>
        <time>2021-06-30T07:37:32Z</time>
      </trkpt>
      <trkpt lat="45.875648" lon="6.070124">
        <ele>547.24933</ele>
        <time>2021-06-30T07:37:33Z</time>
      </trkpt>
      <trkpt lat="45.875648" lon="6.070124">
        <ele>547.47894</ele>
        <time>2021-06-30T07:37:34Z</time>
      </trkpt>
      <trkpt lat="45.875408" lon="6.069828">
        <ele>547.21344</ele>
        <time>2021-06-30T07:37:35Z</time>
      </trkpt>
      <trkpt lat="45.875168" lon="6.069538">
        <ele>547.31354</ele>
        <time>2021-06-30T07:37:36Z</time>
      </trkpt>
      <trkpt lat="45.874924" lon="6.069244">
        <ele>547.26520</ele>
        <time>2021-06-30T07:37:37Z</time>
      </trkpt>
      <trkpt lat="45.874676" lon="6.068940">
        <ele>547.56403</ele>
        <time>2021-06-30T07:37:38Z</time>
      </trkpt>
      <trkpt lat="45.874435" lon="6.068643">
        <ele>547.45099</ele>
        <time>2021-06-30T07:37:39Z</time>
      </trkpt>
      <trkpt lat="45.874187" lon="6.068339">
        <ele>547.60553</ele>
        <time>2021-06-30T07:37:40Z</time>
      </trkpt>
      <trkpt lat="45.873947" lon="6.068047">
        <ele>547.65057</ele>
        <time>2021-06-30T07:37:41Z</time>
      </trkpt>
      <trkpt lat="45.873695" lon="6.067736">
        <ele>547.30670</ele>
        <time>2021-06-30T07:37:42Z</time>
      </trkpt>
      <trkpt lat="45.873447" lon="6.067430">
        <ele>547.19879</ele>
        <time>2021-06-30T07:37:43Z</time>
      </trkpt>
      <trkpt lat="45.873203" lon="6.067130">
        <ele>546.89850</ele>
        <time>2021-06-30T07:37:44Z</time>
      </trkpt>
      <trkpt lat="45.872948" lon="6.066812">
        <ele>546.24225</ele>
        <time>2021-06-30T07:37:45Z</time>
      </trkpt>
      <trkpt lat="45.872700" lon="6.066503">
        <ele>546.23248</ele>
        <time>2021-06-30T07:37:46Z</time>
      </trkpt>
      <trkpt lat="45.872459" lon="6.066204">
        <ele>545.89801</ele>
        <time>2021-06-30T07:37:47Z</time>
      </trkpt>
      <trkpt lat="45.872208" lon="6.065889">
        <ele>546.34479</ele>
        <time>2021-06-30T07:37:48Z</time>
      </trkpt>
      <trkpt lat="45.871960" lon="6.065581">
        <ele>545.68744</ele>
        <time>2021-06-30T07:37:49Z</time>
      </trkpt>
      <trkpt lat="45.871704" lon="6.065276">
        <ele>545.61237</ele>
        <time>2021-06-30T07:37:50Z</time>
      </trkpt>
      <trkpt lat="45.871433" lon="6.064956">
        <ele>545.26398</ele>
        <time>2021-06-30T07:37:51Z</time>
      </trkpt>
      <trkpt lat="45.871201" lon="6.064677">
        <ele>544.99640</ele>
        <time>2021-06-30T07:37:52Z</time>
      </trkpt>
      <trkpt lat="45.870953" lon="6.064377">
        <ele>544.81866</ele>
        <time>2021-06-30T07:37:53Z</time>
      </trkpt>
      <trkpt lat="45.870705" lon="6.064076">
        <ele>544.70819</ele>
        <time>2021-06-30T07:37:54Z</time>
      </trkpt>
      <trkpt lat="45.870449" lon="6.063764">
        <ele>544.45367</ele>
        <time>2021-06-30T07:37:55Z</time>
      </trkpt>
      <trkpt lat="45.870213" lon="6.063476">
        <ele>544.30573</ele>
        <time>2021-06-30T07:37:56Z</time>
      </trkpt>
      <trkpt lat="45.869968" lon="6.063197">
        <ele>544.18829</ele>
        <time>2021-06-30T07:37:57Z</time>
      </trkpt>
      <trkpt lat="45.869724" lon="6.062915">
        <ele>543.90118</ele>
        <time>2021-06-30T07:37:58Z</time>
      </trkpt>
      <trkpt lat="45.869488" lon="6.062627">
        <ele>543.33258</ele>
        <time>2021-06-30T07:37:59Z</time>
      </trkpt>
      <trkpt lat="45.869247" lon="6.062352">
        <ele>543.40619</ele>
        <time>2021-06-30T07:38:00Z</time>
      </trkpt>
      <trkpt lat="45.868984" lon="6.062062">
        <ele>543.49762</ele>
        <time>2021-06-30T07:38:01Z</time>
      </trkpt>
      <trkpt lat="45.868729" lon="6.061784">
        <ele>543.70660</ele>
        <time>2021-06-30T07:38:02Z</time>
      </trkpt>
      <trkpt lat="45.868484" lon="6.061514">
        <ele>543.89081</ele>
        <time>2021-06-30T07:38:03Z</time>
      </trkpt>
      <trkpt lat="45.868217" lon="6.061240">
        <ele>543.31671</ele>
        <time>2021-06-30T07:38:04Z</time>
      </trkpt>
      <trkpt lat="45.868217" lon="6.061240">
        <ele>543.67291</ele>
        <time>2021-06-30T07:38:05Z</time>
      </trkpt>
      <trkpt lat="45.867966" lon="6.060995">
        <ele>544.13434</ele>
        <time>2021-06-30T07:38:06Z</time>
      </trkpt>
      <trkpt lat="45.867683" lon="6.060723">
        <ele>544.01434</ele>
        <time>2021-06-30T07:38:07Z</time>
      </trkpt>
      <trkpt lat="45.867420" lon="6.060472">
        <ele>543.07452</ele>
        <time>2021-06-30T07:38:08Z</time>
      </trkpt>
      <trkpt lat="45.867157" lon="6.060224">
        <ele>542.23175</ele>
        <time>2021-06-30T07:38:09Z</time>
      </trkpt>
      <trkpt lat="45.866894" lon="6.059996">
        <ele>541.93805</ele>
        <time>2021-06-30T07:38:10Z</time>
      </trkpt>
      <trkpt lat="45.866615" lon="6.059751">
        <ele>541.58405</ele>
        <time>2021-06-30T07:38:11Z</time>
      </trkpt>
      <trkpt lat="45.866341" lon="6.059508">
        <ele>541.21637</ele>
        <time>2021-06-30T07:38:12Z</time>
      </trkpt>
      <trkpt lat="45.866058" lon="6.059291">
        <ele>541.12506</ele>
        <time>2021-06-30T07:38:13Z</time>
      </trkpt>
      <trkpt lat="45.865776" lon="6.059083">
        <ele>540.58112</ele>
        <time>2021-06-30T07:38:14Z</time>
      </trkpt>
      <trkpt lat="45.865494" lon="6.058874">
        <ele>540.32697</ele>
        <time>2021-06-30T07:38:15Z</time>
      </trkpt>
      <trkpt lat="45.865211" lon="6.058679">
        <ele>539.88385</ele>
        <time>2021-06-30T07:38:16Z</time>
      </trkpt>
      <trkpt lat="45.864933" lon="6.058496">
        <ele>539.84381</ele>
        <time>2021-06-30T07:38:17Z</time>
      </trkpt>
      <trkpt lat="45.864662" lon="6.058328">
        <ele>539.70636</ele>
        <time>2021-06-30T07:38:18Z</time>
      </trkpt>
      <trkpt lat="45.864391" lon="6.058169">
        <ele>539.69879</ele>
        <time>2021-06-30T07:38:19Z</time>
      </trkpt>
      <trkpt lat="45.864101" lon="6.058005">
        <ele>539.65900</ele>
        <time>2021-06-30T07:38:20Z</time>
      </trkpt>
      <trkpt lat="45.863823" lon="6.057850">
        <ele>538.56842</ele>
        <time>2021-06-30T07:38:21Z</time>
      </trkpt>
      <trkpt lat="45.863544" lon="6.057703">
        <ele>538.70172</ele>
        <time>2021-06-30T07:38:22Z</time>
      </trkpt>
      <trkpt lat="45.863255" lon="6.057567">
        <ele>538.67572</ele>
        <time>2021-06-30T07:38:23Z</time>
      </trkpt>
      <trkpt lat="45.862972" lon="6.057435">
        <ele>538.69489</ele>
        <time>2021-06-30T07:38:24Z</time>
      </trkpt>
      <trkpt lat="45.862682" lon="6.057313">
        <ele>538.55316</ele>
        <time>2021-06-30T07:38:25Z</time>
      </trkpt>
      <trkpt lat="45.862396" lon="6.057201">
        <ele>538.35333</ele>
        <time>2021-06-30T07:38:26Z</time>
      </trkpt>
      <trkpt lat="45.862110" lon="6.057088">
        <ele>538.20758</ele>
        <time>2021-06-30T07:38:27Z</time>
      </trkpt>
      <trkpt lat="45.861832" lon="6.056985">
        <ele>538.31976</ele>
        <time>2021-06-30T07:38:28Z</time>
      </trkpt>
      <trkpt lat="45.861526" lon="6.056882">
        <ele>538.03839</ele>
        <time>2021-06-30T07:38:29Z</time>
      </trkpt>
      <trkpt lat="45.861237" lon="6.056795">
        <ele>538.23761</ele>
        <time>2021-06-30T07:38:30Z</time>
      </trkpt>
      <trkpt lat="45.860931" lon="6.056703">
        <ele>537.99066</ele>
        <time>2021-06-30T07:38:31Z</time>
      </trkpt>
      <trkpt lat="45.860634" lon="6.056629">
        <ele>537.95270</ele>
        <time>2021-06-30T07:38:32Z</time>
      </trkpt>
      <trkpt lat="45.860336" lon="6.056560">
        <ele>537.94659</ele>
        <time>2021-06-30T07:38:33Z</time>
      </trkpt>
      <trkpt lat="45.860027" lon="6.056490">
        <ele>538.52899</ele>
        <time>2021-06-30T07:38:34Z</time>
      </trkpt>
      <trkpt lat="45.859737" lon="6.056441">
        <ele>538.24811</ele>
        <time>2021-06-30T07:38:35Z</time>
      </trkpt>
      <trkpt lat="45.859436" lon="6.056391">
        <ele>538.34430</ele>
        <time>2021-06-30T07:38:36Z</time>
      </trkpt>
      <trkpt lat="45.859436" lon="6.056391">
        <ele>538.73138</ele>
        <time>2021-06-30T07:38:37Z</time>
      </trkpt>
      <trkpt lat="45.859150" lon="6.056346">
        <ele>539.26544</ele>
        <time>2021-06-30T07:38:38Z</time>
      </trkpt>
      <trkpt lat="45.858875" lon="6.056316">
        <ele>539.37946</ele>
        <time>2021-06-30T07:38:39Z</time>
      </trkpt>
      <trkpt lat="45.858597" lon="6.056302">
        <ele>539.84698</ele>
        <time>2021-06-30T07:38:40Z</time>
      </trkpt>
      <trkpt lat="45.858330" lon="6.056289">
        <ele>540.42120</ele>
        <time>2021-06-30T07:38:41Z</time>
      </trkpt>
      <trkpt lat="45.858063" lon="6.056275">
        <ele>540.76959</ele>
        <time>2021-06-30T07:38:42Z</time>
      </trkpt>
      <trkpt lat="45.857792" lon="6.056268">
        <ele>540.46588</ele>
        <time>2021-06-30T07:38:43Z</time>
      </trkpt>
      <trkpt lat="45.857510" lon="6.056261">
        <ele>540.33136</ele>
        <time>2021-06-30T07:38:44Z</time>
      </trkpt>
      <trkpt lat="45.857208" lon="6.056260">
        <ele>540.94415</ele>
        <time>2021-06-30T07:38:45Z</time>
      </trkpt>
      <trkpt lat="45.856907" lon="6.056261">
        <ele>541.65094</ele>
        <time>2021-06-30T07:38:46Z</time>
      </trkpt>
      <trkpt lat="45.856579" lon="6.056264">
        <ele>541.95819</ele>
        <time>2021-06-30T07:38:47Z</time>
      </trkpt>
      <trkpt lat="45.856266" lon="6.056271">
        <ele>541.74835</ele>
        <time>2021-06-30T07:38:48Z</time>
      </trkpt>
      <trkpt lat="45.855961" lon="6.056285">
        <ele>542.11127</ele>
        <time>2021-06-30T07:38:49Z</time>
      </trkpt>
      <trkpt lat="45.855667" lon="6.056299">
        <ele>542.35883</ele>
        <time>2021-06-30T07:38:50Z</time>
      </trkpt>
      <trkpt lat="45.855370" lon="6.056313">
        <ele>542.68011</ele>
        <time>2021-06-30T07:38:51Z</time>
      </trkpt>
      <trkpt lat="45.855057" lon="6.056328">
        <ele>542.83746</ele>
        <time>2021-06-30T07:38:52Z</time>
      </trkpt>
      <trkpt lat="45.854740" lon="6.056342">
        <ele>543.30084</ele>
        <time>2021-06-30T07:38:53Z</time>
      </trkpt>
      <trkpt lat="45.854458" lon="6.056356">
        <ele>543.51959</ele>
        <time>2021-06-30T07:38:54Z</time>
      </trkpt>
      <trkpt lat="45.854156" lon="6.056370">
        <ele>544.04950</ele>
        <time>2021-06-30T07:38:55Z</time>
      </trkpt>
      <trkpt lat="45.853840" lon="6.056386">
        <ele>544.57697</ele>
        <time>2021-06-30T07:38:56Z</time>
      </trkpt>
      <trkpt lat="45.853554" lon="6.056400">
        <ele>545.58380</ele>
        <time>2021-06-30T07:38:57Z</time>
      </trkpt>
      <trkpt lat="45.853256" lon="6.056416">
        <ele>545.62408</ele>
        <time>2021-06-30T07:38:58Z</time>
      </trkpt>
      <trkpt lat="45.852959" lon="6.056431">
        <ele>545.95538</ele>
        <time>2021-06-30T07:38:59Z</time>
      </trkpt>
      <trkpt lat="45.852650" lon="6.056448">
        <ele>546.04852</ele>
        <time>2021-06-30T07:39:00Z</time>
      </trkpt>
      <trkpt lat="45.852348" lon="6.056463">
        <ele>546.85638</ele>
        <time>2021-06-30T07:39:01Z</time>
      </trkpt>
      <trkpt lat="45.852051" lon="6.056478">
        <ele>546.88654</ele>
        <time>2021-06-30T07:39:02Z</time>
      </trkpt>
      <trkpt lat="45.851742" lon="6.056493">
        <ele>547.61127</ele>
        <time>2021-06-30T07:39:03Z</time>
      </trkpt>
      <trkpt lat="45.851444" lon="6.056507">
        <ele>547.44318</ele>
        <time>2021-06-30T07:39:04Z</time>
      </trkpt>
      <trkpt lat="45.851131" lon="6.056521">
        <ele>547.75433</ele>
        <time>2021-06-30T07:39:05Z</time>
      </trkpt>
      <trkpt lat="45.850842" lon="6.056533">
        <ele>547.65411</ele>
        <time>2021-06-30T07:39:06Z</time>
      </trkpt>
      <trkpt lat="45.850525" lon="6.056546">
        <ele>547.37311</ele>
        <time>2021-06-30T07:39:07Z</time>
      </trkpt>
      <trkpt lat="45.850227" lon="6.056559">
        <ele>547.25470</ele>
        <time>2021-06-30T07:39:08Z</time>
      </trkpt>
      <trkpt lat="45.849918" lon="6.056573">
        <ele>547.10382</ele>
        <time>2021-06-30T07:39:09Z</time>
      </trkpt>
      <trkpt lat="45.849625" lon="6.056586">
        <ele>546.66119</ele>
        <time>2021-06-30T07:39:10Z</time>
      </trkpt>
      <trkpt lat="45.849323" lon="6.056600">
        <ele>546.19867</ele>
        <time>2021-06-30T07:39:11Z</time>
      </trkpt>
      <trkpt lat="45.849007" lon="6.056614">
        <ele>545.79718</ele>
        <time>2021-06-30T07:39:12Z</time>
      </trkpt>
      <trkpt lat="45.848709" lon="6.056628">
        <ele>545.67133</ele>
        <time>2021-06-30T07:39:13Z</time>
      </trkpt>
      <trkpt lat="45.848396" lon="6.056649">
        <ele>545.02301</ele>
        <time>2021-06-30T07:39:14Z</time>
      </trkpt>
      <trkpt lat="45.848103" lon="6.056670">
        <ele>544.53058</ele>
        <time>2021-06-30T07:39:15Z</time>
      </trkpt>
      <trkpt lat="45.848103" lon="6.056670">
        <ele>543.90704</ele>
        <time>2021-06-30T07:39:16Z</time>
      </trkpt>
      <trkpt lat="45.847797" lon="6.056687">
        <ele>543.37604</ele>
        <time>2021-06-30T07:39:17Z</time>
      </trkpt>
      <trkpt lat="45.847481" lon="6.056701">
        <ele>542.68610</ele>
        <time>2021-06-30T07:39:18Z</time>
      </trkpt>
      <trkpt lat="45.847168" lon="6.056714">
        <ele>541.92389</ele>
        <time>2021-06-30T07:39:19Z</time>
      </trkpt>
      <trkpt lat="45.846867" lon="6.056727">
        <ele>541.49323</ele>
        <time>2021-06-30T07:39:20Z</time>
      </trkpt>
      <trkpt lat="45.846561" lon="6.056737">
        <ele>540.70001</ele>
        <time>2021-06-30T07:39:21Z</time>
      </trkpt>
      <trkpt lat="45.846249" lon="6.056742">
        <ele>540.91095</ele>
        <time>2021-06-30T07:39:22Z</time>
      </trkpt>
      <trkpt lat="45.845947" lon="6.056746">
        <ele>541.31769</ele>
        <time>2021-06-30T07:39:23Z</time>
      </trkpt>
      <trkpt lat="45.845638" lon="6.056740">
        <ele>541.82526</ele>
        <time>2021-06-30T07:39:24Z</time>
      </trkpt>
      <trkpt lat="45.845318" lon="6.056733">
        <ele>541.48431</ele>
        <time>2021-06-30T07:39:25Z</time>
      </trkpt>
      <trkpt lat="45.845009" lon="6.056713">
        <ele>540.88422</ele>
        <time>2021-06-30T07:39:26Z</time>
      </trkpt>
      <trkpt lat="45.844711" lon="6.056687">
        <ele>540.17181</ele>
        <time>2021-06-30T07:39:27Z</time>
      </trkpt>
      <trkpt lat="45.844395" lon="6.056658">
        <ele>540.16779</ele>
        <time>2021-06-30T07:39:28Z</time>
      </trkpt>
      <trkpt lat="45.844105" lon="6.056622">
        <ele>539.76727</ele>
        <time>2021-06-30T07:39:29Z</time>
      </trkpt>
      <trkpt lat="45.843792" lon="6.056574">
        <ele>538.16852</ele>
        <time>2021-06-30T07:39:30Z</time>
      </trkpt>
      <trkpt lat="45.843502" lon="6.056516">
        <ele>536.64630</ele>
        <time>2021-06-30T07:39:31Z</time>
      </trkpt>
      <trkpt lat="45.843204" lon="6.056449">
        <ele>536.45001</ele>
        <time>2021-06-30T07:39:32Z</time>
      </trkpt>
      <trkpt lat="45.842926" lon="6.056369">
        <ele>536.02142</ele>
        <time>2021-06-30T07:39:33Z</time>
      </trkpt>
      <trkpt lat="45.842609" lon="6.056260">
        <ele>535.29767</ele>
        <time>2021-06-30T07:39:34Z</time>
      </trkpt>
      <trkpt lat="45.842319" lon="6.056159">
        <ele>534.85321</ele>
        <time>2021-06-30T07:39:35Z</time>
      </trkpt>
      <trkpt lat="45.842022" lon="6.056047">
        <ele>534.28082</ele>
        <time>2021-06-30T07:39:36Z</time>
      </trkpt>
      <trkpt lat="45.841724" lon="6.055922">
        <ele>534.87396</ele>
        <time>2021-06-30T07:39:37Z</time>
      </trkpt>
      <trkpt lat="45.841434" lon="6.055800">
        <ele>534.12164</ele>
        <time>2021-06-30T07:39:38Z</time>
      </trkpt>
      <trkpt lat="45.841141" lon="6.055669">
        <ele>533.38727</ele>
        <time>2021-06-30T07:39:39Z</time>
      </trkpt>
      <trkpt lat="45.840862" lon="6.055552">
        <ele>533.08258</ele>
        <time>2021-06-30T07:39:40Z</time>
      </trkpt>
      <trkpt lat="45.840584" lon="6.055441">
        <ele>532.63495</ele>
        <time>2021-06-30T07:39:41Z</time>
      </trkpt>
      <trkpt lat="45.840313" lon="6.055289">
        <ele>532.02313</ele>
        <time>2021-06-30T07:39:42Z</time>
      </trkpt>
      <trkpt lat="45.840031" lon="6.055131">
        <ele>531.28412</ele>
        <time>2021-06-30T07:39:43Z</time>
      </trkpt>
      <trkpt lat="45.839756" lon="6.054953">
        <ele>530.72589</ele>
        <time>2021-06-30T07:39:44Z</time>
      </trkpt>
      <trkpt lat="45.839485" lon="6.054775">
        <ele>530.10944</ele>
        <time>2021-06-30T07:39:45Z</time>
      </trkpt>
      <trkpt lat="45.839218" lon="6.054594">
        <ele>528.73663</ele>
        <time>2021-06-30T07:39:46Z</time>
      </trkpt>
      <trkpt lat="45.838951" lon="6.054397">
        <ele>527.99249</ele>
        <time>2021-06-30T07:39:47Z</time>
      </trkpt>
      <trkpt lat="45.838951" lon="6.054397">
        <ele>526.85834</ele>
        <time>2021-06-30T07:39:48Z</time>
      </trkpt>
      <trkpt lat="45.838684" lon="6.054194">
        <ele>525.50409</ele>
        <time>2021-06-30T07:39:49Z</time>
      </trkpt>
      <trkpt lat="45.838417" lon="6.053981">
        <ele>524.14313</ele>
        <time>2021-06-30T07:39:50Z</time>
      </trkpt>
      <trkpt lat="45.838158" lon="6.053761">
        <ele>523.27423</ele>
        <time>2021-06-30T07:39:51Z</time>
      </trkpt>
      <trkpt lat="45.837898" lon="6.053532">
        <ele>522.18842</ele>
        <time>2021-06-30T07:39:52Z</time>
      </trkpt>
      <trkpt lat="45.837643" lon="6.053302">
        <ele>520.90326</ele>
        <time>2021-06-30T07:39:53Z</time>
      </trkpt>
      <trkpt lat="45.837383" lon="6.053049">
        <ele>519.67596</ele>
        <time>2021-06-30T07:39:54Z</time>
      </trkpt>
      <trkpt lat="45.837135" lon="6.052799">
        <ele>518.83453</ele>
        <time>2021-06-30T07:39:55Z</time>
      </trkpt>
      <trkpt lat="45.836903" lon="6.052540">
        <ele>518.44879</ele>
        <time>2021-06-30T07:39:56Z</time>
      </trkpt>
      <trkpt lat="45.836643" lon="6.052250">
        <ele>517.74078</ele>
        <time>2021-06-30T07:39:57Z</time>
      </trkpt>
      <trkpt lat="45.836411" lon="6.051982">
        <ele>516.90875</ele>
        <time>2021-06-30T07:39:58Z</time>
      </trkpt>
      <trkpt lat="45.836163" lon="6.051677">
        <ele>515.94366</ele>
        <time>2021-06-30T07:39:59Z</time>
      </trkpt>
      <trkpt lat="45.835930" lon="6.051369">
        <ele>514.94196</ele>
        <time>2021-06-30T07:40:00Z</time>
      </trkpt>
      <trkpt lat="45.835705" lon="6.051064">
        <ele>513.73383</ele>
        <time>2021-06-30T07:40:01Z</time>
      </trkpt>
      <trkpt lat="45.835468" lon="6.050744">
        <ele>512.61041</ele>
        <time>2021-06-30T07:40:02Z</time>
      </trkpt>
      <trkpt lat="45.835239" lon="6.050407">
        <ele>511.56537</ele>
        <time>2021-06-30T07:40:03Z</time>
      </trkpt>
      <trkpt lat="45.835014" lon="6.050081">
        <ele>510.83649</ele>
        <time>2021-06-30T07:40:04Z</time>
      </trkpt>
      <trkpt lat="45.834793" lon="6.049731">
        <ele>509.35297</ele>
        <time>2021-06-30T07:40:05Z</time>
      </trkpt>
      <trkpt lat="45.834587" lon="6.049403">
        <ele>508.09869</ele>
        <time>2021-06-30T07:40:06Z</time>
      </trkpt>
      <trkpt lat="45.834393" lon="6.049089">
        <ele>507.58478</ele>
        <time>2021-06-30T07:40:07Z</time>
      </trkpt>
      <trkpt lat="45.834175" lon="6.048736">
        <ele>505.94122</ele>
        <time>2021-06-30T07:40:08Z</time>
      </trkpt>
      <trkpt lat="45.833981" lon="6.048418">
        <ele>505.05658</ele>
        <time>2021-06-30T07:40:09Z</time>
      </trkpt>
      <trkpt lat="45.833771" lon="6.048073">
        <ele>504.14240</ele>
        <time>2021-06-30T07:40:10Z</time>
      </trkpt>
      <trkpt lat="45.833572" lon="6.047729">
        <ele>503.12421</ele>
        <time>2021-06-30T07:40:11Z</time>
      </trkpt>
      <trkpt lat="45.833389" lon="6.047418">
        <ele>502.27252</ele>
        <time>2021-06-30T07:40:12Z</time>
      </trkpt>
      <trkpt lat="45.833183" lon="6.047065">
        <ele>501.59283</ele>
        <time>2021-06-30T07:40:13Z</time>
      </trkpt>
      <trkpt lat="45.832985" lon="6.046721">
        <ele>500.86798</ele>
        <time>2021-06-30T07:40:14Z</time>
      </trkpt>
      <trkpt lat="45.832787" lon="6.046379">
        <ele>499.28571</ele>
        <time>2021-06-30T07:40:15Z</time>
      </trkpt>
      <trkpt lat="45.832584" lon="6.046031">
        <ele>498.27838</ele>
        <time>2021-06-30T07:40:16Z</time>
      </trkpt>
      <trkpt lat="45.832390" lon="6.045695">
        <ele>497.40594</ele>
        <time>2021-06-30T07:40:17Z</time>
      </trkpt>
      <trkpt lat="45.832188" lon="6.045350">
        <ele>496.46295</ele>
        <time>2021-06-30T07:40:18Z</time>
      </trkpt>
      <trkpt lat="45.831997" lon="6.045023">
        <ele>495.15924</ele>
        <time>2021-06-30T07:40:19Z</time>
      </trkpt>
      <trkpt lat="45.831799" lon="6.044681">
        <ele>494.20880</ele>
        <time>2021-06-30T07:40:20Z</time>
      </trkpt>
      <trkpt lat="45.831799" lon="6.044681">
        <ele>492.83881</ele>
        <time>2021-06-30T07:40:21Z</time>
      </trkpt>
      <trkpt lat="45.831596" lon="6.044336">
        <ele>491.64996</ele>
        <time>2021-06-30T07:40:22Z</time>
      </trkpt>
      <trkpt lat="45.831402" lon="6.044009">
        <ele>490.19025</ele>
        <time>2021-06-30T07:40:23Z</time>
      </trkpt>
      <trkpt lat="45.831200" lon="6.043675">
        <ele>488.86859</ele>
        <time>2021-06-30T07:40:24Z</time>
      </trkpt>
      <trkpt lat="45.831001" lon="6.043328">
        <ele>487.88214</ele>
        <time>2021-06-30T07:40:25Z</time>
      </trkpt>
      <trkpt lat="45.830803" lon="6.042975">
        <ele>487.10114</ele>
        <time>2021-06-30T07:40:26Z</time>
      </trkpt>
      <trkpt lat="45.830612" lon="6.042638">
        <ele>486.23199</ele>
        <time>2021-06-30T07:40:27Z</time>
      </trkpt>
      <trkpt lat="45.830414" lon="6.042283">
        <ele>485.05963</ele>
        <time>2021-06-30T07:40:28Z</time>
      </trkpt>
      <trkpt lat="45.830219" lon="6.041943">
        <ele>484.36945</ele>
        <time>2021-06-30T07:40:29Z</time>
      </trkpt>
      <trkpt lat="45.830021" lon="6.041578">
        <ele>483.22003</ele>
        <time>2021-06-30T07:40:30Z</time>
      </trkpt>
      <trkpt lat="45.829826" lon="6.041220">
        <ele>481.83087</ele>
        <time>2021-06-30T07:40:31Z</time>
      </trkpt>
      <trkpt lat="45.829647" lon="6.040872">
        <ele>480.77094</ele>
        <time>2021-06-30T07:40:32Z</time>
      </trkpt>
      <trkpt lat="45.829453" lon="6.040498">
        <ele>480.07062</ele>
        <time>2021-06-30T07:40:33Z</time>
      </trkpt>
      <trkpt lat="45.829266" lon="6.040121">
        <ele>478.72369</ele>
        <time>2021-06-30T07:40:34Z</time>
      </trkpt>
      <trkpt lat="45.829090" lon="6.039760">
        <ele>477.82135</ele>
        <time>2021-06-30T07:40:35Z</time>
      </trkpt>
      <trkpt lat="45.828915" lon="6.039400">
        <ele>477.35272</ele>
        <time>2021-06-30T07:40:36Z</time>
      </trkpt>
      <trkpt lat="45.828732" lon="6.039021">
        <ele>476.10870</ele>
        <time>2021-06-30T07:40:37Z</time>
      </trkpt>
      <trkpt lat="45.828564" lon="6.038642">
        <ele>475.51837</ele>
        <time>2021-06-30T07:40:38Z</time>
      </trkpt>
      <trkpt lat="45.828400" lon="6.038272">
        <ele>474.39569</ele>
        <time>2021-06-30T07:40:39Z</time>
      </trkpt>
      <trkpt lat="45.828224" lon="6.037880">
        <ele>473.75916</ele>
        <time>2021-06-30T07:40:40Z</time>
      </trkpt>
      <trkpt lat="45.828056" lon="6.037490">
        <ele>472.62134</ele>
        <time>2021-06-30T07:40:41Z</time>
      </trkpt>
      <trkpt lat="45.827896" lon="6.037080">
        <ele>471.85638</ele>
        <time>2021-06-30T07:40:42Z</time>
      </trkpt>
      <trkpt lat="45.827740" lon="6.036691">
        <ele>471.11554</ele>
        <time>2021-06-30T07:40:43Z</time>
      </trkpt>
      <trkpt lat="45.827579" lon="6.036285">
        <ele>470.23993</ele>
        <time>2021-06-30T07:40:44Z</time>
      </trkpt>
      <trkpt lat="45.827427" lon="6.035904">
        <ele>469.18616</ele>
        <time>2021-06-30T07:40:45Z</time>
      </trkpt>
      <trkpt lat="45.827271" lon="6.035496">
        <ele>468.25525</ele>
        <time>2021-06-30T07:40:46Z</time>
      </trkpt>
      <trkpt lat="45.827126" lon="6.035110">
        <ele>467.07764</ele>
        <time>2021-06-30T07:40:47Z</time>
      </trkpt>
      <trkpt lat="45.826973" lon="6.034708">
        <ele>466.22491</ele>
        <time>2021-06-30T07:40:48Z</time>
      </trkpt>
      <trkpt lat="45.826828" lon="6.034297">
        <ele>465.24219</ele>
        <time>2021-06-30T07:40:49Z</time>
      </trkpt>
      <trkpt lat="45.826828" lon="6.034297">
        <ele>464.16626</ele>
        <time>2021-06-30T07:40:50Z</time>
      </trkpt>
      <trkpt lat="45.826683" lon="6.033882">
        <ele>463.35144</ele>
        <time>2021-06-30T07:40:51Z</time>
      </trkpt>
      <trkpt lat="45.826546" lon="6.033494">
        <ele>462.36603</ele>
        <time>2021-06-30T07:40:52Z</time>
      </trkpt>
      <trkpt lat="45.826405" lon="6.033100">
        <ele>461.20538</ele>
        <time>2021-06-30T07:40:53Z</time>
      </trkpt>
      <trkpt lat="45.826252" lon="6.032685">
        <ele>459.76617</ele>
        <time>2021-06-30T07:40:54Z</time>
      </trkpt>
      <trkpt lat="45.826111" lon="6.032301">
        <ele>458.34406</ele>
        <time>2021-06-30T07:40:55Z</time>
      </trkpt>
      <trkpt lat="45.825966" lon="6.031905">
        <ele>457.53375</ele>
        <time>2021-06-30T07:40:56Z</time>
      </trkpt>
      <trkpt lat="45.825825" lon="6.031516">
        <ele>456.34711</ele>
        <time>2021-06-30T07:40:57Z</time>
      </trkpt>
      <trkpt lat="45.825672" lon="6.031098">
        <ele>455.50812</ele>
        <time>2021-06-30T07:40:58Z</time>
      </trkpt>
      <trkpt lat="45.825535" lon="6.030702">
        <ele>455.10663</ele>
        <time>2021-06-30T07:40:59Z</time>
      </trkpt>
      <trkpt lat="45.825394" lon="6.030298">
        <ele>454.54767</ele>
        <time>2021-06-30T07:41:00Z</time>
      </trkpt>
      <trkpt lat="45.825245" lon="6.029887">
        <ele>454.23602</ele>
        <time>2021-06-30T07:41:01Z</time>
      </trkpt>
      <trkpt lat="45.825096" lon="6.029477">
        <ele>453.91333</ele>
        <time>2021-06-30T07:41:02Z</time>
      </trkpt>
      <trkpt lat="45.824959" lon="6.029077">
        <ele>453.31116</ele>
        <time>2021-06-30T07:41:03Z</time>
      </trkpt>
      <trkpt lat="45.824821" lon="6.028691">
        <ele>452.97833</ele>
        <time>2021-06-30T07:41:04Z</time>
      </trkpt>
      <trkpt lat="45.824677" lon="6.028299">
        <ele>452.54852</ele>
        <time>2021-06-30T07:41:05Z</time>
      </trkpt>
      <trkpt lat="45.824524" lon="6.027906">
        <ele>451.53253</ele>
        <time>2021-06-30T07:41:06Z</time>
      </trkpt>
      <trkpt lat="45.824371" lon="6.027488">
        <ele>451.28796</ele>
        <time>2021-06-30T07:41:07Z</time>
      </trkpt>
      <trkpt lat="45.824234" lon="6.027103">
        <ele>450.68793</ele>
        <time>2021-06-30T07:41:08Z</time>
      </trkpt>
      <trkpt lat="45.824093" lon="6.026708">
        <ele>450.49066</ele>
        <time>2021-06-30T07:41:09Z</time>
      </trkpt>
      <trkpt lat="45.823948" lon="6.026313">
        <ele>450.38763</ele>
        <time>2021-06-30T07:41:10Z</time>
      </trkpt>
      <trkpt lat="45.823818" lon="6.025939">
        <ele>450.70685</ele>
        <time>2021-06-30T07:41:11Z</time>
      </trkpt>
      <trkpt lat="45.823689" lon="6.025535">
        <ele>450.98187</ele>
        <time>2021-06-30T07:41:12Z</time>
      </trkpt>
      <trkpt lat="45.823544" lon="6.025135">
        <ele>451.16345</ele>
        <time>2021-06-30T07:41:13Z</time>
      </trkpt>
      <trkpt lat="45.823395" lon="6.024761">
        <ele>451.69385</ele>
        <time>2021-06-30T07:41:14Z</time>
      </trkpt>
      <trkpt lat="45.823238" lon="6.024362">
        <ele>451.42889</ele>
        <time>2021-06-30T07:41:15Z</time>
      </trkpt>
      <trkpt lat="45.823101" lon="6.023980">
        <ele>451.46497</ele>
        <time>2021-06-30T07:41:16Z</time>
      </trkpt>
      <trkpt lat="45.822956" lon="6.023572">
        <ele>452.13342</ele>
        <time>2021-06-30T07:41:17Z</time>
      </trkpt>
      <trkpt lat="45.822815" lon="6.023182">
        <ele>452.16467</ele>
        <time>2021-06-30T07:41:18Z</time>
      </trkpt>
      <trkpt lat="45.822678" lon="6.022792">
        <ele>452.40356</ele>
        <time>2021-06-30T07:41:19Z</time>
      </trkpt>
      <trkpt lat="45.822540" lon="6.022410">
        <ele>452.85553</ele>
        <time>2021-06-30T07:41:20Z</time>
      </trkpt>
      <trkpt lat="45.822411" lon="6.022047">
        <ele>453.39935</ele>
        <time>2021-06-30T07:41:21Z</time>
      </trkpt>
      <trkpt lat="45.822277" lon="6.021678">
        <ele>453.88159</ele>
        <time>2021-06-30T07:41:22Z</time>
      </trkpt>
      <trkpt lat="45.822147" lon="6.021311">
        <ele>454.07684</ele>
        <time>2021-06-30T07:41:23Z</time>
      </trkpt>
      <trkpt lat="45.822010" lon="6.020938">
        <ele>454.48346</ele>
        <time>2021-06-30T07:41:24Z</time>
      </trkpt>
      <trkpt lat="45.821869" lon="6.020554">
        <ele>454.92999</ele>
        <time>2021-06-30T07:41:25Z</time>
      </trkpt>
      <trkpt lat="45.821869" lon="6.020554">
        <ele>455.16547</ele>
        <time>2021-06-30T07:41:26Z</time>
      </trkpt>
      <trkpt lat="45.821720" lon="6.020153">
        <ele>455.58441</ele>
        <time>2021-06-30T07:41:27Z</time>
      </trkpt>
      <trkpt lat="45.821568" lon="6.019737">
        <ele>455.52258</ele>
        <time>2021-06-30T07:41:28Z</time>
      </trkpt>
      <trkpt lat="45.821426" lon="6.019348">
        <ele>455.87640</ele>
        <time>2021-06-30T07:41:29Z</time>
      </trkpt>
      <trkpt lat="45.821289" lon="6.018952">
        <ele>455.52576</ele>
        <time>2021-06-30T07:41:30Z</time>
      </trkpt>
      <trkpt lat="45.821148" lon="6.018543">
        <ele>456.14520</ele>
        <time>2021-06-30T07:41:31Z</time>
      </trkpt>
      <trkpt lat="45.821011" lon="6.018139">
        <ele>456.40228</ele>
        <time>2021-06-30T07:41:32Z</time>
      </trkpt>
      <trkpt lat="45.820869" lon="6.017750">
        <ele>456.62701</ele>
        <time>2021-06-30T07:41:33Z</time>
      </trkpt>
      <trkpt lat="45.820721" lon="6.017337">
        <ele>457.08527</ele>
        <time>2021-06-30T07:41:34Z</time>
      </trkpt>
      <trkpt lat="45.820576" lon="6.016940">
        <ele>456.88507</ele>
        <time>2021-06-30T07:41:35Z</time>
      </trkpt>
      <trkpt lat="45.820431" lon="6.016541">
        <ele>457.25616</ele>
        <time>2021-06-30T07:41:36Z</time>
      </trkpt>
      <trkpt lat="45.820282" lon="6.016131">
        <ele>457.49152</ele>
        <time>2021-06-30T07:41:37Z</time>
      </trkpt>
      <trkpt lat="45.820141" lon="6.015735">
        <ele>457.16022</ele>
        <time>2021-06-30T07:41:38Z</time>
      </trkpt>
      <trkpt lat="45.820007" lon="6.015351">
        <ele>457.51361</ele>
        <time>2021-06-30T07:41:39Z</time>
      </trkpt>
      <trkpt lat="45.819866" lon="6.014952">
        <ele>458.02655</ele>
        <time>2021-06-30T07:41:40Z</time>
      </trkpt>
      <trkpt lat="45.819721" lon="6.014539">
        <ele>458.86481</ele>
        <time>2021-06-30T07:41:41Z</time>
      </trkpt>
      <trkpt lat="45.819588" lon="6.014139">
        <ele>459.01471</ele>
        <time>2021-06-30T07:41:42Z</time>
      </trkpt>
      <trkpt lat="45.819454" lon="6.013741">
        <ele>459.47760</ele>
        <time>2021-06-30T07:41:43Z</time>
      </trkpt>
      <trkpt lat="45.819321" lon="6.013341">
        <ele>460.96002</ele>
        <time>2021-06-30T07:41:44Z</time>
      </trkpt>
      <trkpt lat="45.819180" lon="6.012921">
        <ele>460.40668</ele>
        <time>2021-06-30T07:41:45Z</time>
      </trkpt>
      <trkpt lat="45.819057" lon="6.012530">
        <ele>460.43695</ele>
        <time>2021-06-30T07:41:46Z</time>
      </trkpt>
      <trkpt lat="45.818932" lon="6.012117">
        <ele>460.24506</ele>
        <time>2021-06-30T07:41:47Z</time>
      </trkpt>
      <trkpt lat="45.818810" lon="6.011721">
        <ele>460.33551</ele>
        <time>2021-06-30T07:41:48Z</time>
      </trkpt>
      <trkpt lat="45.818687" lon="6.011323">
        <ele>460.77118</ele>
        <time>2021-06-30T07:41:49Z</time>
      </trkpt>
      <trkpt lat="45.818565" lon="6.010913">
        <ele>461.09015</ele>
        <time>2021-06-30T07:41:50Z</time>
      </trkpt>
      <trkpt lat="45.818439" lon="6.010494">
        <ele>461.37866</ele>
        <time>2021-06-30T07:41:51Z</time>
      </trkpt>
      <trkpt lat="45.818314" lon="6.010084">
        <ele>462.11060</ele>
        <time>2021-06-30T07:41:52Z</time>
      </trkpt>
      <trkpt lat="45.818184" lon="6.009680">
        <ele>462.39124</ele>
        <time>2021-06-30T07:41:53Z</time>
      </trkpt>
      <trkpt lat="45.818050" lon="6.009256">
        <ele>462.90228</ele>
        <time>2021-06-30T07:41:54Z</time>
      </trkpt>
      <trkpt lat="45.817921" lon="6.008853">
        <ele>463.01141</ele>
        <time>2021-06-30T07:41:55Z</time>
      </trkpt>
      <trkpt lat="45.817795" lon="6.008440">
        <ele>463.94312</ele>
        <time>2021-06-30T07:41:56Z</time>
      </trkpt>
      <trkpt lat="45.817665" lon="6.008043">
        <ele>464.32971</ele>
        <time>2021-06-30T07:41:57Z</time>
      </trkpt>
      <trkpt lat="45.817535" lon="6.007652">
        <ele>464.89642</ele>
        <time>2021-06-30T07:41:58Z</time>
      </trkpt>
      <trkpt lat="45.817406" lon="6.007256">
        <ele>464.95679</ele>
        <time>2021-06-30T07:41:59Z</time>
      </trkpt>
      <trkpt lat="45.817280" lon="6.006864">
        <ele>465.21790</ele>
        <time>2021-06-30T07:42:00Z</time>
      </trkpt>
      <trkpt lat="45.817280" lon="6.006864">
        <ele>465.61084</ele>
        <time>2021-06-30T07:42:01Z</time>
      </trkpt>
      <trkpt lat="45.817154" lon="6.006448">
        <ele>466.20667</ele>
        <time>2021-06-30T07:42:02Z</time>
      </trkpt>
      <trkpt lat="45.817024" lon="6.006024">
        <ele>466.72717</ele>
        <time>2021-06-30T07:42:03Z</time>
      </trkpt>
      <trkpt lat="45.816906" lon="6.005628">
        <ele>467.26843</ele>
        <time>2021-06-30T07:42:04Z</time>
      </trkpt>
      <trkpt lat="45.816772" lon="6.005208">
        <ele>467.59961</ele>
        <time>2021-06-30T07:42:05Z</time>
      </trkpt>
      <trkpt lat="45.816650" lon="6.004810">
        <ele>467.79034</ele>
        <time>2021-06-30T07:42:06Z</time>
      </trkpt>
      <trkpt lat="45.816521" lon="6.004394">
        <ele>468.12122</ele>
        <time>2021-06-30T07:42:07Z</time>
      </trkpt>
      <trkpt lat="45.816383" lon="6.003976">
        <ele>468.31458</ele>
        <time>2021-06-30T07:42:08Z</time>
      </trkpt>
      <trkpt lat="45.816250" lon="6.003561">
        <ele>468.77631</ele>
        <time>2021-06-30T07:42:09Z</time>
      </trkpt>
      <trkpt lat="45.816113" lon="6.003157">
        <ele>468.51483</ele>
        <time>2021-06-30T07:42:10Z</time>
      </trkpt>
      <trkpt lat="45.815979" lon="6.002737">
        <ele>468.96204</ele>
        <time>2021-06-30T07:42:11Z</time>
      </trkpt>
      <trkpt lat="45.815853" lon="6.002337">
        <ele>469.53027</ele>
        <time>2021-06-30T07:42:12Z</time>
      </trkpt>
      <trkpt lat="45.815723" lon="6.001927">
        <ele>469.70923</ele>
        <time>2021-06-30T07:42:13Z</time>
      </trkpt>
      <trkpt lat="45.815594" lon="6.001504">
        <ele>469.59265</ele>
        <time>2021-06-30T07:42:14Z</time>
      </trkpt>
      <trkpt lat="45.815460" lon="6.001085">
        <ele>469.92975</ele>
        <time>2021-06-30T07:42:15Z</time>
      </trkpt>
      <trkpt lat="45.815331" lon="6.000671">
        <ele>469.75952</ele>
        <time>2021-06-30T07:42:16Z</time>
      </trkpt>
      <trkpt lat="45.815208" lon="6.000280">
        <ele>469.78821</ele>
        <time>2021-06-30T07:42:17Z</time>
      </trkpt>
      <trkpt lat="45.815086" lon="5.999889">
        <ele>469.59052</ele>
        <time>2021-06-30T07:42:18Z</time>
      </trkpt>
      <trkpt lat="45.814953" lon="5.999462">
        <ele>469.22711</ele>
        <time>2021-06-30T07:42:19Z</time>
      </trkpt>
      <trkpt lat="45.814835" lon="5.999078">
        <ele>469.15613</ele>
        <time>2021-06-30T07:42:20Z</time>
      </trkpt>
      <trkpt lat="45.814705" lon="5.998664">
        <ele>468.36865</ele>
        <time>2021-06-30T07:42:21Z</time>
      </trkpt>
      <trkpt lat="45.814579" lon="5.998261">
        <ele>468.12646</ele>
        <time>2021-06-30T07:42:22Z</time>
      </trkpt>
      <trkpt lat="45.814438" lon="5.997845">
        <ele>467.75180</ele>
        <time>2021-06-30T07:42:23Z</time>
      </trkpt>
      <trkpt lat="45.814308" lon="5.997448">
        <ele>467.47623</ele>
        <time>2021-06-30T07:42:24Z</time>
      </trkpt>
      <trkpt lat="45.814175" lon="5.997021">
        <ele>467.23587</ele>
        <time>2021-06-30T07:42:25Z</time>
      </trkpt>
      <trkpt lat="45.814041" lon="5.996615">
        <ele>467.15805</ele>
        <time>2021-06-30T07:42:26Z</time>
      </trkpt>
      <trkpt lat="45.813904" lon="5.996209">
        <ele>466.88919</ele>
        <time>2021-06-30T07:42:27Z</time>
      </trkpt>
      <trkpt lat="45.813763" lon="5.995799">
        <ele>466.18643</ele>
        <time>2021-06-30T07:42:28Z</time>
      </trkpt>
      <trkpt lat="45.813629" lon="5.995396">
        <ele>465.87656</ele>
        <time>2021-06-30T07:42:29Z</time>
      </trkpt>
      <trkpt lat="45.813499" lon="5.995006">
        <ele>465.36075</ele>
        <time>2021-06-30T07:42:30Z</time>
      </trkpt>
      <trkpt lat="45.813351" lon="5.994597">
        <ele>465.29886</ele>
        <time>2021-06-30T07:42:31Z</time>
      </trkpt>
      <trkpt lat="45.813351" lon="5.994597">
        <ele>464.76028</ele>
        <time>2021-06-30T07:42:32Z</time>
      </trkpt>
      <trkpt lat="45.813206" lon="5.994200">
        <ele>463.99612</ele>
        <time>2021-06-30T07:42:33Z</time>
      </trkpt>
      <trkpt lat="45.813065" lon="5.993809">
        <ele>463.46286</ele>
        <time>2021-06-30T07:42:34Z</time>
      </trkpt>
      <trkpt lat="45.812920" lon="5.993417">
        <ele>462.89560</ele>
        <time>2021-06-30T07:42:35Z</time>
      </trkpt>
      <trkpt lat="45.812763" lon="5.993028">
        <ele>462.13931</ele>
        <time>2021-06-30T07:42:36Z</time>
      </trkpt>
      <trkpt lat="45.812614" lon="5.992649">
        <ele>461.63718</ele>
        <time>2021-06-30T07:42:37Z</time>
      </trkpt>
      <trkpt lat="45.812466" lon="5.992275">
        <ele>461.02017</ele>
        <time>2021-06-30T07:42:38Z</time>
      </trkpt>
      <trkpt lat="45.812305" lon="5.991870">
        <ele>460.72678</ele>
        <time>2021-06-30T07:42:39Z</time>
      </trkpt>
      <trkpt lat="45.812141" lon="5.991492">
        <ele>460.42136</ele>
        <time>2021-06-30T07:42:40Z</time>
      </trkpt>
      <trkpt lat="45.811970" lon="5.991106">
        <ele>459.84702</ele>
        <time>2021-06-30T07:42:41Z</time>
      </trkpt>
      <trkpt lat="45.811794" lon="5.990715">
        <ele>459.42026</ele>
        <time>2021-06-30T07:42:42Z</time>
      </trkpt>
      <trkpt lat="45.811630" lon="5.990345">
        <ele>458.69937</ele>
        <time>2021-06-30T07:42:43Z</time>
      </trkpt>
      <trkpt lat="45.811462" lon="5.989977">
        <ele>457.63120</ele>
        <time>2021-06-30T07:42:44Z</time>
      </trkpt>
      <trkpt lat="45.811283" lon="5.989598">
        <ele>456.20517</ele>
        <time>2021-06-30T07:42:45Z</time>
      </trkpt>
      <trkpt lat="45.811108" lon="5.989236">
        <ele>455.15353</ele>
        <time>2021-06-30T07:42:46Z</time>
      </trkpt>
      <trkpt lat="45.810932" lon="5.988869">
        <ele>453.89169</ele>
        <time>2021-06-30T07:42:47Z</time>
      </trkpt>
      <trkpt lat="45.810745" lon="5.988496">
        <ele>452.99203</ele>
        <time>2021-06-30T07:42:48Z</time>
      </trkpt>
      <trkpt lat="45.810570" lon="5.988135">
        <ele>451.82944</ele>
        <time>2021-06-30T07:42:49Z</time>
      </trkpt>
      <trkpt lat="45.810375" lon="5.987766">
        <ele>450.75204</ele>
        <time>2021-06-30T07:42:50Z</time>
      </trkpt>
      <trkpt lat="45.810173" lon="5.987403">
        <ele>449.98129</ele>
        <time>2021-06-30T07:42:51Z</time>
      </trkpt>
      <trkpt lat="45.809986" lon="5.987073">
        <ele>449.06247</ele>
        <time>2021-06-30T07:42:52Z</time>
      </trkpt>
      <trkpt lat="45.809795" lon="5.986729">
        <ele>448.24802</ele>
        <time>2021-06-30T07:42:53Z</time>
      </trkpt>
      <trkpt lat="45.809597" lon="5.986373">
        <ele>447.47995</ele>
        <time>2021-06-30T07:42:54Z</time>
      </trkpt>
      <trkpt lat="45.809387" lon="5.986018">
        <ele>446.50143</ele>
        <time>2021-06-30T07:42:55Z</time>
      </trkpt>
      <trkpt lat="45.809181" lon="5.985667">
        <ele>445.74094</ele>
        <time>2021-06-30T07:42:56Z</time>
      </trkpt>
      <trkpt lat="45.808983" lon="5.985332">
        <ele>444.59311</ele>
        <time>2021-06-30T07:42:57Z</time>
      </trkpt>
      <trkpt lat="45.808773" lon="5.984991">
        <ele>443.55685</ele>
        <time>2021-06-30T07:42:58Z</time>
      </trkpt>
      <trkpt lat="45.808563" lon="5.984667">
        <ele>442.36411</ele>
        <time>2021-06-30T07:42:59Z</time>
      </trkpt>
      <trkpt lat="45.808342" lon="5.984324">
        <ele>441.34488</ele>
        <time>2021-06-30T07:43:00Z</time>
      </trkpt>
      <trkpt lat="45.808121" lon="5.983997">
        <ele>440.22775</ele>
        <time>2021-06-30T07:43:01Z</time>
      </trkpt>
      <trkpt lat="45.807892" lon="5.983659">
        <ele>438.95956</ele>
        <time>2021-06-30T07:43:02Z</time>
      </trkpt>
      <trkpt lat="45.807686" lon="5.983353">
        <ele>438.16306</ele>
        <time>2021-06-30T07:43:03Z</time>
      </trkpt>
      <trkpt lat="45.807457" lon="5.983028">
        <ele>436.99411</ele>
        <time>2021-06-30T07:43:04Z</time>
      </trkpt>
      <trkpt lat="45.807240" lon="5.982717">
        <ele>435.88681</ele>
        <time>2021-06-30T07:43:05Z</time>
      </trkpt>
      <trkpt lat="45.807014" lon="5.982401">
        <ele>434.85739</ele>
        <time>2021-06-30T07:43:06Z</time>
      </trkpt>
      <trkpt lat="45.807014" lon="5.982401">
        <ele>433.22873</ele>
        <time>2021-06-30T07:43:07Z</time>
      </trkpt>
      <trkpt lat="45.806774" lon="5.982087">
        <ele>432.39279</ele>
        <time>2021-06-30T07:43:08Z</time>
      </trkpt>
      <trkpt lat="45.806534" lon="5.981776">
        <ele>431.11203</ele>
        <time>2021-06-30T07:43:09Z</time>
      </trkpt>
      <trkpt lat="45.806309" lon="5.981482">
        <ele>429.52206</ele>
        <time>2021-06-30T07:43:10Z</time>
      </trkpt>
      <trkpt lat="45.806076" lon="5.981176">
        <ele>428.06808</ele>
        <time>2021-06-30T07:43:11Z</time>
      </trkpt>
      <trkpt lat="45.805840" lon="5.980870">
        <ele>427.33774</ele>
        <time>2021-06-30T07:43:12Z</time>
      </trkpt>
      <trkpt lat="45.805599" lon="5.980582">
        <ele>425.58200</ele>
        <time>2021-06-30T07:43:13Z</time>
      </trkpt>
      <trkpt lat="45.805351" lon="5.980288">
        <ele>424.32730</ele>
        <time>2021-06-30T07:43:14Z</time>
      </trkpt>
      <trkpt lat="45.805115" lon="5.979998">
        <ele>423.42905</ele>
        <time>2021-06-30T07:43:15Z</time>
      </trkpt>
      <trkpt lat="45.804874" lon="5.979701">
        <ele>422.06979</ele>
        <time>2021-06-30T07:43:16Z</time>
      </trkpt>
      <trkpt lat="45.804642" lon="5.979410">
        <ele>421.03561</ele>
        <time>2021-06-30T07:43:17Z</time>
      </trkpt>
      <trkpt lat="45.804401" lon="5.979124">
        <ele>420.09409</ele>
        <time>2021-06-30T07:43:18Z</time>
      </trkpt>
      <trkpt lat="45.804150" lon="5.978838">
        <ele>418.97714</ele>
        <time>2021-06-30T07:43:19Z</time>
      </trkpt>
      <trkpt lat="45.803905" lon="5.978564">
        <ele>417.98898</ele>
        <time>2021-06-30T07:43:20Z</time>
      </trkpt>
      <trkpt lat="45.803665" lon="5.978276">
        <ele>417.39493</ele>
        <time>2021-06-30T07:43:21Z</time>
      </trkpt>
      <trkpt lat="45.803425" lon="5.977989">
        <ele>416.38828</ele>
        <time>2021-06-30T07:43:22Z</time>
      </trkpt>
      <trkpt lat="45.803188" lon="5.977703">
        <ele>415.39230</ele>
        <time>2021-06-30T07:43:23Z</time>
      </trkpt>
      <trkpt lat="45.802948" lon="5.977413">
        <ele>414.58218</ele>
        <time>2021-06-30T07:43:24Z</time>
      </trkpt>
      <trkpt lat="45.802704" lon="5.977150">
        <ele>413.70663</ele>
        <time>2021-06-30T07:43:25Z</time>
      </trkpt>
      <trkpt lat="45.802437" lon="5.976870">
        <ele>412.61032</ele>
        <time>2021-06-30T07:43:26Z</time>
      </trkpt>
      <trkpt lat="45.802189" lon="5.976606">
        <ele>412.05875</ele>
        <time>2021-06-30T07:43:27Z</time>
      </trkpt>
      <trkpt lat="45.801945" lon="5.976347">
        <ele>411.41055</ele>
        <time>2021-06-30T07:43:28Z</time>
      </trkpt>
      <trkpt lat="45.801697" lon="5.976103">
        <ele>410.45139</ele>
        <time>2021-06-30T07:43:29Z</time>
      </trkpt>
      <trkpt lat="45.801426" lon="5.975854">
        <ele>409.83902</ele>
        <time>2021-06-30T07:43:30Z</time>
      </trkpt>
      <trkpt lat="45.801163" lon="5.975621">
        <ele>408.58432</ele>
        <time>2021-06-30T07:43:31Z</time>
      </trkpt>
      <trkpt lat="45.800880" lon="5.975404">
        <ele>407.69101</ele>
        <time>2021-06-30T07:43:32Z</time>
      </trkpt>
      <trkpt lat="45.800598" lon="5.975205">
        <ele>406.94943</ele>
        <time>2021-06-30T07:43:33Z</time>
      </trkpt>
      <trkpt lat="45.800316" lon="5.975014">
        <ele>405.56540</ele>
        <time>2021-06-30T07:43:34Z</time>
      </trkpt>
      <trkpt lat="45.800034" lon="5.974854">
        <ele>404.54221</ele>
        <time>2021-06-30T07:43:35Z</time>
      </trkpt>
      <trkpt lat="45.799744" lon="5.974689">
        <ele>403.08908</ele>
        <time>2021-06-30T07:43:36Z</time>
      </trkpt>
      <trkpt lat="45.799442" lon="5.974518">
        <ele>402.10611</ele>
        <time>2021-06-30T07:43:37Z</time>
      </trkpt>
      <trkpt lat="45.799442" lon="5.974518">
        <ele>401.56851</ele>
        <time>2021-06-30T07:43:38Z</time>
      </trkpt>
      <trkpt lat="45.799156" lon="5.974355">
        <ele>400.98068</ele>
        <time>2021-06-30T07:43:39Z</time>
      </trkpt>
      <trkpt lat="45.798862" lon="5.974193">
        <ele>399.66904</ele>
        <time>2021-06-30T07:43:40Z</time>
      </trkpt>
      <trkpt lat="45.798569" lon="5.974020">
        <ele>397.88290</ele>
        <time>2021-06-30T07:43:41Z</time>
      </trkpt>
      <trkpt lat="45.798283" lon="5.973847">
        <ele>396.54517</ele>
        <time>2021-06-30T07:43:42Z</time>
      </trkpt>
      <trkpt lat="45.798004" lon="5.973661">
        <ele>395.54529</ele>
        <time>2021-06-30T07:43:43Z</time>
      </trkpt>
      <trkpt lat="45.797707" lon="5.973448">
        <ele>392.63379</ele>
        <time>2021-06-30T07:43:44Z</time>
      </trkpt>
      <trkpt lat="45.797421" lon="5.973230">
        <ele>391.57965</ele>
        <time>2021-06-30T07:43:45Z</time>
      </trkpt>
      <trkpt lat="45.797153" lon="5.973010">
        <ele>390.18079</ele>
        <time>2021-06-30T07:43:46Z</time>
      </trkpt>
      <trkpt lat="45.796890" lon="5.972795">
        <ele>388.92273</ele>
        <time>2021-06-30T07:43:47Z</time>
      </trkpt>
      <trkpt lat="45.796616" lon="5.972572">
        <ele>388.27344</ele>
        <time>2021-06-30T07:43:48Z</time>
      </trkpt>
      <trkpt lat="45.796333" lon="5.972340">
        <ele>386.23535</ele>
        <time>2021-06-30T07:43:49Z</time>
      </trkpt>
      <trkpt lat="45.796055" lon="5.972113">
        <ele>383.98083</ele>
        <time>2021-06-30T07:43:50Z</time>
      </trkpt>
      <trkpt lat="45.795784" lon="5.971897">
        <ele>381.54901</ele>
        <time>2021-06-30T07:43:51Z</time>
      </trkpt>
      <trkpt lat="45.795506" lon="5.971674">
        <ele>379.29303</ele>
        <time>2021-06-30T07:43:52Z</time>
      </trkpt>
      <trkpt lat="45.795238" lon="5.971458">
        <ele>378.03943</ele>
        <time>2021-06-30T07:43:53Z</time>
      </trkpt>
      <trkpt lat="45.794964" lon="5.971237">
        <ele>377.09009</ele>
        <time>2021-06-30T07:43:54Z</time>
      </trkpt>
      <trkpt lat="45.794678" lon="5.971020">
        <ele>376.30237</ele>
        <time>2021-06-30T07:43:55Z</time>
      </trkpt>
      <trkpt lat="45.794403" lon="5.970815">
        <ele>374.68298</ele>
        <time>2021-06-30T07:43:56Z</time>
      </trkpt>
      <trkpt lat="45.794125" lon="5.970605">
        <ele>373.60242</ele>
        <time>2021-06-30T07:43:57Z</time>
      </trkpt>
      <trkpt lat="45.793842" lon="5.970399">
        <ele>372.66650</ele>
        <time>2021-06-30T07:43:58Z</time>
      </trkpt>
      <trkpt lat="45.793571" lon="5.970211">
        <ele>372.22913</ele>
        <time>2021-06-30T07:43:59Z</time>
      </trkpt>
      <trkpt lat="45.793270" lon="5.970005">
        <ele>371.65527</ele>
        <time>2021-06-30T07:44:00Z</time>
      </trkpt>
      <trkpt lat="45.792988" lon="5.969816">
        <ele>370.87457</ele>
        <time>2021-06-30T07:44:01Z</time>
      </trkpt>
      <trkpt lat="45.792713" lon="5.969638">
        <ele>370.11914</ele>
        <time>2021-06-30T07:44:02Z</time>
      </trkpt>
      <trkpt lat="45.792435" lon="5.969455">
        <ele>369.25031</ele>
        <time>2021-06-30T07:44:03Z</time>
      </trkpt>
      <trkpt lat="45.792152" lon="5.969275">
        <ele>368.61133</ele>
        <time>2021-06-30T07:44:04Z</time>
      </trkpt>
      <trkpt lat="45.791882" lon="5.969106">
        <ele>367.83264</ele>
        <time>2021-06-30T07:44:05Z</time>
      </trkpt>
      <trkpt lat="45.791599" lon="5.968930">
        <ele>367.16211</ele>
        <time>2021-06-30T07:44:06Z</time>
      </trkpt>
      <trkpt lat="45.791309" lon="5.968751">
        <ele>365.62384</ele>
        <time>2021-06-30T07:44:07Z</time>
      </trkpt>
      <trkpt lat="45.791019" lon="5.968570">
        <ele>364.68335</ele>
        <time>2021-06-30T07:44:08Z</time>
      </trkpt>
      <trkpt lat="45.790737" lon="5.968396">
        <ele>363.85083</ele>
        <time>2021-06-30T07:44:09Z</time>
      </trkpt>
      <trkpt lat="45.790466" lon="5.968226">
        <ele>362.86047</ele>
        <time>2021-06-30T07:44:10Z</time>
      </trkpt>
      <trkpt lat="45.790184" lon="5.968051">
        <ele>362.08350</ele>
        <time>2021-06-30T07:44:11Z</time>
      </trkpt>
      <trkpt lat="45.789909" lon="5.967880">
        <ele>361.71814</ele>
        <time>2021-06-30T07:44:12Z</time>
      </trkpt>
      <trkpt lat="45.789909" lon="5.967880">
        <ele>361.06519</ele>
        <time>2021-06-30T07:44:13Z</time>
      </trkpt>
      <trkpt lat="45.789612" lon="5.967697">
        <ele>360.48303</ele>
        <time>2021-06-30T07:44:14Z</time>
      </trkpt>
      <trkpt lat="45.789326" lon="5.967519">
        <ele>358.46204</ele>
        <time>2021-06-30T07:44:15Z</time>
      </trkpt>
      <trkpt lat="45.789032" lon="5.967338">
        <ele>357.81134</ele>
        <time>2021-06-30T07:44:16Z</time>
      </trkpt>
      <trkpt lat="45.788742" lon="5.967159">
        <ele>357.22791</ele>
        <time>2021-06-30T07:44:17Z</time>
      </trkpt>
      <trkpt lat="45.788452" lon="5.966982">
        <ele>356.77649</ele>
        <time>2021-06-30T07:44:18Z</time>
      </trkpt>
      <trkpt lat="45.788158" lon="5.966795">
        <ele>356.50867</ele>
        <time>2021-06-30T07:44:19Z</time>
      </trkpt>
      <trkpt lat="45.787876" lon="5.966611">
        <ele>355.78540</ele>
        <time>2021-06-30T07:44:20Z</time>
      </trkpt>
      <trkpt lat="45.787594" lon="5.966429">
        <ele>355.19141</ele>
        <time>2021-06-30T07:44:21Z</time>
      </trkpt>
      <trkpt lat="45.787296" lon="5.966241">
        <ele>354.56311</ele>
        <time>2021-06-30T07:44:22Z</time>
      </trkpt>
      <trkpt lat="45.787006" lon="5.966057">
        <ele>353.86914</ele>
        <time>2021-06-30T07:44:23Z</time>
      </trkpt>
      <trkpt lat="45.786732" lon="5.965886">
        <ele>353.77954</ele>
        <time>2021-06-30T07:44:24Z</time>
      </trkpt>
      <trkpt lat="45.786449" lon="5.965714">
        <ele>353.96130</ele>
        <time>2021-06-30T07:44:25Z</time>
      </trkpt>
      <trkpt lat="45.786156" lon="5.965534">
        <ele>353.80005</ele>
        <time>2021-06-30T07:44:26Z</time>
      </trkpt>
      <trkpt lat="45.785873" lon="5.965362">
        <ele>353.87207</ele>
        <time>2021-06-30T07:44:27Z</time>
      </trkpt>
      <trkpt lat="45.785576" lon="5.965181">
        <ele>353.51611</ele>
        <time>2021-06-30T07:44:28Z</time>
      </trkpt>
      <trkpt lat="45.785294" lon="5.965009">
        <ele>353.30090</ele>
        <time>2021-06-30T07:44:29Z</time>
      </trkpt>
      <trkpt lat="45.784992" lon="5.964831">
        <ele>353.76544</ele>
        <time>2021-06-30T07:44:30Z</time>
      </trkpt>
      <trkpt lat="45.784706" lon="5.964667">
        <ele>353.73663</ele>
        <time>2021-06-30T07:44:31Z</time>
      </trkpt>
      <trkpt lat="45.784412" lon="5.964496">
        <ele>353.30273</ele>
        <time>2021-06-30T07:44:32Z</time>
      </trkpt>
      <trkpt lat="45.784126" lon="5.964332">
        <ele>353.55457</ele>
        <time>2021-06-30T07:44:33Z</time>
      </trkpt>
      <trkpt lat="45.783829" lon="5.964162">
        <ele>353.82910</ele>
        <time>2021-06-30T07:44:34Z</time>
      </trkpt>
      <trkpt lat="45.783543" lon="5.963997">
        <ele>353.56537</ele>
        <time>2021-06-30T07:44:35Z</time>
      </trkpt>
      <trkpt lat="45.783253" lon="5.963830">
        <ele>353.34778</ele>
        <time>2021-06-30T07:44:36Z</time>
      </trkpt>
      <trkpt lat="45.782959" lon="5.963663">
        <ele>353.45544</ele>
        <time>2021-06-30T07:44:37Z</time>
      </trkpt>
      <trkpt lat="45.782688" lon="5.963518">
        <ele>353.33899</ele>
        <time>2021-06-30T07:44:38Z</time>
      </trkpt>
      <trkpt lat="45.782398" lon="5.963362">
        <ele>353.82703</ele>
        <time>2021-06-30T07:44:39Z</time>
      </trkpt>
      <trkpt lat="45.782108" lon="5.963209">
        <ele>353.91248</ele>
        <time>2021-06-30T07:44:40Z</time>
      </trkpt>
      <trkpt lat="45.781807" lon="5.963051">
        <ele>354.21069</ele>
        <time>2021-06-30T07:44:41Z</time>
      </trkpt>
      <trkpt lat="45.781807" lon="5.963051">
        <ele>354.35309</ele>
        <time>2021-06-30T07:44:42Z</time>
      </trkpt>
      <trkpt lat="45.781517" lon="5.962898">
        <ele>354.31799</ele>
        <time>2021-06-30T07:44:43Z</time>
      </trkpt>
      <trkpt lat="45.781219" lon="5.962744">
        <ele>354.08496</ele>
        <time>2021-06-30T07:44:44Z</time>
      </trkpt>
      <trkpt lat="45.780926" lon="5.962589">
        <ele>353.57147</ele>
        <time>2021-06-30T07:44:45Z</time>
      </trkpt>
      <trkpt lat="45.780632" lon="5.962446">
        <ele>353.40302</ele>
        <time>2021-06-30T07:44:46Z</time>
      </trkpt>
      <trkpt lat="45.780338" lon="5.962305">
        <ele>353.02435</ele>
        <time>2021-06-30T07:44:47Z</time>
      </trkpt>
      <trkpt lat="45.780052" lon="5.962167">
        <ele>353.08777</ele>
        <time>2021-06-30T07:44:48Z</time>
      </trkpt>
      <trkpt lat="45.779751" lon="5.962021">
        <ele>353.39172</ele>
        <time>2021-06-30T07:44:49Z</time>
      </trkpt>
      <trkpt lat="45.779449" lon="5.961877">
        <ele>353.61066</ele>
        <time>2021-06-30T07:44:50Z</time>
      </trkpt>
      <trkpt lat="45.779144" lon="5.961742">
        <ele>353.41565</ele>
        <time>2021-06-30T07:44:51Z</time>
      </trkpt>
      <trkpt lat="45.778843" lon="5.961610">
        <ele>353.31555</ele>
        <time>2021-06-30T07:44:52Z</time>
      </trkpt>
      <trkpt lat="45.778538" lon="5.961477">
        <ele>354.06433</ele>
        <time>2021-06-30T07:44:53Z</time>
      </trkpt>
      <trkpt lat="45.778244" lon="5.961348">
        <ele>354.17615</ele>
        <time>2021-06-30T07:44:54Z</time>
      </trkpt>
      <trkpt lat="45.777950" lon="5.961219">
        <ele>353.73132</ele>
        <time>2021-06-30T07:44:55Z</time>
      </trkpt>
      <trkpt lat="45.777637" lon="5.961100">
        <ele>353.49432</ele>
        <time>2021-06-30T07:44:56Z</time>
      </trkpt>
      <trkpt lat="45.777336" lon="5.960984">
        <ele>353.64136</ele>
        <time>2021-06-30T07:44:57Z</time>
      </trkpt>
      <trkpt lat="45.777046" lon="5.960873">
        <ele>353.56689</ele>
        <time>2021-06-30T07:44:58Z</time>
      </trkpt>
      <trkpt lat="45.776737" lon="5.960754">
        <ele>352.98505</ele>
        <time>2021-06-30T07:44:59Z</time>
      </trkpt>
      <trkpt lat="45.776436" lon="5.960646">
        <ele>352.83606</ele>
        <time>2021-06-30T07:45:00Z</time>
      </trkpt>
      <trkpt lat="45.776134" lon="5.960544">
        <ele>352.50879</ele>
        <time>2021-06-30T07:45:01Z</time>
      </trkpt>
      <trkpt lat="45.775833" lon="5.960441">
        <ele>352.58228</ele>
        <time>2021-06-30T07:45:02Z</time>
      </trkpt>
      <trkpt lat="45.775528" lon="5.960337">
        <ele>352.84973</ele>
        <time>2021-06-30T07:45:03Z</time>
      </trkpt>
      <trkpt lat="45.775208" lon="5.960231">
        <ele>352.72278</ele>
        <time>2021-06-30T07:45:04Z</time>
      </trkpt>
      <trkpt lat="45.774906" lon="5.960138">
        <ele>352.30481</ele>
        <time>2021-06-30T07:45:05Z</time>
      </trkpt>
      <trkpt lat="45.774609" lon="5.960046">
        <ele>352.83777</ele>
        <time>2021-06-30T07:45:06Z</time>
      </trkpt>
      <trkpt lat="45.774307" lon="5.959952">
        <ele>352.79260</ele>
        <time>2021-06-30T07:45:07Z</time>
      </trkpt>
      <trkpt lat="45.773994" lon="5.959855">
        <ele>352.73901</ele>
        <time>2021-06-30T07:45:08Z</time>
      </trkpt>
      <trkpt lat="45.773689" lon="5.959761">
        <ele>353.16223</ele>
        <time>2021-06-30T07:45:09Z</time>
      </trkpt>
      <trkpt lat="45.773388" lon="5.959667">
        <ele>351.78943</ele>
        <time>2021-06-30T07:45:10Z</time>
      </trkpt>
      <trkpt lat="45.773090" lon="5.959575">
        <ele>351.57190</ele>
        <time>2021-06-30T07:45:11Z</time>
      </trkpt>
      <trkpt lat="45.772766" lon="5.959475">
        <ele>351.48969</ele>
        <time>2021-06-30T07:45:12Z</time>
      </trkpt>
      <trkpt lat="45.772457" lon="5.959388">
        <ele>351.61517</ele>
        <time>2021-06-30T07:45:13Z</time>
      </trkpt>
      <trkpt lat="45.772148" lon="5.959300">
        <ele>351.17236</ele>
        <time>2021-06-30T07:45:14Z</time>
      </trkpt>
      <trkpt lat="45.771832" lon="5.959210">
        <ele>351.18994</ele>
        <time>2021-06-30T07:45:15Z</time>
      </trkpt>
      <trkpt lat="45.771526" lon="5.959124">
        <ele>350.57825</ele>
        <time>2021-06-30T07:45:16Z</time>
      </trkpt>
      <trkpt lat="45.771526" lon="5.959124">
        <ele>351.15234</ele>
        <time>2021-06-30T07:45:17Z</time>
      </trkpt>
      <trkpt lat="45.771214" lon="5.959037">
        <ele>350.21429</ele>
        <time>2021-06-30T07:45:18Z</time>
      </trkpt>
      <trkpt lat="45.770905" lon="5.958949">
        <ele>350.30548</ele>
        <time>2021-06-30T07:45:19Z</time>
      </trkpt>
      <trkpt lat="45.770596" lon="5.958862">
        <ele>349.97632</ele>
        <time>2021-06-30T07:45:20Z</time>
      </trkpt>
      <trkpt lat="45.770290" lon="5.958776">
        <ele>349.65320</ele>
        <time>2021-06-30T07:45:21Z</time>
      </trkpt>
      <trkpt lat="45.769981" lon="5.958686">
        <ele>349.01306</ele>
        <time>2021-06-30T07:45:22Z</time>
      </trkpt>
      <trkpt lat="45.769665" lon="5.958583">
        <ele>348.37103</ele>
        <time>2021-06-30T07:45:23Z</time>
      </trkpt>
      <trkpt lat="45.769348" lon="5.958481">
        <ele>348.13403</ele>
        <time>2021-06-30T07:45:24Z</time>
      </trkpt>
      <trkpt lat="45.769051" lon="5.958385">
        <ele>347.84918</ele>
        <time>2021-06-30T07:45:25Z</time>
      </trkpt>
      <trkpt lat="45.768745" lon="5.958285">
        <ele>347.74109</ele>
        <time>2021-06-30T07:45:26Z</time>
      </trkpt>
      <trkpt lat="45.768436" lon="5.958174">
        <ele>347.91144</ele>
        <time>2021-06-30T07:45:27Z</time>
      </trkpt>
      <trkpt lat="45.768127" lon="5.958062">
        <ele>347.58521</ele>
        <time>2021-06-30T07:45:28Z</time>
      </trkpt>
      <trkpt lat="45.767811" lon="5.957945">
        <ele>347.42786</ele>
        <time>2021-06-30T07:45:29Z</time>
      </trkpt>
      <trkpt lat="45.767502" lon="5.957816">
        <ele>346.80017</ele>
        <time>2021-06-30T07:45:30Z</time>
      </trkpt>
      <trkpt lat="45.767197" lon="5.957692">
        <ele>346.68469</ele>
        <time>2021-06-30T07:45:31Z</time>
      </trkpt>
      <trkpt lat="45.766899" lon="5.957551">
        <ele>346.50183</ele>
        <time>2021-06-30T07:45:32Z</time>
      </trkpt>
      <trkpt lat="45.766567" lon="5.957390">
        <ele>346.22168</ele>
        <time>2021-06-30T07:45:33Z</time>
      </trkpt>
      <trkpt lat="45.766293" lon="5.957254">
        <ele>346.15979</ele>
        <time>2021-06-30T07:45:34Z</time>
      </trkpt>
      <trkpt lat="45.765999" lon="5.957098">
        <ele>345.76715</ele>
        <time>2021-06-30T07:45:35Z</time>
      </trkpt>
      <trkpt lat="45.765705" lon="5.956941">
        <ele>345.98828</ele>
        <time>2021-06-30T07:45:36Z</time>
      </trkpt>
      <trkpt lat="45.765415" lon="5.956787">
        <ele>345.88000</ele>
        <time>2021-06-30T07:45:37Z</time>
      </trkpt>
      <trkpt lat="45.765114" lon="5.956611">
        <ele>345.33069</ele>
        <time>2021-06-30T07:45:38Z</time>
      </trkpt>
      <trkpt lat="45.764835" lon="5.956445">
        <ele>344.64380</ele>
        <time>2021-06-30T07:45:39Z</time>
      </trkpt>
      <trkpt lat="45.764530" lon="5.956263">
        <ele>344.10535</ele>
        <time>2021-06-30T07:45:40Z</time>
      </trkpt>
      <trkpt lat="45.764263" lon="5.956082">
        <ele>343.88959</ele>
        <time>2021-06-30T07:45:41Z</time>
      </trkpt>
      <trkpt lat="45.763981" lon="5.955893">
        <ele>343.59155</ele>
        <time>2021-06-30T07:45:42Z</time>
      </trkpt>
      <trkpt lat="45.763699" lon="5.955706">
        <ele>342.98840</ele>
        <time>2021-06-30T07:45:43Z</time>
      </trkpt>
      <trkpt lat="45.763397" lon="5.955506">
        <ele>341.96521</ele>
        <time>2021-06-30T07:45:44Z</time>
      </trkpt>
      <trkpt lat="45.763119" lon="5.955299">
        <ele>341.75867</ele>
        <time>2021-06-30T07:45:45Z</time>
      </trkpt>
      <trkpt lat="45.763119" lon="5.955299">
        <ele>341.82379</ele>
        <time>2021-06-30T07:45:46Z</time>
      </trkpt>
      <trkpt lat="45.762833" lon="5.955087">
        <ele>341.47992</ele>
        <time>2021-06-30T07:45:47Z</time>
      </trkpt>
      <trkpt lat="45.762558" lon="5.954871">
        <ele>340.98572</ele>
        <time>2021-06-30T07:45:48Z</time>
      </trkpt>
      <trkpt lat="45.762268" lon="5.954635">
        <ele>340.84375</ele>
        <time>2021-06-30T07:45:49Z</time>
      </trkpt>
      <trkpt lat="45.762001" lon="5.954411">
        <ele>340.69275</ele>
        <time>2021-06-30T07:45:50Z</time>
      </trkpt>
      <trkpt lat="45.761742" lon="5.954178">
        <ele>340.57587</ele>
        <time>2021-06-30T07:45:51Z</time>
      </trkpt>
      <trkpt lat="45.761478" lon="5.953942">
        <ele>340.52039</ele>
        <time>2021-06-30T07:45:52Z</time>
      </trkpt>
      <trkpt lat="45.761215" lon="5.953696">
        <ele>339.92786</ele>
        <time>2021-06-30T07:45:53Z</time>
      </trkpt>
      <trkpt lat="45.760960" lon="5.953452">
        <ele>339.89978</ele>
        <time>2021-06-30T07:45:54Z</time>
      </trkpt>
      <trkpt lat="45.760700" lon="5.953195">
        <ele>339.73254</ele>
        <time>2021-06-30T07:45:55Z</time>
      </trkpt>
      <trkpt lat="45.760441" lon="5.952928">
        <ele>339.74854</ele>
        <time>2021-06-30T07:45:56Z</time>
      </trkpt>
      <trkpt lat="45.760174" lon="5.952651">
        <ele>339.35107</ele>
        <time>2021-06-30T07:45:57Z</time>
      </trkpt>
      <trkpt lat="45.759922" lon="5.952391">
        <ele>339.22034</ele>
        <time>2021-06-30T07:45:58Z</time>
      </trkpt>
      <trkpt lat="45.759663" lon="5.952112">
        <ele>339.25574</ele>
        <time>2021-06-30T07:45:59Z</time>
      </trkpt>
      <trkpt lat="45.759411" lon="5.951829">
        <ele>338.26660</ele>
        <time>2021-06-30T07:46:00Z</time>
      </trkpt>
      <trkpt lat="45.759182" lon="5.951558">
        <ele>337.84589</ele>
        <time>2021-06-30T07:46:01Z</time>
      </trkpt>
      <trkpt lat="45.758945" lon="5.951279">
        <ele>337.67719</ele>
        <time>2021-06-30T07:46:02Z</time>
      </trkpt>
      <trkpt lat="45.758698" lon="5.950976">
        <ele>337.57239</ele>
        <time>2021-06-30T07:46:03Z</time>
      </trkpt>
      <trkpt lat="45.758469" lon="5.950680">
        <ele>336.94165</ele>
        <time>2021-06-30T07:46:04Z</time>
      </trkpt>
      <trkpt lat="45.758228" lon="5.950373">
        <ele>336.50220</ele>
        <time>2021-06-30T07:46:05Z</time>
      </trkpt>
      <trkpt lat="45.758007" lon="5.950072">
        <ele>336.25604</ele>
        <time>2021-06-30T07:46:06Z</time>
      </trkpt>
      <trkpt lat="45.757786" lon="5.949759">
        <ele>336.30176</ele>
        <time>2021-06-30T07:46:07Z</time>
      </trkpt>
      <trkpt lat="45.757565" lon="5.949450">
        <ele>336.29901</ele>
        <time>2021-06-30T07:46:08Z</time>
      </trkpt>
      <trkpt lat="45.757336" lon="5.949130">
        <ele>336.12891</ele>
        <time>2021-06-30T07:46:09Z</time>
      </trkpt>
      <trkpt lat="45.757122" lon="5.948813">
        <ele>336.11792</ele>
        <time>2021-06-30T07:46:10Z</time>
      </trkpt>
      <trkpt lat="45.756912" lon="5.948497">
        <ele>336.58966</ele>
        <time>2021-06-30T07:46:11Z</time>
      </trkpt>
      <trkpt lat="45.756706" lon="5.948181">
        <ele>336.49805</ele>
        <time>2021-06-30T07:46:12Z</time>
      </trkpt>
      <trkpt lat="45.756500" lon="5.947854">
        <ele>336.66357</ele>
        <time>2021-06-30T07:46:13Z</time>
      </trkpt>
      <trkpt lat="45.756290" lon="5.947523">
        <ele>336.69971</ele>
        <time>2021-06-30T07:46:14Z</time>
      </trkpt>
      <trkpt lat="45.756077" lon="5.947187">
        <ele>336.11554</ele>
        <time>2021-06-30T07:46:15Z</time>
      </trkpt>
      <trkpt lat="45.755875" lon="5.946863">
        <ele>335.98602</ele>
        <time>2021-06-30T07:46:16Z</time>
      </trkpt>
      <trkpt lat="45.755665" lon="5.946534">
        <ele>336.12732</ele>
        <time>2021-06-30T07:46:17Z</time>
      </trkpt>
      <trkpt lat="45.755466" lon="5.946216">
        <ele>336.36023</ele>
        <time>2021-06-30T07:46:18Z</time>
      </trkpt>
      <trkpt lat="45.755253" lon="5.945876">
        <ele>335.79895</ele>
        <time>2021-06-30T07:46:19Z</time>
      </trkpt>
      <trkpt lat="45.755039" lon="5.945542">
        <ele>336.00745</ele>
        <time>2021-06-30T07:46:20Z</time>
      </trkpt>
      <trkpt lat="45.754833" lon="5.945217">
        <ele>336.65527</ele>
        <time>2021-06-30T07:46:21Z</time>
      </trkpt>
      <trkpt lat="45.754833" lon="5.945217">
        <ele>337.28052</ele>
        <time>2021-06-30T07:46:22Z</time>
      </trkpt>
      <trkpt lat="45.754616" lon="5.944888">
        <ele>336.86102</ele>
        <time>2021-06-30T07:46:23Z</time>
      </trkpt>
      <trkpt lat="45.754391" lon="5.944549">
        <ele>337.86029</ele>
        <time>2021-06-30T07:46:24Z</time>
      </trkpt>
      <trkpt lat="45.754166" lon="5.944232">
        <ele>337.72217</ele>
        <time>2021-06-30T07:46:25Z</time>
      </trkpt>
      <trkpt lat="45.753948" lon="5.943929">
        <ele>338.12109</ele>
        <time>2021-06-30T07:46:26Z</time>
      </trkpt>
      <trkpt lat="45.753723" lon="5.943615">
        <ele>338.19714</ele>
        <time>2021-06-30T07:46:27Z</time>
      </trkpt>
      <trkpt lat="45.753506" lon="5.943307">
        <ele>338.48364</ele>
        <time>2021-06-30T07:46:28Z</time>
      </trkpt>
      <trkpt lat="45.753277" lon="5.942998">
        <ele>338.71423</ele>
        <time>2021-06-30T07:46:29Z</time>
      </trkpt>
      <trkpt lat="45.753040" lon="5.942708">
        <ele>338.77844</ele>
        <time>2021-06-30T07:46:30Z</time>
      </trkpt>
      <trkpt lat="45.752804" lon="5.942422">
        <ele>338.87042</ele>
        <time>2021-06-30T07:46:31Z</time>
      </trkpt>
      <trkpt lat="45.752579" lon="5.942134">
        <ele>338.87823</ele>
        <time>2021-06-30T07:46:32Z</time>
      </trkpt>
      <trkpt lat="45.752338" lon="5.941821">
        <ele>339.13123</ele>
        <time>2021-06-30T07:46:33Z</time>
      </trkpt>
      <trkpt lat="45.752110" lon="5.941528">
        <ele>339.30640</ele>
        <time>2021-06-30T07:46:34Z</time>
      </trkpt>
      <trkpt lat="45.751869" lon="5.941219">
        <ele>339.05829</ele>
        <time>2021-06-30T07:46:35Z</time>
      </trkpt>
      <trkpt lat="45.751637" lon="5.940917">
        <ele>339.55219</ele>
        <time>2021-06-30T07:46:36Z</time>
      </trkpt>
      <trkpt lat="45.751411" lon="5.940613">
        <ele>339.61743</ele>
        <time>2021-06-30T07:46:37Z</time>
      </trkpt>
      <trkpt lat="45.751190" lon="5.940297">
        <ele>339.72046</ele>
        <time>2021-06-30T07:46:38Z</time>
      </trkpt>
      <trkpt lat="45.750961" lon="5.939966">
        <ele>339.90533</ele>
        <time>2021-06-30T07:46:39Z</time>
      </trkpt>
      <trkpt lat="45.750751" lon="5.939629">
        <ele>340.31396</ele>
        <time>2021-06-30T07:46:40Z</time>
      </trkpt>
      <trkpt lat="45.750553" lon="5.939296">
        <ele>340.21387</ele>
        <time>2021-06-30T07:46:41Z</time>
      </trkpt>
      <trkpt lat="45.750362" lon="5.938948">
        <ele>340.74432</ele>
        <time>2021-06-30T07:46:42Z</time>
      </trkpt>
      <trkpt lat="45.750156" lon="5.938577">
        <ele>341.14099</ele>
        <time>2021-06-30T07:46:43Z</time>
      </trkpt>
      <trkpt lat="45.749973" lon="5.938228">
        <ele>341.17365</ele>
        <time>2021-06-30T07:46:44Z</time>
      </trkpt>
      <trkpt lat="45.749790" lon="5.937851">
        <ele>341.20776</ele>
        <time>2021-06-30T07:46:45Z</time>
      </trkpt>
      <trkpt lat="45.749615" lon="5.937480">
        <ele>341.24219</ele>
        <time>2021-06-30T07:46:46Z</time>
      </trkpt>
      <trkpt lat="45.749447" lon="5.937128">
        <ele>341.41205</ele>
        <time>2021-06-30T07:46:47Z</time>
      </trkpt>
      <trkpt lat="45.749279" lon="5.936773">
        <ele>341.74988</ele>
        <time>2021-06-30T07:46:48Z</time>
      </trkpt>
      <trkpt lat="45.749107" lon="5.936364">
        <ele>341.46826</ele>
        <time>2021-06-30T07:46:49Z</time>
      </trkpt>
      <trkpt lat="45.748951" lon="5.935978">
        <ele>341.19385</ele>
        <time>2021-06-30T07:46:50Z</time>
      </trkpt>
      <trkpt lat="45.748795" lon="5.935590">
        <ele>341.23273</ele>
        <time>2021-06-30T07:46:51Z</time>
      </trkpt>
      <trkpt lat="45.748631" lon="5.935188">
        <ele>340.72144</ele>
        <time>2021-06-30T07:46:52Z</time>
      </trkpt>
      <trkpt lat="45.748474" lon="5.934805">
        <ele>339.95691</ele>
        <time>2021-06-30T07:46:53Z</time>
      </trkpt>
      <trkpt lat="45.748314" lon="5.934421">
        <ele>339.61243</ele>
        <time>2021-06-30T07:46:54Z</time>
      </trkpt>
      <trkpt lat="45.748154" lon="5.934052">
        <ele>339.14874</ele>
        <time>2021-06-30T07:46:55Z</time>
      </trkpt>
      <trkpt lat="45.747990" lon="5.933667">
        <ele>338.34564</ele>
        <time>2021-06-30T07:46:56Z</time>
      </trkpt>
      <trkpt lat="45.747826" lon="5.933300">
        <ele>337.80640</ele>
        <time>2021-06-30T07:46:57Z</time>
      </trkpt>
      <trkpt lat="45.747826" lon="5.933300">
        <ele>337.17603</ele>
        <time>2021-06-30T07:46:58Z</time>
      </trkpt>
      <trkpt lat="45.747646" lon="5.932926">
        <ele>336.28516</ele>
        <time>2021-06-30T07:46:59Z</time>
      </trkpt>
      <trkpt lat="45.747471" lon="5.932559">
        <ele>335.25452</ele>
        <time>2021-06-30T07:47:00Z</time>
      </trkpt>
      <trkpt lat="45.747295" lon="5.932184">
        <ele>334.54242</ele>
        <time>2021-06-30T07:47:01Z</time>
      </trkpt>
      <trkpt lat="45.747108" lon="5.931825">
        <ele>333.57629</ele>
        <time>2021-06-30T07:47:02Z</time>
      </trkpt>
      <trkpt lat="45.746902" lon="5.931467">
        <ele>332.63257</ele>
        <time>2021-06-30T07:47:03Z</time>
      </trkpt>
      <trkpt lat="45.746708" lon="5.931129">
        <ele>332.16254</ele>
        <time>2021-06-30T07:47:04Z</time>
      </trkpt>
      <trkpt lat="45.746502" lon="5.930800">
        <ele>331.60303</ele>
        <time>2021-06-30T07:47:05Z</time>
      </trkpt>
      <trkpt lat="45.746288" lon="5.930458">
        <ele>330.71021</ele>
        <time>2021-06-30T07:47:06Z</time>
      </trkpt>
      <trkpt lat="45.746078" lon="5.930156">
        <ele>329.76721</ele>
        <time>2021-06-30T07:47:07Z</time>
      </trkpt>
      <trkpt lat="45.745869" lon="5.929855">
        <ele>329.89343</ele>
        <time>2021-06-30T07:47:08Z</time>
      </trkpt>
      <trkpt lat="45.745636" lon="5.929543">
        <ele>329.39880</ele>
        <time>2021-06-30T07:47:09Z</time>
      </trkpt>
      <trkpt lat="45.745411" lon="5.929264">
        <ele>328.91119</ele>
        <time>2021-06-30T07:47:10Z</time>
      </trkpt>
      <trkpt lat="45.745171" lon="5.928970">
        <ele>328.66101</ele>
        <time>2021-06-30T07:47:11Z</time>
      </trkpt>
      <trkpt lat="45.744938" lon="5.928686">
        <ele>327.89929</ele>
        <time>2021-06-30T07:47:12Z</time>
      </trkpt>
      <trkpt lat="45.744682" lon="5.928410">
        <ele>327.48181</ele>
        <time>2021-06-30T07:47:13Z</time>
      </trkpt>
      <trkpt lat="45.744438" lon="5.928144">
        <ele>327.86993</ele>
        <time>2021-06-30T07:47:14Z</time>
      </trkpt>
      <trkpt lat="45.744190" lon="5.927884">
        <ele>327.79602</ele>
        <time>2021-06-30T07:47:15Z</time>
      </trkpt>
      <trkpt lat="45.743935" lon="5.927626">
        <ele>327.50476</ele>
        <time>2021-06-30T07:47:16Z</time>
      </trkpt>
      <trkpt lat="45.743675" lon="5.927393">
        <ele>327.53564</ele>
        <time>2021-06-30T07:47:17Z</time>
      </trkpt>
      <trkpt lat="45.743408" lon="5.927147">
        <ele>327.22266</ele>
        <time>2021-06-30T07:47:18Z</time>
      </trkpt>
      <trkpt lat="45.743134" lon="5.926913">
        <ele>327.45258</ele>
        <time>2021-06-30T07:47:19Z</time>
      </trkpt>
      <trkpt lat="45.742867" lon="5.926711">
        <ele>327.39282</ele>
        <time>2021-06-30T07:47:20Z</time>
      </trkpt>
      <trkpt lat="45.742580" lon="5.926494">
        <ele>327.30811</ele>
        <time>2021-06-30T07:47:21Z</time>
      </trkpt>
      <trkpt lat="45.742306" lon="5.926286">
        <ele>327.55591</ele>
        <time>2021-06-30T07:47:22Z</time>
      </trkpt>
      <trkpt lat="45.742023" lon="5.926100">
        <ele>327.55011</ele>
        <time>2021-06-30T07:47:23Z</time>
      </trkpt>
      <trkpt lat="45.741737" lon="5.925921">
        <ele>328.00134</ele>
        <time>2021-06-30T07:47:24Z</time>
      </trkpt>
      <trkpt lat="45.741455" lon="5.925749">
        <ele>328.26416</ele>
        <time>2021-06-30T07:47:25Z</time>
      </trkpt>
      <trkpt lat="45.741158" lon="5.925585">
        <ele>328.56836</ele>
        <time>2021-06-30T07:47:26Z</time>
      </trkpt>
      <trkpt lat="45.740871" lon="5.925427">
        <ele>328.34601</ele>
        <time>2021-06-30T07:47:27Z</time>
      </trkpt>
      <trkpt lat="45.740585" lon="5.925270">
        <ele>328.45422</ele>
        <time>2021-06-30T07:47:28Z</time>
      </trkpt>
      <trkpt lat="45.740292" lon="5.925120">
        <ele>328.74133</ele>
        <time>2021-06-30T07:47:29Z</time>
      </trkpt>
      <trkpt lat="45.739990" lon="5.924975">
        <ele>328.85516</ele>
        <time>2021-06-30T07:47:30Z</time>
      </trkpt>
      <trkpt lat="45.739697" lon="5.924845">
        <ele>328.78925</ele>
        <time>2021-06-30T07:47:31Z</time>
      </trkpt>
      <trkpt lat="45.739391" lon="5.924712">
        <ele>328.67200</ele>
        <time>2021-06-30T07:47:32Z</time>
      </trkpt>
      <trkpt lat="45.739098" lon="5.924585">
        <ele>328.49792</ele>
        <time>2021-06-30T07:47:33Z</time>
      </trkpt>
      <trkpt lat="45.738800" lon="5.924482">
        <ele>328.44049</ele>
        <time>2021-06-30T07:47:34Z</time>
      </trkpt>
      <trkpt lat="45.738800" lon="5.924482">
        <ele>328.38672</ele>
        <time>2021-06-30T07:47:35Z</time>
      </trkpt>
      <trkpt lat="45.738503" lon="5.924379">
        <ele>328.51855</ele>
        <time>2021-06-30T07:47:36Z</time>
      </trkpt>
      <trkpt lat="45.738205" lon="5.924277">
        <ele>328.51453</ele>
        <time>2021-06-30T07:47:37Z</time>
      </trkpt>
      <trkpt lat="45.737904" lon="5.924171">
        <ele>328.24194</ele>
        <time>2021-06-30T07:47:38Z</time>
      </trkpt>
      <trkpt lat="45.737606" lon="5.924070">
        <ele>328.14160</ele>
        <time>2021-06-30T07:47:39Z</time>
      </trkpt>
      <trkpt lat="45.737297" lon="5.923998">
        <ele>327.65710</ele>
        <time>2021-06-30T07:47:40Z</time>
      </trkpt>
      <trkpt lat="45.736996" lon="5.923927">
        <ele>327.35333</ele>
        <time>2021-06-30T07:47:41Z</time>
      </trkpt>
      <trkpt lat="45.736706" lon="5.923859">
        <ele>326.84302</ele>
        <time>2021-06-30T07:47:42Z</time>
      </trkpt>
      <trkpt lat="45.736408" lon="5.923790">
        <ele>326.57373</ele>
        <time>2021-06-30T07:47:43Z</time>
      </trkpt>
      <trkpt lat="45.736111" lon="5.923720">
        <ele>326.13556</ele>
        <time>2021-06-30T07:47:44Z</time>
      </trkpt>
      <trkpt lat="45.735809" lon="5.923653">
        <ele>325.48645</ele>
        <time>2021-06-30T07:47:45Z</time>
      </trkpt>
      <trkpt lat="45.735516" lon="5.923601">
        <ele>324.26990</ele>
        <time>2021-06-30T07:47:46Z</time>
      </trkpt>
      <trkpt lat="45.735222" lon="5.923555">
        <ele>323.84833</ele>
        <time>2021-06-30T07:47:47Z</time>
      </trkpt>
      <trkpt lat="45.734936" lon="5.923523">
        <ele>323.83844</ele>
        <time>2021-06-30T07:47:48Z</time>
      </trkpt>
      <trkpt lat="45.734642" lon="5.923490">
        <ele>322.55786</ele>
        <time>2021-06-30T07:47:49Z</time>
      </trkpt>
      <trkpt lat="45.734344" lon="5.923456">
        <ele>321.81970</ele>
        <time>2021-06-30T07:47:50Z</time>
      </trkpt>
      <trkpt lat="45.734043" lon="5.923422">
        <ele>321.44031</ele>
        <time>2021-06-30T07:47:51Z</time>
      </trkpt>
      <trkpt lat="45.733734" lon="5.923410">
        <ele>320.45691</ele>
        <time>2021-06-30T07:47:52Z</time>
      </trkpt>
      <trkpt lat="45.733406" lon="5.923397">
        <ele>319.64062</ele>
        <time>2021-06-30T07:47:53Z</time>
      </trkpt>
      <trkpt lat="45.733063" lon="5.923388">
        <ele>318.66211</ele>
        <time>2021-06-30T07:47:54Z</time>
      </trkpt>
      <trkpt lat="45.732719" lon="5.923384">
        <ele>318.20178</ele>
        <time>2021-06-30T07:47:55Z</time>
      </trkpt>
      <trkpt lat="45.732384" lon="5.923380">
        <ele>317.71411</ele>
        <time>2021-06-30T07:47:56Z</time>
      </trkpt>
      <trkpt lat="45.732025" lon="5.923388">
        <ele>317.24438</ele>
        <time>2021-06-30T07:47:57Z</time>
      </trkpt>
      <trkpt lat="45.731651" lon="5.923398">
        <ele>314.82153</ele>
        <time>2021-06-30T07:47:58Z</time>
      </trkpt>
      <trkpt lat="45.731285" lon="5.923408">
        <ele>314.00476</ele>
        <time>2021-06-30T07:47:59Z</time>
      </trkpt>
      <trkpt lat="45.730930" lon="5.923426">
        <ele>313.55170</ele>
        <time>2021-06-30T07:48:00Z</time>
      </trkpt>
      <trkpt lat="45.730564" lon="5.923446">
        <ele>311.74774</ele>
        <time>2021-06-30T07:48:01Z</time>
      </trkpt>
      <trkpt lat="45.730198" lon="5.923466">
        <ele>310.79871</ele>
        <time>2021-06-30T07:48:02Z</time>
      </trkpt>
      <trkpt lat="45.729839" lon="5.923492">
        <ele>310.12994</ele>
        <time>2021-06-30T07:48:03Z</time>
      </trkpt>
      <trkpt lat="45.729477" lon="5.923521">
        <ele>308.97827</ele>
        <time>2021-06-30T07:48:04Z</time>
      </trkpt>
      <trkpt lat="45.729122" lon="5.923550">
        <ele>308.41223</ele>
        <time>2021-06-30T07:48:05Z</time>
      </trkpt>
      <trkpt lat="45.728764" lon="5.923578">
        <ele>307.65369</ele>
        <time>2021-06-30T07:48:06Z</time>
      </trkpt>
      <trkpt lat="45.728409" lon="5.923607">
        <ele>307.11780</ele>
        <time>2021-06-30T07:48:07Z</time>
      </trkpt>
      <trkpt lat="45.728050" lon="5.923635">
        <ele>306.90369</ele>
        <time>2021-06-30T07:48:08Z</time>
      </trkpt>
      <trkpt lat="45.727688" lon="5.923664">
        <ele>306.85358</ele>
        <time>2021-06-30T07:48:09Z</time>
      </trkpt>
      <trkpt lat="45.727318" lon="5.923694">
        <ele>306.55701</ele>
        <time>2021-06-30T07:48:10Z</time>
      </trkpt>
      <trkpt lat="45.726978" lon="5.923721">
        <ele>306.15259</ele>
        <time>2021-06-30T07:48:11Z</time>
      </trkpt>
      <trkpt lat="45.726627" lon="5.923749">
        <ele>305.01105</ele>
        <time>2021-06-30T07:48:12Z</time>
      </trkpt>
      <trkpt lat="45.726261" lon="5.923778">
        <ele>304.64014</ele>
        <time>2021-06-30T07:48:13Z</time>
      </trkpt>
      <trkpt lat="45.725906" lon="5.923806">
        <ele>304.86871</ele>
        <time>2021-06-30T07:48:14Z</time>
      </trkpt>
      <trkpt lat="45.725906" lon="5.923806">
        <ele>304.65295</ele>
        <time>2021-06-30T07:48:15Z</time>
      </trkpt>
      <trkpt lat="45.725544" lon="5.923835">
        <ele>304.95679</ele>
        <time>2021-06-30T07:48:16Z</time>
      </trkpt>
      <trkpt lat="45.725182" lon="5.923863">
        <ele>304.87366</ele>
        <time>2021-06-30T07:48:17Z</time>
      </trkpt>
      <trkpt lat="45.724834" lon="5.923891">
        <ele>304.73706</ele>
        <time>2021-06-30T07:48:18Z</time>
      </trkpt>
      <trkpt lat="45.724468" lon="5.923921">
        <ele>304.89014</ele>
        <time>2021-06-30T07:48:19Z</time>
      </trkpt>
      <trkpt lat="45.724117" lon="5.923950">
        <ele>305.18005</ele>
        <time>2021-06-30T07:48:20Z</time>
      </trkpt>
      <trkpt lat="45.723759" lon="5.923980">
        <ele>304.98328</ele>
        <time>2021-06-30T07:48:21Z</time>
      </trkpt>
      <trkpt lat="45.723392" lon="5.924009">
        <ele>304.83582</ele>
        <time>2021-06-30T07:48:22Z</time>
      </trkpt>
      <trkpt lat="45.723030" lon="5.924039">
        <ele>304.75409</ele>
        <time>2021-06-30T07:48:23Z</time>
      </trkpt>
      <trkpt lat="45.722687" lon="5.924066">
        <ele>303.90546</ele>
        <time>2021-06-30T07:48:24Z</time>
      </trkpt>
      <trkpt lat="45.722328" lon="5.924091">
        <ele>303.59961</ele>
        <time>2021-06-30T07:48:25Z</time>
      </trkpt>
      <trkpt lat="45.721966" lon="5.924117">
        <ele>303.23547</ele>
        <time>2021-06-30T07:48:26Z</time>
      </trkpt>
      <trkpt lat="45.721611" lon="5.924141">
        <ele>303.54626</ele>
        <time>2021-06-30T07:48:27Z</time>
      </trkpt>
      <trkpt lat="45.721237" lon="5.924154">
        <ele>303.41736</ele>
        <time>2021-06-30T07:48:28Z</time>
      </trkpt>
      <trkpt lat="45.720882" lon="5.924167">
        <ele>303.39941</ele>
        <time>2021-06-30T07:48:29Z</time>
      </trkpt>
      <trkpt lat="45.720535" lon="5.924175">
        <ele>303.31714</ele>
        <time>2021-06-30T07:48:30Z</time>
      </trkpt>
      <trkpt lat="45.720184" lon="5.924179">
        <ele>303.01306</ele>
        <time>2021-06-30T07:48:31Z</time>
      </trkpt>
      <trkpt lat="45.719826" lon="5.924175">
        <ele>302.50000</ele>
        <time>2021-06-30T07:48:32Z</time>
      </trkpt>
      <trkpt lat="45.719463" lon="5.924162">
        <ele>302.59357</ele>
        <time>2021-06-30T07:48:33Z</time>
      </trkpt>
      <trkpt lat="45.719086" lon="5.924140">
        <ele>302.03943</ele>
        <time>2021-06-30T07:48:34Z</time>
      </trkpt>
      <trkpt lat="45.718731" lon="5.924112">
        <ele>301.73987</ele>
        <time>2021-06-30T07:48:35Z</time>
      </trkpt>
      <trkpt lat="45.718365" lon="5.924082">
        <ele>302.09686</ele>
        <time>2021-06-30T07:48:36Z</time>
      </trkpt>
      <trkpt lat="45.718021" lon="5.924052">
        <ele>302.08484</ele>
        <time>2021-06-30T07:48:37Z</time>
      </trkpt>
      <trkpt lat="45.717648" lon="5.923999">
        <ele>301.89496</ele>
        <time>2021-06-30T07:48:38Z</time>
      </trkpt>
      <trkpt lat="45.717297" lon="5.923944">
        <ele>301.73083</ele>
        <time>2021-06-30T07:48:39Z</time>
      </trkpt>
      <trkpt lat="45.716949" lon="5.923894">
        <ele>301.85046</ele>
        <time>2021-06-30T07:48:40Z</time>
      </trkpt>
      <trkpt lat="45.716568" lon="5.923844">
        <ele>301.82239</ele>
        <time>2021-06-30T07:48:41Z</time>
      </trkpt>
      <trkpt lat="45.716179" lon="5.923793">
        <ele>301.93951</ele>
        <time>2021-06-30T07:48:42Z</time>
      </trkpt>
      <trkpt lat="45.715824" lon="5.923747">
        <ele>301.76544</ele>
        <time>2021-06-30T07:48:43Z</time>
      </trkpt>
      <trkpt lat="45.715443" lon="5.923697">
        <ele>301.22949</ele>
        <time>2021-06-30T07:48:44Z</time>
      </trkpt>
      <trkpt lat="45.715099" lon="5.923652">
        <ele>301.46533</ele>
        <time>2021-06-30T07:48:45Z</time>
      </trkpt>
      <trkpt lat="45.714733" lon="5.923628">
        <ele>301.29608</ele>
        <time>2021-06-30T07:48:46Z</time>
      </trkpt>
      <trkpt lat="45.714375" lon="5.923613">
        <ele>301.29407</ele>
        <time>2021-06-30T07:48:47Z</time>
      </trkpt>
      <trkpt lat="45.714024" lon="5.923618">
        <ele>301.75647</ele>
        <time>2021-06-30T07:48:48Z</time>
      </trkpt>
      <trkpt lat="45.713657" lon="5.923624">
        <ele>301.97522</ele>
        <time>2021-06-30T07:48:49Z</time>
      </trkpt>
      <trkpt lat="45.713291" lon="5.923648">
        <ele>301.96906</ele>
        <time>2021-06-30T07:48:50Z</time>
      </trkpt>
      <trkpt lat="45.713291" lon="5.923648">
        <ele>301.67621</ele>
        <time>2021-06-30T07:48:51Z</time>
      </trkpt>
      <trkpt lat="45.712933" lon="5.923684">
        <ele>301.60535</ele>
        <time>2021-06-30T07:48:52Z</time>
      </trkpt>
      <trkpt lat="45.712570" lon="5.923736">
        <ele>300.53137</ele>
        <time>2021-06-30T07:48:53Z</time>
      </trkpt>
      <trkpt lat="45.712208" lon="5.923800">
        <ele>301.14539</ele>
        <time>2021-06-30T07:48:54Z</time>
      </trkpt>
      <trkpt lat="45.711849" lon="5.923877">
        <ele>301.73218</ele>
        <time>2021-06-30T07:48:55Z</time>
      </trkpt>
      <trkpt lat="45.711502" lon="5.923960">
        <ele>302.56116</ele>
        <time>2021-06-30T07:48:56Z</time>
      </trkpt>
      <trkpt lat="45.711143" lon="5.924064">
        <ele>303.71069</ele>
        <time>2021-06-30T07:48:57Z</time>
      </trkpt>
      <trkpt lat="45.710800" lon="5.924167">
        <ele>304.49951</ele>
        <time>2021-06-30T07:48:58Z</time>
      </trkpt>
      <trkpt lat="45.710464" lon="5.924272">
        <ele>304.92224</ele>
        <time>2021-06-30T07:48:59Z</time>
      </trkpt>
      <trkpt lat="45.710129" lon="5.924409">
        <ele>305.11292</ele>
        <time>2021-06-30T07:49:00Z</time>
      </trkpt>
      <trkpt lat="45.709793" lon="5.924559">
        <ele>306.17029</ele>
        <time>2021-06-30T07:49:01Z</time>
      </trkpt>
      <trkpt lat="45.709457" lon="5.924722">
        <ele>307.11206</ele>
        <time>2021-06-30T07:49:02Z</time>
      </trkpt>
      <trkpt lat="45.709122" lon="5.924901">
        <ele>308.22424</ele>
        <time>2021-06-30T07:49:03Z</time>
      </trkpt>
      <trkpt lat="45.708786" lon="5.925091">
        <ele>309.33020</ele>
        <time>2021-06-30T07:49:04Z</time>
      </trkpt>
      <trkpt lat="45.708447" lon="5.925299">
        <ele>310.19623</ele>
        <time>2021-06-30T07:49:05Z</time>
      </trkpt>
      <trkpt lat="45.708122" lon="5.925495">
        <ele>311.35767</ele>
        <time>2021-06-30T07:49:06Z</time>
      </trkpt>
      <trkpt lat="45.707790" lon="5.925707">
        <ele>312.93347</ele>
        <time>2021-06-30T07:49:07Z</time>
      </trkpt>
      <trkpt lat="45.707478" lon="5.925926">
        <ele>314.01141</ele>
        <time>2021-06-30T07:49:08Z</time>
      </trkpt>
      <trkpt lat="45.707142" lon="5.926161">
        <ele>314.30884</ele>
        <time>2021-06-30T07:49:09Z</time>
      </trkpt>
      <trkpt lat="45.706802" lon="5.926399">
        <ele>315.81116</ele>
        <time>2021-06-30T07:49:10Z</time>
      </trkpt>
      <trkpt lat="45.706482" lon="5.926620">
        <ele>316.33301</ele>
        <time>2021-06-30T07:49:11Z</time>
      </trkpt>
      <trkpt lat="45.706181" lon="5.926814">
        <ele>317.65100</ele>
        <time>2021-06-30T07:49:12Z</time>
      </trkpt>
      <trkpt lat="45.705917" lon="5.926984">
        <ele>318.34692</ele>
        <time>2021-06-30T07:49:13Z</time>
      </trkpt>
      <trkpt lat="45.705662" lon="5.927151">
        <ele>319.33948</ele>
        <time>2021-06-30T07:49:14Z</time>
      </trkpt>
      <trkpt lat="45.705418" lon="5.927308">
        <ele>320.23718</ele>
        <time>2021-06-30T07:49:15Z</time>
      </trkpt>
      <trkpt lat="45.705200" lon="5.927440">
        <ele>321.31042</ele>
        <time>2021-06-30T07:49:16Z</time>
      </trkpt>
      <trkpt lat="45.705013" lon="5.927552">
        <ele>321.91113</ele>
        <time>2021-06-30T07:49:17Z</time>
      </trkpt>
      <trkpt lat="45.704842" lon="5.927655">
        <ele>322.77283</ele>
        <time>2021-06-30T07:49:18Z</time>
      </trkpt>
      <trkpt lat="45.704666" lon="5.927758">
        <ele>323.08850</ele>
        <time>2021-06-30T07:49:19Z</time>
      </trkpt>
      <trkpt lat="45.704510" lon="5.927849">
        <ele>314.53769</ele>
        <time>2021-06-30T07:49:20Z</time>
      </trkpt>
      <trkpt lat="45.704350" lon="5.927938">
        <ele>324.91980</ele>
        <time>2021-06-30T07:49:21Z</time>
      </trkpt>
      <trkpt lat="45.704163" lon="5.928042">
        <ele>325.81079</ele>
        <time>2021-06-30T07:49:22Z</time>
      </trkpt>
      <trkpt lat="45.703930" lon="5.928155">
        <ele>326.64282</ele>
        <time>2021-06-30T07:49:23Z</time>
      </trkpt>
      <trkpt lat="45.703671" lon="5.928283">
        <ele>328.26672</ele>
        <time>2021-06-30T07:49:24Z</time>
      </trkpt>
      <trkpt lat="45.703400" lon="5.928407">
        <ele>329.18433</ele>
        <time>2021-06-30T07:49:25Z</time>
      </trkpt>
      <trkpt lat="45.703098" lon="5.928529">
        <ele>330.15851</ele>
        <time>2021-06-30T07:49:26Z</time>
      </trkpt>
      <trkpt lat="45.702774" lon="5.928655">
        <ele>332.20837</ele>
        <time>2021-06-30T07:49:27Z</time>
      </trkpt>
      <trkpt lat="45.702431" lon="5.928779">
        <ele>333.79932</ele>
        <time>2021-06-30T07:49:28Z</time>
      </trkpt>
      <trkpt lat="45.702095" lon="5.928898">
        <ele>335.45190</ele>
        <time>2021-06-30T07:49:29Z</time>
      </trkpt>
      <trkpt lat="45.701778" lon="5.928997">
        <ele>336.70367</ele>
        <time>2021-06-30T07:49:30Z</time>
      </trkpt>
      <trkpt lat="45.701778" lon="5.928997">
        <ele>338.47754</ele>
        <time>2021-06-30T07:49:31Z</time>
      </trkpt>
      <trkpt lat="45.701420" lon="5.929086">
        <ele>340.48126</ele>
        <time>2021-06-30T07:49:32Z</time>
      </trkpt>
      <trkpt lat="45.701065" lon="5.929170">
        <ele>341.87769</ele>
        <time>2021-06-30T07:49:33Z</time>
      </trkpt>
      <trkpt lat="45.700710" lon="5.929253">
        <ele>343.03577</ele>
        <time>2021-06-30T07:49:34Z</time>
      </trkpt>
      <trkpt lat="45.700363" lon="5.929328">
        <ele>345.20508</ele>
        <time>2021-06-30T07:49:35Z</time>
      </trkpt>
      <trkpt lat="45.699997" lon="5.929385">
        <ele>346.26099</ele>
        <time>2021-06-30T07:49:36Z</time>
      </trkpt>
      <trkpt lat="45.699631" lon="5.929436">
        <ele>347.72107</ele>
        <time>2021-06-30T07:49:37Z</time>
      </trkpt>
      <trkpt lat="45.699291" lon="5.929483">
        <ele>348.64923</ele>
        <time>2021-06-30T07:49:38Z</time>
      </trkpt>
      <trkpt lat="45.698933" lon="5.929532">
        <ele>350.01660</ele>
        <time>2021-06-30T07:49:39Z</time>
      </trkpt>
      <trkpt lat="45.698593" lon="5.929578">
        <ele>351.47223</ele>
        <time>2021-06-30T07:49:40Z</time>
      </trkpt>
      <trkpt lat="45.698246" lon="5.929625">
        <ele>352.83179</ele>
        <time>2021-06-30T07:49:41Z</time>
      </trkpt>
      <trkpt lat="45.697895" lon="5.929673">
        <ele>353.98734</ele>
        <time>2021-06-30T07:49:42Z</time>
      </trkpt>
      <trkpt lat="45.697571" lon="5.929718">
        <ele>355.26114</ele>
        <time>2021-06-30T07:49:43Z</time>
      </trkpt>
      <trkpt lat="45.697239" lon="5.929763">
        <ele>356.93460</ele>
        <time>2021-06-30T07:49:44Z</time>
      </trkpt>
      <trkpt lat="45.696888" lon="5.929822">
        <ele>358.33316</ele>
        <time>2021-06-30T07:49:45Z</time>
      </trkpt>
      <trkpt lat="45.696522" lon="5.929892">
        <ele>359.45975</ele>
        <time>2021-06-30T07:49:46Z</time>
      </trkpt>
      <trkpt lat="45.696159" lon="5.929960">
        <ele>360.26114</ele>
        <time>2021-06-30T07:49:47Z</time>
      </trkpt>
      <trkpt lat="45.695774" lon="5.930033">
        <ele>360.94260</ele>
        <time>2021-06-30T07:49:48Z</time>
      </trkpt>
      <trkpt lat="45.695431" lon="5.930131">
        <ele>361.77078</ele>
        <time>2021-06-30T07:49:49Z</time>
      </trkpt>
      <trkpt lat="45.695049" lon="5.930241">
        <ele>362.56570</ele>
        <time>2021-06-30T07:49:50Z</time>
      </trkpt>
      <trkpt lat="45.694717" lon="5.930342">
        <ele>363.06210</ele>
        <time>2021-06-30T07:49:51Z</time>
      </trkpt>
      <trkpt lat="45.694370" lon="5.930458">
        <ele>363.74356</ele>
        <time>2021-06-30T07:49:52Z</time>
      </trkpt>
      <trkpt lat="45.694012" lon="5.930601">
        <ele>364.29459</ele>
        <time>2021-06-30T07:49:53Z</time>
      </trkpt>
      <trkpt lat="45.693649" lon="5.930744">
        <ele>365.06949</ele>
        <time>2021-06-30T07:49:54Z</time>
      </trkpt>
      <trkpt lat="45.693295" lon="5.930884">
        <ele>366.51138</ele>
        <time>2021-06-30T07:49:55Z</time>
      </trkpt>
      <trkpt lat="45.692947" lon="5.931018">
        <ele>367.29605</ele>
        <time>2021-06-30T07:49:56Z</time>
      </trkpt>
      <trkpt lat="45.692596" lon="5.931153">
        <ele>367.61844</ele>
        <time>2021-06-30T07:49:57Z</time>
      </trkpt>
      <trkpt lat="45.692238" lon="5.931292">
        <ele>368.51736</ele>
        <time>2021-06-30T07:49:58Z</time>
      </trkpt>
      <trkpt lat="45.691891" lon="5.931425">
        <ele>370.02829</ele>
        <time>2021-06-30T07:49:59Z</time>
      </trkpt>
      <trkpt lat="45.691547" lon="5.931557">
        <ele>371.24246</ele>
        <time>2021-06-30T07:50:00Z</time>
      </trkpt>
      <trkpt lat="45.691200" lon="5.931679">
        <ele>371.88235</ele>
        <time>2021-06-30T07:50:01Z</time>
      </trkpt>
      <trkpt lat="45.690849" lon="5.931795">
        <ele>373.08090</ele>
        <time>2021-06-30T07:50:02Z</time>
      </trkpt>
      <trkpt lat="45.690849" lon="5.931795">
        <ele>373.71402</ele>
        <time>2021-06-30T07:50:03Z</time>
      </trkpt>
      <trkpt lat="45.690479" lon="5.931914">
        <ele>375.14395</ele>
        <time>2021-06-30T07:50:04Z</time>
      </trkpt>
      <trkpt lat="45.690140" lon="5.932021">
        <ele>375.61661</ele>
        <time>2021-06-30T07:50:05Z</time>
      </trkpt>
      <trkpt lat="45.689781" lon="5.932109">
        <ele>376.53140</ele>
        <time>2021-06-30T07:50:06Z</time>
      </trkpt>
      <trkpt lat="45.689434" lon="5.932196">
        <ele>377.44315</ele>
        <time>2021-06-30T07:50:07Z</time>
      </trkpt>
      <trkpt lat="45.689091" lon="5.932269">
        <ele>377.66641</ele>
        <time>2021-06-30T07:50:08Z</time>
      </trkpt>
      <trkpt lat="45.688744" lon="5.932335">
        <ele>377.82437</ele>
        <time>2021-06-30T07:50:09Z</time>
      </trkpt>
      <trkpt lat="45.688393" lon="5.932390">
        <ele>378.41934</ele>
        <time>2021-06-30T07:50:10Z</time>
      </trkpt>
      <trkpt lat="45.688046" lon="5.932428">
        <ele>379.17813</ele>
        <time>2021-06-30T07:50:11Z</time>
      </trkpt>
      <trkpt lat="45.687695" lon="5.932466">
        <ele>379.52444</ele>
        <time>2021-06-30T07:50:12Z</time>
      </trkpt>
      <trkpt lat="45.687332" lon="5.932498">
        <ele>380.18289</ele>
        <time>2021-06-30T07:50:13Z</time>
      </trkpt>
      <trkpt lat="45.686970" lon="5.932511">
        <ele>380.60410</ele>
        <time>2021-06-30T07:50:14Z</time>
      </trkpt>
      <trkpt lat="45.686607" lon="5.932514">
        <ele>380.99216</ele>
        <time>2021-06-30T07:50:15Z</time>
      </trkpt>
      <trkpt lat="45.686245" lon="5.932515">
        <ele>381.39517</ele>
        <time>2021-06-30T07:50:16Z</time>
      </trkpt>
      <trkpt lat="45.685883" lon="5.932490">
        <ele>381.63382</ele>
        <time>2021-06-30T07:50:17Z</time>
      </trkpt>
      <trkpt lat="45.685528" lon="5.932446">
        <ele>381.95975</ele>
        <time>2021-06-30T07:50:18Z</time>
      </trkpt>
      <trkpt lat="45.685165" lon="5.932376">
        <ele>381.59219</ele>
        <time>2021-06-30T07:50:19Z</time>
      </trkpt>
      <trkpt lat="45.684795" lon="5.932291">
        <ele>381.36343</ele>
        <time>2021-06-30T07:50:20Z</time>
      </trkpt>
      <trkpt lat="45.684433" lon="5.932193">
        <ele>380.57986</ele>
        <time>2021-06-30T07:50:21Z</time>
      </trkpt>
      <trkpt lat="45.684078" lon="5.932091">
        <ele>380.26260</ele>
        <time>2021-06-30T07:50:22Z</time>
      </trkpt>
      <trkpt lat="45.683735" lon="5.931982">
        <ele>380.24545</ele>
        <time>2021-06-30T07:50:23Z</time>
      </trkpt>
      <trkpt lat="45.683403" lon="5.931876">
        <ele>379.99271</ele>
        <time>2021-06-30T07:50:24Z</time>
      </trkpt>
      <trkpt lat="45.683002" lon="5.931749">
        <ele>379.68576</ele>
        <time>2021-06-30T07:50:25Z</time>
      </trkpt>
      <trkpt lat="45.682648" lon="5.931637">
        <ele>379.56845</ele>
        <time>2021-06-30T07:50:26Z</time>
      </trkpt>
      <trkpt lat="45.682312" lon="5.931529">
        <ele>380.17520</ele>
        <time>2021-06-30T07:50:27Z</time>
      </trkpt>
      <trkpt lat="45.681950" lon="5.931432">
        <ele>381.20529</ele>
        <time>2021-06-30T07:50:28Z</time>
      </trkpt>
      <trkpt lat="45.681587" lon="5.931344">
        <ele>380.68784</ele>
        <time>2021-06-30T07:50:29Z</time>
      </trkpt>
      <trkpt lat="45.681229" lon="5.931266">
        <ele>380.11441</ele>
        <time>2021-06-30T07:50:30Z</time>
      </trkpt>
      <trkpt lat="45.680862" lon="5.931187">
        <ele>379.58475</ele>
        <time>2021-06-30T07:50:31Z</time>
      </trkpt>
      <trkpt lat="45.680523" lon="5.931125">
        <ele>379.11880</ele>
        <time>2021-06-30T07:50:32Z</time>
      </trkpt>
      <trkpt lat="45.680153" lon="5.931063">
        <ele>379.11234</ele>
        <time>2021-06-30T07:50:33Z</time>
      </trkpt>
      <trkpt lat="45.679779" lon="5.930995">
        <ele>378.94376</ele>
        <time>2021-06-30T07:50:34Z</time>
      </trkpt>
      <trkpt lat="45.679436" lon="5.930930">
        <ele>378.30789</ele>
        <time>2021-06-30T07:50:35Z</time>
      </trkpt>
      <trkpt lat="45.679096" lon="5.930867">
        <ele>377.70016</ele>
        <time>2021-06-30T07:50:36Z</time>
      </trkpt>
      <trkpt lat="45.678730" lon="5.930775">
        <ele>377.27115</ele>
        <time>2021-06-30T07:50:37Z</time>
      </trkpt>
      <trkpt lat="45.678364" lon="5.930671">
        <ele>376.64664</ele>
        <time>2021-06-30T07:50:38Z</time>
      </trkpt>
      <trkpt lat="45.678364" lon="5.930671">
        <ele>376.14603</ele>
        <time>2021-06-30T07:50:39Z</time>
      </trkpt>
      <trkpt lat="45.678001" lon="5.930559">
        <ele>375.58951</ele>
        <time>2021-06-30T07:50:40Z</time>
      </trkpt>
      <trkpt lat="45.677658" lon="5.930445">
        <ele>375.00015</ele>
        <time>2021-06-30T07:50:41Z</time>
      </trkpt>
      <trkpt lat="45.677322" lon="5.930320">
        <ele>374.64261</ele>
        <time>2021-06-30T07:50:42Z</time>
      </trkpt>
      <trkpt lat="45.676971" lon="5.930173">
        <ele>373.99875</ele>
        <time>2021-06-30T07:50:43Z</time>
      </trkpt>
      <trkpt lat="45.676613" lon="5.930007">
        <ele>373.69113</ele>
        <time>2021-06-30T07:50:44Z</time>
      </trkpt>
      <trkpt lat="45.676285" lon="5.929847">
        <ele>373.20724</ele>
        <time>2021-06-30T07:50:45Z</time>
      </trkpt>
      <trkpt lat="45.675926" lon="5.929667">
        <ele>372.70438</ele>
        <time>2021-06-30T07:50:46Z</time>
      </trkpt>
      <trkpt lat="45.675598" lon="5.929481">
        <ele>372.13089</ele>
        <time>2021-06-30T07:50:47Z</time>
      </trkpt>
      <trkpt lat="45.675266" lon="5.929287">
        <ele>371.38297</ele>
        <time>2021-06-30T07:50:48Z</time>
      </trkpt>
      <trkpt lat="45.674934" lon="5.929081">
        <ele>370.40549</ele>
        <time>2021-06-30T07:50:49Z</time>
      </trkpt>
      <trkpt lat="45.674606" lon="5.928862">
        <ele>369.97208</ele>
        <time>2021-06-30T07:50:50Z</time>
      </trkpt>
      <trkpt lat="45.674271" lon="5.928625">
        <ele>368.90213</ele>
        <time>2021-06-30T07:50:51Z</time>
      </trkpt>
      <trkpt lat="45.673954" lon="5.928399">
        <ele>366.47861</ele>
        <time>2021-06-30T07:50:52Z</time>
      </trkpt>
      <trkpt lat="45.673649" lon="5.928181">
        <ele>365.24380</ele>
        <time>2021-06-30T07:50:53Z</time>
      </trkpt>
      <trkpt lat="45.673306" lon="5.927935">
        <ele>364.47397</ele>
        <time>2021-06-30T07:50:54Z</time>
      </trkpt>
      <trkpt lat="45.672985" lon="5.927699">
        <ele>363.32474</ele>
        <time>2021-06-30T07:50:55Z</time>
      </trkpt>
      <trkpt lat="45.672668" lon="5.927466">
        <ele>362.56302</ele>
        <time>2021-06-30T07:50:56Z</time>
      </trkpt>
      <trkpt lat="45.672356" lon="5.927257">
        <ele>361.37674</ele>
        <time>2021-06-30T07:50:57Z</time>
      </trkpt>
      <trkpt lat="45.672001" lon="5.927036">
        <ele>360.17532</ele>
        <time>2021-06-30T07:50:58Z</time>
      </trkpt>
      <trkpt lat="45.671665" lon="5.926831">
        <ele>358.71573</ele>
        <time>2021-06-30T07:50:59Z</time>
      </trkpt>
      <trkpt lat="45.671322" lon="5.926607">
        <ele>357.05838</ele>
        <time>2021-06-30T07:51:00Z</time>
      </trkpt>
      <trkpt lat="45.671001" lon="5.926415">
        <ele>355.51791</ele>
        <time>2021-06-30T07:51:01Z</time>
      </trkpt>
      <trkpt lat="45.670658" lon="5.926221">
        <ele>353.95236</ele>
        <time>2021-06-30T07:51:02Z</time>
      </trkpt>
      <trkpt lat="45.670322" lon="5.926047">
        <ele>352.75882</ele>
        <time>2021-06-30T07:51:03Z</time>
      </trkpt>
      <trkpt lat="45.669983" lon="5.925887">
        <ele>351.16678</ele>
        <time>2021-06-30T07:51:04Z</time>
      </trkpt>
      <trkpt lat="45.669640" lon="5.925740">
        <ele>349.72086</ele>
        <time>2021-06-30T07:51:05Z</time>
      </trkpt>
      <trkpt lat="45.669300" lon="5.925605">
        <ele>348.24356</ele>
        <time>2021-06-30T07:51:06Z</time>
      </trkpt>
      <trkpt lat="45.668938" lon="5.925466">
        <ele>346.20181</ele>
        <time>2021-06-30T07:51:07Z</time>
      </trkpt>
      <trkpt lat="45.668594" lon="5.925365">
        <ele>344.39835</ele>
        <time>2021-06-30T07:51:08Z</time>
      </trkpt>
      <trkpt lat="45.668232" lon="5.925264">
        <ele>343.47256</ele>
        <time>2021-06-30T07:51:09Z</time>
      </trkpt>
      <trkpt lat="45.667877" lon="5.925183">
        <ele>342.78976</ele>
        <time>2021-06-30T07:51:10Z</time>
      </trkpt>
      <trkpt lat="45.667519" lon="5.925126">
        <ele>341.46768</ele>
        <time>2021-06-30T07:51:11Z</time>
      </trkpt>
      <trkpt lat="45.667118" lon="5.925089">
        <ele>339.42465</ele>
        <time>2021-06-30T07:51:12Z</time>
      </trkpt>
      <trkpt lat="45.666767" lon="5.925071">
        <ele>337.93192</ele>
        <time>2021-06-30T07:51:13Z</time>
      </trkpt>
      <trkpt lat="45.666767" lon="5.925071">
        <ele>336.50607</ele>
        <time>2021-06-30T07:51:14Z</time>
      </trkpt>
      <trkpt lat="45.666428" lon="5.925057">
        <ele>335.22159</ele>
        <time>2021-06-30T07:51:15Z</time>
      </trkpt>
      <trkpt lat="45.666096" lon="5.925057">
        <ele>333.82425</ele>
        <time>2021-06-30T07:51:16Z</time>
      </trkpt>
      <trkpt lat="45.665775" lon="5.925069">
        <ele>332.72012</ele>
        <time>2021-06-30T07:51:17Z</time>
      </trkpt>
      <trkpt lat="45.665459" lon="5.925084">
        <ele>331.51724</ele>
        <time>2021-06-30T07:51:18Z</time>
      </trkpt>
      <trkpt lat="45.665157" lon="5.925113">
        <ele>330.04752</ele>
        <time>2021-06-30T07:51:19Z</time>
      </trkpt>
      <trkpt lat="45.664841" lon="5.925145">
        <ele>327.53482</ele>
        <time>2021-06-30T07:51:20Z</time>
      </trkpt>
      <trkpt lat="45.664532" lon="5.925185">
        <ele>326.61575</ele>
        <time>2021-06-30T07:51:21Z</time>
      </trkpt>
      <trkpt lat="45.664215" lon="5.925227">
        <ele>325.02261</ele>
        <time>2021-06-30T07:51:22Z</time>
      </trkpt>
      <trkpt lat="45.663879" lon="5.925287">
        <ele>324.11868</ele>
        <time>2021-06-30T07:51:23Z</time>
      </trkpt>
      <trkpt lat="45.663513" lon="5.925369">
        <ele>323.43643</ele>
        <time>2021-06-30T07:51:24Z</time>
      </trkpt>
      <trkpt lat="45.663151" lon="5.925449">
        <ele>322.77866</ele>
        <time>2021-06-30T07:51:25Z</time>
      </trkpt>
      <trkpt lat="45.662807" lon="5.925526">
        <ele>321.33908</ele>
        <time>2021-06-30T07:51:26Z</time>
      </trkpt>
      <trkpt lat="45.662449" lon="5.925607">
        <ele>320.68924</ele>
        <time>2021-06-30T07:51:27Z</time>
      </trkpt>
      <trkpt lat="45.662098" lon="5.925692">
        <ele>320.13956</ele>
        <time>2021-06-30T07:51:28Z</time>
      </trkpt>
      <trkpt lat="45.661724" lon="5.925788">
        <ele>319.82181</ele>
        <time>2021-06-30T07:51:29Z</time>
      </trkpt>
      <trkpt lat="45.661373" lon="5.925878">
        <ele>319.53165</ele>
        <time>2021-06-30T07:51:30Z</time>
      </trkpt>
      <trkpt lat="45.661015" lon="5.925969">
        <ele>318.80655</ele>
        <time>2021-06-30T07:51:31Z</time>
      </trkpt>
      <trkpt lat="45.660667" lon="5.926057">
        <ele>317.36514</ele>
        <time>2021-06-30T07:51:32Z</time>
      </trkpt>
      <trkpt lat="45.660301" lon="5.926144">
        <ele>316.86874</ele>
        <time>2021-06-30T07:51:33Z</time>
      </trkpt>
      <trkpt lat="45.659935" lon="5.926229">
        <ele>316.41983</ele>
        <time>2021-06-30T07:51:34Z</time>
      </trkpt>
      <trkpt lat="45.659580" lon="5.926310">
        <ele>315.63004</ele>
        <time>2021-06-30T07:51:35Z</time>
      </trkpt>
      <trkpt lat="45.659222" lon="5.926390">
        <ele>314.16824</ele>
        <time>2021-06-30T07:51:36Z</time>
      </trkpt>
      <trkpt lat="45.658878" lon="5.926454">
        <ele>313.50687</ele>
        <time>2021-06-30T07:51:37Z</time>
      </trkpt>
      <trkpt lat="45.658508" lon="5.926510">
        <ele>312.68277</ele>
        <time>2021-06-30T07:51:38Z</time>
      </trkpt>
      <trkpt lat="45.658123" lon="5.926541">
        <ele>311.97336</ele>
        <time>2021-06-30T07:51:39Z</time>
      </trkpt>
      <trkpt lat="45.657787" lon="5.926563">
        <ele>311.44235</ele>
        <time>2021-06-30T07:51:40Z</time>
      </trkpt>
      <trkpt lat="45.657421" lon="5.926554">
        <ele>310.70181</ele>
        <time>2021-06-30T07:51:41Z</time>
      </trkpt>
      <trkpt lat="45.657059" lon="5.926535">
        <ele>309.38205</ele>
        <time>2021-06-30T07:51:42Z</time>
      </trkpt>
      <trkpt lat="45.656689" lon="5.926511">
        <ele>308.50443</ele>
        <time>2021-06-30T07:51:43Z</time>
      </trkpt>
      <trkpt lat="45.656342" lon="5.926470">
        <ele>307.32486</ele>
        <time>2021-06-30T07:51:44Z</time>
      </trkpt>
      <trkpt lat="45.656342" lon="5.926470">
        <ele>306.54465</ele>
        <time>2021-06-30T07:51:45Z</time>
      </trkpt>
      <trkpt lat="45.655972" lon="5.926410">
        <ele>305.89041</ele>
        <time>2021-06-30T07:51:46Z</time>
      </trkpt>
      <trkpt lat="45.655605" lon="5.926336">
        <ele>305.24539</ele>
        <time>2021-06-30T07:51:47Z</time>
      </trkpt>
      <trkpt lat="45.655235" lon="5.926259">
        <ele>304.74100</ele>
        <time>2021-06-30T07:51:48Z</time>
      </trkpt>
      <trkpt lat="45.654865" lon="5.926165">
        <ele>303.69962</ele>
        <time>2021-06-30T07:51:49Z</time>
      </trkpt>
      <trkpt lat="45.654526" lon="5.925997">
        <ele>302.72806</ele>
        <time>2021-06-30T07:51:50Z</time>
      </trkpt>
      <trkpt lat="45.654160" lon="5.925859">
        <ele>301.76102</ele>
        <time>2021-06-30T07:51:51Z</time>
      </trkpt>
      <trkpt lat="45.653801" lon="5.925715">
        <ele>300.11636</ele>
        <time>2021-06-30T07:51:52Z</time>
      </trkpt>
      <trkpt lat="45.653469" lon="5.925547">
        <ele>298.79080</ele>
        <time>2021-06-30T07:51:53Z</time>
      </trkpt>
      <trkpt lat="45.653149" lon="5.925367">
        <ele>297.28116</ele>
        <time>2021-06-30T07:51:54Z</time>
      </trkpt>
      <trkpt lat="45.652824" lon="5.925173">
        <ele>296.71036</ele>
        <time>2021-06-30T07:51:55Z</time>
      </trkpt>
      <trkpt lat="45.652496" lon="5.924958">
        <ele>295.73489</ele>
        <time>2021-06-30T07:51:56Z</time>
      </trkpt>
      <trkpt lat="45.652180" lon="5.924726">
        <ele>295.27896</ele>
        <time>2021-06-30T07:51:57Z</time>
      </trkpt>
      <trkpt lat="45.651852" lon="5.924478">
        <ele>294.70975</ele>
        <time>2021-06-30T07:51:58Z</time>
      </trkpt>
      <trkpt lat="45.651546" lon="5.924233">
        <ele>294.04251</ele>
        <time>2021-06-30T07:51:59Z</time>
      </trkpt>
      <trkpt lat="45.651230" lon="5.923938">
        <ele>292.90421</ele>
        <time>2021-06-30T07:52:00Z</time>
      </trkpt>
      <trkpt lat="45.650940" lon="5.923665">
        <ele>292.50125</ele>
        <time>2021-06-30T07:52:01Z</time>
      </trkpt>
      <trkpt lat="45.650623" lon="5.923371">
        <ele>292.24576</ele>
        <time>2021-06-30T07:52:02Z</time>
      </trkpt>
      <trkpt lat="45.650314" lon="5.923103">
        <ele>291.11368</ele>
        <time>2021-06-30T07:52:03Z</time>
      </trkpt>
      <trkpt lat="45.650009" lon="5.922828">
        <ele>290.77420</ele>
        <time>2021-06-30T07:52:04Z</time>
      </trkpt>
      <trkpt lat="45.649712" lon="5.922573">
        <ele>289.60275</ele>
        <time>2021-06-30T07:52:05Z</time>
      </trkpt>
      <trkpt lat="45.649395" lon="5.922310">
        <ele>288.90396</ele>
        <time>2021-06-30T07:52:06Z</time>
      </trkpt>
      <trkpt lat="45.649082" lon="5.922070">
        <ele>288.64413</ele>
        <time>2021-06-30T07:52:07Z</time>
      </trkpt>
      <trkpt lat="45.648758" lon="5.921847">
        <ele>288.70523</ele>
        <time>2021-06-30T07:52:08Z</time>
      </trkpt>
      <trkpt lat="45.648430" lon="5.921624">
        <ele>288.81833</ele>
        <time>2021-06-30T07:52:09Z</time>
      </trkpt>
      <trkpt lat="45.648083" lon="5.921418">
        <ele>288.75369</ele>
        <time>2021-06-30T07:52:10Z</time>
      </trkpt>
      <trkpt lat="45.647743" lon="5.921235">
        <ele>289.14529</ele>
        <time>2021-06-30T07:52:11Z</time>
      </trkpt>
      <trkpt lat="45.647419" lon="5.921069">
        <ele>288.85965</ele>
        <time>2021-06-30T07:52:12Z</time>
      </trkpt>
      <trkpt lat="45.647072" lon="5.920902">
        <ele>288.85574</ele>
        <time>2021-06-30T07:52:13Z</time>
      </trkpt>
      <trkpt lat="45.647072" lon="5.920902">
        <ele>288.77463</ele>
        <time>2021-06-30T07:52:14Z</time>
      </trkpt>
      <trkpt lat="45.646721" lon="5.920759">
        <ele>288.16251</ele>
        <time>2021-06-30T07:52:15Z</time>
      </trkpt>
      <trkpt lat="45.646366" lon="5.920634">
        <ele>287.93655</ele>
        <time>2021-06-30T07:52:16Z</time>
      </trkpt>
      <trkpt lat="45.646027" lon="5.920526">
        <ele>287.49063</ele>
        <time>2021-06-30T07:52:17Z</time>
      </trkpt>
      <trkpt lat="45.645649" lon="5.920441">
        <ele>286.67740</ele>
        <time>2021-06-30T07:52:18Z</time>
      </trkpt>
      <trkpt lat="45.645290" lon="5.920361">
        <ele>286.64603</ele>
        <time>2021-06-30T07:52:19Z</time>
      </trkpt>
      <trkpt lat="45.644943" lon="5.920307">
        <ele>286.52023</ele>
        <time>2021-06-30T07:52:20Z</time>
      </trkpt>
      <trkpt lat="45.644577" lon="5.920258">
        <ele>286.43723</ele>
        <time>2021-06-30T07:52:21Z</time>
      </trkpt>
      <trkpt lat="45.644203" lon="5.920230">
        <ele>286.29849</ele>
        <time>2021-06-30T07:52:22Z</time>
      </trkpt>
      <trkpt lat="45.643860" lon="5.920204">
        <ele>285.76889</ele>
        <time>2021-06-30T07:52:23Z</time>
      </trkpt>
      <trkpt lat="45.643505" lon="5.920184">
        <ele>285.68961</ele>
        <time>2021-06-30T07:52:24Z</time>
      </trkpt>
      <trkpt lat="45.643124" lon="5.920172">
        <ele>285.56155</ele>
        <time>2021-06-30T07:52:25Z</time>
      </trkpt>
      <trkpt lat="45.642780" lon="5.920165">
        <ele>284.98117</ele>
        <time>2021-06-30T07:52:26Z</time>
      </trkpt>
      <trkpt lat="45.642429" lon="5.920173">
        <ele>284.27536</ele>
        <time>2021-06-30T07:52:27Z</time>
      </trkpt>
      <trkpt lat="45.642059" lon="5.920182">
        <ele>284.11038</ele>
        <time>2021-06-30T07:52:28Z</time>
      </trkpt>
      <trkpt lat="45.641685" lon="5.920184">
        <ele>283.96378</ele>
        <time>2021-06-30T07:52:29Z</time>
      </trkpt>
      <trkpt lat="45.641315" lon="5.920183">
        <ele>283.56949</ele>
        <time>2021-06-30T07:52:30Z</time>
      </trkpt>
      <trkpt lat="45.640945" lon="5.920183">
        <ele>282.95389</ele>
        <time>2021-06-30T07:52:31Z</time>
      </trkpt>
      <trkpt lat="45.640594" lon="5.920176">
        <ele>282.40189</ele>
        <time>2021-06-30T07:52:32Z</time>
      </trkpt>
      <trkpt lat="45.640240" lon="5.920161">
        <ele>281.61563</ele>
        <time>2021-06-30T07:52:33Z</time>
      </trkpt>
      <trkpt lat="45.639866" lon="5.920135">
        <ele>281.50620</ele>
        <time>2021-06-30T07:52:34Z</time>
      </trkpt>
      <trkpt lat="45.639523" lon="5.920097">
        <ele>279.86502</ele>
        <time>2021-06-30T07:52:35Z</time>
      </trkpt>
      <trkpt lat="45.639172" lon="5.920035">
        <ele>279.30783</ele>
        <time>2021-06-30T07:52:36Z</time>
      </trkpt>
      <trkpt lat="45.638790" lon="5.919955">
        <ele>279.01755</ele>
        <time>2021-06-30T07:52:37Z</time>
      </trkpt>
      <trkpt lat="45.638428" lon="5.919850">
        <ele>278.56259</ele>
        <time>2021-06-30T07:52:38Z</time>
      </trkpt>
      <trkpt lat="45.638065" lon="5.919727">
        <ele>278.17764</ele>
        <time>2021-06-30T07:52:39Z</time>
      </trkpt>
      <trkpt lat="45.637722" lon="5.919586">
        <ele>277.15256</ele>
        <time>2021-06-30T07:52:40Z</time>
      </trkpt>
      <trkpt lat="45.637375" lon="5.919425">
        <ele>277.00589</ele>
        <time>2021-06-30T07:52:41Z</time>
      </trkpt>
      <trkpt lat="45.637032" lon="5.919249">
        <ele>276.69766</ele>
        <time>2021-06-30T07:52:42Z</time>
      </trkpt>
      <trkpt lat="45.636696" lon="5.919041">
        <ele>275.88492</ele>
        <time>2021-06-30T07:52:43Z</time>
      </trkpt>
      <trkpt lat="45.636696" lon="5.919041">
        <ele>275.58658</ele>
        <time>2021-06-30T07:52:44Z</time>
      </trkpt>
      <trkpt lat="45.636360" lon="5.918827">
        <ele>274.65402</ele>
        <time>2021-06-30T07:52:45Z</time>
      </trkpt>
      <trkpt lat="45.636040" lon="5.918593">
        <ele>274.44937</ele>
        <time>2021-06-30T07:52:46Z</time>
      </trkpt>
      <trkpt lat="45.635719" lon="5.918333">
        <ele>274.36234</ele>
        <time>2021-06-30T07:52:47Z</time>
      </trkpt>
      <trkpt lat="45.635433" lon="5.918070">
        <ele>274.76126</ele>
        <time>2021-06-30T07:52:48Z</time>
      </trkpt>
      <trkpt lat="45.635128" lon="5.917764">
        <ele>275.00754</ele>
        <time>2021-06-30T07:52:49Z</time>
      </trkpt>
      <trkpt lat="45.634850" lon="5.917460">
        <ele>274.28232</ele>
        <time>2021-06-30T07:52:50Z</time>
      </trkpt>
      <trkpt lat="45.634548" lon="5.917128">
        <ele>275.22879</ele>
        <time>2021-06-30T07:52:51Z</time>
      </trkpt>
      <trkpt lat="45.634300" lon="5.916814">
        <ele>276.46780</ele>
        <time>2021-06-30T07:52:52Z</time>
      </trkpt>
      <trkpt lat="45.634033" lon="5.916445">
        <ele>278.54599</ele>
        <time>2021-06-30T07:52:53Z</time>
      </trkpt>
      <trkpt lat="45.633785" lon="5.916068">
        <ele>280.60318</ele>
        <time>2021-06-30T07:52:54Z</time>
      </trkpt>
      <trkpt lat="45.633572" lon="5.915699">
        <ele>282.19803</ele>
        <time>2021-06-30T07:52:55Z</time>
      </trkpt>
      <trkpt lat="45.633354" lon="5.915296">
        <ele>283.78732</ele>
        <time>2021-06-30T07:52:56Z</time>
      </trkpt>
      <trkpt lat="45.633125" lon="5.914867">
        <ele>287.19327</ele>
        <time>2021-06-30T07:52:57Z</time>
      </trkpt>
      <trkpt lat="45.632912" lon="5.914429">
        <ele>290.10715</ele>
        <time>2021-06-30T07:52:58Z</time>
      </trkpt>
      <trkpt lat="45.632729" lon="5.914011">
        <ele>293.01376</ele>
        <time>2021-06-30T07:52:59Z</time>
      </trkpt>
      <trkpt lat="45.632549" lon="5.913573">
        <ele>295.48441</ele>
        <time>2021-06-30T07:53:00Z</time>
      </trkpt>
      <trkpt lat="45.632385" lon="5.913125">
        <ele>297.79636</ele>
        <time>2021-06-30T07:53:01Z</time>
      </trkpt>
      <trkpt lat="45.632233" lon="5.912660">
        <ele>300.46414</ele>
        <time>2021-06-30T07:53:02Z</time>
      </trkpt>
      <trkpt lat="45.632088" lon="5.912175">
        <ele>302.83682</ele>
        <time>2021-06-30T07:53:03Z</time>
      </trkpt>
      <trkpt lat="45.631962" lon="5.911713">
        <ele>305.13608</ele>
        <time>2021-06-30T07:53:04Z</time>
      </trkpt>
      <trkpt lat="45.631847" lon="5.911226">
        <ele>307.35202</ele>
        <time>2021-06-30T07:53:05Z</time>
      </trkpt>
      <trkpt lat="45.631744" lon="5.910723">
        <ele>310.05460</ele>
        <time>2021-06-30T07:53:06Z</time>
      </trkpt>
      <trkpt lat="45.631653" lon="5.910251">
        <ele>312.07120</ele>
        <time>2021-06-30T07:53:07Z</time>
      </trkpt>
      <trkpt lat="45.631565" lon="5.909771">
        <ele>314.03476</ele>
        <time>2021-06-30T07:53:08Z</time>
      </trkpt>
      <trkpt lat="45.631485" lon="5.909324">
        <ele>314.51895</ele>
        <time>2021-06-30T07:53:09Z</time>
      </trkpt>
      <trkpt lat="45.631413" lon="5.908925">
        <ele>317.11197</ele>
        <time>2021-06-30T07:53:10Z</time>
      </trkpt>
      <trkpt lat="45.631336" lon="5.908542">
        <ele>318.41385</ele>
        <time>2021-06-30T07:53:11Z</time>
      </trkpt>
      <trkpt lat="45.631275" lon="5.908234">
        <ele>319.93570</ele>
        <time>2021-06-30T07:53:12Z</time>
      </trkpt>
      <trkpt lat="45.631184" lon="5.907833">
        <ele>322.18753</ele>
        <time>2021-06-30T07:53:13Z</time>
      </trkpt>
      <trkpt lat="45.631184" lon="5.907833">
        <ele>323.96194</ele>
        <time>2021-06-30T07:53:14Z</time>
      </trkpt>
      <trkpt lat="45.631084" lon="5.907445">
        <ele>325.29520</ele>
        <time>2021-06-30T07:53:15Z</time>
      </trkpt>
      <trkpt lat="45.630989" lon="5.907093">
        <ele>326.49490</ele>
        <time>2021-06-30T07:53:16Z</time>
      </trkpt>
      <trkpt lat="45.630886" lon="5.906754">
        <ele>327.13004</ele>
        <time>2021-06-30T07:53:17Z</time>
      </trkpt>
      <trkpt lat="45.630764" lon="5.906388">
        <ele>329.07614</ele>
        <time>2021-06-30T07:53:18Z</time>
      </trkpt>
      <trkpt lat="45.630634" lon="5.906016">
        <ele>329.89749</ele>
        <time>2021-06-30T07:53:19Z</time>
      </trkpt>
      <trkpt lat="45.630489" lon="5.905643">
        <ele>330.32217</ele>
        <time>2021-06-30T07:53:20Z</time>
      </trkpt>
      <trkpt lat="45.630333" lon="5.905266">
        <ele>331.30472</ele>
        <time>2021-06-30T07:53:21Z</time>
      </trkpt>
      <trkpt lat="45.630165" lon="5.904885">
        <ele>332.28934</ele>
        <time>2021-06-30T07:53:22Z</time>
      </trkpt>
      <trkpt lat="45.629971" lon="5.904483">
        <ele>333.42557</ele>
        <time>2021-06-30T07:53:23Z</time>
      </trkpt>
      <trkpt lat="45.629757" lon="5.904076">
        <ele>335.14932</ele>
        <time>2021-06-30T07:53:24Z</time>
      </trkpt>
      <trkpt lat="45.629536" lon="5.903693">
        <ele>336.69803</ele>
        <time>2021-06-30T07:53:25Z</time>
      </trkpt>
      <trkpt lat="45.629284" lon="5.903301">
        <ele>338.93521</ele>
        <time>2021-06-30T07:53:26Z</time>
      </trkpt>
      <trkpt lat="45.629040" lon="5.902925">
        <ele>340.77322</ele>
        <time>2021-06-30T07:53:27Z</time>
      </trkpt>
      <trkpt lat="45.628777" lon="5.902566">
        <ele>341.85739</ele>
        <time>2021-06-30T07:53:28Z</time>
      </trkpt>
      <trkpt lat="45.628510" lon="5.902226">
        <ele>342.49954</ele>
        <time>2021-06-30T07:53:29Z</time>
      </trkpt>
      <trkpt lat="45.628208" lon="5.901878">
        <ele>343.21426</ele>
        <time>2021-06-30T07:53:30Z</time>
      </trkpt>
      <trkpt lat="45.627918" lon="5.901565">
        <ele>344.14236</ele>
        <time>2021-06-30T07:53:31Z</time>
      </trkpt>
      <trkpt lat="45.627625" lon="5.901281">
        <ele>344.21066</ele>
        <time>2021-06-30T07:53:32Z</time>
      </trkpt>
      <trkpt lat="45.627308" lon="5.901010">
        <ele>344.18619</ele>
        <time>2021-06-30T07:53:33Z</time>
      </trkpt>
      <trkpt lat="45.626965" lon="5.900747">
        <ele>343.93228</ele>
        <time>2021-06-30T07:53:34Z</time>
      </trkpt>
      <trkpt lat="45.626637" lon="5.900533">
        <ele>343.36508</ele>
        <time>2021-06-30T07:53:35Z</time>
      </trkpt>
      <trkpt lat="45.626278" lon="5.900324">
        <ele>343.33755</ele>
        <time>2021-06-30T07:53:36Z</time>
      </trkpt>
      <trkpt lat="45.625950" lon="5.900155">
        <ele>342.92178</ele>
        <time>2021-06-30T07:53:37Z</time>
      </trkpt>
      <trkpt lat="45.625580" lon="5.900004">
        <ele>342.00412</ele>
        <time>2021-06-30T07:53:38Z</time>
      </trkpt>
      <trkpt lat="45.625214" lon="5.899878">
        <ele>341.45157</ele>
        <time>2021-06-30T07:53:39Z</time>
      </trkpt>
      <trkpt lat="45.624863" lon="5.899782">
        <ele>339.93448</ele>
        <time>2021-06-30T07:53:40Z</time>
      </trkpt>
      <trkpt lat="45.624512" lon="5.899718">
        <ele>338.25089</ele>
        <time>2021-06-30T07:53:41Z</time>
      </trkpt>
      <trkpt lat="45.624512" lon="5.899718">
        <ele>336.70065</ele>
        <time>2021-06-30T07:53:42Z</time>
      </trkpt>
      <trkpt lat="45.624184" lon="5.899664">
        <ele>334.49045</ele>
        <time>2021-06-30T07:53:43Z</time>
      </trkpt>
      <trkpt lat="45.623859" lon="5.899625">
        <ele>332.95889</ele>
        <time>2021-06-30T07:53:44Z</time>
      </trkpt>
      <trkpt lat="45.623543" lon="5.899586">
        <ele>331.36563</ele>
        <time>2021-06-30T07:53:45Z</time>
      </trkpt>
      <trkpt lat="45.623222" lon="5.899546">
        <ele>329.82529</ele>
        <time>2021-06-30T07:53:46Z</time>
      </trkpt>
      <trkpt lat="45.622906" lon="5.899505">
        <ele>328.31229</ele>
        <time>2021-06-30T07:53:47Z</time>
      </trkpt>
      <trkpt lat="45.622585" lon="5.899450">
        <ele>326.40616</ele>
        <time>2021-06-30T07:53:48Z</time>
      </trkpt>
      <trkpt lat="45.622261" lon="5.899384">
        <ele>325.34457</ele>
        <time>2021-06-30T07:53:49Z</time>
      </trkpt>
      <trkpt lat="45.621941" lon="5.899299">
        <ele>324.56412</ele>
        <time>2021-06-30T07:53:50Z</time>
      </trkpt>
      <trkpt lat="45.621624" lon="5.899199">
        <ele>323.12833</ele>
        <time>2021-06-30T07:53:51Z</time>
      </trkpt>
      <trkpt lat="45.621338" lon="5.899097">
        <ele>322.28641</ele>
        <time>2021-06-30T07:53:52Z</time>
      </trkpt>
      <trkpt lat="45.621052" lon="5.898978">
        <ele>320.65695</ele>
        <time>2021-06-30T07:53:53Z</time>
      </trkpt>
      <trkpt lat="45.620750" lon="5.898834">
        <ele>319.24197</ele>
        <time>2021-06-30T07:53:54Z</time>
      </trkpt>
      <trkpt lat="45.620468" lon="5.898697">
        <ele>317.72635</ele>
        <time>2021-06-30T07:53:55Z</time>
      </trkpt>
      <trkpt lat="45.620178" lon="5.898551">
        <ele>316.16360</ele>
        <time>2021-06-30T07:53:56Z</time>
      </trkpt>
      <trkpt lat="45.619877" lon="5.898390">
        <ele>314.88742</ele>
        <time>2021-06-30T07:53:57Z</time>
      </trkpt>
      <trkpt lat="45.619598" lon="5.898242">
        <ele>313.23221</ele>
        <time>2021-06-30T07:53:58Z</time>
      </trkpt>
      <trkpt lat="45.619289" lon="5.898086">
        <ele>313.32819</ele>
        <time>2021-06-30T07:53:59Z</time>
      </trkpt>
      <trkpt lat="45.618996" lon="5.897950">
        <ele>312.30597</ele>
        <time>2021-06-30T07:54:00Z</time>
      </trkpt>
      <trkpt lat="45.618671" lon="5.897805">
        <ele>311.49072</ele>
        <time>2021-06-30T07:54:01Z</time>
      </trkpt>
      <trkpt lat="45.618351" lon="5.897697">
        <ele>309.51617</ele>
        <time>2021-06-30T07:54:02Z</time>
      </trkpt>
      <trkpt lat="45.618042" lon="5.897592">
        <ele>308.28540</ele>
        <time>2021-06-30T07:54:03Z</time>
      </trkpt>
      <trkpt lat="45.617744" lon="5.897496">
        <ele>307.28442</ele>
        <time>2021-06-30T07:54:04Z</time>
      </trkpt>
      <trkpt lat="45.617432" lon="5.897404">
        <ele>306.47943</ele>
        <time>2021-06-30T07:54:05Z</time>
      </trkpt>
      <trkpt lat="45.617126" lon="5.897315">
        <ele>305.58026</ele>
        <time>2021-06-30T07:54:06Z</time>
      </trkpt>
      <trkpt lat="45.616810" lon="5.897221">
        <ele>304.71088</ele>
        <time>2021-06-30T07:54:07Z</time>
      </trkpt>
      <trkpt lat="45.616505" lon="5.897132">
        <ele>303.36700</ele>
        <time>2021-06-30T07:54:08Z</time>
      </trkpt>
      <trkpt lat="45.616184" lon="5.897037">
        <ele>301.81061</ele>
        <time>2021-06-30T07:54:09Z</time>
      </trkpt>
      <trkpt lat="45.615875" lon="5.896932">
        <ele>298.87177</ele>
        <time>2021-06-30T07:54:10Z</time>
      </trkpt>
      <trkpt lat="45.615875" lon="5.896932">
        <ele>297.43311</ele>
        <time>2021-06-30T07:54:11Z</time>
      </trkpt>
      <trkpt lat="45.615578" lon="5.896825">
        <ele>294.31451</ele>
        <time>2021-06-30T07:54:12Z</time>
      </trkpt>
      <trkpt lat="45.615299" lon="5.896718">
        <ele>292.80524</ele>
        <time>2021-06-30T07:54:13Z</time>
      </trkpt>
      <trkpt lat="45.615002" lon="5.896606">
        <ele>290.55450</ele>
        <time>2021-06-30T07:54:14Z</time>
      </trkpt>
      <trkpt lat="45.614716" lon="5.896481">
        <ele>288.66174</ele>
        <time>2021-06-30T07:54:15Z</time>
      </trkpt>
      <trkpt lat="45.614414" lon="5.896346">
        <ele>286.14899</ele>
        <time>2021-06-30T07:54:16Z</time>
      </trkpt>
      <trkpt lat="45.614140" lon="5.896205">
        <ele>283.16779</ele>
        <time>2021-06-30T07:54:17Z</time>
      </trkpt>
      <trkpt lat="45.613853" lon="5.896056">
        <ele>281.02423</ele>
        <time>2021-06-30T07:54:18Z</time>
      </trkpt>
      <trkpt lat="45.613552" lon="5.895899">
        <ele>279.44781</ele>
        <time>2021-06-30T07:54:19Z</time>
      </trkpt>
      <trkpt lat="45.613270" lon="5.895749">
        <ele>277.39716</ele>
        <time>2021-06-30T07:54:20Z</time>
      </trkpt>
      <trkpt lat="45.612965" lon="5.895572">
        <ele>275.50244</ele>
        <time>2021-06-30T07:54:21Z</time>
      </trkpt>
      <trkpt lat="45.612640" lon="5.895368">
        <ele>273.25092</ele>
        <time>2021-06-30T07:54:22Z</time>
      </trkpt>
      <trkpt lat="45.612316" lon="5.895154">
        <ele>270.97626</ele>
        <time>2021-06-30T07:54:23Z</time>
      </trkpt>
      <trkpt lat="45.611996" lon="5.894929">
        <ele>269.41376</ele>
        <time>2021-06-30T07:54:24Z</time>
      </trkpt>
      <trkpt lat="45.611683" lon="5.894706">
        <ele>267.60114</ele>
        <time>2021-06-30T07:54:25Z</time>
      </trkpt>
      <trkpt lat="45.611366" lon="5.894462">
        <ele>265.31439</ele>
        <time>2021-06-30T07:54:26Z</time>
      </trkpt>
      <trkpt lat="45.611057" lon="5.894212">
        <ele>262.63904</ele>
        <time>2021-06-30T07:54:27Z</time>
      </trkpt>
      <trkpt lat="45.610725" lon="5.893938">
        <ele>261.94647</ele>
        <time>2021-06-30T07:54:28Z</time>
      </trkpt>
      <trkpt lat="45.610416" lon="5.893659">
        <ele>260.51788</ele>
        <time>2021-06-30T07:54:29Z</time>
      </trkpt>
      <trkpt lat="45.610126" lon="5.893386">
        <ele>259.66327</ele>
        <time>2021-06-30T07:54:30Z</time>
      </trkpt>
      <trkpt lat="45.609844" lon="5.893079">
        <ele>258.76740</ele>
        <time>2021-06-30T07:54:31Z</time>
      </trkpt>
      <trkpt lat="45.609554" lon="5.892741">
        <ele>257.68488</ele>
        <time>2021-06-30T07:54:32Z</time>
      </trkpt>
      <trkpt lat="45.609272" lon="5.892393">
        <ele>257.04388</ele>
        <time>2021-06-30T07:54:33Z</time>
      </trkpt>
      <trkpt lat="45.609020" lon="5.892061">
        <ele>256.48615</ele>
        <time>2021-06-30T07:54:34Z</time>
      </trkpt>
      <trkpt lat="45.608761" lon="5.891696">
        <ele>256.73944</ele>
        <time>2021-06-30T07:54:35Z</time>
      </trkpt>
      <trkpt lat="45.608509" lon="5.891329">
        <ele>256.95740</ele>
        <time>2021-06-30T07:54:36Z</time>
      </trkpt>
      <trkpt lat="45.608269" lon="5.890959">
        <ele>256.94562</ele>
        <time>2021-06-30T07:54:37Z</time>
      </trkpt>
      <trkpt lat="45.608028" lon="5.890578">
        <ele>257.19232</ele>
        <time>2021-06-30T07:54:38Z</time>
      </trkpt>
      <trkpt lat="45.607773" lon="5.890177">
        <ele>257.36261</ele>
        <time>2021-06-30T07:54:39Z</time>
      </trkpt>
      <trkpt lat="45.607536" lon="5.889805">
        <ele>257.31824</ele>
        <time>2021-06-30T07:54:40Z</time>
      </trkpt>
      <trkpt lat="45.607292" lon="5.889417">
        <ele>257.62878</ele>
        <time>2021-06-30T07:54:41Z</time>
      </trkpt>
      <trkpt lat="45.607056" lon="5.889028">
        <ele>257.90314</ele>
        <time>2021-06-30T07:54:42Z</time>
      </trkpt>
      <trkpt lat="45.606815" lon="5.888629">
        <ele>257.83398</ele>
        <time>2021-06-30T07:54:43Z</time>
      </trkpt>
      <trkpt lat="45.606583" lon="5.888227">
        <ele>258.13226</ele>
        <time>2021-06-30T07:54:44Z</time>
      </trkpt>
      <trkpt lat="45.606583" lon="5.888227">
        <ele>258.26562</ele>
        <time>2021-06-30T07:54:45Z</time>
      </trkpt>
      <trkpt lat="45.606361" lon="5.887846">
        <ele>258.51453</ele>
        <time>2021-06-30T07:54:46Z</time>
      </trkpt>
      <trkpt lat="45.606136" lon="5.887448">
        <ele>258.49982</ele>
        <time>2021-06-30T07:54:47Z</time>
      </trkpt>
      <trkpt lat="45.605904" lon="5.887022">
        <ele>258.37500</ele>
        <time>2021-06-30T07:54:48Z</time>
      </trkpt>
      <trkpt lat="45.605682" lon="5.886616">
        <ele>258.70526</ele>
        <time>2021-06-30T07:54:49Z</time>
      </trkpt>
      <trkpt lat="45.605461" lon="5.886187">
        <ele>258.97192</ele>
        <time>2021-06-30T07:54:50Z</time>
      </trkpt>
      <trkpt lat="45.605244" lon="5.885759">
        <ele>259.40509</ele>
        <time>2021-06-30T07:54:51Z</time>
      </trkpt>
      <trkpt lat="45.605042" lon="5.885344">
        <ele>258.71722</ele>
        <time>2021-06-30T07:54:52Z</time>
      </trkpt>
      <trkpt lat="45.604843" lon="5.884911">
        <ele>259.35175</ele>
        <time>2021-06-30T07:54:53Z</time>
      </trkpt>
      <trkpt lat="45.604649" lon="5.884481">
        <ele>259.31830</ele>
        <time>2021-06-30T07:54:54Z</time>
      </trkpt>
      <trkpt lat="45.604458" lon="5.884033">
        <ele>260.03400</ele>
        <time>2021-06-30T07:54:55Z</time>
      </trkpt>
      <trkpt lat="45.604279" lon="5.883573">
        <ele>260.64630</ele>
        <time>2021-06-30T07:54:56Z</time>
      </trkpt>
      <trkpt lat="45.604103" lon="5.883122">
        <ele>260.85040</ele>
        <time>2021-06-30T07:54:57Z</time>
      </trkpt>
      <trkpt lat="45.603939" lon="5.882664">
        <ele>261.01746</ele>
        <time>2021-06-30T07:54:58Z</time>
      </trkpt>
      <trkpt lat="45.603790" lon="5.882207">
        <ele>261.02460</ele>
        <time>2021-06-30T07:54:59Z</time>
      </trkpt>
      <trkpt lat="45.603638" lon="5.881709">
        <ele>261.19928</ele>
        <time>2021-06-30T07:55:00Z</time>
      </trkpt>
      <trkpt lat="45.603504" lon="5.881265">
        <ele>261.82434</ele>
        <time>2021-06-30T07:55:01Z</time>
      </trkpt>
      <trkpt lat="45.603371" lon="5.880778">
        <ele>261.15375</ele>
        <time>2021-06-30T07:55:02Z</time>
      </trkpt>
      <trkpt lat="45.603252" lon="5.880290">
        <ele>261.26544</ele>
        <time>2021-06-30T07:55:03Z</time>
      </trkpt>
      <trkpt lat="45.603149" lon="5.879804">
        <ele>261.64117</ele>
        <time>2021-06-30T07:55:04Z</time>
      </trkpt>
      <trkpt lat="45.603073" lon="5.879419">
        <ele>262.32098</ele>
        <time>2021-06-30T07:55:05Z</time>
      </trkpt>
      <trkpt lat="45.603004" lon="5.879009">
        <ele>262.66217</ele>
        <time>2021-06-30T07:55:06Z</time>
      </trkpt>
      <trkpt lat="45.602943" lon="5.878633">
        <ele>262.84406</ele>
        <time>2021-06-30T07:55:07Z</time>
      </trkpt>
      <trkpt lat="45.602901" lon="5.878221">
        <ele>264.11041</ele>
        <time>2021-06-30T07:55:08Z</time>
      </trkpt>
      <trkpt lat="45.602859" lon="5.877802">
        <ele>264.48108</ele>
        <time>2021-06-30T07:55:09Z</time>
      </trkpt>
      <trkpt lat="45.602829" lon="5.877393">
        <ele>265.15350</ele>
        <time>2021-06-30T07:55:10Z</time>
      </trkpt>
      <trkpt lat="45.602802" lon="5.876944">
        <ele>265.82990</ele>
        <time>2021-06-30T07:55:11Z</time>
      </trkpt>
      <trkpt lat="45.602779" lon="5.876517">
        <ele>266.87787</ele>
        <time>2021-06-30T07:55:12Z</time>
      </trkpt>
      <trkpt lat="45.602768" lon="5.876072">
        <ele>267.78583</ele>
        <time>2021-06-30T07:55:13Z</time>
      </trkpt>
      <trkpt lat="45.602768" lon="5.876072">
        <ele>268.36005</ele>
        <time>2021-06-30T07:55:14Z</time>
      </trkpt>
      <trkpt lat="45.602776" lon="5.875618">
        <ele>269.51263</ele>
        <time>2021-06-30T07:55:15Z</time>
      </trkpt>
      <trkpt lat="45.602791" lon="5.875179">
        <ele>270.17657</ele>
        <time>2021-06-30T07:55:16Z</time>
      </trkpt>
      <trkpt lat="45.602810" lon="5.874743">
        <ele>270.86572</ele>
        <time>2021-06-30T07:55:17Z</time>
      </trkpt>
      <trkpt lat="45.602837" lon="5.874300">
        <ele>271.47461</ele>
        <time>2021-06-30T07:55:18Z</time>
      </trkpt>
      <trkpt lat="45.602882" lon="5.873848">
        <ele>272.23425</ele>
        <time>2021-06-30T07:55:19Z</time>
      </trkpt>
      <trkpt lat="45.602928" lon="5.873412">
        <ele>272.89539</ele>
        <time>2021-06-30T07:55:20Z</time>
      </trkpt>
      <trkpt lat="45.602993" lon="5.872988">
        <ele>272.89362</ele>
        <time>2021-06-30T07:55:21Z</time>
      </trkpt>
      <trkpt lat="45.603058" lon="5.872562">
        <ele>274.05365</ele>
        <time>2021-06-30T07:55:22Z</time>
      </trkpt>
      <trkpt lat="45.603134" lon="5.872137">
        <ele>275.16669</ele>
        <time>2021-06-30T07:55:23Z</time>
      </trkpt>
      <trkpt lat="45.603226" lon="5.871699">
        <ele>275.36737</ele>
        <time>2021-06-30T07:55:24Z</time>
      </trkpt>
      <trkpt lat="45.603329" lon="5.871267">
        <ele>275.79279</ele>
        <time>2021-06-30T07:55:25Z</time>
      </trkpt>
      <trkpt lat="45.603439" lon="5.870813">
        <ele>276.99707</ele>
        <time>2021-06-30T07:55:26Z</time>
      </trkpt>
      <trkpt lat="45.603561" lon="5.870390">
        <ele>277.70673</ele>
        <time>2021-06-30T07:55:27Z</time>
      </trkpt>
      <trkpt lat="45.603687" lon="5.869977">
        <ele>278.63336</ele>
        <time>2021-06-30T07:55:28Z</time>
      </trkpt>
      <trkpt lat="45.603821" lon="5.869547">
        <ele>279.10822</ele>
        <time>2021-06-30T07:55:29Z</time>
      </trkpt>
      <trkpt lat="45.603947" lon="5.869130">
        <ele>279.77850</ele>
        <time>2021-06-30T07:55:30Z</time>
      </trkpt>
      <trkpt lat="45.604069" lon="5.868727">
        <ele>280.53998</ele>
        <time>2021-06-30T07:55:31Z</time>
      </trkpt>
      <trkpt lat="45.604195" lon="5.868298">
        <ele>280.80231</ele>
        <time>2021-06-30T07:55:32Z</time>
      </trkpt>
      <trkpt lat="45.604298" lon="5.867885">
        <ele>281.28607</ele>
        <time>2021-06-30T07:55:33Z</time>
      </trkpt>
      <trkpt lat="45.604393" lon="5.867432">
        <ele>280.97772</ele>
        <time>2021-06-30T07:55:34Z</time>
      </trkpt>
      <trkpt lat="45.604469" lon="5.866988">
        <ele>280.92780</ele>
        <time>2021-06-30T07:55:35Z</time>
      </trkpt>
      <trkpt lat="45.604530" lon="5.866527">
        <ele>281.28265</ele>
        <time>2021-06-30T07:55:36Z</time>
      </trkpt>
      <trkpt lat="45.604576" lon="5.866082">
        <ele>281.31927</ele>
        <time>2021-06-30T07:55:37Z</time>
      </trkpt>
      <trkpt lat="45.604610" lon="5.865604">
        <ele>281.57904</ele>
        <time>2021-06-30T07:55:38Z</time>
      </trkpt>
      <trkpt lat="45.604618" lon="5.865135">
        <ele>282.07159</ele>
        <time>2021-06-30T07:55:39Z</time>
      </trkpt>
      <trkpt lat="45.604614" lon="5.864641">
        <ele>282.28522</ele>
        <time>2021-06-30T07:55:40Z</time>
      </trkpt>
      <trkpt lat="45.604588" lon="5.864117">
        <ele>283.00714</ele>
        <time>2021-06-30T07:55:41Z</time>
      </trkpt>
      <trkpt lat="45.604538" lon="5.863612">
        <ele>283.64471</ele>
        <time>2021-06-30T07:55:42Z</time>
      </trkpt>
      <trkpt lat="45.604473" lon="5.863127">
        <ele>284.73578</ele>
        <time>2021-06-30T07:55:43Z</time>
      </trkpt>
      <trkpt lat="45.604397" lon="5.862667">
        <ele>286.22272</ele>
        <time>2021-06-30T07:55:44Z</time>
      </trkpt>
      <trkpt lat="45.604294" lon="5.862192">
        <ele>288.05457</ele>
        <time>2021-06-30T07:55:45Z</time>
      </trkpt>
      <trkpt lat="45.604176" lon="5.861706">
        <ele>289.81885</ele>
        <time>2021-06-30T07:55:46Z</time>
      </trkpt>
      <trkpt lat="45.604034" lon="5.861254">
        <ele>291.17328</ele>
        <time>2021-06-30T07:55:47Z</time>
      </trkpt>
      <trkpt lat="45.604034" lon="5.861254">
        <ele>292.60767</ele>
        <time>2021-06-30T07:55:48Z</time>
      </trkpt>
      <trkpt lat="45.603878" lon="5.860810">
        <ele>294.04211</ele>
        <time>2021-06-30T07:55:49Z</time>
      </trkpt>
      <trkpt lat="45.603710" lon="5.860389">
        <ele>295.36200</ele>
        <time>2021-06-30T07:55:50Z</time>
      </trkpt>
      <trkpt lat="45.603527" lon="5.859967">
        <ele>296.53510</ele>
        <time>2021-06-30T07:55:51Z</time>
      </trkpt>
      <trkpt lat="45.603317" lon="5.859566">
        <ele>298.17059</ele>
        <time>2021-06-30T07:55:52Z</time>
      </trkpt>
      <trkpt lat="45.603104" lon="5.859171">
        <ele>299.70361</ele>
        <time>2021-06-30T07:55:53Z</time>
      </trkpt>
      <trkpt lat="45.602867" lon="5.858805">
        <ele>301.23505</ele>
        <time>2021-06-30T07:55:54Z</time>
      </trkpt>
      <trkpt lat="45.602631" lon="5.858464">
        <ele>302.91156</ele>
        <time>2021-06-30T07:55:55Z</time>
      </trkpt>
      <trkpt lat="45.602364" lon="5.858135">
        <ele>304.74725</ele>
        <time>2021-06-30T07:55:56Z</time>
      </trkpt>
      <trkpt lat="45.602100" lon="5.857843">
        <ele>306.54016</ele>
        <time>2021-06-30T07:55:57Z</time>
      </trkpt>
      <trkpt lat="45.601822" lon="5.857557">
        <ele>308.46790</ele>
        <time>2021-06-30T07:55:58Z</time>
      </trkpt>
      <trkpt lat="45.601543" lon="5.857302">
        <ele>309.54181</ele>
        <time>2021-06-30T07:55:59Z</time>
      </trkpt>
      <trkpt lat="45.601257" lon="5.857084">
        <ele>311.55426</ele>
        <time>2021-06-30T07:56:00Z</time>
      </trkpt>
      <trkpt lat="45.600960" lon="5.856862">
        <ele>313.52148</ele>
        <time>2021-06-30T07:56:01Z</time>
      </trkpt>
      <trkpt lat="45.600666" lon="5.856688">
        <ele>315.44550</ele>
        <time>2021-06-30T07:56:02Z</time>
      </trkpt>
      <trkpt lat="45.600330" lon="5.856516">
        <ele>317.69403</ele>
        <time>2021-06-30T07:56:03Z</time>
      </trkpt>
      <trkpt lat="45.600018" lon="5.856369">
        <ele>320.14844</ele>
        <time>2021-06-30T07:56:04Z</time>
      </trkpt>
      <trkpt lat="45.599674" lon="5.856237">
        <ele>322.15204</ele>
        <time>2021-06-30T07:56:05Z</time>
      </trkpt>
      <trkpt lat="45.599346" lon="5.856137">
        <ele>323.69904</ele>
        <time>2021-06-30T07:56:06Z</time>
      </trkpt>
      <trkpt lat="45.599014" lon="5.856046">
        <ele>324.47748</ele>
        <time>2021-06-30T07:56:07Z</time>
      </trkpt>
      <trkpt lat="45.598682" lon="5.855978">
        <ele>325.39008</ele>
        <time>2021-06-30T07:56:08Z</time>
      </trkpt>
      <trkpt lat="45.598366" lon="5.855922">
        <ele>325.71844</ele>
        <time>2021-06-30T07:56:09Z</time>
      </trkpt>
      <trkpt lat="45.598038" lon="5.855889">
        <ele>326.18332</ele>
        <time>2021-06-30T07:56:10Z</time>
      </trkpt>
      <trkpt lat="45.597713" lon="5.855863">
        <ele>327.82217</ele>
        <time>2021-06-30T07:56:11Z</time>
      </trkpt>
      <trkpt lat="45.597359" lon="5.855835">
        <ele>329.06412</ele>
        <time>2021-06-30T07:56:12Z</time>
      </trkpt>
      <trkpt lat="45.597019" lon="5.855823">
        <ele>329.95157</ele>
        <time>2021-06-30T07:56:13Z</time>
      </trkpt>
      <trkpt lat="45.596668" lon="5.855823">
        <ele>331.62894</ele>
        <time>2021-06-30T07:56:14Z</time>
      </trkpt>
      <trkpt lat="45.596333" lon="5.855832">
        <ele>332.64273</ele>
        <time>2021-06-30T07:56:15Z</time>
      </trkpt>
      <trkpt lat="45.596004" lon="5.855847">
        <ele>333.26871</ele>
        <time>2021-06-30T07:56:16Z</time>
      </trkpt>
      <trkpt lat="45.595642" lon="5.855879">
        <ele>334.28311</ele>
        <time>2021-06-30T07:56:17Z</time>
      </trkpt>
      <trkpt lat="45.595306" lon="5.855910">
        <ele>335.49149</ele>
        <time>2021-06-30T07:56:18Z</time>
      </trkpt>
      <trkpt lat="45.594959" lon="5.855943">
        <ele>335.80893</ele>
        <time>2021-06-30T07:56:19Z</time>
      </trkpt>
      <trkpt lat="45.594627" lon="5.855991">
        <ele>338.26492</ele>
        <time>2021-06-30T07:56:20Z</time>
      </trkpt>
      <trkpt lat="45.594627" lon="5.855991">
        <ele>339.62369</ele>
        <time>2021-06-30T07:56:21Z</time>
      </trkpt>
      <trkpt lat="45.594288" lon="5.856040">
        <ele>340.58273</ele>
        <time>2021-06-30T07:56:22Z</time>
      </trkpt>
      <trkpt lat="45.593933" lon="5.856090">
        <ele>341.42984</ele>
        <time>2021-06-30T07:56:23Z</time>
      </trkpt>
      <trkpt lat="45.593613" lon="5.856133">
        <ele>342.32974</ele>
        <time>2021-06-30T07:56:24Z</time>
      </trkpt>
      <trkpt lat="45.593281" lon="5.856179">
        <ele>344.24637</ele>
        <time>2021-06-30T07:56:25Z</time>
      </trkpt>
      <trkpt lat="45.592930" lon="5.856229">
        <ele>345.20932</ele>
        <time>2021-06-30T07:56:26Z</time>
      </trkpt>
      <trkpt lat="45.592606" lon="5.856275">
        <ele>347.03818</ele>
        <time>2021-06-30T07:56:27Z</time>
      </trkpt>
      <trkpt lat="45.592278" lon="5.856320">
        <ele>348.83548</ele>
        <time>2021-06-30T07:56:28Z</time>
      </trkpt>
      <trkpt lat="45.591923" lon="5.856363">
        <ele>350.22830</ele>
        <time>2021-06-30T07:56:29Z</time>
      </trkpt>
      <trkpt lat="45.591557" lon="5.856398">
        <ele>352.31161</ele>
        <time>2021-06-30T07:56:30Z</time>
      </trkpt>
      <trkpt lat="45.591221" lon="5.856426">
        <ele>353.96072</ele>
        <time>2021-06-30T07:56:31Z</time>
      </trkpt>
      <trkpt lat="45.590897" lon="5.856453">
        <ele>355.28433</ele>
        <time>2021-06-30T07:56:32Z</time>
      </trkpt>
      <trkpt lat="45.590565" lon="5.856459">
        <ele>356.85074</ele>
        <time>2021-06-30T07:56:33Z</time>
      </trkpt>
      <trkpt lat="45.590233" lon="5.856466">
        <ele>358.64932</ele>
        <time>2021-06-30T07:56:34Z</time>
      </trkpt>
      <trkpt lat="45.589912" lon="5.856463">
        <ele>359.73111</ele>
        <time>2021-06-30T07:56:35Z</time>
      </trkpt>
      <trkpt lat="45.589584" lon="5.856447">
        <ele>361.50626</ele>
        <time>2021-06-30T07:56:36Z</time>
      </trkpt>
      <trkpt lat="45.589256" lon="5.856418">
        <ele>363.60367</ele>
        <time>2021-06-30T07:56:37Z</time>
      </trkpt>
      <trkpt lat="45.588932" lon="5.856389">
        <ele>364.40970</ele>
        <time>2021-06-30T07:56:38Z</time>
      </trkpt>
      <trkpt lat="45.588615" lon="5.856361">
        <ele>366.01688</ele>
        <time>2021-06-30T07:56:39Z</time>
      </trkpt>
      <trkpt lat="45.588280" lon="5.856307">
        <ele>366.87503</ele>
        <time>2021-06-30T07:56:40Z</time>
      </trkpt>
      <trkpt lat="45.587952" lon="5.856243">
        <ele>368.78860</ele>
        <time>2021-06-30T07:56:41Z</time>
      </trkpt>
      <trkpt lat="45.587646" lon="5.856184">
        <ele>369.89047</ele>
        <time>2021-06-30T07:56:42Z</time>
      </trkpt>
      <trkpt lat="45.587330" lon="5.856115">
        <ele>371.28140</ele>
        <time>2021-06-30T07:56:43Z</time>
      </trkpt>
      <trkpt lat="45.586998" lon="5.856038">
        <ele>372.83096</ele>
        <time>2021-06-30T07:56:44Z</time>
      </trkpt>
      <trkpt lat="45.586666" lon="5.855942">
        <ele>374.28201</ele>
        <time>2021-06-30T07:56:45Z</time>
      </trkpt>
      <trkpt lat="45.586342" lon="5.855835">
        <ele>375.28616</ele>
        <time>2021-06-30T07:56:46Z</time>
      </trkpt>
      <trkpt lat="45.586006" lon="5.855708">
        <ele>376.65958</ele>
        <time>2021-06-30T07:56:47Z</time>
      </trkpt>
      <trkpt lat="45.585690" lon="5.855586">
        <ele>377.79007</ele>
        <time>2021-06-30T07:56:48Z</time>
      </trkpt>
      <trkpt lat="45.585384" lon="5.855457">
        <ele>378.88071</ele>
        <time>2021-06-30T07:56:49Z</time>
      </trkpt>
      <trkpt lat="45.585083" lon="5.855319">
        <ele>379.68106</ele>
        <time>2021-06-30T07:56:50Z</time>
      </trkpt>
      <trkpt lat="45.584782" lon="5.855176">
        <ele>380.35709</ele>
        <time>2021-06-30T07:56:51Z</time>
      </trkpt>
      <trkpt lat="45.584518" lon="5.855031">
        <ele>381.18680</ele>
        <time>2021-06-30T07:56:52Z</time>
      </trkpt>
      <trkpt lat="45.584263" lon="5.854881">
        <ele>382.37686</ele>
        <time>2021-06-30T07:56:53Z</time>
      </trkpt>
      <trkpt lat="45.584000" lon="5.854720">
        <ele>382.82639</ele>
        <time>2021-06-30T07:56:54Z</time>
      </trkpt>
      <trkpt lat="45.583744" lon="5.854539">
        <ele>382.07047</ele>
        <time>2021-06-30T07:56:55Z</time>
      </trkpt>
      <trkpt lat="45.583744" lon="5.854539">
        <ele>382.94321</ele>
        <time>2021-06-30T07:56:56Z</time>
      </trkpt>
      <trkpt lat="45.583492" lon="5.854350">
        <ele>383.19022</ele>
        <time>2021-06-30T07:56:57Z</time>
      </trkpt>
      <trkpt lat="45.583237" lon="5.854145">
        <ele>383.65494</ele>
        <time>2021-06-30T07:56:58Z</time>
      </trkpt>
      <trkpt lat="45.582996" lon="5.853929">
        <ele>384.49295</ele>
        <time>2021-06-30T07:56:59Z</time>
      </trkpt>
      <trkpt lat="45.582745" lon="5.853692">
        <ele>384.50192</ele>
        <time>2021-06-30T07:57:00Z</time>
      </trkpt>
      <trkpt lat="45.582516" lon="5.853449">
        <ele>385.18185</ele>
        <time>2021-06-30T07:57:01Z</time>
      </trkpt>
      <trkpt lat="45.582279" lon="5.853171">
        <ele>385.42960</ele>
        <time>2021-06-30T07:57:02Z</time>
      </trkpt>
      <trkpt lat="45.582066" lon="5.852911">
        <ele>385.87527</ele>
        <time>2021-06-30T07:57:03Z</time>
      </trkpt>
      <trkpt lat="45.581844" lon="5.852604">
        <ele>386.83273</ele>
        <time>2021-06-30T07:57:04Z</time>
      </trkpt>
      <trkpt lat="45.581623" lon="5.852292">
        <ele>387.19998</ele>
        <time>2021-06-30T07:57:05Z</time>
      </trkpt>
      <trkpt lat="45.581448" lon="5.852016">
        <ele>388.18790</ele>
        <time>2021-06-30T07:57:06Z</time>
      </trkpt>
      <trkpt lat="45.581272" lon="5.851724">
        <ele>389.07327</ele>
        <time>2021-06-30T07:57:07Z</time>
      </trkpt>
      <trkpt lat="45.581108" lon="5.851435">
        <ele>390.21140</ele>
        <time>2021-06-30T07:57:08Z</time>
      </trkpt>
      <trkpt lat="45.580952" lon="5.851136">
        <ele>390.94669</ele>
        <time>2021-06-30T07:57:09Z</time>
      </trkpt>
      <trkpt lat="45.580807" lon="5.850838">
        <ele>391.88321</ele>
        <time>2021-06-30T07:57:10Z</time>
      </trkpt>
      <trkpt lat="45.580658" lon="5.850514">
        <ele>393.50345</ele>
        <time>2021-06-30T07:57:11Z</time>
      </trkpt>
      <trkpt lat="45.580517" lon="5.850182">
        <ele>394.65860</ele>
        <time>2021-06-30T07:57:12Z</time>
      </trkpt>
      <trkpt lat="45.580391" lon="5.849840">
        <ele>395.56290</ele>
        <time>2021-06-30T07:57:13Z</time>
      </trkpt>
      <trkpt lat="45.580276" lon="5.849527">
        <ele>395.46640</ele>
        <time>2021-06-30T07:57:14Z</time>
      </trkpt>
      <trkpt lat="45.580170" lon="5.849191">
        <ele>395.74210</ele>
        <time>2021-06-30T07:57:15Z</time>
      </trkpt>
      <trkpt lat="45.580093" lon="5.848879">
        <ele>396.69913</ele>
        <time>2021-06-30T07:57:16Z</time>
      </trkpt>
      <trkpt lat="45.580006" lon="5.848528">
        <ele>397.34988</ele>
        <time>2021-06-30T07:57:17Z</time>
      </trkpt>
      <trkpt lat="45.579929" lon="5.848223">
        <ele>397.58749</ele>
        <time>2021-06-30T07:57:18Z</time>
      </trkpt>
      <trkpt lat="45.579853" lon="5.847884">
        <ele>398.60117</ele>
        <time>2021-06-30T07:57:19Z</time>
      </trkpt>
      <trkpt lat="45.579784" lon="5.847548">
        <ele>399.16074</ele>
        <time>2021-06-30T07:57:20Z</time>
      </trkpt>
      <trkpt lat="45.579716" lon="5.847199">
        <ele>399.70218</ele>
        <time>2021-06-30T07:57:21Z</time>
      </trkpt>
      <trkpt lat="45.579651" lon="5.846879">
        <ele>400.27066</ele>
        <time>2021-06-30T07:57:22Z</time>
      </trkpt>
      <trkpt lat="45.579590" lon="5.846553">
        <ele>400.44437</ele>
        <time>2021-06-30T07:57:23Z</time>
      </trkpt>
      <trkpt lat="45.579521" lon="5.846195">
        <ele>400.46786</ele>
        <time>2021-06-30T07:57:24Z</time>
      </trkpt>
      <trkpt lat="45.579453" lon="5.845832">
        <ele>400.60953</ele>
        <time>2021-06-30T07:57:25Z</time>
      </trkpt>
      <trkpt lat="45.579384" lon="5.845475">
        <ele>401.20187</ele>
        <time>2021-06-30T07:57:26Z</time>
      </trkpt>
      <trkpt lat="45.579315" lon="5.845114">
        <ele>401.38943</ele>
        <time>2021-06-30T07:57:27Z</time>
      </trkpt>
      <trkpt lat="45.579254" lon="5.844760">
        <ele>401.61124</ele>
        <time>2021-06-30T07:57:28Z</time>
      </trkpt>
      <trkpt lat="45.579254" lon="5.844760">
        <ele>401.64407</ele>
        <time>2021-06-30T07:57:29Z</time>
      </trkpt>
      <trkpt lat="45.579189" lon="5.844382">
        <ele>401.63919</ele>
        <time>2021-06-30T07:57:30Z</time>
      </trkpt>
      <trkpt lat="45.579128" lon="5.844026">
        <ele>401.63919</ele>
        <time>2021-06-30T07:57:31Z</time>
      </trkpt>
      <trkpt lat="45.579067" lon="5.843634">
        <ele>401.63919</ele>
        <time>2021-06-30T07:57:32Z</time>
      </trkpt>
      <trkpt lat="45.579052" lon="5.843489">
        <ele>401.63919</ele>
        <time>2021-06-30T07:57:33Z</time>
      </trkpt>
      <trkpt lat="45.579052" lon="5.843489">
        <ele>401.63919</ele>
        <time>2021-06-30T07:57:34Z</time>
      </trkpt>
      <trkpt lat="45.579052" lon="5.843489">
        <ele>401.63919</ele>
        <time>2021-06-30T07:57:35Z</time>
      </trkpt>
      <trkpt lat="45.579052" lon="5.843489">
        <ele>401.63919</ele>
        <time>2021-06-30T07:57:36Z</time>
      </trkpt>
      <trkpt lat="45.579052" lon="5.843489">
        <ele>401.63919</ele>
        <time>2021-06-30T07:57:37Z</time>
      </trkpt>
      <trkpt lat="45.579052" lon="5.843489">
        <ele>401.63919</ele>
        <time>2021-06-30T07:57:38Z</time>
      </trkpt>
      <trkpt lat="45.579052" lon="5.843489">
        <ele>401.63919</ele>
        <time>2021-06-30T07:57:39Z</time>
      </trkpt>
      <trkpt lat="45.579052" lon="5.843489">
        <ele>401.63919</ele>
        <time>2021-06-30T07:57:40Z</time>
      </trkpt>
      <trkpt lat="45.579052" lon="5.843489">
        <ele>401.63919</ele>
        <time>2021-06-30T07:57:41Z</time>
      </trkpt>
      <trkpt lat="45.579052" lon="5.843489">
        <ele>401.63919</ele>
        <time>2021-06-30T07:57:42Z</time>
      </trkpt>
      <trkpt lat="45.579052" lon="5.843489">
        <ele>401.63919</ele>
        <time>2021-06-30T07:57:43Z</time>
      </trkpt>
      <trkpt lat="45.579052" lon="5.843489">
        <ele>401.63919</ele>
        <time>2021-06-30T07:57:44Z</time>
      </trkpt>
      <trkpt lat="45.579052" lon="5.843489">
        <ele>401.63919</ele>
        <time>2021-06-30T07:57:45Z</time>
      </trkpt>
      <trkpt lat="45.579052" lon="5.843489">
        <ele>401.63919</ele>
        <time>2021-06-30T07:57:46Z</time>
      </trkpt>
      <trkpt lat="45.579052" lon="5.843489">
        <ele>401.63919</ele>
        <time>2021-06-30T07:57:47Z</time>
      </trkpt>
      <trkpt lat="45.579052" lon="5.843489">
        <ele>401.63919</ele>
        <time>2021-06-30T07:57:48Z</time>
      </trkpt>
      <trkpt lat="45.579052" lon="5.843489">
        <ele>401.63919</ele>
        <time>2021-06-30T07:57:49Z</time>
      </trkpt>
      <trkpt lat="45.579052" lon="5.843489">
        <ele>416.32138</ele>
        <time>2021-06-30T07:57:50Z</time>
      </trkpt>
      <trkpt lat="45.579052" lon="5.843489">
        <ele>416.32138</ele>
        <time>2021-06-30T07:57:51Z</time>
      </trkpt>
      <trkpt lat="45.578415" lon="5.837707">
        <ele>416.32138</ele>
        <time>2021-06-30T07:57:52Z</time>
      </trkpt>
      <trkpt lat="45.578415" lon="5.837707">
        <ele>416.32138</ele>
        <time>2021-06-30T07:57:53Z</time>
      </trkpt>
      <trkpt lat="45.578415" lon="5.837707">
        <ele>416.32138</ele>
        <time>2021-06-30T07:57:54Z</time>
      </trkpt>
      <trkpt lat="45.578415" lon="5.837707">
        <ele>416.32138</ele>
        <time>2021-06-30T07:57:55Z</time>
      </trkpt>
      <trkpt lat="45.578415" lon="5.837707">
        <ele>416.32138</ele>
        <time>2021-06-30T07:57:56Z</time>
      </trkpt>
      <trkpt lat="45.578415" lon="5.837707">
        <ele>416.32138</ele>
        <time>2021-06-30T07:57:57Z</time>
      </trkpt>
      <trkpt lat="45.578415" lon="5.837707">
        <ele>416.32138</ele>
        <time>2021-06-30T07:57:58Z</time>
      </trkpt>
      <trkpt lat="45.578415" lon="5.837707">
        <ele>416.32138</ele>
        <time>2021-06-30T07:57:59Z</time>
      </trkpt>
      <trkpt lat="45.578415" lon="5.837707">
        <ele>416.32138</ele>
        <time>2021-06-30T07:58:00Z</time>
      </trkpt>
      <trkpt lat="45.578415" lon="5.837707">
        <ele>416.32138</ele>
        <time>2021-06-30T07:58:01Z</time>
      </trkpt>
      <trkpt lat="45.578415" lon="5.837707">
        <ele>416.32138</ele>
        <time>2021-06-30T07:58:02Z</time>
      </trkpt>
      <trkpt lat="45.578415" lon="5.837707">
        <ele>416.32138</ele>
        <time>2021-06-30T07:58:03Z</time>
      </trkpt>
      <trkpt lat="45.578415" lon="5.837707">
        <ele>416.32138</ele>
        <time>2021-06-30T07:58:04Z</time>
      </trkpt>
      <trkpt lat="45.578415" lon="5.837707">
        <ele>416.32138</ele>
        <time>2021-06-30T07:58:05Z</time>
      </trkpt>
      <trkpt lat="45.578415" lon="5.837707">
        <ele>416.32138</ele>
        <time>2021-06-30T07:58:06Z</time>
      </trkpt>
      <trkpt lat="45.578415" lon="5.837707">
        <ele>416.32138</ele>
        <time>2021-06-30T07:58:07Z</time>
      </trkpt>
      <trkpt lat="45.578415" lon="5.837707">
        <ele>416.32138</ele>
        <time>2021-06-30T07:58:08Z</time>
      </trkpt>
      <trkpt lat="45.578415" lon="5.837707">
        <ele>416.32138</ele>
        <time>2021-06-30T07:58:09Z</time>
      </trkpt>
      <trkpt lat="45.578415" lon="5.837707">
        <ele>416.32138</ele>
        <time>2021-06-30T07:58:10Z</time>
      </trkpt>
      <trkpt lat="45.578415" lon="5.837707">
        <ele>416.32138</ele>
        <time>2021-06-30T07:58:11Z</time>
      </trkpt>
      <trkpt lat="45.578415" lon="5.837707">
        <ele>416.32138</ele>
        <time>2021-06-30T07:58:12Z</time>
      </trkpt>
      <trkpt lat="45.578415" lon="5.837707">
        <ele>416.32138</ele>
        <time>2021-06-30T07:58:13Z</time>
      </trkpt>
      <trkpt lat="45.578415" lon="5.837707">
        <ele>416.32138</ele>
        <time>2021-06-30T07:58:14Z</time>
      </trkpt>
      <trkpt lat="45.578415" lon="5.837707">
        <ele>416.32138</ele>
        <time>2021-06-30T07:58:15Z</time>
      </trkpt>
      <trkpt lat="45.578415" lon="5.837707">
        <ele>416.32138</ele>
        <time>2021-06-30T07:58:16Z</time>
      </trkpt>
      <trkpt lat="45.578415" lon="5.837707">
        <ele>416.32138</ele>
        <time>2021-06-30T07:58:17Z</time>
      </trkpt>
      <trkpt lat="45.578415" lon="5.837707">
        <ele>416.32138</ele>
        <time>2021-06-30T07:58:18Z</time>
      </trkpt>
      <trkpt lat="45.578415" lon="5.837707">
        <ele>416.32138</ele>
        <time>2021-06-30T07:58:19Z</time>
      </trkpt>
      <trkpt lat="45.578415" lon="5.837707">
        <ele>416.32138</ele>
        <time>2021-06-30T07:58:20Z</time>
      </trkpt>
      <trkpt lat="45.578415" lon="5.837707">
        <ele>409.34137</ele>
        <time>2021-06-30T07:58:21Z</time>
      </trkpt>
      <trkpt lat="45.578415" lon="5.837707">
        <ele>409.34137</ele>
        <time>2021-06-30T07:58:22Z</time>
      </trkpt>
      <trkpt lat="45.578362" lon="5.836848">
        <ele>406.74136</ele>
        <time>2021-06-30T07:58:23Z</time>
      </trkpt>
      <trkpt lat="45.578362" lon="5.836848">
        <ele>406.74136</ele>
        <time>2021-06-30T07:58:24Z</time>
      </trkpt>
      <trkpt lat="45.578289" lon="5.835548">
        <ele>406.74136</ele>
        <time>2021-06-30T07:58:25Z</time>
      </trkpt>
      <trkpt lat="45.578285" lon="5.834704">
        <ele>406.74136</ele>
        <time>2021-06-30T07:58:26Z</time>
      </trkpt>
      <trkpt lat="45.578251" lon="5.833636">
        <ele>406.74136</ele>
        <time>2021-06-30T07:58:27Z</time>
      </trkpt>
      <trkpt lat="45.578251" lon="5.833636">
        <ele>406.74136</ele>
        <time>2021-06-30T07:58:28Z</time>
      </trkpt>
      <trkpt lat="45.578251" lon="5.833636">
        <ele>406.74136</ele>
        <time>2021-06-30T07:58:29Z</time>
      </trkpt>
      <trkpt lat="45.578251" lon="5.833630">
        <ele>406.74136</ele>
        <time>2021-06-30T07:58:30Z</time>
      </trkpt>
      <trkpt lat="45.578251" lon="5.833624">
        <ele>409.54138</ele>
        <time>2021-06-30T07:58:31Z</time>
      </trkpt>
      <trkpt lat="45.578251" lon="5.833624">
        <ele>409.54138</ele>
        <time>2021-06-30T07:58:32Z</time>
      </trkpt>
      <trkpt lat="45.578251" lon="5.833624">
        <ele>409.54138</ele>
        <time>2021-06-30T07:58:33Z</time>
      </trkpt>
      <trkpt lat="45.579952" lon="5.806266">
        <ele>409.54138</ele>
        <time>2021-06-30T07:58:34Z</time>
      </trkpt>
      <trkpt lat="45.579952" lon="5.806266">
        <ele>409.54138</ele>
        <time>2021-06-30T07:58:35Z</time>
      </trkpt>
      <trkpt lat="45.579952" lon="5.806266">
        <ele>409.54138</ele>
        <time>2021-06-30T07:58:36Z</time>
      </trkpt>
      <trkpt lat="45.579952" lon="5.806266">
        <ele>409.54138</ele>
        <time>2021-06-30T07:58:37Z</time>
      </trkpt>
      <trkpt lat="45.579952" lon="5.806266">
        <ele>409.54138</ele>
        <time>2021-06-30T07:58:38Z</time>
      </trkpt>
      <trkpt lat="45.579952" lon="5.806266">
        <ele>409.54138</ele>
        <time>2021-06-30T07:58:39Z</time>
      </trkpt>
      <trkpt lat="45.579952" lon="5.806266">
        <ele>409.54138</ele>
        <time>2021-06-30T07:58:40Z</time>
      </trkpt>
      <trkpt lat="45.579952" lon="5.806266">
        <ele>409.54138</ele>
        <time>2021-06-30T07:58:41Z</time>
      </trkpt>
      <trkpt lat="45.579952" lon="5.806266">
        <ele>409.54138</ele>
        <time>2021-06-30T07:58:42Z</time>
      </trkpt>
      <trkpt lat="45.579952" lon="5.806266">
        <ele>409.54138</ele>
        <time>2021-06-30T07:58:43Z</time>
      </trkpt>
      <trkpt lat="45.579952" lon="5.806266">
        <ele>409.54138</ele>
        <time>2021-06-30T07:58:44Z</time>
      </trkpt>
      <trkpt lat="45.579952" lon="5.806266">
        <ele>409.54138</ele>
        <time>2021-06-30T07:58:45Z</time>
      </trkpt>
      <trkpt lat="45.579952" lon="5.806266">
        <ele>409.54138</ele>
        <time>2021-06-30T07:58:46Z</time>
      </trkpt>
      <trkpt lat="45.579952" lon="5.806266">
        <ele>409.54138</ele>
        <time>2021-06-30T07:58:47Z</time>
      </trkpt>
      <trkpt lat="45.579952" lon="5.806266">
        <ele>409.54138</ele>
        <time>2021-06-30T07:58:48Z</time>
      </trkpt>
      <trkpt lat="45.579952" lon="5.806266">
        <ele>409.54138</ele>
        <time>2021-06-30T07:58:49Z</time>
      </trkpt>
      <trkpt lat="45.579952" lon="5.806266">
        <ele>409.54138</ele>
        <time>2021-06-30T07:58:50Z</time>
      </trkpt>
      <trkpt lat="45.579952" lon="5.806266">
        <ele>409.54138</ele>
        <time>2021-06-30T07:58:51Z</time>
      </trkpt>
      <trkpt lat="45.579952" lon="5.806266">
        <ele>409.54138</ele>
        <time>2021-06-30T07:58:52Z</time>
      </trkpt>
      <trkpt lat="45.579952" lon="5.806266">
        <ele>409.54138</ele>
        <time>2021-06-30T07:58:53Z</time>
      </trkpt>
      <trkpt lat="45.579952" lon="5.806266">
        <ele>409.54138</ele>
        <time>2021-06-30T07:58:54Z</time>
      </trkpt>
      <trkpt lat="45.579952" lon="5.806266">
        <ele>409.54138</ele>
        <time>2021-06-30T07:58:55Z</time>
      </trkpt>
      <trkpt lat="45.579952" lon="5.806266">
        <ele>398.28137</ele>
        <time>2021-06-30T07:58:56Z</time>
      </trkpt>
      <trkpt lat="45.579952" lon="5.806266">
        <ele>398.28137</ele>
        <time>2021-06-30T07:58:57Z</time>
      </trkpt>
      <trkpt lat="45.579880" lon="5.803047">
        <ele>398.28137</ele>
        <time>2021-06-30T07:58:58Z</time>
      </trkpt>
      <trkpt lat="45.579880" lon="5.803047">
        <ele>398.28137</ele>
        <time>2021-06-30T07:58:59Z</time>
      </trkpt>
      <trkpt lat="45.579880" lon="5.803047">
        <ele>398.28137</ele>
        <time>2021-06-30T07:59:00Z</time>
      </trkpt>
      <trkpt lat="45.579880" lon="5.803047">
        <ele>398.28137</ele>
        <time>2021-06-30T07:59:01Z</time>
      </trkpt>
      <trkpt lat="45.579880" lon="5.803047">
        <ele>398.28137</ele>
        <time>2021-06-30T07:59:02Z</time>
      </trkpt>
      <trkpt lat="45.579880" lon="5.803047">
        <ele>398.28137</ele>
        <time>2021-06-30T07:59:03Z</time>
      </trkpt>
      <trkpt lat="45.579880" lon="5.803047">
        <ele>395.97137</ele>
        <time>2021-06-30T07:59:04Z</time>
      </trkpt>
      <trkpt lat="45.579880" lon="5.803047">
        <ele>395.97137</ele>
        <time>2021-06-30T07:59:05Z</time>
      </trkpt>
      <trkpt lat="45.579880" lon="5.803047">
        <ele>395.97137</ele>
        <time>2021-06-30T07:59:06Z</time>
      </trkpt>
      <trkpt lat="45.579868" lon="5.802882">
        <ele>395.97137</ele>
        <time>2021-06-30T07:59:07Z</time>
      </trkpt>
      <trkpt lat="45.579857" lon="5.802712">
        <ele>395.97137</ele>
        <time>2021-06-30T07:59:08Z</time>
      </trkpt>
      <trkpt lat="45.579857" lon="5.802712">
        <ele>395.97137</ele>
        <time>2021-06-30T07:59:09Z</time>
      </trkpt>
      <trkpt lat="45.579857" lon="5.802712">
        <ele>395.97137</ele>
        <time>2021-06-30T07:59:10Z</time>
      </trkpt>
      <trkpt lat="45.579857" lon="5.802712">
        <ele>395.97137</ele>
        <time>2021-06-30T07:59:11Z</time>
      </trkpt>
      <trkpt lat="45.579857" lon="5.802712">
        <ele>395.97137</ele>
        <time>2021-06-30T07:59:12Z</time>
      </trkpt>
      <trkpt lat="45.579857" lon="5.802712">
        <ele>395.97137</ele>
        <time>2021-06-30T07:59:13Z</time>
      </trkpt>
      <trkpt lat="45.579857" lon="5.802712">
        <ele>395.97137</ele>
        <time>2021-06-30T07:59:14Z</time>
      </trkpt>
      <trkpt lat="45.579857" lon="5.802712">
        <ele>395.97137</ele>
        <time>2021-06-30T07:59:15Z</time>
      </trkpt>
      <trkpt lat="45.579857" lon="5.802712">
        <ele>395.97137</ele>
        <time>2021-06-30T07:59:16Z</time>
      </trkpt>
      <trkpt lat="45.579857" lon="5.802712">
        <ele>395.97137</ele>
        <time>2021-06-30T07:59:17Z</time>
      </trkpt>
      <trkpt lat="45.579857" lon="5.802712">
        <ele>395.97137</ele>
        <time>2021-06-30T07:59:18Z</time>
      </trkpt>
      <trkpt lat="45.579857" lon="5.802712">
        <ele>395.97137</ele>
        <time>2021-06-30T07:59:19Z</time>
      </trkpt>
      <trkpt lat="45.579857" lon="5.802712">
        <ele>395.97137</ele>
        <time>2021-06-30T07:59:20Z</time>
      </trkpt>
      <trkpt lat="45.579857" lon="5.802712">
        <ele>395.97137</ele>
        <time>2021-06-30T07:59:21Z</time>
      </trkpt>
      <trkpt lat="45.579857" lon="5.802712">
        <ele>395.97137</ele>
        <time>2021-06-30T07:59:22Z</time>
      </trkpt>
      <trkpt lat="45.579857" lon="5.802712">
        <ele>395.97137</ele>
        <time>2021-06-30T07:59:23Z</time>
      </trkpt>
      <trkpt lat="45.579857" lon="5.802712">
        <ele>402.94223</ele>
        <time>2021-06-30T07:59:24Z</time>
      </trkpt>
      <trkpt lat="45.579857" lon="5.802699">
        <ele>394.68033</ele>
        <time>2021-06-30T07:59:25Z</time>
      </trkpt>
      <trkpt lat="45.579792" lon="5.802091">
        <ele>395.85245</ele>
        <time>2021-06-30T07:59:26Z</time>
      </trkpt>
      <trkpt lat="45.579784" lon="5.802032">
        <ele>395.85275</ele>
        <time>2021-06-30T07:59:27Z</time>
      </trkpt>
      <trkpt lat="45.579769" lon="5.801857">
        <ele>395.18729</ele>
        <time>2021-06-30T07:59:28Z</time>
      </trkpt>
      <trkpt lat="45.579727" lon="5.801510">
        <ele>392.90628</ele>
        <time>2021-06-30T07:59:29Z</time>
      </trkpt>
      <trkpt lat="45.579678" lon="5.801168">
        <ele>390.70071</ele>
        <time>2021-06-30T07:59:30Z</time>
      </trkpt>
      <trkpt lat="45.579620" lon="5.800812">
        <ele>389.57767</ele>
        <time>2021-06-30T07:59:31Z</time>
      </trkpt>
      <trkpt lat="45.579563" lon="5.800417">
        <ele>388.32059</ele>
        <time>2021-06-30T07:59:32Z</time>
      </trkpt>
      <trkpt lat="45.579494" lon="5.800001">
        <ele>382.09305</ele>
        <time>2021-06-30T07:59:33Z</time>
      </trkpt>
      <trkpt lat="45.579411" lon="5.799579">
        <ele>381.82364</ele>
        <time>2021-06-30T07:59:34Z</time>
      </trkpt>
      <trkpt lat="45.579319" lon="5.799127">
        <ele>381.65048</ele>
        <time>2021-06-30T07:59:35Z</time>
      </trkpt>
      <trkpt lat="45.579216" lon="5.798681">
        <ele>382.08218</ele>
        <time>2021-06-30T07:59:36Z</time>
      </trkpt>
      <trkpt lat="45.579102" lon="5.798208">
        <ele>382.04166</ele>
        <time>2021-06-30T07:59:37Z</time>
      </trkpt>
      <trkpt lat="45.578976" lon="5.797744">
        <ele>382.82178</ele>
        <time>2021-06-30T07:59:38Z</time>
      </trkpt>
      <trkpt lat="45.578835" lon="5.797280">
        <ele>383.22754</ele>
        <time>2021-06-30T07:59:39Z</time>
      </trkpt>
      <trkpt lat="45.578693" lon="5.796808">
        <ele>386.22382</ele>
        <time>2021-06-30T07:59:40Z</time>
      </trkpt>
      <trkpt lat="45.578533" lon="5.796364">
        <ele>386.73621</ele>
        <time>2021-06-30T07:59:41Z</time>
      </trkpt>
      <trkpt lat="45.578533" lon="5.796364">
        <ele>385.66620</ele>
        <time>2021-06-30T07:59:42Z</time>
      </trkpt>
      <trkpt lat="45.578369" lon="5.795914">
        <ele>387.49866</ele>
        <time>2021-06-30T07:59:43Z</time>
      </trkpt>
      <trkpt lat="45.578201" lon="5.795504">
        <ele>387.59308</ele>
        <time>2021-06-30T07:59:44Z</time>
      </trkpt>
      <trkpt lat="45.578011" lon="5.795080">
        <ele>387.87366</ele>
        <time>2021-06-30T07:59:45Z</time>
      </trkpt>
      <trkpt lat="45.577801" lon="5.794675">
        <ele>388.25562</ele>
        <time>2021-06-30T07:59:46Z</time>
      </trkpt>
      <trkpt lat="45.577568" lon="5.794261">
        <ele>388.14410</ele>
        <time>2021-06-30T07:59:47Z</time>
      </trkpt>
      <trkpt lat="45.577324" lon="5.793883">
        <ele>388.73151</ele>
        <time>2021-06-30T07:59:48Z</time>
      </trkpt>
      <trkpt lat="45.577076" lon="5.793545">
        <ele>388.84180</ele>
        <time>2021-06-30T07:59:49Z</time>
      </trkpt>
      <trkpt lat="45.576805" lon="5.793207">
        <ele>389.75714</ele>
        <time>2021-06-30T07:59:50Z</time>
      </trkpt>
      <trkpt lat="45.576508" lon="5.792893">
        <ele>390.22272</ele>
        <time>2021-06-30T07:59:51Z</time>
      </trkpt>
      <trkpt lat="45.576210" lon="5.792609">
        <ele>391.01520</ele>
        <time>2021-06-30T07:59:52Z</time>
      </trkpt>
      <trkpt lat="45.575912" lon="5.792367">
        <ele>392.07562</ele>
        <time>2021-06-30T07:59:53Z</time>
      </trkpt>
      <trkpt lat="45.575581" lon="5.792139">
        <ele>393.35077</ele>
        <time>2021-06-30T07:59:54Z</time>
      </trkpt>
      <trkpt lat="45.575260" lon="5.791939">
        <ele>394.42072</ele>
        <time>2021-06-30T07:59:55Z</time>
      </trkpt>
      <trkpt lat="45.574917" lon="5.791762">
        <ele>394.34991</ele>
        <time>2021-06-30T07:59:56Z</time>
      </trkpt>
      <trkpt lat="45.574581" lon="5.791622">
        <ele>395.36115</ele>
        <time>2021-06-30T07:59:57Z</time>
      </trkpt>
      <trkpt lat="45.574230" lon="5.791508">
        <ele>396.17975</ele>
        <time>2021-06-30T07:59:58Z</time>
      </trkpt>
      <trkpt lat="45.573864" lon="5.791430">
        <ele>396.78912</ele>
        <time>2021-06-30T07:59:59Z</time>
      </trkpt>
      <trkpt lat="45.573521" lon="5.791375">
        <ele>397.48889</ele>
        <time>2021-06-30T08:00:00Z</time>
      </trkpt>
      <trkpt lat="45.573177" lon="5.791364">
        <ele>397.71973</ele>
        <time>2021-06-30T08:00:01Z</time>
      </trkpt>
      <trkpt lat="45.572823" lon="5.791368">
        <ele>398.79877</ele>
        <time>2021-06-30T08:00:02Z</time>
      </trkpt>
      <trkpt lat="45.572487" lon="5.791387">
        <ele>399.40887</ele>
        <time>2021-06-30T08:00:03Z</time>
      </trkpt>
      <trkpt lat="45.572166" lon="5.791407">
        <ele>400.49231</ele>
        <time>2021-06-30T08:00:04Z</time>
      </trkpt>
      <trkpt lat="45.571850" lon="5.791446">
        <ele>401.27942</ele>
        <time>2021-06-30T08:00:05Z</time>
      </trkpt>
      <trkpt lat="45.571491" lon="5.791488">
        <ele>402.01239</ele>
        <time>2021-06-30T08:00:06Z</time>
      </trkpt>
      <trkpt lat="45.571117" lon="5.791512">
        <ele>402.73859</ele>
        <time>2021-06-30T08:00:07Z</time>
      </trkpt>
      <trkpt lat="45.570766" lon="5.791513">
        <ele>404.16840</ele>
        <time>2021-06-30T08:00:08Z</time>
      </trkpt>
      <trkpt lat="45.570423" lon="5.791491">
        <ele>405.47217</ele>
        <time>2021-06-30T08:00:09Z</time>
      </trkpt>
      <trkpt lat="45.570080" lon="5.791433">
        <ele>405.38159</ele>
        <time>2021-06-30T08:00:10Z</time>
      </trkpt>
      <trkpt lat="45.569695" lon="5.791328">
        <ele>405.32452</ele>
        <time>2021-06-30T08:00:11Z</time>
      </trkpt>
      <trkpt lat="45.569363" lon="5.791211">
        <ele>406.85699</ele>
        <time>2021-06-30T08:00:12Z</time>
      </trkpt>
      <trkpt lat="45.569016" lon="5.791048">
        <ele>407.71783</ele>
        <time>2021-06-30T08:00:13Z</time>
      </trkpt>
      <trkpt lat="45.568691" lon="5.790851">
        <ele>409.33124</ele>
        <time>2021-06-30T08:00:14Z</time>
      </trkpt>
      <trkpt lat="45.568367" lon="5.790628">
        <ele>410.26923</ele>
        <time>2021-06-30T08:00:15Z</time>
      </trkpt>
      <trkpt lat="45.568047" lon="5.790367">
        <ele>411.94257</ele>
        <time>2021-06-30T08:00:16Z</time>
      </trkpt>
      <trkpt lat="45.567745" lon="5.790077">
        <ele>413.86096</ele>
        <time>2021-06-30T08:00:17Z</time>
      </trkpt>
      <trkpt lat="45.567490" lon="5.789772">
        <ele>416.06360</ele>
        <time>2021-06-30T08:00:18Z</time>
      </trkpt>
      <trkpt lat="45.567490" lon="5.789772">
        <ele>416.89276</ele>
        <time>2021-06-30T08:00:19Z</time>
      </trkpt>
      <trkpt lat="45.567219" lon="5.789441">
        <ele>417.83978</ele>
        <time>2021-06-30T08:00:20Z</time>
      </trkpt>
      <trkpt lat="45.566975" lon="5.789093">
        <ele>419.06354</ele>
        <time>2021-06-30T08:00:21Z</time>
      </trkpt>
      <trkpt lat="45.566742" lon="5.788714">
        <ele>420.80438</ele>
        <time>2021-06-30T08:00:22Z</time>
      </trkpt>
      <trkpt lat="45.566513" lon="5.788309">
        <ele>423.21783</ele>
        <time>2021-06-30T08:00:23Z</time>
      </trkpt>
      <trkpt lat="45.566288" lon="5.787851">
        <ele>424.73743</ele>
        <time>2021-06-30T08:00:24Z</time>
      </trkpt>
      <trkpt lat="45.566093" lon="5.787429">
        <ele>427.05640</ele>
        <time>2021-06-30T08:00:25Z</time>
      </trkpt>
      <trkpt lat="45.565903" lon="5.786963">
        <ele>427.81891</ele>
        <time>2021-06-30T08:00:26Z</time>
      </trkpt>
      <trkpt lat="45.565731" lon="5.786483">
        <ele>428.93219</ele>
        <time>2021-06-30T08:00:27Z</time>
      </trkpt>
      <trkpt lat="45.565575" lon="5.786025">
        <ele>430.80536</ele>
        <time>2021-06-30T08:00:28Z</time>
      </trkpt>
      <trkpt lat="45.565437" lon="5.785591">
        <ele>432.51904</ele>
        <time>2021-06-30T08:00:29Z</time>
      </trkpt>
      <trkpt lat="45.565296" lon="5.785103">
        <ele>433.16168</ele>
        <time>2021-06-30T08:00:30Z</time>
      </trkpt>
      <trkpt lat="45.565163" lon="5.784621">
        <ele>433.62567</ele>
        <time>2021-06-30T08:00:31Z</time>
      </trkpt>
      <trkpt lat="45.565033" lon="5.784139">
        <ele>435.09723</ele>
        <time>2021-06-30T08:00:32Z</time>
      </trkpt>
      <trkpt lat="45.564907" lon="5.783627">
        <ele>436.09320</ele>
        <time>2021-06-30T08:00:33Z</time>
      </trkpt>
      <trkpt lat="45.564793" lon="5.783147">
        <ele>437.18134</ele>
        <time>2021-06-30T08:00:34Z</time>
      </trkpt>
      <trkpt lat="45.564678" lon="5.782654">
        <ele>438.39886</ele>
        <time>2021-06-30T08:00:35Z</time>
      </trkpt>
      <trkpt lat="45.564568" lon="5.782173">
        <ele>439.36121</ele>
        <time>2021-06-30T08:00:36Z</time>
      </trkpt>
      <trkpt lat="45.564453" lon="5.781667">
        <ele>440.37354</ele>
        <time>2021-06-30T08:00:37Z</time>
      </trkpt>
      <trkpt lat="45.564354" lon="5.781192">
        <ele>441.61688</ele>
        <time>2021-06-30T08:00:38Z</time>
      </trkpt>
      <trkpt lat="45.564251" lon="5.780690">
        <ele>442.69751</ele>
        <time>2021-06-30T08:00:39Z</time>
      </trkpt>
      <trkpt lat="45.564163" lon="5.780209">
        <ele>444.00238</ele>
        <time>2021-06-30T08:00:40Z</time>
      </trkpt>
      <trkpt lat="45.564072" lon="5.779697">
        <ele>445.55304</ele>
        <time>2021-06-30T08:00:41Z</time>
      </trkpt>
      <trkpt lat="45.563980" lon="5.779196">
        <ele>446.94000</ele>
        <time>2021-06-30T08:00:42Z</time>
      </trkpt>
      <trkpt lat="45.563896" lon="5.778713">
        <ele>449.63885</ele>
        <time>2021-06-30T08:00:43Z</time>
      </trkpt>
      <trkpt lat="45.563824" lon="5.778226">
        <ele>452.21619</ele>
        <time>2021-06-30T08:00:44Z</time>
      </trkpt>
      <trkpt lat="45.563824" lon="5.778226">
        <ele>454.17444</ele>
        <time>2021-06-30T08:00:45Z</time>
      </trkpt>
      <trkpt lat="45.563751" lon="5.777738">
        <ele>455.87433</ele>
        <time>2021-06-30T08:00:46Z</time>
      </trkpt>
      <trkpt lat="45.563683" lon="5.777254">
        <ele>458.36359</ele>
        <time>2021-06-30T08:00:47Z</time>
      </trkpt>
      <trkpt lat="45.563618" lon="5.776765">
        <ele>461.02106</ele>
        <time>2021-06-30T08:00:48Z</time>
      </trkpt>
      <trkpt lat="45.563553" lon="5.776251">
        <ele>462.94525</ele>
        <time>2021-06-30T08:00:49Z</time>
      </trkpt>
      <trkpt lat="45.563492" lon="5.775758">
        <ele>465.81018</ele>
        <time>2021-06-30T08:00:50Z</time>
      </trkpt>
      <trkpt lat="45.563435" lon="5.775248">
        <ele>466.60474</ele>
        <time>2021-06-30T08:00:51Z</time>
      </trkpt>
      <trkpt lat="45.563385" lon="5.774740">
        <ele>466.80560</ele>
        <time>2021-06-30T08:00:52Z</time>
      </trkpt>
      <trkpt lat="45.563335" lon="5.774253">
        <ele>469.01526</ele>
        <time>2021-06-30T08:00:53Z</time>
      </trkpt>
      <trkpt lat="45.563293" lon="5.773757">
        <ele>469.78070</ele>
        <time>2021-06-30T08:00:54Z</time>
      </trkpt>
      <trkpt lat="45.563255" lon="5.773242">
        <ele>470.19440</ele>
        <time>2021-06-30T08:00:55Z</time>
      </trkpt>
      <trkpt lat="45.563217" lon="5.772762">
        <ele>471.88037</ele>
        <time>2021-06-30T08:00:56Z</time>
      </trkpt>
      <trkpt lat="45.563183" lon="5.772263">
        <ele>473.86908</ele>
        <time>2021-06-30T08:00:57Z</time>
      </trkpt>
      <trkpt lat="45.563152" lon="5.771737">
        <ele>475.83673</ele>
        <time>2021-06-30T08:00:58Z</time>
      </trkpt>
      <trkpt lat="45.563122" lon="5.771224">
        <ele>477.07819</ele>
        <time>2021-06-30T08:00:59Z</time>
      </trkpt>
      <trkpt lat="45.563091" lon="5.770734">
        <ele>477.62299</ele>
        <time>2021-06-30T08:01:00Z</time>
      </trkpt>
      <trkpt lat="45.563061" lon="5.770204">
        <ele>478.00372</ele>
        <time>2021-06-30T08:01:01Z</time>
      </trkpt>
      <trkpt lat="45.563030" lon="5.769708">
        <ele>478.22906</ele>
        <time>2021-06-30T08:01:02Z</time>
      </trkpt>
      <trkpt lat="45.563000" lon="5.769193">
        <ele>479.04205</ele>
        <time>2021-06-30T08:01:03Z</time>
      </trkpt>
      <trkpt lat="45.562969" lon="5.768681">
        <ele>478.61652</ele>
        <time>2021-06-30T08:01:04Z</time>
      </trkpt>
      <trkpt lat="45.562935" lon="5.768168">
        <ele>478.43134</ele>
        <time>2021-06-30T08:01:05Z</time>
      </trkpt>
      <trkpt lat="45.562897" lon="5.767644">
        <ele>478.58160</ele>
        <time>2021-06-30T08:01:06Z</time>
      </trkpt>
      <trkpt lat="45.562840" lon="5.767129">
        <ele>478.97809</ele>
        <time>2021-06-30T08:01:07Z</time>
      </trkpt>
      <trkpt lat="45.562763" lon="5.766645">
        <ele>478.82318</ele>
        <time>2021-06-30T08:01:08Z</time>
      </trkpt>
      <trkpt lat="45.562679" lon="5.766149">
        <ele>478.17487</ele>
        <time>2021-06-30T08:01:09Z</time>
      </trkpt>
      <trkpt lat="45.562576" lon="5.765645">
        <ele>478.03522</ele>
        <time>2021-06-30T08:01:10Z</time>
      </trkpt>
      <trkpt lat="45.562473" lon="5.765177">
        <ele>477.92365</ele>
        <time>2021-06-30T08:01:11Z</time>
      </trkpt>
      <trkpt lat="45.562340" lon="5.764687">
        <ele>477.60931</ele>
        <time>2021-06-30T08:01:12Z</time>
      </trkpt>
      <trkpt lat="45.562199" lon="5.764224">
        <ele>476.91754</ele>
        <time>2021-06-30T08:01:13Z</time>
      </trkpt>
      <trkpt lat="45.562042" lon="5.763754">
        <ele>476.06696</ele>
        <time>2021-06-30T08:01:14Z</time>
      </trkpt>
      <trkpt lat="45.561867" lon="5.763300">
        <ele>476.14728</ele>
        <time>2021-06-30T08:01:15Z</time>
      </trkpt>
      <trkpt lat="45.561687" lon="5.762883">
        <ele>475.33014</ele>
        <time>2021-06-30T08:01:16Z</time>
      </trkpt>
      <trkpt lat="45.561497" lon="5.762460">
        <ele>474.40057</ele>
        <time>2021-06-30T08:01:17Z</time>
      </trkpt>
      <trkpt lat="45.561275" lon="5.762034">
        <ele>473.86188</ele>
        <time>2021-06-30T08:01:18Z</time>
      </trkpt>
      <trkpt lat="45.561043" lon="5.761611">
        <ele>473.17896</ele>
        <time>2021-06-30T08:01:19Z</time>
      </trkpt>
      <trkpt lat="45.560795" lon="5.761212">
        <ele>473.34479</ele>
        <time>2021-06-30T08:01:20Z</time>
      </trkpt>
      <trkpt lat="45.560528" lon="5.760816">
        <ele>472.81421</ele>
        <time>2021-06-30T08:01:21Z</time>
      </trkpt>
      <trkpt lat="45.560272" lon="5.760472">
        <ele>472.48657</ele>
        <time>2021-06-30T08:01:22Z</time>
      </trkpt>
      <trkpt lat="45.560017" lon="5.760151">
        <ele>472.38751</ele>
        <time>2021-06-30T08:01:23Z</time>
      </trkpt>
      <trkpt lat="45.559765" lon="5.759870">
        <ele>472.41144</ele>
        <time>2021-06-30T08:01:24Z</time>
      </trkpt>
      <trkpt lat="45.559765" lon="5.759870">
        <ele>472.36945</ele>
        <time>2021-06-30T08:01:25Z</time>
      </trkpt>
      <trkpt lat="45.559505" lon="5.759595">
        <ele>472.05536</ele>
        <time>2021-06-30T08:01:26Z</time>
      </trkpt>
      <trkpt lat="45.559246" lon="5.759346">
        <ele>471.96918</ele>
        <time>2021-06-30T08:01:27Z</time>
      </trkpt>
      <trkpt lat="45.559017" lon="5.759142">
        <ele>471.88922</ele>
        <time>2021-06-30T08:01:28Z</time>
      </trkpt>
      <trkpt lat="45.558781" lon="5.758943">
        <ele>471.17706</ele>
        <time>2021-06-30T08:01:29Z</time>
      </trkpt>
      <trkpt lat="45.558537" lon="5.758752">
        <ele>470.36383</ele>
        <time>2021-06-30T08:01:30Z</time>
      </trkpt>
      <trkpt lat="45.558273" lon="5.758553">
        <ele>471.06250</ele>
        <time>2021-06-30T08:01:31Z</time>
      </trkpt>
      <trkpt lat="45.558033" lon="5.758376">
        <ele>470.38989</ele>
        <time>2021-06-30T08:01:32Z</time>
      </trkpt>
      <trkpt lat="45.557796" lon="5.758213">
        <ele>470.54608</ele>
        <time>2021-06-30T08:01:33Z</time>
      </trkpt>
      <trkpt lat="45.557552" lon="5.758049">
        <ele>470.08936</ele>
        <time>2021-06-30T08:01:34Z</time>
      </trkpt>
      <trkpt lat="45.557266" lon="5.757861">
        <ele>470.26910</ele>
        <time>2021-06-30T08:01:35Z</time>
      </trkpt>
      <trkpt lat="45.556957" lon="5.757654">
        <ele>469.80182</ele>
        <time>2021-06-30T08:01:36Z</time>
      </trkpt>
      <trkpt lat="45.556625" lon="5.757421">
        <ele>468.85071</ele>
        <time>2021-06-30T08:01:37Z</time>
      </trkpt>
      <trkpt lat="45.556358" lon="5.757225">
        <ele>468.44611</ele>
        <time>2021-06-30T08:01:38Z</time>
      </trkpt>
      <trkpt lat="45.556084" lon="5.756991">
        <ele>468.44586</ele>
        <time>2021-06-30T08:01:39Z</time>
      </trkpt>
      <trkpt lat="45.555801" lon="5.756706">
        <ele>467.67975</ele>
        <time>2021-06-30T08:01:40Z</time>
      </trkpt>
      <trkpt lat="45.555553" lon="5.756431">
        <ele>467.08789</ele>
        <time>2021-06-30T08:01:41Z</time>
      </trkpt>
      <trkpt lat="45.555313" lon="5.756117">
        <ele>467.16010</ele>
        <time>2021-06-30T08:01:42Z</time>
      </trkpt>
      <trkpt lat="45.555092" lon="5.755772">
        <ele>467.07483</ele>
        <time>2021-06-30T08:01:43Z</time>
      </trkpt>
      <trkpt lat="45.554886" lon="5.755410">
        <ele>466.45917</ele>
        <time>2021-06-30T08:01:44Z</time>
      </trkpt>
      <trkpt lat="45.554710" lon="5.755045">
        <ele>465.43762</ele>
        <time>2021-06-30T08:01:45Z</time>
      </trkpt>
      <trkpt lat="45.554550" lon="5.754642">
        <ele>465.18878</ele>
        <time>2021-06-30T08:01:46Z</time>
      </trkpt>
      <trkpt lat="45.554413" lon="5.754212">
        <ele>465.17462</ele>
        <time>2021-06-30T08:01:47Z</time>
      </trkpt>
      <trkpt lat="45.554291" lon="5.753778">
        <ele>464.34167</ele>
        <time>2021-06-30T08:01:48Z</time>
      </trkpt>
      <trkpt lat="45.554199" lon="5.753383">
        <ele>463.45312</ele>
        <time>2021-06-30T08:01:49Z</time>
      </trkpt>
      <trkpt lat="45.554134" lon="5.752990">
        <ele>463.06976</ele>
        <time>2021-06-30T08:01:50Z</time>
      </trkpt>
      <trkpt lat="45.554081" lon="5.752581">
        <ele>462.41522</ele>
        <time>2021-06-30T08:01:51Z</time>
      </trkpt>
      <trkpt lat="45.554050" lon="5.752218">
        <ele>461.72772</ele>
        <time>2021-06-30T08:01:52Z</time>
      </trkpt>
      <trkpt lat="45.554031" lon="5.751848">
        <ele>461.49377</ele>
        <time>2021-06-30T08:01:53Z</time>
      </trkpt>
      <trkpt lat="45.554024" lon="5.751510">
        <ele>461.10065</ele>
        <time>2021-06-30T08:01:54Z</time>
      </trkpt>
      <trkpt lat="45.554031" lon="5.751169">
        <ele>461.01019</ele>
        <time>2021-06-30T08:01:55Z</time>
      </trkpt>
      <trkpt lat="45.554054" lon="5.750834">
        <ele>461.47748</ele>
        <time>2021-06-30T08:01:56Z</time>
      </trkpt>
      <trkpt lat="45.554077" lon="5.750495">
        <ele>461.58643</ele>
        <time>2021-06-30T08:01:57Z</time>
      </trkpt>
      <trkpt lat="45.554111" lon="5.750171">
        <ele>461.61310</ele>
        <time>2021-06-30T08:01:58Z</time>
      </trkpt>
      <trkpt lat="45.554111" lon="5.750171">
        <ele>461.61310</ele>
        <time>2021-06-30T08:01:59Z</time>
      </trkpt>
      <trkpt lat="45.554150" lon="5.749817">
        <ele>461.61310</ele>
        <time>2021-06-30T08:02:00Z</time>
      </trkpt>
      <trkpt lat="45.554165" lon="5.749663">
        <ele>461.61310</ele>
        <time>2021-06-30T08:02:01Z</time>
      </trkpt>
      <trkpt lat="45.554165" lon="5.749663">
        <ele>461.61310</ele>
        <time>2021-06-30T08:02:02Z</time>
      </trkpt>
      <trkpt lat="45.554165" lon="5.749663">
        <ele>461.61310</ele>
        <time>2021-06-30T08:02:03Z</time>
      </trkpt>
      <trkpt lat="45.554165" lon="5.749663">
        <ele>461.61310</ele>
        <time>2021-06-30T08:02:04Z</time>
      </trkpt>
      <trkpt lat="45.554165" lon="5.749663">
        <ele>461.61310</ele>
        <time>2021-06-30T08:02:05Z</time>
      </trkpt>
      <trkpt lat="45.554165" lon="5.749663">
        <ele>461.61310</ele>
        <time>2021-06-30T08:02:06Z</time>
      </trkpt>
      <trkpt lat="45.554165" lon="5.749663">
        <ele>459.04892</ele>
        <time>2021-06-30T08:02:07Z</time>
      </trkpt>
      <trkpt lat="45.554165" lon="5.749663">
        <ele>459.04892</ele>
        <time>2021-06-30T08:02:08Z</time>
      </trkpt>
      <trkpt lat="45.554165" lon="5.749663">
        <ele>459.04892</ele>
        <time>2021-06-30T08:02:09Z</time>
      </trkpt>
      <trkpt lat="45.554375" lon="5.748301">
        <ele>459.04892</ele>
        <time>2021-06-30T08:02:10Z</time>
      </trkpt>
      <trkpt lat="45.554531" lon="5.747421">
        <ele>459.04892</ele>
        <time>2021-06-30T08:02:11Z</time>
      </trkpt>
      <trkpt lat="45.554531" lon="5.747421">
        <ele>459.04892</ele>
        <time>2021-06-30T08:02:12Z</time>
      </trkpt>
      <trkpt lat="45.554531" lon="5.747421">
        <ele>459.04892</ele>
        <time>2021-06-30T08:02:13Z</time>
      </trkpt>
      <trkpt lat="45.554531" lon="5.747421">
        <ele>459.04892</ele>
        <time>2021-06-30T08:02:14Z</time>
      </trkpt>
      <trkpt lat="45.554531" lon="5.747421">
        <ele>459.04892</ele>
        <time>2021-06-30T08:02:15Z</time>
      </trkpt>
      <trkpt lat="45.554531" lon="5.747421">
        <ele>459.04892</ele>
        <time>2021-06-30T08:02:16Z</time>
      </trkpt>
      <trkpt lat="45.554531" lon="5.747421">
        <ele>459.04892</ele>
        <time>2021-06-30T08:02:17Z</time>
      </trkpt>
      <trkpt lat="45.554531" lon="5.747421">
        <ele>459.04892</ele>
        <time>2021-06-30T08:02:18Z</time>
      </trkpt>
      <trkpt lat="45.554531" lon="5.747421">
        <ele>459.04892</ele>
        <time>2021-06-30T08:02:19Z</time>
      </trkpt>
      <trkpt lat="45.554531" lon="5.747421">
        <ele>459.04892</ele>
        <time>2021-06-30T08:02:20Z</time>
      </trkpt>
      <trkpt lat="45.554531" lon="5.747421">
        <ele>459.04892</ele>
        <time>2021-06-30T08:02:21Z</time>
      </trkpt>
      <trkpt lat="45.554531" lon="5.747421">
        <ele>459.04892</ele>
        <time>2021-06-30T08:02:22Z</time>
      </trkpt>
      <trkpt lat="45.554531" lon="5.747421">
        <ele>459.04892</ele>
        <time>2021-06-30T08:02:23Z</time>
      </trkpt>
      <trkpt lat="45.554531" lon="5.747421">
        <ele>459.04892</ele>
        <time>2021-06-30T08:02:24Z</time>
      </trkpt>
      <trkpt lat="45.554531" lon="5.747421">
        <ele>459.04892</ele>
        <time>2021-06-30T08:02:25Z</time>
      </trkpt>
      <trkpt lat="45.554531" lon="5.747421">
        <ele>459.04892</ele>
        <time>2021-06-30T08:02:26Z</time>
      </trkpt>
      <trkpt lat="45.554531" lon="5.747421">
        <ele>459.04892</ele>
        <time>2021-06-30T08:02:27Z</time>
      </trkpt>
      <trkpt lat="45.554531" lon="5.747421">
        <ele>459.04892</ele>
        <time>2021-06-30T08:02:28Z</time>
      </trkpt>
      <trkpt lat="45.554531" lon="5.747421">
        <ele>459.04892</ele>
        <time>2021-06-30T08:02:29Z</time>
      </trkpt>
      <trkpt lat="45.554531" lon="5.747421">
        <ele>459.04892</ele>
        <time>2021-06-30T08:02:30Z</time>
      </trkpt>
      <trkpt lat="45.554531" lon="5.747421">
        <ele>459.04892</ele>
        <time>2021-06-30T08:02:31Z</time>
      </trkpt>
      <trkpt lat="45.554531" lon="5.747421">
        <ele>459.04892</ele>
        <time>2021-06-30T08:02:32Z</time>
      </trkpt>
      <trkpt lat="45.554531" lon="5.747421">
        <ele>459.04892</ele>
        <time>2021-06-30T08:02:33Z</time>
      </trkpt>
      <trkpt lat="45.554531" lon="5.747421">
        <ele>438.01892</ele>
        <time>2021-06-30T08:02:34Z</time>
      </trkpt>
      <trkpt lat="45.554531" lon="5.747420">
        <ele>438.01892</ele>
        <time>2021-06-30T08:02:35Z</time>
      </trkpt>
      <trkpt lat="45.555698" lon="5.741350">
        <ele>438.01892</ele>
        <time>2021-06-30T08:02:36Z</time>
      </trkpt>
      <trkpt lat="45.555698" lon="5.741350">
        <ele>438.01892</ele>
        <time>2021-06-30T08:02:37Z</time>
      </trkpt>
      <trkpt lat="45.555698" lon="5.741350">
        <ele>438.01892</ele>
        <time>2021-06-30T08:02:38Z</time>
      </trkpt>
      <trkpt lat="45.555698" lon="5.741350">
        <ele>438.01892</ele>
        <time>2021-06-30T08:02:39Z</time>
      </trkpt>
      <trkpt lat="45.555698" lon="5.741350">
        <ele>438.01892</ele>
        <time>2021-06-30T08:02:40Z</time>
      </trkpt>
      <trkpt lat="45.555698" lon="5.741350">
        <ele>438.01892</ele>
        <time>2021-06-30T08:02:41Z</time>
      </trkpt>
      <trkpt lat="45.555698" lon="5.741350">
        <ele>438.01892</ele>
        <time>2021-06-30T08:02:42Z</time>
      </trkpt>
      <trkpt lat="45.555698" lon="5.741350">
        <ele>438.01892</ele>
        <time>2021-06-30T08:02:43Z</time>
      </trkpt>
      <trkpt lat="45.555698" lon="5.741350">
        <ele>438.01892</ele>
        <time>2021-06-30T08:02:44Z</time>
      </trkpt>
      <trkpt lat="45.555698" lon="5.741350">
        <ele>438.01892</ele>
        <time>2021-06-30T08:02:45Z</time>
      </trkpt>
      <trkpt lat="45.555698" lon="5.741350">
        <ele>438.01892</ele>
        <time>2021-06-30T08:02:46Z</time>
      </trkpt>
      <trkpt lat="45.555698" lon="5.741350">
        <ele>438.01892</ele>
        <time>2021-06-30T08:02:47Z</time>
      </trkpt>
      <trkpt lat="45.555698" lon="5.741350">
        <ele>438.01892</ele>
        <time>2021-06-30T08:02:48Z</time>
      </trkpt>
      <trkpt lat="45.555698" lon="5.741350">
        <ele>431.40894</ele>
        <time>2021-06-30T08:02:49Z</time>
      </trkpt>
      <trkpt lat="45.555698" lon="5.741350">
        <ele>431.40894</ele>
        <time>2021-06-30T08:02:50Z</time>
      </trkpt>
      <trkpt lat="45.555698" lon="5.741349">
        <ele>431.40894</ele>
        <time>2021-06-30T08:02:51Z</time>
      </trkpt>
      <trkpt lat="45.555862" lon="5.740513">
        <ele>453.75781</ele>
        <time>2021-06-30T08:02:52Z</time>
      </trkpt>
      <trkpt lat="45.556171" lon="5.738929">
        <ele>440.31189</ele>
        <time>2021-06-30T08:02:53Z</time>
      </trkpt>
      <trkpt lat="45.557766" lon="5.730430">
        <ele>430.99463</ele>
        <time>2021-06-30T08:02:54Z</time>
      </trkpt>
      <trkpt lat="45.557827" lon="5.730112">
        <ele>426.75269</ele>
        <time>2021-06-30T08:02:55Z</time>
      </trkpt>
      <trkpt lat="45.557877" lon="5.729835">
        <ele>420.59076</ele>
        <time>2021-06-30T08:02:56Z</time>
      </trkpt>
      <trkpt lat="45.557934" lon="5.729511">
        <ele>421.04352</ele>
        <time>2021-06-30T08:02:57Z</time>
      </trkpt>
      <trkpt lat="45.557995" lon="5.729148">
        <ele>419.37933</ele>
        <time>2021-06-30T08:02:58Z</time>
      </trkpt>
      <trkpt lat="45.558060" lon="5.728758">
        <ele>417.02277</ele>
        <time>2021-06-30T08:02:59Z</time>
      </trkpt>
      <trkpt lat="45.558109" lon="5.728358">
        <ele>416.80658</ele>
        <time>2021-06-30T08:03:00Z</time>
      </trkpt>
      <trkpt lat="45.558147" lon="5.727945">
        <ele>415.96771</ele>
        <time>2021-06-30T08:03:01Z</time>
      </trkpt>
      <trkpt lat="45.558159" lon="5.727488">
        <ele>415.33551</ele>
        <time>2021-06-30T08:03:02Z</time>
      </trkpt>
      <trkpt lat="45.558159" lon="5.727021">
        <ele>413.90350</ele>
        <time>2021-06-30T08:03:03Z</time>
      </trkpt>
      <trkpt lat="45.558147" lon="5.726597">
        <ele>413.40228</ele>
        <time>2021-06-30T08:03:04Z</time>
      </trkpt>
      <trkpt lat="45.558113" lon="5.726176">
        <ele>413.02014</ele>
        <time>2021-06-30T08:03:05Z</time>
      </trkpt>
      <trkpt lat="45.558048" lon="5.725744">
        <ele>412.04584</ele>
        <time>2021-06-30T08:03:06Z</time>
      </trkpt>
      <trkpt lat="45.557972" lon="5.725302">
        <ele>410.72772</ele>
        <time>2021-06-30T08:03:07Z</time>
      </trkpt>
      <trkpt lat="45.557877" lon="5.724867">
        <ele>410.27936</ele>
        <time>2021-06-30T08:03:08Z</time>
      </trkpt>
      <trkpt lat="45.557770" lon="5.724408">
        <ele>409.66412</ele>
        <time>2021-06-30T08:03:09Z</time>
      </trkpt>
      <trkpt lat="45.557648" lon="5.723990">
        <ele>408.37421</ele>
        <time>2021-06-30T08:03:10Z</time>
      </trkpt>
      <trkpt lat="45.557522" lon="5.723541">
        <ele>407.19611</ele>
        <time>2021-06-30T08:03:11Z</time>
      </trkpt>
      <trkpt lat="45.557407" lon="5.723098">
        <ele>406.56134</ele>
        <time>2021-06-30T08:03:12Z</time>
      </trkpt>
      <trkpt lat="45.557308" lon="5.722674">
        <ele>405.43964</ele>
        <time>2021-06-30T08:03:13Z</time>
      </trkpt>
      <trkpt lat="45.557209" lon="5.722205">
        <ele>404.29816</ele>
        <time>2021-06-30T08:03:14Z</time>
      </trkpt>
      <trkpt lat="45.557140" lon="5.721763">
        <ele>403.10931</ele>
        <time>2021-06-30T08:03:15Z</time>
      </trkpt>
      <trkpt lat="45.557076" lon="5.721270">
        <ele>402.64581</ele>
        <time>2021-06-30T08:03:16Z</time>
      </trkpt>
      <trkpt lat="45.557045" lon="5.720777">
        <ele>401.88629</ele>
        <time>2021-06-30T08:03:17Z</time>
      </trkpt>
      <trkpt lat="45.557041" lon="5.720300">
        <ele>400.22278</ele>
        <time>2021-06-30T08:03:18Z</time>
      </trkpt>
      <trkpt lat="45.557060" lon="5.719838">
        <ele>397.35858</ele>
        <time>2021-06-30T08:03:19Z</time>
      </trkpt>
      <trkpt lat="45.557110" lon="5.719376">
        <ele>396.26068</ele>
        <time>2021-06-30T08:03:20Z</time>
      </trkpt>
      <trkpt lat="45.557175" lon="5.718893">
        <ele>395.85144</ele>
        <time>2021-06-30T08:03:21Z</time>
      </trkpt>
      <trkpt lat="45.557175" lon="5.718893">
        <ele>393.46405</ele>
        <time>2021-06-30T08:03:22Z</time>
      </trkpt>
      <trkpt lat="45.557259" lon="5.718390">
        <ele>389.97931</ele>
        <time>2021-06-30T08:03:23Z</time>
      </trkpt>
      <trkpt lat="45.557339" lon="5.717929">
        <ele>387.53827</ele>
        <time>2021-06-30T08:03:24Z</time>
      </trkpt>
      <trkpt lat="45.557411" lon="5.717460">
        <ele>384.98553</ele>
        <time>2021-06-30T08:03:25Z</time>
      </trkpt>
      <trkpt lat="45.557476" lon="5.716972">
        <ele>383.13031</ele>
        <time>2021-06-30T08:03:26Z</time>
      </trkpt>
      <trkpt lat="45.557510" lon="5.716498">
        <ele>380.81415</ele>
        <time>2021-06-30T08:03:27Z</time>
      </trkpt>
      <trkpt lat="45.557541" lon="5.716005">
        <ele>379.70477</ele>
        <time>2021-06-30T08:03:28Z</time>
      </trkpt>
      <trkpt lat="45.557571" lon="5.715508">
        <ele>378.05731</ele>
        <time>2021-06-30T08:03:29Z</time>
      </trkpt>
      <trkpt lat="45.557598" lon="5.715023">
        <ele>376.82220</ele>
        <time>2021-06-30T08:03:30Z</time>
      </trkpt>
      <trkpt lat="45.557636" lon="5.714536">
        <ele>375.70245</ele>
        <time>2021-06-30T08:03:31Z</time>
      </trkpt>
      <trkpt lat="45.557678" lon="5.714077">
        <ele>374.21698</ele>
        <time>2021-06-30T08:03:32Z</time>
      </trkpt>
      <trkpt lat="45.557735" lon="5.713590">
        <ele>372.17511</ele>
        <time>2021-06-30T08:03:33Z</time>
      </trkpt>
      <trkpt lat="45.557793" lon="5.713115">
        <ele>370.48468</ele>
        <time>2021-06-30T08:03:34Z</time>
      </trkpt>
      <trkpt lat="45.557877" lon="5.712642">
        <ele>368.12280</ele>
        <time>2021-06-30T08:03:35Z</time>
      </trkpt>
      <trkpt lat="45.557961" lon="5.712189">
        <ele>365.72064</ele>
        <time>2021-06-30T08:03:36Z</time>
      </trkpt>
      <trkpt lat="45.558067" lon="5.711731">
        <ele>364.40796</ele>
        <time>2021-06-30T08:03:37Z</time>
      </trkpt>
      <trkpt lat="45.558182" lon="5.711287">
        <ele>362.88568</ele>
        <time>2021-06-30T08:03:38Z</time>
      </trkpt>
      <trkpt lat="45.558311" lon="5.710826">
        <ele>361.25684</ele>
        <time>2021-06-30T08:03:39Z</time>
      </trkpt>
      <trkpt lat="45.558441" lon="5.710404">
        <ele>358.98566</ele>
        <time>2021-06-30T08:03:40Z</time>
      </trkpt>
      <trkpt lat="45.558578" lon="5.709993">
        <ele>356.60101</ele>
        <time>2021-06-30T08:03:41Z</time>
      </trkpt>
      <trkpt lat="45.558739" lon="5.709554">
        <ele>354.43805</ele>
        <time>2021-06-30T08:03:42Z</time>
      </trkpt>
      <trkpt lat="45.558895" lon="5.709128">
        <ele>352.66559</ele>
        <time>2021-06-30T08:03:43Z</time>
      </trkpt>
      <trkpt lat="45.559063" lon="5.708676">
        <ele>351.17902</ele>
        <time>2021-06-30T08:03:44Z</time>
      </trkpt>
      <trkpt lat="45.559223" lon="5.708246">
        <ele>349.50763</ele>
        <time>2021-06-30T08:03:45Z</time>
      </trkpt>
      <trkpt lat="45.559383" lon="5.707809">
        <ele>347.82794</ele>
        <time>2021-06-30T08:03:46Z</time>
      </trkpt>
      <trkpt lat="45.559528" lon="5.707387">
        <ele>346.14478</ele>
        <time>2021-06-30T08:03:47Z</time>
      </trkpt>
      <trkpt lat="45.559677" lon="5.706938">
        <ele>344.77051</ele>
        <time>2021-06-30T08:03:48Z</time>
      </trkpt>
      <trkpt lat="45.559826" lon="5.706462">
        <ele>342.80872</ele>
        <time>2021-06-30T08:03:49Z</time>
      </trkpt>
      <trkpt lat="45.559971" lon="5.705998">
        <ele>340.82233</ele>
        <time>2021-06-30T08:03:50Z</time>
      </trkpt>
      <trkpt lat="45.560101" lon="5.705528">
        <ele>338.87842</ele>
        <time>2021-06-30T08:03:51Z</time>
      </trkpt>
      <trkpt lat="45.560226" lon="5.705058">
        <ele>337.13208</ele>
        <time>2021-06-30T08:03:52Z</time>
      </trkpt>
      <trkpt lat="45.560349" lon="5.704551">
        <ele>335.20306</ele>
        <time>2021-06-30T08:03:53Z</time>
      </trkpt>
      <trkpt lat="45.560349" lon="5.704551">
        <ele>333.85114</ele>
        <time>2021-06-30T08:03:54Z</time>
      </trkpt>
      <trkpt lat="45.560452" lon="5.704045">
        <ele>331.90790</ele>
        <time>2021-06-30T08:03:55Z</time>
      </trkpt>
      <trkpt lat="45.560555" lon="5.703543">
        <ele>329.91840</ele>
        <time>2021-06-30T08:03:56Z</time>
      </trkpt>
      <trkpt lat="45.560646" lon="5.703039">
        <ele>328.15314</ele>
        <time>2021-06-30T08:03:57Z</time>
      </trkpt>
      <trkpt lat="45.560726" lon="5.702523">
        <ele>326.31134</ele>
        <time>2021-06-30T08:03:58Z</time>
      </trkpt>
      <trkpt lat="45.560802" lon="5.702015">
        <ele>325.13300</ele>
        <time>2021-06-30T08:03:59Z</time>
      </trkpt>
      <trkpt lat="45.560863" lon="5.701515">
        <ele>324.16620</ele>
        <time>2021-06-30T08:04:00Z</time>
      </trkpt>
      <trkpt lat="45.560921" lon="5.700986">
        <ele>322.43414</ele>
        <time>2021-06-30T08:04:01Z</time>
      </trkpt>
      <trkpt lat="45.560963" lon="5.700474">
        <ele>319.62360</ele>
        <time>2021-06-30T08:04:02Z</time>
      </trkpt>
      <trkpt lat="45.561001" lon="5.699973">
        <ele>317.69141</ele>
        <time>2021-06-30T08:04:03Z</time>
      </trkpt>
      <trkpt lat="45.561024" lon="5.699480">
        <ele>315.69672</ele>
        <time>2021-06-30T08:04:04Z</time>
      </trkpt>
      <trkpt lat="45.561047" lon="5.698956">
        <ele>313.65387</ele>
        <time>2021-06-30T08:04:05Z</time>
      </trkpt>
      <trkpt lat="45.561054" lon="5.698441">
        <ele>311.43451</ele>
        <time>2021-06-30T08:04:06Z</time>
      </trkpt>
      <trkpt lat="45.561054" lon="5.697925">
        <ele>310.33447</ele>
        <time>2021-06-30T08:04:07Z</time>
      </trkpt>
      <trkpt lat="45.561050" lon="5.697409">
        <ele>308.55188</ele>
        <time>2021-06-30T08:04:08Z</time>
      </trkpt>
      <trkpt lat="45.561043" lon="5.696899">
        <ele>305.93079</ele>
        <time>2021-06-30T08:04:09Z</time>
      </trkpt>
      <trkpt lat="45.561028" lon="5.696377">
        <ele>303.78308</ele>
        <time>2021-06-30T08:04:10Z</time>
      </trkpt>
      <trkpt lat="45.561016" lon="5.695860">
        <ele>302.15295</ele>
        <time>2021-06-30T08:04:11Z</time>
      </trkpt>
      <trkpt lat="45.561005" lon="5.695347">
        <ele>300.44934</ele>
        <time>2021-06-30T08:04:12Z</time>
      </trkpt>
      <trkpt lat="45.560989" lon="5.694821">
        <ele>298.82520</ele>
        <time>2021-06-30T08:04:13Z</time>
      </trkpt>
      <trkpt lat="45.560986" lon="5.694297">
        <ele>297.18646</ele>
        <time>2021-06-30T08:04:14Z</time>
      </trkpt>
      <trkpt lat="45.560982" lon="5.693813">
        <ele>295.72821</ele>
        <time>2021-06-30T08:04:15Z</time>
      </trkpt>
      <trkpt lat="45.560986" lon="5.693297">
        <ele>294.93518</ele>
        <time>2021-06-30T08:04:16Z</time>
      </trkpt>
      <trkpt lat="45.560997" lon="5.692775">
        <ele>294.27155</ele>
        <time>2021-06-30T08:04:17Z</time>
      </trkpt>
      <trkpt lat="45.561024" lon="5.692229">
        <ele>293.65173</ele>
        <time>2021-06-30T08:04:18Z</time>
      </trkpt>
      <trkpt lat="45.561054" lon="5.691710">
        <ele>293.38342</ele>
        <time>2021-06-30T08:04:19Z</time>
      </trkpt>
      <trkpt lat="45.561096" lon="5.691191">
        <ele>292.87122</ele>
        <time>2021-06-30T08:04:20Z</time>
      </trkpt>
      <trkpt lat="45.561138" lon="5.690697">
        <ele>288.03394</ele>
        <time>2021-06-30T08:04:21Z</time>
      </trkpt>
      <trkpt lat="45.561203" lon="5.690173">
        <ele>285.41479</ele>
        <time>2021-06-30T08:04:22Z</time>
      </trkpt>
      <trkpt lat="45.561203" lon="5.690173">
        <ele>281.01080</ele>
        <time>2021-06-30T08:04:23Z</time>
      </trkpt>
      <trkpt lat="45.561264" lon="5.689658">
        <ele>278.39093</ele>
        <time>2021-06-30T08:04:24Z</time>
      </trkpt>
      <trkpt lat="45.561340" lon="5.689167">
        <ele>277.87097</ele>
        <time>2021-06-30T08:04:25Z</time>
      </trkpt>
      <trkpt lat="45.561424" lon="5.688676">
        <ele>275.84924</ele>
        <time>2021-06-30T08:04:26Z</time>
      </trkpt>
      <trkpt lat="45.561520" lon="5.688159">
        <ele>274.32434</ele>
        <time>2021-06-30T08:04:27Z</time>
      </trkpt>
      <trkpt lat="45.561623" lon="5.687671">
        <ele>272.92224</ele>
        <time>2021-06-30T08:04:28Z</time>
      </trkpt>
      <trkpt lat="45.561733" lon="5.687175">
        <ele>271.60968</ele>
        <time>2021-06-30T08:04:29Z</time>
      </trkpt>
      <trkpt lat="45.561848" lon="5.686683">
        <ele>270.68188</ele>
        <time>2021-06-30T08:04:30Z</time>
      </trkpt>
      <trkpt lat="45.561970" lon="5.686197">
        <ele>268.38367</ele>
        <time>2021-06-30T08:04:31Z</time>
      </trkpt>
      <trkpt lat="45.562092" lon="5.685717">
        <ele>267.34351</ele>
        <time>2021-06-30T08:04:32Z</time>
      </trkpt>
      <trkpt lat="45.562218" lon="5.685252">
        <ele>266.60498</ele>
        <time>2021-06-30T08:04:33Z</time>
      </trkpt>
      <trkpt lat="45.562355" lon="5.684747">
        <ele>265.95349</ele>
        <time>2021-06-30T08:04:34Z</time>
      </trkpt>
      <trkpt lat="45.562492" lon="5.684254">
        <ele>265.42303</ele>
        <time>2021-06-30T08:04:35Z</time>
      </trkpt>
      <trkpt lat="45.562626" lon="5.683791">
        <ele>265.06763</ele>
        <time>2021-06-30T08:04:36Z</time>
      </trkpt>
      <trkpt lat="45.562767" lon="5.683307">
        <ele>264.68774</ele>
        <time>2021-06-30T08:04:37Z</time>
      </trkpt>
      <trkpt lat="45.562904" lon="5.682851">
        <ele>264.13281</ele>
        <time>2021-06-30T08:04:38Z</time>
      </trkpt>
      <trkpt lat="45.563046" lon="5.682383">
        <ele>263.47229</ele>
        <time>2021-06-30T08:04:39Z</time>
      </trkpt>
      <trkpt lat="45.563194" lon="5.681920">
        <ele>262.87579</ele>
        <time>2021-06-30T08:04:40Z</time>
      </trkpt>
      <trkpt lat="45.563347" lon="5.681446">
        <ele>262.46503</ele>
        <time>2021-06-30T08:04:41Z</time>
      </trkpt>
      <trkpt lat="45.563496" lon="5.680988">
        <ele>261.10754</ele>
        <time>2021-06-30T08:04:42Z</time>
      </trkpt>
      <trkpt lat="45.563644" lon="5.680538">
        <ele>259.98877</ele>
        <time>2021-06-30T08:04:43Z</time>
      </trkpt>
      <trkpt lat="45.563805" lon="5.680078">
        <ele>259.18677</ele>
        <time>2021-06-30T08:04:44Z</time>
      </trkpt>
      <trkpt lat="45.563965" lon="5.679633">
        <ele>258.29871</ele>
        <time>2021-06-30T08:04:45Z</time>
      </trkpt>
      <trkpt lat="45.564137" lon="5.679164">
        <ele>257.74780</ele>
        <time>2021-06-30T08:04:46Z</time>
      </trkpt>
      <trkpt lat="45.564308" lon="5.678688">
        <ele>256.87177</ele>
        <time>2021-06-30T08:04:47Z</time>
      </trkpt>
      <trkpt lat="45.564476" lon="5.678243">
        <ele>255.81921</ele>
        <time>2021-06-30T08:04:48Z</time>
      </trkpt>
      <trkpt lat="45.564651" lon="5.677805">
        <ele>254.77576</ele>
        <time>2021-06-30T08:04:49Z</time>
      </trkpt>
      <trkpt lat="45.564835" lon="5.677348">
        <ele>253.45557</ele>
        <time>2021-06-30T08:04:50Z</time>
      </trkpt>
      <trkpt lat="45.565022" lon="5.676911">
        <ele>252.48792</ele>
        <time>2021-06-30T08:04:51Z</time>
      </trkpt>
      <trkpt lat="45.565216" lon="5.676475">
        <ele>251.69202</ele>
        <time>2021-06-30T08:04:52Z</time>
      </trkpt>
      <trkpt lat="45.565426" lon="5.676033">
        <ele>250.67432</ele>
        <time>2021-06-30T08:04:53Z</time>
      </trkpt>
      <trkpt lat="45.565426" lon="5.676033">
        <ele>249.82416</ele>
        <time>2021-06-30T08:04:54Z</time>
      </trkpt>
      <trkpt lat="45.565632" lon="5.675601">
        <ele>249.05420</ele>
        <time>2021-06-30T08:04:55Z</time>
      </trkpt>
      <trkpt lat="45.565849" lon="5.675174">
        <ele>248.23999</ele>
        <time>2021-06-30T08:04:56Z</time>
      </trkpt>
      <trkpt lat="45.566055" lon="5.674773">
        <ele>247.54688</ele>
        <time>2021-06-30T08:04:57Z</time>
      </trkpt>
      <trkpt lat="45.566273" lon="5.674363">
        <ele>246.65906</ele>
        <time>2021-06-30T08:04:58Z</time>
      </trkpt>
      <trkpt lat="45.566498" lon="5.673952">
        <ele>246.02393</ele>
        <time>2021-06-30T08:04:59Z</time>
      </trkpt>
      <trkpt lat="45.566715" lon="5.673547">
        <ele>245.24939</ele>
        <time>2021-06-30T08:05:00Z</time>
      </trkpt>
      <trkpt lat="45.566936" lon="5.673146">
        <ele>244.34180</ele>
        <time>2021-06-30T08:05:01Z</time>
      </trkpt>
      <trkpt lat="45.567165" lon="5.672729">
        <ele>243.05847</ele>
        <time>2021-06-30T08:05:02Z</time>
      </trkpt>
      <trkpt lat="45.567390" lon="5.672319">
        <ele>242.06555</ele>
        <time>2021-06-30T08:05:03Z</time>
      </trkpt>
      <trkpt lat="45.567619" lon="5.671905">
        <ele>241.23627</ele>
        <time>2021-06-30T08:05:04Z</time>
      </trkpt>
      <trkpt lat="45.567837" lon="5.671509">
        <ele>240.81360</ele>
        <time>2021-06-30T08:05:05Z</time>
      </trkpt>
      <trkpt lat="45.568062" lon="5.671097">
        <ele>241.36890</ele>
        <time>2021-06-30T08:05:06Z</time>
      </trkpt>
      <trkpt lat="45.568275" lon="5.670684">
        <ele>240.85181</ele>
        <time>2021-06-30T08:05:07Z</time>
      </trkpt>
      <trkpt lat="45.568481" lon="5.670284">
        <ele>240.82977</ele>
        <time>2021-06-30T08:05:08Z</time>
      </trkpt>
      <trkpt lat="45.568687" lon="5.669887">
        <ele>240.26111</ele>
        <time>2021-06-30T08:05:09Z</time>
      </trkpt>
      <trkpt lat="45.568901" lon="5.669480">
        <ele>239.90649</ele>
        <time>2021-06-30T08:05:10Z</time>
      </trkpt>
      <trkpt lat="45.569115" lon="5.669064">
        <ele>239.38928</ele>
        <time>2021-06-30T08:05:11Z</time>
      </trkpt>
      <trkpt lat="45.569321" lon="5.668657">
        <ele>239.28741</ele>
        <time>2021-06-30T08:05:12Z</time>
      </trkpt>
      <trkpt lat="45.569515" lon="5.668262">
        <ele>239.00098</ele>
        <time>2021-06-30T08:05:13Z</time>
      </trkpt>
      <trkpt lat="45.569729" lon="5.667827">
        <ele>238.71472</ele>
        <time>2021-06-30T08:05:14Z</time>
      </trkpt>
      <trkpt lat="45.569931" lon="5.667399">
        <ele>238.61725</ele>
        <time>2021-06-30T08:05:15Z</time>
      </trkpt>
      <trkpt lat="45.570126" lon="5.666984">
        <ele>238.51831</ele>
        <time>2021-06-30T08:05:16Z</time>
      </trkpt>
      <trkpt lat="45.570320" lon="5.666558">
        <ele>238.66101</ele>
        <time>2021-06-30T08:05:17Z</time>
      </trkpt>
      <trkpt lat="45.570515" lon="5.666117">
        <ele>238.70349</ele>
        <time>2021-06-30T08:05:18Z</time>
      </trkpt>
      <trkpt lat="45.570698" lon="5.665664">
        <ele>238.39630</ele>
        <time>2021-06-30T08:05:19Z</time>
      </trkpt>
      <trkpt lat="45.570877" lon="5.665218">
        <ele>237.85999</ele>
        <time>2021-06-30T08:05:20Z</time>
      </trkpt>
      <trkpt lat="45.571049" lon="5.664776">
        <ele>238.00537</ele>
        <time>2021-06-30T08:05:21Z</time>
      </trkpt>
      <trkpt lat="45.571201" lon="5.664328">
        <ele>237.91858</ele>
        <time>2021-06-30T08:05:22Z</time>
      </trkpt>
      <trkpt lat="45.571362" lon="5.663865">
        <ele>237.44080</ele>
        <time>2021-06-30T08:05:23Z</time>
      </trkpt>
      <trkpt lat="45.571507" lon="5.663396">
        <ele>237.71436</ele>
        <time>2021-06-30T08:05:24Z</time>
      </trkpt>
      <trkpt lat="45.571648" lon="5.662918">
        <ele>237.84637</ele>
        <time>2021-06-30T08:05:25Z</time>
      </trkpt>
      <trkpt lat="45.571648" lon="5.662918">
        <ele>236.92114</ele>
        <time>2021-06-30T08:05:26Z</time>
      </trkpt>
      <trkpt lat="45.571781" lon="5.662409">
        <ele>237.18555</ele>
        <time>2021-06-30T08:05:27Z</time>
      </trkpt>
      <trkpt lat="45.571899" lon="5.661928">
        <ele>236.91809</ele>
        <time>2021-06-30T08:05:28Z</time>
      </trkpt>
      <trkpt lat="45.572018" lon="5.661433">
        <ele>236.75647</ele>
        <time>2021-06-30T08:05:29Z</time>
      </trkpt>
      <trkpt lat="45.572117" lon="5.660928">
        <ele>236.82312</ele>
        <time>2021-06-30T08:05:30Z</time>
      </trkpt>
      <trkpt lat="45.572216" lon="5.660426">
        <ele>236.95605</ele>
        <time>2021-06-30T08:05:31Z</time>
      </trkpt>
      <trkpt lat="45.572304" lon="5.659942">
        <ele>236.88147</ele>
        <time>2021-06-30T08:05:32Z</time>
      </trkpt>
      <trkpt lat="45.572372" lon="5.659438">
        <ele>236.26172</ele>
        <time>2021-06-30T08:05:33Z</time>
      </trkpt>
      <trkpt lat="45.572433" lon="5.658927">
        <ele>236.28345</ele>
        <time>2021-06-30T08:05:34Z</time>
      </trkpt>
      <trkpt lat="45.572491" lon="5.658411">
        <ele>236.03955</ele>
        <time>2021-06-30T08:05:35Z</time>
      </trkpt>
      <trkpt lat="45.572536" lon="5.657899">
        <ele>235.90277</ele>
        <time>2021-06-30T08:05:36Z</time>
      </trkpt>
      <trkpt lat="45.572578" lon="5.657398">
        <ele>235.87476</ele>
        <time>2021-06-30T08:05:37Z</time>
      </trkpt>
      <trkpt lat="45.572620" lon="5.656904">
        <ele>235.37500</ele>
        <time>2021-06-30T08:05:38Z</time>
      </trkpt>
      <trkpt lat="45.572662" lon="5.656403">
        <ele>235.30664</ele>
        <time>2021-06-30T08:05:39Z</time>
      </trkpt>
      <trkpt lat="45.572701" lon="5.655880">
        <ele>235.25555</ele>
        <time>2021-06-30T08:05:40Z</time>
      </trkpt>
      <trkpt lat="45.572735" lon="5.655339">
        <ele>235.08539</ele>
        <time>2021-06-30T08:05:41Z</time>
      </trkpt>
      <trkpt lat="45.572773" lon="5.654855">
        <ele>234.78650</ele>
        <time>2021-06-30T08:05:42Z</time>
      </trkpt>
      <trkpt lat="45.572811" lon="5.654339">
        <ele>234.94507</ele>
        <time>2021-06-30T08:05:43Z</time>
      </trkpt>
      <trkpt lat="45.572853" lon="5.653805">
        <ele>234.50696</ele>
        <time>2021-06-30T08:05:44Z</time>
      </trkpt>
      <trkpt lat="45.572887" lon="5.653311">
        <ele>234.48828</ele>
        <time>2021-06-30T08:05:45Z</time>
      </trkpt>
      <trkpt lat="45.572933" lon="5.652825">
        <ele>234.94543</ele>
        <time>2021-06-30T08:05:46Z</time>
      </trkpt>
      <trkpt lat="45.572994" lon="5.652270">
        <ele>234.85706</ele>
        <time>2021-06-30T08:05:47Z</time>
      </trkpt>
      <trkpt lat="45.573048" lon="5.651782">
        <ele>234.52490</ele>
        <time>2021-06-30T08:05:48Z</time>
      </trkpt>
      <trkpt lat="45.573101" lon="5.651307">
        <ele>233.76569</ele>
        <time>2021-06-30T08:05:49Z</time>
      </trkpt>
      <trkpt lat="45.573162" lon="5.650802">
        <ele>233.58862</ele>
        <time>2021-06-30T08:05:50Z</time>
      </trkpt>
      <trkpt lat="45.573235" lon="5.650288">
        <ele>233.28900</ele>
        <time>2021-06-30T08:05:51Z</time>
      </trkpt>
      <trkpt lat="45.573307" lon="5.649768">
        <ele>232.95056</ele>
        <time>2021-06-30T08:05:52Z</time>
      </trkpt>
      <trkpt lat="45.573380" lon="5.649283">
        <ele>232.36353</ele>
        <time>2021-06-30T08:05:53Z</time>
      </trkpt>
      <trkpt lat="45.573456" lon="5.648786">
        <ele>232.01929</ele>
        <time>2021-06-30T08:05:54Z</time>
      </trkpt>
      <trkpt lat="45.573544" lon="5.648262">
        <ele>231.48108</ele>
        <time>2021-06-30T08:05:55Z</time>
      </trkpt>
      <trkpt lat="45.573635" lon="5.647748">
        <ele>231.65656</ele>
        <time>2021-06-30T08:05:56Z</time>
      </trkpt>
      <trkpt lat="45.573730" lon="5.647236">
        <ele>231.67175</ele>
        <time>2021-06-30T08:05:57Z</time>
      </trkpt>
      <trkpt lat="45.573830" lon="5.646753">
        <ele>231.42444</ele>
        <time>2021-06-30T08:05:58Z</time>
      </trkpt>
      <trkpt lat="45.573830" lon="5.646753">
        <ele>231.06848</ele>
        <time>2021-06-30T08:05:59Z</time>
      </trkpt>
      <trkpt lat="45.573940" lon="5.646246">
        <ele>230.89148</ele>
        <time>2021-06-30T08:06:00Z</time>
      </trkpt>
      <trkpt lat="45.574055" lon="5.645758">
        <ele>230.87305</ele>
        <time>2021-06-30T08:06:01Z</time>
      </trkpt>
      <trkpt lat="45.574158" lon="5.645299">
        <ele>230.79773</ele>
        <time>2021-06-30T08:06:02Z</time>
      </trkpt>
      <trkpt lat="45.574265" lon="5.644860">
        <ele>230.29175</ele>
        <time>2021-06-30T08:06:03Z</time>
      </trkpt>
      <trkpt lat="45.574371" lon="5.644445">
        <ele>230.11670</ele>
        <time>2021-06-30T08:06:04Z</time>
      </trkpt>
      <trkpt lat="45.574490" lon="5.644030">
        <ele>229.96436</ele>
        <time>2021-06-30T08:06:05Z</time>
      </trkpt>
      <trkpt lat="45.574589" lon="5.643668">
        <ele>229.73431</ele>
        <time>2021-06-30T08:06:06Z</time>
      </trkpt>
      <trkpt lat="45.574688" lon="5.643317">
        <ele>229.63892</ele>
        <time>2021-06-30T08:06:07Z</time>
      </trkpt>
      <trkpt lat="45.574795" lon="5.642956">
        <ele>229.53699</ele>
        <time>2021-06-30T08:06:08Z</time>
      </trkpt>
      <trkpt lat="45.574898" lon="5.642614">
        <ele>229.75464</ele>
        <time>2021-06-30T08:06:09Z</time>
      </trkpt>
      <trkpt lat="45.575005" lon="5.642270">
        <ele>230.04382</ele>
        <time>2021-06-30T08:06:10Z</time>
      </trkpt>
      <trkpt lat="45.575111" lon="5.641928">
        <ele>231.10229</ele>
        <time>2021-06-30T08:06:11Z</time>
      </trkpt>
      <trkpt lat="45.575211" lon="5.641614">
        <ele>230.74866</ele>
        <time>2021-06-30T08:06:12Z</time>
      </trkpt>
      <trkpt lat="45.575329" lon="5.641245">
        <ele>230.37329</ele>
        <time>2021-06-30T08:06:13Z</time>
      </trkpt>
      <trkpt lat="45.575443" lon="5.640895">
        <ele>230.30090</ele>
        <time>2021-06-30T08:06:14Z</time>
      </trkpt>
      <trkpt lat="45.575565" lon="5.640528">
        <ele>230.17761</ele>
        <time>2021-06-30T08:06:15Z</time>
      </trkpt>
      <trkpt lat="45.575684" lon="5.640186">
        <ele>230.29102</ele>
        <time>2021-06-30T08:06:16Z</time>
      </trkpt>
      <trkpt lat="45.575790" lon="5.639863">
        <ele>230.15118</ele>
        <time>2021-06-30T08:06:17Z</time>
      </trkpt>
      <trkpt lat="45.575909" lon="5.639513">
        <ele>230.01660</ele>
        <time>2021-06-30T08:06:18Z</time>
      </trkpt>
      <trkpt lat="45.576019" lon="5.639182">
        <ele>229.53864</ele>
        <time>2021-06-30T08:06:19Z</time>
      </trkpt>
      <trkpt lat="45.576134" lon="5.638847">
        <ele>229.06860</ele>
        <time>2021-06-30T08:06:20Z</time>
      </trkpt>
      <trkpt lat="45.576244" lon="5.638522">
        <ele>228.84546</ele>
        <time>2021-06-30T08:06:21Z</time>
      </trkpt>
      <trkpt lat="45.576359" lon="5.638180">
        <ele>228.66187</ele>
        <time>2021-06-30T08:06:22Z</time>
      </trkpt>
      <trkpt lat="45.576466" lon="5.637844">
        <ele>228.12000</ele>
        <time>2021-06-30T08:06:23Z</time>
      </trkpt>
      <trkpt lat="45.576572" lon="5.637532">
        <ele>228.17444</ele>
        <time>2021-06-30T08:06:24Z</time>
      </trkpt>
      <trkpt lat="45.576691" lon="5.637216">
        <ele>228.12610</ele>
        <time>2021-06-30T08:06:25Z</time>
      </trkpt>
      <trkpt lat="45.576809" lon="5.636895">
        <ele>228.26562</ele>
        <time>2021-06-30T08:06:26Z</time>
      </trkpt>
      <trkpt lat="45.576809" lon="5.636895">
        <ele>228.28235</ele>
        <time>2021-06-30T08:06:27Z</time>
      </trkpt>
      <trkpt lat="45.576927" lon="5.636548">
        <ele>228.31543</ele>
        <time>2021-06-30T08:06:28Z</time>
      </trkpt>
      <trkpt lat="45.577042" lon="5.636206">
        <ele>228.17432</ele>
        <time>2021-06-30T08:06:29Z</time>
      </trkpt>
      <trkpt lat="45.577148" lon="5.635856">
        <ele>228.05743</ele>
        <time>2021-06-30T08:06:30Z</time>
      </trkpt>
      <trkpt lat="45.577251" lon="5.635506">
        <ele>227.84460</ele>
        <time>2021-06-30T08:06:31Z</time>
      </trkpt>
      <trkpt lat="45.577366" lon="5.635135">
        <ele>227.75818</ele>
        <time>2021-06-30T08:06:32Z</time>
      </trkpt>
      <trkpt lat="45.577473" lon="5.634772">
        <ele>227.60596</ele>
        <time>2021-06-30T08:06:33Z</time>
      </trkpt>
      <trkpt lat="45.577579" lon="5.634411">
        <ele>227.63049</ele>
        <time>2021-06-30T08:06:34Z</time>
      </trkpt>
      <trkpt lat="45.577682" lon="5.634047">
        <ele>227.70337</ele>
        <time>2021-06-30T08:06:35Z</time>
      </trkpt>
      <trkpt lat="45.577774" lon="5.633703">
        <ele>228.00525</ele>
        <time>2021-06-30T08:06:36Z</time>
      </trkpt>
      <trkpt lat="45.577862" lon="5.633360">
        <ele>228.62848</ele>
        <time>2021-06-30T08:06:37Z</time>
      </trkpt>
      <trkpt lat="45.577942" lon="5.633025">
        <ele>228.70007</ele>
        <time>2021-06-30T08:06:38Z</time>
      </trkpt>
      <trkpt lat="45.578011" lon="5.632688">
        <ele>228.49402</ele>
        <time>2021-06-30T08:06:39Z</time>
      </trkpt>
      <trkpt lat="45.578087" lon="5.632324">
        <ele>228.10742</ele>
        <time>2021-06-30T08:06:40Z</time>
      </trkpt>
      <trkpt lat="45.578167" lon="5.631984">
        <ele>228.40295</ele>
        <time>2021-06-30T08:06:41Z</time>
      </trkpt>
      <trkpt lat="45.578247" lon="5.631635">
        <ele>228.62720</ele>
        <time>2021-06-30T08:06:42Z</time>
      </trkpt>
      <trkpt lat="45.578320" lon="5.631287">
        <ele>229.13147</ele>
        <time>2021-06-30T08:06:43Z</time>
      </trkpt>
      <trkpt lat="45.578388" lon="5.630939">
        <ele>229.00409</ele>
        <time>2021-06-30T08:06:44Z</time>
      </trkpt>
      <trkpt lat="45.578453" lon="5.630592">
        <ele>229.75110</ele>
        <time>2021-06-30T08:06:45Z</time>
      </trkpt>
      <trkpt lat="45.578510" lon="5.630234">
        <ele>230.39661</ele>
        <time>2021-06-30T08:06:46Z</time>
      </trkpt>
      <trkpt lat="45.578571" lon="5.629871">
        <ele>230.65900</ele>
        <time>2021-06-30T08:06:47Z</time>
      </trkpt>
      <trkpt lat="45.578629" lon="5.629500">
        <ele>230.72626</ele>
        <time>2021-06-30T08:06:48Z</time>
      </trkpt>
      <trkpt lat="45.578682" lon="5.629124">
        <ele>231.02490</ele>
        <time>2021-06-30T08:06:49Z</time>
      </trkpt>
      <trkpt lat="45.578739" lon="5.628745">
        <ele>231.74011</ele>
        <time>2021-06-30T08:06:50Z</time>
      </trkpt>
      <trkpt lat="45.578781" lon="5.628351">
        <ele>232.14392</ele>
        <time>2021-06-30T08:06:51Z</time>
      </trkpt>
      <trkpt lat="45.578827" lon="5.627958">
        <ele>233.05505</ele>
        <time>2021-06-30T08:06:52Z</time>
      </trkpt>
      <trkpt lat="45.578865" lon="5.627579">
        <ele>233.46851</ele>
        <time>2021-06-30T08:06:53Z</time>
      </trkpt>
      <trkpt lat="45.578899" lon="5.627189">
        <ele>234.12463</ele>
        <time>2021-06-30T08:06:54Z</time>
      </trkpt>
      <trkpt lat="45.578930" lon="5.626818">
        <ele>234.61743</ele>
        <time>2021-06-30T08:06:55Z</time>
      </trkpt>
      <trkpt lat="45.578957" lon="5.626436">
        <ele>235.14600</ele>
        <time>2021-06-30T08:06:56Z</time>
      </trkpt>
      <trkpt lat="45.578957" lon="5.626436">
        <ele>235.81104</ele>
        <time>2021-06-30T08:06:57Z</time>
      </trkpt>
      <trkpt lat="45.578972" lon="5.626074">
        <ele>236.19397</ele>
        <time>2021-06-30T08:06:58Z</time>
      </trkpt>
      <trkpt lat="45.578987" lon="5.625685">
        <ele>236.60791</ele>
        <time>2021-06-30T08:06:59Z</time>
      </trkpt>
      <trkpt lat="45.579006" lon="5.625320">
        <ele>237.01019</ele>
        <time>2021-06-30T08:07:00Z</time>
      </trkpt>
      <trkpt lat="45.579018" lon="5.624956">
        <ele>237.41394</ele>
        <time>2021-06-30T08:07:01Z</time>
      </trkpt>
      <trkpt lat="45.579025" lon="5.624577">
        <ele>237.90857</ele>
        <time>2021-06-30T08:07:02Z</time>
      </trkpt>
      <trkpt lat="45.579025" lon="5.624208">
        <ele>238.71948</ele>
        <time>2021-06-30T08:07:03Z</time>
      </trkpt>
      <trkpt lat="45.579025" lon="5.623834">
        <ele>239.77563</ele>
        <time>2021-06-30T08:07:04Z</time>
      </trkpt>
      <trkpt lat="45.579018" lon="5.623467">
        <ele>240.38635</ele>
        <time>2021-06-30T08:07:05Z</time>
      </trkpt>
      <trkpt lat="45.579006" lon="5.623096">
        <ele>241.06799</ele>
        <time>2021-06-30T08:07:06Z</time>
      </trkpt>
      <trkpt lat="45.578999" lon="5.622735">
        <ele>241.56177</ele>
        <time>2021-06-30T08:07:07Z</time>
      </trkpt>
      <trkpt lat="45.578983" lon="5.622374">
        <ele>242.41339</ele>
        <time>2021-06-30T08:07:08Z</time>
      </trkpt>
      <trkpt lat="45.578960" lon="5.622027">
        <ele>242.55908</ele>
        <time>2021-06-30T08:07:09Z</time>
      </trkpt>
      <trkpt lat="45.578938" lon="5.621678">
        <ele>242.75244</ele>
        <time>2021-06-30T08:07:10Z</time>
      </trkpt>
      <trkpt lat="45.578915" lon="5.621323">
        <ele>243.32666</ele>
        <time>2021-06-30T08:07:11Z</time>
      </trkpt>
      <trkpt lat="45.578884" lon="5.620989">
        <ele>243.69299</ele>
        <time>2021-06-30T08:07:12Z</time>
      </trkpt>
      <trkpt lat="45.578854" lon="5.620684">
        <ele>243.52734</ele>
        <time>2021-06-30T08:07:13Z</time>
      </trkpt>
      <trkpt lat="45.578815" lon="5.620362">
        <ele>243.49585</ele>
        <time>2021-06-30T08:07:14Z</time>
      </trkpt>
      <trkpt lat="45.578781" lon="5.620040">
        <ele>243.96088</ele>
        <time>2021-06-30T08:07:15Z</time>
      </trkpt>
      <trkpt lat="45.578743" lon="5.619697">
        <ele>244.05835</ele>
        <time>2021-06-30T08:07:16Z</time>
      </trkpt>
      <trkpt lat="45.578709" lon="5.619397">
        <ele>244.23181</ele>
        <time>2021-06-30T08:07:17Z</time>
      </trkpt>
      <trkpt lat="45.578663" lon="5.619076">
        <ele>244.10327</ele>
        <time>2021-06-30T08:07:18Z</time>
      </trkpt>
      <trkpt lat="45.578625" lon="5.618783">
        <ele>243.98425</ele>
        <time>2021-06-30T08:07:19Z</time>
      </trkpt>
      <trkpt lat="45.578579" lon="5.618476">
        <ele>243.91614</ele>
        <time>2021-06-30T08:07:20Z</time>
      </trkpt>
      <trkpt lat="45.578522" lon="5.618164">
        <ele>243.81384</ele>
        <time>2021-06-30T08:07:21Z</time>
      </trkpt>
      <trkpt lat="45.578465" lon="5.617848">
        <ele>243.85608</ele>
        <time>2021-06-30T08:07:22Z</time>
      </trkpt>
      <trkpt lat="45.578411" lon="5.617553">
        <ele>243.81384</ele>
        <time>2021-06-30T08:07:23Z</time>
      </trkpt>
      <trkpt lat="45.578369" lon="5.617318">
        <ele>243.80493</ele>
        <time>2021-06-30T08:07:24Z</time>
      </trkpt>
      <trkpt lat="45.578320" lon="5.617090">
        <ele>233.88303</ele>
        <time>2021-06-30T08:07:25Z</time>
      </trkpt>
      <trkpt lat="45.578270" lon="5.616857">
        <ele>232.46849</ele>
        <time>2021-06-30T08:07:26Z</time>
      </trkpt>
      <trkpt lat="45.578270" lon="5.616857">
        <ele>231.75011</ele>
        <time>2021-06-30T08:07:27Z</time>
      </trkpt>
      <trkpt lat="45.578220" lon="5.616626">
        <ele>233.19789</ele>
        <time>2021-06-30T08:07:28Z</time>
      </trkpt>
      <trkpt lat="45.578171" lon="5.616397">
        <ele>243.18384</ele>
        <time>2021-06-30T08:07:29Z</time>
      </trkpt>
      <trkpt lat="45.578121" lon="5.616151">
        <ele>231.52097</ele>
        <time>2021-06-30T08:07:30Z</time>
      </trkpt>
      <trkpt lat="45.578053" lon="5.615882">
        <ele>231.58099</ele>
        <time>2021-06-30T08:07:31Z</time>
      </trkpt>
      <trkpt lat="45.577991" lon="5.615635">
        <ele>230.76495</ele>
        <time>2021-06-30T08:07:32Z</time>
      </trkpt>
      <trkpt lat="45.577934" lon="5.615408">
        <ele>240.06757</ele>
        <time>2021-06-30T08:07:33Z</time>
      </trkpt>
      <trkpt lat="45.577873" lon="5.615168">
        <ele>239.32837</ele>
        <time>2021-06-30T08:07:34Z</time>
      </trkpt>
      <trkpt lat="45.577797" lon="5.614875">
        <ele>238.49231</ele>
        <time>2021-06-30T08:07:35Z</time>
      </trkpt>
      <trkpt lat="45.577709" lon="5.614561">
        <ele>238.26416</ele>
        <time>2021-06-30T08:07:36Z</time>
      </trkpt>
      <trkpt lat="45.577576" lon="5.614090">
        <ele>238.38257</ele>
        <time>2021-06-30T08:07:37Z</time>
      </trkpt>
      <trkpt lat="45.577465" lon="5.613733">
        <ele>238.28284</ele>
        <time>2021-06-30T08:07:38Z</time>
      </trkpt>
      <trkpt lat="45.577362" lon="5.613400">
        <ele>238.30383</ele>
        <time>2021-06-30T08:07:39Z</time>
      </trkpt>
      <trkpt lat="45.577251" lon="5.613065">
        <ele>237.98059</ele>
        <time>2021-06-30T08:07:40Z</time>
      </trkpt>
      <trkpt lat="45.577133" lon="5.612736">
        <ele>236.91028</ele>
        <time>2021-06-30T08:07:41Z</time>
      </trkpt>
      <trkpt lat="45.577007" lon="5.612378">
        <ele>237.68750</ele>
        <time>2021-06-30T08:07:42Z</time>
      </trkpt>
      <trkpt lat="45.576885" lon="5.612054">
        <ele>236.84338</ele>
        <time>2021-06-30T08:07:43Z</time>
      </trkpt>
      <trkpt lat="45.576763" lon="5.611729">
        <ele>236.28271</ele>
        <time>2021-06-30T08:07:44Z</time>
      </trkpt>
      <trkpt lat="45.576626" lon="5.611383">
        <ele>236.08032</ele>
        <time>2021-06-30T08:07:45Z</time>
      </trkpt>
      <trkpt lat="45.576488" lon="5.611054">
        <ele>236.18591</ele>
        <time>2021-06-30T08:07:46Z</time>
      </trkpt>
      <trkpt lat="45.576347" lon="5.610718">
        <ele>235.55505</ele>
        <time>2021-06-30T08:07:47Z</time>
      </trkpt>
      <trkpt lat="45.576210" lon="5.610395">
        <ele>235.40369</ele>
        <time>2021-06-30T08:07:48Z</time>
      </trkpt>
      <trkpt lat="45.576054" lon="5.610049">
        <ele>235.77631</ele>
        <time>2021-06-30T08:07:49Z</time>
      </trkpt>
      <trkpt lat="45.575916" lon="5.609740">
        <ele>235.98425</ele>
        <time>2021-06-30T08:07:50Z</time>
      </trkpt>
      <trkpt lat="45.575768" lon="5.609410">
        <ele>235.82483</ele>
        <time>2021-06-30T08:07:51Z</time>
      </trkpt>
      <trkpt lat="45.575623" lon="5.609098">
        <ele>235.70667</ele>
        <time>2021-06-30T08:07:52Z</time>
      </trkpt>
      <trkpt lat="45.575474" lon="5.608786">
        <ele>235.98737</ele>
        <time>2021-06-30T08:07:53Z</time>
      </trkpt>
      <trkpt lat="45.575321" lon="5.608468">
        <ele>236.34229</ele>
        <time>2021-06-30T08:07:54Z</time>
      </trkpt>
      <trkpt lat="45.575176" lon="5.608168">
        <ele>237.10046</ele>
        <time>2021-06-30T08:07:55Z</time>
      </trkpt>
      <trkpt lat="45.575020" lon="5.607843">
        <ele>237.95734</ele>
        <time>2021-06-30T08:07:56Z</time>
      </trkpt>
      <trkpt lat="45.574856" lon="5.607521">
        <ele>238.92053</ele>
        <time>2021-06-30T08:07:57Z</time>
      </trkpt>
      <trkpt lat="45.574718" lon="5.607232">
        <ele>239.63062</ele>
        <time>2021-06-30T08:07:58Z</time>
      </trkpt>
      <trkpt lat="45.574566" lon="5.606901">
        <ele>240.19263</ele>
        <time>2021-06-30T08:07:59Z</time>
      </trkpt>
      <trkpt lat="45.574417" lon="5.606568">
        <ele>241.20190</ele>
        <time>2021-06-30T08:08:00Z</time>
      </trkpt>
      <trkpt lat="45.574265" lon="5.606237">
        <ele>241.70764</ele>
        <time>2021-06-30T08:08:01Z</time>
      </trkpt>
      <trkpt lat="45.574112" lon="5.605917">
        <ele>242.46509</ele>
        <time>2021-06-30T08:08:02Z</time>
      </trkpt>
      <trkpt lat="45.574112" lon="5.605917">
        <ele>243.32227</ele>
        <time>2021-06-30T08:08:03Z</time>
      </trkpt>
      <trkpt lat="45.573971" lon="5.605613">
        <ele>243.84430</ele>
        <time>2021-06-30T08:08:04Z</time>
      </trkpt>
      <trkpt lat="45.573822" lon="5.605300">
        <ele>244.50372</ele>
        <time>2021-06-30T08:08:05Z</time>
      </trkpt>
      <trkpt lat="45.573685" lon="5.605006">
        <ele>245.46857</ele>
        <time>2021-06-30T08:08:06Z</time>
      </trkpt>
      <trkpt lat="45.573551" lon="5.604708">
        <ele>246.37341</ele>
        <time>2021-06-30T08:08:07Z</time>
      </trkpt>
      <trkpt lat="45.573425" lon="5.604416">
        <ele>246.78394</ele>
        <time>2021-06-30T08:08:08Z</time>
      </trkpt>
      <trkpt lat="45.573315" lon="5.604154">
        <ele>247.15552</ele>
        <time>2021-06-30T08:08:09Z</time>
      </trkpt>
      <trkpt lat="45.573181" lon="5.603845">
        <ele>248.21118</ele>
        <time>2021-06-30T08:08:10Z</time>
      </trkpt>
      <trkpt lat="45.573044" lon="5.603520">
        <ele>249.38049</ele>
        <time>2021-06-30T08:08:11Z</time>
      </trkpt>
      <trkpt lat="45.572903" lon="5.603197">
        <ele>249.95959</ele>
        <time>2021-06-30T08:08:12Z</time>
      </trkpt>
      <trkpt lat="45.572773" lon="5.602879">
        <ele>250.27417</ele>
        <time>2021-06-30T08:08:13Z</time>
      </trkpt>
      <trkpt lat="45.572651" lon="5.602553">
        <ele>250.47681</ele>
        <time>2021-06-30T08:08:14Z</time>
      </trkpt>
      <trkpt lat="45.572533" lon="5.602234">
        <ele>251.39752</ele>
        <time>2021-06-30T08:08:15Z</time>
      </trkpt>
      <trkpt lat="45.572430" lon="5.601947">
        <ele>252.10608</ele>
        <time>2021-06-30T08:08:16Z</time>
      </trkpt>
      <trkpt lat="45.572323" lon="5.601655">
        <ele>252.93201</ele>
        <time>2021-06-30T08:08:17Z</time>
      </trkpt>
      <trkpt lat="45.572224" lon="5.601347">
        <ele>253.49182</ele>
        <time>2021-06-30T08:08:18Z</time>
      </trkpt>
      <trkpt lat="45.572128" lon="5.601060">
        <ele>254.27441</ele>
        <time>2021-06-30T08:08:19Z</time>
      </trkpt>
      <trkpt lat="45.572041" lon="5.600765">
        <ele>254.92896</ele>
        <time>2021-06-30T08:08:20Z</time>
      </trkpt>
      <trkpt lat="45.571949" lon="5.600464">
        <ele>255.92627</ele>
        <time>2021-06-30T08:08:21Z</time>
      </trkpt>
      <trkpt lat="45.571873" lon="5.600200">
        <ele>256.28784</ele>
        <time>2021-06-30T08:08:22Z</time>
      </trkpt>
      <trkpt lat="45.571793" lon="5.599911">
        <ele>257.37646</ele>
        <time>2021-06-30T08:08:23Z</time>
      </trkpt>
      <trkpt lat="45.571712" lon="5.599622">
        <ele>258.21844</ele>
        <time>2021-06-30T08:08:24Z</time>
      </trkpt>
      <trkpt lat="45.571625" lon="5.599301">
        <ele>259.12939</ele>
        <time>2021-06-30T08:08:25Z</time>
      </trkpt>
      <trkpt lat="45.571548" lon="5.599001">
        <ele>260.02551</ele>
        <time>2021-06-30T08:08:26Z</time>
      </trkpt>
      <trkpt lat="45.571480" lon="5.598699">
        <ele>261.12085</ele>
        <time>2021-06-30T08:08:27Z</time>
      </trkpt>
      <trkpt lat="45.571411" lon="5.598394">
        <ele>261.35400</ele>
        <time>2021-06-30T08:08:28Z</time>
      </trkpt>
      <trkpt lat="45.571346" lon="5.598080">
        <ele>261.97791</ele>
        <time>2021-06-30T08:08:29Z</time>
      </trkpt>
      <trkpt lat="45.571285" lon="5.597783">
        <ele>262.63376</ele>
        <time>2021-06-30T08:08:30Z</time>
      </trkpt>
      <trkpt lat="45.571228" lon="5.597501">
        <ele>263.01474</ele>
        <time>2021-06-30T08:08:31Z</time>
      </trkpt>
      <trkpt lat="45.571167" lon="5.597200">
        <ele>263.40823</ele>
        <time>2021-06-30T08:08:32Z</time>
      </trkpt>
      <trkpt lat="45.571110" lon="5.596868">
        <ele>263.71078</ele>
        <time>2021-06-30T08:08:33Z</time>
      </trkpt>
      <trkpt lat="45.571060" lon="5.596572">
        <ele>264.42392</ele>
        <time>2021-06-30T08:08:34Z</time>
      </trkpt>
      <trkpt lat="45.571007" lon="5.596244">
        <ele>264.70590</ele>
        <time>2021-06-30T08:08:35Z</time>
      </trkpt>
      <trkpt lat="45.570946" lon="5.595883">
        <ele>265.18124</ele>
        <time>2021-06-30T08:08:36Z</time>
      </trkpt>
      <trkpt lat="45.570892" lon="5.595514">
        <ele>265.34274</ele>
        <time>2021-06-30T08:08:37Z</time>
      </trkpt>
      <trkpt lat="45.570892" lon="5.595514">
        <ele>265.65195</ele>
        <time>2021-06-30T08:08:38Z</time>
      </trkpt>
      <trkpt lat="45.570850" lon="5.595165">
        <ele>266.03720</ele>
        <time>2021-06-30T08:08:39Z</time>
      </trkpt>
      <trkpt lat="45.570812" lon="5.594815">
        <ele>265.97067</ele>
        <time>2021-06-30T08:08:40Z</time>
      </trkpt>
      <trkpt lat="45.570766" lon="5.594408">
        <ele>265.97324</ele>
        <time>2021-06-30T08:08:41Z</time>
      </trkpt>
      <trkpt lat="45.570724" lon="5.594050">
        <ele>266.72263</ele>
        <time>2021-06-30T08:08:42Z</time>
      </trkpt>
      <trkpt lat="45.570686" lon="5.593665">
        <ele>266.87570</ele>
        <time>2021-06-30T08:08:43Z</time>
      </trkpt>
      <trkpt lat="45.570656" lon="5.593275">
        <ele>266.89767</ele>
        <time>2021-06-30T08:08:44Z</time>
      </trkpt>
      <trkpt lat="45.570629" lon="5.592909">
        <ele>266.89731</ele>
        <time>2021-06-30T08:08:45Z</time>
      </trkpt>
      <trkpt lat="45.570606" lon="5.592564">
        <ele>266.89621</ele>
        <time>2021-06-30T08:08:46Z</time>
      </trkpt>
      <trkpt lat="45.570583" lon="5.592206">
        <ele>266.90445</ele>
        <time>2021-06-30T08:08:47Z</time>
      </trkpt>
      <trkpt lat="45.570560" lon="5.591851">
        <ele>266.94308</ele>
        <time>2021-06-30T08:08:48Z</time>
      </trkpt>
      <trkpt lat="45.570541" lon="5.591511">
        <ele>267.05331</ele>
        <time>2021-06-30T08:08:49Z</time>
      </trkpt>
      <trkpt lat="45.570526" lon="5.591170">
        <ele>267.42496</ele>
        <time>2021-06-30T08:08:50Z</time>
      </trkpt>
      <trkpt lat="45.570515" lon="5.590814">
        <ele>267.47061</ele>
        <time>2021-06-30T08:08:51Z</time>
      </trkpt>
      <trkpt lat="45.570499" lon="5.590430">
        <ele>267.53036</ele>
        <time>2021-06-30T08:08:52Z</time>
      </trkpt>
      <trkpt lat="45.570484" lon="5.590054">
        <ele>267.71567</ele>
        <time>2021-06-30T08:08:53Z</time>
      </trkpt>
      <trkpt lat="45.570473" lon="5.589697">
        <ele>267.80716</ele>
        <time>2021-06-30T08:08:54Z</time>
      </trkpt>
      <trkpt lat="45.570461" lon="5.589334">
        <ele>267.70639</ele>
        <time>2021-06-30T08:08:55Z</time>
      </trkpt>
      <trkpt lat="45.570454" lon="5.589002">
        <ele>268.91257</ele>
        <time>2021-06-30T08:08:56Z</time>
      </trkpt>
      <trkpt lat="45.570442" lon="5.588678">
        <ele>270.08505</ele>
        <time>2021-06-30T08:08:57Z</time>
      </trkpt>
      <trkpt lat="45.570435" lon="5.588367">
        <ele>270.95047</ele>
        <time>2021-06-30T08:08:58Z</time>
      </trkpt>
      <trkpt lat="45.570423" lon="5.588064">
        <ele>271.07773</ele>
        <time>2021-06-30T08:08:59Z</time>
      </trkpt>
      <trkpt lat="45.570412" lon="5.587752">
        <ele>270.95749</ele>
        <time>2021-06-30T08:09:00Z</time>
      </trkpt>
      <trkpt lat="45.570396" lon="5.587436">
        <ele>272.01657</ele>
        <time>2021-06-30T08:09:01Z</time>
      </trkpt>
      <trkpt lat="45.570381" lon="5.587117">
        <ele>272.03464</ele>
        <time>2021-06-30T08:09:02Z</time>
      </trkpt>
      <trkpt lat="45.570366" lon="5.586815">
        <ele>272.65146</ele>
        <time>2021-06-30T08:09:03Z</time>
      </trkpt>
      <trkpt lat="45.570347" lon="5.586516">
        <ele>272.62009</ele>
        <time>2021-06-30T08:09:04Z</time>
      </trkpt>
      <trkpt lat="45.570316" lon="5.586176">
        <ele>272.45700</ele>
        <time>2021-06-30T08:09:05Z</time>
      </trkpt>
      <trkpt lat="45.570286" lon="5.585816">
        <ele>272.74936</ele>
        <time>2021-06-30T08:09:06Z</time>
      </trkpt>
      <trkpt lat="45.570255" lon="5.585440">
        <ele>273.24667</ele>
        <time>2021-06-30T08:09:07Z</time>
      </trkpt>
      <trkpt lat="45.570221" lon="5.585073">
        <ele>273.24545</ele>
        <time>2021-06-30T08:09:08Z</time>
      </trkpt>
      <trkpt lat="45.570179" lon="5.584711">
        <ele>273.04770</ele>
        <time>2021-06-30T08:09:09Z</time>
      </trkpt>
      <trkpt lat="45.570145" lon="5.584365">
        <ele>273.02884</ele>
        <time>2021-06-30T08:09:10Z</time>
      </trkpt>
      <trkpt lat="45.570145" lon="5.584365">
        <ele>273.58652</ele>
        <time>2021-06-30T08:09:11Z</time>
      </trkpt>
      <trkpt lat="45.570107" lon="5.583980">
        <ele>273.57541</ele>
        <time>2021-06-30T08:09:12Z</time>
      </trkpt>
      <trkpt lat="45.570072" lon="5.583631">
        <ele>273.92477</ele>
        <time>2021-06-30T08:09:13Z</time>
      </trkpt>
      <trkpt lat="45.570038" lon="5.583278">
        <ele>274.19553</ele>
        <time>2021-06-30T08:09:14Z</time>
      </trkpt>
      <trkpt lat="45.569996" lon="5.582915">
        <ele>274.73026</ele>
        <time>2021-06-30T08:09:15Z</time>
      </trkpt>
      <trkpt lat="45.569954" lon="5.582526">
        <ele>275.24271</ele>
        <time>2021-06-30T08:09:16Z</time>
      </trkpt>
      <trkpt lat="45.569912" lon="5.582141">
        <ele>275.65207</ele>
        <time>2021-06-30T08:09:17Z</time>
      </trkpt>
      <trkpt lat="45.569874" lon="5.581762">
        <ele>276.41599</ele>
        <time>2021-06-30T08:09:18Z</time>
      </trkpt>
      <trkpt lat="45.569828" lon="5.581370">
        <ele>276.62180</ele>
        <time>2021-06-30T08:09:19Z</time>
      </trkpt>
      <trkpt lat="45.569790" lon="5.580994">
        <ele>277.14828</ele>
        <time>2021-06-30T08:09:20Z</time>
      </trkpt>
      <trkpt lat="45.569748" lon="5.580604">
        <ele>278.45151</ele>
        <time>2021-06-30T08:09:21Z</time>
      </trkpt>
      <trkpt lat="45.569717" lon="5.580222">
        <ele>279.84189</ele>
        <time>2021-06-30T08:09:22Z</time>
      </trkpt>
      <trkpt lat="45.569687" lon="5.579823">
        <ele>280.14053</ele>
        <time>2021-06-30T08:09:23Z</time>
      </trkpt>
      <trkpt lat="45.569656" lon="5.579420">
        <ele>280.29770</ele>
        <time>2021-06-30T08:09:24Z</time>
      </trkpt>
      <trkpt lat="45.569630" lon="5.579030">
        <ele>280.42044</ele>
        <time>2021-06-30T08:09:25Z</time>
      </trkpt>
      <trkpt lat="45.569611" lon="5.578626">
        <ele>280.59885</ele>
        <time>2021-06-30T08:09:26Z</time>
      </trkpt>
      <trkpt lat="45.569592" lon="5.578204">
        <ele>282.00357</ele>
        <time>2021-06-30T08:09:27Z</time>
      </trkpt>
      <trkpt lat="45.569572" lon="5.577796">
        <ele>283.81796</ele>
        <time>2021-06-30T08:09:28Z</time>
      </trkpt>
      <trkpt lat="45.569557" lon="5.577366">
        <ele>285.95651</ele>
        <time>2021-06-30T08:09:29Z</time>
      </trkpt>
      <trkpt lat="45.569546" lon="5.576967">
        <ele>287.70090</ele>
        <time>2021-06-30T08:09:30Z</time>
      </trkpt>
      <trkpt lat="45.569530" lon="5.576544">
        <ele>289.61667</ele>
        <time>2021-06-30T08:09:31Z</time>
      </trkpt>
      <trkpt lat="45.569523" lon="5.576123">
        <ele>291.38150</ele>
        <time>2021-06-30T08:09:32Z</time>
      </trkpt>
      <trkpt lat="45.569515" lon="5.575720">
        <ele>293.29977</ele>
        <time>2021-06-30T08:09:33Z</time>
      </trkpt>
      <trkpt lat="45.569530" lon="5.575254">
        <ele>295.19846</ele>
        <time>2021-06-30T08:09:34Z</time>
      </trkpt>
      <trkpt lat="45.569546" lon="5.574761">
        <ele>296.87369</ele>
        <time>2021-06-30T08:09:35Z</time>
      </trkpt>
      <trkpt lat="45.569557" lon="5.574340">
        <ele>298.61594</ele>
        <time>2021-06-30T08:09:36Z</time>
      </trkpt>
      <trkpt lat="45.569572" lon="5.573885">
        <ele>299.55978</ele>
        <time>2021-06-30T08:09:37Z</time>
      </trkpt>
      <trkpt lat="45.569588" lon="5.573432">
        <ele>300.98398</ele>
        <time>2021-06-30T08:09:38Z</time>
      </trkpt>
      <trkpt lat="45.569614" lon="5.572980">
        <ele>302.63101</ele>
        <time>2021-06-30T08:09:39Z</time>
      </trkpt>
      <trkpt lat="45.569649" lon="5.572518">
        <ele>304.11435</ele>
        <time>2021-06-30T08:09:40Z</time>
      </trkpt>
      <trkpt lat="45.569683" lon="5.572093">
        <ele>304.80911</ele>
        <time>2021-06-30T08:09:41Z</time>
      </trkpt>
      <trkpt lat="45.569714" lon="5.571654">
        <ele>305.21231</ele>
        <time>2021-06-30T08:09:42Z</time>
      </trkpt>
      <trkpt lat="45.569756" lon="5.571212">
        <ele>305.54221</ele>
        <time>2021-06-30T08:09:43Z</time>
      </trkpt>
      <trkpt lat="45.569801" lon="5.570733">
        <ele>306.88394</ele>
        <time>2021-06-30T08:09:44Z</time>
      </trkpt>
      <trkpt lat="45.569801" lon="5.570733">
        <ele>309.78268</ele>
        <time>2021-06-30T08:09:45Z</time>
      </trkpt>
      <trkpt lat="45.569851" lon="5.570270">
        <ele>311.62570</ele>
        <time>2021-06-30T08:09:46Z</time>
      </trkpt>
      <trkpt lat="45.569904" lon="5.569802">
        <ele>313.68527</ele>
        <time>2021-06-30T08:09:47Z</time>
      </trkpt>
      <trkpt lat="45.569958" lon="5.569342">
        <ele>314.82120</ele>
        <time>2021-06-30T08:09:48Z</time>
      </trkpt>
      <trkpt lat="45.570015" lon="5.568872">
        <ele>315.53232</ele>
        <time>2021-06-30T08:09:49Z</time>
      </trkpt>
      <trkpt lat="45.570068" lon="5.568441">
        <ele>317.00107</ele>
        <time>2021-06-30T08:09:50Z</time>
      </trkpt>
      <trkpt lat="45.570122" lon="5.567994">
        <ele>319.02267</ele>
        <time>2021-06-30T08:09:51Z</time>
      </trkpt>
      <trkpt lat="45.570175" lon="5.567544">
        <ele>319.60843</ele>
        <time>2021-06-30T08:09:52Z</time>
      </trkpt>
      <trkpt lat="45.570229" lon="5.567075">
        <ele>319.75217</ele>
        <time>2021-06-30T08:09:53Z</time>
      </trkpt>
      <trkpt lat="45.570278" lon="5.566610">
        <ele>320.45627</ele>
        <time>2021-06-30T08:09:54Z</time>
      </trkpt>
      <trkpt lat="45.570328" lon="5.566165">
        <ele>320.89523</ele>
        <time>2021-06-30T08:09:55Z</time>
      </trkpt>
      <trkpt lat="45.570377" lon="5.565713">
        <ele>322.79880</ele>
        <time>2021-06-30T08:09:56Z</time>
      </trkpt>
      <trkpt lat="45.570427" lon="5.565257">
        <ele>324.45901</ele>
        <time>2021-06-30T08:09:57Z</time>
      </trkpt>
      <trkpt lat="45.570469" lon="5.564777">
        <ele>327.02975</ele>
        <time>2021-06-30T08:09:58Z</time>
      </trkpt>
      <trkpt lat="45.570511" lon="5.564308">
        <ele>327.63376</ele>
        <time>2021-06-30T08:09:59Z</time>
      </trkpt>
      <trkpt lat="45.570545" lon="5.563845">
        <ele>328.48917</ele>
        <time>2021-06-30T08:10:00Z</time>
      </trkpt>
      <trkpt lat="45.570576" lon="5.563389">
        <ele>328.51840</ele>
        <time>2021-06-30T08:10:01Z</time>
      </trkpt>
      <trkpt lat="45.570599" lon="5.562934">
        <ele>329.33566</ele>
        <time>2021-06-30T08:10:02Z</time>
      </trkpt>
      <trkpt lat="45.570614" lon="5.562440">
        <ele>330.84378</ele>
        <time>2021-06-30T08:10:03Z</time>
      </trkpt>
      <trkpt lat="45.570625" lon="5.561964">
        <ele>331.96115</ele>
        <time>2021-06-30T08:10:04Z</time>
      </trkpt>
      <trkpt lat="45.570633" lon="5.561495">
        <ele>332.75766</ele>
        <time>2021-06-30T08:10:05Z</time>
      </trkpt>
      <trkpt lat="45.570633" lon="5.561040">
        <ele>333.50180</ele>
        <time>2021-06-30T08:10:06Z</time>
      </trkpt>
      <trkpt lat="45.570621" lon="5.560582">
        <ele>335.42685</ele>
        <time>2021-06-30T08:10:07Z</time>
      </trkpt>
      <trkpt lat="45.570610" lon="5.560129">
        <ele>336.18015</ele>
        <time>2021-06-30T08:10:08Z</time>
      </trkpt>
      <trkpt lat="45.570599" lon="5.559671">
        <ele>337.14450</ele>
        <time>2021-06-30T08:10:09Z</time>
      </trkpt>
      <trkpt lat="45.570572" lon="5.559190">
        <ele>338.50241</ele>
        <time>2021-06-30T08:10:10Z</time>
      </trkpt>
      <trkpt lat="45.570545" lon="5.558735">
        <ele>339.35165</ele>
        <time>2021-06-30T08:10:11Z</time>
      </trkpt>
      <trkpt lat="45.570515" lon="5.558267">
        <ele>340.26193</ele>
        <time>2021-06-30T08:10:12Z</time>
      </trkpt>
      <trkpt lat="45.570473" lon="5.557813">
        <ele>341.77121</ele>
        <time>2021-06-30T08:10:13Z</time>
      </trkpt>
      <trkpt lat="45.570423" lon="5.557330">
        <ele>342.99094</ele>
        <time>2021-06-30T08:10:14Z</time>
      </trkpt>
      <trkpt lat="45.570374" lon="5.556899">
        <ele>344.52097</ele>
        <time>2021-06-30T08:10:15Z</time>
      </trkpt>
      <trkpt lat="45.570316" lon="5.556457">
        <ele>345.51328</ele>
        <time>2021-06-30T08:10:16Z</time>
      </trkpt>
      <trkpt lat="45.570248" lon="5.555986">
        <ele>346.56119</ele>
        <time>2021-06-30T08:10:17Z</time>
      </trkpt>
      <trkpt lat="45.570175" lon="5.555517">
        <ele>347.25839</ele>
        <time>2021-06-30T08:10:18Z</time>
      </trkpt>
      <trkpt lat="45.570103" lon="5.555088">
        <ele>348.50064</ele>
        <time>2021-06-30T08:10:19Z</time>
      </trkpt>
      <trkpt lat="45.570023" lon="5.554631">
        <ele>349.23257</ele>
        <time>2021-06-30T08:10:20Z</time>
      </trkpt>
      <trkpt lat="45.569946" lon="5.554216">
        <ele>350.00143</ele>
        <time>2021-06-30T08:10:21Z</time>
      </trkpt>
      <trkpt lat="45.569855" lon="5.553757">
        <ele>350.49777</ele>
        <time>2021-06-30T08:10:22Z</time>
      </trkpt>
      <trkpt lat="45.569756" lon="5.553302">
        <ele>351.73984</ele>
        <time>2021-06-30T08:10:23Z</time>
      </trkpt>
      <trkpt lat="45.569756" lon="5.553302">
        <ele>352.53598</ele>
        <time>2021-06-30T08:10:24Z</time>
      </trkpt>
      <trkpt lat="45.569656" lon="5.552848">
        <ele>353.48050</ele>
        <time>2021-06-30T08:10:25Z</time>
      </trkpt>
      <trkpt lat="45.569557" lon="5.552410">
        <ele>354.19724</ele>
        <time>2021-06-30T08:10:26Z</time>
      </trkpt>
      <trkpt lat="45.569458" lon="5.551980">
        <ele>355.17563</ele>
        <time>2021-06-30T08:10:27Z</time>
      </trkpt>
      <trkpt lat="45.569363" lon="5.551547">
        <ele>355.73129</ele>
        <time>2021-06-30T08:10:28Z</time>
      </trkpt>
      <trkpt lat="45.569256" lon="5.551085">
        <ele>356.28000</ele>
        <time>2021-06-30T08:10:29Z</time>
      </trkpt>
      <trkpt lat="45.569153" lon="5.550634">
        <ele>356.61765</ele>
        <time>2021-06-30T08:10:30Z</time>
      </trkpt>
      <trkpt lat="45.569054" lon="5.550181">
        <ele>357.13889</ele>
        <time>2021-06-30T08:10:31Z</time>
      </trkpt>
      <trkpt lat="45.568951" lon="5.549730">
        <ele>357.81931</ele>
        <time>2021-06-30T08:10:32Z</time>
      </trkpt>
      <trkpt lat="45.568851" lon="5.549281">
        <ele>358.68765</ele>
        <time>2021-06-30T08:10:33Z</time>
      </trkpt>
      <trkpt lat="45.568752" lon="5.548840">
        <ele>359.48715</ele>
        <time>2021-06-30T08:10:34Z</time>
      </trkpt>
      <trkpt lat="45.568653" lon="5.548385">
        <ele>360.14011</ele>
        <time>2021-06-30T08:10:35Z</time>
      </trkpt>
      <trkpt lat="45.568558" lon="5.547928">
        <ele>360.72995</ele>
        <time>2021-06-30T08:10:36Z</time>
      </trkpt>
      <trkpt lat="45.568459" lon="5.547473">
        <ele>361.34164</ele>
        <time>2021-06-30T08:10:37Z</time>
      </trkpt>
      <trkpt lat="45.568359" lon="5.547005">
        <ele>361.84274</ele>
        <time>2021-06-30T08:10:38Z</time>
      </trkpt>
      <trkpt lat="45.568256" lon="5.546536">
        <ele>362.23209</ele>
        <time>2021-06-30T08:10:39Z</time>
      </trkpt>
      <trkpt lat="45.568161" lon="5.546079">
        <ele>363.27194</ele>
        <time>2021-06-30T08:10:40Z</time>
      </trkpt>
      <trkpt lat="45.568073" lon="5.545636">
        <ele>364.04160</ele>
        <time>2021-06-30T08:10:41Z</time>
      </trkpt>
      <trkpt lat="45.567997" lon="5.545216">
        <ele>364.26913</ele>
        <time>2021-06-30T08:10:42Z</time>
      </trkpt>
      <trkpt lat="45.567921" lon="5.544785">
        <ele>365.51035</ele>
        <time>2021-06-30T08:10:43Z</time>
      </trkpt>
      <trkpt lat="45.567848" lon="5.544378">
        <ele>366.58786</ele>
        <time>2021-06-30T08:10:44Z</time>
      </trkpt>
      <trkpt lat="45.567776" lon="5.543967">
        <ele>367.54709</ele>
        <time>2021-06-30T08:10:45Z</time>
      </trkpt>
      <trkpt lat="45.567703" lon="5.543559">
        <ele>368.61276</ele>
        <time>2021-06-30T08:10:46Z</time>
      </trkpt>
      <trkpt lat="45.567635" lon="5.543166">
        <ele>369.62912</ele>
        <time>2021-06-30T08:10:47Z</time>
      </trkpt>
      <trkpt lat="45.567562" lon="5.542766">
        <ele>370.48740</ele>
        <time>2021-06-30T08:10:48Z</time>
      </trkpt>
      <trkpt lat="45.567497" lon="5.542370">
        <ele>371.37314</ele>
        <time>2021-06-30T08:10:49Z</time>
      </trkpt>
      <trkpt lat="45.567436" lon="5.541993">
        <ele>371.68356</ele>
        <time>2021-06-30T08:10:50Z</time>
      </trkpt>
      <trkpt lat="45.567375" lon="5.541612">
        <ele>372.35910</ele>
        <time>2021-06-30T08:10:51Z</time>
      </trkpt>
      <trkpt lat="45.567310" lon="5.541234">
        <ele>373.26950</ele>
        <time>2021-06-30T08:10:52Z</time>
      </trkpt>
      <trkpt lat="45.567249" lon="5.540872">
        <ele>373.97409</ele>
        <time>2021-06-30T08:10:53Z</time>
      </trkpt>
      <trkpt lat="45.567188" lon="5.540499">
        <ele>374.56943</ele>
        <time>2021-06-30T08:10:54Z</time>
      </trkpt>
      <trkpt lat="45.567131" lon="5.540143">
        <ele>374.83627</ele>
        <time>2021-06-30T08:10:55Z</time>
      </trkpt>
      <trkpt lat="45.567131" lon="5.540143">
        <ele>375.42526</ele>
        <time>2021-06-30T08:10:56Z</time>
      </trkpt>
      <trkpt lat="45.567074" lon="5.539767">
        <ele>376.00534</ele>
        <time>2021-06-30T08:10:57Z</time>
      </trkpt>
      <trkpt lat="45.567017" lon="5.539387">
        <ele>376.39078</ele>
        <time>2021-06-30T08:10:58Z</time>
      </trkpt>
      <trkpt lat="45.566963" lon="5.539023">
        <ele>376.74521</ele>
        <time>2021-06-30T08:10:59Z</time>
      </trkpt>
      <trkpt lat="45.566914" lon="5.538661">
        <ele>376.86301</ele>
        <time>2021-06-30T08:11:00Z</time>
      </trkpt>
      <trkpt lat="45.566860" lon="5.538285">
        <ele>377.12363</ele>
        <time>2021-06-30T08:11:01Z</time>
      </trkpt>
      <trkpt lat="45.566807" lon="5.537891">
        <ele>377.34518</ele>
        <time>2021-06-30T08:11:02Z</time>
      </trkpt>
      <trkpt lat="45.566757" lon="5.537510">
        <ele>377.49716</ele>
        <time>2021-06-30T08:11:03Z</time>
      </trkpt>
      <trkpt lat="45.566708" lon="5.537138">
        <ele>377.62491</ele>
        <time>2021-06-30T08:11:04Z</time>
      </trkpt>
      <trkpt lat="45.566658" lon="5.536747">
        <ele>377.92062</ele>
        <time>2021-06-30T08:11:05Z</time>
      </trkpt>
      <trkpt lat="45.566608" lon="5.536350">
        <ele>377.86398</ele>
        <time>2021-06-30T08:11:06Z</time>
      </trkpt>
      <trkpt lat="45.566563" lon="5.535957">
        <ele>378.88669</ele>
        <time>2021-06-30T08:11:07Z</time>
      </trkpt>
      <trkpt lat="45.566517" lon="5.535558">
        <ele>379.73990</ele>
        <time>2021-06-30T08:11:08Z</time>
      </trkpt>
      <trkpt lat="45.566479" lon="5.535166">
        <ele>380.14584</ele>
        <time>2021-06-30T08:11:09Z</time>
      </trkpt>
      <trkpt lat="45.566429" lon="5.534766">
        <ele>379.92148</ele>
        <time>2021-06-30T08:11:10Z</time>
      </trkpt>
      <trkpt lat="45.566391" lon="5.534363">
        <ele>380.29404</ele>
        <time>2021-06-30T08:11:11Z</time>
      </trkpt>
      <trkpt lat="45.566360" lon="5.533941">
        <ele>380.79343</ele>
        <time>2021-06-30T08:11:12Z</time>
      </trkpt>
      <trkpt lat="45.566334" lon="5.533535">
        <ele>380.92618</ele>
        <time>2021-06-30T08:11:13Z</time>
      </trkpt>
      <trkpt lat="45.566311" lon="5.533121">
        <ele>380.92819</ele>
        <time>2021-06-30T08:11:14Z</time>
      </trkpt>
      <trkpt lat="45.566292" lon="5.532731">
        <ele>380.94858</ele>
        <time>2021-06-30T08:11:15Z</time>
      </trkpt>
      <trkpt lat="45.566277" lon="5.532288">
        <ele>382.21201</ele>
        <time>2021-06-30T08:11:16Z</time>
      </trkpt>
      <trkpt lat="45.566261" lon="5.531851">
        <ele>383.11667</ele>
        <time>2021-06-30T08:11:17Z</time>
      </trkpt>
      <trkpt lat="45.566250" lon="5.531416">
        <ele>383.41318</ele>
        <time>2021-06-30T08:11:18Z</time>
      </trkpt>
      <trkpt lat="45.566238" lon="5.530952">
        <ele>383.07748</ele>
        <time>2021-06-30T08:11:19Z</time>
      </trkpt>
      <trkpt lat="45.566223" lon="5.530527">
        <ele>383.13052</ele>
        <time>2021-06-30T08:11:20Z</time>
      </trkpt>
      <trkpt lat="45.566200" lon="5.530077">
        <ele>384.16269</ele>
        <time>2021-06-30T08:11:21Z</time>
      </trkpt>
      <trkpt lat="45.566174" lon="5.529632">
        <ele>385.47263</ele>
        <time>2021-06-30T08:11:22Z</time>
      </trkpt>
      <trkpt lat="45.566135" lon="5.529172">
        <ele>385.73618</ele>
        <time>2021-06-30T08:11:23Z</time>
      </trkpt>
      <trkpt lat="45.566090" lon="5.528711">
        <ele>386.10019</ele>
        <time>2021-06-30T08:11:24Z</time>
      </trkpt>
      <trkpt lat="45.566021" lon="5.528244">
        <ele>386.69113</ele>
        <time>2021-06-30T08:11:25Z</time>
      </trkpt>
      <trkpt lat="45.566021" lon="5.528244">
        <ele>385.80173</ele>
        <time>2021-06-30T08:11:26Z</time>
      </trkpt>
      <trkpt lat="45.565941" lon="5.527754">
        <ele>385.53952</ele>
        <time>2021-06-30T08:11:27Z</time>
      </trkpt>
      <trkpt lat="45.565853" lon="5.527316">
        <ele>385.44211</ele>
        <time>2021-06-30T08:11:28Z</time>
      </trkpt>
      <trkpt lat="45.565762" lon="5.526900">
        <ele>385.08810</ele>
        <time>2021-06-30T08:11:29Z</time>
      </trkpt>
      <trkpt lat="45.565659" lon="5.526450">
        <ele>384.91245</ele>
        <time>2021-06-30T08:11:30Z</time>
      </trkpt>
      <trkpt lat="45.565556" lon="5.526010">
        <ele>384.84030</ele>
        <time>2021-06-30T08:11:31Z</time>
      </trkpt>
      <trkpt lat="45.565449" lon="5.525566">
        <ele>384.80801</ele>
        <time>2021-06-30T08:11:32Z</time>
      </trkpt>
      <trkpt lat="45.565334" lon="5.525134">
        <ele>384.61752</ele>
        <time>2021-06-30T08:11:33Z</time>
      </trkpt>
      <trkpt lat="45.565216" lon="5.524665">
        <ele>384.01462</ele>
        <time>2021-06-30T08:11:34Z</time>
      </trkpt>
      <trkpt lat="45.565113" lon="5.524233">
        <ele>383.95602</ele>
        <time>2021-06-30T08:11:35Z</time>
      </trkpt>
      <trkpt lat="45.565006" lon="5.523794">
        <ele>383.78012</ele>
        <time>2021-06-30T08:11:36Z</time>
      </trkpt>
      <trkpt lat="45.564907" lon="5.523355">
        <ele>383.62033</ele>
        <time>2021-06-30T08:11:37Z</time>
      </trkpt>
      <trkpt lat="45.564816" lon="5.522915">
        <ele>383.53098</ele>
        <time>2021-06-30T08:11:38Z</time>
      </trkpt>
      <trkpt lat="45.564735" lon="5.522464">
        <ele>383.47623</ele>
        <time>2021-06-30T08:11:39Z</time>
      </trkpt>
      <trkpt lat="45.564651" lon="5.522012">
        <ele>383.29001</ele>
        <time>2021-06-30T08:11:40Z</time>
      </trkpt>
      <trkpt lat="45.564579" lon="5.521555">
        <ele>383.12497</ele>
        <time>2021-06-30T08:11:41Z</time>
      </trkpt>
      <trkpt lat="45.564518" lon="5.521086">
        <ele>383.37350</ele>
        <time>2021-06-30T08:11:42Z</time>
      </trkpt>
      <trkpt lat="45.564465" lon="5.520640">
        <ele>383.52451</ele>
        <time>2021-06-30T08:11:43Z</time>
      </trkpt>
      <trkpt lat="45.564411" lon="5.520166">
        <ele>383.51071</ele>
        <time>2021-06-30T08:11:44Z</time>
      </trkpt>
      <trkpt lat="45.564369" lon="5.519711">
        <ele>383.60483</ele>
        <time>2021-06-30T08:11:45Z</time>
      </trkpt>
      <trkpt lat="45.564327" lon="5.519248">
        <ele>383.93369</ele>
        <time>2021-06-30T08:11:46Z</time>
      </trkpt>
      <trkpt lat="45.564301" lon="5.518776">
        <ele>384.16306</ele>
        <time>2021-06-30T08:11:47Z</time>
      </trkpt>
      <trkpt lat="45.564278" lon="5.518288">
        <ele>384.65280</ele>
        <time>2021-06-30T08:11:48Z</time>
      </trkpt>
      <trkpt lat="45.564255" lon="5.517828">
        <ele>384.88193</ele>
        <time>2021-06-30T08:11:49Z</time>
      </trkpt>
      <trkpt lat="45.564236" lon="5.517388">
        <ele>385.46799</ele>
        <time>2021-06-30T08:11:50Z</time>
      </trkpt>
      <trkpt lat="45.564232" lon="5.516934">
        <ele>385.97592</ele>
        <time>2021-06-30T08:11:51Z</time>
      </trkpt>
      <trkpt lat="45.564224" lon="5.516463">
        <ele>385.24924</ele>
        <time>2021-06-30T08:11:52Z</time>
      </trkpt>
      <trkpt lat="45.564220" lon="5.515977">
        <ele>385.98203</ele>
        <time>2021-06-30T08:11:53Z</time>
      </trkpt>
      <trkpt lat="45.564220" lon="5.515544">
        <ele>386.05417</ele>
        <time>2021-06-30T08:11:54Z</time>
      </trkpt>
      <trkpt lat="45.564224" lon="5.515076">
        <ele>386.46890</ele>
        <time>2021-06-30T08:11:55Z</time>
      </trkpt>
      <trkpt lat="45.564232" lon="5.514594">
        <ele>388.19003</ele>
        <time>2021-06-30T08:11:56Z</time>
      </trkpt>
      <trkpt lat="45.564240" lon="5.514127">
        <ele>388.92960</ele>
        <time>2021-06-30T08:11:57Z</time>
      </trkpt>
      <trkpt lat="45.564255" lon="5.513675">
        <ele>390.13474</ele>
        <time>2021-06-30T08:11:58Z</time>
      </trkpt>
      <trkpt lat="45.564255" lon="5.513675">
        <ele>390.66745</ele>
        <time>2021-06-30T08:11:59Z</time>
      </trkpt>
      <trkpt lat="45.564266" lon="5.513202">
        <ele>392.11935</ele>
        <time>2021-06-30T08:12:00Z</time>
      </trkpt>
      <trkpt lat="45.564281" lon="5.512743">
        <ele>391.96396</ele>
        <time>2021-06-30T08:12:01Z</time>
      </trkpt>
      <trkpt lat="45.564297" lon="5.512276">
        <ele>392.59470</ele>
        <time>2021-06-30T08:12:02Z</time>
      </trkpt>
      <trkpt lat="45.564316" lon="5.511808">
        <ele>392.77573</ele>
        <time>2021-06-30T08:12:03Z</time>
      </trkpt>
      <trkpt lat="45.564331" lon="5.511347">
        <ele>394.23361</ele>
        <time>2021-06-30T08:12:04Z</time>
      </trkpt>
      <trkpt lat="45.564346" lon="5.510875">
        <ele>395.04550</ele>
        <time>2021-06-30T08:12:05Z</time>
      </trkpt>
      <trkpt lat="45.564362" lon="5.510403">
        <ele>395.31589</ele>
        <time>2021-06-30T08:12:06Z</time>
      </trkpt>
      <trkpt lat="45.564377" lon="5.509937">
        <ele>395.69638</ele>
        <time>2021-06-30T08:12:07Z</time>
      </trkpt>
      <trkpt lat="45.564392" lon="5.509487">
        <ele>396.38986</ele>
        <time>2021-06-30T08:12:08Z</time>
      </trkpt>
      <trkpt lat="45.564407" lon="5.509030">
        <ele>396.52292</ele>
        <time>2021-06-30T08:12:09Z</time>
      </trkpt>
      <trkpt lat="45.564419" lon="5.508531">
        <ele>397.37027</ele>
        <time>2021-06-30T08:12:10Z</time>
      </trkpt>
      <trkpt lat="45.564426" lon="5.508035">
        <ele>398.00363</ele>
        <time>2021-06-30T08:12:11Z</time>
      </trkpt>
      <trkpt lat="45.564430" lon="5.507543">
        <ele>397.96799</ele>
        <time>2021-06-30T08:12:12Z</time>
      </trkpt>
      <trkpt lat="45.564426" lon="5.507062">
        <ele>398.36807</ele>
        <time>2021-06-30T08:12:13Z</time>
      </trkpt>
      <trkpt lat="45.564426" lon="5.506567">
        <ele>398.99789</ele>
        <time>2021-06-30T08:12:14Z</time>
      </trkpt>
      <trkpt lat="45.564411" lon="5.506037">
        <ele>398.98129</ele>
        <time>2021-06-30T08:12:15Z</time>
      </trkpt>
      <trkpt lat="45.564396" lon="5.505527">
        <ele>398.94736</ele>
        <time>2021-06-30T08:12:16Z</time>
      </trkpt>
      <trkpt lat="45.564365" lon="5.505005">
        <ele>399.86398</ele>
        <time>2021-06-30T08:12:17Z</time>
      </trkpt>
      <trkpt lat="45.564335" lon="5.504510">
        <ele>400.41953</ele>
        <time>2021-06-30T08:12:18Z</time>
      </trkpt>
      <trkpt lat="45.564304" lon="5.504032">
        <ele>400.73526</ele>
        <time>2021-06-30T08:12:19Z</time>
      </trkpt>
      <trkpt lat="45.564266" lon="5.503554">
        <ele>400.91818</ele>
        <time>2021-06-30T08:12:20Z</time>
      </trkpt>
      <trkpt lat="45.564220" lon="5.503026">
        <ele>401.30875</ele>
        <time>2021-06-30T08:12:21Z</time>
      </trkpt>
      <trkpt lat="45.564178" lon="5.502526">
        <ele>401.37021</ele>
        <time>2021-06-30T08:12:22Z</time>
      </trkpt>
      <trkpt lat="45.564125" lon="5.501989">
        <ele>401.96500</ele>
        <time>2021-06-30T08:12:23Z</time>
      </trkpt>
      <trkpt lat="45.564072" lon="5.501484">
        <ele>402.59653</ele>
        <time>2021-06-30T08:12:24Z</time>
      </trkpt>
      <trkpt lat="45.564018" lon="5.500997">
        <ele>403.34555</ele>
        <time>2021-06-30T08:12:25Z</time>
      </trkpt>
      <trkpt lat="45.563969" lon="5.500499">
        <ele>404.45956</ele>
        <time>2021-06-30T08:12:26Z</time>
      </trkpt>
      <trkpt lat="45.563915" lon="5.500014">
        <ele>405.02994</ele>
        <time>2021-06-30T08:12:27Z</time>
      </trkpt>
      <trkpt lat="45.563915" lon="5.500014">
        <ele>405.69205</ele>
        <time>2021-06-30T08:12:28Z</time>
      </trkpt>
      <trkpt lat="45.563866" lon="5.499517">
        <ele>405.78867</ele>
        <time>2021-06-30T08:12:29Z</time>
      </trkpt>
      <trkpt lat="45.563820" lon="5.499026">
        <ele>406.46481</ele>
        <time>2021-06-30T08:12:30Z</time>
      </trkpt>
      <trkpt lat="45.563770" lon="5.498509">
        <ele>406.79160</ele>
        <time>2021-06-30T08:12:31Z</time>
      </trkpt>
      <trkpt lat="45.563728" lon="5.498010">
        <ele>407.14670</ele>
        <time>2021-06-30T08:12:32Z</time>
      </trkpt>
      <trkpt lat="45.563690" lon="5.497510">
        <ele>407.37839</ele>
        <time>2021-06-30T08:12:33Z</time>
      </trkpt>
      <trkpt lat="45.563656" lon="5.496990">
        <ele>407.46140</ele>
        <time>2021-06-30T08:12:34Z</time>
      </trkpt>
      <trkpt lat="45.563618" lon="5.496459">
        <ele>407.60208</ele>
        <time>2021-06-30T08:12:35Z</time>
      </trkpt>
      <trkpt lat="45.563591" lon="5.495917">
        <ele>408.21030</ele>
        <time>2021-06-30T08:12:36Z</time>
      </trkpt>
      <trkpt lat="45.563568" lon="5.495401">
        <ele>408.18625</ele>
        <time>2021-06-30T08:12:37Z</time>
      </trkpt>
      <trkpt lat="45.563553" lon="5.494892">
        <ele>408.06863</ele>
        <time>2021-06-30T08:12:38Z</time>
      </trkpt>
      <trkpt lat="45.563538" lon="5.494354">
        <ele>408.48166</ele>
        <time>2021-06-30T08:12:39Z</time>
      </trkpt>
      <trkpt lat="45.563530" lon="5.493817">
        <ele>408.06796</ele>
        <time>2021-06-30T08:12:40Z</time>
      </trkpt>
      <trkpt lat="45.563526" lon="5.493286">
        <ele>408.26389</ele>
        <time>2021-06-30T08:12:41Z</time>
      </trkpt>
      <trkpt lat="45.563522" lon="5.492769">
        <ele>407.98611</ele>
        <time>2021-06-30T08:12:42Z</time>
      </trkpt>
      <trkpt lat="45.563530" lon="5.492240">
        <ele>407.91800</ele>
        <time>2021-06-30T08:12:43Z</time>
      </trkpt>
      <trkpt lat="45.563541" lon="5.491729">
        <ele>406.36002</ele>
        <time>2021-06-30T08:12:44Z</time>
      </trkpt>
      <trkpt lat="45.563553" lon="5.491232">
        <ele>405.54721</ele>
        <time>2021-06-30T08:12:45Z</time>
      </trkpt>
      <trkpt lat="45.563564" lon="5.490696">
        <ele>404.98935</ele>
        <time>2021-06-30T08:12:46Z</time>
      </trkpt>
      <trkpt lat="45.563576" lon="5.490182">
        <ele>404.09116</ele>
        <time>2021-06-30T08:12:47Z</time>
      </trkpt>
      <trkpt lat="45.563591" lon="5.489638">
        <ele>403.28226</ele>
        <time>2021-06-30T08:12:48Z</time>
      </trkpt>
      <trkpt lat="45.563602" lon="5.489088">
        <ele>402.17850</ele>
        <time>2021-06-30T08:12:49Z</time>
      </trkpt>
      <trkpt lat="45.563610" lon="5.488596">
        <ele>401.42661</ele>
        <time>2021-06-30T08:12:50Z</time>
      </trkpt>
      <trkpt lat="45.563618" lon="5.488073">
        <ele>400.95248</ele>
        <time>2021-06-30T08:12:51Z</time>
      </trkpt>
      <trkpt lat="45.563610" lon="5.487565">
        <ele>399.52817</ele>
        <time>2021-06-30T08:12:52Z</time>
      </trkpt>
      <trkpt lat="45.563602" lon="5.487084">
        <ele>399.05765</ele>
        <time>2021-06-30T08:12:53Z</time>
      </trkpt>
      <trkpt lat="45.563576" lon="5.486566">
        <ele>397.88864</ele>
        <time>2021-06-30T08:12:54Z</time>
      </trkpt>
      <trkpt lat="45.563541" lon="5.486040">
        <ele>397.42612</ele>
        <time>2021-06-30T08:12:55Z</time>
      </trkpt>
      <trkpt lat="45.563492" lon="5.485545">
        <ele>395.45920</ele>
        <time>2021-06-30T08:12:56Z</time>
      </trkpt>
      <trkpt lat="45.563435" lon="5.485043">
        <ele>393.52444</ele>
        <time>2021-06-30T08:12:57Z</time>
      </trkpt>
      <trkpt lat="45.563358" lon="5.484503">
        <ele>391.48044</ele>
        <time>2021-06-30T08:12:58Z</time>
      </trkpt>
      <trkpt lat="45.563278" lon="5.484028">
        <ele>390.26596</ele>
        <time>2021-06-30T08:12:59Z</time>
      </trkpt>
      <trkpt lat="45.563194" lon="5.483499">
        <ele>389.26523</ele>
        <time>2021-06-30T08:13:00Z</time>
      </trkpt>
      <trkpt lat="45.563095" lon="5.483002">
        <ele>387.92203</ele>
        <time>2021-06-30T08:13:01Z</time>
      </trkpt>
      <trkpt lat="45.563004" lon="5.482509">
        <ele>386.63333</ele>
        <time>2021-06-30T08:13:02Z</time>
      </trkpt>
      <trkpt lat="45.563004" lon="5.482509">
        <ele>385.35446</ele>
        <time>2021-06-30T08:13:03Z</time>
      </trkpt>
      <trkpt lat="45.562904" lon="5.481983">
        <ele>383.64755</ele>
        <time>2021-06-30T08:13:04Z</time>
      </trkpt>
      <trkpt lat="45.562809" lon="5.481474">
        <ele>382.77841</ele>
        <time>2021-06-30T08:13:05Z</time>
      </trkpt>
      <trkpt lat="45.562710" lon="5.480947">
        <ele>381.00375</ele>
        <time>2021-06-30T08:13:06Z</time>
      </trkpt>
      <trkpt lat="45.562614" lon="5.480436">
        <ele>379.42899</ele>
        <time>2021-06-30T08:13:07Z</time>
      </trkpt>
      <trkpt lat="45.562511" lon="5.479910">
        <ele>378.21078</ele>
        <time>2021-06-30T08:13:08Z</time>
      </trkpt>
      <trkpt lat="45.562416" lon="5.479397">
        <ele>377.08456</ele>
        <time>2021-06-30T08:13:09Z</time>
      </trkpt>
      <trkpt lat="45.562325" lon="5.478911">
        <ele>374.78171</ele>
        <time>2021-06-30T08:13:10Z</time>
      </trkpt>
      <trkpt lat="45.562233" lon="5.478425">
        <ele>374.61252</ele>
        <time>2021-06-30T08:13:11Z</time>
      </trkpt>
      <trkpt lat="45.562126" lon="5.477909">
        <ele>374.12155</ele>
        <time>2021-06-30T08:13:12Z</time>
      </trkpt>
      <trkpt lat="45.562019" lon="5.477377">
        <ele>373.45566</ele>
        <time>2021-06-30T08:13:13Z</time>
      </trkpt>
      <trkpt lat="45.561916" lon="5.476877">
        <ele>372.69528</ele>
        <time>2021-06-30T08:13:14Z</time>
      </trkpt>
      <trkpt lat="45.561806" lon="5.476388">
        <ele>372.11801</ele>
        <time>2021-06-30T08:13:15Z</time>
      </trkpt>
      <trkpt lat="45.561684" lon="5.475882">
        <ele>371.69962</ele>
        <time>2021-06-30T08:13:16Z</time>
      </trkpt>
      <trkpt lat="45.561546" lon="5.475383">
        <ele>371.08945</ele>
        <time>2021-06-30T08:13:17Z</time>
      </trkpt>
      <trkpt lat="45.561405" lon="5.474891">
        <ele>371.06711</ele>
        <time>2021-06-30T08:13:18Z</time>
      </trkpt>
      <trkpt lat="45.561253" lon="5.474409">
        <ele>370.56967</ele>
        <time>2021-06-30T08:13:19Z</time>
      </trkpt>
      <trkpt lat="45.561108" lon="5.473958">
        <ele>370.72586</ele>
        <time>2021-06-30T08:13:20Z</time>
      </trkpt>
      <trkpt lat="45.560944" lon="5.473481">
        <ele>370.13742</ele>
        <time>2021-06-30T08:13:21Z</time>
      </trkpt>
      <trkpt lat="45.560772" lon="5.473009">
        <ele>369.96176</ele>
        <time>2021-06-30T08:13:22Z</time>
      </trkpt>
      <trkpt lat="45.560612" lon="5.472554">
        <ele>369.86118</ele>
        <time>2021-06-30T08:13:23Z</time>
      </trkpt>
      <trkpt lat="45.560455" lon="5.472116">
        <ele>369.12149</ele>
        <time>2021-06-30T08:13:24Z</time>
      </trkpt>
      <trkpt lat="45.560291" lon="5.471658">
        <ele>367.91397</ele>
        <time>2021-06-30T08:13:25Z</time>
      </trkpt>
      <trkpt lat="45.560127" lon="5.471212">
        <ele>367.16171</ele>
        <time>2021-06-30T08:13:26Z</time>
      </trkpt>
      <trkpt lat="45.559971" lon="5.470785">
        <ele>366.42410</ele>
        <time>2021-06-30T08:13:27Z</time>
      </trkpt>
      <trkpt lat="45.559971" lon="5.470785">
        <ele>365.77963</ele>
        <time>2021-06-30T08:13:28Z</time>
      </trkpt>
      <trkpt lat="45.559822" lon="5.470384">
        <ele>365.01120</ele>
        <time>2021-06-30T08:13:29Z</time>
      </trkpt>
      <trkpt lat="45.559666" lon="5.469957">
        <ele>364.17966</ele>
        <time>2021-06-30T08:13:30Z</time>
      </trkpt>
      <trkpt lat="45.559509" lon="5.469532">
        <ele>362.60971</ele>
        <time>2021-06-30T08:13:31Z</time>
      </trkpt>
      <trkpt lat="45.559357" lon="5.469124">
        <ele>361.60464</ele>
        <time>2021-06-30T08:13:32Z</time>
      </trkpt>
      <trkpt lat="45.559219" lon="5.468727">
        <ele>359.66483</ele>
        <time>2021-06-30T08:13:33Z</time>
      </trkpt>
      <trkpt lat="45.559071" lon="5.468302">
        <ele>358.42392</ele>
        <time>2021-06-30T08:13:34Z</time>
      </trkpt>
      <trkpt lat="45.558922" lon="5.467851">
        <ele>356.72415</ele>
        <time>2021-06-30T08:13:35Z</time>
      </trkpt>
      <trkpt lat="45.558788" lon="5.467434">
        <ele>355.57748</ele>
        <time>2021-06-30T08:13:36Z</time>
      </trkpt>
      <trkpt lat="45.558662" lon="5.467013">
        <ele>354.57053</ele>
        <time>2021-06-30T08:13:37Z</time>
      </trkpt>
      <trkpt lat="45.558540" lon="5.466558">
        <ele>354.11679</ele>
        <time>2021-06-30T08:13:38Z</time>
      </trkpt>
      <trkpt lat="45.558434" lon="5.466130">
        <ele>352.83151</ele>
        <time>2021-06-30T08:13:39Z</time>
      </trkpt>
      <trkpt lat="45.558315" lon="5.465669">
        <ele>351.74338</ele>
        <time>2021-06-30T08:13:40Z</time>
      </trkpt>
      <trkpt lat="45.558201" lon="5.465212">
        <ele>351.25143</ele>
        <time>2021-06-30T08:13:41Z</time>
      </trkpt>
      <trkpt lat="45.558090" lon="5.464777">
        <ele>350.83505</ele>
        <time>2021-06-30T08:13:42Z</time>
      </trkpt>
      <trkpt lat="45.557983" lon="5.464337">
        <ele>350.18027</ele>
        <time>2021-06-30T08:13:43Z</time>
      </trkpt>
      <trkpt lat="45.557877" lon="5.463909">
        <ele>349.30563</ele>
        <time>2021-06-30T08:13:44Z</time>
      </trkpt>
      <trkpt lat="45.557770" lon="5.463467">
        <ele>348.97806</ele>
        <time>2021-06-30T08:13:45Z</time>
      </trkpt>
      <trkpt lat="45.557659" lon="5.463001">
        <ele>348.74118</ele>
        <time>2021-06-30T08:13:46Z</time>
      </trkpt>
      <trkpt lat="45.557568" lon="5.462550">
        <ele>348.54745</ele>
        <time>2021-06-30T08:13:47Z</time>
      </trkpt>
      <trkpt lat="45.557491" lon="5.462083">
        <ele>348.27798</ele>
        <time>2021-06-30T08:13:48Z</time>
      </trkpt>
      <trkpt lat="45.557434" lon="5.461645">
        <ele>347.85898</ele>
        <time>2021-06-30T08:13:49Z</time>
      </trkpt>
      <trkpt lat="45.557377" lon="5.461190">
        <ele>347.65726</ele>
        <time>2021-06-30T08:13:50Z</time>
      </trkpt>
      <trkpt lat="45.557339" lon="5.460726">
        <ele>347.39633</ele>
        <time>2021-06-30T08:13:51Z</time>
      </trkpt>
      <trkpt lat="45.557316" lon="5.460241">
        <ele>347.28354</ele>
        <time>2021-06-30T08:13:52Z</time>
      </trkpt>
      <trkpt lat="45.557316" lon="5.459799">
        <ele>348.47342</ele>
        <time>2021-06-30T08:13:53Z</time>
      </trkpt>
      <trkpt lat="45.557316" lon="5.459337">
        <ele>348.54745</ele>
        <time>2021-06-30T08:13:54Z</time>
      </trkpt>
      <trkpt lat="45.557339" lon="5.458895">
        <ele>348.74081</ele>
        <time>2021-06-30T08:13:55Z</time>
      </trkpt>
      <trkpt lat="45.557381" lon="5.458397">
        <ele>348.54892</ele>
        <time>2021-06-30T08:13:56Z</time>
      </trkpt>
      <trkpt lat="45.557381" lon="5.458397">
        <ele>348.69308</ele>
        <time>2021-06-30T08:13:57Z</time>
      </trkpt>
      <trkpt lat="45.557438" lon="5.457933">
        <ele>349.13364</ele>
        <time>2021-06-30T08:13:58Z</time>
      </trkpt>
      <trkpt lat="45.557514" lon="5.457465">
        <ele>349.57285</ele>
        <time>2021-06-30T08:13:59Z</time>
      </trkpt>
      <trkpt lat="45.557606" lon="5.456980">
        <ele>349.51505</ele>
        <time>2021-06-30T08:14:00Z</time>
      </trkpt>
      <trkpt lat="45.557697" lon="5.456524">
        <ele>349.41263</ele>
        <time>2021-06-30T08:14:01Z</time>
      </trkpt>
      <trkpt lat="45.557793" lon="5.456093">
        <ele>350.75327</ele>
        <time>2021-06-30T08:14:02Z</time>
      </trkpt>
      <trkpt lat="45.557911" lon="5.455650">
        <ele>351.89084</ele>
        <time>2021-06-30T08:14:03Z</time>
      </trkpt>
      <trkpt lat="45.558037" lon="5.455195">
        <ele>352.94113</ele>
        <time>2021-06-30T08:14:04Z</time>
      </trkpt>
      <trkpt lat="45.558163" lon="5.454754">
        <ele>354.06638</ele>
        <time>2021-06-30T08:14:05Z</time>
      </trkpt>
      <trkpt lat="45.558289" lon="5.454335">
        <ele>355.06937</ele>
        <time>2021-06-30T08:14:06Z</time>
      </trkpt>
      <trkpt lat="45.558414" lon="5.453906">
        <ele>355.72922</ele>
        <time>2021-06-30T08:14:07Z</time>
      </trkpt>
      <trkpt lat="45.558533" lon="5.453478">
        <ele>356.12088</ele>
        <time>2021-06-30T08:14:08Z</time>
      </trkpt>
      <trkpt lat="45.558655" lon="5.453058">
        <ele>357.80576</ele>
        <time>2021-06-30T08:14:09Z</time>
      </trkpt>
      <trkpt lat="45.558762" lon="5.452634">
        <ele>359.02121</ele>
        <time>2021-06-30T08:14:10Z</time>
      </trkpt>
      <trkpt lat="45.558861" lon="5.452197">
        <ele>359.81870</ele>
        <time>2021-06-30T08:14:11Z</time>
      </trkpt>
      <trkpt lat="45.558949" lon="5.451730">
        <ele>360.26614</ele>
        <time>2021-06-30T08:14:12Z</time>
      </trkpt>
      <trkpt lat="45.559017" lon="5.451294">
        <ele>361.08542</ele>
        <time>2021-06-30T08:14:13Z</time>
      </trkpt>
      <trkpt lat="45.559082" lon="5.450838">
        <ele>361.19327</ele>
        <time>2021-06-30T08:14:14Z</time>
      </trkpt>
      <trkpt lat="45.559135" lon="5.450307">
        <ele>361.10202</ele>
        <time>2021-06-30T08:14:15Z</time>
      </trkpt>
      <trkpt lat="45.559158" lon="5.449849">
        <ele>361.26376</ele>
        <time>2021-06-30T08:14:16Z</time>
      </trkpt>
      <trkpt lat="45.559177" lon="5.449396">
        <ele>361.22336</ele>
        <time>2021-06-30T08:14:17Z</time>
      </trkpt>
      <trkpt lat="45.559189" lon="5.448944">
        <ele>361.30991</ele>
        <time>2021-06-30T08:14:18Z</time>
      </trkpt>
      <trkpt lat="45.559204" lon="5.448491">
        <ele>362.10580</ele>
        <time>2021-06-30T08:14:19Z</time>
      </trkpt>
      <trkpt lat="45.559231" lon="5.448019">
        <ele>362.48264</ele>
        <time>2021-06-30T08:14:20Z</time>
      </trkpt>
      <trkpt lat="45.559265" lon="5.447554">
        <ele>363.09702</ele>
        <time>2021-06-30T08:14:21Z</time>
      </trkpt>
      <trkpt lat="45.559334" lon="5.447099">
        <ele>364.33249</ele>
        <time>2021-06-30T08:14:22Z</time>
      </trkpt>
      <trkpt lat="45.559399" lon="5.446669">
        <ele>364.10141</ele>
        <time>2021-06-30T08:14:23Z</time>
      </trkpt>
      <trkpt lat="45.559475" lon="5.446215">
        <ele>364.92844</ele>
        <time>2021-06-30T08:14:24Z</time>
      </trkpt>
      <trkpt lat="45.559570" lon="5.445768">
        <ele>364.82370</ele>
        <time>2021-06-30T08:14:25Z</time>
      </trkpt>
      <trkpt lat="45.559677" lon="5.445315">
        <ele>365.04721</ele>
        <time>2021-06-30T08:14:26Z</time>
      </trkpt>
      <trkpt lat="45.559677" lon="5.445315">
        <ele>365.11569</ele>
        <time>2021-06-30T08:14:27Z</time>
      </trkpt>
      <trkpt lat="45.559803" lon="5.444882">
        <ele>365.04440</ele>
        <time>2021-06-30T08:14:28Z</time>
      </trkpt>
      <trkpt lat="45.559933" lon="5.444467">
        <ele>363.79782</ele>
        <time>2021-06-30T08:14:29Z</time>
      </trkpt>
      <trkpt lat="45.560074" lon="5.444048">
        <ele>363.63962</ele>
        <time>2021-06-30T08:14:30Z</time>
      </trkpt>
      <trkpt lat="45.560219" lon="5.443630">
        <ele>363.15414</ele>
        <time>2021-06-30T08:14:31Z</time>
      </trkpt>
      <trkpt lat="45.560368" lon="5.443186">
        <ele>362.38571</ele>
        <time>2021-06-30T08:14:32Z</time>
      </trkpt>
      <trkpt lat="45.560509" lon="5.442737">
        <ele>361.65134</ele>
        <time>2021-06-30T08:14:33Z</time>
      </trkpt>
      <trkpt lat="45.560638" lon="5.442302">
        <ele>360.45718</ele>
        <time>2021-06-30T08:14:34Z</time>
      </trkpt>
      <trkpt lat="45.560745" lon="5.441851">
        <ele>359.71652</ele>
        <time>2021-06-30T08:14:35Z</time>
      </trkpt>
      <trkpt lat="45.560841" lon="5.441425">
        <ele>359.45346</ele>
        <time>2021-06-30T08:14:36Z</time>
      </trkpt>
      <trkpt lat="45.560917" lon="5.440985">
        <ele>359.37381</ele>
        <time>2021-06-30T08:14:37Z</time>
      </trkpt>
      <trkpt lat="45.560982" lon="5.440534">
        <ele>359.34891</ele>
        <time>2021-06-30T08:14:38Z</time>
      </trkpt>
      <trkpt lat="45.561028" lon="5.440067">
        <ele>359.12137</ele>
        <time>2021-06-30T08:14:39Z</time>
      </trkpt>
      <trkpt lat="45.561050" lon="5.439625">
        <ele>358.88193</ele>
        <time>2021-06-30T08:14:40Z</time>
      </trkpt>
      <trkpt lat="45.561050" lon="5.439181">
        <ele>358.72244</ele>
        <time>2021-06-30T08:14:41Z</time>
      </trkpt>
      <trkpt lat="45.561047" lon="5.438720">
        <ele>357.90134</ele>
        <time>2021-06-30T08:14:42Z</time>
      </trkpt>
      <trkpt lat="45.561028" lon="5.438237">
        <ele>357.48923</ele>
        <time>2021-06-30T08:14:43Z</time>
      </trkpt>
      <trkpt lat="45.561008" lon="5.437764">
        <ele>357.12332</ele>
        <time>2021-06-30T08:14:44Z</time>
      </trkpt>
      <trkpt lat="45.560982" lon="5.437308">
        <ele>356.82492</ele>
        <time>2021-06-30T08:14:45Z</time>
      </trkpt>
      <trkpt lat="45.560951" lon="5.436822">
        <ele>356.57785</ele>
        <time>2021-06-30T08:14:46Z</time>
      </trkpt>
      <trkpt lat="45.560921" lon="5.436325">
        <ele>356.24728</ele>
        <time>2021-06-30T08:14:47Z</time>
      </trkpt>
      <trkpt lat="45.560890" lon="5.435857">
        <ele>356.09299</ele>
        <time>2021-06-30T08:14:48Z</time>
      </trkpt>
      <trkpt lat="45.560863" lon="5.435419">
        <ele>354.01285</ele>
        <time>2021-06-30T08:14:49Z</time>
      </trkpt>
      <trkpt lat="45.560841" lon="5.434961">
        <ele>352.69357</ele>
        <time>2021-06-30T08:14:50Z</time>
      </trkpt>
      <trkpt lat="45.560825" lon="5.434512">
        <ele>350.74472</ele>
        <time>2021-06-30T08:14:51Z</time>
      </trkpt>
      <trkpt lat="45.560814" lon="5.434063">
        <ele>349.63449</ele>
        <time>2021-06-30T08:14:52Z</time>
      </trkpt>
      <trkpt lat="45.560810" lon="5.433615">
        <ele>348.36606</ele>
        <time>2021-06-30T08:14:53Z</time>
      </trkpt>
      <trkpt lat="45.560806" lon="5.433127">
        <ele>345.65823</ele>
        <time>2021-06-30T08:14:54Z</time>
      </trkpt>
      <trkpt lat="45.560810" lon="5.432675">
        <ele>342.31131</ele>
        <time>2021-06-30T08:14:55Z</time>
      </trkpt>
      <trkpt lat="45.560814" lon="5.432194">
        <ele>340.35703</ele>
        <time>2021-06-30T08:14:56Z</time>
      </trkpt>
      <trkpt lat="45.560818" lon="5.431724">
        <ele>337.28189</ele>
        <time>2021-06-30T08:14:57Z</time>
      </trkpt>
      <trkpt lat="45.560822" lon="5.431270">
        <ele>335.13632</ele>
        <time>2021-06-30T08:14:58Z</time>
      </trkpt>
      <trkpt lat="45.560822" lon="5.430799">
        <ele>333.81650</ele>
        <time>2021-06-30T08:14:59Z</time>
      </trkpt>
      <trkpt lat="45.560825" lon="5.430341">
        <ele>332.08762</ele>
        <time>2021-06-30T08:15:00Z</time>
      </trkpt>
      <trkpt lat="45.560829" lon="5.429873">
        <ele>330.44516</ele>
        <time>2021-06-30T08:15:01Z</time>
      </trkpt>
      <trkpt lat="45.560837" lon="5.429417">
        <ele>329.09879</ele>
        <time>2021-06-30T08:15:02Z</time>
      </trkpt>
      <trkpt lat="45.560841" lon="5.428964">
        <ele>327.83151</ele>
        <time>2021-06-30T08:15:03Z</time>
      </trkpt>
      <trkpt lat="45.560841" lon="5.428964">
        <ele>326.24460</ele>
        <time>2021-06-30T08:15:04Z</time>
      </trkpt>
      <trkpt lat="45.560848" lon="5.428497">
        <ele>325.10995</ele>
        <time>2021-06-30T08:15:05Z</time>
      </trkpt>
      <trkpt lat="45.560856" lon="5.428017">
        <ele>323.62363</ele>
        <time>2021-06-30T08:15:06Z</time>
      </trkpt>
      <trkpt lat="45.560863" lon="5.427549">
        <ele>323.11789</ele>
        <time>2021-06-30T08:15:07Z</time>
      </trkpt>
      <trkpt lat="45.560871" lon="5.427080">
        <ele>322.40866</ele>
        <time>2021-06-30T08:15:08Z</time>
      </trkpt>
      <trkpt lat="45.560879" lon="5.426611">
        <ele>321.82492</ele>
        <time>2021-06-30T08:15:09Z</time>
      </trkpt>
      <trkpt lat="45.560879" lon="5.426155">
        <ele>320.33377</ele>
        <time>2021-06-30T08:15:10Z</time>
      </trkpt>
      <trkpt lat="45.560871" lon="5.425702">
        <ele>319.11301</ele>
        <time>2021-06-30T08:15:11Z</time>
      </trkpt>
      <trkpt lat="45.560863" lon="5.425230">
        <ele>318.59726</ele>
        <time>2021-06-30T08:15:12Z</time>
      </trkpt>
      <trkpt lat="45.560852" lon="5.424769">
        <ele>318.18338</ele>
        <time>2021-06-30T08:15:13Z</time>
      </trkpt>
      <trkpt lat="45.560848" lon="5.424324">
        <ele>317.69492</ele>
        <time>2021-06-30T08:15:14Z</time>
      </trkpt>
      <trkpt lat="45.560844" lon="5.423862">
        <ele>317.26645</ele>
        <time>2021-06-30T08:15:15Z</time>
      </trkpt>
      <trkpt lat="45.560837" lon="5.423379">
        <ele>317.11057</ele>
        <time>2021-06-30T08:15:16Z</time>
      </trkpt>
      <trkpt lat="45.560829" lon="5.422926">
        <ele>316.35324</ele>
        <time>2021-06-30T08:15:17Z</time>
      </trkpt>
      <trkpt lat="45.560818" lon="5.422477">
        <ele>316.14035</ele>
        <time>2021-06-30T08:15:18Z</time>
      </trkpt>
      <trkpt lat="45.560802" lon="5.421996">
        <ele>315.92612</ele>
        <time>2021-06-30T08:15:19Z</time>
      </trkpt>
      <trkpt lat="45.560787" lon="5.421536">
        <ele>315.99362</ele>
        <time>2021-06-30T08:15:20Z</time>
      </trkpt>
      <trkpt lat="45.560772" lon="5.421081">
        <ele>316.11386</ele>
        <time>2021-06-30T08:15:21Z</time>
      </trkpt>
      <trkpt lat="45.560760" lon="5.420631">
        <ele>315.91806</ele>
        <time>2021-06-30T08:15:22Z</time>
      </trkpt>
      <trkpt lat="45.560741" lon="5.420153">
        <ele>315.90268</ele>
        <time>2021-06-30T08:15:23Z</time>
      </trkpt>
      <trkpt lat="45.560719" lon="5.419671">
        <ele>315.94626</ele>
        <time>2021-06-30T08:15:24Z</time>
      </trkpt>
      <trkpt lat="45.560699" lon="5.419214">
        <ele>315.88779</ele>
        <time>2021-06-30T08:15:25Z</time>
      </trkpt>
      <trkpt lat="45.560677" lon="5.418750">
        <ele>315.87247</ele>
        <time>2021-06-30T08:15:26Z</time>
      </trkpt>
      <trkpt lat="45.560650" lon="5.418295">
        <ele>315.79568</ele>
        <time>2021-06-30T08:15:27Z</time>
      </trkpt>
      <trkpt lat="45.560627" lon="5.417844">
        <ele>315.66098</ele>
        <time>2021-06-30T08:15:28Z</time>
      </trkpt>
      <trkpt lat="45.560600" lon="5.417387">
        <ele>315.43845</ele>
        <time>2021-06-30T08:15:29Z</time>
      </trkpt>
      <trkpt lat="45.560574" lon="5.416925">
        <ele>315.19498</ele>
        <time>2021-06-30T08:15:30Z</time>
      </trkpt>
      <trkpt lat="45.560551" lon="5.416473">
        <ele>316.15543</ele>
        <time>2021-06-30T08:15:31Z</time>
      </trkpt>
      <trkpt lat="45.560524" lon="5.416054">
        <ele>316.23483</ele>
        <time>2021-06-30T08:15:32Z</time>
      </trkpt>
      <trkpt lat="45.560497" lon="5.415593">
        <ele>315.07773</ele>
        <time>2021-06-30T08:15:33Z</time>
      </trkpt>
      <trkpt lat="45.560471" lon="5.415109">
        <ele>315.73422</ele>
        <time>2021-06-30T08:15:34Z</time>
      </trkpt>
      <trkpt lat="45.560448" lon="5.414676">
        <ele>315.49228</ele>
        <time>2021-06-30T08:15:35Z</time>
      </trkpt>
      <trkpt lat="45.560421" lon="5.414223">
        <ele>315.44583</ele>
        <time>2021-06-30T08:15:36Z</time>
      </trkpt>
      <trkpt lat="45.560394" lon="5.413757">
        <ele>315.76163</ele>
        <time>2021-06-30T08:15:37Z</time>
      </trkpt>
      <trkpt lat="45.560371" lon="5.413293">
        <ele>315.65811</ele>
        <time>2021-06-30T08:15:38Z</time>
      </trkpt>
      <trkpt lat="45.560345" lon="5.412807">
        <ele>315.67484</ele>
        <time>2021-06-30T08:15:39Z</time>
      </trkpt>
      <trkpt lat="45.560345" lon="5.412807">
        <ele>315.33041</ele>
        <time>2021-06-30T08:15:40Z</time>
      </trkpt>
      <trkpt lat="45.560318" lon="5.412356">
        <ele>315.73892</ele>
        <time>2021-06-30T08:15:41Z</time>
      </trkpt>
      <trkpt lat="45.560291" lon="5.411884">
        <ele>316.30710</ele>
        <time>2021-06-30T08:15:42Z</time>
      </trkpt>
      <trkpt lat="45.560265" lon="5.411417">
        <ele>316.56570</ele>
        <time>2021-06-30T08:15:43Z</time>
      </trkpt>
      <trkpt lat="45.560238" lon="5.410943">
        <ele>316.35220</ele>
        <time>2021-06-30T08:15:44Z</time>
      </trkpt>
      <trkpt lat="45.560211" lon="5.410464">
        <ele>316.82382</ele>
        <time>2021-06-30T08:15:45Z</time>
      </trkpt>
      <trkpt lat="45.560184" lon="5.410014">
        <ele>317.04977</ele>
        <time>2021-06-30T08:15:46Z</time>
      </trkpt>
      <trkpt lat="45.560162" lon="5.409553">
        <ele>317.70663</ele>
        <time>2021-06-30T08:15:47Z</time>
      </trkpt>
      <trkpt lat="45.560135" lon="5.409070">
        <ele>317.67807</ele>
        <time>2021-06-30T08:15:48Z</time>
      </trkpt>
      <trkpt lat="45.560108" lon="5.408614">
        <ele>317.54831</ele>
        <time>2021-06-30T08:15:49Z</time>
      </trkpt>
      <trkpt lat="45.560081" lon="5.408143">
        <ele>317.59317</ele>
        <time>2021-06-30T08:15:50Z</time>
      </trkpt>
      <trkpt lat="45.560059" lon="5.407665">
        <ele>317.60538</ele>
        <time>2021-06-30T08:15:51Z</time>
      </trkpt>
      <trkpt lat="45.560032" lon="5.407196">
        <ele>316.33987</ele>
        <time>2021-06-30T08:15:52Z</time>
      </trkpt>
      <trkpt lat="45.560005" lon="5.406729">
        <ele>315.92520</ele>
        <time>2021-06-30T08:15:53Z</time>
      </trkpt>
      <trkpt lat="45.559978" lon="5.406268">
        <ele>315.81613</ele>
        <time>2021-06-30T08:15:54Z</time>
      </trkpt>
      <trkpt lat="45.559956" lon="5.405835">
        <ele>315.58200</ele>
        <time>2021-06-30T08:15:55Z</time>
      </trkpt>
      <trkpt lat="45.559929" lon="5.405365">
        <ele>315.63962</ele>
        <time>2021-06-30T08:15:56Z</time>
      </trkpt>
      <trkpt lat="45.559902" lon="5.404894">
        <ele>315.58975</ele>
        <time>2021-06-30T08:15:57Z</time>
      </trkpt>
      <trkpt lat="45.559875" lon="5.404437">
        <ele>315.47067</ele>
        <time>2021-06-30T08:15:58Z</time>
      </trkpt>
      <trkpt lat="45.559849" lon="5.403971">
        <ele>314.45883</ele>
        <time>2021-06-30T08:15:59Z</time>
      </trkpt>
      <trkpt lat="45.559822" lon="5.403497">
        <ele>314.28000</ele>
        <time>2021-06-30T08:16:00Z</time>
      </trkpt>
      <trkpt lat="45.559795" lon="5.403036">
        <ele>314.21603</ele>
        <time>2021-06-30T08:16:01Z</time>
      </trkpt>
      <trkpt lat="45.559769" lon="5.402602">
        <ele>314.34091</ele>
        <time>2021-06-30T08:16:02Z</time>
      </trkpt>
      <trkpt lat="45.559742" lon="5.402135">
        <ele>314.16245</ele>
        <time>2021-06-30T08:16:03Z</time>
      </trkpt>
      <trkpt lat="45.559711" lon="5.401671">
        <ele>313.98154</ele>
        <time>2021-06-30T08:16:04Z</time>
      </trkpt>
      <trkpt lat="45.559685" lon="5.401205">
        <ele>313.41599</ele>
        <time>2021-06-30T08:16:05Z</time>
      </trkpt>
      <trkpt lat="45.559662" lon="5.400764">
        <ele>313.56937</ele>
        <time>2021-06-30T08:16:06Z</time>
      </trkpt>
      <trkpt lat="45.559639" lon="5.400305">
        <ele>314.08957</ele>
        <time>2021-06-30T08:16:07Z</time>
      </trkpt>
      <trkpt lat="45.559616" lon="5.399831">
        <ele>313.92001</ele>
        <time>2021-06-30T08:16:08Z</time>
      </trkpt>
      <trkpt lat="45.559589" lon="5.399384">
        <ele>314.05276</ele>
        <time>2021-06-30T08:16:09Z</time>
      </trkpt>
      <trkpt lat="45.559563" lon="5.398905">
        <ele>313.16330</ele>
        <time>2021-06-30T08:16:10Z</time>
      </trkpt>
      <trkpt lat="45.559536" lon="5.398435">
        <ele>313.42941</ele>
        <time>2021-06-30T08:16:11Z</time>
      </trkpt>
      <trkpt lat="45.559509" lon="5.397998">
        <ele>313.46817</ele>
        <time>2021-06-30T08:16:12Z</time>
      </trkpt>
      <trkpt lat="45.559486" lon="5.397543">
        <ele>313.55374</ele>
        <time>2021-06-30T08:16:13Z</time>
      </trkpt>
      <trkpt lat="45.559456" lon="5.397062">
        <ele>313.25839</ele>
        <time>2021-06-30T08:16:14Z</time>
      </trkpt>
      <trkpt lat="45.559429" lon="5.396598">
        <ele>313.33530</ele>
        <time>2021-06-30T08:16:15Z</time>
      </trkpt>
      <trkpt lat="45.559429" lon="5.396598">
        <ele>314.07437</ele>
        <time>2021-06-30T08:16:16Z</time>
      </trkpt>
      <trkpt lat="45.559406" lon="5.396118">
        <ele>314.48312</ele>
        <time>2021-06-30T08:16:17Z</time>
      </trkpt>
      <trkpt lat="45.559380" lon="5.395641">
        <ele>314.53915</ele>
        <time>2021-06-30T08:16:18Z</time>
      </trkpt>
      <trkpt lat="45.559361" lon="5.395193">
        <ele>314.75461</ele>
        <time>2021-06-30T08:16:19Z</time>
      </trkpt>
      <trkpt lat="45.559338" lon="5.394740">
        <ele>314.62009</ele>
        <time>2021-06-30T08:16:20Z</time>
      </trkpt>
      <trkpt lat="45.559330" lon="5.394251">
        <ele>313.91611</ele>
        <time>2021-06-30T08:16:21Z</time>
      </trkpt>
      <trkpt lat="45.559330" lon="5.393769">
        <ele>313.86526</ele>
        <time>2021-06-30T08:16:22Z</time>
      </trkpt>
      <trkpt lat="45.559334" lon="5.393293">
        <ele>313.80991</ele>
        <time>2021-06-30T08:16:23Z</time>
      </trkpt>
      <trkpt lat="45.559349" lon="5.392819">
        <ele>313.70676</ele>
        <time>2021-06-30T08:16:24Z</time>
      </trkpt>
      <trkpt lat="45.559368" lon="5.392332">
        <ele>313.83578</ele>
        <time>2021-06-30T08:16:25Z</time>
      </trkpt>
      <trkpt lat="45.559402" lon="5.391871">
        <ele>313.87949</ele>
        <time>2021-06-30T08:16:26Z</time>
      </trkpt>
      <trkpt lat="45.559441" lon="5.391389">
        <ele>313.83359</ele>
        <time>2021-06-30T08:16:27Z</time>
      </trkpt>
      <trkpt lat="45.559490" lon="5.390919">
        <ele>313.98087</ele>
        <time>2021-06-30T08:16:28Z</time>
      </trkpt>
      <trkpt lat="45.559544" lon="5.390477">
        <ele>313.85165</ele>
        <time>2021-06-30T08:16:29Z</time>
      </trkpt>
      <trkpt lat="45.559601" lon="5.390016">
        <ele>313.87363</ele>
        <time>2021-06-30T08:16:30Z</time>
      </trkpt>
      <trkpt lat="45.559666" lon="5.389559">
        <ele>313.59811</ele>
        <time>2021-06-30T08:16:31Z</time>
      </trkpt>
      <trkpt lat="45.559746" lon="5.389106">
        <ele>313.82089</ele>
        <time>2021-06-30T08:16:32Z</time>
      </trkpt>
      <trkpt lat="45.559834" lon="5.388647">
        <ele>314.26895</ele>
        <time>2021-06-30T08:16:33Z</time>
      </trkpt>
      <trkpt lat="45.559925" lon="5.388182">
        <ele>314.26096</ele>
        <time>2021-06-30T08:16:34Z</time>
      </trkpt>
      <trkpt lat="45.560036" lon="5.387729">
        <ele>314.36691</ele>
        <time>2021-06-30T08:16:35Z</time>
      </trkpt>
      <trkpt lat="45.560135" lon="5.387302">
        <ele>314.10776</ele>
        <time>2021-06-30T08:16:36Z</time>
      </trkpt>
      <trkpt lat="45.560246" lon="5.386868">
        <ele>314.22726</ele>
        <time>2021-06-30T08:16:37Z</time>
      </trkpt>
      <trkpt lat="45.560356" lon="5.386441">
        <ele>314.10184</ele>
        <time>2021-06-30T08:16:38Z</time>
      </trkpt>
      <trkpt lat="45.560471" lon="5.386006">
        <ele>314.29050</ele>
        <time>2021-06-30T08:16:39Z</time>
      </trkpt>
      <trkpt lat="45.560585" lon="5.385578">
        <ele>314.64584</ele>
        <time>2021-06-30T08:16:40Z</time>
      </trkpt>
      <trkpt lat="45.560699" lon="5.385140">
        <ele>314.45297</ele>
        <time>2021-06-30T08:16:41Z</time>
      </trkpt>
      <trkpt lat="45.560818" lon="5.384697">
        <ele>314.34042</ele>
        <time>2021-06-30T08:16:42Z</time>
      </trkpt>
      <trkpt lat="45.560925" lon="5.384251">
        <ele>313.80161</ele>
        <time>2021-06-30T08:16:43Z</time>
      </trkpt>
      <trkpt lat="45.561035" lon="5.383786">
        <ele>313.44858</ele>
        <time>2021-06-30T08:16:44Z</time>
      </trkpt>
      <trkpt lat="45.561131" lon="5.383338">
        <ele>313.28854</ele>
        <time>2021-06-30T08:16:45Z</time>
      </trkpt>
      <trkpt lat="45.561218" lon="5.382901">
        <ele>313.20261</ele>
        <time>2021-06-30T08:16:46Z</time>
      </trkpt>
      <trkpt lat="45.561295" lon="5.382466">
        <ele>313.11020</ele>
        <time>2021-06-30T08:16:47Z</time>
      </trkpt>
      <trkpt lat="45.561295" lon="5.382466">
        <ele>312.95181</ele>
        <time>2021-06-30T08:16:48Z</time>
      </trkpt>
      <trkpt lat="45.561367" lon="5.382048">
        <ele>312.41061</ele>
        <time>2021-06-30T08:16:49Z</time>
      </trkpt>
      <trkpt lat="45.561428" lon="5.381599">
        <ele>312.30264</ele>
        <time>2021-06-30T08:16:50Z</time>
      </trkpt>
      <trkpt lat="45.561485" lon="5.381152">
        <ele>311.94351</ele>
        <time>2021-06-30T08:16:51Z</time>
      </trkpt>
      <trkpt lat="45.561539" lon="5.380678">
        <ele>311.75961</ele>
        <time>2021-06-30T08:16:52Z</time>
      </trkpt>
      <trkpt lat="45.561584" lon="5.380221">
        <ele>311.82712</ele>
        <time>2021-06-30T08:16:53Z</time>
      </trkpt>
      <trkpt lat="45.561626" lon="5.379773">
        <ele>311.76956</ele>
        <time>2021-06-30T08:16:54Z</time>
      </trkpt>
      <trkpt lat="45.561661" lon="5.379341">
        <ele>311.93246</ele>
        <time>2021-06-30T08:16:55Z</time>
      </trkpt>
      <trkpt lat="45.561695" lon="5.378925">
        <ele>311.58920</ele>
        <time>2021-06-30T08:16:56Z</time>
      </trkpt>
      <trkpt lat="45.561729" lon="5.378501">
        <ele>311.16556</ele>
        <time>2021-06-30T08:16:57Z</time>
      </trkpt>
      <trkpt lat="45.561768" lon="5.378110">
        <ele>311.33334</ele>
        <time>2021-06-30T08:16:58Z</time>
      </trkpt>
      <trkpt lat="45.561802" lon="5.377721">
        <ele>311.26511</ele>
        <time>2021-06-30T08:16:59Z</time>
      </trkpt>
      <trkpt lat="45.561840" lon="5.377336">
        <ele>311.57309</ele>
        <time>2021-06-30T08:17:00Z</time>
      </trkpt>
      <trkpt lat="45.561871" lon="5.376991">
        <ele>311.15109</ele>
        <time>2021-06-30T08:17:01Z</time>
      </trkpt>
      <trkpt lat="45.561916" lon="5.376637">
        <ele>310.87595</ele>
        <time>2021-06-30T08:17:02Z</time>
      </trkpt>
      <trkpt lat="45.561966" lon="5.376279">
        <ele>310.96567</ele>
        <time>2021-06-30T08:17:03Z</time>
      </trkpt>
      <trkpt lat="45.562016" lon="5.375903">
        <ele>310.84824</ele>
        <time>2021-06-30T08:17:04Z</time>
      </trkpt>
      <trkpt lat="45.562077" lon="5.375523">
        <ele>309.75821</ele>
        <time>2021-06-30T08:17:05Z</time>
      </trkpt>
      <trkpt lat="45.562141" lon="5.375115">
        <ele>309.48801</ele>
        <time>2021-06-30T08:17:06Z</time>
      </trkpt>
      <trkpt lat="45.562214" lon="5.374702">
        <ele>309.72910</ele>
        <time>2021-06-30T08:17:07Z</time>
      </trkpt>
      <trkpt lat="45.562290" lon="5.374289">
        <ele>309.58859</ele>
        <time>2021-06-30T08:17:08Z</time>
      </trkpt>
      <trkpt lat="45.562370" lon="5.373833">
        <ele>309.54196</ele>
        <time>2021-06-30T08:17:09Z</time>
      </trkpt>
      <trkpt lat="45.562450" lon="5.373399">
        <ele>309.23727</ele>
        <time>2021-06-30T08:17:10Z</time>
      </trkpt>
      <trkpt lat="45.562531" lon="5.372964">
        <ele>308.86832</ele>
        <time>2021-06-30T08:17:11Z</time>
      </trkpt>
      <trkpt lat="45.562611" lon="5.372514">
        <ele>308.80588</ele>
        <time>2021-06-30T08:17:12Z</time>
      </trkpt>
      <trkpt lat="45.562695" lon="5.372052">
        <ele>308.21896</ele>
        <time>2021-06-30T08:17:13Z</time>
      </trkpt>
      <trkpt lat="45.562778" lon="5.371600">
        <ele>308.10519</ele>
        <time>2021-06-30T08:17:14Z</time>
      </trkpt>
      <trkpt lat="45.562862" lon="5.371135">
        <ele>308.26706</ele>
        <time>2021-06-30T08:17:15Z</time>
      </trkpt>
      <trkpt lat="45.562943" lon="5.370701">
        <ele>308.21506</ele>
        <time>2021-06-30T08:17:16Z</time>
      </trkpt>
      <trkpt lat="45.563026" lon="5.370239">
        <ele>307.86514</ele>
        <time>2021-06-30T08:17:17Z</time>
      </trkpt>
      <trkpt lat="45.563107" lon="5.369795">
        <ele>307.45078</ele>
        <time>2021-06-30T08:17:18Z</time>
      </trkpt>
      <trkpt lat="45.563187" lon="5.369342">
        <ele>307.34714</ele>
        <time>2021-06-30T08:17:19Z</time>
      </trkpt>
      <trkpt lat="45.563271" lon="5.368896">
        <ele>307.24863</ele>
        <time>2021-06-30T08:17:20Z</time>
      </trkpt>
      <trkpt lat="45.563351" lon="5.368440">
        <ele>307.53207</ele>
        <time>2021-06-30T08:17:21Z</time>
      </trkpt>
      <trkpt lat="45.563431" lon="5.367981">
        <ele>307.43246</ele>
        <time>2021-06-30T08:17:22Z</time>
      </trkpt>
      <trkpt lat="45.563431" lon="5.367981">
        <ele>307.10806</ele>
        <time>2021-06-30T08:17:23Z</time>
      </trkpt>
      <trkpt lat="45.563507" lon="5.367523">
        <ele>306.69626</ele>
        <time>2021-06-30T08:17:24Z</time>
      </trkpt>
      <trkpt lat="45.563583" lon="5.367059">
        <ele>306.50980</ele>
        <time>2021-06-30T08:17:25Z</time>
      </trkpt>
      <trkpt lat="45.563648" lon="5.366613">
        <ele>305.87289</ele>
        <time>2021-06-30T08:17:26Z</time>
      </trkpt>
      <trkpt lat="45.563717" lon="5.366149">
        <ele>305.32742</ele>
        <time>2021-06-30T08:17:27Z</time>
      </trkpt>
      <trkpt lat="45.563782" lon="5.365688">
        <ele>305.04550</ele>
        <time>2021-06-30T08:17:28Z</time>
      </trkpt>
      <trkpt lat="45.563839" lon="5.365223">
        <ele>304.41428</ele>
        <time>2021-06-30T08:17:29Z</time>
      </trkpt>
      <trkpt lat="45.563892" lon="5.364773">
        <ele>303.95261</ele>
        <time>2021-06-30T08:17:30Z</time>
      </trkpt>
      <trkpt lat="45.563938" lon="5.364315">
        <ele>303.31149</ele>
        <time>2021-06-30T08:17:31Z</time>
      </trkpt>
      <trkpt lat="45.563984" lon="5.363847">
        <ele>303.91806</ele>
        <time>2021-06-30T08:17:32Z</time>
      </trkpt>
      <trkpt lat="45.564030" lon="5.363392">
        <ele>303.49167</ele>
        <time>2021-06-30T08:17:33Z</time>
      </trkpt>
      <trkpt lat="45.564075" lon="5.362914">
        <ele>303.17050</ele>
        <time>2021-06-30T08:17:34Z</time>
      </trkpt>
      <trkpt lat="45.564110" lon="5.362469">
        <ele>302.20010</ele>
        <time>2021-06-30T08:17:35Z</time>
      </trkpt>
      <trkpt lat="45.564148" lon="5.362020">
        <ele>301.64346</ele>
        <time>2021-06-30T08:17:36Z</time>
      </trkpt>
      <trkpt lat="45.564182" lon="5.361568">
        <ele>301.40219</ele>
        <time>2021-06-30T08:17:37Z</time>
      </trkpt>
      <trkpt lat="45.564213" lon="5.361102">
        <ele>300.88559</ele>
        <time>2021-06-30T08:17:38Z</time>
      </trkpt>
      <trkpt lat="45.564247" lon="5.360633">
        <ele>300.40634</ele>
        <time>2021-06-30T08:17:39Z</time>
      </trkpt>
      <trkpt lat="45.564274" lon="5.360181">
        <ele>299.90170</ele>
        <time>2021-06-30T08:17:40Z</time>
      </trkpt>
      <trkpt lat="45.564304" lon="5.359730">
        <ele>299.11154</ele>
        <time>2021-06-30T08:17:41Z</time>
      </trkpt>
      <trkpt lat="45.564335" lon="5.359267">
        <ele>298.92032</ele>
        <time>2021-06-30T08:17:42Z</time>
      </trkpt>
      <trkpt lat="45.564365" lon="5.358805">
        <ele>298.51913</ele>
        <time>2021-06-30T08:17:43Z</time>
      </trkpt>
      <trkpt lat="45.564400" lon="5.358335">
        <ele>297.96182</ele>
        <time>2021-06-30T08:17:44Z</time>
      </trkpt>
      <trkpt lat="45.564438" lon="5.357883">
        <ele>297.38199</ele>
        <time>2021-06-30T08:17:45Z</time>
      </trkpt>
      <trkpt lat="45.564472" lon="5.357428">
        <ele>297.23276</ele>
        <time>2021-06-30T08:17:46Z</time>
      </trkpt>
      <trkpt lat="45.564507" lon="5.356950">
        <ele>297.09946</ele>
        <time>2021-06-30T08:17:47Z</time>
      </trkpt>
      <trkpt lat="45.564545" lon="5.356492">
        <ele>297.17197</ele>
        <time>2021-06-30T08:17:48Z</time>
      </trkpt>
      <trkpt lat="45.564587" lon="5.356045">
        <ele>297.00998</ele>
        <time>2021-06-30T08:17:49Z</time>
      </trkpt>
      <trkpt lat="45.564632" lon="5.355589">
        <ele>296.88437</ele>
        <time>2021-06-30T08:17:50Z</time>
      </trkpt>
      <trkpt lat="45.564682" lon="5.355127">
        <ele>296.67050</ele>
        <time>2021-06-30T08:17:51Z</time>
      </trkpt>
      <trkpt lat="45.564732" lon="5.354683">
        <ele>297.11606</ele>
        <time>2021-06-30T08:17:52Z</time>
      </trkpt>
      <trkpt lat="45.564785" lon="5.354235">
        <ele>296.63766</ele>
        <time>2021-06-30T08:17:53Z</time>
      </trkpt>
      <trkpt lat="45.564842" lon="5.353753">
        <ele>296.55881</ele>
        <time>2021-06-30T08:17:54Z</time>
      </trkpt>
      <trkpt lat="45.564903" lon="5.353324">
        <ele>295.98282</ele>
        <time>2021-06-30T08:17:55Z</time>
      </trkpt>
      <trkpt lat="45.564976" lon="5.352850">
        <ele>296.13693</ele>
        <time>2021-06-30T08:17:56Z</time>
      </trkpt>
      <trkpt lat="45.565052" lon="5.352383">
        <ele>295.85336</ele>
        <time>2021-06-30T08:17:57Z</time>
      </trkpt>
      <trkpt lat="45.565128" lon="5.351932">
        <ele>295.56033</ele>
        <time>2021-06-30T08:17:58Z</time>
      </trkpt>
      <trkpt lat="45.565208" lon="5.351463">
        <ele>295.56625</ele>
        <time>2021-06-30T08:17:59Z</time>
      </trkpt>
      <trkpt lat="45.565208" lon="5.351463">
        <ele>295.37790</ele>
        <time>2021-06-30T08:18:00Z</time>
      </trkpt>
      <trkpt lat="45.565292" lon="5.351023">
        <ele>295.33237</ele>
        <time>2021-06-30T08:18:01Z</time>
      </trkpt>
      <trkpt lat="45.565380" lon="5.350582">
        <ele>294.70834</ele>
        <time>2021-06-30T08:18:02Z</time>
      </trkpt>
      <trkpt lat="45.565475" lon="5.350119">
        <ele>294.62161</ele>
        <time>2021-06-30T08:18:03Z</time>
      </trkpt>
      <trkpt lat="45.565571" lon="5.349674">
        <ele>294.00790</ele>
        <time>2021-06-30T08:18:04Z</time>
      </trkpt>
      <trkpt lat="45.565678" lon="5.349205">
        <ele>293.76187</ele>
        <time>2021-06-30T08:18:05Z</time>
      </trkpt>
      <trkpt lat="45.565781" lon="5.348751">
        <ele>293.27499</ele>
        <time>2021-06-30T08:18:06Z</time>
      </trkpt>
      <trkpt lat="45.565884" lon="5.348299">
        <ele>292.98312</ele>
        <time>2021-06-30T08:18:07Z</time>
      </trkpt>
      <trkpt lat="45.565987" lon="5.347858">
        <ele>292.44913</ele>
        <time>2021-06-30T08:18:08Z</time>
      </trkpt>
      <trkpt lat="45.566097" lon="5.347421">
        <ele>292.07565</ele>
        <time>2021-06-30T08:18:09Z</time>
      </trkpt>
      <trkpt lat="45.566196" lon="5.347091">
        <ele>291.82895</ele>
        <time>2021-06-30T08:18:10Z</time>
      </trkpt>
      <trkpt lat="45.566196" lon="5.347091">
        <ele>291.53043</ele>
        <time>2021-06-30T08:18:11Z</time>
      </trkpt>
      <trkpt lat="45.566475" lon="5.346370">
        <ele>291.29178</ele>
        <time>2021-06-30T08:18:12Z</time>
      </trkpt>
      <trkpt lat="45.566700" lon="5.345803">
        <ele>290.91489</ele>
        <time>2021-06-30T08:18:13Z</time>
      </trkpt>
      <trkpt lat="45.566727" lon="5.345287">
        <ele>290.59885</ele>
        <time>2021-06-30T08:18:14Z</time>
      </trkpt>
      <trkpt lat="45.566856" lon="5.344870">
        <ele>290.21262</ele>
        <time>2021-06-30T08:18:15Z</time>
      </trkpt>
      <trkpt lat="45.566994" lon="5.344425">
        <ele>289.81931</ele>
        <time>2021-06-30T08:18:16Z</time>
      </trkpt>
      <trkpt lat="45.567131" lon="5.344018">
        <ele>289.70944</ele>
        <time>2021-06-30T08:18:17Z</time>
      </trkpt>
      <trkpt lat="45.567287" lon="5.343582">
        <ele>289.44058</ele>
        <time>2021-06-30T08:18:18Z</time>
      </trkpt>
      <trkpt lat="45.567436" lon="5.343146">
        <ele>288.54617</ele>
        <time>2021-06-30T08:18:19Z</time>
      </trkpt>
      <trkpt lat="45.567585" lon="5.342734">
        <ele>287.82126</ele>
        <time>2021-06-30T08:18:20Z</time>
      </trkpt>
      <trkpt lat="45.567722" lon="5.342345">
        <ele>287.46860</ele>
        <time>2021-06-30T08:18:21Z</time>
      </trkpt>
      <trkpt lat="45.567867" lon="5.341942">
        <ele>287.34946</ele>
        <time>2021-06-30T08:18:22Z</time>
      </trkpt>
      <trkpt lat="45.568020" lon="5.341514">
        <ele>287.14096</ele>
        <time>2021-06-30T08:18:23Z</time>
      </trkpt>
      <trkpt lat="45.568169" lon="5.341090">
        <ele>287.06381</ele>
        <time>2021-06-30T08:18:24Z</time>
      </trkpt>
      <trkpt lat="45.568310" lon="5.340693">
        <ele>286.85251</ele>
        <time>2021-06-30T08:18:25Z</time>
      </trkpt>
      <trkpt lat="45.568462" lon="5.340269">
        <ele>286.75693</ele>
        <time>2021-06-30T08:18:26Z</time>
      </trkpt>
      <trkpt lat="45.568462" lon="5.340269">
        <ele>285.87448</ele>
        <time>2021-06-30T08:18:27Z</time>
      </trkpt>
      <trkpt lat="45.568611" lon="5.339864">
        <ele>285.42264</ele>
        <time>2021-06-30T08:18:28Z</time>
      </trkpt>
      <trkpt lat="45.568764" lon="5.339447">
        <ele>284.96555</ele>
        <time>2021-06-30T08:18:29Z</time>
      </trkpt>
      <trkpt lat="45.568920" lon="5.339027">
        <ele>284.82285</ele>
        <time>2021-06-30T08:18:30Z</time>
      </trkpt>
      <trkpt lat="45.569069" lon="5.338615">
        <ele>284.76413</ele>
        <time>2021-06-30T08:18:31Z</time>
      </trkpt>
      <trkpt lat="45.569214" lon="5.338214">
        <ele>284.14304</ele>
        <time>2021-06-30T08:18:32Z</time>
      </trkpt>
      <trkpt lat="45.569366" lon="5.337803">
        <ele>284.11447</ele>
        <time>2021-06-30T08:18:33Z</time>
      </trkpt>
      <trkpt lat="45.569515" lon="5.337388">
        <ele>283.36349</ele>
        <time>2021-06-30T08:18:34Z</time>
      </trkpt>
      <trkpt lat="45.569672" lon="5.336961">
        <ele>282.94138</ele>
        <time>2021-06-30T08:18:35Z</time>
      </trkpt>
      <trkpt lat="45.569824" lon="5.336530">
        <ele>282.25674</ele>
        <time>2021-06-30T08:18:36Z</time>
      </trkpt>
      <trkpt lat="45.569969" lon="5.336112">
        <ele>282.31827</ele>
        <time>2021-06-30T08:18:37Z</time>
      </trkpt>
      <trkpt lat="45.570118" lon="5.335683">
        <ele>281.93900</ele>
        <time>2021-06-30T08:18:38Z</time>
      </trkpt>
      <trkpt lat="45.570263" lon="5.335280">
        <ele>281.84592</ele>
        <time>2021-06-30T08:18:39Z</time>
      </trkpt>
      <trkpt lat="45.570408" lon="5.334854">
        <ele>281.96579</ele>
        <time>2021-06-30T08:18:40Z</time>
      </trkpt>
      <trkpt lat="45.570553" lon="5.334430">
        <ele>282.03983</ele>
        <time>2021-06-30T08:18:41Z</time>
      </trkpt>
      <trkpt lat="45.570690" lon="5.334020">
        <ele>282.13669</ele>
        <time>2021-06-30T08:18:42Z</time>
      </trkpt>
      <trkpt lat="45.570827" lon="5.333610">
        <ele>282.13998</ele>
        <time>2021-06-30T08:18:43Z</time>
      </trkpt>
      <trkpt lat="45.570961" lon="5.333185">
        <ele>281.93192</ele>
        <time>2021-06-30T08:18:44Z</time>
      </trkpt>
      <trkpt lat="45.571087" lon="5.332755">
        <ele>281.66440</ele>
        <time>2021-06-30T08:18:45Z</time>
      </trkpt>
      <trkpt lat="45.571190" lon="5.332317">
        <ele>281.35464</ele>
        <time>2021-06-30T08:18:46Z</time>
      </trkpt>
      <trkpt lat="45.571293" lon="5.331880">
        <ele>281.28085</ele>
        <time>2021-06-30T08:18:47Z</time>
      </trkpt>
      <trkpt lat="45.571392" lon="5.331406">
        <ele>280.81882</ele>
        <time>2021-06-30T08:18:48Z</time>
      </trkpt>
      <trkpt lat="45.571484" lon="5.330935">
        <ele>280.62833</ele>
        <time>2021-06-30T08:18:49Z</time>
      </trkpt>
      <trkpt lat="45.571560" lon="5.330446">
        <ele>280.01987</ele>
        <time>2021-06-30T08:18:50Z</time>
      </trkpt>
      <trkpt lat="45.571629" lon="5.329985">
        <ele>279.60721</ele>
        <time>2021-06-30T08:18:51Z</time>
      </trkpt>
      <trkpt lat="45.571674" lon="5.329508">
        <ele>279.17905</ele>
        <time>2021-06-30T08:18:52Z</time>
      </trkpt>
      <trkpt lat="45.571716" lon="5.329057">
        <ele>279.48264</ele>
        <time>2021-06-30T08:18:53Z</time>
      </trkpt>
      <trkpt lat="45.571758" lon="5.328577">
        <ele>278.60532</ele>
        <time>2021-06-30T08:18:54Z</time>
      </trkpt>
      <trkpt lat="45.571808" lon="5.328036">
        <ele>278.50278</ele>
        <time>2021-06-30T08:18:55Z</time>
      </trkpt>
      <trkpt lat="45.571827" lon="5.327529">
        <ele>278.47910</ele>
        <time>2021-06-30T08:18:56Z</time>
      </trkpt>
      <trkpt lat="45.571842" lon="5.326984">
        <ele>278.20309</ele>
        <time>2021-06-30T08:18:57Z</time>
      </trkpt>
      <trkpt lat="45.571857" lon="5.326489">
        <ele>277.83347</ele>
        <time>2021-06-30T08:18:58Z</time>
      </trkpt>
      <trkpt lat="45.571857" lon="5.326489">
        <ele>278.04691</ele>
        <time>2021-06-30T08:18:59Z</time>
      </trkpt>
      <trkpt lat="45.571857" lon="5.325981">
        <ele>277.68930</ele>
        <time>2021-06-30T08:19:00Z</time>
      </trkpt>
      <trkpt lat="45.571861" lon="5.325467">
        <ele>277.56210</ele>
        <time>2021-06-30T08:19:01Z</time>
      </trkpt>
      <trkpt lat="45.571865" lon="5.324964">
        <ele>277.56290</ele>
        <time>2021-06-30T08:19:02Z</time>
      </trkpt>
      <trkpt lat="45.571869" lon="5.324418">
        <ele>277.49350</ele>
        <time>2021-06-30T08:19:03Z</time>
      </trkpt>
      <trkpt lat="45.571873" lon="5.323935">
        <ele>277.75620</ele>
        <time>2021-06-30T08:19:04Z</time>
      </trkpt>
      <trkpt lat="45.571877" lon="5.323418">
        <ele>278.13303</ele>
        <time>2021-06-30T08:19:05Z</time>
      </trkpt>
      <trkpt lat="45.571880" lon="5.322920">
        <ele>277.62338</ele>
        <time>2021-06-30T08:19:06Z</time>
      </trkpt>
      <trkpt lat="45.571884" lon="5.322433">
        <ele>277.35617</ele>
        <time>2021-06-30T08:19:07Z</time>
      </trkpt>
      <trkpt lat="45.571899" lon="5.321913">
        <ele>277.27487</ele>
        <time>2021-06-30T08:19:08Z</time>
      </trkpt>
      <trkpt lat="45.571918" lon="5.321389">
        <ele>276.71249</ele>
        <time>2021-06-30T08:19:09Z</time>
      </trkpt>
      <trkpt lat="45.571945" lon="5.320894">
        <ele>276.86575</ele>
        <time>2021-06-30T08:19:10Z</time>
      </trkpt>
      <trkpt lat="45.571976" lon="5.320366">
        <ele>276.52512</ele>
        <time>2021-06-30T08:19:11Z</time>
      </trkpt>
      <trkpt lat="45.572021" lon="5.319832">
        <ele>276.37601</ele>
        <time>2021-06-30T08:19:12Z</time>
      </trkpt>
      <trkpt lat="45.572063" lon="5.319342">
        <ele>275.92050</ele>
        <time>2021-06-30T08:19:13Z</time>
      </trkpt>
      <trkpt lat="45.572136" lon="5.318820">
        <ele>274.83176</ele>
        <time>2021-06-30T08:19:14Z</time>
      </trkpt>
      <trkpt lat="45.572205" lon="5.318332">
        <ele>273.94296</ele>
        <time>2021-06-30T08:19:15Z</time>
      </trkpt>
      <trkpt lat="45.572273" lon="5.317834">
        <ele>273.88394</ele>
        <time>2021-06-30T08:19:16Z</time>
      </trkpt>
      <trkpt lat="45.572350" lon="5.317346">
        <ele>273.38693</ele>
        <time>2021-06-30T08:19:17Z</time>
      </trkpt>
      <trkpt lat="45.572422" lon="5.316862">
        <ele>273.32968</ele>
        <time>2021-06-30T08:19:18Z</time>
      </trkpt>
      <trkpt lat="45.572506" lon="5.316402">
        <ele>272.78091</ele>
        <time>2021-06-30T08:19:19Z</time>
      </trkpt>
      <trkpt lat="45.572594" lon="5.315934">
        <ele>272.58176</ele>
        <time>2021-06-30T08:19:20Z</time>
      </trkpt>
      <trkpt lat="45.572697" lon="5.315462">
        <ele>272.14389</ele>
        <time>2021-06-30T08:19:21Z</time>
      </trkpt>
      <trkpt lat="45.572796" lon="5.314994">
        <ele>272.53323</ele>
        <time>2021-06-30T08:19:22Z</time>
      </trkpt>
      <trkpt lat="45.572899" lon="5.314559">
        <ele>272.05234</ele>
        <time>2021-06-30T08:19:23Z</time>
      </trkpt>
      <trkpt lat="45.573013" lon="5.314099">
        <ele>271.50461</ele>
        <time>2021-06-30T08:19:24Z</time>
      </trkpt>
      <trkpt lat="45.573132" lon="5.313670">
        <ele>271.23911</ele>
        <time>2021-06-30T08:19:25Z</time>
      </trkpt>
      <trkpt lat="45.573254" lon="5.313220">
        <ele>270.87094</ele>
        <time>2021-06-30T08:19:26Z</time>
      </trkpt>
      <trkpt lat="45.573387" lon="5.312787">
        <ele>270.62344</ele>
        <time>2021-06-30T08:19:27Z</time>
      </trkpt>
      <trkpt lat="45.573521" lon="5.312344">
        <ele>270.16135</ele>
        <time>2021-06-30T08:19:28Z</time>
      </trkpt>
      <trkpt lat="45.573521" lon="5.312344">
        <ele>270.07040</ele>
        <time>2021-06-30T08:19:29Z</time>
      </trkpt>
      <trkpt lat="45.573669" lon="5.311899">
        <ele>269.77097</ele>
        <time>2021-06-30T08:19:30Z</time>
      </trkpt>
      <trkpt lat="45.573830" lon="5.311419">
        <ele>269.33090</ele>
        <time>2021-06-30T08:19:31Z</time>
      </trkpt>
      <trkpt lat="45.574001" lon="5.310965">
        <ele>268.92453</ele>
        <time>2021-06-30T08:19:32Z</time>
      </trkpt>
      <trkpt lat="45.574169" lon="5.310517">
        <ele>268.81247</ele>
        <time>2021-06-30T08:19:33Z</time>
      </trkpt>
      <trkpt lat="45.574348" lon="5.310085">
        <ele>268.48947</ele>
        <time>2021-06-30T08:19:34Z</time>
      </trkpt>
      <trkpt lat="45.574547" lon="5.309636">
        <ele>268.44711</ele>
        <time>2021-06-30T08:19:35Z</time>
      </trkpt>
      <trkpt lat="45.574749" lon="5.309189">
        <ele>268.25082</ele>
        <time>2021-06-30T08:19:36Z</time>
      </trkpt>
      <trkpt lat="45.574966" lon="5.308771">
        <ele>268.13791</ele>
        <time>2021-06-30T08:19:37Z</time>
      </trkpt>
      <trkpt lat="45.575188" lon="5.308374">
        <ele>267.86899</ele>
        <time>2021-06-30T08:19:38Z</time>
      </trkpt>
      <trkpt lat="45.575417" lon="5.307973">
        <ele>268.12411</ele>
        <time>2021-06-30T08:19:39Z</time>
      </trkpt>
      <trkpt lat="45.575657" lon="5.307604">
        <ele>268.11325</ele>
        <time>2021-06-30T08:19:40Z</time>
      </trkpt>
      <trkpt lat="45.575920" lon="5.307247">
        <ele>268.10092</ele>
        <time>2021-06-30T08:19:41Z</time>
      </trkpt>
      <trkpt lat="45.576187" lon="5.306904">
        <ele>267.90781</ele>
        <time>2021-06-30T08:19:42Z</time>
      </trkpt>
      <trkpt lat="45.576454" lon="5.306577">
        <ele>267.75290</ele>
        <time>2021-06-30T08:19:43Z</time>
      </trkpt>
      <trkpt lat="45.576729" lon="5.306264">
        <ele>267.05252</ele>
        <time>2021-06-30T08:19:44Z</time>
      </trkpt>
      <trkpt lat="45.577015" lon="5.305969">
        <ele>266.76401</ele>
        <time>2021-06-30T08:19:45Z</time>
      </trkpt>
      <trkpt lat="45.577320" lon="5.305687">
        <ele>266.24594</ele>
        <time>2021-06-30T08:19:46Z</time>
      </trkpt>
      <trkpt lat="45.577602" lon="5.305432">
        <ele>265.61252</ele>
        <time>2021-06-30T08:19:47Z</time>
      </trkpt>
      <trkpt lat="45.577923" lon="5.305180">
        <ele>264.94760</ele>
        <time>2021-06-30T08:19:48Z</time>
      </trkpt>
      <trkpt lat="45.578255" lon="5.304952">
        <ele>264.42758</ele>
        <time>2021-06-30T08:19:49Z</time>
      </trkpt>
      <trkpt lat="45.578571" lon="5.304747">
        <ele>264.45358</ele>
        <time>2021-06-30T08:19:50Z</time>
      </trkpt>
      <trkpt lat="45.578903" lon="5.304556">
        <ele>264.30551</ele>
        <time>2021-06-30T08:19:51Z</time>
      </trkpt>
      <trkpt lat="45.579247" lon="5.304382">
        <ele>264.42502</ele>
        <time>2021-06-30T08:19:52Z</time>
      </trkpt>
      <trkpt lat="45.579578" lon="5.304227">
        <ele>264.44119</ele>
        <time>2021-06-30T08:19:53Z</time>
      </trkpt>
      <trkpt lat="45.579922" lon="5.304087">
        <ele>263.55344</ele>
        <time>2021-06-30T08:19:54Z</time>
      </trkpt>
      <trkpt lat="45.580276" lon="5.303957">
        <ele>263.23715</ele>
        <time>2021-06-30T08:19:55Z</time>
      </trkpt>
      <trkpt lat="45.580616" lon="5.303846">
        <ele>262.97153</ele>
        <time>2021-06-30T08:19:56Z</time>
      </trkpt>
      <trkpt lat="45.580948" lon="5.303742">
        <ele>261.91269</ele>
        <time>2021-06-30T08:19:57Z</time>
      </trkpt>
      <trkpt lat="45.581215" lon="5.303663">
        <ele>261.92508</ele>
        <time>2021-06-30T08:19:58Z</time>
      </trkpt>
      <trkpt lat="45.581509" lon="5.303575">
        <ele>261.10593</ele>
        <time>2021-06-30T08:19:59Z</time>
      </trkpt>
      <trkpt lat="45.581581" lon="5.303553">
        <ele>260.64999</ele>
        <time>2021-06-30T08:20:00Z</time>
      </trkpt>
      <trkpt lat="45.581753" lon="5.303553">
        <ele>260.05228</ele>
        <time>2021-06-30T08:20:01Z</time>
      </trkpt>
      <trkpt lat="45.582275" lon="5.303508">
        <ele>260.06479</ele>
        <time>2021-06-30T08:20:02Z</time>
      </trkpt>
      <trkpt lat="45.582275" lon="5.303508">
        <ele>258.34531</ele>
        <time>2021-06-30T08:20:03Z</time>
      </trkpt>
      <trkpt lat="45.582550" lon="5.303463">
        <ele>258.75742</ele>
        <time>2021-06-30T08:20:04Z</time>
      </trkpt>
      <trkpt lat="45.582775" lon="5.303442">
        <ele>250.95992</ele>
        <time>2021-06-30T08:20:05Z</time>
      </trkpt>
      <trkpt lat="45.582951" lon="5.303462">
        <ele>250.07756</ele>
        <time>2021-06-30T08:20:06Z</time>
      </trkpt>
      <trkpt lat="45.583076" lon="5.303517">
        <ele>248.74062</ele>
        <time>2021-06-30T08:20:07Z</time>
      </trkpt>
      <trkpt lat="45.583160" lon="5.303591">
        <ele>248.65710</ele>
        <time>2021-06-30T08:20:08Z</time>
      </trkpt>
      <trkpt lat="45.583218" lon="5.303682">
        <ele>248.87820</ele>
        <time>2021-06-30T08:20:09Z</time>
      </trkpt>
      <trkpt lat="45.583271" lon="5.303812">
        <ele>249.17519</ele>
        <time>2021-06-30T08:20:10Z</time>
      </trkpt>
      <trkpt lat="45.583298" lon="5.304004">
        <ele>249.72926</ele>
        <time>2021-06-30T08:20:11Z</time>
      </trkpt>
      <trkpt lat="45.583298" lon="5.304164">
        <ele>249.92201</ele>
        <time>2021-06-30T08:20:12Z</time>
      </trkpt>
      <trkpt lat="45.583248" lon="5.304342">
        <ele>249.85783</ele>
        <time>2021-06-30T08:20:13Z</time>
      </trkpt>
      <trkpt lat="45.583179" lon="5.304466">
        <ele>251.18323</ele>
        <time>2021-06-30T08:20:14Z</time>
      </trkpt>
      <trkpt lat="45.583096" lon="5.304564">
        <ele>251.33208</ele>
        <time>2021-06-30T08:20:15Z</time>
      </trkpt>
      <trkpt lat="45.582962" lon="5.304650">
        <ele>251.63255</ele>
        <time>2021-06-30T08:20:16Z</time>
      </trkpt>
      <trkpt lat="45.582855" lon="5.304659">
        <ele>252.26967</ele>
        <time>2021-06-30T08:20:17Z</time>
      </trkpt>
      <trkpt lat="45.582710" lon="5.304622">
        <ele>252.71234</ele>
        <time>2021-06-30T08:20:18Z</time>
      </trkpt>
      <trkpt lat="45.582596" lon="5.304484">
        <ele>253.28792</ele>
        <time>2021-06-30T08:20:19Z</time>
      </trkpt>
      <trkpt lat="45.582516" lon="5.304345">
        <ele>254.14137</ele>
        <time>2021-06-30T08:20:20Z</time>
      </trkpt>
      <trkpt lat="45.582455" lon="5.304227">
        <ele>254.71265</ele>
        <time>2021-06-30T08:20:21Z</time>
      </trkpt>
      <trkpt lat="45.582397" lon="5.304069">
        <ele>255.05681</ele>
        <time>2021-06-30T08:20:22Z</time>
      </trkpt>
      <trkpt lat="45.582325" lon="5.303873">
        <ele>255.92241</ele>
        <time>2021-06-30T08:20:23Z</time>
      </trkpt>
      <trkpt lat="45.582272" lon="5.303687">
        <ele>256.49899</ele>
        <time>2021-06-30T08:20:24Z</time>
      </trkpt>
      <trkpt lat="45.582214" lon="5.303471">
        <ele>256.83936</ele>
        <time>2021-06-30T08:20:25Z</time>
      </trkpt>
      <trkpt lat="45.582157" lon="5.303233">
        <ele>257.00354</ele>
        <time>2021-06-30T08:20:26Z</time>
      </trkpt>
      <trkpt lat="45.582104" lon="5.302985">
        <ele>255.96629</ele>
        <time>2021-06-30T08:20:27Z</time>
      </trkpt>
      <trkpt lat="45.582073" lon="5.302811">
        <ele>255.17023</ele>
        <time>2021-06-30T08:20:28Z</time>
      </trkpt>
      <trkpt lat="45.582073" lon="5.302811">
        <ele>254.38097</ele>
        <time>2021-06-30T08:20:29Z</time>
      </trkpt>
      <trkpt lat="45.582047" lon="5.302643">
        <ele>253.16769</ele>
        <time>2021-06-30T08:20:30Z</time>
      </trkpt>
      <trkpt lat="45.582047" lon="5.302475">
        <ele>252.78627</ele>
        <time>2021-06-30T08:20:31Z</time>
      </trkpt>
      <trkpt lat="45.582047" lon="5.302320">
        <ele>252.25781</ele>
        <time>2021-06-30T08:20:32Z</time>
      </trkpt>
      <trkpt lat="45.582050" lon="5.302162">
        <ele>251.51775</ele>
        <time>2021-06-30T08:20:33Z</time>
      </trkpt>
      <trkpt lat="45.582066" lon="5.302015">
        <ele>250.75127</ele>
        <time>2021-06-30T08:20:34Z</time>
      </trkpt>
      <trkpt lat="45.582073" lon="5.301896">
        <ele>250.37111</ele>
        <time>2021-06-30T08:20:35Z</time>
      </trkpt>
      <trkpt lat="45.582085" lon="5.301784">
        <ele>249.84802</ele>
        <time>2021-06-30T08:20:36Z</time>
      </trkpt>
      <trkpt lat="45.582092" lon="5.301691">
        <ele>249.33513</ele>
        <time>2021-06-30T08:20:37Z</time>
      </trkpt>
      <trkpt lat="45.582104" lon="5.301605">
        <ele>249.11377</ele>
        <time>2021-06-30T08:20:38Z</time>
      </trkpt>
      <trkpt lat="45.582119" lon="5.301530">
        <ele>248.89023</ele>
        <time>2021-06-30T08:20:39Z</time>
      </trkpt>
      <trkpt lat="45.582130" lon="5.301482">
        <ele>248.57794</ele>
        <time>2021-06-30T08:20:40Z</time>
      </trkpt>
      <trkpt lat="45.582134" lon="5.301454">
        <ele>248.54773</ele>
        <time>2021-06-30T08:20:41Z</time>
      </trkpt>
      <trkpt lat="45.582142" lon="5.301416">
        <ele>248.41138</ele>
        <time>2021-06-30T08:20:42Z</time>
      </trkpt>
      <trkpt lat="45.582157" lon="5.301340">
        <ele>248.20673</ele>
        <time>2021-06-30T08:20:43Z</time>
      </trkpt>
      <trkpt lat="45.582176" lon="5.301280">
        <ele>248.25159</ele>
        <time>2021-06-30T08:20:44Z</time>
      </trkpt>
      <trkpt lat="45.582199" lon="5.301226">
        <ele>248.17758</ele>
        <time>2021-06-30T08:20:45Z</time>
      </trkpt>
      <trkpt lat="45.582230" lon="5.301149">
        <ele>248.71217</ele>
        <time>2021-06-30T08:20:46Z</time>
      </trkpt>
      <trkpt lat="45.582253" lon="5.301057">
        <ele>248.56737</ele>
        <time>2021-06-30T08:20:47Z</time>
      </trkpt>
      <trkpt lat="45.582275" lon="5.300880">
        <ele>248.51009</ele>
        <time>2021-06-30T08:20:48Z</time>
      </trkpt>
      <trkpt lat="45.582291" lon="5.300781">
        <ele>248.47704</ele>
        <time>2021-06-30T08:20:49Z</time>
      </trkpt>
      <trkpt lat="45.582294" lon="5.300747">
        <ele>248.42862</ele>
        <time>2021-06-30T08:20:50Z</time>
      </trkpt>
      <trkpt lat="45.582298" lon="5.300727">
        <ele>248.66454</ele>
        <time>2021-06-30T08:20:51Z</time>
      </trkpt>
      <trkpt lat="45.582298" lon="5.300725">
        <ele>249.04303</ele>
        <time>2021-06-30T08:20:52Z</time>
      </trkpt>
      <trkpt lat="45.582298" lon="5.300714">
        <ele>249.31076</ele>
        <time>2021-06-30T08:20:53Z</time>
      </trkpt>
      <trkpt lat="45.582298" lon="5.300714">
        <ele>249.59424</ele>
        <time>2021-06-30T08:20:54Z</time>
      </trkpt>
      <trkpt lat="45.582298" lon="5.300714">
        <ele>249.84908</ele>
        <time>2021-06-30T08:20:55Z</time>
      </trkpt>
      <trkpt lat="45.582298" lon="5.300714">
        <ele>250.11986</ele>
        <time>2021-06-30T08:20:56Z</time>
      </trkpt>
      <trkpt lat="45.582298" lon="5.300714">
        <ele>250.44226</ele>
        <time>2021-06-30T08:20:57Z</time>
      </trkpt>
      <trkpt lat="45.582298" lon="5.300714">
        <ele>250.65817</ele>
        <time>2021-06-30T08:20:58Z</time>
      </trkpt>
      <trkpt lat="45.582302" lon="5.300703">
        <ele>251.36310</ele>
        <time>2021-06-30T08:20:59Z</time>
      </trkpt>
      <trkpt lat="45.582321" lon="5.300558">
        <ele>251.51576</ele>
        <time>2021-06-30T08:21:00Z</time>
      </trkpt>
      <trkpt lat="45.582325" lon="5.300533">
        <ele>251.93350</ele>
        <time>2021-06-30T08:21:01Z</time>
      </trkpt>
      <trkpt lat="45.582348" lon="5.300356">
        <ele>251.52618</ele>
        <time>2021-06-30T08:21:02Z</time>
      </trkpt>
      <trkpt lat="45.582359" lon="5.300274">
        <ele>251.08809</ele>
        <time>2021-06-30T08:21:03Z</time>
      </trkpt>
      <trkpt lat="45.582363" lon="5.300248">
        <ele>250.96133</ele>
        <time>2021-06-30T08:21:04Z</time>
      </trkpt>
      <trkpt lat="45.582363" lon="5.300246">
        <ele>250.83777</ele>
        <time>2021-06-30T08:21:05Z</time>
      </trkpt>
      <trkpt lat="45.582367" lon="5.300232">
        <ele>250.83063</ele>
        <time>2021-06-30T08:21:06Z</time>
      </trkpt>
      <trkpt lat="45.582367" lon="5.300232">
        <ele>250.74405</ele>
        <time>2021-06-30T08:21:07Z</time>
      </trkpt>
      <trkpt lat="45.582371" lon="5.300209">
        <ele>250.81976</ele>
        <time>2021-06-30T08:21:08Z</time>
      </trkpt>
      <trkpt lat="45.582371" lon="5.300209">
        <ele>250.79674</ele>
        <time>2021-06-30T08:21:09Z</time>
      </trkpt>
      <trkpt lat="45.582371" lon="5.300209">
        <ele>250.88431</ele>
        <time>2021-06-30T08:21:10Z</time>
      </trkpt>
      <trkpt lat="45.582371" lon="5.300209">
        <ele>250.82759</ele>
        <time>2021-06-30T08:21:11Z</time>
      </trkpt>
      <trkpt lat="45.582371" lon="5.300209">
        <ele>250.81776</ele>
        <time>2021-06-30T08:21:12Z</time>
      </trkpt>
      <trkpt lat="45.582371" lon="5.300209">
        <ele>250.76111</ele>
        <time>2021-06-30T08:21:13Z</time>
      </trkpt>
      <trkpt lat="45.582371" lon="5.300209">
        <ele>250.74460</ele>
        <time>2021-06-30T08:21:14Z</time>
      </trkpt>
      <trkpt lat="45.582371" lon="5.300209">
        <ele>250.92337</ele>
        <time>2021-06-30T08:21:15Z</time>
      </trkpt>
      <trkpt lat="45.582371" lon="5.300209">
        <ele>251.12227</ele>
        <time>2021-06-30T08:21:16Z</time>
      </trkpt>
      <trkpt lat="45.582375" lon="5.300174">
        <ele>251.17964</ele>
        <time>2021-06-30T08:21:17Z</time>
      </trkpt>
      <trkpt lat="45.582394" lon="5.300019">
        <ele>251.18480</ele>
        <time>2021-06-30T08:21:18Z</time>
      </trkpt>
      <trkpt lat="45.582417" lon="5.299860">
        <ele>250.98599</ele>
        <time>2021-06-30T08:21:19Z</time>
      </trkpt>
      <trkpt lat="45.582424" lon="5.299789">
        <ele>250.69417</ele>
        <time>2021-06-30T08:21:20Z</time>
      </trkpt>
      <trkpt lat="45.582439" lon="5.299710">
        <ele>250.55243</ele>
        <time>2021-06-30T08:21:21Z</time>
      </trkpt>
      <trkpt lat="45.582443" lon="5.299681">
        <ele>250.48616</ele>
        <time>2021-06-30T08:21:22Z</time>
      </trkpt>
      <trkpt lat="45.582447" lon="5.299644">
        <ele>250.42253</ele>
        <time>2021-06-30T08:21:23Z</time>
      </trkpt>
      <trkpt lat="45.582455" lon="5.299598">
        <ele>250.41153</ele>
        <time>2021-06-30T08:21:24Z</time>
      </trkpt>
      <trkpt lat="45.582458" lon="5.299590">
        <ele>250.40665</ele>
        <time>2021-06-30T08:21:25Z</time>
      </trkpt>
      <trkpt lat="45.582458" lon="5.299590">
        <ele>250.48576</ele>
        <time>2021-06-30T08:21:26Z</time>
      </trkpt>
      <trkpt lat="45.582458" lon="5.299590">
        <ele>250.39603</ele>
        <time>2021-06-30T08:21:27Z</time>
      </trkpt>
      <trkpt lat="45.582458" lon="5.299590">
        <ele>250.32030</ele>
        <time>2021-06-30T08:21:28Z</time>
      </trkpt>
      <trkpt lat="45.582458" lon="5.299590">
        <ele>250.39217</ele>
        <time>2021-06-30T08:21:29Z</time>
      </trkpt>
      <trkpt lat="45.582458" lon="5.299590">
        <ele>250.37283</ele>
        <time>2021-06-30T08:21:30Z</time>
      </trkpt>
      <trkpt lat="45.582458" lon="5.299590">
        <ele>250.42207</ele>
        <time>2021-06-30T08:21:31Z</time>
      </trkpt>
      <trkpt lat="45.582458" lon="5.299590">
        <ele>250.40823</ele>
        <time>2021-06-30T08:21:32Z</time>
      </trkpt>
      <trkpt lat="45.582458" lon="5.299590">
        <ele>250.32080</ele>
        <time>2021-06-30T08:21:33Z</time>
      </trkpt>
      <trkpt lat="45.582458" lon="5.299590">
        <ele>249.94547</ele>
        <time>2021-06-30T08:21:34Z</time>
      </trkpt>
      <trkpt lat="45.582458" lon="5.299590">
        <ele>249.75385</ele>
        <time>2021-06-30T08:21:35Z</time>
      </trkpt>
      <trkpt lat="45.582458" lon="5.299590">
        <ele>249.62015</ele>
        <time>2021-06-30T08:21:36Z</time>
      </trkpt>
      <trkpt lat="45.582458" lon="5.299590">
        <ele>249.63014</ele>
        <time>2021-06-30T08:21:37Z</time>
      </trkpt>
      <trkpt lat="45.582458" lon="5.299590">
        <ele>249.60226</ele>
        <time>2021-06-30T08:21:38Z</time>
      </trkpt>
      <trkpt lat="45.582458" lon="5.299590">
        <ele>249.53160</ele>
        <time>2021-06-30T08:21:39Z</time>
      </trkpt>
      <trkpt lat="45.582458" lon="5.299590">
        <ele>249.38509</ele>
        <time>2021-06-30T08:21:40Z</time>
      </trkpt>
      <trkpt lat="45.582458" lon="5.299590">
        <ele>249.39175</ele>
        <time>2021-06-30T08:21:41Z</time>
      </trkpt>
      <trkpt lat="45.582458" lon="5.299590">
        <ele>249.45274</ele>
        <time>2021-06-30T08:21:42Z</time>
      </trkpt>
      <trkpt lat="45.582458" lon="5.299590">
        <ele>249.33827</ele>
        <time>2021-06-30T08:21:43Z</time>
      </trkpt>
      <trkpt lat="45.582458" lon="5.299590">
        <ele>249.39861</ele>
        <time>2021-06-30T08:21:44Z</time>
      </trkpt>
      <trkpt lat="45.582458" lon="5.299590">
        <ele>249.33047</ele>
        <time>2021-06-30T08:21:45Z</time>
      </trkpt>
      <trkpt lat="45.582458" lon="5.299590">
        <ele>249.38959</ele>
        <time>2021-06-30T08:21:46Z</time>
      </trkpt>
      <trkpt lat="45.582458" lon="5.299590">
        <ele>249.26628</ele>
        <time>2021-06-30T08:21:47Z</time>
      </trkpt>
      <trkpt lat="45.582458" lon="5.299590">
        <ele>249.28987</ele>
        <time>2021-06-30T08:21:48Z</time>
      </trkpt>
      <trkpt lat="45.582458" lon="5.299590">
        <ele>249.27823</ele>
        <time>2021-06-30T08:21:49Z</time>
      </trkpt>
      <trkpt lat="45.582458" lon="5.299590">
        <ele>249.27383</ele>
        <time>2021-06-30T08:21:50Z</time>
      </trkpt>
      <trkpt lat="45.582458" lon="5.299590">
        <ele>249.24236</ele>
        <time>2021-06-30T08:21:51Z</time>
      </trkpt>
      <trkpt lat="45.582458" lon="5.299590">
        <ele>249.25899</ele>
        <time>2021-06-30T08:21:52Z</time>
      </trkpt>
      <trkpt lat="45.582458" lon="5.299590">
        <ele>249.25386</ele>
        <time>2021-06-30T08:21:53Z</time>
      </trkpt>
      <trkpt lat="45.582458" lon="5.299590">
        <ele>249.24167</ele>
        <time>2021-06-30T08:21:54Z</time>
      </trkpt>
      <trkpt lat="45.582458" lon="5.299590">
        <ele>249.33578</ele>
        <time>2021-06-30T08:21:55Z</time>
      </trkpt>
      <trkpt lat="45.582458" lon="5.299590">
        <ele>249.30695</ele>
        <time>2021-06-30T08:21:56Z</time>
      </trkpt>
      <trkpt lat="45.582458" lon="5.299590">
        <ele>249.27924</ele>
        <time>2021-06-30T08:21:57Z</time>
      </trkpt>
      <trkpt lat="45.582458" lon="5.299590">
        <ele>249.21205</ele>
        <time>2021-06-30T08:21:58Z</time>
      </trkpt>
      <trkpt lat="45.582458" lon="5.299590">
        <ele>249.28545</ele>
        <time>2021-06-30T08:21:59Z</time>
      </trkpt>
      <trkpt lat="45.582458" lon="5.299590">
        <ele>249.21765</ele>
        <time>2021-06-30T08:22:00Z</time>
      </trkpt>
      <trkpt lat="45.582458" lon="5.299590">
        <ele>249.28571</ele>
        <time>2021-06-30T08:22:01Z</time>
      </trkpt>
      <trkpt lat="45.582458" lon="5.299590">
        <ele>249.29430</ele>
        <time>2021-06-30T08:22:02Z</time>
      </trkpt>
      <trkpt lat="45.582458" lon="5.299590">
        <ele>249.22371</ele>
        <time>2021-06-30T08:22:03Z</time>
      </trkpt>
      <trkpt lat="45.582458" lon="5.299590">
        <ele>249.26558</ele>
        <time>2021-06-30T08:22:04Z</time>
      </trkpt>
      <trkpt lat="45.582458" lon="5.299590">
        <ele>249.23970</ele>
        <time>2021-06-30T08:22:05Z</time>
      </trkpt>
      <trkpt lat="45.582458" lon="5.299590">
        <ele>249.26021</ele>
        <time>2021-06-30T08:22:06Z</time>
      </trkpt>
      <trkpt lat="45.582458" lon="5.299590">
        <ele>249.21915</ele>
        <time>2021-06-30T08:22:07Z</time>
      </trkpt>
      <trkpt lat="45.582458" lon="5.299590">
        <ele>249.26323</ele>
        <time>2021-06-30T08:22:08Z</time>
      </trkpt>
      <trkpt lat="45.582458" lon="5.299590">
        <ele>249.20653</ele>
        <time>2021-06-30T08:22:09Z</time>
      </trkpt>
      <trkpt lat="45.582458" lon="5.299590">
        <ele>249.23212</ele>
        <time>2021-06-30T08:22:10Z</time>
      </trkpt>
      <trkpt lat="45.582458" lon="5.299590">
        <ele>249.22278</ele>
        <time>2021-06-30T08:22:11Z</time>
      </trkpt>
      <trkpt lat="45.582458" lon="5.299590">
        <ele>249.21460</ele>
        <time>2021-06-30T08:22:12Z</time>
      </trkpt>
      <trkpt lat="45.582458" lon="5.299590">
        <ele>249.24471</ele>
        <time>2021-06-30T08:22:13Z</time>
      </trkpt>
      <trkpt lat="45.582458" lon="5.299590">
        <ele>249.21597</ele>
        <time>2021-06-30T08:22:14Z</time>
      </trkpt>
      <trkpt lat="45.582458" lon="5.299590">
        <ele>249.24693</ele>
        <time>2021-06-30T08:22:15Z</time>
      </trkpt>
      <trkpt lat="45.582458" lon="5.299590">
        <ele>249.24715</ele>
        <time>2021-06-30T08:22:16Z</time>
      </trkpt>
      <trkpt lat="45.582458" lon="5.299590">
        <ele>249.28094</ele>
        <time>2021-06-30T08:22:17Z</time>
      </trkpt>
      <trkpt lat="45.582458" lon="5.299590">
        <ele>249.24336</ele>
        <time>2021-06-30T08:22:18Z</time>
      </trkpt>
      <trkpt lat="45.582458" lon="5.299590">
        <ele>249.28484</ele>
        <time>2021-06-30T08:22:19Z</time>
      </trkpt>
      <trkpt lat="45.582458" lon="5.299590">
        <ele>249.27747</ele>
        <time>2021-06-30T08:22:20Z</time>
      </trkpt>
      <trkpt lat="45.582458" lon="5.299590">
        <ele>249.29269</ele>
        <time>2021-06-30T08:22:21Z</time>
      </trkpt>
      <trkpt lat="45.582458" lon="5.299590">
        <ele>249.29733</ele>
        <time>2021-06-30T08:22:22Z</time>
      </trkpt>
      <trkpt lat="45.582458" lon="5.299590">
        <ele>249.20862</ele>
        <time>2021-06-30T08:22:23Z</time>
      </trkpt>
      <trkpt lat="45.582458" lon="5.299590">
        <ele>249.22704</ele>
        <time>2021-06-30T08:22:24Z</time>
      </trkpt>
      <trkpt lat="45.582458" lon="5.299590">
        <ele>249.20741</ele>
        <time>2021-06-30T08:22:25Z</time>
      </trkpt>
      <trkpt lat="45.582458" lon="5.299590">
        <ele>249.23415</ele>
        <time>2021-06-30T08:22:26Z</time>
      </trkpt>
      <trkpt lat="45.582458" lon="5.299590">
        <ele>249.22069</ele>
        <time>2021-06-30T08:22:27Z</time>
      </trkpt>
      <trkpt lat="45.582458" lon="5.299590">
        <ele>249.28380</ele>
        <time>2021-06-30T08:22:28Z</time>
      </trkpt>
      <trkpt lat="45.582458" lon="5.299590">
        <ele>249.27487</ele>
        <time>2021-06-30T08:22:29Z</time>
      </trkpt>
      <trkpt lat="45.582458" lon="5.299590">
        <ele>249.28398</ele>
        <time>2021-06-30T08:22:30Z</time>
      </trkpt>
      <trkpt lat="45.582458" lon="5.299590">
        <ele>249.21553</ele>
        <time>2021-06-30T08:22:31Z</time>
      </trkpt>
      <trkpt lat="45.582458" lon="5.299590">
        <ele>249.27931</ele>
        <time>2021-06-30T08:22:32Z</time>
      </trkpt>
      <trkpt lat="45.582458" lon="5.299590">
        <ele>249.22777</ele>
        <time>2021-06-30T08:22:33Z</time>
      </trkpt>
      <trkpt lat="45.582458" lon="5.299590">
        <ele>249.21388</ele>
        <time>2021-06-30T08:22:34Z</time>
      </trkpt>
      <trkpt lat="45.582458" lon="5.299590">
        <ele>249.10167</ele>
        <time>2021-06-30T08:22:35Z</time>
      </trkpt>
      <trkpt lat="45.582458" lon="5.299590">
        <ele>249.28358</ele>
        <time>2021-06-30T08:22:36Z</time>
      </trkpt>
      <trkpt lat="45.582458" lon="5.299590">
        <ele>249.25204</ele>
        <time>2021-06-30T08:22:37Z</time>
      </trkpt>
      <trkpt lat="45.582458" lon="5.299590">
        <ele>249.31050</ele>
        <time>2021-06-30T08:22:38Z</time>
      </trkpt>
      <trkpt lat="45.582458" lon="5.299590">
        <ele>249.29935</ele>
        <time>2021-06-30T08:22:39Z</time>
      </trkpt>
      <trkpt lat="45.582458" lon="5.299590">
        <ele>249.23170</ele>
        <time>2021-06-30T08:22:40Z</time>
      </trkpt>
      <trkpt lat="45.582458" lon="5.299590">
        <ele>249.21675</ele>
        <time>2021-06-30T08:22:41Z</time>
      </trkpt>
      <trkpt lat="45.582458" lon="5.299590">
        <ele>249.22401</ele>
        <time>2021-06-30T08:22:42Z</time>
      </trkpt>
      <trkpt lat="45.582458" lon="5.299590">
        <ele>249.29128</ele>
        <time>2021-06-30T08:22:43Z</time>
      </trkpt>
      <trkpt lat="45.582458" lon="5.299590">
        <ele>249.25464</ele>
        <time>2021-06-30T08:22:44Z</time>
      </trkpt>
      <trkpt lat="45.582458" lon="5.299590">
        <ele>249.19785</ele>
        <time>2021-06-30T08:22:45Z</time>
      </trkpt>
      <trkpt lat="45.582458" lon="5.299590">
        <ele>249.26895</ele>
        <time>2021-06-30T08:22:46Z</time>
      </trkpt>
      <trkpt lat="45.582458" lon="5.299590">
        <ele>249.24548</ele>
        <time>2021-06-30T08:22:47Z</time>
      </trkpt>
      <trkpt lat="45.582458" lon="5.299590">
        <ele>249.20520</ele>
        <time>2021-06-30T08:22:48Z</time>
      </trkpt>
      <trkpt lat="45.582458" lon="5.299590">
        <ele>249.21994</ele>
        <time>2021-06-30T08:22:49Z</time>
      </trkpt>
      <trkpt lat="45.582458" lon="5.299590">
        <ele>249.22649</ele>
        <time>2021-06-30T08:22:50Z</time>
      </trkpt>
      <trkpt lat="45.582458" lon="5.299590">
        <ele>249.26283</ele>
        <time>2021-06-30T08:22:51Z</time>
      </trkpt>
      <trkpt lat="45.582458" lon="5.299590">
        <ele>249.21410</ele>
        <time>2021-06-30T08:22:52Z</time>
      </trkpt>
      <trkpt lat="45.582458" lon="5.299590">
        <ele>249.28099</ele>
        <time>2021-06-30T08:22:53Z</time>
      </trkpt>
      <trkpt lat="45.582458" lon="5.299590">
        <ele>249.27888</ele>
        <time>2021-06-30T08:22:54Z</time>
      </trkpt>
      <trkpt lat="45.582458" lon="5.299590">
        <ele>249.29242</ele>
        <time>2021-06-30T08:22:55Z</time>
      </trkpt>
      <trkpt lat="45.582458" lon="5.299590">
        <ele>249.28976</ele>
        <time>2021-06-30T08:22:56Z</time>
      </trkpt>
      <trkpt lat="45.582458" lon="5.299590">
        <ele>249.30040</ele>
        <time>2021-06-30T08:22:57Z</time>
      </trkpt>
      <trkpt lat="45.582458" lon="5.299590">
        <ele>249.28532</ele>
        <time>2021-06-30T08:22:58Z</time>
      </trkpt>
      <trkpt lat="45.582458" lon="5.299590">
        <ele>249.20789</ele>
        <time>2021-06-30T08:22:59Z</time>
      </trkpt>
      <trkpt lat="45.582458" lon="5.299590">
        <ele>249.29677</ele>
        <time>2021-06-30T08:23:00Z</time>
      </trkpt>
      <trkpt lat="45.582458" lon="5.299590">
        <ele>249.28726</ele>
        <time>2021-06-30T08:23:01Z</time>
      </trkpt>
      <trkpt lat="45.582458" lon="5.299590">
        <ele>249.30394</ele>
        <time>2021-06-30T08:23:02Z</time>
      </trkpt>
      <trkpt lat="45.582458" lon="5.299590">
        <ele>249.34453</ele>
        <time>2021-06-30T08:23:03Z</time>
      </trkpt>
      <trkpt lat="45.582458" lon="5.299590">
        <ele>249.31392</ele>
        <time>2021-06-30T08:23:04Z</time>
      </trkpt>
      <trkpt lat="45.582458" lon="5.299590">
        <ele>249.36671</ele>
        <time>2021-06-30T08:23:05Z</time>
      </trkpt>
      <trkpt lat="45.582458" lon="5.299590">
        <ele>249.34750</ele>
        <time>2021-06-30T08:23:06Z</time>
      </trkpt>
      <trkpt lat="45.582458" lon="5.299590">
        <ele>249.23923</ele>
        <time>2021-06-30T08:23:07Z</time>
      </trkpt>
      <trkpt lat="45.582458" lon="5.299590">
        <ele>249.35287</ele>
        <time>2021-06-30T08:23:08Z</time>
      </trkpt>
      <trkpt lat="45.582458" lon="5.299590">
        <ele>249.30194</ele>
        <time>2021-06-30T08:23:09Z</time>
      </trkpt>
      <trkpt lat="45.582458" lon="5.299590">
        <ele>249.33995</ele>
        <time>2021-06-30T08:23:10Z</time>
      </trkpt>
      <trkpt lat="45.582458" lon="5.299590">
        <ele>249.21492</ele>
        <time>2021-06-30T08:23:11Z</time>
      </trkpt>
      <trkpt lat="45.582458" lon="5.299590">
        <ele>249.20137</ele>
        <time>2021-06-30T08:23:12Z</time>
      </trkpt>
      <trkpt lat="45.582458" lon="5.299590">
        <ele>249.22958</ele>
        <time>2021-06-30T08:23:13Z</time>
      </trkpt>
      <trkpt lat="45.582458" lon="5.299590">
        <ele>249.28793</ele>
        <time>2021-06-30T08:23:14Z</time>
      </trkpt>
      <trkpt lat="45.582458" lon="5.299590">
        <ele>249.20886</ele>
        <time>2021-06-30T08:23:15Z</time>
      </trkpt>
      <trkpt lat="45.582458" lon="5.299590">
        <ele>249.23351</ele>
        <time>2021-06-30T08:23:16Z</time>
      </trkpt>
      <trkpt lat="45.582458" lon="5.299590">
        <ele>249.20319</ele>
        <time>2021-06-30T08:23:17Z</time>
      </trkpt>
      <trkpt lat="45.582458" lon="5.299590">
        <ele>249.13327</ele>
        <time>2021-06-30T08:23:18Z</time>
      </trkpt>
      <trkpt lat="45.582458" lon="5.299590">
        <ele>249.21414</ele>
        <time>2021-06-30T08:23:19Z</time>
      </trkpt>
      <trkpt lat="45.582458" lon="5.299590">
        <ele>249.16476</ele>
        <time>2021-06-30T08:23:20Z</time>
      </trkpt>
      <trkpt lat="45.582458" lon="5.299590">
        <ele>249.22511</ele>
        <time>2021-06-30T08:23:21Z</time>
      </trkpt>
      <trkpt lat="45.582458" lon="5.299590">
        <ele>249.25809</ele>
        <time>2021-06-30T08:23:22Z</time>
      </trkpt>
      <trkpt lat="45.582458" lon="5.299590">
        <ele>249.34726</ele>
        <time>2021-06-30T08:23:23Z</time>
      </trkpt>
      <trkpt lat="45.582458" lon="5.299590">
        <ele>249.36790</ele>
        <time>2021-06-30T08:23:24Z</time>
      </trkpt>
      <trkpt lat="45.582458" lon="5.299590">
        <ele>249.46745</ele>
        <time>2021-06-30T08:23:25Z</time>
      </trkpt>
      <trkpt lat="45.582458" lon="5.299590">
        <ele>249.44069</ele>
        <time>2021-06-30T08:23:26Z</time>
      </trkpt>
      <trkpt lat="45.582458" lon="5.299590">
        <ele>249.44553</ele>
        <time>2021-06-30T08:23:27Z</time>
      </trkpt>
      <trkpt lat="45.582458" lon="5.299590">
        <ele>249.38747</ele>
        <time>2021-06-30T08:23:28Z</time>
      </trkpt>
      <trkpt lat="45.582458" lon="5.299590">
        <ele>249.47400</ele>
        <time>2021-06-30T08:23:29Z</time>
      </trkpt>
      <trkpt lat="45.582458" lon="5.299590">
        <ele>249.45399</ele>
        <time>2021-06-30T08:23:30Z</time>
      </trkpt>
      <trkpt lat="45.582458" lon="5.299590">
        <ele>249.49393</ele>
        <time>2021-06-30T08:23:31Z</time>
      </trkpt>
      <trkpt lat="45.582458" lon="5.299590">
        <ele>249.43590</ele>
        <time>2021-06-30T08:23:32Z</time>
      </trkpt>
      <trkpt lat="45.582458" lon="5.299590">
        <ele>249.48178</ele>
        <time>2021-06-30T08:23:33Z</time>
      </trkpt>
      <trkpt lat="45.582458" lon="5.299590">
        <ele>249.48924</ele>
        <time>2021-06-30T08:23:34Z</time>
      </trkpt>
      <trkpt lat="45.582458" lon="5.299590">
        <ele>249.43806</ele>
        <time>2021-06-30T08:23:35Z</time>
      </trkpt>
      <trkpt lat="45.582458" lon="5.299590">
        <ele>249.37610</ele>
        <time>2021-06-30T08:23:36Z</time>
      </trkpt>
      <trkpt lat="45.582458" lon="5.299590">
        <ele>249.46112</ele>
        <time>2021-06-30T08:23:37Z</time>
      </trkpt>
      <trkpt lat="45.582458" lon="5.299590">
        <ele>249.38225</ele>
        <time>2021-06-30T08:23:38Z</time>
      </trkpt>
      <trkpt lat="45.582458" lon="5.299590">
        <ele>249.41783</ele>
        <time>2021-06-30T08:23:39Z</time>
      </trkpt>
      <trkpt lat="45.582458" lon="5.299590">
        <ele>249.37859</ele>
        <time>2021-06-30T08:23:40Z</time>
      </trkpt>
      <trkpt lat="45.582458" lon="5.299590">
        <ele>249.37024</ele>
        <time>2021-06-30T08:23:41Z</time>
      </trkpt>
      <trkpt lat="45.582458" lon="5.299590">
        <ele>249.38428</ele>
        <time>2021-06-30T08:23:42Z</time>
      </trkpt>
      <trkpt lat="45.582458" lon="5.299590">
        <ele>249.37022</ele>
        <time>2021-06-30T08:23:43Z</time>
      </trkpt>
      <trkpt lat="45.582458" lon="5.299590">
        <ele>249.45058</ele>
        <time>2021-06-30T08:23:44Z</time>
      </trkpt>
      <trkpt lat="45.582458" lon="5.299590">
        <ele>249.46201</ele>
        <time>2021-06-30T08:23:45Z</time>
      </trkpt>
      <trkpt lat="45.582458" lon="5.299590">
        <ele>249.44308</ele>
        <time>2021-06-30T08:23:46Z</time>
      </trkpt>
      <trkpt lat="45.582458" lon="5.299590">
        <ele>249.48198</ele>
        <time>2021-06-30T08:23:47Z</time>
      </trkpt>
      <trkpt lat="45.582458" lon="5.299590">
        <ele>249.47261</ele>
        <time>2021-06-30T08:23:48Z</time>
      </trkpt>
      <trkpt lat="45.582458" lon="5.299590">
        <ele>249.46046</ele>
        <time>2021-06-30T08:23:49Z</time>
      </trkpt>
      <trkpt lat="45.582458" lon="5.299590">
        <ele>249.35704</ele>
        <time>2021-06-30T08:23:50Z</time>
      </trkpt>
      <trkpt lat="45.582458" lon="5.299590">
        <ele>249.48141</ele>
        <time>2021-06-30T08:23:51Z</time>
      </trkpt>
      <trkpt lat="45.582458" lon="5.299590">
        <ele>249.39111</ele>
        <time>2021-06-30T08:23:52Z</time>
      </trkpt>
      <trkpt lat="45.582458" lon="5.299590">
        <ele>249.45842</ele>
        <time>2021-06-30T08:23:53Z</time>
      </trkpt>
      <trkpt lat="45.582458" lon="5.299590">
        <ele>246.78770</ele>
        <time>2021-06-30T08:23:54Z</time>
      </trkpt>
      <trkpt lat="45.582458" lon="5.299590">
        <ele>245.84001</ele>
        <time>2021-06-30T08:23:55Z</time>
      </trkpt>
      <trkpt lat="45.582458" lon="5.299590">
        <ele>245.45116</ele>
        <time>2021-06-30T08:23:56Z</time>
      </trkpt>
      <trkpt lat="45.582458" lon="5.299590">
        <ele>247.15390</ele>
        <time>2021-06-30T08:23:57Z</time>
      </trkpt>
      <trkpt lat="45.582458" lon="5.299590">
        <ele>245.84277</ele>
        <time>2021-06-30T08:23:58Z</time>
      </trkpt>
      <trkpt lat="45.582458" lon="5.299590">
        <ele>245.51534</ele>
        <time>2021-06-30T08:23:59Z</time>
      </trkpt>
      <trkpt lat="45.582458" lon="5.299567">
        <ele>245.31831</ele>
        <time>2021-06-30T08:24:00Z</time>
      </trkpt>
      <trkpt lat="45.582470" lon="5.299512">
        <ele>245.13298</ele>
        <time>2021-06-30T08:24:01Z</time>
      </trkpt>
      <trkpt lat="45.582478" lon="5.299447">
        <ele>245.32787</ele>
        <time>2021-06-30T08:24:02Z</time>
      </trkpt>
      <trkpt lat="45.582489" lon="5.299380">
        <ele>245.16966</ele>
        <time>2021-06-30T08:24:03Z</time>
      </trkpt>
      <trkpt lat="45.582523" lon="5.299249">
        <ele>246.04742</ele>
        <time>2021-06-30T08:24:04Z</time>
      </trkpt>
      <trkpt lat="45.582603" lon="5.299133">
        <ele>249.28748</ele>
        <time>2021-06-30T08:24:05Z</time>
      </trkpt>
      <trkpt lat="45.582615" lon="5.299049">
        <ele>250.51930</ele>
        <time>2021-06-30T08:24:06Z</time>
      </trkpt>
      <trkpt lat="45.582600" lon="5.298978">
        <ele>250.75034</ele>
        <time>2021-06-30T08:24:07Z</time>
      </trkpt>
      <trkpt lat="45.582546" lon="5.298909">
        <ele>250.82959</ele>
        <time>2021-06-30T08:24:08Z</time>
      </trkpt>
      <trkpt lat="45.582493" lon="5.298894">
        <ele>250.82199</ele>
        <time>2021-06-30T08:24:09Z</time>
      </trkpt>
      <trkpt lat="45.582439" lon="5.298908">
        <ele>250.97696</ele>
        <time>2021-06-30T08:24:10Z</time>
      </trkpt>
      <trkpt lat="45.582390" lon="5.298961">
        <ele>250.84879</ele>
        <time>2021-06-30T08:24:11Z</time>
      </trkpt>
      <trkpt lat="45.582367" lon="5.299045">
        <ele>251.13464</ele>
        <time>2021-06-30T08:24:12Z</time>
      </trkpt>
      <trkpt lat="45.582390" lon="5.299163">
        <ele>251.23639</ele>
        <time>2021-06-30T08:24:13Z</time>
      </trkpt>
      <trkpt lat="45.582405" lon="5.299273">
        <ele>251.64163</ele>
        <time>2021-06-30T08:24:14Z</time>
      </trkpt>
      <trkpt lat="45.582371" lon="5.299454">
        <ele>252.02299</ele>
        <time>2021-06-30T08:24:15Z</time>
      </trkpt>
      <trkpt lat="45.582336" lon="5.299623">
        <ele>252.30907</ele>
        <time>2021-06-30T08:24:16Z</time>
      </trkpt>
      <trkpt lat="45.582317" lon="5.299708">
        <ele>252.37563</ele>
        <time>2021-06-30T08:24:17Z</time>
      </trkpt>
      <trkpt lat="45.582302" lon="5.299782">
        <ele>252.68695</ele>
        <time>2021-06-30T08:24:18Z</time>
      </trkpt>
      <trkpt lat="45.582283" lon="5.299858">
        <ele>252.95747</ele>
        <time>2021-06-30T08:24:19Z</time>
      </trkpt>
      <trkpt lat="45.582272" lon="5.299928">
        <ele>253.24855</ele>
        <time>2021-06-30T08:24:20Z</time>
      </trkpt>
      <trkpt lat="45.582260" lon="5.299999">
        <ele>253.36591</ele>
        <time>2021-06-30T08:24:21Z</time>
      </trkpt>
      <trkpt lat="45.582249" lon="5.300060">
        <ele>253.71048</ele>
        <time>2021-06-30T08:24:22Z</time>
      </trkpt>
      <trkpt lat="45.582237" lon="5.300125">
        <ele>253.99495</ele>
        <time>2021-06-30T08:24:23Z</time>
      </trkpt>
      <trkpt lat="45.582226" lon="5.300179">
        <ele>254.08620</ele>
        <time>2021-06-30T08:24:24Z</time>
      </trkpt>
      <trkpt lat="45.582222" lon="5.300211">
        <ele>254.26019</ele>
        <time>2021-06-30T08:24:25Z</time>
      </trkpt>
      <trkpt lat="45.582218" lon="5.300219">
        <ele>254.26534</ele>
        <time>2021-06-30T08:24:26Z</time>
      </trkpt>
      <trkpt lat="45.582214" lon="5.300249">
        <ele>254.24858</ele>
        <time>2021-06-30T08:24:27Z</time>
      </trkpt>
      <trkpt lat="45.582214" lon="5.300254">
        <ele>254.24879</ele>
        <time>2021-06-30T08:24:28Z</time>
      </trkpt>
      <trkpt lat="45.582211" lon="5.300266">
        <ele>254.30988</ele>
        <time>2021-06-30T08:24:29Z</time>
      </trkpt>
      <trkpt lat="45.582211" lon="5.300274">
        <ele>254.41827</ele>
        <time>2021-06-30T08:24:30Z</time>
      </trkpt>
      <trkpt lat="45.582199" lon="5.300348">
        <ele>254.38037</ele>
        <time>2021-06-30T08:24:31Z</time>
      </trkpt>
      <trkpt lat="45.582188" lon="5.300432">
        <ele>254.34865</ele>
        <time>2021-06-30T08:24:32Z</time>
      </trkpt>
      <trkpt lat="45.582184" lon="5.300467">
        <ele>254.28560</ele>
        <time>2021-06-30T08:24:33Z</time>
      </trkpt>
      <trkpt lat="45.582180" lon="5.300536">
        <ele>254.25417</ele>
        <time>2021-06-30T08:24:34Z</time>
      </trkpt>
      <trkpt lat="45.582176" lon="5.300581">
        <ele>254.11360</ele>
        <time>2021-06-30T08:24:35Z</time>
      </trkpt>
      <trkpt lat="45.582176" lon="5.300626">
        <ele>254.19443</ele>
        <time>2021-06-30T08:24:36Z</time>
      </trkpt>
      <trkpt lat="45.582172" lon="5.300690">
        <ele>254.19702</ele>
        <time>2021-06-30T08:24:37Z</time>
      </trkpt>
      <trkpt lat="45.582169" lon="5.300785">
        <ele>254.34106</ele>
        <time>2021-06-30T08:24:38Z</time>
      </trkpt>
      <trkpt lat="45.582169" lon="5.300785">
        <ele>254.35175</ele>
        <time>2021-06-30T08:24:39Z</time>
      </trkpt>
      <trkpt lat="45.582165" lon="5.300887">
        <ele>254.54982</ele>
        <time>2021-06-30T08:24:40Z</time>
      </trkpt>
      <trkpt lat="45.582161" lon="5.300980">
        <ele>254.61177</ele>
        <time>2021-06-30T08:24:41Z</time>
      </trkpt>
      <trkpt lat="45.582150" lon="5.301077">
        <ele>254.82185</ele>
        <time>2021-06-30T08:24:42Z</time>
      </trkpt>
      <trkpt lat="45.582142" lon="5.301175">
        <ele>255.36189</ele>
        <time>2021-06-30T08:24:43Z</time>
      </trkpt>
      <trkpt lat="45.582142" lon="5.301195">
        <ele>255.85764</ele>
        <time>2021-06-30T08:24:44Z</time>
      </trkpt>
      <trkpt lat="45.582092" lon="5.301301">
        <ele>256.34610</ele>
        <time>2021-06-30T08:24:45Z</time>
      </trkpt>
      <trkpt lat="45.582035" lon="5.301542">
        <ele>257.14853</ele>
        <time>2021-06-30T08:24:46Z</time>
      </trkpt>
      <trkpt lat="45.582001" lon="5.301702">
        <ele>257.72208</ele>
        <time>2021-06-30T08:24:47Z</time>
      </trkpt>
      <trkpt lat="45.581955" lon="5.301899">
        <ele>258.33072</ele>
        <time>2021-06-30T08:24:48Z</time>
      </trkpt>
      <trkpt lat="45.581905" lon="5.302108">
        <ele>258.58972</ele>
        <time>2021-06-30T08:24:49Z</time>
      </trkpt>
      <trkpt lat="45.581856" lon="5.302303">
        <ele>258.54608</ele>
        <time>2021-06-30T08:24:50Z</time>
      </trkpt>
      <trkpt lat="45.581814" lon="5.302461">
        <ele>258.55746</ele>
        <time>2021-06-30T08:24:51Z</time>
      </trkpt>
      <trkpt lat="45.581753" lon="5.302614">
        <ele>258.34454</ele>
        <time>2021-06-30T08:24:52Z</time>
      </trkpt>
      <trkpt lat="45.581684" lon="5.302774">
        <ele>259.43146</ele>
        <time>2021-06-30T08:24:53Z</time>
      </trkpt>
      <trkpt lat="45.581577" lon="5.302956">
        <ele>259.22040</ele>
        <time>2021-06-30T08:24:54Z</time>
      </trkpt>
      <trkpt lat="45.581451" lon="5.303116">
        <ele>258.86975</ele>
        <time>2021-06-30T08:24:55Z</time>
      </trkpt>
      <trkpt lat="45.581303" lon="5.303232">
        <ele>259.01730</ele>
        <time>2021-06-30T08:24:56Z</time>
      </trkpt>
      <trkpt lat="45.581112" lon="5.303333">
        <ele>259.13480</ele>
        <time>2021-06-30T08:24:57Z</time>
      </trkpt>
      <trkpt lat="45.580875" lon="5.303443">
        <ele>259.54868</ele>
        <time>2021-06-30T08:24:58Z</time>
      </trkpt>
      <trkpt lat="45.580673" lon="5.303535">
        <ele>259.85422</ele>
        <time>2021-06-30T08:24:59Z</time>
      </trkpt>
      <trkpt lat="45.580421" lon="5.303661">
        <ele>260.10617</ele>
        <time>2021-06-30T08:25:00Z</time>
      </trkpt>
      <trkpt lat="45.580269" lon="5.303763">
        <ele>260.30362</ele>
        <time>2021-06-30T08:25:01Z</time>
      </trkpt>
      <trkpt lat="45.580044" lon="5.303875">
        <ele>260.61069</ele>
        <time>2021-06-30T08:25:02Z</time>
      </trkpt>
      <trkpt lat="45.579819" lon="5.303965">
        <ele>260.79813</ele>
        <time>2021-06-30T08:25:03Z</time>
      </trkpt>
      <trkpt lat="45.579586" lon="5.304056">
        <ele>261.18015</ele>
        <time>2021-06-30T08:25:04Z</time>
      </trkpt>
      <trkpt lat="45.579365" lon="5.304159">
        <ele>261.20395</ele>
        <time>2021-06-30T08:25:05Z</time>
      </trkpt>
      <trkpt lat="45.579144" lon="5.304263">
        <ele>261.83670</ele>
        <time>2021-06-30T08:25:06Z</time>
      </trkpt>
      <trkpt lat="45.578896" lon="5.304379">
        <ele>261.78964</ele>
        <time>2021-06-30T08:25:07Z</time>
      </trkpt>
      <trkpt lat="45.578671" lon="5.304502">
        <ele>262.18106</ele>
        <time>2021-06-30T08:25:08Z</time>
      </trkpt>
      <trkpt lat="45.578438" lon="5.304642">
        <ele>262.26584</ele>
        <time>2021-06-30T08:25:09Z</time>
      </trkpt>
      <trkpt lat="45.578205" lon="5.304783">
        <ele>262.95615</ele>
        <time>2021-06-30T08:25:10Z</time>
      </trkpt>
      <trkpt lat="45.577969" lon="5.304952">
        <ele>263.12851</ele>
        <time>2021-06-30T08:25:11Z</time>
      </trkpt>
      <trkpt lat="45.577736" lon="5.305128">
        <ele>263.38870</ele>
        <time>2021-06-30T08:25:12Z</time>
      </trkpt>
      <trkpt lat="45.577736" lon="5.305128">
        <ele>263.08597</ele>
        <time>2021-06-30T08:25:13Z</time>
      </trkpt>
      <trkpt lat="45.577515" lon="5.305297">
        <ele>263.19547</ele>
        <time>2021-06-30T08:25:14Z</time>
      </trkpt>
      <trkpt lat="45.577301" lon="5.305484">
        <ele>263.65799</ele>
        <time>2021-06-30T08:25:15Z</time>
      </trkpt>
      <trkpt lat="45.577095" lon="5.305667">
        <ele>264.16342</ele>
        <time>2021-06-30T08:25:16Z</time>
      </trkpt>
      <trkpt lat="45.576885" lon="5.305860">
        <ele>264.01718</ele>
        <time>2021-06-30T08:25:17Z</time>
      </trkpt>
      <trkpt lat="45.576694" lon="5.306056">
        <ele>264.37253</ele>
        <time>2021-06-30T08:25:18Z</time>
      </trkpt>
      <trkpt lat="45.576496" lon="5.306280">
        <ele>264.79391</ele>
        <time>2021-06-30T08:25:19Z</time>
      </trkpt>
      <trkpt lat="45.576279" lon="5.306527">
        <ele>264.88693</ele>
        <time>2021-06-30T08:25:20Z</time>
      </trkpt>
      <trkpt lat="45.576073" lon="5.306764">
        <ele>265.02609</ele>
        <time>2021-06-30T08:25:21Z</time>
      </trkpt>
      <trkpt lat="45.575871" lon="5.307029">
        <ele>265.86630</ele>
        <time>2021-06-30T08:25:22Z</time>
      </trkpt>
      <trkpt lat="45.575668" lon="5.307303">
        <ele>265.96738</ele>
        <time>2021-06-30T08:25:23Z</time>
      </trkpt>
      <trkpt lat="45.575481" lon="5.307580">
        <ele>265.84665</ele>
        <time>2021-06-30T08:25:24Z</time>
      </trkpt>
      <trkpt lat="45.575294" lon="5.307872">
        <ele>266.08395</ele>
        <time>2021-06-30T08:25:25Z</time>
      </trkpt>
      <trkpt lat="45.575111" lon="5.308166">
        <ele>266.12070</ele>
        <time>2021-06-30T08:25:26Z</time>
      </trkpt>
      <trkpt lat="45.574932" lon="5.308477">
        <ele>266.41544</ele>
        <time>2021-06-30T08:25:27Z</time>
      </trkpt>
      <trkpt lat="45.574757" lon="5.308807">
        <ele>266.78592</ele>
        <time>2021-06-30T08:25:28Z</time>
      </trkpt>
      <trkpt lat="45.574596" lon="5.309119">
        <ele>266.73270</ele>
        <time>2021-06-30T08:25:29Z</time>
      </trkpt>
      <trkpt lat="45.574448" lon="5.309443">
        <ele>266.82169</ele>
        <time>2021-06-30T08:25:30Z</time>
      </trkpt>
      <trkpt lat="45.574299" lon="5.309773">
        <ele>266.54330</ele>
        <time>2021-06-30T08:25:31Z</time>
      </trkpt>
      <trkpt lat="45.574162" lon="5.310083">
        <ele>266.71756</ele>
        <time>2021-06-30T08:25:32Z</time>
      </trkpt>
      <trkpt lat="45.574036" lon="5.310393">
        <ele>266.77383</ele>
        <time>2021-06-30T08:25:33Z</time>
      </trkpt>
      <trkpt lat="45.573914" lon="5.310705">
        <ele>266.79941</ele>
        <time>2021-06-30T08:25:34Z</time>
      </trkpt>
      <trkpt lat="45.573795" lon="5.311039">
        <ele>266.77707</ele>
        <time>2021-06-30T08:25:35Z</time>
      </trkpt>
      <trkpt lat="45.573669" lon="5.311389">
        <ele>266.82394</ele>
        <time>2021-06-30T08:25:36Z</time>
      </trkpt>
      <trkpt lat="45.573540" lon="5.311756">
        <ele>267.01303</ele>
        <time>2021-06-30T08:25:37Z</time>
      </trkpt>
      <trkpt lat="45.573418" lon="5.312109">
        <ele>267.25119</ele>
        <time>2021-06-30T08:25:38Z</time>
      </trkpt>
      <trkpt lat="45.573299" lon="5.312489">
        <ele>267.22525</ele>
        <time>2021-06-30T08:25:39Z</time>
      </trkpt>
      <trkpt lat="45.573174" lon="5.312886">
        <ele>267.23935</ele>
        <time>2021-06-30T08:25:40Z</time>
      </trkpt>
      <trkpt lat="45.573063" lon="5.313271">
        <ele>267.45413</ele>
        <time>2021-06-30T08:25:41Z</time>
      </trkpt>
      <trkpt lat="45.572948" lon="5.313671">
        <ele>267.65341</ele>
        <time>2021-06-30T08:25:42Z</time>
      </trkpt>
      <trkpt lat="45.572838" lon="5.314070">
        <ele>267.61069</ele>
        <time>2021-06-30T08:25:43Z</time>
      </trkpt>
      <trkpt lat="45.572735" lon="5.314474">
        <ele>267.40939</ele>
        <time>2021-06-30T08:25:44Z</time>
      </trkpt>
      <trkpt lat="45.572632" lon="5.314881">
        <ele>267.66287</ele>
        <time>2021-06-30T08:25:45Z</time>
      </trkpt>
      <trkpt lat="45.572533" lon="5.315312">
        <ele>267.80771</ele>
        <time>2021-06-30T08:25:46Z</time>
      </trkpt>
      <trkpt lat="45.572441" lon="5.315721">
        <ele>267.53616</ele>
        <time>2021-06-30T08:25:47Z</time>
      </trkpt>
      <trkpt lat="45.572357" lon="5.316146">
        <ele>267.40256</ele>
        <time>2021-06-30T08:25:48Z</time>
      </trkpt>
      <trkpt lat="45.572285" lon="5.316578">
        <ele>267.84012</ele>
        <time>2021-06-30T08:25:49Z</time>
      </trkpt>
      <trkpt lat="45.572208" lon="5.317011">
        <ele>268.13144</ele>
        <time>2021-06-30T08:25:50Z</time>
      </trkpt>
      <trkpt lat="45.572208" lon="5.317011">
        <ele>268.86496</ele>
        <time>2021-06-30T08:25:51Z</time>
      </trkpt>
      <trkpt lat="45.572132" lon="5.317462">
        <ele>269.45071</ele>
        <time>2021-06-30T08:25:52Z</time>
      </trkpt>
      <trkpt lat="45.572075" lon="5.317878">
        <ele>269.90536</ele>
        <time>2021-06-30T08:25:53Z</time>
      </trkpt>
      <trkpt lat="45.572021" lon="5.318272">
        <ele>270.13632</ele>
        <time>2021-06-30T08:25:54Z</time>
      </trkpt>
      <trkpt lat="45.571980" lon="5.318681">
        <ele>270.18033</ele>
        <time>2021-06-30T08:25:55Z</time>
      </trkpt>
      <trkpt lat="45.571938" lon="5.319089">
        <ele>270.69894</ele>
        <time>2021-06-30T08:25:56Z</time>
      </trkpt>
      <trkpt lat="45.571899" lon="5.319496">
        <ele>271.07077</ele>
        <time>2021-06-30T08:25:57Z</time>
      </trkpt>
      <trkpt lat="45.571865" lon="5.319933">
        <ele>271.55447</ele>
        <time>2021-06-30T08:25:58Z</time>
      </trkpt>
      <trkpt lat="45.571831" lon="5.320379">
        <ele>271.67477</ele>
        <time>2021-06-30T08:25:59Z</time>
      </trkpt>
      <trkpt lat="45.571800" lon="5.320836">
        <ele>272.02890</ele>
        <time>2021-06-30T08:26:00Z</time>
      </trkpt>
      <trkpt lat="45.571777" lon="5.321285">
        <ele>272.56943</ele>
        <time>2021-06-30T08:26:01Z</time>
      </trkpt>
      <trkpt lat="45.571758" lon="5.321728">
        <ele>272.69058</ele>
        <time>2021-06-30T08:26:02Z</time>
      </trkpt>
      <trkpt lat="45.571747" lon="5.322154">
        <ele>272.76352</ele>
        <time>2021-06-30T08:26:03Z</time>
      </trkpt>
      <trkpt lat="45.571739" lon="5.322610">
        <ele>272.75699</ele>
        <time>2021-06-30T08:26:04Z</time>
      </trkpt>
      <trkpt lat="45.571735" lon="5.323050">
        <ele>273.04343</ele>
        <time>2021-06-30T08:26:05Z</time>
      </trkpt>
      <trkpt lat="45.571732" lon="5.323473">
        <ele>272.98325</ele>
        <time>2021-06-30T08:26:06Z</time>
      </trkpt>
      <trkpt lat="45.571728" lon="5.323920">
        <ele>273.05960</ele>
        <time>2021-06-30T08:26:07Z</time>
      </trkpt>
      <trkpt lat="45.571724" lon="5.324395">
        <ele>273.59482</ele>
        <time>2021-06-30T08:26:08Z</time>
      </trkpt>
      <trkpt lat="45.571724" lon="5.324847">
        <ele>273.85226</ele>
        <time>2021-06-30T08:26:09Z</time>
      </trkpt>
      <trkpt lat="45.571720" lon="5.325250">
        <ele>274.56180</ele>
        <time>2021-06-30T08:26:10Z</time>
      </trkpt>
      <trkpt lat="45.571720" lon="5.325645">
        <ele>274.92294</ele>
        <time>2021-06-30T08:26:11Z</time>
      </trkpt>
      <trkpt lat="45.571716" lon="5.326071">
        <ele>274.76840</ele>
        <time>2021-06-30T08:26:12Z</time>
      </trkpt>
      <trkpt lat="45.571716" lon="5.326489">
        <ele>275.33481</ele>
        <time>2021-06-30T08:26:13Z</time>
      </trkpt>
      <trkpt lat="45.571712" lon="5.326885">
        <ele>275.55173</ele>
        <time>2021-06-30T08:26:14Z</time>
      </trkpt>
      <trkpt lat="45.571705" lon="5.327299">
        <ele>275.79025</ele>
        <time>2021-06-30T08:26:15Z</time>
      </trkpt>
      <trkpt lat="45.571686" lon="5.327716">
        <ele>275.33994</ele>
        <time>2021-06-30T08:26:16Z</time>
      </trkpt>
      <trkpt lat="45.571667" lon="5.328148">
        <ele>274.95621</ele>
        <time>2021-06-30T08:26:17Z</time>
      </trkpt>
      <trkpt lat="45.571640" lon="5.328562">
        <ele>275.07565</ele>
        <time>2021-06-30T08:26:18Z</time>
      </trkpt>
      <trkpt lat="45.571609" lon="5.328973">
        <ele>275.30466</ele>
        <time>2021-06-30T08:26:19Z</time>
      </trkpt>
      <trkpt lat="45.571564" lon="5.329383">
        <ele>275.55045</ele>
        <time>2021-06-30T08:26:20Z</time>
      </trkpt>
      <trkpt lat="45.571510" lon="5.329811">
        <ele>275.60867</ele>
        <time>2021-06-30T08:26:21Z</time>
      </trkpt>
      <trkpt lat="45.571461" lon="5.330220">
        <ele>275.91110</ele>
        <time>2021-06-30T08:26:22Z</time>
      </trkpt>
      <trkpt lat="45.571400" lon="5.330626">
        <ele>276.25790</ele>
        <time>2021-06-30T08:26:23Z</time>
      </trkpt>
      <trkpt lat="45.571323" lon="5.331054">
        <ele>277.03549</ele>
        <time>2021-06-30T08:26:24Z</time>
      </trkpt>
      <trkpt lat="45.571239" lon="5.331467">
        <ele>277.21860</ele>
        <time>2021-06-30T08:26:25Z</time>
      </trkpt>
      <trkpt lat="45.571239" lon="5.331467">
        <ele>277.70596</ele>
        <time>2021-06-30T08:26:26Z</time>
      </trkpt>
      <trkpt lat="45.571156" lon="5.331870">
        <ele>277.61142</ele>
        <time>2021-06-30T08:26:27Z</time>
      </trkpt>
      <trkpt lat="45.571060" lon="5.332261">
        <ele>277.88937</ele>
        <time>2021-06-30T08:26:28Z</time>
      </trkpt>
      <trkpt lat="45.570961" lon="5.332649">
        <ele>278.03561</ele>
        <time>2021-06-30T08:26:29Z</time>
      </trkpt>
      <trkpt lat="45.570847" lon="5.333045">
        <ele>278.36337</ele>
        <time>2021-06-30T08:26:30Z</time>
      </trkpt>
      <trkpt lat="45.570728" lon="5.333436">
        <ele>278.41129</ele>
        <time>2021-06-30T08:26:31Z</time>
      </trkpt>
      <trkpt lat="45.570606" lon="5.333837">
        <ele>278.42953</ele>
        <time>2021-06-30T08:26:32Z</time>
      </trkpt>
      <trkpt lat="45.570480" lon="5.334227">
        <ele>278.88437</ele>
        <time>2021-06-30T08:26:33Z</time>
      </trkpt>
      <trkpt lat="45.570351" lon="5.334601">
        <ele>279.30014</ele>
        <time>2021-06-30T08:26:34Z</time>
      </trkpt>
      <trkpt lat="45.570217" lon="5.334974">
        <ele>279.69370</ele>
        <time>2021-06-30T08:26:35Z</time>
      </trkpt>
      <trkpt lat="45.570103" lon="5.335345">
        <ele>279.64005</ele>
        <time>2021-06-30T08:26:36Z</time>
      </trkpt>
      <trkpt lat="45.569973" lon="5.335709">
        <ele>280.11765</ele>
        <time>2021-06-30T08:26:37Z</time>
      </trkpt>
      <trkpt lat="45.569828" lon="5.336110">
        <ele>280.36179</ele>
        <time>2021-06-30T08:26:38Z</time>
      </trkpt>
      <trkpt lat="45.569698" lon="5.336476">
        <ele>280.72116</ele>
        <time>2021-06-30T08:26:39Z</time>
      </trkpt>
      <trkpt lat="45.569572" lon="5.336823">
        <ele>280.73019</ele>
        <time>2021-06-30T08:26:40Z</time>
      </trkpt>
      <trkpt lat="45.569447" lon="5.337177">
        <ele>281.49814</ele>
        <time>2021-06-30T08:26:41Z</time>
      </trkpt>
      <trkpt lat="45.569317" lon="5.337542">
        <ele>281.81979</ele>
        <time>2021-06-30T08:26:42Z</time>
      </trkpt>
      <trkpt lat="45.569187" lon="5.337900">
        <ele>282.17758</ele>
        <time>2021-06-30T08:26:43Z</time>
      </trkpt>
      <trkpt lat="45.569057" lon="5.338272">
        <ele>282.31711</ele>
        <time>2021-06-30T08:26:44Z</time>
      </trkpt>
      <trkpt lat="45.568928" lon="5.338631">
        <ele>282.66220</ele>
        <time>2021-06-30T08:26:45Z</time>
      </trkpt>
      <trkpt lat="45.568798" lon="5.338993">
        <ele>283.15170</ele>
        <time>2021-06-30T08:26:46Z</time>
      </trkpt>
      <trkpt lat="45.568676" lon="5.339341">
        <ele>283.38101</ele>
        <time>2021-06-30T08:26:47Z</time>
      </trkpt>
      <trkpt lat="45.568554" lon="5.339685">
        <ele>283.66550</ele>
        <time>2021-06-30T08:26:48Z</time>
      </trkpt>
      <trkpt lat="45.568428" lon="5.340039">
        <ele>283.19821</ele>
        <time>2021-06-30T08:26:49Z</time>
      </trkpt>
      <trkpt lat="45.568302" lon="5.340390">
        <ele>283.24997</ele>
        <time>2021-06-30T08:26:50Z</time>
      </trkpt>
      <trkpt lat="45.568184" lon="5.340720">
        <ele>283.65891</ele>
        <time>2021-06-30T08:26:51Z</time>
      </trkpt>
      <trkpt lat="45.568058" lon="5.341073">
        <ele>283.95547</ele>
        <time>2021-06-30T08:26:52Z</time>
      </trkpt>
      <trkpt lat="45.567921" lon="5.341457">
        <ele>284.05746</ele>
        <time>2021-06-30T08:26:53Z</time>
      </trkpt>
      <trkpt lat="45.567791" lon="5.341834">
        <ele>284.52487</ele>
        <time>2021-06-30T08:26:54Z</time>
      </trkpt>
      <trkpt lat="45.567696" lon="5.342104">
        <ele>285.28922</ele>
        <time>2021-06-30T08:26:55Z</time>
      </trkpt>
      <trkpt lat="45.567638" lon="5.342225">
        <ele>285.53561</ele>
        <time>2021-06-30T08:26:56Z</time>
      </trkpt>
      <trkpt lat="45.567379" lon="5.342896">
        <ele>285.82175</ele>
        <time>2021-06-30T08:26:57Z</time>
      </trkpt>
      <trkpt lat="45.567253" lon="5.343215">
        <ele>286.61154</ele>
        <time>2021-06-30T08:26:58Z</time>
      </trkpt>
      <trkpt lat="45.567123" lon="5.343566">
        <ele>286.94266</ele>
        <time>2021-06-30T08:26:59Z</time>
      </trkpt>
      <trkpt lat="45.567123" lon="5.343566">
        <ele>287.45102</ele>
        <time>2021-06-30T08:27:00Z</time>
      </trkpt>
      <trkpt lat="45.567001" lon="5.343901">
        <ele>287.65378</ele>
        <time>2021-06-30T08:27:01Z</time>
      </trkpt>
      <trkpt lat="45.566879" lon="5.344234">
        <ele>287.92947</ele>
        <time>2021-06-30T08:27:02Z</time>
      </trkpt>
      <trkpt lat="45.566772" lon="5.344529">
        <ele>287.65256</ele>
        <time>2021-06-30T08:27:03Z</time>
      </trkpt>
      <trkpt lat="45.566647" lon="5.344865">
        <ele>288.06064</ele>
        <time>2021-06-30T08:27:04Z</time>
      </trkpt>
      <trkpt lat="45.566525" lon="5.345199">
        <ele>288.22763</ele>
        <time>2021-06-30T08:27:05Z</time>
      </trkpt>
      <trkpt lat="45.566402" lon="5.345514">
        <ele>288.06564</ele>
        <time>2021-06-30T08:27:06Z</time>
      </trkpt>
      <trkpt lat="45.566273" lon="5.345828">
        <ele>288.39914</ele>
        <time>2021-06-30T08:27:07Z</time>
      </trkpt>
      <trkpt lat="45.566116" lon="5.346124">
        <ele>288.57285</ele>
        <time>2021-06-30T08:27:08Z</time>
      </trkpt>
      <trkpt lat="45.565975" lon="5.346386">
        <ele>288.59311</ele>
        <time>2021-06-30T08:27:09Z</time>
      </trkpt>
      <trkpt lat="45.565834" lon="5.346621">
        <ele>290.46579</ele>
        <time>2021-06-30T08:27:10Z</time>
      </trkpt>
      <trkpt lat="45.565659" lon="5.346873">
        <ele>290.57187</ele>
        <time>2021-06-30T08:27:11Z</time>
      </trkpt>
      <trkpt lat="45.565479" lon="5.347117">
        <ele>291.97189</ele>
        <time>2021-06-30T08:27:12Z</time>
      </trkpt>
      <trkpt lat="45.565308" lon="5.347326">
        <ele>293.36014</ele>
        <time>2021-06-30T08:27:13Z</time>
      </trkpt>
      <trkpt lat="45.565117" lon="5.347528">
        <ele>294.54623</ele>
        <time>2021-06-30T08:27:14Z</time>
      </trkpt>
      <trkpt lat="45.564919" lon="5.347725">
        <ele>295.52493</ele>
        <time>2021-06-30T08:27:15Z</time>
      </trkpt>
      <trkpt lat="45.564724" lon="5.347893">
        <ele>296.19675</ele>
        <time>2021-06-30T08:27:16Z</time>
      </trkpt>
      <trkpt lat="45.564522" lon="5.348044">
        <ele>296.81644</ele>
        <time>2021-06-30T08:27:17Z</time>
      </trkpt>
      <trkpt lat="45.564308" lon="5.348184">
        <ele>297.60812</ele>
        <time>2021-06-30T08:27:18Z</time>
      </trkpt>
      <trkpt lat="45.564091" lon="5.348308">
        <ele>298.57651</ele>
        <time>2021-06-30T08:27:19Z</time>
      </trkpt>
      <trkpt lat="45.563835" lon="5.348429">
        <ele>299.17245</ele>
        <time>2021-06-30T08:27:20Z</time>
      </trkpt>
      <trkpt lat="45.563606" lon="5.348520">
        <ele>299.15707</ele>
        <time>2021-06-30T08:27:21Z</time>
      </trkpt>
      <trkpt lat="45.563339" lon="5.348610">
        <ele>298.91940</ele>
        <time>2021-06-30T08:27:22Z</time>
      </trkpt>
      <trkpt lat="45.563057" lon="5.348696">
        <ele>299.95920</ele>
        <time>2021-06-30T08:27:23Z</time>
      </trkpt>
      <trkpt lat="45.562813" lon="5.348774">
        <ele>300.11154</ele>
        <time>2021-06-30T08:27:24Z</time>
      </trkpt>
      <trkpt lat="45.562515" lon="5.348868">
        <ele>301.31308</ele>
        <time>2021-06-30T08:27:25Z</time>
      </trkpt>
      <trkpt lat="45.562222" lon="5.348962">
        <ele>301.61166</ele>
        <time>2021-06-30T08:27:26Z</time>
      </trkpt>
      <trkpt lat="45.561943" lon="5.349067">
        <ele>301.76193</ele>
        <time>2021-06-30T08:27:27Z</time>
      </trkpt>
      <trkpt lat="45.561680" lon="5.349177">
        <ele>301.64975</ele>
        <time>2021-06-30T08:27:28Z</time>
      </trkpt>
      <trkpt lat="45.561413" lon="5.349296">
        <ele>302.14767</ele>
        <time>2021-06-30T08:27:29Z</time>
      </trkpt>
      <trkpt lat="45.561150" lon="5.349438">
        <ele>301.45895</ele>
        <time>2021-06-30T08:27:30Z</time>
      </trkpt>
      <trkpt lat="45.560883" lon="5.349588">
        <ele>301.48099</ele>
        <time>2021-06-30T08:27:31Z</time>
      </trkpt>
      <trkpt lat="45.560883" lon="5.349588">
        <ele>300.78598</ele>
        <time>2021-06-30T08:27:32Z</time>
      </trkpt>
      <trkpt lat="45.560604" lon="5.349771">
        <ele>301.69626</ele>
        <time>2021-06-30T08:27:33Z</time>
      </trkpt>
      <trkpt lat="45.560326" lon="5.349974">
        <ele>301.72556</ele>
        <time>2021-06-30T08:27:34Z</time>
      </trkpt>
      <trkpt lat="45.560062" lon="5.350195">
        <ele>302.18161</ele>
        <time>2021-06-30T08:27:35Z</time>
      </trkpt>
      <trkpt lat="45.559807" lon="5.350413">
        <ele>302.33444</ele>
        <time>2021-06-30T08:27:36Z</time>
      </trkpt>
      <trkpt lat="45.559551" lon="5.350654">
        <ele>302.68668</ele>
        <time>2021-06-30T08:27:37Z</time>
      </trkpt>
      <trkpt lat="45.559284" lon="5.350927">
        <ele>303.26456</ele>
        <time>2021-06-30T08:27:38Z</time>
      </trkpt>
      <trkpt lat="45.559006" lon="5.351218">
        <ele>303.55392</ele>
        <time>2021-06-30T08:27:39Z</time>
      </trkpt>
      <trkpt lat="45.558731" lon="5.351508">
        <ele>303.80588</ele>
        <time>2021-06-30T08:27:40Z</time>
      </trkpt>
      <trkpt lat="45.558472" lon="5.351799">
        <ele>304.41000</ele>
        <time>2021-06-30T08:27:41Z</time>
      </trkpt>
      <trkpt lat="45.558193" lon="5.352126">
        <ele>305.06381</ele>
        <time>2021-06-30T08:27:42Z</time>
      </trkpt>
      <trkpt lat="45.557915" lon="5.352457">
        <ele>305.59439</ele>
        <time>2021-06-30T08:27:43Z</time>
      </trkpt>
      <trkpt lat="45.557648" lon="5.352774">
        <ele>305.39212</ele>
        <time>2021-06-30T08:27:44Z</time>
      </trkpt>
      <trkpt lat="45.557396" lon="5.353109">
        <ele>305.68015</ele>
        <time>2021-06-30T08:27:45Z</time>
      </trkpt>
      <trkpt lat="45.557140" lon="5.353460">
        <ele>306.46445</ele>
        <time>2021-06-30T08:27:46Z</time>
      </trkpt>
      <trkpt lat="45.556873" lon="5.353828">
        <ele>306.99075</ele>
        <time>2021-06-30T08:27:47Z</time>
      </trkpt>
      <trkpt lat="45.556625" lon="5.354193">
        <ele>307.86252</ele>
        <time>2021-06-30T08:27:48Z</time>
      </trkpt>
      <trkpt lat="45.556385" lon="5.354554">
        <ele>308.96304</ele>
        <time>2021-06-30T08:27:49Z</time>
      </trkpt>
      <trkpt lat="45.556145" lon="5.354929">
        <ele>309.77853</ele>
        <time>2021-06-30T08:27:50Z</time>
      </trkpt>
      <trkpt lat="45.555920" lon="5.355297">
        <ele>310.65317</ele>
        <time>2021-06-30T08:27:51Z</time>
      </trkpt>
      <trkpt lat="45.555687" lon="5.355680">
        <ele>311.29514</ele>
        <time>2021-06-30T08:27:52Z</time>
      </trkpt>
      <trkpt lat="45.555470" lon="5.356081">
        <ele>311.62766</ele>
        <time>2021-06-30T08:27:53Z</time>
      </trkpt>
      <trkpt lat="45.555248" lon="5.356500">
        <ele>312.36063</ele>
        <time>2021-06-30T08:27:54Z</time>
      </trkpt>
      <trkpt lat="45.555031" lon="5.356918">
        <ele>313.21994</ele>
        <time>2021-06-30T08:27:55Z</time>
      </trkpt>
      <trkpt lat="45.554832" lon="5.357343">
        <ele>314.09250</ele>
        <time>2021-06-30T08:27:56Z</time>
      </trkpt>
      <trkpt lat="45.554642" lon="5.357759">
        <ele>314.88846</ele>
        <time>2021-06-30T08:27:57Z</time>
      </trkpt>
      <trkpt lat="45.554447" lon="5.358196">
        <ele>315.40005</ele>
        <time>2021-06-30T08:27:58Z</time>
      </trkpt>
      <trkpt lat="45.554260" lon="5.358624">
        <ele>316.03781</ele>
        <time>2021-06-30T08:27:59Z</time>
      </trkpt>
      <trkpt lat="45.554077" lon="5.359078">
        <ele>316.32657</ele>
        <time>2021-06-30T08:28:00Z</time>
      </trkpt>
      <trkpt lat="45.553886" lon="5.359511">
        <ele>317.59067</ele>
        <time>2021-06-30T08:28:01Z</time>
      </trkpt>
      <trkpt lat="45.553684" lon="5.359946">
        <ele>318.09128</ele>
        <time>2021-06-30T08:28:02Z</time>
      </trkpt>
      <trkpt lat="45.553474" lon="5.360353">
        <ele>318.79471</ele>
        <time>2021-06-30T08:28:03Z</time>
      </trkpt>
      <trkpt lat="45.553246" lon="5.360752">
        <ele>319.32541</ele>
        <time>2021-06-30T08:28:04Z</time>
      </trkpt>
      <trkpt lat="45.553013" lon="5.361126">
        <ele>319.78683</ele>
        <time>2021-06-30T08:28:05Z</time>
      </trkpt>
      <trkpt lat="45.552773" lon="5.361498">
        <ele>320.98959</ele>
        <time>2021-06-30T08:28:06Z</time>
      </trkpt>
      <trkpt lat="45.552532" lon="5.361864">
        <ele>321.64114</ele>
        <time>2021-06-30T08:28:07Z</time>
      </trkpt>
      <trkpt lat="45.552532" lon="5.361864">
        <ele>322.11270</ele>
        <time>2021-06-30T08:28:08Z</time>
      </trkpt>
      <trkpt lat="45.552277" lon="5.362249">
        <ele>322.70401</ele>
        <time>2021-06-30T08:28:09Z</time>
      </trkpt>
      <trkpt lat="45.552032" lon="5.362618">
        <ele>323.36844</ele>
        <time>2021-06-30T08:28:10Z</time>
      </trkpt>
      <trkpt lat="45.551796" lon="5.362997">
        <ele>324.04849</ele>
        <time>2021-06-30T08:28:11Z</time>
      </trkpt>
      <trkpt lat="45.551567" lon="5.363388">
        <ele>324.26791</ele>
        <time>2021-06-30T08:28:12Z</time>
      </trkpt>
      <trkpt lat="45.551350" lon="5.363801">
        <ele>324.94370</ele>
        <time>2021-06-30T08:28:13Z</time>
      </trkpt>
      <trkpt lat="45.551144" lon="5.364220">
        <ele>325.55710</ele>
        <time>2021-06-30T08:28:14Z</time>
      </trkpt>
      <trkpt lat="45.550949" lon="5.364671">
        <ele>325.75455</ele>
        <time>2021-06-30T08:28:15Z</time>
      </trkpt>
      <trkpt lat="45.550774" lon="5.365150">
        <ele>325.76163</ele>
        <time>2021-06-30T08:28:16Z</time>
      </trkpt>
      <trkpt lat="45.550617" lon="5.365614">
        <ele>326.18686</ele>
        <time>2021-06-30T08:28:17Z</time>
      </trkpt>
      <trkpt lat="45.550484" lon="5.366083">
        <ele>326.34958</ele>
        <time>2021-06-30T08:28:18Z</time>
      </trkpt>
      <trkpt lat="45.550362" lon="5.366566">
        <ele>326.65720</ele>
        <time>2021-06-30T08:28:19Z</time>
      </trkpt>
      <trkpt lat="45.550243" lon="5.367066">
        <ele>327.20187</ele>
        <time>2021-06-30T08:28:20Z</time>
      </trkpt>
      <trkpt lat="45.550140" lon="5.367528">
        <ele>327.74838</ele>
        <time>2021-06-30T08:28:21Z</time>
      </trkpt>
      <trkpt lat="45.550022" lon="5.368026">
        <ele>328.90720</ele>
        <time>2021-06-30T08:28:22Z</time>
      </trkpt>
      <trkpt lat="45.549908" lon="5.368506">
        <ele>329.36276</ele>
        <time>2021-06-30T08:28:23Z</time>
      </trkpt>
      <trkpt lat="45.549789" lon="5.368973">
        <ele>330.44382</ele>
        <time>2021-06-30T08:28:24Z</time>
      </trkpt>
      <trkpt lat="45.549644" lon="5.369445">
        <ele>331.29666</ele>
        <time>2021-06-30T08:28:25Z</time>
      </trkpt>
      <trkpt lat="45.549500" lon="5.369894">
        <ele>332.19394</ele>
        <time>2021-06-30T08:28:26Z</time>
      </trkpt>
      <trkpt lat="45.549339" lon="5.370328">
        <ele>332.56552</ele>
        <time>2021-06-30T08:28:27Z</time>
      </trkpt>
      <trkpt lat="45.549137" lon="5.370760">
        <ele>333.54868</ele>
        <time>2021-06-30T08:28:28Z</time>
      </trkpt>
      <trkpt lat="45.548923" lon="5.371150">
        <ele>335.05936</ele>
        <time>2021-06-30T08:28:29Z</time>
      </trkpt>
      <trkpt lat="45.548710" lon="5.371517">
        <ele>335.42978</ele>
        <time>2021-06-30T08:28:30Z</time>
      </trkpt>
      <trkpt lat="45.548485" lon="5.371889">
        <ele>336.32071</ele>
        <time>2021-06-30T08:28:31Z</time>
      </trkpt>
      <trkpt lat="45.548233" lon="5.372220">
        <ele>338.06613</ele>
        <time>2021-06-30T08:28:32Z</time>
      </trkpt>
      <trkpt lat="45.547974" lon="5.372540">
        <ele>339.40988</ele>
        <time>2021-06-30T08:28:33Z</time>
      </trkpt>
      <trkpt lat="45.547710" lon="5.372845">
        <ele>340.69186</ele>
        <time>2021-06-30T08:28:34Z</time>
      </trkpt>
      <trkpt lat="45.547436" lon="5.373132">
        <ele>342.63528</ele>
        <time>2021-06-30T08:28:35Z</time>
      </trkpt>
      <trkpt lat="45.547153" lon="5.373414">
        <ele>344.47610</ele>
        <time>2021-06-30T08:28:36Z</time>
      </trkpt>
      <trkpt lat="45.546883" lon="5.373675">
        <ele>345.86942</ele>
        <time>2021-06-30T08:28:37Z</time>
      </trkpt>
      <trkpt lat="45.546581" lon="5.373966">
        <ele>347.34360</ele>
        <time>2021-06-30T08:28:38Z</time>
      </trkpt>
      <trkpt lat="45.546581" lon="5.373966">
        <ele>349.10593</ele>
        <time>2021-06-30T08:28:39Z</time>
      </trkpt>
      <trkpt lat="45.546291" lon="5.374250">
        <ele>350.60654</ele>
        <time>2021-06-30T08:28:40Z</time>
      </trkpt>
      <trkpt lat="45.546017" lon="5.374524">
        <ele>352.61679</ele>
        <time>2021-06-30T08:28:41Z</time>
      </trkpt>
      <trkpt lat="45.545750" lon="5.374818">
        <ele>354.40060</ele>
        <time>2021-06-30T08:28:42Z</time>
      </trkpt>
      <trkpt lat="45.545490" lon="5.375120">
        <ele>355.38882</ele>
        <time>2021-06-30T08:28:43Z</time>
      </trkpt>
      <trkpt lat="45.545242" lon="5.375449">
        <ele>356.95950</ele>
        <time>2021-06-30T08:28:44Z</time>
      </trkpt>
      <trkpt lat="45.544994" lon="5.375804">
        <ele>358.54294</ele>
        <time>2021-06-30T08:28:45Z</time>
      </trkpt>
      <trkpt lat="45.544765" lon="5.376176">
        <ele>360.14377</ele>
        <time>2021-06-30T08:28:46Z</time>
      </trkpt>
      <trkpt lat="45.544559" lon="5.376540">
        <ele>362.06741</ele>
        <time>2021-06-30T08:28:47Z</time>
      </trkpt>
      <trkpt lat="45.544365" lon="5.376937">
        <ele>362.43857</ele>
        <time>2021-06-30T08:28:48Z</time>
      </trkpt>
      <trkpt lat="45.544189" lon="5.377329">
        <ele>363.93625</ele>
        <time>2021-06-30T08:28:49Z</time>
      </trkpt>
      <trkpt lat="45.544022" lon="5.377757">
        <ele>365.41745</ele>
        <time>2021-06-30T08:28:50Z</time>
      </trkpt>
      <trkpt lat="45.543877" lon="5.378199">
        <ele>367.30600</ele>
        <time>2021-06-30T08:28:51Z</time>
      </trkpt>
      <trkpt lat="45.543743" lon="5.378656">
        <ele>369.37216</ele>
        <time>2021-06-30T08:28:52Z</time>
      </trkpt>
      <trkpt lat="45.543617" lon="5.379092">
        <ele>370.91794</ele>
        <time>2021-06-30T08:28:53Z</time>
      </trkpt>
      <trkpt lat="45.543507" lon="5.379582">
        <ele>372.97635</ele>
        <time>2021-06-30T08:28:54Z</time>
      </trkpt>
      <trkpt lat="45.543411" lon="5.380051">
        <ele>373.87997</ele>
        <time>2021-06-30T08:28:55Z</time>
      </trkpt>
      <trkpt lat="45.543327" lon="5.380531">
        <ele>374.57773</ele>
        <time>2021-06-30T08:28:56Z</time>
      </trkpt>
      <trkpt lat="45.543243" lon="5.381018">
        <ele>375.41599</ele>
        <time>2021-06-30T08:28:57Z</time>
      </trkpt>
      <trkpt lat="45.543163" lon="5.381504">
        <ele>377.48465</ele>
        <time>2021-06-30T08:28:58Z</time>
      </trkpt>
      <trkpt lat="45.543083" lon="5.381979">
        <ele>379.36752</ele>
        <time>2021-06-30T08:28:59Z</time>
      </trkpt>
      <trkpt lat="45.543007" lon="5.382486">
        <ele>380.64023</ele>
        <time>2021-06-30T08:29:00Z</time>
      </trkpt>
      <trkpt lat="45.542938" lon="5.382972">
        <ele>383.14047</ele>
        <time>2021-06-30T08:29:01Z</time>
      </trkpt>
      <trkpt lat="45.542862" lon="5.383462">
        <ele>384.17380</ele>
        <time>2021-06-30T08:29:02Z</time>
      </trkpt>
      <trkpt lat="45.542774" lon="5.383976">
        <ele>385.85831</ele>
        <time>2021-06-30T08:29:03Z</time>
      </trkpt>
      <trkpt lat="45.542679" lon="5.384470">
        <ele>387.81894</ele>
        <time>2021-06-30T08:29:04Z</time>
      </trkpt>
      <trkpt lat="45.542583" lon="5.384931">
        <ele>390.86337</ele>
        <time>2021-06-30T08:29:05Z</time>
      </trkpt>
      <trkpt lat="45.542458" lon="5.385413">
        <ele>393.05331</ele>
        <time>2021-06-30T08:29:06Z</time>
      </trkpt>
      <trkpt lat="45.542316" lon="5.385886">
        <ele>394.89523</ele>
        <time>2021-06-30T08:29:07Z</time>
      </trkpt>
      <trkpt lat="45.542160" lon="5.386353">
        <ele>396.35666</ele>
        <time>2021-06-30T08:29:08Z</time>
      </trkpt>
      <trkpt lat="45.541977" lon="5.386797">
        <ele>398.43912</ele>
        <time>2021-06-30T08:29:09Z</time>
      </trkpt>
      <trkpt lat="45.541779" lon="5.387245">
        <ele>400.55960</ele>
        <time>2021-06-30T08:29:10Z</time>
      </trkpt>
      <trkpt lat="45.541576" lon="5.387643">
        <ele>402.64536</ele>
        <time>2021-06-30T08:29:11Z</time>
      </trkpt>
      <trkpt lat="45.541351" lon="5.388052">
        <ele>404.15207</ele>
        <time>2021-06-30T08:29:12Z</time>
      </trkpt>
      <trkpt lat="45.541122" lon="5.388427">
        <ele>406.04398</ele>
        <time>2021-06-30T08:29:13Z</time>
      </trkpt>
      <trkpt lat="45.540878" lon="5.388803">
        <ele>407.07742</ele>
        <time>2021-06-30T08:29:14Z</time>
      </trkpt>
      <trkpt lat="45.540630" lon="5.389191">
        <ele>410.15353</ele>
        <time>2021-06-30T08:29:15Z</time>
      </trkpt>
      <trkpt lat="45.540394" lon="5.389543">
        <ele>412.76706</ele>
        <time>2021-06-30T08:29:16Z</time>
      </trkpt>
      <trkpt lat="45.540150" lon="5.389894">
        <ele>414.97086</ele>
        <time>2021-06-30T08:29:17Z</time>
      </trkpt>
      <trkpt lat="45.539886" lon="5.390269">
        <ele>417.40720</ele>
        <time>2021-06-30T08:29:18Z</time>
      </trkpt>
      <trkpt lat="45.539639" lon="5.390632">
        <ele>419.56516</ele>
        <time>2021-06-30T08:29:19Z</time>
      </trkpt>
      <trkpt lat="45.539639" lon="5.390632">
        <ele>421.84525</ele>
        <time>2021-06-30T08:29:20Z</time>
      </trkpt>
      <trkpt lat="45.539394" lon="5.390996">
        <ele>423.80637</ele>
        <time>2021-06-30T08:29:21Z</time>
      </trkpt>
      <trkpt lat="45.539165" lon="5.391385">
        <ele>425.27646</ele>
        <time>2021-06-30T08:29:22Z</time>
      </trkpt>
      <trkpt lat="45.538940" lon="5.391774">
        <ele>427.22562</ele>
        <time>2021-06-30T08:29:23Z</time>
      </trkpt>
      <trkpt lat="45.538715" lon="5.392179">
        <ele>429.36655</ele>
        <time>2021-06-30T08:29:24Z</time>
      </trkpt>
      <trkpt lat="45.538513" lon="5.392577">
        <ele>431.34952</ele>
        <time>2021-06-30T08:29:25Z</time>
      </trkpt>
      <trkpt lat="45.538326" lon="5.393001">
        <ele>433.64658</ele>
        <time>2021-06-30T08:29:26Z</time>
      </trkpt>
      <trkpt lat="45.538151" lon="5.393428">
        <ele>435.82016</ele>
        <time>2021-06-30T08:29:27Z</time>
      </trkpt>
      <trkpt lat="45.537979" lon="5.393857">
        <ele>437.51755</ele>
        <time>2021-06-30T08:29:28Z</time>
      </trkpt>
      <trkpt lat="45.537823" lon="5.394303">
        <ele>439.57614</ele>
        <time>2021-06-30T08:29:29Z</time>
      </trkpt>
      <trkpt lat="45.537674" lon="5.394768">
        <ele>440.99594</ele>
        <time>2021-06-30T08:29:30Z</time>
      </trkpt>
      <trkpt lat="45.537540" lon="5.395219">
        <ele>442.73282</ele>
        <time>2021-06-30T08:29:31Z</time>
      </trkpt>
      <trkpt lat="45.537430" lon="5.395677">
        <ele>443.58487</ele>
        <time>2021-06-30T08:29:32Z</time>
      </trkpt>
      <trkpt lat="45.537315" lon="5.396139">
        <ele>445.40048</ele>
        <time>2021-06-30T08:29:33Z</time>
      </trkpt>
      <trkpt lat="45.537201" lon="5.396615">
        <ele>446.35568</ele>
        <time>2021-06-30T08:29:34Z</time>
      </trkpt>
      <trkpt lat="45.537086" lon="5.397104">
        <ele>447.72165</ele>
        <time>2021-06-30T08:29:35Z</time>
      </trkpt>
      <trkpt lat="45.536976" lon="5.397575">
        <ele>449.33353</ele>
        <time>2021-06-30T08:29:36Z</time>
      </trkpt>
      <trkpt lat="45.536861" lon="5.398053">
        <ele>451.25888</ele>
        <time>2021-06-30T08:29:37Z</time>
      </trkpt>
      <trkpt lat="45.536739" lon="5.398550">
        <ele>452.94150</ele>
        <time>2021-06-30T08:29:38Z</time>
      </trkpt>
      <trkpt lat="45.536606" lon="5.399028">
        <ele>454.60788</ele>
        <time>2021-06-30T08:29:39Z</time>
      </trkpt>
      <trkpt lat="45.536461" lon="5.399524">
        <ele>455.74655</ele>
        <time>2021-06-30T08:29:40Z</time>
      </trkpt>
      <trkpt lat="45.536308" lon="5.399980">
        <ele>456.68161</ele>
        <time>2021-06-30T08:29:41Z</time>
      </trkpt>
      <trkpt lat="45.536156" lon="5.400447">
        <ele>458.07675</ele>
        <time>2021-06-30T08:29:42Z</time>
      </trkpt>
      <trkpt lat="45.535988" lon="5.400915">
        <ele>459.05270</ele>
        <time>2021-06-30T08:29:43Z</time>
      </trkpt>
      <trkpt lat="45.535812" lon="5.401379">
        <ele>460.02420</ele>
        <time>2021-06-30T08:29:44Z</time>
      </trkpt>
      <trkpt lat="45.535622" lon="5.401835">
        <ele>460.50266</ele>
        <time>2021-06-30T08:29:45Z</time>
      </trkpt>
      <trkpt lat="45.535439" lon="5.402258">
        <ele>461.57150</ele>
        <time>2021-06-30T08:29:46Z</time>
      </trkpt>
      <trkpt lat="45.535236" lon="5.402698">
        <ele>461.95419</ele>
        <time>2021-06-30T08:29:47Z</time>
      </trkpt>
      <trkpt lat="45.535038" lon="5.403112">
        <ele>462.01974</ele>
        <time>2021-06-30T08:29:48Z</time>
      </trkpt>
      <trkpt lat="45.534821" lon="5.403523">
        <ele>461.89658</ele>
        <time>2021-06-30T08:29:49Z</time>
      </trkpt>
      <trkpt lat="45.534607" lon="5.403915">
        <ele>462.37131</ele>
        <time>2021-06-30T08:29:50Z</time>
      </trkpt>
      <trkpt lat="45.534378" lon="5.404311">
        <ele>462.47348</ele>
        <time>2021-06-30T08:29:51Z</time>
      </trkpt>
      <trkpt lat="45.534145" lon="5.404679">
        <ele>462.37436</ele>
        <time>2021-06-30T08:29:52Z</time>
      </trkpt>
      <trkpt lat="45.533894" lon="5.405064">
        <ele>462.38034</ele>
        <time>2021-06-30T08:29:53Z</time>
      </trkpt>
      <trkpt lat="45.533894" lon="5.405064">
        <ele>462.78818</ele>
        <time>2021-06-30T08:29:54Z</time>
      </trkpt>
      <trkpt lat="45.533653" lon="5.405424">
        <ele>463.22141</ele>
        <time>2021-06-30T08:29:55Z</time>
      </trkpt>
      <trkpt lat="45.533398" lon="5.405789">
        <ele>463.53391</ele>
        <time>2021-06-30T08:29:56Z</time>
      </trkpt>
      <trkpt lat="45.533119" lon="5.406137">
        <ele>464.07803</ele>
        <time>2021-06-30T08:29:57Z</time>
      </trkpt>
      <trkpt lat="45.532833" lon="5.406493">
        <ele>466.19943</ele>
        <time>2021-06-30T08:29:58Z</time>
      </trkpt>
      <trkpt lat="45.532551" lon="5.406827">
        <ele>468.38461</ele>
        <time>2021-06-30T08:29:59Z</time>
      </trkpt>
      <trkpt lat="45.532276" lon="5.407146">
        <ele>470.02090</ele>
        <time>2021-06-30T08:30:00Z</time>
      </trkpt>
      <trkpt lat="45.531982" lon="5.407456">
        <ele>472.33078</ele>
        <time>2021-06-30T08:30:01Z</time>
      </trkpt>
      <trkpt lat="45.531685" lon="5.407738">
        <ele>474.00479</ele>
        <time>2021-06-30T08:30:02Z</time>
      </trkpt>
      <trkpt lat="45.531384" lon="5.408005">
        <ele>475.66586</ele>
        <time>2021-06-30T08:30:03Z</time>
      </trkpt>
      <trkpt lat="45.531086" lon="5.408264">
        <ele>476.30673</ele>
        <time>2021-06-30T08:30:04Z</time>
      </trkpt>
      <trkpt lat="45.530766" lon="5.408507">
        <ele>477.24326</ele>
        <time>2021-06-30T08:30:05Z</time>
      </trkpt>
      <trkpt lat="45.530464" lon="5.408715">
        <ele>477.66965</ele>
        <time>2021-06-30T08:30:06Z</time>
      </trkpt>
      <trkpt lat="45.530159" lon="5.408910">
        <ele>478.29721</ele>
        <time>2021-06-30T08:30:07Z</time>
      </trkpt>
      <trkpt lat="45.529835" lon="5.409118">
        <ele>477.90414</ele>
        <time>2021-06-30T08:30:08Z</time>
      </trkpt>
      <trkpt lat="45.529510" lon="5.409298">
        <ele>480.15707</ele>
        <time>2021-06-30T08:30:09Z</time>
      </trkpt>
      <trkpt lat="45.529171" lon="5.409450">
        <ele>481.68491</ele>
        <time>2021-06-30T08:30:10Z</time>
      </trkpt>
      <trkpt lat="45.528797" lon="5.409589">
        <ele>482.95859</ele>
        <time>2021-06-30T08:30:11Z</time>
      </trkpt>
      <trkpt lat="45.528461" lon="5.409713">
        <ele>483.17307</ele>
        <time>2021-06-30T08:30:12Z</time>
      </trkpt>
      <trkpt lat="45.528111" lon="5.409837">
        <ele>483.51010</ele>
        <time>2021-06-30T08:30:13Z</time>
      </trkpt>
      <trkpt lat="45.527744" lon="5.409968">
        <ele>485.72592</ele>
        <time>2021-06-30T08:30:14Z</time>
      </trkpt>
      <trkpt lat="45.527405" lon="5.410074">
        <ele>485.75180</ele>
        <time>2021-06-30T08:30:15Z</time>
      </trkpt>
      <trkpt lat="45.527073" lon="5.410159">
        <ele>485.76169</ele>
        <time>2021-06-30T08:30:16Z</time>
      </trkpt>
      <trkpt lat="45.526714" lon="5.410237">
        <ele>485.95737</ele>
        <time>2021-06-30T08:30:17Z</time>
      </trkpt>
      <trkpt lat="45.526363" lon="5.410306">
        <ele>485.70566</ele>
        <time>2021-06-30T08:30:18Z</time>
      </trkpt>
      <trkpt lat="45.525990" lon="5.410380">
        <ele>486.10678</ele>
        <time>2021-06-30T08:30:19Z</time>
      </trkpt>
      <trkpt lat="45.525635" lon="5.410422">
        <ele>487.20663</ele>
        <time>2021-06-30T08:30:20Z</time>
      </trkpt>
      <trkpt lat="45.525288" lon="5.410453">
        <ele>487.61362</ele>
        <time>2021-06-30T08:30:21Z</time>
      </trkpt>
      <trkpt lat="45.524914" lon="5.410491">
        <ele>487.15622</ele>
        <time>2021-06-30T08:30:22Z</time>
      </trkpt>
      <trkpt lat="45.524513" lon="5.410535">
        <ele>485.86948</ele>
        <time>2021-06-30T08:30:23Z</time>
      </trkpt>
      <trkpt lat="45.524136" lon="5.410532">
        <ele>485.53745</ele>
        <time>2021-06-30T08:30:24Z</time>
      </trkpt>
      <trkpt lat="45.523773" lon="5.410528">
        <ele>484.48764</ele>
        <time>2021-06-30T08:30:25Z</time>
      </trkpt>
      <trkpt lat="45.523773" lon="5.410528">
        <ele>482.59323</ele>
        <time>2021-06-30T08:30:26Z</time>
      </trkpt>
      <trkpt lat="45.523418" lon="5.410525">
        <ele>481.04025</ele>
        <time>2021-06-30T08:30:27Z</time>
      </trkpt>
      <trkpt lat="45.523067" lon="5.410495">
        <ele>479.61752</ele>
        <time>2021-06-30T08:30:28Z</time>
      </trkpt>
      <trkpt lat="45.522717" lon="5.410462">
        <ele>478.90463</ele>
        <time>2021-06-30T08:30:29Z</time>
      </trkpt>
      <trkpt lat="45.522343" lon="5.410416">
        <ele>478.33200</ele>
        <time>2021-06-30T08:30:30Z</time>
      </trkpt>
      <trkpt lat="45.521999" lon="5.410363">
        <ele>478.17917</ele>
        <time>2021-06-30T08:30:31Z</time>
      </trkpt>
      <trkpt lat="45.521648" lon="5.410299">
        <ele>477.04416</ele>
        <time>2021-06-30T08:30:32Z</time>
      </trkpt>
      <trkpt lat="45.521290" lon="5.410224">
        <ele>476.60446</ele>
        <time>2021-06-30T08:30:33Z</time>
      </trkpt>
      <trkpt lat="45.520950" lon="5.410145">
        <ele>476.44638</ele>
        <time>2021-06-30T08:30:34Z</time>
      </trkpt>
      <trkpt lat="45.520599" lon="5.410060">
        <ele>476.68979</ele>
        <time>2021-06-30T08:30:35Z</time>
      </trkpt>
      <trkpt lat="45.520264" lon="5.409969">
        <ele>476.93356</ele>
        <time>2021-06-30T08:30:36Z</time>
      </trkpt>
      <trkpt lat="45.519913" lon="5.409847">
        <ele>477.32480</ele>
        <time>2021-06-30T08:30:37Z</time>
      </trkpt>
      <trkpt lat="45.519569" lon="5.409729">
        <ele>477.22336</ele>
        <time>2021-06-30T08:30:38Z</time>
      </trkpt>
      <trkpt lat="45.519234" lon="5.409591">
        <ele>477.49203</ele>
        <time>2021-06-30T08:30:39Z</time>
      </trkpt>
      <trkpt lat="45.518898" lon="5.409452">
        <ele>478.39133</ele>
        <time>2021-06-30T08:30:40Z</time>
      </trkpt>
      <trkpt lat="45.518566" lon="5.409306">
        <ele>479.19858</ele>
        <time>2021-06-30T08:30:41Z</time>
      </trkpt>
      <trkpt lat="45.518238" lon="5.409136">
        <ele>479.71225</ele>
        <time>2021-06-30T08:30:42Z</time>
      </trkpt>
      <trkpt lat="45.517914" lon="5.408963">
        <ele>480.02768</ele>
        <time>2021-06-30T08:30:43Z</time>
      </trkpt>
      <trkpt lat="45.517582" lon="5.408786">
        <ele>480.77048</ele>
        <time>2021-06-30T08:30:44Z</time>
      </trkpt>
      <trkpt lat="45.517239" lon="5.408597">
        <ele>481.15573</ele>
        <time>2021-06-30T08:30:45Z</time>
      </trkpt>
      <trkpt lat="45.516918" lon="5.408407">
        <ele>481.60532</ele>
        <time>2021-06-30T08:30:46Z</time>
      </trkpt>
      <trkpt lat="45.516598" lon="5.408198">
        <ele>481.67758</ele>
        <time>2021-06-30T08:30:47Z</time>
      </trkpt>
      <trkpt lat="45.516262" lon="5.407975">
        <ele>481.80136</ele>
        <time>2021-06-30T08:30:48Z</time>
      </trkpt>
      <trkpt lat="45.515938" lon="5.407748">
        <ele>482.27512</ele>
        <time>2021-06-30T08:30:49Z</time>
      </trkpt>
      <trkpt lat="45.515636" lon="5.407535">
        <ele>482.41269</ele>
        <time>2021-06-30T08:30:50Z</time>
      </trkpt>
      <trkpt lat="45.515335" lon="5.407323">
        <ele>482.30771</ele>
        <time>2021-06-30T08:30:51Z</time>
      </trkpt>
      <trkpt lat="45.515034" lon="5.407105">
        <ele>482.65146</ele>
        <time>2021-06-30T08:30:52Z</time>
      </trkpt>
      <trkpt lat="45.514729" lon="5.406865">
        <ele>482.29745</ele>
        <time>2021-06-30T08:30:53Z</time>
      </trkpt>
      <trkpt lat="45.514427" lon="5.406628">
        <ele>482.89694</ele>
        <time>2021-06-30T08:30:54Z</time>
      </trkpt>
      <trkpt lat="45.514126" lon="5.406393">
        <ele>483.21225</ele>
        <time>2021-06-30T08:30:55Z</time>
      </trkpt>
      <trkpt lat="45.513817" lon="5.406156">
        <ele>483.31967</ele>
        <time>2021-06-30T08:30:56Z</time>
      </trkpt>
      <trkpt lat="45.513515" lon="5.405912">
        <ele>482.94357</ele>
        <time>2021-06-30T08:30:57Z</time>
      </trkpt>
      <trkpt lat="45.513210" lon="5.405665">
        <ele>482.45053</ele>
        <time>2021-06-30T08:30:58Z</time>
      </trkpt>
      <trkpt lat="45.512932" lon="5.405436">
        <ele>482.08676</ele>
        <time>2021-06-30T08:30:59Z</time>
      </trkpt>
      <trkpt lat="45.512932" lon="5.405436">
        <ele>481.92844</ele>
        <time>2021-06-30T08:31:00Z</time>
      </trkpt>
      <trkpt lat="45.512634" lon="5.405198">
        <ele>481.27621</ele>
        <time>2021-06-30T08:31:01Z</time>
      </trkpt>
      <trkpt lat="45.512329" lon="5.404955">
        <ele>480.62949</ele>
        <time>2021-06-30T08:31:02Z</time>
      </trkpt>
      <trkpt lat="45.512020" lon="5.404711">
        <ele>480.54538</ele>
        <time>2021-06-30T08:31:03Z</time>
      </trkpt>
      <trkpt lat="45.511734" lon="5.404485">
        <ele>480.07004</ele>
        <time>2021-06-30T08:31:04Z</time>
      </trkpt>
      <trkpt lat="45.511448" lon="5.404264">
        <ele>478.28696</ele>
        <time>2021-06-30T08:31:05Z</time>
      </trkpt>
      <trkpt lat="45.511158" lon="5.404040">
        <ele>477.29929</ele>
        <time>2021-06-30T08:31:06Z</time>
      </trkpt>
      <trkpt lat="45.510857" lon="5.403810">
        <ele>475.77280</ele>
        <time>2021-06-30T08:31:07Z</time>
      </trkpt>
      <trkpt lat="45.510563" lon="5.403584">
        <ele>473.10342</ele>
        <time>2021-06-30T08:31:08Z</time>
      </trkpt>
      <trkpt lat="45.510246" lon="5.403351">
        <ele>472.22226</ele>
        <time>2021-06-30T08:31:09Z</time>
      </trkpt>
      <trkpt lat="45.509930" lon="5.403127">
        <ele>470.84073</ele>
        <time>2021-06-30T08:31:10Z</time>
      </trkpt>
      <trkpt lat="45.509621" lon="5.402903">
        <ele>470.20853</ele>
        <time>2021-06-30T08:31:11Z</time>
      </trkpt>
      <trkpt lat="45.509293" lon="5.402683">
        <ele>468.83066</ele>
        <time>2021-06-30T08:31:12Z</time>
      </trkpt>
      <trkpt lat="45.508957" lon="5.402459">
        <ele>466.50803</ele>
        <time>2021-06-30T08:31:13Z</time>
      </trkpt>
      <trkpt lat="45.508629" lon="5.402253">
        <ele>464.51535</ele>
        <time>2021-06-30T08:31:14Z</time>
      </trkpt>
      <trkpt lat="45.508308" lon="5.402058">
        <ele>462.87564</ele>
        <time>2021-06-30T08:31:15Z</time>
      </trkpt>
      <trkpt lat="45.507961" lon="5.401864">
        <ele>461.65256</ele>
        <time>2021-06-30T08:31:16Z</time>
      </trkpt>
      <trkpt lat="45.507626" lon="5.401677">
        <ele>459.95578</ele>
        <time>2021-06-30T08:31:17Z</time>
      </trkpt>
      <trkpt lat="45.507298" lon="5.401500">
        <ele>459.12106</ele>
        <time>2021-06-30T08:31:18Z</time>
      </trkpt>
      <trkpt lat="45.506958" lon="5.401329">
        <ele>458.39975</ele>
        <time>2021-06-30T08:31:19Z</time>
      </trkpt>
      <trkpt lat="45.506615" lon="5.401157">
        <ele>457.73080</ele>
        <time>2021-06-30T08:31:20Z</time>
      </trkpt>
      <trkpt lat="45.506252" lon="5.400981">
        <ele>456.74405</ele>
        <time>2021-06-30T08:31:21Z</time>
      </trkpt>
      <trkpt lat="45.505920" lon="5.400834">
        <ele>455.79562</ele>
        <time>2021-06-30T08:31:22Z</time>
      </trkpt>
      <trkpt lat="45.505558" lon="5.400674">
        <ele>453.85831</ele>
        <time>2021-06-30T08:31:23Z</time>
      </trkpt>
      <trkpt lat="45.505207" lon="5.400533">
        <ele>452.92264</ele>
        <time>2021-06-30T08:31:24Z</time>
      </trkpt>
      <trkpt lat="45.504864" lon="5.400399">
        <ele>452.63943</ele>
        <time>2021-06-30T08:31:25Z</time>
      </trkpt>
      <trkpt lat="45.504513" lon="5.400263">
        <ele>451.89084</ele>
        <time>2021-06-30T08:31:26Z</time>
      </trkpt>
      <trkpt lat="45.504169" lon="5.400142">
        <ele>451.41202</ele>
        <time>2021-06-30T08:31:27Z</time>
      </trkpt>
      <trkpt lat="45.503822" lon="5.400029">
        <ele>450.75571</ele>
        <time>2021-06-30T08:31:28Z</time>
      </trkpt>
      <trkpt lat="45.503490" lon="5.399932">
        <ele>449.45773</ele>
        <time>2021-06-30T08:31:29Z</time>
      </trkpt>
      <trkpt lat="45.503162" lon="5.399836">
        <ele>448.20157</ele>
        <time>2021-06-30T08:31:30Z</time>
      </trkpt>
      <trkpt lat="45.502853" lon="5.399754">
        <ele>447.06320</ele>
        <time>2021-06-30T08:31:31Z</time>
      </trkpt>
      <trkpt lat="45.502525" lon="5.399671">
        <ele>445.85202</ele>
        <time>2021-06-30T08:31:32Z</time>
      </trkpt>
      <trkpt lat="45.502186" lon="5.399592">
        <ele>444.69748</ele>
        <time>2021-06-30T08:31:33Z</time>
      </trkpt>
      <trkpt lat="45.502186" lon="5.399592">
        <ele>443.91293</ele>
        <time>2021-06-30T08:31:34Z</time>
      </trkpt>
      <trkpt lat="45.501862" lon="5.399525">
        <ele>443.65097</ele>
        <time>2021-06-30T08:31:35Z</time>
      </trkpt>
      <trkpt lat="45.501537" lon="5.399459">
        <ele>442.98508</ele>
        <time>2021-06-30T08:31:36Z</time>
      </trkpt>
      <trkpt lat="45.501217" lon="5.399392">
        <ele>442.70248</ele>
        <time>2021-06-30T08:31:37Z</time>
      </trkpt>
      <trkpt lat="45.500900" lon="5.399335">
        <ele>442.33456</ele>
        <time>2021-06-30T08:31:38Z</time>
      </trkpt>
      <trkpt lat="45.500591" lon="5.399281">
        <ele>441.73862</ele>
        <time>2021-06-30T08:31:39Z</time>
      </trkpt>
      <trkpt lat="45.500267" lon="5.399231">
        <ele>441.01230</ele>
        <time>2021-06-30T08:31:40Z</time>
      </trkpt>
      <trkpt lat="45.499950" lon="5.399197">
        <ele>440.63168</ele>
        <time>2021-06-30T08:31:41Z</time>
      </trkpt>
      <trkpt lat="45.499641" lon="5.399164">
        <ele>440.61484</ele>
        <time>2021-06-30T08:31:42Z</time>
      </trkpt>
      <trkpt lat="45.499332" lon="5.399130">
        <ele>442.30734</ele>
        <time>2021-06-30T08:31:43Z</time>
      </trkpt>
      <trkpt lat="45.499004" lon="5.399095">
        <ele>442.09952</ele>
        <time>2021-06-30T08:31:44Z</time>
      </trkpt>
      <trkpt lat="45.498661" lon="5.399066">
        <ele>442.32883</ele>
        <time>2021-06-30T08:31:45Z</time>
      </trkpt>
      <trkpt lat="45.498306" lon="5.399040">
        <ele>442.54770</ele>
        <time>2021-06-30T08:31:46Z</time>
      </trkpt>
      <trkpt lat="45.497959" lon="5.399016">
        <ele>444.32443</ele>
        <time>2021-06-30T08:31:47Z</time>
      </trkpt>
      <trkpt lat="45.497608" lon="5.398997">
        <ele>443.91196</ele>
        <time>2021-06-30T08:31:48Z</time>
      </trkpt>
      <trkpt lat="45.497246" lon="5.398987">
        <ele>444.34879</ele>
        <time>2021-06-30T08:31:49Z</time>
      </trkpt>
      <trkpt lat="45.496868" lon="5.398979">
        <ele>444.48727</ele>
        <time>2021-06-30T08:31:50Z</time>
      </trkpt>
      <trkpt lat="45.496506" lon="5.398975">
        <ele>444.35068</ele>
        <time>2021-06-30T08:31:51Z</time>
      </trkpt>
      <trkpt lat="45.496147" lon="5.398972">
        <ele>445.20847</ele>
        <time>2021-06-30T08:31:52Z</time>
      </trkpt>
      <trkpt lat="45.495789" lon="5.398969">
        <ele>445.88687</ele>
        <time>2021-06-30T08:31:53Z</time>
      </trkpt>
      <trkpt lat="45.495426" lon="5.398968">
        <ele>446.34921</ele>
        <time>2021-06-30T08:31:54Z</time>
      </trkpt>
      <trkpt lat="45.495052" lon="5.398971">
        <ele>446.79868</ele>
        <time>2021-06-30T08:31:55Z</time>
      </trkpt>
      <trkpt lat="45.494690" lon="5.398978">
        <ele>447.55167</ele>
        <time>2021-06-30T08:31:56Z</time>
      </trkpt>
      <trkpt lat="45.494343" lon="5.398983">
        <ele>447.68344</ele>
        <time>2021-06-30T08:31:57Z</time>
      </trkpt>
      <trkpt lat="45.493977" lon="5.398987">
        <ele>448.00986</ele>
        <time>2021-06-30T08:31:58Z</time>
      </trkpt>
      <trkpt lat="45.493610" lon="5.398990">
        <ele>447.91391</ele>
        <time>2021-06-30T08:31:59Z</time>
      </trkpt>
      <trkpt lat="45.493237" lon="5.398994">
        <ele>448.49905</ele>
        <time>2021-06-30T08:32:00Z</time>
      </trkpt>
      <trkpt lat="45.492870" lon="5.398998">
        <ele>449.33640</ele>
        <time>2021-06-30T08:32:01Z</time>
      </trkpt>
      <trkpt lat="45.492504" lon="5.399001">
        <ele>449.06088</ele>
        <time>2021-06-30T08:32:02Z</time>
      </trkpt>
      <trkpt lat="45.492153" lon="5.399005">
        <ele>449.69235</ele>
        <time>2021-06-30T08:32:03Z</time>
      </trkpt>
      <trkpt lat="45.491798" lon="5.399008">
        <ele>449.85464</ele>
        <time>2021-06-30T08:32:04Z</time>
      </trkpt>
      <trkpt lat="45.491432" lon="5.399012">
        <ele>450.80795</ele>
        <time>2021-06-30T08:32:05Z</time>
      </trkpt>
      <trkpt lat="45.491074" lon="5.399005">
        <ele>450.82956</ele>
        <time>2021-06-30T08:32:06Z</time>
      </trkpt>
      <trkpt lat="45.490711" lon="5.398997">
        <ele>451.02182</ele>
        <time>2021-06-30T08:32:07Z</time>
      </trkpt>
      <trkpt lat="45.490349" lon="5.398975">
        <ele>451.08188</ele>
        <time>2021-06-30T08:32:08Z</time>
      </trkpt>
      <trkpt lat="45.490002" lon="5.398953">
        <ele>451.53317</ele>
        <time>2021-06-30T08:32:09Z</time>
      </trkpt>
      <trkpt lat="45.489651" lon="5.398930">
        <ele>451.80588</ele>
        <time>2021-06-30T08:32:10Z</time>
      </trkpt>
      <trkpt lat="45.489651" lon="5.398930">
        <ele>452.94473</ele>
        <time>2021-06-30T08:32:11Z</time>
      </trkpt>
      <trkpt lat="45.489288" lon="5.398907">
        <ele>453.38840</ele>
        <time>2021-06-30T08:32:12Z</time>
      </trkpt>
      <trkpt lat="45.488922" lon="5.398878">
        <ele>453.60373</ele>
        <time>2021-06-30T08:32:13Z</time>
      </trkpt>
      <trkpt lat="45.488579" lon="5.398839">
        <ele>454.41476</ele>
        <time>2021-06-30T08:32:14Z</time>
      </trkpt>
      <trkpt lat="45.488243" lon="5.398802">
        <ele>454.65439</ele>
        <time>2021-06-30T08:32:15Z</time>
      </trkpt>
      <trkpt lat="45.487911" lon="5.398765">
        <ele>454.42111</ele>
        <time>2021-06-30T08:32:16Z</time>
      </trkpt>
      <trkpt lat="45.487583" lon="5.398728">
        <ele>454.79678</ele>
        <time>2021-06-30T08:32:17Z</time>
      </trkpt>
      <trkpt lat="45.487263" lon="5.398693">
        <ele>455.37448</ele>
        <time>2021-06-30T08:32:18Z</time>
      </trkpt>
      <trkpt lat="45.486938" lon="5.398657">
        <ele>455.51083</ele>
        <time>2021-06-30T08:32:19Z</time>
      </trkpt>
      <trkpt lat="45.486626" lon="5.398622">
        <ele>455.94003</ele>
        <time>2021-06-30T08:32:20Z</time>
      </trkpt>
      <trkpt lat="45.486313" lon="5.398586">
        <ele>455.80106</ele>
        <time>2021-06-30T08:32:21Z</time>
      </trkpt>
      <trkpt lat="45.486004" lon="5.398551">
        <ele>456.33359</ele>
        <time>2021-06-30T08:32:22Z</time>
      </trkpt>
      <trkpt lat="45.485703" lon="5.398517">
        <ele>457.12704</ele>
        <time>2021-06-30T08:32:23Z</time>
      </trkpt>
      <trkpt lat="45.485401" lon="5.398484">
        <ele>459.00375</ele>
        <time>2021-06-30T08:32:24Z</time>
      </trkpt>
      <trkpt lat="45.485104" lon="5.398460">
        <ele>459.42624</ele>
        <time>2021-06-30T08:32:25Z</time>
      </trkpt>
      <trkpt lat="45.484791" lon="5.398436">
        <ele>459.65628</ele>
        <time>2021-06-30T08:32:26Z</time>
      </trkpt>
      <trkpt lat="45.484470" lon="5.398409">
        <ele>460.64255</ele>
        <time>2021-06-30T08:32:27Z</time>
      </trkpt>
      <trkpt lat="45.484154" lon="5.398382">
        <ele>461.42294</ele>
        <time>2021-06-30T08:32:28Z</time>
      </trkpt>
      <trkpt lat="45.483791" lon="5.398351">
        <ele>462.45596</ele>
        <time>2021-06-30T08:32:29Z</time>
      </trkpt>
      <trkpt lat="45.483418" lon="5.398320">
        <ele>463.43552</ele>
        <time>2021-06-30T08:32:30Z</time>
      </trkpt>
      <trkpt lat="45.483055" lon="5.398292">
        <ele>465.19241</ele>
        <time>2021-06-30T08:32:31Z</time>
      </trkpt>
      <trkpt lat="45.482708" lon="5.398281">
        <ele>466.77817</ele>
        <time>2021-06-30T08:32:32Z</time>
      </trkpt>
      <trkpt lat="45.482330" lon="5.398269">
        <ele>466.24490</ele>
        <time>2021-06-30T08:32:33Z</time>
      </trkpt>
      <trkpt lat="45.481976" lon="5.398260">
        <ele>466.38437</ele>
        <time>2021-06-30T08:32:34Z</time>
      </trkpt>
      <trkpt lat="45.481617" lon="5.398269">
        <ele>465.26755</ele>
        <time>2021-06-30T08:32:35Z</time>
      </trkpt>
      <trkpt lat="45.481258" lon="5.398272">
        <ele>465.05502</ele>
        <time>2021-06-30T08:32:36Z</time>
      </trkpt>
      <trkpt lat="45.480911" lon="5.398274">
        <ele>465.37021</ele>
        <time>2021-06-30T08:32:37Z</time>
      </trkpt>
      <trkpt lat="45.480564" lon="5.398284">
        <ele>465.74008</ele>
        <time>2021-06-30T08:32:38Z</time>
      </trkpt>
      <trkpt lat="45.480171" lon="5.398298">
        <ele>465.73221</ele>
        <time>2021-06-30T08:32:39Z</time>
      </trkpt>
      <trkpt lat="45.479813" lon="5.398318">
        <ele>465.73428</ele>
        <time>2021-06-30T08:32:40Z</time>
      </trkpt>
      <trkpt lat="45.479465" lon="5.398344">
        <ele>466.95181</ele>
        <time>2021-06-30T08:32:41Z</time>
      </trkpt>
      <trkpt lat="45.479111" lon="5.398370">
        <ele>465.73166</ele>
        <time>2021-06-30T08:32:42Z</time>
      </trkpt>
      <trkpt lat="45.478756" lon="5.398397">
        <ele>466.31900</ele>
        <time>2021-06-30T08:32:43Z</time>
      </trkpt>
      <trkpt lat="45.478413" lon="5.398436">
        <ele>466.85233</ele>
        <time>2021-06-30T08:32:44Z</time>
      </trkpt>
      <trkpt lat="45.478058" lon="5.398476">
        <ele>467.57266</ele>
        <time>2021-06-30T08:32:45Z</time>
      </trkpt>
      <trkpt lat="45.477688" lon="5.398521">
        <ele>469.03140</ele>
        <time>2021-06-30T08:32:46Z</time>
      </trkpt>
      <trkpt lat="45.477337" lon="5.398569">
        <ele>469.93918</ele>
        <time>2021-06-30T08:32:47Z</time>
      </trkpt>
      <trkpt lat="45.476978" lon="5.398618">
        <ele>470.94156</ele>
        <time>2021-06-30T08:32:48Z</time>
      </trkpt>
      <trkpt lat="45.476631" lon="5.398665">
        <ele>471.05722</ele>
        <time>2021-06-30T08:32:49Z</time>
      </trkpt>
      <trkpt lat="45.476284" lon="5.398727">
        <ele>472.03824</ele>
        <time>2021-06-30T08:32:50Z</time>
      </trkpt>
      <trkpt lat="45.475929" lon="5.398793">
        <ele>473.13254</ele>
        <time>2021-06-30T08:32:51Z</time>
      </trkpt>
      <trkpt lat="45.475578" lon="5.398862">
        <ele>473.92215</ele>
        <time>2021-06-30T08:32:52Z</time>
      </trkpt>
      <trkpt lat="45.475231" lon="5.398938">
        <ele>474.23227</ele>
        <time>2021-06-30T08:32:53Z</time>
      </trkpt>
      <trkpt lat="45.475231" lon="5.398938">
        <ele>474.65018</ele>
        <time>2021-06-30T08:32:54Z</time>
      </trkpt>
      <trkpt lat="45.474884" lon="5.399014">
        <ele>475.55112</ele>
        <time>2021-06-30T08:32:55Z</time>
      </trkpt>
      <trkpt lat="45.474533" lon="5.399091">
        <ele>475.44553</ele>
        <time>2021-06-30T08:32:56Z</time>
      </trkpt>
      <trkpt lat="45.474190" lon="5.399169">
        <ele>476.11447</ele>
        <time>2021-06-30T08:32:57Z</time>
      </trkpt>
      <trkpt lat="45.473846" lon="5.399255">
        <ele>477.69272</ele>
        <time>2021-06-30T08:32:58Z</time>
      </trkpt>
      <trkpt lat="45.473495" lon="5.399349">
        <ele>478.56747</ele>
        <time>2021-06-30T08:32:59Z</time>
      </trkpt>
      <trkpt lat="45.473148" lon="5.399451">
        <ele>479.20541</ele>
        <time>2021-06-30T08:33:00Z</time>
      </trkpt>
      <trkpt lat="45.472809" lon="5.399551">
        <ele>479.59335</ele>
        <time>2021-06-30T08:33:01Z</time>
      </trkpt>
      <trkpt lat="45.472458" lon="5.399656">
        <ele>479.56894</ele>
        <time>2021-06-30T08:33:02Z</time>
      </trkpt>
      <trkpt lat="45.472107" lon="5.399784">
        <ele>481.17526</ele>
        <time>2021-06-30T08:33:03Z</time>
      </trkpt>
      <trkpt lat="45.471737" lon="5.399919">
        <ele>481.98373</ele>
        <time>2021-06-30T08:33:04Z</time>
      </trkpt>
      <trkpt lat="45.471401" lon="5.400054">
        <ele>482.12045</ele>
        <time>2021-06-30T08:33:05Z</time>
      </trkpt>
      <trkpt lat="45.471046" lon="5.400202">
        <ele>484.30771</ele>
        <time>2021-06-30T08:33:06Z</time>
      </trkpt>
      <trkpt lat="45.470726" lon="5.400339">
        <ele>485.53098</ele>
        <time>2021-06-30T08:33:07Z</time>
      </trkpt>
      <trkpt lat="45.470390" lon="5.400479">
        <ele>486.82065</ele>
        <time>2021-06-30T08:33:08Z</time>
      </trkpt>
      <trkpt lat="45.470039" lon="5.400628">
        <ele>488.14853</ele>
        <time>2021-06-30T08:33:09Z</time>
      </trkpt>
      <trkpt lat="45.469707" lon="5.400769">
        <ele>489.60739</ele>
        <time>2021-06-30T08:33:10Z</time>
      </trkpt>
      <trkpt lat="45.469353" lon="5.400918">
        <ele>490.48642</ele>
        <time>2021-06-30T08:33:11Z</time>
      </trkpt>
      <trkpt lat="45.468994" lon="5.401052">
        <ele>491.80527</ele>
        <time>2021-06-30T08:33:12Z</time>
      </trkpt>
      <trkpt lat="45.468601" lon="5.401160">
        <ele>492.30917</ele>
        <time>2021-06-30T08:33:13Z</time>
      </trkpt>
      <trkpt lat="45.468273" lon="5.401236">
        <ele>493.60312</ele>
        <time>2021-06-30T08:33:14Z</time>
      </trkpt>
      <trkpt lat="45.467926" lon="5.401294">
        <ele>497.26291</ele>
        <time>2021-06-30T08:33:15Z</time>
      </trkpt>
      <trkpt lat="45.467575" lon="5.401338">
        <ele>498.45737</ele>
        <time>2021-06-30T08:33:16Z</time>
      </trkpt>
      <trkpt lat="45.467232" lon="5.401356">
        <ele>501.29306</ele>
        <time>2021-06-30T08:33:17Z</time>
      </trkpt>
      <trkpt lat="45.466866" lon="5.401355">
        <ele>503.87973</ele>
        <time>2021-06-30T08:33:18Z</time>
      </trkpt>
      <trkpt lat="45.466530" lon="5.401353">
        <ele>506.32675</ele>
        <time>2021-06-30T08:33:19Z</time>
      </trkpt>
      <trkpt lat="45.466167" lon="5.401352">
        <ele>507.71115</ele>
        <time>2021-06-30T08:33:20Z</time>
      </trkpt>
      <trkpt lat="45.465816" lon="5.401350">
        <ele>510.21713</ele>
        <time>2021-06-30T08:33:21Z</time>
      </trkpt>
      <trkpt lat="45.465462" lon="5.401349">
        <ele>511.75558</ele>
        <time>2021-06-30T08:33:22Z</time>
      </trkpt>
      <trkpt lat="45.465099" lon="5.401347">
        <ele>513.21002</ele>
        <time>2021-06-30T08:33:23Z</time>
      </trkpt>
      <trkpt lat="45.464760" lon="5.401365">
        <ele>514.59967</ele>
        <time>2021-06-30T08:33:24Z</time>
      </trkpt>
      <trkpt lat="45.464405" lon="5.401406">
        <ele>516.65729</ele>
        <time>2021-06-30T08:33:25Z</time>
      </trkpt>
      <trkpt lat="45.464043" lon="5.401448">
        <ele>517.48468</ele>
        <time>2021-06-30T08:33:26Z</time>
      </trkpt>
      <trkpt lat="45.463699" lon="5.401511">
        <ele>519.32306</ele>
        <time>2021-06-30T08:33:27Z</time>
      </trkpt>
      <trkpt lat="45.463352" lon="5.401576">
        <ele>521.28412</ele>
        <time>2021-06-30T08:33:28Z</time>
      </trkpt>
      <trkpt lat="45.463009" lon="5.401642">
        <ele>523.06403</ele>
        <time>2021-06-30T08:33:29Z</time>
      </trkpt>
      <trkpt lat="45.462658" lon="5.401717">
        <ele>524.69208</ele>
        <time>2021-06-30T08:33:30Z</time>
      </trkpt>
      <trkpt lat="45.462658" lon="5.401717">
        <ele>526.69806</ele>
        <time>2021-06-30T08:33:31Z</time>
      </trkpt>
      <trkpt lat="45.462299" lon="5.401794">
        <ele>528.32721</ele>
        <time>2021-06-30T08:33:32Z</time>
      </trkpt>
      <trkpt lat="45.461941" lon="5.401870">
        <ele>530.79547</ele>
        <time>2021-06-30T08:33:33Z</time>
      </trkpt>
      <trkpt lat="45.461590" lon="5.401913">
        <ele>533.12994</ele>
        <time>2021-06-30T08:33:34Z</time>
      </trkpt>
      <trkpt lat="45.461239" lon="5.401941">
        <ele>534.23981</ele>
        <time>2021-06-30T08:33:35Z</time>
      </trkpt>
      <trkpt lat="45.460880" lon="5.401939">
        <ele>535.73956</ele>
        <time>2021-06-30T08:33:36Z</time>
      </trkpt>
      <trkpt lat="45.460529" lon="5.401904">
        <ele>537.82294</ele>
        <time>2021-06-30T08:33:37Z</time>
      </trkpt>
      <trkpt lat="45.460171" lon="5.401842">
        <ele>539.72357</ele>
        <time>2021-06-30T08:33:38Z</time>
      </trkpt>
      <trkpt lat="45.459820" lon="5.401744">
        <ele>541.32281</ele>
        <time>2021-06-30T08:33:39Z</time>
      </trkpt>
      <trkpt lat="45.459476" lon="5.401639">
        <ele>542.49762</ele>
        <time>2021-06-30T08:33:40Z</time>
      </trkpt>
      <trkpt lat="45.459118" lon="5.401517">
        <ele>544.40607</ele>
        <time>2021-06-30T08:33:41Z</time>
      </trkpt>
      <trkpt lat="45.458782" lon="5.401385">
        <ele>547.23529</ele>
        <time>2021-06-30T08:33:42Z</time>
      </trkpt>
      <trkpt lat="45.458427" lon="5.401243">
        <ele>549.38092</ele>
        <time>2021-06-30T08:33:43Z</time>
      </trkpt>
      <trkpt lat="45.458073" lon="5.401102">
        <ele>552.20490</ele>
        <time>2021-06-30T08:33:44Z</time>
      </trkpt>
      <trkpt lat="45.457737" lon="5.400971">
        <ele>554.66437</ele>
        <time>2021-06-30T08:33:45Z</time>
      </trkpt>
      <trkpt lat="45.457386" lon="5.400856">
        <ele>557.52863</ele>
        <time>2021-06-30T08:33:46Z</time>
      </trkpt>
      <trkpt lat="45.457024" lon="5.400764">
        <ele>559.36090</ele>
        <time>2021-06-30T08:33:47Z</time>
      </trkpt>
      <trkpt lat="45.456680" lon="5.400688">
        <ele>561.95844</ele>
        <time>2021-06-30T08:33:48Z</time>
      </trkpt>
      <trkpt lat="45.456318" lon="5.400633">
        <ele>562.90314</ele>
        <time>2021-06-30T08:33:49Z</time>
      </trkpt>
      <trkpt lat="45.455902" lon="5.400591">
        <ele>564.25958</ele>
        <time>2021-06-30T08:33:50Z</time>
      </trkpt>
      <trkpt lat="45.455551" lon="5.400566">
        <ele>565.81317</ele>
        <time>2021-06-30T08:33:51Z</time>
      </trkpt>
      <trkpt lat="45.455219" lon="5.400544">
        <ele>566.92340</ele>
        <time>2021-06-30T08:33:52Z</time>
      </trkpt>
      <trkpt lat="45.454872" lon="5.400529">
        <ele>567.45087</ele>
        <time>2021-06-30T08:33:53Z</time>
      </trkpt>
      <trkpt lat="45.454510" lon="5.400515">
        <ele>567.93951</ele>
        <time>2021-06-30T08:33:54Z</time>
      </trkpt>
      <trkpt lat="45.454155" lon="5.400501">
        <ele>569.03851</ele>
        <time>2021-06-30T08:33:55Z</time>
      </trkpt>
      <trkpt lat="45.453800" lon="5.400466">
        <ele>569.62701</ele>
        <time>2021-06-30T08:33:56Z</time>
      </trkpt>
      <trkpt lat="45.453442" lon="5.400419">
        <ele>570.04449</ele>
        <time>2021-06-30T08:33:57Z</time>
      </trkpt>
      <trkpt lat="45.453075" lon="5.400345">
        <ele>570.06195</ele>
        <time>2021-06-30T08:33:58Z</time>
      </trkpt>
      <trkpt lat="45.452713" lon="5.400264">
        <ele>570.12006</ele>
        <time>2021-06-30T08:33:59Z</time>
      </trkpt>
      <trkpt lat="45.452370" lon="5.400156">
        <ele>570.13483</ele>
        <time>2021-06-30T08:34:00Z</time>
      </trkpt>
      <trkpt lat="45.452019" lon="5.400040">
        <ele>570.07135</ele>
        <time>2021-06-30T08:34:01Z</time>
      </trkpt>
      <trkpt lat="45.451660" lon="5.399907">
        <ele>570.23395</ele>
        <time>2021-06-30T08:34:02Z</time>
      </trkpt>
      <trkpt lat="45.451660" lon="5.399907">
        <ele>569.95538</ele>
        <time>2021-06-30T08:34:03Z</time>
      </trkpt>
      <trkpt lat="45.451298" lon="5.399773">
        <ele>569.29620</ele>
        <time>2021-06-30T08:34:04Z</time>
      </trkpt>
      <trkpt lat="45.450935" lon="5.399639">
        <ele>568.83063</ele>
        <time>2021-06-30T08:34:05Z</time>
      </trkpt>
      <trkpt lat="45.450581" lon="5.399518">
        <ele>568.04913</ele>
        <time>2021-06-30T08:34:06Z</time>
      </trkpt>
      <trkpt lat="45.450218" lon="5.399409">
        <ele>566.81171</ele>
        <time>2021-06-30T08:34:07Z</time>
      </trkpt>
      <trkpt lat="45.449852" lon="5.399333">
        <ele>565.45612</ele>
        <time>2021-06-30T08:34:08Z</time>
      </trkpt>
      <trkpt lat="45.449490" lon="5.399285">
        <ele>564.70782</ele>
        <time>2021-06-30T08:34:09Z</time>
      </trkpt>
      <trkpt lat="45.449120" lon="5.399257">
        <ele>563.30743</ele>
        <time>2021-06-30T08:34:10Z</time>
      </trkpt>
      <trkpt lat="45.448765" lon="5.399268">
        <ele>561.33783</ele>
        <time>2021-06-30T08:34:11Z</time>
      </trkpt>
      <trkpt lat="45.448399" lon="5.399317">
        <ele>559.79816</ele>
        <time>2021-06-30T08:34:12Z</time>
      </trkpt>
      <trkpt lat="45.448029" lon="5.399399">
        <ele>558.77765</ele>
        <time>2021-06-30T08:34:13Z</time>
      </trkpt>
      <trkpt lat="45.447685" lon="5.399507">
        <ele>556.41693</ele>
        <time>2021-06-30T08:34:14Z</time>
      </trkpt>
      <trkpt lat="45.447330" lon="5.399653">
        <ele>553.55670</ele>
        <time>2021-06-30T08:34:15Z</time>
      </trkpt>
      <trkpt lat="45.446987" lon="5.399826">
        <ele>552.84552</ele>
        <time>2021-06-30T08:34:16Z</time>
      </trkpt>
      <trkpt lat="45.446671" lon="5.400005">
        <ele>551.92792</ele>
        <time>2021-06-30T08:34:17Z</time>
      </trkpt>
      <trkpt lat="45.446350" lon="5.400226">
        <ele>550.57159</ele>
        <time>2021-06-30T08:34:18Z</time>
      </trkpt>
      <trkpt lat="45.446041" lon="5.400483">
        <ele>549.64703</ele>
        <time>2021-06-30T08:34:19Z</time>
      </trkpt>
      <trkpt lat="45.445736" lon="5.400758">
        <ele>549.16742</ele>
        <time>2021-06-30T08:34:20Z</time>
      </trkpt>
      <trkpt lat="45.445454" lon="5.401066">
        <ele>548.20770</ele>
        <time>2021-06-30T08:34:21Z</time>
      </trkpt>
      <trkpt lat="45.445187" lon="5.401406">
        <ele>547.57037</ele>
        <time>2021-06-30T08:34:22Z</time>
      </trkpt>
      <trkpt lat="45.444916" lon="5.401759">
        <ele>546.42145</ele>
        <time>2021-06-30T08:34:23Z</time>
      </trkpt>
      <trkpt lat="45.444672" lon="5.402138">
        <ele>545.96381</ele>
        <time>2021-06-30T08:34:24Z</time>
      </trkpt>
      <trkpt lat="45.444443" lon="5.402515">
        <ele>545.04169</ele>
        <time>2021-06-30T08:34:25Z</time>
      </trkpt>
      <trkpt lat="45.444218" lon="5.402919">
        <ele>543.68744</ele>
        <time>2021-06-30T08:34:26Z</time>
      </trkpt>
      <trkpt lat="45.444000" lon="5.403307">
        <ele>542.99652</ele>
        <time>2021-06-30T08:34:27Z</time>
      </trkpt>
      <trkpt lat="45.443779" lon="5.403709">
        <ele>542.19073</ele>
        <time>2021-06-30T08:34:28Z</time>
      </trkpt>
      <trkpt lat="45.443558" lon="5.404111">
        <ele>541.57892</ele>
        <time>2021-06-30T08:34:29Z</time>
      </trkpt>
      <trkpt lat="45.443329" lon="5.404498">
        <ele>541.20660</ele>
        <time>2021-06-30T08:34:30Z</time>
      </trkpt>
      <trkpt lat="45.443100" lon="5.404881">
        <ele>540.46356</ele>
        <time>2021-06-30T08:34:31Z</time>
      </trkpt>
      <trkpt lat="45.443100" lon="5.404881">
        <ele>539.86127</ele>
        <time>2021-06-30T08:34:32Z</time>
      </trkpt>
      <trkpt lat="45.442860" lon="5.405282">
        <ele>539.14178</ele>
        <time>2021-06-30T08:34:33Z</time>
      </trkpt>
      <trkpt lat="45.442608" lon="5.405661">
        <ele>538.48480</ele>
        <time>2021-06-30T08:34:34Z</time>
      </trkpt>
      <trkpt lat="45.442360" lon="5.406024">
        <ele>537.68903</ele>
        <time>2021-06-30T08:34:35Z</time>
      </trkpt>
      <trkpt lat="45.442101" lon="5.406394">
        <ele>536.89215</ele>
        <time>2021-06-30T08:34:36Z</time>
      </trkpt>
      <trkpt lat="45.441853" lon="5.406740">
        <ele>536.18878</ele>
        <time>2021-06-30T08:34:37Z</time>
      </trkpt>
      <trkpt lat="45.441601" lon="5.407104">
        <ele>535.33405</ele>
        <time>2021-06-30T08:34:38Z</time>
      </trkpt>
      <trkpt lat="45.441349" lon="5.407466">
        <ele>534.25641</ele>
        <time>2021-06-30T08:34:39Z</time>
      </trkpt>
      <trkpt lat="45.441109" lon="5.407813">
        <ele>533.21173</ele>
        <time>2021-06-30T08:34:40Z</time>
      </trkpt>
      <trkpt lat="45.440876" lon="5.408180">
        <ele>533.09381</ele>
        <time>2021-06-30T08:34:41Z</time>
      </trkpt>
      <trkpt lat="45.440639" lon="5.408579">
        <ele>533.06696</ele>
        <time>2021-06-30T08:34:42Z</time>
      </trkpt>
      <trkpt lat="45.440418" lon="5.408962">
        <ele>532.33380</ele>
        <time>2021-06-30T08:34:43Z</time>
      </trkpt>
      <trkpt lat="45.440205" lon="5.409366">
        <ele>531.81146</ele>
        <time>2021-06-30T08:34:44Z</time>
      </trkpt>
      <trkpt lat="45.439999" lon="5.409796">
        <ele>531.45160</ele>
        <time>2021-06-30T08:34:45Z</time>
      </trkpt>
      <trkpt lat="45.439800" lon="5.410226">
        <ele>530.82892</ele>
        <time>2021-06-30T08:34:46Z</time>
      </trkpt>
      <trkpt lat="45.439598" lon="5.410682">
        <ele>530.00641</ele>
        <time>2021-06-30T08:34:47Z</time>
      </trkpt>
      <trkpt lat="45.439423" lon="5.411126">
        <ele>529.47980</ele>
        <time>2021-06-30T08:34:48Z</time>
      </trkpt>
      <trkpt lat="45.439247" lon="5.411566">
        <ele>528.73956</ele>
        <time>2021-06-30T08:34:49Z</time>
      </trkpt>
      <trkpt lat="45.439075" lon="5.412028">
        <ele>528.22333</ele>
        <time>2021-06-30T08:34:50Z</time>
      </trkpt>
      <trkpt lat="45.438889" lon="5.412545">
        <ele>527.06622</ele>
        <time>2021-06-30T08:34:51Z</time>
      </trkpt>
      <trkpt lat="45.438725" lon="5.412995">
        <ele>526.53497</ele>
        <time>2021-06-30T08:34:52Z</time>
      </trkpt>
      <trkpt lat="45.438557" lon="5.413455">
        <ele>525.91351</ele>
        <time>2021-06-30T08:34:53Z</time>
      </trkpt>
      <trkpt lat="45.438393" lon="5.413906">
        <ele>525.62726</ele>
        <time>2021-06-30T08:34:54Z</time>
      </trkpt>
      <trkpt lat="45.438217" lon="5.414383">
        <ele>524.87799</ele>
        <time>2021-06-30T08:34:55Z</time>
      </trkpt>
      <trkpt lat="45.438065" lon="5.414802">
        <ele>524.24652</ele>
        <time>2021-06-30T08:34:56Z</time>
      </trkpt>
      <trkpt lat="45.437893" lon="5.415266">
        <ele>523.68524</ele>
        <time>2021-06-30T08:34:57Z</time>
      </trkpt>
      <trkpt lat="45.437717" lon="5.415695">
        <ele>523.57770</ele>
        <time>2021-06-30T08:34:58Z</time>
      </trkpt>
      <trkpt lat="45.437542" lon="5.416126">
        <ele>523.32684</ele>
        <time>2021-06-30T08:34:59Z</time>
      </trkpt>
      <trkpt lat="45.437347" lon="5.416564">
        <ele>523.27081</ele>
        <time>2021-06-30T08:35:00Z</time>
      </trkpt>
      <trkpt lat="45.437145" lon="5.416979">
        <ele>523.41266</ele>
        <time>2021-06-30T08:35:01Z</time>
      </trkpt>
      <trkpt lat="45.436943" lon="5.417393">
        <ele>523.82770</ele>
        <time>2021-06-30T08:35:02Z</time>
      </trkpt>
      <trkpt lat="45.436726" lon="5.417816">
        <ele>523.78912</ele>
        <time>2021-06-30T08:35:03Z</time>
      </trkpt>
      <trkpt lat="45.436508" lon="5.418208">
        <ele>523.67487</ele>
        <time>2021-06-30T08:35:04Z</time>
      </trkpt>
      <trkpt lat="45.436508" lon="5.418208">
        <ele>523.74591</ele>
        <time>2021-06-30T08:35:05Z</time>
      </trkpt>
      <trkpt lat="45.436283" lon="5.418603">
        <ele>523.60736</ele>
        <time>2021-06-30T08:35:06Z</time>
      </trkpt>
      <trkpt lat="45.436047" lon="5.418992">
        <ele>523.72272</ele>
        <time>2021-06-30T08:35:07Z</time>
      </trkpt>
      <trkpt lat="45.435806" lon="5.419364">
        <ele>523.42169</ele>
        <time>2021-06-30T08:35:08Z</time>
      </trkpt>
      <trkpt lat="45.435562" lon="5.419725">
        <ele>523.90607</ele>
        <time>2021-06-30T08:35:09Z</time>
      </trkpt>
      <trkpt lat="45.435307" lon="5.420080">
        <ele>524.37726</ele>
        <time>2021-06-30T08:35:10Z</time>
      </trkpt>
      <trkpt lat="45.435051" lon="5.420414">
        <ele>524.23785</ele>
        <time>2021-06-30T08:35:11Z</time>
      </trkpt>
      <trkpt lat="45.434772" lon="5.420765">
        <ele>524.37872</ele>
        <time>2021-06-30T08:35:12Z</time>
      </trkpt>
      <trkpt lat="45.434502" lon="5.421089">
        <ele>524.21344</ele>
        <time>2021-06-30T08:35:13Z</time>
      </trkpt>
      <trkpt lat="45.434223" lon="5.421411">
        <ele>524.75836</ele>
        <time>2021-06-30T08:35:14Z</time>
      </trkpt>
      <trkpt lat="45.433952" lon="5.421719">
        <ele>524.69879</ele>
        <time>2021-06-30T08:35:15Z</time>
      </trkpt>
      <trkpt lat="45.433685" lon="5.422010">
        <ele>524.27924</ele>
        <time>2021-06-30T08:35:16Z</time>
      </trkpt>
      <trkpt lat="45.433434" lon="5.422281">
        <ele>524.18488</ele>
        <time>2021-06-30T08:35:17Z</time>
      </trkpt>
      <trkpt lat="45.433182" lon="5.422552">
        <ele>524.76740</ele>
        <time>2021-06-30T08:35:18Z</time>
      </trkpt>
      <trkpt lat="45.432911" lon="5.422845">
        <ele>524.83990</ele>
        <time>2021-06-30T08:35:19Z</time>
      </trkpt>
      <trkpt lat="45.432636" lon="5.423137">
        <ele>524.78082</ele>
        <time>2021-06-30T08:35:20Z</time>
      </trkpt>
      <trkpt lat="45.432384" lon="5.423408">
        <ele>524.92755</ele>
        <time>2021-06-30T08:35:21Z</time>
      </trkpt>
      <trkpt lat="45.432133" lon="5.423682">
        <ele>524.85187</ele>
        <time>2021-06-30T08:35:22Z</time>
      </trkpt>
      <trkpt lat="45.431896" lon="5.423936">
        <ele>525.47467</ele>
        <time>2021-06-30T08:35:23Z</time>
      </trkpt>
      <trkpt lat="45.431644" lon="5.424201">
        <ele>525.42120</ele>
        <time>2021-06-30T08:35:24Z</time>
      </trkpt>
      <trkpt lat="45.431393" lon="5.424493">
        <ele>525.21234</ele>
        <time>2021-06-30T08:35:25Z</time>
      </trkpt>
      <trkpt lat="45.431133" lon="5.424804">
        <ele>525.35590</ele>
        <time>2021-06-30T08:35:26Z</time>
      </trkpt>
      <trkpt lat="45.430885" lon="5.425109">
        <ele>525.65607</ele>
        <time>2021-06-30T08:35:27Z</time>
      </trkpt>
      <trkpt lat="45.430626" lon="5.425441">
        <ele>525.72125</ele>
        <time>2021-06-30T08:35:28Z</time>
      </trkpt>
      <trkpt lat="45.430393" lon="5.425741">
        <ele>525.63263</ele>
        <time>2021-06-30T08:35:29Z</time>
      </trkpt>
      <trkpt lat="45.430164" lon="5.426055">
        <ele>526.02325</ele>
        <time>2021-06-30T08:35:30Z</time>
      </trkpt>
      <trkpt lat="45.429943" lon="5.426363">
        <ele>526.52936</ele>
        <time>2021-06-30T08:35:31Z</time>
      </trkpt>
      <trkpt lat="45.429710" lon="5.426710">
        <ele>526.63043</ele>
        <time>2021-06-30T08:35:32Z</time>
      </trkpt>
      <trkpt lat="45.429485" lon="5.427047">
        <ele>526.98602</ele>
        <time>2021-06-30T08:35:33Z</time>
      </trkpt>
      <trkpt lat="45.429260" lon="5.427402">
        <ele>527.44952</ele>
        <time>2021-06-30T08:35:34Z</time>
      </trkpt>
      <trkpt lat="45.429043" lon="5.427761">
        <ele>527.67828</ele>
        <time>2021-06-30T08:35:35Z</time>
      </trkpt>
      <trkpt lat="45.428829" lon="5.428116">
        <ele>527.79181</ele>
        <time>2021-06-30T08:35:36Z</time>
      </trkpt>
      <trkpt lat="45.428627" lon="5.428480">
        <ele>528.54303</ele>
        <time>2021-06-30T08:35:37Z</time>
      </trkpt>
      <trkpt lat="45.428425" lon="5.428851">
        <ele>529.07159</ele>
        <time>2021-06-30T08:35:38Z</time>
      </trkpt>
      <trkpt lat="45.428425" lon="5.428851">
        <ele>529.43365</ele>
        <time>2021-06-30T08:35:39Z</time>
      </trkpt>
      <trkpt lat="45.428204" lon="5.429252">
        <ele>529.96637</ele>
        <time>2021-06-30T08:35:40Z</time>
      </trkpt>
      <trkpt lat="45.428013" lon="5.429649">
        <ele>530.43353</ele>
        <time>2021-06-30T08:35:41Z</time>
      </trkpt>
      <trkpt lat="45.427822" lon="5.430042">
        <ele>531.24249</ele>
        <time>2021-06-30T08:35:42Z</time>
      </trkpt>
      <trkpt lat="45.427631" lon="5.430434">
        <ele>531.83429</ele>
        <time>2021-06-30T08:35:43Z</time>
      </trkpt>
      <trkpt lat="45.427452" lon="5.430848">
        <ele>531.79425</ele>
        <time>2021-06-30T08:35:44Z</time>
      </trkpt>
      <trkpt lat="45.427280" lon="5.431241">
        <ele>532.34479</ele>
        <time>2021-06-30T08:35:45Z</time>
      </trkpt>
      <trkpt lat="45.427113" lon="5.431651">
        <ele>532.56171</ele>
        <time>2021-06-30T08:35:46Z</time>
      </trkpt>
      <trkpt lat="45.426949" lon="5.432071">
        <ele>533.03009</ele>
        <time>2021-06-30T08:35:47Z</time>
      </trkpt>
      <trkpt lat="45.426792" lon="5.432488">
        <ele>533.59821</ele>
        <time>2021-06-30T08:35:48Z</time>
      </trkpt>
      <trkpt lat="45.426636" lon="5.432921">
        <ele>534.41400</ele>
        <time>2021-06-30T08:35:49Z</time>
      </trkpt>
      <trkpt lat="45.426483" lon="5.433360">
        <ele>535.46246</ele>
        <time>2021-06-30T08:35:50Z</time>
      </trkpt>
      <trkpt lat="45.426334" lon="5.433806">
        <ele>536.08685</ele>
        <time>2021-06-30T08:35:51Z</time>
      </trkpt>
      <trkpt lat="45.426189" lon="5.434262">
        <ele>536.68585</ele>
        <time>2021-06-30T08:35:52Z</time>
      </trkpt>
      <trkpt lat="45.426052" lon="5.434702">
        <ele>538.86823</ele>
        <time>2021-06-30T08:35:53Z</time>
      </trkpt>
      <trkpt lat="45.425926" lon="5.435136">
        <ele>540.28326</ele>
        <time>2021-06-30T08:35:54Z</time>
      </trkpt>
      <trkpt lat="45.425812" lon="5.435571">
        <ele>542.08868</ele>
        <time>2021-06-30T08:35:55Z</time>
      </trkpt>
      <trkpt lat="45.425705" lon="5.436003">
        <ele>543.05743</ele>
        <time>2021-06-30T08:35:56Z</time>
      </trkpt>
      <trkpt lat="45.425602" lon="5.436437">
        <ele>543.80182</ele>
        <time>2021-06-30T08:35:57Z</time>
      </trkpt>
      <trkpt lat="45.425507" lon="5.436836">
        <ele>545.92743</ele>
        <time>2021-06-30T08:35:58Z</time>
      </trkpt>
      <trkpt lat="45.425423" lon="5.437261">
        <ele>547.11700</ele>
        <time>2021-06-30T08:35:59Z</time>
      </trkpt>
      <trkpt lat="45.425331" lon="5.437727">
        <ele>547.56403</ele>
        <time>2021-06-30T08:36:00Z</time>
      </trkpt>
      <trkpt lat="45.425247" lon="5.438158">
        <ele>548.19049</ele>
        <time>2021-06-30T08:36:01Z</time>
      </trkpt>
      <trkpt lat="45.425159" lon="5.438599">
        <ele>549.81537</ele>
        <time>2021-06-30T08:36:02Z</time>
      </trkpt>
      <trkpt lat="45.425072" lon="5.439065">
        <ele>550.42365</ele>
        <time>2021-06-30T08:36:03Z</time>
      </trkpt>
      <trkpt lat="45.424980" lon="5.439530">
        <ele>551.38849</ele>
        <time>2021-06-30T08:36:04Z</time>
      </trkpt>
      <trkpt lat="45.424889" lon="5.440000">
        <ele>552.27228</ele>
        <time>2021-06-30T08:36:05Z</time>
      </trkpt>
      <trkpt lat="45.424801" lon="5.440456">
        <ele>552.88348</ele>
        <time>2021-06-30T08:36:06Z</time>
      </trkpt>
      <trkpt lat="45.424713" lon="5.440913">
        <ele>553.27594</ele>
        <time>2021-06-30T08:36:07Z</time>
      </trkpt>
      <trkpt lat="45.424618" lon="5.441372">
        <ele>553.43732</ele>
        <time>2021-06-30T08:36:08Z</time>
      </trkpt>
      <trkpt lat="45.424522" lon="5.441827">
        <ele>553.87579</ele>
        <time>2021-06-30T08:36:09Z</time>
      </trkpt>
      <trkpt lat="45.424416" lon="5.442269">
        <ele>554.99591</ele>
        <time>2021-06-30T08:36:10Z</time>
      </trkpt>
      <trkpt lat="45.424301" lon="5.442711">
        <ele>556.19550</ele>
        <time>2021-06-30T08:36:11Z</time>
      </trkpt>
      <trkpt lat="45.424187" lon="5.443154">
        <ele>556.35553</ele>
        <time>2021-06-30T08:36:12Z</time>
      </trkpt>
      <trkpt lat="45.424061" lon="5.443596">
        <ele>557.19025</ele>
        <time>2021-06-30T08:36:13Z</time>
      </trkpt>
      <trkpt lat="45.423923" lon="5.444012">
        <ele>557.34674</ele>
        <time>2021-06-30T08:36:14Z</time>
      </trkpt>
      <trkpt lat="45.423782" lon="5.444443">
        <ele>557.48615</ele>
        <time>2021-06-30T08:36:15Z</time>
      </trkpt>
      <trkpt lat="45.423782" lon="5.444443">
        <ele>557.30695</ele>
        <time>2021-06-30T08:36:16Z</time>
      </trkpt>
      <trkpt lat="45.423618" lon="5.444868">
        <ele>556.95294</ele>
        <time>2021-06-30T08:36:17Z</time>
      </trkpt>
      <trkpt lat="45.423454" lon="5.445297">
        <ele>557.16486</ele>
        <time>2021-06-30T08:36:18Z</time>
      </trkpt>
      <trkpt lat="45.423271" lon="5.445713">
        <ele>557.26910</ele>
        <time>2021-06-30T08:36:19Z</time>
      </trkpt>
      <trkpt lat="45.423084" lon="5.446143">
        <ele>557.05865</ele>
        <time>2021-06-30T08:36:20Z</time>
      </trkpt>
      <trkpt lat="45.422890" lon="5.446539">
        <ele>556.75616</ele>
        <time>2021-06-30T08:36:21Z</time>
      </trkpt>
      <trkpt lat="45.422691" lon="5.446941">
        <ele>556.88470</ele>
        <time>2021-06-30T08:36:22Z</time>
      </trkpt>
      <trkpt lat="45.422478" lon="5.447361">
        <ele>556.26642</ele>
        <time>2021-06-30T08:36:23Z</time>
      </trkpt>
      <trkpt lat="45.422249" lon="5.447779">
        <ele>556.19257</ele>
        <time>2021-06-30T08:36:24Z</time>
      </trkpt>
      <trkpt lat="45.421986" lon="5.448237">
        <ele>554.65656</ele>
        <time>2021-06-30T08:36:25Z</time>
      </trkpt>
      <trkpt lat="45.421719" lon="5.448699">
        <ele>552.06989</ele>
        <time>2021-06-30T08:36:26Z</time>
      </trkpt>
      <trkpt lat="45.421421" lon="5.449178">
        <ele>551.51886</ele>
        <time>2021-06-30T08:36:27Z</time>
      </trkpt>
      <trkpt lat="45.421104" lon="5.449672">
        <ele>549.53912</ele>
        <time>2021-06-30T08:36:28Z</time>
      </trkpt>
      <trkpt lat="45.420792" lon="5.450177">
        <ele>548.62091</ele>
        <time>2021-06-30T08:36:29Z</time>
      </trkpt>
      <trkpt lat="45.420506" lon="5.450621">
        <ele>547.41656</ele>
        <time>2021-06-30T08:36:30Z</time>
      </trkpt>
      <trkpt lat="45.420227" lon="5.451052">
        <ele>547.03522</ele>
        <time>2021-06-30T08:36:31Z</time>
      </trkpt>
      <trkpt lat="45.419971" lon="5.451470">
        <ele>544.90704</ele>
        <time>2021-06-30T08:36:32Z</time>
      </trkpt>
      <trkpt lat="45.419720" lon="5.451913">
        <ele>543.46515</ele>
        <time>2021-06-30T08:36:33Z</time>
      </trkpt>
      <trkpt lat="45.419495" lon="5.452333">
        <ele>542.13873</ele>
        <time>2021-06-30T08:36:34Z</time>
      </trkpt>
      <trkpt lat="45.419296" lon="5.452754">
        <ele>541.32135</ele>
        <time>2021-06-30T08:36:35Z</time>
      </trkpt>
      <trkpt lat="45.419090" lon="5.453193">
        <ele>540.07941</ele>
        <time>2021-06-30T08:36:36Z</time>
      </trkpt>
      <trkpt lat="45.418911" lon="5.453613">
        <ele>539.22028</ele>
        <time>2021-06-30T08:36:37Z</time>
      </trkpt>
      <trkpt lat="45.418716" lon="5.454064">
        <ele>537.85675</ele>
        <time>2021-06-30T08:36:38Z</time>
      </trkpt>
      <trkpt lat="45.418526" lon="5.454505">
        <ele>536.81183</ele>
        <time>2021-06-30T08:36:39Z</time>
      </trkpt>
      <trkpt lat="45.418339" lon="5.454920">
        <ele>535.70367</ele>
        <time>2021-06-30T08:36:40Z</time>
      </trkpt>
      <trkpt lat="45.418140" lon="5.455336">
        <ele>534.55060</ele>
        <time>2021-06-30T08:36:41Z</time>
      </trkpt>
      <trkpt lat="45.417934" lon="5.455755">
        <ele>533.59283</ele>
        <time>2021-06-30T08:36:42Z</time>
      </trkpt>
      <trkpt lat="45.417721" lon="5.456157">
        <ele>532.27203</ele>
        <time>2021-06-30T08:36:43Z</time>
      </trkpt>
      <trkpt lat="45.417488" lon="5.456554">
        <ele>531.12311</ele>
        <time>2021-06-30T08:36:44Z</time>
      </trkpt>
      <trkpt lat="45.417263" lon="5.456920">
        <ele>529.76202</ele>
        <time>2021-06-30T08:36:45Z</time>
      </trkpt>
      <trkpt lat="45.417007" lon="5.457306">
        <ele>529.16168</ele>
        <time>2021-06-30T08:36:46Z</time>
      </trkpt>
      <trkpt lat="45.416748" lon="5.457661">
        <ele>528.75531</ele>
        <time>2021-06-30T08:36:47Z</time>
      </trkpt>
      <trkpt lat="45.416473" lon="5.458013">
        <ele>527.53937</ele>
        <time>2021-06-30T08:36:48Z</time>
      </trkpt>
      <trkpt lat="45.416473" lon="5.458013">
        <ele>526.78107</ele>
        <time>2021-06-30T08:36:49Z</time>
      </trkpt>
      <trkpt lat="45.416199" lon="5.458340">
        <ele>526.08185</ele>
        <time>2021-06-30T08:36:50Z</time>
      </trkpt>
      <trkpt lat="45.415913" lon="5.458665">
        <ele>526.16364</ele>
        <time>2021-06-30T08:36:51Z</time>
      </trkpt>
      <trkpt lat="45.415630" lon="5.458975">
        <ele>526.10150</ele>
        <time>2021-06-30T08:36:52Z</time>
      </trkpt>
      <trkpt lat="45.415344" lon="5.459271">
        <ele>526.90143</ele>
        <time>2021-06-30T08:36:53Z</time>
      </trkpt>
      <trkpt lat="45.415066" lon="5.459549">
        <ele>527.45819</ele>
        <time>2021-06-30T08:36:54Z</time>
      </trkpt>
      <trkpt lat="45.414768" lon="5.459824">
        <ele>528.08649</ele>
        <time>2021-06-30T08:36:55Z</time>
      </trkpt>
      <trkpt lat="45.414474" lon="5.460096">
        <ele>528.59259</ele>
        <time>2021-06-30T08:36:56Z</time>
      </trkpt>
      <trkpt lat="45.414188" lon="5.460364">
        <ele>529.24420</ele>
        <time>2021-06-30T08:36:57Z</time>
      </trkpt>
      <trkpt lat="45.413891" lon="5.460637">
        <ele>529.64020</ele>
        <time>2021-06-30T08:36:58Z</time>
      </trkpt>
      <trkpt lat="45.413589" lon="5.460909">
        <ele>530.16498</ele>
        <time>2021-06-30T08:36:59Z</time>
      </trkpt>
      <trkpt lat="45.413284" lon="5.461185">
        <ele>530.25262</ele>
        <time>2021-06-30T08:37:00Z</time>
      </trkpt>
      <trkpt lat="45.412975" lon="5.461452">
        <ele>530.85284</ele>
        <time>2021-06-30T08:37:01Z</time>
      </trkpt>
      <trkpt lat="45.412655" lon="5.461724">
        <ele>531.08551</ele>
        <time>2021-06-30T08:37:02Z</time>
      </trkpt>
      <trkpt lat="45.412338" lon="5.461974">
        <ele>530.56073</ele>
        <time>2021-06-30T08:37:03Z</time>
      </trkpt>
      <trkpt lat="45.412018" lon="5.462213">
        <ele>530.56659</ele>
        <time>2021-06-30T08:37:04Z</time>
      </trkpt>
      <trkpt lat="45.411697" lon="5.462442">
        <ele>530.21344</ele>
        <time>2021-06-30T08:37:05Z</time>
      </trkpt>
      <trkpt lat="45.411369" lon="5.462650">
        <ele>530.72137</ele>
        <time>2021-06-30T08:37:06Z</time>
      </trkpt>
      <trkpt lat="45.411037" lon="5.462845">
        <ele>529.79401</ele>
        <time>2021-06-30T08:37:07Z</time>
      </trkpt>
      <trkpt lat="45.410709" lon="5.463026">
        <ele>528.89825</ele>
        <time>2021-06-30T08:37:08Z</time>
      </trkpt>
      <trkpt lat="45.410358" lon="5.463181">
        <ele>528.35992</ele>
        <time>2021-06-30T08:37:09Z</time>
      </trkpt>
      <trkpt lat="45.410015" lon="5.463325">
        <ele>527.97931</ele>
        <time>2021-06-30T08:37:10Z</time>
      </trkpt>
      <trkpt lat="45.409672" lon="5.463436">
        <ele>526.28656</ele>
        <time>2021-06-30T08:37:11Z</time>
      </trkpt>
      <trkpt lat="45.409340" lon="5.463535">
        <ele>525.20258</ele>
        <time>2021-06-30T08:37:12Z</time>
      </trkpt>
      <trkpt lat="45.408974" lon="5.463617">
        <ele>523.52325</ele>
        <time>2021-06-30T08:37:13Z</time>
      </trkpt>
      <trkpt lat="45.408638" lon="5.463675">
        <ele>522.83966</ele>
        <time>2021-06-30T08:37:14Z</time>
      </trkpt>
      <trkpt lat="45.408279" lon="5.463730">
        <ele>523.18512</ele>
        <time>2021-06-30T08:37:15Z</time>
      </trkpt>
      <trkpt lat="45.407909" lon="5.463777">
        <ele>522.15656</ele>
        <time>2021-06-30T08:37:16Z</time>
      </trkpt>
      <trkpt lat="45.407547" lon="5.463811">
        <ele>519.94342</ele>
        <time>2021-06-30T08:37:17Z</time>
      </trkpt>
      <trkpt lat="45.407185" lon="5.463844">
        <ele>519.20367</ele>
        <time>2021-06-30T08:37:18Z</time>
      </trkpt>
      <trkpt lat="45.406818" lon="5.463878">
        <ele>518.83307</ele>
        <time>2021-06-30T08:37:19Z</time>
      </trkpt>
      <trkpt lat="45.406448" lon="5.463912">
        <ele>517.92181</ele>
        <time>2021-06-30T08:37:20Z</time>
      </trkpt>
      <trkpt lat="45.406082" lon="5.463946">
        <ele>517.59454</ele>
        <time>2021-06-30T08:37:21Z</time>
      </trkpt>
      <trkpt lat="45.405727" lon="5.463978">
        <ele>517.26398</ele>
        <time>2021-06-30T08:37:22Z</time>
      </trkpt>
      <trkpt lat="45.405727" lon="5.463978">
        <ele>516.41620</ele>
        <time>2021-06-30T08:37:23Z</time>
      </trkpt>
      <trkpt lat="45.405373" lon="5.464011">
        <ele>514.99078</ele>
        <time>2021-06-30T08:37:24Z</time>
      </trkpt>
      <trkpt lat="45.405018" lon="5.464044">
        <ele>514.68073</ele>
        <time>2021-06-30T08:37:25Z</time>
      </trkpt>
      <trkpt lat="45.404655" lon="5.464089">
        <ele>513.42157</ele>
        <time>2021-06-30T08:37:26Z</time>
      </trkpt>
      <trkpt lat="45.404297" lon="5.464134">
        <ele>512.38849</ele>
        <time>2021-06-30T08:37:27Z</time>
      </trkpt>
      <trkpt lat="45.403942" lon="5.464178">
        <ele>511.55344</ele>
        <time>2021-06-30T08:37:28Z</time>
      </trkpt>
      <trkpt lat="45.403564" lon="5.464234">
        <ele>510.53647</ele>
        <time>2021-06-30T08:37:29Z</time>
      </trkpt>
      <trkpt lat="45.403198" lon="5.464296">
        <ele>508.35239</ele>
        <time>2021-06-30T08:37:30Z</time>
      </trkpt>
      <trkpt lat="45.402836" lon="5.464359">
        <ele>506.63803</ele>
        <time>2021-06-30T08:37:31Z</time>
      </trkpt>
      <trkpt lat="45.402470" lon="5.464421">
        <ele>505.15341</ele>
        <time>2021-06-30T08:37:32Z</time>
      </trkpt>
      <trkpt lat="45.402115" lon="5.464482">
        <ele>504.07187</ele>
        <time>2021-06-30T08:37:33Z</time>
      </trkpt>
      <trkpt lat="45.401768" lon="5.464548">
        <ele>503.49814</ele>
        <time>2021-06-30T08:37:34Z</time>
      </trkpt>
      <trkpt lat="45.401402" lon="5.464623">
        <ele>502.95529</ele>
        <time>2021-06-30T08:37:35Z</time>
      </trkpt>
      <trkpt lat="45.401035" lon="5.464699">
        <ele>501.92075</ele>
        <time>2021-06-30T08:37:36Z</time>
      </trkpt>
      <trkpt lat="45.400692" lon="5.464779">
        <ele>500.96664</ele>
        <time>2021-06-30T08:37:37Z</time>
      </trkpt>
      <trkpt lat="45.400318" lon="5.464878">
        <ele>500.72775</ele>
        <time>2021-06-30T08:37:38Z</time>
      </trkpt>
      <trkpt lat="45.399971" lon="5.464980">
        <ele>499.78598</ele>
        <time>2021-06-30T08:37:39Z</time>
      </trkpt>
      <trkpt lat="45.399624" lon="5.465081">
        <ele>498.75400</ele>
        <time>2021-06-30T08:37:40Z</time>
      </trkpt>
      <trkpt lat="45.399254" lon="5.465189">
        <ele>498.65121</ele>
        <time>2021-06-30T08:37:41Z</time>
      </trkpt>
      <trkpt lat="45.398903" lon="5.465296">
        <ele>498.13535</ele>
        <time>2021-06-30T08:37:42Z</time>
      </trkpt>
      <trkpt lat="45.398537" lon="5.465421">
        <ele>497.63510</ele>
        <time>2021-06-30T08:37:43Z</time>
      </trkpt>
      <trkpt lat="45.398193" lon="5.465539">
        <ele>497.23666</ele>
        <time>2021-06-30T08:37:44Z</time>
      </trkpt>
      <trkpt lat="45.397861" lon="5.465653">
        <ele>497.20493</ele>
        <time>2021-06-30T08:37:45Z</time>
      </trkpt>
      <trkpt lat="45.397491" lon="5.465780">
        <ele>496.57504</ele>
        <time>2021-06-30T08:37:46Z</time>
      </trkpt>
      <trkpt lat="45.397144" lon="5.465922">
        <ele>495.97055</ele>
        <time>2021-06-30T08:37:47Z</time>
      </trkpt>
      <trkpt lat="45.396809" lon="5.466059">
        <ele>495.25998</ele>
        <time>2021-06-30T08:37:48Z</time>
      </trkpt>
      <trkpt lat="45.396454" lon="5.466211">
        <ele>494.76620</ele>
        <time>2021-06-30T08:37:49Z</time>
      </trkpt>
      <trkpt lat="45.396095" lon="5.466370">
        <ele>494.02219</ele>
        <time>2021-06-30T08:37:50Z</time>
      </trkpt>
      <trkpt lat="45.396095" lon="5.466370">
        <ele>492.96445</ele>
        <time>2021-06-30T08:37:51Z</time>
      </trkpt>
      <trkpt lat="45.395737" lon="5.466536">
        <ele>492.31479</ele>
        <time>2021-06-30T08:37:52Z</time>
      </trkpt>
      <trkpt lat="45.395405" lon="5.466706">
        <ele>491.55722</ele>
        <time>2021-06-30T08:37:53Z</time>
      </trkpt>
      <trkpt lat="45.395073" lon="5.466874">
        <ele>490.96274</ele>
        <time>2021-06-30T08:37:54Z</time>
      </trkpt>
      <trkpt lat="45.394737" lon="5.467044">
        <ele>490.15536</ele>
        <time>2021-06-30T08:37:55Z</time>
      </trkpt>
      <trkpt lat="45.394386" lon="5.467222">
        <ele>489.90964</ele>
        <time>2021-06-30T08:37:56Z</time>
      </trkpt>
      <trkpt lat="45.394039" lon="5.467409">
        <ele>489.46457</ele>
        <time>2021-06-30T08:37:57Z</time>
      </trkpt>
      <trkpt lat="45.393688" lon="5.467606">
        <ele>488.71201</ele>
        <time>2021-06-30T08:37:58Z</time>
      </trkpt>
      <trkpt lat="45.393360" lon="5.467793">
        <ele>488.25742</ele>
        <time>2021-06-30T08:37:59Z</time>
      </trkpt>
      <trkpt lat="45.393028" lon="5.467982">
        <ele>487.74350</ele>
        <time>2021-06-30T08:38:00Z</time>
      </trkpt>
      <trkpt lat="45.392708" lon="5.468180">
        <ele>487.76328</ele>
        <time>2021-06-30T08:38:01Z</time>
      </trkpt>
      <trkpt lat="45.392384" lon="5.468377">
        <ele>487.20883</ele>
        <time>2021-06-30T08:38:02Z</time>
      </trkpt>
      <trkpt lat="45.392048" lon="5.468593">
        <ele>486.43210</ele>
        <time>2021-06-30T08:38:03Z</time>
      </trkpt>
      <trkpt lat="45.391720" lon="5.468808">
        <ele>486.25986</ele>
        <time>2021-06-30T08:38:04Z</time>
      </trkpt>
      <trkpt lat="45.391399" lon="5.469025">
        <ele>485.70297</ele>
        <time>2021-06-30T08:38:05Z</time>
      </trkpt>
      <trkpt lat="45.391064" lon="5.469257">
        <ele>485.34433</ele>
        <time>2021-06-30T08:38:06Z</time>
      </trkpt>
      <trkpt lat="45.390755" lon="5.469472">
        <ele>484.62265</ele>
        <time>2021-06-30T08:38:07Z</time>
      </trkpt>
      <trkpt lat="45.390450" lon="5.469692">
        <ele>484.24631</ele>
        <time>2021-06-30T08:38:08Z</time>
      </trkpt>
      <trkpt lat="45.390141" lon="5.469912">
        <ele>483.39365</ele>
        <time>2021-06-30T08:38:09Z</time>
      </trkpt>
      <trkpt lat="45.389828" lon="5.470139">
        <ele>483.14645</ele>
        <time>2021-06-30T08:38:10Z</time>
      </trkpt>
      <trkpt lat="45.389511" lon="5.470387">
        <ele>482.44833</ele>
        <time>2021-06-30T08:38:11Z</time>
      </trkpt>
      <trkpt lat="45.389183" lon="5.470658">
        <ele>482.08676</ele>
        <time>2021-06-30T08:38:12Z</time>
      </trkpt>
      <trkpt lat="45.388882" lon="5.470913">
        <ele>481.57712</ele>
        <time>2021-06-30T08:38:13Z</time>
      </trkpt>
      <trkpt lat="45.388569" lon="5.471188">
        <ele>481.02036</ele>
        <time>2021-06-30T08:38:14Z</time>
      </trkpt>
      <trkpt lat="45.388268" lon="5.471454">
        <ele>480.62363</ele>
        <time>2021-06-30T08:38:15Z</time>
      </trkpt>
      <trkpt lat="45.387974" lon="5.471710">
        <ele>480.00424</ele>
        <time>2021-06-30T08:38:16Z</time>
      </trkpt>
      <trkpt lat="45.387665" lon="5.471982">
        <ele>479.23349</ele>
        <time>2021-06-30T08:38:17Z</time>
      </trkpt>
      <trkpt lat="45.387352" lon="5.472264">
        <ele>479.17612</ele>
        <time>2021-06-30T08:38:18Z</time>
      </trkpt>
      <trkpt lat="45.387047" lon="5.472549">
        <ele>477.80392</ele>
        <time>2021-06-30T08:38:19Z</time>
      </trkpt>
      <trkpt lat="45.386723" lon="5.472851">
        <ele>476.92368</ele>
        <time>2021-06-30T08:38:20Z</time>
      </trkpt>
      <trkpt lat="45.386425" lon="5.473125">
        <ele>476.21994</ele>
        <time>2021-06-30T08:38:21Z</time>
      </trkpt>
      <trkpt lat="45.386131" lon="5.473400">
        <ele>475.27939</ele>
        <time>2021-06-30T08:38:22Z</time>
      </trkpt>
      <trkpt lat="45.385838" lon="5.473671">
        <ele>474.77097</ele>
        <time>2021-06-30T08:38:23Z</time>
      </trkpt>
      <trkpt lat="45.385540" lon="5.473974">
        <ele>474.21109</ele>
        <time>2021-06-30T08:38:24Z</time>
      </trkpt>
      <trkpt lat="45.385242" lon="5.474286">
        <ele>473.48013</ele>
        <time>2021-06-30T08:38:25Z</time>
      </trkpt>
      <trkpt lat="45.385242" lon="5.474286">
        <ele>472.86734</ele>
        <time>2021-06-30T08:38:26Z</time>
      </trkpt>
      <trkpt lat="45.384968" lon="5.474572">
        <ele>472.34079</ele>
        <time>2021-06-30T08:38:27Z</time>
      </trkpt>
      <trkpt lat="45.384697" lon="5.474852">
        <ele>471.69376</ele>
        <time>2021-06-30T08:38:28Z</time>
      </trkpt>
      <trkpt lat="45.384438" lon="5.475124">
        <ele>470.88181</ele>
        <time>2021-06-30T08:38:29Z</time>
      </trkpt>
      <trkpt lat="45.384174" lon="5.475400">
        <ele>470.26468</ele>
        <time>2021-06-30T08:38:30Z</time>
      </trkpt>
      <trkpt lat="45.383938" lon="5.475657">
        <ele>470.03085</ele>
        <time>2021-06-30T08:38:31Z</time>
      </trkpt>
      <trkpt lat="45.383686" lon="5.475927">
        <ele>469.72623</ele>
        <time>2021-06-30T08:38:32Z</time>
      </trkpt>
      <trkpt lat="45.383438" lon="5.476196">
        <ele>469.44760</ele>
        <time>2021-06-30T08:38:33Z</time>
      </trkpt>
      <trkpt lat="45.383186" lon="5.476464">
        <ele>469.10922</ele>
        <time>2021-06-30T08:38:34Z</time>
      </trkpt>
      <trkpt lat="45.382935" lon="5.476738">
        <ele>468.77731</ele>
        <time>2021-06-30T08:38:35Z</time>
      </trkpt>
      <trkpt lat="45.382687" lon="5.477006">
        <ele>468.16867</ele>
        <time>2021-06-30T08:38:36Z</time>
      </trkpt>
      <trkpt lat="45.382450" lon="5.477265">
        <ele>467.71988</ele>
        <time>2021-06-30T08:38:37Z</time>
      </trkpt>
      <trkpt lat="45.382210" lon="5.477533">
        <ele>467.52542</ele>
        <time>2021-06-30T08:38:38Z</time>
      </trkpt>
      <trkpt lat="45.381962" lon="5.477792">
        <ele>467.22049</ele>
        <time>2021-06-30T08:38:39Z</time>
      </trkpt>
      <trkpt lat="45.381710" lon="5.478059">
        <ele>466.69260</ele>
        <time>2021-06-30T08:38:40Z</time>
      </trkpt>
      <trkpt lat="45.381466" lon="5.478315">
        <ele>466.59152</ele>
        <time>2021-06-30T08:38:41Z</time>
      </trkpt>
      <trkpt lat="45.381210" lon="5.478562">
        <ele>465.84744</ele>
        <time>2021-06-30T08:38:42Z</time>
      </trkpt>
      <trkpt lat="45.380943" lon="5.478820">
        <ele>465.52591</ele>
        <time>2021-06-30T08:38:43Z</time>
      </trkpt>
      <trkpt lat="45.380688" lon="5.479059">
        <ele>465.01071</ele>
        <time>2021-06-30T08:38:44Z</time>
      </trkpt>
      <trkpt lat="45.380432" lon="5.479298">
        <ele>464.26675</ele>
        <time>2021-06-30T08:38:45Z</time>
      </trkpt>
      <trkpt lat="45.380165" lon="5.479531">
        <ele>463.82382</ele>
        <time>2021-06-30T08:38:46Z</time>
      </trkpt>
      <trkpt lat="45.379898" lon="5.479761">
        <ele>463.29794</ele>
        <time>2021-06-30T08:38:47Z</time>
      </trkpt>
      <trkpt lat="45.379627" lon="5.479990">
        <ele>462.79294</ele>
        <time>2021-06-30T08:38:48Z</time>
      </trkpt>
      <trkpt lat="45.379353" lon="5.480202">
        <ele>462.30276</ele>
        <time>2021-06-30T08:38:49Z</time>
      </trkpt>
      <trkpt lat="45.379070" lon="5.480420">
        <ele>462.10373</ele>
        <time>2021-06-30T08:38:50Z</time>
      </trkpt>
      <trkpt lat="45.378803" lon="5.480619">
        <ele>461.59885</ele>
        <time>2021-06-30T08:38:51Z</time>
      </trkpt>
      <trkpt lat="45.378521" lon="5.480817">
        <ele>461.20261</ele>
        <time>2021-06-30T08:38:52Z</time>
      </trkpt>
      <trkpt lat="45.378246" lon="5.481011">
        <ele>460.14871</ele>
        <time>2021-06-30T08:38:53Z</time>
      </trkpt>
      <trkpt lat="45.377960" lon="5.481208">
        <ele>459.31161</ele>
        <time>2021-06-30T08:38:54Z</time>
      </trkpt>
      <trkpt lat="45.377670" lon="5.481404">
        <ele>458.54922</ele>
        <time>2021-06-30T08:38:55Z</time>
      </trkpt>
      <trkpt lat="45.377380" lon="5.481599">
        <ele>457.67679</ele>
        <time>2021-06-30T08:38:56Z</time>
      </trkpt>
      <trkpt lat="45.377094" lon="5.481793">
        <ele>456.73087</ele>
        <time>2021-06-30T08:38:57Z</time>
      </trkpt>
      <trkpt lat="45.376808" lon="5.481987">
        <ele>455.67587</ele>
        <time>2021-06-30T08:38:58Z</time>
      </trkpt>
      <trkpt lat="45.376541" lon="5.482169">
        <ele>454.43161</ele>
        <time>2021-06-30T08:38:59Z</time>
      </trkpt>
      <trkpt lat="45.376255" lon="5.482373">
        <ele>453.58548</ele>
        <time>2021-06-30T08:39:00Z</time>
      </trkpt>
      <trkpt lat="45.375969" lon="5.482575">
        <ele>452.35776</ele>
        <time>2021-06-30T08:39:01Z</time>
      </trkpt>
      <trkpt lat="45.375706" lon="5.482781">
        <ele>451.46408</ele>
        <time>2021-06-30T08:39:02Z</time>
      </trkpt>
      <trkpt lat="45.375706" lon="5.482781">
        <ele>450.09268</ele>
        <time>2021-06-30T08:39:03Z</time>
      </trkpt>
      <trkpt lat="45.375431" lon="5.483001">
        <ele>448.49973</ele>
        <time>2021-06-30T08:39:04Z</time>
      </trkpt>
      <trkpt lat="45.375160" lon="5.483238">
        <ele>446.94016</ele>
        <time>2021-06-30T08:39:05Z</time>
      </trkpt>
      <trkpt lat="45.374893" lon="5.483477">
        <ele>445.26266</ele>
        <time>2021-06-30T08:39:06Z</time>
      </trkpt>
      <trkpt lat="45.374634" lon="5.483743">
        <ele>443.65866</ele>
        <time>2021-06-30T08:39:07Z</time>
      </trkpt>
      <trkpt lat="45.374386" lon="5.484013">
        <ele>441.85544</ele>
        <time>2021-06-30T08:39:08Z</time>
      </trkpt>
      <trkpt lat="45.374153" lon="5.484281">
        <ele>440.00473</ele>
        <time>2021-06-30T08:39:09Z</time>
      </trkpt>
      <trkpt lat="45.373920" lon="5.484574">
        <ele>438.41470</ele>
        <time>2021-06-30T08:39:10Z</time>
      </trkpt>
      <trkpt lat="45.373688" lon="5.484886">
        <ele>437.09384</ele>
        <time>2021-06-30T08:39:11Z</time>
      </trkpt>
      <trkpt lat="45.373482" lon="5.485194">
        <ele>435.23233</ele>
        <time>2021-06-30T08:39:12Z</time>
      </trkpt>
      <trkpt lat="45.373264" lon="5.485516">
        <ele>433.69833</ele>
        <time>2021-06-30T08:39:13Z</time>
      </trkpt>
      <trkpt lat="45.373055" lon="5.485848">
        <ele>431.95004</ele>
        <time>2021-06-30T08:39:14Z</time>
      </trkpt>
      <trkpt lat="45.372864" lon="5.486192">
        <ele>430.68552</ele>
        <time>2021-06-30T08:39:15Z</time>
      </trkpt>
      <trkpt lat="45.372681" lon="5.486532">
        <ele>428.74545</ele>
        <time>2021-06-30T08:39:16Z</time>
      </trkpt>
      <trkpt lat="45.372501" lon="5.486904">
        <ele>427.62167</ele>
        <time>2021-06-30T08:39:17Z</time>
      </trkpt>
      <trkpt lat="45.372334" lon="5.487268">
        <ele>426.78104</ele>
        <time>2021-06-30T08:39:18Z</time>
      </trkpt>
      <trkpt lat="45.372181" lon="5.487644">
        <ele>425.44186</ele>
        <time>2021-06-30T08:39:19Z</time>
      </trkpt>
      <trkpt lat="45.372025" lon="5.488037">
        <ele>423.04922</ele>
        <time>2021-06-30T08:39:20Z</time>
      </trkpt>
      <trkpt lat="45.371883" lon="5.488425">
        <ele>421.15292</ele>
        <time>2021-06-30T08:39:21Z</time>
      </trkpt>
      <trkpt lat="45.371761" lon="5.488829">
        <ele>419.33420</ele>
        <time>2021-06-30T08:39:22Z</time>
      </trkpt>
      <trkpt lat="45.371639" lon="5.489233">
        <ele>418.31174</ele>
        <time>2021-06-30T08:39:23Z</time>
      </trkpt>
      <trkpt lat="45.371532" lon="5.489644">
        <ele>418.17233</ele>
        <time>2021-06-30T08:39:24Z</time>
      </trkpt>
      <trkpt lat="45.371429" lon="5.490060">
        <ele>415.29160</ele>
        <time>2021-06-30T08:39:25Z</time>
      </trkpt>
      <trkpt lat="45.371346" lon="5.490461">
        <ele>413.63303</ele>
        <time>2021-06-30T08:39:26Z</time>
      </trkpt>
      <trkpt lat="45.371262" lon="5.490882">
        <ele>411.83090</ele>
        <time>2021-06-30T08:39:27Z</time>
      </trkpt>
      <trkpt lat="45.371262" lon="5.490882">
        <ele>411.17001</ele>
        <time>2021-06-30T08:39:28Z</time>
      </trkpt>
      <trkpt lat="45.371174" lon="5.491304">
        <ele>410.35483</ele>
        <time>2021-06-30T08:39:29Z</time>
      </trkpt>
      <trkpt lat="45.371094" lon="5.491712">
        <ele>410.11148</ele>
        <time>2021-06-30T08:39:30Z</time>
      </trkpt>
      <trkpt lat="45.371014" lon="5.492131">
        <ele>408.90909</ele>
        <time>2021-06-30T08:39:31Z</time>
      </trkpt>
      <trkpt lat="45.370934" lon="5.492530">
        <ele>406.64328</ele>
        <time>2021-06-30T08:39:32Z</time>
      </trkpt>
      <trkpt lat="45.370850" lon="5.492950">
        <ele>406.50839</ele>
        <time>2021-06-30T08:39:33Z</time>
      </trkpt>
      <trkpt lat="45.370770" lon="5.493347">
        <ele>406.05112</ele>
        <time>2021-06-30T08:39:34Z</time>
      </trkpt>
      <trkpt lat="45.370693" lon="5.493743">
        <ele>406.37558</ele>
        <time>2021-06-30T08:39:35Z</time>
      </trkpt>
      <trkpt lat="45.370602" lon="5.494165">
        <ele>406.82761</ele>
        <time>2021-06-30T08:39:36Z</time>
      </trkpt>
      <trkpt lat="45.370533" lon="5.494568">
        <ele>406.54269</ele>
        <time>2021-06-30T08:39:37Z</time>
      </trkpt>
      <trkpt lat="45.370453" lon="5.494966">
        <ele>406.21579</ele>
        <time>2021-06-30T08:39:38Z</time>
      </trkpt>
      <trkpt lat="45.370369" lon="5.495387">
        <ele>406.68600</ele>
        <time>2021-06-30T08:39:39Z</time>
      </trkpt>
      <trkpt lat="45.370285" lon="5.495798">
        <ele>407.23825</ele>
        <time>2021-06-30T08:39:40Z</time>
      </trkpt>
      <trkpt lat="45.370197" lon="5.496220">
        <ele>407.19174</ele>
        <time>2021-06-30T08:39:41Z</time>
      </trkpt>
      <trkpt lat="45.370113" lon="5.496629">
        <ele>407.47159</ele>
        <time>2021-06-30T08:39:42Z</time>
      </trkpt>
      <trkpt lat="45.370029" lon="5.497042">
        <ele>407.91849</ele>
        <time>2021-06-30T08:39:43Z</time>
      </trkpt>
      <trkpt lat="45.369926" lon="5.497445">
        <ele>408.19394</ele>
        <time>2021-06-30T08:39:44Z</time>
      </trkpt>
      <trkpt lat="45.369816" lon="5.497844">
        <ele>408.39951</ele>
        <time>2021-06-30T08:39:45Z</time>
      </trkpt>
      <trkpt lat="45.369690" lon="5.498227">
        <ele>408.67776</ele>
        <time>2021-06-30T08:39:46Z</time>
      </trkpt>
      <trkpt lat="45.369549" lon="5.498619">
        <ele>408.68381</ele>
        <time>2021-06-30T08:39:47Z</time>
      </trkpt>
      <trkpt lat="45.369385" lon="5.499005">
        <ele>409.20999</ele>
        <time>2021-06-30T08:39:48Z</time>
      </trkpt>
      <trkpt lat="45.369217" lon="5.499364">
        <ele>409.45462</ele>
        <time>2021-06-30T08:39:49Z</time>
      </trkpt>
      <trkpt lat="45.369019" lon="5.499717">
        <ele>409.55234</ele>
        <time>2021-06-30T08:39:50Z</time>
      </trkpt>
      <trkpt lat="45.368816" lon="5.500069">
        <ele>409.40475</ele>
        <time>2021-06-30T08:39:51Z</time>
      </trkpt>
      <trkpt lat="45.368626" lon="5.500379">
        <ele>409.35922</ele>
        <time>2021-06-30T08:39:52Z</time>
      </trkpt>
      <trkpt lat="45.368404" lon="5.500720">
        <ele>409.09488</ele>
        <time>2021-06-30T08:39:53Z</time>
      </trkpt>
      <trkpt lat="45.368195" lon="5.501049">
        <ele>408.34433</ele>
        <time>2021-06-30T08:39:54Z</time>
      </trkpt>
      <trkpt lat="45.367992" lon="5.501351">
        <ele>408.36386</ele>
        <time>2021-06-30T08:39:55Z</time>
      </trkpt>
      <trkpt lat="45.367790" lon="5.501682">
        <ele>408.33737</ele>
        <time>2021-06-30T08:39:56Z</time>
      </trkpt>
      <trkpt lat="45.367584" lon="5.502023">
        <ele>408.43985</ele>
        <time>2021-06-30T08:39:57Z</time>
      </trkpt>
      <trkpt lat="45.367378" lon="5.502378">
        <ele>408.22806</ele>
        <time>2021-06-30T08:39:58Z</time>
      </trkpt>
      <trkpt lat="45.367195" lon="5.502735">
        <ele>407.62692</ele>
        <time>2021-06-30T08:39:59Z</time>
      </trkpt>
      <trkpt lat="45.367027" lon="5.503101">
        <ele>407.36520</ele>
        <time>2021-06-30T08:40:00Z</time>
      </trkpt>
      <trkpt lat="45.366875" lon="5.503490">
        <ele>407.48251</ele>
        <time>2021-06-30T08:40:01Z</time>
      </trkpt>
      <trkpt lat="45.366730" lon="5.503862">
        <ele>407.64072</ele>
        <time>2021-06-30T08:40:02Z</time>
      </trkpt>
      <trkpt lat="45.366600" lon="5.504253">
        <ele>407.37595</ele>
        <time>2021-06-30T08:40:03Z</time>
      </trkpt>
      <trkpt lat="45.366474" lon="5.504658">
        <ele>406.72891</ele>
        <time>2021-06-30T08:40:04Z</time>
      </trkpt>
      <trkpt lat="45.366474" lon="5.504658">
        <ele>405.95779</ele>
        <time>2021-06-30T08:40:05Z</time>
      </trkpt>
      <trkpt lat="45.366356" lon="5.505058">
        <ele>405.45370</ele>
        <time>2021-06-30T08:40:06Z</time>
      </trkpt>
      <trkpt lat="45.366238" lon="5.505465">
        <ele>406.03537</ele>
        <time>2021-06-30T08:40:07Z</time>
      </trkpt>
      <trkpt lat="45.366116" lon="5.505873">
        <ele>405.34518</ele>
        <time>2021-06-30T08:40:08Z</time>
      </trkpt>
      <trkpt lat="45.365997" lon="5.506275">
        <ele>404.90182</ele>
        <time>2021-06-30T08:40:09Z</time>
      </trkpt>
      <trkpt lat="45.365871" lon="5.506679">
        <ele>404.34299</ele>
        <time>2021-06-30T08:40:10Z</time>
      </trkpt>
      <trkpt lat="45.365746" lon="5.507080">
        <ele>403.20505</ele>
        <time>2021-06-30T08:40:11Z</time>
      </trkpt>
      <trkpt lat="45.365616" lon="5.507464">
        <ele>402.95651</ele>
        <time>2021-06-30T08:40:12Z</time>
      </trkpt>
      <trkpt lat="45.365486" lon="5.507845">
        <ele>402.56345</ele>
        <time>2021-06-30T08:40:13Z</time>
      </trkpt>
      <trkpt lat="45.365341" lon="5.508226">
        <ele>402.02609</ele>
        <time>2021-06-30T08:40:14Z</time>
      </trkpt>
      <trkpt lat="45.365196" lon="5.508612">
        <ele>400.78793</ele>
        <time>2021-06-30T08:40:15Z</time>
      </trkpt>
      <trkpt lat="45.365040" lon="5.508981">
        <ele>399.71530</ele>
        <time>2021-06-30T08:40:16Z</time>
      </trkpt>
      <trkpt lat="45.364880" lon="5.509346">
        <ele>398.78867</ele>
        <time>2021-06-30T08:40:17Z</time>
      </trkpt>
      <trkpt lat="45.364708" lon="5.509719">
        <ele>397.48416</ele>
        <time>2021-06-30T08:40:18Z</time>
      </trkpt>
      <trkpt lat="45.364529" lon="5.510096">
        <ele>396.17844</ele>
        <time>2021-06-30T08:40:19Z</time>
      </trkpt>
      <trkpt lat="45.364353" lon="5.510443">
        <ele>395.19907</ele>
        <time>2021-06-30T08:40:20Z</time>
      </trkpt>
      <trkpt lat="45.364170" lon="5.510785">
        <ele>393.38364</ele>
        <time>2021-06-30T08:40:21Z</time>
      </trkpt>
      <trkpt lat="45.363976" lon="5.511133">
        <ele>391.93649</ele>
        <time>2021-06-30T08:40:22Z</time>
      </trkpt>
      <trkpt lat="45.363773" lon="5.511474">
        <ele>389.98483</ele>
        <time>2021-06-30T08:40:23Z</time>
      </trkpt>
      <trkpt lat="45.363571" lon="5.511813">
        <ele>388.49875</ele>
        <time>2021-06-30T08:40:24Z</time>
      </trkpt>
      <trkpt lat="45.363369" lon="5.512125">
        <ele>387.20114</ele>
        <time>2021-06-30T08:40:25Z</time>
      </trkpt>
      <trkpt lat="45.363144" lon="5.512463">
        <ele>385.83871</ele>
        <time>2021-06-30T08:40:26Z</time>
      </trkpt>
      <trkpt lat="45.362919" lon="5.512781">
        <ele>383.76108</ele>
        <time>2021-06-30T08:40:27Z</time>
      </trkpt>
      <trkpt lat="45.362686" lon="5.513094">
        <ele>382.25058</ele>
        <time>2021-06-30T08:40:28Z</time>
      </trkpt>
      <trkpt lat="45.362457" lon="5.513398">
        <ele>380.98886</ele>
        <time>2021-06-30T08:40:29Z</time>
      </trkpt>
      <trkpt lat="45.362236" lon="5.513669">
        <ele>379.27414</ele>
        <time>2021-06-30T08:40:30Z</time>
      </trkpt>
      <trkpt lat="45.362011" lon="5.513942">
        <ele>377.98752</ele>
        <time>2021-06-30T08:40:31Z</time>
      </trkpt>
      <trkpt lat="45.361767" lon="5.514223">
        <ele>376.38998</ele>
        <time>2021-06-30T08:40:32Z</time>
      </trkpt>
      <trkpt lat="45.361526" lon="5.514496">
        <ele>374.56076</ele>
        <time>2021-06-30T08:40:33Z</time>
      </trkpt>
      <trkpt lat="45.361282" lon="5.514780">
        <ele>373.18332</ele>
        <time>2021-06-30T08:40:34Z</time>
      </trkpt>
      <trkpt lat="45.361042" lon="5.515053">
        <ele>371.52621</ele>
        <time>2021-06-30T08:40:35Z</time>
      </trkpt>
      <trkpt lat="45.360806" lon="5.515328">
        <ele>369.52206</ele>
        <time>2021-06-30T08:40:36Z</time>
      </trkpt>
      <trkpt lat="45.360561" lon="5.515609">
        <ele>368.26041</ele>
        <time>2021-06-30T08:40:37Z</time>
      </trkpt>
      <trkpt lat="45.360329" lon="5.515883">
        <ele>366.57199</ele>
        <time>2021-06-30T08:40:38Z</time>
      </trkpt>
      <trkpt lat="45.360092" lon="5.516162">
        <ele>365.35715</ele>
        <time>2021-06-30T08:40:39Z</time>
      </trkpt>
      <trkpt lat="45.360092" lon="5.516162">
        <ele>363.78354</ele>
        <time>2021-06-30T08:40:40Z</time>
      </trkpt>
      <trkpt lat="45.359852" lon="5.516444">
        <ele>361.92233</ele>
        <time>2021-06-30T08:40:41Z</time>
      </trkpt>
      <trkpt lat="45.359627" lon="5.516732">
        <ele>360.80002</ele>
        <time>2021-06-30T08:40:42Z</time>
      </trkpt>
      <trkpt lat="45.359394" lon="5.517029">
        <ele>358.85422</ele>
        <time>2021-06-30T08:40:43Z</time>
      </trkpt>
      <trkpt lat="45.359161" lon="5.517327">
        <ele>357.59586</ele>
        <time>2021-06-30T08:40:44Z</time>
      </trkpt>
      <trkpt lat="45.358932" lon="5.517630">
        <ele>355.92734</ele>
        <time>2021-06-30T08:40:45Z</time>
      </trkpt>
      <trkpt lat="45.358707" lon="5.517943">
        <ele>355.16904</ele>
        <time>2021-06-30T08:40:46Z</time>
      </trkpt>
      <trkpt lat="45.358494" lon="5.518250">
        <ele>354.49973</ele>
        <time>2021-06-30T08:40:47Z</time>
      </trkpt>
      <trkpt lat="45.358276" lon="5.518559">
        <ele>354.78281</ele>
        <time>2021-06-30T08:40:48Z</time>
      </trkpt>
      <trkpt lat="45.358074" lon="5.518868">
        <ele>354.81210</ele>
        <time>2021-06-30T08:40:49Z</time>
      </trkpt>
      <trkpt lat="45.357872" lon="5.519179">
        <ele>354.50137</ele>
        <time>2021-06-30T08:40:50Z</time>
      </trkpt>
      <trkpt lat="45.357662" lon="5.519516">
        <ele>353.83035</ele>
        <time>2021-06-30T08:40:51Z</time>
      </trkpt>
      <trkpt lat="45.357460" lon="5.519853">
        <ele>354.49832</ele>
        <time>2021-06-30T08:40:52Z</time>
      </trkpt>
      <trkpt lat="45.357250" lon="5.520186">
        <ele>353.53549</ele>
        <time>2021-06-30T08:40:53Z</time>
      </trkpt>
      <trkpt lat="45.357059" lon="5.520521">
        <ele>354.28683</ele>
        <time>2021-06-30T08:40:54Z</time>
      </trkpt>
      <trkpt lat="45.356861" lon="5.520883">
        <ele>355.51218</ele>
        <time>2021-06-30T08:40:55Z</time>
      </trkpt>
      <trkpt lat="45.356686" lon="5.521239">
        <ele>356.68942</ele>
        <time>2021-06-30T08:40:56Z</time>
      </trkpt>
      <trkpt lat="45.356506" lon="5.521599">
        <ele>358.41196</ele>
        <time>2021-06-30T08:40:57Z</time>
      </trkpt>
      <trkpt lat="45.356331" lon="5.521959">
        <ele>359.36484</ele>
        <time>2021-06-30T08:40:58Z</time>
      </trkpt>
      <trkpt lat="45.356163" lon="5.522331">
        <ele>359.94308</ele>
        <time>2021-06-30T08:40:59Z</time>
      </trkpt>
      <trkpt lat="45.356003" lon="5.522707">
        <ele>360.51730</ele>
        <time>2021-06-30T08:41:00Z</time>
      </trkpt>
      <trkpt lat="45.355854" lon="5.523077">
        <ele>360.61179</ele>
        <time>2021-06-30T08:41:01Z</time>
      </trkpt>
      <trkpt lat="45.355701" lon="5.523475">
        <ele>362.30264</ele>
        <time>2021-06-30T08:41:02Z</time>
      </trkpt>
      <trkpt lat="45.355564" lon="5.523856">
        <ele>362.80527</ele>
        <time>2021-06-30T08:41:03Z</time>
      </trkpt>
      <trkpt lat="45.355412" lon="5.524277">
        <ele>363.23483</ele>
        <time>2021-06-30T08:41:04Z</time>
      </trkpt>
      <trkpt lat="45.355286" lon="5.524671">
        <ele>363.98801</ele>
        <time>2021-06-30T08:41:05Z</time>
      </trkpt>
      <trkpt lat="45.355156" lon="5.525080">
        <ele>364.48209</ele>
        <time>2021-06-30T08:41:06Z</time>
      </trkpt>
      <trkpt lat="45.355042" lon="5.525517">
        <ele>364.63626</ele>
        <time>2021-06-30T08:41:07Z</time>
      </trkpt>
      <trkpt lat="45.354931" lon="5.525931">
        <ele>365.36044</ele>
        <time>2021-06-30T08:41:08Z</time>
      </trkpt>
      <trkpt lat="45.354816" lon="5.526357">
        <ele>365.63437</ele>
        <time>2021-06-30T08:41:09Z</time>
      </trkpt>
      <trkpt lat="45.354733" lon="5.526772">
        <ele>367.08817</ele>
        <time>2021-06-30T08:41:10Z</time>
      </trkpt>
      <trkpt lat="45.354733" lon="5.526772">
        <ele>368.06467</ele>
        <time>2021-06-30T08:41:11Z</time>
      </trkpt>
      <trkpt lat="45.354641" lon="5.527203">
        <ele>369.18118</ele>
        <time>2021-06-30T08:41:12Z</time>
      </trkpt>
      <trkpt lat="45.354553" lon="5.527626">
        <ele>371.05344</ele>
        <time>2021-06-30T08:41:13Z</time>
      </trkpt>
      <trkpt lat="45.354481" lon="5.528077">
        <ele>370.86459</ele>
        <time>2021-06-30T08:41:14Z</time>
      </trkpt>
      <trkpt lat="45.354412" lon="5.528510">
        <ele>373.05405</ele>
        <time>2021-06-30T08:41:15Z</time>
      </trkpt>
      <trkpt lat="45.354347" lon="5.528938">
        <ele>372.43143</ele>
        <time>2021-06-30T08:41:16Z</time>
      </trkpt>
      <trkpt lat="45.354294" lon="5.529362">
        <ele>375.90182</ele>
        <time>2021-06-30T08:41:17Z</time>
      </trkpt>
      <trkpt lat="45.354240" lon="5.529787">
        <ele>376.98026</ele>
        <time>2021-06-30T08:41:18Z</time>
      </trkpt>
      <trkpt lat="45.354191" lon="5.530213">
        <ele>377.68619</ele>
        <time>2021-06-30T08:41:19Z</time>
      </trkpt>
      <trkpt lat="45.354137" lon="5.530664">
        <ele>378.19614</ele>
        <time>2021-06-30T08:41:20Z</time>
      </trkpt>
      <trkpt lat="45.354088" lon="5.531096">
        <ele>379.95944</ele>
        <time>2021-06-30T08:41:21Z</time>
      </trkpt>
      <trkpt lat="45.354042" lon="5.531514">
        <ele>380.92526</ele>
        <time>2021-06-30T08:41:22Z</time>
      </trkpt>
      <trkpt lat="45.353992" lon="5.531942">
        <ele>381.45779</ele>
        <time>2021-06-30T08:41:23Z</time>
      </trkpt>
      <trkpt lat="45.353943" lon="5.532369">
        <ele>381.51413</ele>
        <time>2021-06-30T08:41:24Z</time>
      </trkpt>
      <trkpt lat="45.353889" lon="5.532834">
        <ele>381.78738</ele>
        <time>2021-06-30T08:41:25Z</time>
      </trkpt>
      <trkpt lat="45.353832" lon="5.533285">
        <ele>382.03220</ele>
        <time>2021-06-30T08:41:26Z</time>
      </trkpt>
      <trkpt lat="45.353771" lon="5.533731">
        <ele>382.20639</ele>
        <time>2021-06-30T08:41:27Z</time>
      </trkpt>
      <trkpt lat="45.353706" lon="5.534151">
        <ele>382.29562</ele>
        <time>2021-06-30T08:41:28Z</time>
      </trkpt>
      <trkpt lat="45.353630" lon="5.534595">
        <ele>382.36197</ele>
        <time>2021-06-30T08:41:29Z</time>
      </trkpt>
      <trkpt lat="45.353550" lon="5.535035">
        <ele>382.55759</ele>
        <time>2021-06-30T08:41:30Z</time>
      </trkpt>
      <trkpt lat="45.353455" lon="5.535462">
        <ele>382.05984</ele>
        <time>2021-06-30T08:41:31Z</time>
      </trkpt>
      <trkpt lat="45.353348" lon="5.535899">
        <ele>381.82211</ele>
        <time>2021-06-30T08:41:32Z</time>
      </trkpt>
      <trkpt lat="45.353226" lon="5.536333">
        <ele>381.62509</ele>
        <time>2021-06-30T08:41:33Z</time>
      </trkpt>
      <trkpt lat="45.353092" lon="5.536740">
        <ele>381.07010</ele>
        <time>2021-06-30T08:41:34Z</time>
      </trkpt>
      <trkpt lat="45.352955" lon="5.537159">
        <ele>379.80142</ele>
        <time>2021-06-30T08:41:35Z</time>
      </trkpt>
      <trkpt lat="45.352806" lon="5.537569">
        <ele>378.35690</ele>
        <time>2021-06-30T08:41:36Z</time>
      </trkpt>
      <trkpt lat="45.352650" lon="5.537966">
        <ele>377.68033</ele>
        <time>2021-06-30T08:41:37Z</time>
      </trkpt>
      <trkpt lat="45.352489" lon="5.538345">
        <ele>377.02835</ele>
        <time>2021-06-30T08:41:38Z</time>
      </trkpt>
      <trkpt lat="45.352318" lon="5.538719">
        <ele>375.88528</ele>
        <time>2021-06-30T08:41:39Z</time>
      </trkpt>
      <trkpt lat="45.352142" lon="5.539078">
        <ele>374.35733</ele>
        <time>2021-06-30T08:41:40Z</time>
      </trkpt>
      <trkpt lat="45.351952" lon="5.539441">
        <ele>373.26584</ele>
        <time>2021-06-30T08:41:41Z</time>
      </trkpt>
      <trkpt lat="45.351761" lon="5.539800">
        <ele>371.96030</ele>
        <time>2021-06-30T08:41:42Z</time>
      </trkpt>
      <trkpt lat="45.351585" lon="5.540139">
        <ele>370.71359</ele>
        <time>2021-06-30T08:41:43Z</time>
      </trkpt>
      <trkpt lat="45.351398" lon="5.540491">
        <ele>369.91379</ele>
        <time>2021-06-30T08:41:44Z</time>
      </trkpt>
      <trkpt lat="45.351204" lon="5.540862">
        <ele>369.39542</ele>
        <time>2021-06-30T08:41:45Z</time>
      </trkpt>
      <trkpt lat="45.351025" lon="5.541209">
        <ele>368.96188</ele>
        <time>2021-06-30T08:41:46Z</time>
      </trkpt>
      <trkpt lat="45.350830" lon="5.541599">
        <ele>367.75705</ele>
        <time>2021-06-30T08:41:47Z</time>
      </trkpt>
      <trkpt lat="45.350830" lon="5.541599">
        <ele>366.87656</ele>
        <time>2021-06-30T08:41:48Z</time>
      </trkpt>
      <trkpt lat="45.350643" lon="5.541981">
        <ele>365.93857</ele>
        <time>2021-06-30T08:41:49Z</time>
      </trkpt>
      <trkpt lat="45.350468" lon="5.542333">
        <ele>365.19919</ele>
        <time>2021-06-30T08:41:50Z</time>
      </trkpt>
      <trkpt lat="45.350296" lon="5.542678">
        <ele>364.94467</ele>
        <time>2021-06-30T08:41:51Z</time>
      </trkpt>
      <trkpt lat="45.350121" lon="5.543039">
        <ele>363.89090</ele>
        <time>2021-06-30T08:41:52Z</time>
      </trkpt>
      <trkpt lat="45.349945" lon="5.543434">
        <ele>362.80136</ele>
        <time>2021-06-30T08:41:53Z</time>
      </trkpt>
      <trkpt lat="45.349770" lon="5.543790">
        <ele>362.06113</ele>
        <time>2021-06-30T08:41:54Z</time>
      </trkpt>
      <trkpt lat="45.349609" lon="5.544158">
        <ele>361.45627</ele>
        <time>2021-06-30T08:41:55Z</time>
      </trkpt>
      <trkpt lat="45.349457" lon="5.544524">
        <ele>361.04172</ele>
        <time>2021-06-30T08:41:56Z</time>
      </trkpt>
      <trkpt lat="45.349297" lon="5.544905">
        <ele>359.80441</ele>
        <time>2021-06-30T08:41:57Z</time>
      </trkpt>
      <trkpt lat="45.349133" lon="5.545294">
        <ele>358.99722</ele>
        <time>2021-06-30T08:41:58Z</time>
      </trkpt>
      <trkpt lat="45.348984" lon="5.545671">
        <ele>358.06931</ele>
        <time>2021-06-30T08:41:59Z</time>
      </trkpt>
      <trkpt lat="45.348839" lon="5.546055">
        <ele>357.27060</ele>
        <time>2021-06-30T08:42:00Z</time>
      </trkpt>
      <trkpt lat="45.348698" lon="5.546437">
        <ele>357.31003</ele>
        <time>2021-06-30T08:42:01Z</time>
      </trkpt>
      <trkpt lat="45.348553" lon="5.546825">
        <ele>356.72311</ele>
        <time>2021-06-30T08:42:02Z</time>
      </trkpt>
      <trkpt lat="45.348408" lon="5.547222">
        <ele>356.21823</ele>
        <time>2021-06-30T08:42:03Z</time>
      </trkpt>
      <trkpt lat="45.348267" lon="5.547633">
        <ele>355.69528</ele>
        <time>2021-06-30T08:42:04Z</time>
      </trkpt>
      <trkpt lat="45.348133" lon="5.548047">
        <ele>354.84158</ele>
        <time>2021-06-30T08:42:05Z</time>
      </trkpt>
      <trkpt lat="45.348003" lon="5.548448">
        <ele>354.42648</ele>
        <time>2021-06-30T08:42:06Z</time>
      </trkpt>
      <trkpt lat="45.347874" lon="5.548870">
        <ele>353.68088</ele>
        <time>2021-06-30T08:42:07Z</time>
      </trkpt>
      <trkpt lat="45.347755" lon="5.549279">
        <ele>352.61978</ele>
        <time>2021-06-30T08:42:08Z</time>
      </trkpt>
      <trkpt lat="45.347622" lon="5.549728">
        <ele>350.60300</ele>
        <time>2021-06-30T08:42:09Z</time>
      </trkpt>
      <trkpt lat="45.347504" lon="5.550143">
        <ele>349.02597</ele>
        <time>2021-06-30T08:42:10Z</time>
      </trkpt>
      <trkpt lat="45.347385" lon="5.550546">
        <ele>347.66428</ele>
        <time>2021-06-30T08:42:11Z</time>
      </trkpt>
      <trkpt lat="45.347263" lon="5.550974">
        <ele>345.83365</ele>
        <time>2021-06-30T08:42:12Z</time>
      </trkpt>
      <trkpt lat="45.347157" lon="5.551405">
        <ele>344.48648</ele>
        <time>2021-06-30T08:42:13Z</time>
      </trkpt>
      <trkpt lat="45.347054" lon="5.551822">
        <ele>343.59433</ele>
        <time>2021-06-30T08:42:14Z</time>
      </trkpt>
      <trkpt lat="45.346951" lon="5.552260">
        <ele>342.62405</ele>
        <time>2021-06-30T08:42:15Z</time>
      </trkpt>
      <trkpt lat="45.346859" lon="5.552686">
        <ele>341.06784</ele>
        <time>2021-06-30T08:42:16Z</time>
      </trkpt>
      <trkpt lat="45.346775" lon="5.553098">
        <ele>339.98032</ele>
        <time>2021-06-30T08:42:17Z</time>
      </trkpt>
      <trkpt lat="45.346691" lon="5.553544">
        <ele>339.27805</ele>
        <time>2021-06-30T08:42:18Z</time>
      </trkpt>
      <trkpt lat="45.346603" lon="5.553990">
        <ele>338.88956</ele>
        <time>2021-06-30T08:42:19Z</time>
      </trkpt>
      <trkpt lat="45.346523" lon="5.554421">
        <ele>338.56003</ele>
        <time>2021-06-30T08:42:20Z</time>
      </trkpt>
      <trkpt lat="45.346447" lon="5.554833">
        <ele>337.62167</ele>
        <time>2021-06-30T08:42:21Z</time>
      </trkpt>
      <trkpt lat="45.346375" lon="5.555262">
        <ele>336.68777</ele>
        <time>2021-06-30T08:42:22Z</time>
      </trkpt>
      <trkpt lat="45.346306" lon="5.555690">
        <ele>335.96652</ele>
        <time>2021-06-30T08:42:23Z</time>
      </trkpt>
      <trkpt lat="45.346306" lon="5.555690">
        <ele>335.45303</ele>
        <time>2021-06-30T08:42:24Z</time>
      </trkpt>
      <trkpt lat="45.346249" lon="5.556133">
        <ele>329.65939</ele>
        <time>2021-06-30T08:42:25Z</time>
      </trkpt>
      <trkpt lat="45.346169" lon="5.556562">
        <ele>324.16537</ele>
        <time>2021-06-30T08:42:26Z</time>
      </trkpt>
      <trkpt lat="45.346107" lon="5.556985">
        <ele>322.57120</ele>
        <time>2021-06-30T08:42:27Z</time>
      </trkpt>
      <trkpt lat="45.346046" lon="5.557430">
        <ele>321.39749</ele>
        <time>2021-06-30T08:42:28Z</time>
      </trkpt>
      <trkpt lat="45.345985" lon="5.557870">
        <ele>320.50583</ele>
        <time>2021-06-30T08:42:29Z</time>
      </trkpt>
      <trkpt lat="45.345924" lon="5.558296">
        <ele>319.00998</ele>
        <time>2021-06-30T08:42:30Z</time>
      </trkpt>
      <trkpt lat="45.345871" lon="5.558724">
        <ele>318.00876</ele>
        <time>2021-06-30T08:42:31Z</time>
      </trkpt>
      <trkpt lat="45.345818" lon="5.559162">
        <ele>317.76242</ele>
        <time>2021-06-30T08:42:32Z</time>
      </trkpt>
      <trkpt lat="45.345753" lon="5.559603">
        <ele>315.11069</ele>
        <time>2021-06-30T08:42:33Z</time>
      </trkpt>
      <trkpt lat="45.345699" lon="5.560034">
        <ele>313.40988</ele>
        <time>2021-06-30T08:42:34Z</time>
      </trkpt>
      <trkpt lat="45.345638" lon="5.560500">
        <ele>312.46384</ele>
        <time>2021-06-30T08:42:35Z</time>
      </trkpt>
      <trkpt lat="45.345585" lon="5.560920">
        <ele>309.82730</ele>
        <time>2021-06-30T08:42:36Z</time>
      </trkpt>
      <trkpt lat="45.345524" lon="5.561375">
        <ele>305.79587</ele>
        <time>2021-06-30T08:42:37Z</time>
      </trkpt>
      <trkpt lat="45.345467" lon="5.561788">
        <ele>303.86813</ele>
        <time>2021-06-30T08:42:38Z</time>
      </trkpt>
      <trkpt lat="45.345398" lon="5.562241">
        <ele>302.13168</ele>
        <time>2021-06-30T08:42:39Z</time>
      </trkpt>
      <trkpt lat="45.345322" lon="5.562670">
        <ele>300.33682</ele>
        <time>2021-06-30T08:42:40Z</time>
      </trkpt>
      <trkpt lat="45.345230" lon="5.563116">
        <ele>299.26022</ele>
        <time>2021-06-30T08:42:41Z</time>
      </trkpt>
      <trkpt lat="45.345139" lon="5.563547">
        <ele>297.10757</ele>
        <time>2021-06-30T08:42:42Z</time>
      </trkpt>
      <trkpt lat="45.345028" lon="5.563983">
        <ele>294.92490</ele>
        <time>2021-06-30T08:42:43Z</time>
      </trkpt>
      <trkpt lat="45.344913" lon="5.564397">
        <ele>292.94553</ele>
        <time>2021-06-30T08:42:44Z</time>
      </trkpt>
      <trkpt lat="45.344791" lon="5.564823">
        <ele>291.09091</ele>
        <time>2021-06-30T08:42:45Z</time>
      </trkpt>
      <trkpt lat="45.344658" lon="5.565223">
        <ele>289.77145</ele>
        <time>2021-06-30T08:42:46Z</time>
      </trkpt>
      <trkpt lat="45.344517" lon="5.565625">
        <ele>288.69193</ele>
        <time>2021-06-30T08:42:47Z</time>
      </trkpt>
      <trkpt lat="45.344368" lon="5.566032">
        <ele>287.85751</ele>
        <time>2021-06-30T08:42:48Z</time>
      </trkpt>
      <trkpt lat="45.344208" lon="5.566424">
        <ele>284.40976</ele>
        <time>2021-06-30T08:42:49Z</time>
      </trkpt>
      <trkpt lat="45.344048" lon="5.566801">
        <ele>282.36026</ele>
        <time>2021-06-30T08:42:50Z</time>
      </trkpt>
      <trkpt lat="45.343891" lon="5.567168">
        <ele>280.47189</ele>
        <time>2021-06-30T08:42:51Z</time>
      </trkpt>
      <trkpt lat="45.343891" lon="5.567168">
        <ele>278.91245</ele>
        <time>2021-06-30T08:42:52Z</time>
      </trkpt>
      <trkpt lat="45.343719" lon="5.567564">
        <ele>276.89725</ele>
        <time>2021-06-30T08:42:53Z</time>
      </trkpt>
      <trkpt lat="45.343555" lon="5.567938">
        <ele>275.28452</ele>
        <time>2021-06-30T08:42:54Z</time>
      </trkpt>
      <trkpt lat="45.343376" lon="5.568304">
        <ele>272.99643</ele>
        <time>2021-06-30T08:42:55Z</time>
      </trkpt>
      <trkpt lat="45.343208" lon="5.568659">
        <ele>270.77878</ele>
        <time>2021-06-30T08:42:56Z</time>
      </trkpt>
      <trkpt lat="45.343044" lon="5.569034">
        <ele>268.83072</ele>
        <time>2021-06-30T08:42:57Z</time>
      </trkpt>
      <trkpt lat="45.342880" lon="5.569419">
        <ele>266.47665</ele>
        <time>2021-06-30T08:42:58Z</time>
      </trkpt>
      <trkpt lat="45.342724" lon="5.569787">
        <ele>264.98837</ele>
        <time>2021-06-30T08:42:59Z</time>
      </trkpt>
      <trkpt lat="45.342564" lon="5.570159">
        <ele>263.31454</ele>
        <time>2021-06-30T08:43:00Z</time>
      </trkpt>
      <trkpt lat="45.342396" lon="5.570549">
        <ele>261.86850</ele>
        <time>2021-06-30T08:43:01Z</time>
      </trkpt>
      <trkpt lat="45.342232" lon="5.570928">
        <ele>260.25143</ele>
        <time>2021-06-30T08:43:02Z</time>
      </trkpt>
      <trkpt lat="45.342064" lon="5.571308">
        <ele>259.43619</ele>
        <time>2021-06-30T08:43:03Z</time>
      </trkpt>
      <trkpt lat="45.341900" lon="5.571664">
        <ele>258.10056</ele>
        <time>2021-06-30T08:43:04Z</time>
      </trkpt>
      <trkpt lat="45.341721" lon="5.572051">
        <ele>257.62552</ele>
        <time>2021-06-30T08:43:05Z</time>
      </trkpt>
      <trkpt lat="45.341557" lon="5.572436">
        <ele>256.72617</ele>
        <time>2021-06-30T08:43:06Z</time>
      </trkpt>
      <trkpt lat="45.341389" lon="5.572817">
        <ele>256.44791</ele>
        <time>2021-06-30T08:43:07Z</time>
      </trkpt>
      <trkpt lat="45.341213" lon="5.573181">
        <ele>253.76120</ele>
        <time>2021-06-30T08:43:08Z</time>
      </trkpt>
      <trkpt lat="45.341030" lon="5.573545">
        <ele>251.51730</ele>
        <time>2021-06-30T08:43:09Z</time>
      </trkpt>
      <trkpt lat="45.340839" lon="5.573902">
        <ele>249.71909</ele>
        <time>2021-06-30T08:43:10Z</time>
      </trkpt>
      <trkpt lat="45.340652" lon="5.574234">
        <ele>247.52463</ele>
        <time>2021-06-30T08:43:11Z</time>
      </trkpt>
      <trkpt lat="45.340439" lon="5.574578">
        <ele>245.83481</ele>
        <time>2021-06-30T08:43:12Z</time>
      </trkpt>
      <trkpt lat="45.340225" lon="5.574892">
        <ele>243.22214</ele>
        <time>2021-06-30T08:43:13Z</time>
      </trkpt>
      <trkpt lat="45.340004" lon="5.575200">
        <ele>241.51389</ele>
        <time>2021-06-30T08:43:14Z</time>
      </trkpt>
      <trkpt lat="45.339764" lon="5.575513">
        <ele>239.25986</ele>
        <time>2021-06-30T08:43:15Z</time>
      </trkpt>
      <trkpt lat="45.339527" lon="5.575814">
        <ele>237.50327</ele>
        <time>2021-06-30T08:43:16Z</time>
      </trkpt>
      <trkpt lat="45.339298" lon="5.576094">
        <ele>235.54269</ele>
        <time>2021-06-30T08:43:17Z</time>
      </trkpt>
      <trkpt lat="45.339062" lon="5.576385">
        <ele>233.96164</ele>
        <time>2021-06-30T08:43:18Z</time>
      </trkpt>
      <trkpt lat="45.338837" lon="5.576663">
        <ele>232.40085</ele>
        <time>2021-06-30T08:43:19Z</time>
      </trkpt>
      <trkpt lat="45.338596" lon="5.576957">
        <ele>230.72958</ele>
        <time>2021-06-30T08:43:20Z</time>
      </trkpt>
      <trkpt lat="45.338356" lon="5.577254">
        <ele>229.19247</ele>
        <time>2021-06-30T08:43:21Z</time>
      </trkpt>
      <trkpt lat="45.338127" lon="5.577544">
        <ele>227.37601</ele>
        <time>2021-06-30T08:43:22Z</time>
      </trkpt>
      <trkpt lat="45.337894" lon="5.577876">
        <ele>225.60446</ele>
        <time>2021-06-30T08:43:23Z</time>
      </trkpt>
      <trkpt lat="45.337677" lon="5.578185">
        <ele>223.57565</ele>
        <time>2021-06-30T08:43:24Z</time>
      </trkpt>
      <trkpt lat="45.337460" lon="5.578522">
        <ele>221.81357</ele>
        <time>2021-06-30T08:43:25Z</time>
      </trkpt>
      <trkpt lat="45.337257" lon="5.578866">
        <ele>220.05319</ele>
        <time>2021-06-30T08:43:26Z</time>
      </trkpt>
      <trkpt lat="45.337257" lon="5.578866">
        <ele>218.39694</ele>
        <time>2021-06-30T08:43:27Z</time>
      </trkpt>
      <trkpt lat="45.337070" lon="5.579218">
        <ele>216.34995</ele>
        <time>2021-06-30T08:43:28Z</time>
      </trkpt>
      <trkpt lat="45.336895" lon="5.579574">
        <ele>214.50192</ele>
        <time>2021-06-30T08:43:29Z</time>
      </trkpt>
      <trkpt lat="45.336720" lon="5.579926">
        <ele>212.90390</ele>
        <time>2021-06-30T08:43:30Z</time>
      </trkpt>
      <trkpt lat="45.336552" lon="5.580294">
        <ele>211.59201</ele>
        <time>2021-06-30T08:43:31Z</time>
      </trkpt>
      <trkpt lat="45.336384" lon="5.580672">
        <ele>210.52286</ele>
        <time>2021-06-30T08:43:32Z</time>
      </trkpt>
      <trkpt lat="45.336208" lon="5.581056">
        <ele>209.45786</ele>
        <time>2021-06-30T08:43:33Z</time>
      </trkpt>
      <trkpt lat="45.336037" lon="5.581440">
        <ele>208.29910</ele>
        <time>2021-06-30T08:43:34Z</time>
      </trkpt>
      <trkpt lat="45.335869" lon="5.581812">
        <ele>207.07236</ele>
        <time>2021-06-30T08:43:35Z</time>
      </trkpt>
      <trkpt lat="45.335701" lon="5.582177">
        <ele>206.19803</ele>
        <time>2021-06-30T08:43:36Z</time>
      </trkpt>
      <trkpt lat="45.335537" lon="5.582544">
        <ele>205.25919</ele>
        <time>2021-06-30T08:43:37Z</time>
      </trkpt>
      <trkpt lat="45.335365" lon="5.582903">
        <ele>204.92966</ele>
        <time>2021-06-30T08:43:38Z</time>
      </trkpt>
      <trkpt lat="45.335197" lon="5.583260">
        <ele>204.21420</ele>
        <time>2021-06-30T08:43:39Z</time>
      </trkpt>
      <trkpt lat="45.335018" lon="5.583627">
        <ele>203.78616</ele>
        <time>2021-06-30T08:43:40Z</time>
      </trkpt>
      <trkpt lat="45.334831" lon="5.583996">
        <ele>203.46793</ele>
        <time>2021-06-30T08:43:41Z</time>
      </trkpt>
      <trkpt lat="45.334648" lon="5.584342">
        <ele>203.57785</ele>
        <time>2021-06-30T08:43:42Z</time>
      </trkpt>
      <trkpt lat="45.334465" lon="5.584686">
        <ele>203.10507</ele>
        <time>2021-06-30T08:43:43Z</time>
      </trkpt>
      <trkpt lat="45.334274" lon="5.585048">
        <ele>202.27390</ele>
        <time>2021-06-30T08:43:44Z</time>
      </trkpt>
      <trkpt lat="45.334091" lon="5.585389">
        <ele>202.10434</ele>
        <time>2021-06-30T08:43:45Z</time>
      </trkpt>
      <trkpt lat="45.333900" lon="5.585745">
        <ele>201.92435</ele>
        <time>2021-06-30T08:43:46Z</time>
      </trkpt>
      <trkpt lat="45.333702" lon="5.586084">
        <ele>201.43570</ele>
        <time>2021-06-30T08:43:47Z</time>
      </trkpt>
      <trkpt lat="45.333515" lon="5.586409">
        <ele>201.38907</ele>
        <time>2021-06-30T08:43:48Z</time>
      </trkpt>
      <trkpt lat="45.333321" lon="5.586747">
        <ele>200.45975</ele>
        <time>2021-06-30T08:43:49Z</time>
      </trkpt>
      <trkpt lat="45.333107" lon="5.587090">
        <ele>199.66098</ele>
        <time>2021-06-30T08:43:50Z</time>
      </trkpt>
      <trkpt lat="45.332901" lon="5.587419">
        <ele>199.30521</ele>
        <time>2021-06-30T08:43:51Z</time>
      </trkpt>
      <trkpt lat="45.332687" lon="5.587759">
        <ele>199.03220</ele>
        <time>2021-06-30T08:43:52Z</time>
      </trkpt>
      <trkpt lat="45.332478" lon="5.588075">
        <ele>198.08267</ele>
        <time>2021-06-30T08:43:53Z</time>
      </trkpt>
      <trkpt lat="45.332279" lon="5.588374">
        <ele>198.34860</ele>
        <time>2021-06-30T08:43:54Z</time>
      </trkpt>
      <trkpt lat="45.332062" lon="5.588700">
        <ele>198.06387</ele>
        <time>2021-06-30T08:43:55Z</time>
      </trkpt>
      <trkpt lat="45.331837" lon="5.589038">
        <ele>197.78781</ele>
        <time>2021-06-30T08:43:56Z</time>
      </trkpt>
      <trkpt lat="45.331627" lon="5.589344">
        <ele>197.55716</ele>
        <time>2021-06-30T08:43:57Z</time>
      </trkpt>
      <trkpt lat="45.331417" lon="5.589648">
        <ele>197.64597</ele>
        <time>2021-06-30T08:43:58Z</time>
      </trkpt>
      <trkpt lat="45.331196" lon="5.589970">
        <ele>197.28818</ele>
        <time>2021-06-30T08:43:59Z</time>
      </trkpt>
      <trkpt lat="45.330986" lon="5.590277">
        <ele>197.37473</ele>
        <time>2021-06-30T08:44:00Z</time>
      </trkpt>
      <trkpt lat="45.330795" lon="5.590555">
        <ele>197.25558</ele>
        <time>2021-06-30T08:44:01Z</time>
      </trkpt>
      <trkpt lat="45.330627" lon="5.590805">
        <ele>196.91940</ele>
        <time>2021-06-30T08:44:02Z</time>
      </trkpt>
      <trkpt lat="45.330467" lon="5.591042">
        <ele>196.74380</ele>
        <time>2021-06-30T08:44:03Z</time>
      </trkpt>
      <trkpt lat="45.330467" lon="5.591042">
        <ele>196.89029</ele>
        <time>2021-06-30T08:44:04Z</time>
      </trkpt>
      <trkpt lat="45.330303" lon="5.591278">
        <ele>196.73135</ele>
        <time>2021-06-30T08:44:05Z</time>
      </trkpt>
      <trkpt lat="45.330166" lon="5.591484">
        <ele>196.73276</ele>
        <time>2021-06-30T08:44:06Z</time>
      </trkpt>
      <trkpt lat="45.330044" lon="5.591661">
        <ele>193.18999</ele>
        <time>2021-06-30T08:44:07Z</time>
      </trkpt>
      <trkpt lat="45.329933" lon="5.591825">
        <ele>193.04128</ele>
        <time>2021-06-30T08:44:08Z</time>
      </trkpt>
      <trkpt lat="45.329823" lon="5.591985">
        <ele>192.90186</ele>
        <time>2021-06-30T08:44:09Z</time>
      </trkpt>
      <trkpt lat="45.329731" lon="5.592120">
        <ele>192.53790</ele>
        <time>2021-06-30T08:44:10Z</time>
      </trkpt>
      <trkpt lat="45.329651" lon="5.592243">
        <ele>192.51376</ele>
        <time>2021-06-30T08:44:11Z</time>
      </trkpt>
      <trkpt lat="45.329567" lon="5.592362">
        <ele>192.79733</ele>
        <time>2021-06-30T08:44:12Z</time>
      </trkpt>
      <trkpt lat="45.329494" lon="5.592471">
        <ele>193.06369</ele>
        <time>2021-06-30T08:44:13Z</time>
      </trkpt>
      <trkpt lat="45.329426" lon="5.592568">
        <ele>193.35159</ele>
        <time>2021-06-30T08:44:14Z</time>
      </trkpt>
      <trkpt lat="45.329357" lon="5.592668">
        <ele>193.40724</ele>
        <time>2021-06-30T08:44:15Z</time>
      </trkpt>
      <trkpt lat="45.329285" lon="5.592779">
        <ele>193.78020</ele>
        <time>2021-06-30T08:44:16Z</time>
      </trkpt>
      <trkpt lat="45.329205" lon="5.592894">
        <ele>193.80583</ele>
        <time>2021-06-30T08:44:17Z</time>
      </trkpt>
      <trkpt lat="45.329121" lon="5.593017">
        <ele>194.31187</ele>
        <time>2021-06-30T08:44:18Z</time>
      </trkpt>
      <trkpt lat="45.329025" lon="5.593155">
        <ele>193.84782</ele>
        <time>2021-06-30T08:44:19Z</time>
      </trkpt>
      <trkpt lat="45.328938" lon="5.593287">
        <ele>193.54762</ele>
        <time>2021-06-30T08:44:20Z</time>
      </trkpt>
      <trkpt lat="45.328857" lon="5.593406">
        <ele>193.61482</ele>
        <time>2021-06-30T08:44:21Z</time>
      </trkpt>
      <trkpt lat="45.328770" lon="5.593534">
        <ele>193.62212</ele>
        <time>2021-06-30T08:44:22Z</time>
      </trkpt>
      <trkpt lat="45.328690" lon="5.593658">
        <ele>193.56708</ele>
        <time>2021-06-30T08:44:23Z</time>
      </trkpt>
      <trkpt lat="45.328613" lon="5.593779">
        <ele>193.17735</ele>
        <time>2021-06-30T08:44:24Z</time>
      </trkpt>
      <trkpt lat="45.328548" lon="5.593884">
        <ele>193.12047</ele>
        <time>2021-06-30T08:44:25Z</time>
      </trkpt>
      <trkpt lat="45.328476" lon="5.593995">
        <ele>193.20139</ele>
        <time>2021-06-30T08:44:26Z</time>
      </trkpt>
      <trkpt lat="45.328392" lon="5.594127">
        <ele>193.08478</ele>
        <time>2021-06-30T08:44:27Z</time>
      </trkpt>
      <trkpt lat="45.328327" lon="5.594227">
        <ele>193.06883</ele>
        <time>2021-06-30T08:44:28Z</time>
      </trkpt>
      <trkpt lat="45.328266" lon="5.594326">
        <ele>192.90564</ele>
        <time>2021-06-30T08:44:29Z</time>
      </trkpt>
      <trkpt lat="45.328194" lon="5.594444">
        <ele>192.93849</ele>
        <time>2021-06-30T08:44:30Z</time>
      </trkpt>
      <trkpt lat="45.328125" lon="5.594557">
        <ele>193.04654</ele>
        <time>2021-06-30T08:44:31Z</time>
      </trkpt>
      <trkpt lat="45.328049" lon="5.594681">
        <ele>192.96388</ele>
        <time>2021-06-30T08:44:32Z</time>
      </trkpt>
      <trkpt lat="45.327972" lon="5.594808">
        <ele>193.17976</ele>
        <time>2021-06-30T08:44:33Z</time>
      </trkpt>
      <trkpt lat="45.327896" lon="5.594934">
        <ele>193.06522</ele>
        <time>2021-06-30T08:44:34Z</time>
      </trkpt>
      <trkpt lat="45.327820" lon="5.595061">
        <ele>193.26854</ele>
        <time>2021-06-30T08:44:35Z</time>
      </trkpt>
      <trkpt lat="45.327736" lon="5.595198">
        <ele>192.64246</ele>
        <time>2021-06-30T08:44:36Z</time>
      </trkpt>
      <trkpt lat="45.327656" lon="5.595330">
        <ele>192.66597</ele>
        <time>2021-06-30T08:44:37Z</time>
      </trkpt>
      <trkpt lat="45.327591" lon="5.595438">
        <ele>192.38893</ele>
        <time>2021-06-30T08:44:38Z</time>
      </trkpt>
      <trkpt lat="45.327538" lon="5.595526">
        <ele>192.07690</ele>
        <time>2021-06-30T08:44:39Z</time>
      </trkpt>
      <trkpt lat="45.327496" lon="5.595603">
        <ele>192.06430</ele>
        <time>2021-06-30T08:44:40Z</time>
      </trkpt>
      <trkpt lat="45.327496" lon="5.595603">
        <ele>192.13387</ele>
        <time>2021-06-30T08:44:41Z</time>
      </trkpt>
      <trkpt lat="45.327431" lon="5.595711">
        <ele>192.11684</ele>
        <time>2021-06-30T08:44:42Z</time>
      </trkpt>
      <trkpt lat="45.327358" lon="5.595837">
        <ele>192.33273</ele>
        <time>2021-06-30T08:44:43Z</time>
      </trkpt>
      <trkpt lat="45.327293" lon="5.595955">
        <ele>192.33521</ele>
        <time>2021-06-30T08:44:44Z</time>
      </trkpt>
      <trkpt lat="45.327225" lon="5.596073">
        <ele>192.37895</ele>
        <time>2021-06-30T08:44:45Z</time>
      </trkpt>
      <trkpt lat="45.327156" lon="5.596192">
        <ele>192.24272</ele>
        <time>2021-06-30T08:44:46Z</time>
      </trkpt>
      <trkpt lat="45.327087" lon="5.596314">
        <ele>192.38435</ele>
        <time>2021-06-30T08:44:47Z</time>
      </trkpt>
      <trkpt lat="45.327011" lon="5.596445">
        <ele>192.43575</ele>
        <time>2021-06-30T08:44:48Z</time>
      </trkpt>
      <trkpt lat="45.326931" lon="5.596584">
        <ele>192.11349</ele>
        <time>2021-06-30T08:44:49Z</time>
      </trkpt>
      <trkpt lat="45.326859" lon="5.596712">
        <ele>191.93263</ele>
        <time>2021-06-30T08:44:50Z</time>
      </trkpt>
      <trkpt lat="45.326790" lon="5.596831">
        <ele>191.81506</ele>
        <time>2021-06-30T08:44:51Z</time>
      </trkpt>
      <trkpt lat="45.326729" lon="5.596935">
        <ele>191.46745</ele>
        <time>2021-06-30T08:44:52Z</time>
      </trkpt>
      <trkpt lat="45.326675" lon="5.597030">
        <ele>191.38141</ele>
        <time>2021-06-30T08:44:53Z</time>
      </trkpt>
      <trkpt lat="45.326626" lon="5.597117">
        <ele>191.21907</ele>
        <time>2021-06-30T08:44:54Z</time>
      </trkpt>
      <trkpt lat="45.326572" lon="5.597207">
        <ele>190.89267</ele>
        <time>2021-06-30T08:44:55Z</time>
      </trkpt>
      <trkpt lat="45.326542" lon="5.597262">
        <ele>190.69165</ele>
        <time>2021-06-30T08:44:56Z</time>
      </trkpt>
      <trkpt lat="45.326534" lon="5.597272">
        <ele>190.67583</ele>
        <time>2021-06-30T08:44:57Z</time>
      </trkpt>
      <trkpt lat="45.326523" lon="5.597295">
        <ele>190.62988</ele>
        <time>2021-06-30T08:44:58Z</time>
      </trkpt>
      <trkpt lat="45.326496" lon="5.597339">
        <ele>190.63370</ele>
        <time>2021-06-30T08:44:59Z</time>
      </trkpt>
      <trkpt lat="45.326469" lon="5.597386">
        <ele>190.53242</ele>
        <time>2021-06-30T08:45:00Z</time>
      </trkpt>
      <trkpt lat="45.326450" lon="5.597418">
        <ele>190.62119</ele>
        <time>2021-06-30T08:45:01Z</time>
      </trkpt>
      <trkpt lat="45.326443" lon="5.597434">
        <ele>190.59926</ele>
        <time>2021-06-30T08:45:02Z</time>
      </trkpt>
      <trkpt lat="45.326424" lon="5.597470">
        <ele>190.61632</ele>
        <time>2021-06-30T08:45:03Z</time>
      </trkpt>
      <trkpt lat="45.326408" lon="5.597494">
        <ele>190.62523</ele>
        <time>2021-06-30T08:45:04Z</time>
      </trkpt>
      <trkpt lat="45.326405" lon="5.597497">
        <ele>190.54465</ele>
        <time>2021-06-30T08:45:05Z</time>
      </trkpt>
      <trkpt lat="45.326405" lon="5.597497">
        <ele>190.62027</ele>
        <time>2021-06-30T08:45:06Z</time>
      </trkpt>
      <trkpt lat="45.326405" lon="5.597497">
        <ele>190.67325</ele>
        <time>2021-06-30T08:45:07Z</time>
      </trkpt>
      <trkpt lat="45.326405" lon="5.597497">
        <ele>190.57315</ele>
        <time>2021-06-30T08:45:08Z</time>
      </trkpt>
      <trkpt lat="45.326405" lon="5.597497">
        <ele>190.66478</ele>
        <time>2021-06-30T08:45:09Z</time>
      </trkpt>
      <trkpt lat="45.326405" lon="5.597497">
        <ele>190.67735</ele>
        <time>2021-06-30T08:45:10Z</time>
      </trkpt>
      <trkpt lat="45.326405" lon="5.597497">
        <ele>190.63327</ele>
        <time>2021-06-30T08:45:11Z</time>
      </trkpt>
      <trkpt lat="45.326405" lon="5.597497">
        <ele>190.58025</ele>
        <time>2021-06-30T08:45:12Z</time>
      </trkpt>
      <trkpt lat="45.326405" lon="5.597497">
        <ele>190.53371</ele>
        <time>2021-06-30T08:45:13Z</time>
      </trkpt>
      <trkpt lat="45.326405" lon="5.597497">
        <ele>190.71565</ele>
        <time>2021-06-30T08:45:14Z</time>
      </trkpt>
      <trkpt lat="45.326397" lon="5.597513">
        <ele>190.55099</ele>
        <time>2021-06-30T08:45:15Z</time>
      </trkpt>
      <trkpt lat="45.326385" lon="5.597537">
        <ele>190.50716</ele>
        <time>2021-06-30T08:45:16Z</time>
      </trkpt>
      <trkpt lat="45.326382" lon="5.597540">
        <ele>190.57124</ele>
        <time>2021-06-30T08:45:17Z</time>
      </trkpt>
      <trkpt lat="45.326374" lon="5.597552">
        <ele>190.51321</ele>
        <time>2021-06-30T08:45:18Z</time>
      </trkpt>
      <trkpt lat="45.326366" lon="5.597570">
        <ele>190.55751</ele>
        <time>2021-06-30T08:45:19Z</time>
      </trkpt>
      <trkpt lat="45.326359" lon="5.597583">
        <ele>190.55463</ele>
        <time>2021-06-30T08:45:20Z</time>
      </trkpt>
      <trkpt lat="45.326347" lon="5.597598">
        <ele>190.53415</ele>
        <time>2021-06-30T08:45:21Z</time>
      </trkpt>
      <trkpt lat="45.326340" lon="5.597611">
        <ele>190.51898</ele>
        <time>2021-06-30T08:45:22Z</time>
      </trkpt>
      <trkpt lat="45.326328" lon="5.597629">
        <ele>190.55469</ele>
        <time>2021-06-30T08:45:23Z</time>
      </trkpt>
      <trkpt lat="45.326321" lon="5.597646">
        <ele>190.57211</ele>
        <time>2021-06-30T08:45:24Z</time>
      </trkpt>
      <trkpt lat="45.326313" lon="5.597661">
        <ele>190.61011</ele>
        <time>2021-06-30T08:45:25Z</time>
      </trkpt>
      <trkpt lat="45.326305" lon="5.597673">
        <ele>190.49388</ele>
        <time>2021-06-30T08:45:26Z</time>
      </trkpt>
      <trkpt lat="45.326298" lon="5.597683">
        <ele>190.46071</ele>
        <time>2021-06-30T08:45:27Z</time>
      </trkpt>
      <trkpt lat="45.326294" lon="5.597694">
        <ele>190.54616</ele>
        <time>2021-06-30T08:45:28Z</time>
      </trkpt>
      <trkpt lat="45.326286" lon="5.597707">
        <ele>190.49632</ele>
        <time>2021-06-30T08:45:29Z</time>
      </trkpt>
      <trkpt lat="45.326279" lon="5.597719">
        <ele>190.51062</ele>
        <time>2021-06-30T08:45:30Z</time>
      </trkpt>
      <trkpt lat="45.326267" lon="5.597736">
        <ele>190.54834</ele>
        <time>2021-06-30T08:45:31Z</time>
      </trkpt>
      <trkpt lat="45.326256" lon="5.597757">
        <ele>190.45712</ele>
        <time>2021-06-30T08:45:32Z</time>
      </trkpt>
      <trkpt lat="45.326237" lon="5.597789">
        <ele>190.44475</ele>
        <time>2021-06-30T08:45:33Z</time>
      </trkpt>
      <trkpt lat="45.326225" lon="5.597808">
        <ele>190.51947</ele>
        <time>2021-06-30T08:45:34Z</time>
      </trkpt>
      <trkpt lat="45.326214" lon="5.597830">
        <ele>190.51128</ele>
        <time>2021-06-30T08:45:35Z</time>
      </trkpt>
      <trkpt lat="45.326187" lon="5.597874">
        <ele>190.43031</ele>
        <time>2021-06-30T08:45:36Z</time>
      </trkpt>
      <trkpt lat="45.326160" lon="5.597924">
        <ele>190.37712</ele>
        <time>2021-06-30T08:45:37Z</time>
      </trkpt>
      <trkpt lat="45.326141" lon="5.597953">
        <ele>190.36703</ele>
        <time>2021-06-30T08:45:38Z</time>
      </trkpt>
      <trkpt lat="45.326130" lon="5.597972">
        <ele>190.38261</ele>
        <time>2021-06-30T08:45:39Z</time>
      </trkpt>
      <trkpt lat="45.326111" lon="5.598009">
        <ele>190.35048</ele>
        <time>2021-06-30T08:45:40Z</time>
      </trkpt>
      <trkpt lat="45.326092" lon="5.598037">
        <ele>190.36473</ele>
        <time>2021-06-30T08:45:41Z</time>
      </trkpt>
      <trkpt lat="45.326080" lon="5.598060">
        <ele>190.33812</ele>
        <time>2021-06-30T08:45:42Z</time>
      </trkpt>
      <trkpt lat="45.326065" lon="5.598084">
        <ele>190.31389</ele>
        <time>2021-06-30T08:45:43Z</time>
      </trkpt>
      <trkpt lat="45.326042" lon="5.598126">
        <ele>190.40445</ele>
        <time>2021-06-30T08:45:44Z</time>
      </trkpt>
      <trkpt lat="45.326000" lon="5.598200">
        <ele>190.75108</ele>
        <time>2021-06-30T08:45:45Z</time>
      </trkpt>
      <trkpt lat="45.326000" lon="5.598200">
        <ele>191.20859</ele>
        <time>2021-06-30T08:45:46Z</time>
      </trkpt>
      <trkpt lat="45.325943" lon="5.598299">
        <ele>191.36160</ele>
        <time>2021-06-30T08:45:47Z</time>
      </trkpt>
      <trkpt lat="45.325863" lon="5.598435">
        <ele>192.64030</ele>
        <time>2021-06-30T08:45:48Z</time>
      </trkpt>
      <trkpt lat="45.325771" lon="5.598594">
        <ele>192.62555</ele>
        <time>2021-06-30T08:45:49Z</time>
      </trkpt>
      <trkpt lat="45.325672" lon="5.598759">
        <ele>192.86334</ele>
        <time>2021-06-30T08:45:50Z</time>
      </trkpt>
      <trkpt lat="45.325569" lon="5.598938">
        <ele>192.90738</ele>
        <time>2021-06-30T08:45:51Z</time>
      </trkpt>
      <trkpt lat="45.325478" lon="5.599094">
        <ele>192.82329</ele>
        <time>2021-06-30T08:45:52Z</time>
      </trkpt>
      <trkpt lat="45.325394" lon="5.599235">
        <ele>193.26660</ele>
        <time>2021-06-30T08:45:53Z</time>
      </trkpt>
      <trkpt lat="45.325302" lon="5.599390">
        <ele>193.09445</ele>
        <time>2021-06-30T08:45:54Z</time>
      </trkpt>
      <trkpt lat="45.325203" lon="5.599557">
        <ele>193.19698</ele>
        <time>2021-06-30T08:45:55Z</time>
      </trkpt>
      <trkpt lat="45.325096" lon="5.599738">
        <ele>193.16507</ele>
        <time>2021-06-30T08:45:56Z</time>
      </trkpt>
      <trkpt lat="45.324993" lon="5.599910">
        <ele>193.23514</ele>
        <time>2021-06-30T08:45:57Z</time>
      </trkpt>
      <trkpt lat="45.324886" lon="5.600091">
        <ele>192.38684</ele>
        <time>2021-06-30T08:45:58Z</time>
      </trkpt>
      <trkpt lat="45.324780" lon="5.600287">
        <ele>192.28568</ele>
        <time>2021-06-30T08:45:59Z</time>
      </trkpt>
      <trkpt lat="45.324692" lon="5.600450">
        <ele>192.07718</ele>
        <time>2021-06-30T08:46:00Z</time>
      </trkpt>
      <trkpt lat="45.324600" lon="5.600619">
        <ele>191.44379</ele>
        <time>2021-06-30T08:46:01Z</time>
      </trkpt>
      <trkpt lat="45.324509" lon="5.600784">
        <ele>191.14529</ele>
        <time>2021-06-30T08:46:02Z</time>
      </trkpt>
      <trkpt lat="45.324436" lon="5.600920">
        <ele>190.77074</ele>
        <time>2021-06-30T08:46:03Z</time>
      </trkpt>
      <trkpt lat="45.324364" lon="5.601053">
        <ele>190.60027</ele>
        <time>2021-06-30T08:46:04Z</time>
      </trkpt>
      <trkpt lat="45.324291" lon="5.601172">
        <ele>190.61606</ele>
        <time>2021-06-30T08:46:05Z</time>
      </trkpt>
      <trkpt lat="45.324219" lon="5.601293">
        <ele>190.85672</ele>
        <time>2021-06-30T08:46:06Z</time>
      </trkpt>
      <trkpt lat="45.324139" lon="5.601421">
        <ele>190.64709</ele>
        <time>2021-06-30T08:46:07Z</time>
      </trkpt>
      <trkpt lat="45.324059" lon="5.601558">
        <ele>191.09766</ele>
        <time>2021-06-30T08:46:08Z</time>
      </trkpt>
      <trkpt lat="45.323956" lon="5.601726">
        <ele>191.12549</ele>
        <time>2021-06-30T08:46:09Z</time>
      </trkpt>
      <trkpt lat="45.323860" lon="5.601878">
        <ele>190.88107</ele>
        <time>2021-06-30T08:46:10Z</time>
      </trkpt>
      <trkpt lat="45.323765" lon="5.602029">
        <ele>190.23759</ele>
        <time>2021-06-30T08:46:11Z</time>
      </trkpt>
      <trkpt lat="45.323685" lon="5.602160">
        <ele>190.25758</ele>
        <time>2021-06-30T08:46:12Z</time>
      </trkpt>
      <trkpt lat="45.323616" lon="5.602266">
        <ele>190.17175</ele>
        <time>2021-06-30T08:46:13Z</time>
      </trkpt>
      <trkpt lat="45.323563" lon="5.602353">
        <ele>189.48778</ele>
        <time>2021-06-30T08:46:14Z</time>
      </trkpt>
      <trkpt lat="45.323517" lon="5.602424">
        <ele>188.73935</ele>
        <time>2021-06-30T08:46:15Z</time>
      </trkpt>
      <trkpt lat="45.323475" lon="5.602490">
        <ele>188.50525</ele>
        <time>2021-06-30T08:46:16Z</time>
      </trkpt>
      <trkpt lat="45.323448" lon="5.602534">
        <ele>188.40651</ele>
        <time>2021-06-30T08:46:17Z</time>
      </trkpt>
      <trkpt lat="45.323410" lon="5.602594">
        <ele>188.55190</ele>
        <time>2021-06-30T08:46:18Z</time>
      </trkpt>
      <trkpt lat="45.323357" lon="5.602679">
        <ele>188.45561</ele>
        <time>2021-06-30T08:46:19Z</time>
      </trkpt>
      <trkpt lat="45.323307" lon="5.602758">
        <ele>188.42227</ele>
        <time>2021-06-30T08:46:20Z</time>
      </trkpt>
      <trkpt lat="45.323250" lon="5.602846">
        <ele>188.23813</ele>
        <time>2021-06-30T08:46:21Z</time>
      </trkpt>
      <trkpt lat="45.323193" lon="5.602934">
        <ele>188.37476</ele>
        <time>2021-06-30T08:46:22Z</time>
      </trkpt>
      <trkpt lat="45.323193" lon="5.602934">
        <ele>188.21898</ele>
        <time>2021-06-30T08:46:23Z</time>
      </trkpt>
      <trkpt lat="45.323143" lon="5.603016">
        <ele>188.56503</ele>
        <time>2021-06-30T08:46:24Z</time>
      </trkpt>
      <trkpt lat="45.323086" lon="5.603107">
        <ele>188.27866</ele>
        <time>2021-06-30T08:46:25Z</time>
      </trkpt>
      <trkpt lat="45.323032" lon="5.603191">
        <ele>188.48183</ele>
        <time>2021-06-30T08:46:26Z</time>
      </trkpt>
      <trkpt lat="45.322971" lon="5.603285">
        <ele>188.32971</ele>
        <time>2021-06-30T08:46:27Z</time>
      </trkpt>
      <trkpt lat="45.322914" lon="5.603377">
        <ele>188.36372</ele>
        <time>2021-06-30T08:46:28Z</time>
      </trkpt>
      <trkpt lat="45.322865" lon="5.603457">
        <ele>188.37112</ele>
        <time>2021-06-30T08:46:29Z</time>
      </trkpt>
      <trkpt lat="45.322807" lon="5.603545">
        <ele>188.69313</ele>
        <time>2021-06-30T08:46:30Z</time>
      </trkpt>
      <trkpt lat="45.322739" lon="5.603646">
        <ele>188.37981</ele>
        <time>2021-06-30T08:46:31Z</time>
      </trkpt>
      <trkpt lat="45.322666" lon="5.603761">
        <ele>188.19901</ele>
        <time>2021-06-30T08:46:32Z</time>
      </trkpt>
      <trkpt lat="45.322598" lon="5.603862">
        <ele>188.11203</ele>
        <time>2021-06-30T08:46:33Z</time>
      </trkpt>
      <trkpt lat="45.322540" lon="5.603945">
        <ele>188.05991</ele>
        <time>2021-06-30T08:46:34Z</time>
      </trkpt>
      <trkpt lat="45.322483" lon="5.604032">
        <ele>188.00714</ele>
        <time>2021-06-30T08:46:35Z</time>
      </trkpt>
      <trkpt lat="45.322418" lon="5.604127">
        <ele>188.38408</ele>
        <time>2021-06-30T08:46:36Z</time>
      </trkpt>
      <trkpt lat="45.322353" lon="5.604222">
        <ele>188.40996</ele>
        <time>2021-06-30T08:46:37Z</time>
      </trkpt>
      <trkpt lat="45.322289" lon="5.604313">
        <ele>188.37007</ele>
        <time>2021-06-30T08:46:38Z</time>
      </trkpt>
      <trkpt lat="45.322224" lon="5.604413">
        <ele>188.39204</ele>
        <time>2021-06-30T08:46:39Z</time>
      </trkpt>
      <trkpt lat="45.322140" lon="5.604534">
        <ele>188.30362</ele>
        <time>2021-06-30T08:46:40Z</time>
      </trkpt>
      <trkpt lat="45.322056" lon="5.604653">
        <ele>187.97275</ele>
        <time>2021-06-30T08:46:41Z</time>
      </trkpt>
      <trkpt lat="45.321995" lon="5.604746">
        <ele>187.80110</ele>
        <time>2021-06-30T08:46:42Z</time>
      </trkpt>
      <trkpt lat="45.321934" lon="5.604833">
        <ele>187.77742</ele>
        <time>2021-06-30T08:46:43Z</time>
      </trkpt>
      <trkpt lat="45.321877" lon="5.604919">
        <ele>187.97675</ele>
        <time>2021-06-30T08:46:44Z</time>
      </trkpt>
      <trkpt lat="45.321819" lon="5.604999">
        <ele>187.77914</ele>
        <time>2021-06-30T08:46:45Z</time>
      </trkpt>
      <trkpt lat="45.321754" lon="5.605094">
        <ele>187.65585</ele>
        <time>2021-06-30T08:46:46Z</time>
      </trkpt>
      <trkpt lat="45.321697" lon="5.605170">
        <ele>187.56122</ele>
        <time>2021-06-30T08:46:47Z</time>
      </trkpt>
      <trkpt lat="45.321663" lon="5.605220">
        <ele>187.55685</ele>
        <time>2021-06-30T08:46:48Z</time>
      </trkpt>
      <trkpt lat="45.321613" lon="5.605285">
        <ele>187.72844</ele>
        <time>2021-06-30T08:46:49Z</time>
      </trkpt>
      <trkpt lat="45.321556" lon="5.605367">
        <ele>187.67638</ele>
        <time>2021-06-30T08:46:50Z</time>
      </trkpt>
      <trkpt lat="45.321514" lon="5.605425">
        <ele>187.60501</ele>
        <time>2021-06-30T08:46:51Z</time>
      </trkpt>
      <trkpt lat="45.321472" lon="5.605488">
        <ele>187.72473</ele>
        <time>2021-06-30T08:46:52Z</time>
      </trkpt>
      <trkpt lat="45.321426" lon="5.605549">
        <ele>187.48643</ele>
        <time>2021-06-30T08:46:53Z</time>
      </trkpt>
      <trkpt lat="45.321381" lon="5.605616">
        <ele>187.45915</ele>
        <time>2021-06-30T08:46:54Z</time>
      </trkpt>
      <trkpt lat="45.321339" lon="5.605676">
        <ele>187.52896</ele>
        <time>2021-06-30T08:46:55Z</time>
      </trkpt>
      <trkpt lat="45.321289" lon="5.605743">
        <ele>187.54999</ele>
        <time>2021-06-30T08:46:56Z</time>
      </trkpt>
      <trkpt lat="45.321239" lon="5.605812">
        <ele>187.68103</ele>
        <time>2021-06-30T08:46:57Z</time>
      </trkpt>
      <trkpt lat="45.321186" lon="5.605883">
        <ele>187.55836</ele>
        <time>2021-06-30T08:46:58Z</time>
      </trkpt>
      <trkpt lat="45.321129" lon="5.605963">
        <ele>187.59821</ele>
        <time>2021-06-30T08:46:59Z</time>
      </trkpt>
      <trkpt lat="45.321129" lon="5.605963">
        <ele>187.61963</ele>
        <time>2021-06-30T08:47:00Z</time>
      </trkpt>
      <trkpt lat="45.321068" lon="5.606043">
        <ele>187.54880</ele>
        <time>2021-06-30T08:47:01Z</time>
      </trkpt>
      <trkpt lat="45.321011" lon="5.606126">
        <ele>187.41684</ele>
        <time>2021-06-30T08:47:02Z</time>
      </trkpt>
      <trkpt lat="45.320946" lon="5.606210">
        <ele>187.59628</ele>
        <time>2021-06-30T08:47:03Z</time>
      </trkpt>
      <trkpt lat="45.320881" lon="5.606298">
        <ele>187.36203</ele>
        <time>2021-06-30T08:47:04Z</time>
      </trkpt>
      <trkpt lat="45.320805" lon="5.606396">
        <ele>187.42934</ele>
        <time>2021-06-30T08:47:05Z</time>
      </trkpt>
      <trkpt lat="45.320724" lon="5.606500">
        <ele>187.30623</ele>
        <time>2021-06-30T08:47:06Z</time>
      </trkpt>
      <trkpt lat="45.320648" lon="5.606599">
        <ele>187.43175</ele>
        <time>2021-06-30T08:47:07Z</time>
      </trkpt>
      <trkpt lat="45.320587" lon="5.606683">
        <ele>187.44228</ele>
        <time>2021-06-30T08:47:08Z</time>
      </trkpt>
      <trkpt lat="45.320522" lon="5.606768">
        <ele>187.31706</ele>
        <time>2021-06-30T08:47:09Z</time>
      </trkpt>
      <trkpt lat="45.320454" lon="5.606856">
        <ele>187.54497</ele>
        <time>2021-06-30T08:47:10Z</time>
      </trkpt>
      <trkpt lat="45.320381" lon="5.606953">
        <ele>187.35889</ele>
        <time>2021-06-30T08:47:11Z</time>
      </trkpt>
      <trkpt lat="45.320301" lon="5.607059">
        <ele>187.34007</ele>
        <time>2021-06-30T08:47:12Z</time>
      </trkpt>
      <trkpt lat="45.320225" lon="5.607157">
        <ele>187.38925</ele>
        <time>2021-06-30T08:47:13Z</time>
      </trkpt>
      <trkpt lat="45.320152" lon="5.607254">
        <ele>187.64674</ele>
        <time>2021-06-30T08:47:14Z</time>
      </trkpt>
      <trkpt lat="45.320068" lon="5.607364">
        <ele>187.45633</ele>
        <time>2021-06-30T08:47:15Z</time>
      </trkpt>
      <trkpt lat="45.319977" lon="5.607482">
        <ele>187.66138</ele>
        <time>2021-06-30T08:47:16Z</time>
      </trkpt>
      <trkpt lat="45.319893" lon="5.607594">
        <ele>187.84132</ele>
        <time>2021-06-30T08:47:17Z</time>
      </trkpt>
      <trkpt lat="45.319794" lon="5.607715">
        <ele>187.47679</ele>
        <time>2021-06-30T08:47:18Z</time>
      </trkpt>
      <trkpt lat="45.319698" lon="5.607831">
        <ele>187.64780</ele>
        <time>2021-06-30T08:47:19Z</time>
      </trkpt>
      <trkpt lat="45.319618" lon="5.607932">
        <ele>187.43964</ele>
        <time>2021-06-30T08:47:20Z</time>
      </trkpt>
      <trkpt lat="45.319538" lon="5.608030">
        <ele>187.68633</ele>
        <time>2021-06-30T08:47:21Z</time>
      </trkpt>
      <trkpt lat="45.319454" lon="5.608128">
        <ele>187.59073</ele>
        <time>2021-06-30T08:47:22Z</time>
      </trkpt>
      <trkpt lat="45.319374" lon="5.608227">
        <ele>187.71365</ele>
        <time>2021-06-30T08:47:23Z</time>
      </trkpt>
      <trkpt lat="45.319290" lon="5.608325">
        <ele>187.69028</ele>
        <time>2021-06-30T08:47:24Z</time>
      </trkpt>
      <trkpt lat="45.319202" lon="5.608405">
        <ele>188.02005</ele>
        <time>2021-06-30T08:47:25Z</time>
      </trkpt>
      <trkpt lat="45.319118" lon="5.608495">
        <ele>187.75337</ele>
        <time>2021-06-30T08:47:26Z</time>
      </trkpt>
      <trkpt lat="45.319031" lon="5.608596">
        <ele>188.09534</ele>
        <time>2021-06-30T08:47:27Z</time>
      </trkpt>
      <trkpt lat="45.318947" lon="5.608692">
        <ele>188.10158</ele>
        <time>2021-06-30T08:47:28Z</time>
      </trkpt>
      <trkpt lat="45.318871" lon="5.608783">
        <ele>187.96049</ele>
        <time>2021-06-30T08:47:29Z</time>
      </trkpt>
      <trkpt lat="45.318790" lon="5.608883">
        <ele>188.01863</ele>
        <time>2021-06-30T08:47:30Z</time>
      </trkpt>
      <trkpt lat="45.318729" lon="5.608961">
        <ele>187.86174</ele>
        <time>2021-06-30T08:47:31Z</time>
      </trkpt>
      <trkpt lat="45.318676" lon="5.609027">
        <ele>187.95392</ele>
        <time>2021-06-30T08:47:32Z</time>
      </trkpt>
      <trkpt lat="45.318642" lon="5.609069">
        <ele>187.95511</ele>
        <time>2021-06-30T08:47:33Z</time>
      </trkpt>
      <trkpt lat="45.318600" lon="5.609117">
        <ele>187.79701</ele>
        <time>2021-06-30T08:47:34Z</time>
      </trkpt>
      <trkpt lat="45.318577" lon="5.609146">
        <ele>187.75642</ele>
        <time>2021-06-30T08:47:35Z</time>
      </trkpt>
      <trkpt lat="45.318577" lon="5.609146">
        <ele>187.82652</ele>
        <time>2021-06-30T08:47:36Z</time>
      </trkpt>
      <trkpt lat="45.318562" lon="5.609165">
        <ele>187.81398</ele>
        <time>2021-06-30T08:47:37Z</time>
      </trkpt>
      <trkpt lat="45.318546" lon="5.609182">
        <ele>187.89369</ele>
        <time>2021-06-30T08:47:38Z</time>
      </trkpt>
      <trkpt lat="45.318531" lon="5.609201">
        <ele>187.97372</ele>
        <time>2021-06-30T08:47:39Z</time>
      </trkpt>
      <trkpt lat="45.318508" lon="5.609225">
        <ele>187.99139</ele>
        <time>2021-06-30T08:47:40Z</time>
      </trkpt>
      <trkpt lat="45.318493" lon="5.609246">
        <ele>188.06201</ele>
        <time>2021-06-30T08:47:41Z</time>
      </trkpt>
      <trkpt lat="45.318478" lon="5.609261">
        <ele>188.04575</ele>
        <time>2021-06-30T08:47:42Z</time>
      </trkpt>
      <trkpt lat="45.318462" lon="5.609282">
        <ele>187.95024</ele>
        <time>2021-06-30T08:47:43Z</time>
      </trkpt>
      <trkpt lat="45.318432" lon="5.609317">
        <ele>187.94211</ele>
        <time>2021-06-30T08:47:44Z</time>
      </trkpt>
      <trkpt lat="45.318405" lon="5.609346">
        <ele>187.98318</ele>
        <time>2021-06-30T08:47:45Z</time>
      </trkpt>
      <trkpt lat="45.318378" lon="5.609379">
        <ele>188.05191</ele>
        <time>2021-06-30T08:47:46Z</time>
      </trkpt>
      <trkpt lat="45.318340" lon="5.609421">
        <ele>188.21880</ele>
        <time>2021-06-30T08:47:47Z</time>
      </trkpt>
      <trkpt lat="45.318291" lon="5.609484">
        <ele>188.02541</ele>
        <time>2021-06-30T08:47:48Z</time>
      </trkpt>
      <trkpt lat="45.318237" lon="5.609543">
        <ele>188.03867</ele>
        <time>2021-06-30T08:47:49Z</time>
      </trkpt>
      <trkpt lat="45.318195" lon="5.609594">
        <ele>187.81636</ele>
        <time>2021-06-30T08:47:50Z</time>
      </trkpt>
      <trkpt lat="45.318150" lon="5.609645">
        <ele>187.94386</ele>
        <time>2021-06-30T08:47:51Z</time>
      </trkpt>
      <trkpt lat="45.318096" lon="5.609705">
        <ele>188.03709</ele>
        <time>2021-06-30T08:47:52Z</time>
      </trkpt>
      <trkpt lat="45.318043" lon="5.609763">
        <ele>187.75967</ele>
        <time>2021-06-30T08:47:53Z</time>
      </trkpt>
      <trkpt lat="45.318001" lon="5.609811">
        <ele>187.80983</ele>
        <time>2021-06-30T08:47:54Z</time>
      </trkpt>
      <trkpt lat="45.317970" lon="5.609844">
        <ele>187.77171</ele>
        <time>2021-06-30T08:47:55Z</time>
      </trkpt>
      <trkpt lat="45.317963" lon="5.609856">
        <ele>187.69862</ele>
        <time>2021-06-30T08:47:56Z</time>
      </trkpt>
      <trkpt lat="45.317951" lon="5.609869">
        <ele>187.81123</ele>
        <time>2021-06-30T08:47:57Z</time>
      </trkpt>
      <trkpt lat="45.317932" lon="5.609889">
        <ele>188.10405</ele>
        <time>2021-06-30T08:47:58Z</time>
      </trkpt>
      <trkpt lat="45.317905" lon="5.609918">
        <ele>187.71736</ele>
        <time>2021-06-30T08:47:59Z</time>
      </trkpt>
      <trkpt lat="45.317890" lon="5.609935">
        <ele>187.87022</ele>
        <time>2021-06-30T08:48:00Z</time>
      </trkpt>
      <trkpt lat="45.317867" lon="5.609962">
        <ele>187.89528</ele>
        <time>2021-06-30T08:48:01Z</time>
      </trkpt>
      <trkpt lat="45.317833" lon="5.609999">
        <ele>187.88684</ele>
        <time>2021-06-30T08:48:02Z</time>
      </trkpt>
      <trkpt lat="45.317802" lon="5.610036">
        <ele>187.97452</ele>
        <time>2021-06-30T08:48:03Z</time>
      </trkpt>
      <trkpt lat="45.317764" lon="5.610078">
        <ele>187.93530</ele>
        <time>2021-06-30T08:48:04Z</time>
      </trkpt>
      <trkpt lat="45.317726" lon="5.610121">
        <ele>188.05632</ele>
        <time>2021-06-30T08:48:05Z</time>
      </trkpt>
      <trkpt lat="45.317692" lon="5.610160">
        <ele>187.98737</ele>
        <time>2021-06-30T08:48:06Z</time>
      </trkpt>
      <trkpt lat="45.317657" lon="5.610198">
        <ele>187.95244</ele>
        <time>2021-06-30T08:48:07Z</time>
      </trkpt>
      <trkpt lat="45.317619" lon="5.610239">
        <ele>188.05592</ele>
        <time>2021-06-30T08:48:08Z</time>
      </trkpt>
      <trkpt lat="45.317619" lon="5.610239">
        <ele>188.23112</ele>
        <time>2021-06-30T08:48:09Z</time>
      </trkpt>
      <trkpt lat="45.317574" lon="5.610290">
        <ele>188.43909</ele>
        <time>2021-06-30T08:48:10Z</time>
      </trkpt>
      <trkpt lat="45.317516" lon="5.610355">
        <ele>188.30138</ele>
        <time>2021-06-30T08:48:11Z</time>
      </trkpt>
      <trkpt lat="45.317448" lon="5.610425">
        <ele>188.39738</ele>
        <time>2021-06-30T08:48:12Z</time>
      </trkpt>
      <trkpt lat="45.317383" lon="5.610493">
        <ele>188.49045</ele>
        <time>2021-06-30T08:48:13Z</time>
      </trkpt>
      <trkpt lat="45.317307" lon="5.610571">
        <ele>188.49490</ele>
        <time>2021-06-30T08:48:14Z</time>
      </trkpt>
      <trkpt lat="45.317234" lon="5.610645">
        <ele>188.41028</ele>
        <time>2021-06-30T08:48:15Z</time>
      </trkpt>
      <trkpt lat="45.317169" lon="5.610712">
        <ele>188.31194</ele>
        <time>2021-06-30T08:48:16Z</time>
      </trkpt>
      <trkpt lat="45.317112" lon="5.610772">
        <ele>188.40353</ele>
        <time>2021-06-30T08:48:17Z</time>
      </trkpt>
      <trkpt lat="45.317051" lon="5.610836">
        <ele>188.44112</ele>
        <time>2021-06-30T08:48:18Z</time>
      </trkpt>
      <trkpt lat="45.316986" lon="5.610909">
        <ele>188.54166</ele>
        <time>2021-06-30T08:48:19Z</time>
      </trkpt>
      <trkpt lat="45.316917" lon="5.610983">
        <ele>188.72578</ele>
        <time>2021-06-30T08:48:20Z</time>
      </trkpt>
      <trkpt lat="45.316845" lon="5.611062">
        <ele>188.50677</ele>
        <time>2021-06-30T08:48:21Z</time>
      </trkpt>
      <trkpt lat="45.316769" lon="5.611141">
        <ele>188.70598</ele>
        <time>2021-06-30T08:48:22Z</time>
      </trkpt>
      <trkpt lat="45.316700" lon="5.611213">
        <ele>188.42700</ele>
        <time>2021-06-30T08:48:23Z</time>
      </trkpt>
      <trkpt lat="45.316628" lon="5.611288">
        <ele>188.41675</ele>
        <time>2021-06-30T08:48:24Z</time>
      </trkpt>
      <trkpt lat="45.316559" lon="5.611357">
        <ele>188.42819</ele>
        <time>2021-06-30T08:48:25Z</time>
      </trkpt>
      <trkpt lat="45.316494" lon="5.611424">
        <ele>188.68513</ele>
        <time>2021-06-30T08:48:26Z</time>
      </trkpt>
      <trkpt lat="45.316425" lon="5.611493">
        <ele>189.00298</ele>
        <time>2021-06-30T08:48:27Z</time>
      </trkpt>
      <trkpt lat="45.316349" lon="5.611570">
        <ele>188.59052</ele>
        <time>2021-06-30T08:48:28Z</time>
      </trkpt>
      <trkpt lat="45.316277" lon="5.611647">
        <ele>188.44943</ele>
        <time>2021-06-30T08:48:29Z</time>
      </trkpt>
      <trkpt lat="45.316204" lon="5.611719">
        <ele>188.46959</ele>
        <time>2021-06-30T08:48:30Z</time>
      </trkpt>
      <trkpt lat="45.316135" lon="5.611789">
        <ele>188.59245</ele>
        <time>2021-06-30T08:48:31Z</time>
      </trkpt>
      <trkpt lat="45.316067" lon="5.611857">
        <ele>188.79337</ele>
        <time>2021-06-30T08:48:32Z</time>
      </trkpt>
      <trkpt lat="45.316006" lon="5.611922">
        <ele>188.73390</ele>
        <time>2021-06-30T08:48:33Z</time>
      </trkpt>
      <trkpt lat="45.315945" lon="5.611982">
        <ele>188.80283</ele>
        <time>2021-06-30T08:48:34Z</time>
      </trkpt>
      <trkpt lat="45.315891" lon="5.612039">
        <ele>188.73537</ele>
        <time>2021-06-30T08:48:35Z</time>
      </trkpt>
      <trkpt lat="45.315830" lon="5.612102">
        <ele>188.83331</ele>
        <time>2021-06-30T08:48:36Z</time>
      </trkpt>
      <trkpt lat="45.315765" lon="5.612165">
        <ele>188.84970</ele>
        <time>2021-06-30T08:48:37Z</time>
      </trkpt>
      <trkpt lat="45.315712" lon="5.612221">
        <ele>189.10249</ele>
        <time>2021-06-30T08:48:38Z</time>
      </trkpt>
      <trkpt lat="45.315655" lon="5.612278">
        <ele>189.16280</ele>
        <time>2021-06-30T08:48:39Z</time>
      </trkpt>
      <trkpt lat="45.315605" lon="5.612331">
        <ele>189.35229</ele>
        <time>2021-06-30T08:48:40Z</time>
      </trkpt>
      <trkpt lat="45.315548" lon="5.612388">
        <ele>189.46306</ele>
        <time>2021-06-30T08:48:41Z</time>
      </trkpt>
      <trkpt lat="45.315483" lon="5.612454">
        <ele>189.53735</ele>
        <time>2021-06-30T08:48:42Z</time>
      </trkpt>
      <trkpt lat="45.315414" lon="5.612522">
        <ele>189.54697</ele>
        <time>2021-06-30T08:48:43Z</time>
      </trkpt>
      <trkpt lat="45.315350" lon="5.612588">
        <ele>189.55548</ele>
        <time>2021-06-30T08:48:44Z</time>
      </trkpt>
      <trkpt lat="45.315350" lon="5.612588">
        <ele>189.67999</ele>
        <time>2021-06-30T08:48:45Z</time>
      </trkpt>
      <trkpt lat="45.315277" lon="5.612662">
        <ele>189.86331</ele>
        <time>2021-06-30T08:48:46Z</time>
      </trkpt>
      <trkpt lat="45.315205" lon="5.612737">
        <ele>189.75986</ele>
        <time>2021-06-30T08:48:47Z</time>
      </trkpt>
      <trkpt lat="45.315117" lon="5.612821">
        <ele>190.00485</ele>
        <time>2021-06-30T08:48:48Z</time>
      </trkpt>
      <trkpt lat="45.315029" lon="5.612905">
        <ele>190.13391</ele>
        <time>2021-06-30T08:48:49Z</time>
      </trkpt>
      <trkpt lat="45.314934" lon="5.612993">
        <ele>190.36322</ele>
        <time>2021-06-30T08:48:50Z</time>
      </trkpt>
      <trkpt lat="45.314838" lon="5.613085">
        <ele>190.46368</ele>
        <time>2021-06-30T08:48:51Z</time>
      </trkpt>
      <trkpt lat="45.314747" lon="5.613174">
        <ele>190.53902</ele>
        <time>2021-06-30T08:48:52Z</time>
      </trkpt>
      <trkpt lat="45.314655" lon="5.613262">
        <ele>190.39699</ele>
        <time>2021-06-30T08:48:53Z</time>
      </trkpt>
      <trkpt lat="45.314560" lon="5.613352">
        <ele>190.62685</ele>
        <time>2021-06-30T08:48:54Z</time>
      </trkpt>
      <trkpt lat="45.314472" lon="5.613436">
        <ele>190.75302</ele>
        <time>2021-06-30T08:48:55Z</time>
      </trkpt>
      <trkpt lat="45.314381" lon="5.613524">
        <ele>190.83995</ele>
        <time>2021-06-30T08:48:56Z</time>
      </trkpt>
      <trkpt lat="45.314285" lon="5.613616">
        <ele>190.82780</ele>
        <time>2021-06-30T08:48:57Z</time>
      </trkpt>
      <trkpt lat="45.314182" lon="5.613713">
        <ele>190.77757</ele>
        <time>2021-06-30T08:48:58Z</time>
      </trkpt>
      <trkpt lat="45.314083" lon="5.613809">
        <ele>190.67093</ele>
        <time>2021-06-30T08:48:59Z</time>
      </trkpt>
      <trkpt lat="45.313980" lon="5.613905">
        <ele>190.88408</ele>
        <time>2021-06-30T08:49:00Z</time>
      </trkpt>
      <trkpt lat="45.313877" lon="5.614002">
        <ele>191.15085</ele>
        <time>2021-06-30T08:49:01Z</time>
      </trkpt>
      <trkpt lat="45.313778" lon="5.614092">
        <ele>191.01750</ele>
        <time>2021-06-30T08:49:02Z</time>
      </trkpt>
      <trkpt lat="45.313679" lon="5.614182">
        <ele>191.08192</ele>
        <time>2021-06-30T08:49:03Z</time>
      </trkpt>
      <trkpt lat="45.313583" lon="5.614269">
        <ele>190.92184</ele>
        <time>2021-06-30T08:49:04Z</time>
      </trkpt>
      <trkpt lat="45.313488" lon="5.614356">
        <ele>190.99597</ele>
        <time>2021-06-30T08:49:05Z</time>
      </trkpt>
      <trkpt lat="45.313381" lon="5.614451">
        <ele>191.38863</ele>
        <time>2021-06-30T08:49:06Z</time>
      </trkpt>
      <trkpt lat="45.313274" lon="5.614545">
        <ele>191.22633</ele>
        <time>2021-06-30T08:49:07Z</time>
      </trkpt>
      <trkpt lat="45.313164" lon="5.614646">
        <ele>191.20950</ele>
        <time>2021-06-30T08:49:08Z</time>
      </trkpt>
      <trkpt lat="45.313034" lon="5.614760">
        <ele>191.32782</ele>
        <time>2021-06-30T08:49:09Z</time>
      </trkpt>
      <trkpt lat="45.312912" lon="5.614870">
        <ele>191.47174</ele>
        <time>2021-06-30T08:49:10Z</time>
      </trkpt>
      <trkpt lat="45.312790" lon="5.614978">
        <ele>191.85100</ele>
        <time>2021-06-30T08:49:11Z</time>
      </trkpt>
      <trkpt lat="45.312660" lon="5.615094">
        <ele>191.72597</ele>
        <time>2021-06-30T08:49:12Z</time>
      </trkpt>
      <trkpt lat="45.312538" lon="5.615201">
        <ele>191.81705</ele>
        <time>2021-06-30T08:49:13Z</time>
      </trkpt>
      <trkpt lat="45.312538" lon="5.615201">
        <ele>191.83156</ele>
        <time>2021-06-30T08:49:14Z</time>
      </trkpt>
      <trkpt lat="45.312405" lon="5.615314">
        <ele>191.80566</ele>
        <time>2021-06-30T08:49:15Z</time>
      </trkpt>
      <trkpt lat="45.312275" lon="5.615426">
        <ele>192.07913</ele>
        <time>2021-06-30T08:49:16Z</time>
      </trkpt>
      <trkpt lat="45.312138" lon="5.615541">
        <ele>192.04448</ele>
        <time>2021-06-30T08:49:17Z</time>
      </trkpt>
      <trkpt lat="45.312008" lon="5.615654">
        <ele>192.05766</ele>
        <time>2021-06-30T08:49:18Z</time>
      </trkpt>
      <trkpt lat="45.311874" lon="5.615770">
        <ele>192.31975</ele>
        <time>2021-06-30T08:49:19Z</time>
      </trkpt>
      <trkpt lat="45.311741" lon="5.615893">
        <ele>192.23822</ele>
        <time>2021-06-30T08:49:20Z</time>
      </trkpt>
      <trkpt lat="45.311607" lon="5.616014">
        <ele>192.58307</ele>
        <time>2021-06-30T08:49:21Z</time>
      </trkpt>
      <trkpt lat="45.311470" lon="5.616127">
        <ele>193.05406</ele>
        <time>2021-06-30T08:49:22Z</time>
      </trkpt>
      <trkpt lat="45.311333" lon="5.616241">
        <ele>193.04567</ele>
        <time>2021-06-30T08:49:23Z</time>
      </trkpt>
      <trkpt lat="45.311180" lon="5.616367">
        <ele>192.72153</ele>
        <time>2021-06-30T08:49:24Z</time>
      </trkpt>
      <trkpt lat="45.311028" lon="5.616494">
        <ele>192.66412</ele>
        <time>2021-06-30T08:49:25Z</time>
      </trkpt>
      <trkpt lat="45.310902" lon="5.616598">
        <ele>191.91537</ele>
        <time>2021-06-30T08:49:26Z</time>
      </trkpt>
      <trkpt lat="45.310776" lon="5.616703">
        <ele>192.21841</ele>
        <time>2021-06-30T08:49:27Z</time>
      </trkpt>
      <trkpt lat="45.310638" lon="5.616815">
        <ele>191.89969</ele>
        <time>2021-06-30T08:49:28Z</time>
      </trkpt>
      <trkpt lat="45.310516" lon="5.616916">
        <ele>191.67357</ele>
        <time>2021-06-30T08:49:29Z</time>
      </trkpt>
      <trkpt lat="45.310394" lon="5.617010">
        <ele>191.93877</ele>
        <time>2021-06-30T08:49:30Z</time>
      </trkpt>
      <trkpt lat="45.310265" lon="5.617109">
        <ele>192.04735</ele>
        <time>2021-06-30T08:49:31Z</time>
      </trkpt>
      <trkpt lat="45.310123" lon="5.617219">
        <ele>192.08415</ele>
        <time>2021-06-30T08:49:32Z</time>
      </trkpt>
      <trkpt lat="45.309978" lon="5.617331">
        <ele>192.50598</ele>
        <time>2021-06-30T08:49:33Z</time>
      </trkpt>
      <trkpt lat="45.309837" lon="5.617439">
        <ele>192.73712</ele>
        <time>2021-06-30T08:49:34Z</time>
      </trkpt>
      <trkpt lat="45.309689" lon="5.617555">
        <ele>193.24808</ele>
        <time>2021-06-30T08:49:35Z</time>
      </trkpt>
      <trkpt lat="45.309532" lon="5.617674">
        <ele>193.89952</ele>
        <time>2021-06-30T08:49:36Z</time>
      </trkpt>
      <trkpt lat="45.309353" lon="5.617812">
        <ele>191.80356</ele>
        <time>2021-06-30T08:49:37Z</time>
      </trkpt>
      <trkpt lat="45.309174" lon="5.617944">
        <ele>191.66794</ele>
        <time>2021-06-30T08:49:38Z</time>
      </trkpt>
      <trkpt lat="45.309013" lon="5.618060">
        <ele>191.52151</ele>
        <time>2021-06-30T08:49:39Z</time>
      </trkpt>
      <trkpt lat="45.308846" lon="5.618180">
        <ele>191.26279</ele>
        <time>2021-06-30T08:49:40Z</time>
      </trkpt>
      <trkpt lat="45.308674" lon="5.618306">
        <ele>193.53040</ele>
        <time>2021-06-30T08:49:41Z</time>
      </trkpt>
      <trkpt lat="45.308521" lon="5.618415">
        <ele>193.35107</ele>
        <time>2021-06-30T08:49:42Z</time>
      </trkpt>
      <trkpt lat="45.308365" lon="5.618527">
        <ele>193.42186</ele>
        <time>2021-06-30T08:49:43Z</time>
      </trkpt>
      <trkpt lat="45.308231" lon="5.618623">
        <ele>193.14427</ele>
        <time>2021-06-30T08:49:44Z</time>
      </trkpt>
      <trkpt lat="45.308048" lon="5.618753">
        <ele>192.94728</ele>
        <time>2021-06-30T08:49:45Z</time>
      </trkpt>
      <trkpt lat="45.307888" lon="5.618865">
        <ele>190.63168</ele>
        <time>2021-06-30T08:49:46Z</time>
      </trkpt>
      <trkpt lat="45.307716" lon="5.618980">
        <ele>190.17282</ele>
        <time>2021-06-30T08:49:47Z</time>
      </trkpt>
      <trkpt lat="45.307545" lon="5.619095">
        <ele>189.92154</ele>
        <time>2021-06-30T08:49:48Z</time>
      </trkpt>
      <trkpt lat="45.307369" lon="5.619213">
        <ele>194.48546</ele>
        <time>2021-06-30T08:49:49Z</time>
      </trkpt>
      <trkpt lat="45.307198" lon="5.619326">
        <ele>190.58151</ele>
        <time>2021-06-30T08:49:50Z</time>
      </trkpt>
      <trkpt lat="45.307030" lon="5.619437">
        <ele>190.00693</ele>
        <time>2021-06-30T08:49:51Z</time>
      </trkpt>
      <trkpt lat="45.306858" lon="5.619549">
        <ele>193.97774</ele>
        <time>2021-06-30T08:49:52Z</time>
      </trkpt>
      <trkpt lat="45.306683" lon="5.619657">
        <ele>190.82443</ele>
        <time>2021-06-30T08:49:53Z</time>
      </trkpt>
      <trkpt lat="45.306515" lon="5.619760">
        <ele>190.37985</ele>
        <time>2021-06-30T08:49:54Z</time>
      </trkpt>
      <trkpt lat="45.306515" lon="5.619760">
        <ele>190.36447</ele>
        <time>2021-06-30T08:49:55Z</time>
      </trkpt>
      <trkpt lat="45.306335" lon="5.619871">
        <ele>189.81204</ele>
        <time>2021-06-30T08:49:56Z</time>
      </trkpt>
      <trkpt lat="45.306149" lon="5.619986">
        <ele>190.14713</ele>
        <time>2021-06-30T08:49:57Z</time>
      </trkpt>
      <trkpt lat="45.305969" lon="5.620098">
        <ele>189.84714</ele>
        <time>2021-06-30T08:49:58Z</time>
      </trkpt>
      <trkpt lat="45.305794" lon="5.620199">
        <ele>189.73111</ele>
        <time>2021-06-30T08:49:59Z</time>
      </trkpt>
      <trkpt lat="45.305614" lon="5.620298">
        <ele>189.79288</ele>
        <time>2021-06-30T08:50:00Z</time>
      </trkpt>
      <trkpt lat="45.305420" lon="5.620405">
        <ele>189.49564</ele>
        <time>2021-06-30T08:50:01Z</time>
      </trkpt>
      <trkpt lat="45.305222" lon="5.620510">
        <ele>189.63278</ele>
        <time>2021-06-30T08:50:02Z</time>
      </trkpt>
      <trkpt lat="45.305031" lon="5.620603">
        <ele>189.86191</ele>
        <time>2021-06-30T08:50:03Z</time>
      </trkpt>
      <trkpt lat="45.304829" lon="5.620702">
        <ele>190.20535</ele>
        <time>2021-06-30T08:50:04Z</time>
      </trkpt>
      <trkpt lat="45.304634" lon="5.620791">
        <ele>190.53964</ele>
        <time>2021-06-30T08:50:05Z</time>
      </trkpt>
      <trkpt lat="45.304440" lon="5.620873">
        <ele>191.21933</ele>
        <time>2021-06-30T08:50:06Z</time>
      </trkpt>
      <trkpt lat="45.304237" lon="5.620960">
        <ele>191.70999</ele>
        <time>2021-06-30T08:50:07Z</time>
      </trkpt>
      <trkpt lat="45.304024" lon="5.621036">
        <ele>192.33810</ele>
        <time>2021-06-30T08:50:08Z</time>
      </trkpt>
      <trkpt lat="45.303822" lon="5.621107">
        <ele>192.97519</ele>
        <time>2021-06-30T08:50:09Z</time>
      </trkpt>
      <trkpt lat="45.303619" lon="5.621171">
        <ele>193.47372</ele>
        <time>2021-06-30T08:50:10Z</time>
      </trkpt>
      <trkpt lat="45.303425" lon="5.621229">
        <ele>194.02097</ele>
        <time>2021-06-30T08:50:11Z</time>
      </trkpt>
      <trkpt lat="45.303226" lon="5.621287">
        <ele>193.81558</ele>
        <time>2021-06-30T08:50:12Z</time>
      </trkpt>
      <trkpt lat="45.303024" lon="5.621335">
        <ele>194.40591</ele>
        <time>2021-06-30T08:50:13Z</time>
      </trkpt>
      <trkpt lat="45.302834" lon="5.621380">
        <ele>195.25143</ele>
        <time>2021-06-30T08:50:14Z</time>
      </trkpt>
      <trkpt lat="45.302631" lon="5.621425">
        <ele>195.59824</ele>
        <time>2021-06-30T08:50:15Z</time>
      </trkpt>
      <trkpt lat="45.302433" lon="5.621458">
        <ele>196.37943</ele>
        <time>2021-06-30T08:50:16Z</time>
      </trkpt>
      <trkpt lat="45.302242" lon="5.621489">
        <ele>196.74667</ele>
        <time>2021-06-30T08:50:17Z</time>
      </trkpt>
      <trkpt lat="45.302048" lon="5.621521">
        <ele>196.47348</ele>
        <time>2021-06-30T08:50:18Z</time>
      </trkpt>
      <trkpt lat="45.301868" lon="5.621542">
        <ele>196.97256</ele>
        <time>2021-06-30T08:50:19Z</time>
      </trkpt>
      <trkpt lat="45.301685" lon="5.621558">
        <ele>197.13156</ele>
        <time>2021-06-30T08:50:20Z</time>
      </trkpt>
      <trkpt lat="45.301487" lon="5.621575">
        <ele>197.04526</ele>
        <time>2021-06-30T08:50:21Z</time>
      </trkpt>
      <trkpt lat="45.301296" lon="5.621591">
        <ele>197.53226</ele>
        <time>2021-06-30T08:50:22Z</time>
      </trkpt>
      <trkpt lat="45.301109" lon="5.621602">
        <ele>198.46890</ele>
        <time>2021-06-30T08:50:23Z</time>
      </trkpt>
      <trkpt lat="45.300915" lon="5.621609">
        <ele>199.19748</ele>
        <time>2021-06-30T08:50:24Z</time>
      </trkpt>
      <trkpt lat="45.300915" lon="5.621609">
        <ele>199.36783</ele>
        <time>2021-06-30T08:50:25Z</time>
      </trkpt>
      <trkpt lat="45.300705" lon="5.621616">
        <ele>199.97055</ele>
        <time>2021-06-30T08:50:26Z</time>
      </trkpt>
      <trkpt lat="45.300507" lon="5.621622">
        <ele>200.44388</ele>
        <time>2021-06-30T08:50:27Z</time>
      </trkpt>
      <trkpt lat="45.300297" lon="5.621613">
        <ele>200.89987</ele>
        <time>2021-06-30T08:50:28Z</time>
      </trkpt>
      <trkpt lat="45.300083" lon="5.621604">
        <ele>200.70944</ele>
        <time>2021-06-30T08:50:29Z</time>
      </trkpt>
      <trkpt lat="45.299969" lon="5.621599">
        <ele>200.81308</ele>
        <time>2021-06-30T08:50:30Z</time>
      </trkpt>
      <trkpt lat="45.299774" lon="5.621532">
        <ele>200.63345</ele>
        <time>2021-06-30T08:50:31Z</time>
      </trkpt>
      <trkpt lat="45.299500" lon="5.621492">
        <ele>200.37424</ele>
        <time>2021-06-30T08:50:32Z</time>
      </trkpt>
      <trkpt lat="45.299301" lon="5.621448">
        <ele>200.75949</ele>
        <time>2021-06-30T08:50:33Z</time>
      </trkpt>
      <trkpt lat="45.299129" lon="5.621393">
        <ele>200.23242</ele>
        <time>2021-06-30T08:50:34Z</time>
      </trkpt>
      <trkpt lat="45.298981" lon="5.621322">
        <ele>198.98524</ele>
        <time>2021-06-30T08:50:35Z</time>
      </trkpt>
      <trkpt lat="45.298859" lon="5.621232">
        <ele>198.91373</ele>
        <time>2021-06-30T08:50:36Z</time>
      </trkpt>
      <trkpt lat="45.298759" lon="5.621126">
        <ele>198.52113</ele>
        <time>2021-06-30T08:50:37Z</time>
      </trkpt>
      <trkpt lat="45.298664" lon="5.620978">
        <ele>197.43581</ele>
        <time>2021-06-30T08:50:38Z</time>
      </trkpt>
      <trkpt lat="45.298588" lon="5.620796">
        <ele>197.02303</ele>
        <time>2021-06-30T08:50:39Z</time>
      </trkpt>
      <trkpt lat="45.298542" lon="5.620587">
        <ele>196.60327</ele>
        <time>2021-06-30T08:50:40Z</time>
      </trkpt>
      <trkpt lat="45.298531" lon="5.620405">
        <ele>195.72804</ele>
        <time>2021-06-30T08:50:41Z</time>
      </trkpt>
      <trkpt lat="45.298550" lon="5.620182">
        <ele>195.02344</ele>
        <time>2021-06-30T08:50:42Z</time>
      </trkpt>
      <trkpt lat="45.298603" lon="5.619972">
        <ele>194.20364</ele>
        <time>2021-06-30T08:50:43Z</time>
      </trkpt>
      <trkpt lat="45.298683" lon="5.619746">
        <ele>193.32724</ele>
        <time>2021-06-30T08:50:44Z</time>
      </trkpt>
      <trkpt lat="45.298820" lon="5.619453">
        <ele>192.57541</ele>
        <time>2021-06-30T08:50:45Z</time>
      </trkpt>
      <trkpt lat="45.298954" lon="5.619175">
        <ele>192.82651</ele>
        <time>2021-06-30T08:50:46Z</time>
      </trkpt>
      <trkpt lat="45.299156" lon="5.618751">
        <ele>192.74716</ele>
        <time>2021-06-30T08:50:47Z</time>
      </trkpt>
      <trkpt lat="45.299301" lon="5.618448">
        <ele>192.68185</ele>
        <time>2021-06-30T08:50:48Z</time>
      </trkpt>
      <trkpt lat="45.299427" lon="5.618120">
        <ele>192.60904</ele>
        <time>2021-06-30T08:50:49Z</time>
      </trkpt>
      <trkpt lat="45.299587" lon="5.617793">
        <ele>192.26334</ele>
        <time>2021-06-30T08:50:50Z</time>
      </trkpt>
      <trkpt lat="45.299770" lon="5.617483">
        <ele>192.23184</ele>
        <time>2021-06-30T08:50:51Z</time>
      </trkpt>
      <trkpt lat="45.299950" lon="5.617136">
        <ele>192.45065</ele>
        <time>2021-06-30T08:50:52Z</time>
      </trkpt>
      <trkpt lat="45.300121" lon="5.616803">
        <ele>192.10934</ele>
        <time>2021-06-30T08:50:53Z</time>
      </trkpt>
      <trkpt lat="45.300301" lon="5.616478">
        <ele>192.32498</ele>
        <time>2021-06-30T08:50:54Z</time>
      </trkpt>
      <trkpt lat="45.300484" lon="5.616140">
        <ele>192.40915</ele>
        <time>2021-06-30T08:50:55Z</time>
      </trkpt>
      <trkpt lat="45.300671" lon="5.615785">
        <ele>192.56650</ele>
        <time>2021-06-30T08:50:56Z</time>
      </trkpt>
      <trkpt lat="45.300846" lon="5.615450">
        <ele>193.16739</ele>
        <time>2021-06-30T08:50:57Z</time>
      </trkpt>
      <trkpt lat="45.301025" lon="5.615118">
        <ele>193.30197</ele>
        <time>2021-06-30T08:50:58Z</time>
      </trkpt>
      <trkpt lat="45.301197" lon="5.614794">
        <ele>193.67227</ele>
        <time>2021-06-30T08:50:59Z</time>
      </trkpt>
      <trkpt lat="45.301373" lon="5.614462">
        <ele>193.52353</ele>
        <time>2021-06-30T08:51:00Z</time>
      </trkpt>
      <trkpt lat="45.301373" lon="5.614462">
        <ele>193.67886</ele>
        <time>2021-06-30T08:51:01Z</time>
      </trkpt>
      <trkpt lat="45.301556" lon="5.614116">
        <ele>193.97885</ele>
        <time>2021-06-30T08:51:02Z</time>
      </trkpt>
      <trkpt lat="45.301731" lon="5.613774">
        <ele>194.47092</ele>
        <time>2021-06-30T08:51:03Z</time>
      </trkpt>
      <trkpt lat="45.301910" lon="5.613433">
        <ele>194.06735</ele>
        <time>2021-06-30T08:51:04Z</time>
      </trkpt>
      <trkpt lat="45.302094" lon="5.613082">
        <ele>194.12735</ele>
        <time>2021-06-30T08:51:05Z</time>
      </trkpt>
      <trkpt lat="45.302280" lon="5.612721">
        <ele>193.98825</ele>
        <time>2021-06-30T08:51:06Z</time>
      </trkpt>
      <trkpt lat="45.302471" lon="5.612352">
        <ele>193.80789</ele>
        <time>2021-06-30T08:51:07Z</time>
      </trkpt>
      <trkpt lat="45.302647" lon="5.611986">
        <ele>193.65317</ele>
        <time>2021-06-30T08:51:08Z</time>
      </trkpt>
      <trkpt lat="45.302822" lon="5.611624">
        <ele>193.48453</ele>
        <time>2021-06-30T08:51:09Z</time>
      </trkpt>
      <trkpt lat="45.302998" lon="5.611253">
        <ele>193.21658</ele>
        <time>2021-06-30T08:51:10Z</time>
      </trkpt>
      <trkpt lat="45.303169" lon="5.610864">
        <ele>192.87943</ele>
        <time>2021-06-30T08:51:11Z</time>
      </trkpt>
      <trkpt lat="45.303329" lon="5.610477">
        <ele>193.08627</ele>
        <time>2021-06-30T08:51:12Z</time>
      </trkpt>
      <trkpt lat="45.303497" lon="5.610070">
        <ele>193.18405</ele>
        <time>2021-06-30T08:51:13Z</time>
      </trkpt>
      <trkpt lat="45.303642" lon="5.609677">
        <ele>192.93143</ele>
        <time>2021-06-30T08:51:14Z</time>
      </trkpt>
      <trkpt lat="45.303795" lon="5.609261">
        <ele>192.76218</ele>
        <time>2021-06-30T08:51:15Z</time>
      </trkpt>
      <trkpt lat="45.303928" lon="5.608854">
        <ele>192.49344</ele>
        <time>2021-06-30T08:51:16Z</time>
      </trkpt>
      <trkpt lat="45.304062" lon="5.608437">
        <ele>192.52359</ele>
        <time>2021-06-30T08:51:17Z</time>
      </trkpt>
      <trkpt lat="45.304176" lon="5.608032">
        <ele>192.28085</ele>
        <time>2021-06-30T08:51:18Z</time>
      </trkpt>
      <trkpt lat="45.304287" lon="5.607624">
        <ele>192.47678</ele>
        <time>2021-06-30T08:51:19Z</time>
      </trkpt>
      <trkpt lat="45.304401" lon="5.607165">
        <ele>192.77695</ele>
        <time>2021-06-30T08:51:20Z</time>
      </trkpt>
      <trkpt lat="45.304504" lon="5.606713">
        <ele>192.53006</ele>
        <time>2021-06-30T08:51:21Z</time>
      </trkpt>
      <trkpt lat="45.304604" lon="5.606292">
        <ele>192.44315</ele>
        <time>2021-06-30T08:51:22Z</time>
      </trkpt>
      <trkpt lat="45.304680" lon="5.605860">
        <ele>192.85477</ele>
        <time>2021-06-30T08:51:23Z</time>
      </trkpt>
      <trkpt lat="45.304756" lon="5.605416">
        <ele>193.06271</ele>
        <time>2021-06-30T08:51:24Z</time>
      </trkpt>
      <trkpt lat="45.304825" lon="5.604961">
        <ele>193.06894</ele>
        <time>2021-06-30T08:51:25Z</time>
      </trkpt>
      <trkpt lat="45.304890" lon="5.604486">
        <ele>192.68466</ele>
        <time>2021-06-30T08:51:26Z</time>
      </trkpt>
      <trkpt lat="45.304939" lon="5.604023">
        <ele>192.78818</ele>
        <time>2021-06-30T08:51:27Z</time>
      </trkpt>
      <trkpt lat="45.304985" lon="5.603520">
        <ele>193.21939</ele>
        <time>2021-06-30T08:51:28Z</time>
      </trkpt>
      <trkpt lat="45.305023" lon="5.603031">
        <ele>193.44016</ele>
        <time>2021-06-30T08:51:29Z</time>
      </trkpt>
      <trkpt lat="45.305050" lon="5.602558">
        <ele>193.64859</ele>
        <time>2021-06-30T08:51:30Z</time>
      </trkpt>
      <trkpt lat="45.305061" lon="5.602072">
        <ele>194.02060</ele>
        <time>2021-06-30T08:51:31Z</time>
      </trkpt>
      <trkpt lat="45.305073" lon="5.601592">
        <ele>193.68033</ele>
        <time>2021-06-30T08:51:32Z</time>
      </trkpt>
      <trkpt lat="45.305073" lon="5.601592">
        <ele>193.75388</ele>
        <time>2021-06-30T08:51:33Z</time>
      </trkpt>
      <trkpt lat="45.305073" lon="5.601115">
        <ele>193.44266</ele>
        <time>2021-06-30T08:51:34Z</time>
      </trkpt>
      <trkpt lat="45.305069" lon="5.600642">
        <ele>194.19870</ele>
        <time>2021-06-30T08:51:35Z</time>
      </trkpt>
      <trkpt lat="45.305058" lon="5.600187">
        <ele>193.54239</ele>
        <time>2021-06-30T08:51:36Z</time>
      </trkpt>
      <trkpt lat="45.305038" lon="5.599727">
        <ele>193.48166</ele>
        <time>2021-06-30T08:51:37Z</time>
      </trkpt>
      <trkpt lat="45.305016" lon="5.599250">
        <ele>193.48190</ele>
        <time>2021-06-30T08:51:38Z</time>
      </trkpt>
      <trkpt lat="45.304981" lon="5.598790">
        <ele>192.94827</ele>
        <time>2021-06-30T08:51:39Z</time>
      </trkpt>
      <trkpt lat="45.304947" lon="5.598324">
        <ele>192.80380</ele>
        <time>2021-06-30T08:51:40Z</time>
      </trkpt>
      <trkpt lat="45.304897" lon="5.597851">
        <ele>193.00986</ele>
        <time>2021-06-30T08:51:41Z</time>
      </trkpt>
      <trkpt lat="45.304844" lon="5.597360">
        <ele>193.24197</ele>
        <time>2021-06-30T08:51:42Z</time>
      </trkpt>
      <trkpt lat="45.304783" lon="5.596878">
        <ele>193.20407</ele>
        <time>2021-06-30T08:51:43Z</time>
      </trkpt>
      <trkpt lat="45.304718" lon="5.596426">
        <ele>193.28256</ele>
        <time>2021-06-30T08:51:44Z</time>
      </trkpt>
      <trkpt lat="45.304649" lon="5.595972">
        <ele>193.51053</ele>
        <time>2021-06-30T08:51:45Z</time>
      </trkpt>
      <trkpt lat="45.304565" lon="5.595512">
        <ele>192.25253</ele>
        <time>2021-06-30T08:51:46Z</time>
      </trkpt>
      <trkpt lat="45.304485" lon="5.595083">
        <ele>192.07626</ele>
        <time>2021-06-30T08:51:47Z</time>
      </trkpt>
      <trkpt lat="45.304401" lon="5.594657">
        <ele>191.37552</ele>
        <time>2021-06-30T08:51:48Z</time>
      </trkpt>
      <trkpt lat="45.304306" lon="5.594239">
        <ele>192.14792</ele>
        <time>2021-06-30T08:51:49Z</time>
      </trkpt>
      <trkpt lat="45.304211" lon="5.593824">
        <ele>193.30966</ele>
        <time>2021-06-30T08:51:50Z</time>
      </trkpt>
      <trkpt lat="45.304108" lon="5.593392">
        <ele>193.49167</ele>
        <time>2021-06-30T08:51:51Z</time>
      </trkpt>
      <trkpt lat="45.303997" lon="5.592982">
        <ele>193.32291</ele>
        <time>2021-06-30T08:51:52Z</time>
      </trkpt>
      <trkpt lat="45.303879" lon="5.592576">
        <ele>193.36453</ele>
        <time>2021-06-30T08:51:53Z</time>
      </trkpt>
      <trkpt lat="45.303745" lon="5.592161">
        <ele>193.61185</ele>
        <time>2021-06-30T08:51:54Z</time>
      </trkpt>
      <trkpt lat="45.303616" lon="5.591750">
        <ele>193.50400</ele>
        <time>2021-06-30T08:51:55Z</time>
      </trkpt>
      <trkpt lat="45.303486" lon="5.591367">
        <ele>194.03439</ele>
        <time>2021-06-30T08:51:56Z</time>
      </trkpt>
      <trkpt lat="45.303337" lon="5.590963">
        <ele>193.71249</ele>
        <time>2021-06-30T08:51:57Z</time>
      </trkpt>
      <trkpt lat="45.303192" lon="5.590562">
        <ele>193.55917</ele>
        <time>2021-06-30T08:51:58Z</time>
      </trkpt>
      <trkpt lat="45.303043" lon="5.590150">
        <ele>193.51950</ele>
        <time>2021-06-30T08:51:59Z</time>
      </trkpt>
      <trkpt lat="45.302898" lon="5.589762">
        <ele>193.42661</ele>
        <time>2021-06-30T08:52:00Z</time>
      </trkpt>
      <trkpt lat="45.302734" lon="5.589343">
        <ele>193.51694</ele>
        <time>2021-06-30T08:52:01Z</time>
      </trkpt>
      <trkpt lat="45.302578" lon="5.588951">
        <ele>193.59689</ele>
        <time>2021-06-30T08:52:02Z</time>
      </trkpt>
      <trkpt lat="45.302399" lon="5.588574">
        <ele>193.58890</ele>
        <time>2021-06-30T08:52:03Z</time>
      </trkpt>
      <trkpt lat="45.302216" lon="5.588180">
        <ele>193.77969</ele>
        <time>2021-06-30T08:52:04Z</time>
      </trkpt>
      <trkpt lat="45.302025" lon="5.587799">
        <ele>193.65732</ele>
        <time>2021-06-30T08:52:05Z</time>
      </trkpt>
      <trkpt lat="45.301815" lon="5.587412">
        <ele>193.72885</ele>
        <time>2021-06-30T08:52:06Z</time>
      </trkpt>
      <trkpt lat="45.301605" lon="5.587044">
        <ele>193.66525</ele>
        <time>2021-06-30T08:52:07Z</time>
      </trkpt>
      <trkpt lat="45.301403" lon="5.586692">
        <ele>193.84720</ele>
        <time>2021-06-30T08:52:08Z</time>
      </trkpt>
      <trkpt lat="45.301186" lon="5.586311">
        <ele>193.65042</ele>
        <time>2021-06-30T08:52:09Z</time>
      </trkpt>
      <trkpt lat="45.300968" lon="5.585936">
        <ele>193.16843</ele>
        <time>2021-06-30T08:52:10Z</time>
      </trkpt>
      <trkpt lat="45.300762" lon="5.585575">
        <ele>193.24277</ele>
        <time>2021-06-30T08:52:11Z</time>
      </trkpt>
      <trkpt lat="45.300762" lon="5.585575">
        <ele>193.33054</ele>
        <time>2021-06-30T08:52:12Z</time>
      </trkpt>
      <trkpt lat="45.300545" lon="5.585198">
        <ele>193.13791</ele>
        <time>2021-06-30T08:52:13Z</time>
      </trkpt>
      <trkpt lat="45.300339" lon="5.584834">
        <ele>192.89230</ele>
        <time>2021-06-30T08:52:14Z</time>
      </trkpt>
      <trkpt lat="45.300133" lon="5.584477">
        <ele>192.81638</ele>
        <time>2021-06-30T08:52:15Z</time>
      </trkpt>
      <trkpt lat="45.299931" lon="5.584106">
        <ele>192.76700</ele>
        <time>2021-06-30T08:52:16Z</time>
      </trkpt>
      <trkpt lat="45.299740" lon="5.583727">
        <ele>192.47275</ele>
        <time>2021-06-30T08:52:17Z</time>
      </trkpt>
      <trkpt lat="45.299541" lon="5.583332">
        <ele>192.36612</ele>
        <time>2021-06-30T08:52:18Z</time>
      </trkpt>
      <trkpt lat="45.299370" lon="5.582915">
        <ele>191.70706</ele>
        <time>2021-06-30T08:52:19Z</time>
      </trkpt>
      <trkpt lat="45.299206" lon="5.582510">
        <ele>192.37204</ele>
        <time>2021-06-30T08:52:20Z</time>
      </trkpt>
      <trkpt lat="45.299061" lon="5.582093">
        <ele>192.01291</ele>
        <time>2021-06-30T08:52:21Z</time>
      </trkpt>
      <trkpt lat="45.298923" lon="5.581697">
        <ele>191.37497</ele>
        <time>2021-06-30T08:52:22Z</time>
      </trkpt>
      <trkpt lat="45.298794" lon="5.581273">
        <ele>191.22208</ele>
        <time>2021-06-30T08:52:23Z</time>
      </trkpt>
      <trkpt lat="45.298676" lon="5.580841">
        <ele>190.92166</ele>
        <time>2021-06-30T08:52:24Z</time>
      </trkpt>
      <trkpt lat="45.298573" lon="5.580417">
        <ele>190.77341</ele>
        <time>2021-06-30T08:52:25Z</time>
      </trkpt>
      <trkpt lat="45.298485" lon="5.579976">
        <ele>190.50247</ele>
        <time>2021-06-30T08:52:26Z</time>
      </trkpt>
      <trkpt lat="45.298405" lon="5.579520">
        <ele>190.54459</ele>
        <time>2021-06-30T08:52:27Z</time>
      </trkpt>
      <trkpt lat="45.298340" lon="5.579075">
        <ele>190.65341</ele>
        <time>2021-06-30T08:52:28Z</time>
      </trkpt>
      <trkpt lat="45.298286" lon="5.578627">
        <ele>190.71426</ele>
        <time>2021-06-30T08:52:29Z</time>
      </trkpt>
      <trkpt lat="45.298248" lon="5.578181">
        <ele>190.48697</ele>
        <time>2021-06-30T08:52:30Z</time>
      </trkpt>
      <trkpt lat="45.298225" lon="5.577738">
        <ele>190.57352</ele>
        <time>2021-06-30T08:52:31Z</time>
      </trkpt>
      <trkpt lat="45.298206" lon="5.577290">
        <ele>190.18246</ele>
        <time>2021-06-30T08:52:32Z</time>
      </trkpt>
      <trkpt lat="45.298206" lon="5.576843">
        <ele>190.67697</ele>
        <time>2021-06-30T08:52:33Z</time>
      </trkpt>
      <trkpt lat="45.298225" lon="5.576386">
        <ele>190.65048</ele>
        <time>2021-06-30T08:52:34Z</time>
      </trkpt>
      <trkpt lat="45.298244" lon="5.575925">
        <ele>190.90482</ele>
        <time>2021-06-30T08:52:35Z</time>
      </trkpt>
      <trkpt lat="45.298286" lon="5.575462">
        <ele>190.83640</ele>
        <time>2021-06-30T08:52:36Z</time>
      </trkpt>
      <trkpt lat="45.298332" lon="5.575010">
        <ele>190.48770</ele>
        <time>2021-06-30T08:52:37Z</time>
      </trkpt>
      <trkpt lat="45.298389" lon="5.574574">
        <ele>191.12558</ele>
        <time>2021-06-30T08:52:38Z</time>
      </trkpt>
      <trkpt lat="45.298450" lon="5.574140">
        <ele>191.05148</ele>
        <time>2021-06-30T08:52:39Z</time>
      </trkpt>
      <trkpt lat="45.298515" lon="5.573712">
        <ele>190.95322</ele>
        <time>2021-06-30T08:52:40Z</time>
      </trkpt>
      <trkpt lat="45.298595" lon="5.573284">
        <ele>190.78732</ele>
        <time>2021-06-30T08:52:41Z</time>
      </trkpt>
      <trkpt lat="45.298676" lon="5.572845">
        <ele>190.36966</ele>
        <time>2021-06-30T08:52:42Z</time>
      </trkpt>
      <trkpt lat="45.298759" lon="5.572405">
        <ele>190.42978</ele>
        <time>2021-06-30T08:52:43Z</time>
      </trkpt>
      <trkpt lat="45.298840" lon="5.571963">
        <ele>190.17691</ele>
        <time>2021-06-30T08:52:44Z</time>
      </trkpt>
      <trkpt lat="45.298920" lon="5.571532">
        <ele>189.83566</ele>
        <time>2021-06-30T08:52:45Z</time>
      </trkpt>
      <trkpt lat="45.298996" lon="5.571091">
        <ele>190.13412</ele>
        <time>2021-06-30T08:52:46Z</time>
      </trkpt>
      <trkpt lat="45.299068" lon="5.570647">
        <ele>190.17587</ele>
        <time>2021-06-30T08:52:47Z</time>
      </trkpt>
      <trkpt lat="45.299141" lon="5.570209">
        <ele>190.79965</ele>
        <time>2021-06-30T08:52:48Z</time>
      </trkpt>
      <trkpt lat="45.299198" lon="5.569757">
        <ele>190.70322</ele>
        <time>2021-06-30T08:52:49Z</time>
      </trkpt>
      <trkpt lat="45.299244" lon="5.569317">
        <ele>190.76889</ele>
        <time>2021-06-30T08:52:50Z</time>
      </trkpt>
      <trkpt lat="45.299278" lon="5.568873">
        <ele>191.07516</ele>
        <time>2021-06-30T08:52:51Z</time>
      </trkpt>
      <trkpt lat="45.299278" lon="5.568873">
        <ele>190.84476</ele>
        <time>2021-06-30T08:52:52Z</time>
      </trkpt>
      <trkpt lat="45.299309" lon="5.568408">
        <ele>190.95401</ele>
        <time>2021-06-30T08:52:53Z</time>
      </trkpt>
      <trkpt lat="45.299328" lon="5.567940">
        <ele>190.90744</ele>
        <time>2021-06-30T08:52:54Z</time>
      </trkpt>
      <trkpt lat="45.299328" lon="5.567481">
        <ele>191.77853</ele>
        <time>2021-06-30T08:52:55Z</time>
      </trkpt>
      <trkpt lat="45.299316" lon="5.567021">
        <ele>191.67935</ele>
        <time>2021-06-30T08:52:56Z</time>
      </trkpt>
      <trkpt lat="45.299297" lon="5.566573">
        <ele>191.64804</ele>
        <time>2021-06-30T08:52:57Z</time>
      </trkpt>
      <trkpt lat="45.299263" lon="5.566114">
        <ele>190.95383</ele>
        <time>2021-06-30T08:52:58Z</time>
      </trkpt>
      <trkpt lat="45.299213" lon="5.565664">
        <ele>190.09897</ele>
        <time>2021-06-30T08:52:59Z</time>
      </trkpt>
      <trkpt lat="45.299156" lon="5.565230">
        <ele>190.22702</ele>
        <time>2021-06-30T08:53:00Z</time>
      </trkpt>
      <trkpt lat="45.299080" lon="5.564782">
        <ele>189.95480</ele>
        <time>2021-06-30T08:53:01Z</time>
      </trkpt>
      <trkpt lat="45.298992" lon="5.564340">
        <ele>190.09103</ele>
        <time>2021-06-30T08:53:02Z</time>
      </trkpt>
      <trkpt lat="45.298901" lon="5.563915">
        <ele>189.68063</ele>
        <time>2021-06-30T08:53:03Z</time>
      </trkpt>
      <trkpt lat="45.298790" lon="5.563497">
        <ele>189.57626</ele>
        <time>2021-06-30T08:53:04Z</time>
      </trkpt>
      <trkpt lat="45.298668" lon="5.563064">
        <ele>189.66885</ele>
        <time>2021-06-30T08:53:05Z</time>
      </trkpt>
      <trkpt lat="45.298527" lon="5.562635">
        <ele>189.58597</ele>
        <time>2021-06-30T08:53:06Z</time>
      </trkpt>
      <trkpt lat="45.298389" lon="5.562224">
        <ele>190.08493</ele>
        <time>2021-06-30T08:53:07Z</time>
      </trkpt>
      <trkpt lat="45.298233" lon="5.561834">
        <ele>190.09787</ele>
        <time>2021-06-30T08:53:08Z</time>
      </trkpt>
      <trkpt lat="45.298061" lon="5.561435">
        <ele>190.12094</ele>
        <time>2021-06-30T08:53:09Z</time>
      </trkpt>
      <trkpt lat="45.297901" lon="5.561065">
        <ele>189.97964</ele>
        <time>2021-06-30T08:53:10Z</time>
      </trkpt>
      <trkpt lat="45.297703" lon="5.560663">
        <ele>190.02792</ele>
        <time>2021-06-30T08:53:11Z</time>
      </trkpt>
      <trkpt lat="45.297516" lon="5.560293">
        <ele>189.96445</ele>
        <time>2021-06-30T08:53:12Z</time>
      </trkpt>
      <trkpt lat="45.297325" lon="5.559913">
        <ele>189.90811</ele>
        <time>2021-06-30T08:53:13Z</time>
      </trkpt>
      <trkpt lat="45.297127" lon="5.559542">
        <ele>190.18649</ele>
        <time>2021-06-30T08:53:14Z</time>
      </trkpt>
      <trkpt lat="45.296940" lon="5.559197">
        <ele>189.63315</ele>
        <time>2021-06-30T08:53:15Z</time>
      </trkpt>
      <trkpt lat="45.296730" lon="5.558816">
        <ele>189.31625</ele>
        <time>2021-06-30T08:53:16Z</time>
      </trkpt>
      <trkpt lat="45.296535" lon="5.558462">
        <ele>188.72458</ele>
        <time>2021-06-30T08:53:17Z</time>
      </trkpt>
      <trkpt lat="45.296333" lon="5.558086">
        <ele>188.50766</ele>
        <time>2021-06-30T08:53:18Z</time>
      </trkpt>
      <trkpt lat="45.296146" lon="5.557728">
        <ele>188.64926</ele>
        <time>2021-06-30T08:53:19Z</time>
      </trkpt>
      <trkpt lat="45.295948" lon="5.557345">
        <ele>189.76346</ele>
        <time>2021-06-30T08:53:20Z</time>
      </trkpt>
      <trkpt lat="45.295769" lon="5.556975">
        <ele>189.84604</ele>
        <time>2021-06-30T08:53:21Z</time>
      </trkpt>
      <trkpt lat="45.295769" lon="5.556975">
        <ele>189.34763</ele>
        <time>2021-06-30T08:53:22Z</time>
      </trkpt>
      <trkpt lat="45.295586" lon="5.556577">
        <ele>189.56693</ele>
        <time>2021-06-30T08:53:23Z</time>
      </trkpt>
      <trkpt lat="45.295429" lon="5.556188">
        <ele>189.64682</ele>
        <time>2021-06-30T08:53:24Z</time>
      </trkpt>
      <trkpt lat="45.295273" lon="5.555778">
        <ele>189.90335</ele>
        <time>2021-06-30T08:53:25Z</time>
      </trkpt>
      <trkpt lat="45.295116" lon="5.555362">
        <ele>189.85092</ele>
        <time>2021-06-30T08:53:26Z</time>
      </trkpt>
      <trkpt lat="45.294991" lon="5.554950">
        <ele>189.80643</ele>
        <time>2021-06-30T08:53:27Z</time>
      </trkpt>
      <trkpt lat="45.294861" lon="5.554517">
        <ele>189.62839</ele>
        <time>2021-06-30T08:53:28Z</time>
      </trkpt>
      <trkpt lat="45.294743" lon="5.554059">
        <ele>189.35782</ele>
        <time>2021-06-30T08:53:29Z</time>
      </trkpt>
      <trkpt lat="45.294655" lon="5.553643">
        <ele>189.21573</ele>
        <time>2021-06-30T08:53:30Z</time>
      </trkpt>
      <trkpt lat="45.294559" lon="5.553207">
        <ele>189.39951</ele>
        <time>2021-06-30T08:53:31Z</time>
      </trkpt>
      <trkpt lat="45.294479" lon="5.552742">
        <ele>189.82846</ele>
        <time>2021-06-30T08:53:32Z</time>
      </trkpt>
      <trkpt lat="45.294418" lon="5.552294">
        <ele>190.20993</ele>
        <time>2021-06-30T08:53:33Z</time>
      </trkpt>
      <trkpt lat="45.294361" lon="5.551850">
        <ele>190.23990</ele>
        <time>2021-06-30T08:53:34Z</time>
      </trkpt>
      <trkpt lat="45.294315" lon="5.551396">
        <ele>190.26981</ele>
        <time>2021-06-30T08:53:35Z</time>
      </trkpt>
      <trkpt lat="45.294281" lon="5.550964">
        <ele>190.43149</ele>
        <time>2021-06-30T08:53:36Z</time>
      </trkpt>
      <trkpt lat="45.294250" lon="5.550522">
        <ele>190.54691</ele>
        <time>2021-06-30T08:53:37Z</time>
      </trkpt>
      <trkpt lat="45.294228" lon="5.550066">
        <ele>190.48331</ele>
        <time>2021-06-30T08:53:38Z</time>
      </trkpt>
      <trkpt lat="45.294212" lon="5.549606">
        <ele>190.91513</ele>
        <time>2021-06-30T08:53:39Z</time>
      </trkpt>
      <trkpt lat="45.294193" lon="5.549143">
        <ele>190.67398</ele>
        <time>2021-06-30T08:53:40Z</time>
      </trkpt>
      <trkpt lat="45.294174" lon="5.548693">
        <ele>190.76730</ele>
        <time>2021-06-30T08:53:41Z</time>
      </trkpt>
      <trkpt lat="45.294155" lon="5.548228">
        <ele>190.76730</ele>
        <time>2021-06-30T08:53:42Z</time>
      </trkpt>
      <trkpt lat="45.294140" lon="5.547778">
        <ele>190.61240</ele>
        <time>2021-06-30T08:53:43Z</time>
      </trkpt>
      <trkpt lat="45.294121" lon="5.547318">
        <ele>190.14322</ele>
        <time>2021-06-30T08:53:44Z</time>
      </trkpt>
      <trkpt lat="45.294102" lon="5.546837">
        <ele>190.60556</ele>
        <time>2021-06-30T08:53:45Z</time>
      </trkpt>
      <trkpt lat="45.294083" lon="5.546391">
        <ele>190.36832</ele>
        <time>2021-06-30T08:53:46Z</time>
      </trkpt>
      <trkpt lat="45.294064" lon="5.545942">
        <ele>190.56870</ele>
        <time>2021-06-30T08:53:47Z</time>
      </trkpt>
      <trkpt lat="45.294044" lon="5.545458">
        <ele>190.52823</ele>
        <time>2021-06-30T08:53:48Z</time>
      </trkpt>
      <trkpt lat="45.294025" lon="5.545010">
        <ele>190.87558</ele>
        <time>2021-06-30T08:53:49Z</time>
      </trkpt>
      <trkpt lat="45.294006" lon="5.544559">
        <ele>190.83023</ele>
        <time>2021-06-30T08:53:50Z</time>
      </trkpt>
      <trkpt lat="45.293987" lon="5.544110">
        <ele>191.11374</ele>
        <time>2021-06-30T08:53:51Z</time>
      </trkpt>
      <trkpt lat="45.293987" lon="5.544110">
        <ele>191.39859</ele>
        <time>2021-06-30T08:53:52Z</time>
      </trkpt>
      <trkpt lat="45.293968" lon="5.543651">
        <ele>191.31314</ele>
        <time>2021-06-30T08:53:53Z</time>
      </trkpt>
      <trkpt lat="45.293945" lon="5.543189">
        <ele>191.50839</ele>
        <time>2021-06-30T08:53:54Z</time>
      </trkpt>
      <trkpt lat="45.293919" lon="5.542719">
        <ele>191.34152</ele>
        <time>2021-06-30T08:53:55Z</time>
      </trkpt>
      <trkpt lat="45.293896" lon="5.542273">
        <ele>191.39963</ele>
        <time>2021-06-30T08:53:56Z</time>
      </trkpt>
      <trkpt lat="45.293861" lon="5.541816">
        <ele>191.43442</ele>
        <time>2021-06-30T08:53:57Z</time>
      </trkpt>
      <trkpt lat="45.293823" lon="5.541379">
        <ele>191.71371</ele>
        <time>2021-06-30T08:53:58Z</time>
      </trkpt>
      <trkpt lat="45.293785" lon="5.540929">
        <ele>191.63828</ele>
        <time>2021-06-30T08:53:59Z</time>
      </trkpt>
      <trkpt lat="45.293736" lon="5.540462">
        <ele>192.07492</ele>
        <time>2021-06-30T08:54:00Z</time>
      </trkpt>
      <trkpt lat="45.293690" lon="5.540013">
        <ele>192.12350</ele>
        <time>2021-06-30T08:54:01Z</time>
      </trkpt>
      <trkpt lat="45.293640" lon="5.539566">
        <ele>192.66507</ele>
        <time>2021-06-30T08:54:02Z</time>
      </trkpt>
      <trkpt lat="45.293587" lon="5.539102">
        <ele>192.60703</ele>
        <time>2021-06-30T08:54:03Z</time>
      </trkpt>
      <trkpt lat="45.293530" lon="5.538659">
        <ele>193.31912</ele>
        <time>2021-06-30T08:54:04Z</time>
      </trkpt>
      <trkpt lat="45.293468" lon="5.538195">
        <ele>192.81937</ele>
        <time>2021-06-30T08:54:05Z</time>
      </trkpt>
      <trkpt lat="45.293411" lon="5.537755">
        <ele>191.95248</ele>
        <time>2021-06-30T08:54:06Z</time>
      </trkpt>
      <trkpt lat="45.293350" lon="5.537275">
        <ele>191.85593</ele>
        <time>2021-06-30T08:54:07Z</time>
      </trkpt>
      <trkpt lat="45.293289" lon="5.536823">
        <ele>192.32980</ele>
        <time>2021-06-30T08:54:08Z</time>
      </trkpt>
      <trkpt lat="45.293224" lon="5.536380">
        <ele>192.20688</ele>
        <time>2021-06-30T08:54:09Z</time>
      </trkpt>
      <trkpt lat="45.293159" lon="5.535923">
        <ele>191.59225</ele>
        <time>2021-06-30T08:54:10Z</time>
      </trkpt>
      <trkpt lat="45.293098" lon="5.535507">
        <ele>191.58914</ele>
        <time>2021-06-30T08:54:11Z</time>
      </trkpt>
      <trkpt lat="45.293026" lon="5.535047">
        <ele>191.55374</ele>
        <time>2021-06-30T08:54:12Z</time>
      </trkpt>
      <trkpt lat="45.292953" lon="5.534616">
        <ele>191.78452</ele>
        <time>2021-06-30T08:54:13Z</time>
      </trkpt>
      <trkpt lat="45.292866" lon="5.534172">
        <ele>191.51498</ele>
        <time>2021-06-30T08:54:14Z</time>
      </trkpt>
      <trkpt lat="45.292770" lon="5.533737">
        <ele>191.18021</ele>
        <time>2021-06-30T08:54:15Z</time>
      </trkpt>
      <trkpt lat="45.292664" lon="5.533292">
        <ele>191.40781</ele>
        <time>2021-06-30T08:54:16Z</time>
      </trkpt>
      <trkpt lat="45.292542" lon="5.532846">
        <ele>191.80710</ele>
        <time>2021-06-30T08:54:17Z</time>
      </trkpt>
      <trkpt lat="45.292423" lon="5.532441">
        <ele>192.01169</ele>
        <time>2021-06-30T08:54:18Z</time>
      </trkpt>
      <trkpt lat="45.292294" lon="5.532020">
        <ele>191.90854</ele>
        <time>2021-06-30T08:54:19Z</time>
      </trkpt>
      <trkpt lat="45.292156" lon="5.531614">
        <ele>191.90366</ele>
        <time>2021-06-30T08:54:20Z</time>
      </trkpt>
      <trkpt lat="45.292007" lon="5.531214">
        <ele>191.92514</ele>
        <time>2021-06-30T08:54:21Z</time>
      </trkpt>
      <trkpt lat="45.291847" lon="5.530818">
        <ele>191.87503</ele>
        <time>2021-06-30T08:54:22Z</time>
      </trkpt>
      <trkpt lat="45.291687" lon="5.530443">
        <ele>192.28305</ele>
        <time>2021-06-30T08:54:23Z</time>
      </trkpt>
      <trkpt lat="45.291508" lon="5.530063">
        <ele>192.78537</ele>
        <time>2021-06-30T08:54:24Z</time>
      </trkpt>
      <trkpt lat="45.291508" lon="5.530063">
        <ele>192.72098</ele>
        <time>2021-06-30T08:54:25Z</time>
      </trkpt>
      <trkpt lat="45.291321" lon="5.529682">
        <ele>193.30759</ele>
        <time>2021-06-30T08:54:26Z</time>
      </trkpt>
      <trkpt lat="45.291134" lon="5.529318">
        <ele>193.61606</ele>
        <time>2021-06-30T08:54:27Z</time>
      </trkpt>
      <trkpt lat="45.290936" lon="5.528966">
        <ele>193.64804</ele>
        <time>2021-06-30T08:54:28Z</time>
      </trkpt>
      <trkpt lat="45.290737" lon="5.528625">
        <ele>193.79813</ele>
        <time>2021-06-30T08:54:29Z</time>
      </trkpt>
      <trkpt lat="45.290520" lon="5.528275">
        <ele>193.65091</ele>
        <time>2021-06-30T08:54:30Z</time>
      </trkpt>
      <trkpt lat="45.290302" lon="5.527950">
        <ele>194.05771</ele>
        <time>2021-06-30T08:54:31Z</time>
      </trkpt>
      <trkpt lat="45.290077" lon="5.527630">
        <ele>194.28574</ele>
        <time>2021-06-30T08:54:32Z</time>
      </trkpt>
      <trkpt lat="45.289845" lon="5.527318">
        <ele>194.41068</ele>
        <time>2021-06-30T08:54:33Z</time>
      </trkpt>
      <trkpt lat="45.289597" lon="5.527021">
        <ele>194.50198</ele>
        <time>2021-06-30T08:54:34Z</time>
      </trkpt>
      <trkpt lat="45.289345" lon="5.526739">
        <ele>194.48288</ele>
        <time>2021-06-30T08:54:35Z</time>
      </trkpt>
      <trkpt lat="45.289082" lon="5.526460">
        <ele>194.31320</ele>
        <time>2021-06-30T08:54:36Z</time>
      </trkpt>
      <trkpt lat="45.288815" lon="5.526197">
        <ele>194.44247</ele>
        <time>2021-06-30T08:54:37Z</time>
      </trkpt>
      <trkpt lat="45.288555" lon="5.525952">
        <ele>194.50327</ele>
        <time>2021-06-30T08:54:38Z</time>
      </trkpt>
      <trkpt lat="45.288277" lon="5.525714">
        <ele>194.22122</ele>
        <time>2021-06-30T08:54:39Z</time>
      </trkpt>
      <trkpt lat="45.288002" lon="5.525478">
        <ele>194.26083</ele>
        <time>2021-06-30T08:54:40Z</time>
      </trkpt>
      <trkpt lat="45.287716" lon="5.525257">
        <ele>194.38486</ele>
        <time>2021-06-30T08:54:41Z</time>
      </trkpt>
      <trkpt lat="45.287434" lon="5.525057">
        <ele>193.95963</ele>
        <time>2021-06-30T08:54:42Z</time>
      </trkpt>
      <trkpt lat="45.287136" lon="5.524866">
        <ele>193.92667</ele>
        <time>2021-06-30T08:54:43Z</time>
      </trkpt>
      <trkpt lat="45.286839" lon="5.524682">
        <ele>194.14218</ele>
        <time>2021-06-30T08:54:44Z</time>
      </trkpt>
      <trkpt lat="45.286533" lon="5.524512">
        <ele>194.02231</ele>
        <time>2021-06-30T08:54:45Z</time>
      </trkpt>
      <trkpt lat="45.286240" lon="5.524373">
        <ele>193.82455</ele>
        <time>2021-06-30T08:54:46Z</time>
      </trkpt>
      <trkpt lat="45.285934" lon="5.524238">
        <ele>193.77530</ele>
        <time>2021-06-30T08:54:47Z</time>
      </trkpt>
      <trkpt lat="45.285637" lon="5.524107">
        <ele>193.84732</ele>
        <time>2021-06-30T08:54:48Z</time>
      </trkpt>
      <trkpt lat="45.285320" lon="5.523980">
        <ele>193.79977</ele>
        <time>2021-06-30T08:54:49Z</time>
      </trkpt>
      <trkpt lat="45.285004" lon="5.523863">
        <ele>194.19553</ele>
        <time>2021-06-30T08:54:50Z</time>
      </trkpt>
      <trkpt lat="45.284698" lon="5.523762">
        <ele>194.24338</ele>
        <time>2021-06-30T08:54:51Z</time>
      </trkpt>
      <trkpt lat="45.284382" lon="5.523690">
        <ele>194.52988</ele>
        <time>2021-06-30T08:54:52Z</time>
      </trkpt>
      <trkpt lat="45.284054" lon="5.523638">
        <ele>194.52878</ele>
        <time>2021-06-30T08:54:53Z</time>
      </trkpt>
      <trkpt lat="45.283733" lon="5.523599">
        <ele>194.06723</ele>
        <time>2021-06-30T08:54:54Z</time>
      </trkpt>
      <trkpt lat="45.283421" lon="5.523575">
        <ele>193.91544</ele>
        <time>2021-06-30T08:54:55Z</time>
      </trkpt>
      <trkpt lat="45.283123" lon="5.523552">
        <ele>193.82986</ele>
        <time>2021-06-30T08:54:56Z</time>
      </trkpt>
      <trkpt lat="45.282810" lon="5.523520">
        <ele>193.69467</ele>
        <time>2021-06-30T08:54:57Z</time>
      </trkpt>
      <trkpt lat="45.282490" lon="5.523468">
        <ele>193.74521</ele>
        <time>2021-06-30T08:54:58Z</time>
      </trkpt>
      <trkpt lat="45.282173" lon="5.523437">
        <ele>193.18460</ele>
        <time>2021-06-30T08:54:59Z</time>
      </trkpt>
      <trkpt lat="45.281853" lon="5.523408">
        <ele>193.20883</ele>
        <time>2021-06-30T08:55:00Z</time>
      </trkpt>
      <trkpt lat="45.281853" lon="5.523408">
        <ele>192.99857</ele>
        <time>2021-06-30T08:55:01Z</time>
      </trkpt>
      <trkpt lat="45.281532" lon="5.523383">
        <ele>192.60605</ele>
        <time>2021-06-30T08:55:02Z</time>
      </trkpt>
      <trkpt lat="45.281200" lon="5.523356">
        <ele>193.02115</ele>
        <time>2021-06-30T08:55:03Z</time>
      </trkpt>
      <trkpt lat="45.280891" lon="5.523331">
        <ele>192.63162</ele>
        <time>2021-06-30T08:55:04Z</time>
      </trkpt>
      <trkpt lat="45.280579" lon="5.523306">
        <ele>192.57547</ele>
        <time>2021-06-30T08:55:05Z</time>
      </trkpt>
      <trkpt lat="45.280254" lon="5.523271">
        <ele>192.53494</ele>
        <time>2021-06-30T08:55:06Z</time>
      </trkpt>
      <trkpt lat="45.279919" lon="5.523219">
        <ele>192.23544</ele>
        <time>2021-06-30T08:55:07Z</time>
      </trkpt>
      <trkpt lat="45.279591" lon="5.523167">
        <ele>191.84445</ele>
        <time>2021-06-30T08:55:08Z</time>
      </trkpt>
      <trkpt lat="45.279274" lon="5.523117">
        <ele>192.12216</ele>
        <time>2021-06-30T08:55:09Z</time>
      </trkpt>
      <trkpt lat="45.278946" lon="5.523039">
        <ele>191.46616</ele>
        <time>2021-06-30T08:55:10Z</time>
      </trkpt>
      <trkpt lat="45.278648" lon="5.522959">
        <ele>191.25089</ele>
        <time>2021-06-30T08:55:11Z</time>
      </trkpt>
      <trkpt lat="45.278339" lon="5.522862">
        <ele>191.37473</ele>
        <time>2021-06-30T08:55:12Z</time>
      </trkpt>
      <trkpt lat="45.278011" lon="5.522759">
        <ele>191.00119</ele>
        <time>2021-06-30T08:55:13Z</time>
      </trkpt>
      <trkpt lat="45.277706" lon="5.522662">
        <ele>190.65036</ele>
        <time>2021-06-30T08:55:14Z</time>
      </trkpt>
      <trkpt lat="45.277382" lon="5.522550">
        <ele>190.48630</ele>
        <time>2021-06-30T08:55:15Z</time>
      </trkpt>
      <trkpt lat="45.277069" lon="5.522442">
        <ele>189.91330</ele>
        <time>2021-06-30T08:55:16Z</time>
      </trkpt>
      <trkpt lat="45.276768" lon="5.522339">
        <ele>189.61630</ele>
        <time>2021-06-30T08:55:17Z</time>
      </trkpt>
      <trkpt lat="45.276470" lon="5.522236">
        <ele>189.32272</ele>
        <time>2021-06-30T08:55:18Z</time>
      </trkpt>
      <trkpt lat="45.276154" lon="5.522127">
        <ele>188.77414</ele>
        <time>2021-06-30T08:55:19Z</time>
      </trkpt>
      <trkpt lat="45.275841" lon="5.522019">
        <ele>188.61502</ele>
        <time>2021-06-30T08:55:20Z</time>
      </trkpt>
      <trkpt lat="45.275528" lon="5.521921">
        <ele>188.43948</ele>
        <time>2021-06-30T08:55:21Z</time>
      </trkpt>
      <trkpt lat="45.275211" lon="5.521813">
        <ele>188.52383</ele>
        <time>2021-06-30T08:55:22Z</time>
      </trkpt>
      <trkpt lat="45.274891" lon="5.521701">
        <ele>188.48398</ele>
        <time>2021-06-30T08:55:23Z</time>
      </trkpt>
      <trkpt lat="45.274570" lon="5.521590">
        <ele>188.47385</ele>
        <time>2021-06-30T08:55:24Z</time>
      </trkpt>
      <trkpt lat="45.274258" lon="5.521482">
        <ele>188.35513</ele>
        <time>2021-06-30T08:55:25Z</time>
      </trkpt>
      <trkpt lat="45.273941" lon="5.521373">
        <ele>188.34708</ele>
        <time>2021-06-30T08:55:26Z</time>
      </trkpt>
      <trkpt lat="45.273640" lon="5.521269">
        <ele>188.10410</ele>
        <time>2021-06-30T08:55:27Z</time>
      </trkpt>
      <trkpt lat="45.273331" lon="5.521161">
        <ele>188.04074</ele>
        <time>2021-06-30T08:55:28Z</time>
      </trkpt>
      <trkpt lat="45.273022" lon="5.521055">
        <ele>187.62845</ele>
        <time>2021-06-30T08:55:29Z</time>
      </trkpt>
      <trkpt lat="45.272694" lon="5.520942">
        <ele>187.62424</ele>
        <time>2021-06-30T08:55:30Z</time>
      </trkpt>
      <trkpt lat="45.272381" lon="5.520834">
        <ele>187.73172</ele>
        <time>2021-06-30T08:55:31Z</time>
      </trkpt>
      <trkpt lat="45.272053" lon="5.520720">
        <ele>187.75406</ele>
        <time>2021-06-30T08:55:32Z</time>
      </trkpt>
      <trkpt lat="45.271744" lon="5.520614">
        <ele>187.68399</ele>
        <time>2021-06-30T08:55:33Z</time>
      </trkpt>
      <trkpt lat="45.271427" lon="5.520503">
        <ele>187.61594</ele>
        <time>2021-06-30T08:55:34Z</time>
      </trkpt>
      <trkpt lat="45.271111" lon="5.520393">
        <ele>187.71494</ele>
        <time>2021-06-30T08:55:35Z</time>
      </trkpt>
      <trkpt lat="45.270809" lon="5.520289">
        <ele>187.34738</ele>
        <time>2021-06-30T08:55:36Z</time>
      </trkpt>
      <trkpt lat="45.270809" lon="5.520289">
        <ele>187.46072</ele>
        <time>2021-06-30T08:55:37Z</time>
      </trkpt>
      <trkpt lat="45.270493" lon="5.520178">
        <ele>187.33621</ele>
        <time>2021-06-30T08:55:38Z</time>
      </trkpt>
      <trkpt lat="45.270172" lon="5.520066">
        <ele>187.45126</ele>
        <time>2021-06-30T08:55:39Z</time>
      </trkpt>
      <trkpt lat="45.269859" lon="5.519956">
        <ele>187.53073</ele>
        <time>2021-06-30T08:55:40Z</time>
      </trkpt>
      <trkpt lat="45.269539" lon="5.519843">
        <ele>187.26144</ele>
        <time>2021-06-30T08:55:41Z</time>
      </trkpt>
      <trkpt lat="45.269230" lon="5.519734">
        <ele>187.32712</ele>
        <time>2021-06-30T08:55:42Z</time>
      </trkpt>
      <trkpt lat="45.268925" lon="5.519626">
        <ele>187.26413</ele>
        <time>2021-06-30T08:55:43Z</time>
      </trkpt>
      <trkpt lat="45.268616" lon="5.519518">
        <ele>187.08603</ele>
        <time>2021-06-30T08:55:44Z</time>
      </trkpt>
      <trkpt lat="45.268299" lon="5.519407">
        <ele>186.63449</ele>
        <time>2021-06-30T08:55:45Z</time>
      </trkpt>
      <trkpt lat="45.267986" lon="5.519297">
        <ele>186.43204</ele>
        <time>2021-06-30T08:55:46Z</time>
      </trkpt>
      <trkpt lat="45.267677" lon="5.519188">
        <ele>186.54593</ele>
        <time>2021-06-30T08:55:47Z</time>
      </trkpt>
      <trkpt lat="45.267372" lon="5.519078">
        <ele>186.37662</ele>
        <time>2021-06-30T08:55:48Z</time>
      </trkpt>
      <trkpt lat="45.267056" lon="5.518948">
        <ele>186.56094</ele>
        <time>2021-06-30T08:55:49Z</time>
      </trkpt>
      <trkpt lat="45.266750" lon="5.518809">
        <ele>186.58597</ele>
        <time>2021-06-30T08:55:50Z</time>
      </trkpt>
      <trkpt lat="45.266422" lon="5.518656">
        <ele>186.84494</ele>
        <time>2021-06-30T08:55:51Z</time>
      </trkpt>
      <trkpt lat="45.266106" lon="5.518495">
        <ele>187.27768</ele>
        <time>2021-06-30T08:55:52Z</time>
      </trkpt>
      <trkpt lat="45.265812" lon="5.518339">
        <ele>187.01718</ele>
        <time>2021-06-30T08:55:53Z</time>
      </trkpt>
      <trkpt lat="45.265511" lon="5.518157">
        <ele>186.69449</ele>
        <time>2021-06-30T08:55:54Z</time>
      </trkpt>
      <trkpt lat="45.265198" lon="5.517958">
        <ele>186.25552</ele>
        <time>2021-06-30T08:55:55Z</time>
      </trkpt>
      <trkpt lat="45.264915" lon="5.517770">
        <ele>185.99698</ele>
        <time>2021-06-30T08:55:56Z</time>
      </trkpt>
      <trkpt lat="45.264626" lon="5.517575">
        <ele>186.07822</ele>
        <time>2021-06-30T08:55:57Z</time>
      </trkpt>
      <trkpt lat="45.264343" lon="5.517374">
        <ele>186.15311</ele>
        <time>2021-06-30T08:55:58Z</time>
      </trkpt>
      <trkpt lat="45.264046" lon="5.517151">
        <ele>186.43802</ele>
        <time>2021-06-30T08:55:59Z</time>
      </trkpt>
      <trkpt lat="45.263767" lon="5.516931">
        <ele>186.52255</ele>
        <time>2021-06-30T08:56:00Z</time>
      </trkpt>
      <trkpt lat="45.263489" lon="5.516700">
        <ele>186.32315</ele>
        <time>2021-06-30T08:56:01Z</time>
      </trkpt>
      <trkpt lat="45.263214" lon="5.516457">
        <ele>186.19107</ele>
        <time>2021-06-30T08:56:02Z</time>
      </trkpt>
      <trkpt lat="45.262947" lon="5.516216">
        <ele>186.11697</ele>
        <time>2021-06-30T08:56:03Z</time>
      </trkpt>
      <trkpt lat="45.262672" lon="5.515957">
        <ele>186.12674</ele>
        <time>2021-06-30T08:56:04Z</time>
      </trkpt>
      <trkpt lat="45.262394" lon="5.515694">
        <ele>186.20377</ele>
        <time>2021-06-30T08:56:05Z</time>
      </trkpt>
      <trkpt lat="45.262131" lon="5.515445">
        <ele>186.04758</ele>
        <time>2021-06-30T08:56:06Z</time>
      </trkpt>
      <trkpt lat="45.261864" lon="5.515192">
        <ele>185.76291</ele>
        <time>2021-06-30T08:56:07Z</time>
      </trkpt>
      <trkpt lat="45.261604" lon="5.514948">
        <ele>185.45932</ele>
        <time>2021-06-30T08:56:08Z</time>
      </trkpt>
      <trkpt lat="45.261604" lon="5.514948">
        <ele>185.85092</ele>
        <time>2021-06-30T08:56:09Z</time>
      </trkpt>
      <trkpt lat="45.261333" lon="5.514690">
        <ele>185.91904</ele>
        <time>2021-06-30T08:56:10Z</time>
      </trkpt>
      <trkpt lat="45.261078" lon="5.514445">
        <ele>185.94479</ele>
        <time>2021-06-30T08:56:11Z</time>
      </trkpt>
      <trkpt lat="45.260811" lon="5.514189">
        <ele>185.98947</ele>
        <time>2021-06-30T08:56:12Z</time>
      </trkpt>
      <trkpt lat="45.260536" lon="5.513926">
        <ele>186.07565</ele>
        <time>2021-06-30T08:56:13Z</time>
      </trkpt>
      <trkpt lat="45.260277" lon="5.513675">
        <ele>186.51724</ele>
        <time>2021-06-30T08:56:14Z</time>
      </trkpt>
      <trkpt lat="45.260010" lon="5.513422">
        <ele>186.58572</ele>
        <time>2021-06-30T08:56:15Z</time>
      </trkpt>
      <trkpt lat="45.259743" lon="5.513167">
        <ele>186.66312</ele>
        <time>2021-06-30T08:56:16Z</time>
      </trkpt>
      <trkpt lat="45.259483" lon="5.512916">
        <ele>186.85886</ele>
        <time>2021-06-30T08:56:17Z</time>
      </trkpt>
      <trkpt lat="45.259220" lon="5.512666">
        <ele>186.67154</ele>
        <time>2021-06-30T08:56:18Z</time>
      </trkpt>
      <trkpt lat="45.258949" lon="5.512403">
        <ele>186.31955</ele>
        <time>2021-06-30T08:56:19Z</time>
      </trkpt>
      <trkpt lat="45.258682" lon="5.512146">
        <ele>186.49918</ele>
        <time>2021-06-30T08:56:20Z</time>
      </trkpt>
      <trkpt lat="45.258427" lon="5.511900">
        <ele>186.62778</ele>
        <time>2021-06-30T08:56:21Z</time>
      </trkpt>
      <trkpt lat="45.258156" lon="5.511643">
        <ele>186.35007</ele>
        <time>2021-06-30T08:56:22Z</time>
      </trkpt>
      <trkpt lat="45.257896" lon="5.511397">
        <ele>186.10776</ele>
        <time>2021-06-30T08:56:23Z</time>
      </trkpt>
      <trkpt lat="45.257629" lon="5.511139">
        <ele>185.99680</ele>
        <time>2021-06-30T08:56:24Z</time>
      </trkpt>
      <trkpt lat="45.257366" lon="5.510889">
        <ele>186.04874</ele>
        <time>2021-06-30T08:56:25Z</time>
      </trkpt>
      <trkpt lat="45.257103" lon="5.510638">
        <ele>186.13632</ele>
        <time>2021-06-30T08:56:26Z</time>
      </trkpt>
      <trkpt lat="45.256840" lon="5.510387">
        <ele>186.11807</ele>
        <time>2021-06-30T08:56:27Z</time>
      </trkpt>
      <trkpt lat="45.256580" lon="5.510140">
        <ele>186.72830</ele>
        <time>2021-06-30T08:56:28Z</time>
      </trkpt>
      <trkpt lat="45.256306" lon="5.509876">
        <ele>186.98672</ele>
        <time>2021-06-30T08:56:29Z</time>
      </trkpt>
      <trkpt lat="45.256042" lon="5.509627">
        <ele>186.77451</ele>
        <time>2021-06-30T08:56:30Z</time>
      </trkpt>
      <trkpt lat="45.255783" lon="5.509379">
        <ele>186.86636</ele>
        <time>2021-06-30T08:56:31Z</time>
      </trkpt>
      <trkpt lat="45.255524" lon="5.509132">
        <ele>186.81119</ele>
        <time>2021-06-30T08:56:32Z</time>
      </trkpt>
      <trkpt lat="45.255257" lon="5.508877">
        <ele>186.75034</ele>
        <time>2021-06-30T08:56:33Z</time>
      </trkpt>
      <trkpt lat="45.254993" lon="5.508625">
        <ele>186.58578</ele>
        <time>2021-06-30T08:56:34Z</time>
      </trkpt>
      <trkpt lat="45.254726" lon="5.508371">
        <ele>186.94589</ele>
        <time>2021-06-30T08:56:35Z</time>
      </trkpt>
      <trkpt lat="45.254459" lon="5.508114">
        <ele>186.88040</ele>
        <time>2021-06-30T08:56:36Z</time>
      </trkpt>
      <trkpt lat="45.254185" lon="5.507852">
        <ele>186.71140</ele>
        <time>2021-06-30T08:56:37Z</time>
      </trkpt>
      <trkpt lat="45.253922" lon="5.507602">
        <ele>186.85965</ele>
        <time>2021-06-30T08:56:38Z</time>
      </trkpt>
      <trkpt lat="45.253651" lon="5.507343">
        <ele>186.81406</ele>
        <time>2021-06-30T08:56:39Z</time>
      </trkpt>
      <trkpt lat="45.253380" lon="5.507083">
        <ele>186.82285</ele>
        <time>2021-06-30T08:56:40Z</time>
      </trkpt>
      <trkpt lat="45.253101" lon="5.506819">
        <ele>187.15256</ele>
        <time>2021-06-30T08:56:41Z</time>
      </trkpt>
      <trkpt lat="45.252834" lon="5.506564">
        <ele>186.86179</ele>
        <time>2021-06-30T08:56:42Z</time>
      </trkpt>
      <trkpt lat="45.252567" lon="5.506310">
        <ele>187.02353</ele>
        <time>2021-06-30T08:56:43Z</time>
      </trkpt>
      <trkpt lat="45.252289" lon="5.506054">
        <ele>186.82541</ele>
        <time>2021-06-30T08:56:44Z</time>
      </trkpt>
      <trkpt lat="45.252018" lon="5.505805">
        <ele>186.87222</ele>
        <time>2021-06-30T08:56:45Z</time>
      </trkpt>
      <trkpt lat="45.251747" lon="5.505568">
        <ele>186.85263</ele>
        <time>2021-06-30T08:56:46Z</time>
      </trkpt>
      <trkpt lat="45.251472" lon="5.505336">
        <ele>186.93228</ele>
        <time>2021-06-30T08:56:47Z</time>
      </trkpt>
      <trkpt lat="45.251202" lon="5.505106">
        <ele>186.75644</ele>
        <time>2021-06-30T08:56:48Z</time>
      </trkpt>
      <trkpt lat="45.251202" lon="5.505106">
        <ele>186.92313</ele>
        <time>2021-06-30T08:56:49Z</time>
      </trkpt>
      <trkpt lat="45.250923" lon="5.504873">
        <ele>186.57071</ele>
        <time>2021-06-30T08:56:50Z</time>
      </trkpt>
      <trkpt lat="45.250645" lon="5.504665">
        <ele>186.66806</ele>
        <time>2021-06-30T08:56:51Z</time>
      </trkpt>
      <trkpt lat="45.250355" lon="5.504478">
        <ele>186.70505</ele>
        <time>2021-06-30T08:56:52Z</time>
      </trkpt>
      <trkpt lat="45.250057" lon="5.504287">
        <ele>186.46866</ele>
        <time>2021-06-30T08:56:53Z</time>
      </trkpt>
      <trkpt lat="45.249760" lon="5.504095">
        <ele>186.10941</ele>
        <time>2021-06-30T08:56:54Z</time>
      </trkpt>
      <trkpt lat="45.249470" lon="5.503919">
        <ele>185.83511</ele>
        <time>2021-06-30T08:56:55Z</time>
      </trkpt>
      <trkpt lat="45.249172" lon="5.503748">
        <ele>185.80185</ele>
        <time>2021-06-30T08:56:56Z</time>
      </trkpt>
      <trkpt lat="45.248882" lon="5.503581">
        <ele>185.92416</ele>
        <time>2021-06-30T08:56:57Z</time>
      </trkpt>
      <trkpt lat="45.248573" lon="5.503414">
        <ele>186.20425</ele>
        <time>2021-06-30T08:56:58Z</time>
      </trkpt>
      <trkpt lat="45.248276" lon="5.503258">
        <ele>186.10318</ele>
        <time>2021-06-30T08:56:59Z</time>
      </trkpt>
      <trkpt lat="45.247967" lon="5.503104">
        <ele>186.01230</ele>
        <time>2021-06-30T08:57:00Z</time>
      </trkpt>
      <trkpt lat="45.247673" lon="5.502957">
        <ele>185.59415</ele>
        <time>2021-06-30T08:57:01Z</time>
      </trkpt>
      <trkpt lat="45.247356" lon="5.502797">
        <ele>185.59421</ele>
        <time>2021-06-30T08:57:02Z</time>
      </trkpt>
      <trkpt lat="45.247059" lon="5.502636">
        <ele>185.28793</ele>
        <time>2021-06-30T08:57:03Z</time>
      </trkpt>
      <trkpt lat="45.246754" lon="5.502474">
        <ele>185.10141</ele>
        <time>2021-06-30T08:57:04Z</time>
      </trkpt>
      <trkpt lat="45.246452" lon="5.502313">
        <ele>185.00949</ele>
        <time>2021-06-30T08:57:05Z</time>
      </trkpt>
      <trkpt lat="45.246151" lon="5.502148">
        <ele>184.78452</ele>
        <time>2021-06-30T08:57:06Z</time>
      </trkpt>
      <trkpt lat="45.245865" lon="5.501974">
        <ele>184.59964</ele>
        <time>2021-06-30T08:57:07Z</time>
      </trkpt>
      <trkpt lat="45.245564" lon="5.501790">
        <ele>184.33450</ele>
        <time>2021-06-30T08:57:08Z</time>
      </trkpt>
      <trkpt lat="45.245270" lon="5.501583">
        <ele>184.20273</ele>
        <time>2021-06-30T08:57:09Z</time>
      </trkpt>
      <trkpt lat="45.244991" lon="5.501396">
        <ele>184.40042</ele>
        <time>2021-06-30T08:57:10Z</time>
      </trkpt>
      <trkpt lat="45.244686" lon="5.501183">
        <ele>184.56711</ele>
        <time>2021-06-30T08:57:11Z</time>
      </trkpt>
      <trkpt lat="45.244411" lon="5.500972">
        <ele>184.81198</ele>
        <time>2021-06-30T08:57:12Z</time>
      </trkpt>
      <trkpt lat="45.244129" lon="5.500754">
        <ele>185.33920</ele>
        <time>2021-06-30T08:57:13Z</time>
      </trkpt>
      <trkpt lat="45.243843" lon="5.500510">
        <ele>185.75253</ele>
        <time>2021-06-30T08:57:14Z</time>
      </trkpt>
      <trkpt lat="45.243572" lon="5.500278">
        <ele>186.05759</ele>
        <time>2021-06-30T08:57:15Z</time>
      </trkpt>
      <trkpt lat="45.243298" lon="5.500015">
        <ele>187.00192</ele>
        <time>2021-06-30T08:57:16Z</time>
      </trkpt>
      <trkpt lat="45.243031" lon="5.499752">
        <ele>187.17093</ele>
        <time>2021-06-30T08:57:17Z</time>
      </trkpt>
      <trkpt lat="45.242760" lon="5.499489">
        <ele>187.38730</ele>
        <time>2021-06-30T08:57:18Z</time>
      </trkpt>
      <trkpt lat="45.242500" lon="5.499230">
        <ele>187.58090</ele>
        <time>2021-06-30T08:57:19Z</time>
      </trkpt>
      <trkpt lat="45.242237" lon="5.498942">
        <ele>188.11765</ele>
        <time>2021-06-30T08:57:20Z</time>
      </trkpt>
      <trkpt lat="45.242237" lon="5.498942">
        <ele>188.62790</ele>
        <time>2021-06-30T08:57:21Z</time>
      </trkpt>
      <trkpt lat="45.241985" lon="5.498663">
        <ele>188.81967</ele>
        <time>2021-06-30T08:57:22Z</time>
      </trkpt>
      <trkpt lat="45.241737" lon="5.498366">
        <ele>188.98550</ele>
        <time>2021-06-30T08:57:23Z</time>
      </trkpt>
      <trkpt lat="45.241493" lon="5.498075">
        <ele>188.82504</ele>
        <time>2021-06-30T08:57:24Z</time>
      </trkpt>
      <trkpt lat="45.241257" lon="5.497764">
        <ele>188.66446</ele>
        <time>2021-06-30T08:57:25Z</time>
      </trkpt>
      <trkpt lat="45.241024" lon="5.497449">
        <ele>188.61227</ele>
        <time>2021-06-30T08:57:26Z</time>
      </trkpt>
      <trkpt lat="45.240788" lon="5.497123">
        <ele>188.52365</ele>
        <time>2021-06-30T08:57:27Z</time>
      </trkpt>
      <trkpt lat="45.240562" lon="5.496803">
        <ele>188.27621</ele>
        <time>2021-06-30T08:57:28Z</time>
      </trkpt>
      <trkpt lat="45.240353" lon="5.496479">
        <ele>188.35617</ele>
        <time>2021-06-30T08:57:29Z</time>
      </trkpt>
      <trkpt lat="45.240143" lon="5.496145">
        <ele>188.34787</ele>
        <time>2021-06-30T08:57:30Z</time>
      </trkpt>
      <trkpt lat="45.239925" lon="5.495804">
        <ele>188.52963</ele>
        <time>2021-06-30T08:57:31Z</time>
      </trkpt>
      <trkpt lat="45.239727" lon="5.495467">
        <ele>188.23618</ele>
        <time>2021-06-30T08:57:32Z</time>
      </trkpt>
      <trkpt lat="45.239525" lon="5.495116">
        <ele>188.12558</ele>
        <time>2021-06-30T08:57:33Z</time>
      </trkpt>
      <trkpt lat="45.239330" lon="5.494775">
        <ele>187.21909</ele>
        <time>2021-06-30T08:57:34Z</time>
      </trkpt>
      <trkpt lat="45.239128" lon="5.494424">
        <ele>187.22348</ele>
        <time>2021-06-30T08:57:35Z</time>
      </trkpt>
      <trkpt lat="45.238922" lon="5.494056">
        <ele>187.17368</ele>
        <time>2021-06-30T08:57:36Z</time>
      </trkpt>
      <trkpt lat="45.238716" lon="5.493680">
        <ele>187.13052</ele>
        <time>2021-06-30T08:57:37Z</time>
      </trkpt>
      <trkpt lat="45.238525" lon="5.493327">
        <ele>187.03476</ele>
        <time>2021-06-30T08:57:38Z</time>
      </trkpt>
      <trkpt lat="45.238327" lon="5.492970">
        <ele>186.98300</ele>
        <time>2021-06-30T08:57:39Z</time>
      </trkpt>
      <trkpt lat="45.238144" lon="5.492631">
        <ele>186.82755</ele>
        <time>2021-06-30T08:57:40Z</time>
      </trkpt>
      <trkpt lat="45.237953" lon="5.492287">
        <ele>186.92178</ele>
        <time>2021-06-30T08:57:41Z</time>
      </trkpt>
      <trkpt lat="45.237755" lon="5.491924">
        <ele>186.68625</ele>
        <time>2021-06-30T08:57:42Z</time>
      </trkpt>
      <trkpt lat="45.237556" lon="5.491566">
        <ele>186.73038</ele>
        <time>2021-06-30T08:57:43Z</time>
      </trkpt>
      <trkpt lat="45.237366" lon="5.491215">
        <ele>186.80991</ele>
        <time>2021-06-30T08:57:44Z</time>
      </trkpt>
      <trkpt lat="45.237171" lon="5.490866">
        <ele>186.82962</ele>
        <time>2021-06-30T08:57:45Z</time>
      </trkpt>
      <trkpt lat="45.236977" lon="5.490509">
        <ele>186.80008</ele>
        <time>2021-06-30T08:57:46Z</time>
      </trkpt>
      <trkpt lat="45.236782" lon="5.490157">
        <ele>187.04446</ele>
        <time>2021-06-30T08:57:47Z</time>
      </trkpt>
      <trkpt lat="45.236584" lon="5.489795">
        <ele>187.13034</ele>
        <time>2021-06-30T08:57:48Z</time>
      </trkpt>
      <trkpt lat="45.236382" lon="5.489441">
        <ele>187.02200</ele>
        <time>2021-06-30T08:57:49Z</time>
      </trkpt>
      <trkpt lat="45.236176" lon="5.489093">
        <ele>187.22055</ele>
        <time>2021-06-30T08:57:50Z</time>
      </trkpt>
      <trkpt lat="45.235970" lon="5.488753">
        <ele>187.16129</ele>
        <time>2021-06-30T08:57:51Z</time>
      </trkpt>
      <trkpt lat="45.235760" lon="5.488420">
        <ele>187.42239</ele>
        <time>2021-06-30T08:57:52Z</time>
      </trkpt>
      <trkpt lat="45.235535" lon="5.488107">
        <ele>187.87326</ele>
        <time>2021-06-30T08:57:53Z</time>
      </trkpt>
      <trkpt lat="45.235310" lon="5.487789">
        <ele>187.85458</ele>
        <time>2021-06-30T08:57:54Z</time>
      </trkpt>
      <trkpt lat="45.235081" lon="5.487469">
        <ele>187.85574</ele>
        <time>2021-06-30T08:57:55Z</time>
      </trkpt>
      <trkpt lat="45.234844" lon="5.487150">
        <ele>187.91873</ele>
        <time>2021-06-30T08:57:56Z</time>
      </trkpt>
      <trkpt lat="45.234608" lon="5.486856">
        <ele>188.10214</ele>
        <time>2021-06-30T08:57:57Z</time>
      </trkpt>
      <trkpt lat="45.234608" lon="5.486856">
        <ele>188.16031</ele>
        <time>2021-06-30T08:57:58Z</time>
      </trkpt>
      <trkpt lat="45.234367" lon="5.486560">
        <ele>188.10251</ele>
        <time>2021-06-30T08:57:59Z</time>
      </trkpt>
      <trkpt lat="45.234123" lon="5.486274">
        <ele>188.44125</ele>
        <time>2021-06-30T08:58:00Z</time>
      </trkpt>
      <trkpt lat="45.233871" lon="5.485990">
        <ele>188.35214</ele>
        <time>2021-06-30T08:58:01Z</time>
      </trkpt>
      <trkpt lat="45.233620" lon="5.485715">
        <ele>188.26291</ele>
        <time>2021-06-30T08:58:02Z</time>
      </trkpt>
      <trkpt lat="45.233356" lon="5.485442">
        <ele>188.03238</ele>
        <time>2021-06-30T08:58:03Z</time>
      </trkpt>
      <trkpt lat="45.233105" lon="5.485193">
        <ele>187.87631</ele>
        <time>2021-06-30T08:58:04Z</time>
      </trkpt>
      <trkpt lat="45.232841" lon="5.484943">
        <ele>187.94534</ele>
        <time>2021-06-30T08:58:05Z</time>
      </trkpt>
      <trkpt lat="45.232578" lon="5.484692">
        <ele>187.95566</ele>
        <time>2021-06-30T08:58:06Z</time>
      </trkpt>
      <trkpt lat="45.232300" lon="5.484462">
        <ele>187.95358</ele>
        <time>2021-06-30T08:58:07Z</time>
      </trkpt>
      <trkpt lat="45.232018" lon="5.484236">
        <ele>188.14377</ele>
        <time>2021-06-30T08:58:08Z</time>
      </trkpt>
      <trkpt lat="45.231739" lon="5.484007">
        <ele>188.29068</ele>
        <time>2021-06-30T08:58:09Z</time>
      </trkpt>
      <trkpt lat="45.231457" lon="5.483789">
        <ele>188.49033</ele>
        <time>2021-06-30T08:58:10Z</time>
      </trkpt>
      <trkpt lat="45.231178" lon="5.483581">
        <ele>188.45273</ele>
        <time>2021-06-30T08:58:11Z</time>
      </trkpt>
      <trkpt lat="45.230892" lon="5.483370">
        <ele>188.45944</ele>
        <time>2021-06-30T08:58:12Z</time>
      </trkpt>
      <trkpt lat="45.230610" lon="5.483182">
        <ele>188.41452</ele>
        <time>2021-06-30T08:58:13Z</time>
      </trkpt>
      <trkpt lat="45.230316" lon="5.482992">
        <ele>188.59171</ele>
        <time>2021-06-30T08:58:14Z</time>
      </trkpt>
      <trkpt lat="45.230019" lon="5.482822">
        <ele>188.26254</ele>
        <time>2021-06-30T08:58:15Z</time>
      </trkpt>
      <trkpt lat="45.229721" lon="5.482673">
        <ele>188.16580</ele>
        <time>2021-06-30T08:58:16Z</time>
      </trkpt>
      <trkpt lat="45.229412" lon="5.482519">
        <ele>188.05576</ele>
        <time>2021-06-30T08:58:17Z</time>
      </trkpt>
      <trkpt lat="45.229107" lon="5.482367">
        <ele>188.08652</ele>
        <time>2021-06-30T08:58:18Z</time>
      </trkpt>
      <trkpt lat="45.228817" lon="5.482234">
        <ele>188.27658</ele>
        <time>2021-06-30T08:58:19Z</time>
      </trkpt>
      <trkpt lat="45.228493" lon="5.482100">
        <ele>188.21384</ele>
        <time>2021-06-30T08:58:20Z</time>
      </trkpt>
      <trkpt lat="45.228188" lon="5.481973">
        <ele>188.44943</ele>
        <time>2021-06-30T08:58:21Z</time>
      </trkpt>
      <trkpt lat="45.227882" lon="5.481850">
        <ele>188.24197</ele>
        <time>2021-06-30T08:58:22Z</time>
      </trkpt>
      <trkpt lat="45.227581" lon="5.481748">
        <ele>188.55569</ele>
        <time>2021-06-30T08:58:23Z</time>
      </trkpt>
      <trkpt lat="45.227264" lon="5.481641">
        <ele>188.56461</ele>
        <time>2021-06-30T08:58:24Z</time>
      </trkpt>
      <trkpt lat="45.226959" lon="5.481554">
        <ele>188.05588</ele>
        <time>2021-06-30T08:58:25Z</time>
      </trkpt>
      <trkpt lat="45.226631" lon="5.481475">
        <ele>189.28793</ele>
        <time>2021-06-30T08:58:26Z</time>
      </trkpt>
      <trkpt lat="45.226307" lon="5.481397">
        <ele>188.88510</ele>
        <time>2021-06-30T08:58:27Z</time>
      </trkpt>
      <trkpt lat="45.225983" lon="5.481318">
        <ele>188.61630</ele>
        <time>2021-06-30T08:58:28Z</time>
      </trkpt>
      <trkpt lat="45.225670" lon="5.481243">
        <ele>188.11710</ele>
        <time>2021-06-30T08:58:29Z</time>
      </trkpt>
      <trkpt lat="45.225349" lon="5.481166">
        <ele>188.27011</ele>
        <time>2021-06-30T08:58:30Z</time>
      </trkpt>
      <trkpt lat="45.225040" lon="5.481091">
        <ele>188.47147</ele>
        <time>2021-06-30T08:58:31Z</time>
      </trkpt>
      <trkpt lat="45.224724" lon="5.481015">
        <ele>188.58383</ele>
        <time>2021-06-30T08:58:32Z</time>
      </trkpt>
      <trkpt lat="45.224400" lon="5.480942">
        <ele>188.35904</ele>
        <time>2021-06-30T08:58:33Z</time>
      </trkpt>
      <trkpt lat="45.224400" lon="5.480942">
        <ele>188.07028</ele>
        <time>2021-06-30T08:58:34Z</time>
      </trkpt>
      <trkpt lat="45.224079" lon="5.480852">
        <ele>187.75681</ele>
        <time>2021-06-30T08:58:35Z</time>
      </trkpt>
      <trkpt lat="45.223747" lon="5.480752">
        <ele>188.34653</ele>
        <time>2021-06-30T08:58:36Z</time>
      </trkpt>
      <trkpt lat="45.223442" lon="5.480649">
        <ele>187.85672</ele>
        <time>2021-06-30T08:58:37Z</time>
      </trkpt>
      <trkpt lat="45.223141" lon="5.480548">
        <ele>187.83066</ele>
        <time>2021-06-30T08:58:38Z</time>
      </trkpt>
      <trkpt lat="45.222824" lon="5.480428">
        <ele>187.79355</ele>
        <time>2021-06-30T08:58:39Z</time>
      </trkpt>
      <trkpt lat="45.222519" lon="5.480299">
        <ele>187.52335</ele>
        <time>2021-06-30T08:58:40Z</time>
      </trkpt>
      <trkpt lat="45.222210" lon="5.480157">
        <ele>187.49588</ele>
        <time>2021-06-30T08:58:41Z</time>
      </trkpt>
      <trkpt lat="45.221905" lon="5.480015">
        <ele>187.27127</ele>
        <time>2021-06-30T08:58:42Z</time>
      </trkpt>
      <trkpt lat="45.221596" lon="5.479855">
        <ele>187.20126</ele>
        <time>2021-06-30T08:58:43Z</time>
      </trkpt>
      <trkpt lat="45.221287" lon="5.479681">
        <ele>186.62167</ele>
        <time>2021-06-30T08:58:44Z</time>
      </trkpt>
      <trkpt lat="45.220989" lon="5.479513">
        <ele>186.52463</ele>
        <time>2021-06-30T08:58:45Z</time>
      </trkpt>
      <trkpt lat="45.220695" lon="5.479332">
        <ele>186.38498</ele>
        <time>2021-06-30T08:58:46Z</time>
      </trkpt>
      <trkpt lat="45.220406" lon="5.479144">
        <ele>186.63126</ele>
        <time>2021-06-30T08:58:47Z</time>
      </trkpt>
      <trkpt lat="45.220116" lon="5.478941">
        <ele>187.19968</ele>
        <time>2021-06-30T08:58:48Z</time>
      </trkpt>
      <trkpt lat="45.219822" lon="5.478728">
        <ele>187.08548</ele>
        <time>2021-06-30T08:58:49Z</time>
      </trkpt>
      <trkpt lat="45.219536" lon="5.478515">
        <ele>187.16824</ele>
        <time>2021-06-30T08:58:50Z</time>
      </trkpt>
      <trkpt lat="45.219250" lon="5.478286">
        <ele>187.42361</ele>
        <time>2021-06-30T08:58:51Z</time>
      </trkpt>
      <trkpt lat="45.218967" lon="5.478058">
        <ele>187.45419</ele>
        <time>2021-06-30T08:58:52Z</time>
      </trkpt>
      <trkpt lat="45.218681" lon="5.477815">
        <ele>187.36166</ele>
        <time>2021-06-30T08:58:53Z</time>
      </trkpt>
      <trkpt lat="45.218414" lon="5.477585">
        <ele>187.35410</ele>
        <time>2021-06-30T08:58:54Z</time>
      </trkpt>
      <trkpt lat="45.218147" lon="5.477351">
        <ele>187.41867</ele>
        <time>2021-06-30T08:58:55Z</time>
      </trkpt>
      <trkpt lat="45.217861" lon="5.477096">
        <ele>187.42014</ele>
        <time>2021-06-30T08:58:56Z</time>
      </trkpt>
      <trkpt lat="45.217583" lon="5.476840">
        <ele>187.48715</ele>
        <time>2021-06-30T08:58:57Z</time>
      </trkpt>
      <trkpt lat="45.217327" lon="5.476602">
        <ele>187.82626</ele>
        <time>2021-06-30T08:58:58Z</time>
      </trkpt>
      <trkpt lat="45.217056" lon="5.476351">
        <ele>187.89029</ele>
        <time>2021-06-30T08:58:59Z</time>
      </trkpt>
      <trkpt lat="45.216778" lon="5.476094">
        <ele>188.06735</ele>
        <time>2021-06-30T08:59:00Z</time>
      </trkpt>
      <trkpt lat="45.216511" lon="5.475846">
        <ele>188.02695</ele>
        <time>2021-06-30T08:59:01Z</time>
      </trkpt>
      <trkpt lat="45.216248" lon="5.475598">
        <ele>187.94968</ele>
        <time>2021-06-30T08:59:02Z</time>
      </trkpt>
      <trkpt lat="45.215984" lon="5.475336">
        <ele>187.86118</ele>
        <time>2021-06-30T08:59:03Z</time>
      </trkpt>
      <trkpt lat="45.215721" lon="5.475078">
        <ele>187.67374</ele>
        <time>2021-06-30T08:59:04Z</time>
      </trkpt>
      <trkpt lat="45.215466" lon="5.474794">
        <ele>187.47134</ele>
        <time>2021-06-30T08:59:05Z</time>
      </trkpt>
      <trkpt lat="45.215210" lon="5.474509">
        <ele>187.68088</ele>
        <time>2021-06-30T08:59:06Z</time>
      </trkpt>
      <trkpt lat="45.214947" lon="5.474217">
        <ele>187.74905</ele>
        <time>2021-06-30T08:59:07Z</time>
      </trkpt>
      <trkpt lat="45.214947" lon="5.474217">
        <ele>187.52872</ele>
        <time>2021-06-30T08:59:08Z</time>
      </trkpt>
      <trkpt lat="45.214703" lon="5.473916">
        <ele>187.74503</ele>
        <time>2021-06-30T08:59:09Z</time>
      </trkpt>
      <trkpt lat="45.214458" lon="5.473606">
        <ele>187.70364</ele>
        <time>2021-06-30T08:59:10Z</time>
      </trkpt>
      <trkpt lat="45.214222" lon="5.473306">
        <ele>188.02438</ele>
        <time>2021-06-30T08:59:11Z</time>
      </trkpt>
      <trkpt lat="45.213993" lon="5.472990">
        <ele>188.23544</ele>
        <time>2021-06-30T08:59:12Z</time>
      </trkpt>
      <trkpt lat="45.213757" lon="5.472650">
        <ele>188.15329</ele>
        <time>2021-06-30T08:59:13Z</time>
      </trkpt>
      <trkpt lat="45.213528" lon="5.472313">
        <ele>188.09555</ele>
        <time>2021-06-30T08:59:14Z</time>
      </trkpt>
      <trkpt lat="45.213306" lon="5.471972">
        <ele>188.07895</ele>
        <time>2021-06-30T08:59:15Z</time>
      </trkpt>
      <trkpt lat="45.213100" lon="5.471639">
        <ele>187.99893</ele>
        <time>2021-06-30T08:59:16Z</time>
      </trkpt>
      <trkpt lat="45.212894" lon="5.471298">
        <ele>188.15793</ele>
        <time>2021-06-30T08:59:17Z</time>
      </trkpt>
      <trkpt lat="45.212685" lon="5.470948">
        <ele>188.26328</ele>
        <time>2021-06-30T08:59:18Z</time>
      </trkpt>
      <trkpt lat="45.212482" lon="5.470575">
        <ele>188.54007</ele>
        <time>2021-06-30T08:59:19Z</time>
      </trkpt>
      <trkpt lat="45.212299" lon="5.470232">
        <ele>188.58994</ele>
        <time>2021-06-30T08:59:20Z</time>
      </trkpt>
      <trkpt lat="45.212112" lon="5.469856">
        <ele>188.20090</ele>
        <time>2021-06-30T08:59:21Z</time>
      </trkpt>
      <trkpt lat="45.211937" lon="5.469485">
        <ele>188.27951</ele>
        <time>2021-06-30T08:59:22Z</time>
      </trkpt>
      <trkpt lat="45.211754" lon="5.469096">
        <ele>188.69205</ele>
        <time>2021-06-30T08:59:23Z</time>
      </trkpt>
      <trkpt lat="45.211590" lon="5.468724">
        <ele>188.71896</ele>
        <time>2021-06-30T08:59:24Z</time>
      </trkpt>
      <trkpt lat="45.211430" lon="5.468355">
        <ele>189.61160</ele>
        <time>2021-06-30T08:59:25Z</time>
      </trkpt>
      <trkpt lat="45.211269" lon="5.467983">
        <ele>190.10666</ele>
        <time>2021-06-30T08:59:26Z</time>
      </trkpt>
      <trkpt lat="45.211121" lon="5.467586">
        <ele>190.54550</ele>
        <time>2021-06-30T08:59:27Z</time>
      </trkpt>
      <trkpt lat="45.210964" lon="5.467171">
        <ele>191.49387</ele>
        <time>2021-06-30T08:59:28Z</time>
      </trkpt>
      <trkpt lat="45.210819" lon="5.466783">
        <ele>192.77902</ele>
        <time>2021-06-30T08:59:29Z</time>
      </trkpt>
      <trkpt lat="45.210686" lon="5.466389">
        <ele>193.76395</ele>
        <time>2021-06-30T08:59:30Z</time>
      </trkpt>
      <trkpt lat="45.210548" lon="5.465971">
        <ele>194.99594</ele>
        <time>2021-06-30T08:59:31Z</time>
      </trkpt>
      <trkpt lat="45.210419" lon="5.465556">
        <ele>196.28903</ele>
        <time>2021-06-30T08:59:32Z</time>
      </trkpt>
      <trkpt lat="45.210304" lon="5.465143">
        <ele>198.71487</ele>
        <time>2021-06-30T08:59:33Z</time>
      </trkpt>
      <trkpt lat="45.210190" lon="5.464727">
        <ele>200.42960</ele>
        <time>2021-06-30T08:59:34Z</time>
      </trkpt>
      <trkpt lat="45.210068" lon="5.464282">
        <ele>201.72556</ele>
        <time>2021-06-30T08:59:35Z</time>
      </trkpt>
      <trkpt lat="45.209969" lon="5.463855">
        <ele>202.88168</ele>
        <time>2021-06-30T08:59:36Z</time>
      </trkpt>
      <trkpt lat="45.209869" lon="5.463426">
        <ele>204.11496</ele>
        <time>2021-06-30T08:59:37Z</time>
      </trkpt>
      <trkpt lat="45.209778" lon="5.462974">
        <ele>205.60275</ele>
        <time>2021-06-30T08:59:38Z</time>
      </trkpt>
      <trkpt lat="45.209694" lon="5.462550">
        <ele>206.64517</ele>
        <time>2021-06-30T08:59:39Z</time>
      </trkpt>
      <trkpt lat="45.209618" lon="5.462102">
        <ele>208.31320</ele>
        <time>2021-06-30T08:59:40Z</time>
      </trkpt>
      <trkpt lat="45.209549" lon="5.461675">
        <ele>209.66324</ele>
        <time>2021-06-30T08:59:41Z</time>
      </trkpt>
      <trkpt lat="45.209549" lon="5.461675">
        <ele>211.32297</ele>
        <time>2021-06-30T08:59:42Z</time>
      </trkpt>
      <trkpt lat="45.209480" lon="5.461221">
        <ele>212.40182</ele>
        <time>2021-06-30T08:59:43Z</time>
      </trkpt>
      <trkpt lat="45.209419" lon="5.460776">
        <ele>213.34543</ele>
        <time>2021-06-30T08:59:44Z</time>
      </trkpt>
      <trkpt lat="45.209362" lon="5.460340">
        <ele>214.70590</ele>
        <time>2021-06-30T08:59:45Z</time>
      </trkpt>
      <trkpt lat="45.209305" lon="5.459877">
        <ele>215.92001</ele>
        <time>2021-06-30T08:59:46Z</time>
      </trkpt>
      <trkpt lat="45.209255" lon="5.459429">
        <ele>217.60068</ele>
        <time>2021-06-30T08:59:47Z</time>
      </trkpt>
      <trkpt lat="45.209206" lon="5.458967">
        <ele>219.75735</ele>
        <time>2021-06-30T08:59:48Z</time>
      </trkpt>
      <trkpt lat="45.209160" lon="5.458516">
        <ele>221.23203</ele>
        <time>2021-06-30T08:59:49Z</time>
      </trkpt>
      <trkpt lat="45.209110" lon="5.458079">
        <ele>222.05606</ele>
        <time>2021-06-30T08:59:50Z</time>
      </trkpt>
      <trkpt lat="45.209061" lon="5.457640">
        <ele>223.66733</ele>
        <time>2021-06-30T08:59:51Z</time>
      </trkpt>
      <trkpt lat="45.209003" lon="5.457171">
        <ele>224.95676</ele>
        <time>2021-06-30T08:59:52Z</time>
      </trkpt>
      <trkpt lat="45.208942" lon="5.456703">
        <ele>226.74435</ele>
        <time>2021-06-30T08:59:53Z</time>
      </trkpt>
      <trkpt lat="45.208878" lon="5.456258">
        <ele>227.59384</ele>
        <time>2021-06-30T08:59:54Z</time>
      </trkpt>
      <trkpt lat="45.208794" lon="5.455815">
        <ele>228.67960</ele>
        <time>2021-06-30T08:59:55Z</time>
      </trkpt>
      <trkpt lat="45.208714" lon="5.455368">
        <ele>229.66379</ele>
        <time>2021-06-30T08:59:56Z</time>
      </trkpt>
      <trkpt lat="45.208633" lon="5.454941">
        <ele>230.36746</ele>
        <time>2021-06-30T08:59:57Z</time>
      </trkpt>
      <trkpt lat="45.208542" lon="5.454491">
        <ele>231.00919</ele>
        <time>2021-06-30T08:59:58Z</time>
      </trkpt>
      <trkpt lat="45.208443" lon="5.454055">
        <ele>231.68790</ele>
        <time>2021-06-30T08:59:59Z</time>
      </trkpt>
      <trkpt lat="45.208340" lon="5.453641">
        <ele>232.59225</ele>
        <time>2021-06-30T09:00:00Z</time>
      </trkpt>
      <trkpt lat="45.208233" lon="5.453208">
        <ele>233.27200</ele>
        <time>2021-06-30T09:00:01Z</time>
      </trkpt>
      <trkpt lat="45.208130" lon="5.452776">
        <ele>233.68069</ele>
        <time>2021-06-30T09:00:02Z</time>
      </trkpt>
      <trkpt lat="45.208012" lon="5.452332">
        <ele>233.95663</ele>
        <time>2021-06-30T09:00:03Z</time>
      </trkpt>
      <trkpt lat="45.207890" lon="5.451900">
        <ele>234.17392</ele>
        <time>2021-06-30T09:00:04Z</time>
      </trkpt>
      <trkpt lat="45.207771" lon="5.451463">
        <ele>234.55905</ele>
        <time>2021-06-30T09:00:05Z</time>
      </trkpt>
      <trkpt lat="45.207664" lon="5.451037">
        <ele>234.74014</ele>
        <time>2021-06-30T09:00:06Z</time>
      </trkpt>
      <trkpt lat="45.207550" lon="5.450596">
        <ele>234.95425</ele>
        <time>2021-06-30T09:00:07Z</time>
      </trkpt>
      <trkpt lat="45.207432" lon="5.450170">
        <ele>235.21457</ele>
        <time>2021-06-30T09:00:08Z</time>
      </trkpt>
      <trkpt lat="45.207317" lon="5.449740">
        <ele>235.73557</ele>
        <time>2021-06-30T09:00:09Z</time>
      </trkpt>
      <trkpt lat="45.207199" lon="5.449317">
        <ele>235.93173</ele>
        <time>2021-06-30T09:00:10Z</time>
      </trkpt>
      <trkpt lat="45.207085" lon="5.448887">
        <ele>236.24319</ele>
        <time>2021-06-30T09:00:11Z</time>
      </trkpt>
      <trkpt lat="45.206966" lon="5.448460">
        <ele>236.48502</ele>
        <time>2021-06-30T09:00:12Z</time>
      </trkpt>
      <trkpt lat="45.206852" lon="5.448039">
        <ele>236.67203</ele>
        <time>2021-06-30T09:00:13Z</time>
      </trkpt>
      <trkpt lat="45.206738" lon="5.447615">
        <ele>236.96872</ele>
        <time>2021-06-30T09:00:14Z</time>
      </trkpt>
      <trkpt lat="45.206619" lon="5.447185">
        <ele>237.26450</ele>
        <time>2021-06-30T09:00:15Z</time>
      </trkpt>
      <trkpt lat="45.206505" lon="5.446752">
        <ele>237.45468</ele>
        <time>2021-06-30T09:00:16Z</time>
      </trkpt>
      <trkpt lat="45.206505" lon="5.446752">
        <ele>237.98544</ele>
        <time>2021-06-30T09:00:17Z</time>
      </trkpt>
      <trkpt lat="45.206387" lon="5.446324">
        <ele>238.46738</ele>
        <time>2021-06-30T09:00:18Z</time>
      </trkpt>
      <trkpt lat="45.206272" lon="5.445890">
        <ele>238.62167</ele>
        <time>2021-06-30T09:00:19Z</time>
      </trkpt>
      <trkpt lat="45.206161" lon="5.445472">
        <ele>238.71957</ele>
        <time>2021-06-30T09:00:20Z</time>
      </trkpt>
      <trkpt lat="45.206043" lon="5.445036">
        <ele>238.77127</ele>
        <time>2021-06-30T09:00:21Z</time>
      </trkpt>
      <trkpt lat="45.205929" lon="5.444607">
        <ele>238.88412</ele>
        <time>2021-06-30T09:00:22Z</time>
      </trkpt>
      <trkpt lat="45.205818" lon="5.444194">
        <ele>239.08286</ele>
        <time>2021-06-30T09:00:23Z</time>
      </trkpt>
      <trkpt lat="45.205708" lon="5.443783">
        <ele>239.19534</ele>
        <time>2021-06-30T09:00:24Z</time>
      </trkpt>
      <trkpt lat="45.205597" lon="5.443372">
        <ele>239.27744</ele>
        <time>2021-06-30T09:00:25Z</time>
      </trkpt>
      <trkpt lat="45.205479" lon="5.442939">
        <ele>239.46066</ele>
        <time>2021-06-30T09:00:26Z</time>
      </trkpt>
      <trkpt lat="45.205368" lon="5.442522">
        <ele>239.82870</ele>
        <time>2021-06-30T09:00:27Z</time>
      </trkpt>
      <trkpt lat="45.205254" lon="5.442100">
        <ele>240.03354</ele>
        <time>2021-06-30T09:00:28Z</time>
      </trkpt>
      <trkpt lat="45.205143" lon="5.441685">
        <ele>240.22018</ele>
        <time>2021-06-30T09:00:29Z</time>
      </trkpt>
      <trkpt lat="45.205025" lon="5.441248">
        <ele>240.58035</ele>
        <time>2021-06-30T09:00:30Z</time>
      </trkpt>
      <trkpt lat="45.204914" lon="5.440836">
        <ele>240.71890</ele>
        <time>2021-06-30T09:00:31Z</time>
      </trkpt>
      <trkpt lat="45.204800" lon="5.440405">
        <ele>241.38205</ele>
        <time>2021-06-30T09:00:32Z</time>
      </trkpt>
      <trkpt lat="45.204685" lon="5.439978">
        <ele>241.63608</ele>
        <time>2021-06-30T09:00:33Z</time>
      </trkpt>
      <trkpt lat="45.204575" lon="5.439568">
        <ele>241.97092</ele>
        <time>2021-06-30T09:00:34Z</time>
      </trkpt>
      <trkpt lat="45.204460" lon="5.439149">
        <ele>242.09579</ele>
        <time>2021-06-30T09:00:35Z</time>
      </trkpt>
      <trkpt lat="45.204342" lon="5.438700">
        <ele>242.24387</ele>
        <time>2021-06-30T09:00:36Z</time>
      </trkpt>
      <trkpt lat="45.204231" lon="5.438282">
        <ele>242.59714</ele>
        <time>2021-06-30T09:00:37Z</time>
      </trkpt>
      <trkpt lat="45.204121" lon="5.437860">
        <ele>242.97525</ele>
        <time>2021-06-30T09:00:38Z</time>
      </trkpt>
      <trkpt lat="45.204006" lon="5.437436">
        <ele>243.61118</ele>
        <time>2021-06-30T09:00:39Z</time>
      </trkpt>
      <trkpt lat="45.203888" lon="5.436996">
        <ele>243.48129</ele>
        <time>2021-06-30T09:00:40Z</time>
      </trkpt>
      <trkpt lat="45.203777" lon="5.436582">
        <ele>243.71774</ele>
        <time>2021-06-30T09:00:41Z</time>
      </trkpt>
      <trkpt lat="45.203659" lon="5.436138">
        <ele>244.01822</ele>
        <time>2021-06-30T09:00:42Z</time>
      </trkpt>
      <trkpt lat="45.203545" lon="5.435709">
        <ele>244.04733</ele>
        <time>2021-06-30T09:00:43Z</time>
      </trkpt>
      <trkpt lat="45.203426" lon="5.435262">
        <ele>244.25082</ele>
        <time>2021-06-30T09:00:44Z</time>
      </trkpt>
      <trkpt lat="45.203316" lon="5.434852">
        <ele>244.21884</ele>
        <time>2021-06-30T09:00:45Z</time>
      </trkpt>
      <trkpt lat="45.203201" lon="5.434440">
        <ele>244.61710</ele>
        <time>2021-06-30T09:00:46Z</time>
      </trkpt>
      <trkpt lat="45.203087" lon="5.434026">
        <ele>244.77182</ele>
        <time>2021-06-30T09:00:47Z</time>
      </trkpt>
      <trkpt lat="45.202965" lon="5.433596">
        <ele>244.87643</ele>
        <time>2021-06-30T09:00:48Z</time>
      </trkpt>
      <trkpt lat="45.202843" lon="5.433180">
        <ele>245.11960</ele>
        <time>2021-06-30T09:00:49Z</time>
      </trkpt>
      <trkpt lat="45.202717" lon="5.432757">
        <ele>245.18112</ele>
        <time>2021-06-30T09:00:50Z</time>
      </trkpt>
      <trkpt lat="45.202591" lon="5.432329">
        <ele>245.30344</ele>
        <time>2021-06-30T09:00:51Z</time>
      </trkpt>
      <trkpt lat="45.202461" lon="5.431899">
        <ele>245.71823</ele>
        <time>2021-06-30T09:00:52Z</time>
      </trkpt>
      <trkpt lat="45.202335" lon="5.431487">
        <ele>246.23752</ele>
        <time>2021-06-30T09:00:53Z</time>
      </trkpt>
      <trkpt lat="45.202202" lon="5.431085">
        <ele>246.51718</ele>
        <time>2021-06-30T09:00:54Z</time>
      </trkpt>
      <trkpt lat="45.202057" lon="5.430662">
        <ele>246.58969</ele>
        <time>2021-06-30T09:00:55Z</time>
      </trkpt>
      <trkpt lat="45.201912" lon="5.430266">
        <ele>247.17172</ele>
        <time>2021-06-30T09:00:56Z</time>
      </trkpt>
      <trkpt lat="45.201912" lon="5.430266">
        <ele>247.62375</ele>
        <time>2021-06-30T09:00:57Z</time>
      </trkpt>
      <trkpt lat="45.201759" lon="5.429857">
        <ele>247.80283</ele>
        <time>2021-06-30T09:00:58Z</time>
      </trkpt>
      <trkpt lat="45.201607" lon="5.429448">
        <ele>248.07639</ele>
        <time>2021-06-30T09:00:59Z</time>
      </trkpt>
      <trkpt lat="45.201454" lon="5.429055">
        <ele>248.55930</ele>
        <time>2021-06-30T09:01:00Z</time>
      </trkpt>
      <trkpt lat="45.201294" lon="5.428652">
        <ele>248.62497</ele>
        <time>2021-06-30T09:01:01Z</time>
      </trkpt>
      <trkpt lat="45.201130" lon="5.428250">
        <ele>248.56619</ele>
        <time>2021-06-30T09:01:02Z</time>
      </trkpt>
      <trkpt lat="45.200966" lon="5.427857">
        <ele>248.86557</ele>
        <time>2021-06-30T09:01:03Z</time>
      </trkpt>
      <trkpt lat="45.200798" lon="5.427465">
        <ele>248.67856</ele>
        <time>2021-06-30T09:01:04Z</time>
      </trkpt>
      <trkpt lat="45.200626" lon="5.427082">
        <ele>248.91397</ele>
        <time>2021-06-30T09:01:05Z</time>
      </trkpt>
      <trkpt lat="45.200451" lon="5.426701">
        <ele>248.72604</ele>
        <time>2021-06-30T09:01:06Z</time>
      </trkpt>
      <trkpt lat="45.200260" lon="5.426345">
        <ele>248.58286</ele>
        <time>2021-06-30T09:01:07Z</time>
      </trkpt>
      <trkpt lat="45.200062" lon="5.425967">
        <ele>248.63583</ele>
        <time>2021-06-30T09:01:08Z</time>
      </trkpt>
      <trkpt lat="45.199879" lon="5.425605">
        <ele>249.08884</ele>
        <time>2021-06-30T09:01:09Z</time>
      </trkpt>
      <trkpt lat="45.199677" lon="5.425232">
        <ele>248.65158</ele>
        <time>2021-06-30T09:01:10Z</time>
      </trkpt>
      <trkpt lat="45.199471" lon="5.424857">
        <ele>248.40500</ele>
        <time>2021-06-30T09:01:11Z</time>
      </trkpt>
      <trkpt lat="45.199280" lon="5.424509">
        <ele>248.36972</ele>
        <time>2021-06-30T09:01:12Z</time>
      </trkpt>
      <trkpt lat="45.199074" lon="5.424157">
        <ele>248.12662</ele>
        <time>2021-06-30T09:01:13Z</time>
      </trkpt>
      <trkpt lat="45.198860" lon="5.423791">
        <ele>248.27298</ele>
        <time>2021-06-30T09:01:14Z</time>
      </trkpt>
      <trkpt lat="45.198658" lon="5.423438">
        <ele>248.16635</ele>
        <time>2021-06-30T09:01:15Z</time>
      </trkpt>
      <trkpt lat="45.198456" lon="5.423078">
        <ele>249.11905</ele>
        <time>2021-06-30T09:01:16Z</time>
      </trkpt>
      <trkpt lat="45.198261" lon="5.422732">
        <ele>249.10385</ele>
        <time>2021-06-30T09:01:17Z</time>
      </trkpt>
      <trkpt lat="45.198044" lon="5.422389">
        <ele>248.84280</ele>
        <time>2021-06-30T09:01:18Z</time>
      </trkpt>
      <trkpt lat="45.197834" lon="5.422071">
        <ele>248.68094</ele>
        <time>2021-06-30T09:01:19Z</time>
      </trkpt>
      <trkpt lat="45.197609" lon="5.421734">
        <ele>248.54831</ele>
        <time>2021-06-30T09:01:20Z</time>
      </trkpt>
      <trkpt lat="45.197380" lon="5.421405">
        <ele>248.13058</ele>
        <time>2021-06-30T09:01:21Z</time>
      </trkpt>
      <trkpt lat="45.197147" lon="5.421075">
        <ele>247.79282</ele>
        <time>2021-06-30T09:01:22Z</time>
      </trkpt>
      <trkpt lat="45.196922" lon="5.420763">
        <ele>247.84329</ele>
        <time>2021-06-30T09:01:23Z</time>
      </trkpt>
      <trkpt lat="45.196690" lon="5.420437">
        <ele>247.72928</ele>
        <time>2021-06-30T09:01:24Z</time>
      </trkpt>
      <trkpt lat="45.196461" lon="5.420122">
        <ele>247.77927</ele>
        <time>2021-06-30T09:01:25Z</time>
      </trkpt>
      <trkpt lat="45.196236" lon="5.419809">
        <ele>247.52719</ele>
        <time>2021-06-30T09:01:26Z</time>
      </trkpt>
      <trkpt lat="45.196007" lon="5.419487">
        <ele>247.49399</ele>
        <time>2021-06-30T09:01:27Z</time>
      </trkpt>
      <trkpt lat="45.195766" lon="5.419157">
        <ele>247.58371</ele>
        <time>2021-06-30T09:01:28Z</time>
      </trkpt>
      <trkpt lat="45.195541" lon="5.418843">
        <ele>247.54477</ele>
        <time>2021-06-30T09:01:29Z</time>
      </trkpt>
      <trkpt lat="45.195301" lon="5.418507">
        <ele>247.56137</ele>
        <time>2021-06-30T09:01:30Z</time>
      </trkpt>
      <trkpt lat="45.195301" lon="5.418507">
        <ele>247.72311</ele>
        <time>2021-06-30T09:01:31Z</time>
      </trkpt>
      <trkpt lat="45.195068" lon="5.418185">
        <ele>247.82761</ele>
        <time>2021-06-30T09:01:32Z</time>
      </trkpt>
      <trkpt lat="45.194828" lon="5.417856">
        <ele>247.45981</ele>
        <time>2021-06-30T09:01:33Z</time>
      </trkpt>
      <trkpt lat="45.194599" lon="5.417544">
        <ele>247.58737</ele>
        <time>2021-06-30T09:01:34Z</time>
      </trkpt>
      <trkpt lat="45.194370" lon="5.417227">
        <ele>247.46341</ele>
        <time>2021-06-30T09:01:35Z</time>
      </trkpt>
      <trkpt lat="45.194134" lon="5.416903">
        <ele>247.25778</ele>
        <time>2021-06-30T09:01:36Z</time>
      </trkpt>
      <trkpt lat="45.193893" lon="5.416577">
        <ele>246.82901</ele>
        <time>2021-06-30T09:01:37Z</time>
      </trkpt>
      <trkpt lat="45.193665" lon="5.416267">
        <ele>246.44528</ele>
        <time>2021-06-30T09:01:38Z</time>
      </trkpt>
      <trkpt lat="45.193432" lon="5.415981">
        <ele>246.24649</ele>
        <time>2021-06-30T09:01:39Z</time>
      </trkpt>
      <trkpt lat="45.193169" lon="5.415665">
        <ele>246.27084</ele>
        <time>2021-06-30T09:01:40Z</time>
      </trkpt>
      <trkpt lat="45.192932" lon="5.415380">
        <ele>246.51682</ele>
        <time>2021-06-30T09:01:41Z</time>
      </trkpt>
      <trkpt lat="45.192680" lon="5.415095">
        <ele>246.25943</ele>
        <time>2021-06-30T09:01:42Z</time>
      </trkpt>
      <trkpt lat="45.192421" lon="5.414819">
        <ele>246.24728</ele>
        <time>2021-06-30T09:01:43Z</time>
      </trkpt>
      <trkpt lat="45.192169" lon="5.414554">
        <ele>245.70084</ele>
        <time>2021-06-30T09:01:44Z</time>
      </trkpt>
      <trkpt lat="45.191902" lon="5.414299">
        <ele>244.99460</ele>
        <time>2021-06-30T09:01:45Z</time>
      </trkpt>
      <trkpt lat="45.191647" lon="5.414047">
        <ele>245.08170</ele>
        <time>2021-06-30T09:01:46Z</time>
      </trkpt>
      <trkpt lat="45.191387" lon="5.413798">
        <ele>245.19870</ele>
        <time>2021-06-30T09:01:47Z</time>
      </trkpt>
      <trkpt lat="45.191132" lon="5.413560">
        <ele>244.93259</ele>
        <time>2021-06-30T09:01:48Z</time>
      </trkpt>
      <trkpt lat="45.190861" lon="5.413317">
        <ele>244.66116</ele>
        <time>2021-06-30T09:01:49Z</time>
      </trkpt>
      <trkpt lat="45.190598" lon="5.413082">
        <ele>244.41623</ele>
        <time>2021-06-30T09:01:50Z</time>
      </trkpt>
      <trkpt lat="45.190327" lon="5.412827">
        <ele>244.30991</ele>
        <time>2021-06-30T09:01:51Z</time>
      </trkpt>
      <trkpt lat="45.190060" lon="5.412574">
        <ele>244.28702</ele>
        <time>2021-06-30T09:01:52Z</time>
      </trkpt>
      <trkpt lat="45.189774" lon="5.412307">
        <ele>244.10892</ele>
        <time>2021-06-30T09:01:53Z</time>
      </trkpt>
      <trkpt lat="45.189526" lon="5.412062">
        <ele>243.76071</ele>
        <time>2021-06-30T09:01:54Z</time>
      </trkpt>
      <trkpt lat="45.189255" lon="5.411782">
        <ele>243.56668</ele>
        <time>2021-06-30T09:01:55Z</time>
      </trkpt>
      <trkpt lat="45.188999" lon="5.411513">
        <ele>242.87326</ele>
        <time>2021-06-30T09:01:56Z</time>
      </trkpt>
      <trkpt lat="45.188740" lon="5.411235">
        <ele>242.63083</ele>
        <time>2021-06-30T09:01:57Z</time>
      </trkpt>
      <trkpt lat="45.188496" lon="5.410953">
        <ele>242.37112</ele>
        <time>2021-06-30T09:01:58Z</time>
      </trkpt>
      <trkpt lat="45.188232" lon="5.410656">
        <ele>241.97067</ele>
        <time>2021-06-30T09:01:59Z</time>
      </trkpt>
      <trkpt lat="45.187981" lon="5.410347">
        <ele>241.74246</ele>
        <time>2021-06-30T09:02:00Z</time>
      </trkpt>
      <trkpt lat="45.187748" lon="5.410046">
        <ele>241.72177</ele>
        <time>2021-06-30T09:02:01Z</time>
      </trkpt>
      <trkpt lat="45.187504" lon="5.409727">
        <ele>241.37656</ele>
        <time>2021-06-30T09:02:02Z</time>
      </trkpt>
      <trkpt lat="45.187271" lon="5.409396">
        <ele>241.62723</ele>
        <time>2021-06-30T09:02:03Z</time>
      </trkpt>
      <trkpt lat="45.187054" lon="5.409068">
        <ele>241.14462</ele>
        <time>2021-06-30T09:02:04Z</time>
      </trkpt>
      <trkpt lat="45.187054" lon="5.409068">
        <ele>239.54849</ele>
        <time>2021-06-30T09:02:05Z</time>
      </trkpt>
      <trkpt lat="45.186836" lon="5.408736">
        <ele>239.34225</ele>
        <time>2021-06-30T09:02:06Z</time>
      </trkpt>
      <trkpt lat="45.186626" lon="5.408404">
        <ele>238.77853</ele>
        <time>2021-06-30T09:02:07Z</time>
      </trkpt>
      <trkpt lat="45.186405" lon="5.408050">
        <ele>238.68631</ele>
        <time>2021-06-30T09:02:08Z</time>
      </trkpt>
      <trkpt lat="45.186199" lon="5.407711">
        <ele>238.15622</ele>
        <time>2021-06-30T09:02:09Z</time>
      </trkpt>
      <trkpt lat="45.185982" lon="5.407355">
        <ele>237.54257</ele>
        <time>2021-06-30T09:02:10Z</time>
      </trkpt>
      <trkpt lat="45.185776" lon="5.407017">
        <ele>237.61618</ele>
        <time>2021-06-30T09:02:11Z</time>
      </trkpt>
      <trkpt lat="45.185558" lon="5.406661">
        <ele>237.57407</ele>
        <time>2021-06-30T09:02:12Z</time>
      </trkpt>
      <trkpt lat="45.185349" lon="5.406315">
        <ele>237.94473</ele>
        <time>2021-06-30T09:02:13Z</time>
      </trkpt>
      <trkpt lat="45.185131" lon="5.405973">
        <ele>237.49478</ele>
        <time>2021-06-30T09:02:14Z</time>
      </trkpt>
      <trkpt lat="45.184914" lon="5.405646">
        <ele>236.98160</ele>
        <time>2021-06-30T09:02:15Z</time>
      </trkpt>
      <trkpt lat="45.184692" lon="5.405316">
        <ele>237.42197</ele>
        <time>2021-06-30T09:02:16Z</time>
      </trkpt>
      <trkpt lat="45.184467" lon="5.404985">
        <ele>236.56808</ele>
        <time>2021-06-30T09:02:17Z</time>
      </trkpt>
      <trkpt lat="45.184235" lon="5.404671">
        <ele>236.30295</ele>
        <time>2021-06-30T09:02:18Z</time>
      </trkpt>
      <trkpt lat="45.183990" lon="5.404354">
        <ele>235.76950</ele>
        <time>2021-06-30T09:02:19Z</time>
      </trkpt>
      <trkpt lat="45.183762" lon="5.404051">
        <ele>235.78024</ele>
        <time>2021-06-30T09:02:20Z</time>
      </trkpt>
      <trkpt lat="45.183514" lon="5.403731">
        <ele>235.87143</ele>
        <time>2021-06-30T09:02:21Z</time>
      </trkpt>
      <trkpt lat="45.183270" lon="5.403435">
        <ele>235.69675</ele>
        <time>2021-06-30T09:02:22Z</time>
      </trkpt>
      <trkpt lat="45.183022" lon="5.403150">
        <ele>235.57724</ele>
        <time>2021-06-30T09:02:23Z</time>
      </trkpt>
      <trkpt lat="45.182755" lon="5.402875">
        <ele>234.98666</ele>
        <time>2021-06-30T09:02:24Z</time>
      </trkpt>
      <trkpt lat="45.182487" lon="5.402596">
        <ele>234.47269</ele>
        <time>2021-06-30T09:02:25Z</time>
      </trkpt>
      <trkpt lat="45.182224" lon="5.402323">
        <ele>234.92856</ele>
        <time>2021-06-30T09:02:26Z</time>
      </trkpt>
      <trkpt lat="45.181965" lon="5.402061">
        <ele>234.83737</ele>
        <time>2021-06-30T09:02:27Z</time>
      </trkpt>
      <trkpt lat="45.181690" lon="5.401803">
        <ele>234.81332</ele>
        <time>2021-06-30T09:02:28Z</time>
      </trkpt>
      <trkpt lat="45.181419" lon="5.401548">
        <ele>234.40213</ele>
        <time>2021-06-30T09:02:29Z</time>
      </trkpt>
      <trkpt lat="45.181160" lon="5.401304">
        <ele>234.53110</ele>
        <time>2021-06-30T09:02:30Z</time>
      </trkpt>
      <trkpt lat="45.180878" lon="5.401055">
        <ele>234.44858</ele>
        <time>2021-06-30T09:02:31Z</time>
      </trkpt>
      <trkpt lat="45.180603" lon="5.400797">
        <ele>234.53403</ele>
        <time>2021-06-30T09:02:32Z</time>
      </trkpt>
      <trkpt lat="45.180340" lon="5.400532">
        <ele>234.59238</ele>
        <time>2021-06-30T09:02:33Z</time>
      </trkpt>
      <trkpt lat="45.180077" lon="5.400263">
        <ele>234.13516</ele>
        <time>2021-06-30T09:02:34Z</time>
      </trkpt>
      <trkpt lat="45.179832" lon="5.399996">
        <ele>234.09909</ele>
        <time>2021-06-30T09:02:35Z</time>
      </trkpt>
      <trkpt lat="45.179569" lon="5.399682">
        <ele>234.16330</ele>
        <time>2021-06-30T09:02:36Z</time>
      </trkpt>
      <trkpt lat="45.179569" lon="5.399682">
        <ele>233.95297</ele>
        <time>2021-06-30T09:02:37Z</time>
      </trkpt>
      <trkpt lat="45.179333" lon="5.399374">
        <ele>233.51547</ele>
        <time>2021-06-30T09:02:38Z</time>
      </trkpt>
      <trkpt lat="45.179104" lon="5.399061">
        <ele>233.10007</ele>
        <time>2021-06-30T09:02:39Z</time>
      </trkpt>
      <trkpt lat="45.178867" lon="5.398724">
        <ele>232.41098</ele>
        <time>2021-06-30T09:02:40Z</time>
      </trkpt>
      <trkpt lat="45.178658" lon="5.398380">
        <ele>231.93710</ele>
        <time>2021-06-30T09:02:41Z</time>
      </trkpt>
      <trkpt lat="45.178448" lon="5.398023">
        <ele>230.84036</ele>
        <time>2021-06-30T09:02:42Z</time>
      </trkpt>
      <trkpt lat="45.178234" lon="5.397662">
        <ele>230.21628</ele>
        <time>2021-06-30T09:02:43Z</time>
      </trkpt>
      <trkpt lat="45.178047" lon="5.397293">
        <ele>228.64438</ele>
        <time>2021-06-30T09:02:44Z</time>
      </trkpt>
      <trkpt lat="45.177879" lon="5.396898">
        <ele>227.91623</ele>
        <time>2021-06-30T09:02:45Z</time>
      </trkpt>
      <trkpt lat="45.177719" lon="5.396509">
        <ele>227.02011</ele>
        <time>2021-06-30T09:02:46Z</time>
      </trkpt>
      <trkpt lat="45.177570" lon="5.396116">
        <ele>226.00754</ele>
        <time>2021-06-30T09:02:47Z</time>
      </trkpt>
      <trkpt lat="45.177425" lon="5.395705">
        <ele>224.60977</ele>
        <time>2021-06-30T09:02:48Z</time>
      </trkpt>
      <trkpt lat="45.177284" lon="5.395306">
        <ele>223.63968</ele>
        <time>2021-06-30T09:02:49Z</time>
      </trkpt>
      <trkpt lat="45.177143" lon="5.394892">
        <ele>222.99954</ele>
        <time>2021-06-30T09:02:50Z</time>
      </trkpt>
      <trkpt lat="45.176998" lon="5.394479">
        <ele>221.91751</ele>
        <time>2021-06-30T09:02:51Z</time>
      </trkpt>
      <trkpt lat="45.176861" lon="5.394086">
        <ele>220.95969</ele>
        <time>2021-06-30T09:02:52Z</time>
      </trkpt>
      <trkpt lat="45.176723" lon="5.393693">
        <ele>220.20724</ele>
        <time>2021-06-30T09:02:53Z</time>
      </trkpt>
      <trkpt lat="45.176579" lon="5.393296">
        <ele>218.63815</ele>
        <time>2021-06-30T09:02:54Z</time>
      </trkpt>
      <trkpt lat="45.176437" lon="5.392906">
        <ele>217.16568</ele>
        <time>2021-06-30T09:02:55Z</time>
      </trkpt>
      <trkpt lat="45.176289" lon="5.392502">
        <ele>216.90439</ele>
        <time>2021-06-30T09:02:56Z</time>
      </trkpt>
      <trkpt lat="45.176144" lon="5.392126">
        <ele>216.62277</ele>
        <time>2021-06-30T09:02:57Z</time>
      </trkpt>
      <trkpt lat="45.175995" lon="5.391758">
        <ele>216.16617</ele>
        <time>2021-06-30T09:02:58Z</time>
      </trkpt>
      <trkpt lat="45.175823" lon="5.391376">
        <ele>215.12534</ele>
        <time>2021-06-30T09:02:59Z</time>
      </trkpt>
      <trkpt lat="45.175655" lon="5.391011">
        <ele>215.14389</ele>
        <time>2021-06-30T09:03:00Z</time>
      </trkpt>
      <trkpt lat="45.175484" lon="5.390645">
        <ele>214.80112</ele>
        <time>2021-06-30T09:03:01Z</time>
      </trkpt>
      <trkpt lat="45.175320" lon="5.390306">
        <ele>214.77713</ele>
        <time>2021-06-30T09:03:02Z</time>
      </trkpt>
      <trkpt lat="45.175137" lon="5.389936">
        <ele>215.14688</ele>
        <time>2021-06-30T09:03:03Z</time>
      </trkpt>
      <trkpt lat="45.174942" lon="5.389568">
        <ele>215.24911</ele>
        <time>2021-06-30T09:03:04Z</time>
      </trkpt>
      <trkpt lat="45.174747" lon="5.389208">
        <ele>215.92746</ele>
        <time>2021-06-30T09:03:05Z</time>
      </trkpt>
      <trkpt lat="45.174557" lon="5.388862">
        <ele>216.55801</ele>
        <time>2021-06-30T09:03:06Z</time>
      </trkpt>
      <trkpt lat="45.174366" lon="5.388526">
        <ele>216.40298</ele>
        <time>2021-06-30T09:03:07Z</time>
      </trkpt>
      <trkpt lat="45.174175" lon="5.388182">
        <ele>216.28012</ele>
        <time>2021-06-30T09:03:08Z</time>
      </trkpt>
      <trkpt lat="45.173977" lon="5.387828">
        <ele>216.96530</ele>
        <time>2021-06-30T09:03:09Z</time>
      </trkpt>
      <trkpt lat="45.173786" lon="5.387487">
        <ele>217.67990</ele>
        <time>2021-06-30T09:03:10Z</time>
      </trkpt>
      <trkpt lat="45.173603" lon="5.387138">
        <ele>218.56882</ele>
        <time>2021-06-30T09:03:11Z</time>
      </trkpt>
      <trkpt lat="45.173603" lon="5.387138">
        <ele>218.52011</ele>
        <time>2021-06-30T09:03:12Z</time>
      </trkpt>
      <trkpt lat="45.173416" lon="5.386784">
        <ele>218.22543</ele>
        <time>2021-06-30T09:03:13Z</time>
      </trkpt>
      <trkpt lat="45.173241" lon="5.386435">
        <ele>218.90024</ele>
        <time>2021-06-30T09:03:14Z</time>
      </trkpt>
      <trkpt lat="45.173061" lon="5.386066">
        <ele>219.67380</ele>
        <time>2021-06-30T09:03:15Z</time>
      </trkpt>
      <trkpt lat="45.172890" lon="5.385712">
        <ele>220.47470</ele>
        <time>2021-06-30T09:03:16Z</time>
      </trkpt>
      <trkpt lat="45.172718" lon="5.385357">
        <ele>220.94040</ele>
        <time>2021-06-30T09:03:17Z</time>
      </trkpt>
      <trkpt lat="45.172543" lon="5.384995">
        <ele>222.09933</ele>
        <time>2021-06-30T09:03:18Z</time>
      </trkpt>
      <trkpt lat="45.172363" lon="5.384625">
        <ele>222.35703</ele>
        <time>2021-06-30T09:03:19Z</time>
      </trkpt>
      <trkpt lat="45.172188" lon="5.384263">
        <ele>222.58749</ele>
        <time>2021-06-30T09:03:20Z</time>
      </trkpt>
      <trkpt lat="45.172012" lon="5.383897">
        <ele>223.14462</ele>
        <time>2021-06-30T09:03:21Z</time>
      </trkpt>
      <trkpt lat="45.171844" lon="5.383525">
        <ele>223.72183</ele>
        <time>2021-06-30T09:03:22Z</time>
      </trkpt>
      <trkpt lat="45.171665" lon="5.383169">
        <ele>224.38406</ele>
        <time>2021-06-30T09:03:23Z</time>
      </trkpt>
      <trkpt lat="45.171486" lon="5.382791">
        <ele>224.48764</ele>
        <time>2021-06-30T09:03:24Z</time>
      </trkpt>
      <trkpt lat="45.171322" lon="5.382444">
        <ele>224.94949</ele>
        <time>2021-06-30T09:03:25Z</time>
      </trkpt>
      <trkpt lat="45.171158" lon="5.382091">
        <ele>226.00027</ele>
        <time>2021-06-30T09:03:26Z</time>
      </trkpt>
      <trkpt lat="45.170979" lon="5.381713">
        <ele>227.01639</ele>
        <time>2021-06-30T09:03:27Z</time>
      </trkpt>
      <trkpt lat="45.170803" lon="5.381345">
        <ele>228.08487</ele>
        <time>2021-06-30T09:03:28Z</time>
      </trkpt>
      <trkpt lat="45.170628" lon="5.380979">
        <ele>229.16129</ele>
        <time>2021-06-30T09:03:29Z</time>
      </trkpt>
      <trkpt lat="45.170448" lon="5.380618">
        <ele>229.78830</ele>
        <time>2021-06-30T09:03:30Z</time>
      </trkpt>
      <trkpt lat="45.170261" lon="5.380263">
        <ele>231.80612</ele>
        <time>2021-06-30T09:03:31Z</time>
      </trkpt>
      <trkpt lat="45.170074" lon="5.379919">
        <ele>232.55069</ele>
        <time>2021-06-30T09:03:32Z</time>
      </trkpt>
      <trkpt lat="45.169888" lon="5.379570">
        <ele>234.14243</ele>
        <time>2021-06-30T09:03:33Z</time>
      </trkpt>
      <trkpt lat="45.169708" lon="5.379238">
        <ele>236.11313</ele>
        <time>2021-06-30T09:03:34Z</time>
      </trkpt>
      <trkpt lat="45.169514" lon="5.378892">
        <ele>237.44858</ele>
        <time>2021-06-30T09:03:35Z</time>
      </trkpt>
      <trkpt lat="45.169319" lon="5.378556">
        <ele>238.56125</ele>
        <time>2021-06-30T09:03:36Z</time>
      </trkpt>
      <trkpt lat="45.169125" lon="5.378228">
        <ele>240.95139</ele>
        <time>2021-06-30T09:03:37Z</time>
      </trkpt>
      <trkpt lat="45.168922" lon="5.377892">
        <ele>242.78403</ele>
        <time>2021-06-30T09:03:38Z</time>
      </trkpt>
      <trkpt lat="45.168720" lon="5.377557">
        <ele>244.56760</ele>
        <time>2021-06-30T09:03:39Z</time>
      </trkpt>
      <trkpt lat="45.168522" lon="5.377231">
        <ele>245.94052</ele>
        <time>2021-06-30T09:03:40Z</time>
      </trkpt>
      <trkpt lat="45.168316" lon="5.376891">
        <ele>247.45175</ele>
        <time>2021-06-30T09:03:41Z</time>
      </trkpt>
      <trkpt lat="45.168118" lon="5.376561">
        <ele>249.18948</ele>
        <time>2021-06-30T09:03:42Z</time>
      </trkpt>
      <trkpt lat="45.167915" lon="5.376221">
        <ele>250.83908</ele>
        <time>2021-06-30T09:03:43Z</time>
      </trkpt>
      <trkpt lat="45.167709" lon="5.375883">
        <ele>252.47946</ele>
        <time>2021-06-30T09:03:44Z</time>
      </trkpt>
      <trkpt lat="45.167503" lon="5.375538">
        <ele>253.42014</ele>
        <time>2021-06-30T09:03:45Z</time>
      </trkpt>
      <trkpt lat="45.167301" lon="5.375197">
        <ele>254.39011</ele>
        <time>2021-06-30T09:03:46Z</time>
      </trkpt>
      <trkpt lat="45.167107" lon="5.374858">
        <ele>255.81296</ele>
        <time>2021-06-30T09:03:47Z</time>
      </trkpt>
      <trkpt lat="45.166901" lon="5.374497">
        <ele>256.91898</ele>
        <time>2021-06-30T09:03:48Z</time>
      </trkpt>
      <trkpt lat="45.166901" lon="5.374497">
        <ele>257.45883</ele>
        <time>2021-06-30T09:03:49Z</time>
      </trkpt>
      <trkpt lat="45.166702" lon="5.374138">
        <ele>258.75168</ele>
        <time>2021-06-30T09:03:50Z</time>
      </trkpt>
      <trkpt lat="45.166515" lon="5.373769">
        <ele>259.16434</ele>
        <time>2021-06-30T09:03:51Z</time>
      </trkpt>
      <trkpt lat="45.166332" lon="5.373411">
        <ele>259.87643</ele>
        <time>2021-06-30T09:03:52Z</time>
      </trkpt>
      <trkpt lat="45.166157" lon="5.373050">
        <ele>261.08859</ele>
        <time>2021-06-30T09:03:53Z</time>
      </trkpt>
      <trkpt lat="45.165989" lon="5.372689">
        <ele>261.61050</ele>
        <time>2021-06-30T09:03:54Z</time>
      </trkpt>
      <trkpt lat="45.165817" lon="5.372329">
        <ele>262.41525</ele>
        <time>2021-06-30T09:03:55Z</time>
      </trkpt>
      <trkpt lat="45.165646" lon="5.371966">
        <ele>262.62723</ele>
        <time>2021-06-30T09:03:56Z</time>
      </trkpt>
      <trkpt lat="45.165478" lon="5.371602">
        <ele>263.12863</ele>
        <time>2021-06-30T09:03:57Z</time>
      </trkpt>
      <trkpt lat="45.165302" lon="5.371236">
        <ele>262.81528</ele>
        <time>2021-06-30T09:03:58Z</time>
      </trkpt>
      <trkpt lat="45.165127" lon="5.370864">
        <ele>263.03574</ele>
        <time>2021-06-30T09:03:59Z</time>
      </trkpt>
      <trkpt lat="45.164955" lon="5.370505">
        <ele>262.44791</ele>
        <time>2021-06-30T09:04:00Z</time>
      </trkpt>
      <trkpt lat="45.164772" lon="5.370142">
        <ele>262.16757</ele>
        <time>2021-06-30T09:04:01Z</time>
      </trkpt>
      <trkpt lat="45.164585" lon="5.369778">
        <ele>262.57504</ele>
        <time>2021-06-30T09:04:02Z</time>
      </trkpt>
      <trkpt lat="45.164391" lon="5.369434">
        <ele>261.89328</ele>
        <time>2021-06-30T09:04:03Z</time>
      </trkpt>
      <trkpt lat="45.164196" lon="5.369085">
        <ele>261.47079</ele>
        <time>2021-06-30T09:04:04Z</time>
      </trkpt>
      <trkpt lat="45.164001" lon="5.368754">
        <ele>261.51132</ele>
        <time>2021-06-30T09:04:05Z</time>
      </trkpt>
      <trkpt lat="45.163795" lon="5.368417">
        <ele>261.17038</ele>
        <time>2021-06-30T09:04:06Z</time>
      </trkpt>
      <trkpt lat="45.163597" lon="5.368083">
        <ele>261.74338</ele>
        <time>2021-06-30T09:04:07Z</time>
      </trkpt>
      <trkpt lat="45.163391" lon="5.367751">
        <ele>261.36618</ele>
        <time>2021-06-30T09:04:08Z</time>
      </trkpt>
      <trkpt lat="45.163177" lon="5.367402">
        <ele>261.42508</ele>
        <time>2021-06-30T09:04:09Z</time>
      </trkpt>
      <trkpt lat="45.162979" lon="5.367076">
        <ele>261.28476</ele>
        <time>2021-06-30T09:04:10Z</time>
      </trkpt>
      <trkpt lat="45.162777" lon="5.366752">
        <ele>261.36118</ele>
        <time>2021-06-30T09:04:11Z</time>
      </trkpt>
      <trkpt lat="45.162579" lon="5.366425">
        <ele>261.33267</ele>
        <time>2021-06-30T09:04:12Z</time>
      </trkpt>
      <trkpt lat="45.162369" lon="5.366078">
        <ele>261.02634</ele>
        <time>2021-06-30T09:04:13Z</time>
      </trkpt>
      <trkpt lat="45.162178" lon="5.365761">
        <ele>261.26566</ele>
        <time>2021-06-30T09:04:14Z</time>
      </trkpt>
      <trkpt lat="45.161976" lon="5.365429">
        <ele>261.03928</ele>
        <time>2021-06-30T09:04:15Z</time>
      </trkpt>
      <trkpt lat="45.161766" lon="5.365082">
        <ele>260.58554</ele>
        <time>2021-06-30T09:04:16Z</time>
      </trkpt>
      <trkpt lat="45.161568" lon="5.364757">
        <ele>260.94370</ele>
        <time>2021-06-30T09:04:17Z</time>
      </trkpt>
      <trkpt lat="45.161362" lon="5.364418">
        <ele>260.84329</ele>
        <time>2021-06-30T09:04:18Z</time>
      </trkpt>
      <trkpt lat="45.161148" lon="5.364089">
        <ele>260.22311</ele>
        <time>2021-06-30T09:04:19Z</time>
      </trkpt>
      <trkpt lat="45.160938" lon="5.363773">
        <ele>260.48434</ele>
        <time>2021-06-30T09:04:20Z</time>
      </trkpt>
      <trkpt lat="45.160717" lon="5.363436">
        <ele>260.49460</ele>
        <time>2021-06-30T09:04:21Z</time>
      </trkpt>
      <trkpt lat="45.160503" lon="5.363139">
        <ele>260.41550</ele>
        <time>2021-06-30T09:04:22Z</time>
      </trkpt>
      <trkpt lat="45.160275" lon="5.362832">
        <ele>260.49045</ele>
        <time>2021-06-30T09:04:23Z</time>
      </trkpt>
      <trkpt lat="45.160046" lon="5.362541">
        <ele>260.54282</ele>
        <time>2021-06-30T09:04:24Z</time>
      </trkpt>
      <trkpt lat="45.159801" lon="5.362245">
        <ele>260.50546</ele>
        <time>2021-06-30T09:04:25Z</time>
      </trkpt>
      <trkpt lat="45.159565" lon="5.361960">
        <ele>259.97995</ele>
        <time>2021-06-30T09:04:26Z</time>
      </trkpt>
      <trkpt lat="45.159309" lon="5.361683">
        <ele>260.14322</ele>
        <time>2021-06-30T09:04:27Z</time>
      </trkpt>
      <trkpt lat="45.159073" lon="5.361426">
        <ele>260.12143</ele>
        <time>2021-06-30T09:04:28Z</time>
      </trkpt>
      <trkpt lat="45.158813" lon="5.361164">
        <ele>259.92685</ele>
        <time>2021-06-30T09:04:29Z</time>
      </trkpt>
      <trkpt lat="45.158585" lon="5.360935">
        <ele>260.25461</ele>
        <time>2021-06-30T09:04:30Z</time>
      </trkpt>
      <trkpt lat="45.158337" lon="5.360698">
        <ele>259.58249</ele>
        <time>2021-06-30T09:04:31Z</time>
      </trkpt>
      <trkpt lat="45.158089" lon="5.360469">
        <ele>259.09470</ele>
        <time>2021-06-30T09:04:32Z</time>
      </trkpt>
      <trkpt lat="45.157818" lon="5.360241">
        <ele>259.06039</ele>
        <time>2021-06-30T09:04:33Z</time>
      </trkpt>
      <trkpt lat="45.157818" lon="5.360241">
        <ele>258.46976</ele>
        <time>2021-06-30T09:04:34Z</time>
      </trkpt>
      <trkpt lat="45.157543" lon="5.360024">
        <ele>258.56491</ele>
        <time>2021-06-30T09:04:35Z</time>
      </trkpt>
      <trkpt lat="45.157269" lon="5.359819">
        <ele>258.70639</ele>
        <time>2021-06-30T09:04:36Z</time>
      </trkpt>
      <trkpt lat="45.157009" lon="5.359622">
        <ele>258.65598</ele>
        <time>2021-06-30T09:04:37Z</time>
      </trkpt>
      <trkpt lat="45.156727" lon="5.359418">
        <ele>257.91299</ele>
        <time>2021-06-30T09:04:38Z</time>
      </trkpt>
      <trkpt lat="45.156441" lon="5.359230">
        <ele>257.86154</ele>
        <time>2021-06-30T09:04:39Z</time>
      </trkpt>
      <trkpt lat="45.156151" lon="5.359041">
        <ele>257.81961</ele>
        <time>2021-06-30T09:04:40Z</time>
      </trkpt>
      <trkpt lat="45.155857" lon="5.358851">
        <ele>258.24692</ele>
        <time>2021-06-30T09:04:41Z</time>
      </trkpt>
      <trkpt lat="45.155563" lon="5.358663">
        <ele>257.87057</ele>
        <time>2021-06-30T09:04:42Z</time>
      </trkpt>
      <trkpt lat="45.155273" lon="5.358478">
        <ele>257.59079</ele>
        <time>2021-06-30T09:04:43Z</time>
      </trkpt>
      <trkpt lat="45.154980" lon="5.358291">
        <ele>257.45432</ele>
        <time>2021-06-30T09:04:44Z</time>
      </trkpt>
      <trkpt lat="45.154694" lon="5.358104">
        <ele>257.36740</ele>
        <time>2021-06-30T09:04:45Z</time>
      </trkpt>
      <trkpt lat="45.154408" lon="5.357911">
        <ele>257.12796</ele>
        <time>2021-06-30T09:04:46Z</time>
      </trkpt>
      <trkpt lat="45.154129" lon="5.357721">
        <ele>257.14529</ele>
        <time>2021-06-30T09:04:47Z</time>
      </trkpt>
      <trkpt lat="45.153854" lon="5.357524">
        <ele>256.97421</ele>
        <time>2021-06-30T09:04:48Z</time>
      </trkpt>
      <trkpt lat="45.153584" lon="5.357323">
        <ele>256.72519</ele>
        <time>2021-06-30T09:04:49Z</time>
      </trkpt>
      <trkpt lat="45.153301" lon="5.357097">
        <ele>256.86826</ele>
        <time>2021-06-30T09:04:50Z</time>
      </trkpt>
      <trkpt lat="45.153023" lon="5.356872">
        <ele>256.75278</ele>
        <time>2021-06-30T09:04:51Z</time>
      </trkpt>
      <trkpt lat="45.152744" lon="5.356632">
        <ele>256.75571</ele>
        <time>2021-06-30T09:04:52Z</time>
      </trkpt>
      <trkpt lat="45.152493" lon="5.356402">
        <ele>256.25180</ele>
        <time>2021-06-30T09:04:53Z</time>
      </trkpt>
      <trkpt lat="45.152233" lon="5.356154">
        <ele>256.23654</ele>
        <time>2021-06-30T09:04:54Z</time>
      </trkpt>
      <trkpt lat="45.151978" lon="5.355910">
        <ele>256.17239</ele>
        <time>2021-06-30T09:04:55Z</time>
      </trkpt>
      <trkpt lat="45.151714" lon="5.355636">
        <ele>255.52176</ele>
        <time>2021-06-30T09:04:56Z</time>
      </trkpt>
      <trkpt lat="45.151478" lon="5.355386">
        <ele>255.22787</ele>
        <time>2021-06-30T09:04:57Z</time>
      </trkpt>
      <trkpt lat="45.151234" lon="5.355118">
        <ele>255.01065</ele>
        <time>2021-06-30T09:04:58Z</time>
      </trkpt>
      <trkpt lat="45.150974" lon="5.354819">
        <ele>254.64279</ele>
        <time>2021-06-30T09:04:59Z</time>
      </trkpt>
      <trkpt lat="45.150745" lon="5.354541">
        <ele>254.69870</ele>
        <time>2021-06-30T09:05:00Z</time>
      </trkpt>
      <trkpt lat="45.150509" lon="5.354241">
        <ele>254.82297</ele>
        <time>2021-06-30T09:05:01Z</time>
      </trkpt>
      <trkpt lat="45.150269" lon="5.353930">
        <ele>254.70346</ele>
        <time>2021-06-30T09:05:02Z</time>
      </trkpt>
      <trkpt lat="45.150040" lon="5.353622">
        <ele>254.54721</ele>
        <time>2021-06-30T09:05:03Z</time>
      </trkpt>
      <trkpt lat="45.149807" lon="5.353304">
        <ele>255.04697</ele>
        <time>2021-06-30T09:05:04Z</time>
      </trkpt>
      <trkpt lat="45.149597" lon="5.352986">
        <ele>255.26413</ele>
        <time>2021-06-30T09:05:05Z</time>
      </trkpt>
      <trkpt lat="45.149387" lon="5.352660">
        <ele>254.87473</ele>
        <time>2021-06-30T09:05:06Z</time>
      </trkpt>
      <trkpt lat="45.149174" lon="5.352327">
        <ele>253.93137</ele>
        <time>2021-06-30T09:05:07Z</time>
      </trkpt>
      <trkpt lat="45.148979" lon="5.351993">
        <ele>252.75674</ele>
        <time>2021-06-30T09:05:08Z</time>
      </trkpt>
      <trkpt lat="45.148785" lon="5.351655">
        <ele>252.25839</ele>
        <time>2021-06-30T09:05:09Z</time>
      </trkpt>
      <trkpt lat="45.148785" lon="5.351655">
        <ele>252.13693</ele>
        <time>2021-06-30T09:05:10Z</time>
      </trkpt>
      <trkpt lat="45.148590" lon="5.351315">
        <ele>251.35812</ele>
        <time>2021-06-30T09:05:11Z</time>
      </trkpt>
      <trkpt lat="45.148392" lon="5.350975">
        <ele>250.76614</ele>
        <time>2021-06-30T09:05:12Z</time>
      </trkpt>
      <trkpt lat="45.148212" lon="5.350606">
        <ele>250.97568</ele>
        <time>2021-06-30T09:05:13Z</time>
      </trkpt>
      <trkpt lat="45.148029" lon="5.350246">
        <ele>251.01468</ele>
        <time>2021-06-30T09:05:14Z</time>
      </trkpt>
      <trkpt lat="45.147858" lon="5.349904">
        <ele>251.06955</ele>
        <time>2021-06-30T09:05:15Z</time>
      </trkpt>
      <trkpt lat="45.147701" lon="5.349538">
        <ele>251.03201</ele>
        <time>2021-06-30T09:05:16Z</time>
      </trkpt>
      <trkpt lat="45.147537" lon="5.349154">
        <ele>250.97897</ele>
        <time>2021-06-30T09:05:17Z</time>
      </trkpt>
      <trkpt lat="45.147373" lon="5.348777">
        <ele>250.90506</ele>
        <time>2021-06-30T09:05:18Z</time>
      </trkpt>
      <trkpt lat="45.147209" lon="5.348393">
        <ele>250.68271</ele>
        <time>2021-06-30T09:05:19Z</time>
      </trkpt>
      <trkpt lat="45.147041" lon="5.348005">
        <ele>250.42221</ele>
        <time>2021-06-30T09:05:20Z</time>
      </trkpt>
      <trkpt lat="45.146885" lon="5.347620">
        <ele>250.20145</ele>
        <time>2021-06-30T09:05:21Z</time>
      </trkpt>
      <trkpt lat="45.146732" lon="5.347230">
        <ele>250.18088</ele>
        <time>2021-06-30T09:05:22Z</time>
      </trkpt>
      <trkpt lat="45.146584" lon="5.346849">
        <ele>249.97250</ele>
        <time>2021-06-30T09:05:23Z</time>
      </trkpt>
      <trkpt lat="45.146427" lon="5.346452">
        <ele>249.63773</ele>
        <time>2021-06-30T09:05:24Z</time>
      </trkpt>
      <trkpt lat="45.146271" lon="5.346049">
        <ele>249.21176</ele>
        <time>2021-06-30T09:05:25Z</time>
      </trkpt>
      <trkpt lat="45.146114" lon="5.345652">
        <ele>248.57968</ele>
        <time>2021-06-30T09:05:26Z</time>
      </trkpt>
      <trkpt lat="45.145958" lon="5.345281">
        <ele>247.91342</ele>
        <time>2021-06-30T09:05:27Z</time>
      </trkpt>
      <trkpt lat="45.145775" lon="5.344896">
        <ele>247.91086</ele>
        <time>2021-06-30T09:05:28Z</time>
      </trkpt>
      <trkpt lat="45.145599" lon="5.344535">
        <ele>247.49802</ele>
        <time>2021-06-30T09:05:29Z</time>
      </trkpt>
      <trkpt lat="45.145420" lon="5.344162">
        <ele>247.01010</ele>
        <time>2021-06-30T09:05:30Z</time>
      </trkpt>
      <trkpt lat="45.145237" lon="5.343810">
        <ele>246.46005</ele>
        <time>2021-06-30T09:05:31Z</time>
      </trkpt>
      <trkpt lat="45.145054" lon="5.343464">
        <ele>246.19064</ele>
        <time>2021-06-30T09:05:32Z</time>
      </trkpt>
      <trkpt lat="45.144875" lon="5.343119">
        <ele>245.31259</ele>
        <time>2021-06-30T09:05:33Z</time>
      </trkpt>
      <trkpt lat="45.144684" lon="5.342809">
        <ele>244.73178</ele>
        <time>2021-06-30T09:05:34Z</time>
      </trkpt>
      <trkpt lat="45.144474" lon="5.342474">
        <ele>244.58316</ele>
        <time>2021-06-30T09:05:35Z</time>
      </trkpt>
      <trkpt lat="45.144257" lon="5.342126">
        <ele>244.83200</ele>
        <time>2021-06-30T09:05:36Z</time>
      </trkpt>
      <trkpt lat="45.144051" lon="5.341794">
        <ele>244.55978</ele>
        <time>2021-06-30T09:05:37Z</time>
      </trkpt>
      <trkpt lat="45.143841" lon="5.341474">
        <ele>244.54160</ele>
        <time>2021-06-30T09:05:38Z</time>
      </trkpt>
      <trkpt lat="45.143631" lon="5.341164">
        <ele>244.58109</ele>
        <time>2021-06-30T09:05:39Z</time>
      </trkpt>
      <trkpt lat="45.143406" lon="5.340836">
        <ele>244.43552</ele>
        <time>2021-06-30T09:05:40Z</time>
      </trkpt>
      <trkpt lat="45.143406" lon="5.340836">
        <ele>243.91037</ele>
        <time>2021-06-30T09:05:41Z</time>
      </trkpt>
      <trkpt lat="45.143188" lon="5.340515">
        <ele>243.58932</ele>
        <time>2021-06-30T09:05:42Z</time>
      </trkpt>
      <trkpt lat="45.142979" lon="5.340207">
        <ele>243.19772</ele>
        <time>2021-06-30T09:05:43Z</time>
      </trkpt>
      <trkpt lat="45.142776" lon="5.339911">
        <ele>243.13803</ele>
        <time>2021-06-30T09:05:44Z</time>
      </trkpt>
      <trkpt lat="45.142559" lon="5.339594">
        <ele>242.98318</ele>
        <time>2021-06-30T09:05:45Z</time>
      </trkpt>
      <trkpt lat="45.142334" lon="5.339261">
        <ele>241.67032</ele>
        <time>2021-06-30T09:05:46Z</time>
      </trkpt>
      <trkpt lat="45.142124" lon="5.338937">
        <ele>241.67221</ele>
        <time>2021-06-30T09:05:47Z</time>
      </trkpt>
      <trkpt lat="45.141930" lon="5.338626">
        <ele>240.89877</ele>
        <time>2021-06-30T09:05:48Z</time>
      </trkpt>
      <trkpt lat="45.141720" lon="5.338299">
        <ele>239.88644</ele>
        <time>2021-06-30T09:05:49Z</time>
      </trkpt>
      <trkpt lat="45.141521" lon="5.337965">
        <ele>239.10873</ele>
        <time>2021-06-30T09:05:50Z</time>
      </trkpt>
      <trkpt lat="45.141327" lon="5.337602">
        <ele>239.60019</ele>
        <time>2021-06-30T09:05:51Z</time>
      </trkpt>
      <trkpt lat="45.141129" lon="5.337237">
        <ele>239.04562</ele>
        <time>2021-06-30T09:05:52Z</time>
      </trkpt>
      <trkpt lat="45.140938" lon="5.336885">
        <ele>239.09262</ele>
        <time>2021-06-30T09:05:53Z</time>
      </trkpt>
      <trkpt lat="45.140751" lon="5.336514">
        <ele>239.42368</ele>
        <time>2021-06-30T09:05:54Z</time>
      </trkpt>
      <trkpt lat="45.140579" lon="5.336141">
        <ele>239.36240</ele>
        <time>2021-06-30T09:05:55Z</time>
      </trkpt>
      <trkpt lat="45.140404" lon="5.335757">
        <ele>239.45663</ele>
        <time>2021-06-30T09:05:56Z</time>
      </trkpt>
      <trkpt lat="45.140236" lon="5.335391">
        <ele>239.35446</ele>
        <time>2021-06-30T09:05:57Z</time>
      </trkpt>
      <trkpt lat="45.140060" lon="5.334984">
        <ele>238.86276</ele>
        <time>2021-06-30T09:05:58Z</time>
      </trkpt>
      <trkpt lat="45.139896" lon="5.334609">
        <ele>238.98666</ele>
        <time>2021-06-30T09:05:59Z</time>
      </trkpt>
      <trkpt lat="45.139740" lon="5.334225">
        <ele>238.88986</ele>
        <time>2021-06-30T09:06:00Z</time>
      </trkpt>
      <trkpt lat="45.139576" lon="5.333834">
        <ele>239.20981</ele>
        <time>2021-06-30T09:06:01Z</time>
      </trkpt>
      <trkpt lat="45.139423" lon="5.333464">
        <ele>239.01004</ele>
        <time>2021-06-30T09:06:02Z</time>
      </trkpt>
      <trkpt lat="45.139271" lon="5.333108">
        <ele>239.46140</ele>
        <time>2021-06-30T09:06:03Z</time>
      </trkpt>
      <trkpt lat="45.139107" lon="5.332723">
        <ele>239.97482</ele>
        <time>2021-06-30T09:06:04Z</time>
      </trkpt>
      <trkpt lat="45.138947" lon="5.332356">
        <ele>240.35336</ele>
        <time>2021-06-30T09:06:05Z</time>
      </trkpt>
      <trkpt lat="45.138798" lon="5.331983">
        <ele>241.24527</ele>
        <time>2021-06-30T09:06:06Z</time>
      </trkpt>
      <trkpt lat="45.138634" lon="5.331594">
        <ele>242.13828</ele>
        <time>2021-06-30T09:06:07Z</time>
      </trkpt>
      <trkpt lat="45.138477" lon="5.331221">
        <ele>243.38644</ele>
        <time>2021-06-30T09:06:08Z</time>
      </trkpt>
      <trkpt lat="45.138321" lon="5.330840">
        <ele>244.91660</ele>
        <time>2021-06-30T09:06:09Z</time>
      </trkpt>
      <trkpt lat="45.138161" lon="5.330455">
        <ele>246.15451</ele>
        <time>2021-06-30T09:06:10Z</time>
      </trkpt>
      <trkpt lat="45.138008" lon="5.330076">
        <ele>248.20444</ele>
        <time>2021-06-30T09:06:11Z</time>
      </trkpt>
      <trkpt lat="45.137863" lon="5.329722">
        <ele>249.28146</ele>
        <time>2021-06-30T09:06:12Z</time>
      </trkpt>
      <trkpt lat="45.137722" lon="5.329394">
        <ele>250.25369</ele>
        <time>2021-06-30T09:06:13Z</time>
      </trkpt>
      <trkpt lat="45.137581" lon="5.329060">
        <ele>251.28683</ele>
        <time>2021-06-30T09:06:14Z</time>
      </trkpt>
      <trkpt lat="45.137432" lon="5.328719">
        <ele>252.32339</ele>
        <time>2021-06-30T09:06:15Z</time>
      </trkpt>
      <trkpt lat="45.137295" lon="5.328401">
        <ele>253.44199</ele>
        <time>2021-06-30T09:06:16Z</time>
      </trkpt>
      <trkpt lat="45.137161" lon="5.328086">
        <ele>254.60562</ele>
        <time>2021-06-30T09:06:17Z</time>
      </trkpt>
      <trkpt lat="45.137035" lon="5.327791">
        <ele>255.72501</ele>
        <time>2021-06-30T09:06:18Z</time>
      </trkpt>
      <trkpt lat="45.137035" lon="5.327791">
        <ele>257.22452</ele>
        <time>2021-06-30T09:06:19Z</time>
      </trkpt>
      <trkpt lat="45.136921" lon="5.327523">
        <ele>258.46494</ele>
        <time>2021-06-30T09:06:20Z</time>
      </trkpt>
      <trkpt lat="45.136814" lon="5.327269">
        <ele>259.15952</ele>
        <time>2021-06-30T09:06:21Z</time>
      </trkpt>
      <trkpt lat="45.136715" lon="5.327024">
        <ele>250.46385</ele>
        <time>2021-06-30T09:06:22Z</time>
      </trkpt>
      <trkpt lat="45.136623" lon="5.326801">
        <ele>250.60345</ele>
        <time>2021-06-30T09:06:23Z</time>
      </trkpt>
      <trkpt lat="45.136539" lon="5.326598">
        <ele>251.13135</ele>
        <time>2021-06-30T09:06:24Z</time>
      </trkpt>
      <trkpt lat="45.136448" lon="5.326411">
        <ele>251.26830</ele>
        <time>2021-06-30T09:06:25Z</time>
      </trkpt>
      <trkpt lat="45.136379" lon="5.326249">
        <ele>251.78914</ele>
        <time>2021-06-30T09:06:26Z</time>
      </trkpt>
      <trkpt lat="45.136497" lon="5.325994">
        <ele>252.18379</ele>
        <time>2021-06-30T09:06:27Z</time>
      </trkpt>
      <trkpt lat="45.136517" lon="5.325819">
        <ele>252.46266</ele>
        <time>2021-06-30T09:06:28Z</time>
      </trkpt>
      <trkpt lat="45.136566" lon="5.325660">
        <ele>252.65056</ele>
        <time>2021-06-30T09:06:29Z</time>
      </trkpt>
      <trkpt lat="45.136635" lon="5.325512">
        <ele>252.54578</ele>
        <time>2021-06-30T09:06:30Z</time>
      </trkpt>
      <trkpt lat="45.136726" lon="5.325390">
        <ele>252.37764</ele>
        <time>2021-06-30T09:06:31Z</time>
      </trkpt>
      <trkpt lat="45.136848" lon="5.325300">
        <ele>252.44057</ele>
        <time>2021-06-30T09:06:32Z</time>
      </trkpt>
      <trkpt lat="45.136978" lon="5.325260">
        <ele>252.57112</ele>
        <time>2021-06-30T09:06:33Z</time>
      </trkpt>
      <trkpt lat="45.137108" lon="5.325248">
        <ele>251.87372</ele>
        <time>2021-06-30T09:06:34Z</time>
      </trkpt>
      <trkpt lat="45.137226" lon="5.325281">
        <ele>251.53017</ele>
        <time>2021-06-30T09:06:35Z</time>
      </trkpt>
      <trkpt lat="45.137325" lon="5.325328">
        <ele>251.40564</ele>
        <time>2021-06-30T09:06:36Z</time>
      </trkpt>
      <trkpt lat="45.137417" lon="5.325377">
        <ele>251.03813</ele>
        <time>2021-06-30T09:06:37Z</time>
      </trkpt>
      <trkpt lat="45.137493" lon="5.325433">
        <ele>257.43771</ele>
        <time>2021-06-30T09:06:38Z</time>
      </trkpt>
      <trkpt lat="45.137550" lon="5.325476">
        <ele>258.66525</ele>
        <time>2021-06-30T09:06:39Z</time>
      </trkpt>
      <trkpt lat="45.137600" lon="5.325515">
        <ele>250.71213</ele>
        <time>2021-06-30T09:06:40Z</time>
      </trkpt>
      <trkpt lat="45.137638" lon="5.325552">
        <ele>250.49864</ele>
        <time>2021-06-30T09:06:41Z</time>
      </trkpt>
      <trkpt lat="45.137691" lon="5.325606">
        <ele>250.47629</ele>
        <time>2021-06-30T09:06:42Z</time>
      </trkpt>
      <trkpt lat="45.137718" lon="5.325632">
        <ele>250.46333</ele>
        <time>2021-06-30T09:06:43Z</time>
      </trkpt>
      <trkpt lat="45.137745" lon="5.325660">
        <ele>250.32579</ele>
        <time>2021-06-30T09:06:44Z</time>
      </trkpt>
      <trkpt lat="45.137764" lon="5.325678">
        <ele>250.34360</ele>
        <time>2021-06-30T09:06:45Z</time>
      </trkpt>
      <trkpt lat="45.137787" lon="5.325701">
        <ele>250.34557</ele>
        <time>2021-06-30T09:06:46Z</time>
      </trkpt>
      <trkpt lat="45.137810" lon="5.325722">
        <ele>250.46634</ele>
        <time>2021-06-30T09:06:47Z</time>
      </trkpt>
      <trkpt lat="45.137829" lon="5.325740">
        <ele>250.46965</ele>
        <time>2021-06-30T09:06:48Z</time>
      </trkpt>
      <trkpt lat="45.137848" lon="5.325761">
        <ele>250.46150</ele>
        <time>2021-06-30T09:06:49Z</time>
      </trkpt>
      <trkpt lat="45.137863" lon="5.325777">
        <ele>250.56245</ele>
        <time>2021-06-30T09:06:50Z</time>
      </trkpt>
      <trkpt lat="45.137878" lon="5.325790">
        <ele>250.52832</ele>
        <time>2021-06-30T09:06:51Z</time>
      </trkpt>
      <trkpt lat="45.137897" lon="5.325808">
        <ele>250.59100</ele>
        <time>2021-06-30T09:06:52Z</time>
      </trkpt>
      <trkpt lat="45.137924" lon="5.325838">
        <ele>250.58896</ele>
        <time>2021-06-30T09:06:53Z</time>
      </trkpt>
      <trkpt lat="45.137970" lon="5.325882">
        <ele>251.04427</ele>
        <time>2021-06-30T09:06:54Z</time>
      </trkpt>
      <trkpt lat="45.138000" lon="5.325910">
        <ele>251.37082</ele>
        <time>2021-06-30T09:06:55Z</time>
      </trkpt>
      <trkpt lat="45.138000" lon="5.325910">
        <ele>251.70360</ele>
        <time>2021-06-30T09:06:56Z</time>
      </trkpt>
      <trkpt lat="45.138023" lon="5.325933">
        <ele>252.17018</ele>
        <time>2021-06-30T09:06:57Z</time>
      </trkpt>
      <trkpt lat="45.138054" lon="5.325963">
        <ele>252.54840</ele>
        <time>2021-06-30T09:06:58Z</time>
      </trkpt>
      <trkpt lat="45.138084" lon="5.325996">
        <ele>252.57458</ele>
        <time>2021-06-30T09:06:59Z</time>
      </trkpt>
      <trkpt lat="45.138107" lon="5.326019">
        <ele>252.95064</ele>
        <time>2021-06-30T09:07:00Z</time>
      </trkpt>
      <trkpt lat="45.138134" lon="5.326043">
        <ele>253.26976</ele>
        <time>2021-06-30T09:07:01Z</time>
      </trkpt>
      <trkpt lat="45.138157" lon="5.326065">
        <ele>253.49635</ele>
        <time>2021-06-30T09:07:02Z</time>
      </trkpt>
      <trkpt lat="45.138180" lon="5.326088">
        <ele>253.77922</ele>
        <time>2021-06-30T09:07:03Z</time>
      </trkpt>
      <trkpt lat="45.138206" lon="5.326111">
        <ele>254.05289</ele>
        <time>2021-06-30T09:07:04Z</time>
      </trkpt>
      <trkpt lat="45.138222" lon="5.326127">
        <ele>254.20782</ele>
        <time>2021-06-30T09:07:05Z</time>
      </trkpt>
      <trkpt lat="45.138233" lon="5.326136">
        <ele>254.53438</ele>
        <time>2021-06-30T09:07:06Z</time>
      </trkpt>
      <trkpt lat="45.138237" lon="5.326142">
        <ele>254.67159</ele>
        <time>2021-06-30T09:07:07Z</time>
      </trkpt>
      <trkpt lat="45.138245" lon="5.326148">
        <ele>254.96172</ele>
        <time>2021-06-30T09:07:08Z</time>
      </trkpt>
      <trkpt lat="45.138252" lon="5.326157">
        <ele>255.00844</ele>
        <time>2021-06-30T09:07:09Z</time>
      </trkpt>
      <trkpt lat="45.138264" lon="5.326165">
        <ele>255.08096</ele>
        <time>2021-06-30T09:07:10Z</time>
      </trkpt>
      <trkpt lat="45.138268" lon="5.326172">
        <ele>255.06369</ele>
        <time>2021-06-30T09:07:11Z</time>
      </trkpt>
      <trkpt lat="45.138271" lon="5.326176">
        <ele>255.14478</ele>
        <time>2021-06-30T09:07:12Z</time>
      </trkpt>
      <trkpt lat="45.138283" lon="5.326186">
        <ele>255.08110</ele>
        <time>2021-06-30T09:07:13Z</time>
      </trkpt>
      <trkpt lat="45.138287" lon="5.326186">
        <ele>255.09096</ele>
        <time>2021-06-30T09:07:14Z</time>
      </trkpt>
      <trkpt lat="45.138287" lon="5.326186">
        <ele>255.08305</ele>
        <time>2021-06-30T09:07:15Z</time>
      </trkpt>
      <trkpt lat="45.138287" lon="5.326188">
        <ele>255.02969</ele>
        <time>2021-06-30T09:07:16Z</time>
      </trkpt>
      <trkpt lat="45.138309" lon="5.326210">
        <ele>254.98189</ele>
        <time>2021-06-30T09:07:17Z</time>
      </trkpt>
      <trkpt lat="45.138309" lon="5.326211">
        <ele>254.96881</ele>
        <time>2021-06-30T09:07:18Z</time>
      </trkpt>
      <trkpt lat="45.138309" lon="5.326211">
        <ele>254.92293</ele>
        <time>2021-06-30T09:07:19Z</time>
      </trkpt>
      <trkpt lat="45.138309" lon="5.326211">
        <ele>254.85287</ele>
        <time>2021-06-30T09:07:20Z</time>
      </trkpt>
      <trkpt lat="45.138313" lon="5.326215">
        <ele>255.31822</ele>
        <time>2021-06-30T09:07:21Z</time>
      </trkpt>
      <trkpt lat="45.138359" lon="5.326255">
        <ele>255.43327</ele>
        <time>2021-06-30T09:07:22Z</time>
      </trkpt>
      <trkpt lat="45.138359" lon="5.326255">
        <ele>256.33792</ele>
        <time>2021-06-30T09:07:23Z</time>
      </trkpt>
      <trkpt lat="45.138462" lon="5.326352">
        <ele>256.78604</ele>
        <time>2021-06-30T09:07:24Z</time>
      </trkpt>
      <trkpt lat="45.138592" lon="5.326474">
        <ele>256.88541</ele>
        <time>2021-06-30T09:07:25Z</time>
      </trkpt>
      <trkpt lat="45.138714" lon="5.326594">
        <ele>257.14175</ele>
        <time>2021-06-30T09:07:26Z</time>
      </trkpt>
      <trkpt lat="45.138847" lon="5.326718">
        <ele>256.26544</ele>
        <time>2021-06-30T09:07:27Z</time>
      </trkpt>
      <trkpt lat="45.138947" lon="5.326815">
        <ele>256.19186</ele>
        <time>2021-06-30T09:07:28Z</time>
      </trkpt>
      <trkpt lat="45.139023" lon="5.326886">
        <ele>255.96704</ele>
        <time>2021-06-30T09:07:29Z</time>
      </trkpt>
      <trkpt lat="45.139095" lon="5.326957">
        <ele>255.70778</ele>
        <time>2021-06-30T09:07:30Z</time>
      </trkpt>
      <trkpt lat="45.139156" lon="5.327027">
        <ele>255.74455</ele>
        <time>2021-06-30T09:07:31Z</time>
      </trkpt>
      <trkpt lat="45.139202" lon="5.327081">
        <ele>256.01736</ele>
        <time>2021-06-30T09:07:32Z</time>
      </trkpt>
      <trkpt lat="45.139252" lon="5.327144">
        <ele>256.27728</ele>
        <time>2021-06-30T09:07:33Z</time>
      </trkpt>
      <trkpt lat="45.139309" lon="5.327236">
        <ele>256.77637</ele>
        <time>2021-06-30T09:07:34Z</time>
      </trkpt>
      <trkpt lat="45.139317" lon="5.327372">
        <ele>256.79468</ele>
        <time>2021-06-30T09:07:35Z</time>
      </trkpt>
      <trkpt lat="45.139366" lon="5.327514">
        <ele>256.50113</ele>
        <time>2021-06-30T09:07:36Z</time>
      </trkpt>
      <trkpt lat="45.139435" lon="5.327582">
        <ele>263.52090</ele>
        <time>2021-06-30T09:07:37Z</time>
      </trkpt>
      <trkpt lat="45.139500" lon="5.327595">
        <ele>264.45120</ele>
        <time>2021-06-30T09:07:38Z</time>
      </trkpt>
      <trkpt lat="45.139584" lon="5.327575">
        <ele>264.61301</ele>
        <time>2021-06-30T09:07:39Z</time>
      </trkpt>
      <trkpt lat="45.139679" lon="5.327472">
        <ele>264.94406</ele>
        <time>2021-06-30T09:07:40Z</time>
      </trkpt>
      <trkpt lat="45.139713" lon="5.327350">
        <ele>256.42935</ele>
        <time>2021-06-30T09:07:41Z</time>
      </trkpt>
      <trkpt lat="45.139721" lon="5.327246">
        <ele>256.65561</ele>
        <time>2021-06-30T09:07:42Z</time>
      </trkpt>
      <trkpt lat="45.139706" lon="5.327154">
        <ele>257.17084</ele>
        <time>2021-06-30T09:07:43Z</time>
      </trkpt>
      <trkpt lat="45.139706" lon="5.327154">
        <ele>257.63394</ele>
        <time>2021-06-30T09:07:44Z</time>
      </trkpt>
      <trkpt lat="45.139717" lon="5.327117">
        <ele>258.07748</ele>
        <time>2021-06-30T09:07:45Z</time>
      </trkpt>
      <trkpt lat="45.139954" lon="5.326637">
        <ele>258.83417</ele>
        <time>2021-06-30T09:07:46Z</time>
      </trkpt>
      <trkpt lat="45.140057" lon="5.326455">
        <ele>259.21198</ele>
        <time>2021-06-30T09:07:47Z</time>
      </trkpt>
      <trkpt lat="45.140152" lon="5.326294">
        <ele>259.31726</ele>
        <time>2021-06-30T09:07:48Z</time>
      </trkpt>
      <trkpt lat="45.140228" lon="5.326162">
        <ele>259.68622</ele>
        <time>2021-06-30T09:07:49Z</time>
      </trkpt>
      <trkpt lat="45.140301" lon="5.326037">
        <ele>260.34460</ele>
        <time>2021-06-30T09:07:50Z</time>
      </trkpt>
      <trkpt lat="45.140369" lon="5.325914">
        <ele>261.02197</ele>
        <time>2021-06-30T09:07:51Z</time>
      </trkpt>
      <trkpt lat="45.140450" lon="5.325768">
        <ele>262.04892</ele>
        <time>2021-06-30T09:07:52Z</time>
      </trkpt>
      <trkpt lat="45.140450" lon="5.325768">
        <ele>262.52283</ele>
        <time>2021-06-30T09:07:53Z</time>
      </trkpt>
      <trkpt lat="45.140507" lon="5.325703">
        <ele>263.96329</ele>
        <time>2021-06-30T09:07:54Z</time>
      </trkpt>
      <trkpt lat="45.140846" lon="5.325459">
        <ele>265.08353</ele>
        <time>2021-06-30T09:07:55Z</time>
      </trkpt>
      <trkpt lat="45.140965" lon="5.325458">
        <ele>267.10037</ele>
        <time>2021-06-30T09:07:56Z</time>
      </trkpt>
      <trkpt lat="45.141178" lon="5.325549">
        <ele>269.90445</ele>
        <time>2021-06-30T09:07:57Z</time>
      </trkpt>
      <trkpt lat="45.141396" lon="5.325684">
        <ele>270.54245</ele>
        <time>2021-06-30T09:07:58Z</time>
      </trkpt>
      <trkpt lat="45.141697" lon="5.325872">
        <ele>271.57779</ele>
        <time>2021-06-30T09:07:59Z</time>
      </trkpt>
      <trkpt lat="45.141914" lon="5.326005">
        <ele>271.80618</ele>
        <time>2021-06-30T09:08:00Z</time>
      </trkpt>
      <trkpt lat="45.141914" lon="5.326005">
        <ele>272.96054</ele>
        <time>2021-06-30T09:08:01Z</time>
      </trkpt>
      <trkpt lat="45.142105" lon="5.326126">
        <ele>271.03107</ele>
        <time>2021-06-30T09:08:02Z</time>
      </trkpt>
      <trkpt lat="45.142265" lon="5.326224">
        <ele>270.79910</ele>
        <time>2021-06-30T09:08:03Z</time>
      </trkpt>
      <trkpt lat="45.142410" lon="5.326315">
        <ele>270.90353</ele>
        <time>2021-06-30T09:08:04Z</time>
      </trkpt>
      <trkpt lat="45.142548" lon="5.326400">
        <ele>270.95569</ele>
        <time>2021-06-30T09:08:05Z</time>
      </trkpt>
      <trkpt lat="45.142677" lon="5.326482">
        <ele>270.90634</ele>
        <time>2021-06-30T09:08:06Z</time>
      </trkpt>
      <trkpt lat="45.142792" lon="5.326552">
        <ele>270.99860</ele>
        <time>2021-06-30T09:08:07Z</time>
      </trkpt>
      <trkpt lat="45.142899" lon="5.326620">
        <ele>271.26889</ele>
        <time>2021-06-30T09:08:08Z</time>
      </trkpt>
      <trkpt lat="45.143005" lon="5.326687">
        <ele>271.79959</ele>
        <time>2021-06-30T09:08:09Z</time>
      </trkpt>
      <trkpt lat="45.143116" lon="5.326757">
        <ele>272.42090</ele>
        <time>2021-06-30T09:08:10Z</time>
      </trkpt>
      <trkpt lat="45.143227" lon="5.326834">
        <ele>273.25522</ele>
        <time>2021-06-30T09:08:11Z</time>
      </trkpt>
      <trkpt lat="45.143345" lon="5.326906">
        <ele>273.36636</ele>
        <time>2021-06-30T09:08:12Z</time>
      </trkpt>
      <trkpt lat="45.143471" lon="5.326981">
        <ele>273.80505</ele>
        <time>2021-06-30T09:08:13Z</time>
      </trkpt>
      <trkpt lat="45.143593" lon="5.327020">
        <ele>274.17572</ele>
        <time>2021-06-30T09:08:14Z</time>
      </trkpt>
      <trkpt lat="45.143700" lon="5.327037">
        <ele>274.97461</ele>
        <time>2021-06-30T09:08:15Z</time>
      </trkpt>
      <trkpt lat="45.143822" lon="5.327028">
        <ele>275.78851</ele>
        <time>2021-06-30T09:08:16Z</time>
      </trkpt>
      <trkpt lat="45.143929" lon="5.326996">
        <ele>276.70334</ele>
        <time>2021-06-30T09:08:17Z</time>
      </trkpt>
      <trkpt lat="45.143929" lon="5.326996">
        <ele>276.71381</ele>
        <time>2021-06-30T09:08:18Z</time>
      </trkpt>
      <trkpt lat="45.143929" lon="5.326996">
        <ele>277.71509</ele>
        <time>2021-06-30T09:08:19Z</time>
      </trkpt>
      <trkpt lat="45.144230" lon="5.326899">
        <ele>278.30902</ele>
        <time>2021-06-30T09:08:20Z</time>
      </trkpt>
      <trkpt lat="45.144436" lon="5.326823">
        <ele>278.32324</ele>
        <time>2021-06-30T09:08:21Z</time>
      </trkpt>
      <trkpt lat="45.144566" lon="5.326765">
        <ele>278.13010</ele>
        <time>2021-06-30T09:08:22Z</time>
      </trkpt>
      <trkpt lat="45.144634" lon="5.326735">
        <ele>278.16733</ele>
        <time>2021-06-30T09:08:23Z</time>
      </trkpt>
      <trkpt lat="45.144760" lon="5.326678">
        <ele>278.03012</ele>
        <time>2021-06-30T09:08:24Z</time>
      </trkpt>
      <trkpt lat="45.144833" lon="5.326647">
        <ele>278.11945</ele>
        <time>2021-06-30T09:08:25Z</time>
      </trkpt>
      <trkpt lat="45.144913" lon="5.326613">
        <ele>278.13669</ele>
        <time>2021-06-30T09:08:26Z</time>
      </trkpt>
      <trkpt lat="45.144997" lon="5.326579">
        <ele>278.35818</ele>
        <time>2021-06-30T09:08:27Z</time>
      </trkpt>
      <trkpt lat="45.145073" lon="5.326547">
        <ele>278.24442</ele>
        <time>2021-06-30T09:08:28Z</time>
      </trkpt>
      <trkpt lat="45.145142" lon="5.326523">
        <ele>278.26553</ele>
        <time>2021-06-30T09:08:29Z</time>
      </trkpt>
      <trkpt lat="45.145206" lon="5.326499">
        <ele>278.19516</ele>
        <time>2021-06-30T09:08:30Z</time>
      </trkpt>
      <trkpt lat="45.145283" lon="5.326473">
        <ele>278.01019</ele>
        <time>2021-06-30T09:08:31Z</time>
      </trkpt>
      <trkpt lat="45.145363" lon="5.326444">
        <ele>278.26697</ele>
        <time>2021-06-30T09:08:32Z</time>
      </trkpt>
      <trkpt lat="45.145439" lon="5.326416">
        <ele>278.23276</ele>
        <time>2021-06-30T09:08:33Z</time>
      </trkpt>
      <trkpt lat="45.145515" lon="5.326388">
        <ele>278.60712</ele>
        <time>2021-06-30T09:08:34Z</time>
      </trkpt>
      <trkpt lat="45.145611" lon="5.326355">
        <ele>278.82257</ele>
        <time>2021-06-30T09:08:35Z</time>
      </trkpt>
      <trkpt lat="45.145706" lon="5.326320">
        <ele>278.79858</ele>
        <time>2021-06-30T09:08:36Z</time>
      </trkpt>
      <trkpt lat="45.145805" lon="5.326284">
        <ele>278.72595</ele>
        <time>2021-06-30T09:08:37Z</time>
      </trkpt>
      <trkpt lat="45.145889" lon="5.326284">
        <ele>279.10962</ele>
        <time>2021-06-30T09:08:38Z</time>
      </trkpt>
      <trkpt lat="45.145962" lon="5.326265">
        <ele>279.71851</ele>
        <time>2021-06-30T09:08:39Z</time>
      </trkpt>
      <trkpt lat="45.146046" lon="5.326214">
        <ele>279.13226</ele>
        <time>2021-06-30T09:08:40Z</time>
      </trkpt>
      <trkpt lat="45.146130" lon="5.326123">
        <ele>279.12738</ele>
        <time>2021-06-30T09:08:41Z</time>
      </trkpt>
      <trkpt lat="45.146194" lon="5.326037">
        <ele>279.55374</ele>
        <time>2021-06-30T09:08:42Z</time>
      </trkpt>
      <trkpt lat="45.146263" lon="5.325880">
        <ele>279.33514</ele>
        <time>2021-06-30T09:08:43Z</time>
      </trkpt>
      <trkpt lat="45.146263" lon="5.325878">
        <ele>279.87762</ele>
        <time>2021-06-30T09:08:44Z</time>
      </trkpt>
      <trkpt lat="45.146263" lon="5.325878">
        <ele>279.82953</ele>
        <time>2021-06-30T09:08:45Z</time>
      </trkpt>
      <trkpt lat="45.146267" lon="5.325877">
        <ele>279.54599</ele>
        <time>2021-06-30T09:08:46Z</time>
      </trkpt>
      <trkpt lat="45.146339" lon="5.325729">
        <ele>279.51926</ele>
        <time>2021-06-30T09:08:47Z</time>
      </trkpt>
      <trkpt lat="45.146511" lon="5.325384">
        <ele>279.47614</ele>
        <time>2021-06-30T09:08:48Z</time>
      </trkpt>
      <trkpt lat="45.146564" lon="5.325275">
        <ele>279.45508</ele>
        <time>2021-06-30T09:08:49Z</time>
      </trkpt>
      <trkpt lat="45.146626" lon="5.325153">
        <ele>279.31876</ele>
        <time>2021-06-30T09:08:50Z</time>
      </trkpt>
      <trkpt lat="45.146679" lon="5.325038">
        <ele>279.63046</ele>
        <time>2021-06-30T09:08:51Z</time>
      </trkpt>
      <trkpt lat="45.146740" lon="5.324915">
        <ele>279.64865</ele>
        <time>2021-06-30T09:08:52Z</time>
      </trkpt>
      <trkpt lat="45.146801" lon="5.324793">
        <ele>279.56128</ele>
        <time>2021-06-30T09:08:53Z</time>
      </trkpt>
      <trkpt lat="45.146858" lon="5.324674">
        <ele>279.41888</ele>
        <time>2021-06-30T09:08:54Z</time>
      </trkpt>
      <trkpt lat="45.146908" lon="5.324574">
        <ele>279.34955</ele>
        <time>2021-06-30T09:08:55Z</time>
      </trkpt>
      <trkpt lat="45.146957" lon="5.324469">
        <ele>279.35434</ele>
        <time>2021-06-30T09:08:56Z</time>
      </trkpt>
      <trkpt lat="45.147007" lon="5.324357">
        <ele>279.28445</ele>
        <time>2021-06-30T09:08:57Z</time>
      </trkpt>
      <trkpt lat="45.147057" lon="5.324247">
        <ele>279.44122</ele>
        <time>2021-06-30T09:08:58Z</time>
      </trkpt>
      <trkpt lat="45.147095" lon="5.324120">
        <ele>279.73880</ele>
        <time>2021-06-30T09:08:59Z</time>
      </trkpt>
      <trkpt lat="45.147163" lon="5.324016">
        <ele>279.78986</ele>
        <time>2021-06-30T09:09:00Z</time>
      </trkpt>
      <trkpt lat="45.147243" lon="5.323902">
        <ele>280.08881</ele>
        <time>2021-06-30T09:09:01Z</time>
      </trkpt>
      <trkpt lat="45.147327" lon="5.323784">
        <ele>280.39838</ele>
        <time>2021-06-30T09:09:02Z</time>
      </trkpt>
      <trkpt lat="45.147411" lon="5.323666">
        <ele>280.11563</ele>
        <time>2021-06-30T09:09:03Z</time>
      </trkpt>
      <trkpt lat="45.147503" lon="5.323538">
        <ele>280.22668</ele>
        <time>2021-06-30T09:09:04Z</time>
      </trkpt>
      <trkpt lat="45.147572" lon="5.323443">
        <ele>280.40979</ele>
        <time>2021-06-30T09:09:05Z</time>
      </trkpt>
      <trkpt lat="45.147636" lon="5.323331">
        <ele>280.44394</ele>
        <time>2021-06-30T09:09:06Z</time>
      </trkpt>
      <trkpt lat="45.147713" lon="5.323222">
        <ele>280.46838</ele>
        <time>2021-06-30T09:09:07Z</time>
      </trkpt>
      <trkpt lat="45.147793" lon="5.323107">
        <ele>280.38968</ele>
        <time>2021-06-30T09:09:08Z</time>
      </trkpt>
      <trkpt lat="45.147869" lon="5.322992">
        <ele>280.47018</ele>
        <time>2021-06-30T09:09:09Z</time>
      </trkpt>
      <trkpt lat="45.147949" lon="5.322881">
        <ele>280.26950</ele>
        <time>2021-06-30T09:09:10Z</time>
      </trkpt>
      <trkpt lat="45.148026" lon="5.322771">
        <ele>280.29370</ele>
        <time>2021-06-30T09:09:11Z</time>
      </trkpt>
      <trkpt lat="45.148109" lon="5.322649">
        <ele>280.52487</ele>
        <time>2021-06-30T09:09:12Z</time>
      </trkpt>
      <trkpt lat="45.148186" lon="5.322537">
        <ele>280.53333</ele>
        <time>2021-06-30T09:09:13Z</time>
      </trkpt>
      <trkpt lat="45.148266" lon="5.322411">
        <ele>280.72449</ele>
        <time>2021-06-30T09:09:14Z</time>
      </trkpt>
      <trkpt lat="45.148350" lon="5.322269">
        <ele>280.73169</ele>
        <time>2021-06-30T09:09:15Z</time>
      </trkpt>
      <trkpt lat="45.148434" lon="5.322114">
        <ele>280.68750</ele>
        <time>2021-06-30T09:09:16Z</time>
      </trkpt>
      <trkpt lat="45.148502" lon="5.321971">
        <ele>280.80780</ele>
        <time>2021-06-30T09:09:17Z</time>
      </trkpt>
      <trkpt lat="45.148571" lon="5.321838">
        <ele>280.71689</ele>
        <time>2021-06-30T09:09:18Z</time>
      </trkpt>
      <trkpt lat="45.148636" lon="5.321710">
        <ele>280.55069</ele>
        <time>2021-06-30T09:09:19Z</time>
      </trkpt>
      <trkpt lat="45.148689" lon="5.321582">
        <ele>280.31174</ele>
        <time>2021-06-30T09:09:20Z</time>
      </trkpt>
      <trkpt lat="45.148746" lon="5.321450">
        <ele>280.33264</ele>
        <time>2021-06-30T09:09:21Z</time>
      </trkpt>
      <trkpt lat="45.148746" lon="5.321450">
        <ele>280.20221</ele>
        <time>2021-06-30T09:09:22Z</time>
      </trkpt>
      <trkpt lat="45.148804" lon="5.321317">
        <ele>280.12271</ele>
        <time>2021-06-30T09:09:23Z</time>
      </trkpt>
      <trkpt lat="45.148857" lon="5.321188">
        <ele>280.02750</ele>
        <time>2021-06-30T09:09:24Z</time>
      </trkpt>
      <trkpt lat="45.148907" lon="5.321081">
        <ele>280.76636</ele>
        <time>2021-06-30T09:09:25Z</time>
      </trkpt>
      <trkpt lat="45.148952" lon="5.320976">
        <ele>280.85846</ele>
        <time>2021-06-30T09:09:26Z</time>
      </trkpt>
      <trkpt lat="45.149002" lon="5.320812">
        <ele>281.10468</ele>
        <time>2021-06-30T09:09:27Z</time>
      </trkpt>
      <trkpt lat="45.149036" lon="5.320605">
        <ele>281.79309</ele>
        <time>2021-06-30T09:09:28Z</time>
      </trkpt>
      <trkpt lat="45.149014" lon="5.320386">
        <ele>281.53943</ele>
        <time>2021-06-30T09:09:29Z</time>
      </trkpt>
      <trkpt lat="45.148968" lon="5.320189">
        <ele>281.48508</ele>
        <time>2021-06-30T09:09:30Z</time>
      </trkpt>
      <trkpt lat="45.148922" lon="5.320017">
        <ele>281.35471</ele>
        <time>2021-06-30T09:09:31Z</time>
      </trkpt>
      <trkpt lat="45.148884" lon="5.319843">
        <ele>281.46289</ele>
        <time>2021-06-30T09:09:32Z</time>
      </trkpt>
      <trkpt lat="45.148808" lon="5.319688">
        <ele>281.73474</ele>
        <time>2021-06-30T09:09:33Z</time>
      </trkpt>
      <trkpt lat="45.148739" lon="5.319545">
        <ele>281.54807</ele>
        <time>2021-06-30T09:09:34Z</time>
      </trkpt>
      <trkpt lat="45.148655" lon="5.319428">
        <ele>281.52054</ele>
        <time>2021-06-30T09:09:35Z</time>
      </trkpt>
      <trkpt lat="45.148537" lon="5.319312">
        <ele>281.58380</ele>
        <time>2021-06-30T09:09:36Z</time>
      </trkpt>
      <trkpt lat="45.148403" lon="5.319199">
        <ele>281.65146</ele>
        <time>2021-06-30T09:09:37Z</time>
      </trkpt>
      <trkpt lat="45.148266" lon="5.319088">
        <ele>282.58420</ele>
        <time>2021-06-30T09:09:38Z</time>
      </trkpt>
      <trkpt lat="45.148125" lon="5.319016">
        <ele>283.02759</ele>
        <time>2021-06-30T09:09:39Z</time>
      </trkpt>
      <trkpt lat="45.148033" lon="5.318897">
        <ele>283.61148</ele>
        <time>2021-06-30T09:09:40Z</time>
      </trkpt>
      <trkpt lat="45.147972" lon="5.318730">
        <ele>284.26105</ele>
        <time>2021-06-30T09:09:41Z</time>
      </trkpt>
      <trkpt lat="45.147957" lon="5.318524">
        <ele>285.27164</ele>
        <time>2021-06-30T09:09:42Z</time>
      </trkpt>
      <trkpt lat="45.147972" lon="5.318407">
        <ele>286.45535</ele>
        <time>2021-06-30T09:09:43Z</time>
      </trkpt>
      <trkpt lat="45.148022" lon="5.318271">
        <ele>287.28387</ele>
        <time>2021-06-30T09:09:44Z</time>
      </trkpt>
      <trkpt lat="45.148113" lon="5.318136">
        <ele>288.51068</ele>
        <time>2021-06-30T09:09:45Z</time>
      </trkpt>
      <trkpt lat="45.148182" lon="5.318062">
        <ele>288.81451</ele>
        <time>2021-06-30T09:09:46Z</time>
      </trkpt>
      <trkpt lat="45.148361" lon="5.317861">
        <ele>288.45822</ele>
        <time>2021-06-30T09:09:47Z</time>
      </trkpt>
      <trkpt lat="45.148464" lon="5.317759">
        <ele>287.70416</ele>
        <time>2021-06-30T09:09:48Z</time>
      </trkpt>
      <trkpt lat="45.148552" lon="5.317665">
        <ele>286.79178</ele>
        <time>2021-06-30T09:09:49Z</time>
      </trkpt>
      <trkpt lat="45.148640" lon="5.317573">
        <ele>286.10486</ele>
        <time>2021-06-30T09:09:50Z</time>
      </trkpt>
      <trkpt lat="45.148735" lon="5.317470">
        <ele>284.26920</ele>
        <time>2021-06-30T09:09:51Z</time>
      </trkpt>
      <trkpt lat="45.148823" lon="5.317377">
        <ele>283.46442</ele>
        <time>2021-06-30T09:09:52Z</time>
      </trkpt>
      <trkpt lat="45.148907" lon="5.317284">
        <ele>282.77206</ele>
        <time>2021-06-30T09:09:53Z</time>
      </trkpt>
      <trkpt lat="45.148994" lon="5.317209">
        <ele>282.37534</ele>
        <time>2021-06-30T09:09:54Z</time>
      </trkpt>
      <trkpt lat="45.149078" lon="5.317136">
        <ele>281.05542</ele>
        <time>2021-06-30T09:09:55Z</time>
      </trkpt>
      <trkpt lat="45.149162" lon="5.317066">
        <ele>280.63751</ele>
        <time>2021-06-30T09:09:56Z</time>
      </trkpt>
      <trkpt lat="45.149254" lon="5.316989">
        <ele>280.60001</ele>
        <time>2021-06-30T09:09:57Z</time>
      </trkpt>
      <trkpt lat="45.149338" lon="5.316918">
        <ele>279.96085</ele>
        <time>2021-06-30T09:09:58Z</time>
      </trkpt>
      <trkpt lat="45.149399" lon="5.316868">
        <ele>280.14432</ele>
        <time>2021-06-30T09:09:59Z</time>
      </trkpt>
      <trkpt lat="45.149441" lon="5.316837">
        <ele>280.24005</ele>
        <time>2021-06-30T09:10:00Z</time>
      </trkpt>
      <trkpt lat="45.149441" lon="5.316837">
        <ele>280.39325</ele>
        <time>2021-06-30T09:10:01Z</time>
      </trkpt>
      <trkpt lat="45.149525" lon="5.316909">
        <ele>280.35208</ele>
        <time>2021-06-30T09:10:02Z</time>
      </trkpt>
      <trkpt lat="45.149624" lon="5.316901">
        <ele>280.34692</ele>
        <time>2021-06-30T09:10:03Z</time>
      </trkpt>
      <trkpt lat="45.149670" lon="5.316863">
        <ele>279.96588</ele>
        <time>2021-06-30T09:10:04Z</time>
      </trkpt>
      <trkpt lat="45.149696" lon="5.316803">
        <ele>279.94147</ele>
        <time>2021-06-30T09:10:05Z</time>
      </trkpt>
      <trkpt lat="45.149704" lon="5.316761">
        <ele>279.96008</ele>
        <time>2021-06-30T09:10:06Z</time>
      </trkpt>
      <trkpt lat="45.149708" lon="5.316739">
        <ele>280.07535</ele>
        <time>2021-06-30T09:10:07Z</time>
      </trkpt>
      <trkpt lat="45.149704" lon="5.316691">
        <ele>280.19913</ele>
        <time>2021-06-30T09:10:08Z</time>
      </trkpt>
      <trkpt lat="45.149704" lon="5.316691">
        <ele>280.21622</ele>
        <time>2021-06-30T09:10:09Z</time>
      </trkpt>
      <trkpt lat="45.149826" lon="5.316690">
        <ele>280.31461</ele>
        <time>2021-06-30T09:10:10Z</time>
      </trkpt>
      <trkpt lat="45.149963" lon="5.316725">
        <ele>280.48615</ele>
        <time>2021-06-30T09:10:11Z</time>
      </trkpt>
      <trkpt lat="45.150024" lon="5.316750">
        <ele>280.26447</ele>
        <time>2021-06-30T09:10:12Z</time>
      </trkpt>
      <trkpt lat="45.150085" lon="5.316778">
        <ele>280.42578</ele>
        <time>2021-06-30T09:10:13Z</time>
      </trkpt>
      <trkpt lat="45.150154" lon="5.316808">
        <ele>280.28488</ele>
        <time>2021-06-30T09:10:14Z</time>
      </trkpt>
      <trkpt lat="45.150227" lon="5.316839">
        <ele>280.32571</ele>
        <time>2021-06-30T09:10:15Z</time>
      </trkpt>
      <trkpt lat="45.150299" lon="5.316873">
        <ele>280.40625</ele>
        <time>2021-06-30T09:10:16Z</time>
      </trkpt>
      <trkpt lat="45.150368" lon="5.316904">
        <ele>280.39108</ele>
        <time>2021-06-30T09:10:17Z</time>
      </trkpt>
      <trkpt lat="45.150433" lon="5.316935">
        <ele>280.77533</ele>
        <time>2021-06-30T09:10:18Z</time>
      </trkpt>
      <trkpt lat="45.150505" lon="5.316967">
        <ele>280.71857</ele>
        <time>2021-06-30T09:10:19Z</time>
      </trkpt>
      <trkpt lat="45.150578" lon="5.317001">
        <ele>280.86749</ele>
        <time>2021-06-30T09:10:20Z</time>
      </trkpt>
      <trkpt lat="45.150646" lon="5.317033">
        <ele>281.25854</ele>
        <time>2021-06-30T09:10:21Z</time>
      </trkpt>
      <trkpt lat="45.150719" lon="5.317065">
        <ele>281.19635</ele>
        <time>2021-06-30T09:10:22Z</time>
      </trkpt>
      <trkpt lat="45.150799" lon="5.317103">
        <ele>280.79831</ele>
        <time>2021-06-30T09:10:23Z</time>
      </trkpt>
      <trkpt lat="45.150833" lon="5.317119">
        <ele>280.59641</ele>
        <time>2021-06-30T09:10:24Z</time>
      </trkpt>
      <trkpt lat="45.150833" lon="5.317119">
        <ele>280.56259</ele>
        <time>2021-06-30T09:10:25Z</time>
      </trkpt>
      <trkpt lat="45.150833" lon="5.317119">
        <ele>280.58011</ele>
        <time>2021-06-30T09:10:26Z</time>
      </trkpt>
      <trkpt lat="45.150833" lon="5.317119">
        <ele>280.61124</ele>
        <time>2021-06-30T09:10:27Z</time>
      </trkpt>
      <trkpt lat="45.150833" lon="5.317119">
        <ele>280.63925</ele>
        <time>2021-06-30T09:10:28Z</time>
      </trkpt>
      <trkpt lat="45.150833" lon="5.317119">
        <ele>280.68594</ele>
        <time>2021-06-30T09:10:29Z</time>
      </trkpt>
      <trkpt lat="45.150833" lon="5.317119">
        <ele>280.63623</ele>
        <time>2021-06-30T09:10:30Z</time>
      </trkpt>
      <trkpt lat="45.150833" lon="5.317119">
        <ele>280.58514</ele>
        <time>2021-06-30T09:10:31Z</time>
      </trkpt>
      <trkpt lat="45.150833" lon="5.317119">
        <ele>280.65009</ele>
        <time>2021-06-30T09:10:32Z</time>
      </trkpt>
      <trkpt lat="45.150833" lon="5.317119">
        <ele>280.62640</ele>
        <time>2021-06-30T09:10:33Z</time>
      </trkpt>
      <trkpt lat="45.150833" lon="5.317119">
        <ele>280.59280</ele>
        <time>2021-06-30T09:10:34Z</time>
      </trkpt>
      <trkpt lat="45.150833" lon="5.317119">
        <ele>280.63181</ele>
        <time>2021-06-30T09:10:35Z</time>
      </trkpt>
      <trkpt lat="45.150833" lon="5.317119">
        <ele>280.56342</ele>
        <time>2021-06-30T09:10:36Z</time>
      </trkpt>
      <trkpt lat="45.150833" lon="5.317119">
        <ele>280.56451</ele>
        <time>2021-06-30T09:10:37Z</time>
      </trkpt>
      <trkpt lat="45.150833" lon="5.317119">
        <ele>280.56314</ele>
        <time>2021-06-30T09:10:38Z</time>
      </trkpt>
      <trkpt lat="45.150833" lon="5.317119">
        <ele>280.53745</ele>
        <time>2021-06-30T09:10:39Z</time>
      </trkpt>
      <trkpt lat="45.150833" lon="5.317119">
        <ele>280.56262</ele>
        <time>2021-06-30T09:10:40Z</time>
      </trkpt>
      <trkpt lat="45.150833" lon="5.317119">
        <ele>280.62927</ele>
        <time>2021-06-30T09:10:41Z</time>
      </trkpt>
      <trkpt lat="45.150833" lon="5.317119">
        <ele>280.62793</ele>
        <time>2021-06-30T09:10:42Z</time>
      </trkpt>
      <trkpt lat="45.150833" lon="5.317119">
        <ele>280.53412</ele>
        <time>2021-06-30T09:10:43Z</time>
      </trkpt>
      <trkpt lat="45.150833" lon="5.317119">
        <ele>280.63727</ele>
        <time>2021-06-30T09:10:44Z</time>
      </trkpt>
      <trkpt lat="45.150833" lon="5.317119">
        <ele>280.78546</ele>
        <time>2021-06-30T09:10:45Z</time>
      </trkpt>
      <trkpt lat="45.150833" lon="5.317119">
        <ele>280.84164</ele>
        <time>2021-06-30T09:10:46Z</time>
      </trkpt>
      <trkpt lat="45.150913" lon="5.317154">
        <ele>280.81561</ele>
        <time>2021-06-30T09:10:47Z</time>
      </trkpt>
      <trkpt lat="45.150951" lon="5.317170">
        <ele>280.76688</ele>
        <time>2021-06-30T09:10:48Z</time>
      </trkpt>
      <trkpt lat="45.150951" lon="5.317170">
        <ele>280.80212</ele>
        <time>2021-06-30T09:10:49Z</time>
      </trkpt>
      <trkpt lat="45.150951" lon="5.317170">
        <ele>280.74814</ele>
        <time>2021-06-30T09:10:50Z</time>
      </trkpt>
      <trkpt lat="45.150951" lon="5.317170">
        <ele>280.71371</ele>
        <time>2021-06-30T09:10:51Z</time>
      </trkpt>
      <trkpt lat="45.150951" lon="5.317170">
        <ele>280.69220</ele>
        <time>2021-06-30T09:10:52Z</time>
      </trkpt>
      <trkpt lat="45.150986" lon="5.317186">
        <ele>280.83432</ele>
        <time>2021-06-30T09:10:53Z</time>
      </trkpt>
      <trkpt lat="45.151005" lon="5.317199">
        <ele>280.93127</ele>
        <time>2021-06-30T09:10:54Z</time>
      </trkpt>
      <trkpt lat="45.151039" lon="5.317220">
        <ele>280.99673</ele>
        <time>2021-06-30T09:10:55Z</time>
      </trkpt>
      <trkpt lat="45.151081" lon="5.317248">
        <ele>281.24222</ele>
        <time>2021-06-30T09:10:56Z</time>
      </trkpt>
      <trkpt lat="45.151146" lon="5.317317">
        <ele>281.55115</ele>
        <time>2021-06-30T09:10:57Z</time>
      </trkpt>
      <trkpt lat="45.151234" lon="5.317552">
        <ele>281.32025</ele>
        <time>2021-06-30T09:10:58Z</time>
      </trkpt>
      <trkpt lat="45.151249" lon="5.317557">
        <ele>281.40906</ele>
        <time>2021-06-30T09:10:59Z</time>
      </trkpt>
      <trkpt lat="45.151249" lon="5.317557">
        <ele>281.41449</ele>
        <time>2021-06-30T09:11:00Z</time>
      </trkpt>
      <trkpt lat="45.151260" lon="5.317557">
        <ele>281.59796</ele>
        <time>2021-06-30T09:11:01Z</time>
      </trkpt>
      <trkpt lat="45.151394" lon="5.317437">
        <ele>281.64386</ele>
        <time>2021-06-30T09:11:02Z</time>
      </trkpt>
      <trkpt lat="45.151398" lon="5.317365">
        <ele>281.86224</ele>
        <time>2021-06-30T09:11:03Z</time>
      </trkpt>
      <trkpt lat="45.151386" lon="5.317302">
        <ele>281.82507</ele>
        <time>2021-06-30T09:11:04Z</time>
      </trkpt>
      <trkpt lat="45.151360" lon="5.317250">
        <ele>281.75977</ele>
        <time>2021-06-30T09:11:05Z</time>
      </trkpt>
      <trkpt lat="45.151299" lon="5.317210">
        <ele>281.83188</ele>
        <time>2021-06-30T09:11:06Z</time>
      </trkpt>
      <trkpt lat="45.151276" lon="5.317205">
        <ele>281.56964</ele>
        <time>2021-06-30T09:11:07Z</time>
      </trkpt>
      <trkpt lat="45.151276" lon="5.317205">
        <ele>281.51660</ele>
        <time>2021-06-30T09:11:08Z</time>
      </trkpt>
      <trkpt lat="45.151276" lon="5.317205">
        <ele>281.53107</ele>
        <time>2021-06-30T09:11:09Z</time>
      </trkpt>
      <trkpt lat="45.151234" lon="5.317139">
        <ele>281.73962</ele>
        <time>2021-06-30T09:11:10Z</time>
      </trkpt>
      <trkpt lat="45.151062" lon="5.316879">
        <ele>281.81171</ele>
        <time>2021-06-30T09:11:11Z</time>
      </trkpt>
      <trkpt lat="45.151012" lon="5.316813">
        <ele>281.73642</ele>
        <time>2021-06-30T09:11:12Z</time>
      </trkpt>
      <trkpt lat="45.151012" lon="5.316813">
        <ele>281.58862</ele>
        <time>2021-06-30T09:11:13Z</time>
      </trkpt>
      <trkpt lat="45.150963" lon="5.316747">
        <ele>281.18793</ele>
        <time>2021-06-30T09:11:14Z</time>
      </trkpt>
      <trkpt lat="45.150909" lon="5.316673">
        <ele>281.18585</ele>
        <time>2021-06-30T09:11:15Z</time>
      </trkpt>
      <trkpt lat="45.150833" lon="5.316567">
        <ele>281.14392</ele>
        <time>2021-06-30T09:11:16Z</time>
      </trkpt>
      <trkpt lat="45.150776" lon="5.316491">
        <ele>280.88376</ele>
        <time>2021-06-30T09:11:17Z</time>
      </trkpt>
      <trkpt lat="45.150719" lon="5.316411">
        <ele>280.82645</ele>
        <time>2021-06-30T09:11:18Z</time>
      </trkpt>
      <trkpt lat="45.150658" lon="5.316332">
        <ele>280.67142</ele>
        <time>2021-06-30T09:11:19Z</time>
      </trkpt>
      <trkpt lat="45.150600" lon="5.316256">
        <ele>280.81247</ele>
        <time>2021-06-30T09:11:20Z</time>
      </trkpt>
      <trkpt lat="45.150543" lon="5.316171">
        <ele>280.99887</ele>
        <time>2021-06-30T09:11:21Z</time>
      </trkpt>
      <trkpt lat="45.150482" lon="5.316088">
        <ele>280.90286</ele>
        <time>2021-06-30T09:11:22Z</time>
      </trkpt>
      <trkpt lat="45.150417" lon="5.315998">
        <ele>280.87015</ele>
        <time>2021-06-30T09:11:23Z</time>
      </trkpt>
      <trkpt lat="45.150349" lon="5.315897">
        <ele>281.07129</ele>
        <time>2021-06-30T09:11:24Z</time>
      </trkpt>
      <trkpt lat="45.150261" lon="5.315777">
        <ele>280.88794</ele>
        <time>2021-06-30T09:11:25Z</time>
      </trkpt>
      <trkpt lat="45.150169" lon="5.315650">
        <ele>281.06296</ele>
        <time>2021-06-30T09:11:26Z</time>
      </trkpt>
      <trkpt lat="45.150169" lon="5.315648">
        <ele>280.78430</ele>
        <time>2021-06-30T09:11:27Z</time>
      </trkpt>
      <trkpt lat="45.150169" lon="5.315647">
        <ele>280.45032</ele>
        <time>2021-06-30T09:11:28Z</time>
      </trkpt>
      <trkpt lat="45.150021" lon="5.315452">
        <ele>280.62329</ele>
        <time>2021-06-30T09:11:29Z</time>
      </trkpt>
      <trkpt lat="45.149853" lon="5.315224">
        <ele>280.54895</ele>
        <time>2021-06-30T09:11:30Z</time>
      </trkpt>
      <trkpt lat="45.149765" lon="5.315105">
        <ele>280.13815</ele>
        <time>2021-06-30T09:11:31Z</time>
      </trkpt>
      <trkpt lat="45.149677" lon="5.314989">
        <ele>279.85480</ele>
        <time>2021-06-30T09:11:32Z</time>
      </trkpt>
      <trkpt lat="45.149597" lon="5.314877">
        <ele>279.51450</ele>
        <time>2021-06-30T09:11:33Z</time>
      </trkpt>
      <trkpt lat="45.149525" lon="5.314779">
        <ele>279.67337</ele>
        <time>2021-06-30T09:11:34Z</time>
      </trkpt>
      <trkpt lat="45.149498" lon="5.314745">
        <ele>279.60666</ele>
        <time>2021-06-30T09:11:35Z</time>
      </trkpt>
      <trkpt lat="45.149498" lon="5.314744">
        <ele>279.41711</ele>
        <time>2021-06-30T09:11:36Z</time>
      </trkpt>
      <trkpt lat="45.149498" lon="5.314744">
        <ele>279.25201</ele>
        <time>2021-06-30T09:11:37Z</time>
      </trkpt>
      <trkpt lat="45.149303" lon="5.314472">
        <ele>279.09470</ele>
        <time>2021-06-30T09:11:38Z</time>
      </trkpt>
      <trkpt lat="45.149185" lon="5.314309">
        <ele>279.13382</ele>
        <time>2021-06-30T09:11:39Z</time>
      </trkpt>
      <trkpt lat="45.149101" lon="5.314194">
        <ele>279.23203</ele>
        <time>2021-06-30T09:11:40Z</time>
      </trkpt>
      <trkpt lat="45.149029" lon="5.314093">
        <ele>278.92508</ele>
        <time>2021-06-30T09:11:41Z</time>
      </trkpt>
      <trkpt lat="45.148952" lon="5.313987">
        <ele>278.85434</ele>
        <time>2021-06-30T09:11:42Z</time>
      </trkpt>
      <trkpt lat="45.148884" lon="5.313894">
        <ele>278.71304</ele>
        <time>2021-06-30T09:11:43Z</time>
      </trkpt>
      <trkpt lat="45.148823" lon="5.313813">
        <ele>278.68954</ele>
        <time>2021-06-30T09:11:44Z</time>
      </trkpt>
      <trkpt lat="45.148754" lon="5.313720">
        <ele>278.55811</ele>
        <time>2021-06-30T09:11:45Z</time>
      </trkpt>
      <trkpt lat="45.148701" lon="5.313620">
        <ele>278.47525</ele>
        <time>2021-06-30T09:11:46Z</time>
      </trkpt>
      <trkpt lat="45.148666" lon="5.313533">
        <ele>278.39709</ele>
        <time>2021-06-30T09:11:47Z</time>
      </trkpt>
      <trkpt lat="45.148655" lon="5.313513">
        <ele>278.40677</ele>
        <time>2021-06-30T09:11:48Z</time>
      </trkpt>
      <trkpt lat="45.148651" lon="5.313512">
        <ele>278.26242</ele>
        <time>2021-06-30T09:11:49Z</time>
      </trkpt>
      <trkpt lat="45.148651" lon="5.313512">
        <ele>278.13312</ele>
        <time>2021-06-30T09:11:50Z</time>
      </trkpt>
      <trkpt lat="45.148651" lon="5.313512">
        <ele>278.16119</ele>
        <time>2021-06-30T09:11:51Z</time>
      </trkpt>
      <trkpt lat="45.148651" lon="5.313512">
        <ele>278.18423</ele>
        <time>2021-06-30T09:11:52Z</time>
      </trkpt>
      <trkpt lat="45.148651" lon="5.313512">
        <ele>278.24384</ele>
        <time>2021-06-30T09:11:53Z</time>
      </trkpt>
      <trkpt lat="45.148651" lon="5.313512">
        <ele>278.15085</ele>
        <time>2021-06-30T09:11:54Z</time>
      </trkpt>
      <trkpt lat="45.148651" lon="5.313512">
        <ele>278.28091</ele>
        <time>2021-06-30T09:11:55Z</time>
      </trkpt>
      <trkpt lat="45.148651" lon="5.313512">
        <ele>278.15121</ele>
        <time>2021-06-30T09:11:56Z</time>
      </trkpt>
      <trkpt lat="45.148651" lon="5.313512">
        <ele>278.05078</ele>
        <time>2021-06-30T09:11:57Z</time>
      </trkpt>
      <trkpt lat="45.148651" lon="5.313512">
        <ele>277.41351</ele>
        <time>2021-06-30T09:11:58Z</time>
      </trkpt>
      <trkpt lat="45.148651" lon="5.313512">
        <ele>277.21115</ele>
        <time>2021-06-30T09:11:59Z</time>
      </trkpt>
      <trkpt lat="45.148651" lon="5.313512">
        <ele>277.08871</ele>
        <time>2021-06-30T09:12:00Z</time>
      </trkpt>
      <trkpt lat="45.148651" lon="5.313512">
        <ele>276.97516</ele>
        <time>2021-06-30T09:12:01Z</time>
      </trkpt>
      <trkpt lat="45.148651" lon="5.313512">
        <ele>276.99652</ele>
        <time>2021-06-30T09:12:02Z</time>
      </trkpt>
      <trkpt lat="45.148651" lon="5.313512">
        <ele>277.01083</ele>
        <time>2021-06-30T09:12:03Z</time>
      </trkpt>
      <trkpt lat="45.148651" lon="5.313512">
        <ele>276.97031</ele>
        <time>2021-06-30T09:12:04Z</time>
      </trkpt>
      <trkpt lat="45.148651" lon="5.313512">
        <ele>276.93625</ele>
        <time>2021-06-30T09:12:05Z</time>
      </trkpt>
      <trkpt lat="45.148651" lon="5.313512">
        <ele>276.86511</ele>
        <time>2021-06-30T09:12:06Z</time>
      </trkpt>
      <trkpt lat="45.148651" lon="5.313512">
        <ele>276.88055</ele>
        <time>2021-06-30T09:12:07Z</time>
      </trkpt>
      <trkpt lat="45.148651" lon="5.313512">
        <ele>276.83893</ele>
        <time>2021-06-30T09:12:08Z</time>
      </trkpt>
      <trkpt lat="45.148651" lon="5.313512">
        <ele>276.71866</ele>
        <time>2021-06-30T09:12:09Z</time>
      </trkpt>
      <trkpt lat="45.148651" lon="5.313512">
        <ele>276.73932</ele>
        <time>2021-06-30T09:12:10Z</time>
      </trkpt>
      <trkpt lat="45.148651" lon="5.313512">
        <ele>276.79553</ele>
        <time>2021-06-30T09:12:11Z</time>
      </trkpt>
      <trkpt lat="45.148651" lon="5.313512">
        <ele>276.79510</ele>
        <time>2021-06-30T09:12:12Z</time>
      </trkpt>
      <trkpt lat="45.148651" lon="5.313512">
        <ele>276.71362</ele>
        <time>2021-06-30T09:12:13Z</time>
      </trkpt>
      <trkpt lat="45.148651" lon="5.313512">
        <ele>276.77795</ele>
        <time>2021-06-30T09:12:14Z</time>
      </trkpt>
      <trkpt lat="45.148651" lon="5.313512">
        <ele>276.78094</ele>
        <time>2021-06-30T09:12:15Z</time>
      </trkpt>
      <trkpt lat="45.148651" lon="5.313512">
        <ele>276.78748</ele>
        <time>2021-06-30T09:12:16Z</time>
      </trkpt>
      <trkpt lat="45.148651" lon="5.313512">
        <ele>276.79062</ele>
        <time>2021-06-30T09:12:17Z</time>
      </trkpt>
      <trkpt lat="45.148651" lon="5.313512">
        <ele>276.73999</ele>
        <time>2021-06-30T09:12:18Z</time>
      </trkpt>
      <trkpt lat="45.148651" lon="5.313512">
        <ele>276.89386</ele>
        <time>2021-06-30T09:12:19Z</time>
      </trkpt>
      <trkpt lat="45.148651" lon="5.313512">
        <ele>276.89920</ele>
        <time>2021-06-30T09:12:20Z</time>
      </trkpt>
      <trkpt lat="45.148651" lon="5.313512">
        <ele>276.97028</ele>
        <time>2021-06-30T09:12:21Z</time>
      </trkpt>
      <trkpt lat="45.148651" lon="5.313512">
        <ele>276.99265</ele>
        <time>2021-06-30T09:12:22Z</time>
      </trkpt>
      <trkpt lat="45.148651" lon="5.313512">
        <ele>276.93356</ele>
        <time>2021-06-30T09:12:23Z</time>
      </trkpt>
      <trkpt lat="45.148651" lon="5.313512">
        <ele>276.79819</ele>
        <time>2021-06-30T09:12:24Z</time>
      </trkpt>
      <trkpt lat="45.148651" lon="5.313512">
        <ele>276.76071</ele>
        <time>2021-06-30T09:12:25Z</time>
      </trkpt>
      <trkpt lat="45.148651" lon="5.313512">
        <ele>276.79141</ele>
        <time>2021-06-30T09:12:26Z</time>
      </trkpt>
      <trkpt lat="45.148651" lon="5.313512">
        <ele>276.80475</ele>
        <time>2021-06-30T09:12:27Z</time>
      </trkpt>
      <trkpt lat="45.148651" lon="5.313512">
        <ele>276.80438</ele>
        <time>2021-06-30T09:12:28Z</time>
      </trkpt>
      <trkpt lat="45.148651" lon="5.313512">
        <ele>276.74997</ele>
        <time>2021-06-30T09:12:29Z</time>
      </trkpt>
      <trkpt lat="45.148651" lon="5.313512">
        <ele>276.79248</ele>
        <time>2021-06-30T09:12:30Z</time>
      </trkpt>
      <trkpt lat="45.148651" lon="5.313512">
        <ele>276.78967</ele>
        <time>2021-06-30T09:12:31Z</time>
      </trkpt>
      <trkpt lat="45.148651" lon="5.313512">
        <ele>276.77533</ele>
        <time>2021-06-30T09:12:32Z</time>
      </trkpt>
      <trkpt lat="45.148651" lon="5.313512">
        <ele>276.81567</ele>
        <time>2021-06-30T09:12:33Z</time>
      </trkpt>
      <trkpt lat="45.148651" lon="5.313512">
        <ele>276.88141</ele>
        <time>2021-06-30T09:12:34Z</time>
      </trkpt>
      <trkpt lat="45.148651" lon="5.313512">
        <ele>276.86908</ele>
        <time>2021-06-30T09:12:35Z</time>
      </trkpt>
      <trkpt lat="45.148651" lon="5.313512">
        <ele>276.82013</ele>
        <time>2021-06-30T09:12:36Z</time>
      </trkpt>
      <trkpt lat="45.148651" lon="5.313512">
        <ele>276.97296</ele>
        <time>2021-06-30T09:12:37Z</time>
      </trkpt>
      <trkpt lat="45.148651" lon="5.313512">
        <ele>276.94589</ele>
        <time>2021-06-30T09:12:38Z</time>
      </trkpt>
      <trkpt lat="45.148651" lon="5.313512">
        <ele>277.00122</ele>
        <time>2021-06-30T09:12:39Z</time>
      </trkpt>
      <trkpt lat="45.148453" lon="5.313225">
        <ele>287.78134</ele>
        <time>2021-06-30T09:40:37Z</time>
      </trkpt>
      <trkpt lat="45.148411" lon="5.313167">
        <ele>287.77011</ele>
        <time>2021-06-30T09:40:37Z</time>
      </trkpt>
      <trkpt lat="45.148392" lon="5.313139">
        <ele>287.88968</ele>
        <time>2021-06-30T09:40:38Z</time>
      </trkpt>
      <trkpt lat="45.148357" lon="5.313091">
        <ele>287.63287</ele>
        <time>2021-06-30T09:40:39Z</time>
      </trkpt>
      <trkpt lat="45.148357" lon="5.313091">
        <ele>287.70334</ele>
        <time>2021-06-30T09:40:40Z</time>
      </trkpt>
      <trkpt lat="45.148350" lon="5.313079">
        <ele>287.59811</ele>
        <time>2021-06-30T09:40:41Z</time>
      </trkpt>
      <trkpt lat="45.148350" lon="5.313079">
        <ele>287.68967</ele>
        <time>2021-06-30T09:40:42Z</time>
      </trkpt>
      <trkpt lat="45.148350" lon="5.313079">
        <ele>287.69809</ele>
        <time>2021-06-30T09:40:43Z</time>
      </trkpt>
      <trkpt lat="45.148350" lon="5.313079">
        <ele>287.74164</ele>
        <time>2021-06-30T09:40:44Z</time>
      </trkpt>
      <trkpt lat="45.148350" lon="5.313079">
        <ele>287.69376</ele>
        <time>2021-06-30T09:40:45Z</time>
      </trkpt>
      <trkpt lat="45.148350" lon="5.313079">
        <ele>287.75574</ele>
        <time>2021-06-30T09:40:46Z</time>
      </trkpt>
      <trkpt lat="45.148350" lon="5.313079">
        <ele>287.77991</ele>
        <time>2021-06-30T09:40:47Z</time>
      </trkpt>
      <trkpt lat="45.148350" lon="5.313079">
        <ele>287.76077</ele>
        <time>2021-06-30T09:40:48Z</time>
      </trkpt>
      <trkpt lat="45.148350" lon="5.313079">
        <ele>287.68332</ele>
        <time>2021-06-30T09:40:50Z</time>
      </trkpt>
      <trkpt lat="45.148350" lon="5.313079">
        <ele>287.78943</ele>
        <time>2021-06-30T09:40:51Z</time>
      </trkpt>
      <trkpt lat="45.148350" lon="5.313079">
        <ele>287.77527</ele>
        <time>2021-06-30T09:40:52Z</time>
      </trkpt>
      <trkpt lat="45.148350" lon="5.313079">
        <ele>287.78128</ele>
        <time>2021-06-30T09:40:53Z</time>
      </trkpt>
      <trkpt lat="45.148350" lon="5.313079">
        <ele>287.80469</ele>
        <time>2021-06-30T09:40:54Z</time>
      </trkpt>
      <trkpt lat="45.148350" lon="5.313079">
        <ele>287.67212</ele>
        <time>2021-06-30T09:40:55Z</time>
      </trkpt>
      <trkpt lat="45.148350" lon="5.313079">
        <ele>287.72708</ele>
        <time>2021-06-30T09:40:56Z</time>
      </trkpt>
      <trkpt lat="45.148350" lon="5.313079">
        <ele>287.80527</ele>
        <time>2021-06-30T09:40:57Z</time>
      </trkpt>
      <trkpt lat="45.148350" lon="5.313079">
        <ele>287.68170</ele>
        <time>2021-06-30T09:40:58Z</time>
      </trkpt>
      <trkpt lat="45.148350" lon="5.313079">
        <ele>287.67880</ele>
        <time>2021-06-30T09:40:59Z</time>
      </trkpt>
      <trkpt lat="45.148350" lon="5.313079">
        <ele>287.66846</ele>
        <time>2021-06-30T09:41:00Z</time>
      </trkpt>
      <trkpt lat="45.148350" lon="5.313079">
        <ele>287.51883</ele>
        <time>2021-06-30T09:41:01Z</time>
      </trkpt>
      <trkpt lat="45.148350" lon="5.313079">
        <ele>287.65530</ele>
        <time>2021-06-30T09:41:02Z</time>
      </trkpt>
      <trkpt lat="45.148350" lon="5.313079">
        <ele>287.60071</ele>
        <time>2021-06-30T09:41:03Z</time>
      </trkpt>
      <trkpt lat="45.148350" lon="5.313079">
        <ele>287.63281</ele>
        <time>2021-06-30T09:41:04Z</time>
      </trkpt>
      <trkpt lat="45.148350" lon="5.313079">
        <ele>287.66336</ele>
        <time>2021-06-30T09:41:05Z</time>
      </trkpt>
      <trkpt lat="45.148350" lon="5.313079">
        <ele>287.67505</ele>
        <time>2021-06-30T09:41:06Z</time>
      </trkpt>
      <trkpt lat="45.148350" lon="5.313079">
        <ele>287.59891</ele>
        <time>2021-06-30T09:41:07Z</time>
      </trkpt>
      <trkpt lat="45.148350" lon="5.313079">
        <ele>287.70050</ele>
        <time>2021-06-30T09:41:08Z</time>
      </trkpt>
      <trkpt lat="45.148350" lon="5.313079">
        <ele>287.77762</ele>
        <time>2021-06-30T09:41:09Z</time>
      </trkpt>
      <trkpt lat="45.148350" lon="5.313079">
        <ele>288.03781</ele>
        <time>2021-06-30T09:41:10Z</time>
      </trkpt>
      <trkpt lat="45.148350" lon="5.313079">
        <ele>288.21210</ele>
        <time>2021-06-30T09:41:11Z</time>
      </trkpt>
      <trkpt lat="45.148350" lon="5.313079">
        <ele>288.43362</ele>
        <time>2021-06-30T09:41:12Z</time>
      </trkpt>
      <trkpt lat="45.148346" lon="5.313075">
        <ele>288.41833</ele>
        <time>2021-06-30T09:41:13Z</time>
      </trkpt>
      <trkpt lat="45.148312" lon="5.313029">
        <ele>288.34872</ele>
        <time>2021-06-30T09:41:14Z</time>
      </trkpt>
      <trkpt lat="45.148266" lon="5.312965">
        <ele>288.72977</ele>
        <time>2021-06-30T09:41:15Z</time>
      </trkpt>
      <trkpt lat="45.148243" lon="5.312934">
        <ele>288.92926</ele>
        <time>2021-06-30T09:41:16Z</time>
      </trkpt>
      <trkpt lat="45.148174" lon="5.312844">
        <ele>288.86160</ele>
        <time>2021-06-30T09:41:17Z</time>
      </trkpt>
      <trkpt lat="45.148064" lon="5.312699">
        <ele>288.78006</ele>
        <time>2021-06-30T09:41:18Z</time>
      </trkpt>
      <trkpt lat="45.148026" lon="5.312649">
        <ele>288.81253</ele>
        <time>2021-06-30T09:41:19Z</time>
      </trkpt>
      <trkpt lat="45.147980" lon="5.312589">
        <ele>288.86676</ele>
        <time>2021-06-30T09:41:20Z</time>
      </trkpt>
      <trkpt lat="45.147919" lon="5.312523">
        <ele>288.97571</ele>
        <time>2021-06-30T09:41:21Z</time>
      </trkpt>
      <trkpt lat="45.147816" lon="5.312416">
        <ele>289.05997</ele>
        <time>2021-06-30T09:41:22Z</time>
      </trkpt>
      <trkpt lat="45.147743" lon="5.312317">
        <ele>289.19244</ele>
        <time>2021-06-30T09:41:23Z</time>
      </trkpt>
      <trkpt lat="45.147671" lon="5.312213">
        <ele>289.39240</ele>
        <time>2021-06-30T09:41:24Z</time>
      </trkpt>
      <trkpt lat="45.147594" lon="5.312108">
        <ele>289.13153</ele>
        <time>2021-06-30T09:41:25Z</time>
      </trkpt>
      <trkpt lat="45.147526" lon="5.312015">
        <ele>288.88513</ele>
        <time>2021-06-30T09:41:26Z</time>
      </trkpt>
      <trkpt lat="45.147465" lon="5.311934">
        <ele>288.78107</ele>
        <time>2021-06-30T09:41:27Z</time>
      </trkpt>
      <trkpt lat="45.147415" lon="5.311867">
        <ele>289.00287</ele>
        <time>2021-06-30T09:41:28Z</time>
      </trkpt>
      <trkpt lat="45.147354" lon="5.311781">
        <ele>288.85730</ele>
        <time>2021-06-30T09:41:29Z</time>
      </trkpt>
      <trkpt lat="45.147285" lon="5.311688">
        <ele>288.85934</ele>
        <time>2021-06-30T09:41:30Z</time>
      </trkpt>
      <trkpt lat="45.147221" lon="5.311600">
        <ele>288.63272</ele>
        <time>2021-06-30T09:41:31Z</time>
      </trkpt>
      <trkpt lat="45.147175" lon="5.311539">
        <ele>288.48294</ele>
        <time>2021-06-30T09:41:32Z</time>
      </trkpt>
      <trkpt lat="45.147137" lon="5.311487">
        <ele>288.33844</ele>
        <time>2021-06-30T09:41:33Z</time>
      </trkpt>
      <trkpt lat="45.147083" lon="5.311411">
        <ele>288.48547</ele>
        <time>2021-06-30T09:41:34Z</time>
      </trkpt>
      <trkpt lat="45.147015" lon="5.311318">
        <ele>283.40610</ele>
        <time>2021-06-30T09:41:35Z</time>
      </trkpt>
      <trkpt lat="45.146942" lon="5.311219">
        <ele>281.96719</ele>
        <time>2021-06-30T09:41:36Z</time>
      </trkpt>
      <trkpt lat="45.146866" lon="5.311114">
        <ele>281.48349</ele>
        <time>2021-06-30T09:41:37Z</time>
      </trkpt>
      <trkpt lat="45.146793" lon="5.311019">
        <ele>280.95847</ele>
        <time>2021-06-30T09:41:38Z</time>
      </trkpt>
      <trkpt lat="45.146717" lon="5.310901">
        <ele>281.40964</ele>
        <time>2021-06-30T09:41:39Z</time>
      </trkpt>
      <trkpt lat="45.146652" lon="5.310777">
        <ele>281.02109</ele>
        <time>2021-06-30T09:41:40Z</time>
      </trkpt>
      <trkpt lat="45.146572" lon="5.310654">
        <ele>280.40176</ele>
        <time>2021-06-30T09:41:41Z</time>
      </trkpt>
      <trkpt lat="45.146484" lon="5.310527">
        <ele>279.84055</ele>
        <time>2021-06-30T09:41:42Z</time>
      </trkpt>
      <trkpt lat="45.146404" lon="5.310416">
        <ele>279.19315</ele>
        <time>2021-06-30T09:41:43Z</time>
      </trkpt>
      <trkpt lat="45.146404" lon="5.310416">
        <ele>278.99472</ele>
        <time>2021-06-30T09:41:44Z</time>
      </trkpt>
      <trkpt lat="45.146324" lon="5.310303">
        <ele>279.15585</ele>
        <time>2021-06-30T09:41:45Z</time>
      </trkpt>
      <trkpt lat="45.146248" lon="5.310191">
        <ele>278.63010</ele>
        <time>2021-06-30T09:41:46Z</time>
      </trkpt>
      <trkpt lat="45.146175" lon="5.310086">
        <ele>277.88998</ele>
        <time>2021-06-30T09:41:47Z</time>
      </trkpt>
      <trkpt lat="45.146118" lon="5.310006">
        <ele>277.60349</ele>
        <time>2021-06-30T09:41:48Z</time>
      </trkpt>
      <trkpt lat="45.146072" lon="5.309935">
        <ele>277.74643</ele>
        <time>2021-06-30T09:41:49Z</time>
      </trkpt>
      <trkpt lat="45.146015" lon="5.309867">
        <ele>277.84079</ele>
        <time>2021-06-30T09:41:50Z</time>
      </trkpt>
      <trkpt lat="45.145966" lon="5.309805">
        <ele>277.54440</ele>
        <time>2021-06-30T09:41:51Z</time>
      </trkpt>
      <trkpt lat="45.145916" lon="5.309746">
        <ele>278.97214</ele>
        <time>2021-06-30T09:41:52Z</time>
      </trkpt>
      <trkpt lat="45.145882" lon="5.309713">
        <ele>279.27023</ele>
        <time>2021-06-30T09:41:53Z</time>
      </trkpt>
      <trkpt lat="45.145844" lon="5.309679">
        <ele>279.51535</ele>
        <time>2021-06-30T09:41:54Z</time>
      </trkpt>
      <trkpt lat="45.145840" lon="5.309678">
        <ele>278.89035</ele>
        <time>2021-06-30T09:41:55Z</time>
      </trkpt>
      <trkpt lat="45.145828" lon="5.309667">
        <ele>279.09116</ele>
        <time>2021-06-30T09:41:56Z</time>
      </trkpt>
      <trkpt lat="45.145798" lon="5.309639">
        <ele>277.25156</ele>
        <time>2021-06-30T09:41:57Z</time>
      </trkpt>
      <trkpt lat="45.145767" lon="5.309523">
        <ele>276.72360</ele>
        <time>2021-06-30T09:41:58Z</time>
      </trkpt>
      <trkpt lat="45.145718" lon="5.309449">
        <ele>278.55783</ele>
        <time>2021-06-30T09:41:59Z</time>
      </trkpt>
      <trkpt lat="45.145660" lon="5.309422">
        <ele>278.64548</ele>
        <time>2021-06-30T09:42:00Z</time>
      </trkpt>
      <trkpt lat="45.145626" lon="5.309432">
        <ele>279.02939</ele>
        <time>2021-06-30T09:42:01Z</time>
      </trkpt>
      <trkpt lat="45.145561" lon="5.309478">
        <ele>278.37430</ele>
        <time>2021-06-30T09:42:02Z</time>
      </trkpt>
      <trkpt lat="45.145538" lon="5.309560">
        <ele>284.65540</ele>
        <time>2021-06-30T09:42:03Z</time>
      </trkpt>
      <trkpt lat="45.145538" lon="5.309652">
        <ele>281.97000</ele>
        <time>2021-06-30T09:42:04Z</time>
      </trkpt>
      <trkpt lat="45.145565" lon="5.309714">
        <ele>281.14236</ele>
        <time>2021-06-30T09:42:05Z</time>
      </trkpt>
      <trkpt lat="45.145638" lon="5.309763">
        <ele>280.36819</ele>
        <time>2021-06-30T09:42:06Z</time>
      </trkpt>
      <trkpt lat="45.145710" lon="5.309743">
        <ele>280.88333</ele>
        <time>2021-06-30T09:42:07Z</time>
      </trkpt>
      <trkpt lat="45.145786" lon="5.309769">
        <ele>280.95712</ele>
        <time>2021-06-30T09:42:08Z</time>
      </trkpt>
      <trkpt lat="45.145870" lon="5.309835">
        <ele>280.60764</ele>
        <time>2021-06-30T09:42:09Z</time>
      </trkpt>
      <trkpt lat="45.145935" lon="5.309895">
        <ele>280.12241</ele>
        <time>2021-06-30T09:42:10Z</time>
      </trkpt>
      <trkpt lat="45.145988" lon="5.309965">
        <ele>280.07120</ele>
        <time>2021-06-30T09:42:11Z</time>
      </trkpt>
      <trkpt lat="45.146046" lon="5.310046">
        <ele>279.29672</ele>
        <time>2021-06-30T09:42:12Z</time>
      </trkpt>
      <trkpt lat="45.146103" lon="5.310129">
        <ele>279.36923</ele>
        <time>2021-06-30T09:42:13Z</time>
      </trkpt>
      <trkpt lat="45.146168" lon="5.310219">
        <ele>279.02866</ele>
        <time>2021-06-30T09:42:14Z</time>
      </trkpt>
      <trkpt lat="45.146229" lon="5.310302">
        <ele>279.09177</ele>
        <time>2021-06-30T09:42:15Z</time>
      </trkpt>
      <trkpt lat="45.146229" lon="5.310302">
        <ele>279.17502</ele>
        <time>2021-06-30T09:42:16Z</time>
      </trkpt>
      <trkpt lat="45.146290" lon="5.310386">
        <ele>278.35556</ele>
        <time>2021-06-30T09:42:17Z</time>
      </trkpt>
      <trkpt lat="45.146358" lon="5.310480">
        <ele>277.70413</ele>
        <time>2021-06-30T09:42:18Z</time>
      </trkpt>
      <trkpt lat="45.146420" lon="5.310561">
        <ele>278.93820</ele>
        <time>2021-06-30T09:42:19Z</time>
      </trkpt>
      <trkpt lat="45.146492" lon="5.310656">
        <ele>278.71146</ele>
        <time>2021-06-30T09:42:20Z</time>
      </trkpt>
      <trkpt lat="45.146564" lon="5.310755">
        <ele>278.88803</ele>
        <time>2021-06-30T09:42:21Z</time>
      </trkpt>
      <trkpt lat="45.146633" lon="5.310848">
        <ele>279.12155</ele>
        <time>2021-06-30T09:42:22Z</time>
      </trkpt>
      <trkpt lat="45.146709" lon="5.310920">
        <ele>279.17404</ele>
        <time>2021-06-30T09:42:23Z</time>
      </trkpt>
      <trkpt lat="45.146793" lon="5.311018">
        <ele>279.02457</ele>
        <time>2021-06-30T09:42:24Z</time>
      </trkpt>
      <trkpt lat="45.146870" lon="5.311125">
        <ele>279.98825</ele>
        <time>2021-06-30T09:42:25Z</time>
      </trkpt>
      <trkpt lat="45.146912" lon="5.311178">
        <ele>279.80136</ele>
        <time>2021-06-30T09:42:26Z</time>
      </trkpt>
      <trkpt lat="45.146984" lon="5.311276">
        <ele>278.35831</ele>
        <time>2021-06-30T09:42:27Z</time>
      </trkpt>
      <trkpt lat="45.147053" lon="5.311370">
        <ele>277.62607</ele>
        <time>2021-06-30T09:42:28Z</time>
      </trkpt>
      <trkpt lat="45.147110" lon="5.311451">
        <ele>277.46982</ele>
        <time>2021-06-30T09:42:29Z</time>
      </trkpt>
      <trkpt lat="45.147179" lon="5.311544">
        <ele>276.11069</ele>
        <time>2021-06-30T09:42:30Z</time>
      </trkpt>
      <trkpt lat="45.147247" lon="5.311639">
        <ele>276.63095</ele>
        <time>2021-06-30T09:42:31Z</time>
      </trkpt>
      <trkpt lat="45.147316" lon="5.311729">
        <ele>276.89020</ele>
        <time>2021-06-30T09:42:32Z</time>
      </trkpt>
      <trkpt lat="45.147385" lon="5.311823">
        <ele>277.37939</ele>
        <time>2021-06-30T09:42:33Z</time>
      </trkpt>
      <trkpt lat="45.147453" lon="5.311918">
        <ele>277.72192</ele>
        <time>2021-06-30T09:42:34Z</time>
      </trkpt>
      <trkpt lat="45.147530" lon="5.312019">
        <ele>277.41718</ele>
        <time>2021-06-30T09:42:35Z</time>
      </trkpt>
      <trkpt lat="45.147610" lon="5.312127">
        <ele>277.53418</ele>
        <time>2021-06-30T09:42:36Z</time>
      </trkpt>
      <trkpt lat="45.147675" lon="5.312217">
        <ele>276.50342</ele>
        <time>2021-06-30T09:42:37Z</time>
      </trkpt>
      <trkpt lat="45.147736" lon="5.312305">
        <ele>275.36584</ele>
        <time>2021-06-30T09:42:38Z</time>
      </trkpt>
      <trkpt lat="45.147816" lon="5.312422">
        <ele>276.20776</ele>
        <time>2021-06-30T09:42:39Z</time>
      </trkpt>
      <trkpt lat="45.147896" lon="5.312557">
        <ele>275.76404</ele>
        <time>2021-06-30T09:42:40Z</time>
      </trkpt>
      <trkpt lat="45.147972" lon="5.312676">
        <ele>276.54639</ele>
        <time>2021-06-30T09:42:41Z</time>
      </trkpt>
      <trkpt lat="45.148041" lon="5.312777">
        <ele>276.51794</ele>
        <time>2021-06-30T09:42:42Z</time>
      </trkpt>
      <trkpt lat="45.148113" lon="5.312882">
        <ele>275.83063</ele>
        <time>2021-06-30T09:42:43Z</time>
      </trkpt>
      <trkpt lat="45.148190" lon="5.312990">
        <ele>275.82886</ele>
        <time>2021-06-30T09:42:44Z</time>
      </trkpt>
      <trkpt lat="45.148258" lon="5.313089">
        <ele>275.93054</ele>
        <time>2021-06-30T09:42:45Z</time>
      </trkpt>
      <trkpt lat="45.148319" lon="5.313170">
        <ele>276.02747</ele>
        <time>2021-06-30T09:42:46Z</time>
      </trkpt>
      <trkpt lat="45.148384" lon="5.313258">
        <ele>275.40149</ele>
        <time>2021-06-30T09:42:47Z</time>
      </trkpt>
      <trkpt lat="45.148453" lon="5.313349">
        <ele>275.49255</ele>
        <time>2021-06-30T09:42:48Z</time>
      </trkpt>
      <trkpt lat="45.148453" lon="5.313349">
        <ele>275.50134</ele>
        <time>2021-06-30T09:42:49Z</time>
      </trkpt>
      <trkpt lat="45.148518" lon="5.313435">
        <ele>274.39240</ele>
        <time>2021-06-30T09:42:50Z</time>
      </trkpt>
      <trkpt lat="45.148571" lon="5.313508">
        <ele>274.47888</ele>
        <time>2021-06-30T09:42:51Z</time>
      </trkpt>
      <trkpt lat="45.148640" lon="5.313605">
        <ele>275.39966</ele>
        <time>2021-06-30T09:42:52Z</time>
      </trkpt>
      <trkpt lat="45.148720" lon="5.313670">
        <ele>274.66516</ele>
        <time>2021-06-30T09:42:52Z</time>
      </trkpt>
      <trkpt lat="45.148781" lon="5.313755">
        <ele>276.04114</ele>
        <time>2021-06-30T09:42:54Z</time>
      </trkpt>
      <trkpt lat="45.148830" lon="5.313822">
        <ele>275.65308</ele>
        <time>2021-06-30T09:42:55Z</time>
      </trkpt>
      <trkpt lat="45.148899" lon="5.313917">
        <ele>275.06458</ele>
        <time>2021-06-30T09:42:56Z</time>
      </trkpt>
      <trkpt lat="45.148956" lon="5.313997">
        <ele>285.41058</ele>
        <time>2021-06-30T09:42:57Z</time>
      </trkpt>
      <trkpt lat="45.149029" lon="5.314094">
        <ele>281.16785</ele>
        <time>2021-06-30T09:42:58Z</time>
      </trkpt>
      <trkpt lat="45.149090" lon="5.314175">
        <ele>279.79181</ele>
        <time>2021-06-30T09:42:59Z</time>
      </trkpt>
      <trkpt lat="45.149162" lon="5.314279">
        <ele>278.65381</ele>
        <time>2021-06-30T09:43:00Z</time>
      </trkpt>
      <trkpt lat="45.149242" lon="5.314392">
        <ele>278.24902</ele>
        <time>2021-06-30T09:43:01Z</time>
      </trkpt>
      <trkpt lat="45.149323" lon="5.314501">
        <ele>277.53534</ele>
        <time>2021-06-30T09:43:02Z</time>
      </trkpt>
      <trkpt lat="45.149391" lon="5.314595">
        <ele>277.07629</ele>
        <time>2021-06-30T09:43:03Z</time>
      </trkpt>
      <trkpt lat="45.149464" lon="5.314693">
        <ele>277.10828</ele>
        <time>2021-06-30T09:43:04Z</time>
      </trkpt>
      <trkpt lat="45.149540" lon="5.314799">
        <ele>276.92297</ele>
        <time>2021-06-30T09:43:05Z</time>
      </trkpt>
      <trkpt lat="45.149612" lon="5.314899">
        <ele>277.93127</ele>
        <time>2021-06-30T09:43:06Z</time>
      </trkpt>
      <trkpt lat="45.149693" lon="5.315007">
        <ele>278.00873</ele>
        <time>2021-06-30T09:43:07Z</time>
      </trkpt>
      <trkpt lat="45.149769" lon="5.315109">
        <ele>278.28442</ele>
        <time>2021-06-30T09:43:08Z</time>
      </trkpt>
      <trkpt lat="45.149841" lon="5.315208">
        <ele>277.85803</ele>
        <time>2021-06-30T09:43:09Z</time>
      </trkpt>
      <trkpt lat="45.149906" lon="5.315300">
        <ele>277.53900</ele>
        <time>2021-06-30T09:43:10Z</time>
      </trkpt>
      <trkpt lat="45.149982" lon="5.315404">
        <ele>277.75220</ele>
        <time>2021-06-30T09:43:11Z</time>
      </trkpt>
      <trkpt lat="45.150059" lon="5.315508">
        <ele>277.27405</ele>
        <time>2021-06-30T09:43:12Z</time>
      </trkpt>
      <trkpt lat="45.150108" lon="5.315570">
        <ele>277.12689</ele>
        <time>2021-06-30T09:43:13Z</time>
      </trkpt>
      <trkpt lat="45.150135" lon="5.315602">
        <ele>277.08228</ele>
        <time>2021-06-30T09:43:14Z</time>
      </trkpt>
      <trkpt lat="45.150166" lon="5.315645">
        <ele>277.62347</ele>
        <time>2021-06-30T09:43:15Z</time>
      </trkpt>
      <trkpt lat="45.150097" lon="5.315756">
        <ele>278.53802</ele>
        <time>2021-06-30T09:43:16Z</time>
      </trkpt>
      <trkpt lat="45.149979" lon="5.315944">
        <ele>279.49854</ele>
        <time>2021-06-30T09:43:17Z</time>
      </trkpt>
      <trkpt lat="45.149902" lon="5.316073">
        <ele>279.39960</ele>
        <time>2021-06-30T09:43:18Z</time>
      </trkpt>
      <trkpt lat="45.149841" lon="5.316183">
        <ele>279.52551</ele>
        <time>2021-06-30T09:43:19Z</time>
      </trkpt>
      <trkpt lat="45.149784" lon="5.316282">
        <ele>279.14465</ele>
        <time>2021-06-30T09:43:20Z</time>
      </trkpt>
      <trkpt lat="45.149746" lon="5.316350">
        <ele>278.94983</ele>
        <time>2021-06-30T09:43:21Z</time>
      </trkpt>
      <trkpt lat="45.149715" lon="5.316405">
        <ele>278.48938</ele>
        <time>2021-06-30T09:43:22Z</time>
      </trkpt>
      <trkpt lat="45.149696" lon="5.316433">
        <ele>278.42090</ele>
        <time>2021-06-30T09:43:23Z</time>
      </trkpt>
      <trkpt lat="45.149681" lon="5.316460">
        <ele>277.34576</ele>
        <time>2021-06-30T09:43:24Z</time>
      </trkpt>
      <trkpt lat="45.149639" lon="5.316538">
        <ele>277.78558</ele>
        <time>2021-06-30T09:43:25Z</time>
      </trkpt>
      <trkpt lat="45.149570" lon="5.316559">
        <ele>277.73254</ele>
        <time>2021-06-30T09:43:26Z</time>
      </trkpt>
      <trkpt lat="45.149570" lon="5.316559">
        <ele>277.15057</ele>
        <time>2021-06-30T09:43:27Z</time>
      </trkpt>
      <trkpt lat="45.149456" lon="5.316620">
        <ele>277.06836</ele>
        <time>2021-06-30T09:43:28Z</time>
      </trkpt>
      <trkpt lat="45.149437" lon="5.316653">
        <ele>277.59521</ele>
        <time>2021-06-30T09:43:29Z</time>
      </trkpt>
      <trkpt lat="45.149426" lon="5.316761">
        <ele>276.22357</ele>
        <time>2021-06-30T09:43:30Z</time>
      </trkpt>
      <trkpt lat="45.149429" lon="5.316843">
        <ele>275.70459</ele>
        <time>2021-06-30T09:43:31Z</time>
      </trkpt>
      <trkpt lat="45.149288" lon="5.316957">
        <ele>276.37390</ele>
        <time>2021-06-30T09:43:32Z</time>
      </trkpt>
      <trkpt lat="45.149181" lon="5.317050">
        <ele>276.58441</ele>
        <time>2021-06-30T09:43:33Z</time>
      </trkpt>
      <trkpt lat="45.149063" lon="5.317148">
        <ele>277.28265</ele>
        <time>2021-06-30T09:43:34Z</time>
      </trkpt>
      <trkpt lat="45.148937" lon="5.317255">
        <ele>278.13232</ele>
        <time>2021-06-30T09:43:35Z</time>
      </trkpt>
      <trkpt lat="45.148846" lon="5.317353">
        <ele>279.04596</ele>
        <time>2021-06-30T09:43:36Z</time>
      </trkpt>
      <trkpt lat="45.148754" lon="5.317450">
        <ele>279.94226</ele>
        <time>2021-06-30T09:43:37Z</time>
      </trkpt>
      <trkpt lat="45.148666" lon="5.317543">
        <ele>281.18298</ele>
        <time>2021-06-30T09:43:38Z</time>
      </trkpt>
      <trkpt lat="45.148582" lon="5.317632">
        <ele>280.99524</ele>
        <time>2021-06-30T09:43:39Z</time>
      </trkpt>
      <trkpt lat="45.148502" lon="5.317716">
        <ele>281.48657</ele>
        <time>2021-06-30T09:43:39Z</time>
      </trkpt>
      <trkpt lat="45.148430" lon="5.317794">
        <ele>282.95349</ele>
        <time>2021-06-30T09:43:40Z</time>
      </trkpt>
      <trkpt lat="45.148342" lon="5.317879">
        <ele>283.61743</ele>
        <time>2021-06-30T09:43:41Z</time>
      </trkpt>
      <trkpt lat="45.148258" lon="5.317975">
        <ele>284.31146</ele>
        <time>2021-06-30T09:43:42Z</time>
      </trkpt>
      <trkpt lat="45.148178" lon="5.318065">
        <ele>284.09747</ele>
        <time>2021-06-30T09:43:43Z</time>
      </trkpt>
      <trkpt lat="45.148102" lon="5.318151">
        <ele>283.58887</ele>
        <time>2021-06-30T09:43:44Z</time>
      </trkpt>
      <trkpt lat="45.148026" lon="5.318265">
        <ele>282.90442</ele>
        <time>2021-06-30T09:43:45Z</time>
      </trkpt>
      <trkpt lat="45.147976" lon="5.318400">
        <ele>281.83105</ele>
        <time>2021-06-30T09:43:46Z</time>
      </trkpt>
      <trkpt lat="45.147953" lon="5.318564">
        <ele>281.76453</ele>
        <time>2021-06-30T09:43:47Z</time>
      </trkpt>
      <trkpt lat="45.147972" lon="5.318730">
        <ele>281.32617</ele>
        <time>2021-06-30T09:43:48Z</time>
      </trkpt>
      <trkpt lat="45.148018" lon="5.318877">
        <ele>280.86798</ele>
        <time>2021-06-30T09:43:49Z</time>
      </trkpt>
      <trkpt lat="45.148094" lon="5.318987">
        <ele>280.23621</ele>
        <time>2021-06-30T09:43:50Z</time>
      </trkpt>
      <trkpt lat="45.148190" lon="5.319097">
        <ele>278.87109</ele>
        <time>2021-06-30T09:43:51Z</time>
      </trkpt>
      <trkpt lat="45.148281" lon="5.319182">
        <ele>278.93549</ele>
        <time>2021-06-30T09:43:52Z</time>
      </trkpt>
      <trkpt lat="45.148369" lon="5.319264">
        <ele>279.00378</ele>
        <time>2021-06-30T09:43:53Z</time>
      </trkpt>
      <trkpt lat="45.148457" lon="5.319355">
        <ele>278.93567</ele>
        <time>2021-06-30T09:43:54Z</time>
      </trkpt>
      <trkpt lat="45.148552" lon="5.319448">
        <ele>278.64325</ele>
        <time>2021-06-30T09:43:55Z</time>
      </trkpt>
      <trkpt lat="45.148640" lon="5.319535">
        <ele>278.69226</ele>
        <time>2021-06-30T09:43:56Z</time>
      </trkpt>
      <trkpt lat="45.148720" lon="5.319641">
        <ele>278.94110</ele>
        <time>2021-06-30T09:43:57Z</time>
      </trkpt>
      <trkpt lat="45.148792" lon="5.319775">
        <ele>278.28546</ele>
        <time>2021-06-30T09:43:58Z</time>
      </trkpt>
      <trkpt lat="45.148792" lon="5.319775">
        <ele>279.47473</ele>
        <time>2021-06-30T09:43:59Z</time>
      </trkpt>
      <trkpt lat="45.148861" lon="5.319932">
        <ele>280.99091</ele>
        <time>2021-06-30T09:44:00Z</time>
      </trkpt>
      <trkpt lat="45.148933" lon="5.320063">
        <ele>281.25934</ele>
        <time>2021-06-30T09:44:01Z</time>
      </trkpt>
      <trkpt lat="45.148972" lon="5.320198">
        <ele>280.92902</ele>
        <time>2021-06-30T09:44:03Z</time>
      </trkpt>
      <trkpt lat="45.148998" lon="5.320302">
        <ele>280.96814</ele>
        <time>2021-06-30T09:44:03Z</time>
      </trkpt>
      <trkpt lat="45.149017" lon="5.320400">
        <ele>280.87213</ele>
        <time>2021-06-30T09:44:04Z</time>
      </trkpt>
      <trkpt lat="45.149025" lon="5.320457">
        <ele>281.45453</ele>
        <time>2021-06-30T09:44:05Z</time>
      </trkpt>
      <trkpt lat="45.149036" lon="5.320513">
        <ele>281.87219</ele>
        <time>2021-06-30T09:44:06Z</time>
      </trkpt>
      <trkpt lat="45.149036" lon="5.320586">
        <ele>281.51843</ele>
        <time>2021-06-30T09:44:07Z</time>
      </trkpt>
      <trkpt lat="45.149033" lon="5.320690">
        <ele>281.80774</ele>
        <time>2021-06-30T09:44:08Z</time>
      </trkpt>
      <trkpt lat="45.149006" lon="5.320793">
        <ele>280.71063</ele>
        <time>2021-06-30T09:44:09Z</time>
      </trkpt>
      <trkpt lat="45.148972" lon="5.320916">
        <ele>280.12964</ele>
        <time>2021-06-30T09:44:10Z</time>
      </trkpt>
      <trkpt lat="45.148926" lon="5.321036">
        <ele>279.48425</ele>
        <time>2021-06-30T09:44:11Z</time>
      </trkpt>
      <trkpt lat="45.148872" lon="5.321153">
        <ele>279.85651</ele>
        <time>2021-06-30T09:44:12Z</time>
      </trkpt>
      <trkpt lat="45.148823" lon="5.321275">
        <ele>280.17169</ele>
        <time>2021-06-30T09:44:13Z</time>
      </trkpt>
      <trkpt lat="45.148781" lon="5.321375">
        <ele>280.55249</ele>
        <time>2021-06-30T09:44:14Z</time>
      </trkpt>
      <trkpt lat="45.148724" lon="5.321508">
        <ele>280.72711</ele>
        <time>2021-06-30T09:44:15Z</time>
      </trkpt>
      <trkpt lat="45.148663" lon="5.321651">
        <ele>280.47192</ele>
        <time>2021-06-30T09:44:16Z</time>
      </trkpt>
      <trkpt lat="45.148598" lon="5.321788">
        <ele>280.72351</ele>
        <time>2021-06-30T09:44:17Z</time>
      </trkpt>
      <trkpt lat="45.148521" lon="5.321936">
        <ele>280.76495</ele>
        <time>2021-06-30T09:44:18Z</time>
      </trkpt>
      <trkpt lat="45.148449" lon="5.322079">
        <ele>281.09998</ele>
        <time>2021-06-30T09:44:19Z</time>
      </trkpt>
      <trkpt lat="45.148369" lon="5.322235">
        <ele>280.99487</ele>
        <time>2021-06-30T09:44:20Z</time>
      </trkpt>
      <trkpt lat="45.148281" lon="5.322387">
        <ele>280.96313</ele>
        <time>2021-06-30T09:44:21Z</time>
      </trkpt>
      <trkpt lat="45.148186" lon="5.322535">
        <ele>280.77802</ele>
        <time>2021-06-30T09:44:22Z</time>
      </trkpt>
      <trkpt lat="45.148075" lon="5.322696">
        <ele>281.34497</ele>
        <time>2021-06-30T09:44:23Z</time>
      </trkpt>
      <trkpt lat="45.147980" lon="5.322834">
        <ele>282.27576</ele>
        <time>2021-06-30T09:44:24Z</time>
      </trkpt>
      <trkpt lat="45.147881" lon="5.322979">
        <ele>282.06213</ele>
        <time>2021-06-30T09:44:25Z</time>
      </trkpt>
      <trkpt lat="45.147778" lon="5.323130">
        <ele>282.02197</ele>
        <time>2021-06-30T09:44:26Z</time>
      </trkpt>
      <trkpt lat="45.147686" lon="5.323262">
        <ele>281.61926</ele>
        <time>2021-06-30T09:44:27Z</time>
      </trkpt>
      <trkpt lat="45.147602" lon="5.323391">
        <ele>281.57764</ele>
        <time>2021-06-30T09:44:28Z</time>
      </trkpt>
      <trkpt lat="45.147511" lon="5.323524">
        <ele>282.07526</ele>
        <time>2021-06-30T09:44:29Z</time>
      </trkpt>
      <trkpt lat="45.147434" lon="5.323635">
        <ele>282.56250</ele>
        <time>2021-06-30T09:44:30Z</time>
      </trkpt>
      <trkpt lat="45.147346" lon="5.323754">
        <ele>282.30548</ele>
        <time>2021-06-30T09:44:31Z</time>
      </trkpt>
      <trkpt lat="45.147263" lon="5.323876">
        <ele>281.98804</ele>
        <time>2021-06-30T09:44:32Z</time>
      </trkpt>
      <trkpt lat="45.147179" lon="5.323991">
        <ele>281.49762</ele>
        <time>2021-06-30T09:44:33Z</time>
      </trkpt>
      <trkpt lat="45.147095" lon="5.324120">
        <ele>281.94672</ele>
        <time>2021-06-30T09:44:34Z</time>
      </trkpt>
      <trkpt lat="45.147095" lon="5.324120">
        <ele>281.29871</ele>
        <time>2021-06-30T09:44:35Z</time>
      </trkpt>
      <trkpt lat="45.147007" lon="5.324248">
        <ele>281.06396</ele>
        <time>2021-06-30T09:44:36Z</time>
      </trkpt>
      <trkpt lat="45.146935" lon="5.324398">
        <ele>282.41809</ele>
        <time>2021-06-30T09:44:37Z</time>
      </trkpt>
      <trkpt lat="45.146854" lon="5.324559">
        <ele>282.55542</ele>
        <time>2021-06-30T09:44:38Z</time>
      </trkpt>
      <trkpt lat="45.146778" lon="5.324712">
        <ele>282.76147</ele>
        <time>2021-06-30T09:44:39Z</time>
      </trkpt>
      <trkpt lat="45.146702" lon="5.324864">
        <ele>283.21063</ele>
        <time>2021-06-30T09:44:40Z</time>
      </trkpt>
      <trkpt lat="45.146629" lon="5.325008">
        <ele>282.50159</ele>
        <time>2021-06-30T09:44:41Z</time>
      </trkpt>
      <trkpt lat="45.146561" lon="5.325152">
        <ele>282.09637</ele>
        <time>2021-06-30T09:44:42Z</time>
      </trkpt>
      <trkpt lat="45.146500" lon="5.325294">
        <ele>282.07416</ele>
        <time>2021-06-30T09:44:43Z</time>
      </trkpt>
      <trkpt lat="45.146427" lon="5.325445">
        <ele>282.07300</ele>
        <time>2021-06-30T09:44:44Z</time>
      </trkpt>
      <trkpt lat="45.146358" lon="5.325585">
        <ele>282.27209</ele>
        <time>2021-06-30T09:44:45Z</time>
      </trkpt>
      <trkpt lat="45.146294" lon="5.325721">
        <ele>282.22595</ele>
        <time>2021-06-30T09:44:46Z</time>
      </trkpt>
      <trkpt lat="45.146233" lon="5.325864">
        <ele>282.17957</ele>
        <time>2021-06-30T09:44:47Z</time>
      </trkpt>
      <trkpt lat="45.146160" lon="5.325995">
        <ele>282.06348</ele>
        <time>2021-06-30T09:44:48Z</time>
      </trkpt>
      <trkpt lat="45.146095" lon="5.326085">
        <ele>283.32776</ele>
        <time>2021-06-30T09:44:49Z</time>
      </trkpt>
      <trkpt lat="45.146011" lon="5.326161">
        <ele>282.61743</ele>
        <time>2021-06-30T09:44:50Z</time>
      </trkpt>
      <trkpt lat="45.145924" lon="5.326219">
        <ele>282.31982</ele>
        <time>2021-06-30T09:44:51Z</time>
      </trkpt>
      <trkpt lat="45.145836" lon="5.326269">
        <ele>282.18591</ele>
        <time>2021-06-30T09:44:52Z</time>
      </trkpt>
      <trkpt lat="45.145744" lon="5.326306">
        <ele>281.54077</ele>
        <time>2021-06-30T09:44:53Z</time>
      </trkpt>
      <trkpt lat="45.145657" lon="5.326337">
        <ele>281.30774</ele>
        <time>2021-06-30T09:44:54Z</time>
      </trkpt>
      <trkpt lat="45.145573" lon="5.326368">
        <ele>280.86755</ele>
        <time>2021-06-30T09:44:55Z</time>
      </trkpt>
      <trkpt lat="45.145485" lon="5.326400">
        <ele>280.65192</ele>
        <time>2021-06-30T09:44:56Z</time>
      </trkpt>
      <trkpt lat="45.145393" lon="5.326433">
        <ele>279.23071</ele>
        <time>2021-06-30T09:44:57Z</time>
      </trkpt>
      <trkpt lat="45.145298" lon="5.326467">
        <ele>279.19604</ele>
        <time>2021-06-30T09:44:58Z</time>
      </trkpt>
      <trkpt lat="45.145203" lon="5.326501">
        <ele>278.57373</ele>
        <time>2021-06-30T09:44:59Z</time>
      </trkpt>
      <trkpt lat="45.145103" lon="5.326536">
        <ele>278.44006</ele>
        <time>2021-06-30T09:45:00Z</time>
      </trkpt>
      <trkpt lat="45.145008" lon="5.326573">
        <ele>278.33093</ele>
        <time>2021-06-30T09:45:01Z</time>
      </trkpt>
      <trkpt lat="45.144920" lon="5.326609">
        <ele>278.62427</ele>
        <time>2021-06-30T09:45:02Z</time>
      </trkpt>
      <trkpt lat="45.144840" lon="5.326644">
        <ele>278.92371</ele>
        <time>2021-06-30T09:45:03Z</time>
      </trkpt>
      <trkpt lat="45.144775" lon="5.326671">
        <ele>279.07275</ele>
        <time>2021-06-30T09:45:04Z</time>
      </trkpt>
      <trkpt lat="45.144775" lon="5.326671">
        <ele>278.36511</ele>
        <time>2021-06-30T09:45:05Z</time>
      </trkpt>
      <trkpt lat="45.144707" lon="5.326703">
        <ele>278.13794</ele>
        <time>2021-06-30T09:45:06Z</time>
      </trkpt>
      <trkpt lat="45.144630" lon="5.326736">
        <ele>277.76404</ele>
        <time>2021-06-30T09:45:07Z</time>
      </trkpt>
      <trkpt lat="45.144566" lon="5.326766">
        <ele>277.36017</ele>
        <time>2021-06-30T09:45:08Z</time>
      </trkpt>
      <trkpt lat="45.144485" lon="5.326803">
        <ele>276.98425</ele>
        <time>2021-06-30T09:45:09Z</time>
      </trkpt>
      <trkpt lat="45.144375" lon="5.326846">
        <ele>274.36646</ele>
        <time>2021-06-30T09:45:10Z</time>
      </trkpt>
      <trkpt lat="45.144245" lon="5.326893">
        <ele>273.36340</ele>
        <time>2021-06-30T09:45:11Z</time>
      </trkpt>
      <trkpt lat="45.144146" lon="5.326927">
        <ele>273.47913</ele>
        <time>2021-06-30T09:45:12Z</time>
      </trkpt>
      <trkpt lat="45.144032" lon="5.326963">
        <ele>273.05493</ele>
        <time>2021-06-30T09:45:13Z</time>
      </trkpt>
      <trkpt lat="45.143909" lon="5.327004">
        <ele>272.57208</ele>
        <time>2021-06-30T09:45:14Z</time>
      </trkpt>
      <trkpt lat="45.143791" lon="5.327035">
        <ele>271.90723</ele>
        <time>2021-06-30T09:45:15Z</time>
      </trkpt>
      <trkpt lat="45.143654" lon="5.327035">
        <ele>271.09863</ele>
        <time>2021-06-30T09:45:16Z</time>
      </trkpt>
      <trkpt lat="45.143513" lon="5.326998">
        <ele>271.42712</ele>
        <time>2021-06-30T09:45:17Z</time>
      </trkpt>
      <trkpt lat="45.143349" lon="5.326908">
        <ele>271.08051</ele>
        <time>2021-06-30T09:45:18Z</time>
      </trkpt>
      <trkpt lat="45.143177" lon="5.326799">
        <ele>270.24402</ele>
        <time>2021-06-30T09:45:19Z</time>
      </trkpt>
      <trkpt lat="45.143024" lon="5.326698">
        <ele>269.69958</ele>
        <time>2021-06-30T09:45:20Z</time>
      </trkpt>
      <trkpt lat="45.142879" lon="5.326606">
        <ele>268.96619</ele>
        <time>2021-06-30T09:45:21Z</time>
      </trkpt>
      <trkpt lat="45.142738" lon="5.326520">
        <ele>268.39624</ele>
        <time>2021-06-30T09:45:22Z</time>
      </trkpt>
      <trkpt lat="45.142593" lon="5.326429">
        <ele>267.74609</ele>
        <time>2021-06-30T09:45:23Z</time>
      </trkpt>
      <trkpt lat="45.142452" lon="5.326340">
        <ele>267.69049</ele>
        <time>2021-06-30T09:45:24Z</time>
      </trkpt>
      <trkpt lat="45.142311" lon="5.326254">
        <ele>267.66809</ele>
        <time>2021-06-30T09:45:25Z</time>
      </trkpt>
      <trkpt lat="45.142159" lon="5.326158">
        <ele>266.85278</ele>
        <time>2021-06-30T09:45:26Z</time>
      </trkpt>
      <trkpt lat="45.141991" lon="5.326054">
        <ele>266.78821</ele>
        <time>2021-06-30T09:45:27Z</time>
      </trkpt>
      <trkpt lat="45.141838" lon="5.325958">
        <ele>266.25659</ele>
        <time>2021-06-30T09:45:28Z</time>
      </trkpt>
      <trkpt lat="45.141674" lon="5.325856">
        <ele>265.75012</ele>
        <time>2021-06-30T09:45:29Z</time>
      </trkpt>
      <trkpt lat="45.141502" lon="5.325751">
        <ele>265.06201</ele>
        <time>2021-06-30T09:45:30Z</time>
      </trkpt>
      <trkpt lat="45.141335" lon="5.325646">
        <ele>265.19934</ele>
        <time>2021-06-30T09:45:31Z</time>
      </trkpt>
      <trkpt lat="45.141174" lon="5.325547">
        <ele>264.41980</ele>
        <time>2021-06-30T09:45:32Z</time>
      </trkpt>
      <trkpt lat="45.141018" lon="5.325470">
        <ele>263.96558</ele>
        <time>2021-06-30T09:45:33Z</time>
      </trkpt>
      <trkpt lat="45.140869" lon="5.325436">
        <ele>264.12683</ele>
        <time>2021-06-30T09:45:34Z</time>
      </trkpt>
      <trkpt lat="45.140709" lon="5.325449">
        <ele>264.13586</ele>
        <time>2021-06-30T09:45:35Z</time>
      </trkpt>
      <trkpt lat="45.140560" lon="5.325526">
        <ele>263.21967</ele>
        <time>2021-06-30T09:45:36Z</time>
      </trkpt>
      <trkpt lat="45.140446" lon="5.325659">
        <ele>262.99280</ele>
        <time>2021-06-30T09:45:37Z</time>
      </trkpt>
      <trkpt lat="45.140343" lon="5.325823">
        <ele>261.97742</ele>
        <time>2021-06-30T09:45:38Z</time>
      </trkpt>
      <trkpt lat="45.140343" lon="5.325823">
        <ele>261.25385</ele>
        <time>2021-06-30T09:45:39Z</time>
      </trkpt>
      <trkpt lat="45.140221" lon="5.326039">
        <ele>260.28442</ele>
        <time>2021-06-30T09:45:40Z</time>
      </trkpt>
      <trkpt lat="45.140102" lon="5.326239">
        <ele>259.56458</ele>
        <time>2021-06-30T09:45:41Z</time>
      </trkpt>
      <trkpt lat="45.140007" lon="5.326406">
        <ele>259.08313</ele>
        <time>2021-06-30T09:45:42Z</time>
      </trkpt>
      <trkpt lat="45.139923" lon="5.326550">
        <ele>259.51782</ele>
        <time>2021-06-30T09:45:43Z</time>
      </trkpt>
      <trkpt lat="45.139854" lon="5.326668">
        <ele>259.69659</ele>
        <time>2021-06-30T09:45:44Z</time>
      </trkpt>
      <trkpt lat="45.139793" lon="5.326770">
        <ele>258.55737</ele>
        <time>2021-06-30T09:45:45Z</time>
      </trkpt>
      <trkpt lat="45.139732" lon="5.326868">
        <ele>258.80249</ele>
        <time>2021-06-30T09:45:46Z</time>
      </trkpt>
      <trkpt lat="45.139664" lon="5.326948">
        <ele>259.03278</ele>
        <time>2021-06-30T09:45:47Z</time>
      </trkpt>
      <trkpt lat="45.139580" lon="5.327026">
        <ele>257.24304</ele>
        <time>2021-06-30T09:45:48Z</time>
      </trkpt>
      <trkpt lat="45.139477" lon="5.327026">
        <ele>257.35620</ele>
        <time>2021-06-30T09:45:49Z</time>
      </trkpt>
      <trkpt lat="45.139381" lon="5.327045">
        <ele>257.91846</ele>
        <time>2021-06-30T09:45:50Z</time>
      </trkpt>
      <trkpt lat="45.139313" lon="5.327012">
        <ele>258.24268</ele>
        <time>2021-06-30T09:45:51Z</time>
      </trkpt>
      <trkpt lat="45.139225" lon="5.326955">
        <ele>259.21918</ele>
        <time>2021-06-30T09:45:52Z</time>
      </trkpt>
      <trkpt lat="45.139141" lon="5.326871">
        <ele>258.97949</ele>
        <time>2021-06-30T09:45:53Z</time>
      </trkpt>
      <trkpt lat="45.139065" lon="5.326795">
        <ele>257.79956</ele>
        <time>2021-06-30T09:45:54Z</time>
      </trkpt>
      <trkpt lat="45.138969" lon="5.326700">
        <ele>258.56268</ele>
        <time>2021-06-30T09:45:55Z</time>
      </trkpt>
      <trkpt lat="45.138870" lon="5.326597">
        <ele>258.35315</ele>
        <time>2021-06-30T09:45:56Z</time>
      </trkpt>
      <trkpt lat="45.138786" lon="5.326513">
        <ele>257.79272</ele>
        <time>2021-06-30T09:45:57Z</time>
      </trkpt>
      <trkpt lat="45.138702" lon="5.326429">
        <ele>257.90033</ele>
        <time>2021-06-30T09:45:58Z</time>
      </trkpt>
      <trkpt lat="45.138618" lon="5.326344">
        <ele>258.31897</ele>
        <time>2021-06-30T09:45:59Z</time>
      </trkpt>
      <trkpt lat="45.138538" lon="5.326266">
        <ele>258.46313</ele>
        <time>2021-06-30T09:46:00Z</time>
      </trkpt>
      <trkpt lat="45.138466" lon="5.326196">
        <ele>259.15222</ele>
        <time>2021-06-30T09:46:01Z</time>
      </trkpt>
      <trkpt lat="45.138412" lon="5.326143">
        <ele>259.49963</ele>
        <time>2021-06-30T09:46:02Z</time>
      </trkpt>
      <trkpt lat="45.138371" lon="5.326101">
        <ele>260.25024</ele>
        <time>2021-06-30T09:46:03Z</time>
      </trkpt>
      <trkpt lat="45.138351" lon="5.326083">
        <ele>260.01117</ele>
        <time>2021-06-30T09:46:04Z</time>
      </trkpt>
      <trkpt lat="45.138332" lon="5.326067">
        <ele>261.06787</ele>
        <time>2021-06-30T09:46:05Z</time>
      </trkpt>
      <trkpt lat="45.138325" lon="5.326058">
        <ele>260.79468</ele>
        <time>2021-06-30T09:46:06Z</time>
      </trkpt>
      <trkpt lat="45.138325" lon="5.326058">
        <ele>257.52029</ele>
        <time>2021-06-30T09:46:07Z</time>
      </trkpt>
      <trkpt lat="45.138325" lon="5.326058">
        <ele>257.57843</ele>
        <time>2021-06-30T09:46:08Z</time>
      </trkpt>
      <trkpt lat="45.138325" lon="5.326058">
        <ele>257.54114</ele>
        <time>2021-06-30T09:46:09Z</time>
      </trkpt>
      <trkpt lat="45.138325" lon="5.326058">
        <ele>257.55209</ele>
        <time>2021-06-30T09:46:10Z</time>
      </trkpt>
      <trkpt lat="45.138325" lon="5.326058">
        <ele>257.61307</ele>
        <time>2021-06-30T09:46:11Z</time>
      </trkpt>
      <trkpt lat="45.138325" lon="5.326058">
        <ele>257.66541</ele>
        <time>2021-06-30T09:46:12Z</time>
      </trkpt>
      <trkpt lat="45.138321" lon="5.326054">
        <ele>257.53214</ele>
        <time>2021-06-30T09:46:13Z</time>
      </trkpt>
      <trkpt lat="45.138130" lon="5.325868">
        <ele>257.61929</ele>
        <time>2021-06-30T09:46:14Z</time>
      </trkpt>
      <trkpt lat="45.138088" lon="5.325826">
        <ele>257.48047</ele>
        <time>2021-06-30T09:46:15Z</time>
      </trkpt>
      <trkpt lat="45.138027" lon="5.325765">
        <ele>257.49164</ele>
        <time>2021-06-30T09:46:16Z</time>
      </trkpt>
      <trkpt lat="45.137966" lon="5.325705">
        <ele>257.48181</ele>
        <time>2021-06-30T09:46:17Z</time>
      </trkpt>
      <trkpt lat="45.137905" lon="5.325647">
        <ele>257.59598</ele>
        <time>2021-06-30T09:46:18Z</time>
      </trkpt>
      <trkpt lat="45.137840" lon="5.325589">
        <ele>257.39346</ele>
        <time>2021-06-30T09:46:19Z</time>
      </trkpt>
      <trkpt lat="45.137768" lon="5.325522">
        <ele>257.32645</ele>
        <time>2021-06-30T09:46:20Z</time>
      </trkpt>
      <trkpt lat="45.137707" lon="5.325465">
        <ele>257.23428</ele>
        <time>2021-06-30T09:46:21Z</time>
      </trkpt>
      <trkpt lat="45.137638" lon="5.325404">
        <ele>257.31793</ele>
        <time>2021-06-30T09:46:22Z</time>
      </trkpt>
      <trkpt lat="45.137566" lon="5.325337">
        <ele>257.28738</ele>
        <time>2021-06-30T09:46:23Z</time>
      </trkpt>
      <trkpt lat="45.137505" lon="5.325279">
        <ele>257.01770</ele>
        <time>2021-06-30T09:46:24Z</time>
      </trkpt>
      <trkpt lat="45.137444" lon="5.325223">
        <ele>257.06979</ele>
        <time>2021-06-30T09:46:25Z</time>
      </trkpt>
      <trkpt lat="45.137375" lon="5.325159">
        <ele>256.98221</ele>
        <time>2021-06-30T09:46:26Z</time>
      </trkpt>
      <trkpt lat="45.137306" lon="5.325099">
        <ele>256.89725</ele>
        <time>2021-06-30T09:46:27Z</time>
      </trkpt>
      <trkpt lat="45.137241" lon="5.325036">
        <ele>256.91650</ele>
        <time>2021-06-30T09:46:28Z</time>
      </trkpt>
      <trkpt lat="45.137177" lon="5.324974">
        <ele>256.96780</ele>
        <time>2021-06-30T09:46:29Z</time>
      </trkpt>
      <trkpt lat="45.137112" lon="5.324913">
        <ele>256.89310</ele>
        <time>2021-06-30T09:46:30Z</time>
      </trkpt>
      <trkpt lat="45.137051" lon="5.324855">
        <ele>256.98923</ele>
        <time>2021-06-30T09:46:31Z</time>
      </trkpt>
      <trkpt lat="45.136986" lon="5.324796">
        <ele>256.91220</ele>
        <time>2021-06-30T09:46:32Z</time>
      </trkpt>
      <trkpt lat="45.136925" lon="5.324744">
        <ele>256.87051</ele>
        <time>2021-06-30T09:46:33Z</time>
      </trkpt>
      <trkpt lat="45.136860" lon="5.324688">
        <ele>256.95587</ele>
        <time>2021-06-30T09:46:34Z</time>
      </trkpt>
      <trkpt lat="45.136795" lon="5.324630">
        <ele>258.37256</ele>
        <time>2021-06-30T09:46:35Z</time>
      </trkpt>
      <trkpt lat="45.136726" lon="5.324578">
        <ele>258.81274</ele>
        <time>2021-06-30T09:46:36Z</time>
      </trkpt>
      <trkpt lat="45.136673" lon="5.324540">
        <ele>259.23987</ele>
        <time>2021-06-30T09:46:37Z</time>
      </trkpt>
      <trkpt lat="45.136642" lon="5.324517">
        <ele>260.10333</ele>
        <time>2021-06-30T09:46:38Z</time>
      </trkpt>
      <trkpt lat="45.136639" lon="5.324513">
        <ele>260.17322</ele>
        <time>2021-06-30T09:46:39Z</time>
      </trkpt>
      <trkpt lat="45.136639" lon="5.324513">
        <ele>261.06714</ele>
        <time>2021-06-30T09:46:40Z</time>
      </trkpt>
      <trkpt lat="45.136639" lon="5.324513">
        <ele>261.21680</ele>
        <time>2021-06-30T09:46:41Z</time>
      </trkpt>
      <trkpt lat="45.136639" lon="5.324513">
        <ele>260.66339</ele>
        <time>2021-06-30T09:46:42Z</time>
      </trkpt>
      <trkpt lat="45.136639" lon="5.324513">
        <ele>260.78088</ele>
        <time>2021-06-30T09:46:43Z</time>
      </trkpt>
      <trkpt lat="45.136639" lon="5.324513">
        <ele>261.06824</ele>
        <time>2021-06-30T09:46:44Z</time>
      </trkpt>
      <trkpt lat="45.136639" lon="5.324513">
        <ele>261.51062</ele>
        <time>2021-06-30T09:46:45Z</time>
      </trkpt>
      <trkpt lat="45.136639" lon="5.324513">
        <ele>261.89966</ele>
        <time>2021-06-30T09:46:46Z</time>
      </trkpt>
      <trkpt lat="45.136639" lon="5.324513">
        <ele>261.71460</ele>
        <time>2021-06-30T09:46:47Z</time>
      </trkpt>
      <trkpt lat="45.136639" lon="5.324513">
        <ele>261.74341</ele>
        <time>2021-06-30T09:46:48Z</time>
      </trkpt>
      <trkpt lat="45.136639" lon="5.324513">
        <ele>261.83618</ele>
        <time>2021-06-30T09:46:49Z</time>
      </trkpt>
      <trkpt lat="45.136639" lon="5.324513">
        <ele>261.38263</ele>
        <time>2021-06-30T09:46:50Z</time>
      </trkpt>
      <trkpt lat="45.136639" lon="5.324513">
        <ele>261.35803</ele>
        <time>2021-06-30T09:46:51Z</time>
      </trkpt>
      <trkpt lat="45.136639" lon="5.324513">
        <ele>261.60590</ele>
        <time>2021-06-30T09:46:52Z</time>
      </trkpt>
      <trkpt lat="45.136639" lon="5.324513">
        <ele>261.43237</ele>
        <time>2021-06-30T09:46:53Z</time>
      </trkpt>
      <trkpt lat="45.136639" lon="5.324513">
        <ele>261.61340</ele>
        <time>2021-06-30T09:46:54Z</time>
      </trkpt>
      <trkpt lat="45.136639" lon="5.324513">
        <ele>260.47205</ele>
        <time>2021-06-30T09:46:55Z</time>
      </trkpt>
      <trkpt lat="45.136639" lon="5.324513">
        <ele>258.14090</ele>
        <time>2021-06-30T09:46:56Z</time>
      </trkpt>
      <trkpt lat="45.136639" lon="5.324513">
        <ele>258.07520</ele>
        <time>2021-06-30T09:46:57Z</time>
      </trkpt>
      <trkpt lat="45.136639" lon="5.324513">
        <ele>258.08267</ele>
        <time>2021-06-30T09:46:58Z</time>
      </trkpt>
      <trkpt lat="45.136639" lon="5.324513">
        <ele>258.07663</ele>
        <time>2021-06-30T09:46:59Z</time>
      </trkpt>
      <trkpt lat="45.136639" lon="5.324513">
        <ele>258.16736</ele>
        <time>2021-06-30T09:47:00Z</time>
      </trkpt>
      <trkpt lat="45.136639" lon="5.324513">
        <ele>258.16458</ele>
        <time>2021-06-30T09:47:01Z</time>
      </trkpt>
      <trkpt lat="45.136639" lon="5.324513">
        <ele>258.24423</ele>
        <time>2021-06-30T09:47:02Z</time>
      </trkpt>
      <trkpt lat="45.136639" lon="5.324513">
        <ele>258.25046</ele>
        <time>2021-06-30T09:47:03Z</time>
      </trkpt>
      <trkpt lat="45.136639" lon="5.324513">
        <ele>258.35577</ele>
        <time>2021-06-30T09:47:04Z</time>
      </trkpt>
      <trkpt lat="45.136639" lon="5.324513">
        <ele>260.14178</ele>
        <time>2021-06-30T09:47:05Z</time>
      </trkpt>
      <trkpt lat="45.136639" lon="5.324513">
        <ele>260.53503</ele>
        <time>2021-06-30T09:47:06Z</time>
      </trkpt>
      <trkpt lat="45.136639" lon="5.324513">
        <ele>261.50085</ele>
        <time>2021-06-30T09:47:07Z</time>
      </trkpt>
      <trkpt lat="45.136639" lon="5.324513">
        <ele>261.67932</ele>
        <time>2021-06-30T09:47:08Z</time>
      </trkpt>
      <trkpt lat="45.136639" lon="5.324513">
        <ele>261.71472</ele>
        <time>2021-06-30T09:47:09Z</time>
      </trkpt>
      <trkpt lat="45.136639" lon="5.324513">
        <ele>261.80396</ele>
        <time>2021-06-30T09:47:10Z</time>
      </trkpt>
      <trkpt lat="45.136639" lon="5.324513">
        <ele>261.84265</ele>
        <time>2021-06-30T09:47:11Z</time>
      </trkpt>
      <trkpt lat="45.136639" lon="5.324513">
        <ele>261.85626</ele>
        <time>2021-06-30T09:47:12Z</time>
      </trkpt>
      <trkpt lat="45.136639" lon="5.324513">
        <ele>261.89001</ele>
        <time>2021-06-30T09:47:13Z</time>
      </trkpt>
      <trkpt lat="45.136639" lon="5.324513">
        <ele>261.90411</ele>
        <time>2021-06-30T09:47:14Z</time>
      </trkpt>
      <trkpt lat="45.136639" lon="5.324513">
        <ele>261.91602</ele>
        <time>2021-06-30T09:47:15Z</time>
      </trkpt>
      <trkpt lat="45.136639" lon="5.324513">
        <ele>261.92853</ele>
        <time>2021-06-30T09:47:16Z</time>
      </trkpt>
      <trkpt lat="45.136639" lon="5.324513">
        <ele>261.92780</ele>
        <time>2021-06-30T09:47:17Z</time>
      </trkpt>
      <trkpt lat="45.136639" lon="5.324513">
        <ele>261.93884</ele>
        <time>2021-06-30T09:47:18Z</time>
      </trkpt>
      <trkpt lat="45.136639" lon="5.324513">
        <ele>261.93964</ele>
        <time>2021-06-30T09:47:19Z</time>
      </trkpt>
      <trkpt lat="45.136639" lon="5.324513">
        <ele>261.93713</ele>
        <time>2021-06-30T09:47:20Z</time>
      </trkpt>
      <trkpt lat="45.136639" lon="5.324513">
        <ele>261.93762</ele>
        <time>2021-06-30T09:47:21Z</time>
      </trkpt>
      <trkpt lat="45.136639" lon="5.324513">
        <ele>261.93201</ele>
        <time>2021-06-30T09:47:22Z</time>
      </trkpt>
      <trkpt lat="45.136639" lon="5.324513">
        <ele>261.92572</ele>
        <time>2021-06-30T09:47:23Z</time>
      </trkpt>
      <trkpt lat="45.136639" lon="5.324513">
        <ele>261.92102</ele>
        <time>2021-06-30T09:47:24Z</time>
      </trkpt>
      <trkpt lat="45.136639" lon="5.324513">
        <ele>261.92596</ele>
        <time>2021-06-30T09:47:25Z</time>
      </trkpt>
      <trkpt lat="45.136639" lon="5.324513">
        <ele>261.92078</ele>
        <time>2021-06-30T09:47:26Z</time>
      </trkpt>
      <trkpt lat="45.136639" lon="5.324513">
        <ele>261.92456</ele>
        <time>2021-06-30T09:47:27Z</time>
      </trkpt>
      <trkpt lat="45.136639" lon="5.324513">
        <ele>261.92908</ele>
        <time>2021-06-30T09:47:28Z</time>
      </trkpt>
      <trkpt lat="45.136639" lon="5.324513">
        <ele>261.93140</ele>
        <time>2021-06-30T09:47:29Z</time>
      </trkpt>
      <trkpt lat="45.136639" lon="5.324513">
        <ele>261.93243</ele>
        <time>2021-06-30T09:47:30Z</time>
      </trkpt>
      <trkpt lat="45.136639" lon="5.324513">
        <ele>261.71564</ele>
        <time>2021-06-30T09:47:31Z</time>
      </trkpt>
      <trkpt lat="45.136639" lon="5.324513">
        <ele>261.75598</ele>
        <time>2021-06-30T09:47:32Z</time>
      </trkpt>
      <trkpt lat="45.136639" lon="5.324513">
        <ele>261.51971</ele>
        <time>2021-06-30T09:47:33Z</time>
      </trkpt>
      <trkpt lat="45.136620" lon="5.324501">
        <ele>261.13428</ele>
        <time>2021-06-30T09:47:34Z</time>
      </trkpt>
      <trkpt lat="45.136604" lon="5.324489">
        <ele>261.19458</ele>
        <time>2021-06-30T09:47:35Z</time>
      </trkpt>
      <trkpt lat="45.136604" lon="5.324489">
        <ele>260.95172</ele>
        <time>2021-06-30T09:47:37Z</time>
      </trkpt>
      <trkpt lat="45.136604" lon="5.324489">
        <ele>260.21973</ele>
        <time>2021-06-30T09:47:37Z</time>
      </trkpt>
      <trkpt lat="45.136604" lon="5.324489">
        <ele>260.17041</ele>
        <time>2021-06-30T09:47:38Z</time>
      </trkpt>
      <trkpt lat="45.136604" lon="5.324489">
        <ele>261.03589</ele>
        <time>2021-06-30T09:47:39Z</time>
      </trkpt>
      <trkpt lat="45.136604" lon="5.324489">
        <ele>260.15604</ele>
        <time>2021-06-30T09:47:40Z</time>
      </trkpt>
      <trkpt lat="45.136604" lon="5.324489">
        <ele>260.13675</ele>
        <time>2021-06-30T09:47:41Z</time>
      </trkpt>
      <trkpt lat="45.136604" lon="5.324489">
        <ele>260.81757</ele>
        <time>2021-06-30T09:47:42Z</time>
      </trkpt>
      <trkpt lat="45.136604" lon="5.324489">
        <ele>260.87372</ele>
        <time>2021-06-30T09:47:43Z</time>
      </trkpt>
      <trkpt lat="45.136604" lon="5.324489">
        <ele>261.02771</ele>
        <time>2021-06-30T09:47:44Z</time>
      </trkpt>
      <trkpt lat="45.136604" lon="5.324489">
        <ele>260.26508</ele>
        <time>2021-06-30T09:47:45Z</time>
      </trkpt>
      <trkpt lat="45.136604" lon="5.324489">
        <ele>260.22766</ele>
        <time>2021-06-30T09:47:46Z</time>
      </trkpt>
      <trkpt lat="45.136604" lon="5.324489">
        <ele>260.36346</ele>
        <time>2021-06-30T09:47:47Z</time>
      </trkpt>
      <trkpt lat="45.136604" lon="5.324489">
        <ele>260.32864</ele>
        <time>2021-06-30T09:47:48Z</time>
      </trkpt>
      <trkpt lat="45.136604" lon="5.324489">
        <ele>260.47327</ele>
        <time>2021-06-30T09:47:49Z</time>
      </trkpt>
      <trkpt lat="45.136604" lon="5.324489">
        <ele>260.34183</ele>
        <time>2021-06-30T09:47:50Z</time>
      </trkpt>
      <trkpt lat="45.136604" lon="5.324489">
        <ele>260.42218</ele>
        <time>2021-06-30T09:47:51Z</time>
      </trkpt>
      <trkpt lat="45.136604" lon="5.324489">
        <ele>260.45264</ele>
        <time>2021-06-30T09:47:52Z</time>
      </trkpt>
      <trkpt lat="45.136604" lon="5.324489">
        <ele>260.44025</ele>
        <time>2021-06-30T09:47:53Z</time>
      </trkpt>
      <trkpt lat="45.136604" lon="5.324489">
        <ele>260.40411</ele>
        <time>2021-06-30T09:47:54Z</time>
      </trkpt>
      <trkpt lat="45.136604" lon="5.324489">
        <ele>261.01355</ele>
        <time>2021-06-30T09:47:55Z</time>
      </trkpt>
      <trkpt lat="45.136604" lon="5.324489">
        <ele>261.21387</ele>
        <time>2021-06-30T09:47:56Z</time>
      </trkpt>
      <trkpt lat="45.136604" lon="5.324489">
        <ele>261.30090</ele>
        <time>2021-06-30T09:47:57Z</time>
      </trkpt>
      <trkpt lat="45.136604" lon="5.324489">
        <ele>261.72656</ele>
        <time>2021-06-30T09:47:59Z</time>
      </trkpt>
      <trkpt lat="45.136593" lon="5.324480">
        <ele>261.85437</ele>
        <time>2021-06-30T09:47:59Z</time>
      </trkpt>
      <trkpt lat="45.136547" lon="5.324447">
        <ele>260.35229</ele>
        <time>2021-06-30T09:48:00Z</time>
      </trkpt>
      <trkpt lat="45.136497" lon="5.324412">
        <ele>259.70886</ele>
        <time>2021-06-30T09:48:01Z</time>
      </trkpt>
      <trkpt lat="45.136333" lon="5.324290">
        <ele>259.59790</ele>
        <time>2021-06-30T09:48:02Z</time>
      </trkpt>
      <trkpt lat="45.136169" lon="5.324171">
        <ele>261.89746</ele>
        <time>2021-06-30T09:48:03Z</time>
      </trkpt>
      <trkpt lat="45.135918" lon="5.323988">
        <ele>263.13800</ele>
        <time>2021-06-30T09:48:04Z</time>
      </trkpt>
      <trkpt lat="45.135536" lon="5.323636">
        <ele>264.21100</ele>
        <time>2021-06-30T09:48:05Z</time>
      </trkpt>
      <trkpt lat="45.135426" lon="5.323499">
        <ele>264.98291</ele>
        <time>2021-06-30T09:48:06Z</time>
      </trkpt>
      <trkpt lat="45.135288" lon="5.323306">
        <ele>265.91589</ele>
        <time>2021-06-30T09:48:08Z</time>
      </trkpt>
      <trkpt lat="45.135174" lon="5.323068">
        <ele>266.39575</ele>
        <time>2021-06-30T09:48:09Z</time>
      </trkpt>
      <trkpt lat="45.135044" lon="5.322798">
        <ele>266.75177</ele>
        <time>2021-06-30T09:48:10Z</time>
      </trkpt>
      <trkpt lat="45.134914" lon="5.322512">
        <ele>267.41882</ele>
        <time>2021-06-30T09:48:11Z</time>
      </trkpt>
      <trkpt lat="45.134766" lon="5.322233">
        <ele>267.50885</ele>
        <time>2021-06-30T09:48:12Z</time>
      </trkpt>
      <trkpt lat="45.134609" lon="5.321926">
        <ele>267.57605</ele>
        <time>2021-06-30T09:48:13Z</time>
      </trkpt>
      <trkpt lat="45.134476" lon="5.321571">
        <ele>267.82190</ele>
        <time>2021-06-30T09:48:14Z</time>
      </trkpt>
      <trkpt lat="45.134327" lon="5.321175">
        <ele>267.84869</ele>
        <time>2021-06-30T09:48:15Z</time>
      </trkpt>
      <trkpt lat="45.134186" lon="5.320791">
        <ele>267.00458</ele>
        <time>2021-06-30T09:48:16Z</time>
      </trkpt>
      <trkpt lat="45.134056" lon="5.320391">
        <ele>266.46399</ele>
        <time>2021-06-30T09:48:17Z</time>
      </trkpt>
      <trkpt lat="45.133923" lon="5.319969">
        <ele>267.14410</ele>
        <time>2021-06-30T09:48:18Z</time>
      </trkpt>
      <trkpt lat="45.133804" lon="5.319566">
        <ele>269.29395</ele>
        <time>2021-06-30T09:48:19Z</time>
      </trkpt>
      <trkpt lat="45.133678" lon="5.319140">
        <ele>269.30530</ele>
        <time>2021-06-30T09:48:20Z</time>
      </trkpt>
      <trkpt lat="45.133568" lon="5.318715">
        <ele>269.56543</ele>
        <time>2021-06-30T09:48:21Z</time>
      </trkpt>
      <trkpt lat="45.133568" lon="5.318715">
        <ele>270.28778</ele>
        <time>2021-06-30T09:48:22Z</time>
      </trkpt>
      <trkpt lat="45.133450" lon="5.318245">
        <ele>270.33722</ele>
        <time>2021-06-30T09:48:23Z</time>
      </trkpt>
      <trkpt lat="45.133331" lon="5.317771">
        <ele>270.19629</ele>
        <time>2021-06-30T09:48:24Z</time>
      </trkpt>
      <trkpt lat="45.133228" lon="5.317311">
        <ele>270.86194</ele>
        <time>2021-06-30T09:48:24Z</time>
      </trkpt>
      <trkpt lat="45.133137" lon="5.316870">
        <ele>271.05688</ele>
        <time>2021-06-30T09:48:26Z</time>
      </trkpt>
      <trkpt lat="45.133049" lon="5.316357">
        <ele>271.22076</ele>
        <time>2021-06-30T09:48:27Z</time>
      </trkpt>
      <trkpt lat="45.132954" lon="5.315861">
        <ele>271.07123</ele>
        <time>2021-06-30T09:48:28Z</time>
      </trkpt>
      <trkpt lat="45.132858" lon="5.315382">
        <ele>270.35474</ele>
        <time>2021-06-30T09:48:29Z</time>
      </trkpt>
      <trkpt lat="45.132763" lon="5.314921">
        <ele>270.26556</ele>
        <time>2021-06-30T09:48:30Z</time>
      </trkpt>
      <trkpt lat="45.132652" lon="5.314425">
        <ele>270.04041</ele>
        <time>2021-06-30T09:48:31Z</time>
      </trkpt>
      <trkpt lat="45.132549" lon="5.313972">
        <ele>270.14600</ele>
        <time>2021-06-30T09:48:32Z</time>
      </trkpt>
      <trkpt lat="45.132435" lon="5.313482">
        <ele>270.00415</ele>
        <time>2021-06-30T09:48:33Z</time>
      </trkpt>
      <trkpt lat="45.132317" lon="5.313002">
        <ele>270.56860</ele>
        <time>2021-06-30T09:48:34Z</time>
      </trkpt>
      <trkpt lat="45.132187" lon="5.312527">
        <ele>270.48633</ele>
        <time>2021-06-30T09:48:35Z</time>
      </trkpt>
      <trkpt lat="45.132061" lon="5.312077">
        <ele>269.93799</ele>
        <time>2021-06-30T09:48:36Z</time>
      </trkpt>
      <trkpt lat="45.131939" lon="5.311637">
        <ele>269.56970</ele>
        <time>2021-06-30T09:48:37Z</time>
      </trkpt>
      <trkpt lat="45.131809" lon="5.311221">
        <ele>269.44556</ele>
        <time>2021-06-30T09:48:38Z</time>
      </trkpt>
      <trkpt lat="45.131668" lon="5.310784">
        <ele>269.34082</ele>
        <time>2021-06-30T09:48:39Z</time>
      </trkpt>
      <trkpt lat="45.131519" lon="5.310360">
        <ele>269.52185</ele>
        <time>2021-06-30T09:48:40Z</time>
      </trkpt>
      <trkpt lat="45.131374" lon="5.309950">
        <ele>269.30298</ele>
        <time>2021-06-30T09:48:41Z</time>
      </trkpt>
      <trkpt lat="45.131214" lon="5.309537">
        <ele>268.66541</ele>
        <time>2021-06-30T09:48:41Z</time>
      </trkpt>
      <trkpt lat="45.131046" lon="5.309113">
        <ele>268.45984</ele>
        <time>2021-06-30T09:48:43Z</time>
      </trkpt>
      <trkpt lat="45.130875" lon="5.308692">
        <ele>268.05511</ele>
        <time>2021-06-30T09:48:44Z</time>
      </trkpt>
      <trkpt lat="45.130688" lon="5.308271">
        <ele>267.54828</ele>
        <time>2021-06-30T09:48:45Z</time>
      </trkpt>
      <trkpt lat="45.130482" lon="5.307829">
        <ele>266.97815</ele>
        <time>2021-06-30T09:48:46Z</time>
      </trkpt>
      <trkpt lat="45.130283" lon="5.307429">
        <ele>266.44409</ele>
        <time>2021-06-30T09:48:47Z</time>
      </trkpt>
      <trkpt lat="45.130081" lon="5.307032">
        <ele>266.03217</ele>
        <time>2021-06-30T09:48:48Z</time>
      </trkpt>
      <trkpt lat="45.129856" lon="5.306626">
        <ele>265.84882</ele>
        <time>2021-06-30T09:48:48Z</time>
      </trkpt>
      <trkpt lat="45.129620" lon="5.306209">
        <ele>265.39368</ele>
        <time>2021-06-30T09:48:50Z</time>
      </trkpt>
      <trkpt lat="45.129406" lon="5.305825">
        <ele>264.44690</ele>
        <time>2021-06-30T09:48:51Z</time>
      </trkpt>
      <trkpt lat="45.129173" lon="5.305447">
        <ele>264.59192</ele>
        <time>2021-06-30T09:48:52Z</time>
      </trkpt>
      <trkpt lat="45.128918" lon="5.305028">
        <ele>264.47205</ele>
        <time>2021-06-30T09:48:53Z</time>
      </trkpt>
      <trkpt lat="45.128918" lon="5.305028">
        <ele>264.07233</ele>
        <time>2021-06-30T09:48:54Z</time>
      </trkpt>
      <trkpt lat="45.128681" lon="5.304644">
        <ele>264.02686</ele>
        <time>2021-06-30T09:48:55Z</time>
      </trkpt>
      <trkpt lat="45.128441" lon="5.304253">
        <ele>263.91858</ele>
        <time>2021-06-30T09:48:56Z</time>
      </trkpt>
      <trkpt lat="45.128201" lon="5.303854">
        <ele>263.83655</ele>
        <time>2021-06-30T09:48:57Z</time>
      </trkpt>
      <trkpt lat="45.127960" lon="5.303450">
        <ele>263.75415</ele>
        <time>2021-06-30T09:48:58Z</time>
      </trkpt>
      <trkpt lat="45.127735" lon="5.303072">
        <ele>263.47644</ele>
        <time>2021-06-30T09:48:59Z</time>
      </trkpt>
      <trkpt lat="45.127518" lon="5.302675">
        <ele>262.39447</ele>
        <time>2021-06-30T09:49:00Z</time>
      </trkpt>
      <trkpt lat="45.127285" lon="5.302257">
        <ele>261.04175</ele>
        <time>2021-06-30T09:49:01Z</time>
      </trkpt>
      <trkpt lat="45.127052" lon="5.301850">
        <ele>260.79175</ele>
        <time>2021-06-30T09:49:02Z</time>
      </trkpt>
      <trkpt lat="45.126846" lon="5.301402">
        <ele>260.40784</ele>
        <time>2021-06-30T09:49:03Z</time>
      </trkpt>
      <trkpt lat="45.126652" lon="5.300955">
        <ele>259.73486</ele>
        <time>2021-06-30T09:49:04Z</time>
      </trkpt>
      <trkpt lat="45.126465" lon="5.300518">
        <ele>259.73840</ele>
        <time>2021-06-30T09:49:05Z</time>
      </trkpt>
      <trkpt lat="45.126270" lon="5.300070">
        <ele>259.97485</ele>
        <time>2021-06-30T09:49:06Z</time>
      </trkpt>
      <trkpt lat="45.126102" lon="5.299628">
        <ele>259.88196</ele>
        <time>2021-06-30T09:49:07Z</time>
      </trkpt>
      <trkpt lat="45.125935" lon="5.299171">
        <ele>261.00171</ele>
        <time>2021-06-30T09:49:08Z</time>
      </trkpt>
      <trkpt lat="45.125771" lon="5.298711">
        <ele>261.03589</ele>
        <time>2021-06-30T09:49:09Z</time>
      </trkpt>
      <trkpt lat="45.125614" lon="5.298244">
        <ele>260.93616</ele>
        <time>2021-06-30T09:49:10Z</time>
      </trkpt>
      <trkpt lat="45.125465" lon="5.297774">
        <ele>260.24249</ele>
        <time>2021-06-30T09:49:11Z</time>
      </trkpt>
      <trkpt lat="45.125324" lon="5.297306">
        <ele>260.53558</ele>
        <time>2021-06-30T09:49:12Z</time>
      </trkpt>
      <trkpt lat="45.125198" lon="5.296822">
        <ele>261.01642</ele>
        <time>2021-06-30T09:49:13Z</time>
      </trkpt>
      <trkpt lat="45.125072" lon="5.296324">
        <ele>260.94800</ele>
        <time>2021-06-30T09:49:14Z</time>
      </trkpt>
      <trkpt lat="45.124954" lon="5.295823">
        <ele>261.37903</ele>
        <time>2021-06-30T09:49:15Z</time>
      </trkpt>
      <trkpt lat="45.124851" lon="5.295336">
        <ele>261.30261</ele>
        <time>2021-06-30T09:49:16Z</time>
      </trkpt>
      <trkpt lat="45.124744" lon="5.294823">
        <ele>262.42542</ele>
        <time>2021-06-30T09:49:17Z</time>
      </trkpt>
      <trkpt lat="45.124657" lon="5.294310">
        <ele>262.23926</ele>
        <time>2021-06-30T09:49:18Z</time>
      </trkpt>
      <trkpt lat="45.124573" lon="5.293823">
        <ele>261.47351</ele>
        <time>2021-06-30T09:49:19Z</time>
      </trkpt>
      <trkpt lat="45.124573" lon="5.293823">
        <ele>261.42920</ele>
        <time>2021-06-30T09:49:20Z</time>
      </trkpt>
      <trkpt lat="45.124485" lon="5.293289">
        <ele>260.45917</ele>
        <time>2021-06-30T09:49:20Z</time>
      </trkpt>
      <trkpt lat="45.124428" lon="5.292797">
        <ele>260.45593</ele>
        <time>2021-06-30T09:49:22Z</time>
      </trkpt>
      <trkpt lat="45.124371" lon="5.292284">
        <ele>260.30554</ele>
        <time>2021-06-30T09:49:23Z</time>
      </trkpt>
      <trkpt lat="45.124313" lon="5.291794">
        <ele>260.44934</ele>
        <time>2021-06-30T09:49:24Z</time>
      </trkpt>
      <trkpt lat="45.124271" lon="5.291282">
        <ele>260.24060</ele>
        <time>2021-06-30T09:49:25Z</time>
      </trkpt>
      <trkpt lat="45.124245" lon="5.290793">
        <ele>260.16626</ele>
        <time>2021-06-30T09:49:26Z</time>
      </trkpt>
      <trkpt lat="45.124214" lon="5.290260">
        <ele>259.82031</ele>
        <time>2021-06-30T09:49:27Z</time>
      </trkpt>
      <trkpt lat="45.124191" lon="5.289736">
        <ele>260.39832</ele>
        <time>2021-06-30T09:49:28Z</time>
      </trkpt>
      <trkpt lat="45.124180" lon="5.289228">
        <ele>260.58911</ele>
        <time>2021-06-30T09:49:29Z</time>
      </trkpt>
      <trkpt lat="45.124168" lon="5.288709">
        <ele>260.09729</ele>
        <time>2021-06-30T09:49:30Z</time>
      </trkpt>
      <trkpt lat="45.124165" lon="5.288218">
        <ele>258.37024</ele>
        <time>2021-06-30T09:49:31Z</time>
      </trkpt>
      <trkpt lat="45.124161" lon="5.287711">
        <ele>257.88373</ele>
        <time>2021-06-30T09:49:32Z</time>
      </trkpt>
      <trkpt lat="45.124157" lon="5.287219">
        <ele>257.77429</ele>
        <time>2021-06-30T09:49:33Z</time>
      </trkpt>
      <trkpt lat="45.124149" lon="5.286701">
        <ele>258.32062</ele>
        <time>2021-06-30T09:49:34Z</time>
      </trkpt>
      <trkpt lat="45.124142" lon="5.286197">
        <ele>258.13458</ele>
        <time>2021-06-30T09:49:34Z</time>
      </trkpt>
      <trkpt lat="45.124130" lon="5.285686">
        <ele>257.94617</ele>
        <time>2021-06-30T09:49:35Z</time>
      </trkpt>
      <trkpt lat="45.124115" lon="5.285176">
        <ele>258.15643</ele>
        <time>2021-06-30T09:49:36Z</time>
      </trkpt>
      <trkpt lat="45.124092" lon="5.284673">
        <ele>257.74402</ele>
        <time>2021-06-30T09:49:37Z</time>
      </trkpt>
      <trkpt lat="45.124069" lon="5.284168">
        <ele>257.58661</ele>
        <time>2021-06-30T09:49:38Z</time>
      </trkpt>
      <trkpt lat="45.124027" lon="5.283662">
        <ele>256.40924</ele>
        <time>2021-06-30T09:49:39Z</time>
      </trkpt>
      <trkpt lat="45.123978" lon="5.283178">
        <ele>255.59888</ele>
        <time>2021-06-30T09:49:40Z</time>
      </trkpt>
      <trkpt lat="45.123905" lon="5.282683">
        <ele>255.23413</ele>
        <time>2021-06-30T09:49:41Z</time>
      </trkpt>
      <trkpt lat="45.123837" lon="5.282175">
        <ele>255.53699</ele>
        <time>2021-06-30T09:49:42Z</time>
      </trkpt>
      <trkpt lat="45.123749" lon="5.281677">
        <ele>255.59290</ele>
        <time>2021-06-30T09:49:43Z</time>
      </trkpt>
      <trkpt lat="45.123646" lon="5.281192">
        <ele>255.62402</ele>
        <time>2021-06-30T09:49:44Z</time>
      </trkpt>
      <trkpt lat="45.123554" lon="5.280710">
        <ele>255.57147</ele>
        <time>2021-06-30T09:49:45Z</time>
      </trkpt>
      <trkpt lat="45.123455" lon="5.280194">
        <ele>255.13037</ele>
        <time>2021-06-30T09:49:46Z</time>
      </trkpt>
      <trkpt lat="45.123352" lon="5.279730">
        <ele>255.43689</ele>
        <time>2021-06-30T09:49:47Z</time>
      </trkpt>
      <trkpt lat="45.123241" lon="5.279261">
        <ele>255.29950</ele>
        <time>2021-06-30T09:49:48Z</time>
      </trkpt>
      <trkpt lat="45.123241" lon="5.279261">
        <ele>256.05994</ele>
        <time>2021-06-30T09:49:49Z</time>
      </trkpt>
      <trkpt lat="45.123119" lon="5.278775">
        <ele>254.83875</ele>
        <time>2021-06-30T09:49:50Z</time>
      </trkpt>
      <trkpt lat="45.122993" lon="5.278299">
        <ele>254.75000</ele>
        <time>2021-06-30T09:49:51Z</time>
      </trkpt>
      <trkpt lat="45.122849" lon="5.277817">
        <ele>255.05774</ele>
        <time>2021-06-30T09:49:52Z</time>
      </trkpt>
      <trkpt lat="45.122707" lon="5.277334">
        <ele>254.93536</ele>
        <time>2021-06-30T09:49:53Z</time>
      </trkpt>
      <trkpt lat="45.122547" lon="5.276854">
        <ele>255.14905</ele>
        <time>2021-06-30T09:49:54Z</time>
      </trkpt>
      <trkpt lat="45.122398" lon="5.276397">
        <ele>255.74060</ele>
        <time>2021-06-30T09:49:55Z</time>
      </trkpt>
      <trkpt lat="45.122234" lon="5.275936">
        <ele>254.74500</ele>
        <time>2021-06-30T09:49:56Z</time>
      </trkpt>
      <trkpt lat="45.122074" lon="5.275503">
        <ele>254.27063</ele>
        <time>2021-06-30T09:49:57Z</time>
      </trkpt>
      <trkpt lat="45.121918" lon="5.275065">
        <ele>253.71912</ele>
        <time>2021-06-30T09:49:58Z</time>
      </trkpt>
      <trkpt lat="45.121742" lon="5.274587">
        <ele>253.75854</ele>
        <time>2021-06-30T09:49:59Z</time>
      </trkpt>
      <trkpt lat="45.121574" lon="5.274127">
        <ele>253.58472</ele>
        <time>2021-06-30T09:50:00Z</time>
      </trkpt>
      <trkpt lat="45.121407" lon="5.273700">
        <ele>253.45813</ele>
        <time>2021-06-30T09:50:01Z</time>
      </trkpt>
      <trkpt lat="45.121223" lon="5.273252">
        <ele>253.02808</ele>
        <time>2021-06-30T09:50:02Z</time>
      </trkpt>
      <trkpt lat="45.121048" lon="5.272829">
        <ele>253.20007</ele>
        <time>2021-06-30T09:50:03Z</time>
      </trkpt>
      <trkpt lat="45.120846" lon="5.272369">
        <ele>253.69531</ele>
        <time>2021-06-30T09:50:04Z</time>
      </trkpt>
      <trkpt lat="45.120663" lon="5.271946">
        <ele>253.16522</ele>
        <time>2021-06-30T09:50:05Z</time>
      </trkpt>
      <trkpt lat="45.120453" lon="5.271499">
        <ele>252.25647</ele>
        <time>2021-06-30T09:50:06Z</time>
      </trkpt>
      <trkpt lat="45.120247" lon="5.271088">
        <ele>251.62122</ele>
        <time>2021-06-30T09:50:07Z</time>
      </trkpt>
      <trkpt lat="45.120037" lon="5.270669">
        <ele>251.98022</ele>
        <time>2021-06-30T09:50:08Z</time>
      </trkpt>
      <trkpt lat="45.119835" lon="5.270260">
        <ele>251.90948</ele>
        <time>2021-06-30T09:50:09Z</time>
      </trkpt>
      <trkpt lat="45.119614" lon="5.269830">
        <ele>251.82684</ele>
        <time>2021-06-30T09:50:10Z</time>
      </trkpt>
      <trkpt lat="45.119385" lon="5.269416">
        <ele>251.28528</ele>
        <time>2021-06-30T09:50:11Z</time>
      </trkpt>
      <trkpt lat="45.119167" lon="5.269033">
        <ele>251.06311</ele>
        <time>2021-06-30T09:50:12Z</time>
      </trkpt>
      <trkpt lat="45.118935" lon="5.268627">
        <ele>251.15717</ele>
        <time>2021-06-30T09:50:13Z</time>
      </trkpt>
      <trkpt lat="45.118710" lon="5.268237">
        <ele>250.51318</ele>
        <time>2021-06-30T09:50:14Z</time>
      </trkpt>
      <trkpt lat="45.118484" lon="5.267839">
        <ele>250.41162</ele>
        <time>2021-06-30T09:50:15Z</time>
      </trkpt>
      <trkpt lat="45.118263" lon="5.267452">
        <ele>249.85864</ele>
        <time>2021-06-30T09:50:16Z</time>
      </trkpt>
      <trkpt lat="45.118038" lon="5.267060">
        <ele>250.10474</ele>
        <time>2021-06-30T09:50:17Z</time>
      </trkpt>
      <trkpt lat="45.117809" lon="5.266658">
        <ele>250.16077</ele>
        <time>2021-06-30T09:50:18Z</time>
      </trkpt>
      <trkpt lat="45.117584" lon="5.266264">
        <ele>249.48145</ele>
        <time>2021-06-30T09:50:19Z</time>
      </trkpt>
      <trkpt lat="45.117371" lon="5.265882">
        <ele>249.02710</ele>
        <time>2021-06-30T09:50:20Z</time>
      </trkpt>
      <trkpt lat="45.117371" lon="5.265882">
        <ele>248.81140</ele>
        <time>2021-06-30T09:50:21Z</time>
      </trkpt>
      <trkpt lat="45.117149" lon="5.265481">
        <ele>249.57446</ele>
        <time>2021-06-30T09:50:22Z</time>
      </trkpt>
      <trkpt lat="45.116932" lon="5.265068">
        <ele>249.44568</ele>
        <time>2021-06-30T09:50:23Z</time>
      </trkpt>
      <trkpt lat="45.116730" lon="5.264662">
        <ele>249.80884</ele>
        <time>2021-06-30T09:50:24Z</time>
      </trkpt>
      <trkpt lat="45.116531" lon="5.264249">
        <ele>249.05493</ele>
        <time>2021-06-30T09:50:25Z</time>
      </trkpt>
      <trkpt lat="45.116325" lon="5.263814">
        <ele>248.83813</ele>
        <time>2021-06-30T09:50:26Z</time>
      </trkpt>
      <trkpt lat="45.116127" lon="5.263378">
        <ele>248.57025</ele>
        <time>2021-06-30T09:50:28Z</time>
      </trkpt>
      <trkpt lat="45.115940" lon="5.262941">
        <ele>248.28137</ele>
        <time>2021-06-30T09:50:29Z</time>
      </trkpt>
      <trkpt lat="45.115749" lon="5.262502">
        <ele>247.28174</ele>
        <time>2021-06-30T09:50:30Z</time>
      </trkpt>
      <trkpt lat="45.115566" lon="5.262081">
        <ele>246.63837</ele>
        <time>2021-06-30T09:50:31Z</time>
      </trkpt>
      <trkpt lat="45.115376" lon="5.261641">
        <ele>246.54205</ele>
        <time>2021-06-30T09:50:32Z</time>
      </trkpt>
      <trkpt lat="45.115166" lon="5.261193">
        <ele>247.10962</ele>
        <time>2021-06-30T09:50:33Z</time>
      </trkpt>
      <trkpt lat="45.114964" lon="5.260781">
        <ele>247.81189</ele>
        <time>2021-06-30T09:50:34Z</time>
      </trkpt>
      <trkpt lat="45.114746" lon="5.260363">
        <ele>247.23206</ele>
        <time>2021-06-30T09:50:35Z</time>
      </trkpt>
      <trkpt lat="45.114517" lon="5.259967">
        <ele>245.41895</ele>
        <time>2021-06-30T09:50:36Z</time>
      </trkpt>
      <trkpt lat="45.114281" lon="5.259604">
        <ele>244.75214</ele>
        <time>2021-06-30T09:50:37Z</time>
      </trkpt>
      <trkpt lat="45.114025" lon="5.259219">
        <ele>243.72717</ele>
        <time>2021-06-30T09:50:38Z</time>
      </trkpt>
      <trkpt lat="45.113762" lon="5.258873">
        <ele>242.89624</ele>
        <time>2021-06-30T09:50:39Z</time>
      </trkpt>
      <trkpt lat="45.113506" lon="5.258552">
        <ele>242.60748</ele>
        <time>2021-06-30T09:50:40Z</time>
      </trkpt>
      <trkpt lat="45.113228" lon="5.258220">
        <ele>242.00281</ele>
        <time>2021-06-30T09:50:41Z</time>
      </trkpt>
      <trkpt lat="45.112934" lon="5.257925">
        <ele>240.56274</ele>
        <time>2021-06-30T09:50:42Z</time>
      </trkpt>
      <trkpt lat="45.112633" lon="5.257624">
        <ele>240.10681</ele>
        <time>2021-06-30T09:50:43Z</time>
      </trkpt>
      <trkpt lat="45.112312" lon="5.257338">
        <ele>240.17468</ele>
        <time>2021-06-30T09:50:44Z</time>
      </trkpt>
      <trkpt lat="45.112007" lon="5.257091">
        <ele>239.32666</ele>
        <time>2021-06-30T09:50:45Z</time>
      </trkpt>
      <trkpt lat="45.111694" lon="5.256866">
        <ele>239.14026</ele>
        <time>2021-06-30T09:50:46Z</time>
      </trkpt>
      <trkpt lat="45.111385" lon="5.256647">
        <ele>239.54791</ele>
        <time>2021-06-30T09:50:47Z</time>
      </trkpt>
      <trkpt lat="45.111053" lon="5.256428">
        <ele>239.02100</ele>
        <time>2021-06-30T09:50:48Z</time>
      </trkpt>
      <trkpt lat="45.110748" lon="5.256226">
        <ele>238.90356</ele>
        <time>2021-06-30T09:50:49Z</time>
      </trkpt>
      <trkpt lat="45.110424" lon="5.256013">
        <ele>240.12073</ele>
        <time>2021-06-30T09:50:50Z</time>
      </trkpt>
      <trkpt lat="45.110096" lon="5.255799">
        <ele>240.91217</ele>
        <time>2021-06-30T09:50:51Z</time>
      </trkpt>
      <trkpt lat="45.109756" lon="5.255574">
        <ele>240.66797</ele>
        <time>2021-06-30T09:50:52Z</time>
      </trkpt>
      <trkpt lat="45.109432" lon="5.255331">
        <ele>239.58655</ele>
        <time>2021-06-30T09:50:53Z</time>
      </trkpt>
      <trkpt lat="45.109119" lon="5.255090">
        <ele>238.99127</ele>
        <time>2021-06-30T09:50:54Z</time>
      </trkpt>
      <trkpt lat="45.109119" lon="5.255090">
        <ele>237.67523</ele>
        <time>2021-06-30T09:50:55Z</time>
      </trkpt>
      <trkpt lat="45.108803" lon="5.254812">
        <ele>237.37073</ele>
        <time>2021-06-30T09:50:56Z</time>
      </trkpt>
      <trkpt lat="45.108494" lon="5.254518">
        <ele>235.66602</ele>
        <time>2021-06-30T09:50:57Z</time>
      </trkpt>
      <trkpt lat="45.108215" lon="5.254237">
        <ele>235.73877</ele>
        <time>2021-06-30T09:50:58Z</time>
      </trkpt>
      <trkpt lat="45.107941" lon="5.253935">
        <ele>235.55560</ele>
        <time>2021-06-30T09:50:59Z</time>
      </trkpt>
      <trkpt lat="45.107655" lon="5.253593">
        <ele>234.93152</ele>
        <time>2021-06-30T09:51:00Z</time>
      </trkpt>
      <trkpt lat="45.107395" lon="5.253258">
        <ele>234.05737</ele>
        <time>2021-06-30T09:51:01Z</time>
      </trkpt>
      <trkpt lat="45.107128" lon="5.252894">
        <ele>232.08398</ele>
        <time>2021-06-30T09:51:02Z</time>
      </trkpt>
      <trkpt lat="45.106873" lon="5.252520">
        <ele>231.02356</ele>
        <time>2021-06-30T09:51:03Z</time>
      </trkpt>
      <trkpt lat="45.106625" lon="5.252146">
        <ele>230.64081</ele>
        <time>2021-06-30T09:51:04Z</time>
      </trkpt>
      <trkpt lat="45.106392" lon="5.251766">
        <ele>229.39380</ele>
        <time>2021-06-30T09:51:05Z</time>
      </trkpt>
      <trkpt lat="45.106155" lon="5.251383">
        <ele>229.36499</ele>
        <time>2021-06-30T09:51:06Z</time>
      </trkpt>
      <trkpt lat="45.105907" lon="5.250958">
        <ele>229.31183</ele>
        <time>2021-06-30T09:51:07Z</time>
      </trkpt>
      <trkpt lat="45.105682" lon="5.250548">
        <ele>228.60315</ele>
        <time>2021-06-30T09:51:08Z</time>
      </trkpt>
      <trkpt lat="45.105469" lon="5.250144">
        <ele>228.26801</ele>
        <time>2021-06-30T09:51:09Z</time>
      </trkpt>
      <trkpt lat="45.105251" lon="5.249714">
        <ele>227.80554</ele>
        <time>2021-06-30T09:51:10Z</time>
      </trkpt>
      <trkpt lat="45.105042" lon="5.249279">
        <ele>227.72986</ele>
        <time>2021-06-30T09:51:11Z</time>
      </trkpt>
      <trkpt lat="45.104839" lon="5.248847">
        <ele>227.43616</ele>
        <time>2021-06-30T09:51:12Z</time>
      </trkpt>
      <trkpt lat="45.104649" lon="5.248417">
        <ele>224.61804</ele>
        <time>2021-06-30T09:51:13Z</time>
      </trkpt>
      <trkpt lat="45.104473" lon="5.247994">
        <ele>224.42993</ele>
        <time>2021-06-30T09:51:14Z</time>
      </trkpt>
      <trkpt lat="45.104298" lon="5.247569">
        <ele>222.53381</ele>
        <time>2021-06-30T09:51:15Z</time>
      </trkpt>
      <trkpt lat="45.104130" lon="5.247128">
        <ele>222.68396</ele>
        <time>2021-06-30T09:51:16Z</time>
      </trkpt>
      <trkpt lat="45.103954" lon="5.246672">
        <ele>222.31848</ele>
        <time>2021-06-30T09:51:17Z</time>
      </trkpt>
      <trkpt lat="45.103790" lon="5.246204">
        <ele>220.51013</ele>
        <time>2021-06-30T09:51:18Z</time>
      </trkpt>
      <trkpt lat="45.103649" lon="5.245770">
        <ele>221.26819</ele>
        <time>2021-06-30T09:51:19Z</time>
      </trkpt>
      <trkpt lat="45.103508" lon="5.245327">
        <ele>220.64679</ele>
        <time>2021-06-30T09:51:20Z</time>
      </trkpt>
      <trkpt lat="45.103367" lon="5.244870">
        <ele>220.48047</ele>
        <time>2021-06-30T09:51:21Z</time>
      </trkpt>
      <trkpt lat="45.103237" lon="5.244393">
        <ele>220.67395</ele>
        <time>2021-06-30T09:51:22Z</time>
      </trkpt>
      <trkpt lat="45.103107" lon="5.243924">
        <ele>220.61255</ele>
        <time>2021-06-30T09:51:23Z</time>
      </trkpt>
      <trkpt lat="45.102982" lon="5.243451">
        <ele>219.75146</ele>
        <time>2021-06-30T09:51:24Z</time>
      </trkpt>
      <trkpt lat="45.102867" lon="5.242975">
        <ele>220.02588</ele>
        <time>2021-06-30T09:51:25Z</time>
      </trkpt>
      <trkpt lat="45.102749" lon="5.242473">
        <ele>218.64484</ele>
        <time>2021-06-30T09:51:26Z</time>
      </trkpt>
      <trkpt lat="45.102642" lon="5.241993">
        <ele>218.12085</ele>
        <time>2021-06-30T09:51:27Z</time>
      </trkpt>
      <trkpt lat="45.102535" lon="5.241516">
        <ele>216.66302</ele>
        <time>2021-06-30T09:51:28Z</time>
      </trkpt>
      <trkpt lat="45.102428" lon="5.241017">
        <ele>216.79822</ele>
        <time>2021-06-30T09:51:29Z</time>
      </trkpt>
      <trkpt lat="45.102318" lon="5.240529">
        <ele>216.15485</ele>
        <time>2021-06-30T09:51:30Z</time>
      </trkpt>
      <trkpt lat="45.102318" lon="5.240529">
        <ele>214.57886</ele>
        <time>2021-06-30T09:51:31Z</time>
      </trkpt>
      <trkpt lat="45.102104" lon="5.239568">
        <ele>213.56580</ele>
        <time>2021-06-30T09:51:32Z</time>
      </trkpt>
      <trkpt lat="45.102104" lon="5.239568">
        <ele>213.36591</ele>
        <time>2021-06-30T09:51:33Z</time>
      </trkpt>
      <trkpt lat="45.101971" lon="5.239054">
        <ele>212.90533</ele>
        <time>2021-06-30T09:51:34Z</time>
      </trkpt>
      <trkpt lat="45.101841" lon="5.238592">
        <ele>213.41541</ele>
        <time>2021-06-30T09:51:35Z</time>
      </trkpt>
      <trkpt lat="45.101700" lon="5.238112">
        <ele>213.21375</ele>
        <time>2021-06-30T09:51:36Z</time>
      </trkpt>
      <trkpt lat="45.101559" lon="5.237657">
        <ele>213.45959</ele>
        <time>2021-06-30T09:51:37Z</time>
      </trkpt>
      <trkpt lat="45.101410" lon="5.237210">
        <ele>214.07489</ele>
        <time>2021-06-30T09:51:38Z</time>
      </trkpt>
      <trkpt lat="45.101254" lon="5.236746">
        <ele>210.67407</ele>
        <time>2021-06-30T09:51:39Z</time>
      </trkpt>
      <trkpt lat="45.101101" lon="5.236304">
        <ele>208.40186</ele>
        <time>2021-06-30T09:51:40Z</time>
      </trkpt>
      <trkpt lat="45.100941" lon="5.235840">
        <ele>205.93304</ele>
        <time>2021-06-30T09:51:41Z</time>
      </trkpt>
      <trkpt lat="45.100780" lon="5.235376">
        <ele>206.28107</ele>
        <time>2021-06-30T09:51:42Z</time>
      </trkpt>
      <trkpt lat="45.100628" lon="5.234928">
        <ele>205.77722</ele>
        <time>2021-06-30T09:51:43Z</time>
      </trkpt>
      <trkpt lat="45.100464" lon="5.234453">
        <ele>205.92761</ele>
        <time>2021-06-30T09:51:44Z</time>
      </trkpt>
      <trkpt lat="45.100311" lon="5.234008">
        <ele>205.51019</ele>
        <time>2021-06-30T09:51:45Z</time>
      </trkpt>
      <trkpt lat="45.100163" lon="5.233572">
        <ele>203.62659</ele>
        <time>2021-06-30T09:51:46Z</time>
      </trkpt>
      <trkpt lat="45.100002" lon="5.233119">
        <ele>203.10229</ele>
        <time>2021-06-30T09:51:47Z</time>
      </trkpt>
      <trkpt lat="45.099834" lon="5.232645">
        <ele>201.87146</ele>
        <time>2021-06-30T09:51:48Z</time>
      </trkpt>
      <trkpt lat="45.099667" lon="5.232165">
        <ele>201.05188</ele>
        <time>2021-06-30T09:51:49Z</time>
      </trkpt>
      <trkpt lat="45.099506" lon="5.231706">
        <ele>200.49933</ele>
        <time>2021-06-30T09:51:50Z</time>
      </trkpt>
      <trkpt lat="45.099331" lon="5.231235">
        <ele>200.16541</ele>
        <time>2021-06-30T09:51:51Z</time>
      </trkpt>
      <trkpt lat="45.099159" lon="5.230781">
        <ele>199.56152</ele>
        <time>2021-06-30T09:51:52Z</time>
      </trkpt>
      <trkpt lat="45.098980" lon="5.230352">
        <ele>198.81915</ele>
        <time>2021-06-30T09:51:53Z</time>
      </trkpt>
      <trkpt lat="45.098789" lon="5.229895">
        <ele>198.27545</ele>
        <time>2021-06-30T09:51:54Z</time>
      </trkpt>
      <trkpt lat="45.098598" lon="5.229469">
        <ele>197.39868</ele>
        <time>2021-06-30T09:51:55Z</time>
      </trkpt>
      <trkpt lat="45.098396" lon="5.229040">
        <ele>195.33685</ele>
        <time>2021-06-30T09:51:56Z</time>
      </trkpt>
      <trkpt lat="45.098198" lon="5.228622">
        <ele>193.96228</ele>
        <time>2021-06-30T09:51:57Z</time>
      </trkpt>
      <trkpt lat="45.097996" lon="5.228220">
        <ele>192.69501</ele>
        <time>2021-06-30T09:51:58Z</time>
      </trkpt>
      <trkpt lat="45.097782" lon="5.227822">
        <ele>192.36084</ele>
        <time>2021-06-30T09:51:59Z</time>
      </trkpt>
      <trkpt lat="45.097569" lon="5.227423">
        <ele>190.17865</ele>
        <time>2021-06-30T09:52:00Z</time>
      </trkpt>
      <trkpt lat="45.097351" lon="5.227043">
        <ele>189.40491</ele>
        <time>2021-06-30T09:52:01Z</time>
      </trkpt>
      <trkpt lat="45.097122" lon="5.226648">
        <ele>188.73438</ele>
        <time>2021-06-30T09:52:02Z</time>
      </trkpt>
      <trkpt lat="45.096886" lon="5.226256">
        <ele>188.35870</ele>
        <time>2021-06-30T09:52:03Z</time>
      </trkpt>
      <trkpt lat="45.096645" lon="5.225885">
        <ele>186.31519</ele>
        <time>2021-06-30T09:52:04Z</time>
      </trkpt>
      <trkpt lat="45.096405" lon="5.225512">
        <ele>185.17798</ele>
        <time>2021-06-30T09:52:05Z</time>
      </trkpt>
      <trkpt lat="45.096169" lon="5.225151">
        <ele>184.96710</ele>
        <time>2021-06-30T09:52:06Z</time>
      </trkpt>
      <trkpt lat="45.096169" lon="5.225151">
        <ele>184.14777</ele>
        <time>2021-06-30T09:52:07Z</time>
      </trkpt>
      <trkpt lat="45.095905" lon="5.224788">
        <ele>183.89856</ele>
        <time>2021-06-30T09:52:08Z</time>
      </trkpt>
      <trkpt lat="45.095642" lon="5.224419">
        <ele>184.36206</ele>
        <time>2021-06-30T09:52:09Z</time>
      </trkpt>
      <trkpt lat="45.095379" lon="5.224082">
        <ele>184.03290</ele>
        <time>2021-06-30T09:52:10Z</time>
      </trkpt>
      <trkpt lat="45.095112" lon="5.223741">
        <ele>183.09717</ele>
        <time>2021-06-30T09:52:11Z</time>
      </trkpt>
      <trkpt lat="45.094849" lon="5.223409">
        <ele>182.54260</ele>
        <time>2021-06-30T09:52:12Z</time>
      </trkpt>
      <trkpt lat="45.094578" lon="5.223077">
        <ele>182.58142</ele>
        <time>2021-06-30T09:52:13Z</time>
      </trkpt>
      <trkpt lat="45.094292" lon="5.222743">
        <ele>181.70758</ele>
        <time>2021-06-30T09:52:14Z</time>
      </trkpt>
      <trkpt lat="45.094002" lon="5.222420">
        <ele>181.63330</ele>
        <time>2021-06-30T09:52:15Z</time>
      </trkpt>
      <trkpt lat="45.093723" lon="5.222117">
        <ele>182.82129</ele>
        <time>2021-06-30T09:52:16Z</time>
      </trkpt>
      <trkpt lat="45.093441" lon="5.221814">
        <ele>182.75903</ele>
        <time>2021-06-30T09:52:17Z</time>
      </trkpt>
      <trkpt lat="45.093147" lon="5.221520">
        <ele>182.29242</ele>
        <time>2021-06-30T09:52:18Z</time>
      </trkpt>
      <trkpt lat="45.092854" lon="5.221227">
        <ele>182.33777</ele>
        <time>2021-06-30T09:52:19Z</time>
      </trkpt>
      <trkpt lat="45.092556" lon="5.220947">
        <ele>182.92072</ele>
        <time>2021-06-30T09:52:20Z</time>
      </trkpt>
      <trkpt lat="45.092270" lon="5.220674">
        <ele>183.52307</ele>
        <time>2021-06-30T09:52:21Z</time>
      </trkpt>
      <trkpt lat="45.091969" lon="5.220396">
        <ele>183.41064</ele>
        <time>2021-06-30T09:52:22Z</time>
      </trkpt>
      <trkpt lat="45.091660" lon="5.220117">
        <ele>183.00562</ele>
        <time>2021-06-30T09:52:23Z</time>
      </trkpt>
      <trkpt lat="45.091351" lon="5.219853">
        <ele>183.64612</ele>
        <time>2021-06-30T09:52:24Z</time>
      </trkpt>
      <trkpt lat="45.091061" lon="5.219608">
        <ele>184.02917</ele>
        <time>2021-06-30T09:52:25Z</time>
      </trkpt>
      <trkpt lat="45.090755" lon="5.219358">
        <ele>183.97205</ele>
        <time>2021-06-30T09:52:26Z</time>
      </trkpt>
      <trkpt lat="45.090446" lon="5.219117">
        <ele>184.12476</ele>
        <time>2021-06-30T09:52:27Z</time>
      </trkpt>
      <trkpt lat="45.090122" lon="5.218872">
        <ele>184.25867</ele>
        <time>2021-06-30T09:52:28Z</time>
      </trkpt>
      <trkpt lat="45.089806" lon="5.218642">
        <ele>184.96686</ele>
        <time>2021-06-30T09:52:29Z</time>
      </trkpt>
      <trkpt lat="45.089497" lon="5.218416">
        <ele>185.85358</ele>
        <time>2021-06-30T09:52:30Z</time>
      </trkpt>
      <trkpt lat="45.089207" lon="5.218209">
        <ele>185.97009</ele>
        <time>2021-06-30T09:52:31Z</time>
      </trkpt>
      <trkpt lat="45.088913" lon="5.218022">
        <ele>186.76282</ele>
        <time>2021-06-30T09:52:32Z</time>
      </trkpt>
      <trkpt lat="45.088619" lon="5.217834">
        <ele>187.04102</ele>
        <time>2021-06-30T09:52:33Z</time>
      </trkpt>
      <trkpt lat="45.088337" lon="5.217652">
        <ele>186.86420</ele>
        <time>2021-06-30T09:52:34Z</time>
      </trkpt>
      <trkpt lat="45.088058" lon="5.217475">
        <ele>187.02484</ele>
        <time>2021-06-30T09:52:35Z</time>
      </trkpt>
      <trkpt lat="45.087769" lon="5.217309">
        <ele>187.03394</ele>
        <time>2021-06-30T09:52:36Z</time>
      </trkpt>
      <trkpt lat="45.087505" lon="5.217160">
        <ele>187.30579</ele>
        <time>2021-06-30T09:52:37Z</time>
      </trkpt>
      <trkpt lat="45.087234" lon="5.217005">
        <ele>187.54053</ele>
        <time>2021-06-30T09:52:38Z</time>
      </trkpt>
      <trkpt lat="45.086945" lon="5.216876">
        <ele>187.61371</ele>
        <time>2021-06-30T09:52:39Z</time>
      </trkpt>
      <trkpt lat="45.086658" lon="5.216752">
        <ele>187.98438</ele>
        <time>2021-06-30T09:52:40Z</time>
      </trkpt>
      <trkpt lat="45.086327" lon="5.216591">
        <ele>187.55127</ele>
        <time>2021-06-30T09:52:41Z</time>
      </trkpt>
      <trkpt lat="45.086010" lon="5.216430">
        <ele>188.04926</ele>
        <time>2021-06-30T09:52:42Z</time>
      </trkpt>
      <trkpt lat="45.085690" lon="5.216271">
        <ele>187.66785</ele>
        <time>2021-06-30T09:52:43Z</time>
      </trkpt>
      <trkpt lat="45.085339" lon="5.216110">
        <ele>188.06879</ele>
        <time>2021-06-30T09:52:44Z</time>
      </trkpt>
      <trkpt lat="45.084980" lon="5.215957">
        <ele>188.23474</ele>
        <time>2021-06-30T09:52:45Z</time>
      </trkpt>
      <trkpt lat="45.084980" lon="5.215957">
        <ele>188.75977</ele>
        <time>2021-06-30T09:52:46Z</time>
      </trkpt>
      <trkpt lat="45.084663" lon="5.215793">
        <ele>188.29388</ele>
        <time>2021-06-30T09:52:47Z</time>
      </trkpt>
      <trkpt lat="45.084312" lon="5.215614">
        <ele>188.39703</ele>
        <time>2021-06-30T09:52:48Z</time>
      </trkpt>
      <trkpt lat="45.083969" lon="5.215468">
        <ele>187.51270</ele>
        <time>2021-06-30T09:52:49Z</time>
      </trkpt>
      <trkpt lat="45.083603" lon="5.215318">
        <ele>187.59863</ele>
        <time>2021-06-30T09:52:50Z</time>
      </trkpt>
      <trkpt lat="45.083233" lon="5.215161">
        <ele>186.77020</ele>
        <time>2021-06-30T09:52:51Z</time>
      </trkpt>
      <trkpt lat="45.082844" lon="5.214997">
        <ele>185.85529</ele>
        <time>2021-06-30T09:52:52Z</time>
      </trkpt>
      <trkpt lat="45.082512" lon="5.214857">
        <ele>185.94727</ele>
        <time>2021-06-30T09:52:53Z</time>
      </trkpt>
      <trkpt lat="45.082146" lon="5.214695">
        <ele>185.97351</ele>
        <time>2021-06-30T09:52:54Z</time>
      </trkpt>
      <trkpt lat="45.081810" lon="5.214555">
        <ele>185.45801</ele>
        <time>2021-06-30T09:52:55Z</time>
      </trkpt>
      <trkpt lat="45.081470" lon="5.214412">
        <ele>185.35028</ele>
        <time>2021-06-30T09:52:56Z</time>
      </trkpt>
      <trkpt lat="45.081112" lon="5.214263">
        <ele>185.23645</ele>
        <time>2021-06-30T09:52:57Z</time>
      </trkpt>
      <trkpt lat="45.080772" lon="5.214119">
        <ele>185.53320</ele>
        <time>2021-06-30T09:52:58Z</time>
      </trkpt>
      <trkpt lat="45.080429" lon="5.213973">
        <ele>185.08490</ele>
        <time>2021-06-30T09:52:59Z</time>
      </trkpt>
      <trkpt lat="45.080082" lon="5.213827">
        <ele>185.10803</ele>
        <time>2021-06-30T09:53:00Z</time>
      </trkpt>
      <trkpt lat="45.079754" lon="5.213688">
        <ele>184.08923</ele>
        <time>2021-06-30T09:53:01Z</time>
      </trkpt>
      <trkpt lat="45.079414" lon="5.213547">
        <ele>182.46057</ele>
        <time>2021-06-30T09:53:02Z</time>
      </trkpt>
      <trkpt lat="45.079048" lon="5.213394">
        <ele>181.93060</ele>
        <time>2021-06-30T09:53:03Z</time>
      </trkpt>
      <trkpt lat="45.078686" lon="5.213233">
        <ele>184.37756</ele>
        <time>2021-06-30T09:53:04Z</time>
      </trkpt>
      <trkpt lat="45.078346" lon="5.213082">
        <ele>184.70807</ele>
        <time>2021-06-30T09:53:05Z</time>
      </trkpt>
      <trkpt lat="45.078014" lon="5.212937">
        <ele>184.57861</ele>
        <time>2021-06-30T09:53:06Z</time>
      </trkpt>
      <trkpt lat="45.077667" lon="5.212788">
        <ele>183.99951</ele>
        <time>2021-06-30T09:53:07Z</time>
      </trkpt>
      <trkpt lat="45.077320" lon="5.212640">
        <ele>184.90955</ele>
        <time>2021-06-30T09:53:08Z</time>
      </trkpt>
      <trkpt lat="45.076981" lon="5.212495">
        <ele>184.80786</ele>
        <time>2021-06-30T09:53:09Z</time>
      </trkpt>
      <trkpt lat="45.076637" lon="5.212350">
        <ele>186.43817</ele>
        <time>2021-06-30T09:53:10Z</time>
      </trkpt>
      <trkpt lat="45.076279" lon="5.212196">
        <ele>186.62897</ele>
        <time>2021-06-30T09:53:11Z</time>
      </trkpt>
      <trkpt lat="45.075935" lon="5.212049">
        <ele>186.82953</ele>
        <time>2021-06-30T09:53:12Z</time>
      </trkpt>
      <trkpt lat="45.075592" lon="5.211904">
        <ele>186.77740</ele>
        <time>2021-06-30T09:53:13Z</time>
      </trkpt>
      <trkpt lat="45.075245" lon="5.211756">
        <ele>186.51111</ele>
        <time>2021-06-30T09:53:14Z</time>
      </trkpt>
      <trkpt lat="45.074917" lon="5.211615">
        <ele>186.12006</ele>
        <time>2021-06-30T09:53:15Z</time>
      </trkpt>
      <trkpt lat="45.074917" lon="5.211615">
        <ele>186.10840</ele>
        <time>2021-06-30T09:53:16Z</time>
      </trkpt>
      <trkpt lat="45.074566" lon="5.211467">
        <ele>185.86084</ele>
        <time>2021-06-30T09:53:17Z</time>
      </trkpt>
      <trkpt lat="45.074238" lon="5.211317">
        <ele>186.47296</ele>
        <time>2021-06-30T09:53:18Z</time>
      </trkpt>
      <trkpt lat="45.073891" lon="5.211158">
        <ele>186.67139</ele>
        <time>2021-06-30T09:53:19Z</time>
      </trkpt>
      <trkpt lat="45.073574" lon="5.211014">
        <ele>188.75677</ele>
        <time>2021-06-30T09:53:20Z</time>
      </trkpt>
      <trkpt lat="45.073231" lon="5.210840">
        <ele>188.81158</ele>
        <time>2021-06-30T09:53:21Z</time>
      </trkpt>
      <trkpt lat="45.072880" lon="5.210652">
        <ele>190.85626</ele>
        <time>2021-06-30T09:53:22Z</time>
      </trkpt>
      <trkpt lat="45.072567" lon="5.210471">
        <ele>190.75281</ele>
        <time>2021-06-30T09:53:23Z</time>
      </trkpt>
      <trkpt lat="45.072227" lon="5.210261">
        <ele>191.53040</ele>
        <time>2021-06-30T09:53:24Z</time>
      </trkpt>
      <trkpt lat="45.071903" lon="5.210061">
        <ele>191.40344</ele>
        <time>2021-06-30T09:53:25Z</time>
      </trkpt>
      <trkpt lat="45.071568" lon="5.209845">
        <ele>191.23706</ele>
        <time>2021-06-30T09:53:26Z</time>
      </trkpt>
      <trkpt lat="45.071255" lon="5.209633">
        <ele>195.88385</ele>
        <time>2021-06-30T09:53:27Z</time>
      </trkpt>
      <trkpt lat="45.070934" lon="5.209397">
        <ele>194.87549</ele>
        <time>2021-06-30T09:53:28Z</time>
      </trkpt>
      <trkpt lat="45.070618" lon="5.209155">
        <ele>194.18481</ele>
        <time>2021-06-30T09:53:29Z</time>
      </trkpt>
      <trkpt lat="45.070305" lon="5.208898">
        <ele>195.36346</ele>
        <time>2021-06-30T09:53:30Z</time>
      </trkpt>
      <trkpt lat="45.070011" lon="5.208649">
        <ele>196.55469</ele>
        <time>2021-06-30T09:53:31Z</time>
      </trkpt>
      <trkpt lat="45.069733" lon="5.208392">
        <ele>196.83032</ele>
        <time>2021-06-30T09:53:32Z</time>
      </trkpt>
      <trkpt lat="45.069431" lon="5.208106">
        <ele>195.94330</ele>
        <time>2021-06-30T09:53:33Z</time>
      </trkpt>
      <trkpt lat="45.069145" lon="5.207823">
        <ele>196.93488</ele>
        <time>2021-06-30T09:53:34Z</time>
      </trkpt>
      <trkpt lat="45.068851" lon="5.207527">
        <ele>197.58783</ele>
        <time>2021-06-30T09:53:35Z</time>
      </trkpt>
      <trkpt lat="45.068558" lon="5.207216">
        <ele>197.50659</ele>
        <time>2021-06-30T09:53:36Z</time>
      </trkpt>
      <trkpt lat="45.068260" lon="5.206882">
        <ele>197.21307</ele>
        <time>2021-06-30T09:53:37Z</time>
      </trkpt>
      <trkpt lat="45.067947" lon="5.206528">
        <ele>197.48499</ele>
        <time>2021-06-30T09:53:38Z</time>
      </trkpt>
      <trkpt lat="45.067665" lon="5.206184">
        <ele>197.91235</ele>
        <time>2021-06-30T09:53:39Z</time>
      </trkpt>
      <trkpt lat="45.067402" lon="5.205855">
        <ele>197.88635</ele>
        <time>2021-06-30T09:53:40Z</time>
      </trkpt>
      <trkpt lat="45.067135" lon="5.205508">
        <ele>196.70642</ele>
        <time>2021-06-30T09:53:41Z</time>
      </trkpt>
      <trkpt lat="45.066868" lon="5.205146">
        <ele>196.66815</ele>
        <time>2021-06-30T09:53:42Z</time>
      </trkpt>
      <trkpt lat="45.066605" lon="5.204757">
        <ele>196.36292</ele>
        <time>2021-06-30T09:53:43Z</time>
      </trkpt>
      <trkpt lat="45.066353" lon="5.204379">
        <ele>195.15381</ele>
        <time>2021-06-30T09:53:44Z</time>
      </trkpt>
      <trkpt lat="45.066105" lon="5.204009">
        <ele>194.62988</ele>
        <time>2021-06-30T09:53:45Z</time>
      </trkpt>
      <trkpt lat="45.065880" lon="5.203642">
        <ele>194.75635</ele>
        <time>2021-06-30T09:53:46Z</time>
      </trkpt>
      <trkpt lat="45.065643" lon="5.203260">
        <ele>195.72626</ele>
        <time>2021-06-30T09:53:47Z</time>
      </trkpt>
      <trkpt lat="45.065643" lon="5.203260">
        <ele>195.71674</ele>
        <time>2021-06-30T09:53:48Z</time>
      </trkpt>
      <trkpt lat="45.065407" lon="5.202851">
        <ele>196.23315</ele>
        <time>2021-06-30T09:53:49Z</time>
      </trkpt>
      <trkpt lat="45.065178" lon="5.202453">
        <ele>196.58307</ele>
        <time>2021-06-30T09:53:49Z</time>
      </trkpt>
      <trkpt lat="45.064934" lon="5.202063">
        <ele>196.53864</ele>
        <time>2021-06-30T09:53:51Z</time>
      </trkpt>
      <trkpt lat="45.064697" lon="5.201660">
        <ele>196.33813</ele>
        <time>2021-06-30T09:53:51Z</time>
      </trkpt>
      <trkpt lat="45.064484" lon="5.201290">
        <ele>197.01001</ele>
        <time>2021-06-30T09:53:52Z</time>
      </trkpt>
      <trkpt lat="45.064259" lon="5.200901">
        <ele>197.00964</ele>
        <time>2021-06-30T09:53:53Z</time>
      </trkpt>
      <trkpt lat="45.064037" lon="5.200499">
        <ele>197.47479</ele>
        <time>2021-06-30T09:53:54Z</time>
      </trkpt>
      <trkpt lat="45.063816" lon="5.200099">
        <ele>197.54578</ele>
        <time>2021-06-30T09:53:55Z</time>
      </trkpt>
      <trkpt lat="45.063591" lon="5.199684">
        <ele>197.34192</ele>
        <time>2021-06-30T09:53:56Z</time>
      </trkpt>
      <trkpt lat="45.063366" lon="5.199276">
        <ele>197.10229</ele>
        <time>2021-06-30T09:53:57Z</time>
      </trkpt>
      <trkpt lat="45.063148" lon="5.198891">
        <ele>197.07819</ele>
        <time>2021-06-30T09:53:58Z</time>
      </trkpt>
      <trkpt lat="45.062923" lon="5.198491">
        <ele>196.85083</ele>
        <time>2021-06-30T09:54:00Z</time>
      </trkpt>
      <trkpt lat="45.062698" lon="5.198102">
        <ele>196.01135</ele>
        <time>2021-06-30T09:54:00Z</time>
      </trkpt>
      <trkpt lat="45.062469" lon="5.197702">
        <ele>195.73914</ele>
        <time>2021-06-30T09:54:01Z</time>
      </trkpt>
      <trkpt lat="45.062244" lon="5.197304">
        <ele>195.66724</ele>
        <time>2021-06-30T09:54:02Z</time>
      </trkpt>
      <trkpt lat="45.062019" lon="5.196912">
        <ele>195.65607</ele>
        <time>2021-06-30T09:54:04Z</time>
      </trkpt>
      <trkpt lat="45.061794" lon="5.196503">
        <ele>196.34216</ele>
        <time>2021-06-30T09:54:05Z</time>
      </trkpt>
      <trkpt lat="45.061565" lon="5.196085">
        <ele>196.91455</ele>
        <time>2021-06-30T09:54:06Z</time>
      </trkpt>
      <trkpt lat="45.061337" lon="5.195669">
        <ele>196.60742</ele>
        <time>2021-06-30T09:54:07Z</time>
      </trkpt>
      <trkpt lat="45.061111" lon="5.195261">
        <ele>197.19482</ele>
        <time>2021-06-30T09:54:08Z</time>
      </trkpt>
      <trkpt lat="45.060890" lon="5.194886">
        <ele>197.28143</ele>
        <time>2021-06-30T09:54:09Z</time>
      </trkpt>
      <trkpt lat="45.060665" lon="5.194484">
        <ele>197.83917</ele>
        <time>2021-06-30T09:54:10Z</time>
      </trkpt>
      <trkpt lat="45.060448" lon="5.194092">
        <ele>198.46887</ele>
        <time>2021-06-30T09:54:11Z</time>
      </trkpt>
      <trkpt lat="45.060226" lon="5.193699">
        <ele>198.64514</ele>
        <time>2021-06-30T09:54:12Z</time>
      </trkpt>
      <trkpt lat="45.060001" lon="5.193293">
        <ele>197.83783</ele>
        <time>2021-06-30T09:54:13Z</time>
      </trkpt>
      <trkpt lat="45.059788" lon="5.192910">
        <ele>196.63208</ele>
        <time>2021-06-30T09:54:14Z</time>
      </trkpt>
      <trkpt lat="45.059559" lon="5.192501">
        <ele>196.63049</ele>
        <time>2021-06-30T09:54:15Z</time>
      </trkpt>
      <trkpt lat="45.059338" lon="5.192103">
        <ele>196.56396</ele>
        <time>2021-06-30T09:54:16Z</time>
      </trkpt>
      <trkpt lat="45.059116" lon="5.191708">
        <ele>195.04767</ele>
        <time>2021-06-30T09:54:17Z</time>
      </trkpt>
      <trkpt lat="45.058891" lon="5.191303">
        <ele>195.31140</ele>
        <time>2021-06-30T09:54:18Z</time>
      </trkpt>
      <trkpt lat="45.058651" lon="5.190875">
        <ele>195.68988</ele>
        <time>2021-06-30T09:54:19Z</time>
      </trkpt>
      <trkpt lat="45.058651" lon="5.190875">
        <ele>196.00671</ele>
        <time>2021-06-30T09:54:20Z</time>
      </trkpt>
      <trkpt lat="45.058422" lon="5.190461">
        <ele>195.70447</ele>
        <time>2021-06-30T09:54:20Z</time>
      </trkpt>
      <trkpt lat="45.058197" lon="5.190060">
        <ele>194.74152</ele>
        <time>2021-06-30T09:54:22Z</time>
      </trkpt>
      <trkpt lat="45.057972" lon="5.189658">
        <ele>195.14734</ele>
        <time>2021-06-30T09:54:23Z</time>
      </trkpt>
      <trkpt lat="45.057755" lon="5.189270">
        <ele>195.00665</ele>
        <time>2021-06-30T09:54:24Z</time>
      </trkpt>
      <trkpt lat="45.057537" lon="5.188878">
        <ele>195.45795</ele>
        <time>2021-06-30T09:54:25Z</time>
      </trkpt>
      <trkpt lat="45.057312" lon="5.188474">
        <ele>194.69464</ele>
        <time>2021-06-30T09:54:26Z</time>
      </trkpt>
      <trkpt lat="45.057087" lon="5.188072">
        <ele>194.86450</ele>
        <time>2021-06-30T09:54:27Z</time>
      </trkpt>
      <trkpt lat="45.056866" lon="5.187675">
        <ele>194.85919</ele>
        <time>2021-06-30T09:54:28Z</time>
      </trkpt>
      <trkpt lat="45.056637" lon="5.187264">
        <ele>194.44910</ele>
        <time>2021-06-30T09:54:29Z</time>
      </trkpt>
      <trkpt lat="45.056427" lon="5.186889">
        <ele>193.66663</ele>
        <time>2021-06-30T09:54:30Z</time>
      </trkpt>
      <trkpt lat="45.056190" lon="5.186463">
        <ele>193.77582</ele>
        <time>2021-06-30T09:54:31Z</time>
      </trkpt>
      <trkpt lat="45.055965" lon="5.186060">
        <ele>193.75146</ele>
        <time>2021-06-30T09:54:32Z</time>
      </trkpt>
      <trkpt lat="45.055744" lon="5.185633">
        <ele>193.93494</ele>
        <time>2021-06-30T09:54:33Z</time>
      </trkpt>
      <trkpt lat="45.055527" lon="5.185238">
        <ele>193.51282</ele>
        <time>2021-06-30T09:54:34Z</time>
      </trkpt>
      <trkpt lat="45.055317" lon="5.184821">
        <ele>193.13177</ele>
        <time>2021-06-30T09:54:35Z</time>
      </trkpt>
      <trkpt lat="45.055099" lon="5.184409">
        <ele>194.30353</ele>
        <time>2021-06-30T09:54:36Z</time>
      </trkpt>
      <trkpt lat="45.054878" lon="5.183983">
        <ele>195.51770</ele>
        <time>2021-06-30T09:54:37Z</time>
      </trkpt>
      <trkpt lat="45.054672" lon="5.183572">
        <ele>193.97711</ele>
        <time>2021-06-30T09:54:38Z</time>
      </trkpt>
      <trkpt lat="45.054466" lon="5.183156">
        <ele>194.30066</ele>
        <time>2021-06-30T09:54:39Z</time>
      </trkpt>
      <trkpt lat="45.054245" lon="5.182718">
        <ele>194.27551</ele>
        <time>2021-06-30T09:54:40Z</time>
      </trkpt>
      <trkpt lat="45.054047" lon="5.182280">
        <ele>195.44989</ele>
        <time>2021-06-30T09:54:41Z</time>
      </trkpt>
      <trkpt lat="45.053837" lon="5.181853">
        <ele>195.51373</ele>
        <time>2021-06-30T09:54:42Z</time>
      </trkpt>
      <trkpt lat="45.053642" lon="5.181419">
        <ele>195.39270</ele>
        <time>2021-06-30T09:54:43Z</time>
      </trkpt>
      <trkpt lat="45.053436" lon="5.180966">
        <ele>195.38977</ele>
        <time>2021-06-30T09:54:44Z</time>
      </trkpt>
      <trkpt lat="45.053249" lon="5.180525">
        <ele>199.98962</ele>
        <time>2021-06-30T09:54:45Z</time>
      </trkpt>
      <trkpt lat="45.053062" lon="5.180092">
        <ele>200.07788</ele>
        <time>2021-06-30T09:54:46Z</time>
      </trkpt>
      <trkpt lat="45.052872" lon="5.179650">
        <ele>201.88208</ele>
        <time>2021-06-30T09:54:47Z</time>
      </trkpt>
      <trkpt lat="45.052685" lon="5.179212">
        <ele>202.04993</ele>
        <time>2021-06-30T09:54:48Z</time>
      </trkpt>
      <trkpt lat="45.052685" lon="5.179212">
        <ele>203.65417</ele>
        <time>2021-06-30T09:54:49Z</time>
      </trkpt>
      <trkpt lat="45.052494" lon="5.178776">
        <ele>203.77625</ele>
        <time>2021-06-30T09:54:50Z</time>
      </trkpt>
      <trkpt lat="45.052315" lon="5.178326">
        <ele>203.39844</ele>
        <time>2021-06-30T09:54:51Z</time>
      </trkpt>
      <trkpt lat="45.052132" lon="5.177863">
        <ele>203.32068</ele>
        <time>2021-06-30T09:54:52Z</time>
      </trkpt>
      <trkpt lat="45.051952" lon="5.177418">
        <ele>203.86395</ele>
        <time>2021-06-30T09:54:53Z</time>
      </trkpt>
      <trkpt lat="45.051777" lon="5.176974">
        <ele>203.80316</ele>
        <time>2021-06-30T09:54:54Z</time>
      </trkpt>
      <trkpt lat="45.051601" lon="5.176500">
        <ele>202.99609</ele>
        <time>2021-06-30T09:54:55Z</time>
      </trkpt>
      <trkpt lat="45.051441" lon="5.176060">
        <ele>202.27423</ele>
        <time>2021-06-30T09:54:56Z</time>
      </trkpt>
      <trkpt lat="45.051277" lon="5.175609">
        <ele>202.20667</ele>
        <time>2021-06-30T09:54:57Z</time>
      </trkpt>
      <trkpt lat="45.051113" lon="5.175160">
        <ele>201.12872</ele>
        <time>2021-06-30T09:54:58Z</time>
      </trkpt>
      <trkpt lat="45.050964" lon="5.174716">
        <ele>200.62775</ele>
        <time>2021-06-30T09:54:59Z</time>
      </trkpt>
      <trkpt lat="45.050812" lon="5.174264">
        <ele>200.23895</ele>
        <time>2021-06-30T09:55:00Z</time>
      </trkpt>
      <trkpt lat="45.050652" lon="5.173782">
        <ele>200.10248</ele>
        <time>2021-06-30T09:55:01Z</time>
      </trkpt>
      <trkpt lat="45.050499" lon="5.173317">
        <ele>200.02496</ele>
        <time>2021-06-30T09:55:02Z</time>
      </trkpt>
      <trkpt lat="45.050346" lon="5.172834">
        <ele>199.92761</ele>
        <time>2021-06-30T09:55:03Z</time>
      </trkpt>
      <trkpt lat="45.050190" lon="5.172365">
        <ele>201.35565</ele>
        <time>2021-06-30T09:55:04Z</time>
      </trkpt>
      <trkpt lat="45.050034" lon="5.171893">
        <ele>201.74561</ele>
        <time>2021-06-30T09:55:05Z</time>
      </trkpt>
      <trkpt lat="45.049881" lon="5.171405">
        <ele>201.65283</ele>
        <time>2021-06-30T09:55:06Z</time>
      </trkpt>
      <trkpt lat="45.049740" lon="5.170939">
        <ele>200.74451</ele>
        <time>2021-06-30T09:55:07Z</time>
      </trkpt>
      <trkpt lat="45.049603" lon="5.170477">
        <ele>200.55090</ele>
        <time>2021-06-30T09:55:08Z</time>
      </trkpt>
      <trkpt lat="45.049458" lon="5.170000">
        <ele>199.66064</ele>
        <time>2021-06-30T09:55:09Z</time>
      </trkpt>
      <trkpt lat="45.049320" lon="5.169542">
        <ele>199.19324</ele>
        <time>2021-06-30T09:55:10Z</time>
      </trkpt>
      <trkpt lat="45.049183" lon="5.169085">
        <ele>199.19867</ele>
        <time>2021-06-30T09:55:11Z</time>
      </trkpt>
      <trkpt lat="45.049034" lon="5.168603">
        <ele>198.94495</ele>
        <time>2021-06-30T09:55:12Z</time>
      </trkpt>
      <trkpt lat="45.048889" lon="5.168141">
        <ele>199.97473</ele>
        <time>2021-06-30T09:55:13Z</time>
      </trkpt>
      <trkpt lat="45.048740" lon="5.167668">
        <ele>199.44080</ele>
        <time>2021-06-30T09:55:14Z</time>
      </trkpt>
      <trkpt lat="45.048607" lon="5.167217">
        <ele>199.41736</ele>
        <time>2021-06-30T09:55:15Z</time>
      </trkpt>
      <trkpt lat="45.048470" lon="5.166772">
        <ele>199.75842</ele>
        <time>2021-06-30T09:55:16Z</time>
      </trkpt>
      <trkpt lat="45.048332" lon="5.166317">
        <ele>199.38470</ele>
        <time>2021-06-30T09:55:17Z</time>
      </trkpt>
      <trkpt lat="45.048191" lon="5.165848">
        <ele>198.96698</ele>
        <time>2021-06-30T09:55:18Z</time>
      </trkpt>
      <trkpt lat="45.048046" lon="5.165374">
        <ele>198.84314</ele>
        <time>2021-06-30T09:55:19Z</time>
      </trkpt>
      <trkpt lat="45.048046" lon="5.165374">
        <ele>198.62756</ele>
        <time>2021-06-30T09:55:20Z</time>
      </trkpt>
      <trkpt lat="45.047905" lon="5.164902">
        <ele>198.62000</ele>
        <time>2021-06-30T09:55:21Z</time>
      </trkpt>
      <trkpt lat="45.047771" lon="5.164466">
        <ele>198.43719</ele>
        <time>2021-06-30T09:55:22Z</time>
      </trkpt>
      <trkpt lat="45.047626" lon="5.163982">
        <ele>198.33606</ele>
        <time>2021-06-30T09:55:23Z</time>
      </trkpt>
      <trkpt lat="45.047482" lon="5.163514">
        <ele>198.21606</ele>
        <time>2021-06-30T09:55:24Z</time>
      </trkpt>
      <trkpt lat="45.047344" lon="5.163057">
        <ele>198.10767</ele>
        <time>2021-06-30T09:55:25Z</time>
      </trkpt>
      <trkpt lat="45.047203" lon="5.162582">
        <ele>198.05902</ele>
        <time>2021-06-30T09:55:26Z</time>
      </trkpt>
      <trkpt lat="45.047058" lon="5.162112">
        <ele>197.95123</ele>
        <time>2021-06-30T09:55:27Z</time>
      </trkpt>
      <trkpt lat="45.046951" lon="5.161750">
        <ele>197.05713</ele>
        <time>2021-06-30T09:55:28Z</time>
      </trkpt>
      <trkpt lat="45.046795" lon="5.161230">
        <ele>197.05243</ele>
        <time>2021-06-30T09:55:29Z</time>
      </trkpt>
      <trkpt lat="45.046638" lon="5.160717">
        <ele>197.17188</ele>
        <time>2021-06-30T09:55:30Z</time>
      </trkpt>
      <trkpt lat="45.046501" lon="5.160252">
        <ele>196.71442</ele>
        <time>2021-06-30T09:55:31Z</time>
      </trkpt>
      <trkpt lat="45.046352" lon="5.159759">
        <ele>196.78180</ele>
        <time>2021-06-30T09:55:32Z</time>
      </trkpt>
      <trkpt lat="45.046215" lon="5.159307">
        <ele>196.30139</ele>
        <time>2021-06-30T09:55:33Z</time>
      </trkpt>
      <trkpt lat="45.046074" lon="5.158842">
        <ele>196.39581</ele>
        <time>2021-06-30T09:55:34Z</time>
      </trkpt>
      <trkpt lat="45.045929" lon="5.158364">
        <ele>195.90527</ele>
        <time>2021-06-30T09:55:35Z</time>
      </trkpt>
      <trkpt lat="45.045788" lon="5.157885">
        <ele>195.60327</ele>
        <time>2021-06-30T09:55:36Z</time>
      </trkpt>
      <trkpt lat="45.045643" lon="5.157411">
        <ele>195.26843</ele>
        <time>2021-06-30T09:55:37Z</time>
      </trkpt>
      <trkpt lat="45.045506" lon="5.156951">
        <ele>194.96008</ele>
        <time>2021-06-30T09:55:38Z</time>
      </trkpt>
      <trkpt lat="45.045364" lon="5.156480">
        <ele>194.95618</ele>
        <time>2021-06-30T09:55:39Z</time>
      </trkpt>
      <trkpt lat="45.045223" lon="5.156020">
        <ele>194.67456</ele>
        <time>2021-06-30T09:55:40Z</time>
      </trkpt>
      <trkpt lat="45.045086" lon="5.155556">
        <ele>194.40698</ele>
        <time>2021-06-30T09:55:41Z</time>
      </trkpt>
      <trkpt lat="45.044945" lon="5.155093">
        <ele>194.14453</ele>
        <time>2021-06-30T09:55:42Z</time>
      </trkpt>
      <trkpt lat="45.044804" lon="5.154623">
        <ele>194.29382</ele>
        <time>2021-06-30T09:55:43Z</time>
      </trkpt>
      <trkpt lat="45.044662" lon="5.154162">
        <ele>195.01221</ele>
        <time>2021-06-30T09:55:44Z</time>
      </trkpt>
      <trkpt lat="45.044525" lon="5.153706">
        <ele>195.57666</ele>
        <time>2021-06-30T09:55:45Z</time>
      </trkpt>
      <trkpt lat="45.044380" lon="5.153235">
        <ele>196.39270</ele>
        <time>2021-06-30T09:55:46Z</time>
      </trkpt>
      <trkpt lat="45.044228" lon="5.152759">
        <ele>197.52374</ele>
        <time>2021-06-30T09:55:47Z</time>
      </trkpt>
      <trkpt lat="45.044075" lon="5.152315">
        <ele>198.69604</ele>
        <time>2021-06-30T09:55:48Z</time>
      </trkpt>
      <trkpt lat="45.043911" lon="5.151855">
        <ele>199.45795</ele>
        <time>2021-06-30T09:55:49Z</time>
      </trkpt>
      <trkpt lat="45.043743" lon="5.151394">
        <ele>200.49799</ele>
        <time>2021-06-30T09:55:50Z</time>
      </trkpt>
      <trkpt lat="45.043743" lon="5.151394">
        <ele>201.77557</ele>
        <time>2021-06-30T09:55:51Z</time>
      </trkpt>
      <trkpt lat="45.043568" lon="5.150954">
        <ele>203.21838</ele>
        <time>2021-06-30T09:55:52Z</time>
      </trkpt>
      <trkpt lat="45.043377" lon="5.150506">
        <ele>204.77173</ele>
        <time>2021-06-30T09:55:53Z</time>
      </trkpt>
      <trkpt lat="45.043194" lon="5.150095">
        <ele>206.06403</ele>
        <time>2021-06-30T09:55:54Z</time>
      </trkpt>
      <trkpt lat="45.042995" lon="5.149669">
        <ele>206.98047</ele>
        <time>2021-06-30T09:55:55Z</time>
      </trkpt>
      <trkpt lat="45.042789" lon="5.149249">
        <ele>207.95514</ele>
        <time>2021-06-30T09:55:56Z</time>
      </trkpt>
      <trkpt lat="45.042583" lon="5.148842">
        <ele>208.86530</ele>
        <time>2021-06-30T09:55:57Z</time>
      </trkpt>
      <trkpt lat="45.042370" lon="5.148439">
        <ele>210.13873</ele>
        <time>2021-06-30T09:55:58Z</time>
      </trkpt>
      <trkpt lat="45.042160" lon="5.148059">
        <ele>210.91748</ele>
        <time>2021-06-30T09:55:59Z</time>
      </trkpt>
      <trkpt lat="45.041939" lon="5.147678">
        <ele>213.47168</ele>
        <time>2021-06-30T09:56:00Z</time>
      </trkpt>
      <trkpt lat="45.041710" lon="5.147280">
        <ele>216.17554</ele>
        <time>2021-06-30T09:56:01Z</time>
      </trkpt>
      <trkpt lat="45.041462" lon="5.146894">
        <ele>217.82458</ele>
        <time>2021-06-30T09:56:02Z</time>
      </trkpt>
      <trkpt lat="45.041210" lon="5.146516">
        <ele>219.91309</ele>
        <time>2021-06-30T09:56:03Z</time>
      </trkpt>
      <trkpt lat="45.040947" lon="5.146133">
        <ele>221.94110</ele>
        <time>2021-06-30T09:56:04Z</time>
      </trkpt>
      <trkpt lat="45.040668" lon="5.145770">
        <ele>223.57617</ele>
        <time>2021-06-30T09:56:05Z</time>
      </trkpt>
      <trkpt lat="45.040401" lon="5.145416">
        <ele>225.55737</ele>
        <time>2021-06-30T09:56:06Z</time>
      </trkpt>
      <trkpt lat="45.040127" lon="5.145076">
        <ele>227.11755</ele>
        <time>2021-06-30T09:56:07Z</time>
      </trkpt>
      <trkpt lat="45.039860" lon="5.144745">
        <ele>228.64697</ele>
        <time>2021-06-30T09:56:08Z</time>
      </trkpt>
      <trkpt lat="45.039577" lon="5.144415">
        <ele>229.71387</ele>
        <time>2021-06-30T09:56:09Z</time>
      </trkpt>
      <trkpt lat="45.039295" lon="5.144087">
        <ele>231.47803</ele>
        <time>2021-06-30T09:56:10Z</time>
      </trkpt>
      <trkpt lat="45.039009" lon="5.143760">
        <ele>232.95496</ele>
        <time>2021-06-30T09:56:11Z</time>
      </trkpt>
      <trkpt lat="45.038734" lon="5.143440">
        <ele>233.99939</ele>
        <time>2021-06-30T09:56:12Z</time>
      </trkpt>
      <trkpt lat="45.038456" lon="5.143115">
        <ele>235.01086</ele>
        <time>2021-06-30T09:56:13Z</time>
      </trkpt>
      <trkpt lat="45.038177" lon="5.142785">
        <ele>236.06897</ele>
        <time>2021-06-30T09:56:14Z</time>
      </trkpt>
      <trkpt lat="45.037895" lon="5.142429">
        <ele>236.84790</ele>
        <time>2021-06-30T09:56:15Z</time>
      </trkpt>
      <trkpt lat="45.037632" lon="5.142077">
        <ele>237.54034</ele>
        <time>2021-06-30T09:56:16Z</time>
      </trkpt>
      <trkpt lat="45.037376" lon="5.141708">
        <ele>239.06671</ele>
        <time>2021-06-30T09:56:17Z</time>
      </trkpt>
      <trkpt lat="45.037117" lon="5.141335">
        <ele>239.78021</ele>
        <time>2021-06-30T09:56:18Z</time>
      </trkpt>
      <trkpt lat="45.037117" lon="5.141335">
        <ele>239.92090</ele>
        <time>2021-06-30T09:56:19Z</time>
      </trkpt>
      <trkpt lat="45.036873" lon="5.140969">
        <ele>240.22058</ele>
        <time>2021-06-30T09:56:20Z</time>
      </trkpt>
      <trkpt lat="45.036629" lon="5.140589">
        <ele>240.43640</ele>
        <time>2021-06-30T09:56:21Z</time>
      </trkpt>
      <trkpt lat="45.036385" lon="5.140194">
        <ele>240.82947</ele>
        <time>2021-06-30T09:56:22Z</time>
      </trkpt>
      <trkpt lat="45.036160" lon="5.139794">
        <ele>241.10571</ele>
        <time>2021-06-30T09:56:23Z</time>
      </trkpt>
      <trkpt lat="45.035934" lon="5.139377">
        <ele>240.60181</ele>
        <time>2021-06-30T09:56:24Z</time>
      </trkpt>
      <trkpt lat="45.035717" lon="5.138963">
        <ele>241.38367</ele>
        <time>2021-06-30T09:56:25Z</time>
      </trkpt>
      <trkpt lat="45.035500" lon="5.138518">
        <ele>240.93677</ele>
        <time>2021-06-30T09:56:26Z</time>
      </trkpt>
      <trkpt lat="45.035297" lon="5.138104">
        <ele>241.03723</ele>
        <time>2021-06-30T09:56:27Z</time>
      </trkpt>
      <trkpt lat="45.035103" lon="5.137664">
        <ele>240.88208</ele>
        <time>2021-06-30T09:56:28Z</time>
      </trkpt>
      <trkpt lat="45.034908" lon="5.137217">
        <ele>241.15881</ele>
        <time>2021-06-30T09:56:29Z</time>
      </trkpt>
      <trkpt lat="45.034733" lon="5.136789">
        <ele>240.73315</ele>
        <time>2021-06-30T09:56:30Z</time>
      </trkpt>
      <trkpt lat="45.034554" lon="5.136329">
        <ele>240.60004</ele>
        <time>2021-06-30T09:56:31Z</time>
      </trkpt>
      <trkpt lat="45.034389" lon="5.135875">
        <ele>240.28784</ele>
        <time>2021-06-30T09:56:32Z</time>
      </trkpt>
      <trkpt lat="45.034225" lon="5.135417">
        <ele>239.94519</ele>
        <time>2021-06-30T09:56:33Z</time>
      </trkpt>
      <trkpt lat="45.034081" lon="5.134971">
        <ele>239.61572</ele>
        <time>2021-06-30T09:56:34Z</time>
      </trkpt>
      <trkpt lat="45.033928" lon="5.134483">
        <ele>238.51440</ele>
        <time>2021-06-30T09:56:35Z</time>
      </trkpt>
      <trkpt lat="45.033791" lon="5.134014">
        <ele>238.17999</ele>
        <time>2021-06-30T09:56:36Z</time>
      </trkpt>
      <trkpt lat="45.033661" lon="5.133554">
        <ele>237.08521</ele>
        <time>2021-06-30T09:56:37Z</time>
      </trkpt>
      <trkpt lat="45.033543" lon="5.133080">
        <ele>236.05371</ele>
        <time>2021-06-30T09:56:38Z</time>
      </trkpt>
      <trkpt lat="45.033424" lon="5.132594">
        <ele>235.20959</ele>
        <time>2021-06-30T09:56:39Z</time>
      </trkpt>
      <trkpt lat="45.033321" lon="5.132100">
        <ele>234.83026</ele>
        <time>2021-06-30T09:56:40Z</time>
      </trkpt>
      <trkpt lat="45.033222" lon="5.131618">
        <ele>233.79651</ele>
        <time>2021-06-30T09:56:41Z</time>
      </trkpt>
      <trkpt lat="45.033134" lon="5.131135">
        <ele>232.28613</ele>
        <time>2021-06-30T09:56:42Z</time>
      </trkpt>
      <trkpt lat="45.033051" lon="5.130643">
        <ele>231.59619</ele>
        <time>2021-06-30T09:56:43Z</time>
      </trkpt>
      <trkpt lat="45.032967" lon="5.130134">
        <ele>230.91858</ele>
        <time>2021-06-30T09:56:44Z</time>
      </trkpt>
      <trkpt lat="45.032890" lon="5.129623">
        <ele>230.12073</ele>
        <time>2021-06-30T09:56:45Z</time>
      </trkpt>
      <trkpt lat="45.032822" lon="5.129124">
        <ele>229.57495</ele>
        <time>2021-06-30T09:56:46Z</time>
      </trkpt>
      <trkpt lat="45.032749" lon="5.128607">
        <ele>227.44336</ele>
        <time>2021-06-30T09:56:47Z</time>
      </trkpt>
      <trkpt lat="45.032681" lon="5.128102">
        <ele>224.84869</ele>
        <time>2021-06-30T09:56:48Z</time>
      </trkpt>
      <trkpt lat="45.032612" lon="5.127608">
        <ele>224.31653</ele>
        <time>2021-06-30T09:56:49Z</time>
      </trkpt>
      <trkpt lat="45.032539" lon="5.127099">
        <ele>223.98474</ele>
        <time>2021-06-30T09:56:50Z</time>
      </trkpt>
      <trkpt lat="45.032471" lon="5.126601">
        <ele>222.76318</ele>
        <time>2021-06-30T09:56:51Z</time>
      </trkpt>
      <trkpt lat="45.032406" lon="5.126099">
        <ele>219.88184</ele>
        <time>2021-06-30T09:56:52Z</time>
      </trkpt>
      <trkpt lat="45.032337" lon="5.125628">
        <ele>219.45007</ele>
        <time>2021-06-30T09:56:53Z</time>
      </trkpt>
      <trkpt lat="45.032269" lon="5.125142">
        <ele>219.02612</ele>
        <time>2021-06-30T09:56:54Z</time>
      </trkpt>
      <trkpt lat="45.032196" lon="5.124639">
        <ele>217.77112</ele>
        <time>2021-06-30T09:56:55Z</time>
      </trkpt>
      <trkpt lat="45.032196" lon="5.124639">
        <ele>217.97784</ele>
        <time>2021-06-30T09:56:56Z</time>
      </trkpt>
      <trkpt lat="45.032124" lon="5.124123">
        <ele>217.82166</ele>
        <time>2021-06-30T09:56:57Z</time>
      </trkpt>
      <trkpt lat="45.032051" lon="5.123630">
        <ele>215.95026</ele>
        <time>2021-06-30T09:56:58Z</time>
      </trkpt>
      <trkpt lat="45.031979" lon="5.123129">
        <ele>215.98810</ele>
        <time>2021-06-30T09:56:59Z</time>
      </trkpt>
      <trkpt lat="45.031906" lon="5.122621">
        <ele>215.90442</ele>
        <time>2021-06-30T09:57:00Z</time>
      </trkpt>
      <trkpt lat="45.031834" lon="5.122111">
        <ele>215.91260</ele>
        <time>2021-06-30T09:57:01Z</time>
      </trkpt>
      <trkpt lat="45.031761" lon="5.121613">
        <ele>215.53619</ele>
        <time>2021-06-30T09:57:02Z</time>
      </trkpt>
      <trkpt lat="45.031689" lon="5.121108">
        <ele>214.69818</ele>
        <time>2021-06-30T09:57:02Z</time>
      </trkpt>
      <trkpt lat="45.031620" lon="5.120637">
        <ele>214.61707</ele>
        <time>2021-06-30T09:57:03Z</time>
      </trkpt>
      <trkpt lat="45.031551" lon="5.120149">
        <ele>213.72040</ele>
        <time>2021-06-30T09:57:04Z</time>
      </trkpt>
      <trkpt lat="45.031471" lon="5.119637">
        <ele>213.34387</ele>
        <time>2021-06-30T09:57:05Z</time>
      </trkpt>
      <trkpt lat="45.031391" lon="5.119145">
        <ele>212.83032</ele>
        <time>2021-06-30T09:57:06Z</time>
      </trkpt>
      <trkpt lat="45.031307" lon="5.118657">
        <ele>213.65479</ele>
        <time>2021-06-30T09:57:07Z</time>
      </trkpt>
      <trkpt lat="45.031231" lon="5.118185">
        <ele>213.38208</ele>
        <time>2021-06-30T09:57:08Z</time>
      </trkpt>
      <trkpt lat="45.031139" lon="5.117688">
        <ele>212.84460</ele>
        <time>2021-06-30T09:57:09Z</time>
      </trkpt>
      <trkpt lat="45.031040" lon="5.117177">
        <ele>212.25946</ele>
        <time>2021-06-30T09:57:10Z</time>
      </trkpt>
      <trkpt lat="45.030941" lon="5.116686">
        <ele>211.86389</ele>
        <time>2021-06-30T09:57:11Z</time>
      </trkpt>
      <trkpt lat="45.030838" lon="5.116204">
        <ele>211.99591</ele>
        <time>2021-06-30T09:57:12Z</time>
      </trkpt>
      <trkpt lat="45.030735" lon="5.115730">
        <ele>211.41443</ele>
        <time>2021-06-30T09:57:13Z</time>
      </trkpt>
      <trkpt lat="45.030621" lon="5.115269">
        <ele>210.32062</ele>
        <time>2021-06-30T09:57:14Z</time>
      </trkpt>
      <trkpt lat="45.030499" lon="5.114764">
        <ele>210.96674</ele>
        <time>2021-06-30T09:57:15Z</time>
      </trkpt>
      <trkpt lat="45.030376" lon="5.114281">
        <ele>211.01917</ele>
        <time>2021-06-30T09:57:16Z</time>
      </trkpt>
      <trkpt lat="45.030254" lon="5.113818">
        <ele>211.21692</ele>
        <time>2021-06-30T09:57:17Z</time>
      </trkpt>
      <trkpt lat="45.030128" lon="5.113345">
        <ele>211.77246</ele>
        <time>2021-06-30T09:57:18Z</time>
      </trkpt>
      <trkpt lat="45.029991" lon="5.112880">
        <ele>211.41357</ele>
        <time>2021-06-30T09:57:19Z</time>
      </trkpt>
      <trkpt lat="45.029846" lon="5.112402">
        <ele>211.95007</ele>
        <time>2021-06-30T09:57:20Z</time>
      </trkpt>
      <trkpt lat="45.029709" lon="5.111942">
        <ele>210.09375</ele>
        <time>2021-06-30T09:57:21Z</time>
      </trkpt>
      <trkpt lat="45.029560" lon="5.111493">
        <ele>209.78833</ele>
        <time>2021-06-30T09:57:22Z</time>
      </trkpt>
      <trkpt lat="45.029408" lon="5.111024">
        <ele>209.66376</ele>
        <time>2021-06-30T09:57:23Z</time>
      </trkpt>
      <trkpt lat="45.029255" lon="5.110553">
        <ele>209.62061</ele>
        <time>2021-06-30T09:57:24Z</time>
      </trkpt>
      <trkpt lat="45.029114" lon="5.110129">
        <ele>209.14954</ele>
        <time>2021-06-30T09:57:25Z</time>
      </trkpt>
      <trkpt lat="45.028973" lon="5.109705">
        <ele>208.54614</ele>
        <time>2021-06-30T09:57:26Z</time>
      </trkpt>
      <trkpt lat="45.028973" lon="5.109705">
        <ele>208.49591</ele>
        <time>2021-06-30T09:57:27Z</time>
      </trkpt>
      <trkpt lat="45.028820" lon="5.109256">
        <ele>208.22974</ele>
        <time>2021-06-30T09:57:28Z</time>
      </trkpt>
      <trkpt lat="45.028667" lon="5.108803">
        <ele>207.98059</ele>
        <time>2021-06-30T09:57:29Z</time>
      </trkpt>
      <trkpt lat="45.028519" lon="5.108361">
        <ele>207.02405</ele>
        <time>2021-06-30T09:57:30Z</time>
      </trkpt>
      <trkpt lat="45.028378" lon="5.107931">
        <ele>207.46484</ele>
        <time>2021-06-30T09:57:31Z</time>
      </trkpt>
      <trkpt lat="45.028210" lon="5.107436">
        <ele>208.20190</ele>
        <time>2021-06-30T09:57:32Z</time>
      </trkpt>
      <trkpt lat="45.028053" lon="5.106953">
        <ele>208.23804</ele>
        <time>2021-06-30T09:57:33Z</time>
      </trkpt>
      <trkpt lat="45.027916" lon="5.106517">
        <ele>207.02063</ele>
        <time>2021-06-30T09:57:34Z</time>
      </trkpt>
      <trkpt lat="45.027767" lon="5.106051">
        <ele>206.92023</ele>
        <time>2021-06-30T09:57:35Z</time>
      </trkpt>
      <trkpt lat="45.027630" lon="5.105586">
        <ele>208.00446</ele>
        <time>2021-06-30T09:57:36Z</time>
      </trkpt>
      <trkpt lat="45.027496" lon="5.105122">
        <ele>208.01685</ele>
        <time>2021-06-30T09:57:37Z</time>
      </trkpt>
      <trkpt lat="45.027393" lon="5.104753">
        <ele>207.61072</ele>
        <time>2021-06-30T09:57:38Z</time>
      </trkpt>
      <trkpt lat="45.027287" lon="5.104353">
        <ele>207.46600</ele>
        <time>2021-06-30T09:57:39Z</time>
      </trkpt>
      <trkpt lat="45.027184" lon="5.103959">
        <ele>205.99738</ele>
        <time>2021-06-30T09:57:40Z</time>
      </trkpt>
      <trkpt lat="45.027088" lon="5.103552">
        <ele>206.43774</ele>
        <time>2021-06-30T09:57:41Z</time>
      </trkpt>
      <trkpt lat="45.027000" lon="5.103180">
        <ele>205.08118</ele>
        <time>2021-06-30T09:57:42Z</time>
      </trkpt>
      <trkpt lat="45.026909" lon="5.102758">
        <ele>204.99933</ele>
        <time>2021-06-30T09:57:43Z</time>
      </trkpt>
      <trkpt lat="45.026829" lon="5.102379">
        <ele>204.08057</ele>
        <time>2021-06-30T09:57:44Z</time>
      </trkpt>
      <trkpt lat="45.026756" lon="5.102028">
        <ele>205.49945</ele>
        <time>2021-06-30T09:57:45Z</time>
      </trkpt>
      <trkpt lat="45.026684" lon="5.101681">
        <ele>205.89716</ele>
        <time>2021-06-30T09:57:46Z</time>
      </trkpt>
      <trkpt lat="45.026623" lon="5.101342">
        <ele>205.30017</ele>
        <time>2021-06-30T09:57:47Z</time>
      </trkpt>
      <trkpt lat="45.026577" lon="5.101024">
        <ele>205.52637</ele>
        <time>2021-06-30T09:57:48Z</time>
      </trkpt>
      <trkpt lat="45.026531" lon="5.100713">
        <ele>206.21338</ele>
        <time>2021-06-30T09:57:49Z</time>
      </trkpt>
      <trkpt lat="45.026493" lon="5.100420">
        <ele>207.01208</ele>
        <time>2021-06-30T09:57:50Z</time>
      </trkpt>
      <trkpt lat="45.026478" lon="5.100128">
        <ele>206.73322</ele>
        <time>2021-06-30T09:57:51Z</time>
      </trkpt>
      <trkpt lat="45.026459" lon="5.099843">
        <ele>207.77795</ele>
        <time>2021-06-30T09:57:52Z</time>
      </trkpt>
      <trkpt lat="45.026432" lon="5.099545">
        <ele>208.76099</ele>
        <time>2021-06-30T09:57:53Z</time>
      </trkpt>
      <trkpt lat="45.026409" lon="5.099261">
        <ele>210.04358</ele>
        <time>2021-06-30T09:57:54Z</time>
      </trkpt>
      <trkpt lat="45.026386" lon="5.098995">
        <ele>210.75928</ele>
        <time>2021-06-30T09:57:55Z</time>
      </trkpt>
      <trkpt lat="45.026367" lon="5.098737">
        <ele>210.84625</ele>
        <time>2021-06-30T09:57:56Z</time>
      </trkpt>
      <trkpt lat="45.026356" lon="5.098510">
        <ele>210.21521</ele>
        <time>2021-06-30T09:57:57Z</time>
      </trkpt>
      <trkpt lat="45.026340" lon="5.098284">
        <ele>210.26062</ele>
        <time>2021-06-30T09:57:58Z</time>
      </trkpt>
      <trkpt lat="45.026321" lon="5.098075">
        <ele>211.04736</ele>
        <time>2021-06-30T09:57:59Z</time>
      </trkpt>
      <trkpt lat="45.026302" lon="5.097877">
        <ele>212.13300</ele>
        <time>2021-06-30T09:58:00Z</time>
      </trkpt>
      <trkpt lat="45.026283" lon="5.097676">
        <ele>213.78021</ele>
        <time>2021-06-30T09:58:01Z</time>
      </trkpt>
      <trkpt lat="45.026264" lon="5.097500">
        <ele>213.22791</ele>
        <time>2021-06-30T09:58:02Z</time>
      </trkpt>
      <trkpt lat="45.026264" lon="5.097500">
        <ele>216.17810</ele>
        <time>2021-06-30T09:58:03Z</time>
      </trkpt>
      <trkpt lat="45.026245" lon="5.097337">
        <ele>216.04138</ele>
        <time>2021-06-30T09:58:04Z</time>
      </trkpt>
      <trkpt lat="45.026234" lon="5.097220">
        <ele>216.47852</ele>
        <time>2021-06-30T09:58:05Z</time>
      </trkpt>
      <trkpt lat="45.026218" lon="5.097117">
        <ele>213.87299</ele>
        <time>2021-06-30T09:58:06Z</time>
      </trkpt>
      <trkpt lat="45.026207" lon="5.097034">
        <ele>213.61523</ele>
        <time>2021-06-30T09:58:07Z</time>
      </trkpt>
      <trkpt lat="45.026196" lon="5.096946">
        <ele>213.61792</ele>
        <time>2021-06-30T09:58:08Z</time>
      </trkpt>
      <trkpt lat="45.026180" lon="5.096863">
        <ele>213.15216</ele>
        <time>2021-06-30T09:58:09Z</time>
      </trkpt>
      <trkpt lat="45.026173" lon="5.096797">
        <ele>213.79633</ele>
        <time>2021-06-30T09:58:10Z</time>
      </trkpt>
      <trkpt lat="45.026161" lon="5.096721">
        <ele>213.24060</ele>
        <time>2021-06-30T09:58:11Z</time>
      </trkpt>
      <trkpt lat="45.026157" lon="5.096699">
        <ele>214.37463</ele>
        <time>2021-06-30T09:58:12Z</time>
      </trkpt>
      <trkpt lat="45.026157" lon="5.096699">
        <ele>215.91895</ele>
        <time>2021-06-30T09:58:13Z</time>
      </trkpt>
      <trkpt lat="45.026157" lon="5.096694">
        <ele>216.70935</ele>
        <time>2021-06-30T09:58:15Z</time>
      </trkpt>
      <trkpt lat="45.026154" lon="5.096657">
        <ele>215.88422</ele>
        <time>2021-06-30T09:58:16Z</time>
      </trkpt>
      <trkpt lat="45.026138" lon="5.096561">
        <ele>214.93280</ele>
        <time>2021-06-30T09:58:17Z</time>
      </trkpt>
      <trkpt lat="45.026119" lon="5.096440">
        <ele>215.81226</ele>
        <time>2021-06-30T09:58:18Z</time>
      </trkpt>
      <trkpt lat="45.026108" lon="5.096361">
        <ele>217.65601</ele>
        <time>2021-06-30T09:58:19Z</time>
      </trkpt>
      <trkpt lat="45.026089" lon="5.096245">
        <ele>217.01544</ele>
        <time>2021-06-30T09:58:20Z</time>
      </trkpt>
      <trkpt lat="45.026066" lon="5.096110">
        <ele>217.08679</ele>
        <time>2021-06-30T09:58:21Z</time>
      </trkpt>
      <trkpt lat="45.026043" lon="5.095978">
        <ele>216.76349</ele>
        <time>2021-06-30T09:58:22Z</time>
      </trkpt>
      <trkpt lat="45.026016" lon="5.095847">
        <ele>215.27460</ele>
        <time>2021-06-30T09:58:22Z</time>
      </trkpt>
      <trkpt lat="45.025993" lon="5.095727">
        <ele>214.52161</ele>
        <time>2021-06-30T09:58:23Z</time>
      </trkpt>
      <trkpt lat="45.025970" lon="5.095612">
        <ele>214.36975</ele>
        <time>2021-06-30T09:58:24Z</time>
      </trkpt>
      <trkpt lat="45.025948" lon="5.095495">
        <ele>213.67310</ele>
        <time>2021-06-30T09:58:25Z</time>
      </trkpt>
      <trkpt lat="45.025925" lon="5.095369">
        <ele>213.00922</ele>
        <time>2021-06-30T09:58:26Z</time>
      </trkpt>
      <trkpt lat="45.025902" lon="5.095256">
        <ele>213.36145</ele>
        <time>2021-06-30T09:58:27Z</time>
      </trkpt>
      <trkpt lat="45.025879" lon="5.095140">
        <ele>212.89172</ele>
        <time>2021-06-30T09:58:28Z</time>
      </trkpt>
      <trkpt lat="45.025860" lon="5.095030">
        <ele>211.84753</ele>
        <time>2021-06-30T09:58:29Z</time>
      </trkpt>
      <trkpt lat="45.025837" lon="5.094918">
        <ele>211.78296</ele>
        <time>2021-06-30T09:58:31Z</time>
      </trkpt>
      <trkpt lat="45.025818" lon="5.094809">
        <ele>211.26855</ele>
        <time>2021-06-30T09:58:31Z</time>
      </trkpt>
      <trkpt lat="45.025818" lon="5.094809">
        <ele>210.32153</ele>
        <time>2021-06-30T09:58:33Z</time>
      </trkpt>
      <trkpt lat="45.025795" lon="5.094706">
        <ele>211.13367</ele>
        <time>2021-06-30T09:58:33Z</time>
      </trkpt>
      <trkpt lat="45.025776" lon="5.094611">
        <ele>211.68799</ele>
        <time>2021-06-30T09:58:34Z</time>
      </trkpt>
      <trkpt lat="45.025757" lon="5.094503">
        <ele>211.57080</ele>
        <time>2021-06-30T09:58:36Z</time>
      </trkpt>
      <trkpt lat="45.025730" lon="5.094395">
        <ele>212.39197</ele>
        <time>2021-06-30T09:58:36Z</time>
      </trkpt>
      <trkpt lat="45.025707" lon="5.094296">
        <ele>212.09375</ele>
        <time>2021-06-30T09:58:38Z</time>
      </trkpt>
      <trkpt lat="45.025692" lon="5.094220">
        <ele>213.10742</ele>
        <time>2021-06-30T09:58:38Z</time>
      </trkpt>
      <trkpt lat="45.025677" lon="5.094164">
        <ele>211.65271</ele>
        <time>2021-06-30T09:58:39Z</time>
      </trkpt>
      <trkpt lat="45.025669" lon="5.094128">
        <ele>211.00421</ele>
        <time>2021-06-30T09:58:41Z</time>
      </trkpt>
      <trkpt lat="45.025661" lon="5.094086">
        <ele>211.02350</ele>
        <time>2021-06-30T09:58:42Z</time>
      </trkpt>
      <trkpt lat="45.025650" lon="5.094034">
        <ele>210.96863</ele>
        <time>2021-06-30T09:58:42Z</time>
      </trkpt>
      <trkpt lat="45.025642" lon="5.093990">
        <ele>210.70978</ele>
        <time>2021-06-30T09:58:43Z</time>
      </trkpt>
      <trkpt lat="45.025635" lon="5.093942">
        <ele>210.49158</ele>
        <time>2021-06-30T09:58:44Z</time>
      </trkpt>
      <trkpt lat="45.025623" lon="5.093897">
        <ele>210.48163</ele>
        <time>2021-06-30T09:58:46Z</time>
      </trkpt>
      <trkpt lat="45.025616" lon="5.093848">
        <ele>210.14929</ele>
        <time>2021-06-30T09:58:47Z</time>
      </trkpt>
      <trkpt lat="45.025608" lon="5.093808">
        <ele>209.78558</ele>
        <time>2021-06-30T09:58:48Z</time>
      </trkpt>
      <trkpt lat="45.025600" lon="5.093782">
        <ele>210.17645</ele>
        <time>2021-06-30T09:58:49Z</time>
      </trkpt>
      <trkpt lat="45.025600" lon="5.093769">
        <ele>210.66956</ele>
        <time>2021-06-30T09:58:49Z</time>
      </trkpt>
      <trkpt lat="45.025600" lon="5.093769">
        <ele>210.22522</ele>
        <time>2021-06-30T09:58:50Z</time>
      </trkpt>
      <trkpt lat="45.025600" lon="5.093769">
        <ele>210.46991</ele>
        <time>2021-06-30T09:58:51Z</time>
      </trkpt>
      <trkpt lat="45.025600" lon="5.093769">
        <ele>210.17981</ele>
        <time>2021-06-30T09:58:52Z</time>
      </trkpt>
      <trkpt lat="45.025600" lon="5.093769">
        <ele>210.31555</ele>
        <time>2021-06-30T09:58:53Z</time>
      </trkpt>
      <trkpt lat="45.025600" lon="5.093769">
        <ele>210.00867</ele>
        <time>2021-06-30T09:58:55Z</time>
      </trkpt>
      <trkpt lat="45.025600" lon="5.093769">
        <ele>201.63937</ele>
        <time>2021-06-30T09:58:56Z</time>
      </trkpt>
      <trkpt lat="45.025600" lon="5.093769">
        <ele>201.78047</ele>
        <time>2021-06-30T09:58:57Z</time>
      </trkpt>
      <trkpt lat="45.025600" lon="5.093769">
        <ele>205.13885</ele>
        <time>2021-06-30T09:58:58Z</time>
      </trkpt>
      <trkpt lat="45.025600" lon="5.093769">
        <ele>206.32300</ele>
        <time>2021-06-30T09:58:59Z</time>
      </trkpt>
      <trkpt lat="45.025600" lon="5.093769">
        <ele>206.75684</ele>
        <time>2021-06-30T09:58:59Z</time>
      </trkpt>
      <trkpt lat="45.025600" lon="5.093769">
        <ele>202.16554</ele>
        <time>2021-06-30T09:59:01Z</time>
      </trkpt>
      <trkpt lat="45.025600" lon="5.093769">
        <ele>205.42078</ele>
        <time>2021-06-30T09:59:02Z</time>
      </trkpt>
      <trkpt lat="45.025600" lon="5.093769">
        <ele>206.20831</ele>
        <time>2021-06-30T09:59:03Z</time>
      </trkpt>
      <trkpt lat="45.025600" lon="5.093769">
        <ele>206.58905</ele>
        <time>2021-06-30T09:59:04Z</time>
      </trkpt>
      <trkpt lat="45.025600" lon="5.093769">
        <ele>206.69519</ele>
        <time>2021-06-30T09:59:05Z</time>
      </trkpt>
      <trkpt lat="45.025600" lon="5.093769">
        <ele>202.57094</ele>
        <time>2021-06-30T09:59:06Z</time>
      </trkpt>
      <trkpt lat="45.025600" lon="5.093769">
        <ele>202.62120</ele>
        <time>2021-06-30T09:59:07Z</time>
      </trkpt>
      <trkpt lat="45.025600" lon="5.093769">
        <ele>205.45117</ele>
        <time>2021-06-30T09:59:08Z</time>
      </trkpt>
      <trkpt lat="45.025600" lon="5.093769">
        <ele>202.38969</ele>
        <time>2021-06-30T09:59:09Z</time>
      </trkpt>
      <trkpt lat="45.025600" lon="5.093769">
        <ele>202.23030</ele>
        <time>2021-06-30T09:59:10Z</time>
      </trkpt>
      <trkpt lat="45.025600" lon="5.093769">
        <ele>202.21062</ele>
        <time>2021-06-30T09:59:10Z</time>
      </trkpt>
      <trkpt lat="45.025600" lon="5.093769">
        <ele>202.30652</ele>
        <time>2021-06-30T09:59:11Z</time>
      </trkpt>
      <trkpt lat="45.025600" lon="5.093769">
        <ele>202.17529</ele>
        <time>2021-06-30T09:59:12Z</time>
      </trkpt>
      <trkpt lat="45.025600" lon="5.093769">
        <ele>202.14172</ele>
        <time>2021-06-30T09:59:13Z</time>
      </trkpt>
      <trkpt lat="45.025600" lon="5.093769">
        <ele>202.06502</ele>
        <time>2021-06-30T09:59:15Z</time>
      </trkpt>
      <trkpt lat="45.025600" lon="5.093769">
        <ele>202.12592</ele>
        <time>2021-06-30T09:59:16Z</time>
      </trkpt>
      <trkpt lat="45.025600" lon="5.093769">
        <ele>202.12648</ele>
        <time>2021-06-30T09:59:17Z</time>
      </trkpt>
      <trkpt lat="45.025600" lon="5.093769">
        <ele>202.07806</ele>
        <time>2021-06-30T09:59:17Z</time>
      </trkpt>
      <trkpt lat="45.025600" lon="5.093769">
        <ele>205.33032</ele>
        <time>2021-06-30T09:59:18Z</time>
      </trkpt>
      <trkpt lat="45.025600" lon="5.093769">
        <ele>198.86864</ele>
        <time>2021-06-30T09:59:19Z</time>
      </trkpt>
      <trkpt lat="45.025600" lon="5.093769">
        <ele>204.45483</ele>
        <time>2021-06-30T09:59:20Z</time>
      </trkpt>
      <trkpt lat="45.025600" lon="5.093769">
        <ele>205.34637</ele>
        <time>2021-06-30T09:59:21Z</time>
      </trkpt>
      <trkpt lat="45.025600" lon="5.093769">
        <ele>205.81891</ele>
        <time>2021-06-30T09:59:23Z</time>
      </trkpt>
      <trkpt lat="45.025600" lon="5.093769">
        <ele>198.85480</ele>
        <time>2021-06-30T09:59:24Z</time>
      </trkpt>
      <trkpt lat="45.025600" lon="5.093769">
        <ele>198.74683</ele>
        <time>2021-06-30T09:59:25Z</time>
      </trkpt>
      <trkpt lat="45.025600" lon="5.093769">
        <ele>198.68417</ele>
        <time>2021-06-30T09:59:26Z</time>
      </trkpt>
      <trkpt lat="45.025600" lon="5.093769">
        <ele>198.77531</ele>
        <time>2021-06-30T09:59:26Z</time>
      </trkpt>
      <trkpt lat="45.025600" lon="5.093769">
        <ele>198.82533</ele>
        <time>2021-06-30T09:59:27Z</time>
      </trkpt>
      <trkpt lat="45.025600" lon="5.093769">
        <ele>204.46521</ele>
        <time>2021-06-30T09:59:28Z</time>
      </trkpt>
      <trkpt lat="45.025600" lon="5.093769">
        <ele>201.63322</ele>
        <time>2021-06-30T09:59:29Z</time>
      </trkpt>
      <trkpt lat="45.025600" lon="5.093769">
        <ele>202.91656</ele>
        <time>2021-06-30T09:59:30Z</time>
      </trkpt>
      <trkpt lat="45.025600" lon="5.093769">
        <ele>203.45940</ele>
        <time>2021-06-30T09:59:31Z</time>
      </trkpt>
      <trkpt lat="45.025600" lon="5.093769">
        <ele>203.63005</ele>
        <time>2021-06-30T09:59:32Z</time>
      </trkpt>
      <trkpt lat="45.025600" lon="5.093769">
        <ele>203.77322</ele>
        <time>2021-06-30T09:59:33Z</time>
      </trkpt>
      <trkpt lat="45.025600" lon="5.093769">
        <ele>203.79854</ele>
        <time>2021-06-30T09:59:34Z</time>
      </trkpt>
      <trkpt lat="45.025600" lon="5.093769">
        <ele>203.85883</ele>
        <time>2021-06-30T09:59:35Z</time>
      </trkpt>
      <trkpt lat="45.025600" lon="5.093769">
        <ele>203.86319</ele>
        <time>2021-06-30T09:59:36Z</time>
      </trkpt>
      <trkpt lat="45.025600" lon="5.093769">
        <ele>203.98372</ele>
        <time>2021-06-30T09:59:37Z</time>
      </trkpt>
      <trkpt lat="45.025600" lon="5.093769">
        <ele>203.96419</ele>
        <time>2021-06-30T09:59:38Z</time>
      </trkpt>
      <trkpt lat="45.025600" lon="5.093769">
        <ele>203.99263</ele>
        <time>2021-06-30T09:59:39Z</time>
      </trkpt>
      <trkpt lat="45.025600" lon="5.093769">
        <ele>204.03610</ele>
        <time>2021-06-30T09:59:40Z</time>
      </trkpt>
      <trkpt lat="45.025600" lon="5.093769">
        <ele>206.05591</ele>
        <time>2021-06-30T09:59:41Z</time>
      </trkpt>
      <trkpt lat="45.025600" lon="5.093769">
        <ele>206.38293</ele>
        <time>2021-06-30T09:59:42Z</time>
      </trkpt>
      <trkpt lat="45.025600" lon="5.093769">
        <ele>206.54980</ele>
        <time>2021-06-30T09:59:43Z</time>
      </trkpt>
      <trkpt lat="45.025600" lon="5.093769">
        <ele>206.63550</ele>
        <time>2021-06-30T09:59:44Z</time>
      </trkpt>
      <trkpt lat="45.025600" lon="5.093769">
        <ele>206.79346</ele>
        <time>2021-06-30T09:59:46Z</time>
      </trkpt>
      <trkpt lat="45.025585" lon="5.093709">
        <ele>206.62805</ele>
        <time>2021-06-30T09:59:46Z</time>
      </trkpt>
      <trkpt lat="45.025566" lon="5.093607">
        <ele>206.12457</ele>
        <time>2021-06-30T09:59:47Z</time>
      </trkpt>
      <trkpt lat="45.025536" lon="5.093439">
        <ele>205.48157</ele>
        <time>2021-06-30T09:59:48Z</time>
      </trkpt>
      <trkpt lat="45.025505" lon="5.093272">
        <ele>205.05695</ele>
        <time>2021-06-30T09:59:49Z</time>
      </trkpt>
      <trkpt lat="45.025475" lon="5.093082">
        <ele>204.58948</ele>
        <time>2021-06-30T09:59:50Z</time>
      </trkpt>
      <trkpt lat="45.025448" lon="5.092858">
        <ele>203.85168</ele>
        <time>2021-06-30T09:59:51Z</time>
      </trkpt>
      <trkpt lat="45.025421" lon="5.092594">
        <ele>203.92444</ele>
        <time>2021-06-30T09:59:52Z</time>
      </trkpt>
      <trkpt lat="45.025391" lon="5.092284">
        <ele>203.52380</ele>
        <time>2021-06-30T09:59:53Z</time>
      </trkpt>
      <trkpt lat="45.025356" lon="5.091965">
        <ele>202.88452</ele>
        <time>2021-06-30T09:59:54Z</time>
      </trkpt>
      <trkpt lat="45.025322" lon="5.091597">
        <ele>201.81079</ele>
        <time>2021-06-30T09:59:55Z</time>
      </trkpt>
      <trkpt lat="45.025322" lon="5.091597">
        <ele>201.37982</ele>
        <time>2021-06-30T09:59:56Z</time>
      </trkpt>
      <trkpt lat="45.025288" lon="5.091237">
        <ele>201.01953</ele>
        <time>2021-06-30T09:59:57Z</time>
      </trkpt>
      <trkpt lat="45.025246" lon="5.090844">
        <ele>200.09821</ele>
        <time>2021-06-30T09:59:58Z</time>
      </trkpt>
      <trkpt lat="45.025208" lon="5.090429">
        <ele>199.40253</ele>
        <time>2021-06-30T09:59:59Z</time>
      </trkpt>
      <trkpt lat="45.025162" lon="5.089991">
        <ele>198.65356</ele>
        <time>2021-06-30T10:00:01Z</time>
      </trkpt>
      <trkpt lat="45.025120" lon="5.089529">
        <ele>198.66553</ele>
        <time>2021-06-30T10:00:01Z</time>
      </trkpt>
      <trkpt lat="45.025074" lon="5.089076">
        <ele>198.54169</ele>
        <time>2021-06-30T10:00:02Z</time>
      </trkpt>
      <trkpt lat="45.025024" lon="5.088601">
        <ele>198.04254</ele>
        <time>2021-06-30T10:00:03Z</time>
      </trkpt>
      <trkpt lat="45.024979" lon="5.088132">
        <ele>197.69525</ele>
        <time>2021-06-30T10:00:04Z</time>
      </trkpt>
      <trkpt lat="45.024925" lon="5.087670">
        <ele>197.48688</ele>
        <time>2021-06-30T10:00:05Z</time>
      </trkpt>
      <trkpt lat="45.024868" lon="5.087198">
        <ele>196.70752</ele>
        <time>2021-06-30T10:00:06Z</time>
      </trkpt>
      <trkpt lat="45.024803" lon="5.086712">
        <ele>196.44226</ele>
        <time>2021-06-30T10:00:07Z</time>
      </trkpt>
      <trkpt lat="45.024734" lon="5.086227">
        <ele>193.69763</ele>
        <time>2021-06-30T10:00:08Z</time>
      </trkpt>
      <trkpt lat="45.024651" lon="5.085680">
        <ele>193.43805</ele>
        <time>2021-06-30T10:00:09Z</time>
      </trkpt>
      <trkpt lat="45.024548" lon="5.085066">
        <ele>193.20355</ele>
        <time>2021-06-30T10:00:10Z</time>
      </trkpt>
      <trkpt lat="45.024467" lon="5.084588">
        <ele>193.30237</ele>
        <time>2021-06-30T10:00:11Z</time>
      </trkpt>
      <trkpt lat="45.024380" lon="5.084096">
        <ele>192.86212</ele>
        <time>2021-06-30T10:00:12Z</time>
      </trkpt>
      <trkpt lat="45.024288" lon="5.083593">
        <ele>193.12354</ele>
        <time>2021-06-30T10:00:13Z</time>
      </trkpt>
      <trkpt lat="45.024197" lon="5.083103">
        <ele>193.35376</ele>
        <time>2021-06-30T10:00:14Z</time>
      </trkpt>
      <trkpt lat="45.024094" lon="5.082605">
        <ele>193.19055</ele>
        <time>2021-06-30T10:00:15Z</time>
      </trkpt>
      <trkpt lat="45.023987" lon="5.082125">
        <ele>193.13763</ele>
        <time>2021-06-30T10:00:16Z</time>
      </trkpt>
      <trkpt lat="45.023876" lon="5.081632">
        <ele>193.16400</ele>
        <time>2021-06-30T10:00:17Z</time>
      </trkpt>
      <trkpt lat="45.023754" lon="5.081154">
        <ele>192.71326</ele>
        <time>2021-06-30T10:00:18Z</time>
      </trkpt>
      <trkpt lat="45.023628" lon="5.080659">
        <ele>193.13074</ele>
        <time>2021-06-30T10:00:19Z</time>
      </trkpt>
      <trkpt lat="45.023518" lon="5.080189">
        <ele>192.93500</ele>
        <time>2021-06-30T10:00:20Z</time>
      </trkpt>
      <trkpt lat="45.023407" lon="5.079703">
        <ele>193.20886</ele>
        <time>2021-06-30T10:00:21Z</time>
      </trkpt>
      <trkpt lat="45.023300" lon="5.079220">
        <ele>192.19385</ele>
        <time>2021-06-30T10:00:22Z</time>
      </trkpt>
      <trkpt lat="45.023190" lon="5.078716">
        <ele>192.50623</ele>
        <time>2021-06-30T10:00:23Z</time>
      </trkpt>
      <trkpt lat="45.023083" lon="5.078218">
        <ele>191.12683</ele>
        <time>2021-06-30T10:00:24Z</time>
      </trkpt>
      <trkpt lat="45.023083" lon="5.078218">
        <ele>190.99274</ele>
        <time>2021-06-30T10:00:25Z</time>
      </trkpt>
      <trkpt lat="45.022980" lon="5.077738">
        <ele>190.89771</ele>
        <time>2021-06-30T10:00:26Z</time>
      </trkpt>
      <trkpt lat="45.022881" lon="5.077257">
        <ele>190.67590</ele>
        <time>2021-06-30T10:00:27Z</time>
      </trkpt>
      <trkpt lat="45.022797" lon="5.076778">
        <ele>190.48828</ele>
        <time>2021-06-30T10:00:28Z</time>
      </trkpt>
      <trkpt lat="45.022701" lon="5.076263">
        <ele>190.07855</ele>
        <time>2021-06-30T10:00:29Z</time>
      </trkpt>
      <trkpt lat="45.022621" lon="5.075768">
        <ele>190.69458</ele>
        <time>2021-06-30T10:00:30Z</time>
      </trkpt>
      <trkpt lat="45.022552" lon="5.075261">
        <ele>190.14246</ele>
        <time>2021-06-30T10:00:31Z</time>
      </trkpt>
      <trkpt lat="45.022476" lon="5.074727">
        <ele>190.38733</ele>
        <time>2021-06-30T10:00:32Z</time>
      </trkpt>
      <trkpt lat="45.022419" lon="5.074235">
        <ele>190.20551</ele>
        <time>2021-06-30T10:00:33Z</time>
      </trkpt>
      <trkpt lat="45.022366" lon="5.073752">
        <ele>190.22675</ele>
        <time>2021-06-30T10:00:34Z</time>
      </trkpt>
      <trkpt lat="45.022305" lon="5.073220">
        <ele>190.17773</ele>
        <time>2021-06-30T10:00:35Z</time>
      </trkpt>
      <trkpt lat="45.022255" lon="5.072719">
        <ele>190.12946</ele>
        <time>2021-06-30T10:00:36Z</time>
      </trkpt>
      <trkpt lat="45.022213" lon="5.072205">
        <ele>190.25732</ele>
        <time>2021-06-30T10:00:37Z</time>
      </trkpt>
      <trkpt lat="45.022171" lon="5.071703">
        <ele>190.22406</ele>
        <time>2021-06-30T10:00:39Z</time>
      </trkpt>
      <trkpt lat="45.022137" lon="5.071200">
        <ele>190.41418</ele>
        <time>2021-06-30T10:00:39Z</time>
      </trkpt>
      <trkpt lat="45.022102" lon="5.070670">
        <ele>190.12781</ele>
        <time>2021-06-30T10:00:40Z</time>
      </trkpt>
      <trkpt lat="45.022072" lon="5.070175">
        <ele>190.03687</ele>
        <time>2021-06-30T10:00:41Z</time>
      </trkpt>
      <trkpt lat="45.022041" lon="5.069649">
        <ele>189.32025</ele>
        <time>2021-06-30T10:00:42Z</time>
      </trkpt>
      <trkpt lat="45.022015" lon="5.069151">
        <ele>190.05292</ele>
        <time>2021-06-30T10:00:43Z</time>
      </trkpt>
      <trkpt lat="45.021984" lon="5.068654">
        <ele>189.87848</ele>
        <time>2021-06-30T10:00:44Z</time>
      </trkpt>
      <trkpt lat="45.021957" lon="5.068142">
        <ele>190.65070</ele>
        <time>2021-06-30T10:00:45Z</time>
      </trkpt>
      <trkpt lat="45.021931" lon="5.067634">
        <ele>190.48950</ele>
        <time>2021-06-30T10:00:46Z</time>
      </trkpt>
      <trkpt lat="45.021900" lon="5.067124">
        <ele>190.49603</ele>
        <time>2021-06-30T10:00:47Z</time>
      </trkpt>
      <trkpt lat="45.021873" lon="5.066625">
        <ele>190.41492</ele>
        <time>2021-06-30T10:00:48Z</time>
      </trkpt>
      <trkpt lat="45.021843" lon="5.066117">
        <ele>190.27063</ele>
        <time>2021-06-30T10:00:49Z</time>
      </trkpt>
      <trkpt lat="45.021816" lon="5.065605">
        <ele>189.30286</ele>
        <time>2021-06-30T10:00:50Z</time>
      </trkpt>
      <trkpt lat="45.021786" lon="5.065100">
        <ele>188.56549</ele>
        <time>2021-06-30T10:00:52Z</time>
      </trkpt>
      <trkpt lat="45.021759" lon="5.064608">
        <ele>188.25726</ele>
        <time>2021-06-30T10:00:52Z</time>
      </trkpt>
      <trkpt lat="45.021732" lon="5.064099">
        <ele>188.04724</ele>
        <time>2021-06-30T10:00:53Z</time>
      </trkpt>
      <trkpt lat="45.021702" lon="5.063605">
        <ele>188.62408</ele>
        <time>2021-06-30T10:00:54Z</time>
      </trkpt>
      <trkpt lat="45.021675" lon="5.063093">
        <ele>189.52875</ele>
        <time>2021-06-30T10:00:56Z</time>
      </trkpt>
      <trkpt lat="45.021645" lon="5.062579">
        <ele>189.42706</ele>
        <time>2021-06-30T10:00:57Z</time>
      </trkpt>
      <trkpt lat="45.021618" lon="5.062080">
        <ele>189.51147</ele>
        <time>2021-06-30T10:00:57Z</time>
      </trkpt>
      <trkpt lat="45.021587" lon="5.061568">
        <ele>189.76935</ele>
        <time>2021-06-30T10:00:59Z</time>
      </trkpt>
      <trkpt lat="45.021561" lon="5.061073">
        <ele>190.09821</ele>
        <time>2021-06-30T10:01:00Z</time>
      </trkpt>
      <trkpt lat="45.021534" lon="5.060573">
        <ele>189.66193</ele>
        <time>2021-06-30T10:01:01Z</time>
      </trkpt>
      <trkpt lat="45.021503" lon="5.060061">
        <ele>190.53204</ele>
        <time>2021-06-30T10:01:02Z</time>
      </trkpt>
      <trkpt lat="45.021477" lon="5.059562">
        <ele>190.30090</ele>
        <time>2021-06-30T10:01:03Z</time>
      </trkpt>
      <trkpt lat="45.021450" lon="5.059072">
        <ele>188.96014</ele>
        <time>2021-06-30T10:01:04Z</time>
      </trkpt>
      <trkpt lat="45.021450" lon="5.059072">
        <ele>189.95654</ele>
        <time>2021-06-30T10:01:05Z</time>
      </trkpt>
      <trkpt lat="45.021420" lon="5.058553">
        <ele>190.55139</ele>
        <time>2021-06-30T10:01:06Z</time>
      </trkpt>
      <trkpt lat="45.021393" lon="5.058065">
        <ele>189.96558</ele>
        <time>2021-06-30T10:01:07Z</time>
      </trkpt>
      <trkpt lat="45.021362" lon="5.057560">
        <ele>189.90533</ele>
        <time>2021-06-30T10:01:08Z</time>
      </trkpt>
      <trkpt lat="45.021336" lon="5.057080">
        <ele>189.83380</ele>
        <time>2021-06-30T10:01:09Z</time>
      </trkpt>
      <trkpt lat="45.021309" lon="5.056570">
        <ele>189.91681</ele>
        <time>2021-06-30T10:01:10Z</time>
      </trkpt>
      <trkpt lat="45.021282" lon="5.056057">
        <ele>189.55963</ele>
        <time>2021-06-30T10:01:11Z</time>
      </trkpt>
      <trkpt lat="45.021252" lon="5.055538">
        <ele>189.58185</ele>
        <time>2021-06-30T10:01:12Z</time>
      </trkpt>
      <trkpt lat="45.021225" lon="5.055026">
        <ele>189.73187</ele>
        <time>2021-06-30T10:01:13Z</time>
      </trkpt>
      <trkpt lat="45.021198" lon="5.054517">
        <ele>189.55151</ele>
        <time>2021-06-30T10:01:14Z</time>
      </trkpt>
      <trkpt lat="45.021172" lon="5.054028">
        <ele>189.05157</ele>
        <time>2021-06-30T10:01:15Z</time>
      </trkpt>
      <trkpt lat="45.021141" lon="5.053492">
        <ele>188.93555</ele>
        <time>2021-06-30T10:01:16Z</time>
      </trkpt>
      <trkpt lat="45.021114" lon="5.053000">
        <ele>188.99408</ele>
        <time>2021-06-30T10:01:17Z</time>
      </trkpt>
      <trkpt lat="45.021088" lon="5.052485">
        <ele>187.95764</ele>
        <time>2021-06-30T10:01:18Z</time>
      </trkpt>
      <trkpt lat="45.021061" lon="5.051973">
        <ele>188.26367</ele>
        <time>2021-06-30T10:01:19Z</time>
      </trkpt>
      <trkpt lat="45.021030" lon="5.051463">
        <ele>187.54376</ele>
        <time>2021-06-30T10:01:20Z</time>
      </trkpt>
      <trkpt lat="45.021004" lon="5.050978">
        <ele>187.08923</ele>
        <time>2021-06-30T10:01:21Z</time>
      </trkpt>
      <trkpt lat="45.020973" lon="5.050477">
        <ele>187.97144</ele>
        <time>2021-06-30T10:01:22Z</time>
      </trkpt>
      <trkpt lat="45.020947" lon="5.049976">
        <ele>187.63593</ele>
        <time>2021-06-30T10:01:23Z</time>
      </trkpt>
      <trkpt lat="45.020916" lon="5.049488">
        <ele>187.31537</ele>
        <time>2021-06-30T10:01:24Z</time>
      </trkpt>
      <trkpt lat="45.020885" lon="5.048963">
        <ele>187.47717</ele>
        <time>2021-06-30T10:01:25Z</time>
      </trkpt>
      <trkpt lat="45.020859" lon="5.048463">
        <ele>187.02686</ele>
        <time>2021-06-30T10:01:26Z</time>
      </trkpt>
      <trkpt lat="45.020828" lon="5.047969">
        <ele>186.25317</ele>
        <time>2021-06-30T10:01:27Z</time>
      </trkpt>
      <trkpt lat="45.020798" lon="5.047470">
        <ele>185.18268</ele>
        <time>2021-06-30T10:01:28Z</time>
      </trkpt>
      <trkpt lat="45.020763" lon="5.046986">
        <ele>185.39044</ele>
        <time>2021-06-30T10:01:29Z</time>
      </trkpt>
      <trkpt lat="45.020737" lon="5.046507">
        <ele>185.80151</ele>
        <time>2021-06-30T10:01:30Z</time>
      </trkpt>
      <trkpt lat="45.020714" lon="5.046024">
        <ele>185.68848</ele>
        <time>2021-06-30T10:01:31Z</time>
      </trkpt>
      <trkpt lat="45.020687" lon="5.045557">
        <ele>184.96667</ele>
        <time>2021-06-30T10:01:32Z</time>
      </trkpt>
      <trkpt lat="45.020664" lon="5.045049">
        <ele>183.74500</ele>
        <time>2021-06-30T10:01:33Z</time>
      </trkpt>
      <trkpt lat="45.020634" lon="5.044554">
        <ele>185.23492</ele>
        <time>2021-06-30T10:01:34Z</time>
      </trkpt>
      <trkpt lat="45.020599" lon="5.044091">
        <ele>184.33368</ele>
        <time>2021-06-30T10:01:35Z</time>
      </trkpt>
      <trkpt lat="45.020569" lon="5.043619">
        <ele>184.17676</ele>
        <time>2021-06-30T10:01:36Z</time>
      </trkpt>
      <trkpt lat="45.020538" lon="5.043147">
        <ele>184.52954</ele>
        <time>2021-06-30T10:01:37Z</time>
      </trkpt>
      <trkpt lat="45.020504" lon="5.042662">
        <ele>184.92139</ele>
        <time>2021-06-30T10:01:38Z</time>
      </trkpt>
      <trkpt lat="45.020458" lon="5.042186">
        <ele>184.62787</ele>
        <time>2021-06-30T10:01:39Z</time>
      </trkpt>
      <trkpt lat="45.020432" lon="5.041720">
        <ele>184.30347</ele>
        <time>2021-06-30T10:01:40Z</time>
      </trkpt>
      <trkpt lat="45.020397" lon="5.041246">
        <ele>182.87231</ele>
        <time>2021-06-30T10:01:41Z</time>
      </trkpt>
      <trkpt lat="45.020397" lon="5.041246">
        <ele>182.77130</ele>
        <time>2021-06-30T10:01:42Z</time>
      </trkpt>
      <trkpt lat="45.020355" lon="5.040761">
        <ele>183.22845</ele>
        <time>2021-06-30T10:01:43Z</time>
      </trkpt>
      <trkpt lat="45.020321" lon="5.040307">
        <ele>182.43530</ele>
        <time>2021-06-30T10:01:44Z</time>
      </trkpt>
      <trkpt lat="45.020283" lon="5.039818">
        <ele>182.73126</ele>
        <time>2021-06-30T10:01:45Z</time>
      </trkpt>
      <trkpt lat="45.020245" lon="5.039298">
        <ele>182.98071</ele>
        <time>2021-06-30T10:01:46Z</time>
      </trkpt>
      <trkpt lat="45.020210" lon="5.038854">
        <ele>182.26123</ele>
        <time>2021-06-30T10:01:47Z</time>
      </trkpt>
      <trkpt lat="45.020172" lon="5.038379">
        <ele>182.92609</ele>
        <time>2021-06-30T10:01:48Z</time>
      </trkpt>
      <trkpt lat="45.020130" lon="5.037923">
        <ele>182.81067</ele>
        <time>2021-06-30T10:01:49Z</time>
      </trkpt>
      <trkpt lat="45.020088" lon="5.037456">
        <ele>183.03662</ele>
        <time>2021-06-30T10:01:50Z</time>
      </trkpt>
      <trkpt lat="45.020046" lon="5.036978">
        <ele>183.49652</ele>
        <time>2021-06-30T10:01:51Z</time>
      </trkpt>
      <trkpt lat="45.020004" lon="5.036499">
        <ele>184.78076</ele>
        <time>2021-06-30T10:01:52Z</time>
      </trkpt>
      <trkpt lat="45.019955" lon="5.035996">
        <ele>185.17322</ele>
        <time>2021-06-30T10:01:53Z</time>
      </trkpt>
      <trkpt lat="45.019890" lon="5.035512">
        <ele>185.85547</ele>
        <time>2021-06-30T10:01:54Z</time>
      </trkpt>
      <trkpt lat="45.019821" lon="5.035043">
        <ele>182.71289</ele>
        <time>2021-06-30T10:01:55Z</time>
      </trkpt>
      <trkpt lat="45.019714" lon="5.034549">
        <ele>181.19965</ele>
        <time>2021-06-30T10:01:56Z</time>
      </trkpt>
      <trkpt lat="45.019596" lon="5.034063">
        <ele>181.52112</ele>
        <time>2021-06-30T10:01:57Z</time>
      </trkpt>
      <trkpt lat="45.019455" lon="5.033568">
        <ele>180.94342</ele>
        <time>2021-06-30T10:01:58Z</time>
      </trkpt>
      <trkpt lat="45.019302" lon="5.033102">
        <ele>179.78400</ele>
        <time>2021-06-30T10:01:59Z</time>
      </trkpt>
      <trkpt lat="45.019135" lon="5.032659">
        <ele>180.45367</ele>
        <time>2021-06-30T10:02:00Z</time>
      </trkpt>
      <trkpt lat="45.018955" lon="5.032201">
        <ele>180.67822</ele>
        <time>2021-06-30T10:02:01Z</time>
      </trkpt>
      <trkpt lat="45.018772" lon="5.031792">
        <ele>179.74188</ele>
        <time>2021-06-30T10:02:01Z</time>
      </trkpt>
      <trkpt lat="45.018566" lon="5.031423">
        <ele>179.20392</ele>
        <time>2021-06-30T10:02:02Z</time>
      </trkpt>
      <trkpt lat="45.018353" lon="5.031088">
        <ele>179.46448</ele>
        <time>2021-06-30T10:02:03Z</time>
      </trkpt>
      <trkpt lat="45.018131" lon="5.030740">
        <ele>181.92920</ele>
        <time>2021-06-30T10:02:04Z</time>
      </trkpt>
      <trkpt lat="45.017910" lon="5.030393">
        <ele>182.78284</ele>
        <time>2021-06-30T10:02:05Z</time>
      </trkpt>
      <trkpt lat="45.017693" lon="5.030052">
        <ele>182.93671</ele>
        <time>2021-06-30T10:02:06Z</time>
      </trkpt>
      <trkpt lat="45.017479" lon="5.029698">
        <ele>183.29199</ele>
        <time>2021-06-30T10:02:07Z</time>
      </trkpt>
      <trkpt lat="45.017250" lon="5.029340">
        <ele>183.80664</ele>
        <time>2021-06-30T10:02:08Z</time>
      </trkpt>
      <trkpt lat="45.017025" lon="5.028988">
        <ele>184.93121</ele>
        <time>2021-06-30T10:02:09Z</time>
      </trkpt>
      <trkpt lat="45.016796" lon="5.028628">
        <ele>184.74158</ele>
        <time>2021-06-30T10:02:10Z</time>
      </trkpt>
      <trkpt lat="45.016575" lon="5.028273">
        <ele>184.78223</ele>
        <time>2021-06-30T10:02:11Z</time>
      </trkpt>
      <trkpt lat="45.016357" lon="5.027926">
        <ele>183.81403</ele>
        <time>2021-06-30T10:02:12Z</time>
      </trkpt>
      <trkpt lat="45.016117" lon="5.027546">
        <ele>184.43463</ele>
        <time>2021-06-30T10:02:13Z</time>
      </trkpt>
      <trkpt lat="45.015888" lon="5.027180">
        <ele>184.25012</ele>
        <time>2021-06-30T10:02:14Z</time>
      </trkpt>
      <trkpt lat="45.015888" lon="5.027180">
        <ele>183.57410</ele>
        <time>2021-06-30T10:02:15Z</time>
      </trkpt>
      <trkpt lat="45.015682" lon="5.026848">
        <ele>182.34509</ele>
        <time>2021-06-30T10:02:16Z</time>
      </trkpt>
      <trkpt lat="45.015488" lon="5.026535">
        <ele>182.95337</ele>
        <time>2021-06-30T10:02:17Z</time>
      </trkpt>
      <trkpt lat="45.015285" lon="5.026205">
        <ele>181.76001</ele>
        <time>2021-06-30T10:02:18Z</time>
      </trkpt>
      <trkpt lat="45.015087" lon="5.025886">
        <ele>181.48315</ele>
        <time>2021-06-30T10:02:19Z</time>
      </trkpt>
      <trkpt lat="45.014885" lon="5.025563">
        <ele>181.75287</ele>
        <time>2021-06-30T10:02:20Z</time>
      </trkpt>
      <trkpt lat="45.014683" lon="5.025238">
        <ele>182.14563</ele>
        <time>2021-06-30T10:02:21Z</time>
      </trkpt>
      <trkpt lat="45.014469" lon="5.024892">
        <ele>181.98401</ele>
        <time>2021-06-30T10:02:22Z</time>
      </trkpt>
      <trkpt lat="45.014252" lon="5.024547">
        <ele>181.99255</ele>
        <time>2021-06-30T10:02:23Z</time>
      </trkpt>
      <trkpt lat="45.014042" lon="5.024207">
        <ele>179.90881</ele>
        <time>2021-06-30T10:02:24Z</time>
      </trkpt>
      <trkpt lat="45.013828" lon="5.023864">
        <ele>179.55560</ele>
        <time>2021-06-30T10:02:26Z</time>
      </trkpt>
      <trkpt lat="45.013588" lon="5.023478">
        <ele>179.67102</ele>
        <time>2021-06-30T10:02:26Z</time>
      </trkpt>
      <trkpt lat="45.013367" lon="5.023125">
        <ele>179.84735</ele>
        <time>2021-06-30T10:02:27Z</time>
      </trkpt>
      <trkpt lat="45.013138" lon="5.022758">
        <ele>179.82294</ele>
        <time>2021-06-30T10:02:28Z</time>
      </trkpt>
      <trkpt lat="45.012909" lon="5.022391">
        <ele>179.55511</ele>
        <time>2021-06-30T10:02:29Z</time>
      </trkpt>
      <trkpt lat="45.012688" lon="5.022038">
        <ele>179.04749</ele>
        <time>2021-06-30T10:02:30Z</time>
      </trkpt>
      <trkpt lat="45.012466" lon="5.021686">
        <ele>179.02911</ele>
        <time>2021-06-30T10:02:31Z</time>
      </trkpt>
      <trkpt lat="45.012241" lon="5.021323">
        <ele>179.22791</ele>
        <time>2021-06-30T10:02:32Z</time>
      </trkpt>
      <trkpt lat="45.012012" lon="5.020955">
        <ele>179.03650</ele>
        <time>2021-06-30T10:02:33Z</time>
      </trkpt>
      <trkpt lat="45.011780" lon="5.020578">
        <ele>178.92188</ele>
        <time>2021-06-30T10:02:34Z</time>
      </trkpt>
      <trkpt lat="45.011539" lon="5.020198">
        <ele>178.13892</ele>
        <time>2021-06-30T10:02:35Z</time>
      </trkpt>
      <trkpt lat="45.011311" lon="5.019831">
        <ele>178.53650</ele>
        <time>2021-06-30T10:02:37Z</time>
      </trkpt>
      <trkpt lat="45.011093" lon="5.019488">
        <ele>178.12842</ele>
        <time>2021-06-30T10:02:38Z</time>
      </trkpt>
      <trkpt lat="45.010860" lon="5.019121">
        <ele>178.14868</ele>
        <time>2021-06-30T10:02:39Z</time>
      </trkpt>
      <trkpt lat="45.010643" lon="5.018772">
        <ele>178.89600</ele>
        <time>2021-06-30T10:02:40Z</time>
      </trkpt>
      <trkpt lat="45.010418" lon="5.018415">
        <ele>178.85815</ele>
        <time>2021-06-30T10:02:41Z</time>
      </trkpt>
      <trkpt lat="45.010201" lon="5.018066">
        <ele>179.29895</ele>
        <time>2021-06-30T10:02:42Z</time>
      </trkpt>
      <trkpt lat="45.009975" lon="5.017709">
        <ele>179.74408</ele>
        <time>2021-06-30T10:02:42Z</time>
      </trkpt>
      <trkpt lat="45.009739" lon="5.017337">
        <ele>179.75476</ele>
        <time>2021-06-30T10:02:44Z</time>
      </trkpt>
      <trkpt lat="45.009510" lon="5.016971">
        <ele>179.37555</ele>
        <time>2021-06-30T10:02:45Z</time>
      </trkpt>
      <trkpt lat="45.009277" lon="5.016603">
        <ele>179.81830</ele>
        <time>2021-06-30T10:02:46Z</time>
      </trkpt>
      <trkpt lat="45.009056" lon="5.016249">
        <ele>180.64819</ele>
        <time>2021-06-30T10:02:47Z</time>
      </trkpt>
      <trkpt lat="45.008831" lon="5.015885">
        <ele>179.90747</ele>
        <time>2021-06-30T10:02:48Z</time>
      </trkpt>
      <trkpt lat="45.008610" lon="5.015526">
        <ele>179.37842</ele>
        <time>2021-06-30T10:02:49Z</time>
      </trkpt>
      <trkpt lat="45.008392" lon="5.015171">
        <ele>178.93579</ele>
        <time>2021-06-30T10:02:50Z</time>
      </trkpt>
      <trkpt lat="45.008163" lon="5.014804">
        <ele>178.54327</ele>
        <time>2021-06-30T10:02:51Z</time>
      </trkpt>
      <trkpt lat="45.007927" lon="5.014420">
        <ele>179.23541</ele>
        <time>2021-06-30T10:02:52Z</time>
      </trkpt>
      <trkpt lat="45.007694" lon="5.014043">
        <ele>179.25854</ele>
        <time>2021-06-30T10:02:53Z</time>
      </trkpt>
      <trkpt lat="45.007477" lon="5.013695">
        <ele>178.69415</ele>
        <time>2021-06-30T10:02:53Z</time>
      </trkpt>
      <trkpt lat="45.007233" lon="5.013305">
        <ele>178.84302</ele>
        <time>2021-06-30T10:02:55Z</time>
      </trkpt>
      <trkpt lat="45.007000" lon="5.012933">
        <ele>178.27509</ele>
        <time>2021-06-30T10:02:56Z</time>
      </trkpt>
      <trkpt lat="45.007000" lon="5.012933">
        <ele>178.51361</ele>
        <time>2021-06-30T10:02:56Z</time>
      </trkpt>
      <trkpt lat="45.006767" lon="5.012558">
        <ele>178.48114</ele>
        <time>2021-06-30T10:02:58Z</time>
      </trkpt>
      <trkpt lat="45.006535" lon="5.012186">
        <ele>179.30585</ele>
        <time>2021-06-30T10:02:58Z</time>
      </trkpt>
      <trkpt lat="45.006302" lon="5.011823">
        <ele>179.24841</ele>
        <time>2021-06-30T10:02:59Z</time>
      </trkpt>
      <trkpt lat="45.006073" lon="5.011462">
        <ele>179.25317</ele>
        <time>2021-06-30T10:03:01Z</time>
      </trkpt>
      <trkpt lat="45.005856" lon="5.011120">
        <ele>179.30383</ele>
        <time>2021-06-30T10:03:01Z</time>
      </trkpt>
      <trkpt lat="45.005646" lon="5.010784">
        <ele>179.16675</ele>
        <time>2021-06-30T10:03:02Z</time>
      </trkpt>
      <trkpt lat="45.005421" lon="5.010431">
        <ele>177.95074</ele>
        <time>2021-06-30T10:03:03Z</time>
      </trkpt>
      <trkpt lat="45.005203" lon="5.010088">
        <ele>177.84387</ele>
        <time>2021-06-30T10:03:04Z</time>
      </trkpt>
      <trkpt lat="45.005035" lon="5.009820">
        <ele>179.26782</ele>
        <time>2021-06-30T10:03:06Z</time>
      </trkpt>
      <trkpt lat="45.004822" lon="5.009483">
        <ele>179.02191</ele>
        <time>2021-06-30T10:03:06Z</time>
      </trkpt>
      <trkpt lat="45.004673" lon="5.009244">
        <ele>177.40155</ele>
        <time>2021-06-30T10:03:07Z</time>
      </trkpt>
      <trkpt lat="45.004475" lon="5.008927">
        <ele>176.31000</ele>
        <time>2021-06-30T10:03:08Z</time>
      </trkpt>
      <trkpt lat="45.004295" lon="5.008641">
        <ele>176.19934</ele>
        <time>2021-06-30T10:03:09Z</time>
      </trkpt>
      <trkpt lat="45.004063" lon="5.008274">
        <ele>175.08997</ele>
        <time>2021-06-30T10:03:10Z</time>
      </trkpt>
      <trkpt lat="45.003822" lon="5.007888">
        <ele>174.97681</ele>
        <time>2021-06-30T10:03:11Z</time>
      </trkpt>
      <trkpt lat="45.003559" lon="5.007469">
        <ele>174.60718</ele>
        <time>2021-06-30T10:03:12Z</time>
      </trkpt>
      <trkpt lat="45.003326" lon="5.007102">
        <ele>173.77728</ele>
        <time>2021-06-30T10:03:13Z</time>
      </trkpt>
      <trkpt lat="45.003094" lon="5.006733">
        <ele>174.40741</ele>
        <time>2021-06-30T10:03:14Z</time>
      </trkpt>
      <trkpt lat="45.002857" lon="5.006361">
        <ele>174.26691</ele>
        <time>2021-06-30T10:03:15Z</time>
      </trkpt>
      <trkpt lat="45.002625" lon="5.005991">
        <ele>172.64471</ele>
        <time>2021-06-30T10:03:16Z</time>
      </trkpt>
      <trkpt lat="45.002392" lon="5.005619">
        <ele>173.03906</ele>
        <time>2021-06-30T10:03:17Z</time>
      </trkpt>
      <trkpt lat="45.002155" lon="5.005245">
        <ele>173.11353</ele>
        <time>2021-06-30T10:03:18Z</time>
      </trkpt>
      <trkpt lat="45.001923" lon="5.004877">
        <ele>173.54840</ele>
        <time>2021-06-30T10:03:19Z</time>
      </trkpt>
      <trkpt lat="45.001686" lon="5.004498">
        <ele>174.05566</ele>
        <time>2021-06-30T10:03:20Z</time>
      </trkpt>
      <trkpt lat="45.001457" lon="5.004135">
        <ele>174.25769</ele>
        <time>2021-06-30T10:03:21Z</time>
      </trkpt>
      <trkpt lat="45.001244" lon="5.003794">
        <ele>174.70508</ele>
        <time>2021-06-30T10:03:22Z</time>
      </trkpt>
      <trkpt lat="45.001022" lon="5.003445">
        <ele>174.82672</ele>
        <time>2021-06-30T10:03:23Z</time>
      </trkpt>
      <trkpt lat="45.000793" lon="5.003081">
        <ele>174.41821</ele>
        <time>2021-06-30T10:03:24Z</time>
      </trkpt>
      <trkpt lat="45.000568" lon="5.002724">
        <ele>174.46887</ele>
        <time>2021-06-30T10:03:25Z</time>
      </trkpt>
      <trkpt lat="45.000343" lon="5.002366">
        <ele>174.97137</ele>
        <time>2021-06-30T10:03:26Z</time>
      </trkpt>
      <trkpt lat="45.000153" lon="5.002059">
        <ele>174.97913</ele>
        <time>2021-06-30T10:03:27Z</time>
      </trkpt>
      <trkpt lat="44.999950" lon="5.001737">
        <ele>175.04089</ele>
        <time>2021-06-30T10:03:28Z</time>
      </trkpt>
      <trkpt lat="44.999729" lon="5.001385">
        <ele>175.04956</ele>
        <time>2021-06-30T10:03:29Z</time>
      </trkpt>
      <trkpt lat="44.999516" lon="5.001041">
        <ele>175.75342</ele>
        <time>2021-06-30T10:03:30Z</time>
      </trkpt>
      <trkpt lat="44.999302" lon="5.000701">
        <ele>176.09863</ele>
        <time>2021-06-30T10:03:31Z</time>
      </trkpt>
      <trkpt lat="44.999302" lon="5.000701">
        <ele>176.01550</ele>
        <time>2021-06-30T10:03:32Z</time>
      </trkpt>
      <trkpt lat="44.999073" lon="5.000337">
        <ele>176.45557</ele>
        <time>2021-06-30T10:03:33Z</time>
      </trkpt>
      <trkpt lat="44.998852" lon="4.999981">
        <ele>176.22729</ele>
        <time>2021-06-30T10:03:34Z</time>
      </trkpt>
      <trkpt lat="44.998615" lon="4.999606">
        <ele>176.19067</ele>
        <time>2021-06-30T10:03:35Z</time>
      </trkpt>
      <trkpt lat="44.998383" lon="4.999241">
        <ele>175.84375</ele>
        <time>2021-06-30T10:03:36Z</time>
      </trkpt>
      <trkpt lat="44.998165" lon="4.998900">
        <ele>175.92346</ele>
        <time>2021-06-30T10:03:37Z</time>
      </trkpt>
      <trkpt lat="44.997944" lon="4.998551">
        <ele>174.47583</ele>
        <time>2021-06-30T10:03:38Z</time>
      </trkpt>
      <trkpt lat="44.997738" lon="4.998219">
        <ele>174.35437</ele>
        <time>2021-06-30T10:03:39Z</time>
      </trkpt>
      <trkpt lat="44.997532" lon="4.997887">
        <ele>174.18054</ele>
        <time>2021-06-30T10:03:40Z</time>
      </trkpt>
      <trkpt lat="44.997322" lon="4.997554">
        <ele>175.45447</ele>
        <time>2021-06-30T10:03:41Z</time>
      </trkpt>
      <trkpt lat="44.997105" lon="4.997209">
        <ele>176.37354</ele>
        <time>2021-06-30T10:03:42Z</time>
      </trkpt>
      <trkpt lat="44.996899" lon="4.996887">
        <ele>176.37457</ele>
        <time>2021-06-30T10:03:43Z</time>
      </trkpt>
      <trkpt lat="44.996712" lon="4.996580">
        <ele>176.25049</ele>
        <time>2021-06-30T10:03:44Z</time>
      </trkpt>
      <trkpt lat="44.996498" lon="4.996243">
        <ele>176.10028</ele>
        <time>2021-06-30T10:03:45Z</time>
      </trkpt>
      <trkpt lat="44.996346" lon="4.995998">
        <ele>176.06696</ele>
        <time>2021-06-30T10:03:46Z</time>
      </trkpt>
      <trkpt lat="44.996147" lon="4.995684">
        <ele>176.07703</ele>
        <time>2021-06-30T10:03:47Z</time>
      </trkpt>
      <trkpt lat="44.995983" lon="4.995426">
        <ele>176.67340</ele>
        <time>2021-06-30T10:03:49Z</time>
      </trkpt>
      <trkpt lat="44.995804" lon="4.995131">
        <ele>176.95459</ele>
        <time>2021-06-30T10:03:49Z</time>
      </trkpt>
      <trkpt lat="44.995644" lon="4.994867">
        <ele>176.60559</ele>
        <time>2021-06-30T10:03:51Z</time>
      </trkpt>
      <trkpt lat="44.995480" lon="4.994597">
        <ele>176.54657</ele>
        <time>2021-06-30T10:03:52Z</time>
      </trkpt>
      <trkpt lat="44.995319" lon="4.994343">
        <ele>176.40643</ele>
        <time>2021-06-30T10:03:52Z</time>
      </trkpt>
      <trkpt lat="44.995159" lon="4.994085">
        <ele>177.23297</ele>
        <time>2021-06-30T10:03:53Z</time>
      </trkpt>
      <trkpt lat="44.994987" lon="4.993812">
        <ele>176.81519</ele>
        <time>2021-06-30T10:03:54Z</time>
      </trkpt>
      <trkpt lat="44.994823" lon="4.993544">
        <ele>177.48163</ele>
        <time>2021-06-30T10:03:56Z</time>
      </trkpt>
      <trkpt lat="44.994659" lon="4.993279">
        <ele>178.85144</ele>
        <time>2021-06-30T10:03:57Z</time>
      </trkpt>
      <trkpt lat="44.994495" lon="4.993018">
        <ele>177.89459</ele>
        <time>2021-06-30T10:03:58Z</time>
      </trkpt>
      <trkpt lat="44.994328" lon="4.992746">
        <ele>177.38550</ele>
        <time>2021-06-30T10:03:59Z</time>
      </trkpt>
      <trkpt lat="44.994156" lon="4.992451">
        <ele>176.27405</ele>
        <time>2021-06-30T10:04:00Z</time>
      </trkpt>
      <trkpt lat="44.993984" lon="4.992163">
        <ele>175.32422</ele>
        <time>2021-06-30T10:04:01Z</time>
      </trkpt>
      <trkpt lat="44.993813" lon="4.991872">
        <ele>175.86438</ele>
        <time>2021-06-30T10:04:02Z</time>
      </trkpt>
      <trkpt lat="44.993641" lon="4.991580">
        <ele>176.84357</ele>
        <time>2021-06-30T10:04:03Z</time>
      </trkpt>
      <trkpt lat="44.993465" lon="4.991277">
        <ele>176.81989</ele>
        <time>2021-06-30T10:04:04Z</time>
      </trkpt>
      <trkpt lat="44.993298" lon="4.990996">
        <ele>176.63733</ele>
        <time>2021-06-30T10:04:05Z</time>
      </trkpt>
      <trkpt lat="44.993134" lon="4.990705">
        <ele>176.47717</ele>
        <time>2021-06-30T10:04:06Z</time>
      </trkpt>
      <trkpt lat="44.992970" lon="4.990410">
        <ele>176.00476</ele>
        <time>2021-06-30T10:04:07Z</time>
      </trkpt>
      <trkpt lat="44.992809" lon="4.990123">
        <ele>176.18341</ele>
        <time>2021-06-30T10:04:08Z</time>
      </trkpt>
      <trkpt lat="44.992645" lon="4.989838">
        <ele>175.94397</ele>
        <time>2021-06-30T10:04:09Z</time>
      </trkpt>
      <trkpt lat="44.992481" lon="4.989550">
        <ele>175.25720</ele>
        <time>2021-06-30T10:04:10Z</time>
      </trkpt>
      <trkpt lat="44.992313" lon="4.989257">
        <ele>175.02582</ele>
        <time>2021-06-30T10:04:11Z</time>
      </trkpt>
      <trkpt lat="44.992146" lon="4.988961">
        <ele>174.69458</ele>
        <time>2021-06-30T10:04:12Z</time>
      </trkpt>
      <trkpt lat="44.991974" lon="4.988673">
        <ele>174.80139</ele>
        <time>2021-06-30T10:04:13Z</time>
      </trkpt>
      <trkpt lat="44.991974" lon="4.988673">
        <ele>174.69098</ele>
        <time>2021-06-30T10:04:14Z</time>
      </trkpt>
      <trkpt lat="44.991810" lon="4.988392">
        <ele>173.69232</ele>
        <time>2021-06-30T10:04:15Z</time>
      </trkpt>
      <trkpt lat="44.991638" lon="4.988117">
        <ele>173.87567</ele>
        <time>2021-06-30T10:04:16Z</time>
      </trkpt>
      <trkpt lat="44.991467" lon="4.987838">
        <ele>173.73065</ele>
        <time>2021-06-30T10:04:17Z</time>
      </trkpt>
      <trkpt lat="44.991291" lon="4.987556">
        <ele>173.36145</ele>
        <time>2021-06-30T10:04:18Z</time>
      </trkpt>
      <trkpt lat="44.991135" lon="4.987305">
        <ele>173.97614</ele>
        <time>2021-06-30T10:04:19Z</time>
      </trkpt>
      <trkpt lat="44.990967" lon="4.987033">
        <ele>174.22424</ele>
        <time>2021-06-30T10:04:20Z</time>
      </trkpt>
      <trkpt lat="44.990795" lon="4.986765">
        <ele>174.81946</ele>
        <time>2021-06-30T10:04:21Z</time>
      </trkpt>
      <trkpt lat="44.990616" lon="4.986497">
        <ele>174.74066</ele>
        <time>2021-06-30T10:04:22Z</time>
      </trkpt>
      <trkpt lat="44.990433" lon="4.986215">
        <ele>174.65820</ele>
        <time>2021-06-30T10:04:23Z</time>
      </trkpt>
      <trkpt lat="44.990257" lon="4.985952">
        <ele>175.50867</ele>
        <time>2021-06-30T10:04:24Z</time>
      </trkpt>
      <trkpt lat="44.990070" lon="4.985675">
        <ele>175.70935</ele>
        <time>2021-06-30T10:04:25Z</time>
      </trkpt>
      <trkpt lat="44.989891" lon="4.985416">
        <ele>175.51349</ele>
        <time>2021-06-30T10:04:26Z</time>
      </trkpt>
      <trkpt lat="44.989712" lon="4.985156">
        <ele>175.95972</ele>
        <time>2021-06-30T10:04:27Z</time>
      </trkpt>
      <trkpt lat="44.989521" lon="4.984883">
        <ele>176.03351</ele>
        <time>2021-06-30T10:04:28Z</time>
      </trkpt>
      <trkpt lat="44.989338" lon="4.984625">
        <ele>176.35315</ele>
        <time>2021-06-30T10:04:29Z</time>
      </trkpt>
      <trkpt lat="44.989151" lon="4.984363">
        <ele>176.52917</ele>
        <time>2021-06-30T10:04:30Z</time>
      </trkpt>
      <trkpt lat="44.988979" lon="4.984116">
        <ele>177.11438</ele>
        <time>2021-06-30T10:04:31Z</time>
      </trkpt>
      <trkpt lat="44.988804" lon="4.983856">
        <ele>177.57507</ele>
        <time>2021-06-30T10:04:32Z</time>
      </trkpt>
      <trkpt lat="44.988625" lon="4.983591">
        <ele>177.42450</ele>
        <time>2021-06-30T10:04:33Z</time>
      </trkpt>
      <trkpt lat="44.988445" lon="4.983321">
        <ele>177.73871</ele>
        <time>2021-06-30T10:04:34Z</time>
      </trkpt>
      <trkpt lat="44.988266" lon="4.983061">
        <ele>176.94531</ele>
        <time>2021-06-30T10:04:35Z</time>
      </trkpt>
      <trkpt lat="44.988091" lon="4.982786">
        <ele>176.92340</ele>
        <time>2021-06-30T10:04:36Z</time>
      </trkpt>
      <trkpt lat="44.987911" lon="4.982502">
        <ele>174.94128</ele>
        <time>2021-06-30T10:04:37Z</time>
      </trkpt>
      <trkpt lat="44.987736" lon="4.982225">
        <ele>174.72357</ele>
        <time>2021-06-30T10:04:38Z</time>
      </trkpt>
      <trkpt lat="44.987560" lon="4.981945">
        <ele>173.88306</ele>
        <time>2021-06-30T10:04:39Z</time>
      </trkpt>
      <trkpt lat="44.987385" lon="4.981667">
        <ele>173.85413</ele>
        <time>2021-06-30T10:04:40Z</time>
      </trkpt>
      <trkpt lat="44.987209" lon="4.981390">
        <ele>172.88165</ele>
        <time>2021-06-30T10:04:41Z</time>
      </trkpt>
      <trkpt lat="44.987038" lon="4.981115">
        <ele>172.31183</ele>
        <time>2021-06-30T10:04:42Z</time>
      </trkpt>
      <trkpt lat="44.986855" lon="4.980825">
        <ele>172.13220</ele>
        <time>2021-06-30T10:04:43Z</time>
      </trkpt>
      <trkpt lat="44.986675" lon="4.980540">
        <ele>171.17334</ele>
        <time>2021-06-30T10:04:44Z</time>
      </trkpt>
      <trkpt lat="44.986504" lon="4.980264">
        <ele>170.58215</ele>
        <time>2021-06-30T10:04:45Z</time>
      </trkpt>
      <trkpt lat="44.986328" lon="4.979982">
        <ele>170.46808</ele>
        <time>2021-06-30T10:04:46Z</time>
      </trkpt>
      <trkpt lat="44.986153" lon="4.979706">
        <ele>171.28241</ele>
        <time>2021-06-30T10:04:47Z</time>
      </trkpt>
      <trkpt lat="44.985981" lon="4.979431">
        <ele>170.91736</ele>
        <time>2021-06-30T10:04:48Z</time>
      </trkpt>
      <trkpt lat="44.985813" lon="4.979158">
        <ele>169.48041</ele>
        <time>2021-06-30T10:04:49Z</time>
      </trkpt>
      <trkpt lat="44.985638" lon="4.978878">
        <ele>169.29193</ele>
        <time>2021-06-30T10:04:50Z</time>
      </trkpt>
      <trkpt lat="44.985470" lon="4.978609">
        <ele>169.68433</ele>
        <time>2021-06-30T10:04:51Z</time>
      </trkpt>
      <trkpt lat="44.985298" lon="4.978333">
        <ele>168.81323</ele>
        <time>2021-06-30T10:04:52Z</time>
      </trkpt>
      <trkpt lat="44.985126" lon="4.978060">
        <ele>168.92993</ele>
        <time>2021-06-30T10:04:53Z</time>
      </trkpt>
      <trkpt lat="44.985126" lon="4.978060">
        <ele>167.91870</ele>
        <time>2021-06-30T10:04:54Z</time>
      </trkpt>
      <trkpt lat="44.984947" lon="4.977781">
        <ele>167.40198</ele>
        <time>2021-06-30T10:04:55Z</time>
      </trkpt>
      <trkpt lat="44.984772" lon="4.977501">
        <ele>167.90295</ele>
        <time>2021-06-30T10:04:56Z</time>
      </trkpt>
      <trkpt lat="44.984600" lon="4.977227">
        <ele>168.47522</ele>
        <time>2021-06-30T10:04:57Z</time>
      </trkpt>
      <trkpt lat="44.984425" lon="4.976942">
        <ele>168.50952</ele>
        <time>2021-06-30T10:04:58Z</time>
      </trkpt>
      <trkpt lat="44.984238" lon="4.976648">
        <ele>169.24805</ele>
        <time>2021-06-30T10:04:59Z</time>
      </trkpt>
      <trkpt lat="44.984058" lon="4.976365">
        <ele>169.22308</ele>
        <time>2021-06-30T10:05:00Z</time>
      </trkpt>
      <trkpt lat="44.983887" lon="4.976091">
        <ele>167.58234</ele>
        <time>2021-06-30T10:05:01Z</time>
      </trkpt>
      <trkpt lat="44.983715" lon="4.975820">
        <ele>168.04456</ele>
        <time>2021-06-30T10:05:02Z</time>
      </trkpt>
      <trkpt lat="44.983528" lon="4.975517">
        <ele>167.79669</ele>
        <time>2021-06-30T10:05:03Z</time>
      </trkpt>
      <trkpt lat="44.983349" lon="4.975226">
        <ele>168.28204</ele>
        <time>2021-06-30T10:05:04Z</time>
      </trkpt>
      <trkpt lat="44.983177" lon="4.974953">
        <ele>168.30756</ele>
        <time>2021-06-30T10:05:05Z</time>
      </trkpt>
      <trkpt lat="44.983002" lon="4.974666">
        <ele>169.10632</ele>
        <time>2021-06-30T10:05:06Z</time>
      </trkpt>
      <trkpt lat="44.982826" lon="4.974390">
        <ele>168.83899</ele>
        <time>2021-06-30T10:05:07Z</time>
      </trkpt>
      <trkpt lat="44.982658" lon="4.974119">
        <ele>166.75720</ele>
        <time>2021-06-30T10:05:08Z</time>
      </trkpt>
      <trkpt lat="44.982479" lon="4.973837">
        <ele>166.28149</ele>
        <time>2021-06-30T10:05:09Z</time>
      </trkpt>
      <trkpt lat="44.982300" lon="4.973552">
        <ele>165.76471</ele>
        <time>2021-06-30T10:05:10Z</time>
      </trkpt>
      <trkpt lat="44.982124" lon="4.973280">
        <ele>165.68689</ele>
        <time>2021-06-30T10:05:11Z</time>
      </trkpt>
      <trkpt lat="44.981953" lon="4.973011">
        <ele>165.67340</ele>
        <time>2021-06-30T10:05:12Z</time>
      </trkpt>
      <trkpt lat="44.981766" lon="4.972730">
        <ele>165.55023</ele>
        <time>2021-06-30T10:05:13Z</time>
      </trkpt>
      <trkpt lat="44.981583" lon="4.972455">
        <ele>165.54144</ele>
        <time>2021-06-30T10:05:14Z</time>
      </trkpt>
      <trkpt lat="44.981411" lon="4.972194">
        <ele>166.83105</ele>
        <time>2021-06-30T10:05:15Z</time>
      </trkpt>
      <trkpt lat="44.981239" lon="4.971937">
        <ele>166.87115</ele>
        <time>2021-06-30T10:05:16Z</time>
      </trkpt>
      <trkpt lat="44.981060" lon="4.971664">
        <ele>167.52319</ele>
        <time>2021-06-30T10:05:17Z</time>
      </trkpt>
      <trkpt lat="44.980881" lon="4.971393">
        <ele>167.37659</ele>
        <time>2021-06-30T10:05:18Z</time>
      </trkpt>
      <trkpt lat="44.980701" lon="4.971119">
        <ele>167.19531</ele>
        <time>2021-06-30T10:05:19Z</time>
      </trkpt>
      <trkpt lat="44.980522" lon="4.970849">
        <ele>167.10950</ele>
        <time>2021-06-30T10:05:20Z</time>
      </trkpt>
      <trkpt lat="44.980343" lon="4.970573">
        <ele>167.61182</ele>
        <time>2021-06-30T10:05:21Z</time>
      </trkpt>
      <trkpt lat="44.980175" lon="4.970317">
        <ele>167.04346</ele>
        <time>2021-06-30T10:05:22Z</time>
      </trkpt>
      <trkpt lat="44.980000" lon="4.970049">
        <ele>167.38086</ele>
        <time>2021-06-30T10:05:23Z</time>
      </trkpt>
      <trkpt lat="44.979816" lon="4.969773">
        <ele>167.32983</ele>
        <time>2021-06-30T10:05:24Z</time>
      </trkpt>
      <trkpt lat="44.979641" lon="4.969510">
        <ele>167.42078</ele>
        <time>2021-06-30T10:05:25Z</time>
      </trkpt>
      <trkpt lat="44.979469" lon="4.969246">
        <ele>167.37000</ele>
        <time>2021-06-30T10:05:26Z</time>
      </trkpt>
      <trkpt lat="44.979286" lon="4.968965">
        <ele>166.11108</ele>
        <time>2021-06-30T10:05:27Z</time>
      </trkpt>
      <trkpt lat="44.979107" lon="4.968690">
        <ele>166.01538</ele>
        <time>2021-06-30T10:05:28Z</time>
      </trkpt>
      <trkpt lat="44.978928" lon="4.968414">
        <ele>164.87897</ele>
        <time>2021-06-30T10:05:29Z</time>
      </trkpt>
      <trkpt lat="44.978756" lon="4.968151">
        <ele>165.32190</ele>
        <time>2021-06-30T10:05:30Z</time>
      </trkpt>
      <trkpt lat="44.978756" lon="4.968151">
        <ele>165.29858</ele>
        <time>2021-06-30T10:05:31Z</time>
      </trkpt>
      <trkpt lat="44.978573" lon="4.967871">
        <ele>165.40765</ele>
        <time>2021-06-30T10:05:32Z</time>
      </trkpt>
      <trkpt lat="44.978401" lon="4.967615">
        <ele>163.37451</ele>
        <time>2021-06-30T10:05:33Z</time>
      </trkpt>
      <trkpt lat="44.978214" lon="4.967351">
        <ele>163.24316</ele>
        <time>2021-06-30T10:05:34Z</time>
      </trkpt>
      <trkpt lat="44.978035" lon="4.967093">
        <ele>162.08264</ele>
        <time>2021-06-30T10:05:35Z</time>
      </trkpt>
      <trkpt lat="44.977840" lon="4.966847">
        <ele>161.93573</ele>
        <time>2021-06-30T10:05:36Z</time>
      </trkpt>
      <trkpt lat="44.977650" lon="4.966619">
        <ele>161.81641</ele>
        <time>2021-06-30T10:05:37Z</time>
      </trkpt>
      <trkpt lat="44.977440" lon="4.966382">
        <ele>162.28931</ele>
        <time>2021-06-30T10:05:38Z</time>
      </trkpt>
      <trkpt lat="44.977226" lon="4.966163">
        <ele>161.32440</ele>
        <time>2021-06-30T10:05:39Z</time>
      </trkpt>
      <trkpt lat="44.976997" lon="4.965943">
        <ele>161.33362</ele>
        <time>2021-06-30T10:05:40Z</time>
      </trkpt>
      <trkpt lat="44.976784" lon="4.965767">
        <ele>161.14557</ele>
        <time>2021-06-30T10:05:41Z</time>
      </trkpt>
      <trkpt lat="44.976536" lon="4.965584">
        <ele>160.10547</ele>
        <time>2021-06-30T10:05:42Z</time>
      </trkpt>
      <trkpt lat="44.976315" lon="4.965422">
        <ele>160.09222</ele>
        <time>2021-06-30T10:05:43Z</time>
      </trkpt>
      <trkpt lat="44.976074" lon="4.965265">
        <ele>160.27417</ele>
        <time>2021-06-30T10:05:44Z</time>
      </trkpt>
      <trkpt lat="44.975838" lon="4.965126">
        <ele>159.69592</ele>
        <time>2021-06-30T10:05:45Z</time>
      </trkpt>
      <trkpt lat="44.975605" lon="4.964995">
        <ele>159.72784</ele>
        <time>2021-06-30T10:05:46Z</time>
      </trkpt>
      <trkpt lat="44.975361" lon="4.964872">
        <ele>161.02405</ele>
        <time>2021-06-30T10:05:47Z</time>
      </trkpt>
      <trkpt lat="44.975109" lon="4.964753">
        <ele>161.24048</ele>
        <time>2021-06-30T10:05:48Z</time>
      </trkpt>
      <trkpt lat="44.974854" lon="4.964638">
        <ele>161.16382</ele>
        <time>2021-06-30T10:05:49Z</time>
      </trkpt>
      <trkpt lat="44.974606" lon="4.964558">
        <ele>161.45911</ele>
        <time>2021-06-30T10:05:50Z</time>
      </trkpt>
      <trkpt lat="44.974365" lon="4.964491">
        <ele>161.38068</ele>
        <time>2021-06-30T10:05:51Z</time>
      </trkpt>
      <trkpt lat="44.974110" lon="4.964435">
        <ele>161.68958</ele>
        <time>2021-06-30T10:05:52Z</time>
      </trkpt>
      <trkpt lat="44.973858" lon="4.964387">
        <ele>161.75085</ele>
        <time>2021-06-30T10:05:53Z</time>
      </trkpt>
      <trkpt lat="44.973591" lon="4.964347">
        <ele>161.61584</ele>
        <time>2021-06-30T10:05:54Z</time>
      </trkpt>
      <trkpt lat="44.973335" lon="4.964311">
        <ele>161.38489</ele>
        <time>2021-06-30T10:05:55Z</time>
      </trkpt>
      <trkpt lat="44.973072" lon="4.964277">
        <ele>161.56348</ele>
        <time>2021-06-30T10:05:56Z</time>
      </trkpt>
      <trkpt lat="44.972805" lon="4.964242">
        <ele>161.16785</ele>
        <time>2021-06-30T10:05:57Z</time>
      </trkpt>
      <trkpt lat="44.972538" lon="4.964208">
        <ele>161.09583</ele>
        <time>2021-06-30T10:05:58Z</time>
      </trkpt>
      <trkpt lat="44.972282" lon="4.964172">
        <ele>160.92883</ele>
        <time>2021-06-30T10:05:59Z</time>
      </trkpt>
      <trkpt lat="44.972027" lon="4.964117">
        <ele>160.61835</ele>
        <time>2021-06-30T10:06:00Z</time>
      </trkpt>
      <trkpt lat="44.971767" lon="4.964049">
        <ele>161.04181</ele>
        <time>2021-06-30T10:06:01Z</time>
      </trkpt>
      <trkpt lat="44.971508" lon="4.963968">
        <ele>161.16260</ele>
        <time>2021-06-30T10:06:02Z</time>
      </trkpt>
      <trkpt lat="44.971256" lon="4.963877">
        <ele>160.06250</ele>
        <time>2021-06-30T10:06:03Z</time>
      </trkpt>
      <trkpt lat="44.970989" lon="4.963775">
        <ele>159.66772</ele>
        <time>2021-06-30T10:06:04Z</time>
      </trkpt>
      <trkpt lat="44.970749" lon="4.963655">
        <ele>159.47955</ele>
        <time>2021-06-30T10:06:05Z</time>
      </trkpt>
      <trkpt lat="44.970505" lon="4.963532">
        <ele>159.13965</ele>
        <time>2021-06-30T10:06:06Z</time>
      </trkpt>
      <trkpt lat="44.970242" lon="4.963388">
        <ele>159.42151</ele>
        <time>2021-06-30T10:06:07Z</time>
      </trkpt>
      <trkpt lat="44.970001" lon="4.963237">
        <ele>159.71881</ele>
        <time>2021-06-30T10:06:08Z</time>
      </trkpt>
      <trkpt lat="44.969761" lon="4.963082">
        <ele>159.82385</ele>
        <time>2021-06-30T10:06:09Z</time>
      </trkpt>
      <trkpt lat="44.969761" lon="4.963082">
        <ele>160.09229</ele>
        <time>2021-06-30T10:06:10Z</time>
      </trkpt>
      <trkpt lat="44.969517" lon="4.962925">
        <ele>160.13116</ele>
        <time>2021-06-30T10:06:11Z</time>
      </trkpt>
      <trkpt lat="44.969280" lon="4.962772">
        <ele>160.61896</ele>
        <time>2021-06-30T10:06:12Z</time>
      </trkpt>
      <trkpt lat="44.969032" lon="4.962611">
        <ele>160.81171</ele>
        <time>2021-06-30T10:06:13Z</time>
      </trkpt>
      <trkpt lat="44.968811" lon="4.962462">
        <ele>160.76758</ele>
        <time>2021-06-30T10:06:14Z</time>
      </trkpt>
      <trkpt lat="44.968571" lon="4.962307">
        <ele>160.28369</ele>
        <time>2021-06-30T10:06:15Z</time>
      </trkpt>
      <trkpt lat="44.968334" lon="4.962156">
        <ele>161.01166</ele>
        <time>2021-06-30T10:06:16Z</time>
      </trkpt>
      <trkpt lat="44.968109" lon="4.962014">
        <ele>161.17310</ele>
        <time>2021-06-30T10:06:17Z</time>
      </trkpt>
      <trkpt lat="44.967899" lon="4.961879">
        <ele>161.05908</ele>
        <time>2021-06-30T10:06:18Z</time>
      </trkpt>
      <trkpt lat="44.967663" lon="4.961732">
        <ele>161.18439</ele>
        <time>2021-06-30T10:06:19Z</time>
      </trkpt>
      <trkpt lat="44.967426" lon="4.961587">
        <ele>160.57111</ele>
        <time>2021-06-30T10:06:20Z</time>
      </trkpt>
      <trkpt lat="44.967197" lon="4.961436">
        <ele>161.09186</ele>
        <time>2021-06-30T10:06:20Z</time>
      </trkpt>
      <trkpt lat="44.966957" lon="4.961272">
        <ele>161.16534</ele>
        <time>2021-06-30T10:06:21Z</time>
      </trkpt>
      <trkpt lat="44.966717" lon="4.961105">
        <ele>159.57324</ele>
        <time>2021-06-30T10:06:22Z</time>
      </trkpt>
      <trkpt lat="44.966484" lon="4.960945">
        <ele>159.96014</ele>
        <time>2021-06-30T10:06:24Z</time>
      </trkpt>
      <trkpt lat="44.966255" lon="4.960769">
        <ele>159.33252</ele>
        <time>2021-06-30T10:06:24Z</time>
      </trkpt>
      <trkpt lat="44.966019" lon="4.960562">
        <ele>160.11517</ele>
        <time>2021-06-30T10:06:25Z</time>
      </trkpt>
      <trkpt lat="44.965782" lon="4.960340">
        <ele>160.07043</ele>
        <time>2021-06-30T10:06:26Z</time>
      </trkpt>
      <trkpt lat="44.965553" lon="4.960112">
        <ele>161.64081</ele>
        <time>2021-06-30T10:06:27Z</time>
      </trkpt>
      <trkpt lat="44.965347" lon="4.959880">
        <ele>162.49182</ele>
        <time>2021-06-30T10:06:28Z</time>
      </trkpt>
      <trkpt lat="44.965145" lon="4.959623">
        <ele>162.70032</ele>
        <time>2021-06-30T10:06:29Z</time>
      </trkpt>
      <trkpt lat="44.964943" lon="4.959360">
        <ele>163.39050</ele>
        <time>2021-06-30T10:06:30Z</time>
      </trkpt>
      <trkpt lat="44.964760" lon="4.959081">
        <ele>163.66229</ele>
        <time>2021-06-30T10:06:31Z</time>
      </trkpt>
      <trkpt lat="44.964581" lon="4.958793">
        <ele>163.79773</ele>
        <time>2021-06-30T10:06:33Z</time>
      </trkpt>
      <trkpt lat="44.964413" lon="4.958491">
        <ele>163.27124</ele>
        <time>2021-06-30T10:06:33Z</time>
      </trkpt>
      <trkpt lat="44.964264" lon="4.958212">
        <ele>163.16656</ele>
        <time>2021-06-30T10:06:34Z</time>
      </trkpt>
      <trkpt lat="44.964264" lon="4.958212">
        <ele>161.68018</ele>
        <time>2021-06-30T10:06:35Z</time>
      </trkpt>
      <trkpt lat="44.964111" lon="4.957898">
        <ele>162.86359</ele>
        <time>2021-06-30T10:06:36Z</time>
      </trkpt>
      <trkpt lat="44.963993" lon="4.957615">
        <ele>160.48950</ele>
        <time>2021-06-30T10:06:37Z</time>
      </trkpt>
      <trkpt lat="44.963871" lon="4.957297">
        <ele>159.53033</ele>
        <time>2021-06-30T10:06:38Z</time>
      </trkpt>
      <trkpt lat="44.963749" lon="4.956961">
        <ele>158.58667</ele>
        <time>2021-06-30T10:06:39Z</time>
      </trkpt>
      <trkpt lat="44.963638" lon="4.956609">
        <ele>156.28546</ele>
        <time>2021-06-30T10:06:40Z</time>
      </trkpt>
      <trkpt lat="44.963531" lon="4.956238">
        <ele>156.27161</ele>
        <time>2021-06-30T10:06:41Z</time>
      </trkpt>
      <trkpt lat="44.963444" lon="4.955890">
        <ele>155.99469</ele>
        <time>2021-06-30T10:06:42Z</time>
      </trkpt>
      <trkpt lat="44.963356" lon="4.955511">
        <ele>155.69897</ele>
        <time>2021-06-30T10:06:43Z</time>
      </trkpt>
      <trkpt lat="44.963280" lon="4.955164">
        <ele>156.96509</ele>
        <time>2021-06-30T10:06:44Z</time>
      </trkpt>
      <trkpt lat="44.963200" lon="4.954782">
        <ele>157.74390</ele>
        <time>2021-06-30T10:06:45Z</time>
      </trkpt>
      <trkpt lat="44.963123" lon="4.954435">
        <ele>157.40656</ele>
        <time>2021-06-30T10:06:46Z</time>
      </trkpt>
      <trkpt lat="44.963047" lon="4.954079">
        <ele>157.58014</ele>
        <time>2021-06-30T10:06:47Z</time>
      </trkpt>
      <trkpt lat="44.962971" lon="4.953724">
        <ele>157.49493</ele>
        <time>2021-06-30T10:06:48Z</time>
      </trkpt>
      <trkpt lat="44.962891" lon="4.953366">
        <ele>156.95850</ele>
        <time>2021-06-30T10:06:49Z</time>
      </trkpt>
      <trkpt lat="44.962811" lon="4.953000">
        <ele>156.12305</ele>
        <time>2021-06-30T10:06:50Z</time>
      </trkpt>
      <trkpt lat="44.962738" lon="4.952671">
        <ele>155.08997</ele>
        <time>2021-06-30T10:06:51Z</time>
      </trkpt>
      <trkpt lat="44.962658" lon="4.952298">
        <ele>155.12726</ele>
        <time>2021-06-30T10:06:52Z</time>
      </trkpt>
      <trkpt lat="44.962578" lon="4.951927">
        <ele>155.70068</ele>
        <time>2021-06-30T10:06:53Z</time>
      </trkpt>
      <trkpt lat="44.962502" lon="4.951571">
        <ele>157.85474</ele>
        <time>2021-06-30T10:06:54Z</time>
      </trkpt>
      <trkpt lat="44.962429" lon="4.951225">
        <ele>157.47327</ele>
        <time>2021-06-30T10:06:55Z</time>
      </trkpt>
      <trkpt lat="44.962357" lon="4.950875">
        <ele>156.72534</ele>
        <time>2021-06-30T10:06:56Z</time>
      </trkpt>
      <trkpt lat="44.962276" lon="4.950521">
        <ele>156.92273</ele>
        <time>2021-06-30T10:06:58Z</time>
      </trkpt>
      <trkpt lat="44.962204" lon="4.950173">
        <ele>157.39722</ele>
        <time>2021-06-30T10:06:58Z</time>
      </trkpt>
      <trkpt lat="44.962124" lon="4.949807">
        <ele>156.87463</ele>
        <time>2021-06-30T10:06:59Z</time>
      </trkpt>
      <trkpt lat="44.962051" lon="4.949467">
        <ele>157.47101</ele>
        <time>2021-06-30T10:07:00Z</time>
      </trkpt>
      <trkpt lat="44.961971" lon="4.949107">
        <ele>157.53632</ele>
        <time>2021-06-30T10:07:01Z</time>
      </trkpt>
      <trkpt lat="44.961903" lon="4.948779">
        <ele>157.53271</ele>
        <time>2021-06-30T10:07:02Z</time>
      </trkpt>
      <trkpt lat="44.961830" lon="4.948456">
        <ele>157.14417</ele>
        <time>2021-06-30T10:07:03Z</time>
      </trkpt>
      <trkpt lat="44.961765" lon="4.948144">
        <ele>157.14459</ele>
        <time>2021-06-30T10:07:04Z</time>
      </trkpt>
      <trkpt lat="44.961700" lon="4.947831">
        <ele>157.15515</ele>
        <time>2021-06-30T10:07:05Z</time>
      </trkpt>
      <trkpt lat="44.961632" lon="4.947513">
        <ele>156.43213</ele>
        <time>2021-06-30T10:07:06Z</time>
      </trkpt>
      <trkpt lat="44.961563" lon="4.947204">
        <ele>156.51331</ele>
        <time>2021-06-30T10:07:07Z</time>
      </trkpt>
      <trkpt lat="44.961491" lon="4.946862">
        <ele>156.98389</ele>
        <time>2021-06-30T10:07:08Z</time>
      </trkpt>
      <trkpt lat="44.961422" lon="4.946539">
        <ele>157.34637</ele>
        <time>2021-06-30T10:07:09Z</time>
      </trkpt>
      <trkpt lat="44.961353" lon="4.946235">
        <ele>156.19470</ele>
        <time>2021-06-30T10:07:10Z</time>
      </trkpt>
      <trkpt lat="44.961285" lon="4.945918">
        <ele>155.51074</ele>
        <time>2021-06-30T10:07:11Z</time>
      </trkpt>
      <trkpt lat="44.961220" lon="4.945606">
        <ele>156.21167</ele>
        <time>2021-06-30T10:07:12Z</time>
      </trkpt>
      <trkpt lat="44.961220" lon="4.945606">
        <ele>156.30133</ele>
        <time>2021-06-30T10:07:13Z</time>
      </trkpt>
      <trkpt lat="44.961147" lon="4.945266">
        <ele>156.94293</ele>
        <time>2021-06-30T10:07:14Z</time>
      </trkpt>
      <trkpt lat="44.961075" lon="4.944920">
        <ele>156.79608</ele>
        <time>2021-06-30T10:07:15Z</time>
      </trkpt>
      <trkpt lat="44.961002" lon="4.944573">
        <ele>156.90314</ele>
        <time>2021-06-30T10:07:16Z</time>
      </trkpt>
      <trkpt lat="44.960926" lon="4.944221">
        <ele>156.86932</ele>
        <time>2021-06-30T10:07:17Z</time>
      </trkpt>
      <trkpt lat="44.960857" lon="4.943892">
        <ele>157.59930</ele>
        <time>2021-06-30T10:07:18Z</time>
      </trkpt>
      <trkpt lat="44.960842" lon="4.943820">
        <ele>157.97479</ele>
        <time>2021-06-30T10:07:19Z</time>
      </trkpt>
      <trkpt lat="44.960709" lon="4.943216">
        <ele>158.44263</ele>
        <time>2021-06-30T10:07:20Z</time>
      </trkpt>
      <trkpt lat="44.960632" lon="4.942883">
        <ele>158.93896</ele>
        <time>2021-06-30T10:07:22Z</time>
      </trkpt>
      <trkpt lat="44.960567" lon="4.942585">
        <ele>159.85071</ele>
        <time>2021-06-30T10:07:23Z</time>
      </trkpt>
      <trkpt lat="44.960503" lon="4.942288">
        <ele>160.13361</ele>
        <time>2021-06-30T10:07:23Z</time>
      </trkpt>
      <trkpt lat="44.960434" lon="4.941977">
        <ele>160.40015</ele>
        <time>2021-06-30T10:07:25Z</time>
      </trkpt>
      <trkpt lat="44.960369" lon="4.941677">
        <ele>160.69690</ele>
        <time>2021-06-30T10:07:26Z</time>
      </trkpt>
      <trkpt lat="44.960300" lon="4.941372">
        <ele>161.65698</ele>
        <time>2021-06-30T10:07:27Z</time>
      </trkpt>
      <trkpt lat="44.960236" lon="4.941072">
        <ele>161.39392</ele>
        <time>2021-06-30T10:07:28Z</time>
      </trkpt>
      <trkpt lat="44.960159" lon="4.940793">
        <ele>162.12286</ele>
        <time>2021-06-30T10:07:28Z</time>
      </trkpt>
      <trkpt lat="44.960091" lon="4.940524">
        <ele>162.42188</ele>
        <time>2021-06-30T10:07:30Z</time>
      </trkpt>
      <trkpt lat="44.960011" lon="4.940258">
        <ele>162.58252</ele>
        <time>2021-06-30T10:07:31Z</time>
      </trkpt>
      <trkpt lat="44.959927" lon="4.940003">
        <ele>162.26184</ele>
        <time>2021-06-30T10:07:32Z</time>
      </trkpt>
      <trkpt lat="44.959827" lon="4.939736">
        <ele>162.68524</ele>
        <time>2021-06-30T10:07:32Z</time>
      </trkpt>
      <trkpt lat="44.959728" lon="4.939473">
        <ele>161.75220</ele>
        <time>2021-06-30T10:07:34Z</time>
      </trkpt>
      <trkpt lat="44.959614" lon="4.939207">
        <ele>161.55231</ele>
        <time>2021-06-30T10:07:35Z</time>
      </trkpt>
      <trkpt lat="44.959492" lon="4.938939">
        <ele>161.10400</ele>
        <time>2021-06-30T10:07:36Z</time>
      </trkpt>
      <trkpt lat="44.959358" lon="4.938689">
        <ele>159.74097</ele>
        <time>2021-06-30T10:07:37Z</time>
      </trkpt>
      <trkpt lat="44.959229" lon="4.938452">
        <ele>159.10895</ele>
        <time>2021-06-30T10:07:38Z</time>
      </trkpt>
      <trkpt lat="44.959091" lon="4.938226">
        <ele>159.15143</ele>
        <time>2021-06-30T10:07:39Z</time>
      </trkpt>
      <trkpt lat="44.958958" lon="4.938005">
        <ele>160.17017</ele>
        <time>2021-06-30T10:07:40Z</time>
      </trkpt>
      <trkpt lat="44.958820" lon="4.937776">
        <ele>160.93201</ele>
        <time>2021-06-30T10:07:41Z</time>
      </trkpt>
      <trkpt lat="44.958668" lon="4.937555">
        <ele>161.53101</ele>
        <time>2021-06-30T10:07:42Z</time>
      </trkpt>
      <trkpt lat="44.958496" lon="4.937369">
        <ele>160.70441</ele>
        <time>2021-06-30T10:07:43Z</time>
      </trkpt>
      <trkpt lat="44.958317" lon="4.937160">
        <ele>159.55652</ele>
        <time>2021-06-30T10:07:44Z</time>
      </trkpt>
      <trkpt lat="44.958317" lon="4.937160">
        <ele>158.91467</ele>
        <time>2021-06-30T10:07:45Z</time>
      </trkpt>
      <trkpt lat="44.958145" lon="4.936962">
        <ele>158.84894</ele>
        <time>2021-06-30T10:07:46Z</time>
      </trkpt>
      <trkpt lat="44.957970" lon="4.936759">
        <ele>158.06036</ele>
        <time>2021-06-30T10:07:47Z</time>
      </trkpt>
      <trkpt lat="44.957798" lon="4.936589">
        <ele>157.98499</ele>
        <time>2021-06-30T10:07:48Z</time>
      </trkpt>
      <trkpt lat="44.957615" lon="4.936410">
        <ele>157.61462</ele>
        <time>2021-06-30T10:07:49Z</time>
      </trkpt>
      <trkpt lat="44.957428" lon="4.936257">
        <ele>157.49323</ele>
        <time>2021-06-30T10:07:50Z</time>
      </trkpt>
      <trkpt lat="44.957237" lon="4.936102">
        <ele>157.03412</ele>
        <time>2021-06-30T10:07:51Z</time>
      </trkpt>
      <trkpt lat="44.957054" lon="4.935957">
        <ele>157.01300</ele>
        <time>2021-06-30T10:07:52Z</time>
      </trkpt>
      <trkpt lat="44.956860" lon="4.935820">
        <ele>156.01099</ele>
        <time>2021-06-30T10:07:53Z</time>
      </trkpt>
      <trkpt lat="44.956661" lon="4.935705">
        <ele>155.94336</ele>
        <time>2021-06-30T10:07:54Z</time>
      </trkpt>
      <trkpt lat="44.956455" lon="4.935585">
        <ele>155.87598</ele>
        <time>2021-06-30T10:07:55Z</time>
      </trkpt>
      <trkpt lat="44.956264" lon="4.935486">
        <ele>154.30542</ele>
        <time>2021-06-30T10:07:56Z</time>
      </trkpt>
      <trkpt lat="44.956059" lon="4.935390">
        <ele>153.04285</ele>
        <time>2021-06-30T10:07:57Z</time>
      </trkpt>
      <trkpt lat="44.955818" lon="4.935296">
        <ele>152.11389</ele>
        <time>2021-06-30T10:07:58Z</time>
      </trkpt>
      <trkpt lat="44.955597" lon="4.935229">
        <ele>151.94830</ele>
        <time>2021-06-30T10:07:59Z</time>
      </trkpt>
      <trkpt lat="44.955379" lon="4.935166">
        <ele>151.39844</ele>
        <time>2021-06-30T10:08:00Z</time>
      </trkpt>
      <trkpt lat="44.955162" lon="4.935117">
        <ele>150.78827</ele>
        <time>2021-06-30T10:08:01Z</time>
      </trkpt>
      <trkpt lat="44.954929" lon="4.935086">
        <ele>150.56128</ele>
        <time>2021-06-30T10:08:02Z</time>
      </trkpt>
      <trkpt lat="44.954697" lon="4.935059">
        <ele>150.78430</ele>
        <time>2021-06-30T10:08:03Z</time>
      </trkpt>
      <trkpt lat="44.954468" lon="4.935049">
        <ele>151.10913</ele>
        <time>2021-06-30T10:08:04Z</time>
      </trkpt>
      <trkpt lat="44.954220" lon="4.935061">
        <ele>151.06726</ele>
        <time>2021-06-30T10:08:05Z</time>
      </trkpt>
      <trkpt lat="44.953972" lon="4.935089">
        <ele>151.14050</ele>
        <time>2021-06-30T10:08:06Z</time>
      </trkpt>
      <trkpt lat="44.953693" lon="4.935121">
        <ele>150.65875</ele>
        <time>2021-06-30T10:08:07Z</time>
      </trkpt>
      <trkpt lat="44.953400" lon="4.935160">
        <ele>151.09833</ele>
        <time>2021-06-30T10:08:08Z</time>
      </trkpt>
      <trkpt lat="44.953133" lon="4.935223">
        <ele>151.27167</ele>
        <time>2021-06-30T10:08:09Z</time>
      </trkpt>
      <trkpt lat="44.952885" lon="4.935303">
        <ele>150.08508</ele>
        <time>2021-06-30T10:08:10Z</time>
      </trkpt>
      <trkpt lat="44.952644" lon="4.935412">
        <ele>149.22931</ele>
        <time>2021-06-30T10:08:11Z</time>
      </trkpt>
      <trkpt lat="44.952419" lon="4.935515">
        <ele>150.47791</ele>
        <time>2021-06-30T10:08:12Z</time>
      </trkpt>
      <trkpt lat="44.952187" lon="4.935644">
        <ele>150.92896</ele>
        <time>2021-06-30T10:08:13Z</time>
      </trkpt>
      <trkpt lat="44.951965" lon="4.935778">
        <ele>150.78479</ele>
        <time>2021-06-30T10:08:14Z</time>
      </trkpt>
      <trkpt lat="44.951740" lon="4.935940">
        <ele>150.59436</ele>
        <time>2021-06-30T10:08:15Z</time>
      </trkpt>
      <trkpt lat="44.951740" lon="4.935940">
        <ele>150.46045</ele>
        <time>2021-06-30T10:08:16Z</time>
      </trkpt>
      <trkpt lat="44.951519" lon="4.936110">
        <ele>150.23468</ele>
        <time>2021-06-30T10:08:17Z</time>
      </trkpt>
      <trkpt lat="44.951305" lon="4.936277">
        <ele>151.48956</ele>
        <time>2021-06-30T10:08:18Z</time>
      </trkpt>
      <trkpt lat="44.951080" lon="4.936485">
        <ele>152.26984</ele>
        <time>2021-06-30T10:08:19Z</time>
      </trkpt>
      <trkpt lat="44.950867" lon="4.936700">
        <ele>152.37848</ele>
        <time>2021-06-30T10:08:20Z</time>
      </trkpt>
      <trkpt lat="44.950642" lon="4.936944">
        <ele>152.62994</ele>
        <time>2021-06-30T10:08:21Z</time>
      </trkpt>
      <trkpt lat="44.950436" lon="4.937197">
        <ele>152.81744</ele>
        <time>2021-06-30T10:08:22Z</time>
      </trkpt>
      <trkpt lat="44.950211" lon="4.937462">
        <ele>152.90625</ele>
        <time>2021-06-30T10:08:23Z</time>
      </trkpt>
      <trkpt lat="44.949993" lon="4.937718">
        <ele>153.20483</ele>
        <time>2021-06-30T10:08:24Z</time>
      </trkpt>
      <trkpt lat="44.949760" lon="4.938030">
        <ele>153.95776</ele>
        <time>2021-06-30T10:08:25Z</time>
      </trkpt>
      <trkpt lat="44.949528" lon="4.938338">
        <ele>153.21643</ele>
        <time>2021-06-30T10:08:26Z</time>
      </trkpt>
      <trkpt lat="44.949310" lon="4.938625">
        <ele>153.37683</ele>
        <time>2021-06-30T10:08:27Z</time>
      </trkpt>
      <trkpt lat="44.949093" lon="4.938906">
        <ele>153.48114</ele>
        <time>2021-06-30T10:08:28Z</time>
      </trkpt>
      <trkpt lat="44.948864" lon="4.939174">
        <ele>153.50201</ele>
        <time>2021-06-30T10:08:29Z</time>
      </trkpt>
      <trkpt lat="44.948612" lon="4.939448">
        <ele>153.57184</ele>
        <time>2021-06-30T10:08:30Z</time>
      </trkpt>
      <trkpt lat="44.948360" lon="4.939705">
        <ele>153.43658</ele>
        <time>2021-06-30T10:08:31Z</time>
      </trkpt>
      <trkpt lat="44.948101" lon="4.939951">
        <ele>153.52325</ele>
        <time>2021-06-30T10:08:32Z</time>
      </trkpt>
      <trkpt lat="44.947838" lon="4.940178">
        <ele>153.31042</ele>
        <time>2021-06-30T10:08:33Z</time>
      </trkpt>
      <trkpt lat="44.947556" lon="4.940406">
        <ele>153.31226</ele>
        <time>2021-06-30T10:08:34Z</time>
      </trkpt>
      <trkpt lat="44.947269" lon="4.940619">
        <ele>153.76953</ele>
        <time>2021-06-30T10:08:35Z</time>
      </trkpt>
      <trkpt lat="44.946999" lon="4.940805">
        <ele>153.98724</ele>
        <time>2021-06-30T10:08:36Z</time>
      </trkpt>
      <trkpt lat="44.946709" lon="4.940989">
        <ele>154.35632</ele>
        <time>2021-06-30T10:08:37Z</time>
      </trkpt>
      <trkpt lat="44.946411" lon="4.941149">
        <ele>154.34534</ele>
        <time>2021-06-30T10:08:38Z</time>
      </trkpt>
      <trkpt lat="44.946114" lon="4.941301">
        <ele>154.77173</ele>
        <time>2021-06-30T10:08:39Z</time>
      </trkpt>
      <trkpt lat="44.945824" lon="4.941430">
        <ele>155.58673</ele>
        <time>2021-06-30T10:08:40Z</time>
      </trkpt>
      <trkpt lat="44.945518" lon="4.941544">
        <ele>155.94550</ele>
        <time>2021-06-30T10:08:41Z</time>
      </trkpt>
      <trkpt lat="44.945183" lon="4.941663">
        <ele>157.01593</ele>
        <time>2021-06-30T10:08:42Z</time>
      </trkpt>
      <trkpt lat="44.944874" lon="4.941772">
        <ele>157.60327</ele>
        <time>2021-06-30T10:08:43Z</time>
      </trkpt>
      <trkpt lat="44.944557" lon="4.941851">
        <ele>158.37805</ele>
        <time>2021-06-30T10:08:44Z</time>
      </trkpt>
      <trkpt lat="44.944248" lon="4.941930">
        <ele>157.13049</ele>
        <time>2021-06-30T10:08:45Z</time>
      </trkpt>
      <trkpt lat="44.943935" lon="4.942008">
        <ele>157.17188</ele>
        <time>2021-06-30T10:08:46Z</time>
      </trkpt>
      <trkpt lat="44.943935" lon="4.942008">
        <ele>158.38300</ele>
        <time>2021-06-30T10:08:47Z</time>
      </trkpt>
      <trkpt lat="44.943619" lon="4.942088">
        <ele>158.11060</ele>
        <time>2021-06-30T10:08:48Z</time>
      </trkpt>
      <trkpt lat="44.943295" lon="4.942165">
        <ele>158.21808</ele>
        <time>2021-06-30T10:08:49Z</time>
      </trkpt>
      <trkpt lat="44.942959" lon="4.942243">
        <ele>158.76599</ele>
        <time>2021-06-30T10:08:50Z</time>
      </trkpt>
      <trkpt lat="44.942654" lon="4.942315">
        <ele>158.57361</ele>
        <time>2021-06-30T10:08:51Z</time>
      </trkpt>
      <trkpt lat="44.942345" lon="4.942387">
        <ele>158.02148</ele>
        <time>2021-06-30T10:08:52Z</time>
      </trkpt>
      <trkpt lat="44.942009" lon="4.942466">
        <ele>157.74976</ele>
        <time>2021-06-30T10:08:53Z</time>
      </trkpt>
      <trkpt lat="44.941696" lon="4.942539">
        <ele>157.39655</ele>
        <time>2021-06-30T10:08:54Z</time>
      </trkpt>
      <trkpt lat="44.941383" lon="4.942613">
        <ele>157.56921</ele>
        <time>2021-06-30T10:08:55Z</time>
      </trkpt>
      <trkpt lat="44.941074" lon="4.942685">
        <ele>157.74255</ele>
        <time>2021-06-30T10:08:55Z</time>
      </trkpt>
      <trkpt lat="44.940735" lon="4.942771">
        <ele>158.21692</ele>
        <time>2021-06-30T10:08:56Z</time>
      </trkpt>
      <trkpt lat="44.940418" lon="4.942850">
        <ele>157.55707</ele>
        <time>2021-06-30T10:08:57Z</time>
      </trkpt>
      <trkpt lat="44.940094" lon="4.942931">
        <ele>157.92743</ele>
        <time>2021-06-30T10:08:58Z</time>
      </trkpt>
      <trkpt lat="44.939785" lon="4.943008">
        <ele>158.21936</ele>
        <time>2021-06-30T10:08:59Z</time>
      </trkpt>
      <trkpt lat="44.939449" lon="4.943092">
        <ele>157.37000</ele>
        <time>2021-06-30T10:09:00Z</time>
      </trkpt>
      <trkpt lat="44.939152" lon="4.943167">
        <ele>157.42908</ele>
        <time>2021-06-30T10:09:01Z</time>
      </trkpt>
      <trkpt lat="44.938843" lon="4.943243">
        <ele>156.84326</ele>
        <time>2021-06-30T10:09:02Z</time>
      </trkpt>
      <trkpt lat="44.938519" lon="4.943324">
        <ele>156.99902</ele>
        <time>2021-06-30T10:09:03Z</time>
      </trkpt>
      <trkpt lat="44.938198" lon="4.943403">
        <ele>156.64014</ele>
        <time>2021-06-30T10:09:04Z</time>
      </trkpt>
      <trkpt lat="44.937897" lon="4.943477">
        <ele>156.45581</ele>
        <time>2021-06-30T10:09:05Z</time>
      </trkpt>
      <trkpt lat="44.937580" lon="4.943556">
        <ele>156.25629</ele>
        <time>2021-06-30T10:09:06Z</time>
      </trkpt>
      <trkpt lat="44.937263" lon="4.943634">
        <ele>156.93744</ele>
        <time>2021-06-30T10:09:07Z</time>
      </trkpt>
      <trkpt lat="44.936962" lon="4.943708">
        <ele>156.58569</ele>
        <time>2021-06-30T10:09:08Z</time>
      </trkpt>
      <trkpt lat="44.936657" lon="4.943784">
        <ele>156.57422</ele>
        <time>2021-06-30T10:09:09Z</time>
      </trkpt>
      <trkpt lat="44.936344" lon="4.943861">
        <ele>156.01819</ele>
        <time>2021-06-30T10:09:10Z</time>
      </trkpt>
      <trkpt lat="44.936050" lon="4.943933">
        <ele>156.11206</ele>
        <time>2021-06-30T10:09:11Z</time>
      </trkpt>
      <trkpt lat="44.935768" lon="4.944004">
        <ele>156.39496</ele>
        <time>2021-06-30T10:09:12Z</time>
      </trkpt>
      <trkpt lat="44.935471" lon="4.944076">
        <ele>155.94189</ele>
        <time>2021-06-30T10:09:13Z</time>
      </trkpt>
      <trkpt lat="44.935169" lon="4.944151">
        <ele>156.45892</ele>
        <time>2021-06-30T10:09:14Z</time>
      </trkpt>
      <trkpt lat="44.934883" lon="4.944221">
        <ele>156.03467</ele>
        <time>2021-06-30T10:09:15Z</time>
      </trkpt>
      <trkpt lat="44.934593" lon="4.944292">
        <ele>156.13318</ele>
        <time>2021-06-30T10:09:16Z</time>
      </trkpt>
      <trkpt lat="44.934299" lon="4.944365">
        <ele>156.22583</ele>
        <time>2021-06-30T10:09:17Z</time>
      </trkpt>
      <trkpt lat="44.934010" lon="4.944436">
        <ele>155.56903</ele>
        <time>2021-06-30T10:09:18Z</time>
      </trkpt>
      <trkpt lat="44.934010" lon="4.944436">
        <ele>156.37891</ele>
        <time>2021-06-30T10:09:19Z</time>
      </trkpt>
      <trkpt lat="44.933727" lon="4.944505">
        <ele>156.19788</ele>
        <time>2021-06-30T10:09:20Z</time>
      </trkpt>
      <trkpt lat="44.933464" lon="4.944570">
        <ele>156.67993</ele>
        <time>2021-06-30T10:09:21Z</time>
      </trkpt>
      <trkpt lat="44.933174" lon="4.944641">
        <ele>155.34125</ele>
        <time>2021-06-30T10:09:22Z</time>
      </trkpt>
      <trkpt lat="44.932892" lon="4.944709">
        <ele>155.33765</ele>
        <time>2021-06-30T10:09:23Z</time>
      </trkpt>
      <trkpt lat="44.932613" lon="4.944776">
        <ele>155.89966</ele>
        <time>2021-06-30T10:09:24Z</time>
      </trkpt>
      <trkpt lat="44.932327" lon="4.944844">
        <ele>155.97717</ele>
        <time>2021-06-30T10:09:25Z</time>
      </trkpt>
      <trkpt lat="44.932037" lon="4.944912">
        <ele>155.45514</ele>
        <time>2021-06-30T10:09:26Z</time>
      </trkpt>
      <trkpt lat="44.931736" lon="4.944983">
        <ele>155.62292</ele>
        <time>2021-06-30T10:09:27Z</time>
      </trkpt>
      <trkpt lat="44.931435" lon="4.945057">
        <ele>155.39978</ele>
        <time>2021-06-30T10:09:28Z</time>
      </trkpt>
      <trkpt lat="44.931152" lon="4.945127">
        <ele>155.78650</ele>
        <time>2021-06-30T10:09:29Z</time>
      </trkpt>
      <trkpt lat="44.930847" lon="4.945203">
        <ele>154.83728</ele>
        <time>2021-06-30T10:09:30Z</time>
      </trkpt>
      <trkpt lat="44.930557" lon="4.945275">
        <ele>154.72784</ele>
        <time>2021-06-30T10:09:31Z</time>
      </trkpt>
      <trkpt lat="44.930267" lon="4.945347">
        <ele>154.57898</ele>
        <time>2021-06-30T10:09:32Z</time>
      </trkpt>
      <trkpt lat="44.929970" lon="4.945404">
        <ele>154.53369</ele>
        <time>2021-06-30T10:09:33Z</time>
      </trkpt>
      <trkpt lat="44.929676" lon="4.945454">
        <ele>154.47729</ele>
        <time>2021-06-30T10:09:34Z</time>
      </trkpt>
      <trkpt lat="44.929367" lon="4.945496">
        <ele>153.55078</ele>
        <time>2021-06-30T10:09:35Z</time>
      </trkpt>
      <trkpt lat="44.929066" lon="4.945524">
        <ele>153.43640</ele>
        <time>2021-06-30T10:09:36Z</time>
      </trkpt>
      <trkpt lat="44.928780" lon="4.945541">
        <ele>153.35059</ele>
        <time>2021-06-30T10:09:37Z</time>
      </trkpt>
      <trkpt lat="44.928486" lon="4.945550">
        <ele>153.18140</ele>
        <time>2021-06-30T10:09:38Z</time>
      </trkpt>
      <trkpt lat="44.928181" lon="4.945547">
        <ele>153.51733</ele>
        <time>2021-06-30T10:09:39Z</time>
      </trkpt>
      <trkpt lat="44.927891" lon="4.945528">
        <ele>153.26978</ele>
        <time>2021-06-30T10:09:40Z</time>
      </trkpt>
      <trkpt lat="44.927593" lon="4.945506">
        <ele>153.39307</ele>
        <time>2021-06-30T10:09:41Z</time>
      </trkpt>
      <trkpt lat="44.927288" lon="4.945467">
        <ele>152.96631</ele>
        <time>2021-06-30T10:09:42Z</time>
      </trkpt>
      <trkpt lat="44.926987" lon="4.945408">
        <ele>151.88202</ele>
        <time>2021-06-30T10:09:43Z</time>
      </trkpt>
      <trkpt lat="44.926689" lon="4.945350">
        <ele>152.28687</ele>
        <time>2021-06-30T10:09:44Z</time>
      </trkpt>
      <trkpt lat="44.926376" lon="4.945275">
        <ele>152.58673</ele>
        <time>2021-06-30T10:09:45Z</time>
      </trkpt>
      <trkpt lat="44.926075" lon="4.945193">
        <ele>151.72693</ele>
        <time>2021-06-30T10:09:46Z</time>
      </trkpt>
      <trkpt lat="44.925774" lon="4.945108">
        <ele>150.84369</ele>
        <time>2021-06-30T10:09:47Z</time>
      </trkpt>
      <trkpt lat="44.925472" lon="4.944988">
        <ele>150.40454</ele>
        <time>2021-06-30T10:09:48Z</time>
      </trkpt>
      <trkpt lat="44.925167" lon="4.944865">
        <ele>151.12488</ele>
        <time>2021-06-30T10:09:49Z</time>
      </trkpt>
      <trkpt lat="44.924858" lon="4.944725">
        <ele>148.87024</ele>
        <time>2021-06-30T10:09:50Z</time>
      </trkpt>
      <trkpt lat="44.924572" lon="4.944579">
        <ele>148.85901</ele>
        <time>2021-06-30T10:09:51Z</time>
      </trkpt>
      <trkpt lat="44.924297" lon="4.944432">
        <ele>148.99976</ele>
        <time>2021-06-30T10:09:52Z</time>
      </trkpt>
      <trkpt lat="44.923973" lon="4.944237">
        <ele>149.32129</ele>
        <time>2021-06-30T10:09:53Z</time>
      </trkpt>
      <trkpt lat="44.923973" lon="4.944237">
        <ele>151.45947</ele>
        <time>2021-06-30T10:09:54Z</time>
      </trkpt>
      <trkpt lat="44.923672" lon="4.944055">
        <ele>150.97156</ele>
        <time>2021-06-30T10:09:55Z</time>
      </trkpt>
      <trkpt lat="44.923382" lon="4.943866">
        <ele>151.53833</ele>
        <time>2021-06-30T10:09:56Z</time>
      </trkpt>
      <trkpt lat="44.923088" lon="4.943666">
        <ele>151.60944</ele>
        <time>2021-06-30T10:09:57Z</time>
      </trkpt>
      <trkpt lat="44.922791" lon="4.943455">
        <ele>150.86792</ele>
        <time>2021-06-30T10:09:58Z</time>
      </trkpt>
      <trkpt lat="44.922523" lon="4.943267">
        <ele>151.52795</ele>
        <time>2021-06-30T10:09:59Z</time>
      </trkpt>
      <trkpt lat="44.922226" lon="4.943060">
        <ele>151.27863</ele>
        <time>2021-06-30T10:10:00Z</time>
      </trkpt>
      <trkpt lat="44.921921" lon="4.942846">
        <ele>150.53882</ele>
        <time>2021-06-30T10:10:01Z</time>
      </trkpt>
      <trkpt lat="44.921638" lon="4.942647">
        <ele>150.62561</ele>
        <time>2021-06-30T10:10:02Z</time>
      </trkpt>
      <trkpt lat="44.921352" lon="4.942445">
        <ele>150.57135</ele>
        <time>2021-06-30T10:10:03Z</time>
      </trkpt>
      <trkpt lat="44.921062" lon="4.942246">
        <ele>150.59296</ele>
        <time>2021-06-30T10:10:04Z</time>
      </trkpt>
      <trkpt lat="44.920788" lon="4.942057">
        <ele>150.31738</ele>
        <time>2021-06-30T10:10:05Z</time>
      </trkpt>
      <trkpt lat="44.920502" lon="4.941864">
        <ele>149.87555</ele>
        <time>2021-06-30T10:10:06Z</time>
      </trkpt>
      <trkpt lat="44.920227" lon="4.941695">
        <ele>150.12061</ele>
        <time>2021-06-30T10:10:07Z</time>
      </trkpt>
      <trkpt lat="44.919941" lon="4.941525">
        <ele>149.75879</ele>
        <time>2021-06-30T10:10:08Z</time>
      </trkpt>
      <trkpt lat="44.919647" lon="4.941369">
        <ele>149.95593</ele>
        <time>2021-06-30T10:10:09Z</time>
      </trkpt>
      <trkpt lat="44.919353" lon="4.941221">
        <ele>149.78528</ele>
        <time>2021-06-30T10:10:10Z</time>
      </trkpt>
      <trkpt lat="44.919037" lon="4.941082">
        <ele>150.16071</ele>
        <time>2021-06-30T10:10:11Z</time>
      </trkpt>
      <trkpt lat="44.918728" lon="4.940955">
        <ele>149.73627</ele>
        <time>2021-06-30T10:10:12Z</time>
      </trkpt>
      <trkpt lat="44.918411" lon="4.940837">
        <ele>148.59778</ele>
        <time>2021-06-30T10:10:13Z</time>
      </trkpt>
      <trkpt lat="44.918095" lon="4.940726">
        <ele>148.98816</ele>
        <time>2021-06-30T10:10:15Z</time>
      </trkpt>
      <trkpt lat="44.917786" lon="4.940632">
        <ele>149.28021</ele>
        <time>2021-06-30T10:10:16Z</time>
      </trkpt>
      <trkpt lat="44.917477" lon="4.940541">
        <ele>150.81842</ele>
        <time>2021-06-30T10:10:17Z</time>
      </trkpt>
      <trkpt lat="44.917187" lon="4.940457">
        <ele>151.51343</ele>
        <time>2021-06-30T10:10:18Z</time>
      </trkpt>
      <trkpt lat="44.916885" lon="4.940370">
        <ele>151.86084</ele>
        <time>2021-06-30T10:10:19Z</time>
      </trkpt>
      <trkpt lat="44.916595" lon="4.940288">
        <ele>152.35822</ele>
        <time>2021-06-30T10:10:20Z</time>
      </trkpt>
      <trkpt lat="44.916309" lon="4.940206">
        <ele>152.19989</ele>
        <time>2021-06-30T10:10:21Z</time>
      </trkpt>
      <trkpt lat="44.916004" lon="4.940118">
        <ele>151.56775</ele>
        <time>2021-06-30T10:10:22Z</time>
      </trkpt>
      <trkpt lat="44.915691" lon="4.940030">
        <ele>151.75604</ele>
        <time>2021-06-30T10:10:23Z</time>
      </trkpt>
      <trkpt lat="44.915394" lon="4.939945">
        <ele>151.97803</ele>
        <time>2021-06-30T10:10:24Z</time>
      </trkpt>
      <trkpt lat="44.915108" lon="4.939863">
        <ele>151.38385</ele>
        <time>2021-06-30T10:10:25Z</time>
      </trkpt>
      <trkpt lat="44.914810" lon="4.939765">
        <ele>150.86194</ele>
        <time>2021-06-30T10:10:26Z</time>
      </trkpt>
      <trkpt lat="44.914501" lon="4.939661">
        <ele>149.32397</ele>
        <time>2021-06-30T10:10:27Z</time>
      </trkpt>
      <trkpt lat="44.914204" lon="4.939546">
        <ele>148.60321</ele>
        <time>2021-06-30T10:10:28Z</time>
      </trkpt>
      <trkpt lat="44.913887" lon="4.939417">
        <ele>148.65466</ele>
        <time>2021-06-30T10:10:29Z</time>
      </trkpt>
      <trkpt lat="44.913887" lon="4.939417">
        <ele>148.40027</ele>
        <time>2021-06-30T10:10:30Z</time>
      </trkpt>
      <trkpt lat="44.913601" lon="4.939288">
        <ele>148.01917</ele>
        <time>2021-06-30T10:10:31Z</time>
      </trkpt>
      <trkpt lat="44.913311" lon="4.939145">
        <ele>147.87744</ele>
        <time>2021-06-30T10:10:32Z</time>
      </trkpt>
      <trkpt lat="44.912998" lon="4.938978">
        <ele>148.14667</ele>
        <time>2021-06-30T10:10:33Z</time>
      </trkpt>
      <trkpt lat="44.912708" lon="4.938812">
        <ele>146.73035</ele>
        <time>2021-06-30T10:10:34Z</time>
      </trkpt>
      <trkpt lat="44.912434" lon="4.938643">
        <ele>148.68420</ele>
        <time>2021-06-30T10:10:35Z</time>
      </trkpt>
      <trkpt lat="44.912113" lon="4.938431">
        <ele>149.92834</ele>
        <time>2021-06-30T10:10:36Z</time>
      </trkpt>
      <trkpt lat="44.911839" lon="4.938234">
        <ele>150.08167</ele>
        <time>2021-06-30T10:10:37Z</time>
      </trkpt>
      <trkpt lat="44.911564" lon="4.938039">
        <ele>151.30762</ele>
        <time>2021-06-30T10:10:38Z</time>
      </trkpt>
      <trkpt lat="44.911297" lon="4.937822">
        <ele>150.15155</ele>
        <time>2021-06-30T10:10:39Z</time>
      </trkpt>
      <trkpt lat="44.911037" lon="4.937605">
        <ele>150.87402</ele>
        <time>2021-06-30T10:10:39Z</time>
      </trkpt>
      <trkpt lat="44.910786" lon="4.937385">
        <ele>150.75232</ele>
        <time>2021-06-30T10:10:40Z</time>
      </trkpt>
      <trkpt lat="44.910522" lon="4.937134">
        <ele>150.70740</ele>
        <time>2021-06-30T10:10:42Z</time>
      </trkpt>
      <trkpt lat="44.910263" lon="4.936882">
        <ele>151.52203</ele>
        <time>2021-06-30T10:10:43Z</time>
      </trkpt>
      <trkpt lat="44.910038" lon="4.936644">
        <ele>151.54919</ele>
        <time>2021-06-30T10:10:44Z</time>
      </trkpt>
      <trkpt lat="44.909805" lon="4.936394">
        <ele>151.24878</ele>
        <time>2021-06-30T10:10:44Z</time>
      </trkpt>
      <trkpt lat="44.909584" lon="4.936136">
        <ele>151.04150</ele>
        <time>2021-06-30T10:10:45Z</time>
      </trkpt>
      <trkpt lat="44.909389" lon="4.935905">
        <ele>149.97839</ele>
        <time>2021-06-30T10:10:46Z</time>
      </trkpt>
      <trkpt lat="44.909187" lon="4.935657">
        <ele>150.14954</ele>
        <time>2021-06-30T10:10:47Z</time>
      </trkpt>
      <trkpt lat="44.909000" lon="4.935420">
        <ele>149.88293</ele>
        <time>2021-06-30T10:10:48Z</time>
      </trkpt>
      <trkpt lat="44.908810" lon="4.935163">
        <ele>149.10211</ele>
        <time>2021-06-30T10:10:49Z</time>
      </trkpt>
      <trkpt lat="44.908623" lon="4.934910">
        <ele>149.19653</ele>
        <time>2021-06-30T10:10:50Z</time>
      </trkpt>
      <trkpt lat="44.908436" lon="4.934659">
        <ele>149.13989</ele>
        <time>2021-06-30T10:10:51Z</time>
      </trkpt>
      <trkpt lat="44.908245" lon="4.934398">
        <ele>148.51099</ele>
        <time>2021-06-30T10:10:53Z</time>
      </trkpt>
      <trkpt lat="44.908054" lon="4.934136">
        <ele>148.26611</ele>
        <time>2021-06-30T10:10:53Z</time>
      </trkpt>
      <trkpt lat="44.907860" lon="4.933864">
        <ele>148.09424</ele>
        <time>2021-06-30T10:10:54Z</time>
      </trkpt>
      <trkpt lat="44.907665" lon="4.933594">
        <ele>147.68011</ele>
        <time>2021-06-30T10:10:55Z</time>
      </trkpt>
      <trkpt lat="44.907467" lon="4.933307">
        <ele>147.51288</ele>
        <time>2021-06-30T10:10:56Z</time>
      </trkpt>
      <trkpt lat="44.907284" lon="4.933024">
        <ele>147.65912</ele>
        <time>2021-06-30T10:10:57Z</time>
      </trkpt>
      <trkpt lat="44.907082" lon="4.932721">
        <ele>147.22473</ele>
        <time>2021-06-30T10:10:58Z</time>
      </trkpt>
      <trkpt lat="44.906898" lon="4.932424">
        <ele>147.54553</ele>
        <time>2021-06-30T10:10:59Z</time>
      </trkpt>
      <trkpt lat="44.906898" lon="4.932424">
        <ele>147.27386</ele>
        <time>2021-06-30T10:11:00Z</time>
      </trkpt>
      <trkpt lat="44.906689" lon="4.932064">
        <ele>147.17224</ele>
        <time>2021-06-30T10:11:01Z</time>
      </trkpt>
      <trkpt lat="44.906490" lon="4.931723">
        <ele>147.75476</ele>
        <time>2021-06-30T10:11:02Z</time>
      </trkpt>
      <trkpt lat="44.906319" lon="4.931407">
        <ele>147.64337</ele>
        <time>2021-06-30T10:11:03Z</time>
      </trkpt>
      <trkpt lat="44.906116" lon="4.931019">
        <ele>148.64502</ele>
        <time>2021-06-30T10:11:04Z</time>
      </trkpt>
      <trkpt lat="44.905937" lon="4.930651">
        <ele>147.06921</ele>
        <time>2021-06-30T10:11:05Z</time>
      </trkpt>
      <trkpt lat="44.905758" lon="4.930273">
        <ele>147.11011</ele>
        <time>2021-06-30T10:11:06Z</time>
      </trkpt>
      <trkpt lat="44.905586" lon="4.929878">
        <ele>147.81262</ele>
        <time>2021-06-30T10:11:07Z</time>
      </trkpt>
      <trkpt lat="44.905422" lon="4.929497">
        <ele>148.08185</ele>
        <time>2021-06-30T10:11:08Z</time>
      </trkpt>
      <trkpt lat="44.905266" lon="4.929105">
        <ele>146.36737</ele>
        <time>2021-06-30T10:11:09Z</time>
      </trkpt>
      <trkpt lat="44.905109" lon="4.928705">
        <ele>145.53003</ele>
        <time>2021-06-30T10:11:10Z</time>
      </trkpt>
      <trkpt lat="44.904957" lon="4.928274">
        <ele>145.54681</ele>
        <time>2021-06-30T10:11:11Z</time>
      </trkpt>
      <trkpt lat="44.904816" lon="4.927865">
        <ele>145.95538</ele>
        <time>2021-06-30T10:11:13Z</time>
      </trkpt>
      <trkpt lat="44.904690" lon="4.927473">
        <ele>146.09375</ele>
        <time>2021-06-30T10:11:13Z</time>
      </trkpt>
      <trkpt lat="44.904560" lon="4.927044">
        <ele>145.42792</ele>
        <time>2021-06-30T10:11:14Z</time>
      </trkpt>
      <trkpt lat="44.904430" lon="4.926616">
        <ele>145.43689</ele>
        <time>2021-06-30T10:11:15Z</time>
      </trkpt>
      <trkpt lat="44.904305" lon="4.926123">
        <ele>145.88232</ele>
        <time>2021-06-30T10:11:16Z</time>
      </trkpt>
      <trkpt lat="44.904186" lon="4.925641">
        <ele>145.68036</ele>
        <time>2021-06-30T10:11:17Z</time>
      </trkpt>
      <trkpt lat="44.904079" lon="4.925168">
        <ele>146.00757</ele>
        <time>2021-06-30T10:11:18Z</time>
      </trkpt>
      <trkpt lat="44.903980" lon="4.924685">
        <ele>146.85950</ele>
        <time>2021-06-30T10:11:19Z</time>
      </trkpt>
      <trkpt lat="44.903893" lon="4.924238">
        <ele>147.19275</ele>
        <time>2021-06-30T10:11:20Z</time>
      </trkpt>
      <trkpt lat="44.903812" lon="4.923771">
        <ele>146.31061</ele>
        <time>2021-06-30T10:11:21Z</time>
      </trkpt>
      <trkpt lat="44.903744" lon="4.923285">
        <ele>146.34912</ele>
        <time>2021-06-30T10:11:22Z</time>
      </trkpt>
      <trkpt lat="44.903687" lon="4.922830">
        <ele>148.39575</ele>
        <time>2021-06-30T10:11:23Z</time>
      </trkpt>
      <trkpt lat="44.903629" lon="4.922373">
        <ele>149.12634</ele>
        <time>2021-06-30T10:11:24Z</time>
      </trkpt>
      <trkpt lat="44.903587" lon="4.921943">
        <ele>150.30463</ele>
        <time>2021-06-30T10:11:25Z</time>
      </trkpt>
      <trkpt lat="44.903549" lon="4.921503">
        <ele>149.48816</ele>
        <time>2021-06-30T10:11:26Z</time>
      </trkpt>
      <trkpt lat="44.903522" lon="4.921061">
        <ele>149.96924</ele>
        <time>2021-06-30T10:11:27Z</time>
      </trkpt>
      <trkpt lat="44.903500" lon="4.920602">
        <ele>150.20923</ele>
        <time>2021-06-30T10:11:28Z</time>
      </trkpt>
      <trkpt lat="44.903484" lon="4.920159">
        <ele>150.10260</ele>
        <time>2021-06-30T10:11:29Z</time>
      </trkpt>
      <trkpt lat="44.903477" lon="4.919723">
        <ele>150.57031</ele>
        <time>2021-06-30T10:11:30Z</time>
      </trkpt>
      <trkpt lat="44.903473" lon="4.919280">
        <ele>151.18506</ele>
        <time>2021-06-30T10:11:31Z</time>
      </trkpt>
      <trkpt lat="44.903477" lon="4.918855">
        <ele>150.64203</ele>
        <time>2021-06-30T10:11:32Z</time>
      </trkpt>
      <trkpt lat="44.903488" lon="4.918418">
        <ele>150.92108</ele>
        <time>2021-06-30T10:11:33Z</time>
      </trkpt>
      <trkpt lat="44.903503" lon="4.917956">
        <ele>150.95508</ele>
        <time>2021-06-30T10:11:34Z</time>
      </trkpt>
      <trkpt lat="44.903526" lon="4.917527">
        <ele>151.05066</ele>
        <time>2021-06-30T10:11:35Z</time>
      </trkpt>
      <trkpt lat="44.903526" lon="4.917527">
        <ele>152.60040</ele>
        <time>2021-06-30T10:11:36Z</time>
      </trkpt>
      <trkpt lat="44.903561" lon="4.917074">
        <ele>152.91846</ele>
        <time>2021-06-30T10:11:37Z</time>
      </trkpt>
      <trkpt lat="44.903603" lon="4.916599">
        <ele>154.14990</ele>
        <time>2021-06-30T10:11:38Z</time>
      </trkpt>
      <trkpt lat="44.903637" lon="4.916159">
        <ele>155.29456</ele>
        <time>2021-06-30T10:11:39Z</time>
      </trkpt>
      <trkpt lat="44.903675" lon="4.915703">
        <ele>157.75049</ele>
        <time>2021-06-30T10:11:40Z</time>
      </trkpt>
      <trkpt lat="44.903713" lon="4.915258">
        <ele>158.72528</ele>
        <time>2021-06-30T10:11:41Z</time>
      </trkpt>
      <trkpt lat="44.903755" lon="4.914811">
        <ele>160.64545</ele>
        <time>2021-06-30T10:11:42Z</time>
      </trkpt>
      <trkpt lat="44.903797" lon="4.914370">
        <ele>161.44092</ele>
        <time>2021-06-30T10:11:43Z</time>
      </trkpt>
      <trkpt lat="44.903828" lon="4.913962">
        <ele>162.58014</ele>
        <time>2021-06-30T10:11:44Z</time>
      </trkpt>
      <trkpt lat="44.903862" lon="4.913510">
        <ele>163.43774</ele>
        <time>2021-06-30T10:11:45Z</time>
      </trkpt>
      <trkpt lat="44.903877" lon="4.913100">
        <ele>164.21161</ele>
        <time>2021-06-30T10:11:46Z</time>
      </trkpt>
      <trkpt lat="44.903885" lon="4.912666">
        <ele>164.86011</ele>
        <time>2021-06-30T10:11:47Z</time>
      </trkpt>
      <trkpt lat="44.903881" lon="4.912253">
        <ele>165.22839</ele>
        <time>2021-06-30T10:11:48Z</time>
      </trkpt>
      <trkpt lat="44.903870" lon="4.911808">
        <ele>166.21387</ele>
        <time>2021-06-30T10:11:49Z</time>
      </trkpt>
      <trkpt lat="44.903839" lon="4.911384">
        <ele>167.40442</ele>
        <time>2021-06-30T10:11:50Z</time>
      </trkpt>
      <trkpt lat="44.903809" lon="4.910957">
        <ele>167.95264</ele>
        <time>2021-06-30T10:11:51Z</time>
      </trkpt>
      <trkpt lat="44.903767" lon="4.910563">
        <ele>168.06714</ele>
        <time>2021-06-30T10:11:52Z</time>
      </trkpt>
      <trkpt lat="44.903717" lon="4.910154">
        <ele>167.65326</ele>
        <time>2021-06-30T10:11:53Z</time>
      </trkpt>
      <trkpt lat="44.903652" lon="4.909741">
        <ele>168.92224</ele>
        <time>2021-06-30T10:11:54Z</time>
      </trkpt>
      <trkpt lat="44.903580" lon="4.909313">
        <ele>170.23083</ele>
        <time>2021-06-30T10:11:55Z</time>
      </trkpt>
      <trkpt lat="44.903507" lon="4.908889">
        <ele>170.53455</ele>
        <time>2021-06-30T10:11:56Z</time>
      </trkpt>
      <trkpt lat="44.903446" lon="4.908526">
        <ele>170.50671</ele>
        <time>2021-06-30T10:11:57Z</time>
      </trkpt>
      <trkpt lat="44.903381" lon="4.908157">
        <ele>171.26373</ele>
        <time>2021-06-30T10:11:58Z</time>
      </trkpt>
      <trkpt lat="44.903313" lon="4.907775">
        <ele>171.54309</ele>
        <time>2021-06-30T10:11:59Z</time>
      </trkpt>
      <trkpt lat="44.903248" lon="4.907395">
        <ele>172.65161</ele>
        <time>2021-06-30T10:12:00Z</time>
      </trkpt>
      <trkpt lat="44.903179" lon="4.907017">
        <ele>173.25122</ele>
        <time>2021-06-30T10:12:01Z</time>
      </trkpt>
      <trkpt lat="44.903111" lon="4.906620">
        <ele>174.06097</ele>
        <time>2021-06-30T10:12:02Z</time>
      </trkpt>
      <trkpt lat="44.903042" lon="4.906224">
        <ele>174.05896</ele>
        <time>2021-06-30T10:12:03Z</time>
      </trkpt>
      <trkpt lat="44.902973" lon="4.905851">
        <ele>174.51855</ele>
        <time>2021-06-30T10:12:04Z</time>
      </trkpt>
      <trkpt lat="44.902908" lon="4.905470">
        <ele>174.56006</ele>
        <time>2021-06-30T10:12:05Z</time>
      </trkpt>
      <trkpt lat="44.902840" lon="4.905085">
        <ele>175.08557</ele>
        <time>2021-06-30T10:12:06Z</time>
      </trkpt>
      <trkpt lat="44.902771" lon="4.904710">
        <ele>175.71802</ele>
        <time>2021-06-30T10:12:07Z</time>
      </trkpt>
      <trkpt lat="44.902702" lon="4.904321">
        <ele>175.24219</ele>
        <time>2021-06-30T10:12:08Z</time>
      </trkpt>
      <trkpt lat="44.902634" lon="4.903928">
        <ele>175.10913</ele>
        <time>2021-06-30T10:12:09Z</time>
      </trkpt>
      <trkpt lat="44.902569" lon="4.903553">
        <ele>175.11609</ele>
        <time>2021-06-30T10:12:10Z</time>
      </trkpt>
      <trkpt lat="44.902500" lon="4.903174">
        <ele>174.71411</ele>
        <time>2021-06-30T10:12:11Z</time>
      </trkpt>
      <trkpt lat="44.902431" lon="4.902785">
        <ele>172.82568</ele>
        <time>2021-06-30T10:12:12Z</time>
      </trkpt>
      <trkpt lat="44.902367" lon="4.902409">
        <ele>172.48682</ele>
        <time>2021-06-30T10:12:13Z</time>
      </trkpt>
      <trkpt lat="44.902367" lon="4.902409">
        <ele>173.85571</ele>
        <time>2021-06-30T10:12:14Z</time>
      </trkpt>
      <trkpt lat="44.902306" lon="4.902050">
        <ele>173.91272</ele>
        <time>2021-06-30T10:12:15Z</time>
      </trkpt>
      <trkpt lat="44.902176" lon="4.901297">
        <ele>175.21533</ele>
        <time>2021-06-30T10:12:16Z</time>
      </trkpt>
      <trkpt lat="44.902176" lon="4.901297">
        <ele>174.81470</ele>
        <time>2021-06-30T10:12:17Z</time>
      </trkpt>
      <trkpt lat="44.902115" lon="4.900911">
        <ele>173.73535</ele>
        <time>2021-06-30T10:12:18Z</time>
      </trkpt>
      <trkpt lat="44.902054" lon="4.900504">
        <ele>173.48834</ele>
        <time>2021-06-30T10:12:19Z</time>
      </trkpt>
      <trkpt lat="44.901989" lon="4.900105">
        <ele>174.19910</ele>
        <time>2021-06-30T10:12:20Z</time>
      </trkpt>
      <trkpt lat="44.901932" lon="4.899692">
        <ele>174.02240</ele>
        <time>2021-06-30T10:12:21Z</time>
      </trkpt>
      <trkpt lat="44.901897" lon="4.899301">
        <ele>174.72992</ele>
        <time>2021-06-30T10:12:22Z</time>
      </trkpt>
      <trkpt lat="44.901867" lon="4.898881">
        <ele>174.30896</ele>
        <time>2021-06-30T10:12:23Z</time>
      </trkpt>
      <trkpt lat="44.901848" lon="4.898478">
        <ele>174.47064</ele>
        <time>2021-06-30T10:12:24Z</time>
      </trkpt>
      <trkpt lat="44.901844" lon="4.898089">
        <ele>173.59583</ele>
        <time>2021-06-30T10:12:25Z</time>
      </trkpt>
      <trkpt lat="44.901848" lon="4.897684">
        <ele>173.66705</ele>
        <time>2021-06-30T10:12:26Z</time>
      </trkpt>
      <trkpt lat="44.901848" lon="4.897290">
        <ele>173.49158</ele>
        <time>2021-06-30T10:12:27Z</time>
      </trkpt>
      <trkpt lat="44.901871" lon="4.896885">
        <ele>172.98328</ele>
        <time>2021-06-30T10:12:28Z</time>
      </trkpt>
      <trkpt lat="44.901897" lon="4.896488">
        <ele>172.48157</ele>
        <time>2021-06-30T10:12:29Z</time>
      </trkpt>
      <trkpt lat="44.901936" lon="4.896087">
        <ele>172.16626</ele>
        <time>2021-06-30T10:12:30Z</time>
      </trkpt>
      <trkpt lat="44.901978" lon="4.895687">
        <ele>169.63184</ele>
        <time>2021-06-30T10:12:31Z</time>
      </trkpt>
      <trkpt lat="44.902039" lon="4.895290">
        <ele>169.44885</ele>
        <time>2021-06-30T10:12:32Z</time>
      </trkpt>
      <trkpt lat="44.902096" lon="4.894912">
        <ele>167.69897</ele>
        <time>2021-06-30T10:12:33Z</time>
      </trkpt>
      <trkpt lat="44.902168" lon="4.894534">
        <ele>165.94177</ele>
        <time>2021-06-30T10:12:34Z</time>
      </trkpt>
      <trkpt lat="44.902252" lon="4.894139">
        <ele>165.70367</ele>
        <time>2021-06-30T10:12:35Z</time>
      </trkpt>
      <trkpt lat="44.902328" lon="4.893794">
        <ele>164.89050</ele>
        <time>2021-06-30T10:12:36Z</time>
      </trkpt>
      <trkpt lat="44.902412" lon="4.893428">
        <ele>163.57904</ele>
        <time>2021-06-30T10:12:37Z</time>
      </trkpt>
      <trkpt lat="44.902496" lon="4.893092">
        <ele>161.89777</ele>
        <time>2021-06-30T10:12:38Z</time>
      </trkpt>
      <trkpt lat="44.902580" lon="4.892752">
        <ele>160.63916</ele>
        <time>2021-06-30T10:12:39Z</time>
      </trkpt>
      <trkpt lat="44.902668" lon="4.892397">
        <ele>159.82513</ele>
        <time>2021-06-30T10:12:40Z</time>
      </trkpt>
      <trkpt lat="44.902752" lon="4.892051">
        <ele>157.89600</ele>
        <time>2021-06-30T10:12:41Z</time>
      </trkpt>
      <trkpt lat="44.902821" lon="4.891743">
        <ele>156.87646</ele>
        <time>2021-06-30T10:12:42Z</time>
      </trkpt>
      <trkpt lat="44.902889" lon="4.891432">
        <ele>155.58972</ele>
        <time>2021-06-30T10:12:43Z</time>
      </trkpt>
      <trkpt lat="44.902950" lon="4.891107">
        <ele>154.39453</ele>
        <time>2021-06-30T10:12:44Z</time>
      </trkpt>
      <trkpt lat="44.903000" lon="4.890784">
        <ele>153.81177</ele>
        <time>2021-06-30T10:12:45Z</time>
      </trkpt>
      <trkpt lat="44.903042" lon="4.890495">
        <ele>153.24683</ele>
        <time>2021-06-30T10:12:46Z</time>
      </trkpt>
      <trkpt lat="44.903042" lon="4.890495">
        <ele>153.48535</ele>
        <time>2021-06-30T10:12:47Z</time>
      </trkpt>
      <trkpt lat="44.903076" lon="4.890204">
        <ele>152.06506</ele>
        <time>2021-06-30T10:12:48Z</time>
      </trkpt>
      <trkpt lat="44.903107" lon="4.889908">
        <ele>150.81750</ele>
        <time>2021-06-30T10:12:49Z</time>
      </trkpt>
      <trkpt lat="44.903130" lon="4.889614">
        <ele>148.29224</ele>
        <time>2021-06-30T10:12:50Z</time>
      </trkpt>
      <trkpt lat="44.903141" lon="4.889311">
        <ele>147.62695</ele>
        <time>2021-06-30T10:12:51Z</time>
      </trkpt>
      <trkpt lat="44.903149" lon="4.889034">
        <ele>146.35236</ele>
        <time>2021-06-30T10:12:52Z</time>
      </trkpt>
      <trkpt lat="44.903156" lon="4.888750">
        <ele>144.66766</ele>
        <time>2021-06-30T10:12:53Z</time>
      </trkpt>
      <trkpt lat="44.903156" lon="4.888454">
        <ele>144.21985</ele>
        <time>2021-06-30T10:12:54Z</time>
      </trkpt>
      <trkpt lat="44.903156" lon="4.888239">
        <ele>140.87189</ele>
        <time>2021-06-30T10:12:55Z</time>
      </trkpt>
      <trkpt lat="44.903156" lon="4.887940">
        <ele>141.37213</ele>
        <time>2021-06-30T10:12:57Z</time>
      </trkpt>
      <trkpt lat="44.903152" lon="4.887708">
        <ele>140.56372</ele>
        <time>2021-06-30T10:12:58Z</time>
      </trkpt>
      <trkpt lat="44.903160" lon="4.887430">
        <ele>139.36700</ele>
        <time>2021-06-30T10:12:59Z</time>
      </trkpt>
      <trkpt lat="44.903164" lon="4.887208">
        <ele>139.03101</ele>
        <time>2021-06-30T10:13:00Z</time>
      </trkpt>
      <trkpt lat="44.903172" lon="4.886938">
        <ele>136.96594</ele>
        <time>2021-06-30T10:13:01Z</time>
      </trkpt>
      <trkpt lat="44.903179" lon="4.886685">
        <ele>136.34631</ele>
        <time>2021-06-30T10:13:02Z</time>
      </trkpt>
      <trkpt lat="44.903198" lon="4.886437">
        <ele>135.30396</ele>
        <time>2021-06-30T10:13:03Z</time>
      </trkpt>
      <trkpt lat="44.903225" lon="4.886217">
        <ele>134.77197</ele>
        <time>2021-06-30T10:13:04Z</time>
      </trkpt>
      <trkpt lat="44.903255" lon="4.885979">
        <ele>133.31152</ele>
        <time>2021-06-30T10:13:05Z</time>
      </trkpt>
      <trkpt lat="44.903290" lon="4.885781">
        <ele>132.18274</ele>
        <time>2021-06-30T10:13:06Z</time>
      </trkpt>
      <trkpt lat="44.903320" lon="4.885618">
        <ele>131.56293</ele>
        <time>2021-06-30T10:13:07Z</time>
      </trkpt>
      <trkpt lat="44.903355" lon="4.885491">
        <ele>131.16626</ele>
        <time>2021-06-30T10:13:08Z</time>
      </trkpt>
      <trkpt lat="44.903378" lon="4.885396">
        <ele>130.90491</ele>
        <time>2021-06-30T10:13:09Z</time>
      </trkpt>
      <trkpt lat="44.903404" lon="4.885302">
        <ele>130.90039</ele>
        <time>2021-06-30T10:13:10Z</time>
      </trkpt>
      <trkpt lat="44.903427" lon="4.885210">
        <ele>130.71179</ele>
        <time>2021-06-30T10:13:11Z</time>
      </trkpt>
      <trkpt lat="44.903454" lon="4.885117">
        <ele>130.44806</ele>
        <time>2021-06-30T10:13:12Z</time>
      </trkpt>
      <trkpt lat="44.903477" lon="4.885047">
        <ele>130.10999</ele>
        <time>2021-06-30T10:13:13Z</time>
      </trkpt>
      <trkpt lat="44.903484" lon="4.885025">
        <ele>129.68945</ele>
        <time>2021-06-30T10:13:14Z</time>
      </trkpt>
      <trkpt lat="44.903484" lon="4.885025">
        <ele>130.01996</ele>
        <time>2021-06-30T10:13:15Z</time>
      </trkpt>
      <trkpt lat="44.903492" lon="4.885003">
        <ele>129.56091</ele>
        <time>2021-06-30T10:13:16Z</time>
      </trkpt>
      <trkpt lat="44.903503" lon="4.884964">
        <ele>129.49390</ele>
        <time>2021-06-30T10:13:17Z</time>
      </trkpt>
      <trkpt lat="44.903503" lon="4.884964">
        <ele>128.22150</ele>
        <time>2021-06-30T10:13:18Z</time>
      </trkpt>
      <trkpt lat="44.903526" lon="4.884896">
        <ele>126.89069</ele>
        <time>2021-06-30T10:13:19Z</time>
      </trkpt>
      <trkpt lat="44.903549" lon="4.884830">
        <ele>126.99146</ele>
        <time>2021-06-30T10:13:20Z</time>
      </trkpt>
      <trkpt lat="44.903580" lon="4.884748">
        <ele>125.37805</ele>
        <time>2021-06-30T10:13:21Z</time>
      </trkpt>
      <trkpt lat="44.903603" lon="4.884680">
        <ele>125.31830</ele>
        <time>2021-06-30T10:13:22Z</time>
      </trkpt>
      <trkpt lat="44.903622" lon="4.884630">
        <ele>126.51855</ele>
        <time>2021-06-30T10:13:23Z</time>
      </trkpt>
      <trkpt lat="44.903652" lon="4.884559">
        <ele>126.45984</ele>
        <time>2021-06-30T10:13:24Z</time>
      </trkpt>
      <trkpt lat="44.903713" lon="4.884411">
        <ele>126.83014</ele>
        <time>2021-06-30T10:13:25Z</time>
      </trkpt>
      <trkpt lat="44.903744" lon="4.884342">
        <ele>127.19904</ele>
        <time>2021-06-30T10:13:26Z</time>
      </trkpt>
      <trkpt lat="44.903790" lon="4.884235">
        <ele>127.43463</ele>
        <time>2021-06-30T10:13:27Z</time>
      </trkpt>
      <trkpt lat="44.903831" lon="4.884140">
        <ele>128.29529</ele>
        <time>2021-06-30T10:13:28Z</time>
      </trkpt>
      <trkpt lat="44.903870" lon="4.884046">
        <ele>128.20618</ele>
        <time>2021-06-30T10:13:29Z</time>
      </trkpt>
      <trkpt lat="44.903919" lon="4.883937">
        <ele>128.08435</ele>
        <time>2021-06-30T10:13:30Z</time>
      </trkpt>
      <trkpt lat="44.903973" lon="4.883808">
        <ele>128.51990</ele>
        <time>2021-06-30T10:13:31Z</time>
      </trkpt>
      <trkpt lat="44.904022" lon="4.883697">
        <ele>128.81763</ele>
        <time>2021-06-30T10:13:32Z</time>
      </trkpt>
      <trkpt lat="44.904076" lon="4.883576">
        <ele>129.73431</ele>
        <time>2021-06-30T10:13:33Z</time>
      </trkpt>
      <trkpt lat="44.904133" lon="4.883441">
        <ele>129.67670</ele>
        <time>2021-06-30T10:13:34Z</time>
      </trkpt>
      <trkpt lat="44.904190" lon="4.883299">
        <ele>130.31744</ele>
        <time>2021-06-30T10:13:35Z</time>
      </trkpt>
      <trkpt lat="44.904247" lon="4.883154">
        <ele>130.31335</ele>
        <time>2021-06-30T10:13:36Z</time>
      </trkpt>
      <trkpt lat="44.904308" lon="4.883014">
        <ele>129.99414</ele>
        <time>2021-06-30T10:13:37Z</time>
      </trkpt>
      <trkpt lat="44.904369" lon="4.882868">
        <ele>129.90393</ele>
        <time>2021-06-30T10:13:38Z</time>
      </trkpt>
      <trkpt lat="44.904430" lon="4.882722">
        <ele>129.93396</ele>
        <time>2021-06-30T10:13:39Z</time>
      </trkpt>
      <trkpt lat="44.904488" lon="4.882586">
        <ele>129.88165</ele>
        <time>2021-06-30T10:13:40Z</time>
      </trkpt>
      <trkpt lat="44.904549" lon="4.882438">
        <ele>129.02393</ele>
        <time>2021-06-30T10:13:41Z</time>
      </trkpt>
      <trkpt lat="44.904621" lon="4.882270">
        <ele>129.43250</ele>
        <time>2021-06-30T10:13:42Z</time>
      </trkpt>
      <trkpt lat="44.904690" lon="4.882106">
        <ele>128.79858</ele>
        <time>2021-06-30T10:13:43Z</time>
      </trkpt>
      <trkpt lat="44.904755" lon="4.881948">
        <ele>128.62463</ele>
        <time>2021-06-30T10:13:44Z</time>
      </trkpt>
      <trkpt lat="44.904827" lon="4.881773">
        <ele>128.09729</ele>
        <time>2021-06-30T10:13:45Z</time>
      </trkpt>
      <trkpt lat="44.904888" lon="4.881596">
        <ele>127.33807</ele>
        <time>2021-06-30T10:13:46Z</time>
      </trkpt>
      <trkpt lat="44.904934" lon="4.881452">
        <ele>126.48242</ele>
        <time>2021-06-30T10:13:47Z</time>
      </trkpt>
      <trkpt lat="44.904984" lon="4.881303">
        <ele>126.01404</ele>
        <time>2021-06-30T10:13:48Z</time>
      </trkpt>
      <trkpt lat="44.905025" lon="4.881158">
        <ele>126.22021</ele>
        <time>2021-06-30T10:13:49Z</time>
      </trkpt>
      <trkpt lat="44.905056" lon="4.881036">
        <ele>125.50275</ele>
        <time>2021-06-30T10:13:50Z</time>
      </trkpt>
      <trkpt lat="44.905075" lon="4.880913">
        <ele>125.47198</ele>
        <time>2021-06-30T10:13:51Z</time>
      </trkpt>
      <trkpt lat="44.905079" lon="4.880782">
        <ele>125.01819</ele>
        <time>2021-06-30T10:13:51Z</time>
      </trkpt>
      <trkpt lat="44.905083" lon="4.880662">
        <ele>125.17041</ele>
        <time>2021-06-30T10:13:52Z</time>
      </trkpt>
      <trkpt lat="44.905083" lon="4.880538">
        <ele>125.18719</ele>
        <time>2021-06-30T10:13:53Z</time>
      </trkpt>
      <trkpt lat="44.905083" lon="4.880413">
        <ele>125.77661</ele>
        <time>2021-06-30T10:13:54Z</time>
      </trkpt>
      <trkpt lat="44.905083" lon="4.880413">
        <ele>123.48132</ele>
        <time>2021-06-30T10:13:55Z</time>
      </trkpt>
      <trkpt lat="44.905079" lon="4.880268">
        <ele>123.43982</ele>
        <time>2021-06-30T10:13:56Z</time>
      </trkpt>
      <trkpt lat="44.905075" lon="4.880179">
        <ele>122.33899</ele>
        <time>2021-06-30T10:13:57Z</time>
      </trkpt>
      <trkpt lat="44.905067" lon="4.880049">
        <ele>121.86584</ele>
        <time>2021-06-30T10:13:58Z</time>
      </trkpt>
      <trkpt lat="44.905067" lon="4.880037">
        <ele>121.12512</ele>
        <time>2021-06-30T10:13:59Z</time>
      </trkpt>
      <trkpt lat="44.905067" lon="4.880037">
        <ele>121.02698</ele>
        <time>2021-06-30T10:14:00Z</time>
      </trkpt>
      <trkpt lat="44.905067" lon="4.880035">
        <ele>121.63794</ele>
        <time>2021-06-30T10:14:01Z</time>
      </trkpt>
      <trkpt lat="44.905067" lon="4.879993">
        <ele>124.19910</ele>
        <time>2021-06-30T10:14:02Z</time>
      </trkpt>
      <trkpt lat="44.905064" lon="4.879945">
        <ele>124.57605</ele>
        <time>2021-06-30T10:14:03Z</time>
      </trkpt>
      <trkpt lat="44.905060" lon="4.879871">
        <ele>126.28857</ele>
        <time>2021-06-30T10:14:04Z</time>
      </trkpt>
      <trkpt lat="44.905060" lon="4.879833">
        <ele>126.07776</ele>
        <time>2021-06-30T10:14:05Z</time>
      </trkpt>
      <trkpt lat="44.905056" lon="4.879763">
        <ele>126.24902</ele>
        <time>2021-06-30T10:14:06Z</time>
      </trkpt>
      <trkpt lat="44.905052" lon="4.879713">
        <ele>126.10919</ele>
        <time>2021-06-30T10:14:07Z</time>
      </trkpt>
      <trkpt lat="44.905052" lon="4.879660">
        <ele>126.02661</ele>
        <time>2021-06-30T10:14:09Z</time>
      </trkpt>
      <trkpt lat="44.905048" lon="4.879573">
        <ele>125.46826</ele>
        <time>2021-06-30T10:14:10Z</time>
      </trkpt>
      <trkpt lat="44.905045" lon="4.879485">
        <ele>124.77985</ele>
        <time>2021-06-30T10:14:11Z</time>
      </trkpt>
      <trkpt lat="44.905022" lon="4.879289">
        <ele>121.52753</ele>
        <time>2021-06-30T10:14:12Z</time>
      </trkpt>
      <trkpt lat="44.904999" lon="4.879144">
        <ele>121.89240</ele>
        <time>2021-06-30T10:14:13Z</time>
      </trkpt>
      <trkpt lat="44.904972" lon="4.878995">
        <ele>122.61047</ele>
        <time>2021-06-30T10:14:14Z</time>
      </trkpt>
      <trkpt lat="44.904953" lon="4.878875">
        <ele>120.82654</ele>
        <time>2021-06-30T10:14:15Z</time>
      </trkpt>
      <trkpt lat="44.904934" lon="4.878772">
        <ele>120.77881</ele>
        <time>2021-06-30T10:14:15Z</time>
      </trkpt>
      <trkpt lat="44.904903" lon="4.878661">
        <ele>117.81812</ele>
        <time>2021-06-30T10:14:16Z</time>
      </trkpt>
      <trkpt lat="44.904846" lon="4.878414">
        <ele>116.60352</ele>
        <time>2021-06-30T10:14:17Z</time>
      </trkpt>
      <trkpt lat="44.904793" lon="4.878195">
        <ele>116.96698</ele>
        <time>2021-06-30T10:14:18Z</time>
      </trkpt>
      <trkpt lat="44.904739" lon="4.877963">
        <ele>117.02844</ele>
        <time>2021-06-30T10:14:19Z</time>
      </trkpt>
      <trkpt lat="44.904678" lon="4.877718">
        <ele>117.03333</ele>
        <time>2021-06-30T10:14:20Z</time>
      </trkpt>
      <trkpt lat="44.904629" lon="4.877503">
        <ele>116.69824</ele>
        <time>2021-06-30T10:14:21Z</time>
      </trkpt>
      <trkpt lat="44.904629" lon="4.877503">
        <ele>116.79718</ele>
        <time>2021-06-30T10:14:22Z</time>
      </trkpt>
      <trkpt lat="44.904572" lon="4.877268">
        <ele>116.18091</ele>
        <time>2021-06-30T10:14:23Z</time>
      </trkpt>
      <trkpt lat="44.904518" lon="4.877045">
        <ele>116.61768</ele>
        <time>2021-06-30T10:14:24Z</time>
      </trkpt>
      <trkpt lat="44.904476" lon="4.876873">
        <ele>117.46436</ele>
        <time>2021-06-30T10:14:25Z</time>
      </trkpt>
      <trkpt lat="44.904446" lon="4.876701">
        <ele>118.18347</ele>
        <time>2021-06-30T10:14:26Z</time>
      </trkpt>
      <trkpt lat="44.904430" lon="4.876548">
        <ele>117.65979</ele>
        <time>2021-06-30T10:14:27Z</time>
      </trkpt>
      <trkpt lat="44.904411" lon="4.876392">
        <ele>117.59155</ele>
        <time>2021-06-30T10:14:28Z</time>
      </trkpt>
      <trkpt lat="44.904388" lon="4.876196">
        <ele>116.49994</ele>
        <time>2021-06-30T10:14:29Z</time>
      </trkpt>
      <trkpt lat="44.904362" lon="4.875980">
        <ele>116.30890</ele>
        <time>2021-06-30T10:14:30Z</time>
      </trkpt>
      <trkpt lat="44.904335" lon="4.875766">
        <ele>116.67804</ele>
        <time>2021-06-30T10:14:31Z</time>
      </trkpt>
      <trkpt lat="44.904312" lon="4.875548">
        <ele>116.62885</ele>
        <time>2021-06-30T10:14:32Z</time>
      </trkpt>
      <trkpt lat="44.904289" lon="4.875343">
        <ele>117.24573</ele>
        <time>2021-06-30T10:14:33Z</time>
      </trkpt>
      <trkpt lat="44.904266" lon="4.875130">
        <ele>118.60907</ele>
        <time>2021-06-30T10:14:34Z</time>
      </trkpt>
      <trkpt lat="44.904247" lon="4.874946">
        <ele>118.53937</ele>
        <time>2021-06-30T10:14:35Z</time>
      </trkpt>
      <trkpt lat="44.904228" lon="4.874770">
        <ele>118.81793</ele>
        <time>2021-06-30T10:14:36Z</time>
      </trkpt>
      <trkpt lat="44.904213" lon="4.874607">
        <ele>119.11255</ele>
        <time>2021-06-30T10:14:37Z</time>
      </trkpt>
      <trkpt lat="44.904186" lon="4.874471">
        <ele>118.84564</ele>
        <time>2021-06-30T10:14:38Z</time>
      </trkpt>
      <trkpt lat="44.904144" lon="4.874337">
        <ele>118.14282</ele>
        <time>2021-06-30T10:14:39Z</time>
      </trkpt>
      <trkpt lat="44.904095" lon="4.874212">
        <ele>118.14020</ele>
        <time>2021-06-30T10:14:40Z</time>
      </trkpt>
      <trkpt lat="44.904018" lon="4.874091">
        <ele>117.06213</ele>
        <time>2021-06-30T10:14:41Z</time>
      </trkpt>
      <trkpt lat="44.903927" lon="4.874006">
        <ele>116.77966</ele>
        <time>2021-06-30T10:14:42Z</time>
      </trkpt>
      <trkpt lat="44.903801" lon="4.873929">
        <ele>117.24158</ele>
        <time>2021-06-30T10:14:43Z</time>
      </trkpt>
      <trkpt lat="44.903645" lon="4.873887">
        <ele>116.94324</ele>
        <time>2021-06-30T10:14:44Z</time>
      </trkpt>
      <trkpt lat="44.903534" lon="4.873895">
        <ele>116.27856</ele>
        <time>2021-06-30T10:14:45Z</time>
      </trkpt>
      <trkpt lat="44.903427" lon="4.873931">
        <ele>117.26794</ele>
        <time>2021-06-30T10:14:46Z</time>
      </trkpt>
      <trkpt lat="44.903332" lon="4.873986">
        <ele>117.42639</ele>
        <time>2021-06-30T10:14:47Z</time>
      </trkpt>
      <trkpt lat="44.903236" lon="4.874062">
        <ele>117.12140</ele>
        <time>2021-06-30T10:14:48Z</time>
      </trkpt>
      <trkpt lat="44.903141" lon="4.874158">
        <ele>117.43317</ele>
        <time>2021-06-30T10:14:49Z</time>
      </trkpt>
      <trkpt lat="44.903042" lon="4.874261">
        <ele>117.38409</ele>
        <time>2021-06-30T10:14:50Z</time>
      </trkpt>
      <trkpt lat="44.902939" lon="4.874363">
        <ele>116.70392</ele>
        <time>2021-06-30T10:14:51Z</time>
      </trkpt>
      <trkpt lat="44.902824" lon="4.874475">
        <ele>117.95947</ele>
        <time>2021-06-30T10:14:52Z</time>
      </trkpt>
      <trkpt lat="44.902721" lon="4.874580">
        <ele>117.72058</ele>
        <time>2021-06-30T10:14:53Z</time>
      </trkpt>
      <trkpt lat="44.902615" lon="4.874686">
        <ele>117.49292</ele>
        <time>2021-06-30T10:14:54Z</time>
      </trkpt>
      <trkpt lat="44.902508" lon="4.874797">
        <ele>112.65991</ele>
        <time>2021-06-30T10:14:55Z</time>
      </trkpt>
      <trkpt lat="44.902397" lon="4.874899">
        <ele>114.46814</ele>
        <time>2021-06-30T10:14:56Z</time>
      </trkpt>
      <trkpt lat="44.902287" lon="4.874992">
        <ele>114.65356</ele>
        <time>2021-06-30T10:14:57Z</time>
      </trkpt>
      <trkpt lat="44.902153" lon="4.875075">
        <ele>115.32617</ele>
        <time>2021-06-30T10:14:58Z</time>
      </trkpt>
      <trkpt lat="44.901966" lon="4.875139">
        <ele>115.02734</ele>
        <time>2021-06-30T10:14:59Z</time>
      </trkpt>
      <trkpt lat="44.901806" lon="4.875147">
        <ele>115.43402</ele>
        <time>2021-06-30T10:15:00Z</time>
      </trkpt>
      <trkpt lat="44.901806" lon="4.875147">
        <ele>115.87720</ele>
        <time>2021-06-30T10:15:02Z</time>
      </trkpt>
      <trkpt lat="44.901608" lon="4.875137">
        <ele>115.45575</ele>
        <time>2021-06-30T10:15:03Z</time>
      </trkpt>
      <trkpt lat="44.901409" lon="4.875098">
        <ele>113.62061</ele>
        <time>2021-06-30T10:15:04Z</time>
      </trkpt>
      <trkpt lat="44.901241" lon="4.875064">
        <ele>113.40479</ele>
        <time>2021-06-30T10:15:05Z</time>
      </trkpt>
      <trkpt lat="44.900982" lon="4.875009">
        <ele>112.03125</ele>
        <time>2021-06-30T10:15:06Z</time>
      </trkpt>
      <trkpt lat="44.900742" lon="4.874983">
        <ele>111.97235</ele>
        <time>2021-06-30T10:15:07Z</time>
      </trkpt>
      <trkpt lat="44.900505" lon="4.874963">
        <ele>112.50696</ele>
        <time>2021-06-30T10:15:08Z</time>
      </trkpt>
      <trkpt lat="44.900269" lon="4.874899">
        <ele>112.45612</ele>
        <time>2021-06-30T10:15:09Z</time>
      </trkpt>
      <trkpt lat="44.900017" lon="4.874830">
        <ele>111.90332</ele>
        <time>2021-06-30T10:15:10Z</time>
      </trkpt>
      <trkpt lat="44.899780" lon="4.874766">
        <ele>111.72504</ele>
        <time>2021-06-30T10:15:10Z</time>
      </trkpt>
      <trkpt lat="44.899544" lon="4.874701">
        <ele>111.64771</ele>
        <time>2021-06-30T10:15:11Z</time>
      </trkpt>
      <trkpt lat="44.899296" lon="4.874625">
        <ele>111.48865</ele>
        <time>2021-06-30T10:15:12Z</time>
      </trkpt>
      <trkpt lat="44.899059" lon="4.874551">
        <ele>111.19586</ele>
        <time>2021-06-30T10:15:13Z</time>
      </trkpt>
      <trkpt lat="44.898796" lon="4.874468">
        <ele>111.03021</ele>
        <time>2021-06-30T10:15:14Z</time>
      </trkpt>
      <trkpt lat="44.898544" lon="4.874387">
        <ele>110.80249</ele>
        <time>2021-06-30T10:15:15Z</time>
      </trkpt>
      <trkpt lat="44.898289" lon="4.874292">
        <ele>110.39148</ele>
        <time>2021-06-30T10:15:16Z</time>
      </trkpt>
      <trkpt lat="44.898014" lon="4.874193">
        <ele>110.01123</ele>
        <time>2021-06-30T10:15:17Z</time>
      </trkpt>
      <trkpt lat="44.897747" lon="4.874094">
        <ele>109.41077</ele>
        <time>2021-06-30T10:15:18Z</time>
      </trkpt>
      <trkpt lat="44.897461" lon="4.873990">
        <ele>110.09180</ele>
        <time>2021-06-30T10:15:19Z</time>
      </trkpt>
      <trkpt lat="44.897087" lon="4.873854">
        <ele>109.93420</ele>
        <time>2021-06-30T10:15:20Z</time>
      </trkpt>
      <trkpt lat="44.896702" lon="4.873711">
        <ele>110.10510</ele>
        <time>2021-06-30T10:15:21Z</time>
      </trkpt>
      <trkpt lat="44.896317" lon="4.873571">
        <ele>110.24896</ele>
        <time>2021-06-30T10:15:22Z</time>
      </trkpt>
      <trkpt lat="44.895947" lon="4.873416">
        <ele>110.84937</ele>
        <time>2021-06-30T10:15:23Z</time>
      </trkpt>
      <trkpt lat="44.895596" lon="4.873262">
        <ele>111.01178</ele>
        <time>2021-06-30T10:15:24Z</time>
      </trkpt>
      <trkpt lat="44.895226" lon="4.873100">
        <ele>109.08405</ele>
        <time>2021-06-30T10:15:25Z</time>
      </trkpt>
      <trkpt lat="44.895226" lon="4.873100">
        <ele>109.05396</ele>
        <time>2021-06-30T10:15:26Z</time>
      </trkpt>
      <trkpt lat="44.894871" lon="4.872928">
        <ele>109.62610</ele>
        <time>2021-06-30T10:15:27Z</time>
      </trkpt>
      <trkpt lat="44.894512" lon="4.872754">
        <ele>109.63617</ele>
        <time>2021-06-30T10:15:28Z</time>
      </trkpt>
      <trkpt lat="44.894146" lon="4.872577">
        <ele>109.58459</ele>
        <time>2021-06-30T10:15:29Z</time>
      </trkpt>
      <trkpt lat="44.893795" lon="4.872410">
        <ele>107.84894</ele>
        <time>2021-06-30T10:15:30Z</time>
      </trkpt>
      <trkpt lat="44.893444" lon="4.872248">
        <ele>107.32043</ele>
        <time>2021-06-30T10:15:31Z</time>
      </trkpt>
      <trkpt lat="44.893124" lon="4.872104">
        <ele>107.47198</ele>
        <time>2021-06-30T10:15:32Z</time>
      </trkpt>
      <trkpt lat="44.892773" lon="4.871951">
        <ele>106.79468</ele>
        <time>2021-06-30T10:15:33Z</time>
      </trkpt>
      <trkpt lat="44.892414" lon="4.871792">
        <ele>107.04840</ele>
        <time>2021-06-30T10:15:34Z</time>
      </trkpt>
      <trkpt lat="44.892071" lon="4.871635">
        <ele>107.06714</ele>
        <time>2021-06-30T10:15:35Z</time>
      </trkpt>
      <trkpt lat="44.891724" lon="4.871475">
        <ele>107.50220</ele>
        <time>2021-06-30T10:15:36Z</time>
      </trkpt>
      <trkpt lat="44.891388" lon="4.871322">
        <ele>106.86646</ele>
        <time>2021-06-30T10:15:37Z</time>
      </trkpt>
      <trkpt lat="44.891071" lon="4.871178">
        <ele>106.62769</ele>
        <time>2021-06-30T10:15:38Z</time>
      </trkpt>
      <trkpt lat="44.890736" lon="4.871025">
        <ele>106.31067</ele>
        <time>2021-06-30T10:15:39Z</time>
      </trkpt>
      <trkpt lat="44.890415" lon="4.870879">
        <ele>106.61041</ele>
        <time>2021-06-30T10:15:40Z</time>
      </trkpt>
      <trkpt lat="44.890091" lon="4.870732">
        <ele>106.90466</ele>
        <time>2021-06-30T10:15:41Z</time>
      </trkpt>
      <trkpt lat="44.889778" lon="4.870590">
        <ele>106.84851</ele>
        <time>2021-06-30T10:15:42Z</time>
      </trkpt>
      <trkpt lat="44.889454" lon="4.870443">
        <ele>106.56427</ele>
        <time>2021-06-30T10:15:43Z</time>
      </trkpt>
      <trkpt lat="44.889114" lon="4.870287">
        <ele>106.29266</ele>
        <time>2021-06-30T10:15:44Z</time>
      </trkpt>
      <trkpt lat="44.888767" lon="4.870131">
        <ele>105.67822</ele>
        <time>2021-06-30T10:15:45Z</time>
      </trkpt>
      <trkpt lat="44.888432" lon="4.869978">
        <ele>105.47327</ele>
        <time>2021-06-30T10:15:46Z</time>
      </trkpt>
      <trkpt lat="44.888096" lon="4.869826">
        <ele>105.18549</ele>
        <time>2021-06-30T10:15:47Z</time>
      </trkpt>
      <trkpt lat="44.887760" lon="4.869674">
        <ele>104.88849</ele>
        <time>2021-06-30T10:15:48Z</time>
      </trkpt>
      <trkpt lat="44.887440" lon="4.869526">
        <ele>104.71222</ele>
        <time>2021-06-30T10:15:49Z</time>
      </trkpt>
      <trkpt lat="44.887096" lon="4.869372">
        <ele>104.50323</ele>
        <time>2021-06-30T10:15:50Z</time>
      </trkpt>
      <trkpt lat="44.886757" lon="4.869216">
        <ele>105.51160</ele>
        <time>2021-06-30T10:15:51Z</time>
      </trkpt>
      <trkpt lat="44.886410" lon="4.869059">
        <ele>105.93073</ele>
        <time>2021-06-30T10:15:52Z</time>
      </trkpt>
      <trkpt lat="44.886063" lon="4.868901">
        <ele>105.62030</ele>
        <time>2021-06-30T10:15:53Z</time>
      </trkpt>
      <trkpt lat="44.885719" lon="4.868746">
        <ele>105.91162</ele>
        <time>2021-06-30T10:15:54Z</time>
      </trkpt>
      <trkpt lat="44.885376" lon="4.868589">
        <ele>105.35547</ele>
        <time>2021-06-30T10:15:55Z</time>
      </trkpt>
      <trkpt lat="44.885021" lon="4.868428">
        <ele>105.31665</ele>
        <time>2021-06-30T10:15:57Z</time>
      </trkpt>
      <trkpt lat="44.885021" lon="4.868428">
        <ele>105.43176</ele>
        <time>2021-06-30T10:15:58Z</time>
      </trkpt>
      <trkpt lat="44.884693" lon="4.868279">
        <ele>105.73444</ele>
        <time>2021-06-30T10:15:59Z</time>
      </trkpt>
      <trkpt lat="44.884350" lon="4.868123">
        <ele>105.33124</ele>
        <time>2021-06-30T10:16:00Z</time>
      </trkpt>
      <trkpt lat="44.884007" lon="4.867967">
        <ele>104.07562</ele>
        <time>2021-06-30T10:16:01Z</time>
      </trkpt>
      <trkpt lat="44.883656" lon="4.867808">
        <ele>104.44690</ele>
        <time>2021-06-30T10:16:02Z</time>
      </trkpt>
      <trkpt lat="44.883305" lon="4.867648">
        <ele>105.12830</ele>
        <time>2021-06-30T10:16:03Z</time>
      </trkpt>
      <trkpt lat="44.882961" lon="4.867493">
        <ele>105.06506</ele>
        <time>2021-06-30T10:16:04Z</time>
      </trkpt>
      <trkpt lat="44.882629" lon="4.867341">
        <ele>105.93292</ele>
        <time>2021-06-30T10:16:05Z</time>
      </trkpt>
      <trkpt lat="44.882320" lon="4.867199">
        <ele>106.79938</ele>
        <time>2021-06-30T10:16:06Z</time>
      </trkpt>
      <trkpt lat="44.881996" lon="4.867053">
        <ele>107.18555</ele>
        <time>2021-06-30T10:16:07Z</time>
      </trkpt>
      <trkpt lat="44.881664" lon="4.866903">
        <ele>107.36279</ele>
        <time>2021-06-30T10:16:08Z</time>
      </trkpt>
      <trkpt lat="44.881336" lon="4.866759">
        <ele>108.75549</ele>
        <time>2021-06-30T10:16:09Z</time>
      </trkpt>
      <trkpt lat="44.881012" lon="4.866620">
        <ele>109.35455</ele>
        <time>2021-06-30T10:16:10Z</time>
      </trkpt>
      <trkpt lat="44.880688" lon="4.866486">
        <ele>110.20496</ele>
        <time>2021-06-30T10:16:11Z</time>
      </trkpt>
      <trkpt lat="44.880363" lon="4.866353">
        <ele>109.54211</ele>
        <time>2021-06-30T10:16:12Z</time>
      </trkpt>
      <trkpt lat="44.880032" lon="4.866215">
        <ele>110.16138</ele>
        <time>2021-06-30T10:16:13Z</time>
      </trkpt>
      <trkpt lat="44.879723" lon="4.866088">
        <ele>110.74854</ele>
        <time>2021-06-30T10:16:14Z</time>
      </trkpt>
      <trkpt lat="44.879436" lon="4.865970">
        <ele>110.44019</ele>
        <time>2021-06-30T10:16:15Z</time>
      </trkpt>
      <trkpt lat="44.879150" lon="4.865857">
        <ele>110.53662</ele>
        <time>2021-06-30T10:16:16Z</time>
      </trkpt>
      <trkpt lat="44.878864" lon="4.865756">
        <ele>110.54437</ele>
        <time>2021-06-30T10:16:17Z</time>
      </trkpt>
      <trkpt lat="44.878578" lon="4.865658">
        <ele>109.98309</ele>
        <time>2021-06-30T10:16:18Z</time>
      </trkpt>
      <trkpt lat="44.878319" lon="4.865576">
        <ele>109.12671</ele>
        <time>2021-06-30T10:16:19Z</time>
      </trkpt>
      <trkpt lat="44.878075" lon="4.865503">
        <ele>109.44745</ele>
        <time>2021-06-30T10:16:20Z</time>
      </trkpt>
      <trkpt lat="44.877838" lon="4.865432">
        <ele>109.29956</ele>
        <time>2021-06-30T10:16:21Z</time>
      </trkpt>
      <trkpt lat="44.877579" lon="4.865359">
        <ele>109.63452</ele>
        <time>2021-06-30T10:16:22Z</time>
      </trkpt>
      <trkpt lat="44.877365" lon="4.865305">
        <ele>109.47742</ele>
        <time>2021-06-30T10:16:23Z</time>
      </trkpt>
      <trkpt lat="44.877121" lon="4.865244">
        <ele>109.10205</ele>
        <time>2021-06-30T10:16:24Z</time>
      </trkpt>
      <trkpt lat="44.877121" lon="4.865244">
        <ele>108.23138</ele>
        <time>2021-06-30T10:16:25Z</time>
      </trkpt>
      <trkpt lat="44.876873" lon="4.865181">
        <ele>108.38129</ele>
        <time>2021-06-30T10:16:26Z</time>
      </trkpt>
      <trkpt lat="44.876652" lon="4.865130">
        <ele>108.70081</ele>
        <time>2021-06-30T10:16:27Z</time>
      </trkpt>
      <trkpt lat="44.876423" lon="4.865079">
        <ele>108.58154</ele>
        <time>2021-06-30T10:16:28Z</time>
      </trkpt>
      <trkpt lat="44.876190" lon="4.865031">
        <ele>108.36249</ele>
        <time>2021-06-30T10:16:29Z</time>
      </trkpt>
      <trkpt lat="44.875954" lon="4.864992">
        <ele>107.88287</ele>
        <time>2021-06-30T10:16:30Z</time>
      </trkpt>
      <trkpt lat="44.875717" lon="4.864953">
        <ele>107.73810</ele>
        <time>2021-06-30T10:16:31Z</time>
      </trkpt>
      <trkpt lat="44.875481" lon="4.864918">
        <ele>107.30872</ele>
        <time>2021-06-30T10:16:32Z</time>
      </trkpt>
      <trkpt lat="44.875244" lon="4.864886">
        <ele>107.11963</ele>
        <time>2021-06-30T10:16:33Z</time>
      </trkpt>
      <trkpt lat="44.875015" lon="4.864855">
        <ele>107.23566</ele>
        <time>2021-06-30T10:16:34Z</time>
      </trkpt>
      <trkpt lat="44.874783" lon="4.864823">
        <ele>107.11798</ele>
        <time>2021-06-30T10:16:35Z</time>
      </trkpt>
      <trkpt lat="44.874550" lon="4.864791">
        <ele>106.46216</ele>
        <time>2021-06-30T10:16:36Z</time>
      </trkpt>
      <trkpt lat="44.874317" lon="4.864769">
        <ele>106.24469</ele>
        <time>2021-06-30T10:16:37Z</time>
      </trkpt>
      <trkpt lat="44.874054" lon="4.864746">
        <ele>108.49921</ele>
        <time>2021-06-30T10:16:38Z</time>
      </trkpt>
      <trkpt lat="44.873814" lon="4.864726">
        <ele>108.08820</ele>
        <time>2021-06-30T10:16:39Z</time>
      </trkpt>
      <trkpt lat="44.873558" lon="4.864705">
        <ele>107.68311</ele>
        <time>2021-06-30T10:16:40Z</time>
      </trkpt>
      <trkpt lat="44.873295" lon="4.864697">
        <ele>106.80737</ele>
        <time>2021-06-30T10:16:41Z</time>
      </trkpt>
      <trkpt lat="44.873039" lon="4.864692">
        <ele>106.71094</ele>
        <time>2021-06-30T10:16:42Z</time>
      </trkpt>
      <trkpt lat="44.872761" lon="4.864687">
        <ele>106.95209</ele>
        <time>2021-06-30T10:16:43Z</time>
      </trkpt>
      <trkpt lat="44.872482" lon="4.864686">
        <ele>106.67480</ele>
        <time>2021-06-30T10:16:44Z</time>
      </trkpt>
      <trkpt lat="44.872208" lon="4.864689">
        <ele>106.33240</ele>
        <time>2021-06-30T10:16:45Z</time>
      </trkpt>
      <trkpt lat="44.871944" lon="4.864693">
        <ele>105.86188</ele>
        <time>2021-06-30T10:16:46Z</time>
      </trkpt>
      <trkpt lat="44.871666" lon="4.864696">
        <ele>105.70447</ele>
        <time>2021-06-30T10:16:47Z</time>
      </trkpt>
      <trkpt lat="44.871391" lon="4.864699">
        <ele>106.28259</ele>
        <time>2021-06-30T10:16:48Z</time>
      </trkpt>
      <trkpt lat="44.871117" lon="4.864722">
        <ele>106.48578</ele>
        <time>2021-06-30T10:16:49Z</time>
      </trkpt>
      <trkpt lat="44.870838" lon="4.864745">
        <ele>104.45874</ele>
        <time>2021-06-30T10:16:50Z</time>
      </trkpt>
      <trkpt lat="44.870571" lon="4.864771">
        <ele>105.14093</ele>
        <time>2021-06-30T10:16:51Z</time>
      </trkpt>
      <trkpt lat="44.870289" lon="4.864806">
        <ele>105.70135</ele>
        <time>2021-06-30T10:16:52Z</time>
      </trkpt>
      <trkpt lat="44.869995" lon="4.864847">
        <ele>106.84534</ele>
        <time>2021-06-30T10:16:53Z</time>
      </trkpt>
      <trkpt lat="44.869713" lon="4.864886">
        <ele>107.53503</ele>
        <time>2021-06-30T10:16:54Z</time>
      </trkpt>
      <trkpt lat="44.869408" lon="4.864929">
        <ele>108.17731</ele>
        <time>2021-06-30T10:16:55Z</time>
      </trkpt>
      <trkpt lat="44.869133" lon="4.864972">
        <ele>108.15106</ele>
        <time>2021-06-30T10:16:55Z</time>
      </trkpt>
      <trkpt lat="44.868832" lon="4.865024">
        <ele>107.93982</ele>
        <time>2021-06-30T10:16:57Z</time>
      </trkpt>
      <trkpt lat="44.868530" lon="4.865079">
        <ele>108.22394</ele>
        <time>2021-06-30T10:16:58Z</time>
      </trkpt>
      <trkpt lat="44.868530" lon="4.865079">
        <ele>108.57306</ele>
        <time>2021-06-30T10:16:59Z</time>
      </trkpt>
      <trkpt lat="44.868221" lon="4.865140">
        <ele>108.65320</ele>
        <time>2021-06-30T10:17:00Z</time>
      </trkpt>
      <trkpt lat="44.867912" lon="4.865202">
        <ele>108.57971</ele>
        <time>2021-06-30T10:17:01Z</time>
      </trkpt>
      <trkpt lat="44.867603" lon="4.865271">
        <ele>108.57159</ele>
        <time>2021-06-30T10:17:02Z</time>
      </trkpt>
      <trkpt lat="44.867279" lon="4.865349">
        <ele>109.31372</ele>
        <time>2021-06-30T10:17:03Z</time>
      </trkpt>
      <trkpt lat="44.866978" lon="4.865422">
        <ele>109.66260</ele>
        <time>2021-06-30T10:17:04Z</time>
      </trkpt>
      <trkpt lat="44.866657" lon="4.865501">
        <ele>109.57117</ele>
        <time>2021-06-30T10:17:05Z</time>
      </trkpt>
      <trkpt lat="44.866329" lon="4.865580">
        <ele>110.31970</ele>
        <time>2021-06-30T10:17:06Z</time>
      </trkpt>
      <trkpt lat="44.866016" lon="4.865656">
        <ele>110.22394</ele>
        <time>2021-06-30T10:17:07Z</time>
      </trkpt>
      <trkpt lat="44.865688" lon="4.865736">
        <ele>108.78265</ele>
        <time>2021-06-30T10:17:08Z</time>
      </trkpt>
      <trkpt lat="44.865368" lon="4.865814">
        <ele>107.44458</ele>
        <time>2021-06-30T10:17:09Z</time>
      </trkpt>
      <trkpt lat="44.865078" lon="4.865878">
        <ele>107.21228</ele>
        <time>2021-06-30T10:17:10Z</time>
      </trkpt>
      <trkpt lat="44.864784" lon="4.865942">
        <ele>107.23645</ele>
        <time>2021-06-30T10:17:11Z</time>
      </trkpt>
      <trkpt lat="44.864445" lon="4.866014">
        <ele>107.18604</ele>
        <time>2021-06-30T10:17:12Z</time>
      </trkpt>
      <trkpt lat="44.864113" lon="4.866088">
        <ele>106.14838</ele>
        <time>2021-06-30T10:17:13Z</time>
      </trkpt>
      <trkpt lat="44.863781" lon="4.866171">
        <ele>107.61609</ele>
        <time>2021-06-30T10:17:14Z</time>
      </trkpt>
      <trkpt lat="44.863461" lon="4.866246">
        <ele>107.50476</ele>
        <time>2021-06-30T10:17:15Z</time>
      </trkpt>
      <trkpt lat="44.863117" lon="4.866303">
        <ele>107.46149</ele>
        <time>2021-06-30T10:17:16Z</time>
      </trkpt>
      <trkpt lat="44.862789" lon="4.866359">
        <ele>108.08118</ele>
        <time>2021-06-30T10:17:17Z</time>
      </trkpt>
      <trkpt lat="44.862465" lon="4.866415">
        <ele>108.41064</ele>
        <time>2021-06-30T10:17:18Z</time>
      </trkpt>
      <trkpt lat="44.862160" lon="4.866467">
        <ele>109.32751</ele>
        <time>2021-06-30T10:17:19Z</time>
      </trkpt>
      <trkpt lat="44.861820" lon="4.866517">
        <ele>109.22186</ele>
        <time>2021-06-30T10:17:20Z</time>
      </trkpt>
      <trkpt lat="44.861492" lon="4.866562">
        <ele>109.68182</ele>
        <time>2021-06-30T10:17:21Z</time>
      </trkpt>
      <trkpt lat="44.861156" lon="4.866607">
        <ele>108.09393</ele>
        <time>2021-06-30T10:17:22Z</time>
      </trkpt>
      <trkpt lat="44.860847" lon="4.866650">
        <ele>108.00494</ele>
        <time>2021-06-30T10:17:23Z</time>
      </trkpt>
      <trkpt lat="44.860554" lon="4.866682">
        <ele>107.70166</ele>
        <time>2021-06-30T10:17:23Z</time>
      </trkpt>
      <trkpt lat="44.860249" lon="4.866710">
        <ele>107.45026</ele>
        <time>2021-06-30T10:17:25Z</time>
      </trkpt>
      <trkpt lat="44.859936" lon="4.866733">
        <ele>108.19159</ele>
        <time>2021-06-30T10:17:26Z</time>
      </trkpt>
      <trkpt lat="44.859600" lon="4.866756">
        <ele>108.35565</ele>
        <time>2021-06-30T10:17:27Z</time>
      </trkpt>
      <trkpt lat="44.859261" lon="4.866777">
        <ele>107.85730</ele>
        <time>2021-06-30T10:17:28Z</time>
      </trkpt>
      <trkpt lat="44.858932" lon="4.866779">
        <ele>107.56396</ele>
        <time>2021-06-30T10:17:29Z</time>
      </trkpt>
      <trkpt lat="44.858604" lon="4.866782">
        <ele>106.11932</ele>
        <time>2021-06-30T10:17:30Z</time>
      </trkpt>
      <trkpt lat="44.858604" lon="4.866782">
        <ele>105.40369</ele>
        <time>2021-06-30T10:17:31Z</time>
      </trkpt>
      <trkpt lat="44.858273" lon="4.866785">
        <ele>104.43140</ele>
        <time>2021-06-30T10:17:32Z</time>
      </trkpt>
      <trkpt lat="44.857929" lon="4.866787">
        <ele>104.15857</ele>
        <time>2021-06-30T10:17:33Z</time>
      </trkpt>
      <trkpt lat="44.857574" lon="4.866774">
        <ele>103.77356</ele>
        <time>2021-06-30T10:17:34Z</time>
      </trkpt>
      <trkpt lat="44.857231" lon="4.866761">
        <ele>104.91321</ele>
        <time>2021-06-30T10:17:35Z</time>
      </trkpt>
      <trkpt lat="44.856888" lon="4.866749">
        <ele>103.36115</ele>
        <time>2021-06-30T10:17:36Z</time>
      </trkpt>
      <trkpt lat="44.856529" lon="4.866724">
        <ele>104.26288</ele>
        <time>2021-06-30T10:17:37Z</time>
      </trkpt>
      <trkpt lat="44.856163" lon="4.866693">
        <ele>104.96014</ele>
        <time>2021-06-30T10:17:38Z</time>
      </trkpt>
      <trkpt lat="44.855827" lon="4.866664">
        <ele>105.03278</ele>
        <time>2021-06-30T10:17:39Z</time>
      </trkpt>
      <trkpt lat="44.855480" lon="4.866622">
        <ele>105.55487</ele>
        <time>2021-06-30T10:17:40Z</time>
      </trkpt>
      <trkpt lat="44.855137" lon="4.866579">
        <ele>105.36023</ele>
        <time>2021-06-30T10:17:41Z</time>
      </trkpt>
      <trkpt lat="44.854820" lon="4.866538">
        <ele>105.32800</ele>
        <time>2021-06-30T10:17:42Z</time>
      </trkpt>
      <trkpt lat="44.854473" lon="4.866484">
        <ele>104.73792</ele>
        <time>2021-06-30T10:17:43Z</time>
      </trkpt>
      <trkpt lat="44.854118" lon="4.866426">
        <ele>105.21063</ele>
        <time>2021-06-30T10:17:44Z</time>
      </trkpt>
      <trkpt lat="44.853752" lon="4.866365">
        <ele>105.77911</ele>
        <time>2021-06-30T10:17:45Z</time>
      </trkpt>
      <trkpt lat="44.853394" lon="4.866302">
        <ele>105.77002</ele>
        <time>2021-06-30T10:17:46Z</time>
      </trkpt>
      <trkpt lat="44.853024" lon="4.866230">
        <ele>106.83502</ele>
        <time>2021-06-30T10:17:47Z</time>
      </trkpt>
      <trkpt lat="44.852661" lon="4.866160">
        <ele>108.38306</ele>
        <time>2021-06-30T10:17:48Z</time>
      </trkpt>
      <trkpt lat="44.852291" lon="4.866086">
        <ele>107.42810</ele>
        <time>2021-06-30T10:17:49Z</time>
      </trkpt>
      <trkpt lat="44.851952" lon="4.866011">
        <ele>107.18848</ele>
        <time>2021-06-30T10:17:50Z</time>
      </trkpt>
      <trkpt lat="44.851593" lon="4.865932">
        <ele>106.18860</ele>
        <time>2021-06-30T10:17:51Z</time>
      </trkpt>
      <trkpt lat="44.851242" lon="4.865854">
        <ele>106.20941</ele>
        <time>2021-06-30T10:17:52Z</time>
      </trkpt>
      <trkpt lat="44.850861" lon="4.865770">
        <ele>106.18396</ele>
        <time>2021-06-30T10:17:53Z</time>
      </trkpt>
      <trkpt lat="44.850494" lon="4.865689">
        <ele>105.76996</ele>
        <time>2021-06-30T10:17:54Z</time>
      </trkpt>
      <trkpt lat="44.850159" lon="4.865616">
        <ele>106.06860</ele>
        <time>2021-06-30T10:17:55Z</time>
      </trkpt>
      <trkpt lat="44.849812" lon="4.865539">
        <ele>106.70990</ele>
        <time>2021-06-30T10:17:56Z</time>
      </trkpt>
      <trkpt lat="44.849453" lon="4.865460">
        <ele>106.75598</ele>
        <time>2021-06-30T10:17:57Z</time>
      </trkpt>
      <trkpt lat="44.849079" lon="4.865378">
        <ele>106.51208</ele>
        <time>2021-06-30T10:17:58Z</time>
      </trkpt>
      <trkpt lat="44.848732" lon="4.865301">
        <ele>106.43689</ele>
        <time>2021-06-30T10:17:59Z</time>
      </trkpt>
      <trkpt lat="44.848732" lon="4.865301">
        <ele>106.71362</ele>
        <time>2021-06-30T10:18:00Z</time>
      </trkpt>
      <trkpt lat="44.848362" lon="4.865219">
        <ele>106.24182</ele>
        <time>2021-06-30T10:18:01Z</time>
      </trkpt>
      <trkpt lat="44.848007" lon="4.865141">
        <ele>106.22418</ele>
        <time>2021-06-30T10:18:02Z</time>
      </trkpt>
      <trkpt lat="44.847652" lon="4.865063">
        <ele>106.27014</ele>
        <time>2021-06-30T10:18:03Z</time>
      </trkpt>
      <trkpt lat="44.847294" lon="4.864984">
        <ele>106.22498</ele>
        <time>2021-06-30T10:18:04Z</time>
      </trkpt>
      <trkpt lat="44.846947" lon="4.864907">
        <ele>105.96777</ele>
        <time>2021-06-30T10:18:05Z</time>
      </trkpt>
      <trkpt lat="44.846615" lon="4.864834">
        <ele>106.37659</ele>
        <time>2021-06-30T10:18:06Z</time>
      </trkpt>
      <trkpt lat="44.846279" lon="4.864760">
        <ele>106.47809</ele>
        <time>2021-06-30T10:18:07Z</time>
      </trkpt>
      <trkpt lat="44.845951" lon="4.864688">
        <ele>106.76929</ele>
        <time>2021-06-30T10:18:08Z</time>
      </trkpt>
      <trkpt lat="44.845642" lon="4.864620">
        <ele>107.23651</ele>
        <time>2021-06-30T10:18:09Z</time>
      </trkpt>
      <trkpt lat="44.845303" lon="4.864545">
        <ele>107.20898</ele>
        <time>2021-06-30T10:18:10Z</time>
      </trkpt>
      <trkpt lat="44.844997" lon="4.864478">
        <ele>107.11902</ele>
        <time>2021-06-30T10:18:11Z</time>
      </trkpt>
      <trkpt lat="44.844688" lon="4.864410">
        <ele>107.14551</ele>
        <time>2021-06-30T10:18:12Z</time>
      </trkpt>
      <trkpt lat="44.844444" lon="4.864356">
        <ele>107.76025</ele>
        <time>2021-06-30T10:18:13Z</time>
      </trkpt>
      <trkpt lat="44.844181" lon="4.864296">
        <ele>107.73505</ele>
        <time>2021-06-30T10:18:14Z</time>
      </trkpt>
      <trkpt lat="44.843929" lon="4.864241">
        <ele>109.12848</ele>
        <time>2021-06-30T10:18:15Z</time>
      </trkpt>
      <trkpt lat="44.843643" lon="4.864177">
        <ele>109.41663</ele>
        <time>2021-06-30T10:18:16Z</time>
      </trkpt>
      <trkpt lat="44.843311" lon="4.864104">
        <ele>109.83899</ele>
        <time>2021-06-30T10:18:17Z</time>
      </trkpt>
      <trkpt lat="44.842995" lon="4.864035">
        <ele>110.30371</ele>
        <time>2021-06-30T10:18:18Z</time>
      </trkpt>
      <trkpt lat="44.842709" lon="4.863972">
        <ele>110.31744</ele>
        <time>2021-06-30T10:18:19Z</time>
      </trkpt>
      <trkpt lat="44.842407" lon="4.863906">
        <ele>110.61908</ele>
        <time>2021-06-30T10:18:20Z</time>
      </trkpt>
      <trkpt lat="44.842133" lon="4.863845">
        <ele>111.01160</ele>
        <time>2021-06-30T10:18:21Z</time>
      </trkpt>
      <trkpt lat="44.841862" lon="4.863786">
        <ele>111.74390</ele>
        <time>2021-06-30T10:18:22Z</time>
      </trkpt>
      <trkpt lat="44.841595" lon="4.863727">
        <ele>111.39276</ele>
        <time>2021-06-30T10:18:23Z</time>
      </trkpt>
      <trkpt lat="44.841343" lon="4.863672">
        <ele>111.70648</ele>
        <time>2021-06-30T10:18:24Z</time>
      </trkpt>
      <trkpt lat="44.841087" lon="4.863615">
        <ele>112.01337</ele>
        <time>2021-06-30T10:18:25Z</time>
      </trkpt>
      <trkpt lat="44.840828" lon="4.863558">
        <ele>111.88342</ele>
        <time>2021-06-30T10:18:26Z</time>
      </trkpt>
      <trkpt lat="44.840561" lon="4.863499">
        <ele>112.50226</ele>
        <time>2021-06-30T10:18:27Z</time>
      </trkpt>
      <trkpt lat="44.840290" lon="4.863440">
        <ele>112.20386</ele>
        <time>2021-06-30T10:18:28Z</time>
      </trkpt>
      <trkpt lat="44.840015" lon="4.863378">
        <ele>112.23987</ele>
        <time>2021-06-30T10:18:29Z</time>
      </trkpt>
      <trkpt lat="44.839745" lon="4.863314">
        <ele>112.44543</ele>
        <time>2021-06-30T10:18:30Z</time>
      </trkpt>
      <trkpt lat="44.839466" lon="4.863249">
        <ele>112.93085</ele>
        <time>2021-06-30T10:18:31Z</time>
      </trkpt>
      <trkpt lat="44.839188" lon="4.863185">
        <ele>112.57800</ele>
        <time>2021-06-30T10:18:32Z</time>
      </trkpt>
      <trkpt lat="44.838905" lon="4.863119">
        <ele>112.25452</ele>
        <time>2021-06-30T10:18:33Z</time>
      </trkpt>
      <trkpt lat="44.838619" lon="4.863044">
        <ele>112.93567</ele>
        <time>2021-06-30T10:18:34Z</time>
      </trkpt>
      <trkpt lat="44.838337" lon="4.862959">
        <ele>113.71143</ele>
        <time>2021-06-30T10:18:35Z</time>
      </trkpt>
      <trkpt lat="44.838043" lon="4.862906">
        <ele>113.48303</ele>
        <time>2021-06-30T10:18:36Z</time>
      </trkpt>
      <trkpt lat="44.838043" lon="4.862906">
        <ele>113.26935</ele>
        <time>2021-06-30T10:18:37Z</time>
      </trkpt>
      <trkpt lat="44.837734" lon="4.862843">
        <ele>112.71674</ele>
        <time>2021-06-30T10:18:38Z</time>
      </trkpt>
      <trkpt lat="44.837421" lon="4.862770">
        <ele>113.43738</ele>
        <time>2021-06-30T10:18:39Z</time>
      </trkpt>
      <trkpt lat="44.837120" lon="4.862698">
        <ele>112.95483</ele>
        <time>2021-06-30T10:18:40Z</time>
      </trkpt>
      <trkpt lat="44.836811" lon="4.862625">
        <ele>112.80920</ele>
        <time>2021-06-30T10:18:41Z</time>
      </trkpt>
      <trkpt lat="44.836498" lon="4.862552">
        <ele>112.65063</ele>
        <time>2021-06-30T10:18:42Z</time>
      </trkpt>
      <trkpt lat="44.836193" lon="4.862480">
        <ele>112.93713</ele>
        <time>2021-06-30T10:18:43Z</time>
      </trkpt>
      <trkpt lat="44.835869" lon="4.862404">
        <ele>112.24445</ele>
        <time>2021-06-30T10:18:44Z</time>
      </trkpt>
      <trkpt lat="44.835575" lon="4.862334">
        <ele>112.76050</ele>
        <time>2021-06-30T10:18:45Z</time>
      </trkpt>
      <trkpt lat="44.835262" lon="4.862257">
        <ele>112.51685</ele>
        <time>2021-06-30T10:18:46Z</time>
      </trkpt>
      <trkpt lat="44.834946" lon="4.862179">
        <ele>112.51227</ele>
        <time>2021-06-30T10:18:47Z</time>
      </trkpt>
      <trkpt lat="44.834621" lon="4.862101">
        <ele>111.45349</ele>
        <time>2021-06-30T10:18:48Z</time>
      </trkpt>
      <trkpt lat="44.834290" lon="4.862019">
        <ele>111.59686</ele>
        <time>2021-06-30T10:18:49Z</time>
      </trkpt>
      <trkpt lat="44.833965" lon="4.861940">
        <ele>112.25928</ele>
        <time>2021-06-30T10:18:50Z</time>
      </trkpt>
      <trkpt lat="44.833637" lon="4.861861">
        <ele>111.82025</ele>
        <time>2021-06-30T10:18:51Z</time>
      </trkpt>
      <trkpt lat="44.833294" lon="4.861776">
        <ele>111.51270</ele>
        <time>2021-06-30T10:18:52Z</time>
      </trkpt>
      <trkpt lat="44.832973" lon="4.861699">
        <ele>110.85687</ele>
        <time>2021-06-30T10:18:53Z</time>
      </trkpt>
      <trkpt lat="44.832623" lon="4.861613">
        <ele>110.22229</ele>
        <time>2021-06-30T10:18:54Z</time>
      </trkpt>
      <trkpt lat="44.832283" lon="4.861530">
        <ele>109.80573</ele>
        <time>2021-06-30T10:18:54Z</time>
      </trkpt>
      <trkpt lat="44.831944" lon="4.861447">
        <ele>110.40808</ele>
        <time>2021-06-30T10:18:55Z</time>
      </trkpt>
      <trkpt lat="44.831573" lon="4.861357">
        <ele>109.79645</ele>
        <time>2021-06-30T10:18:56Z</time>
      </trkpt>
      <trkpt lat="44.831200" lon="4.861265">
        <ele>109.25378</ele>
        <time>2021-06-30T10:18:57Z</time>
      </trkpt>
      <trkpt lat="44.830853" lon="4.861181">
        <ele>109.22351</ele>
        <time>2021-06-30T10:18:58Z</time>
      </trkpt>
      <trkpt lat="44.830494" lon="4.861093">
        <ele>108.61932</ele>
        <time>2021-06-30T10:18:59Z</time>
      </trkpt>
      <trkpt lat="44.830128" lon="4.861004">
        <ele>109.21954</ele>
        <time>2021-06-30T10:19:00Z</time>
      </trkpt>
      <trkpt lat="44.829754" lon="4.860913">
        <ele>109.22089</ele>
        <time>2021-06-30T10:19:01Z</time>
      </trkpt>
      <trkpt lat="44.829388" lon="4.860823">
        <ele>110.55872</ele>
        <time>2021-06-30T10:19:02Z</time>
      </trkpt>
      <trkpt lat="44.829048" lon="4.860740">
        <ele>108.99463</ele>
        <time>2021-06-30T10:19:03Z</time>
      </trkpt>
      <trkpt lat="44.828693" lon="4.860653">
        <ele>108.54761</ele>
        <time>2021-06-30T10:19:04Z</time>
      </trkpt>
      <trkpt lat="44.828327" lon="4.860564">
        <ele>107.95007</ele>
        <time>2021-06-30T10:19:05Z</time>
      </trkpt>
      <trkpt lat="44.827988" lon="4.860481">
        <ele>108.18701</ele>
        <time>2021-06-30T10:19:06Z</time>
      </trkpt>
      <trkpt lat="44.827641" lon="4.860396">
        <ele>107.93207</ele>
        <time>2021-06-30T10:19:07Z</time>
      </trkpt>
      <trkpt lat="44.827641" lon="4.860396">
        <ele>108.29034</ele>
        <time>2021-06-30T10:19:08Z</time>
      </trkpt>
      <trkpt lat="44.827290" lon="4.860310">
        <ele>108.71918</ele>
        <time>2021-06-30T10:19:09Z</time>
      </trkpt>
      <trkpt lat="44.826942" lon="4.860225">
        <ele>108.43481</ele>
        <time>2021-06-30T10:19:10Z</time>
      </trkpt>
      <trkpt lat="44.826584" lon="4.860137">
        <ele>108.26294</ele>
        <time>2021-06-30T10:19:11Z</time>
      </trkpt>
      <trkpt lat="44.826244" lon="4.860054">
        <ele>108.02753</ele>
        <time>2021-06-30T10:19:12Z</time>
      </trkpt>
      <trkpt lat="44.825882" lon="4.859965">
        <ele>108.36456</ele>
        <time>2021-06-30T10:19:13Z</time>
      </trkpt>
      <trkpt lat="44.825527" lon="4.859879">
        <ele>108.02405</ele>
        <time>2021-06-30T10:19:14Z</time>
      </trkpt>
      <trkpt lat="44.825165" lon="4.859790">
        <ele>108.29395</ele>
        <time>2021-06-30T10:19:15Z</time>
      </trkpt>
      <trkpt lat="44.824802" lon="4.859701">
        <ele>108.34601</ele>
        <time>2021-06-30T10:19:16Z</time>
      </trkpt>
      <trkpt lat="44.824459" lon="4.859618">
        <ele>108.29834</ele>
        <time>2021-06-30T10:19:17Z</time>
      </trkpt>
      <trkpt lat="44.824074" lon="4.859523">
        <ele>108.77136</ele>
        <time>2021-06-30T10:19:18Z</time>
      </trkpt>
      <trkpt lat="44.823719" lon="4.859436">
        <ele>108.52637</ele>
        <time>2021-06-30T10:19:19Z</time>
      </trkpt>
      <trkpt lat="44.823357" lon="4.859348">
        <ele>109.30292</ele>
        <time>2021-06-30T10:19:20Z</time>
      </trkpt>
      <trkpt lat="44.822990" lon="4.859258">
        <ele>109.36322</ele>
        <time>2021-06-30T10:19:21Z</time>
      </trkpt>
      <trkpt lat="44.822639" lon="4.859170">
        <ele>109.04095</ele>
        <time>2021-06-30T10:19:22Z</time>
      </trkpt>
      <trkpt lat="44.822296" lon="4.859082">
        <ele>109.67151</ele>
        <time>2021-06-30T10:19:23Z</time>
      </trkpt>
      <trkpt lat="44.821953" lon="4.858994">
        <ele>110.16162</ele>
        <time>2021-06-30T10:19:24Z</time>
      </trkpt>
      <trkpt lat="44.821590" lon="4.858901">
        <ele>109.75916</ele>
        <time>2021-06-30T10:19:25Z</time>
      </trkpt>
      <trkpt lat="44.821239" lon="4.858811">
        <ele>109.96692</ele>
        <time>2021-06-30T10:19:26Z</time>
      </trkpt>
      <trkpt lat="44.820877" lon="4.858706">
        <ele>110.51733</ele>
        <time>2021-06-30T10:19:27Z</time>
      </trkpt>
      <trkpt lat="44.820522" lon="4.858604">
        <ele>109.89990</ele>
        <time>2021-06-30T10:19:28Z</time>
      </trkpt>
      <trkpt lat="44.820171" lon="4.858502">
        <ele>109.73999</ele>
        <time>2021-06-30T10:19:29Z</time>
      </trkpt>
      <trkpt lat="44.819824" lon="4.858400">
        <ele>109.40710</ele>
        <time>2021-06-30T10:19:30Z</time>
      </trkpt>
      <trkpt lat="44.819477" lon="4.858288">
        <ele>108.75708</ele>
        <time>2021-06-30T10:19:31Z</time>
      </trkpt>
      <trkpt lat="44.819122" lon="4.858175">
        <ele>108.27234</ele>
        <time>2021-06-30T10:19:32Z</time>
      </trkpt>
      <trkpt lat="44.818768" lon="4.858055">
        <ele>107.98730</ele>
        <time>2021-06-30T10:19:33Z</time>
      </trkpt>
      <trkpt lat="44.818417" lon="4.857929">
        <ele>108.12146</ele>
        <time>2021-06-30T10:19:34Z</time>
      </trkpt>
      <trkpt lat="44.818066" lon="4.857803">
        <ele>107.82764</ele>
        <time>2021-06-30T10:19:35Z</time>
      </trkpt>
      <trkpt lat="44.817719" lon="4.857672">
        <ele>107.48730</ele>
        <time>2021-06-30T10:19:36Z</time>
      </trkpt>
      <trkpt lat="44.817375" lon="4.857542">
        <ele>107.63092</ele>
        <time>2021-06-30T10:19:38Z</time>
      </trkpt>
      <trkpt lat="44.817020" lon="4.857406">
        <ele>108.32495</ele>
        <time>2021-06-30T10:19:39Z</time>
      </trkpt>
      <trkpt lat="44.816654" lon="4.857253">
        <ele>108.22064</ele>
        <time>2021-06-30T10:19:40Z</time>
      </trkpt>
      <trkpt lat="44.816307" lon="4.857109">
        <ele>107.95093</ele>
        <time>2021-06-30T10:19:40Z</time>
      </trkpt>
      <trkpt lat="44.815975" lon="4.856969">
        <ele>107.51514</ele>
        <time>2021-06-30T10:19:41Z</time>
      </trkpt>
      <trkpt lat="44.815643" lon="4.856831">
        <ele>108.14166</ele>
        <time>2021-06-30T10:19:42Z</time>
      </trkpt>
      <trkpt lat="44.815643" lon="4.856831">
        <ele>109.09521</ele>
        <time>2021-06-30T10:19:43Z</time>
      </trkpt>
      <trkpt lat="44.815292" lon="4.856684">
        <ele>108.72607</ele>
        <time>2021-06-30T10:19:44Z</time>
      </trkpt>
      <trkpt lat="44.814957" lon="4.856543">
        <ele>108.51935</ele>
        <time>2021-06-30T10:19:45Z</time>
      </trkpt>
      <trkpt lat="44.814606" lon="4.856398">
        <ele>108.66089</ele>
        <time>2021-06-30T10:19:46Z</time>
      </trkpt>
      <trkpt lat="44.814262" lon="4.856254">
        <ele>108.79230</ele>
        <time>2021-06-30T10:19:47Z</time>
      </trkpt>
      <trkpt lat="44.813923" lon="4.856111">
        <ele>108.66931</ele>
        <time>2021-06-30T10:19:48Z</time>
      </trkpt>
      <trkpt lat="44.813576" lon="4.855966">
        <ele>109.71167</ele>
        <time>2021-06-30T10:19:49Z</time>
      </trkpt>
      <trkpt lat="44.813236" lon="4.855825">
        <ele>109.59247</ele>
        <time>2021-06-30T10:19:50Z</time>
      </trkpt>
      <trkpt lat="44.812904" lon="4.855685">
        <ele>109.10388</ele>
        <time>2021-06-30T10:19:51Z</time>
      </trkpt>
      <trkpt lat="44.812572" lon="4.855542">
        <ele>107.41064</ele>
        <time>2021-06-30T10:19:52Z</time>
      </trkpt>
      <trkpt lat="44.812222" lon="4.855385">
        <ele>107.37512</ele>
        <time>2021-06-30T10:19:53Z</time>
      </trkpt>
      <trkpt lat="44.811905" lon="4.855242">
        <ele>108.02417</ele>
        <time>2021-06-30T10:19:54Z</time>
      </trkpt>
      <trkpt lat="44.811562" lon="4.855090">
        <ele>106.97070</ele>
        <time>2021-06-30T10:19:55Z</time>
      </trkpt>
      <trkpt lat="44.811253" lon="4.854950">
        <ele>106.84552</ele>
        <time>2021-06-30T10:19:56Z</time>
      </trkpt>
      <trkpt lat="44.810894" lon="4.854779">
        <ele>106.16583</ele>
        <time>2021-06-30T10:19:57Z</time>
      </trkpt>
      <trkpt lat="44.810547" lon="4.854603">
        <ele>104.61023</ele>
        <time>2021-06-30T10:19:58Z</time>
      </trkpt>
      <trkpt lat="44.810226" lon="4.854442">
        <ele>104.72034</ele>
        <time>2021-06-30T10:19:59Z</time>
      </trkpt>
      <trkpt lat="44.809879" lon="4.854262">
        <ele>104.90820</ele>
        <time>2021-06-30T10:20:00Z</time>
      </trkpt>
      <trkpt lat="44.809551" lon="4.854085">
        <ele>104.01001</ele>
        <time>2021-06-30T10:20:01Z</time>
      </trkpt>
      <trkpt lat="44.809208" lon="4.853895">
        <ele>103.87506</ele>
        <time>2021-06-30T10:20:02Z</time>
      </trkpt>
      <trkpt lat="44.808865" lon="4.853700">
        <ele>104.60260</ele>
        <time>2021-06-30T10:20:03Z</time>
      </trkpt>
      <trkpt lat="44.808540" lon="4.853514">
        <ele>103.39868</ele>
        <time>2021-06-30T10:20:04Z</time>
      </trkpt>
      <trkpt lat="44.808197" lon="4.853316">
        <ele>102.65564</ele>
        <time>2021-06-30T10:20:05Z</time>
      </trkpt>
      <trkpt lat="44.807865" lon="4.853117">
        <ele>102.67865</ele>
        <time>2021-06-30T10:20:06Z</time>
      </trkpt>
      <trkpt lat="44.807537" lon="4.852910">
        <ele>103.05914</ele>
        <time>2021-06-30T10:20:07Z</time>
      </trkpt>
      <trkpt lat="44.807213" lon="4.852705">
        <ele>103.35449</ele>
        <time>2021-06-30T10:20:08Z</time>
      </trkpt>
      <trkpt lat="44.806873" lon="4.852473">
        <ele>103.41980</ele>
        <time>2021-06-30T10:20:09Z</time>
      </trkpt>
      <trkpt lat="44.806557" lon="4.852259">
        <ele>103.25098</ele>
        <time>2021-06-30T10:20:10Z</time>
      </trkpt>
      <trkpt lat="44.806225" lon="4.852033">
        <ele>103.74097</ele>
        <time>2021-06-30T10:20:11Z</time>
      </trkpt>
      <trkpt lat="44.805908" lon="4.851818">
        <ele>103.12598</ele>
        <time>2021-06-30T10:20:12Z</time>
      </trkpt>
      <trkpt lat="44.805584" lon="4.851582">
        <ele>102.89032</ele>
        <time>2021-06-30T10:20:13Z</time>
      </trkpt>
      <trkpt lat="44.805267" lon="4.851349">
        <ele>102.68951</ele>
        <time>2021-06-30T10:20:14Z</time>
      </trkpt>
      <trkpt lat="44.804947" lon="4.851113">
        <ele>103.32513</ele>
        <time>2021-06-30T10:20:15Z</time>
      </trkpt>
      <trkpt lat="44.804619" lon="4.850860">
        <ele>103.12000</ele>
        <time>2021-06-30T10:20:16Z</time>
      </trkpt>
      <trkpt lat="44.804298" lon="4.850614">
        <ele>103.72314</ele>
        <time>2021-06-30T10:20:17Z</time>
      </trkpt>
      <trkpt lat="44.803970" lon="4.850358">
        <ele>103.62762</ele>
        <time>2021-06-30T10:20:18Z</time>
      </trkpt>
      <trkpt lat="44.803970" lon="4.850358">
        <ele>103.60175</ele>
        <time>2021-06-30T10:20:19Z</time>
      </trkpt>
      <trkpt lat="44.803661" lon="4.850107">
        <ele>104.66992</ele>
        <time>2021-06-30T10:20:20Z</time>
      </trkpt>
      <trkpt lat="44.803352" lon="4.849853">
        <ele>104.10815</ele>
        <time>2021-06-30T10:20:21Z</time>
      </trkpt>
      <trkpt lat="44.803036" lon="4.849593">
        <ele>103.07751</ele>
        <time>2021-06-30T10:20:22Z</time>
      </trkpt>
      <trkpt lat="44.802715" lon="4.849328">
        <ele>102.97803</ele>
        <time>2021-06-30T10:20:23Z</time>
      </trkpt>
      <trkpt lat="44.802406" lon="4.849067">
        <ele>103.36438</ele>
        <time>2021-06-30T10:20:24Z</time>
      </trkpt>
      <trkpt lat="44.802124" lon="4.848825">
        <ele>103.28979</ele>
        <time>2021-06-30T10:20:25Z</time>
      </trkpt>
      <trkpt lat="44.801811" lon="4.848559">
        <ele>103.44971</ele>
        <time>2021-06-30T10:20:26Z</time>
      </trkpt>
      <trkpt lat="44.801514" lon="4.848302">
        <ele>104.27325</ele>
        <time>2021-06-30T10:20:27Z</time>
      </trkpt>
      <trkpt lat="44.801193" lon="4.848024">
        <ele>103.90863</ele>
        <time>2021-06-30T10:20:28Z</time>
      </trkpt>
      <trkpt lat="44.800900" lon="4.847765">
        <ele>103.80975</ele>
        <time>2021-06-30T10:20:29Z</time>
      </trkpt>
      <trkpt lat="44.800587" lon="4.847495">
        <ele>103.83191</ele>
        <time>2021-06-30T10:20:30Z</time>
      </trkpt>
      <trkpt lat="44.800282" lon="4.847231">
        <ele>103.97144</ele>
        <time>2021-06-30T10:20:31Z</time>
      </trkpt>
      <trkpt lat="44.799980" lon="4.846971">
        <ele>103.78082</ele>
        <time>2021-06-30T10:20:32Z</time>
      </trkpt>
      <trkpt lat="44.799664" lon="4.846699">
        <ele>103.43414</ele>
        <time>2021-06-30T10:20:33Z</time>
      </trkpt>
      <trkpt lat="44.799351" lon="4.846429">
        <ele>103.46240</ele>
        <time>2021-06-30T10:20:34Z</time>
      </trkpt>
      <trkpt lat="44.799042" lon="4.846166">
        <ele>103.13794</ele>
        <time>2021-06-30T10:20:35Z</time>
      </trkpt>
      <trkpt lat="44.798737" lon="4.845903">
        <ele>103.43335</ele>
        <time>2021-06-30T10:20:36Z</time>
      </trkpt>
      <trkpt lat="44.798420" lon="4.845628">
        <ele>102.68042</ele>
        <time>2021-06-30T10:20:37Z</time>
      </trkpt>
      <trkpt lat="44.798107" lon="4.845361">
        <ele>102.96527</ele>
        <time>2021-06-30T10:20:38Z</time>
      </trkpt>
      <trkpt lat="44.797787" lon="4.845085">
        <ele>103.94684</ele>
        <time>2021-06-30T10:20:39Z</time>
      </trkpt>
      <trkpt lat="44.797489" lon="4.844831">
        <ele>103.89185</ele>
        <time>2021-06-30T10:20:40Z</time>
      </trkpt>
      <trkpt lat="44.797192" lon="4.844581">
        <ele>103.71851</ele>
        <time>2021-06-30T10:20:41Z</time>
      </trkpt>
      <trkpt lat="44.796871" lon="4.844315">
        <ele>103.66406</ele>
        <time>2021-06-30T10:20:42Z</time>
      </trkpt>
      <trkpt lat="44.796566" lon="4.844061">
        <ele>103.66370</ele>
        <time>2021-06-30T10:20:43Z</time>
      </trkpt>
      <trkpt lat="44.796265" lon="4.843808">
        <ele>103.73590</ele>
        <time>2021-06-30T10:20:44Z</time>
      </trkpt>
      <trkpt lat="44.795952" lon="4.843543">
        <ele>104.00903</ele>
        <time>2021-06-30T10:20:45Z</time>
      </trkpt>
      <trkpt lat="44.795643" lon="4.843276">
        <ele>103.95984</ele>
        <time>2021-06-30T10:20:46Z</time>
      </trkpt>
      <trkpt lat="44.795341" lon="4.843016">
        <ele>103.83472</ele>
        <time>2021-06-30T10:20:47Z</time>
      </trkpt>
      <trkpt lat="44.795029" lon="4.842744">
        <ele>103.95911</ele>
        <time>2021-06-30T10:20:48Z</time>
      </trkpt>
      <trkpt lat="44.794720" lon="4.842476">
        <ele>104.01074</ele>
        <time>2021-06-30T10:20:49Z</time>
      </trkpt>
      <trkpt lat="44.794418" lon="4.842217">
        <ele>103.87952</ele>
        <time>2021-06-30T10:20:50Z</time>
      </trkpt>
      <trkpt lat="44.794113" lon="4.841952">
        <ele>103.59589</ele>
        <time>2021-06-30T10:20:51Z</time>
      </trkpt>
      <trkpt lat="44.793812" lon="4.841718">
        <ele>102.90405</ele>
        <time>2021-06-30T10:20:52Z</time>
      </trkpt>
      <trkpt lat="44.793812" lon="4.841718">
        <ele>103.46265</ele>
        <time>2021-06-30T10:20:54Z</time>
      </trkpt>
      <trkpt lat="44.793491" lon="4.841470">
        <ele>103.33508</ele>
        <time>2021-06-30T10:20:55Z</time>
      </trkpt>
      <trkpt lat="44.793179" lon="4.841214">
        <ele>103.09882</ele>
        <time>2021-06-30T10:20:56Z</time>
      </trkpt>
      <trkpt lat="44.792858" lon="4.840952">
        <ele>103.39630</ele>
        <time>2021-06-30T10:20:57Z</time>
      </trkpt>
      <trkpt lat="44.792545" lon="4.840687">
        <ele>103.36591</ele>
        <time>2021-06-30T10:20:58Z</time>
      </trkpt>
      <trkpt lat="44.792236" lon="4.840425">
        <ele>104.26074</ele>
        <time>2021-06-30T10:20:59Z</time>
      </trkpt>
      <trkpt lat="44.791927" lon="4.840163">
        <ele>104.24487</ele>
        <time>2021-06-30T10:21:00Z</time>
      </trkpt>
      <trkpt lat="44.791618" lon="4.839898">
        <ele>104.60352</ele>
        <time>2021-06-30T10:21:01Z</time>
      </trkpt>
      <trkpt lat="44.791317" lon="4.839642">
        <ele>104.50781</ele>
        <time>2021-06-30T10:21:02Z</time>
      </trkpt>
      <trkpt lat="44.791012" lon="4.839379">
        <ele>104.45599</ele>
        <time>2021-06-30T10:21:03Z</time>
      </trkpt>
      <trkpt lat="44.790718" lon="4.839113">
        <ele>104.24127</ele>
        <time>2021-06-30T10:21:04Z</time>
      </trkpt>
      <trkpt lat="44.790413" lon="4.838835">
        <ele>104.71393</ele>
        <time>2021-06-30T10:21:05Z</time>
      </trkpt>
      <trkpt lat="44.790112" lon="4.838550">
        <ele>104.06561</ele>
        <time>2021-06-30T10:21:06Z</time>
      </trkpt>
      <trkpt lat="44.789814" lon="4.838254">
        <ele>103.77496</ele>
        <time>2021-06-30T10:21:07Z</time>
      </trkpt>
      <trkpt lat="44.789528" lon="4.837961">
        <ele>104.53198</ele>
        <time>2021-06-30T10:21:08Z</time>
      </trkpt>
      <trkpt lat="44.789230" lon="4.837645">
        <ele>104.52563</ele>
        <time>2021-06-30T10:21:09Z</time>
      </trkpt>
      <trkpt lat="44.788952" lon="4.837347">
        <ele>105.70630</ele>
        <time>2021-06-30T10:21:10Z</time>
      </trkpt>
      <trkpt lat="44.788670" lon="4.837023">
        <ele>105.08606</ele>
        <time>2021-06-30T10:21:11Z</time>
      </trkpt>
      <trkpt lat="44.788387" lon="4.836677">
        <ele>106.46997</ele>
        <time>2021-06-30T10:21:12Z</time>
      </trkpt>
      <trkpt lat="44.788109" lon="4.836329">
        <ele>106.62805</ele>
        <time>2021-06-30T10:21:13Z</time>
      </trkpt>
      <trkpt lat="44.787827" lon="4.835970">
        <ele>106.63257</ele>
        <time>2021-06-30T10:21:14Z</time>
      </trkpt>
      <trkpt lat="44.787575" lon="4.835626">
        <ele>106.87097</ele>
        <time>2021-06-30T10:21:15Z</time>
      </trkpt>
      <trkpt lat="44.787323" lon="4.835278">
        <ele>106.72656</ele>
        <time>2021-06-30T10:21:16Z</time>
      </trkpt>
      <trkpt lat="44.787064" lon="4.834918">
        <ele>107.76300</ele>
        <time>2021-06-30T10:21:17Z</time>
      </trkpt>
      <trkpt lat="44.786823" lon="4.834552">
        <ele>106.95282</ele>
        <time>2021-06-30T10:21:18Z</time>
      </trkpt>
      <trkpt lat="44.786556" lon="4.834153">
        <ele>106.81647</ele>
        <time>2021-06-30T10:21:19Z</time>
      </trkpt>
      <trkpt lat="44.786324" lon="4.833774">
        <ele>106.98041</ele>
        <time>2021-06-30T10:21:20Z</time>
      </trkpt>
      <trkpt lat="44.786087" lon="4.833387">
        <ele>107.13330</ele>
        <time>2021-06-30T10:21:21Z</time>
      </trkpt>
      <trkpt lat="44.785873" lon="4.833012">
        <ele>107.12927</ele>
        <time>2021-06-30T10:21:22Z</time>
      </trkpt>
      <trkpt lat="44.785648" lon="4.832608">
        <ele>107.31604</ele>
        <time>2021-06-30T10:21:23Z</time>
      </trkpt>
      <trkpt lat="44.785439" lon="4.832201">
        <ele>107.23218</ele>
        <time>2021-06-30T10:21:24Z</time>
      </trkpt>
      <trkpt lat="44.785233" lon="4.831783">
        <ele>107.09436</ele>
        <time>2021-06-30T10:21:25Z</time>
      </trkpt>
      <trkpt lat="44.785027" lon="4.831367">
        <ele>107.60449</ele>
        <time>2021-06-30T10:21:26Z</time>
      </trkpt>
      <trkpt lat="44.784832" lon="4.830949">
        <ele>107.12360</ele>
        <time>2021-06-30T10:21:27Z</time>
      </trkpt>
      <trkpt lat="44.784832" lon="4.830949">
        <ele>107.18158</ele>
        <time>2021-06-30T10:21:28Z</time>
      </trkpt>
      <trkpt lat="44.784637" lon="4.830528">
        <ele>107.03833</ele>
        <time>2021-06-30T10:21:29Z</time>
      </trkpt>
      <trkpt lat="44.784454" lon="4.830105">
        <ele>107.48187</ele>
        <time>2021-06-30T10:21:30Z</time>
      </trkpt>
      <trkpt lat="44.784275" lon="4.829683">
        <ele>107.78802</ele>
        <time>2021-06-30T10:21:31Z</time>
      </trkpt>
      <trkpt lat="44.784100" lon="4.829237">
        <ele>107.76672</ele>
        <time>2021-06-30T10:21:32Z</time>
      </trkpt>
      <trkpt lat="44.783928" lon="4.828795">
        <ele>107.54419</ele>
        <time>2021-06-30T10:21:33Z</time>
      </trkpt>
      <trkpt lat="44.783768" lon="4.828348">
        <ele>108.16138</ele>
        <time>2021-06-30T10:21:34Z</time>
      </trkpt>
      <trkpt lat="44.783604" lon="4.827888">
        <ele>108.18188</ele>
        <time>2021-06-30T10:21:35Z</time>
      </trkpt>
      <trkpt lat="44.783451" lon="4.827432">
        <ele>108.19183</ele>
        <time>2021-06-30T10:21:36Z</time>
      </trkpt>
      <trkpt lat="44.783310" lon="4.826978">
        <ele>107.90137</ele>
        <time>2021-06-30T10:21:37Z</time>
      </trkpt>
      <trkpt lat="44.783161" lon="4.826488">
        <ele>108.15820</ele>
        <time>2021-06-30T10:21:38Z</time>
      </trkpt>
      <trkpt lat="44.783031" lon="4.826026">
        <ele>108.23944</ele>
        <time>2021-06-30T10:21:39Z</time>
      </trkpt>
      <trkpt lat="44.782894" lon="4.825535">
        <ele>108.89636</ele>
        <time>2021-06-30T10:21:40Z</time>
      </trkpt>
      <trkpt lat="44.782764" lon="4.825059">
        <ele>108.05756</ele>
        <time>2021-06-30T10:21:41Z</time>
      </trkpt>
      <trkpt lat="44.782642" lon="4.824577">
        <ele>108.81439</ele>
        <time>2021-06-30T10:21:42Z</time>
      </trkpt>
      <trkpt lat="44.782520" lon="4.824087">
        <ele>109.00781</ele>
        <time>2021-06-30T10:21:43Z</time>
      </trkpt>
      <trkpt lat="44.782402" lon="4.823605">
        <ele>109.53662</ele>
        <time>2021-06-30T10:21:44Z</time>
      </trkpt>
      <trkpt lat="44.782288" lon="4.823131">
        <ele>109.52612</ele>
        <time>2021-06-30T10:21:45Z</time>
      </trkpt>
      <trkpt lat="44.782173" lon="4.822648">
        <ele>109.95416</ele>
        <time>2021-06-30T10:21:46Z</time>
      </trkpt>
      <trkpt lat="44.782066" lon="4.822198">
        <ele>109.11896</ele>
        <time>2021-06-30T10:21:47Z</time>
      </trkpt>
      <trkpt lat="44.781952" lon="4.821724">
        <ele>110.41504</ele>
        <time>2021-06-30T10:21:48Z</time>
      </trkpt>
      <trkpt lat="44.781837" lon="4.821240">
        <ele>111.77026</ele>
        <time>2021-06-30T10:21:49Z</time>
      </trkpt>
      <trkpt lat="44.781719" lon="4.820750">
        <ele>113.00531</ele>
        <time>2021-06-30T10:21:50Z</time>
      </trkpt>
      <trkpt lat="44.781605" lon="4.820285">
        <ele>113.07532</ele>
        <time>2021-06-30T10:21:51Z</time>
      </trkpt>
      <trkpt lat="44.781483" lon="4.819806">
        <ele>113.33917</ele>
        <time>2021-06-30T10:21:52Z</time>
      </trkpt>
      <trkpt lat="44.781364" lon="4.819329">
        <ele>114.07965</ele>
        <time>2021-06-30T10:21:52Z</time>
      </trkpt>
      <trkpt lat="44.781239" lon="4.818843">
        <ele>115.79413</ele>
        <time>2021-06-30T10:21:53Z</time>
      </trkpt>
      <trkpt lat="44.781116" lon="4.818359">
        <ele>115.54071</ele>
        <time>2021-06-30T10:21:54Z</time>
      </trkpt>
      <trkpt lat="44.780987" lon="4.817887">
        <ele>116.59717</ele>
        <time>2021-06-30T10:21:55Z</time>
      </trkpt>
      <trkpt lat="44.780853" lon="4.817443">
        <ele>117.27795</ele>
        <time>2021-06-30T10:21:56Z</time>
      </trkpt>
      <trkpt lat="44.780712" lon="4.816970">
        <ele>116.45386</ele>
        <time>2021-06-30T10:21:57Z</time>
      </trkpt>
      <trkpt lat="44.780575" lon="4.816505">
        <ele>116.71661</ele>
        <time>2021-06-30T10:21:58Z</time>
      </trkpt>
      <trkpt lat="44.780418" lon="4.816036">
        <ele>115.93433</ele>
        <time>2021-06-30T10:21:59Z</time>
      </trkpt>
      <trkpt lat="44.780270" lon="4.815589">
        <ele>116.14398</ele>
        <time>2021-06-30T10:22:00Z</time>
      </trkpt>
      <trkpt lat="44.780270" lon="4.815589">
        <ele>115.98633</ele>
        <time>2021-06-30T10:22:01Z</time>
      </trkpt>
      <trkpt lat="44.780106" lon="4.815124">
        <ele>115.97412</ele>
        <time>2021-06-30T10:22:02Z</time>
      </trkpt>
      <trkpt lat="44.779945" lon="4.814683">
        <ele>115.10187</ele>
        <time>2021-06-30T10:22:03Z</time>
      </trkpt>
      <trkpt lat="44.779762" lon="4.814202">
        <ele>114.26312</ele>
        <time>2021-06-30T10:22:04Z</time>
      </trkpt>
      <trkpt lat="44.779575" lon="4.813752">
        <ele>114.18250</ele>
        <time>2021-06-30T10:22:05Z</time>
      </trkpt>
      <trkpt lat="44.779385" lon="4.813312">
        <ele>113.48401</ele>
        <time>2021-06-30T10:22:06Z</time>
      </trkpt>
      <trkpt lat="44.779202" lon="4.812886">
        <ele>113.54907</ele>
        <time>2021-06-30T10:22:07Z</time>
      </trkpt>
      <trkpt lat="44.779007" lon="4.812451">
        <ele>112.87408</ele>
        <time>2021-06-30T10:22:08Z</time>
      </trkpt>
      <trkpt lat="44.778812" lon="4.812018">
        <ele>112.27374</ele>
        <time>2021-06-30T10:22:09Z</time>
      </trkpt>
      <trkpt lat="44.778614" lon="4.811570">
        <ele>111.55078</ele>
        <time>2021-06-30T10:22:10Z</time>
      </trkpt>
      <trkpt lat="44.778404" lon="4.811127">
        <ele>111.47668</ele>
        <time>2021-06-30T10:22:12Z</time>
      </trkpt>
      <trkpt lat="44.778183" lon="4.810685">
        <ele>110.10327</ele>
        <time>2021-06-30T10:22:13Z</time>
      </trkpt>
      <trkpt lat="44.777920" lon="4.810199">
        <ele>110.17047</ele>
        <time>2021-06-30T10:22:14Z</time>
      </trkpt>
      <trkpt lat="44.777672" lon="4.809775">
        <ele>109.79468</ele>
        <time>2021-06-30T10:22:15Z</time>
      </trkpt>
      <trkpt lat="44.777409" lon="4.809331">
        <ele>107.45410</ele>
        <time>2021-06-30T10:22:16Z</time>
      </trkpt>
      <trkpt lat="44.777157" lon="4.808920">
        <ele>106.72253</ele>
        <time>2021-06-30T10:22:17Z</time>
      </trkpt>
      <trkpt lat="44.776901" lon="4.808506">
        <ele>106.87000</ele>
        <time>2021-06-30T10:22:18Z</time>
      </trkpt>
      <trkpt lat="44.776646" lon="4.808114">
        <ele>105.70557</ele>
        <time>2021-06-30T10:22:19Z</time>
      </trkpt>
      <trkpt lat="44.776398" lon="4.807745">
        <ele>105.03467</ele>
        <time>2021-06-30T10:22:20Z</time>
      </trkpt>
      <trkpt lat="44.776142" lon="4.807375">
        <ele>104.95264</ele>
        <time>2021-06-30T10:22:21Z</time>
      </trkpt>
      <trkpt lat="44.775879" lon="4.807013">
        <ele>105.08026</ele>
        <time>2021-06-30T10:22:22Z</time>
      </trkpt>
      <trkpt lat="44.775612" lon="4.806648">
        <ele>104.28015</ele>
        <time>2021-06-30T10:22:23Z</time>
      </trkpt>
      <trkpt lat="44.775333" lon="4.806309">
        <ele>104.64850</ele>
        <time>2021-06-30T10:22:24Z</time>
      </trkpt>
      <trkpt lat="44.775078" lon="4.805975">
        <ele>102.73932</ele>
        <time>2021-06-30T10:22:25Z</time>
      </trkpt>
      <trkpt lat="44.774796" lon="4.805645">
        <ele>102.43225</ele>
        <time>2021-06-30T10:22:26Z</time>
      </trkpt>
      <trkpt lat="44.774517" lon="4.805328">
        <ele>102.72101</ele>
        <time>2021-06-30T10:22:27Z</time>
      </trkpt>
      <trkpt lat="44.774227" lon="4.805000">
        <ele>102.05670</ele>
        <time>2021-06-30T10:22:28Z</time>
      </trkpt>
      <trkpt lat="44.773941" lon="4.804675">
        <ele>102.31067</ele>
        <time>2021-06-30T10:22:29Z</time>
      </trkpt>
      <trkpt lat="44.773655" lon="4.804382">
        <ele>102.42389</ele>
        <time>2021-06-30T10:22:30Z</time>
      </trkpt>
      <trkpt lat="44.773384" lon="4.804106">
        <ele>102.58771</ele>
        <time>2021-06-30T10:22:31Z</time>
      </trkpt>
      <trkpt lat="44.773117" lon="4.803845">
        <ele>102.74304</ele>
        <time>2021-06-30T10:22:32Z</time>
      </trkpt>
      <trkpt lat="44.773117" lon="4.803845">
        <ele>102.69257</ele>
        <time>2021-06-30T10:22:33Z</time>
      </trkpt>
      <trkpt lat="44.772846" lon="4.803581">
        <ele>101.41937</ele>
        <time>2021-06-30T10:22:34Z</time>
      </trkpt>
      <trkpt lat="44.772591" lon="4.803329">
        <ele>102.55206</ele>
        <time>2021-06-30T10:22:35Z</time>
      </trkpt>
      <trkpt lat="44.772339" lon="4.803081">
        <ele>102.50720</ele>
        <time>2021-06-30T10:22:36Z</time>
      </trkpt>
      <trkpt lat="44.772053" lon="4.802838">
        <ele>101.88928</ele>
        <time>2021-06-30T10:22:37Z</time>
      </trkpt>
      <trkpt lat="44.771790" lon="4.802611">
        <ele>103.30481</ele>
        <time>2021-06-30T10:22:38Z</time>
      </trkpt>
      <trkpt lat="44.771507" lon="4.802368">
        <ele>103.50269</ele>
        <time>2021-06-30T10:22:39Z</time>
      </trkpt>
      <trkpt lat="44.771214" lon="4.802128">
        <ele>102.96167</ele>
        <time>2021-06-30T10:22:40Z</time>
      </trkpt>
      <trkpt lat="44.770920" lon="4.801897">
        <ele>102.40131</ele>
        <time>2021-06-30T10:22:41Z</time>
      </trkpt>
      <trkpt lat="44.770622" lon="4.801660">
        <ele>104.06409</ele>
        <time>2021-06-30T10:22:42Z</time>
      </trkpt>
      <trkpt lat="44.770336" lon="4.801434">
        <ele>104.66992</ele>
        <time>2021-06-30T10:22:43Z</time>
      </trkpt>
      <trkpt lat="44.770035" lon="4.801208">
        <ele>105.36285</ele>
        <time>2021-06-30T10:22:44Z</time>
      </trkpt>
      <trkpt lat="44.769768" lon="4.801013">
        <ele>105.25360</ele>
        <time>2021-06-30T10:22:45Z</time>
      </trkpt>
      <trkpt lat="44.769508" lon="4.800831">
        <ele>104.64825</ele>
        <time>2021-06-30T10:22:46Z</time>
      </trkpt>
      <trkpt lat="44.769287" lon="4.800675">
        <ele>104.15472</ele>
        <time>2021-06-30T10:22:47Z</time>
      </trkpt>
      <trkpt lat="44.769032" lon="4.800497">
        <ele>103.94800</ele>
        <time>2021-06-30T10:22:47Z</time>
      </trkpt>
      <trkpt lat="44.768696" lon="4.800272">
        <ele>105.82520</ele>
        <time>2021-06-30T10:22:49Z</time>
      </trkpt>
      <trkpt lat="44.768333" lon="4.800039">
        <ele>106.15448</ele>
        <time>2021-06-30T10:22:49Z</time>
      </trkpt>
      <trkpt lat="44.767937" lon="4.799785">
        <ele>106.14612</ele>
        <time>2021-06-30T10:22:51Z</time>
      </trkpt>
      <trkpt lat="44.767616" lon="4.799592">
        <ele>106.76947</ele>
        <time>2021-06-30T10:22:51Z</time>
      </trkpt>
      <trkpt lat="44.767292" lon="4.799391">
        <ele>106.98376</ele>
        <time>2021-06-30T10:22:53Z</time>
      </trkpt>
      <trkpt lat="44.766975" lon="4.799196">
        <ele>106.50751</ele>
        <time>2021-06-30T10:22:54Z</time>
      </trkpt>
      <trkpt lat="44.766640" lon="4.798991">
        <ele>106.61316</ele>
        <time>2021-06-30T10:22:55Z</time>
      </trkpt>
      <trkpt lat="44.766338" lon="4.798838">
        <ele>106.58118</ele>
        <time>2021-06-30T10:22:56Z</time>
      </trkpt>
      <trkpt lat="44.766045" lon="4.798663">
        <ele>106.54309</ele>
        <time>2021-06-30T10:22:57Z</time>
      </trkpt>
      <trkpt lat="44.765743" lon="4.798486">
        <ele>106.32800</ele>
        <time>2021-06-30T10:22:58Z</time>
      </trkpt>
      <trkpt lat="44.765423" lon="4.798302">
        <ele>105.94104</ele>
        <time>2021-06-30T10:22:58Z</time>
      </trkpt>
      <trkpt lat="44.765099" lon="4.798117">
        <ele>105.94952</ele>
        <time>2021-06-30T10:23:00Z</time>
      </trkpt>
      <trkpt lat="44.764790" lon="4.797941">
        <ele>105.76514</ele>
        <time>2021-06-30T10:23:00Z</time>
      </trkpt>
      <trkpt lat="44.764477" lon="4.797764">
        <ele>104.52130</ele>
        <time>2021-06-30T10:23:02Z</time>
      </trkpt>
      <trkpt lat="44.764175" lon="4.797594">
        <ele>104.37915</ele>
        <time>2021-06-30T10:23:03Z</time>
      </trkpt>
      <trkpt lat="44.763851" lon="4.797414">
        <ele>104.47931</ele>
        <time>2021-06-30T10:23:04Z</time>
      </trkpt>
      <trkpt lat="44.763577" lon="4.797263">
        <ele>104.19513</ele>
        <time>2021-06-30T10:23:05Z</time>
      </trkpt>
      <trkpt lat="44.763577" lon="4.797263">
        <ele>103.28937</ele>
        <time>2021-06-30T10:23:05Z</time>
      </trkpt>
      <trkpt lat="44.763264" lon="4.797090">
        <ele>102.83990</ele>
        <time>2021-06-30T10:23:07Z</time>
      </trkpt>
      <trkpt lat="44.762947" lon="4.796917">
        <ele>102.98206</ele>
        <time>2021-06-30T10:23:07Z</time>
      </trkpt>
      <trkpt lat="44.762672" lon="4.796765">
        <ele>102.84436</ele>
        <time>2021-06-30T10:23:09Z</time>
      </trkpt>
      <trkpt lat="44.762348" lon="4.796587">
        <ele>101.78131</ele>
        <time>2021-06-30T10:23:10Z</time>
      </trkpt>
      <trkpt lat="44.762066" lon="4.796432">
        <ele>101.45331</ele>
        <time>2021-06-30T10:23:11Z</time>
      </trkpt>
      <trkpt lat="44.761761" lon="4.796264">
        <ele>101.06525</ele>
        <time>2021-06-30T10:23:11Z</time>
      </trkpt>
      <trkpt lat="44.761444" lon="4.796089">
        <ele>100.32349</ele>
        <time>2021-06-30T10:23:13Z</time>
      </trkpt>
      <trkpt lat="44.761135" lon="4.795917">
        <ele>101.04065</ele>
        <time>2021-06-30T10:23:14Z</time>
      </trkpt>
      <trkpt lat="44.760796" lon="4.795728">
        <ele>100.88318</ele>
        <time>2021-06-30T10:23:15Z</time>
      </trkpt>
      <trkpt lat="44.760464" lon="4.795540">
        <ele>100.05798</ele>
        <time>2021-06-30T10:23:15Z</time>
      </trkpt>
      <trkpt lat="44.760159" lon="4.795378">
        <ele>99.57251</ele>
        <time>2021-06-30T10:23:17Z</time>
      </trkpt>
      <trkpt lat="44.759830" lon="4.795201">
        <ele>99.98792</ele>
        <time>2021-06-30T10:23:18Z</time>
      </trkpt>
      <trkpt lat="44.759537" lon="4.795041">
        <ele>99.95715</ele>
        <time>2021-06-30T10:23:19Z</time>
      </trkpt>
      <trkpt lat="44.759205" lon="4.794863">
        <ele>99.74371</ele>
        <time>2021-06-30T10:23:20Z</time>
      </trkpt>
      <trkpt lat="44.758865" lon="4.794680">
        <ele>99.80688</ele>
        <time>2021-06-30T10:23:20Z</time>
      </trkpt>
      <trkpt lat="44.758549" lon="4.794510">
        <ele>99.84204</ele>
        <time>2021-06-30T10:23:22Z</time>
      </trkpt>
      <trkpt lat="44.758224" lon="4.794335">
        <ele>99.02820</ele>
        <time>2021-06-30T10:23:23Z</time>
      </trkpt>
      <trkpt lat="44.757889" lon="4.794144">
        <ele>99.18103</ele>
        <time>2021-06-30T10:23:24Z</time>
      </trkpt>
      <trkpt lat="44.757545" lon="4.793954">
        <ele>99.22229</ele>
        <time>2021-06-30T10:23:25Z</time>
      </trkpt>
      <trkpt lat="44.757202" lon="4.793765">
        <ele>96.92493</ele>
        <time>2021-06-30T10:23:25Z</time>
      </trkpt>
      <trkpt lat="44.756844" lon="4.793567">
        <ele>96.55298</ele>
        <time>2021-06-30T10:23:27Z</time>
      </trkpt>
      <trkpt lat="44.756500" lon="4.793378">
        <ele>95.26935</ele>
        <time>2021-06-30T10:23:28Z</time>
      </trkpt>
      <trkpt lat="44.756172" lon="4.793204">
        <ele>95.10876</ele>
        <time>2021-06-30T10:23:29Z</time>
      </trkpt>
      <trkpt lat="44.755829" lon="4.793018">
        <ele>94.21466</ele>
        <time>2021-06-30T10:23:30Z</time>
      </trkpt>
      <trkpt lat="44.755478" lon="4.792832">
        <ele>94.07153</ele>
        <time>2021-06-30T10:23:30Z</time>
      </trkpt>
      <trkpt lat="44.755150" lon="4.792655">
        <ele>94.03851</ele>
        <time>2021-06-30T10:23:32Z</time>
      </trkpt>
      <trkpt lat="44.754841" lon="4.792486">
        <ele>93.87427</ele>
        <time>2021-06-30T10:23:33Z</time>
      </trkpt>
      <trkpt lat="44.754505" lon="4.792306">
        <ele>93.44934</ele>
        <time>2021-06-30T10:23:33Z</time>
      </trkpt>
      <trkpt lat="44.754169" lon="4.792124">
        <ele>93.38220</ele>
        <time>2021-06-30T10:23:35Z</time>
      </trkpt>
      <trkpt lat="44.754169" lon="4.792124">
        <ele>94.08923</ele>
        <time>2021-06-30T10:23:35Z</time>
      </trkpt>
      <trkpt lat="44.753838" lon="4.791944">
        <ele>94.01343</ele>
        <time>2021-06-30T10:23:37Z</time>
      </trkpt>
      <trkpt lat="44.753502" lon="4.791761">
        <ele>93.18439</ele>
        <time>2021-06-30T10:23:38Z</time>
      </trkpt>
      <trkpt lat="44.753197" lon="4.791597">
        <ele>93.16400</ele>
        <time>2021-06-30T10:23:38Z</time>
      </trkpt>
      <trkpt lat="44.752872" lon="4.791421">
        <ele>93.66632</ele>
        <time>2021-06-30T10:23:40Z</time>
      </trkpt>
      <trkpt lat="44.752537" lon="4.791238">
        <ele>93.51746</ele>
        <time>2021-06-30T10:23:41Z</time>
      </trkpt>
      <trkpt lat="44.752193" lon="4.791064">
        <ele>93.85010</ele>
        <time>2021-06-30T10:23:42Z</time>
      </trkpt>
      <trkpt lat="44.751862" lon="4.790907">
        <ele>93.55078</ele>
        <time>2021-06-30T10:23:43Z</time>
      </trkpt>
      <trkpt lat="44.751526" lon="4.790748">
        <ele>93.47235</ele>
        <time>2021-06-30T10:23:44Z</time>
      </trkpt>
      <trkpt lat="44.751190" lon="4.790590">
        <ele>92.61462</ele>
        <time>2021-06-30T10:23:45Z</time>
      </trkpt>
      <trkpt lat="44.750839" lon="4.790424">
        <ele>91.02283</ele>
        <time>2021-06-30T10:23:46Z</time>
      </trkpt>
      <trkpt lat="44.750488" lon="4.790272">
        <ele>90.92657</ele>
        <time>2021-06-30T10:23:46Z</time>
      </trkpt>
      <trkpt lat="44.750160" lon="4.790136">
        <ele>90.82928</ele>
        <time>2021-06-30T10:23:48Z</time>
      </trkpt>
      <trkpt lat="44.749844" lon="4.790008">
        <ele>93.11652</ele>
        <time>2021-06-30T10:23:49Z</time>
      </trkpt>
      <trkpt lat="44.749512" lon="4.789877">
        <ele>93.22882</ele>
        <time>2021-06-30T10:23:49Z</time>
      </trkpt>
      <trkpt lat="44.749153" lon="4.789760">
        <ele>93.58521</ele>
        <time>2021-06-30T10:23:51Z</time>
      </trkpt>
      <trkpt lat="44.748810" lon="4.789659">
        <ele>94.92041</ele>
        <time>2021-06-30T10:23:52Z</time>
      </trkpt>
      <trkpt lat="44.748444" lon="4.789550">
        <ele>95.37115</ele>
        <time>2021-06-30T10:23:52Z</time>
      </trkpt>
      <trkpt lat="44.748108" lon="4.789460">
        <ele>95.27167</ele>
        <time>2021-06-30T10:23:54Z</time>
      </trkpt>
      <trkpt lat="44.747768" lon="4.789373">
        <ele>94.53912</ele>
        <time>2021-06-30T10:23:54Z</time>
      </trkpt>
      <trkpt lat="44.747417" lon="4.789295">
        <ele>96.59259</ele>
        <time>2021-06-30T10:23:56Z</time>
      </trkpt>
      <trkpt lat="44.747074" lon="4.789236">
        <ele>96.64856</ele>
        <time>2021-06-30T10:23:57Z</time>
      </trkpt>
      <trkpt lat="44.746727" lon="4.789177">
        <ele>96.48926</ele>
        <time>2021-06-30T10:23:57Z</time>
      </trkpt>
      <trkpt lat="44.746368" lon="4.789118">
        <ele>96.37573</ele>
        <time>2021-06-30T10:23:58Z</time>
      </trkpt>
      <trkpt lat="44.746025" lon="4.789069">
        <ele>96.63519</ele>
        <time>2021-06-30T10:24:00Z</time>
      </trkpt>
      <trkpt lat="44.745712" lon="4.789042">
        <ele>96.10675</ele>
        <time>2021-06-30T10:24:01Z</time>
      </trkpt>
      <trkpt lat="44.745380" lon="4.789016">
        <ele>97.03870</ele>
        <time>2021-06-30T10:24:02Z</time>
      </trkpt>
      <trkpt lat="44.745018" lon="4.788986">
        <ele>97.29822</ele>
        <time>2021-06-30T10:24:02Z</time>
      </trkpt>
      <trkpt lat="44.744656" lon="4.788967">
        <ele>97.73370</ele>
        <time>2021-06-30T10:24:03Z</time>
      </trkpt>
      <trkpt lat="44.744324" lon="4.788953">
        <ele>98.06897</ele>
        <time>2021-06-30T10:24:05Z</time>
      </trkpt>
      <trkpt lat="44.744007" lon="4.788948">
        <ele>98.36023</ele>
        <time>2021-06-30T10:24:06Z</time>
      </trkpt>
      <trkpt lat="44.743687" lon="4.788957">
        <ele>98.56848</ele>
        <time>2021-06-30T10:24:06Z</time>
      </trkpt>
      <trkpt lat="44.743347" lon="4.788967">
        <ele>99.96472</ele>
        <time>2021-06-30T10:24:08Z</time>
      </trkpt>
      <trkpt lat="44.743000" lon="4.788976">
        <ele>100.48047</ele>
        <time>2021-06-30T10:24:08Z</time>
      </trkpt>
      <trkpt lat="44.742638" lon="4.788991">
        <ele>100.62622</ele>
        <time>2021-06-30T10:24:09Z</time>
      </trkpt>
      <trkpt lat="44.742279" lon="4.789020">
        <ele>101.27606</ele>
        <time>2021-06-30T10:24:10Z</time>
      </trkpt>
      <trkpt lat="44.742279" lon="4.789020">
        <ele>101.42975</ele>
        <time>2021-06-30T10:24:11Z</time>
      </trkpt>
      <trkpt lat="44.741901" lon="4.789056">
        <ele>100.36987</ele>
        <time>2021-06-30T10:24:12Z</time>
      </trkpt>
      <trkpt lat="44.741543" lon="4.789096">
        <ele>100.17609</ele>
        <time>2021-06-30T10:24:14Z</time>
      </trkpt>
      <trkpt lat="44.741196" lon="4.789134">
        <ele>102.43225</ele>
        <time>2021-06-30T10:24:15Z</time>
      </trkpt>
      <trkpt lat="44.740829" lon="4.789178">
        <ele>103.13562</ele>
        <time>2021-06-30T10:24:16Z</time>
      </trkpt>
      <trkpt lat="44.740482" lon="4.789224">
        <ele>103.48163</ele>
        <time>2021-06-30T10:24:17Z</time>
      </trkpt>
      <trkpt lat="44.740101" lon="4.789273">
        <ele>103.55176</ele>
        <time>2021-06-30T10:24:18Z</time>
      </trkpt>
      <trkpt lat="44.739738" lon="4.789326">
        <ele>104.79742</ele>
        <time>2021-06-30T10:24:19Z</time>
      </trkpt>
      <trkpt lat="44.739368" lon="4.789373">
        <ele>105.24023</ele>
        <time>2021-06-30T10:24:19Z</time>
      </trkpt>
      <trkpt lat="44.739010" lon="4.789419">
        <ele>104.74707</ele>
        <time>2021-06-30T10:24:20Z</time>
      </trkpt>
      <trkpt lat="44.738647" lon="4.789457">
        <ele>105.19177</ele>
        <time>2021-06-30T10:24:22Z</time>
      </trkpt>
      <trkpt lat="44.738300" lon="4.789493">
        <ele>105.66980</ele>
        <time>2021-06-30T10:24:23Z</time>
      </trkpt>
      <trkpt lat="44.737957" lon="4.789528">
        <ele>105.85565</ele>
        <time>2021-06-30T10:24:23Z</time>
      </trkpt>
      <trkpt lat="44.737591" lon="4.789559">
        <ele>106.79614</ele>
        <time>2021-06-30T10:24:25Z</time>
      </trkpt>
      <trkpt lat="44.737221" lon="4.789588">
        <ele>106.78308</ele>
        <time>2021-06-30T10:24:26Z</time>
      </trkpt>
      <trkpt lat="44.736904" lon="4.789604">
        <ele>107.90094</ele>
        <time>2021-06-30T10:24:27Z</time>
      </trkpt>
      <trkpt lat="44.736549" lon="4.789616">
        <ele>107.67566</ele>
        <time>2021-06-30T10:24:28Z</time>
      </trkpt>
      <trkpt lat="44.736198" lon="4.789618">
        <ele>109.63403</ele>
        <time>2021-06-30T10:24:28Z</time>
      </trkpt>
      <trkpt lat="44.735851" lon="4.789610">
        <ele>108.99994</ele>
        <time>2021-06-30T10:24:29Z</time>
      </trkpt>
      <trkpt lat="44.735500" lon="4.789599">
        <ele>108.98157</ele>
        <time>2021-06-30T10:24:31Z</time>
      </trkpt>
      <trkpt lat="44.735168" lon="4.789577">
        <ele>109.06268</ele>
        <time>2021-06-30T10:24:31Z</time>
      </trkpt>
      <trkpt lat="44.734821" lon="4.789550">
        <ele>108.56396</ele>
        <time>2021-06-30T10:24:32Z</time>
      </trkpt>
      <trkpt lat="44.734486" lon="4.789514">
        <ele>109.03040</ele>
        <time>2021-06-30T10:24:34Z</time>
      </trkpt>
      <trkpt lat="44.734161" lon="4.789480">
        <ele>109.30042</ele>
        <time>2021-06-30T10:24:35Z</time>
      </trkpt>
      <trkpt lat="44.733814" lon="4.789429">
        <ele>108.23914</ele>
        <time>2021-06-30T10:24:36Z</time>
      </trkpt>
      <trkpt lat="44.733421" lon="4.789359">
        <ele>108.67542</ele>
        <time>2021-06-30T10:24:36Z</time>
      </trkpt>
      <trkpt lat="44.733082" lon="4.789298">
        <ele>108.48773</ele>
        <time>2021-06-30T10:24:38Z</time>
      </trkpt>
      <trkpt lat="44.732738" lon="4.789226">
        <ele>108.76526</ele>
        <time>2021-06-30T10:24:39Z</time>
      </trkpt>
      <trkpt lat="44.732380" lon="4.789141">
        <ele>108.62982</ele>
        <time>2021-06-30T10:24:40Z</time>
      </trkpt>
      <trkpt lat="44.732021" lon="4.789056">
        <ele>108.43738</ele>
        <time>2021-06-30T10:24:41Z</time>
      </trkpt>
      <trkpt lat="44.731701" lon="4.788960">
        <ele>108.55560</ele>
        <time>2021-06-30T10:24:42Z</time>
      </trkpt>
      <trkpt lat="44.731701" lon="4.788960">
        <ele>108.52936</ele>
        <time>2021-06-30T10:24:42Z</time>
      </trkpt>
      <trkpt lat="44.731365" lon="4.788858">
        <ele>108.39148</ele>
        <time>2021-06-30T10:24:43Z</time>
      </trkpt>
      <trkpt lat="44.731030" lon="4.788746">
        <ele>107.51917</ele>
        <time>2021-06-30T10:24:44Z</time>
      </trkpt>
      <trkpt lat="44.730701" lon="4.788627">
        <ele>107.35583</ele>
        <time>2021-06-30T10:24:45Z</time>
      </trkpt>
      <trkpt lat="44.730324" lon="4.788490">
        <ele>106.78662</ele>
        <time>2021-06-30T10:24:47Z</time>
      </trkpt>
      <trkpt lat="44.729988" lon="4.788363">
        <ele>105.97992</ele>
        <time>2021-06-30T10:24:48Z</time>
      </trkpt>
      <trkpt lat="44.729633" lon="4.788223">
        <ele>105.83185</ele>
        <time>2021-06-30T10:24:49Z</time>
      </trkpt>
      <trkpt lat="44.729275" lon="4.788077">
        <ele>105.37561</ele>
        <time>2021-06-30T10:24:50Z</time>
      </trkpt>
      <trkpt lat="44.728912" lon="4.787925">
        <ele>105.27838</ele>
        <time>2021-06-30T10:24:50Z</time>
      </trkpt>
      <trkpt lat="44.728588" lon="4.787789">
        <ele>105.66608</ele>
        <time>2021-06-30T10:24:52Z</time>
      </trkpt>
      <trkpt lat="44.728279" lon="4.787664">
        <ele>105.06281</ele>
        <time>2021-06-30T10:24:53Z</time>
      </trkpt>
      <trkpt lat="44.727978" lon="4.787541">
        <ele>104.74927</ele>
        <time>2021-06-30T10:24:54Z</time>
      </trkpt>
      <trkpt lat="44.727650" lon="4.787408">
        <ele>104.47766</ele>
        <time>2021-06-30T10:24:55Z</time>
      </trkpt>
      <trkpt lat="44.727310" lon="4.787272">
        <ele>104.63049</ele>
        <time>2021-06-30T10:24:56Z</time>
      </trkpt>
      <trkpt lat="44.727001" lon="4.787149">
        <ele>103.25891</ele>
        <time>2021-06-30T10:24:57Z</time>
      </trkpt>
      <trkpt lat="44.726688" lon="4.787029">
        <ele>104.12024</ele>
        <time>2021-06-30T10:24:58Z</time>
      </trkpt>
      <trkpt lat="44.726368" lon="4.786906">
        <ele>103.90088</ele>
        <time>2021-06-30T10:24:59Z</time>
      </trkpt>
      <trkpt lat="44.726048" lon="4.786788">
        <ele>105.58185</ele>
        <time>2021-06-30T10:25:00Z</time>
      </trkpt>
      <trkpt lat="44.725697" lon="4.786661">
        <ele>104.74353</ele>
        <time>2021-06-30T10:25:01Z</time>
      </trkpt>
      <trkpt lat="44.725357" lon="4.786551">
        <ele>105.99664</ele>
        <time>2021-06-30T10:25:01Z</time>
      </trkpt>
      <trkpt lat="44.725029" lon="4.786452">
        <ele>106.22754</ele>
        <time>2021-06-30T10:25:03Z</time>
      </trkpt>
      <trkpt lat="44.724697" lon="4.786365">
        <ele>105.52649</ele>
        <time>2021-06-30T10:25:04Z</time>
      </trkpt>
      <trkpt lat="44.724365" lon="4.786285">
        <ele>105.38794</ele>
        <time>2021-06-30T10:25:05Z</time>
      </trkpt>
      <trkpt lat="44.724014" lon="4.786215">
        <ele>105.42090</ele>
        <time>2021-06-30T10:25:06Z</time>
      </trkpt>
      <trkpt lat="44.723656" lon="4.786144">
        <ele>104.63721</ele>
        <time>2021-06-30T10:25:06Z</time>
      </trkpt>
      <trkpt lat="44.723305" lon="4.786077">
        <ele>104.37250</ele>
        <time>2021-06-30T10:25:08Z</time>
      </trkpt>
      <trkpt lat="44.722954" lon="4.786020">
        <ele>104.07715</ele>
        <time>2021-06-30T10:25:08Z</time>
      </trkpt>
      <trkpt lat="44.722584" lon="4.785962">
        <ele>102.49390</ele>
        <time>2021-06-30T10:25:10Z</time>
      </trkpt>
      <trkpt lat="44.722237" lon="4.785912">
        <ele>102.68994</ele>
        <time>2021-06-30T10:25:11Z</time>
      </trkpt>
      <trkpt lat="44.722237" lon="4.785912">
        <ele>101.70471</ele>
        <time>2021-06-30T10:25:11Z</time>
      </trkpt>
      <trkpt lat="44.721882" lon="4.785862">
        <ele>102.07318</ele>
        <time>2021-06-30T10:25:13Z</time>
      </trkpt>
      <trkpt lat="44.721508" lon="4.785809">
        <ele>101.48907</ele>
        <time>2021-06-30T10:25:14Z</time>
      </trkpt>
      <trkpt lat="44.721153" lon="4.785759">
        <ele>101.59192</ele>
        <time>2021-06-30T10:25:14Z</time>
      </trkpt>
      <trkpt lat="44.720787" lon="4.785707">
        <ele>101.03333</ele>
        <time>2021-06-30T10:25:16Z</time>
      </trkpt>
      <trkpt lat="44.720440" lon="4.785657">
        <ele>100.85693</ele>
        <time>2021-06-30T10:25:17Z</time>
      </trkpt>
      <trkpt lat="44.720081" lon="4.785608">
        <ele>100.58044</ele>
        <time>2021-06-30T10:25:17Z</time>
      </trkpt>
      <trkpt lat="44.719730" lon="4.785562">
        <ele>100.31238</ele>
        <time>2021-06-30T10:25:19Z</time>
      </trkpt>
      <trkpt lat="44.719379" lon="4.785516">
        <ele>100.43134</ele>
        <time>2021-06-30T10:25:20Z</time>
      </trkpt>
      <trkpt lat="44.719044" lon="4.785473">
        <ele>100.35303</ele>
        <time>2021-06-30T10:25:21Z</time>
      </trkpt>
      <trkpt lat="44.718693" lon="4.785427">
        <ele>100.26428</ele>
        <time>2021-06-30T10:25:21Z</time>
      </trkpt>
      <trkpt lat="44.718338" lon="4.785383">
        <ele>100.67804</ele>
        <time>2021-06-30T10:25:23Z</time>
      </trkpt>
      <trkpt lat="44.718002" lon="4.785341">
        <ele>100.43372</ele>
        <time>2021-06-30T10:25:24Z</time>
      </trkpt>
      <trkpt lat="44.717651" lon="4.785298">
        <ele>99.48053</ele>
        <time>2021-06-30T10:25:25Z</time>
      </trkpt>
      <trkpt lat="44.717304" lon="4.785256">
        <ele>99.61304</ele>
        <time>2021-06-30T10:25:25Z</time>
      </trkpt>
      <trkpt lat="44.716961" lon="4.785214">
        <ele>99.87415</ele>
        <time>2021-06-30T10:25:27Z</time>
      </trkpt>
      <trkpt lat="44.716621" lon="4.785172">
        <ele>99.13837</ele>
        <time>2021-06-30T10:25:28Z</time>
      </trkpt>
      <trkpt lat="44.716278" lon="4.785140">
        <ele>99.55017</ele>
        <time>2021-06-30T10:25:29Z</time>
      </trkpt>
      <trkpt lat="44.715897" lon="4.785106">
        <ele>100.08667</ele>
        <time>2021-06-30T10:25:29Z</time>
      </trkpt>
      <trkpt lat="44.715549" lon="4.785083">
        <ele>99.91943</ele>
        <time>2021-06-30T10:25:31Z</time>
      </trkpt>
      <trkpt lat="44.715199" lon="4.785065">
        <ele>100.02728</ele>
        <time>2021-06-30T10:25:31Z</time>
      </trkpt>
      <trkpt lat="44.714836" lon="4.785045">
        <ele>99.78564</ele>
        <time>2021-06-30T10:25:33Z</time>
      </trkpt>
      <trkpt lat="44.714478" lon="4.785026">
        <ele>99.32153</ele>
        <time>2021-06-30T10:25:34Z</time>
      </trkpt>
      <trkpt lat="44.714142" lon="4.785013">
        <ele>98.53723</ele>
        <time>2021-06-30T10:25:34Z</time>
      </trkpt>
      <trkpt lat="44.713791" lon="4.785002">
        <ele>99.28345</ele>
        <time>2021-06-30T10:25:36Z</time>
      </trkpt>
      <trkpt lat="44.713436" lon="4.784999">
        <ele>98.99017</ele>
        <time>2021-06-30T10:25:36Z</time>
      </trkpt>
      <trkpt lat="44.713017" lon="4.785005">
        <ele>97.56207</ele>
        <time>2021-06-30T10:25:38Z</time>
      </trkpt>
      <trkpt lat="44.712696" lon="4.785010">
        <ele>97.45587</ele>
        <time>2021-06-30T10:25:38Z</time>
      </trkpt>
      <trkpt lat="44.712696" lon="4.785010">
        <ele>96.93842</ele>
        <time>2021-06-30T10:25:39Z</time>
      </trkpt>
      <trkpt lat="44.712341" lon="4.785017">
        <ele>97.15149</ele>
        <time>2021-06-30T10:25:40Z</time>
      </trkpt>
      <trkpt lat="44.711952" lon="4.785025">
        <ele>97.00031</ele>
        <time>2021-06-30T10:25:41Z</time>
      </trkpt>
      <trkpt lat="44.711609" lon="4.785042">
        <ele>96.97327</ele>
        <time>2021-06-30T10:25:42Z</time>
      </trkpt>
      <trkpt lat="44.711235" lon="4.785067">
        <ele>96.69098</ele>
        <time>2021-06-30T10:25:43Z</time>
      </trkpt>
      <trkpt lat="44.710869" lon="4.785092">
        <ele>96.51929</ele>
        <time>2021-06-30T10:25:44Z</time>
      </trkpt>
      <trkpt lat="44.710533" lon="4.785124">
        <ele>94.79395</ele>
        <time>2021-06-30T10:25:45Z</time>
      </trkpt>
      <trkpt lat="44.710163" lon="4.785159">
        <ele>94.53198</ele>
        <time>2021-06-30T10:25:46Z</time>
      </trkpt>
      <trkpt lat="44.709820" lon="4.785192">
        <ele>93.89581</ele>
        <time>2021-06-30T10:25:47Z</time>
      </trkpt>
      <trkpt lat="44.709454" lon="4.785236">
        <ele>93.57202</ele>
        <time>2021-06-30T10:25:48Z</time>
      </trkpt>
      <trkpt lat="44.709122" lon="4.785279">
        <ele>93.46503</ele>
        <time>2021-06-30T10:25:49Z</time>
      </trkpt>
      <trkpt lat="44.708775" lon="4.785329">
        <ele>93.09351</ele>
        <time>2021-06-30T10:25:50Z</time>
      </trkpt>
      <trkpt lat="44.708439" lon="4.785378">
        <ele>93.89349</ele>
        <time>2021-06-30T10:25:51Z</time>
      </trkpt>
      <trkpt lat="44.708088" lon="4.785428">
        <ele>94.22418</ele>
        <time>2021-06-30T10:25:52Z</time>
      </trkpt>
      <trkpt lat="44.707745" lon="4.785487">
        <ele>94.02704</ele>
        <time>2021-06-30T10:25:53Z</time>
      </trkpt>
      <trkpt lat="44.707394" lon="4.785547">
        <ele>93.31940</ele>
        <time>2021-06-30T10:25:54Z</time>
      </trkpt>
      <trkpt lat="44.707054" lon="4.785608">
        <ele>94.29388</ele>
        <time>2021-06-30T10:25:55Z</time>
      </trkpt>
      <trkpt lat="44.706661" lon="4.785688">
        <ele>94.93024</ele>
        <time>2021-06-30T10:25:56Z</time>
      </trkpt>
      <trkpt lat="44.706310" lon="4.785760">
        <ele>95.02588</ele>
        <time>2021-06-30T10:25:57Z</time>
      </trkpt>
      <trkpt lat="44.705971" lon="4.785835">
        <ele>94.43323</ele>
        <time>2021-06-30T10:25:58Z</time>
      </trkpt>
      <trkpt lat="44.705631" lon="4.785917">
        <ele>94.55969</ele>
        <time>2021-06-30T10:25:59Z</time>
      </trkpt>
      <trkpt lat="44.705257" lon="4.786008">
        <ele>95.07715</ele>
        <time>2021-06-30T10:26:00Z</time>
      </trkpt>
      <trkpt lat="44.704918" lon="4.786090">
        <ele>93.85065</ele>
        <time>2021-06-30T10:26:01Z</time>
      </trkpt>
      <trkpt lat="44.704571" lon="4.786174">
        <ele>92.99829</ele>
        <time>2021-06-30T10:26:02Z</time>
      </trkpt>
      <trkpt lat="44.704220" lon="4.786258">
        <ele>91.33289</ele>
        <time>2021-06-30T10:26:03Z</time>
      </trkpt>
      <trkpt lat="44.703857" lon="4.786347">
        <ele>90.52106</ele>
        <time>2021-06-30T10:26:04Z</time>
      </trkpt>
      <trkpt lat="44.703491" lon="4.786438">
        <ele>90.60278</ele>
        <time>2021-06-30T10:26:05Z</time>
      </trkpt>
      <trkpt lat="44.703152" lon="4.786527">
        <ele>92.05328</ele>
        <time>2021-06-30T10:26:06Z</time>
      </trkpt>
      <trkpt lat="44.702805" lon="4.786618">
        <ele>91.68372</ele>
        <time>2021-06-30T10:26:07Z</time>
      </trkpt>
      <trkpt lat="44.702465" lon="4.786706">
        <ele>93.66656</ele>
        <time>2021-06-30T10:26:08Z</time>
      </trkpt>
      <trkpt lat="44.702106" lon="4.786800">
        <ele>93.76099</ele>
        <time>2021-06-30T10:26:09Z</time>
      </trkpt>
      <trkpt lat="44.701752" lon="4.786894">
        <ele>93.09991</ele>
        <time>2021-06-30T10:26:10Z</time>
      </trkpt>
      <trkpt lat="44.701397" lon="4.786989">
        <ele>93.03217</ele>
        <time>2021-06-30T10:26:11Z</time>
      </trkpt>
      <trkpt lat="44.701050" lon="4.787081">
        <ele>93.01794</ele>
        <time>2021-06-30T10:26:12Z</time>
      </trkpt>
      <trkpt lat="44.701050" lon="4.787081">
        <ele>92.19617</ele>
        <time>2021-06-30T10:26:13Z</time>
      </trkpt>
      <trkpt lat="44.700687" lon="4.787177">
        <ele>91.76758</ele>
        <time>2021-06-30T10:26:14Z</time>
      </trkpt>
      <trkpt lat="44.700367" lon="4.787263">
        <ele>91.22894</ele>
        <time>2021-06-30T10:26:15Z</time>
      </trkpt>
      <trkpt lat="44.700031" lon="4.787352">
        <ele>91.33105</ele>
        <time>2021-06-30T10:26:16Z</time>
      </trkpt>
      <trkpt lat="44.699665" lon="4.787449">
        <ele>91.68732</ele>
        <time>2021-06-30T10:26:17Z</time>
      </trkpt>
      <trkpt lat="44.699310" lon="4.787543">
        <ele>90.54199</ele>
        <time>2021-06-30T10:26:18Z</time>
      </trkpt>
      <trkpt lat="44.698967" lon="4.787633">
        <ele>91.20074</ele>
        <time>2021-06-30T10:26:19Z</time>
      </trkpt>
      <trkpt lat="44.698620" lon="4.787724">
        <ele>92.59674</ele>
        <time>2021-06-30T10:26:20Z</time>
      </trkpt>
      <trkpt lat="44.698296" lon="4.787813">
        <ele>94.28223</ele>
        <time>2021-06-30T10:26:21Z</time>
      </trkpt>
      <trkpt lat="44.697914" lon="4.787925">
        <ele>92.99640</ele>
        <time>2021-06-30T10:26:22Z</time>
      </trkpt>
      <trkpt lat="44.697586" lon="4.788033">
        <ele>92.91809</ele>
        <time>2021-06-30T10:26:23Z</time>
      </trkpt>
      <trkpt lat="44.697227" lon="4.788160">
        <ele>93.03467</ele>
        <time>2021-06-30T10:26:24Z</time>
      </trkpt>
      <trkpt lat="44.696899" lon="4.788276">
        <ele>92.92737</ele>
        <time>2021-06-30T10:26:25Z</time>
      </trkpt>
      <trkpt lat="44.696548" lon="4.788400">
        <ele>91.70490</ele>
        <time>2021-06-30T10:26:27Z</time>
      </trkpt>
      <trkpt lat="44.696182" lon="4.788530">
        <ele>91.36145</ele>
        <time>2021-06-30T10:26:27Z</time>
      </trkpt>
      <trkpt lat="44.695843" lon="4.788650">
        <ele>91.78552</ele>
        <time>2021-06-30T10:26:28Z</time>
      </trkpt>
      <trkpt lat="44.695503" lon="4.788780">
        <ele>90.43384</ele>
        <time>2021-06-30T10:26:29Z</time>
      </trkpt>
      <trkpt lat="44.695148" lon="4.788916">
        <ele>90.70428</ele>
        <time>2021-06-30T10:26:30Z</time>
      </trkpt>
      <trkpt lat="44.694798" lon="4.789061">
        <ele>89.26514</ele>
        <time>2021-06-30T10:26:32Z</time>
      </trkpt>
      <trkpt lat="44.694477" lon="4.789204">
        <ele>89.03784</ele>
        <time>2021-06-30T10:26:32Z</time>
      </trkpt>
      <trkpt lat="44.694141" lon="4.789359">
        <ele>89.09631</ele>
        <time>2021-06-30T10:26:33Z</time>
      </trkpt>
      <trkpt lat="44.693802" lon="4.789513">
        <ele>89.27667</ele>
        <time>2021-06-30T10:26:34Z</time>
      </trkpt>
      <trkpt lat="44.693462" lon="4.789670">
        <ele>89.10083</ele>
        <time>2021-06-30T10:26:35Z</time>
      </trkpt>
      <trkpt lat="44.693111" lon="4.789845">
        <ele>90.04285</ele>
        <time>2021-06-30T10:26:36Z</time>
      </trkpt>
      <trkpt lat="44.692764" lon="4.790030">
        <ele>89.75110</ele>
        <time>2021-06-30T10:26:38Z</time>
      </trkpt>
      <trkpt lat="44.692436" lon="4.790206">
        <ele>87.93304</ele>
        <time>2021-06-30T10:26:38Z</time>
      </trkpt>
      <trkpt lat="44.692108" lon="4.790383">
        <ele>88.31354</ele>
        <time>2021-06-30T10:26:40Z</time>
      </trkpt>
      <trkpt lat="44.691765" lon="4.790579">
        <ele>88.18811</ele>
        <time>2021-06-30T10:26:40Z</time>
      </trkpt>
      <trkpt lat="44.691437" lon="4.790771">
        <ele>87.46289</ele>
        <time>2021-06-30T10:26:41Z</time>
      </trkpt>
      <trkpt lat="44.691124" lon="4.790965">
        <ele>87.50195</ele>
        <time>2021-06-30T10:26:42Z</time>
      </trkpt>
      <trkpt lat="44.690796" lon="4.791170">
        <ele>86.58063</ele>
        <time>2021-06-30T10:26:43Z</time>
      </trkpt>
      <trkpt lat="44.690460" lon="4.791390">
        <ele>86.73694</ele>
        <time>2021-06-30T10:26:45Z</time>
      </trkpt>
      <trkpt lat="44.690128" lon="4.791611">
        <ele>88.49615</ele>
        <time>2021-06-30T10:26:45Z</time>
      </trkpt>
      <trkpt lat="44.689796" lon="4.791832">
        <ele>89.33887</ele>
        <time>2021-06-30T10:26:46Z</time>
      </trkpt>
      <trkpt lat="44.689480" lon="4.792045">
        <ele>89.60840</ele>
        <time>2021-06-30T10:26:47Z</time>
      </trkpt>
      <trkpt lat="44.689148" lon="4.792285">
        <ele>89.06506</ele>
        <time>2021-06-30T10:26:48Z</time>
      </trkpt>
      <trkpt lat="44.688831" lon="4.792512">
        <ele>90.00537</ele>
        <time>2021-06-30T10:26:49Z</time>
      </trkpt>
      <trkpt lat="44.688831" lon="4.792512">
        <ele>90.02655</ele>
        <time>2021-06-30T10:26:50Z</time>
      </trkpt>
      <trkpt lat="44.688492" lon="4.792761">
        <ele>89.09094</ele>
        <time>2021-06-30T10:26:52Z</time>
      </trkpt>
      <trkpt lat="44.688164" lon="4.792999">
        <ele>89.00165</ele>
        <time>2021-06-30T10:26:53Z</time>
      </trkpt>
      <trkpt lat="44.687817" lon="4.793253">
        <ele>88.79932</ele>
        <time>2021-06-30T10:26:53Z</time>
      </trkpt>
      <trkpt lat="44.687489" lon="4.793496">
        <ele>88.84418</ele>
        <time>2021-06-30T10:26:54Z</time>
      </trkpt>
      <trkpt lat="44.687180" lon="4.793727">
        <ele>89.66229</ele>
        <time>2021-06-30T10:26:55Z</time>
      </trkpt>
      <trkpt lat="44.686886" lon="4.793944">
        <ele>90.53766</ele>
        <time>2021-06-30T10:26:56Z</time>
      </trkpt>
      <trkpt lat="44.686535" lon="4.794205">
        <ele>88.99164</ele>
        <time>2021-06-30T10:26:57Z</time>
      </trkpt>
      <trkpt lat="44.686214" lon="4.794439">
        <ele>88.89746</ele>
        <time>2021-06-30T10:26:58Z</time>
      </trkpt>
      <trkpt lat="44.685879" lon="4.794678">
        <ele>88.45898</ele>
        <time>2021-06-30T10:26:59Z</time>
      </trkpt>
      <trkpt lat="44.685551" lon="4.794909">
        <ele>88.04730</ele>
        <time>2021-06-30T10:27:01Z</time>
      </trkpt>
      <trkpt lat="44.685238" lon="4.795123">
        <ele>87.87268</ele>
        <time>2021-06-30T10:27:01Z</time>
      </trkpt>
      <trkpt lat="44.684906" lon="4.795330">
        <ele>87.79797</ele>
        <time>2021-06-30T10:27:02Z</time>
      </trkpt>
      <trkpt lat="44.684582" lon="4.795531">
        <ele>87.57397</ele>
        <time>2021-06-30T10:27:03Z</time>
      </trkpt>
      <trkpt lat="44.684235" lon="4.795722">
        <ele>87.85901</ele>
        <time>2021-06-30T10:27:05Z</time>
      </trkpt>
      <trkpt lat="44.683903" lon="4.795903">
        <ele>86.80737</ele>
        <time>2021-06-30T10:27:05Z</time>
      </trkpt>
      <trkpt lat="44.683563" lon="4.796082">
        <ele>86.64935</ele>
        <time>2021-06-30T10:27:07Z</time>
      </trkpt>
      <trkpt lat="44.683224" lon="4.796244">
        <ele>86.20062</ele>
        <time>2021-06-30T10:27:07Z</time>
      </trkpt>
      <trkpt lat="44.682873" lon="4.796404">
        <ele>86.37640</ele>
        <time>2021-06-30T10:27:08Z</time>
      </trkpt>
      <trkpt lat="44.682541" lon="4.796554">
        <ele>85.93256</ele>
        <time>2021-06-30T10:27:09Z</time>
      </trkpt>
      <trkpt lat="44.682209" lon="4.796684">
        <ele>85.71021</ele>
        <time>2021-06-30T10:27:10Z</time>
      </trkpt>
      <trkpt lat="44.681847" lon="4.796824">
        <ele>86.06458</ele>
        <time>2021-06-30T10:27:11Z</time>
      </trkpt>
      <trkpt lat="44.681499" lon="4.796944">
        <ele>86.34338</ele>
        <time>2021-06-30T10:27:12Z</time>
      </trkpt>
      <trkpt lat="44.681152" lon="4.797053">
        <ele>86.32739</ele>
        <time>2021-06-30T10:27:13Z</time>
      </trkpt>
      <trkpt lat="44.680809" lon="4.797152">
        <ele>86.56738</ele>
        <time>2021-06-30T10:27:15Z</time>
      </trkpt>
      <trkpt lat="44.680454" lon="4.797236">
        <ele>87.06775</ele>
        <time>2021-06-30T10:27:15Z</time>
      </trkpt>
      <trkpt lat="44.680111" lon="4.797291">
        <ele>86.88361</ele>
        <time>2021-06-30T10:27:16Z</time>
      </trkpt>
      <trkpt lat="44.679749" lon="4.797348">
        <ele>86.35303</ele>
        <time>2021-06-30T10:27:17Z</time>
      </trkpt>
      <trkpt lat="44.679386" lon="4.797418">
        <ele>86.84058</ele>
        <time>2021-06-30T10:27:18Z</time>
      </trkpt>
      <trkpt lat="44.679050" lon="4.797493">
        <ele>87.94208</ele>
        <time>2021-06-30T10:27:20Z</time>
      </trkpt>
      <trkpt lat="44.678696" lon="4.797572">
        <ele>87.86200</ele>
        <time>2021-06-30T10:27:20Z</time>
      </trkpt>
      <trkpt lat="44.678341" lon="4.797632">
        <ele>87.89746</ele>
        <time>2021-06-30T10:27:21Z</time>
      </trkpt>
      <trkpt lat="44.677998" lon="4.797669">
        <ele>88.49292</ele>
        <time>2021-06-30T10:27:22Z</time>
      </trkpt>
      <trkpt lat="44.677624" lon="4.797684">
        <ele>89.12280</ele>
        <time>2021-06-30T10:27:23Z</time>
      </trkpt>
      <trkpt lat="44.677242" lon="4.797700">
        <ele>89.17883</ele>
        <time>2021-06-30T10:27:25Z</time>
      </trkpt>
      <trkpt lat="44.677242" lon="4.797700">
        <ele>89.59937</ele>
        <time>2021-06-30T10:27:25Z</time>
      </trkpt>
      <trkpt lat="44.676868" lon="4.797697">
        <ele>89.54102</ele>
        <time>2021-06-30T10:27:26Z</time>
      </trkpt>
      <trkpt lat="44.676495" lon="4.797678">
        <ele>89.50623</ele>
        <time>2021-06-30T10:27:28Z</time>
      </trkpt>
      <trkpt lat="44.676151" lon="4.797660">
        <ele>90.67126</ele>
        <time>2021-06-30T10:27:28Z</time>
      </trkpt>
      <trkpt lat="44.675774" lon="4.797638">
        <ele>90.70819</ele>
        <time>2021-06-30T10:27:29Z</time>
      </trkpt>
      <trkpt lat="44.675419" lon="4.797614">
        <ele>89.18018</ele>
        <time>2021-06-30T10:27:30Z</time>
      </trkpt>
      <trkpt lat="44.675053" lon="4.797588">
        <ele>88.86926</ele>
        <time>2021-06-30T10:27:31Z</time>
      </trkpt>
      <trkpt lat="44.674725" lon="4.797561">
        <ele>87.25476</ele>
        <time>2021-06-30T10:27:32Z</time>
      </trkpt>
      <trkpt lat="44.674351" lon="4.797529">
        <ele>87.05493</ele>
        <time>2021-06-30T10:27:34Z</time>
      </trkpt>
      <trkpt lat="44.673973" lon="4.797498">
        <ele>87.70178</ele>
        <time>2021-06-30T10:27:34Z</time>
      </trkpt>
      <trkpt lat="44.673626" lon="4.797470">
        <ele>87.91266</ele>
        <time>2021-06-30T10:27:35Z</time>
      </trkpt>
      <trkpt lat="44.673264" lon="4.797441">
        <ele>87.32983</ele>
        <time>2021-06-30T10:27:36Z</time>
      </trkpt>
      <trkpt lat="44.672901" lon="4.797414">
        <ele>87.22510</ele>
        <time>2021-06-30T10:27:37Z</time>
      </trkpt>
      <trkpt lat="44.672516" lon="4.797386">
        <ele>87.95441</ele>
        <time>2021-06-30T10:27:38Z</time>
      </trkpt>
      <trkpt lat="44.672161" lon="4.797358">
        <ele>88.07373</ele>
        <time>2021-06-30T10:27:39Z</time>
      </trkpt>
      <trkpt lat="44.671806" lon="4.797327">
        <ele>89.42804</ele>
        <time>2021-06-30T10:27:40Z</time>
      </trkpt>
      <trkpt lat="44.671467" lon="4.797297">
        <ele>89.65900</ele>
        <time>2021-06-30T10:27:41Z</time>
      </trkpt>
      <trkpt lat="44.671120" lon="4.797267">
        <ele>90.33643</ele>
        <time>2021-06-30T10:27:42Z</time>
      </trkpt>
      <trkpt lat="44.670780" lon="4.797234">
        <ele>90.55481</ele>
        <time>2021-06-30T10:27:43Z</time>
      </trkpt>
      <trkpt lat="44.670441" lon="4.797201">
        <ele>91.58301</ele>
        <time>2021-06-30T10:27:44Z</time>
      </trkpt>
      <trkpt lat="44.670063" lon="4.797160">
        <ele>92.34082</ele>
        <time>2021-06-30T10:27:45Z</time>
      </trkpt>
      <trkpt lat="44.669678" lon="4.797127">
        <ele>93.31482</ele>
        <time>2021-06-30T10:27:46Z</time>
      </trkpt>
      <trkpt lat="44.669308" lon="4.797095">
        <ele>94.76636</ele>
        <time>2021-06-30T10:27:47Z</time>
      </trkpt>
      <trkpt lat="44.668938" lon="4.797063">
        <ele>94.33167</ele>
        <time>2021-06-30T10:27:48Z</time>
      </trkpt>
      <trkpt lat="44.668564" lon="4.797031">
        <ele>96.17584</ele>
        <time>2021-06-30T10:27:49Z</time>
      </trkpt>
      <trkpt lat="44.668209" lon="4.797000">
        <ele>97.01300</ele>
        <time>2021-06-30T10:27:50Z</time>
      </trkpt>
      <trkpt lat="44.668209" lon="4.797000">
        <ele>97.21277</ele>
        <time>2021-06-30T10:27:51Z</time>
      </trkpt>
      <trkpt lat="44.667831" lon="4.796968">
        <ele>98.96619</ele>
        <time>2021-06-30T10:27:52Z</time>
      </trkpt>
      <trkpt lat="44.667465" lon="4.796937">
        <ele>99.53601</ele>
        <time>2021-06-30T10:27:53Z</time>
      </trkpt>
      <trkpt lat="44.667099" lon="4.796905">
        <ele>99.97632</ele>
        <time>2021-06-30T10:27:54Z</time>
      </trkpt>
      <trkpt lat="44.666714" lon="4.796871">
        <ele>100.29138</ele>
        <time>2021-06-30T10:27:55Z</time>
      </trkpt>
      <trkpt lat="44.666367" lon="4.796846">
        <ele>100.34930</ele>
        <time>2021-06-30T10:27:56Z</time>
      </trkpt>
      <trkpt lat="44.666023" lon="4.796820">
        <ele>100.58215</ele>
        <time>2021-06-30T10:27:57Z</time>
      </trkpt>
      <trkpt lat="44.665657" lon="4.796788">
        <ele>101.02136</ele>
        <time>2021-06-30T10:27:58Z</time>
      </trkpt>
      <trkpt lat="44.665295" lon="4.796757">
        <ele>101.87317</ele>
        <time>2021-06-30T10:27:59Z</time>
      </trkpt>
      <trkpt lat="44.664925" lon="4.796724">
        <ele>101.87708</ele>
        <time>2021-06-30T10:28:00Z</time>
      </trkpt>
      <trkpt lat="44.664574" lon="4.796693">
        <ele>102.09796</ele>
        <time>2021-06-30T10:28:01Z</time>
      </trkpt>
      <trkpt lat="44.664200" lon="4.796660">
        <ele>102.47485</ele>
        <time>2021-06-30T10:28:02Z</time>
      </trkpt>
      <trkpt lat="44.663830" lon="4.796620">
        <ele>102.37354</ele>
        <time>2021-06-30T10:28:03Z</time>
      </trkpt>
      <trkpt lat="44.663483" lon="4.796581">
        <ele>102.70703</ele>
        <time>2021-06-30T10:28:04Z</time>
      </trkpt>
      <trkpt lat="44.663155" lon="4.796545">
        <ele>103.02783</ele>
        <time>2021-06-30T10:28:06Z</time>
      </trkpt>
      <trkpt lat="44.662773" lon="4.796505">
        <ele>100.76746</ele>
        <time>2021-06-30T10:28:06Z</time>
      </trkpt>
      <trkpt lat="44.662418" lon="4.796462">
        <ele>100.05408</ele>
        <time>2021-06-30T10:28:07Z</time>
      </trkpt>
      <trkpt lat="44.662060" lon="4.796417">
        <ele>100.30579</ele>
        <time>2021-06-30T10:28:08Z</time>
      </trkpt>
      <trkpt lat="44.661697" lon="4.796371">
        <ele>100.83618</ele>
        <time>2021-06-30T10:28:09Z</time>
      </trkpt>
      <trkpt lat="44.661366" lon="4.796329">
        <ele>100.77612</ele>
        <time>2021-06-30T10:28:10Z</time>
      </trkpt>
      <trkpt lat="44.660988" lon="4.796283">
        <ele>102.84607</ele>
        <time>2021-06-30T10:28:11Z</time>
      </trkpt>
      <trkpt lat="44.660610" lon="4.796227">
        <ele>102.12158</ele>
        <time>2021-06-30T10:28:12Z</time>
      </trkpt>
      <trkpt lat="44.660263" lon="4.796174">
        <ele>103.18982</ele>
        <time>2021-06-30T10:28:13Z</time>
      </trkpt>
      <trkpt lat="44.659927" lon="4.796117">
        <ele>103.61188</ele>
        <time>2021-06-30T10:28:14Z</time>
      </trkpt>
      <trkpt lat="44.659546" lon="4.796051">
        <ele>104.96429</ele>
        <time>2021-06-30T10:28:15Z</time>
      </trkpt>
      <trkpt lat="44.659187" lon="4.795985">
        <ele>105.21198</ele>
        <time>2021-06-30T10:28:16Z</time>
      </trkpt>
      <trkpt lat="44.658840" lon="4.795917">
        <ele>105.96106</ele>
        <time>2021-06-30T10:28:17Z</time>
      </trkpt>
      <trkpt lat="44.658466" lon="4.795845">
        <ele>106.31171</ele>
        <time>2021-06-30T10:28:18Z</time>
      </trkpt>
      <trkpt lat="44.658108" lon="4.795775">
        <ele>107.84210</ele>
        <time>2021-06-30T10:28:19Z</time>
      </trkpt>
      <trkpt lat="44.657742" lon="4.795700">
        <ele>108.03937</ele>
        <time>2021-06-30T10:28:20Z</time>
      </trkpt>
      <trkpt lat="44.657383" lon="4.795621">
        <ele>109.39331</ele>
        <time>2021-06-30T10:28:21Z</time>
      </trkpt>
      <trkpt lat="44.657051" lon="4.795539">
        <ele>109.46423</ele>
        <time>2021-06-30T10:28:22Z</time>
      </trkpt>
      <trkpt lat="44.656715" lon="4.795454">
        <ele>109.95679</ele>
        <time>2021-06-30T10:28:23Z</time>
      </trkpt>
      <trkpt lat="44.656338" lon="4.795358">
        <ele>111.07654</ele>
        <time>2021-06-30T10:28:24Z</time>
      </trkpt>
      <trkpt lat="44.656338" lon="4.795358">
        <ele>112.33728</ele>
        <time>2021-06-30T10:28:25Z</time>
      </trkpt>
      <trkpt lat="44.655956" lon="4.795253">
        <ele>113.52966</ele>
        <time>2021-06-30T10:28:26Z</time>
      </trkpt>
      <trkpt lat="44.655617" lon="4.795158">
        <ele>113.64636</ele>
        <time>2021-06-30T10:28:27Z</time>
      </trkpt>
      <trkpt lat="44.655285" lon="4.795066">
        <ele>114.87305</ele>
        <time>2021-06-30T10:28:28Z</time>
      </trkpt>
      <trkpt lat="44.654900" lon="4.794960">
        <ele>115.16949</ele>
        <time>2021-06-30T10:28:29Z</time>
      </trkpt>
      <trkpt lat="44.654549" lon="4.794862">
        <ele>115.69824</ele>
        <time>2021-06-30T10:28:30Z</time>
      </trkpt>
      <trkpt lat="44.654194" lon="4.794755">
        <ele>115.79822</ele>
        <time>2021-06-30T10:28:31Z</time>
      </trkpt>
      <trkpt lat="44.653835" lon="4.794647">
        <ele>116.90295</ele>
        <time>2021-06-30T10:28:32Z</time>
      </trkpt>
      <trkpt lat="44.653503" lon="4.794542">
        <ele>117.86639</ele>
        <time>2021-06-30T10:28:33Z</time>
      </trkpt>
      <trkpt lat="44.653130" lon="4.794422">
        <ele>118.63123</ele>
        <time>2021-06-30T10:28:34Z</time>
      </trkpt>
      <trkpt lat="44.652782" lon="4.794311">
        <ele>119.74426</ele>
        <time>2021-06-30T10:28:35Z</time>
      </trkpt>
      <trkpt lat="44.652420" lon="4.794195">
        <ele>120.42529</ele>
        <time>2021-06-30T10:28:36Z</time>
      </trkpt>
      <trkpt lat="44.652073" lon="4.794083">
        <ele>120.71039</ele>
        <time>2021-06-30T10:28:37Z</time>
      </trkpt>
      <trkpt lat="44.651726" lon="4.793968">
        <ele>120.76685</ele>
        <time>2021-06-30T10:28:38Z</time>
      </trkpt>
      <trkpt lat="44.651344" lon="4.793842">
        <ele>120.80182</ele>
        <time>2021-06-30T10:28:39Z</time>
      </trkpt>
      <trkpt lat="44.651001" lon="4.793727">
        <ele>121.24756</ele>
        <time>2021-06-30T10:28:40Z</time>
      </trkpt>
      <trkpt lat="44.650658" lon="4.793613">
        <ele>121.32507</ele>
        <time>2021-06-30T10:28:41Z</time>
      </trkpt>
      <trkpt lat="44.650322" lon="4.793499">
        <ele>121.57263</ele>
        <time>2021-06-30T10:28:42Z</time>
      </trkpt>
      <trkpt lat="44.649956" lon="4.793377">
        <ele>122.12756</ele>
        <time>2021-06-30T10:28:43Z</time>
      </trkpt>
      <trkpt lat="44.649601" lon="4.793257">
        <ele>122.68054</ele>
        <time>2021-06-30T10:28:44Z</time>
      </trkpt>
      <trkpt lat="44.649246" lon="4.793137">
        <ele>122.87341</ele>
        <time>2021-06-30T10:28:45Z</time>
      </trkpt>
      <trkpt lat="44.648895" lon="4.793018">
        <ele>123.27472</ele>
        <time>2021-06-30T10:28:46Z</time>
      </trkpt>
      <trkpt lat="44.648556" lon="4.792910">
        <ele>123.52234</ele>
        <time>2021-06-30T10:28:47Z</time>
      </trkpt>
      <trkpt lat="44.648205" lon="4.792807">
        <ele>123.85010</ele>
        <time>2021-06-30T10:28:48Z</time>
      </trkpt>
      <trkpt lat="44.647842" lon="4.792707">
        <ele>124.02960</ele>
        <time>2021-06-30T10:28:49Z</time>
      </trkpt>
      <trkpt lat="44.647476" lon="4.792613">
        <ele>121.66913</ele>
        <time>2021-06-30T10:28:50Z</time>
      </trkpt>
      <trkpt lat="44.647125" lon="4.792526">
        <ele>119.12683</ele>
        <time>2021-06-30T10:28:51Z</time>
      </trkpt>
      <trkpt lat="44.646793" lon="4.792446">
        <ele>119.87042</ele>
        <time>2021-06-30T10:28:52Z</time>
      </trkpt>
      <trkpt lat="44.646793" lon="4.792446">
        <ele>119.56799</ele>
        <time>2021-06-30T10:28:53Z</time>
      </trkpt>
      <trkpt lat="44.646442" lon="4.792375">
        <ele>121.15137</ele>
        <time>2021-06-30T10:28:54Z</time>
      </trkpt>
      <trkpt lat="44.646095" lon="4.792305">
        <ele>121.17273</ele>
        <time>2021-06-30T10:28:55Z</time>
      </trkpt>
      <trkpt lat="44.645733" lon="4.792231">
        <ele>121.49847</ele>
        <time>2021-06-30T10:28:57Z</time>
      </trkpt>
      <trkpt lat="44.645374" lon="4.792159">
        <ele>121.21893</ele>
        <time>2021-06-30T10:28:57Z</time>
      </trkpt>
      <trkpt lat="44.645004" lon="4.792092">
        <ele>121.51135</ele>
        <time>2021-06-30T10:28:58Z</time>
      </trkpt>
      <trkpt lat="44.644650" lon="4.792029">
        <ele>121.26282</ele>
        <time>2021-06-30T10:28:59Z</time>
      </trkpt>
      <trkpt lat="44.644279" lon="4.791967">
        <ele>121.63306</ele>
        <time>2021-06-30T10:29:00Z</time>
      </trkpt>
      <trkpt lat="44.643925" lon="4.791919">
        <ele>121.10400</ele>
        <time>2021-06-30T10:29:01Z</time>
      </trkpt>
      <trkpt lat="44.643547" lon="4.791870">
        <ele>120.87317</ele>
        <time>2021-06-30T10:29:02Z</time>
      </trkpt>
      <trkpt lat="44.643169" lon="4.791821">
        <ele>120.72107</ele>
        <time>2021-06-30T10:29:03Z</time>
      </trkpt>
      <trkpt lat="44.642818" lon="4.791790">
        <ele>121.52069</ele>
        <time>2021-06-30T10:29:04Z</time>
      </trkpt>
      <trkpt lat="44.642464" lon="4.791765">
        <ele>121.69611</ele>
        <time>2021-06-30T10:29:05Z</time>
      </trkpt>
      <trkpt lat="44.642105" lon="4.791740">
        <ele>121.69458</ele>
        <time>2021-06-30T10:29:06Z</time>
      </trkpt>
      <trkpt lat="44.641739" lon="4.791716">
        <ele>121.85040</ele>
        <time>2021-06-30T10:29:07Z</time>
      </trkpt>
      <trkpt lat="44.641388" lon="4.791700">
        <ele>121.29102</ele>
        <time>2021-06-30T10:29:08Z</time>
      </trkpt>
      <trkpt lat="44.641018" lon="4.791684">
        <ele>121.19659</ele>
        <time>2021-06-30T10:29:09Z</time>
      </trkpt>
      <trkpt lat="44.640644" lon="4.791671">
        <ele>121.53735</ele>
        <time>2021-06-30T10:29:10Z</time>
      </trkpt>
      <trkpt lat="44.640282" lon="4.791669">
        <ele>121.45245</ele>
        <time>2021-06-30T10:29:11Z</time>
      </trkpt>
      <trkpt lat="44.639923" lon="4.791676">
        <ele>121.94092</ele>
        <time>2021-06-30T10:29:12Z</time>
      </trkpt>
      <trkpt lat="44.639580" lon="4.791685">
        <ele>122.22363</ele>
        <time>2021-06-30T10:29:13Z</time>
      </trkpt>
      <trkpt lat="44.639191" lon="4.791695">
        <ele>122.13184</ele>
        <time>2021-06-30T10:29:14Z</time>
      </trkpt>
      <trkpt lat="44.638836" lon="4.791712">
        <ele>122.49744</ele>
        <time>2021-06-30T10:29:15Z</time>
      </trkpt>
      <trkpt lat="44.638477" lon="4.791738">
        <ele>122.85046</ele>
        <time>2021-06-30T10:29:16Z</time>
      </trkpt>
      <trkpt lat="44.638107" lon="4.791764">
        <ele>123.26636</ele>
        <time>2021-06-30T10:29:17Z</time>
      </trkpt>
      <trkpt lat="44.637756" lon="4.791789">
        <ele>123.62836</ele>
        <time>2021-06-30T10:29:18Z</time>
      </trkpt>
      <trkpt lat="44.637413" lon="4.791813">
        <ele>124.26520</ele>
        <time>2021-06-30T10:29:19Z</time>
      </trkpt>
      <trkpt lat="44.637047" lon="4.791839">
        <ele>124.20074</ele>
        <time>2021-06-30T10:29:20Z</time>
      </trkpt>
      <trkpt lat="44.636665" lon="4.791866">
        <ele>124.48798</ele>
        <time>2021-06-30T10:29:22Z</time>
      </trkpt>
      <trkpt lat="44.636314" lon="4.791891">
        <ele>124.92035</ele>
        <time>2021-06-30T10:29:22Z</time>
      </trkpt>
      <trkpt lat="44.635971" lon="4.791922">
        <ele>125.45319</ele>
        <time>2021-06-30T10:29:23Z</time>
      </trkpt>
      <trkpt lat="44.635593" lon="4.791963">
        <ele>126.01611</ele>
        <time>2021-06-30T10:29:25Z</time>
      </trkpt>
      <trkpt lat="44.635593" lon="4.791963">
        <ele>126.70532</ele>
        <time>2021-06-30T10:29:25Z</time>
      </trkpt>
      <trkpt lat="44.635231" lon="4.792002">
        <ele>127.91248</ele>
        <time>2021-06-30T10:29:26Z</time>
      </trkpt>
      <trkpt lat="44.634876" lon="4.792040">
        <ele>128.53308</ele>
        <time>2021-06-30T10:29:27Z</time>
      </trkpt>
      <trkpt lat="44.634518" lon="4.792079">
        <ele>128.98071</ele>
        <time>2021-06-30T10:29:28Z</time>
      </trkpt>
      <trkpt lat="44.634148" lon="4.792119">
        <ele>129.42188</ele>
        <time>2021-06-30T10:29:29Z</time>
      </trkpt>
      <trkpt lat="44.633774" lon="4.792158">
        <ele>129.96082</ele>
        <time>2021-06-30T10:29:31Z</time>
      </trkpt>
      <trkpt lat="44.633430" lon="4.792192">
        <ele>130.82550</ele>
        <time>2021-06-30T10:29:32Z</time>
      </trkpt>
      <trkpt lat="44.633060" lon="4.792229">
        <ele>131.33716</ele>
        <time>2021-06-30T10:29:32Z</time>
      </trkpt>
      <trkpt lat="44.632710" lon="4.792264">
        <ele>132.15344</ele>
        <time>2021-06-30T10:29:33Z</time>
      </trkpt>
      <trkpt lat="44.632359" lon="4.792294">
        <ele>132.94067</ele>
        <time>2021-06-30T10:29:34Z</time>
      </trkpt>
      <trkpt lat="44.631985" lon="4.792326">
        <ele>133.58557</ele>
        <time>2021-06-30T10:29:35Z</time>
      </trkpt>
      <trkpt lat="44.631641" lon="4.792355">
        <ele>134.28070</ele>
        <time>2021-06-30T10:29:37Z</time>
      </trkpt>
      <trkpt lat="44.631287" lon="4.792385">
        <ele>135.29053</ele>
        <time>2021-06-30T10:29:37Z</time>
      </trkpt>
      <trkpt lat="44.630905" lon="4.792414">
        <ele>136.25403</ele>
        <time>2021-06-30T10:29:38Z</time>
      </trkpt>
      <trkpt lat="44.630554" lon="4.792440">
        <ele>137.05292</ele>
        <time>2021-06-30T10:29:39Z</time>
      </trkpt>
      <trkpt lat="44.630199" lon="4.792466">
        <ele>138.42212</ele>
        <time>2021-06-30T10:29:40Z</time>
      </trkpt>
      <trkpt lat="44.629814" lon="4.792495">
        <ele>139.02380</ele>
        <time>2021-06-30T10:29:41Z</time>
      </trkpt>
      <trkpt lat="44.629444" lon="4.792519">
        <ele>140.07202</ele>
        <time>2021-06-30T10:29:42Z</time>
      </trkpt>
      <trkpt lat="44.629074" lon="4.792538">
        <ele>140.58588</ele>
        <time>2021-06-30T10:29:44Z</time>
      </trkpt>
      <trkpt lat="44.628700" lon="4.792557">
        <ele>141.31335</ele>
        <time>2021-06-30T10:29:44Z</time>
      </trkpt>
      <trkpt lat="44.628334" lon="4.792575">
        <ele>142.62402</ele>
        <time>2021-06-30T10:29:45Z</time>
      </trkpt>
      <trkpt lat="44.627968" lon="4.792593">
        <ele>143.10657</ele>
        <time>2021-06-30T10:29:46Z</time>
      </trkpt>
      <trkpt lat="44.627605" lon="4.792611">
        <ele>144.35730</ele>
        <time>2021-06-30T10:29:47Z</time>
      </trkpt>
      <trkpt lat="44.627232" lon="4.792630">
        <ele>144.99554</ele>
        <time>2021-06-30T10:29:49Z</time>
      </trkpt>
      <trkpt lat="44.626881" lon="4.792648">
        <ele>145.58093</ele>
        <time>2021-06-30T10:29:49Z</time>
      </trkpt>
      <trkpt lat="44.626522" lon="4.792662">
        <ele>146.06952</ele>
        <time>2021-06-30T10:29:50Z</time>
      </trkpt>
      <trkpt lat="44.626171" lon="4.792677">
        <ele>147.04016</ele>
        <time>2021-06-30T10:29:51Z</time>
      </trkpt>
      <trkpt lat="44.625816" lon="4.792691">
        <ele>147.85638</ele>
        <time>2021-06-30T10:29:52Z</time>
      </trkpt>
      <trkpt lat="44.625816" lon="4.792691">
        <ele>148.74951</ele>
        <time>2021-06-30T10:29:53Z</time>
      </trkpt>
      <trkpt lat="44.625084" lon="4.792722">
        <ele>149.60303</ele>
        <time>2021-06-30T10:29:55Z</time>
      </trkpt>
      <trkpt lat="44.625084" lon="4.792722">
        <ele>150.29187</ele>
        <time>2021-06-30T10:29:55Z</time>
      </trkpt>
      <trkpt lat="44.624722" lon="4.792735">
        <ele>150.62445</ele>
        <time>2021-06-30T10:29:56Z</time>
      </trkpt>
      <trkpt lat="44.624359" lon="4.792744">
        <ele>151.16211</ele>
        <time>2021-06-30T10:29:57Z</time>
      </trkpt>
      <trkpt lat="44.624043" lon="4.792752">
        <ele>152.08875</ele>
        <time>2021-06-30T10:29:58Z</time>
      </trkpt>
      <trkpt lat="44.623665" lon="4.792761">
        <ele>152.50281</ele>
        <time>2021-06-30T10:30:00Z</time>
      </trkpt>
      <trkpt lat="44.623299" lon="4.792770">
        <ele>151.67517</ele>
        <time>2021-06-30T10:30:00Z</time>
      </trkpt>
      <trkpt lat="44.622940" lon="4.792777">
        <ele>152.86316</ele>
        <time>2021-06-30T10:30:01Z</time>
      </trkpt>
      <trkpt lat="44.622589" lon="4.792779">
        <ele>153.89282</ele>
        <time>2021-06-30T10:30:02Z</time>
      </trkpt>
      <trkpt lat="44.622253" lon="4.792780">
        <ele>154.32849</ele>
        <time>2021-06-30T10:30:03Z</time>
      </trkpt>
      <trkpt lat="44.621876" lon="4.792782">
        <ele>154.27692</ele>
        <time>2021-06-30T10:30:04Z</time>
      </trkpt>
      <trkpt lat="44.621513" lon="4.792784">
        <ele>154.38702</ele>
        <time>2021-06-30T10:30:05Z</time>
      </trkpt>
      <trkpt lat="44.621151" lon="4.792785">
        <ele>154.46954</ele>
        <time>2021-06-30T10:30:07Z</time>
      </trkpt>
      <trkpt lat="44.620792" lon="4.792787">
        <ele>154.76630</ele>
        <time>2021-06-30T10:30:07Z</time>
      </trkpt>
      <trkpt lat="44.620419" lon="4.792788">
        <ele>155.31134</ele>
        <time>2021-06-30T10:30:08Z</time>
      </trkpt>
      <trkpt lat="44.620052" lon="4.792790">
        <ele>156.37695</ele>
        <time>2021-06-30T10:30:09Z</time>
      </trkpt>
      <trkpt lat="44.619686" lon="4.792788">
        <ele>153.88635</ele>
        <time>2021-06-30T10:30:10Z</time>
      </trkpt>
      <trkpt lat="44.619335" lon="4.792784">
        <ele>153.94250</ele>
        <time>2021-06-30T10:30:12Z</time>
      </trkpt>
      <trkpt lat="44.618980" lon="4.792779">
        <ele>153.51587</ele>
        <time>2021-06-30T10:30:12Z</time>
      </trkpt>
      <trkpt lat="44.618607" lon="4.792775">
        <ele>152.87695</ele>
        <time>2021-06-30T10:30:13Z</time>
      </trkpt>
      <trkpt lat="44.618256" lon="4.792764">
        <ele>153.49133</ele>
        <time>2021-06-30T10:30:14Z</time>
      </trkpt>
      <trkpt lat="44.617886" lon="4.792757">
        <ele>153.66418</ele>
        <time>2021-06-30T10:30:15Z</time>
      </trkpt>
      <trkpt lat="44.617516" lon="4.792755">
        <ele>153.92938</ele>
        <time>2021-06-30T10:30:17Z</time>
      </trkpt>
      <trkpt lat="44.617146" lon="4.792753">
        <ele>153.72021</ele>
        <time>2021-06-30T10:30:17Z</time>
      </trkpt>
      <trkpt lat="44.616783" lon="4.792752">
        <ele>154.07874</ele>
        <time>2021-06-30T10:30:18Z</time>
      </trkpt>
      <trkpt lat="44.616409" lon="4.792750">
        <ele>155.50049</ele>
        <time>2021-06-30T10:30:19Z</time>
      </trkpt>
      <trkpt lat="44.616055" lon="4.792748">
        <ele>155.21350</ele>
        <time>2021-06-30T10:30:21Z</time>
      </trkpt>
      <trkpt lat="44.615685" lon="4.792747">
        <ele>153.99872</ele>
        <time>2021-06-30T10:30:21Z</time>
      </trkpt>
      <trkpt lat="44.615685" lon="4.792747">
        <ele>154.09412</ele>
        <time>2021-06-30T10:30:22Z</time>
      </trkpt>
      <trkpt lat="44.615311" lon="4.792746">
        <ele>153.40387</ele>
        <time>2021-06-30T10:30:23Z</time>
      </trkpt>
      <trkpt lat="44.614952" lon="4.792753">
        <ele>153.52637</ele>
        <time>2021-06-30T10:30:24Z</time>
      </trkpt>
      <trkpt lat="44.614590" lon="4.792760">
        <ele>153.87427</ele>
        <time>2021-06-30T10:30:25Z</time>
      </trkpt>
      <trkpt lat="44.614231" lon="4.792768">
        <ele>154.17340</ele>
        <time>2021-06-30T10:30:26Z</time>
      </trkpt>
      <trkpt lat="44.613861" lon="4.792775">
        <ele>154.63672</ele>
        <time>2021-06-30T10:30:28Z</time>
      </trkpt>
      <trkpt lat="44.613472" lon="4.792783">
        <ele>154.06702</ele>
        <time>2021-06-30T10:30:28Z</time>
      </trkpt>
      <trkpt lat="44.613106" lon="4.792792">
        <ele>153.72388</ele>
        <time>2021-06-30T10:30:29Z</time>
      </trkpt>
      <trkpt lat="44.612747" lon="4.792813">
        <ele>152.60394</ele>
        <time>2021-06-30T10:30:30Z</time>
      </trkpt>
      <trkpt lat="44.612396" lon="4.792834">
        <ele>151.61414</ele>
        <time>2021-06-30T10:30:31Z</time>
      </trkpt>
      <trkpt lat="44.612030" lon="4.792856">
        <ele>150.88483</ele>
        <time>2021-06-30T10:30:32Z</time>
      </trkpt>
      <trkpt lat="44.611664" lon="4.792878">
        <ele>150.56799</ele>
        <time>2021-06-30T10:30:34Z</time>
      </trkpt>
      <trkpt lat="44.611294" lon="4.792905">
        <ele>150.17871</ele>
        <time>2021-06-30T10:30:34Z</time>
      </trkpt>
      <trkpt lat="44.610958" lon="4.792946">
        <ele>148.66400</ele>
        <time>2021-06-30T10:30:35Z</time>
      </trkpt>
      <trkpt lat="44.610596" lon="4.792990">
        <ele>147.81921</ele>
        <time>2021-06-30T10:30:36Z</time>
      </trkpt>
      <trkpt lat="44.610245" lon="4.793033">
        <ele>146.44189</ele>
        <time>2021-06-30T10:30:37Z</time>
      </trkpt>
      <trkpt lat="44.609859" lon="4.793079">
        <ele>144.39496</ele>
        <time>2021-06-30T10:30:39Z</time>
      </trkpt>
      <trkpt lat="44.609501" lon="4.793123">
        <ele>144.39911</ele>
        <time>2021-06-30T10:30:39Z</time>
      </trkpt>
      <trkpt lat="44.609146" lon="4.793166">
        <ele>142.13110</ele>
        <time>2021-06-30T10:30:40Z</time>
      </trkpt>
      <trkpt lat="44.608826" lon="4.793205">
        <ele>140.71497</ele>
        <time>2021-06-30T10:30:41Z</time>
      </trkpt>
      <trkpt lat="44.608521" lon="4.793242">
        <ele>140.80701</ele>
        <time>2021-06-30T10:30:42Z</time>
      </trkpt>
      <trkpt lat="44.608204" lon="4.793290">
        <ele>139.55237</ele>
        <time>2021-06-30T10:30:43Z</time>
      </trkpt>
      <trkpt lat="44.607918" lon="4.793339">
        <ele>138.85132</ele>
        <time>2021-06-30T10:30:45Z</time>
      </trkpt>
      <trkpt lat="44.607632" lon="4.793387">
        <ele>138.56714</ele>
        <time>2021-06-30T10:30:45Z</time>
      </trkpt>
      <trkpt lat="44.607330" lon="4.793438">
        <ele>137.65082</ele>
        <time>2021-06-30T10:30:46Z</time>
      </trkpt>
      <trkpt lat="44.607059" lon="4.793483">
        <ele>136.60236</ele>
        <time>2021-06-30T10:30:47Z</time>
      </trkpt>
      <trkpt lat="44.606754" lon="4.793536">
        <ele>136.31421</ele>
        <time>2021-06-30T10:30:48Z</time>
      </trkpt>
      <trkpt lat="44.606468" lon="4.793595">
        <ele>134.72406</ele>
        <time>2021-06-30T10:30:50Z</time>
      </trkpt>
      <trkpt lat="44.606468" lon="4.793595">
        <ele>134.54736</ele>
        <time>2021-06-30T10:30:50Z</time>
      </trkpt>
      <trkpt lat="44.606178" lon="4.793656">
        <ele>135.25616</ele>
        <time>2021-06-30T10:30:51Z</time>
      </trkpt>
      <trkpt lat="44.605877" lon="4.793718">
        <ele>135.31555</ele>
        <time>2021-06-30T10:30:52Z</time>
      </trkpt>
      <trkpt lat="44.605610" lon="4.793776">
        <ele>136.83130</ele>
        <time>2021-06-30T10:30:53Z</time>
      </trkpt>
      <trkpt lat="44.605305" lon="4.793843">
        <ele>136.16528</ele>
        <time>2021-06-30T10:30:55Z</time>
      </trkpt>
      <trkpt lat="44.605022" lon="4.793905">
        <ele>135.89398</ele>
        <time>2021-06-30T10:30:55Z</time>
      </trkpt>
      <trkpt lat="44.604740" lon="4.793967">
        <ele>135.92358</ele>
        <time>2021-06-30T10:30:56Z</time>
      </trkpt>
      <trkpt lat="44.604427" lon="4.794035">
        <ele>134.44696</ele>
        <time>2021-06-30T10:30:57Z</time>
      </trkpt>
      <trkpt lat="44.604153" lon="4.794108">
        <ele>134.11646</ele>
        <time>2021-06-30T10:30:58Z</time>
      </trkpt>
      <trkpt lat="44.603855" lon="4.794184">
        <ele>131.60687</ele>
        <time>2021-06-30T10:30:59Z</time>
      </trkpt>
      <trkpt lat="44.603561" lon="4.794262">
        <ele>128.17328</ele>
        <time>2021-06-30T10:31:00Z</time>
      </trkpt>
      <trkpt lat="44.603256" lon="4.794345">
        <ele>126.82294</ele>
        <time>2021-06-30T10:31:02Z</time>
      </trkpt>
      <trkpt lat="44.602947" lon="4.794445">
        <ele>125.30035</ele>
        <time>2021-06-30T10:31:02Z</time>
      </trkpt>
      <trkpt lat="44.602615" lon="4.794552">
        <ele>122.18799</ele>
        <time>2021-06-30T10:31:03Z</time>
      </trkpt>
      <trkpt lat="44.602295" lon="4.794656">
        <ele>122.16486</ele>
        <time>2021-06-30T10:31:04Z</time>
      </trkpt>
      <trkpt lat="44.601990" lon="4.794754">
        <ele>122.29645</ele>
        <time>2021-06-30T10:31:05Z</time>
      </trkpt>
      <trkpt lat="44.601673" lon="4.794856">
        <ele>121.15100</ele>
        <time>2021-06-30T10:31:06Z</time>
      </trkpt>
      <trkpt lat="44.601357" lon="4.794958">
        <ele>120.87659</ele>
        <time>2021-06-30T10:31:08Z</time>
      </trkpt>
      <trkpt lat="44.601032" lon="4.795066">
        <ele>120.42383</ele>
        <time>2021-06-30T10:31:08Z</time>
      </trkpt>
      <trkpt lat="44.600700" lon="4.795185">
        <ele>118.95203</ele>
        <time>2021-06-30T10:31:09Z</time>
      </trkpt>
      <trkpt lat="44.600361" lon="4.795307">
        <ele>118.59369</ele>
        <time>2021-06-30T10:31:10Z</time>
      </trkpt>
      <trkpt lat="44.599979" lon="4.795448">
        <ele>118.82556</ele>
        <time>2021-06-30T10:31:11Z</time>
      </trkpt>
      <trkpt lat="44.599545" lon="4.795618">
        <ele>118.94250</ele>
        <time>2021-06-30T10:31:12Z</time>
      </trkpt>
      <trkpt lat="44.599152" lon="4.795777">
        <ele>118.41321</ele>
        <time>2021-06-30T10:31:13Z</time>
      </trkpt>
      <trkpt lat="44.598797" lon="4.795925">
        <ele>117.94482</ele>
        <time>2021-06-30T10:31:15Z</time>
      </trkpt>
      <trkpt lat="44.598427" lon="4.796081">
        <ele>118.28589</ele>
        <time>2021-06-30T10:31:15Z</time>
      </trkpt>
      <trkpt lat="44.598427" lon="4.796081">
        <ele>118.26245</ele>
        <time>2021-06-30T10:31:16Z</time>
      </trkpt>
      <trkpt lat="44.598064" lon="4.796241">
        <ele>118.28809</ele>
        <time>2021-06-30T10:31:17Z</time>
      </trkpt>
      <trkpt lat="44.597729" lon="4.796393">
        <ele>118.61072</ele>
        <time>2021-06-30T10:31:19Z</time>
      </trkpt>
      <trkpt lat="44.597389" lon="4.796575">
        <ele>117.35272</ele>
        <time>2021-06-30T10:31:20Z</time>
      </trkpt>
      <trkpt lat="44.597027" lon="4.796770">
        <ele>117.18823</ele>
        <time>2021-06-30T10:31:20Z</time>
      </trkpt>
      <trkpt lat="44.596695" lon="4.796950">
        <ele>117.19324</ele>
        <time>2021-06-30T10:31:21Z</time>
      </trkpt>
      <trkpt lat="44.596348" lon="4.797137">
        <ele>117.42102</ele>
        <time>2021-06-30T10:31:22Z</time>
      </trkpt>
      <trkpt lat="44.596024" lon="4.797314">
        <ele>117.09937</ele>
        <time>2021-06-30T10:31:23Z</time>
      </trkpt>
      <trkpt lat="44.595676" lon="4.797503">
        <ele>116.54163</ele>
        <time>2021-06-30T10:31:25Z</time>
      </trkpt>
      <trkpt lat="44.595337" lon="4.797686">
        <ele>115.87024</ele>
        <time>2021-06-30T10:31:25Z</time>
      </trkpt>
      <trkpt lat="44.595001" lon="4.797868">
        <ele>115.20996</ele>
        <time>2021-06-30T10:31:26Z</time>
      </trkpt>
      <trkpt lat="44.594666" lon="4.798058">
        <ele>113.39447</ele>
        <time>2021-06-30T10:31:28Z</time>
      </trkpt>
      <trkpt lat="44.594326" lon="4.798250">
        <ele>115.02490</ele>
        <time>2021-06-30T10:31:28Z</time>
      </trkpt>
      <trkpt lat="44.593979" lon="4.798445">
        <ele>114.79211</ele>
        <time>2021-06-30T10:31:29Z</time>
      </trkpt>
      <trkpt lat="44.593647" lon="4.798632">
        <ele>114.74219</ele>
        <time>2021-06-30T10:31:30Z</time>
      </trkpt>
      <trkpt lat="44.593304" lon="4.798824">
        <ele>115.65002</ele>
        <time>2021-06-30T10:31:32Z</time>
      </trkpt>
      <trkpt lat="44.592953" lon="4.799021">
        <ele>115.07196</ele>
        <time>2021-06-30T10:31:32Z</time>
      </trkpt>
      <trkpt lat="44.592621" lon="4.799208">
        <ele>115.29968</ele>
        <time>2021-06-30T10:31:33Z</time>
      </trkpt>
      <trkpt lat="44.592289" lon="4.799395">
        <ele>114.86432</ele>
        <time>2021-06-30T10:31:34Z</time>
      </trkpt>
      <trkpt lat="44.591934" lon="4.799592">
        <ele>114.89386</ele>
        <time>2021-06-30T10:31:36Z</time>
      </trkpt>
      <trkpt lat="44.591583" lon="4.799787">
        <ele>115.28137</ele>
        <time>2021-06-30T10:31:37Z</time>
      </trkpt>
      <trkpt lat="44.591240" lon="4.799976">
        <ele>114.58783</ele>
        <time>2021-06-30T10:31:37Z</time>
      </trkpt>
      <trkpt lat="44.590893" lon="4.800170">
        <ele>114.36816</ele>
        <time>2021-06-30T10:31:38Z</time>
      </trkpt>
      <trkpt lat="44.590569" lon="4.800350">
        <ele>114.32007</ele>
        <time>2021-06-30T10:31:39Z</time>
      </trkpt>
      <trkpt lat="44.590237" lon="4.800528">
        <ele>114.72803</ele>
        <time>2021-06-30T10:31:40Z</time>
      </trkpt>
      <trkpt lat="44.589893" lon="4.800701">
        <ele>115.73584</ele>
        <time>2021-06-30T10:31:41Z</time>
      </trkpt>
      <trkpt lat="44.589539" lon="4.800882">
        <ele>114.75592</ele>
        <time>2021-06-30T10:31:43Z</time>
      </trkpt>
      <trkpt lat="44.589207" lon="4.801052">
        <ele>113.61023</ele>
        <time>2021-06-30T10:31:44Z</time>
      </trkpt>
      <trkpt lat="44.589207" lon="4.801052">
        <ele>112.17303</ele>
        <time>2021-06-30T10:31:44Z</time>
      </trkpt>
      <trkpt lat="44.588863" lon="4.801226">
        <ele>110.65430</ele>
        <time>2021-06-30T10:31:45Z</time>
      </trkpt>
      <trkpt lat="44.588531" lon="4.801395">
        <ele>110.96655</ele>
        <time>2021-06-30T10:31:47Z</time>
      </trkpt>
      <trkpt lat="44.588203" lon="4.801557">
        <ele>110.71851</ele>
        <time>2021-06-30T10:31:48Z</time>
      </trkpt>
      <trkpt lat="44.587845" lon="4.801729">
        <ele>110.32471</ele>
        <time>2021-06-30T10:31:48Z</time>
      </trkpt>
      <trkpt lat="44.587521" lon="4.801886">
        <ele>110.43591</ele>
        <time>2021-06-30T10:31:49Z</time>
      </trkpt>
      <trkpt lat="44.587162" lon="4.802058">
        <ele>110.46448</ele>
        <time>2021-06-30T10:31:50Z</time>
      </trkpt>
      <trkpt lat="44.586834" lon="4.802211">
        <ele>110.34705</ele>
        <time>2021-06-30T10:31:52Z</time>
      </trkpt>
      <trkpt lat="44.586487" lon="4.802366">
        <ele>110.19464</ele>
        <time>2021-06-30T10:31:53Z</time>
      </trkpt>
      <trkpt lat="44.586143" lon="4.802519">
        <ele>108.18610</ele>
        <time>2021-06-30T10:31:53Z</time>
      </trkpt>
      <trkpt lat="44.585812" lon="4.802668">
        <ele>106.20264</ele>
        <time>2021-06-30T10:31:54Z</time>
      </trkpt>
      <trkpt lat="44.585468" lon="4.802822">
        <ele>106.97607</ele>
        <time>2021-06-30T10:31:55Z</time>
      </trkpt>
      <trkpt lat="44.585159" lon="4.802960">
        <ele>106.77386</ele>
        <time>2021-06-30T10:31:56Z</time>
      </trkpt>
      <trkpt lat="44.584824" lon="4.803111">
        <ele>106.70294</ele>
        <time>2021-06-30T10:31:57Z</time>
      </trkpt>
      <trkpt lat="44.584492" lon="4.803261">
        <ele>108.40088</ele>
        <time>2021-06-30T10:31:58Z</time>
      </trkpt>
      <trkpt lat="44.584179" lon="4.803400">
        <ele>108.51050</ele>
        <time>2021-06-30T10:31:59Z</time>
      </trkpt>
      <trkpt lat="44.583866" lon="4.803542">
        <ele>108.42145</ele>
        <time>2021-06-30T10:32:01Z</time>
      </trkpt>
      <trkpt lat="44.583569" lon="4.803673">
        <ele>108.78748</ele>
        <time>2021-06-30T10:32:01Z</time>
      </trkpt>
      <trkpt lat="44.583271" lon="4.803805">
        <ele>109.35272</ele>
        <time>2021-06-30T10:32:02Z</time>
      </trkpt>
      <trkpt lat="44.582989" lon="4.803934">
        <ele>109.02393</ele>
        <time>2021-06-30T10:32:03Z</time>
      </trkpt>
      <trkpt lat="44.582699" lon="4.804067">
        <ele>109.50781</ele>
        <time>2021-06-30T10:32:04Z</time>
      </trkpt>
      <trkpt lat="44.582413" lon="4.804198">
        <ele>109.26007</ele>
        <time>2021-06-30T10:32:05Z</time>
      </trkpt>
      <trkpt lat="44.582127" lon="4.804328">
        <ele>107.83887</ele>
        <time>2021-06-30T10:32:06Z</time>
      </trkpt>
      <trkpt lat="44.581829" lon="4.804464">
        <ele>108.16138</ele>
        <time>2021-06-30T10:32:07Z</time>
      </trkpt>
      <trkpt lat="44.581535" lon="4.804594">
        <ele>108.70435</ele>
        <time>2021-06-30T10:32:08Z</time>
      </trkpt>
      <trkpt lat="44.581272" lon="4.804710">
        <ele>108.16760</ele>
        <time>2021-06-30T10:32:09Z</time>
      </trkpt>
      <trkpt lat="44.581013" lon="4.804823">
        <ele>108.41016</ele>
        <time>2021-06-30T10:32:11Z</time>
      </trkpt>
      <trkpt lat="44.580761" lon="4.804933">
        <ele>107.83936</ele>
        <time>2021-06-30T10:32:11Z</time>
      </trkpt>
      <trkpt lat="44.580513" lon="4.805042">
        <ele>107.85858</ele>
        <time>2021-06-30T10:32:12Z</time>
      </trkpt>
      <trkpt lat="44.580257" lon="4.805153">
        <ele>107.19720</ele>
        <time>2021-06-30T10:32:14Z</time>
      </trkpt>
      <trkpt lat="44.579983" lon="4.805278">
        <ele>107.31488</ele>
        <time>2021-06-30T10:32:14Z</time>
      </trkpt>
      <trkpt lat="44.579708" lon="4.805402">
        <ele>105.61725</ele>
        <time>2021-06-30T10:32:15Z</time>
      </trkpt>
      <trkpt lat="44.579418" lon="4.805532">
        <ele>106.10236</ele>
        <time>2021-06-30T10:32:16Z</time>
      </trkpt>
      <trkpt lat="44.579098" lon="4.805677">
        <ele>106.49286</ele>
        <time>2021-06-30T10:32:18Z</time>
      </trkpt>
      <trkpt lat="44.579098" lon="4.805677">
        <ele>106.40271</ele>
        <time>2021-06-30T10:32:18Z</time>
      </trkpt>
      <trkpt lat="44.578800" lon="4.805813">
        <ele>106.86682</ele>
        <time>2021-06-30T10:32:19Z</time>
      </trkpt>
      <trkpt lat="44.578518" lon="4.805941">
        <ele>106.45435</ele>
        <time>2021-06-30T10:32:21Z</time>
      </trkpt>
      <trkpt lat="44.578213" lon="4.806078">
        <ele>106.73706</ele>
        <time>2021-06-30T10:32:21Z</time>
      </trkpt>
      <trkpt lat="44.577908" lon="4.806215">
        <ele>106.71326</ele>
        <time>2021-06-30T10:32:22Z</time>
      </trkpt>
      <trkpt lat="44.577602" lon="4.806352">
        <ele>107.48743</ele>
        <time>2021-06-30T10:32:23Z</time>
      </trkpt>
      <trkpt lat="44.577301" lon="4.806486">
        <ele>107.74335</ele>
        <time>2021-06-30T10:32:25Z</time>
      </trkpt>
      <trkpt lat="44.576981" lon="4.806629">
        <ele>106.93945</ele>
        <time>2021-06-30T10:32:25Z</time>
      </trkpt>
      <trkpt lat="44.576656" lon="4.806775">
        <ele>108.47437</ele>
        <time>2021-06-30T10:32:26Z</time>
      </trkpt>
      <trkpt lat="44.576351" lon="4.806910">
        <ele>109.07251</ele>
        <time>2021-06-30T10:32:27Z</time>
      </trkpt>
      <trkpt lat="44.576069" lon="4.807037">
        <ele>109.10596</ele>
        <time>2021-06-30T10:32:29Z</time>
      </trkpt>
      <trkpt lat="44.575726" lon="4.807187">
        <ele>109.13049</ele>
        <time>2021-06-30T10:32:29Z</time>
      </trkpt>
      <trkpt lat="44.575417" lon="4.807319">
        <ele>109.57446</ele>
        <time>2021-06-30T10:32:30Z</time>
      </trkpt>
      <trkpt lat="44.575115" lon="4.807448">
        <ele>110.20758</ele>
        <time>2021-06-30T10:32:31Z</time>
      </trkpt>
      <trkpt lat="44.574795" lon="4.807586">
        <ele>111.09503</ele>
        <time>2021-06-30T10:32:32Z</time>
      </trkpt>
      <trkpt lat="44.574478" lon="4.807720">
        <ele>110.19171</ele>
        <time>2021-06-30T10:32:34Z</time>
      </trkpt>
      <trkpt lat="44.574169" lon="4.807853">
        <ele>110.26636</ele>
        <time>2021-06-30T10:32:34Z</time>
      </trkpt>
      <trkpt lat="44.573856" lon="4.807978">
        <ele>110.30164</ele>
        <time>2021-06-30T10:32:35Z</time>
      </trkpt>
      <trkpt lat="44.573536" lon="4.808099">
        <ele>110.00256</ele>
        <time>2021-06-30T10:32:36Z</time>
      </trkpt>
      <trkpt lat="44.573223" lon="4.808216">
        <ele>108.98621</ele>
        <time>2021-06-30T10:32:38Z</time>
      </trkpt>
      <trkpt lat="44.572872" lon="4.808348">
        <ele>109.05951</ele>
        <time>2021-06-30T10:32:38Z</time>
      </trkpt>
      <trkpt lat="44.572533" lon="4.808476">
        <ele>109.71942</ele>
        <time>2021-06-30T10:32:39Z</time>
      </trkpt>
      <trkpt lat="44.572205" lon="4.808597">
        <ele>109.41119</ele>
        <time>2021-06-30T10:32:40Z</time>
      </trkpt>
      <trkpt lat="44.571854" lon="4.808719">
        <ele>110.87781</ele>
        <time>2021-06-30T10:32:41Z</time>
      </trkpt>
      <trkpt lat="44.571499" lon="4.808843">
        <ele>110.57556</ele>
        <time>2021-06-30T10:32:43Z</time>
      </trkpt>
      <trkpt lat="44.571163" lon="4.808960">
        <ele>110.46509</ele>
        <time>2021-06-30T10:32:43Z</time>
      </trkpt>
      <trkpt lat="44.570805" lon="4.809074">
        <ele>110.34619</ele>
        <time>2021-06-30T10:32:44Z</time>
      </trkpt>
      <trkpt lat="44.570446" lon="4.809182">
        <ele>109.15320</ele>
        <time>2021-06-30T10:32:45Z</time>
      </trkpt>
      <trkpt lat="44.570080" lon="4.809291">
        <ele>110.23322</ele>
        <time>2021-06-30T10:32:47Z</time>
      </trkpt>
      <trkpt lat="44.569706" lon="4.809402">
        <ele>109.99084</ele>
        <time>2021-06-30T10:32:47Z</time>
      </trkpt>
      <trkpt lat="44.569347" lon="4.809505">
        <ele>110.02686</ele>
        <time>2021-06-30T10:32:49Z</time>
      </trkpt>
      <trkpt lat="44.569347" lon="4.809505">
        <ele>110.81897</ele>
        <time>2021-06-30T10:32:49Z</time>
      </trkpt>
      <trkpt lat="44.569008" lon="4.809599">
        <ele>111.02368</ele>
        <time>2021-06-30T10:32:50Z</time>
      </trkpt>
      <trkpt lat="44.568642" lon="4.809698">
        <ele>112.14026</ele>
        <time>2021-06-30T10:32:51Z</time>
      </trkpt>
      <trkpt lat="44.568302" lon="4.809789">
        <ele>112.62354</ele>
        <time>2021-06-30T10:32:53Z</time>
      </trkpt>
      <trkpt lat="44.567913" lon="4.809882">
        <ele>112.58331</ele>
        <time>2021-06-30T10:32:53Z</time>
      </trkpt>
      <trkpt lat="44.567532" lon="4.809975">
        <ele>113.14917</ele>
        <time>2021-06-30T10:32:54Z</time>
      </trkpt>
      <trkpt lat="44.567184" lon="4.810059">
        <ele>113.15863</ele>
        <time>2021-06-30T10:32:55Z</time>
      </trkpt>
      <trkpt lat="44.566826" lon="4.810133">
        <ele>112.58759</ele>
        <time>2021-06-30T10:32:57Z</time>
      </trkpt>
      <trkpt lat="44.566467" lon="4.810207">
        <ele>113.31531</ele>
        <time>2021-06-30T10:32:57Z</time>
      </trkpt>
      <trkpt lat="44.566101" lon="4.810282">
        <ele>112.95984</ele>
        <time>2021-06-30T10:32:58Z</time>
      </trkpt>
      <trkpt lat="44.565739" lon="4.810355">
        <ele>113.13043</ele>
        <time>2021-06-30T10:33:00Z</time>
      </trkpt>
      <trkpt lat="44.565376" lon="4.810421">
        <ele>113.03784</ele>
        <time>2021-06-30T10:33:00Z</time>
      </trkpt>
      <trkpt lat="44.565033" lon="4.810485">
        <ele>113.46228</ele>
        <time>2021-06-30T10:33:01Z</time>
      </trkpt>
      <trkpt lat="44.564682" lon="4.810551">
        <ele>113.70160</ele>
        <time>2021-06-30T10:33:02Z</time>
      </trkpt>
      <trkpt lat="44.564335" lon="4.810615">
        <ele>113.48132</ele>
        <time>2021-06-30T10:33:04Z</time>
      </trkpt>
      <trkpt lat="44.563969" lon="4.810677">
        <ele>113.68036</ele>
        <time>2021-06-30T10:33:04Z</time>
      </trkpt>
      <trkpt lat="44.563618" lon="4.810732">
        <ele>114.93384</ele>
        <time>2021-06-30T10:33:05Z</time>
      </trkpt>
      <trkpt lat="44.563255" lon="4.810778">
        <ele>114.66333</ele>
        <time>2021-06-30T10:33:06Z</time>
      </trkpt>
      <trkpt lat="44.562901" lon="4.810824">
        <ele>114.70276</ele>
        <time>2021-06-30T10:33:07Z</time>
      </trkpt>
      <trkpt lat="44.562534" lon="4.810871">
        <ele>115.74420</ele>
        <time>2021-06-30T10:33:09Z</time>
      </trkpt>
      <trkpt lat="44.562168" lon="4.810918">
        <ele>116.50244</ele>
        <time>2021-06-30T10:33:09Z</time>
      </trkpt>
      <trkpt lat="44.561825" lon="4.810961">
        <ele>118.40295</ele>
        <time>2021-06-30T10:33:10Z</time>
      </trkpt>
      <trkpt lat="44.561489" lon="4.811000">
        <ele>118.98120</ele>
        <time>2021-06-30T10:33:12Z</time>
      </trkpt>
      <trkpt lat="44.561172" lon="4.811037">
        <ele>120.00360</ele>
        <time>2021-06-30T10:33:12Z</time>
      </trkpt>
      <trkpt lat="44.560860" lon="4.811061">
        <ele>121.26849</ele>
        <time>2021-06-30T10:33:13Z</time>
      </trkpt>
      <trkpt lat="44.560551" lon="4.811085">
        <ele>121.10217</ele>
        <time>2021-06-30T10:33:14Z</time>
      </trkpt>
      <trkpt lat="44.560261" lon="4.811108">
        <ele>121.12836</ele>
        <time>2021-06-30T10:33:16Z</time>
      </trkpt>
      <trkpt lat="44.559956" lon="4.811132">
        <ele>122.04797</ele>
        <time>2021-06-30T10:33:16Z</time>
      </trkpt>
      <trkpt lat="44.559673" lon="4.811148">
        <ele>122.30170</ele>
        <time>2021-06-30T10:33:17Z</time>
      </trkpt>
      <trkpt lat="44.559395" lon="4.811163">
        <ele>122.52325</ele>
        <time>2021-06-30T10:33:18Z</time>
      </trkpt>
      <trkpt lat="44.559105" lon="4.811178">
        <ele>123.38019</ele>
        <time>2021-06-30T10:33:20Z</time>
      </trkpt>
      <trkpt lat="44.558826" lon="4.811190">
        <ele>123.61755</ele>
        <time>2021-06-30T10:33:20Z</time>
      </trkpt>
      <trkpt lat="44.558826" lon="4.811190">
        <ele>123.98846</ele>
        <time>2021-06-30T10:33:21Z</time>
      </trkpt>
      <trkpt lat="44.558552" lon="4.811197">
        <ele>124.59546</ele>
        <time>2021-06-30T10:33:22Z</time>
      </trkpt>
      <trkpt lat="44.558281" lon="4.811204">
        <ele>124.85852</ele>
        <time>2021-06-30T10:33:23Z</time>
      </trkpt>
      <trkpt lat="44.558006" lon="4.811211">
        <ele>124.54187</ele>
        <time>2021-06-30T10:33:25Z</time>
      </trkpt>
      <trkpt lat="44.557735" lon="4.811218">
        <ele>125.38745</ele>
        <time>2021-06-30T10:33:25Z</time>
      </trkpt>
      <trkpt lat="44.557449" lon="4.811216">
        <ele>126.00378</ele>
        <time>2021-06-30T10:33:26Z</time>
      </trkpt>
      <trkpt lat="44.557156" lon="4.811210">
        <ele>126.16882</ele>
        <time>2021-06-30T10:33:27Z</time>
      </trkpt>
      <trkpt lat="44.556877" lon="4.811204">
        <ele>125.88550</ele>
        <time>2021-06-30T10:33:28Z</time>
      </trkpt>
      <trkpt lat="44.556568" lon="4.811189">
        <ele>125.11285</ele>
        <time>2021-06-30T10:33:30Z</time>
      </trkpt>
      <trkpt lat="44.556271" lon="4.811173">
        <ele>125.01019</ele>
        <time>2021-06-30T10:33:30Z</time>
      </trkpt>
      <trkpt lat="44.555973" lon="4.811146">
        <ele>123.99609</ele>
        <time>2021-06-30T10:33:31Z</time>
      </trkpt>
      <trkpt lat="44.555664" lon="4.811116">
        <ele>124.37396</ele>
        <time>2021-06-30T10:33:32Z</time>
      </trkpt>
      <trkpt lat="44.555367" lon="4.811087">
        <ele>124.69446</ele>
        <time>2021-06-30T10:33:33Z</time>
      </trkpt>
      <trkpt lat="44.555061" lon="4.811057">
        <ele>124.75323</ele>
        <time>2021-06-30T10:33:34Z</time>
      </trkpt>
      <trkpt lat="44.554749" lon="4.811012">
        <ele>125.07922</ele>
        <time>2021-06-30T10:33:36Z</time>
      </trkpt>
      <trkpt lat="44.554394" lon="4.810958">
        <ele>124.83307</ele>
        <time>2021-06-30T10:33:36Z</time>
      </trkpt>
      <trkpt lat="44.554054" lon="4.810906">
        <ele>124.76587</ele>
        <time>2021-06-30T10:33:37Z</time>
      </trkpt>
      <trkpt lat="44.553726" lon="4.810839">
        <ele>123.42450</ele>
        <time>2021-06-30T10:33:38Z</time>
      </trkpt>
      <trkpt lat="44.553406" lon="4.810772">
        <ele>123.49390</ele>
        <time>2021-06-30T10:33:39Z</time>
      </trkpt>
      <trkpt lat="44.553028" lon="4.810693">
        <ele>122.80548</ele>
        <time>2021-06-30T10:33:40Z</time>
      </trkpt>
      <trkpt lat="44.552696" lon="4.810610">
        <ele>122.73669</ele>
        <time>2021-06-30T10:33:42Z</time>
      </trkpt>
      <trkpt lat="44.552361" lon="4.810522">
        <ele>122.39209</ele>
        <time>2021-06-30T10:33:42Z</time>
      </trkpt>
      <trkpt lat="44.552036" lon="4.810433">
        <ele>122.41351</ele>
        <time>2021-06-30T10:33:43Z</time>
      </trkpt>
      <trkpt lat="44.551682" lon="4.810329">
        <ele>122.34143</ele>
        <time>2021-06-30T10:33:44Z</time>
      </trkpt>
      <trkpt lat="44.551300" lon="4.810210">
        <ele>121.17865</ele>
        <time>2021-06-30T10:33:45Z</time>
      </trkpt>
      <trkpt lat="44.550938" lon="4.810088">
        <ele>120.93500</ele>
        <time>2021-06-30T10:33:47Z</time>
      </trkpt>
      <trkpt lat="44.550602" lon="4.809975">
        <ele>121.25220</ele>
        <time>2021-06-30T10:33:47Z</time>
      </trkpt>
      <trkpt lat="44.550266" lon="4.809854">
        <ele>121.62848</ele>
        <time>2021-06-30T10:33:48Z</time>
      </trkpt>
      <trkpt lat="44.549904" lon="4.809722">
        <ele>121.44318</ele>
        <time>2021-06-30T10:33:49Z</time>
      </trkpt>
      <trkpt lat="44.549568" lon="4.809599">
        <ele>120.46130</ele>
        <time>2021-06-30T10:33:50Z</time>
      </trkpt>
      <trkpt lat="44.549229" lon="4.809475">
        <ele>122.10120</ele>
        <time>2021-06-30T10:33:52Z</time>
      </trkpt>
      <trkpt lat="44.548866" lon="4.809341">
        <ele>122.84790</ele>
        <time>2021-06-30T10:33:53Z</time>
      </trkpt>
      <trkpt lat="44.548546" lon="4.809218">
        <ele>124.11499</ele>
        <time>2021-06-30T10:33:53Z</time>
      </trkpt>
      <trkpt lat="44.548546" lon="4.809218">
        <ele>123.32214</ele>
        <time>2021-06-30T10:33:54Z</time>
      </trkpt>
      <trkpt lat="44.548183" lon="4.809081">
        <ele>122.72339</ele>
        <time>2021-06-30T10:33:55Z</time>
      </trkpt>
      <trkpt lat="44.547836" lon="4.808947">
        <ele>122.74963</ele>
        <time>2021-06-30T10:33:57Z</time>
      </trkpt>
      <trkpt lat="44.547470" lon="4.808806">
        <ele>122.31116</ele>
        <time>2021-06-30T10:33:58Z</time>
      </trkpt>
      <trkpt lat="44.547131" lon="4.808672">
        <ele>119.46838</ele>
        <time>2021-06-30T10:33:58Z</time>
      </trkpt>
      <trkpt lat="44.546780" lon="4.808533">
        <ele>118.71594</ele>
        <time>2021-06-30T10:33:59Z</time>
      </trkpt>
      <trkpt lat="44.546432" lon="4.808395">
        <ele>117.44952</ele>
        <time>2021-06-30T10:34:00Z</time>
      </trkpt>
      <trkpt lat="44.546082" lon="4.808256">
        <ele>117.01764</ele>
        <time>2021-06-30T10:34:01Z</time>
      </trkpt>
      <trkpt lat="44.545723" lon="4.808112">
        <ele>117.33704</ele>
        <time>2021-06-30T10:34:03Z</time>
      </trkpt>
      <trkpt lat="44.545383" lon="4.807975">
        <ele>116.98352</ele>
        <time>2021-06-30T10:34:03Z</time>
      </trkpt>
      <trkpt lat="44.545036" lon="4.807833">
        <ele>116.74255</ele>
        <time>2021-06-30T10:34:04Z</time>
      </trkpt>
      <trkpt lat="44.544708" lon="4.807696">
        <ele>116.65833</ele>
        <time>2021-06-30T10:34:05Z</time>
      </trkpt>
      <trkpt lat="44.544365" lon="4.807554">
        <ele>116.17358</ele>
        <time>2021-06-30T10:34:06Z</time>
      </trkpt>
      <trkpt lat="44.544018" lon="4.807410">
        <ele>116.56891</ele>
        <time>2021-06-30T10:34:08Z</time>
      </trkpt>
      <trkpt lat="44.543667" lon="4.807263">
        <ele>117.10986</ele>
        <time>2021-06-30T10:34:08Z</time>
      </trkpt>
      <trkpt lat="44.543308" lon="4.807115">
        <ele>117.36902</ele>
        <time>2021-06-30T10:34:09Z</time>
      </trkpt>
      <trkpt lat="44.542973" lon="4.806967">
        <ele>116.35767</ele>
        <time>2021-06-30T10:34:10Z</time>
      </trkpt>
      <trkpt lat="44.542625" lon="4.806817">
        <ele>116.32898</ele>
        <time>2021-06-30T10:34:11Z</time>
      </trkpt>
      <trkpt lat="44.542282" lon="4.806667">
        <ele>115.57812</ele>
        <time>2021-06-30T10:34:13Z</time>
      </trkpt>
      <trkpt lat="44.541935" lon="4.806514">
        <ele>116.05322</ele>
        <time>2021-06-30T10:34:13Z</time>
      </trkpt>
      <trkpt lat="44.541580" lon="4.806360">
        <ele>116.43085</ele>
        <time>2021-06-30T10:34:14Z</time>
      </trkpt>
      <trkpt lat="44.541256" lon="4.806218">
        <ele>117.37732</ele>
        <time>2021-06-30T10:34:15Z</time>
      </trkpt>
      <trkpt lat="44.540913" lon="4.806067">
        <ele>117.54694</ele>
        <time>2021-06-30T10:34:16Z</time>
      </trkpt>
      <trkpt lat="44.540562" lon="4.805909">
        <ele>117.97839</ele>
        <time>2021-06-30T10:34:18Z</time>
      </trkpt>
      <trkpt lat="44.540203" lon="4.805744">
        <ele>118.23901</ele>
        <time>2021-06-30T10:34:19Z</time>
      </trkpt>
      <trkpt lat="44.539864" lon="4.805587">
        <ele>118.24951</ele>
        <time>2021-06-30T10:34:19Z</time>
      </trkpt>
      <trkpt lat="44.539513" lon="4.805426">
        <ele>118.15222</ele>
        <time>2021-06-30T10:34:20Z</time>
      </trkpt>
      <trkpt lat="44.539204" lon="4.805282">
        <ele>118.16309</ele>
        <time>2021-06-30T10:34:21Z</time>
      </trkpt>
      <trkpt lat="44.538845" lon="4.805117">
        <ele>119.04810</ele>
        <time>2021-06-30T10:34:22Z</time>
      </trkpt>
      <trkpt lat="44.538486" lon="4.804953">
        <ele>119.87042</ele>
        <time>2021-06-30T10:34:23Z</time>
      </trkpt>
      <trkpt lat="44.538177" lon="4.804809">
        <ele>120.88202</ele>
        <time>2021-06-30T10:34:25Z</time>
      </trkpt>
      <trkpt lat="44.537827" lon="4.804649">
        <ele>122.76245</ele>
        <time>2021-06-30T10:34:25Z</time>
      </trkpt>
      <trkpt lat="44.537827" lon="4.804649">
        <ele>124.04437</ele>
        <time>2021-06-30T10:34:26Z</time>
      </trkpt>
      <trkpt lat="44.537476" lon="4.804487">
        <ele>124.91571</ele>
        <time>2021-06-30T10:34:28Z</time>
      </trkpt>
      <trkpt lat="44.537113" lon="4.804314">
        <ele>125.72681</ele>
        <time>2021-06-30T10:34:28Z</time>
      </trkpt>
      <trkpt lat="44.536777" lon="4.804142">
        <ele>126.85437</ele>
        <time>2021-06-30T10:34:29Z</time>
      </trkpt>
      <trkpt lat="44.536407" lon="4.803961">
        <ele>128.16412</ele>
        <time>2021-06-30T10:34:30Z</time>
      </trkpt>
      <trkpt lat="44.536076" lon="4.803800">
        <ele>129.77637</ele>
        <time>2021-06-30T10:34:32Z</time>
      </trkpt>
      <trkpt lat="44.535736" lon="4.803633">
        <ele>131.29248</ele>
        <time>2021-06-30T10:34:33Z</time>
      </trkpt>
      <trkpt lat="44.535408" lon="4.803462">
        <ele>132.60712</ele>
        <time>2021-06-30T10:34:33Z</time>
      </trkpt>
      <trkpt lat="44.535069" lon="4.803284">
        <ele>134.43304</ele>
        <time>2021-06-30T10:34:34Z</time>
      </trkpt>
      <trkpt lat="44.534756" lon="4.803120">
        <ele>135.09998</ele>
        <time>2021-06-30T10:34:35Z</time>
      </trkpt>
      <trkpt lat="44.534424" lon="4.802942">
        <ele>136.08215</ele>
        <time>2021-06-30T10:34:36Z</time>
      </trkpt>
      <trkpt lat="44.534092" lon="4.802754">
        <ele>137.23871</ele>
        <time>2021-06-30T10:34:38Z</time>
      </trkpt>
      <trkpt lat="44.533749" lon="4.802558">
        <ele>137.51538</ele>
        <time>2021-06-30T10:34:39Z</time>
      </trkpt>
      <trkpt lat="44.533413" lon="4.802356">
        <ele>139.20245</ele>
        <time>2021-06-30T10:34:39Z</time>
      </trkpt>
      <trkpt lat="44.533089" lon="4.802150">
        <ele>139.75079</ele>
        <time>2021-06-30T10:34:40Z</time>
      </trkpt>
      <trkpt lat="44.532776" lon="4.801954">
        <ele>140.57288</ele>
        <time>2021-06-30T10:34:42Z</time>
      </trkpt>
      <trkpt lat="44.532459" lon="4.801752">
        <ele>141.13959</ele>
        <time>2021-06-30T10:34:43Z</time>
      </trkpt>
      <trkpt lat="44.532124" lon="4.801539">
        <ele>141.77856</ele>
        <time>2021-06-30T10:34:43Z</time>
      </trkpt>
      <trkpt lat="44.531784" lon="4.801325">
        <ele>142.86560</ele>
        <time>2021-06-30T10:34:44Z</time>
      </trkpt>
      <trkpt lat="44.531456" lon="4.801117">
        <ele>142.45532</ele>
        <time>2021-06-30T10:34:45Z</time>
      </trkpt>
      <trkpt lat="44.531124" lon="4.800886">
        <ele>143.39911</ele>
        <time>2021-06-30T10:34:47Z</time>
      </trkpt>
      <trkpt lat="44.530788" lon="4.800641">
        <ele>144.26746</ele>
        <time>2021-06-30T10:34:48Z</time>
      </trkpt>
      <trkpt lat="44.530472" lon="4.800409">
        <ele>144.85858</ele>
        <time>2021-06-30T10:34:48Z</time>
      </trkpt>
      <trkpt lat="44.530148" lon="4.800172">
        <ele>145.25208</ele>
        <time>2021-06-30T10:34:49Z</time>
      </trkpt>
      <trkpt lat="44.529793" lon="4.799912">
        <ele>145.91278</ele>
        <time>2021-06-30T10:34:50Z</time>
      </trkpt>
      <trkpt lat="44.529465" lon="4.799658">
        <ele>146.65778</ele>
        <time>2021-06-30T10:34:52Z</time>
      </trkpt>
      <trkpt lat="44.529137" lon="4.799385">
        <ele>147.09558</ele>
        <time>2021-06-30T10:34:53Z</time>
      </trkpt>
      <trkpt lat="44.529137" lon="4.799385">
        <ele>148.30243</ele>
        <time>2021-06-30T10:34:53Z</time>
      </trkpt>
      <trkpt lat="44.528805" lon="4.799109">
        <ele>148.40271</ele>
        <time>2021-06-30T10:34:54Z</time>
      </trkpt>
      <trkpt lat="44.528496" lon="4.798851">
        <ele>148.69934</ele>
        <time>2021-06-30T10:34:55Z</time>
      </trkpt>
      <trkpt lat="44.528198" lon="4.798605">
        <ele>149.30957</ele>
        <time>2021-06-30T10:34:56Z</time>
      </trkpt>
      <trkpt lat="44.527870" lon="4.798331">
        <ele>149.86694</ele>
        <time>2021-06-30T10:34:58Z</time>
      </trkpt>
      <trkpt lat="44.527576" lon="4.798084">
        <ele>149.63849</ele>
        <time>2021-06-30T10:34:59Z</time>
      </trkpt>
      <trkpt lat="44.527260" lon="4.797788">
        <ele>149.34094</ele>
        <time>2021-06-30T10:34:59Z</time>
      </trkpt>
      <trkpt lat="44.526978" lon="4.797522">
        <ele>149.66193</ele>
        <time>2021-06-30T10:35:00Z</time>
      </trkpt>
      <trkpt lat="44.526669" lon="4.797235">
        <ele>150.17444</ele>
        <time>2021-06-30T10:35:01Z</time>
      </trkpt>
      <trkpt lat="44.526367" lon="4.796956">
        <ele>150.25720</ele>
        <time>2021-06-30T10:35:03Z</time>
      </trkpt>
      <trkpt lat="44.526062" lon="4.796664">
        <ele>150.90656</ele>
        <time>2021-06-30T10:35:04Z</time>
      </trkpt>
      <trkpt lat="44.525764" lon="4.796372">
        <ele>151.64471</ele>
        <time>2021-06-30T10:35:04Z</time>
      </trkpt>
      <trkpt lat="44.525482" lon="4.796092">
        <ele>150.85895</ele>
        <time>2021-06-30T10:35:05Z</time>
      </trkpt>
      <trkpt lat="44.525208" lon="4.795817">
        <ele>150.98468</ele>
        <time>2021-06-30T10:35:06Z</time>
      </trkpt>
      <trkpt lat="44.524940" lon="4.795529">
        <ele>151.51556</ele>
        <time>2021-06-30T10:35:08Z</time>
      </trkpt>
      <trkpt lat="44.524654" lon="4.795223">
        <ele>151.27002</ele>
        <time>2021-06-30T10:35:09Z</time>
      </trkpt>
      <trkpt lat="44.524387" lon="4.794934">
        <ele>152.18872</ele>
        <time>2021-06-30T10:35:09Z</time>
      </trkpt>
      <trkpt lat="44.524124" lon="4.794652">
        <ele>152.66180</ele>
        <time>2021-06-30T10:35:10Z</time>
      </trkpt>
      <trkpt lat="44.523872" lon="4.794368">
        <ele>152.98969</ele>
        <time>2021-06-30T10:35:11Z</time>
      </trkpt>
      <trkpt lat="44.523613" lon="4.794068">
        <ele>153.33148</ele>
        <time>2021-06-30T10:35:13Z</time>
      </trkpt>
      <trkpt lat="44.523338" lon="4.793753">
        <ele>153.07507</ele>
        <time>2021-06-30T10:35:14Z</time>
      </trkpt>
      <trkpt lat="44.523060" lon="4.793434">
        <ele>153.33557</ele>
        <time>2021-06-30T10:35:14Z</time>
      </trkpt>
      <trkpt lat="44.522800" lon="4.793133">
        <ele>153.21021</ele>
        <time>2021-06-30T10:35:15Z</time>
      </trkpt>
      <trkpt lat="44.522541" lon="4.792815">
        <ele>153.29822</ele>
        <time>2021-06-30T10:35:16Z</time>
      </trkpt>
      <trkpt lat="44.522259" lon="4.792459">
        <ele>153.88110</ele>
        <time>2021-06-30T10:35:17Z</time>
      </trkpt>
      <trkpt lat="44.522259" lon="4.792459">
        <ele>154.05737</ele>
        <time>2021-06-30T10:35:19Z</time>
      </trkpt>
      <trkpt lat="44.521984" lon="4.792118">
        <ele>154.57886</ele>
        <time>2021-06-30T10:35:20Z</time>
      </trkpt>
      <trkpt lat="44.521717" lon="4.791765">
        <ele>154.27966</ele>
        <time>2021-06-30T10:35:20Z</time>
      </trkpt>
      <trkpt lat="44.521458" lon="4.791421">
        <ele>153.93530</ele>
        <time>2021-06-30T10:35:21Z</time>
      </trkpt>
      <trkpt lat="44.521194" lon="4.791074">
        <ele>153.32434</ele>
        <time>2021-06-30T10:35:22Z</time>
      </trkpt>
      <trkpt lat="44.520931" lon="4.790726">
        <ele>152.73364</ele>
        <time>2021-06-30T10:35:24Z</time>
      </trkpt>
      <trkpt lat="44.520660" lon="4.790347">
        <ele>152.77118</ele>
        <time>2021-06-30T10:35:25Z</time>
      </trkpt>
      <trkpt lat="44.520397" lon="4.789973">
        <ele>152.75763</ele>
        <time>2021-06-30T10:35:25Z</time>
      </trkpt>
      <trkpt lat="44.520145" lon="4.789618">
        <ele>152.93628</ele>
        <time>2021-06-30T10:35:26Z</time>
      </trkpt>
      <trkpt lat="44.519897" lon="4.789254">
        <ele>152.97626</ele>
        <time>2021-06-30T10:35:27Z</time>
      </trkpt>
      <trkpt lat="44.519653" lon="4.788886">
        <ele>153.53387</ele>
        <time>2021-06-30T10:35:29Z</time>
      </trkpt>
      <trkpt lat="44.519394" lon="4.788491">
        <ele>152.82532</ele>
        <time>2021-06-30T10:35:30Z</time>
      </trkpt>
      <trkpt lat="44.519154" lon="4.788115">
        <ele>153.14746</ele>
        <time>2021-06-30T10:35:30Z</time>
      </trkpt>
      <trkpt lat="44.518921" lon="4.787747">
        <ele>153.81799</ele>
        <time>2021-06-30T10:35:31Z</time>
      </trkpt>
      <trkpt lat="44.518684" lon="4.787379">
        <ele>153.31799</ele>
        <time>2021-06-30T10:35:32Z</time>
      </trkpt>
      <trkpt lat="44.518444" lon="4.787003">
        <ele>153.43585</ele>
        <time>2021-06-30T10:35:34Z</time>
      </trkpt>
      <trkpt lat="44.518200" lon="4.786619">
        <ele>153.35095</ele>
        <time>2021-06-30T10:35:35Z</time>
      </trkpt>
      <trkpt lat="44.517967" lon="4.786248">
        <ele>151.41962</ele>
        <time>2021-06-30T10:35:35Z</time>
      </trkpt>
      <trkpt lat="44.517742" lon="4.785870">
        <ele>150.57471</ele>
        <time>2021-06-30T10:35:36Z</time>
      </trkpt>
      <trkpt lat="44.517509" lon="4.785476">
        <ele>150.83301</ele>
        <time>2021-06-30T10:35:37Z</time>
      </trkpt>
      <trkpt lat="44.517273" lon="4.785092">
        <ele>151.10889</ele>
        <time>2021-06-30T10:35:39Z</time>
      </trkpt>
      <trkpt lat="44.517029" lon="4.784690">
        <ele>150.87354</ele>
        <time>2021-06-30T10:35:40Z</time>
      </trkpt>
      <trkpt lat="44.516796" lon="4.784294">
        <ele>149.78088</ele>
        <time>2021-06-30T10:35:40Z</time>
      </trkpt>
      <trkpt lat="44.516575" lon="4.783916">
        <ele>148.99603</ele>
        <time>2021-06-30T10:35:41Z</time>
      </trkpt>
      <trkpt lat="44.516350" lon="4.783530">
        <ele>147.64941</ele>
        <time>2021-06-30T10:35:42Z</time>
      </trkpt>
      <trkpt lat="44.516121" lon="4.783135">
        <ele>147.18604</ele>
        <time>2021-06-30T10:35:44Z</time>
      </trkpt>
      <trkpt lat="44.515877" lon="4.782742">
        <ele>146.51154</ele>
        <time>2021-06-30T10:35:45Z</time>
      </trkpt>
      <trkpt lat="44.515648" lon="4.782366">
        <ele>146.41681</ele>
        <time>2021-06-30T10:35:45Z</time>
      </trkpt>
      <trkpt lat="44.515408" lon="4.781982">
        <ele>147.73016</ele>
        <time>2021-06-30T10:35:46Z</time>
      </trkpt>
      <trkpt lat="44.515179" lon="4.781612">
        <ele>147.21240</ele>
        <time>2021-06-30T10:35:47Z</time>
      </trkpt>
      <trkpt lat="44.514931" lon="4.781209">
        <ele>146.23730</ele>
        <time>2021-06-30T10:35:49Z</time>
      </trkpt>
      <trkpt lat="44.514683" lon="4.780823">
        <ele>146.28009</ele>
        <time>2021-06-30T10:35:50Z</time>
      </trkpt>
      <trkpt lat="44.514683" lon="4.780823">
        <ele>146.80737</ele>
        <time>2021-06-30T10:35:50Z</time>
      </trkpt>
      <trkpt lat="44.514446" lon="4.780463">
        <ele>147.77374</ele>
        <time>2021-06-30T10:35:51Z</time>
      </trkpt>
      <trkpt lat="44.514217" lon="4.780110">
        <ele>148.10254</ele>
        <time>2021-06-30T10:35:53Z</time>
      </trkpt>
      <trkpt lat="44.513981" lon="4.779746">
        <ele>149.27209</ele>
        <time>2021-06-30T10:35:54Z</time>
      </trkpt>
      <trkpt lat="44.513756" lon="4.779411">
        <ele>148.62714</ele>
        <time>2021-06-30T10:35:54Z</time>
      </trkpt>
      <trkpt lat="44.513519" lon="4.779072">
        <ele>147.11090</ele>
        <time>2021-06-30T10:35:55Z</time>
      </trkpt>
      <trkpt lat="44.513275" lon="4.778723">
        <ele>146.63416</ele>
        <time>2021-06-30T10:35:56Z</time>
      </trkpt>
      <trkpt lat="44.513039" lon="4.778391">
        <ele>147.71600</ele>
        <time>2021-06-30T10:35:57Z</time>
      </trkpt>
      <trkpt lat="44.512810" lon="4.778088">
        <ele>147.72821</ele>
        <time>2021-06-30T10:35:58Z</time>
      </trkpt>
      <trkpt lat="44.512566" lon="4.777769">
        <ele>145.87726</ele>
        <time>2021-06-30T10:36:00Z</time>
      </trkpt>
      <trkpt lat="44.512333" lon="4.777464">
        <ele>146.17456</ele>
        <time>2021-06-30T10:36:00Z</time>
      </trkpt>
      <trkpt lat="44.512074" lon="4.777131">
        <ele>145.78992</ele>
        <time>2021-06-30T10:36:01Z</time>
      </trkpt>
      <trkpt lat="44.511814" lon="4.776813">
        <ele>146.95557</ele>
        <time>2021-06-30T10:36:03Z</time>
      </trkpt>
      <trkpt lat="44.511559" lon="4.776499">
        <ele>145.75995</ele>
        <time>2021-06-30T10:36:04Z</time>
      </trkpt>
      <trkpt lat="44.511276" lon="4.776147">
        <ele>144.99628</ele>
        <time>2021-06-30T10:36:04Z</time>
      </trkpt>
      <trkpt lat="44.511002" lon="4.775804">
        <ele>144.18433</ele>
        <time>2021-06-30T10:36:05Z</time>
      </trkpt>
      <trkpt lat="44.510700" lon="4.775487">
        <ele>145.80548</ele>
        <time>2021-06-30T10:36:07Z</time>
      </trkpt>
      <trkpt lat="44.510418" lon="4.775171">
        <ele>146.81958</ele>
        <time>2021-06-30T10:36:08Z</time>
      </trkpt>
      <trkpt lat="44.510128" lon="4.774853">
        <ele>146.34045</ele>
        <time>2021-06-30T10:36:08Z</time>
      </trkpt>
      <trkpt lat="44.509827" lon="4.774529">
        <ele>146.73816</ele>
        <time>2021-06-30T10:36:09Z</time>
      </trkpt>
      <trkpt lat="44.509548" lon="4.774235">
        <ele>146.55591</ele>
        <time>2021-06-30T10:36:10Z</time>
      </trkpt>
      <trkpt lat="44.509232" lon="4.773937">
        <ele>146.82410</ele>
        <time>2021-06-30T10:36:12Z</time>
      </trkpt>
      <trkpt lat="44.508877" lon="4.773602">
        <ele>146.87292</ele>
        <time>2021-06-30T10:36:12Z</time>
      </trkpt>
      <trkpt lat="44.508495" lon="4.773245">
        <ele>145.06873</ele>
        <time>2021-06-30T10:36:13Z</time>
      </trkpt>
      <trkpt lat="44.508156" lon="4.772950">
        <ele>144.07617</ele>
        <time>2021-06-30T10:36:14Z</time>
      </trkpt>
      <trkpt lat="44.507805" lon="4.772650">
        <ele>141.65204</ele>
        <time>2021-06-30T10:36:16Z</time>
      </trkpt>
      <trkpt lat="44.507450" lon="4.772358">
        <ele>141.20880</ele>
        <time>2021-06-30T10:36:16Z</time>
      </trkpt>
      <trkpt lat="44.507111" lon="4.772092">
        <ele>141.08435</ele>
        <time>2021-06-30T10:36:17Z</time>
      </trkpt>
      <trkpt lat="44.506783" lon="4.771834">
        <ele>140.40076</ele>
        <time>2021-06-30T10:36:18Z</time>
      </trkpt>
      <trkpt lat="44.506443" lon="4.771579">
        <ele>139.94135</ele>
        <time>2021-06-30T10:36:20Z</time>
      </trkpt>
      <trkpt lat="44.506443" lon="4.771579">
        <ele>142.15057</ele>
        <time>2021-06-30T10:36:20Z</time>
      </trkpt>
      <trkpt lat="44.506088" lon="4.771322">
        <ele>143.23407</ele>
        <time>2021-06-30T10:36:21Z</time>
      </trkpt>
      <trkpt lat="44.505730" lon="4.771070">
        <ele>142.94348</ele>
        <time>2021-06-30T10:36:22Z</time>
      </trkpt>
      <trkpt lat="44.505383" lon="4.770845">
        <ele>142.77795</ele>
        <time>2021-06-30T10:36:24Z</time>
      </trkpt>
      <trkpt lat="44.504993" lon="4.770590">
        <ele>142.33069</ele>
        <time>2021-06-30T10:36:24Z</time>
      </trkpt>
      <trkpt lat="44.504642" lon="4.770377">
        <ele>141.71362</ele>
        <time>2021-06-30T10:36:25Z</time>
      </trkpt>
      <trkpt lat="44.504280" lon="4.770162">
        <ele>141.26538</ele>
        <time>2021-06-30T10:36:26Z</time>
      </trkpt>
      <trkpt lat="44.503944" lon="4.769972">
        <ele>140.59583</ele>
        <time>2021-06-30T10:36:28Z</time>
      </trkpt>
      <trkpt lat="44.503555" lon="4.769751">
        <ele>140.70557</ele>
        <time>2021-06-30T10:36:28Z</time>
      </trkpt>
      <trkpt lat="44.503189" lon="4.769554">
        <ele>138.45361</ele>
        <time>2021-06-30T10:36:29Z</time>
      </trkpt>
      <trkpt lat="44.502831" lon="4.769372">
        <ele>138.76630</ele>
        <time>2021-06-30T10:36:30Z</time>
      </trkpt>
      <trkpt lat="44.502502" lon="4.769215">
        <ele>138.30103</ele>
        <time>2021-06-30T10:36:31Z</time>
      </trkpt>
      <trkpt lat="44.502098" lon="4.769038">
        <ele>138.16779</ele>
        <time>2021-06-30T10:36:33Z</time>
      </trkpt>
      <trkpt lat="44.501724" lon="4.768874">
        <ele>137.47626</ele>
        <time>2021-06-30T10:36:33Z</time>
      </trkpt>
      <trkpt lat="44.501358" lon="4.768731">
        <ele>137.89001</ele>
        <time>2021-06-30T10:36:34Z</time>
      </trkpt>
      <trkpt lat="44.501011" lon="4.768597">
        <ele>137.65662</ele>
        <time>2021-06-30T10:36:35Z</time>
      </trkpt>
      <trkpt lat="44.500664" lon="4.768463">
        <ele>137.60468</ele>
        <time>2021-06-30T10:36:37Z</time>
      </trkpt>
      <trkpt lat="44.500278" lon="4.768324">
        <ele>135.99115</ele>
        <time>2021-06-30T10:36:37Z</time>
      </trkpt>
      <trkpt lat="44.499916" lon="4.768201">
        <ele>135.04468</ele>
        <time>2021-06-30T10:36:38Z</time>
      </trkpt>
      <trkpt lat="44.499542" lon="4.768085">
        <ele>132.64392</ele>
        <time>2021-06-30T10:36:39Z</time>
      </trkpt>
      <trkpt lat="44.499172" lon="4.767981">
        <ele>132.28845</ele>
        <time>2021-06-30T10:36:40Z</time>
      </trkpt>
      <trkpt lat="44.498802" lon="4.767876">
        <ele>131.20001</ele>
        <time>2021-06-30T10:36:42Z</time>
      </trkpt>
      <trkpt lat="44.498409" lon="4.767780">
        <ele>131.03363</ele>
        <time>2021-06-30T10:36:42Z</time>
      </trkpt>
      <trkpt lat="44.498009" lon="4.767687">
        <ele>130.51935</ele>
        <time>2021-06-30T10:36:43Z</time>
      </trkpt>
      <trkpt lat="44.497665" lon="4.767616">
        <ele>130.33148</ele>
        <time>2021-06-30T10:36:44Z</time>
      </trkpt>
      <trkpt lat="44.497292" lon="4.767545">
        <ele>128.41833</ele>
        <time>2021-06-30T10:36:46Z</time>
      </trkpt>
      <trkpt lat="44.496937" lon="4.767477">
        <ele>127.82770</ele>
        <time>2021-06-30T10:36:46Z</time>
      </trkpt>
      <trkpt lat="44.496574" lon="4.767425">
        <ele>127.07672</ele>
        <time>2021-06-30T10:36:47Z</time>
      </trkpt>
      <trkpt lat="44.496223" lon="4.767385">
        <ele>126.69098</ele>
        <time>2021-06-30T10:36:48Z</time>
      </trkpt>
      <trkpt lat="44.495861" lon="4.767344">
        <ele>124.94965</ele>
        <time>2021-06-30T10:36:49Z</time>
      </trkpt>
      <trkpt lat="44.495483" lon="4.767301">
        <ele>124.12970</ele>
        <time>2021-06-30T10:36:51Z</time>
      </trkpt>
      <trkpt lat="44.495483" lon="4.767301">
        <ele>124.79108</ele>
        <time>2021-06-30T10:36:51Z</time>
      </trkpt>
      <trkpt lat="44.495125" lon="4.767260">
        <ele>124.59924</ele>
        <time>2021-06-30T10:36:52Z</time>
      </trkpt>
      <trkpt lat="44.494774" lon="4.767228">
        <ele>124.42346</ele>
        <time>2021-06-30T10:36:53Z</time>
      </trkpt>
      <trkpt lat="44.494411" lon="4.767205">
        <ele>122.76477</ele>
        <time>2021-06-30T10:36:54Z</time>
      </trkpt>
      <trkpt lat="44.494057" lon="4.767190">
        <ele>122.44214</ele>
        <time>2021-06-30T10:36:56Z</time>
      </trkpt>
      <trkpt lat="44.493671" lon="4.767177">
        <ele>121.73303</ele>
        <time>2021-06-30T10:36:56Z</time>
      </trkpt>
      <trkpt lat="44.493324" lon="4.767165">
        <ele>120.39490</ele>
        <time>2021-06-30T10:36:57Z</time>
      </trkpt>
      <trkpt lat="44.492989" lon="4.767154">
        <ele>120.28925</ele>
        <time>2021-06-30T10:36:58Z</time>
      </trkpt>
      <trkpt lat="44.492611" lon="4.767141">
        <ele>119.79968</ele>
        <time>2021-06-30T10:37:00Z</time>
      </trkpt>
      <trkpt lat="44.492226" lon="4.767128">
        <ele>118.95966</ele>
        <time>2021-06-30T10:37:00Z</time>
      </trkpt>
      <trkpt lat="44.491875" lon="4.767117">
        <ele>117.84058</ele>
        <time>2021-06-30T10:37:01Z</time>
      </trkpt>
      <trkpt lat="44.491512" lon="4.767104">
        <ele>117.65765</ele>
        <time>2021-06-30T10:37:02Z</time>
      </trkpt>
      <trkpt lat="44.491169" lon="4.767093">
        <ele>117.01044</ele>
        <time>2021-06-30T10:37:04Z</time>
      </trkpt>
      <trkpt lat="44.490791" lon="4.767085">
        <ele>117.22717</ele>
        <time>2021-06-30T10:37:04Z</time>
      </trkpt>
      <trkpt lat="44.490437" lon="4.767078">
        <ele>117.04529</ele>
        <time>2021-06-30T10:37:05Z</time>
      </trkpt>
      <trkpt lat="44.490105" lon="4.767060">
        <ele>116.75092</ele>
        <time>2021-06-30T10:37:06Z</time>
      </trkpt>
      <trkpt lat="44.489765" lon="4.767060">
        <ele>117.54401</ele>
        <time>2021-06-30T10:37:07Z</time>
      </trkpt>
      <trkpt lat="44.489414" lon="4.767055">
        <ele>117.57849</ele>
        <time>2021-06-30T10:37:09Z</time>
      </trkpt>
      <trkpt lat="44.489048" lon="4.767050">
        <ele>119.11285</ele>
        <time>2021-06-30T10:37:09Z</time>
      </trkpt>
      <trkpt lat="44.488716" lon="4.767040">
        <ele>120.44983</ele>
        <time>2021-06-30T10:37:10Z</time>
      </trkpt>
      <trkpt lat="44.488388" lon="4.767029">
        <ele>120.52551</ele>
        <time>2021-06-30T10:37:11Z</time>
      </trkpt>
      <trkpt lat="44.488037" lon="4.767018">
        <ele>121.15857</ele>
        <time>2021-06-30T10:37:12Z</time>
      </trkpt>
      <trkpt lat="44.487705" lon="4.767007">
        <ele>121.80481</ele>
        <time>2021-06-30T10:37:14Z</time>
      </trkpt>
      <trkpt lat="44.487377" lon="4.766996">
        <ele>122.52893</ele>
        <time>2021-06-30T10:37:14Z</time>
      </trkpt>
      <trkpt lat="44.487053" lon="4.766986">
        <ele>122.92505</ele>
        <time>2021-06-30T10:37:15Z</time>
      </trkpt>
      <trkpt lat="44.486744" lon="4.766976">
        <ele>123.48816</ele>
        <time>2021-06-30T10:37:16Z</time>
      </trkpt>
      <trkpt lat="44.486397" lon="4.766965">
        <ele>124.13861</ele>
        <time>2021-06-30T10:37:17Z</time>
      </trkpt>
      <trkpt lat="44.486046" lon="4.766954">
        <ele>124.07880</ele>
        <time>2021-06-30T10:37:18Z</time>
      </trkpt>
      <trkpt lat="44.486046" lon="4.766954">
        <ele>124.65326</ele>
        <time>2021-06-30T10:37:19Z</time>
      </trkpt>
      <trkpt lat="44.485741" lon="4.766944">
        <ele>124.67816</ele>
        <time>2021-06-30T10:37:21Z</time>
      </trkpt>
      <trkpt lat="44.485386" lon="4.766933">
        <ele>125.03918</ele>
        <time>2021-06-30T10:37:21Z</time>
      </trkpt>
      <trkpt lat="44.485054" lon="4.766920">
        <ele>125.13373</ele>
        <time>2021-06-30T10:37:22Z</time>
      </trkpt>
      <trkpt lat="44.484776" lon="4.766907">
        <ele>125.71710</ele>
        <time>2021-06-30T10:37:24Z</time>
      </trkpt>
      <trkpt lat="44.484474" lon="4.766893">
        <ele>125.62372</ele>
        <time>2021-06-30T10:37:24Z</time>
      </trkpt>
      <trkpt lat="44.484165" lon="4.766884">
        <ele>125.48615</ele>
        <time>2021-06-30T10:37:26Z</time>
      </trkpt>
      <trkpt lat="44.483849" lon="4.766879">
        <ele>125.85022</ele>
        <time>2021-06-30T10:37:26Z</time>
      </trkpt>
      <trkpt lat="44.483559" lon="4.766873">
        <ele>126.58569</ele>
        <time>2021-06-30T10:37:27Z</time>
      </trkpt>
      <trkpt lat="44.483288" lon="4.766855">
        <ele>126.80298</ele>
        <time>2021-06-30T10:37:28Z</time>
      </trkpt>
      <trkpt lat="44.483013" lon="4.766837">
        <ele>127.94830</ele>
        <time>2021-06-30T10:37:30Z</time>
      </trkpt>
      <trkpt lat="44.482708" lon="4.766825">
        <ele>128.54053</ele>
        <time>2021-06-30T10:37:30Z</time>
      </trkpt>
      <trkpt lat="44.482445" lon="4.766816">
        <ele>129.51666</ele>
        <time>2021-06-30T10:37:31Z</time>
      </trkpt>
      <trkpt lat="44.482178" lon="4.766807">
        <ele>129.45068</ele>
        <time>2021-06-30T10:37:33Z</time>
      </trkpt>
      <trkpt lat="44.481884" lon="4.766798">
        <ele>130.19470</ele>
        <time>2021-06-30T10:37:33Z</time>
      </trkpt>
      <trkpt lat="44.481598" lon="4.766788">
        <ele>130.83118</ele>
        <time>2021-06-30T10:37:34Z</time>
      </trkpt>
      <trkpt lat="44.481304" lon="4.766779">
        <ele>131.77789</ele>
        <time>2021-06-30T10:37:35Z</time>
      </trkpt>
      <trkpt lat="44.480984" lon="4.766769">
        <ele>131.98456</ele>
        <time>2021-06-30T10:37:36Z</time>
      </trkpt>
      <trkpt lat="44.480694" lon="4.766755">
        <ele>132.69934</ele>
        <time>2021-06-30T10:37:38Z</time>
      </trkpt>
      <trkpt lat="44.480412" lon="4.766742">
        <ele>133.06787</ele>
        <time>2021-06-30T10:37:38Z</time>
      </trkpt>
      <trkpt lat="44.480137" lon="4.766729">
        <ele>133.74103</ele>
        <time>2021-06-30T10:37:40Z</time>
      </trkpt>
      <trkpt lat="44.479870" lon="4.766716">
        <ele>133.66608</ele>
        <time>2021-06-30T10:37:41Z</time>
      </trkpt>
      <trkpt lat="44.479599" lon="4.766704">
        <ele>133.66260</ele>
        <time>2021-06-30T10:37:41Z</time>
      </trkpt>
      <trkpt lat="44.479332" lon="4.766691">
        <ele>133.77838</ele>
        <time>2021-06-30T10:37:42Z</time>
      </trkpt>
      <trkpt lat="44.479073" lon="4.766678">
        <ele>132.13501</ele>
        <time>2021-06-30T10:37:43Z</time>
      </trkpt>
      <trkpt lat="44.478817" lon="4.766666">
        <ele>132.68689</ele>
        <time>2021-06-30T10:37:45Z</time>
      </trkpt>
      <trkpt lat="44.478542" lon="4.766653">
        <ele>133.20520</ele>
        <time>2021-06-30T10:37:46Z</time>
      </trkpt>
      <trkpt lat="44.478287" lon="4.766641">
        <ele>133.67603</ele>
        <time>2021-06-30T10:37:46Z</time>
      </trkpt>
      <trkpt lat="44.478024" lon="4.766629">
        <ele>134.38269</ele>
        <time>2021-06-30T10:37:47Z</time>
      </trkpt>
      <trkpt lat="44.477764" lon="4.766615">
        <ele>133.97839</ele>
        <time>2021-06-30T10:37:48Z</time>
      </trkpt>
      <trkpt lat="44.477509" lon="4.766589">
        <ele>134.48059</ele>
        <time>2021-06-30T10:37:50Z</time>
      </trkpt>
      <trkpt lat="44.477242" lon="4.766562">
        <ele>135.39209</ele>
        <time>2021-06-30T10:37:51Z</time>
      </trkpt>
      <trkpt lat="44.476982" lon="4.766536">
        <ele>135.49414</ele>
        <time>2021-06-30T10:37:51Z</time>
      </trkpt>
      <trkpt lat="44.476715" lon="4.766510">
        <ele>135.32275</ele>
        <time>2021-06-30T10:37:52Z</time>
      </trkpt>
      <trkpt lat="44.476433" lon="4.766485">
        <ele>135.74969</ele>
        <time>2021-06-30T10:37:53Z</time>
      </trkpt>
      <trkpt lat="44.476170" lon="4.766461">
        <ele>135.40479</ele>
        <time>2021-06-30T10:37:55Z</time>
      </trkpt>
      <trkpt lat="44.475880" lon="4.766435">
        <ele>134.97321</ele>
        <time>2021-06-30T10:37:55Z</time>
      </trkpt>
      <trkpt lat="44.475880" lon="4.766435">
        <ele>134.75507</ele>
        <time>2021-06-30T10:37:56Z</time>
      </trkpt>
      <trkpt lat="44.475609" lon="4.766409">
        <ele>135.15436</ele>
        <time>2021-06-30T10:37:57Z</time>
      </trkpt>
      <trkpt lat="44.475323" lon="4.766373">
        <ele>135.36090</ele>
        <time>2021-06-30T10:37:58Z</time>
      </trkpt>
      <trkpt lat="44.475037" lon="4.766336">
        <ele>136.93060</ele>
        <time>2021-06-30T10:38:00Z</time>
      </trkpt>
      <trkpt lat="44.474777" lon="4.766298">
        <ele>137.00714</ele>
        <time>2021-06-30T10:38:01Z</time>
      </trkpt>
      <trkpt lat="44.474483" lon="4.766244">
        <ele>136.61182</ele>
        <time>2021-06-30T10:38:01Z</time>
      </trkpt>
      <trkpt lat="44.474213" lon="4.766195">
        <ele>136.93408</ele>
        <time>2021-06-30T10:38:02Z</time>
      </trkpt>
      <trkpt lat="44.473934" lon="4.766144">
        <ele>137.15985</ele>
        <time>2021-06-30T10:38:03Z</time>
      </trkpt>
      <trkpt lat="44.473660" lon="4.766090">
        <ele>137.31567</ele>
        <time>2021-06-30T10:38:04Z</time>
      </trkpt>
      <trkpt lat="44.473377" lon="4.766030">
        <ele>138.28528</ele>
        <time>2021-06-30T10:38:06Z</time>
      </trkpt>
      <trkpt lat="44.473091" lon="4.765969">
        <ele>138.64166</ele>
        <time>2021-06-30T10:38:06Z</time>
      </trkpt>
      <trkpt lat="44.472809" lon="4.765908">
        <ele>139.83929</ele>
        <time>2021-06-30T10:38:07Z</time>
      </trkpt>
      <trkpt lat="44.472542" lon="4.765830">
        <ele>139.41473</ele>
        <time>2021-06-30T10:38:09Z</time>
      </trkpt>
      <trkpt lat="44.472252" lon="4.765745">
        <ele>139.57422</ele>
        <time>2021-06-30T10:38:10Z</time>
      </trkpt>
      <trkpt lat="44.471970" lon="4.765662">
        <ele>139.61035</ele>
        <time>2021-06-30T10:38:10Z</time>
      </trkpt>
      <trkpt lat="44.471676" lon="4.765567">
        <ele>139.93121</ele>
        <time>2021-06-30T10:38:11Z</time>
      </trkpt>
      <trkpt lat="44.471378" lon="4.765459">
        <ele>140.39337</ele>
        <time>2021-06-30T10:38:13Z</time>
      </trkpt>
      <trkpt lat="44.471031" lon="4.765332">
        <ele>139.30762</ele>
        <time>2021-06-30T10:38:13Z</time>
      </trkpt>
      <trkpt lat="44.470615" lon="4.765176">
        <ele>139.41895</ele>
        <time>2021-06-30T10:38:14Z</time>
      </trkpt>
      <trkpt lat="44.470230" lon="4.765021">
        <ele>139.88110</ele>
        <time>2021-06-30T10:38:16Z</time>
      </trkpt>
      <trkpt lat="44.469875" lon="4.764867">
        <ele>140.34045</ele>
        <time>2021-06-30T10:38:17Z</time>
      </trkpt>
      <trkpt lat="44.469528" lon="4.764705">
        <ele>140.37305</ele>
        <time>2021-06-30T10:38:17Z</time>
      </trkpt>
      <trkpt lat="44.469177" lon="4.764531">
        <ele>141.57581</ele>
        <time>2021-06-30T10:38:18Z</time>
      </trkpt>
      <trkpt lat="44.468853" lon="4.764371">
        <ele>141.78998</ele>
        <time>2021-06-30T10:38:19Z</time>
      </trkpt>
      <trkpt lat="44.468510" lon="4.764202">
        <ele>141.36707</ele>
        <time>2021-06-30T10:38:21Z</time>
      </trkpt>
      <trkpt lat="44.468155" lon="4.764016">
        <ele>141.34241</ele>
        <time>2021-06-30T10:38:22Z</time>
      </trkpt>
      <trkpt lat="44.467804" lon="4.763822">
        <ele>142.65649</ele>
        <time>2021-06-30T10:38:22Z</time>
      </trkpt>
      <trkpt lat="44.467487" lon="4.763635">
        <ele>142.50287</ele>
        <time>2021-06-30T10:38:23Z</time>
      </trkpt>
      <trkpt lat="44.467171" lon="4.763447">
        <ele>142.16754</ele>
        <time>2021-06-30T10:38:24Z</time>
      </trkpt>
      <trkpt lat="44.466843" lon="4.763247">
        <ele>143.02625</ele>
        <time>2021-06-30T10:38:25Z</time>
      </trkpt>
      <trkpt lat="44.466518" lon="4.763049">
        <ele>143.14795</ele>
        <time>2021-06-30T10:38:27Z</time>
      </trkpt>
      <trkpt lat="44.466190" lon="4.762833">
        <ele>144.07355</ele>
        <time>2021-06-30T10:38:28Z</time>
      </trkpt>
      <trkpt lat="44.466190" lon="4.762833">
        <ele>144.64429</ele>
        <time>2021-06-30T10:38:28Z</time>
      </trkpt>
      <trkpt lat="44.465855" lon="4.762610">
        <ele>144.74615</ele>
        <time>2021-06-30T10:38:29Z</time>
      </trkpt>
      <trkpt lat="44.465534" lon="4.762402">
        <ele>144.67847</ele>
        <time>2021-06-30T10:38:31Z</time>
      </trkpt>
      <trkpt lat="44.465191" lon="4.762174">
        <ele>144.09491</ele>
        <time>2021-06-30T10:38:32Z</time>
      </trkpt>
      <trkpt lat="44.464874" lon="4.761965">
        <ele>144.01874</ele>
        <time>2021-06-30T10:38:32Z</time>
      </trkpt>
      <trkpt lat="44.464520" lon="4.761730">
        <ele>143.43597</ele>
        <time>2021-06-30T10:38:33Z</time>
      </trkpt>
      <trkpt lat="44.464203" lon="4.761522">
        <ele>142.34167</ele>
        <time>2021-06-30T10:38:34Z</time>
      </trkpt>
      <trkpt lat="44.463890" lon="4.761316">
        <ele>142.40991</ele>
        <time>2021-06-30T10:38:36Z</time>
      </trkpt>
      <trkpt lat="44.463535" lon="4.761082">
        <ele>142.22565</ele>
        <time>2021-06-30T10:38:37Z</time>
      </trkpt>
      <trkpt lat="44.463226" lon="4.760882">
        <ele>142.30481</ele>
        <time>2021-06-30T10:38:37Z</time>
      </trkpt>
      <trkpt lat="44.462906" lon="4.760674">
        <ele>141.73297</ele>
        <time>2021-06-30T10:38:38Z</time>
      </trkpt>
      <trkpt lat="44.462582" lon="4.760463">
        <ele>142.45630</ele>
        <time>2021-06-30T10:38:39Z</time>
      </trkpt>
      <trkpt lat="44.462265" lon="4.760259">
        <ele>142.90643</ele>
        <time>2021-06-30T10:38:41Z</time>
      </trkpt>
      <trkpt lat="44.461929" lon="4.760036">
        <ele>143.04968</ele>
        <time>2021-06-30T10:38:42Z</time>
      </trkpt>
      <trkpt lat="44.461597" lon="4.759816">
        <ele>143.38159</ele>
        <time>2021-06-30T10:38:42Z</time>
      </trkpt>
      <trkpt lat="44.461269" lon="4.759604">
        <ele>143.20642</ele>
        <time>2021-06-30T10:38:43Z</time>
      </trkpt>
      <trkpt lat="44.460960" lon="4.759419">
        <ele>143.23560</ele>
        <time>2021-06-30T10:38:44Z</time>
      </trkpt>
      <trkpt lat="44.460644" lon="4.759228">
        <ele>143.31152</ele>
        <time>2021-06-30T10:38:45Z</time>
      </trkpt>
      <trkpt lat="44.460274" lon="4.759005">
        <ele>142.87323</ele>
        <time>2021-06-30T10:38:47Z</time>
      </trkpt>
      <trkpt lat="44.459942" lon="4.758806">
        <ele>140.28662</ele>
        <time>2021-06-30T10:38:48Z</time>
      </trkpt>
      <trkpt lat="44.459606" lon="4.758608">
        <ele>140.07458</ele>
        <time>2021-06-30T10:38:48Z</time>
      </trkpt>
      <trkpt lat="44.459267" lon="4.758417">
        <ele>139.91699</ele>
        <time>2021-06-30T10:38:49Z</time>
      </trkpt>
      <trkpt lat="44.458927" lon="4.758244">
        <ele>139.78955</ele>
        <time>2021-06-30T10:38:50Z</time>
      </trkpt>
      <trkpt lat="44.458572" lon="4.758065">
        <ele>139.62225</ele>
        <time>2021-06-30T10:38:52Z</time>
      </trkpt>
      <trkpt lat="44.458229" lon="4.757890">
        <ele>141.05219</ele>
        <time>2021-06-30T10:38:53Z</time>
      </trkpt>
      <trkpt lat="44.457874" lon="4.757710">
        <ele>141.01416</ele>
        <time>2021-06-30T10:38:53Z</time>
      </trkpt>
      <trkpt lat="44.457539" lon="4.757540">
        <ele>139.91986</ele>
        <time>2021-06-30T10:38:54Z</time>
      </trkpt>
      <trkpt lat="44.457188" lon="4.757363">
        <ele>139.69684</ele>
        <time>2021-06-30T10:38:56Z</time>
      </trkpt>
      <trkpt lat="44.456837" lon="4.757185">
        <ele>138.96063</ele>
        <time>2021-06-30T10:38:57Z</time>
      </trkpt>
      <trkpt lat="44.456497" lon="4.757018">
        <ele>138.13397</ele>
        <time>2021-06-30T10:38:57Z</time>
      </trkpt>
      <trkpt lat="44.456150" lon="4.756848">
        <ele>137.81781</ele>
        <time>2021-06-30T10:38:58Z</time>
      </trkpt>
      <trkpt lat="44.456150" lon="4.756848">
        <ele>136.12805</ele>
        <time>2021-06-30T10:38:59Z</time>
      </trkpt>
      <trkpt lat="44.455826" lon="4.756695">
        <ele>134.83734</ele>
        <time>2021-06-30T10:39:00Z</time>
      </trkpt>
      <trkpt lat="44.455467" lon="4.756530">
        <ele>133.76709</ele>
        <time>2021-06-30T10:39:02Z</time>
      </trkpt>
      <trkpt lat="44.455128" lon="4.756373">
        <ele>133.55505</ele>
        <time>2021-06-30T10:39:03Z</time>
      </trkpt>
      <trkpt lat="44.454777" lon="4.756211">
        <ele>133.23621</ele>
        <time>2021-06-30T10:39:03Z</time>
      </trkpt>
      <trkpt lat="44.454426" lon="4.756059">
        <ele>133.74805</ele>
        <time>2021-06-30T10:39:04Z</time>
      </trkpt>
      <trkpt lat="44.454075" lon="4.755915">
        <ele>133.96338</ele>
        <time>2021-06-30T10:39:05Z</time>
      </trkpt>
      <trkpt lat="44.453739" lon="4.755778">
        <ele>133.01660</ele>
        <time>2021-06-30T10:39:06Z</time>
      </trkpt>
      <trkpt lat="44.453392" lon="4.755637">
        <ele>133.18762</ele>
        <time>2021-06-30T10:39:08Z</time>
      </trkpt>
      <trkpt lat="44.453037" lon="4.755493">
        <ele>133.79645</ele>
        <time>2021-06-30T10:39:08Z</time>
      </trkpt>
      <trkpt lat="44.452705" lon="4.755359">
        <ele>133.67828</ele>
        <time>2021-06-30T10:39:09Z</time>
      </trkpt>
      <trkpt lat="44.452358" lon="4.755228">
        <ele>133.54407</ele>
        <time>2021-06-30T10:39:10Z</time>
      </trkpt>
      <trkpt lat="44.452023" lon="4.755102">
        <ele>131.41882</ele>
        <time>2021-06-30T10:39:11Z</time>
      </trkpt>
      <trkpt lat="44.451653" lon="4.754963">
        <ele>131.92987</ele>
        <time>2021-06-30T10:39:13Z</time>
      </trkpt>
      <trkpt lat="44.451283" lon="4.754831">
        <ele>131.17694</ele>
        <time>2021-06-30T10:39:13Z</time>
      </trkpt>
      <trkpt lat="44.450935" lon="4.754719">
        <ele>130.99420</ele>
        <time>2021-06-30T10:39:14Z</time>
      </trkpt>
      <trkpt lat="44.450584" lon="4.754604">
        <ele>131.10620</ele>
        <time>2021-06-30T10:39:15Z</time>
      </trkpt>
      <trkpt lat="44.450245" lon="4.754488">
        <ele>130.46210</ele>
        <time>2021-06-30T10:39:17Z</time>
      </trkpt>
      <trkpt lat="44.449905" lon="4.754371">
        <ele>128.00989</ele>
        <time>2021-06-30T10:39:17Z</time>
      </trkpt>
      <trkpt lat="44.449570" lon="4.754256">
        <ele>127.36182</ele>
        <time>2021-06-30T10:39:18Z</time>
      </trkpt>
      <trkpt lat="44.449238" lon="4.754154">
        <ele>127.45898</ele>
        <time>2021-06-30T10:39:19Z</time>
      </trkpt>
      <trkpt lat="44.448895" lon="4.754050">
        <ele>127.57410</ele>
        <time>2021-06-30T10:39:20Z</time>
      </trkpt>
      <trkpt lat="44.448532" lon="4.753939">
        <ele>127.29950</ele>
        <time>2021-06-30T10:39:22Z</time>
      </trkpt>
      <trkpt lat="44.448181" lon="4.753832">
        <ele>126.94714</ele>
        <time>2021-06-30T10:39:22Z</time>
      </trkpt>
      <trkpt lat="44.447815" lon="4.753721">
        <ele>126.77161</ele>
        <time>2021-06-30T10:39:23Z</time>
      </trkpt>
      <trkpt lat="44.447472" lon="4.753617">
        <ele>126.59717</ele>
        <time>2021-06-30T10:39:25Z</time>
      </trkpt>
      <trkpt lat="44.447113" lon="4.753508">
        <ele>125.49506</ele>
        <time>2021-06-30T10:39:25Z</time>
      </trkpt>
      <trkpt lat="44.446758" lon="4.753405">
        <ele>125.13379</ele>
        <time>2021-06-30T10:39:26Z</time>
      </trkpt>
      <trkpt lat="44.446407" lon="4.753305">
        <ele>124.68823</ele>
        <time>2021-06-30T10:39:27Z</time>
      </trkpt>
      <trkpt lat="44.446045" lon="4.753201">
        <ele>124.22321</ele>
        <time>2021-06-30T10:39:28Z</time>
      </trkpt>
      <trkpt lat="44.445667" lon="4.753094">
        <ele>124.36719</ele>
        <time>2021-06-30T10:39:29Z</time>
      </trkpt>
      <trkpt lat="44.445282" lon="4.752984">
        <ele>124.91296</ele>
        <time>2021-06-30T10:39:31Z</time>
      </trkpt>
      <trkpt lat="44.445282" lon="4.752984">
        <ele>122.57861</ele>
        <time>2021-06-30T10:39:31Z</time>
      </trkpt>
      <trkpt lat="44.444908" lon="4.752869">
        <ele>122.31287</ele>
        <time>2021-06-30T10:39:32Z</time>
      </trkpt>
      <trkpt lat="44.444588" lon="4.752766">
        <ele>123.77539</ele>
        <time>2021-06-30T10:39:33Z</time>
      </trkpt>
      <trkpt lat="44.444244" lon="4.752655">
        <ele>123.99823</ele>
        <time>2021-06-30T10:39:34Z</time>
      </trkpt>
      <trkpt lat="44.443909" lon="4.752548">
        <ele>124.76123</ele>
        <time>2021-06-30T10:39:35Z</time>
      </trkpt>
      <trkpt lat="44.443546" lon="4.752424">
        <ele>123.93634</ele>
        <time>2021-06-30T10:39:36Z</time>
      </trkpt>
      <trkpt lat="44.443192" lon="4.752294">
        <ele>123.72412</ele>
        <time>2021-06-30T10:39:37Z</time>
      </trkpt>
      <trkpt lat="44.442844" lon="4.752155">
        <ele>125.17499</ele>
        <time>2021-06-30T10:39:38Z</time>
      </trkpt>
      <trkpt lat="44.442516" lon="4.752024">
        <ele>125.64105</ele>
        <time>2021-06-30T10:39:39Z</time>
      </trkpt>
      <trkpt lat="44.442154" lon="4.751850">
        <ele>126.73169</ele>
        <time>2021-06-30T10:39:40Z</time>
      </trkpt>
      <trkpt lat="44.441807" lon="4.751682">
        <ele>126.34808</ele>
        <time>2021-06-30T10:39:41Z</time>
      </trkpt>
      <trkpt lat="44.441471" lon="4.751521">
        <ele>125.46411</ele>
        <time>2021-06-30T10:39:42Z</time>
      </trkpt>
      <trkpt lat="44.441151" lon="4.751366">
        <ele>124.50592</ele>
        <time>2021-06-30T10:39:43Z</time>
      </trkpt>
      <trkpt lat="44.440788" lon="4.751182">
        <ele>124.76825</ele>
        <time>2021-06-30T10:39:44Z</time>
      </trkpt>
      <trkpt lat="44.440449" lon="4.750990">
        <ele>123.98627</ele>
        <time>2021-06-30T10:39:45Z</time>
      </trkpt>
      <trkpt lat="44.440113" lon="4.750800">
        <ele>123.64258</ele>
        <time>2021-06-30T10:39:46Z</time>
      </trkpt>
      <trkpt lat="44.439774" lon="4.750608">
        <ele>123.42346</ele>
        <time>2021-06-30T10:39:47Z</time>
      </trkpt>
      <trkpt lat="44.439445" lon="4.750421">
        <ele>123.15564</ele>
        <time>2021-06-30T10:39:48Z</time>
      </trkpt>
      <trkpt lat="44.439098" lon="4.750207">
        <ele>122.40015</ele>
        <time>2021-06-30T10:39:49Z</time>
      </trkpt>
      <trkpt lat="44.438759" lon="4.749996">
        <ele>122.16602</ele>
        <time>2021-06-30T10:39:50Z</time>
      </trkpt>
      <trkpt lat="44.438431" lon="4.749794">
        <ele>120.79761</ele>
        <time>2021-06-30T10:39:51Z</time>
      </trkpt>
      <trkpt lat="44.438114" lon="4.749577">
        <ele>120.39941</ele>
        <time>2021-06-30T10:39:52Z</time>
      </trkpt>
      <trkpt lat="44.437798" lon="4.749347">
        <ele>119.74884</ele>
        <time>2021-06-30T10:39:53Z</time>
      </trkpt>
      <trkpt lat="44.437466" lon="4.749106">
        <ele>117.58197</ele>
        <time>2021-06-30T10:39:54Z</time>
      </trkpt>
      <trkpt lat="44.437130" lon="4.748846">
        <ele>117.06317</ele>
        <time>2021-06-30T10:39:55Z</time>
      </trkpt>
      <trkpt lat="44.436790" lon="4.748568">
        <ele>117.13257</ele>
        <time>2021-06-30T10:39:56Z</time>
      </trkpt>
      <trkpt lat="44.436497" lon="4.748315">
        <ele>117.28113</ele>
        <time>2021-06-30T10:39:57Z</time>
      </trkpt>
      <trkpt lat="44.436195" lon="4.748058">
        <ele>117.30115</ele>
        <time>2021-06-30T10:39:58Z</time>
      </trkpt>
      <trkpt lat="44.435879" lon="4.747787">
        <ele>117.31982</ele>
        <time>2021-06-30T10:39:59Z</time>
      </trkpt>
      <trkpt lat="44.435574" lon="4.747502">
        <ele>116.15448</ele>
        <time>2021-06-30T10:40:00Z</time>
      </trkpt>
      <trkpt lat="44.435272" lon="4.747219">
        <ele>115.17499</ele>
        <time>2021-06-30T10:40:01Z</time>
      </trkpt>
      <trkpt lat="44.435272" lon="4.747219">
        <ele>114.06793</ele>
        <time>2021-06-30T10:40:02Z</time>
      </trkpt>
      <trkpt lat="44.434696" lon="4.746667">
        <ele>113.29852</ele>
        <time>2021-06-30T10:40:03Z</time>
      </trkpt>
      <trkpt lat="44.434696" lon="4.746667">
        <ele>112.62299</ele>
        <time>2021-06-30T10:40:04Z</time>
      </trkpt>
      <trkpt lat="44.434387" lon="4.746354">
        <ele>111.68091</ele>
        <time>2021-06-30T10:40:05Z</time>
      </trkpt>
      <trkpt lat="44.434082" lon="4.746042">
        <ele>110.63318</ele>
        <time>2021-06-30T10:40:06Z</time>
      </trkpt>
      <trkpt lat="44.433765" lon="4.745708">
        <ele>110.19916</ele>
        <time>2021-06-30T10:40:07Z</time>
      </trkpt>
      <trkpt lat="44.433475" lon="4.745389">
        <ele>109.33313</ele>
        <time>2021-06-30T10:40:08Z</time>
      </trkpt>
      <trkpt lat="44.433201" lon="4.745086">
        <ele>109.06360</ele>
        <time>2021-06-30T10:40:09Z</time>
      </trkpt>
      <trkpt lat="44.432899" lon="4.744752">
        <ele>108.74310</ele>
        <time>2021-06-30T10:40:11Z</time>
      </trkpt>
      <trkpt lat="44.432617" lon="4.744444">
        <ele>107.70032</ele>
        <time>2021-06-30T10:40:11Z</time>
      </trkpt>
      <trkpt lat="44.432350" lon="4.744142">
        <ele>106.32715</ele>
        <time>2021-06-30T10:40:12Z</time>
      </trkpt>
      <trkpt lat="44.432083" lon="4.743842">
        <ele>103.68677</ele>
        <time>2021-06-30T10:40:13Z</time>
      </trkpt>
      <trkpt lat="44.431789" lon="4.743510">
        <ele>103.05811</ele>
        <time>2021-06-30T10:40:14Z</time>
      </trkpt>
      <trkpt lat="44.431477" lon="4.743156">
        <ele>102.01660</ele>
        <time>2021-06-30T10:40:15Z</time>
      </trkpt>
      <trkpt lat="44.431171" lon="4.742812">
        <ele>101.33099</ele>
        <time>2021-06-30T10:40:16Z</time>
      </trkpt>
      <trkpt lat="44.430859" lon="4.742464">
        <ele>101.47742</ele>
        <time>2021-06-30T10:40:17Z</time>
      </trkpt>
      <trkpt lat="44.430565" lon="4.742142">
        <ele>100.79370</ele>
        <time>2021-06-30T10:40:18Z</time>
      </trkpt>
      <trkpt lat="44.430267" lon="4.741816">
        <ele>100.16980</ele>
        <time>2021-06-30T10:40:19Z</time>
      </trkpt>
      <trkpt lat="44.429970" lon="4.741490">
        <ele>100.40466</ele>
        <time>2021-06-30T10:40:20Z</time>
      </trkpt>
      <trkpt lat="44.429688" lon="4.741188">
        <ele>99.32874</ele>
        <time>2021-06-30T10:40:22Z</time>
      </trkpt>
      <trkpt lat="44.429390" lon="4.740875">
        <ele>99.07440</ele>
        <time>2021-06-30T10:40:22Z</time>
      </trkpt>
      <trkpt lat="44.429100" lon="4.740576">
        <ele>98.77277</ele>
        <time>2021-06-30T10:40:23Z</time>
      </trkpt>
      <trkpt lat="44.428822" lon="4.740292">
        <ele>96.71881</ele>
        <time>2021-06-30T10:40:24Z</time>
      </trkpt>
      <trkpt lat="44.428532" lon="4.740004">
        <ele>96.33478</ele>
        <time>2021-06-30T10:40:25Z</time>
      </trkpt>
      <trkpt lat="44.428223" lon="4.739700">
        <ele>95.23376</ele>
        <time>2021-06-30T10:40:26Z</time>
      </trkpt>
      <trkpt lat="44.427937" lon="4.739422">
        <ele>93.03326</ele>
        <time>2021-06-30T10:40:27Z</time>
      </trkpt>
      <trkpt lat="44.427654" lon="4.739155">
        <ele>91.94836</ele>
        <time>2021-06-30T10:40:28Z</time>
      </trkpt>
      <trkpt lat="44.427349" lon="4.738874">
        <ele>90.82776</ele>
        <time>2021-06-30T10:40:29Z</time>
      </trkpt>
      <trkpt lat="44.427052" lon="4.738599">
        <ele>89.96741</ele>
        <time>2021-06-30T10:40:30Z</time>
      </trkpt>
      <trkpt lat="44.426746" lon="4.738337">
        <ele>88.58691</ele>
        <time>2021-06-30T10:40:31Z</time>
      </trkpt>
      <trkpt lat="44.426434" lon="4.738066">
        <ele>87.35437</ele>
        <time>2021-06-30T10:40:32Z</time>
      </trkpt>
      <trkpt lat="44.426117" lon="4.737795">
        <ele>86.21930</ele>
        <time>2021-06-30T10:40:33Z</time>
      </trkpt>
      <trkpt lat="44.425819" lon="4.737540">
        <ele>84.97241</ele>
        <time>2021-06-30T10:40:34Z</time>
      </trkpt>
      <trkpt lat="44.425819" lon="4.737540">
        <ele>81.74084</ele>
        <time>2021-06-30T10:40:35Z</time>
      </trkpt>
      <trkpt lat="44.425510" lon="4.737286">
        <ele>81.05090</ele>
        <time>2021-06-30T10:40:36Z</time>
      </trkpt>
      <trkpt lat="44.425186" lon="4.737029">
        <ele>80.25732</ele>
        <time>2021-06-30T10:40:37Z</time>
      </trkpt>
      <trkpt lat="44.424877" lon="4.736782">
        <ele>72.75507</ele>
        <time>2021-06-30T10:40:38Z</time>
      </trkpt>
      <trkpt lat="44.424553" lon="4.736534">
        <ele>72.04980</ele>
        <time>2021-06-30T10:40:39Z</time>
      </trkpt>
      <trkpt lat="44.424263" lon="4.736318">
        <ele>70.74744</ele>
        <time>2021-06-30T10:40:40Z</time>
      </trkpt>
      <trkpt lat="44.423935" lon="4.736072">
        <ele>70.65015</ele>
        <time>2021-06-30T10:40:41Z</time>
      </trkpt>
      <trkpt lat="44.423622" lon="4.735839">
        <ele>70.49237</ele>
        <time>2021-06-30T10:40:42Z</time>
      </trkpt>
      <trkpt lat="44.423306" lon="4.735613">
        <ele>69.83044</ele>
        <time>2021-06-30T10:40:43Z</time>
      </trkpt>
      <trkpt lat="44.422970" lon="4.735380">
        <ele>68.82440</ele>
        <time>2021-06-30T10:40:44Z</time>
      </trkpt>
      <trkpt lat="44.422646" lon="4.735157">
        <ele>68.42688</ele>
        <time>2021-06-30T10:40:45Z</time>
      </trkpt>
      <trkpt lat="44.422321" lon="4.734941">
        <ele>69.36249</ele>
        <time>2021-06-30T10:40:46Z</time>
      </trkpt>
      <trkpt lat="44.422009" lon="4.734732">
        <ele>68.65967</ele>
        <time>2021-06-30T10:40:47Z</time>
      </trkpt>
      <trkpt lat="44.421677" lon="4.734520">
        <ele>67.92090</ele>
        <time>2021-06-30T10:40:48Z</time>
      </trkpt>
      <trkpt lat="44.421341" lon="4.734306">
        <ele>66.81049</ele>
        <time>2021-06-30T10:40:49Z</time>
      </trkpt>
      <trkpt lat="44.421032" lon="4.734113">
        <ele>66.61249</ele>
        <time>2021-06-30T10:40:50Z</time>
      </trkpt>
      <trkpt lat="44.420673" lon="4.733893">
        <ele>66.60345</ele>
        <time>2021-06-30T10:40:51Z</time>
      </trkpt>
      <trkpt lat="44.420357" lon="4.733701">
        <ele>66.06165</ele>
        <time>2021-06-30T10:40:52Z</time>
      </trkpt>
      <trkpt lat="44.420017" lon="4.733518">
        <ele>66.03461</ele>
        <time>2021-06-30T10:40:53Z</time>
      </trkpt>
      <trkpt lat="44.419666" lon="4.733332">
        <ele>66.78198</ele>
        <time>2021-06-30T10:40:54Z</time>
      </trkpt>
      <trkpt lat="44.419334" lon="4.733149">
        <ele>66.25677</ele>
        <time>2021-06-30T10:40:55Z</time>
      </trkpt>
      <trkpt lat="44.419010" lon="4.732970">
        <ele>67.43628</ele>
        <time>2021-06-30T10:40:56Z</time>
      </trkpt>
      <trkpt lat="44.418674" lon="4.732803">
        <ele>68.52155</ele>
        <time>2021-06-30T10:40:57Z</time>
      </trkpt>
      <trkpt lat="44.418308" lon="4.732620">
        <ele>68.92328</ele>
        <time>2021-06-30T10:40:58Z</time>
      </trkpt>
      <trkpt lat="44.417969" lon="4.732468">
        <ele>68.26892</ele>
        <time>2021-06-30T10:40:59Z</time>
      </trkpt>
      <trkpt lat="44.417622" lon="4.732316">
        <ele>68.13336</ele>
        <time>2021-06-30T10:41:00Z</time>
      </trkpt>
      <trkpt lat="44.417274" lon="4.732164">
        <ele>68.08099</ele>
        <time>2021-06-30T10:41:01Z</time>
      </trkpt>
      <trkpt lat="44.416924" lon="4.732011">
        <ele>68.31708</ele>
        <time>2021-06-30T10:41:02Z</time>
      </trkpt>
      <trkpt lat="44.416565" lon="4.731854">
        <ele>68.35632</ele>
        <time>2021-06-30T10:41:03Z</time>
      </trkpt>
      <trkpt lat="44.416233" lon="4.731712">
        <ele>69.28302</ele>
        <time>2021-06-30T10:41:04Z</time>
      </trkpt>
      <trkpt lat="44.415894" lon="4.731582">
        <ele>69.66516</ele>
        <time>2021-06-30T10:41:05Z</time>
      </trkpt>
      <trkpt lat="44.415546" lon="4.731447">
        <ele>69.55609</ele>
        <time>2021-06-30T10:41:06Z</time>
      </trkpt>
      <trkpt lat="44.415192" lon="4.731306">
        <ele>68.62195</ele>
        <time>2021-06-30T10:41:07Z</time>
      </trkpt>
      <trkpt lat="44.415192" lon="4.731306">
        <ele>68.61536</ele>
        <time>2021-06-30T10:41:08Z</time>
      </trkpt>
      <trkpt lat="44.414837" lon="4.731169">
        <ele>68.48926</ele>
        <time>2021-06-30T10:41:09Z</time>
      </trkpt>
      <trkpt lat="44.414486" lon="4.731048">
        <ele>68.30615</ele>
        <time>2021-06-30T10:41:10Z</time>
      </trkpt>
      <trkpt lat="44.414124" lon="4.730922">
        <ele>67.62213</ele>
        <time>2021-06-30T10:41:11Z</time>
      </trkpt>
      <trkpt lat="44.413761" lon="4.730796">
        <ele>67.34613</ele>
        <time>2021-06-30T10:41:12Z</time>
      </trkpt>
      <trkpt lat="44.413406" lon="4.730679">
        <ele>67.00787</ele>
        <time>2021-06-30T10:41:13Z</time>
      </trkpt>
      <trkpt lat="44.413074" lon="4.730573">
        <ele>66.81775</ele>
        <time>2021-06-30T10:41:14Z</time>
      </trkpt>
      <trkpt lat="44.412704" lon="4.730457">
        <ele>66.40204</ele>
        <time>2021-06-30T10:41:15Z</time>
      </trkpt>
      <trkpt lat="44.412342" lon="4.730355">
        <ele>66.41064</ele>
        <time>2021-06-30T10:41:16Z</time>
      </trkpt>
      <trkpt lat="44.411983" lon="4.730253">
        <ele>66.48071</ele>
        <time>2021-06-30T10:41:17Z</time>
      </trkpt>
      <trkpt lat="44.411652" lon="4.730171">
        <ele>66.40674</ele>
        <time>2021-06-30T10:41:18Z</time>
      </trkpt>
      <trkpt lat="44.411266" lon="4.730077">
        <ele>66.23669</ele>
        <time>2021-06-30T10:41:19Z</time>
      </trkpt>
      <trkpt lat="44.410919" lon="4.729997">
        <ele>66.47705</ele>
        <time>2021-06-30T10:41:20Z</time>
      </trkpt>
      <trkpt lat="44.410564" lon="4.729921">
        <ele>65.61664</ele>
        <time>2021-06-30T10:41:21Z</time>
      </trkpt>
      <trkpt lat="44.410213" lon="4.729845">
        <ele>65.13184</ele>
        <time>2021-06-30T10:41:22Z</time>
      </trkpt>
      <trkpt lat="44.409847" lon="4.729766">
        <ele>65.22070</ele>
        <time>2021-06-30T10:41:23Z</time>
      </trkpt>
      <trkpt lat="44.409481" lon="4.729688">
        <ele>65.73083</ele>
        <time>2021-06-30T10:41:24Z</time>
      </trkpt>
      <trkpt lat="44.409130" lon="4.729613">
        <ele>66.17047</ele>
        <time>2021-06-30T10:41:25Z</time>
      </trkpt>
      <trkpt lat="44.408772" lon="4.729541">
        <ele>66.02271</ele>
        <time>2021-06-30T10:41:26Z</time>
      </trkpt>
      <trkpt lat="44.408421" lon="4.729477">
        <ele>66.15778</ele>
        <time>2021-06-30T10:41:27Z</time>
      </trkpt>
      <trkpt lat="44.408073" lon="4.729412">
        <ele>66.74438</ele>
        <time>2021-06-30T10:41:28Z</time>
      </trkpt>
      <trkpt lat="44.407711" lon="4.729368">
        <ele>65.93768</ele>
        <time>2021-06-30T10:41:29Z</time>
      </trkpt>
      <trkpt lat="44.407330" lon="4.729313">
        <ele>64.99432</ele>
        <time>2021-06-30T10:41:30Z</time>
      </trkpt>
      <trkpt lat="44.406952" lon="4.729259">
        <ele>64.76221</ele>
        <time>2021-06-30T10:41:31Z</time>
      </trkpt>
      <trkpt lat="44.406593" lon="4.729208">
        <ele>65.05371</ele>
        <time>2021-06-30T10:41:32Z</time>
      </trkpt>
      <trkpt lat="44.406258" lon="4.729168">
        <ele>65.35315</ele>
        <time>2021-06-30T10:41:33Z</time>
      </trkpt>
      <trkpt lat="44.405888" lon="4.729130">
        <ele>65.95502</ele>
        <time>2021-06-30T10:41:34Z</time>
      </trkpt>
      <trkpt lat="44.405888" lon="4.729130">
        <ele>65.93433</ele>
        <time>2021-06-30T10:41:35Z</time>
      </trkpt>
      <trkpt lat="44.405163" lon="4.729056">
        <ele>66.11243</ele>
        <time>2021-06-30T10:41:36Z</time>
      </trkpt>
      <trkpt lat="44.405163" lon="4.729056">
        <ele>65.63318</ele>
        <time>2021-06-30T10:41:37Z</time>
      </trkpt>
      <trkpt lat="44.404831" lon="4.729024">
        <ele>65.64496</ele>
        <time>2021-06-30T10:41:38Z</time>
      </trkpt>
      <trkpt lat="44.404449" lon="4.728989">
        <ele>65.98279</ele>
        <time>2021-06-30T10:41:39Z</time>
      </trkpt>
      <trkpt lat="44.404068" lon="4.728964">
        <ele>65.91937</ele>
        <time>2021-06-30T10:41:40Z</time>
      </trkpt>
      <trkpt lat="44.403725" lon="4.728953">
        <ele>64.04553</ele>
        <time>2021-06-30T10:41:41Z</time>
      </trkpt>
      <trkpt lat="44.403366" lon="4.728942">
        <ele>64.43805</ele>
        <time>2021-06-30T10:41:42Z</time>
      </trkpt>
      <trkpt lat="44.403023" lon="4.728932">
        <ele>64.27057</ele>
        <time>2021-06-30T10:41:43Z</time>
      </trkpt>
      <trkpt lat="44.402672" lon="4.728922">
        <ele>65.08209</ele>
        <time>2021-06-30T10:41:44Z</time>
      </trkpt>
      <trkpt lat="44.402309" lon="4.728913">
        <ele>64.83032</ele>
        <time>2021-06-30T10:41:46Z</time>
      </trkpt>
      <trkpt lat="44.401939" lon="4.728914">
        <ele>63.95770</ele>
        <time>2021-06-30T10:41:46Z</time>
      </trkpt>
      <trkpt lat="44.401566" lon="4.728918">
        <ele>63.87891</ele>
        <time>2021-06-30T10:41:47Z</time>
      </trkpt>
      <trkpt lat="44.401215" lon="4.728922">
        <ele>64.83374</ele>
        <time>2021-06-30T10:41:48Z</time>
      </trkpt>
      <trkpt lat="44.400867" lon="4.728946">
        <ele>64.28809</ele>
        <time>2021-06-30T10:41:49Z</time>
      </trkpt>
      <trkpt lat="44.400524" lon="4.728962">
        <ele>65.07288</ele>
        <time>2021-06-30T10:41:50Z</time>
      </trkpt>
      <trkpt lat="44.400162" lon="4.728979">
        <ele>64.79639</ele>
        <time>2021-06-30T10:41:51Z</time>
      </trkpt>
      <trkpt lat="44.399799" lon="4.728998">
        <ele>64.14484</ele>
        <time>2021-06-30T10:41:52Z</time>
      </trkpt>
      <trkpt lat="44.399448" lon="4.729022">
        <ele>65.48828</ele>
        <time>2021-06-30T10:41:53Z</time>
      </trkpt>
      <trkpt lat="44.399078" lon="4.729049">
        <ele>66.67175</ele>
        <time>2021-06-30T10:41:54Z</time>
      </trkpt>
      <trkpt lat="44.398716" lon="4.729080">
        <ele>66.50891</ele>
        <time>2021-06-30T10:41:55Z</time>
      </trkpt>
      <trkpt lat="44.398369" lon="4.729130">
        <ele>66.71112</ele>
        <time>2021-06-30T10:41:56Z</time>
      </trkpt>
      <trkpt lat="44.398018" lon="4.729181">
        <ele>66.57690</ele>
        <time>2021-06-30T10:41:57Z</time>
      </trkpt>
      <trkpt lat="44.397655" lon="4.729233">
        <ele>66.32489</ele>
        <time>2021-06-30T10:41:58Z</time>
      </trkpt>
      <trkpt lat="44.397285" lon="4.729286">
        <ele>66.81299</ele>
        <time>2021-06-30T10:41:59Z</time>
      </trkpt>
      <trkpt lat="44.396923" lon="4.729338">
        <ele>66.16071</ele>
        <time>2021-06-30T10:42:00Z</time>
      </trkpt>
      <trkpt lat="44.396553" lon="4.729392">
        <ele>66.43396</ele>
        <time>2021-06-30T10:42:01Z</time>
      </trkpt>
      <trkpt lat="44.396179" lon="4.729445">
        <ele>66.96747</ele>
        <time>2021-06-30T10:42:02Z</time>
      </trkpt>
      <trkpt lat="44.395828" lon="4.729496">
        <ele>66.86536</ele>
        <time>2021-06-30T10:42:03Z</time>
      </trkpt>
      <trkpt lat="44.395477" lon="4.729547">
        <ele>66.69916</ele>
        <time>2021-06-30T10:42:04Z</time>
      </trkpt>
      <trkpt lat="44.395107" lon="4.729599">
        <ele>65.97754</ele>
        <time>2021-06-30T10:42:05Z</time>
      </trkpt>
      <trkpt lat="44.394741" lon="4.729652">
        <ele>65.19135</ele>
        <time>2021-06-30T10:42:06Z</time>
      </trkpt>
      <trkpt lat="44.394382" lon="4.729704">
        <ele>64.70770</ele>
        <time>2021-06-30T10:42:07Z</time>
      </trkpt>
      <trkpt lat="44.394016" lon="4.729756">
        <ele>64.01343</ele>
        <time>2021-06-30T10:42:08Z</time>
      </trkpt>
      <trkpt lat="44.393642" lon="4.729810">
        <ele>63.81665</ele>
        <time>2021-06-30T10:42:09Z</time>
      </trkpt>
      <trkpt lat="44.393642" lon="4.729810">
        <ele>63.56763</ele>
        <time>2021-06-30T10:42:10Z</time>
      </trkpt>
      <trkpt lat="44.392941" lon="4.729921">
        <ele>63.12787</ele>
        <time>2021-06-30T10:42:11Z</time>
      </trkpt>
      <trkpt lat="44.392941" lon="4.729921">
        <ele>63.09076</ele>
        <time>2021-06-30T10:42:12Z</time>
      </trkpt>
      <trkpt lat="44.392555" lon="4.729981">
        <ele>62.58533</ele>
        <time>2021-06-30T10:42:13Z</time>
      </trkpt>
      <trkpt lat="44.392178" lon="4.730042">
        <ele>62.69000</ele>
        <time>2021-06-30T10:42:14Z</time>
      </trkpt>
      <trkpt lat="44.391815" lon="4.730099">
        <ele>62.21002</ele>
        <time>2021-06-30T10:42:15Z</time>
      </trkpt>
      <trkpt lat="44.391441" lon="4.730157">
        <ele>62.65710</ele>
        <time>2021-06-30T10:42:16Z</time>
      </trkpt>
      <trkpt lat="44.391064" lon="4.730212">
        <ele>62.98535</ele>
        <time>2021-06-30T10:42:17Z</time>
      </trkpt>
      <trkpt lat="44.390720" lon="4.730262">
        <ele>62.57397</ele>
        <time>2021-06-30T10:42:18Z</time>
      </trkpt>
      <trkpt lat="44.390347" lon="4.730317">
        <ele>62.50342</ele>
        <time>2021-06-30T10:42:19Z</time>
      </trkpt>
      <trkpt lat="44.389984" lon="4.730369">
        <ele>61.78613</ele>
        <time>2021-06-30T10:42:20Z</time>
      </trkpt>
      <trkpt lat="44.389610" lon="4.730423">
        <ele>61.03516</ele>
        <time>2021-06-30T10:42:21Z</time>
      </trkpt>
      <trkpt lat="44.389259" lon="4.730477">
        <ele>61.14954</ele>
        <time>2021-06-30T10:42:22Z</time>
      </trkpt>
      <trkpt lat="44.388924" lon="4.730530">
        <ele>59.46350</ele>
        <time>2021-06-30T10:42:24Z</time>
      </trkpt>
      <trkpt lat="44.388580" lon="4.730584">
        <ele>59.25482</ele>
        <time>2021-06-30T10:42:24Z</time>
      </trkpt>
      <trkpt lat="44.388237" lon="4.730638">
        <ele>58.82117</ele>
        <time>2021-06-30T10:42:25Z</time>
      </trkpt>
      <trkpt lat="44.387901" lon="4.730691">
        <ele>57.94189</ele>
        <time>2021-06-30T10:42:26Z</time>
      </trkpt>
      <trkpt lat="44.387596" lon="4.730739">
        <ele>58.41418</ele>
        <time>2021-06-30T10:42:27Z</time>
      </trkpt>
      <trkpt lat="44.387287" lon="4.730787">
        <ele>58.13788</ele>
        <time>2021-06-30T10:42:28Z</time>
      </trkpt>
      <trkpt lat="44.387012" lon="4.730831">
        <ele>57.88959</ele>
        <time>2021-06-30T10:42:29Z</time>
      </trkpt>
      <trkpt lat="44.386742" lon="4.730874">
        <ele>58.50195</ele>
        <time>2021-06-30T10:42:30Z</time>
      </trkpt>
      <trkpt lat="44.386463" lon="4.730918">
        <ele>58.79517</ele>
        <time>2021-06-30T10:42:31Z</time>
      </trkpt>
      <trkpt lat="44.386185" lon="4.730962">
        <ele>58.84729</ele>
        <time>2021-06-30T10:42:32Z</time>
      </trkpt>
      <trkpt lat="44.385902" lon="4.731004">
        <ele>62.20331</ele>
        <time>2021-06-30T10:42:33Z</time>
      </trkpt>
      <trkpt lat="44.385597" lon="4.731050">
        <ele>62.16522</ele>
        <time>2021-06-30T10:42:34Z</time>
      </trkpt>
      <trkpt lat="44.385326" lon="4.731091">
        <ele>61.99548</ele>
        <time>2021-06-30T10:42:35Z</time>
      </trkpt>
      <trkpt lat="44.385056" lon="4.731131">
        <ele>61.80255</ele>
        <time>2021-06-30T10:42:36Z</time>
      </trkpt>
      <trkpt lat="44.384773" lon="4.731173">
        <ele>61.26508</ele>
        <time>2021-06-30T10:42:37Z</time>
      </trkpt>
      <trkpt lat="44.384499" lon="4.731215">
        <ele>60.06348</ele>
        <time>2021-06-30T10:42:38Z</time>
      </trkpt>
      <trkpt lat="44.384232" lon="4.731255">
        <ele>61.18774</ele>
        <time>2021-06-30T10:42:39Z</time>
      </trkpt>
      <trkpt lat="44.384232" lon="4.731255">
        <ele>61.31549</ele>
        <time>2021-06-30T10:42:40Z</time>
      </trkpt>
      <trkpt lat="44.383923" lon="4.731302">
        <ele>61.14368</ele>
        <time>2021-06-30T10:42:41Z</time>
      </trkpt>
      <trkpt lat="44.383606" lon="4.731349">
        <ele>61.28345</ele>
        <time>2021-06-30T10:42:42Z</time>
      </trkpt>
      <trkpt lat="44.383327" lon="4.731391">
        <ele>61.57220</ele>
        <time>2021-06-30T10:42:43Z</time>
      </trkpt>
      <trkpt lat="44.383007" lon="4.731439">
        <ele>61.54840</ele>
        <time>2021-06-30T10:42:44Z</time>
      </trkpt>
      <trkpt lat="44.382652" lon="4.731487">
        <ele>59.13824</ele>
        <time>2021-06-30T10:42:45Z</time>
      </trkpt>
      <trkpt lat="44.382324" lon="4.731535">
        <ele>59.34277</ele>
        <time>2021-06-30T10:42:46Z</time>
      </trkpt>
      <trkpt lat="44.381931" lon="4.731595">
        <ele>58.74292</ele>
        <time>2021-06-30T10:42:47Z</time>
      </trkpt>
      <trkpt lat="44.381542" lon="4.731655">
        <ele>59.35266</ele>
        <time>2021-06-30T10:42:48Z</time>
      </trkpt>
      <trkpt lat="44.381195" lon="4.731708">
        <ele>58.56329</ele>
        <time>2021-06-30T10:42:49Z</time>
      </trkpt>
      <trkpt lat="44.380840" lon="4.731761">
        <ele>58.47461</ele>
        <time>2021-06-30T10:42:50Z</time>
      </trkpt>
      <trkpt lat="44.380501" lon="4.731813">
        <ele>58.31274</ele>
        <time>2021-06-30T10:42:51Z</time>
      </trkpt>
      <trkpt lat="44.380161" lon="4.731865">
        <ele>58.27356</ele>
        <time>2021-06-30T10:42:52Z</time>
      </trkpt>
      <trkpt lat="44.379807" lon="4.731919">
        <ele>58.37732</ele>
        <time>2021-06-30T10:42:53Z</time>
      </trkpt>
      <trkpt lat="44.379436" lon="4.731976">
        <ele>58.11389</ele>
        <time>2021-06-30T10:42:54Z</time>
      </trkpt>
      <trkpt lat="44.379066" lon="4.732032">
        <ele>59.58435</ele>
        <time>2021-06-30T10:42:55Z</time>
      </trkpt>
      <trkpt lat="44.378700" lon="4.732087">
        <ele>60.12714</ele>
        <time>2021-06-30T10:42:56Z</time>
      </trkpt>
      <trkpt lat="44.378368" lon="4.732138">
        <ele>60.26312</ele>
        <time>2021-06-30T10:42:57Z</time>
      </trkpt>
      <trkpt lat="44.378021" lon="4.732191">
        <ele>61.13739</ele>
        <time>2021-06-30T10:42:58Z</time>
      </trkpt>
      <trkpt lat="44.377659" lon="4.732246">
        <ele>61.18762</ele>
        <time>2021-06-30T10:42:59Z</time>
      </trkpt>
      <trkpt lat="44.377304" lon="4.732297">
        <ele>60.70801</ele>
        <time>2021-06-30T10:43:00Z</time>
      </trkpt>
      <trkpt lat="44.376930" lon="4.732352">
        <ele>60.76990</ele>
        <time>2021-06-30T10:43:01Z</time>
      </trkpt>
      <trkpt lat="44.376560" lon="4.732406">
        <ele>60.38116</ele>
        <time>2021-06-30T10:43:02Z</time>
      </trkpt>
      <trkpt lat="44.376217" lon="4.732456">
        <ele>61.30157</ele>
        <time>2021-06-30T10:43:03Z</time>
      </trkpt>
      <trkpt lat="44.375847" lon="4.732511">
        <ele>59.17145</ele>
        <time>2021-06-30T10:43:04Z</time>
      </trkpt>
      <trkpt lat="44.375484" lon="4.732563">
        <ele>58.97083</ele>
        <time>2021-06-30T10:43:06Z</time>
      </trkpt>
      <trkpt lat="44.375130" lon="4.732615">
        <ele>58.90564</ele>
        <time>2021-06-30T10:43:06Z</time>
      </trkpt>
      <trkpt lat="44.374767" lon="4.732678">
        <ele>59.57709</ele>
        <time>2021-06-30T10:43:07Z</time>
      </trkpt>
      <trkpt lat="44.374428" lon="4.732741">
        <ele>59.93811</ele>
        <time>2021-06-30T10:43:08Z</time>
      </trkpt>
      <trkpt lat="44.374050" lon="4.732811">
        <ele>59.49384</ele>
        <time>2021-06-30T10:43:09Z</time>
      </trkpt>
      <trkpt lat="44.373688" lon="4.732878">
        <ele>59.59875</ele>
        <time>2021-06-30T10:43:10Z</time>
      </trkpt>
      <trkpt lat="44.373333" lon="4.732943">
        <ele>59.98083</ele>
        <time>2021-06-30T10:43:11Z</time>
      </trkpt>
      <trkpt lat="44.372978" lon="4.733009">
        <ele>60.26398</ele>
        <time>2021-06-30T10:43:12Z</time>
      </trkpt>
      <trkpt lat="44.372978" lon="4.733009">
        <ele>60.76422</ele>
        <time>2021-06-30T10:43:13Z</time>
      </trkpt>
      <trkpt lat="44.372604" lon="4.733078">
        <ele>60.99280</ele>
        <time>2021-06-30T10:43:14Z</time>
      </trkpt>
      <trkpt lat="44.372250" lon="4.733148">
        <ele>60.91003</ele>
        <time>2021-06-30T10:43:15Z</time>
      </trkpt>
      <trkpt lat="44.371899" lon="4.733224">
        <ele>60.82806</ele>
        <time>2021-06-30T10:43:16Z</time>
      </trkpt>
      <trkpt lat="44.371529" lon="4.733305">
        <ele>61.37427</ele>
        <time>2021-06-30T10:43:17Z</time>
      </trkpt>
      <trkpt lat="44.371136" lon="4.733393">
        <ele>61.38647</ele>
        <time>2021-06-30T10:43:18Z</time>
      </trkpt>
      <trkpt lat="44.370773" lon="4.733500">
        <ele>62.42511</ele>
        <time>2021-06-30T10:43:19Z</time>
      </trkpt>
      <trkpt lat="44.370415" lon="4.733608">
        <ele>62.33667</ele>
        <time>2021-06-30T10:43:20Z</time>
      </trkpt>
      <trkpt lat="44.370056" lon="4.733713">
        <ele>62.27643</ele>
        <time>2021-06-30T10:43:21Z</time>
      </trkpt>
      <trkpt lat="44.369709" lon="4.733816">
        <ele>63.73254</ele>
        <time>2021-06-30T10:43:22Z</time>
      </trkpt>
      <trkpt lat="44.369331" lon="4.733927">
        <ele>64.87299</ele>
        <time>2021-06-30T10:43:24Z</time>
      </trkpt>
      <trkpt lat="44.368977" lon="4.734033">
        <ele>64.86401</ele>
        <time>2021-06-30T10:43:24Z</time>
      </trkpt>
      <trkpt lat="44.368622" lon="4.734138">
        <ele>63.68219</ele>
        <time>2021-06-30T10:43:25Z</time>
      </trkpt>
      <trkpt lat="44.368263" lon="4.734243">
        <ele>64.02448</ele>
        <time>2021-06-30T10:43:26Z</time>
      </trkpt>
      <trkpt lat="44.367905" lon="4.734350">
        <ele>63.91046</ele>
        <time>2021-06-30T10:43:27Z</time>
      </trkpt>
      <trkpt lat="44.367558" lon="4.734458">
        <ele>64.44159</ele>
        <time>2021-06-30T10:43:28Z</time>
      </trkpt>
      <trkpt lat="44.367229" lon="4.734567">
        <ele>63.78693</ele>
        <time>2021-06-30T10:43:29Z</time>
      </trkpt>
      <trkpt lat="44.366909" lon="4.734677">
        <ele>63.67072</ele>
        <time>2021-06-30T10:43:30Z</time>
      </trkpt>
      <trkpt lat="44.366562" lon="4.734790">
        <ele>61.31696</ele>
        <time>2021-06-30T10:43:31Z</time>
      </trkpt>
      <trkpt lat="44.366234" lon="4.734896">
        <ele>60.92145</ele>
        <time>2021-06-30T10:43:32Z</time>
      </trkpt>
      <trkpt lat="44.365883" lon="4.735008">
        <ele>60.55182</ele>
        <time>2021-06-30T10:43:33Z</time>
      </trkpt>
      <trkpt lat="44.365566" lon="4.735110">
        <ele>59.31433</ele>
        <time>2021-06-30T10:43:34Z</time>
      </trkpt>
      <trkpt lat="44.365238" lon="4.735216">
        <ele>59.20032</ele>
        <time>2021-06-30T10:43:35Z</time>
      </trkpt>
      <trkpt lat="44.364899" lon="4.735324">
        <ele>59.32104</ele>
        <time>2021-06-30T10:43:37Z</time>
      </trkpt>
      <trkpt lat="44.364899" lon="4.735324">
        <ele>59.35681</ele>
        <time>2021-06-30T10:43:37Z</time>
      </trkpt>
      <trkpt lat="44.364616" lon="4.735413">
        <ele>60.04041</ele>
        <time>2021-06-30T10:43:38Z</time>
      </trkpt>
      <trkpt lat="44.364311" lon="4.735504">
        <ele>59.43695</ele>
        <time>2021-06-30T10:43:39Z</time>
      </trkpt>
      <trkpt lat="44.364021" lon="4.735590">
        <ele>59.36029</ele>
        <time>2021-06-30T10:43:40Z</time>
      </trkpt>
      <trkpt lat="44.363716" lon="4.735681">
        <ele>61.35986</ele>
        <time>2021-06-30T10:43:42Z</time>
      </trkpt>
      <trkpt lat="44.363415" lon="4.735771">
        <ele>61.30603</ele>
        <time>2021-06-30T10:43:42Z</time>
      </trkpt>
      <trkpt lat="44.363113" lon="4.735862">
        <ele>62.88800</ele>
        <time>2021-06-30T10:43:43Z</time>
      </trkpt>
      <trkpt lat="44.362801" lon="4.735954">
        <ele>64.61194</ele>
        <time>2021-06-30T10:43:44Z</time>
      </trkpt>
      <trkpt lat="44.362442" lon="4.736056">
        <ele>64.19226</ele>
        <time>2021-06-30T10:43:45Z</time>
      </trkpt>
      <trkpt lat="44.362106" lon="4.736149">
        <ele>64.08368</ele>
        <time>2021-06-30T10:43:47Z</time>
      </trkpt>
      <trkpt lat="44.361763" lon="4.736237">
        <ele>64.67340</ele>
        <time>2021-06-30T10:43:47Z</time>
      </trkpt>
      <trkpt lat="44.361454" lon="4.736314">
        <ele>64.88611</ele>
        <time>2021-06-30T10:43:48Z</time>
      </trkpt>
      <trkpt lat="44.361141" lon="4.736392">
        <ele>64.57910</ele>
        <time>2021-06-30T10:43:49Z</time>
      </trkpt>
      <trkpt lat="44.360844" lon="4.736467">
        <ele>64.19452</ele>
        <time>2021-06-30T10:43:50Z</time>
      </trkpt>
      <trkpt lat="44.360504" lon="4.736549">
        <ele>63.85321</ele>
        <time>2021-06-30T10:43:52Z</time>
      </trkpt>
      <trkpt lat="44.360165" lon="4.736625">
        <ele>61.72784</ele>
        <time>2021-06-30T10:43:52Z</time>
      </trkpt>
      <trkpt lat="44.359837" lon="4.736697">
        <ele>61.95270</ele>
        <time>2021-06-30T10:43:53Z</time>
      </trkpt>
      <trkpt lat="44.359516" lon="4.736769">
        <ele>61.65021</ele>
        <time>2021-06-30T10:43:54Z</time>
      </trkpt>
      <trkpt lat="44.359200" lon="4.736836">
        <ele>61.86084</ele>
        <time>2021-06-30T10:43:55Z</time>
      </trkpt>
      <trkpt lat="44.358864" lon="4.736900">
        <ele>62.41211</ele>
        <time>2021-06-30T10:43:57Z</time>
      </trkpt>
      <trkpt lat="44.358532" lon="4.736963">
        <ele>62.44617</ele>
        <time>2021-06-30T10:43:57Z</time>
      </trkpt>
      <trkpt lat="44.358212" lon="4.737025">
        <ele>63.94299</ele>
        <time>2021-06-30T10:43:58Z</time>
      </trkpt>
      <trkpt lat="44.357887" lon="4.737086">
        <ele>63.19135</ele>
        <time>2021-06-30T10:43:59Z</time>
      </trkpt>
      <trkpt lat="44.357513" lon="4.737143">
        <ele>63.78931</ele>
        <time>2021-06-30T10:44:00Z</time>
      </trkpt>
      <trkpt lat="44.357094" lon="4.737207">
        <ele>63.95898</ele>
        <time>2021-06-30T10:44:02Z</time>
      </trkpt>
      <trkpt lat="44.356747" lon="4.737260">
        <ele>64.06653</ele>
        <time>2021-06-30T10:44:02Z</time>
      </trkpt>
      <trkpt lat="44.356400" lon="4.737313">
        <ele>64.04486</ele>
        <time>2021-06-30T10:44:03Z</time>
      </trkpt>
      <trkpt lat="44.356037" lon="4.737367">
        <ele>63.11938</ele>
        <time>2021-06-30T10:44:04Z</time>
      </trkpt>
      <trkpt lat="44.355663" lon="4.737407">
        <ele>63.58984</ele>
        <time>2021-06-30T10:44:06Z</time>
      </trkpt>
      <trkpt lat="44.355305" lon="4.737446">
        <ele>63.43787</ele>
        <time>2021-06-30T10:44:06Z</time>
      </trkpt>
      <trkpt lat="44.355305" lon="4.737446">
        <ele>63.45410</ele>
        <time>2021-06-30T10:44:07Z</time>
      </trkpt>
      <trkpt lat="44.354935" lon="4.737487">
        <ele>64.37915</ele>
        <time>2021-06-30T10:44:08Z</time>
      </trkpt>
      <trkpt lat="44.354610" lon="4.737522">
        <ele>63.63989</ele>
        <time>2021-06-30T10:44:09Z</time>
      </trkpt>
      <trkpt lat="44.354233" lon="4.737564">
        <ele>63.48981</ele>
        <time>2021-06-30T10:44:11Z</time>
      </trkpt>
      <trkpt lat="44.353859" lon="4.737593">
        <ele>63.01263</ele>
        <time>2021-06-30T10:44:11Z</time>
      </trkpt>
      <trkpt lat="44.353493" lon="4.737620">
        <ele>63.56317</ele>
        <time>2021-06-30T10:44:12Z</time>
      </trkpt>
      <trkpt lat="44.353111" lon="4.737648">
        <ele>62.96173</ele>
        <time>2021-06-30T10:44:13Z</time>
      </trkpt>
      <trkpt lat="44.352776" lon="4.737671">
        <ele>62.52759</ele>
        <time>2021-06-30T10:44:14Z</time>
      </trkpt>
      <trkpt lat="44.352402" lon="4.737687">
        <ele>62.28180</ele>
        <time>2021-06-30T10:44:16Z</time>
      </trkpt>
      <trkpt lat="44.352051" lon="4.737700">
        <ele>61.86804</ele>
        <time>2021-06-30T10:44:16Z</time>
      </trkpt>
      <trkpt lat="44.351688" lon="4.737713">
        <ele>60.21588</ele>
        <time>2021-06-30T10:44:17Z</time>
      </trkpt>
      <trkpt lat="44.351315" lon="4.737726">
        <ele>59.85846</ele>
        <time>2021-06-30T10:44:18Z</time>
      </trkpt>
      <trkpt lat="44.350983" lon="4.737738">
        <ele>59.80182</ele>
        <time>2021-06-30T10:44:19Z</time>
      </trkpt>
      <trkpt lat="44.350597" lon="4.737742">
        <ele>59.41431</ele>
        <time>2021-06-30T10:44:20Z</time>
      </trkpt>
      <trkpt lat="44.350208" lon="4.737744">
        <ele>59.34741</ele>
        <time>2021-06-30T10:44:22Z</time>
      </trkpt>
      <trkpt lat="44.349846" lon="4.737746">
        <ele>59.49847</ele>
        <time>2021-06-30T10:44:22Z</time>
      </trkpt>
      <trkpt lat="44.349503" lon="4.737748">
        <ele>60.00659</ele>
        <time>2021-06-30T10:44:23Z</time>
      </trkpt>
      <trkpt lat="44.349136" lon="4.737750">
        <ele>61.24768</ele>
        <time>2021-06-30T10:44:24Z</time>
      </trkpt>
      <trkpt lat="44.348789" lon="4.737751">
        <ele>61.62842</ele>
        <time>2021-06-30T10:44:25Z</time>
      </trkpt>
      <trkpt lat="44.348427" lon="4.737751">
        <ele>62.09839</ele>
        <time>2021-06-30T10:44:27Z</time>
      </trkpt>
      <trkpt lat="44.348045" lon="4.737750">
        <ele>63.10815</ele>
        <time>2021-06-30T10:44:27Z</time>
      </trkpt>
      <trkpt lat="44.347694" lon="4.737749">
        <ele>63.16254</ele>
        <time>2021-06-30T10:44:28Z</time>
      </trkpt>
      <trkpt lat="44.347355" lon="4.737748">
        <ele>62.91357</ele>
        <time>2021-06-30T10:44:29Z</time>
      </trkpt>
      <trkpt lat="44.346992" lon="4.737747">
        <ele>62.88464</ele>
        <time>2021-06-30T10:44:30Z</time>
      </trkpt>
      <trkpt lat="44.346622" lon="4.737746">
        <ele>63.06952</ele>
        <time>2021-06-30T10:44:31Z</time>
      </trkpt>
      <trkpt lat="44.346241" lon="4.737746">
        <ele>62.33319</ele>
        <time>2021-06-30T10:44:32Z</time>
      </trkpt>
      <trkpt lat="44.345875" lon="4.737745">
        <ele>61.89185</ele>
        <time>2021-06-30T10:44:33Z</time>
      </trkpt>
      <trkpt lat="44.345505" lon="4.737744">
        <ele>61.96729</ele>
        <time>2021-06-30T10:44:34Z</time>
      </trkpt>
      <trkpt lat="44.345131" lon="4.737743">
        <ele>61.99084</ele>
        <time>2021-06-30T10:44:36Z</time>
      </trkpt>
      <trkpt lat="44.344772" lon="4.737742">
        <ele>61.88855</ele>
        <time>2021-06-30T10:44:36Z</time>
      </trkpt>
      <trkpt lat="44.344421" lon="4.737741">
        <ele>62.07281</ele>
        <time>2021-06-30T10:44:37Z</time>
      </trkpt>
      <trkpt lat="44.344090" lon="4.737743">
        <ele>61.84924</ele>
        <time>2021-06-30T10:44:38Z</time>
      </trkpt>
      <trkpt lat="44.343731" lon="4.737746">
        <ele>62.18237</ele>
        <time>2021-06-30T10:44:39Z</time>
      </trkpt>
      <trkpt lat="44.343353" lon="4.737749">
        <ele>62.10400</ele>
        <time>2021-06-30T10:44:40Z</time>
      </trkpt>
      <trkpt lat="44.343353" lon="4.737749">
        <ele>61.41547</ele>
        <time>2021-06-30T10:44:41Z</time>
      </trkpt>
      <trkpt lat="44.342983" lon="4.737752">
        <ele>60.86981</ele>
        <time>2021-06-30T10:44:43Z</time>
      </trkpt>
      <trkpt lat="44.342609" lon="4.737755">
        <ele>60.94257</ele>
        <time>2021-06-30T10:44:43Z</time>
      </trkpt>
      <trkpt lat="44.342243" lon="4.737761">
        <ele>61.17523</ele>
        <time>2021-06-30T10:44:44Z</time>
      </trkpt>
      <trkpt lat="44.341885" lon="4.737771">
        <ele>60.94781</ele>
        <time>2021-06-30T10:44:45Z</time>
      </trkpt>
      <trkpt lat="44.341518" lon="4.737781">
        <ele>61.33258</ele>
        <time>2021-06-30T10:44:46Z</time>
      </trkpt>
      <trkpt lat="44.341145" lon="4.737791">
        <ele>62.12512</ele>
        <time>2021-06-30T10:44:47Z</time>
      </trkpt>
      <trkpt lat="44.340790" lon="4.737801">
        <ele>62.24896</ele>
        <time>2021-06-30T10:44:48Z</time>
      </trkpt>
      <trkpt lat="44.340420" lon="4.737812">
        <ele>62.65961</ele>
        <time>2021-06-30T10:44:49Z</time>
      </trkpt>
      <trkpt lat="44.340054" lon="4.737823">
        <ele>63.36176</ele>
        <time>2021-06-30T10:44:50Z</time>
      </trkpt>
      <trkpt lat="44.339687" lon="4.737836">
        <ele>63.23163</ele>
        <time>2021-06-30T10:44:51Z</time>
      </trkpt>
      <trkpt lat="44.339355" lon="4.737852">
        <ele>62.34747</ele>
        <time>2021-06-30T10:44:52Z</time>
      </trkpt>
      <trkpt lat="44.339008" lon="4.737869">
        <ele>62.29962</ele>
        <time>2021-06-30T10:44:53Z</time>
      </trkpt>
      <trkpt lat="44.338634" lon="4.737887">
        <ele>60.69427</ele>
        <time>2021-06-30T10:44:54Z</time>
      </trkpt>
      <trkpt lat="44.338280" lon="4.737904">
        <ele>60.70081</ele>
        <time>2021-06-30T10:44:55Z</time>
      </trkpt>
      <trkpt lat="44.337936" lon="4.737927">
        <ele>60.82904</ele>
        <time>2021-06-30T10:44:56Z</time>
      </trkpt>
      <trkpt lat="44.337563" lon="4.737956">
        <ele>60.86981</ele>
        <time>2021-06-30T10:44:57Z</time>
      </trkpt>
      <trkpt lat="44.337189" lon="4.737987">
        <ele>60.43787</ele>
        <time>2021-06-30T10:44:58Z</time>
      </trkpt>
      <trkpt lat="44.336826" lon="4.738016">
        <ele>60.34662</ele>
        <time>2021-06-30T10:44:59Z</time>
      </trkpt>
      <trkpt lat="44.336472" lon="4.738045">
        <ele>60.23956</ele>
        <time>2021-06-30T10:45:00Z</time>
      </trkpt>
      <trkpt lat="44.336105" lon="4.738074">
        <ele>58.10815</ele>
        <time>2021-06-30T10:45:01Z</time>
      </trkpt>
      <trkpt lat="44.335735" lon="4.738105">
        <ele>57.95343</ele>
        <time>2021-06-30T10:45:02Z</time>
      </trkpt>
      <trkpt lat="44.335358" lon="4.738138">
        <ele>58.84760</ele>
        <time>2021-06-30T10:45:03Z</time>
      </trkpt>
      <trkpt lat="44.334995" lon="4.738175">
        <ele>58.47742</ele>
        <time>2021-06-30T10:45:04Z</time>
      </trkpt>
      <trkpt lat="44.334652" lon="4.738211">
        <ele>59.02216</ele>
        <time>2021-06-30T10:45:05Z</time>
      </trkpt>
      <trkpt lat="44.334305" lon="4.738247">
        <ele>59.34271</ele>
        <time>2021-06-30T10:45:06Z</time>
      </trkpt>
      <trkpt lat="44.333954" lon="4.738283">
        <ele>60.95728</ele>
        <time>2021-06-30T10:45:07Z</time>
      </trkpt>
      <trkpt lat="44.333588" lon="4.738321">
        <ele>60.72791</ele>
        <time>2021-06-30T10:45:08Z</time>
      </trkpt>
      <trkpt lat="44.333218" lon="4.738360">
        <ele>61.23108</ele>
        <time>2021-06-30T10:45:09Z</time>
      </trkpt>
      <trkpt lat="44.332851" lon="4.738401">
        <ele>61.60901</ele>
        <time>2021-06-30T10:45:10Z</time>
      </trkpt>
      <trkpt lat="44.332851" lon="4.738401">
        <ele>62.33386</ele>
        <time>2021-06-30T10:45:11Z</time>
      </trkpt>
      <trkpt lat="44.332523" lon="4.738443">
        <ele>60.65137</ele>
        <time>2021-06-30T10:45:12Z</time>
      </trkpt>
      <trkpt lat="44.332130" lon="4.738493">
        <ele>60.36981</ele>
        <time>2021-06-30T10:45:13Z</time>
      </trkpt>
      <trkpt lat="44.331764" lon="4.738540">
        <ele>60.67578</ele>
        <time>2021-06-30T10:45:14Z</time>
      </trkpt>
      <trkpt lat="44.331390" lon="4.738588">
        <ele>60.70917</ele>
        <time>2021-06-30T10:45:15Z</time>
      </trkpt>
      <trkpt lat="44.331036" lon="4.738633">
        <ele>59.92371</ele>
        <time>2021-06-30T10:45:16Z</time>
      </trkpt>
      <trkpt lat="44.330669" lon="4.738680">
        <ele>60.66443</ele>
        <time>2021-06-30T10:45:17Z</time>
      </trkpt>
      <trkpt lat="44.330292" lon="4.738730">
        <ele>61.10876</ele>
        <time>2021-06-30T10:45:18Z</time>
      </trkpt>
      <trkpt lat="44.329922" lon="4.738780">
        <ele>60.42529</ele>
        <time>2021-06-30T10:45:19Z</time>
      </trkpt>
      <trkpt lat="44.329567" lon="4.738828">
        <ele>60.57263</ele>
        <time>2021-06-30T10:45:20Z</time>
      </trkpt>
      <trkpt lat="44.329201" lon="4.738877">
        <ele>61.49182</ele>
        <time>2021-06-30T10:45:21Z</time>
      </trkpt>
      <trkpt lat="44.328842" lon="4.738926">
        <ele>61.08173</ele>
        <time>2021-06-30T10:45:22Z</time>
      </trkpt>
      <trkpt lat="44.328499" lon="4.738972">
        <ele>60.45813</ele>
        <time>2021-06-30T10:45:23Z</time>
      </trkpt>
      <trkpt lat="44.328148" lon="4.739018">
        <ele>60.72607</ele>
        <time>2021-06-30T10:45:24Z</time>
      </trkpt>
      <trkpt lat="44.327759" lon="4.739069">
        <ele>60.44788</ele>
        <time>2021-06-30T10:45:25Z</time>
      </trkpt>
      <trkpt lat="44.327404" lon="4.739115">
        <ele>60.25275</ele>
        <time>2021-06-30T10:45:26Z</time>
      </trkpt>
      <trkpt lat="44.327061" lon="4.739160">
        <ele>60.29840</ele>
        <time>2021-06-30T10:45:27Z</time>
      </trkpt>
      <trkpt lat="44.326706" lon="4.739206">
        <ele>59.88409</ele>
        <time>2021-06-30T10:45:28Z</time>
      </trkpt>
      <trkpt lat="44.326336" lon="4.739254">
        <ele>60.76605</ele>
        <time>2021-06-30T10:45:29Z</time>
      </trkpt>
      <trkpt lat="44.325977" lon="4.739301">
        <ele>60.59460</ele>
        <time>2021-06-30T10:45:30Z</time>
      </trkpt>
      <trkpt lat="44.325615" lon="4.739345">
        <ele>60.06293</ele>
        <time>2021-06-30T10:45:31Z</time>
      </trkpt>
      <trkpt lat="44.325264" lon="4.739386">
        <ele>59.26538</ele>
        <time>2021-06-30T10:45:32Z</time>
      </trkpt>
      <trkpt lat="44.324909" lon="4.739435">
        <ele>60.08246</ele>
        <time>2021-06-30T10:45:33Z</time>
      </trkpt>
      <trkpt lat="44.324532" lon="4.739490">
        <ele>59.83081</ele>
        <time>2021-06-30T10:45:34Z</time>
      </trkpt>
      <trkpt lat="44.324169" lon="4.739543">
        <ele>60.22308</ele>
        <time>2021-06-30T10:45:35Z</time>
      </trkpt>
      <trkpt lat="44.323826" lon="4.739595">
        <ele>60.63403</ele>
        <time>2021-06-30T10:45:36Z</time>
      </trkpt>
      <trkpt lat="44.323463" lon="4.739656">
        <ele>60.51373</ele>
        <time>2021-06-30T10:45:37Z</time>
      </trkpt>
      <trkpt lat="44.323093" lon="4.739728">
        <ele>60.51465</ele>
        <time>2021-06-30T10:45:38Z</time>
      </trkpt>
      <trkpt lat="44.322742" lon="4.739799">
        <ele>61.29205</ele>
        <time>2021-06-30T10:45:39Z</time>
      </trkpt>
      <trkpt lat="44.322399" lon="4.739875">
        <ele>60.05341</ele>
        <time>2021-06-30T10:45:40Z</time>
      </trkpt>
      <trkpt lat="44.322048" lon="4.739961">
        <ele>60.52686</ele>
        <time>2021-06-30T10:45:41Z</time>
      </trkpt>
      <trkpt lat="44.322048" lon="4.739961">
        <ele>60.56610</ele>
        <time>2021-06-30T10:45:42Z</time>
      </trkpt>
      <trkpt lat="44.321674" lon="4.740054">
        <ele>61.78851</ele>
        <time>2021-06-30T10:45:43Z</time>
      </trkpt>
      <trkpt lat="44.321320" lon="4.740156">
        <ele>61.51770</ele>
        <time>2021-06-30T10:45:44Z</time>
      </trkpt>
      <trkpt lat="44.320976" lon="4.740255">
        <ele>62.42920</ele>
        <time>2021-06-30T10:45:45Z</time>
      </trkpt>
      <trkpt lat="44.320618" lon="4.740363">
        <ele>62.64276</ele>
        <time>2021-06-30T10:45:46Z</time>
      </trkpt>
      <trkpt lat="44.320278" lon="4.740478">
        <ele>62.65778</ele>
        <time>2021-06-30T10:45:47Z</time>
      </trkpt>
      <trkpt lat="44.319923" lon="4.740599">
        <ele>61.78577</ele>
        <time>2021-06-30T10:45:48Z</time>
      </trkpt>
      <trkpt lat="44.319588" lon="4.740717">
        <ele>61.72040</ele>
        <time>2021-06-30T10:45:49Z</time>
      </trkpt>
      <trkpt lat="44.319218" lon="4.740870">
        <ele>62.22614</ele>
        <time>2021-06-30T10:45:50Z</time>
      </trkpt>
      <trkpt lat="44.318886" lon="4.741007">
        <ele>62.14636</ele>
        <time>2021-06-30T10:45:51Z</time>
      </trkpt>
      <trkpt lat="44.318550" lon="4.741150">
        <ele>60.66736</ele>
        <time>2021-06-30T10:45:52Z</time>
      </trkpt>
      <trkpt lat="44.318233" lon="4.741289">
        <ele>60.07220</ele>
        <time>2021-06-30T10:45:53Z</time>
      </trkpt>
      <trkpt lat="44.317879" lon="4.741460">
        <ele>59.77496</ele>
        <time>2021-06-30T10:45:54Z</time>
      </trkpt>
      <trkpt lat="44.317535" lon="4.741628">
        <ele>57.81000</ele>
        <time>2021-06-30T10:45:55Z</time>
      </trkpt>
      <trkpt lat="44.317184" lon="4.741802">
        <ele>59.69849</ele>
        <time>2021-06-30T10:45:56Z</time>
      </trkpt>
      <trkpt lat="44.316856" lon="4.741980">
        <ele>60.16632</ele>
        <time>2021-06-30T10:45:57Z</time>
      </trkpt>
      <trkpt lat="44.316532" lon="4.742154">
        <ele>60.29376</ele>
        <time>2021-06-30T10:45:58Z</time>
      </trkpt>
      <trkpt lat="44.316196" lon="4.742343">
        <ele>60.22559</ele>
        <time>2021-06-30T10:45:59Z</time>
      </trkpt>
      <trkpt lat="44.315872" lon="4.742536">
        <ele>59.69293</ele>
        <time>2021-06-30T10:46:00Z</time>
      </trkpt>
      <trkpt lat="44.315536" lon="4.742736">
        <ele>60.28137</ele>
        <time>2021-06-30T10:46:01Z</time>
      </trkpt>
      <trkpt lat="44.315220" lon="4.742925">
        <ele>60.28082</ele>
        <time>2021-06-30T10:46:02Z</time>
      </trkpt>
      <trkpt lat="44.314888" lon="4.743124">
        <ele>61.69940</ele>
        <time>2021-06-30T10:46:03Z</time>
      </trkpt>
      <trkpt lat="44.314545" lon="4.743328">
        <ele>61.66278</ele>
        <time>2021-06-30T10:46:04Z</time>
      </trkpt>
      <trkpt lat="44.314224" lon="4.743519">
        <ele>61.79089</ele>
        <time>2021-06-30T10:46:05Z</time>
      </trkpt>
      <trkpt lat="44.313889" lon="4.743720">
        <ele>61.12518</ele>
        <time>2021-06-30T10:46:06Z</time>
      </trkpt>
      <trkpt lat="44.313557" lon="4.743921">
        <ele>61.13873</ele>
        <time>2021-06-30T10:46:07Z</time>
      </trkpt>
      <trkpt lat="44.313217" lon="4.744127">
        <ele>61.60986</ele>
        <time>2021-06-30T10:46:08Z</time>
      </trkpt>
      <trkpt lat="44.312885" lon="4.744327">
        <ele>61.31610</ele>
        <time>2021-06-30T10:46:09Z</time>
      </trkpt>
      <trkpt lat="44.312557" lon="4.744527">
        <ele>61.27606</ele>
        <time>2021-06-30T10:46:10Z</time>
      </trkpt>
      <trkpt lat="44.312225" lon="4.744729">
        <ele>62.31580</ele>
        <time>2021-06-30T10:46:11Z</time>
      </trkpt>
      <trkpt lat="44.311886" lon="4.744935">
        <ele>62.37817</ele>
        <time>2021-06-30T10:46:12Z</time>
      </trkpt>
      <trkpt lat="44.311562" lon="4.745131">
        <ele>62.03333</ele>
        <time>2021-06-30T10:46:13Z</time>
      </trkpt>
      <trkpt lat="44.311562" lon="4.745131">
        <ele>63.26746</ele>
        <time>2021-06-30T10:46:14Z</time>
      </trkpt>
      <trkpt lat="44.310883" lon="4.745521">
        <ele>63.01044</ele>
        <time>2021-06-30T10:46:15Z</time>
      </trkpt>
      <trkpt lat="44.310883" lon="4.745521">
        <ele>62.85602</ele>
        <time>2021-06-30T10:46:16Z</time>
      </trkpt>
      <trkpt lat="44.310207" lon="4.745879">
        <ele>62.85980</ele>
        <time>2021-06-30T10:46:18Z</time>
      </trkpt>
      <trkpt lat="44.310207" lon="4.745879">
        <ele>63.04529</ele>
        <time>2021-06-30T10:46:18Z</time>
      </trkpt>
      <trkpt lat="44.309868" lon="4.746031">
        <ele>63.78857</ele>
        <time>2021-06-30T10:46:19Z</time>
      </trkpt>
      <trkpt lat="44.309525" lon="4.746180">
        <ele>63.84955</ele>
        <time>2021-06-30T10:46:21Z</time>
      </trkpt>
      <trkpt lat="44.309170" lon="4.746308">
        <ele>62.54303</ele>
        <time>2021-06-30T10:46:21Z</time>
      </trkpt>
      <trkpt lat="44.308815" lon="4.746430">
        <ele>62.70947</ele>
        <time>2021-06-30T10:46:22Z</time>
      </trkpt>
      <trkpt lat="44.308453" lon="4.746539">
        <ele>63.82147</ele>
        <time>2021-06-30T10:46:23Z</time>
      </trkpt>
      <trkpt lat="44.308090" lon="4.746634">
        <ele>63.80383</ele>
        <time>2021-06-30T10:46:24Z</time>
      </trkpt>
      <trkpt lat="44.307758" lon="4.746709">
        <ele>63.84717</ele>
        <time>2021-06-30T10:46:25Z</time>
      </trkpt>
      <trkpt lat="44.307419" lon="4.746765">
        <ele>64.75928</ele>
        <time>2021-06-30T10:46:26Z</time>
      </trkpt>
      <trkpt lat="44.307060" lon="4.746816">
        <ele>65.36029</ele>
        <time>2021-06-30T10:46:27Z</time>
      </trkpt>
      <trkpt lat="44.306728" lon="4.746852">
        <ele>65.48334</ele>
        <time>2021-06-30T10:46:29Z</time>
      </trkpt>
      <trkpt lat="44.306358" lon="4.746886">
        <ele>65.99500</ele>
        <time>2021-06-30T10:46:29Z</time>
      </trkpt>
      <trkpt lat="44.306019" lon="4.746905">
        <ele>66.33582</ele>
        <time>2021-06-30T10:46:30Z</time>
      </trkpt>
      <trkpt lat="44.305645" lon="4.746900">
        <ele>64.92236</ele>
        <time>2021-06-30T10:46:31Z</time>
      </trkpt>
      <trkpt lat="44.305286" lon="4.746895">
        <ele>64.82495</ele>
        <time>2021-06-30T10:46:33Z</time>
      </trkpt>
      <trkpt lat="44.304920" lon="4.746889">
        <ele>64.67670</ele>
        <time>2021-06-30T10:46:33Z</time>
      </trkpt>
      <trkpt lat="44.304562" lon="4.746878">
        <ele>64.82050</ele>
        <time>2021-06-30T10:46:34Z</time>
      </trkpt>
      <trkpt lat="44.304195" lon="4.746858">
        <ele>65.23975</ele>
        <time>2021-06-30T10:46:35Z</time>
      </trkpt>
      <trkpt lat="44.303848" lon="4.746838">
        <ele>65.20227</ele>
        <time>2021-06-30T10:46:37Z</time>
      </trkpt>
      <trkpt lat="44.303493" lon="4.746818">
        <ele>64.70660</ele>
        <time>2021-06-30T10:46:37Z</time>
      </trkpt>
      <trkpt lat="44.303154" lon="4.746799">
        <ele>66.57306</ele>
        <time>2021-06-30T10:46:38Z</time>
      </trkpt>
      <trkpt lat="44.302792" lon="4.746778">
        <ele>66.65704</ele>
        <time>2021-06-30T10:46:39Z</time>
      </trkpt>
      <trkpt lat="44.302422" lon="4.746757">
        <ele>66.99719</ele>
        <time>2021-06-30T10:46:41Z</time>
      </trkpt>
      <trkpt lat="44.302078" lon="4.746738">
        <ele>67.01825</ele>
        <time>2021-06-30T10:46:41Z</time>
      </trkpt>
      <trkpt lat="44.301716" lon="4.746716">
        <ele>66.91730</ele>
        <time>2021-06-30T10:46:42Z</time>
      </trkpt>
      <trkpt lat="44.301353" lon="4.746698">
        <ele>68.22375</ele>
        <time>2021-06-30T10:46:43Z</time>
      </trkpt>
      <trkpt lat="44.300999" lon="4.746675">
        <ele>68.14862</ele>
        <time>2021-06-30T10:46:45Z</time>
      </trkpt>
      <trkpt lat="44.300644" lon="4.746656">
        <ele>68.36023</ele>
        <time>2021-06-30T10:46:45Z</time>
      </trkpt>
      <trkpt lat="44.300274" lon="4.746636">
        <ele>68.78400</ele>
        <time>2021-06-30T10:46:46Z</time>
      </trkpt>
      <trkpt lat="44.300274" lon="4.746636">
        <ele>68.61914</ele>
        <time>2021-06-30T10:46:47Z</time>
      </trkpt>
      <trkpt lat="44.299908" lon="4.746616">
        <ele>68.72418</ele>
        <time>2021-06-30T10:46:49Z</time>
      </trkpt>
      <trkpt lat="44.299541" lon="4.746592">
        <ele>68.61462</ele>
        <time>2021-06-30T10:46:49Z</time>
      </trkpt>
      <trkpt lat="44.299194" lon="4.746573">
        <ele>69.06494</ele>
        <time>2021-06-30T10:46:50Z</time>
      </trkpt>
      <trkpt lat="44.298836" lon="4.746550">
        <ele>68.68219</ele>
        <time>2021-06-30T10:46:51Z</time>
      </trkpt>
      <trkpt lat="44.298492" lon="4.746527">
        <ele>68.69476</ele>
        <time>2021-06-30T10:46:53Z</time>
      </trkpt>
      <trkpt lat="44.298119" lon="4.746501">
        <ele>69.09973</ele>
        <time>2021-06-30T10:46:53Z</time>
      </trkpt>
      <trkpt lat="44.297768" lon="4.746477">
        <ele>68.99469</ele>
        <time>2021-06-30T10:46:54Z</time>
      </trkpt>
      <trkpt lat="44.297401" lon="4.746446">
        <ele>68.47974</ele>
        <time>2021-06-30T10:46:55Z</time>
      </trkpt>
      <trkpt lat="44.297035" lon="4.746408">
        <ele>68.26117</ele>
        <time>2021-06-30T10:46:57Z</time>
      </trkpt>
      <trkpt lat="44.296665" lon="4.746357">
        <ele>67.61194</ele>
        <time>2021-06-30T10:46:57Z</time>
      </trkpt>
      <trkpt lat="44.296310" lon="4.746307">
        <ele>67.38507</ele>
        <time>2021-06-30T10:46:58Z</time>
      </trkpt>
      <trkpt lat="44.295948" lon="4.746236">
        <ele>68.74506</ele>
        <time>2021-06-30T10:47:00Z</time>
      </trkpt>
      <trkpt lat="44.295578" lon="4.746156">
        <ele>68.30078</ele>
        <time>2021-06-30T10:47:00Z</time>
      </trkpt>
      <trkpt lat="44.295216" lon="4.746059">
        <ele>68.15332</ele>
        <time>2021-06-30T10:47:01Z</time>
      </trkpt>
      <trkpt lat="44.294868" lon="4.745960">
        <ele>67.80347</ele>
        <time>2021-06-30T10:47:02Z</time>
      </trkpt>
      <trkpt lat="44.294510" lon="4.745841">
        <ele>67.63013</ele>
        <time>2021-06-30T10:47:04Z</time>
      </trkpt>
      <trkpt lat="44.294170" lon="4.745717">
        <ele>67.82849</ele>
        <time>2021-06-30T10:47:04Z</time>
      </trkpt>
      <trkpt lat="44.293816" lon="4.745576">
        <ele>66.47876</ele>
        <time>2021-06-30T10:47:05Z</time>
      </trkpt>
      <trkpt lat="44.293476" lon="4.745432">
        <ele>65.67010</ele>
        <time>2021-06-30T10:47:06Z</time>
      </trkpt>
      <trkpt lat="44.293156" lon="4.745282">
        <ele>65.19525</ele>
        <time>2021-06-30T10:47:07Z</time>
      </trkpt>
      <trkpt lat="44.292797" lon="4.745097">
        <ele>65.55353</ele>
        <time>2021-06-30T10:47:09Z</time>
      </trkpt>
      <trkpt lat="44.292427" lon="4.744892">
        <ele>65.49750</ele>
        <time>2021-06-30T10:47:09Z</time>
      </trkpt>
      <trkpt lat="44.292084" lon="4.744692">
        <ele>64.93939</ele>
        <time>2021-06-30T10:47:10Z</time>
      </trkpt>
      <trkpt lat="44.291756" lon="4.744496">
        <ele>65.63159</ele>
        <time>2021-06-30T10:47:11Z</time>
      </trkpt>
      <trkpt lat="44.291458" lon="4.744290">
        <ele>65.62323</ele>
        <time>2021-06-30T10:47:12Z</time>
      </trkpt>
      <trkpt lat="44.291153" lon="4.744077">
        <ele>60.81616</ele>
        <time>2021-06-30T10:47:14Z</time>
      </trkpt>
      <trkpt lat="44.290833" lon="4.743838">
        <ele>60.32043</ele>
        <time>2021-06-30T10:47:14Z</time>
      </trkpt>
      <trkpt lat="44.290504" lon="4.743573">
        <ele>60.67590</ele>
        <time>2021-06-30T10:47:15Z</time>
      </trkpt>
      <trkpt lat="44.290203" lon="4.743322">
        <ele>59.74084</ele>
        <time>2021-06-30T10:47:16Z</time>
      </trkpt>
      <trkpt lat="44.289894" lon="4.743045">
        <ele>59.92859</ele>
        <time>2021-06-30T10:47:17Z</time>
      </trkpt>
      <trkpt lat="44.289577" lon="4.742758">
        <ele>58.10150</ele>
        <time>2021-06-30T10:47:19Z</time>
      </trkpt>
      <trkpt lat="44.289284" lon="4.742477">
        <ele>57.99567</ele>
        <time>2021-06-30T10:47:19Z</time>
      </trkpt>
      <trkpt lat="44.288986" lon="4.742188">
        <ele>58.15308</ele>
        <time>2021-06-30T10:47:21Z</time>
      </trkpt>
      <trkpt lat="44.288986" lon="4.742188">
        <ele>58.47107</ele>
        <time>2021-06-30T10:47:21Z</time>
      </trkpt>
      <trkpt lat="44.288685" lon="4.741889">
        <ele>58.22284</ele>
        <time>2021-06-30T10:47:22Z</time>
      </trkpt>
      <trkpt lat="44.288387" lon="4.741590">
        <ele>58.56635</ele>
        <time>2021-06-30T10:47:23Z</time>
      </trkpt>
      <trkpt lat="44.288116" lon="4.741313">
        <ele>57.68665</ele>
        <time>2021-06-30T10:47:24Z</time>
      </trkpt>
      <trkpt lat="44.287804" lon="4.740991">
        <ele>56.38342</ele>
        <time>2021-06-30T10:47:26Z</time>
      </trkpt>
      <trkpt lat="44.287518" lon="4.740693">
        <ele>54.63715</ele>
        <time>2021-06-30T10:47:26Z</time>
      </trkpt>
      <trkpt lat="44.287235" lon="4.740402">
        <ele>54.91638</ele>
        <time>2021-06-30T10:47:27Z</time>
      </trkpt>
      <trkpt lat="44.286961" lon="4.740118">
        <ele>55.22717</ele>
        <time>2021-06-30T10:47:28Z</time>
      </trkpt>
      <trkpt lat="44.286674" lon="4.739825">
        <ele>54.96204</ele>
        <time>2021-06-30T10:47:29Z</time>
      </trkpt>
      <trkpt lat="44.286366" lon="4.739506">
        <ele>54.69995</ele>
        <time>2021-06-30T10:47:31Z</time>
      </trkpt>
      <trkpt lat="44.286072" lon="4.739203">
        <ele>55.00391</ele>
        <time>2021-06-30T10:47:31Z</time>
      </trkpt>
      <trkpt lat="44.285770" lon="4.738895">
        <ele>54.33270</ele>
        <time>2021-06-30T10:47:32Z</time>
      </trkpt>
      <trkpt lat="44.285484" lon="4.738600">
        <ele>53.92981</ele>
        <time>2021-06-30T10:47:33Z</time>
      </trkpt>
      <trkpt lat="44.285206" lon="4.738313">
        <ele>54.16333</ele>
        <time>2021-06-30T10:47:34Z</time>
      </trkpt>
      <trkpt lat="44.284912" lon="4.738013">
        <ele>53.78925</ele>
        <time>2021-06-30T10:47:36Z</time>
      </trkpt>
      <trkpt lat="44.284615" lon="4.737709">
        <ele>53.79547</ele>
        <time>2021-06-30T10:47:36Z</time>
      </trkpt>
      <trkpt lat="44.284313" lon="4.737398">
        <ele>52.55103</ele>
        <time>2021-06-30T10:47:37Z</time>
      </trkpt>
      <trkpt lat="44.284016" lon="4.737093">
        <ele>52.50555</ele>
        <time>2021-06-30T10:47:38Z</time>
      </trkpt>
      <trkpt lat="44.283741" lon="4.736814">
        <ele>52.45593</ele>
        <time>2021-06-30T10:47:39Z</time>
      </trkpt>
      <trkpt lat="44.283440" lon="4.736504">
        <ele>51.82593</ele>
        <time>2021-06-30T10:47:41Z</time>
      </trkpt>
      <trkpt lat="44.283157" lon="4.736216">
        <ele>51.82520</ele>
        <time>2021-06-30T10:47:41Z</time>
      </trkpt>
      <trkpt lat="44.282879" lon="4.735930">
        <ele>52.24866</ele>
        <time>2021-06-30T10:47:42Z</time>
      </trkpt>
      <trkpt lat="44.282589" lon="4.735636">
        <ele>51.94971</ele>
        <time>2021-06-30T10:47:43Z</time>
      </trkpt>
      <trkpt lat="44.282295" lon="4.735333">
        <ele>52.32684</ele>
        <time>2021-06-30T10:47:44Z</time>
      </trkpt>
      <trkpt lat="44.281998" lon="4.735029">
        <ele>52.29150</ele>
        <time>2021-06-30T10:47:45Z</time>
      </trkpt>
      <trkpt lat="44.281704" lon="4.734730">
        <ele>52.78186</ele>
        <time>2021-06-30T10:47:46Z</time>
      </trkpt>
      <trkpt lat="44.281410" lon="4.734430">
        <ele>52.57458</ele>
        <time>2021-06-30T10:47:47Z</time>
      </trkpt>
      <trkpt lat="44.281113" lon="4.734126">
        <ele>52.87714</ele>
        <time>2021-06-30T10:47:48Z</time>
      </trkpt>
      <trkpt lat="44.280819" lon="4.733840">
        <ele>53.77466</ele>
        <time>2021-06-30T10:47:49Z</time>
      </trkpt>
      <trkpt lat="44.280540" lon="4.733569">
        <ele>53.89746</ele>
        <time>2021-06-30T10:47:51Z</time>
      </trkpt>
      <trkpt lat="44.280231" lon="4.733271">
        <ele>52.78918</ele>
        <time>2021-06-30T10:47:51Z</time>
      </trkpt>
      <trkpt lat="44.279938" lon="4.732987">
        <ele>52.98431</ele>
        <time>2021-06-30T10:47:52Z</time>
      </trkpt>
      <trkpt lat="44.279938" lon="4.732987">
        <ele>52.14014</ele>
        <time>2021-06-30T10:47:53Z</time>
      </trkpt>
      <trkpt lat="44.279644" lon="4.732703">
        <ele>49.75128</ele>
        <time>2021-06-30T10:47:54Z</time>
      </trkpt>
      <trkpt lat="44.279324" lon="4.732406">
        <ele>49.91882</ele>
        <time>2021-06-30T10:47:55Z</time>
      </trkpt>
      <trkpt lat="44.279003" lon="4.732116">
        <ele>49.11279</ele>
        <time>2021-06-30T10:47:57Z</time>
      </trkpt>
      <trkpt lat="44.278702" lon="4.731847">
        <ele>48.30743</ele>
        <time>2021-06-30T10:47:57Z</time>
      </trkpt>
      <trkpt lat="44.278397" lon="4.731569">
        <ele>48.16711</ele>
        <time>2021-06-30T10:47:58Z</time>
      </trkpt>
      <trkpt lat="44.278095" lon="4.731304">
        <ele>48.58368</ele>
        <time>2021-06-30T10:47:59Z</time>
      </trkpt>
      <trkpt lat="44.277802" lon="4.731050">
        <ele>47.71320</ele>
        <time>2021-06-30T10:48:00Z</time>
      </trkpt>
      <trkpt lat="44.277489" lon="4.730782">
        <ele>47.82605</ele>
        <time>2021-06-30T10:48:02Z</time>
      </trkpt>
      <trkpt lat="44.277176" lon="4.730517">
        <ele>47.88147</ele>
        <time>2021-06-30T10:48:02Z</time>
      </trkpt>
      <trkpt lat="44.276871" lon="4.730261">
        <ele>47.95343</ele>
        <time>2021-06-30T10:48:03Z</time>
      </trkpt>
      <trkpt lat="44.276569" lon="4.730023">
        <ele>48.39490</ele>
        <time>2021-06-30T10:48:04Z</time>
      </trkpt>
      <trkpt lat="44.276272" lon="4.729786">
        <ele>48.71686</ele>
        <time>2021-06-30T10:48:05Z</time>
      </trkpt>
      <trkpt lat="44.275948" lon="4.729535">
        <ele>49.09418</ele>
        <time>2021-06-30T10:48:07Z</time>
      </trkpt>
      <trkpt lat="44.275639" lon="4.729299">
        <ele>48.19324</ele>
        <time>2021-06-30T10:48:07Z</time>
      </trkpt>
      <trkpt lat="44.275322" lon="4.729057">
        <ele>48.14563</ele>
        <time>2021-06-30T10:48:08Z</time>
      </trkpt>
      <trkpt lat="44.274994" lon="4.728806">
        <ele>48.50732</ele>
        <time>2021-06-30T10:48:09Z</time>
      </trkpt>
      <trkpt lat="44.274677" lon="4.728568">
        <ele>48.22650</ele>
        <time>2021-06-30T10:48:10Z</time>
      </trkpt>
      <trkpt lat="44.274338" lon="4.728314">
        <ele>47.66107</ele>
        <time>2021-06-30T10:48:12Z</time>
      </trkpt>
      <trkpt lat="44.274010" lon="4.728070">
        <ele>47.82977</ele>
        <time>2021-06-30T10:48:12Z</time>
      </trkpt>
      <trkpt lat="44.273697" lon="4.727836">
        <ele>48.04132</ele>
        <time>2021-06-30T10:48:13Z</time>
      </trkpt>
      <trkpt lat="44.273380" lon="4.727600">
        <ele>48.24158</ele>
        <time>2021-06-30T10:48:14Z</time>
      </trkpt>
      <trkpt lat="44.273075" lon="4.727375">
        <ele>48.13513</ele>
        <time>2021-06-30T10:48:15Z</time>
      </trkpt>
      <trkpt lat="44.272751" lon="4.727138">
        <ele>48.79218</ele>
        <time>2021-06-30T10:48:17Z</time>
      </trkpt>
      <trkpt lat="44.272419" lon="4.726896">
        <ele>49.14130</ele>
        <time>2021-06-30T10:48:17Z</time>
      </trkpt>
      <trkpt lat="44.272106" lon="4.726668">
        <ele>49.03851</ele>
        <time>2021-06-30T10:48:18Z</time>
      </trkpt>
      <trkpt lat="44.271797" lon="4.726440">
        <ele>49.05945</ele>
        <time>2021-06-30T10:48:19Z</time>
      </trkpt>
      <trkpt lat="44.271488" lon="4.726214">
        <ele>49.54010</ele>
        <time>2021-06-30T10:48:21Z</time>
      </trkpt>
      <trkpt lat="44.271172" lon="4.725981">
        <ele>49.40930</ele>
        <time>2021-06-30T10:48:22Z</time>
      </trkpt>
      <trkpt lat="44.270859" lon="4.725747">
        <ele>49.77734</ele>
        <time>2021-06-30T10:48:22Z</time>
      </trkpt>
      <trkpt lat="44.270538" lon="4.725512">
        <ele>50.06366</ele>
        <time>2021-06-30T10:48:23Z</time>
      </trkpt>
      <trkpt lat="44.270233" lon="4.725286">
        <ele>50.12946</ele>
        <time>2021-06-30T10:48:24Z</time>
      </trkpt>
      <trkpt lat="44.269901" lon="4.725039">
        <ele>49.14813</ele>
        <time>2021-06-30T10:48:25Z</time>
      </trkpt>
      <trkpt lat="44.269573" lon="4.724797">
        <ele>48.10065</ele>
        <time>2021-06-30T10:48:27Z</time>
      </trkpt>
      <trkpt lat="44.269230" lon="4.724543">
        <ele>48.76794</ele>
        <time>2021-06-30T10:48:28Z</time>
      </trkpt>
      <trkpt lat="44.268875" lon="4.724283">
        <ele>48.64343</ele>
        <time>2021-06-30T10:48:28Z</time>
      </trkpt>
      <trkpt lat="44.268543" lon="4.724045">
        <ele>48.08746</ele>
        <time>2021-06-30T10:48:29Z</time>
      </trkpt>
      <trkpt lat="44.268234" lon="4.723822">
        <ele>47.14691</ele>
        <time>2021-06-30T10:48:30Z</time>
      </trkpt>
      <trkpt lat="44.267883" lon="4.723567">
        <ele>45.90308</ele>
        <time>2021-06-30T10:48:31Z</time>
      </trkpt>
      <trkpt lat="44.267544" lon="4.723321">
        <ele>45.72681</ele>
        <time>2021-06-30T10:48:33Z</time>
      </trkpt>
      <trkpt lat="44.267544" lon="4.723321">
        <ele>45.54633</ele>
        <time>2021-06-30T10:48:33Z</time>
      </trkpt>
      <trkpt lat="44.267216" lon="4.723085">
        <ele>45.69708</ele>
        <time>2021-06-30T10:48:34Z</time>
      </trkpt>
      <trkpt lat="44.266891" lon="4.722849">
        <ele>45.05981</ele>
        <time>2021-06-30T10:48:35Z</time>
      </trkpt>
      <trkpt lat="44.266575" lon="4.722620">
        <ele>45.12079</ele>
        <time>2021-06-30T10:48:36Z</time>
      </trkpt>
      <trkpt lat="44.266266" lon="4.722395">
        <ele>44.41553</ele>
        <time>2021-06-30T10:48:37Z</time>
      </trkpt>
      <trkpt lat="44.265934" lon="4.722156">
        <ele>44.25159</ele>
        <time>2021-06-30T10:48:39Z</time>
      </trkpt>
      <trkpt lat="44.265633" lon="4.721938">
        <ele>44.52942</ele>
        <time>2021-06-30T10:48:39Z</time>
      </trkpt>
      <trkpt lat="44.265312" lon="4.721709">
        <ele>44.71692</ele>
        <time>2021-06-30T10:48:40Z</time>
      </trkpt>
      <trkpt lat="44.265007" lon="4.721485">
        <ele>44.56274</ele>
        <time>2021-06-30T10:48:41Z</time>
      </trkpt>
      <trkpt lat="44.264694" lon="4.721261">
        <ele>44.08661</ele>
        <time>2021-06-30T10:48:42Z</time>
      </trkpt>
      <trkpt lat="44.264366" lon="4.721024">
        <ele>45.53198</ele>
        <time>2021-06-30T10:48:43Z</time>
      </trkpt>
      <trkpt lat="44.264042" lon="4.720787">
        <ele>46.01697</ele>
        <time>2021-06-30T10:48:44Z</time>
      </trkpt>
      <trkpt lat="44.263718" lon="4.720554">
        <ele>47.34784</ele>
        <time>2021-06-30T10:48:45Z</time>
      </trkpt>
      <trkpt lat="44.263412" lon="4.720333">
        <ele>47.39349</ele>
        <time>2021-06-30T10:48:47Z</time>
      </trkpt>
      <trkpt lat="44.263069" lon="4.720085">
        <ele>47.22479</ele>
        <time>2021-06-30T10:48:48Z</time>
      </trkpt>
      <trkpt lat="44.262733" lon="4.719841">
        <ele>45.89929</ele>
        <time>2021-06-30T10:48:48Z</time>
      </trkpt>
      <trkpt lat="44.262428" lon="4.719620">
        <ele>45.91589</ele>
        <time>2021-06-30T10:48:49Z</time>
      </trkpt>
      <trkpt lat="44.262131" lon="4.719405">
        <ele>43.66650</ele>
        <time>2021-06-30T10:48:50Z</time>
      </trkpt>
      <trkpt lat="44.261795" lon="4.719156">
        <ele>44.18347</ele>
        <time>2021-06-30T10:48:51Z</time>
      </trkpt>
      <trkpt lat="44.261456" lon="4.718904">
        <ele>42.20697</ele>
        <time>2021-06-30T10:48:53Z</time>
      </trkpt>
      <trkpt lat="44.261135" lon="4.718668">
        <ele>42.04883</ele>
        <time>2021-06-30T10:48:53Z</time>
      </trkpt>
      <trkpt lat="44.260815" lon="4.718431">
        <ele>41.53394</ele>
        <time>2021-06-30T10:48:54Z</time>
      </trkpt>
      <trkpt lat="44.260513" lon="4.718210">
        <ele>39.96570</ele>
        <time>2021-06-30T10:48:55Z</time>
      </trkpt>
      <trkpt lat="44.260185" lon="4.717967">
        <ele>40.30774</ele>
        <time>2021-06-30T10:48:56Z</time>
      </trkpt>
      <trkpt lat="44.259857" lon="4.717730">
        <ele>40.60980</ele>
        <time>2021-06-30T10:48:57Z</time>
      </trkpt>
      <trkpt lat="44.259533" lon="4.717497">
        <ele>40.51874</ele>
        <time>2021-06-30T10:48:58Z</time>
      </trkpt>
      <trkpt lat="44.259220" lon="4.717271">
        <ele>41.05670</ele>
        <time>2021-06-30T10:48:59Z</time>
      </trkpt>
      <trkpt lat="44.258926" lon="4.717054">
        <ele>41.22595</ele>
        <time>2021-06-30T10:49:00Z</time>
      </trkpt>
      <trkpt lat="44.258926" lon="4.717054">
        <ele>41.32190</ele>
        <time>2021-06-30T10:49:01Z</time>
      </trkpt>
      <trkpt lat="44.258587" lon="4.716804">
        <ele>42.52234</ele>
        <time>2021-06-30T10:49:02Z</time>
      </trkpt>
      <trkpt lat="44.258266" lon="4.716568">
        <ele>42.96844</ele>
        <time>2021-06-30T10:49:03Z</time>
      </trkpt>
      <trkpt lat="44.257954" lon="4.716336">
        <ele>42.78809</ele>
        <time>2021-06-30T10:49:05Z</time>
      </trkpt>
      <trkpt lat="44.257618" lon="4.716089">
        <ele>42.80994</ele>
        <time>2021-06-30T10:49:05Z</time>
      </trkpt>
      <trkpt lat="44.257275" lon="4.715838">
        <ele>43.31598</ele>
        <time>2021-06-30T10:49:06Z</time>
      </trkpt>
      <trkpt lat="44.256954" lon="4.715603">
        <ele>43.53766</ele>
        <time>2021-06-30T10:49:07Z</time>
      </trkpt>
      <trkpt lat="44.256641" lon="4.715372">
        <ele>44.30414</ele>
        <time>2021-06-30T10:49:08Z</time>
      </trkpt>
      <trkpt lat="44.256344" lon="4.715153">
        <ele>44.21844</ele>
        <time>2021-06-30T10:49:09Z</time>
      </trkpt>
      <trkpt lat="44.256081" lon="4.714959">
        <ele>42.65009</ele>
        <time>2021-06-30T10:49:10Z</time>
      </trkpt>
      <trkpt lat="44.255775" lon="4.714739">
        <ele>43.64355</ele>
        <time>2021-06-30T10:49:11Z</time>
      </trkpt>
      <trkpt lat="44.255493" lon="4.714531">
        <ele>44.89661</ele>
        <time>2021-06-30T10:49:12Z</time>
      </trkpt>
      <trkpt lat="44.255222" lon="4.714331">
        <ele>45.03052</ele>
        <time>2021-06-30T10:49:13Z</time>
      </trkpt>
      <trkpt lat="44.254948" lon="4.714130">
        <ele>46.57599</ele>
        <time>2021-06-30T10:49:15Z</time>
      </trkpt>
      <trkpt lat="44.254646" lon="4.713910">
        <ele>47.04022</ele>
        <time>2021-06-30T10:49:15Z</time>
      </trkpt>
      <trkpt lat="44.254383" lon="4.713717">
        <ele>46.41815</ele>
        <time>2021-06-30T10:49:16Z</time>
      </trkpt>
      <trkpt lat="44.254101" lon="4.713509">
        <ele>46.41162</ele>
        <time>2021-06-30T10:49:17Z</time>
      </trkpt>
      <trkpt lat="44.253811" lon="4.713298">
        <ele>46.52106</ele>
        <time>2021-06-30T10:49:18Z</time>
      </trkpt>
      <trkpt lat="44.253498" lon="4.713068">
        <ele>46.40320</ele>
        <time>2021-06-30T10:49:19Z</time>
      </trkpt>
      <trkpt lat="44.253170" lon="4.712828">
        <ele>47.23248</ele>
        <time>2021-06-30T10:49:20Z</time>
      </trkpt>
      <trkpt lat="44.252823" lon="4.712574">
        <ele>46.83679</ele>
        <time>2021-06-30T10:49:21Z</time>
      </trkpt>
      <trkpt lat="44.252510" lon="4.712344">
        <ele>46.60669</ele>
        <time>2021-06-30T10:49:22Z</time>
      </trkpt>
      <trkpt lat="44.252171" lon="4.712095">
        <ele>48.01410</ele>
        <time>2021-06-30T10:49:23Z</time>
      </trkpt>
      <trkpt lat="44.251842" lon="4.711856">
        <ele>48.06232</ele>
        <time>2021-06-30T10:49:24Z</time>
      </trkpt>
      <trkpt lat="44.251537" lon="4.711632">
        <ele>46.89929</ele>
        <time>2021-06-30T10:49:25Z</time>
      </trkpt>
      <trkpt lat="44.251221" lon="4.711400">
        <ele>46.67987</ele>
        <time>2021-06-30T10:49:26Z</time>
      </trkpt>
      <trkpt lat="44.250885" lon="4.711155">
        <ele>47.83435</ele>
        <time>2021-06-30T10:49:27Z</time>
      </trkpt>
      <trkpt lat="44.250561" lon="4.710916">
        <ele>47.18939</ele>
        <time>2021-06-30T10:49:28Z</time>
      </trkpt>
      <trkpt lat="44.250252" lon="4.710714">
        <ele>47.06195</ele>
        <time>2021-06-30T10:49:29Z</time>
      </trkpt>
      <trkpt lat="44.249935" lon="4.710488">
        <ele>47.46991</ele>
        <time>2021-06-30T10:49:31Z</time>
      </trkpt>
      <trkpt lat="44.249615" lon="4.710254">
        <ele>47.09448</ele>
        <time>2021-06-30T10:49:31Z</time>
      </trkpt>
      <trkpt lat="44.249306" lon="4.710043">
        <ele>46.90900</ele>
        <time>2021-06-30T10:49:32Z</time>
      </trkpt>
      <trkpt lat="44.248985" lon="4.709830">
        <ele>46.74036</ele>
        <time>2021-06-30T10:49:33Z</time>
      </trkpt>
      <trkpt lat="44.248653" lon="4.709605">
        <ele>46.29333</ele>
        <time>2021-06-30T10:49:35Z</time>
      </trkpt>
      <trkpt lat="44.248314" lon="4.709387">
        <ele>46.04993</ele>
        <time>2021-06-30T10:49:35Z</time>
      </trkpt>
      <trkpt lat="44.247978" lon="4.709200">
        <ele>46.30945</ele>
        <time>2021-06-30T10:49:36Z</time>
      </trkpt>
      <trkpt lat="44.247978" lon="4.709200">
        <ele>46.56860</ele>
        <time>2021-06-30T10:49:37Z</time>
      </trkpt>
      <trkpt lat="44.247639" lon="4.709021">
        <ele>46.09998</ele>
        <time>2021-06-30T10:49:39Z</time>
      </trkpt>
      <trkpt lat="44.247257" lon="4.708833">
        <ele>45.55231</ele>
        <time>2021-06-30T10:49:39Z</time>
      </trkpt>
      <trkpt lat="44.246906" lon="4.708681">
        <ele>45.33301</ele>
        <time>2021-06-30T10:49:40Z</time>
      </trkpt>
      <trkpt lat="44.246567" lon="4.708542">
        <ele>44.32629</ele>
        <time>2021-06-30T10:49:41Z</time>
      </trkpt>
      <trkpt lat="44.246223" lon="4.708421">
        <ele>43.95612</ele>
        <time>2021-06-30T10:49:43Z</time>
      </trkpt>
      <trkpt lat="44.245853" lon="4.708304">
        <ele>43.56134</ele>
        <time>2021-06-30T10:49:43Z</time>
      </trkpt>
      <trkpt lat="44.245495" lon="4.708192">
        <ele>43.56580</ele>
        <time>2021-06-30T10:49:44Z</time>
      </trkpt>
      <trkpt lat="44.245129" lon="4.708104">
        <ele>43.34613</ele>
        <time>2021-06-30T10:49:45Z</time>
      </trkpt>
      <trkpt lat="44.244778" lon="4.708020">
        <ele>41.28265</ele>
        <time>2021-06-30T10:49:47Z</time>
      </trkpt>
      <trkpt lat="44.244415" lon="4.707940">
        <ele>38.74689</ele>
        <time>2021-06-30T10:49:47Z</time>
      </trkpt>
      <trkpt lat="44.244061" lon="4.707870">
        <ele>37.86627</ele>
        <time>2021-06-30T10:49:48Z</time>
      </trkpt>
      <trkpt lat="44.243744" lon="4.707808">
        <ele>35.93115</ele>
        <time>2021-06-30T10:49:49Z</time>
      </trkpt>
      <trkpt lat="44.243408" lon="4.707741">
        <ele>36.50684</ele>
        <time>2021-06-30T10:49:50Z</time>
      </trkpt>
      <trkpt lat="44.243027" lon="4.707672">
        <ele>37.36786</ele>
        <time>2021-06-30T10:49:51Z</time>
      </trkpt>
      <trkpt lat="44.242657" lon="4.707605">
        <ele>37.37549</ele>
        <time>2021-06-30T10:49:52Z</time>
      </trkpt>
      <trkpt lat="44.242306" lon="4.707542">
        <ele>36.77911</ele>
        <time>2021-06-30T10:49:53Z</time>
      </trkpt>
      <trkpt lat="44.241940" lon="4.707476">
        <ele>37.76715</ele>
        <time>2021-06-30T10:49:54Z</time>
      </trkpt>
      <trkpt lat="44.241547" lon="4.707405">
        <ele>37.32324</ele>
        <time>2021-06-30T10:49:55Z</time>
      </trkpt>
      <trkpt lat="44.241207" lon="4.707344">
        <ele>37.22485</ele>
        <time>2021-06-30T10:49:56Z</time>
      </trkpt>
      <trkpt lat="44.240864" lon="4.707284">
        <ele>35.56714</ele>
        <time>2021-06-30T10:49:57Z</time>
      </trkpt>
      <trkpt lat="44.240486" lon="4.707219">
        <ele>35.62769</ele>
        <time>2021-06-30T10:49:58Z</time>
      </trkpt>
      <trkpt lat="44.240135" lon="4.707154">
        <ele>36.11847</ele>
        <time>2021-06-30T10:49:59Z</time>
      </trkpt>
      <trkpt lat="44.239773" lon="4.707088">
        <ele>36.87000</ele>
        <time>2021-06-30T10:50:00Z</time>
      </trkpt>
      <trkpt lat="44.239407" lon="4.707030">
        <ele>37.37341</ele>
        <time>2021-06-30T10:50:01Z</time>
      </trkpt>
      <trkpt lat="44.239037" lon="4.706970">
        <ele>36.71338</ele>
        <time>2021-06-30T10:50:02Z</time>
      </trkpt>
      <trkpt lat="44.238682" lon="4.706922">
        <ele>36.92792</ele>
        <time>2021-06-30T10:50:03Z</time>
      </trkpt>
      <trkpt lat="44.238323" lon="4.706881">
        <ele>36.79114</ele>
        <time>2021-06-30T10:50:04Z</time>
      </trkpt>
      <trkpt lat="44.238323" lon="4.706881">
        <ele>36.78833</ele>
        <time>2021-06-30T10:50:05Z</time>
      </trkpt>
      <trkpt lat="44.237968" lon="4.706857">
        <ele>36.20874</ele>
        <time>2021-06-30T10:50:06Z</time>
      </trkpt>
      <trkpt lat="44.237625" lon="4.706839">
        <ele>36.35974</ele>
        <time>2021-06-30T10:50:07Z</time>
      </trkpt>
      <trkpt lat="44.237362" lon="4.706826">
        <ele>36.05292</ele>
        <time>2021-06-30T10:50:08Z</time>
      </trkpt>
      <trkpt lat="44.237026" lon="4.706833">
        <ele>35.69751</ele>
        <time>2021-06-30T10:50:09Z</time>
      </trkpt>
      <trkpt lat="44.236687" lon="4.706840">
        <ele>35.58594</ele>
        <time>2021-06-30T10:50:10Z</time>
      </trkpt>
      <trkpt lat="44.236362" lon="4.706868">
        <ele>36.77966</ele>
        <time>2021-06-30T10:50:11Z</time>
      </trkpt>
      <trkpt lat="44.236031" lon="4.706908">
        <ele>36.71790</ele>
        <time>2021-06-30T10:50:12Z</time>
      </trkpt>
      <trkpt lat="44.235714" lon="4.706946">
        <ele>37.26245</ele>
        <time>2021-06-30T10:50:13Z</time>
      </trkpt>
      <trkpt lat="44.235394" lon="4.707002">
        <ele>35.91461</ele>
        <time>2021-06-30T10:50:14Z</time>
      </trkpt>
      <trkpt lat="44.235126" lon="4.707066">
        <ele>35.76007</ele>
        <time>2021-06-30T10:50:15Z</time>
      </trkpt>
      <trkpt lat="44.234798" lon="4.707150">
        <ele>38.20325</ele>
        <time>2021-06-30T10:50:16Z</time>
      </trkpt>
      <trkpt lat="44.234459" lon="4.707236">
        <ele>38.64722</ele>
        <time>2021-06-30T10:50:17Z</time>
      </trkpt>
      <trkpt lat="44.234108" lon="4.707344">
        <ele>38.50269</ele>
        <time>2021-06-30T10:50:18Z</time>
      </trkpt>
      <trkpt lat="44.233768" lon="4.707463">
        <ele>38.32031</ele>
        <time>2021-06-30T10:50:19Z</time>
      </trkpt>
      <trkpt lat="44.233440" lon="4.707592">
        <ele>40.06665</ele>
        <time>2021-06-30T10:50:20Z</time>
      </trkpt>
      <trkpt lat="44.233112" lon="4.707737">
        <ele>40.18518</ele>
        <time>2021-06-30T10:50:21Z</time>
      </trkpt>
      <trkpt lat="44.232773" lon="4.707897">
        <ele>39.89453</ele>
        <time>2021-06-30T10:50:22Z</time>
      </trkpt>
      <trkpt lat="44.232410" lon="4.708072">
        <ele>39.82764</ele>
        <time>2021-06-30T10:50:23Z</time>
      </trkpt>
      <trkpt lat="44.232044" lon="4.708258">
        <ele>40.54437</ele>
        <time>2021-06-30T10:50:24Z</time>
      </trkpt>
      <trkpt lat="44.231689" lon="4.708439">
        <ele>41.34760</ele>
        <time>2021-06-30T10:50:25Z</time>
      </trkpt>
      <trkpt lat="44.231339" lon="4.708624">
        <ele>41.78986</ele>
        <time>2021-06-30T10:50:26Z</time>
      </trkpt>
      <trkpt lat="44.231010" lon="4.708798">
        <ele>41.64807</ele>
        <time>2021-06-30T10:50:27Z</time>
      </trkpt>
      <trkpt lat="44.230675" lon="4.708980">
        <ele>41.81512</ele>
        <time>2021-06-30T10:50:28Z</time>
      </trkpt>
      <trkpt lat="44.230339" lon="4.709164">
        <ele>41.83368</ele>
        <time>2021-06-30T10:50:29Z</time>
      </trkpt>
      <trkpt lat="44.229996" lon="4.709351">
        <ele>41.49493</ele>
        <time>2021-06-30T10:50:30Z</time>
      </trkpt>
      <trkpt lat="44.229652" lon="4.709539">
        <ele>41.85480</ele>
        <time>2021-06-30T10:50:31Z</time>
      </trkpt>
      <trkpt lat="44.229321" lon="4.709719">
        <ele>41.40784</ele>
        <time>2021-06-30T10:50:32Z</time>
      </trkpt>
      <trkpt lat="44.228992" lon="4.709898">
        <ele>41.27795</ele>
        <time>2021-06-30T10:50:33Z</time>
      </trkpt>
      <trkpt lat="44.228661" lon="4.710080">
        <ele>40.22229</ele>
        <time>2021-06-30T10:50:34Z</time>
      </trkpt>
      <trkpt lat="44.228329" lon="4.710262">
        <ele>41.25708</ele>
        <time>2021-06-30T10:50:35Z</time>
      </trkpt>
      <trkpt lat="44.227985" lon="4.710452">
        <ele>40.83850</ele>
        <time>2021-06-30T10:50:36Z</time>
      </trkpt>
      <trkpt lat="44.227657" lon="4.710640">
        <ele>40.23151</ele>
        <time>2021-06-30T10:50:37Z</time>
      </trkpt>
      <trkpt lat="44.227329" lon="4.710841">
        <ele>39.71881</ele>
        <time>2021-06-30T10:50:38Z</time>
      </trkpt>
      <trkpt lat="44.227009" lon="4.711040">
        <ele>40.46008</ele>
        <time>2021-06-30T10:50:39Z</time>
      </trkpt>
      <trkpt lat="44.226688" lon="4.711241">
        <ele>38.98578</ele>
        <time>2021-06-30T10:50:40Z</time>
      </trkpt>
      <trkpt lat="44.226353" lon="4.711461">
        <ele>38.96057</ele>
        <time>2021-06-30T10:50:41Z</time>
      </trkpt>
      <trkpt lat="44.226353" lon="4.711461">
        <ele>39.33136</ele>
        <time>2021-06-30T10:50:42Z</time>
      </trkpt>
      <trkpt lat="44.226025" lon="4.711689">
        <ele>38.50171</ele>
        <time>2021-06-30T10:50:43Z</time>
      </trkpt>
      <trkpt lat="44.225700" lon="4.711915">
        <ele>38.08423</ele>
        <time>2021-06-30T10:50:44Z</time>
      </trkpt>
      <trkpt lat="44.225384" lon="4.712156">
        <ele>37.63995</ele>
        <time>2021-06-30T10:50:45Z</time>
      </trkpt>
      <trkpt lat="44.225067" lon="4.712398">
        <ele>38.35101</ele>
        <time>2021-06-30T10:50:46Z</time>
      </trkpt>
      <trkpt lat="44.224754" lon="4.712643">
        <ele>37.05762</ele>
        <time>2021-06-30T10:50:47Z</time>
      </trkpt>
      <trkpt lat="44.224449" lon="4.712897">
        <ele>37.22107</ele>
        <time>2021-06-30T10:50:48Z</time>
      </trkpt>
      <trkpt lat="44.224148" lon="4.713158">
        <ele>37.51025</ele>
        <time>2021-06-30T10:50:49Z</time>
      </trkpt>
      <trkpt lat="44.223858" lon="4.713413">
        <ele>38.35687</ele>
        <time>2021-06-30T10:50:50Z</time>
      </trkpt>
      <trkpt lat="44.223557" lon="4.713691">
        <ele>38.15863</ele>
        <time>2021-06-30T10:50:51Z</time>
      </trkpt>
      <trkpt lat="44.223267" lon="4.713970">
        <ele>37.33459</ele>
        <time>2021-06-30T10:50:52Z</time>
      </trkpt>
      <trkpt lat="44.222961" lon="4.714266">
        <ele>36.53345</ele>
        <time>2021-06-30T10:50:53Z</time>
      </trkpt>
      <trkpt lat="44.222672" lon="4.714560">
        <ele>36.45728</ele>
        <time>2021-06-30T10:50:54Z</time>
      </trkpt>
      <trkpt lat="44.222374" lon="4.714868">
        <ele>36.57520</ele>
        <time>2021-06-30T10:50:55Z</time>
      </trkpt>
      <trkpt lat="44.222092" lon="4.715178">
        <ele>36.69421</ele>
        <time>2021-06-30T10:50:56Z</time>
      </trkpt>
      <trkpt lat="44.221821" lon="4.715474">
        <ele>37.07007</ele>
        <time>2021-06-30T10:50:57Z</time>
      </trkpt>
      <trkpt lat="44.221535" lon="4.715789">
        <ele>36.20636</ele>
        <time>2021-06-30T10:50:58Z</time>
      </trkpt>
      <trkpt lat="44.221245" lon="4.716113">
        <ele>36.55341</ele>
        <time>2021-06-30T10:50:59Z</time>
      </trkpt>
      <trkpt lat="44.220963" lon="4.716431">
        <ele>36.69702</ele>
        <time>2021-06-30T10:51:00Z</time>
      </trkpt>
      <trkpt lat="44.220684" lon="4.716751">
        <ele>36.38049</ele>
        <time>2021-06-30T10:51:01Z</time>
      </trkpt>
      <trkpt lat="44.220398" lon="4.717074">
        <ele>35.02924</ele>
        <time>2021-06-30T10:51:02Z</time>
      </trkpt>
      <trkpt lat="44.220119" lon="4.717392">
        <ele>34.64014</ele>
        <time>2021-06-30T10:51:03Z</time>
      </trkpt>
      <trkpt lat="44.219833" lon="4.717722">
        <ele>34.51813</ele>
        <time>2021-06-30T10:51:04Z</time>
      </trkpt>
      <trkpt lat="44.219559" lon="4.718042">
        <ele>33.60809</ele>
        <time>2021-06-30T10:51:05Z</time>
      </trkpt>
      <trkpt lat="44.219288" lon="4.718353">
        <ele>33.45099</ele>
        <time>2021-06-30T10:51:06Z</time>
      </trkpt>
      <trkpt lat="44.218990" lon="4.718681">
        <ele>31.98749</ele>
        <time>2021-06-30T10:51:07Z</time>
      </trkpt>
      <trkpt lat="44.218708" lon="4.718997">
        <ele>32.72223</ele>
        <time>2021-06-30T10:51:08Z</time>
      </trkpt>
      <trkpt lat="44.218418" lon="4.719317">
        <ele>31.93054</ele>
        <time>2021-06-30T10:51:09Z</time>
      </trkpt>
      <trkpt lat="44.218147" lon="4.719609">
        <ele>31.73712</ele>
        <time>2021-06-30T10:51:10Z</time>
      </trkpt>
      <trkpt lat="44.217861" lon="4.719914">
        <ele>31.63538</ele>
        <time>2021-06-30T10:51:11Z</time>
      </trkpt>
      <trkpt lat="44.217590" lon="4.720192">
        <ele>32.44556</ele>
        <time>2021-06-30T10:51:12Z</time>
      </trkpt>
      <trkpt lat="44.217293" lon="4.720478">
        <ele>31.86542</ele>
        <time>2021-06-30T10:51:13Z</time>
      </trkpt>
      <trkpt lat="44.217293" lon="4.720478">
        <ele>29.76123</ele>
        <time>2021-06-30T10:51:14Z</time>
      </trkpt>
      <trkpt lat="44.216995" lon="4.720767">
        <ele>30.33612</ele>
        <time>2021-06-30T10:51:15Z</time>
      </trkpt>
      <trkpt lat="44.216675" lon="4.721051">
        <ele>30.08411</ele>
        <time>2021-06-30T10:51:16Z</time>
      </trkpt>
      <trkpt lat="44.216362" lon="4.721326">
        <ele>29.39636</ele>
        <time>2021-06-30T10:51:17Z</time>
      </trkpt>
      <trkpt lat="44.216034" lon="4.721596">
        <ele>30.12927</ele>
        <time>2021-06-30T10:51:18Z</time>
      </trkpt>
      <trkpt lat="44.215721" lon="4.721837">
        <ele>30.02429</ele>
        <time>2021-06-30T10:51:19Z</time>
      </trkpt>
      <trkpt lat="44.215405" lon="4.722078">
        <ele>30.25836</ele>
        <time>2021-06-30T10:51:20Z</time>
      </trkpt>
      <trkpt lat="44.215080" lon="4.722308">
        <ele>29.84296</ele>
        <time>2021-06-30T10:51:21Z</time>
      </trkpt>
      <trkpt lat="44.214767" lon="4.722511">
        <ele>29.45068</ele>
        <time>2021-06-30T10:51:22Z</time>
      </trkpt>
      <trkpt lat="44.214424" lon="4.722723">
        <ele>29.38525</ele>
        <time>2021-06-30T10:51:23Z</time>
      </trkpt>
      <trkpt lat="44.214077" lon="4.722914">
        <ele>29.29108</ele>
        <time>2021-06-30T10:51:24Z</time>
      </trkpt>
      <trkpt lat="44.213734" lon="4.723087">
        <ele>29.14911</ele>
        <time>2021-06-30T10:51:25Z</time>
      </trkpt>
      <trkpt lat="44.213406" lon="4.723243">
        <ele>29.05518</ele>
        <time>2021-06-30T10:51:26Z</time>
      </trkpt>
      <trkpt lat="44.213055" lon="4.723397">
        <ele>28.42999</ele>
        <time>2021-06-30T10:51:27Z</time>
      </trkpt>
      <trkpt lat="44.212704" lon="4.723536">
        <ele>28.94458</ele>
        <time>2021-06-30T10:51:28Z</time>
      </trkpt>
      <trkpt lat="44.212364" lon="4.723657">
        <ele>28.74042</ele>
        <time>2021-06-30T10:51:29Z</time>
      </trkpt>
      <trkpt lat="44.212009" lon="4.723763">
        <ele>28.04340</ele>
        <time>2021-06-30T10:51:30Z</time>
      </trkpt>
      <trkpt lat="44.211666" lon="4.723855">
        <ele>28.60913</ele>
        <time>2021-06-30T10:51:31Z</time>
      </trkpt>
      <trkpt lat="44.211308" lon="4.723951">
        <ele>29.57745</ele>
        <time>2021-06-30T10:51:32Z</time>
      </trkpt>
      <trkpt lat="44.210953" lon="4.724018">
        <ele>33.26147</ele>
        <time>2021-06-30T10:51:33Z</time>
      </trkpt>
      <trkpt lat="44.210594" lon="4.724074">
        <ele>33.36163</ele>
        <time>2021-06-30T10:51:34Z</time>
      </trkpt>
      <trkpt lat="44.210228" lon="4.724116">
        <ele>32.83551</ele>
        <time>2021-06-30T10:51:35Z</time>
      </trkpt>
      <trkpt lat="44.209877" lon="4.724148">
        <ele>32.70813</ele>
        <time>2021-06-30T10:51:36Z</time>
      </trkpt>
      <trkpt lat="44.209507" lon="4.724161">
        <ele>33.06732</ele>
        <time>2021-06-30T10:51:37Z</time>
      </trkpt>
      <trkpt lat="44.209148" lon="4.724171">
        <ele>35.27722</ele>
        <time>2021-06-30T10:51:38Z</time>
      </trkpt>
      <trkpt lat="44.208782" lon="4.724161">
        <ele>34.70941</ele>
        <time>2021-06-30T10:51:39Z</time>
      </trkpt>
      <trkpt lat="44.208408" lon="4.724152">
        <ele>35.28320</ele>
        <time>2021-06-30T10:51:40Z</time>
      </trkpt>
      <trkpt lat="44.208050" lon="4.724143">
        <ele>35.20728</ele>
        <time>2021-06-30T10:51:41Z</time>
      </trkpt>
      <trkpt lat="44.207703" lon="4.724131">
        <ele>36.52942</ele>
        <time>2021-06-30T10:51:42Z</time>
      </trkpt>
      <trkpt lat="44.207302" lon="4.724117">
        <ele>37.41504</ele>
        <time>2021-06-30T10:51:43Z</time>
      </trkpt>
      <trkpt lat="44.206928" lon="4.724105">
        <ele>37.03699</ele>
        <time>2021-06-30T10:51:44Z</time>
      </trkpt>
      <trkpt lat="44.206558" lon="4.724107">
        <ele>37.09192</ele>
        <time>2021-06-30T10:51:45Z</time>
      </trkpt>
      <trkpt lat="44.206192" lon="4.724122">
        <ele>37.53577</ele>
        <time>2021-06-30T10:51:46Z</time>
      </trkpt>
      <trkpt lat="44.205833" lon="4.724143">
        <ele>38.12292</ele>
        <time>2021-06-30T10:51:47Z</time>
      </trkpt>
      <trkpt lat="44.205833" lon="4.724143">
        <ele>38.23242</ele>
        <time>2021-06-30T10:51:48Z</time>
      </trkpt>
      <trkpt lat="44.205479" lon="4.724182">
        <ele>38.16052</ele>
        <time>2021-06-30T10:51:49Z</time>
      </trkpt>
      <trkpt lat="44.205109" lon="4.724243">
        <ele>38.35547</ele>
        <time>2021-06-30T10:51:50Z</time>
      </trkpt>
      <trkpt lat="44.204742" lon="4.724315">
        <ele>38.01941</ele>
        <time>2021-06-30T10:51:51Z</time>
      </trkpt>
      <trkpt lat="44.204399" lon="4.724403">
        <ele>38.67242</ele>
        <time>2021-06-30T10:51:52Z</time>
      </trkpt>
      <trkpt lat="44.204056" lon="4.724500">
        <ele>38.55817</ele>
        <time>2021-06-30T10:51:53Z</time>
      </trkpt>
      <trkpt lat="44.203690" lon="4.724633">
        <ele>40.42017</ele>
        <time>2021-06-30T10:51:54Z</time>
      </trkpt>
      <trkpt lat="44.203342" lon="4.724763">
        <ele>38.37219</ele>
        <time>2021-06-30T10:51:55Z</time>
      </trkpt>
      <trkpt lat="44.203007" lon="4.724918">
        <ele>36.70422</ele>
        <time>2021-06-30T10:51:56Z</time>
      </trkpt>
      <trkpt lat="44.202675" lon="4.725083">
        <ele>36.04303</ele>
        <time>2021-06-30T10:51:57Z</time>
      </trkpt>
      <trkpt lat="44.202354" lon="4.725258">
        <ele>35.30731</ele>
        <time>2021-06-30T10:51:58Z</time>
      </trkpt>
      <trkpt lat="44.202023" lon="4.725451">
        <ele>35.02551</ele>
        <time>2021-06-30T10:51:59Z</time>
      </trkpt>
      <trkpt lat="44.201698" lon="4.725671">
        <ele>32.78625</ele>
        <time>2021-06-30T10:52:00Z</time>
      </trkpt>
      <trkpt lat="44.201382" lon="4.725899">
        <ele>33.12958</ele>
        <time>2021-06-30T10:52:01Z</time>
      </trkpt>
      <trkpt lat="44.201061" lon="4.726148">
        <ele>32.59302</ele>
        <time>2021-06-30T10:52:02Z</time>
      </trkpt>
      <trkpt lat="44.200741" lon="4.726409">
        <ele>31.64642</ele>
        <time>2021-06-30T10:52:03Z</time>
      </trkpt>
      <trkpt lat="44.200436" lon="4.726688">
        <ele>31.61298</ele>
        <time>2021-06-30T10:52:04Z</time>
      </trkpt>
      <trkpt lat="44.200146" lon="4.726978">
        <ele>30.05377</ele>
        <time>2021-06-30T10:52:05Z</time>
      </trkpt>
      <trkpt lat="44.199841" lon="4.727294">
        <ele>28.70978</ele>
        <time>2021-06-30T10:52:06Z</time>
      </trkpt>
      <trkpt lat="44.199554" lon="4.727603">
        <ele>28.61920</ele>
        <time>2021-06-30T10:52:07Z</time>
      </trkpt>
      <trkpt lat="44.199284" lon="4.727915">
        <ele>29.34192</ele>
        <time>2021-06-30T10:52:08Z</time>
      </trkpt>
      <trkpt lat="44.199024" lon="4.728246">
        <ele>29.29211</ele>
        <time>2021-06-30T10:52:09Z</time>
      </trkpt>
      <trkpt lat="44.198765" lon="4.728598">
        <ele>30.19470</ele>
        <time>2021-06-30T10:52:10Z</time>
      </trkpt>
      <trkpt lat="44.198517" lon="4.728961">
        <ele>30.17035</ele>
        <time>2021-06-30T10:52:11Z</time>
      </trkpt>
      <trkpt lat="44.198277" lon="4.729320">
        <ele>30.10437</ele>
        <time>2021-06-30T10:52:12Z</time>
      </trkpt>
      <trkpt lat="44.198021" lon="4.729706">
        <ele>29.86670</ele>
        <time>2021-06-30T10:52:13Z</time>
      </trkpt>
      <trkpt lat="44.197796" lon="4.730069">
        <ele>29.99731</ele>
        <time>2021-06-30T10:52:14Z</time>
      </trkpt>
      <trkpt lat="44.197556" lon="4.730438">
        <ele>29.12231</ele>
        <time>2021-06-30T10:52:15Z</time>
      </trkpt>
      <trkpt lat="44.197334" lon="4.730821">
        <ele>29.43640</ele>
        <time>2021-06-30T10:52:16Z</time>
      </trkpt>
      <trkpt lat="44.197334" lon="4.730821">
        <ele>29.42108</ele>
        <time>2021-06-30T10:52:17Z</time>
      </trkpt>
      <trkpt lat="44.196949" lon="4.731536">
        <ele>29.32141</ele>
        <time>2021-06-30T10:52:18Z</time>
      </trkpt>
      <trkpt lat="44.196949" lon="4.731536">
        <ele>29.77020</ele>
        <time>2021-06-30T10:52:19Z</time>
      </trkpt>
      <trkpt lat="44.196770" lon="4.731882">
        <ele>29.41882</ele>
        <time>2021-06-30T10:52:20Z</time>
      </trkpt>
      <trkpt lat="44.196560" lon="4.732298">
        <ele>29.33771</ele>
        <time>2021-06-30T10:52:21Z</time>
      </trkpt>
      <trkpt lat="44.196392" lon="4.732631">
        <ele>29.32422</ele>
        <time>2021-06-30T10:52:22Z</time>
      </trkpt>
      <trkpt lat="44.196217" lon="4.732980">
        <ele>28.94354</ele>
        <time>2021-06-30T10:52:23Z</time>
      </trkpt>
      <trkpt lat="44.196056" lon="4.733320">
        <ele>29.60913</ele>
        <time>2021-06-30T10:52:24Z</time>
      </trkpt>
      <trkpt lat="44.195869" lon="4.733709">
        <ele>29.60632</ele>
        <time>2021-06-30T10:52:25Z</time>
      </trkpt>
      <trkpt lat="44.195702" lon="4.734058">
        <ele>29.15106</ele>
        <time>2021-06-30T10:52:26Z</time>
      </trkpt>
      <trkpt lat="44.195530" lon="4.734417">
        <ele>29.34863</ele>
        <time>2021-06-30T10:52:27Z</time>
      </trkpt>
      <trkpt lat="44.195362" lon="4.734772">
        <ele>27.78156</ele>
        <time>2021-06-30T10:52:28Z</time>
      </trkpt>
      <trkpt lat="44.195194" lon="4.735122">
        <ele>28.41968</ele>
        <time>2021-06-30T10:52:29Z</time>
      </trkpt>
      <trkpt lat="44.195023" lon="4.735486">
        <ele>28.84705</ele>
        <time>2021-06-30T10:52:30Z</time>
      </trkpt>
      <trkpt lat="44.194843" lon="4.735865">
        <ele>28.81219</ele>
        <time>2021-06-30T10:52:31Z</time>
      </trkpt>
      <trkpt lat="44.194660" lon="4.736249">
        <ele>28.77063</ele>
        <time>2021-06-30T10:52:32Z</time>
      </trkpt>
      <trkpt lat="44.194489" lon="4.736610">
        <ele>29.43549</ele>
        <time>2021-06-30T10:52:33Z</time>
      </trkpt>
      <trkpt lat="44.194309" lon="4.736968">
        <ele>30.04706</ele>
        <time>2021-06-30T10:52:34Z</time>
      </trkpt>
      <trkpt lat="44.194134" lon="4.737320">
        <ele>26.86023</ele>
        <time>2021-06-30T10:52:35Z</time>
      </trkpt>
      <trkpt lat="44.193947" lon="4.737673">
        <ele>25.92444</ele>
        <time>2021-06-30T10:52:36Z</time>
      </trkpt>
      <trkpt lat="44.193756" lon="4.738034">
        <ele>26.36615</ele>
        <time>2021-06-30T10:52:37Z</time>
      </trkpt>
      <trkpt lat="44.193546" lon="4.738431">
        <ele>26.51831</ele>
        <time>2021-06-30T10:52:38Z</time>
      </trkpt>
      <trkpt lat="44.193321" lon="4.738845">
        <ele>26.29956</ele>
        <time>2021-06-30T10:52:39Z</time>
      </trkpt>
      <trkpt lat="44.193108" lon="4.739235">
        <ele>26.84418</ele>
        <time>2021-06-30T10:52:40Z</time>
      </trkpt>
      <trkpt lat="44.192883" lon="4.739624">
        <ele>26.81219</ele>
        <time>2021-06-30T10:52:41Z</time>
      </trkpt>
      <trkpt lat="44.192657" lon="4.740009">
        <ele>26.37134</ele>
        <time>2021-06-30T10:52:42Z</time>
      </trkpt>
      <trkpt lat="44.192429" lon="4.740392">
        <ele>26.27350</ele>
        <time>2021-06-30T10:52:43Z</time>
      </trkpt>
      <trkpt lat="44.192200" lon="4.740772">
        <ele>27.33527</ele>
        <time>2021-06-30T10:52:44Z</time>
      </trkpt>
      <trkpt lat="44.191971" lon="4.741151">
        <ele>27.37256</ele>
        <time>2021-06-30T10:52:45Z</time>
      </trkpt>
      <trkpt lat="44.191727" lon="4.741540">
        <ele>26.81250</ele>
        <time>2021-06-30T10:52:46Z</time>
      </trkpt>
      <trkpt lat="44.191727" lon="4.741540">
        <ele>27.53015</ele>
        <time>2021-06-30T10:52:47Z</time>
      </trkpt>
      <trkpt lat="44.191490" lon="4.741906">
        <ele>27.42401</ele>
        <time>2021-06-30T10:52:48Z</time>
      </trkpt>
      <trkpt lat="44.191257" lon="4.742267">
        <ele>26.86829</ele>
        <time>2021-06-30T10:52:49Z</time>
      </trkpt>
      <trkpt lat="44.191010" lon="4.742634">
        <ele>25.61945</ele>
        <time>2021-06-30T10:52:50Z</time>
      </trkpt>
      <trkpt lat="44.190758" lon="4.742999">
        <ele>25.68591</ele>
        <time>2021-06-30T10:52:51Z</time>
      </trkpt>
      <trkpt lat="44.190498" lon="4.743378">
        <ele>23.58038</ele>
        <time>2021-06-30T10:52:52Z</time>
      </trkpt>
      <trkpt lat="44.190250" lon="4.743734">
        <ele>23.77020</ele>
        <time>2021-06-30T10:52:53Z</time>
      </trkpt>
      <trkpt lat="44.190022" lon="4.744054">
        <ele>23.69263</ele>
        <time>2021-06-30T10:52:54Z</time>
      </trkpt>
      <trkpt lat="44.189743" lon="4.744431">
        <ele>22.63953</ele>
        <time>2021-06-30T10:52:55Z</time>
      </trkpt>
      <trkpt lat="44.189472" lon="4.744786">
        <ele>22.58105</ele>
        <time>2021-06-30T10:52:56Z</time>
      </trkpt>
      <trkpt lat="44.189190" lon="4.745150">
        <ele>22.29175</ele>
        <time>2021-06-30T10:52:57Z</time>
      </trkpt>
      <trkpt lat="44.188927" lon="4.745491">
        <ele>21.82184</ele>
        <time>2021-06-30T10:52:58Z</time>
      </trkpt>
      <trkpt lat="44.188660" lon="4.745829">
        <ele>23.18707</ele>
        <time>2021-06-30T10:52:59Z</time>
      </trkpt>
      <trkpt lat="44.188366" lon="4.746192">
        <ele>24.24750</ele>
        <time>2021-06-30T10:53:00Z</time>
      </trkpt>
      <trkpt lat="44.188076" lon="4.746542">
        <ele>23.96460</ele>
        <time>2021-06-30T10:53:01Z</time>
      </trkpt>
      <trkpt lat="44.187790" lon="4.746875">
        <ele>25.06213</ele>
        <time>2021-06-30T10:53:02Z</time>
      </trkpt>
      <trkpt lat="44.187527" lon="4.747183">
        <ele>24.20898</ele>
        <time>2021-06-30T10:53:03Z</time>
      </trkpt>
      <trkpt lat="44.187256" lon="4.747496">
        <ele>24.48718</ele>
        <time>2021-06-30T10:53:04Z</time>
      </trkpt>
      <trkpt lat="44.186962" lon="4.747819">
        <ele>24.33478</ele>
        <time>2021-06-30T10:53:05Z</time>
      </trkpt>
      <trkpt lat="44.186687" lon="4.748124">
        <ele>25.27844</ele>
        <time>2021-06-30T10:53:06Z</time>
      </trkpt>
      <trkpt lat="44.186417" lon="4.748416">
        <ele>25.88660</ele>
        <time>2021-06-30T10:53:07Z</time>
      </trkpt>
      <trkpt lat="44.186123" lon="4.748717">
        <ele>25.99146</ele>
        <time>2021-06-30T10:53:08Z</time>
      </trkpt>
      <trkpt lat="44.185844" lon="4.749004">
        <ele>26.03912</ele>
        <time>2021-06-30T10:53:09Z</time>
      </trkpt>
      <trkpt lat="44.185551" lon="4.749278">
        <ele>25.26215</ele>
        <time>2021-06-30T10:53:10Z</time>
      </trkpt>
      <trkpt lat="44.185249" lon="4.749564">
        <ele>24.78394</ele>
        <time>2021-06-30T10:53:11Z</time>
      </trkpt>
      <trkpt lat="44.184986" lon="4.749855">
        <ele>25.82709</ele>
        <time>2021-06-30T10:53:12Z</time>
      </trkpt>
      <trkpt lat="44.184689" lon="4.750136">
        <ele>26.27521</ele>
        <time>2021-06-30T10:53:13Z</time>
      </trkpt>
      <trkpt lat="44.184364" lon="4.750425">
        <ele>26.12952</ele>
        <time>2021-06-30T10:53:14Z</time>
      </trkpt>
      <trkpt lat="44.184067" lon="4.750700">
        <ele>24.99084</ele>
        <time>2021-06-30T10:53:15Z</time>
      </trkpt>
      <trkpt lat="44.183781" lon="4.750963">
        <ele>24.31635</ele>
        <time>2021-06-30T10:53:16Z</time>
      </trkpt>
      <trkpt lat="44.183781" lon="4.750963">
        <ele>24.40460</ele>
        <time>2021-06-30T10:53:17Z</time>
      </trkpt>
      <trkpt lat="44.183445" lon="4.751250">
        <ele>24.58636</ele>
        <time>2021-06-30T10:53:18Z</time>
      </trkpt>
      <trkpt lat="44.183136" lon="4.751514">
        <ele>23.99548</ele>
        <time>2021-06-30T10:53:19Z</time>
      </trkpt>
      <trkpt lat="44.182819" lon="4.751774">
        <ele>23.77661</ele>
        <time>2021-06-30T10:53:20Z</time>
      </trkpt>
      <trkpt lat="44.182510" lon="4.752021">
        <ele>23.49353</ele>
        <time>2021-06-30T10:53:21Z</time>
      </trkpt>
      <trkpt lat="44.182194" lon="4.752274">
        <ele>24.15808</ele>
        <time>2021-06-30T10:53:22Z</time>
      </trkpt>
      <trkpt lat="44.181877" lon="4.752516">
        <ele>24.59698</ele>
        <time>2021-06-30T10:53:23Z</time>
      </trkpt>
      <trkpt lat="44.181572" lon="4.752743">
        <ele>25.23242</ele>
        <time>2021-06-30T10:53:24Z</time>
      </trkpt>
      <trkpt lat="44.181278" lon="4.752961">
        <ele>25.61853</ele>
        <time>2021-06-30T10:53:25Z</time>
      </trkpt>
      <trkpt lat="44.180962" lon="4.753195">
        <ele>25.03717</ele>
        <time>2021-06-30T10:53:26Z</time>
      </trkpt>
      <trkpt lat="44.180656" lon="4.753421">
        <ele>25.11127</ele>
        <time>2021-06-30T10:53:27Z</time>
      </trkpt>
      <trkpt lat="44.180370" lon="4.753635">
        <ele>24.91437</ele>
        <time>2021-06-30T10:53:28Z</time>
      </trkpt>
      <trkpt lat="44.180069" lon="4.753856">
        <ele>24.93091</ele>
        <time>2021-06-30T10:53:29Z</time>
      </trkpt>
      <trkpt lat="44.179771" lon="4.754073">
        <ele>24.16382</ele>
        <time>2021-06-30T10:53:30Z</time>
      </trkpt>
      <trkpt lat="44.179493" lon="4.754276">
        <ele>24.64404</ele>
        <time>2021-06-30T10:53:31Z</time>
      </trkpt>
      <trkpt lat="44.179184" lon="4.754502">
        <ele>25.24707</ele>
        <time>2021-06-30T10:53:32Z</time>
      </trkpt>
      <trkpt lat="44.178883" lon="4.754721">
        <ele>25.41681</ele>
        <time>2021-06-30T10:53:33Z</time>
      </trkpt>
      <trkpt lat="44.178600" lon="4.754929">
        <ele>25.98761</ele>
        <time>2021-06-30T10:53:34Z</time>
      </trkpt>
      <trkpt lat="44.178322" lon="4.755132">
        <ele>25.98944</ele>
        <time>2021-06-30T10:53:35Z</time>
      </trkpt>
      <trkpt lat="44.178028" lon="4.755345">
        <ele>25.88275</ele>
        <time>2021-06-30T10:53:36Z</time>
      </trkpt>
      <trkpt lat="44.177742" lon="4.755554">
        <ele>26.04169</ele>
        <time>2021-06-30T10:53:37Z</time>
      </trkpt>
      <trkpt lat="44.177460" lon="4.755762">
        <ele>26.38037</ele>
        <time>2021-06-30T10:53:38Z</time>
      </trkpt>
      <trkpt lat="44.177158" lon="4.755979">
        <ele>26.29144</ele>
        <time>2021-06-30T10:53:39Z</time>
      </trkpt>
      <trkpt lat="44.176846" lon="4.756209">
        <ele>26.93835</ele>
        <time>2021-06-30T10:53:40Z</time>
      </trkpt>
      <trkpt lat="44.176540" lon="4.756431">
        <ele>27.45831</ele>
        <time>2021-06-30T10:53:41Z</time>
      </trkpt>
      <trkpt lat="44.176243" lon="4.756648">
        <ele>28.58295</ele>
        <time>2021-06-30T10:53:42Z</time>
      </trkpt>
      <trkpt lat="44.175934" lon="4.756875">
        <ele>28.99786</ele>
        <time>2021-06-30T10:53:43Z</time>
      </trkpt>
      <trkpt lat="44.175617" lon="4.757106">
        <ele>28.31934</ele>
        <time>2021-06-30T10:53:44Z</time>
      </trkpt>
      <trkpt lat="44.175312" lon="4.757327">
        <ele>28.79749</ele>
        <time>2021-06-30T10:53:45Z</time>
      </trkpt>
      <trkpt lat="44.175014" lon="4.757542">
        <ele>29.59802</ele>
        <time>2021-06-30T10:53:46Z</time>
      </trkpt>
      <trkpt lat="44.175014" lon="4.757542">
        <ele>28.39380</ele>
        <time>2021-06-30T10:53:47Z</time>
      </trkpt>
      <trkpt lat="44.174690" lon="4.757779">
        <ele>29.97748</ele>
        <time>2021-06-30T10:53:48Z</time>
      </trkpt>
      <trkpt lat="44.174393" lon="4.757995">
        <ele>29.45569</ele>
        <time>2021-06-30T10:53:49Z</time>
      </trkpt>
      <trkpt lat="44.174091" lon="4.758215">
        <ele>29.97815</ele>
        <time>2021-06-30T10:53:50Z</time>
      </trkpt>
      <trkpt lat="44.173805" lon="4.758423">
        <ele>29.30890</ele>
        <time>2021-06-30T10:53:51Z</time>
      </trkpt>
      <trkpt lat="44.173489" lon="4.758656">
        <ele>29.46960</ele>
        <time>2021-06-30T10:53:52Z</time>
      </trkpt>
      <trkpt lat="44.173183" lon="4.758883">
        <ele>29.47809</ele>
        <time>2021-06-30T10:53:53Z</time>
      </trkpt>
      <trkpt lat="44.172882" lon="4.759105">
        <ele>28.70697</ele>
        <time>2021-06-30T10:53:54Z</time>
      </trkpt>
      <trkpt lat="44.172573" lon="4.759333">
        <ele>28.41742</ele>
        <time>2021-06-30T10:53:55Z</time>
      </trkpt>
      <trkpt lat="44.172222" lon="4.759589">
        <ele>27.82849</ele>
        <time>2021-06-30T10:53:56Z</time>
      </trkpt>
      <trkpt lat="44.171902" lon="4.759823">
        <ele>27.10864</ele>
        <time>2021-06-30T10:53:57Z</time>
      </trkpt>
      <trkpt lat="44.171574" lon="4.760063">
        <ele>27.04529</ele>
        <time>2021-06-30T10:53:58Z</time>
      </trkpt>
      <trkpt lat="44.171238" lon="4.760308">
        <ele>27.44653</ele>
        <time>2021-06-30T10:53:59Z</time>
      </trkpt>
      <trkpt lat="44.170937" lon="4.760528">
        <ele>27.60687</ele>
        <time>2021-06-30T10:54:00Z</time>
      </trkpt>
      <trkpt lat="44.170612" lon="4.760765">
        <ele>28.51971</ele>
        <time>2021-06-30T10:54:01Z</time>
      </trkpt>
      <trkpt lat="44.170296" lon="4.760995">
        <ele>28.99713</ele>
        <time>2021-06-30T10:54:02Z</time>
      </trkpt>
      <trkpt lat="44.169987" lon="4.761222">
        <ele>28.72955</ele>
        <time>2021-06-30T10:54:03Z</time>
      </trkpt>
      <trkpt lat="44.169662" lon="4.761460">
        <ele>29.57703</ele>
        <time>2021-06-30T10:54:04Z</time>
      </trkpt>
      <trkpt lat="44.169350" lon="4.761688">
        <ele>29.28857</ele>
        <time>2021-06-30T10:54:05Z</time>
      </trkpt>
      <trkpt lat="44.169033" lon="4.761919">
        <ele>29.58551</ele>
        <time>2021-06-30T10:54:06Z</time>
      </trkpt>
      <trkpt lat="44.168701" lon="4.762161">
        <ele>30.16370</ele>
        <time>2021-06-30T10:54:07Z</time>
      </trkpt>
      <trkpt lat="44.168369" lon="4.762403">
        <ele>30.69659</ele>
        <time>2021-06-30T10:54:08Z</time>
      </trkpt>
      <trkpt lat="44.168091" lon="4.762606">
        <ele>31.25690</ele>
        <time>2021-06-30T10:54:09Z</time>
      </trkpt>
      <trkpt lat="44.167801" lon="4.762817">
        <ele>31.15900</ele>
        <time>2021-06-30T10:54:10Z</time>
      </trkpt>
      <trkpt lat="44.167526" lon="4.763018">
        <ele>31.14496</ele>
        <time>2021-06-30T10:54:11Z</time>
      </trkpt>
      <trkpt lat="44.167244" lon="4.763225">
        <ele>31.82214</ele>
        <time>2021-06-30T10:54:12Z</time>
      </trkpt>
      <trkpt lat="44.166981" lon="4.763416">
        <ele>31.90717</ele>
        <time>2021-06-30T10:54:13Z</time>
      </trkpt>
      <trkpt lat="44.166981" lon="4.763416">
        <ele>31.90985</ele>
        <time>2021-06-30T10:54:14Z</time>
      </trkpt>
      <trkpt lat="44.166443" lon="4.763811">
        <ele>31.69501</ele>
        <time>2021-06-30T10:54:15Z</time>
      </trkpt>
      <trkpt lat="44.166443" lon="4.763811">
        <ele>31.41656</ele>
        <time>2021-06-30T10:54:16Z</time>
      </trkpt>
      <trkpt lat="44.166149" lon="4.764027">
        <ele>31.64795</ele>
        <time>2021-06-30T10:54:17Z</time>
      </trkpt>
      <trkpt lat="44.165867" lon="4.764231">
        <ele>31.98926</ele>
        <time>2021-06-30T10:54:18Z</time>
      </trkpt>
      <trkpt lat="44.165577" lon="4.764439">
        <ele>31.92987</ele>
        <time>2021-06-30T10:54:19Z</time>
      </trkpt>
      <trkpt lat="44.165276" lon="4.764659">
        <ele>32.51855</ele>
        <time>2021-06-30T10:54:20Z</time>
      </trkpt>
      <trkpt lat="44.164986" lon="4.764871">
        <ele>32.91223</ele>
        <time>2021-06-30T10:54:21Z</time>
      </trkpt>
      <trkpt lat="44.164669" lon="4.765101">
        <ele>33.49329</ele>
        <time>2021-06-30T10:54:22Z</time>
      </trkpt>
      <trkpt lat="44.164379" lon="4.765310">
        <ele>33.46960</ele>
        <time>2021-06-30T10:54:23Z</time>
      </trkpt>
      <trkpt lat="44.164055" lon="4.765547">
        <ele>34.38464</ele>
        <time>2021-06-30T10:54:24Z</time>
      </trkpt>
      <trkpt lat="44.163757" lon="4.765766">
        <ele>35.42407</ele>
        <time>2021-06-30T10:54:25Z</time>
      </trkpt>
      <trkpt lat="44.163441" lon="4.765998">
        <ele>35.66223</ele>
        <time>2021-06-30T10:54:26Z</time>
      </trkpt>
      <trkpt lat="44.163128" lon="4.766226">
        <ele>36.27905</ele>
        <time>2021-06-30T10:54:27Z</time>
      </trkpt>
      <trkpt lat="44.162819" lon="4.766455">
        <ele>35.40155</ele>
        <time>2021-06-30T10:54:28Z</time>
      </trkpt>
      <trkpt lat="44.162495" lon="4.766690">
        <ele>35.55194</ele>
        <time>2021-06-30T10:54:29Z</time>
      </trkpt>
      <trkpt lat="44.162167" lon="4.766932">
        <ele>35.62958</ele>
        <time>2021-06-30T10:54:30Z</time>
      </trkpt>
      <trkpt lat="44.161850" lon="4.767163">
        <ele>36.64807</ele>
        <time>2021-06-30T10:54:31Z</time>
      </trkpt>
      <trkpt lat="44.161537" lon="4.767391">
        <ele>37.27002</ele>
        <time>2021-06-30T10:54:32Z</time>
      </trkpt>
      <trkpt lat="44.161205" lon="4.767632">
        <ele>37.82190</ele>
        <time>2021-06-30T10:54:33Z</time>
      </trkpt>
      <trkpt lat="44.160877" lon="4.767872">
        <ele>37.60669</ele>
        <time>2021-06-30T10:54:34Z</time>
      </trkpt>
      <trkpt lat="44.160553" lon="4.768109">
        <ele>37.92584</ele>
        <time>2021-06-30T10:54:35Z</time>
      </trkpt>
      <trkpt lat="44.160217" lon="4.768355">
        <ele>38.15222</ele>
        <time>2021-06-30T10:54:36Z</time>
      </trkpt>
      <trkpt lat="44.159889" lon="4.768594">
        <ele>38.40497</ele>
        <time>2021-06-30T10:54:37Z</time>
      </trkpt>
      <trkpt lat="44.159573" lon="4.768827">
        <ele>38.56268</ele>
        <time>2021-06-30T10:54:38Z</time>
      </trkpt>
      <trkpt lat="44.159248" lon="4.769063">
        <ele>36.68219</ele>
        <time>2021-06-30T10:54:39Z</time>
      </trkpt>
      <trkpt lat="44.158932" lon="4.769294">
        <ele>34.40247</ele>
        <time>2021-06-30T10:54:40Z</time>
      </trkpt>
      <trkpt lat="44.158585" lon="4.769519">
        <ele>33.37506</ele>
        <time>2021-06-30T10:54:41Z</time>
      </trkpt>
      <trkpt lat="44.158260" lon="4.769727">
        <ele>33.32892</ele>
        <time>2021-06-30T10:54:42Z</time>
      </trkpt>
      <trkpt lat="44.157917" lon="4.769926">
        <ele>33.92920</ele>
        <time>2021-06-30T10:54:43Z</time>
      </trkpt>
      <trkpt lat="44.157917" lon="4.769926">
        <ele>33.44232</ele>
        <time>2021-06-30T10:54:44Z</time>
      </trkpt>
      <trkpt lat="44.157593" lon="4.770103">
        <ele>32.97888</ele>
        <time>2021-06-30T10:54:45Z</time>
      </trkpt>
      <trkpt lat="44.157242" lon="4.770277">
        <ele>33.10999</ele>
        <time>2021-06-30T10:54:46Z</time>
      </trkpt>
      <trkpt lat="44.156895" lon="4.770447">
        <ele>32.83875</ele>
        <time>2021-06-30T10:54:47Z</time>
      </trkpt>
      <trkpt lat="44.156555" lon="4.770612">
        <ele>32.50903</ele>
        <time>2021-06-30T10:54:48Z</time>
      </trkpt>
      <trkpt lat="44.156219" lon="4.770774">
        <ele>32.68152</ele>
        <time>2021-06-30T10:54:49Z</time>
      </trkpt>
      <trkpt lat="44.155880" lon="4.770937">
        <ele>32.92517</ele>
        <time>2021-06-30T10:54:50Z</time>
      </trkpt>
      <trkpt lat="44.155537" lon="4.771102">
        <ele>32.57275</ele>
        <time>2021-06-30T10:54:51Z</time>
      </trkpt>
      <trkpt lat="44.155205" lon="4.771261">
        <ele>33.39313</ele>
        <time>2021-06-30T10:54:52Z</time>
      </trkpt>
      <trkpt lat="44.154861" lon="4.771426">
        <ele>33.10718</ele>
        <time>2021-06-30T10:54:53Z</time>
      </trkpt>
      <trkpt lat="44.154533" lon="4.771586">
        <ele>33.33844</ele>
        <time>2021-06-30T10:54:54Z</time>
      </trkpt>
      <trkpt lat="44.154186" lon="4.771751">
        <ele>34.57751</ele>
        <time>2021-06-30T10:54:55Z</time>
      </trkpt>
      <trkpt lat="44.153854" lon="4.771910">
        <ele>34.83112</ele>
        <time>2021-06-30T10:54:56Z</time>
      </trkpt>
      <trkpt lat="44.153507" lon="4.772078">
        <ele>35.79437</ele>
        <time>2021-06-30T10:54:57Z</time>
      </trkpt>
      <trkpt lat="44.153168" lon="4.772242">
        <ele>37.10126</ele>
        <time>2021-06-30T10:54:58Z</time>
      </trkpt>
      <trkpt lat="44.152828" lon="4.772404">
        <ele>37.33496</ele>
        <time>2021-06-30T10:54:59Z</time>
      </trkpt>
      <trkpt lat="44.152489" lon="4.772568">
        <ele>36.64478</ele>
        <time>2021-06-30T10:55:00Z</time>
      </trkpt>
      <trkpt lat="44.152149" lon="4.772731">
        <ele>37.53400</ele>
        <time>2021-06-30T10:55:01Z</time>
      </trkpt>
      <trkpt lat="44.151810" lon="4.772895">
        <ele>38.29395</ele>
        <time>2021-06-30T10:55:02Z</time>
      </trkpt>
      <trkpt lat="44.151466" lon="4.773060">
        <ele>39.58441</ele>
        <time>2021-06-30T10:55:03Z</time>
      </trkpt>
      <trkpt lat="44.151127" lon="4.773223">
        <ele>37.30597</ele>
        <time>2021-06-30T10:55:04Z</time>
      </trkpt>
      <trkpt lat="44.150791" lon="4.773384">
        <ele>37.46832</ele>
        <time>2021-06-30T10:55:05Z</time>
      </trkpt>
      <trkpt lat="44.150414" lon="4.773565">
        <ele>38.28241</ele>
        <time>2021-06-30T10:55:06Z</time>
      </trkpt>
      <trkpt lat="44.150063" lon="4.773735">
        <ele>37.90717</ele>
        <time>2021-06-30T10:55:07Z</time>
      </trkpt>
      <trkpt lat="44.149719" lon="4.773901">
        <ele>37.53595</ele>
        <time>2021-06-30T10:55:08Z</time>
      </trkpt>
      <trkpt lat="44.149372" lon="4.774063">
        <ele>37.95447</ele>
        <time>2021-06-30T10:55:09Z</time>
      </trkpt>
      <trkpt lat="44.149033" lon="4.774223">
        <ele>37.30328</ele>
        <time>2021-06-30T10:55:10Z</time>
      </trkpt>
      <trkpt lat="44.148678" lon="4.774388">
        <ele>36.90503</ele>
        <time>2021-06-30T10:55:11Z</time>
      </trkpt>
      <trkpt lat="44.148335" lon="4.774548">
        <ele>37.67310</ele>
        <time>2021-06-30T10:55:12Z</time>
      </trkpt>
      <trkpt lat="44.147999" lon="4.774704">
        <ele>36.93030</ele>
        <time>2021-06-30T10:55:13Z</time>
      </trkpt>
      <trkpt lat="44.147659" lon="4.774864">
        <ele>36.45892</ele>
        <time>2021-06-30T10:55:14Z</time>
      </trkpt>
      <trkpt lat="44.147312" lon="4.775027">
        <ele>36.61310</ele>
        <time>2021-06-30T10:55:15Z</time>
      </trkpt>
      <trkpt lat="44.147312" lon="4.775027">
        <ele>37.10767</ele>
        <time>2021-06-30T10:55:16Z</time>
      </trkpt>
      <trkpt lat="44.146648" lon="4.775345">
        <ele>36.93378</ele>
        <time>2021-06-30T10:55:17Z</time>
      </trkpt>
      <trkpt lat="44.146648" lon="4.775345">
        <ele>36.50641</ele>
        <time>2021-06-30T10:55:18Z</time>
      </trkpt>
      <trkpt lat="44.146313" lon="4.775504">
        <ele>36.64032</ele>
        <time>2021-06-30T10:55:19Z</time>
      </trkpt>
      <trkpt lat="44.145954" lon="4.775676">
        <ele>36.35828</ele>
        <time>2021-06-30T10:55:20Z</time>
      </trkpt>
      <trkpt lat="44.145630" lon="4.775839">
        <ele>36.28278</ele>
        <time>2021-06-30T10:55:21Z</time>
      </trkpt>
      <trkpt lat="44.145283" lon="4.776018">
        <ele>36.61304</ele>
        <time>2021-06-30T10:55:22Z</time>
      </trkpt>
      <trkpt lat="44.144951" lon="4.776190">
        <ele>36.24524</ele>
        <time>2021-06-30T10:55:23Z</time>
      </trkpt>
      <trkpt lat="44.144611" lon="4.776392">
        <ele>36.59369</ele>
        <time>2021-06-30T10:55:24Z</time>
      </trkpt>
      <trkpt lat="44.144291" lon="4.776591">
        <ele>36.36694</ele>
        <time>2021-06-30T10:55:25Z</time>
      </trkpt>
      <trkpt lat="44.143963" lon="4.776804">
        <ele>37.10913</ele>
        <time>2021-06-30T10:55:26Z</time>
      </trkpt>
      <trkpt lat="44.143646" lon="4.777017">
        <ele>36.90094</ele>
        <time>2021-06-30T10:55:27Z</time>
      </trkpt>
      <trkpt lat="44.143333" lon="4.777228">
        <ele>37.24695</ele>
        <time>2021-06-30T10:55:28Z</time>
      </trkpt>
      <trkpt lat="44.142994" lon="4.777456">
        <ele>37.16101</ele>
        <time>2021-06-30T10:55:29Z</time>
      </trkpt>
      <trkpt lat="44.142681" lon="4.777665">
        <ele>36.85559</ele>
        <time>2021-06-30T10:55:30Z</time>
      </trkpt>
      <trkpt lat="44.142357" lon="4.777885">
        <ele>36.82434</ele>
        <time>2021-06-30T10:55:31Z</time>
      </trkpt>
      <trkpt lat="44.142025" lon="4.778105">
        <ele>37.70123</ele>
        <time>2021-06-30T10:55:32Z</time>
      </trkpt>
      <trkpt lat="44.141708" lon="4.778317">
        <ele>37.60083</ele>
        <time>2021-06-30T10:55:33Z</time>
      </trkpt>
      <trkpt lat="44.141384" lon="4.778535">
        <ele>37.04541</ele>
        <time>2021-06-30T10:55:34Z</time>
      </trkpt>
      <trkpt lat="44.141064" lon="4.778751">
        <ele>36.76984</ele>
        <time>2021-06-30T10:55:35Z</time>
      </trkpt>
      <trkpt lat="44.140747" lon="4.778965">
        <ele>37.28546</ele>
        <time>2021-06-30T10:55:36Z</time>
      </trkpt>
      <trkpt lat="44.140427" lon="4.779182">
        <ele>37.99286</ele>
        <time>2021-06-30T10:55:37Z</time>
      </trkpt>
      <trkpt lat="44.140106" lon="4.779401">
        <ele>38.17493</ele>
        <time>2021-06-30T10:55:38Z</time>
      </trkpt>
      <trkpt lat="44.139786" lon="4.779618">
        <ele>38.98865</ele>
        <time>2021-06-30T10:55:39Z</time>
      </trkpt>
      <trkpt lat="44.139469" lon="4.779831">
        <ele>39.01703</ele>
        <time>2021-06-30T10:55:40Z</time>
      </trkpt>
      <trkpt lat="44.139149" lon="4.780060">
        <ele>38.81433</ele>
        <time>2021-06-30T10:55:41Z</time>
      </trkpt>
      <trkpt lat="44.138821" lon="4.780299">
        <ele>38.88654</ele>
        <time>2021-06-30T10:55:42Z</time>
      </trkpt>
      <trkpt lat="44.138515" lon="4.780529">
        <ele>37.41760</ele>
        <time>2021-06-30T10:55:43Z</time>
      </trkpt>
      <trkpt lat="44.138206" lon="4.780788">
        <ele>37.54712</ele>
        <time>2021-06-30T10:55:44Z</time>
      </trkpt>
      <trkpt lat="44.137897" lon="4.781046">
        <ele>37.38330</ele>
        <time>2021-06-30T10:55:45Z</time>
      </trkpt>
      <trkpt lat="44.137600" lon="4.781327">
        <ele>37.37402</ele>
        <time>2021-06-30T10:55:46Z</time>
      </trkpt>
      <trkpt lat="44.137310" lon="4.781606">
        <ele>38.22656</ele>
        <time>2021-06-30T10:55:47Z</time>
      </trkpt>
      <trkpt lat="44.137032" lon="4.781897">
        <ele>38.34454</ele>
        <time>2021-06-30T10:55:48Z</time>
      </trkpt>
      <trkpt lat="44.136761" lon="4.782214">
        <ele>38.00800</ele>
        <time>2021-06-30T10:55:49Z</time>
      </trkpt>
      <trkpt lat="44.136494" lon="4.782544">
        <ele>36.94495</ele>
        <time>2021-06-30T10:55:50Z</time>
      </trkpt>
      <trkpt lat="44.136494" lon="4.782544">
        <ele>36.38501</ele>
        <time>2021-06-30T10:55:51Z</time>
      </trkpt>
      <trkpt lat="44.135956" lon="4.783203">
        <ele>34.88165</ele>
        <time>2021-06-30T10:55:52Z</time>
      </trkpt>
      <trkpt lat="44.135956" lon="4.783203">
        <ele>34.84851</ele>
        <time>2021-06-30T10:55:53Z</time>
      </trkpt>
      <trkpt lat="44.135689" lon="4.783512">
        <ele>35.71234</ele>
        <time>2021-06-30T10:55:54Z</time>
      </trkpt>
      <trkpt lat="44.135406" lon="4.783839">
        <ele>35.74304</ele>
        <time>2021-06-30T10:55:55Z</time>
      </trkpt>
      <trkpt lat="44.135143" lon="4.784161">
        <ele>34.24420</ele>
        <time>2021-06-30T10:55:56Z</time>
      </trkpt>
      <trkpt lat="44.134876" lon="4.784496">
        <ele>34.08179</ele>
        <time>2021-06-30T10:55:57Z</time>
      </trkpt>
      <trkpt lat="44.134602" lon="4.784841">
        <ele>34.03754</ele>
        <time>2021-06-30T10:55:58Z</time>
      </trkpt>
      <trkpt lat="44.134323" lon="4.785171">
        <ele>34.77289</ele>
        <time>2021-06-30T10:55:59Z</time>
      </trkpt>
      <trkpt lat="44.134033" lon="4.785525">
        <ele>34.73444</ele>
        <time>2021-06-30T10:56:00Z</time>
      </trkpt>
      <trkpt lat="44.133743" lon="4.785870">
        <ele>34.27887</ele>
        <time>2021-06-30T10:56:01Z</time>
      </trkpt>
      <trkpt lat="44.133446" lon="4.786223">
        <ele>34.19556</ele>
        <time>2021-06-30T10:56:02Z</time>
      </trkpt>
      <trkpt lat="44.133179" lon="4.786543">
        <ele>34.09204</ele>
        <time>2021-06-30T10:56:03Z</time>
      </trkpt>
      <trkpt lat="44.132900" lon="4.786887">
        <ele>34.23590</ele>
        <time>2021-06-30T10:56:04Z</time>
      </trkpt>
      <trkpt lat="44.132618" lon="4.787232">
        <ele>33.62256</ele>
        <time>2021-06-30T10:56:05Z</time>
      </trkpt>
      <trkpt lat="44.132351" lon="4.787560">
        <ele>33.11353</ele>
        <time>2021-06-30T10:56:06Z</time>
      </trkpt>
      <trkpt lat="44.132084" lon="4.787888">
        <ele>33.55261</ele>
        <time>2021-06-30T10:56:07Z</time>
      </trkpt>
      <trkpt lat="44.131817" lon="4.788220">
        <ele>33.48846</ele>
        <time>2021-06-30T10:56:08Z</time>
      </trkpt>
      <trkpt lat="44.131546" lon="4.788552">
        <ele>32.79407</ele>
        <time>2021-06-30T10:56:09Z</time>
      </trkpt>
      <trkpt lat="44.131271" lon="4.788889">
        <ele>33.03967</ele>
        <time>2021-06-30T10:56:10Z</time>
      </trkpt>
      <trkpt lat="44.131001" lon="4.789226">
        <ele>33.75104</ele>
        <time>2021-06-30T10:56:11Z</time>
      </trkpt>
      <trkpt lat="44.130733" lon="4.789564">
        <ele>35.04779</ele>
        <time>2021-06-30T10:56:12Z</time>
      </trkpt>
      <trkpt lat="44.130459" lon="4.789896">
        <ele>35.66168</ele>
        <time>2021-06-30T10:56:13Z</time>
      </trkpt>
      <trkpt lat="44.130188" lon="4.790228">
        <ele>35.32800</ele>
        <time>2021-06-30T10:56:14Z</time>
      </trkpt>
      <trkpt lat="44.129921" lon="4.790558">
        <ele>35.06396</ele>
        <time>2021-06-30T10:56:15Z</time>
      </trkpt>
      <trkpt lat="44.129658" lon="4.790886">
        <ele>35.61755</ele>
        <time>2021-06-30T10:56:16Z</time>
      </trkpt>
      <trkpt lat="44.129398" lon="4.791213">
        <ele>36.10913</ele>
        <time>2021-06-30T10:56:17Z</time>
      </trkpt>
      <trkpt lat="44.129131" lon="4.791545">
        <ele>36.13068</ele>
        <time>2021-06-30T10:56:18Z</time>
      </trkpt>
      <trkpt lat="44.128868" lon="4.791877">
        <ele>36.54785</ele>
        <time>2021-06-30T10:56:19Z</time>
      </trkpt>
      <trkpt lat="44.128586" lon="4.792228">
        <ele>36.84839</ele>
        <time>2021-06-30T10:56:20Z</time>
      </trkpt>
      <trkpt lat="44.128311" lon="4.792573">
        <ele>36.72333</ele>
        <time>2021-06-30T10:56:21Z</time>
      </trkpt>
      <trkpt lat="44.128036" lon="4.792913">
        <ele>37.41614</ele>
        <time>2021-06-30T10:56:22Z</time>
      </trkpt>
      <trkpt lat="44.128036" lon="4.792913">
        <ele>36.36322</ele>
        <time>2021-06-30T10:56:23Z</time>
      </trkpt>
      <trkpt lat="44.127754" lon="4.793259">
        <ele>36.17957</ele>
        <time>2021-06-30T10:56:24Z</time>
      </trkpt>
      <trkpt lat="44.127506" lon="4.793560">
        <ele>36.22125</ele>
        <time>2021-06-30T10:56:25Z</time>
      </trkpt>
      <trkpt lat="44.127228" lon="4.793892">
        <ele>35.95483</ele>
        <time>2021-06-30T10:56:26Z</time>
      </trkpt>
      <trkpt lat="44.126945" lon="4.794222">
        <ele>34.76172</ele>
        <time>2021-06-30T10:56:27Z</time>
      </trkpt>
      <trkpt lat="44.126698" lon="4.794540">
        <ele>34.37451</ele>
        <time>2021-06-30T10:56:28Z</time>
      </trkpt>
      <trkpt lat="44.126476" lon="4.794830">
        <ele>35.71344</ele>
        <time>2021-06-30T10:56:29Z</time>
      </trkpt>
      <trkpt lat="44.126228" lon="4.795141">
        <ele>35.98645</ele>
        <time>2021-06-30T10:56:30Z</time>
      </trkpt>
      <trkpt lat="44.125984" lon="4.795441">
        <ele>36.02258</ele>
        <time>2021-06-30T10:56:31Z</time>
      </trkpt>
      <trkpt lat="44.125721" lon="4.795767">
        <ele>36.85907</ele>
        <time>2021-06-30T10:56:32Z</time>
      </trkpt>
      <trkpt lat="44.125484" lon="4.796058">
        <ele>36.59186</ele>
        <time>2021-06-30T10:56:33Z</time>
      </trkpt>
      <trkpt lat="44.125233" lon="4.796368">
        <ele>36.46637</ele>
        <time>2021-06-30T10:56:34Z</time>
      </trkpt>
      <trkpt lat="44.124981" lon="4.796679">
        <ele>33.67456</ele>
        <time>2021-06-30T10:56:35Z</time>
      </trkpt>
      <trkpt lat="44.124722" lon="4.797001">
        <ele>33.72375</ele>
        <time>2021-06-30T10:56:36Z</time>
      </trkpt>
      <trkpt lat="44.124470" lon="4.797315">
        <ele>34.42346</ele>
        <time>2021-06-30T10:56:37Z</time>
      </trkpt>
      <trkpt lat="44.124226" lon="4.797615">
        <ele>34.20258</ele>
        <time>2021-06-30T10:56:38Z</time>
      </trkpt>
      <trkpt lat="44.123951" lon="4.797953">
        <ele>34.90271</ele>
        <time>2021-06-30T10:56:39Z</time>
      </trkpt>
      <trkpt lat="44.123703" lon="4.798263">
        <ele>34.82977</ele>
        <time>2021-06-30T10:56:40Z</time>
      </trkpt>
      <trkpt lat="44.123440" lon="4.798587">
        <ele>35.57544</ele>
        <time>2021-06-30T10:56:41Z</time>
      </trkpt>
      <trkpt lat="44.123177" lon="4.798912">
        <ele>35.11115</ele>
        <time>2021-06-30T10:56:42Z</time>
      </trkpt>
      <trkpt lat="44.122936" lon="4.799210">
        <ele>35.46393</ele>
        <time>2021-06-30T10:56:43Z</time>
      </trkpt>
      <trkpt lat="44.122700" lon="4.799502">
        <ele>35.53210</ele>
        <time>2021-06-30T10:56:44Z</time>
      </trkpt>
      <trkpt lat="44.122448" lon="4.799810">
        <ele>35.35022</ele>
        <time>2021-06-30T10:56:45Z</time>
      </trkpt>
      <trkpt lat="44.122211" lon="4.800101">
        <ele>37.12573</ele>
        <time>2021-06-30T10:56:46Z</time>
      </trkpt>
      <trkpt lat="44.121979" lon="4.800387">
        <ele>36.52216</ele>
        <time>2021-06-30T10:56:47Z</time>
      </trkpt>
      <trkpt lat="44.121738" lon="4.800683">
        <ele>37.64056</ele>
        <time>2021-06-30T10:56:48Z</time>
      </trkpt>
      <trkpt lat="44.121490" lon="4.800987">
        <ele>39.13416</ele>
        <time>2021-06-30T10:56:49Z</time>
      </trkpt>
      <trkpt lat="44.121243" lon="4.801291">
        <ele>39.96442</ele>
        <time>2021-06-30T10:56:50Z</time>
      </trkpt>
      <trkpt lat="44.121006" lon="4.801579">
        <ele>40.20734</ele>
        <time>2021-06-30T10:56:51Z</time>
      </trkpt>
      <trkpt lat="44.120781" lon="4.801857">
        <ele>40.95984</ele>
        <time>2021-06-30T10:56:52Z</time>
      </trkpt>
      <trkpt lat="44.120781" lon="4.801857">
        <ele>42.16345</ele>
        <time>2021-06-30T10:56:53Z</time>
      </trkpt>
      <trkpt lat="44.120510" lon="4.802190">
        <ele>43.23163</ele>
        <time>2021-06-30T10:56:54Z</time>
      </trkpt>
      <trkpt lat="44.120262" lon="4.802499">
        <ele>44.48303</ele>
        <time>2021-06-30T10:56:55Z</time>
      </trkpt>
      <trkpt lat="44.120014" lon="4.802803">
        <ele>45.20996</ele>
        <time>2021-06-30T10:56:56Z</time>
      </trkpt>
      <trkpt lat="44.119762" lon="4.803112">
        <ele>46.42725</ele>
        <time>2021-06-30T10:56:57Z</time>
      </trkpt>
      <trkpt lat="44.119534" lon="4.803394">
        <ele>47.10803</ele>
        <time>2021-06-30T10:56:58Z</time>
      </trkpt>
      <trkpt lat="44.119270" lon="4.803721">
        <ele>47.66229</ele>
        <time>2021-06-30T10:56:59Z</time>
      </trkpt>
      <trkpt lat="44.119007" lon="4.804046">
        <ele>50.17603</ele>
        <time>2021-06-30T10:57:00Z</time>
      </trkpt>
      <trkpt lat="44.118755" lon="4.804359">
        <ele>51.09595</ele>
        <time>2021-06-30T10:57:01Z</time>
      </trkpt>
      <trkpt lat="44.118473" lon="4.804705">
        <ele>52.74768</ele>
        <time>2021-06-30T10:57:02Z</time>
      </trkpt>
      <trkpt lat="44.118206" lon="4.805033">
        <ele>54.39526</ele>
        <time>2021-06-30T10:57:03Z</time>
      </trkpt>
      <trkpt lat="44.117935" lon="4.805367">
        <ele>54.65320</ele>
        <time>2021-06-30T10:57:04Z</time>
      </trkpt>
      <trkpt lat="44.117664" lon="4.805706">
        <ele>55.95514</ele>
        <time>2021-06-30T10:57:05Z</time>
      </trkpt>
      <trkpt lat="44.117393" lon="4.806051">
        <ele>56.79572</ele>
        <time>2021-06-30T10:57:06Z</time>
      </trkpt>
      <trkpt lat="44.117142" lon="4.806371">
        <ele>57.25244</ele>
        <time>2021-06-30T10:57:07Z</time>
      </trkpt>
      <trkpt lat="44.116886" lon="4.806735">
        <ele>57.58624</ele>
        <time>2021-06-30T10:57:08Z</time>
      </trkpt>
      <trkpt lat="44.116642" lon="4.807105">
        <ele>58.35272</ele>
        <time>2021-06-30T10:57:09Z</time>
      </trkpt>
      <trkpt lat="44.116405" lon="4.807470">
        <ele>58.02686</ele>
        <time>2021-06-30T10:57:10Z</time>
      </trkpt>
      <trkpt lat="44.116173" lon="4.807856">
        <ele>57.45160</ele>
        <time>2021-06-30T10:57:11Z</time>
      </trkpt>
      <trkpt lat="44.115955" lon="4.808236">
        <ele>57.61304</ele>
        <time>2021-06-30T10:57:12Z</time>
      </trkpt>
      <trkpt lat="44.115753" lon="4.808612">
        <ele>57.97913</ele>
        <time>2021-06-30T10:57:13Z</time>
      </trkpt>
      <trkpt lat="44.115551" lon="4.809014">
        <ele>58.70288</ele>
        <time>2021-06-30T10:57:14Z</time>
      </trkpt>
      <trkpt lat="44.115360" lon="4.809389">
        <ele>57.52515</ele>
        <time>2021-06-30T10:57:15Z</time>
      </trkpt>
      <trkpt lat="44.115185" lon="4.809781">
        <ele>58.27301</ele>
        <time>2021-06-30T10:57:16Z</time>
      </trkpt>
      <trkpt lat="44.115013" lon="4.810174">
        <ele>58.35297</ele>
        <time>2021-06-30T10:57:17Z</time>
      </trkpt>
      <trkpt lat="44.114857" lon="4.810569">
        <ele>57.73175</ele>
        <time>2021-06-30T10:57:18Z</time>
      </trkpt>
      <trkpt lat="44.114700" lon="4.810965">
        <ele>56.82257</ele>
        <time>2021-06-30T10:57:19Z</time>
      </trkpt>
      <trkpt lat="44.114548" lon="4.811381">
        <ele>56.85114</ele>
        <time>2021-06-30T10:57:20Z</time>
      </trkpt>
      <trkpt lat="44.114399" lon="4.811806">
        <ele>56.87006</ele>
        <time>2021-06-30T10:57:21Z</time>
      </trkpt>
      <trkpt lat="44.114262" lon="4.812235">
        <ele>56.36469</ele>
        <time>2021-06-30T10:57:22Z</time>
      </trkpt>
      <trkpt lat="44.114132" lon="4.812641">
        <ele>56.31787</ele>
        <time>2021-06-30T10:57:23Z</time>
      </trkpt>
      <trkpt lat="44.114132" lon="4.812641">
        <ele>57.22980</ele>
        <time>2021-06-30T10:57:24Z</time>
      </trkpt>
      <trkpt lat="44.114010" lon="4.813081">
        <ele>57.14850</ele>
        <time>2021-06-30T10:57:25Z</time>
      </trkpt>
      <trkpt lat="44.113899" lon="4.813511">
        <ele>58.82709</ele>
        <time>2021-06-30T10:57:26Z</time>
      </trkpt>
      <trkpt lat="44.113792" lon="4.813939">
        <ele>58.24683</ele>
        <time>2021-06-30T10:57:27Z</time>
      </trkpt>
      <trkpt lat="44.113689" lon="4.814388">
        <ele>58.28040</ele>
        <time>2021-06-30T10:57:28Z</time>
      </trkpt>
      <trkpt lat="44.113605" lon="4.814821">
        <ele>57.60632</ele>
        <time>2021-06-30T10:57:29Z</time>
      </trkpt>
      <trkpt lat="44.113518" lon="4.815283">
        <ele>56.17059</ele>
        <time>2021-06-30T10:57:30Z</time>
      </trkpt>
      <trkpt lat="44.113449" lon="4.815725">
        <ele>56.79352</ele>
        <time>2021-06-30T10:57:31Z</time>
      </trkpt>
      <trkpt lat="44.113388" lon="4.816171">
        <ele>57.78137</ele>
        <time>2021-06-30T10:57:32Z</time>
      </trkpt>
      <trkpt lat="44.113323" lon="4.816639">
        <ele>59.71326</ele>
        <time>2021-06-30T10:57:33Z</time>
      </trkpt>
      <trkpt lat="44.113255" lon="4.817129">
        <ele>60.22485</ele>
        <time>2021-06-30T10:57:34Z</time>
      </trkpt>
      <trkpt lat="44.113182" lon="4.817678">
        <ele>60.59796</ele>
        <time>2021-06-30T10:57:35Z</time>
      </trkpt>
      <trkpt lat="44.113117" lon="4.818160">
        <ele>61.42126</ele>
        <time>2021-06-30T10:57:36Z</time>
      </trkpt>
      <trkpt lat="44.113049" lon="4.818682">
        <ele>60.80988</ele>
        <time>2021-06-30T10:57:37Z</time>
      </trkpt>
      <trkpt lat="44.112984" lon="4.819169">
        <ele>61.13318</ele>
        <time>2021-06-30T10:57:38Z</time>
      </trkpt>
      <trkpt lat="44.112919" lon="4.819673">
        <ele>61.09735</ele>
        <time>2021-06-30T10:57:39Z</time>
      </trkpt>
      <trkpt lat="44.112846" lon="4.820199">
        <ele>60.42224</ele>
        <time>2021-06-30T10:57:40Z</time>
      </trkpt>
      <trkpt lat="44.112785" lon="4.820689">
        <ele>60.65833</ele>
        <time>2021-06-30T10:57:41Z</time>
      </trkpt>
      <trkpt lat="44.112720" lon="4.821192">
        <ele>61.55463</ele>
        <time>2021-06-30T10:57:42Z</time>
      </trkpt>
      <trkpt lat="44.112659" lon="4.821671">
        <ele>59.36292</ele>
        <time>2021-06-30T10:57:43Z</time>
      </trkpt>
      <trkpt lat="44.112595" lon="4.822161">
        <ele>59.42340</ele>
        <time>2021-06-30T10:57:44Z</time>
      </trkpt>
      <trkpt lat="44.112530" lon="4.822669">
        <ele>60.29523</ele>
        <time>2021-06-30T10:57:45Z</time>
      </trkpt>
      <trkpt lat="44.112473" lon="4.823156">
        <ele>60.81079</ele>
        <time>2021-06-30T10:57:46Z</time>
      </trkpt>
      <trkpt lat="44.112411" lon="4.823663">
        <ele>59.87036</ele>
        <time>2021-06-30T10:57:47Z</time>
      </trkpt>
      <trkpt lat="44.112350" lon="4.824156">
        <ele>59.47754</ele>
        <time>2021-06-30T10:57:48Z</time>
      </trkpt>
      <trkpt lat="44.112293" lon="4.824626">
        <ele>60.08734</ele>
        <time>2021-06-30T10:57:49Z</time>
      </trkpt>
      <trkpt lat="44.112232" lon="4.825128">
        <ele>59.78021</ele>
        <time>2021-06-30T10:57:50Z</time>
      </trkpt>
      <trkpt lat="44.112171" lon="4.825615">
        <ele>59.95319</ele>
        <time>2021-06-30T10:57:51Z</time>
      </trkpt>
      <trkpt lat="44.112114" lon="4.826123">
        <ele>59.60004</ele>
        <time>2021-06-30T10:57:52Z</time>
      </trkpt>
      <trkpt lat="44.112053" lon="4.826621">
        <ele>57.38452</ele>
        <time>2021-06-30T10:57:53Z</time>
      </trkpt>
      <trkpt lat="44.111984" lon="4.827123">
        <ele>57.93134</ele>
        <time>2021-06-30T10:57:54Z</time>
      </trkpt>
      <trkpt lat="44.111919" lon="4.827626">
        <ele>58.83429</ele>
        <time>2021-06-30T10:57:55Z</time>
      </trkpt>
      <trkpt lat="44.111919" lon="4.827626">
        <ele>58.65710</ele>
        <time>2021-06-30T10:57:56Z</time>
      </trkpt>
      <trkpt lat="44.111851" lon="4.828112">
        <ele>59.11279</ele>
        <time>2021-06-30T10:57:57Z</time>
      </trkpt>
      <trkpt lat="44.111790" lon="4.828574">
        <ele>58.80798</ele>
        <time>2021-06-30T10:57:58Z</time>
      </trkpt>
      <trkpt lat="44.111721" lon="4.829093">
        <ele>58.63470</ele>
        <time>2021-06-30T10:57:59Z</time>
      </trkpt>
      <trkpt lat="44.111656" lon="4.829571">
        <ele>59.10266</ele>
        <time>2021-06-30T10:58:00Z</time>
      </trkpt>
      <trkpt lat="44.111595" lon="4.830064">
        <ele>58.33759</ele>
        <time>2021-06-30T10:58:01Z</time>
      </trkpt>
      <trkpt lat="44.111534" lon="4.830524">
        <ele>59.37445</ele>
        <time>2021-06-30T10:58:02Z</time>
      </trkpt>
      <trkpt lat="44.111473" lon="4.830992">
        <ele>59.24805</ele>
        <time>2021-06-30T10:58:03Z</time>
      </trkpt>
      <trkpt lat="44.111412" lon="4.831472">
        <ele>59.07196</ele>
        <time>2021-06-30T10:58:04Z</time>
      </trkpt>
      <trkpt lat="44.111351" lon="4.831956">
        <ele>59.70990</ele>
        <time>2021-06-30T10:58:05Z</time>
      </trkpt>
      <trkpt lat="44.111294" lon="4.832397">
        <ele>60.72595</ele>
        <time>2021-06-30T10:58:06Z</time>
      </trkpt>
      <trkpt lat="44.111233" lon="4.832866">
        <ele>60.10974</ele>
        <time>2021-06-30T10:58:07Z</time>
      </trkpt>
      <trkpt lat="44.111176" lon="4.833323">
        <ele>59.47284</ele>
        <time>2021-06-30T10:58:08Z</time>
      </trkpt>
      <trkpt lat="44.111111" lon="4.833832">
        <ele>58.61902</ele>
        <time>2021-06-30T10:58:09Z</time>
      </trkpt>
      <trkpt lat="44.111053" lon="4.834292">
        <ele>59.47418</ele>
        <time>2021-06-30T10:58:10Z</time>
      </trkpt>
      <trkpt lat="44.110989" lon="4.834799">
        <ele>59.54248</ele>
        <time>2021-06-30T10:58:11Z</time>
      </trkpt>
      <trkpt lat="44.110924" lon="4.835311">
        <ele>60.02325</ele>
        <time>2021-06-30T10:58:12Z</time>
      </trkpt>
      <trkpt lat="44.110863" lon="4.835783">
        <ele>59.87482</ele>
        <time>2021-06-30T10:58:13Z</time>
      </trkpt>
      <trkpt lat="44.110798" lon="4.836284">
        <ele>60.32574</ele>
        <time>2021-06-30T10:58:14Z</time>
      </trkpt>
      <trkpt lat="44.110737" lon="4.836759">
        <ele>59.94727</ele>
        <time>2021-06-30T10:58:15Z</time>
      </trkpt>
      <trkpt lat="44.110672" lon="4.837274">
        <ele>60.84680</ele>
        <time>2021-06-30T10:58:16Z</time>
      </trkpt>
      <trkpt lat="44.110611" lon="4.837755">
        <ele>61.68933</ele>
        <time>2021-06-30T10:58:17Z</time>
      </trkpt>
      <trkpt lat="44.110550" lon="4.838229">
        <ele>61.72565</ele>
        <time>2021-06-30T10:58:18Z</time>
      </trkpt>
      <trkpt lat="44.110489" lon="4.838724">
        <ele>62.52240</ele>
        <time>2021-06-30T10:58:19Z</time>
      </trkpt>
      <trkpt lat="44.110428" lon="4.839205">
        <ele>62.08557</ele>
        <time>2021-06-30T10:58:20Z</time>
      </trkpt>
      <trkpt lat="44.110359" lon="4.839710">
        <ele>61.89618</ele>
        <time>2021-06-30T10:58:21Z</time>
      </trkpt>
      <trkpt lat="44.110298" lon="4.840197">
        <ele>62.07660</ele>
        <time>2021-06-30T10:58:22Z</time>
      </trkpt>
      <trkpt lat="44.110233" lon="4.840696">
        <ele>61.75214</ele>
        <time>2021-06-30T10:58:23Z</time>
      </trkpt>
      <trkpt lat="44.110172" lon="4.841179">
        <ele>61.84814</ele>
        <time>2021-06-30T10:58:24Z</time>
      </trkpt>
      <trkpt lat="44.110104" lon="4.841681">
        <ele>62.24689</ele>
        <time>2021-06-30T10:58:25Z</time>
      </trkpt>
      <trkpt lat="44.110039" lon="4.842161">
        <ele>61.68518</ele>
        <time>2021-06-30T10:58:26Z</time>
      </trkpt>
      <trkpt lat="44.109974" lon="4.842630">
        <ele>62.12952</ele>
        <time>2021-06-30T10:58:27Z</time>
      </trkpt>
      <trkpt lat="44.109905" lon="4.843141">
        <ele>62.11798</ele>
        <time>2021-06-30T10:58:28Z</time>
      </trkpt>
      <trkpt lat="44.109844" lon="4.843644">
        <ele>61.92896</ele>
        <time>2021-06-30T10:58:29Z</time>
      </trkpt>
      <trkpt lat="44.109783" lon="4.844122">
        <ele>62.24115</ele>
        <time>2021-06-30T10:58:30Z</time>
      </trkpt>
      <trkpt lat="44.109722" lon="4.844620">
        <ele>60.19971</ele>
        <time>2021-06-30T10:58:31Z</time>
      </trkpt>
      <trkpt lat="44.109657" lon="4.845122">
        <ele>60.97754</ele>
        <time>2021-06-30T10:58:32Z</time>
      </trkpt>
      <trkpt lat="44.109596" lon="4.845616">
        <ele>60.96222</ele>
        <time>2021-06-30T10:58:33Z</time>
      </trkpt>
      <trkpt lat="44.109524" lon="4.846127">
        <ele>59.74365</ele>
        <time>2021-06-30T10:58:34Z</time>
      </trkpt>
      <trkpt lat="44.109455" lon="4.846625">
        <ele>59.95563</ele>
        <time>2021-06-30T10:58:35Z</time>
      </trkpt>
      <trkpt lat="44.109386" lon="4.847095">
        <ele>58.58075</ele>
        <time>2021-06-30T10:58:36Z</time>
      </trkpt>
      <trkpt lat="44.109303" lon="4.847569">
        <ele>58.42963</ele>
        <time>2021-06-30T10:58:37Z</time>
      </trkpt>
      <trkpt lat="44.109303" lon="4.847569">
        <ele>59.84814</ele>
        <time>2021-06-30T10:58:38Z</time>
      </trkpt>
      <trkpt lat="44.109222" lon="4.848010">
        <ele>60.25116</ele>
        <time>2021-06-30T10:58:39Z</time>
      </trkpt>
      <trkpt lat="44.109112" lon="4.848489">
        <ele>60.80280</ele>
        <time>2021-06-30T10:58:40Z</time>
      </trkpt>
      <trkpt lat="44.109013" lon="4.848920">
        <ele>60.79547</ele>
        <time>2021-06-30T10:58:41Z</time>
      </trkpt>
      <trkpt lat="44.108891" lon="4.849381">
        <ele>61.15161</ele>
        <time>2021-06-30T10:58:42Z</time>
      </trkpt>
      <trkpt lat="44.108765" lon="4.849849">
        <ele>60.52802</ele>
        <time>2021-06-30T10:58:43Z</time>
      </trkpt>
      <trkpt lat="44.108639" lon="4.850264">
        <ele>61.15808</ele>
        <time>2021-06-30T10:58:44Z</time>
      </trkpt>
      <trkpt lat="44.108490" lon="4.850722">
        <ele>60.91406</ele>
        <time>2021-06-30T10:58:45Z</time>
      </trkpt>
      <trkpt lat="44.108345" lon="4.851142">
        <ele>60.82593</ele>
        <time>2021-06-30T10:58:46Z</time>
      </trkpt>
      <trkpt lat="44.108177" lon="4.851574">
        <ele>61.44855</ele>
        <time>2021-06-30T10:58:47Z</time>
      </trkpt>
      <trkpt lat="44.108006" lon="4.852001">
        <ele>61.80981</ele>
        <time>2021-06-30T10:58:48Z</time>
      </trkpt>
      <trkpt lat="44.107822" lon="4.852440">
        <ele>61.65924</ele>
        <time>2021-06-30T10:58:49Z</time>
      </trkpt>
      <trkpt lat="44.107639" lon="4.852863">
        <ele>59.24054</ele>
        <time>2021-06-30T10:58:50Z</time>
      </trkpt>
      <trkpt lat="44.107445" lon="4.853273">
        <ele>58.99774</ele>
        <time>2021-06-30T10:58:51Z</time>
      </trkpt>
      <trkpt lat="44.107250" lon="4.853653">
        <ele>59.11456</ele>
        <time>2021-06-30T10:58:52Z</time>
      </trkpt>
      <trkpt lat="44.107040" lon="4.854048">
        <ele>59.02759</ele>
        <time>2021-06-30T10:58:53Z</time>
      </trkpt>
      <trkpt lat="44.106819" lon="4.854456">
        <ele>58.96301</ele>
        <time>2021-06-30T10:58:54Z</time>
      </trkpt>
      <trkpt lat="44.106590" lon="4.854845">
        <ele>58.79193</ele>
        <time>2021-06-30T10:58:55Z</time>
      </trkpt>
      <trkpt lat="44.106342" lon="4.855229">
        <ele>56.73816</ele>
        <time>2021-06-30T10:58:56Z</time>
      </trkpt>
      <trkpt lat="44.106117" lon="4.855584">
        <ele>57.36902</ele>
        <time>2021-06-30T10:58:57Z</time>
      </trkpt>
      <trkpt lat="44.105896" lon="4.855935">
        <ele>58.11633</ele>
        <time>2021-06-30T10:58:58Z</time>
      </trkpt>
      <trkpt lat="44.105667" lon="4.856293">
        <ele>57.50635</ele>
        <time>2021-06-30T10:58:59Z</time>
      </trkpt>
      <trkpt lat="44.105442" lon="4.856650">
        <ele>57.33728</ele>
        <time>2021-06-30T10:59:00Z</time>
      </trkpt>
      <trkpt lat="44.105221" lon="4.857000">
        <ele>56.04614</ele>
        <time>2021-06-30T10:59:01Z</time>
      </trkpt>
      <trkpt lat="44.105011" lon="4.857328">
        <ele>55.19196</ele>
        <time>2021-06-30T10:59:02Z</time>
      </trkpt>
      <trkpt lat="44.104790" lon="4.857677">
        <ele>54.99005</ele>
        <time>2021-06-30T10:59:03Z</time>
      </trkpt>
      <trkpt lat="44.104546" lon="4.858051">
        <ele>55.31116</ele>
        <time>2021-06-30T10:59:04Z</time>
      </trkpt>
      <trkpt lat="44.104546" lon="4.858051">
        <ele>54.79449</ele>
        <time>2021-06-30T10:59:05Z</time>
      </trkpt>
      <trkpt lat="44.104298" lon="4.858435">
        <ele>55.16785</ele>
        <time>2021-06-30T10:59:06Z</time>
      </trkpt>
      <trkpt lat="44.104057" lon="4.858805">
        <ele>55.13831</ele>
        <time>2021-06-30T10:59:07Z</time>
      </trkpt>
      <trkpt lat="44.103813" lon="4.859182">
        <ele>55.34113</ele>
        <time>2021-06-30T10:59:08Z</time>
      </trkpt>
      <trkpt lat="44.103584" lon="4.859537">
        <ele>55.18646</ele>
        <time>2021-06-30T10:59:09Z</time>
      </trkpt>
      <trkpt lat="44.103325" lon="4.859936">
        <ele>54.94702</ele>
        <time>2021-06-30T10:59:10Z</time>
      </trkpt>
      <trkpt lat="44.103100" lon="4.860289">
        <ele>55.03674</ele>
        <time>2021-06-30T10:59:11Z</time>
      </trkpt>
      <trkpt lat="44.102848" lon="4.860675">
        <ele>55.23450</ele>
        <time>2021-06-30T10:59:12Z</time>
      </trkpt>
      <trkpt lat="44.102600" lon="4.861059">
        <ele>55.71613</ele>
        <time>2021-06-30T10:59:13Z</time>
      </trkpt>
      <trkpt lat="44.102364" lon="4.861425">
        <ele>56.08386</ele>
        <time>2021-06-30T10:59:14Z</time>
      </trkpt>
      <trkpt lat="44.102112" lon="4.861816">
        <ele>55.74664</ele>
        <time>2021-06-30T10:59:15Z</time>
      </trkpt>
      <trkpt lat="44.101868" lon="4.862199">
        <ele>55.45978</ele>
        <time>2021-06-30T10:59:16Z</time>
      </trkpt>
      <trkpt lat="44.101646" lon="4.862544">
        <ele>55.97998</ele>
        <time>2021-06-30T10:59:17Z</time>
      </trkpt>
      <trkpt lat="44.101414" lon="4.862906">
        <ele>55.75458</ele>
        <time>2021-06-30T10:59:18Z</time>
      </trkpt>
      <trkpt lat="44.101196" lon="4.863224">
        <ele>54.25183</ele>
        <time>2021-06-30T10:59:19Z</time>
      </trkpt>
      <trkpt lat="44.100967" lon="4.863564">
        <ele>54.14227</ele>
        <time>2021-06-30T10:59:20Z</time>
      </trkpt>
      <trkpt lat="44.100746" lon="4.863924">
        <ele>54.78033</ele>
        <time>2021-06-30T10:59:21Z</time>
      </trkpt>
      <trkpt lat="44.100529" lon="4.864283">
        <ele>55.41394</ele>
        <time>2021-06-30T10:59:22Z</time>
      </trkpt>
      <trkpt lat="44.100307" lon="4.864645">
        <ele>54.90356</ele>
        <time>2021-06-30T10:59:23Z</time>
      </trkpt>
      <trkpt lat="44.100101" lon="4.864988">
        <ele>55.07581</ele>
        <time>2021-06-30T10:59:24Z</time>
      </trkpt>
      <trkpt lat="44.099880" lon="4.865354">
        <ele>53.40411</ele>
        <time>2021-06-30T10:59:25Z</time>
      </trkpt>
      <trkpt lat="44.099674" lon="4.865698">
        <ele>52.89819</ele>
        <time>2021-06-30T10:59:26Z</time>
      </trkpt>
      <trkpt lat="44.099461" lon="4.866057">
        <ele>53.01270</ele>
        <time>2021-06-30T10:59:27Z</time>
      </trkpt>
      <trkpt lat="44.099243" lon="4.866417">
        <ele>52.96326</ele>
        <time>2021-06-30T10:59:28Z</time>
      </trkpt>
      <trkpt lat="44.099026" lon="4.866782">
        <ele>53.80347</ele>
        <time>2021-06-30T10:59:29Z</time>
      </trkpt>
      <trkpt lat="44.098804" lon="4.867143">
        <ele>54.55005</ele>
        <time>2021-06-30T10:59:30Z</time>
      </trkpt>
      <trkpt lat="44.098587" lon="4.867504">
        <ele>54.04816</ele>
        <time>2021-06-30T10:59:31Z</time>
      </trkpt>
      <trkpt lat="44.098377" lon="4.867849">
        <ele>54.66681</ele>
        <time>2021-06-30T10:59:32Z</time>
      </trkpt>
      <trkpt lat="44.098137" lon="4.868214">
        <ele>55.22211</ele>
        <time>2021-06-30T10:59:33Z</time>
      </trkpt>
      <trkpt lat="44.098137" lon="4.868214">
        <ele>55.12122</ele>
        <time>2021-06-30T10:59:34Z</time>
      </trkpt>
      <trkpt lat="44.097900" lon="4.868574">
        <ele>55.12128</ele>
        <time>2021-06-30T10:59:35Z</time>
      </trkpt>
      <trkpt lat="44.097672" lon="4.868921">
        <ele>54.66461</ele>
        <time>2021-06-30T10:59:36Z</time>
      </trkpt>
      <trkpt lat="44.097446" lon="4.869282">
        <ele>55.55316</ele>
        <time>2021-06-30T10:59:37Z</time>
      </trkpt>
      <trkpt lat="44.097153" lon="4.869687">
        <ele>54.26617</ele>
        <time>2021-06-30T10:59:38Z</time>
      </trkpt>
      <trkpt lat="44.096882" lon="4.870016">
        <ele>54.43542</ele>
        <time>2021-06-30T10:59:39Z</time>
      </trkpt>
      <trkpt lat="44.096600" lon="4.870352">
        <ele>54.39758</ele>
        <time>2021-06-30T10:59:40Z</time>
      </trkpt>
      <trkpt lat="44.096325" lon="4.870674">
        <ele>55.26221</ele>
        <time>2021-06-30T10:59:41Z</time>
      </trkpt>
      <trkpt lat="44.096020" lon="4.871016">
        <ele>54.64490</ele>
        <time>2021-06-30T10:59:42Z</time>
      </trkpt>
      <trkpt lat="44.095741" lon="4.871320">
        <ele>54.78174</ele>
        <time>2021-06-30T10:59:43Z</time>
      </trkpt>
      <trkpt lat="44.095421" lon="4.871659">
        <ele>54.31018</ele>
        <time>2021-06-30T10:59:44Z</time>
      </trkpt>
      <trkpt lat="44.095119" lon="4.871958">
        <ele>53.76288</ele>
        <time>2021-06-30T10:59:45Z</time>
      </trkpt>
      <trkpt lat="44.094833" lon="4.872240">
        <ele>53.26978</ele>
        <time>2021-06-30T10:59:46Z</time>
      </trkpt>
      <trkpt lat="44.094555" lon="4.872517">
        <ele>51.51263</ele>
        <time>2021-06-30T10:59:47Z</time>
      </trkpt>
      <trkpt lat="44.094246" lon="4.872809">
        <ele>50.18195</ele>
        <time>2021-06-30T10:59:48Z</time>
      </trkpt>
      <trkpt lat="44.093948" lon="4.873086">
        <ele>49.43097</ele>
        <time>2021-06-30T10:59:49Z</time>
      </trkpt>
      <trkpt lat="44.093632" lon="4.873379">
        <ele>48.80487</ele>
        <time>2021-06-30T10:59:50Z</time>
      </trkpt>
      <trkpt lat="44.093327" lon="4.873665">
        <ele>47.82062</ele>
        <time>2021-06-30T10:59:51Z</time>
      </trkpt>
      <trkpt lat="44.093025" lon="4.873943">
        <ele>47.09338</ele>
        <time>2021-06-30T10:59:52Z</time>
      </trkpt>
      <trkpt lat="44.092731" lon="4.874216">
        <ele>46.56177</ele>
        <time>2021-06-30T10:59:53Z</time>
      </trkpt>
      <trkpt lat="44.092411" lon="4.874484">
        <ele>45.58313</ele>
        <time>2021-06-30T10:59:54Z</time>
      </trkpt>
      <trkpt lat="44.092098" lon="4.874746">
        <ele>45.32635</ele>
        <time>2021-06-30T10:59:55Z</time>
      </trkpt>
      <trkpt lat="44.091782" lon="4.875010">
        <ele>44.62134</ele>
        <time>2021-06-30T10:59:56Z</time>
      </trkpt>
      <trkpt lat="44.091480" lon="4.875251">
        <ele>43.08807</ele>
        <time>2021-06-30T10:59:57Z</time>
      </trkpt>
      <trkpt lat="44.091156" lon="4.875507">
        <ele>41.60187</ele>
        <time>2021-06-30T10:59:58Z</time>
      </trkpt>
      <trkpt lat="44.090824" lon="4.875764">
        <ele>40.20709</ele>
        <time>2021-06-30T10:59:59Z</time>
      </trkpt>
      <trkpt lat="44.090504" lon="4.875980">
        <ele>39.22760</ele>
        <time>2021-06-30T11:00:00Z</time>
      </trkpt>
      <trkpt lat="44.090176" lon="4.876197">
        <ele>39.32507</ele>
        <time>2021-06-30T11:00:01Z</time>
      </trkpt>
      <trkpt lat="44.089840" lon="4.876404">
        <ele>37.37317</ele>
        <time>2021-06-30T11:00:02Z</time>
      </trkpt>
      <trkpt lat="44.089535" lon="4.876592">
        <ele>37.46875</ele>
        <time>2021-06-30T11:00:03Z</time>
      </trkpt>
      <trkpt lat="44.089535" lon="4.876592">
        <ele>36.00018</ele>
        <time>2021-06-30T11:00:04Z</time>
      </trkpt>
      <trkpt lat="44.089191" lon="4.876784">
        <ele>36.74628</ele>
        <time>2021-06-30T11:00:05Z</time>
      </trkpt>
      <trkpt lat="44.088863" lon="4.876958">
        <ele>36.15179</ele>
        <time>2021-06-30T11:00:06Z</time>
      </trkpt>
      <trkpt lat="44.088509" lon="4.877135">
        <ele>35.65485</ele>
        <time>2021-06-30T11:00:07Z</time>
      </trkpt>
      <trkpt lat="44.088177" lon="4.877275">
        <ele>36.03320</ele>
        <time>2021-06-30T11:00:08Z</time>
      </trkpt>
      <trkpt lat="44.087837" lon="4.877419">
        <ele>35.83447</ele>
        <time>2021-06-30T11:00:09Z</time>
      </trkpt>
      <trkpt lat="44.087490" lon="4.877563">
        <ele>35.29303</ele>
        <time>2021-06-30T11:00:10Z</time>
      </trkpt>
      <trkpt lat="44.087147" lon="4.877697">
        <ele>35.20190</ele>
        <time>2021-06-30T11:00:11Z</time>
      </trkpt>
      <trkpt lat="44.086788" lon="4.877816">
        <ele>33.71832</ele>
        <time>2021-06-30T11:00:12Z</time>
      </trkpt>
      <trkpt lat="44.086445" lon="4.877929">
        <ele>33.89233</ele>
        <time>2021-06-30T11:00:13Z</time>
      </trkpt>
      <trkpt lat="44.086090" lon="4.878045">
        <ele>34.35724</ele>
        <time>2021-06-30T11:00:14Z</time>
      </trkpt>
      <trkpt lat="44.085728" lon="4.878172">
        <ele>34.91772</ele>
        <time>2021-06-30T11:00:15Z</time>
      </trkpt>
      <trkpt lat="44.085384" lon="4.878293">
        <ele>35.57190</ele>
        <time>2021-06-30T11:00:16Z</time>
      </trkpt>
      <trkpt lat="44.085060" lon="4.878398">
        <ele>36.14545</ele>
        <time>2021-06-30T11:00:17Z</time>
      </trkpt>
      <trkpt lat="44.084682" lon="4.878515">
        <ele>36.14532</ele>
        <time>2021-06-30T11:00:18Z</time>
      </trkpt>
      <trkpt lat="44.084312" lon="4.878631">
        <ele>36.08496</ele>
        <time>2021-06-30T11:00:19Z</time>
      </trkpt>
      <trkpt lat="44.083961" lon="4.878739">
        <ele>35.31390</ele>
        <time>2021-06-30T11:00:20Z</time>
      </trkpt>
      <trkpt lat="44.083611" lon="4.878849">
        <ele>35.69049</ele>
        <time>2021-06-30T11:00:21Z</time>
      </trkpt>
      <trkpt lat="44.083252" lon="4.878961">
        <ele>35.98474</ele>
        <time>2021-06-30T11:00:22Z</time>
      </trkpt>
      <trkpt lat="44.082890" lon="4.879076">
        <ele>35.48828</ele>
        <time>2021-06-30T11:00:23Z</time>
      </trkpt>
      <trkpt lat="44.082542" lon="4.879188">
        <ele>35.66840</ele>
        <time>2021-06-30T11:00:24Z</time>
      </trkpt>
      <trkpt lat="44.082172" lon="4.879306">
        <ele>35.46265</ele>
        <time>2021-06-30T11:00:25Z</time>
      </trkpt>
      <trkpt lat="44.081829" lon="4.879415">
        <ele>35.20831</ele>
        <time>2021-06-30T11:00:26Z</time>
      </trkpt>
      <trkpt lat="44.081482" lon="4.879525">
        <ele>35.31482</ele>
        <time>2021-06-30T11:00:27Z</time>
      </trkpt>
      <trkpt lat="44.081116" lon="4.879643">
        <ele>34.82257</ele>
        <time>2021-06-30T11:00:28Z</time>
      </trkpt>
      <trkpt lat="44.080765" lon="4.879755">
        <ele>34.96582</ele>
        <time>2021-06-30T11:00:29Z</time>
      </trkpt>
      <trkpt lat="44.080765" lon="4.879755">
        <ele>35.27454</ele>
        <time>2021-06-30T11:00:30Z</time>
      </trkpt>
      <trkpt lat="44.080414" lon="4.879881">
        <ele>33.80768</ele>
        <time>2021-06-30T11:00:31Z</time>
      </trkpt>
      <trkpt lat="44.080051" lon="4.880015">
        <ele>33.67700</ele>
        <time>2021-06-30T11:00:32Z</time>
      </trkpt>
      <trkpt lat="44.079685" lon="4.880150">
        <ele>31.74774</ele>
        <time>2021-06-30T11:00:33Z</time>
      </trkpt>
      <trkpt lat="44.079334" lon="4.880280">
        <ele>32.50623</ele>
        <time>2021-06-30T11:00:34Z</time>
      </trkpt>
      <trkpt lat="44.078960" lon="4.880419">
        <ele>33.83813</ele>
        <time>2021-06-30T11:00:35Z</time>
      </trkpt>
      <trkpt lat="44.078621" lon="4.880545">
        <ele>34.41260</ele>
        <time>2021-06-30T11:00:36Z</time>
      </trkpt>
      <trkpt lat="44.078247" lon="4.880684">
        <ele>33.94763</ele>
        <time>2021-06-30T11:00:37Z</time>
      </trkpt>
      <trkpt lat="44.077888" lon="4.880816">
        <ele>34.44153</ele>
        <time>2021-06-30T11:00:38Z</time>
      </trkpt>
      <trkpt lat="44.077545" lon="4.880942">
        <ele>35.49567</ele>
        <time>2021-06-30T11:00:39Z</time>
      </trkpt>
      <trkpt lat="44.077202" lon="4.881068">
        <ele>35.70227</ele>
        <time>2021-06-30T11:00:40Z</time>
      </trkpt>
      <trkpt lat="44.076843" lon="4.881200">
        <ele>35.87335</ele>
        <time>2021-06-30T11:00:41Z</time>
      </trkpt>
      <trkpt lat="44.076496" lon="4.881326">
        <ele>35.78082</ele>
        <time>2021-06-30T11:00:42Z</time>
      </trkpt>
      <trkpt lat="44.076138" lon="4.881457">
        <ele>36.20056</ele>
        <time>2021-06-30T11:00:43Z</time>
      </trkpt>
      <trkpt lat="44.075806" lon="4.881578">
        <ele>36.33685</ele>
        <time>2021-06-30T11:00:44Z</time>
      </trkpt>
      <trkpt lat="44.075459" lon="4.881705">
        <ele>36.26300</ele>
        <time>2021-06-30T11:00:45Z</time>
      </trkpt>
      <trkpt lat="44.075092" lon="4.881838">
        <ele>35.52161</ele>
        <time>2021-06-30T11:00:46Z</time>
      </trkpt>
      <trkpt lat="44.074757" lon="4.881961">
        <ele>36.03345</ele>
        <time>2021-06-30T11:00:47Z</time>
      </trkpt>
      <trkpt lat="44.074398" lon="4.882091">
        <ele>36.56189</ele>
        <time>2021-06-30T11:00:48Z</time>
      </trkpt>
      <trkpt lat="44.074036" lon="4.882226">
        <ele>36.25317</ele>
        <time>2021-06-30T11:00:49Z</time>
      </trkpt>
      <trkpt lat="44.073696" lon="4.882352">
        <ele>35.74866</ele>
        <time>2021-06-30T11:00:50Z</time>
      </trkpt>
      <trkpt lat="44.073345" lon="4.882482">
        <ele>35.19598</ele>
        <time>2021-06-30T11:00:51Z</time>
      </trkpt>
      <trkpt lat="44.073006" lon="4.882608">
        <ele>34.62964</ele>
        <time>2021-06-30T11:00:52Z</time>
      </trkpt>
      <trkpt lat="44.072681" lon="4.882728">
        <ele>34.25830</ele>
        <time>2021-06-30T11:00:53Z</time>
      </trkpt>
      <trkpt lat="44.072334" lon="4.882858">
        <ele>33.61761</ele>
        <time>2021-06-30T11:00:54Z</time>
      </trkpt>
      <trkpt lat="44.071980" lon="4.882989">
        <ele>33.95874</ele>
        <time>2021-06-30T11:00:55Z</time>
      </trkpt>
      <trkpt lat="44.071617" lon="4.883124">
        <ele>32.98987</ele>
        <time>2021-06-30T11:00:56Z</time>
      </trkpt>
      <trkpt lat="44.071270" lon="4.883249">
        <ele>33.02423</ele>
        <time>2021-06-30T11:00:57Z</time>
      </trkpt>
      <trkpt lat="44.070934" lon="4.883368">
        <ele>32.90601</ele>
        <time>2021-06-30T11:00:58Z</time>
      </trkpt>
      <trkpt lat="44.070587" lon="4.883493">
        <ele>32.11084</ele>
        <time>2021-06-30T11:00:59Z</time>
      </trkpt>
      <trkpt lat="44.070255" lon="4.883616">
        <ele>32.59216</ele>
        <time>2021-06-30T11:01:00Z</time>
      </trkpt>
      <trkpt lat="44.069904" lon="4.883759">
        <ele>31.38745</ele>
        <time>2021-06-30T11:01:01Z</time>
      </trkpt>
      <trkpt lat="44.069569" lon="4.883895">
        <ele>31.12549</ele>
        <time>2021-06-30T11:01:02Z</time>
      </trkpt>
      <trkpt lat="44.069569" lon="4.883895">
        <ele>31.83313</ele>
        <time>2021-06-30T11:01:03Z</time>
      </trkpt>
      <trkpt lat="44.069195" lon="4.884047">
        <ele>31.69983</ele>
        <time>2021-06-30T11:01:04Z</time>
      </trkpt>
      <trkpt lat="44.068840" lon="4.884191">
        <ele>31.89685</ele>
        <time>2021-06-30T11:01:05Z</time>
      </trkpt>
      <trkpt lat="44.068508" lon="4.884330">
        <ele>32.27625</ele>
        <time>2021-06-30T11:01:06Z</time>
      </trkpt>
      <trkpt lat="44.068150" lon="4.884482">
        <ele>32.38483</ele>
        <time>2021-06-30T11:01:07Z</time>
      </trkpt>
      <trkpt lat="44.067814" lon="4.884627">
        <ele>32.15149</ele>
        <time>2021-06-30T11:01:08Z</time>
      </trkpt>
      <trkpt lat="44.067493" lon="4.884783">
        <ele>32.78180</ele>
        <time>2021-06-30T11:01:09Z</time>
      </trkpt>
      <trkpt lat="44.067150" lon="4.884957">
        <ele>31.91284</ele>
        <time>2021-06-30T11:01:10Z</time>
      </trkpt>
      <trkpt lat="44.066799" lon="4.885146">
        <ele>32.15857</ele>
        <time>2021-06-30T11:01:11Z</time>
      </trkpt>
      <trkpt lat="44.066456" lon="4.885329">
        <ele>32.53687</ele>
        <time>2021-06-30T11:01:12Z</time>
      </trkpt>
      <trkpt lat="44.066105" lon="4.885520">
        <ele>32.39691</ele>
        <time>2021-06-30T11:01:13Z</time>
      </trkpt>
      <trkpt lat="44.065781" lon="4.885697">
        <ele>32.48065</ele>
        <time>2021-06-30T11:01:14Z</time>
      </trkpt>
      <trkpt lat="44.065437" lon="4.885887">
        <ele>32.41162</ele>
        <time>2021-06-30T11:01:15Z</time>
      </trkpt>
      <trkpt lat="44.065105" lon="4.886069">
        <ele>32.21716</ele>
        <time>2021-06-30T11:01:16Z</time>
      </trkpt>
      <trkpt lat="44.064793" lon="4.886234">
        <ele>32.26630</ele>
        <time>2021-06-30T11:01:17Z</time>
      </trkpt>
      <trkpt lat="44.064442" lon="4.886408">
        <ele>33.21246</ele>
        <time>2021-06-30T11:01:18Z</time>
      </trkpt>
      <trkpt lat="44.064087" lon="4.886570">
        <ele>31.06989</ele>
        <time>2021-06-30T11:01:19Z</time>
      </trkpt>
      <trkpt lat="44.063747" lon="4.886718">
        <ele>31.85730</ele>
        <time>2021-06-30T11:01:20Z</time>
      </trkpt>
      <trkpt lat="44.063389" lon="4.886855">
        <ele>31.98035</ele>
        <time>2021-06-30T11:01:21Z</time>
      </trkpt>
      <trkpt lat="44.063046" lon="4.886973">
        <ele>32.10083</ele>
        <time>2021-06-30T11:01:22Z</time>
      </trkpt>
      <trkpt lat="44.062675" lon="4.887086">
        <ele>32.11859</ele>
        <time>2021-06-30T11:01:23Z</time>
      </trkpt>
      <trkpt lat="44.062325" lon="4.887190">
        <ele>31.09753</ele>
        <time>2021-06-30T11:01:24Z</time>
      </trkpt>
      <trkpt lat="44.061996" lon="4.887262">
        <ele>31.53595</ele>
        <time>2021-06-30T11:01:25Z</time>
      </trkpt>
      <trkpt lat="44.061634" lon="4.887335">
        <ele>32.03955</ele>
        <time>2021-06-30T11:01:26Z</time>
      </trkpt>
      <trkpt lat="44.061272" lon="4.887393">
        <ele>31.38184</ele>
        <time>2021-06-30T11:01:28Z</time>
      </trkpt>
      <trkpt lat="44.060909" lon="4.887442">
        <ele>31.30066</ele>
        <time>2021-06-30T11:01:28Z</time>
      </trkpt>
      <trkpt lat="44.060547" lon="4.887477">
        <ele>31.23352</ele>
        <time>2021-06-30T11:01:29Z</time>
      </trkpt>
      <trkpt lat="44.060196" lon="4.887510">
        <ele>31.16119</ele>
        <time>2021-06-30T11:01:31Z</time>
      </trkpt>
      <trkpt lat="44.060196" lon="4.887510">
        <ele>31.36444</ele>
        <time>2021-06-30T11:01:31Z</time>
      </trkpt>
      <trkpt lat="44.059811" lon="4.887537">
        <ele>32.80756</ele>
        <time>2021-06-30T11:01:32Z</time>
      </trkpt>
      <trkpt lat="44.059471" lon="4.887560">
        <ele>33.53723</ele>
        <time>2021-06-30T11:01:33Z</time>
      </trkpt>
      <trkpt lat="44.059109" lon="4.887583">
        <ele>34.06250</ele>
        <time>2021-06-30T11:01:34Z</time>
      </trkpt>
      <trkpt lat="44.058758" lon="4.887606">
        <ele>33.90387</ele>
        <time>2021-06-30T11:01:35Z</time>
      </trkpt>
      <trkpt lat="44.058361" lon="4.887632">
        <ele>33.60431</ele>
        <time>2021-06-30T11:01:36Z</time>
      </trkpt>
      <trkpt lat="44.058010" lon="4.887654">
        <ele>33.40833</ele>
        <time>2021-06-30T11:01:37Z</time>
      </trkpt>
      <trkpt lat="44.057632" lon="4.887675">
        <ele>33.28357</ele>
        <time>2021-06-30T11:01:38Z</time>
      </trkpt>
      <trkpt lat="44.057251" lon="4.887696">
        <ele>34.20593</ele>
        <time>2021-06-30T11:01:39Z</time>
      </trkpt>
      <trkpt lat="44.056911" lon="4.887715">
        <ele>35.24243</ele>
        <time>2021-06-30T11:01:40Z</time>
      </trkpt>
      <trkpt lat="44.056564" lon="4.887734">
        <ele>35.70367</ele>
        <time>2021-06-30T11:01:41Z</time>
      </trkpt>
      <trkpt lat="44.056171" lon="4.887756">
        <ele>35.19153</ele>
        <time>2021-06-30T11:01:42Z</time>
      </trkpt>
      <trkpt lat="44.055847" lon="4.887773">
        <ele>36.80457</ele>
        <time>2021-06-30T11:01:43Z</time>
      </trkpt>
      <trkpt lat="44.055489" lon="4.887793">
        <ele>36.77734</ele>
        <time>2021-06-30T11:01:44Z</time>
      </trkpt>
      <trkpt lat="44.055099" lon="4.887815">
        <ele>37.06616</ele>
        <time>2021-06-30T11:01:45Z</time>
      </trkpt>
      <trkpt lat="44.054749" lon="4.887834">
        <ele>36.62250</ele>
        <time>2021-06-30T11:01:46Z</time>
      </trkpt>
      <trkpt lat="44.054386" lon="4.887854">
        <ele>38.08405</ele>
        <time>2021-06-30T11:01:47Z</time>
      </trkpt>
      <trkpt lat="44.054047" lon="4.887873">
        <ele>38.18964</ele>
        <time>2021-06-30T11:01:48Z</time>
      </trkpt>
      <trkpt lat="44.053669" lon="4.887894">
        <ele>38.15613</ele>
        <time>2021-06-30T11:01:49Z</time>
      </trkpt>
      <trkpt lat="44.053314" lon="4.887914">
        <ele>38.72174</ele>
        <time>2021-06-30T11:01:50Z</time>
      </trkpt>
      <trkpt lat="44.052990" lon="4.887932">
        <ele>39.43903</ele>
        <time>2021-06-30T11:01:51Z</time>
      </trkpt>
      <trkpt lat="44.052673" lon="4.887949">
        <ele>39.35693</ele>
        <time>2021-06-30T11:01:52Z</time>
      </trkpt>
      <trkpt lat="44.052368" lon="4.887966">
        <ele>39.00110</ele>
        <time>2021-06-30T11:01:53Z</time>
      </trkpt>
      <trkpt lat="44.052025" lon="4.887986">
        <ele>39.72223</ele>
        <time>2021-06-30T11:01:54Z</time>
      </trkpt>
      <trkpt lat="44.051697" lon="4.888004">
        <ele>41.32727</ele>
        <time>2021-06-30T11:01:55Z</time>
      </trkpt>
      <trkpt lat="44.051365" lon="4.888022">
        <ele>41.98767</ele>
        <time>2021-06-30T11:01:56Z</time>
      </trkpt>
      <trkpt lat="44.051048" lon="4.888040">
        <ele>42.19916</ele>
        <time>2021-06-30T11:01:57Z</time>
      </trkpt>
      <trkpt lat="44.051048" lon="4.888040">
        <ele>41.34454</ele>
        <time>2021-06-30T11:01:58Z</time>
      </trkpt>
      <trkpt lat="44.050728" lon="4.888057">
        <ele>38.88745</ele>
        <time>2021-06-30T11:01:59Z</time>
      </trkpt>
      <trkpt lat="44.050411" lon="4.888075">
        <ele>39.74261</ele>
        <time>2021-06-30T11:02:00Z</time>
      </trkpt>
      <trkpt lat="44.050110" lon="4.888092">
        <ele>38.89795</ele>
        <time>2021-06-30T11:02:01Z</time>
      </trkpt>
      <trkpt lat="44.049782" lon="4.888110">
        <ele>37.84833</ele>
        <time>2021-06-30T11:02:02Z</time>
      </trkpt>
      <trkpt lat="44.049507" lon="4.888125">
        <ele>37.84302</ele>
        <time>2021-06-30T11:02:03Z</time>
      </trkpt>
      <trkpt lat="44.049198" lon="4.888127">
        <ele>37.95142</ele>
        <time>2021-06-30T11:02:04Z</time>
      </trkpt>
      <trkpt lat="44.048874" lon="4.888124">
        <ele>38.36163</ele>
        <time>2021-06-30T11:02:05Z</time>
      </trkpt>
      <trkpt lat="44.048580" lon="4.888112">
        <ele>38.27417</ele>
        <time>2021-06-30T11:02:06Z</time>
      </trkpt>
      <trkpt lat="44.048286" lon="4.888091">
        <ele>37.94641</ele>
        <time>2021-06-30T11:02:07Z</time>
      </trkpt>
      <trkpt lat="44.047989" lon="4.888066">
        <ele>34.50946</ele>
        <time>2021-06-30T11:02:09Z</time>
      </trkpt>
      <trkpt lat="44.047775" lon="4.888044">
        <ele>34.91925</ele>
        <time>2021-06-30T11:02:09Z</time>
      </trkpt>
      <trkpt lat="44.047501" lon="4.888006">
        <ele>34.16882</ele>
        <time>2021-06-30T11:02:10Z</time>
      </trkpt>
      <trkpt lat="44.047237" lon="4.887956">
        <ele>34.19220</ele>
        <time>2021-06-30T11:02:11Z</time>
      </trkpt>
      <trkpt lat="44.047001" lon="4.887908">
        <ele>35.06689</ele>
        <time>2021-06-30T11:02:12Z</time>
      </trkpt>
      <trkpt lat="44.046738" lon="4.887851">
        <ele>34.43030</ele>
        <time>2021-06-30T11:02:13Z</time>
      </trkpt>
      <trkpt lat="44.046478" lon="4.887780">
        <ele>34.25842</ele>
        <time>2021-06-30T11:02:14Z</time>
      </trkpt>
      <trkpt lat="44.046227" lon="4.887711">
        <ele>34.10107</ele>
        <time>2021-06-30T11:02:15Z</time>
      </trkpt>
      <trkpt lat="44.045975" lon="4.887642">
        <ele>35.01294</ele>
        <time>2021-06-30T11:02:16Z</time>
      </trkpt>
      <trkpt lat="44.045704" lon="4.887551">
        <ele>35.26819</ele>
        <time>2021-06-30T11:02:17Z</time>
      </trkpt>
      <trkpt lat="44.045452" lon="4.887459">
        <ele>35.16724</ele>
        <time>2021-06-30T11:02:18Z</time>
      </trkpt>
      <trkpt lat="44.045189" lon="4.887349">
        <ele>35.06927</ele>
        <time>2021-06-30T11:02:19Z</time>
      </trkpt>
      <trkpt lat="44.044926" lon="4.887229">
        <ele>34.40765</ele>
        <time>2021-06-30T11:02:20Z</time>
      </trkpt>
      <trkpt lat="44.044666" lon="4.887112">
        <ele>34.35565</ele>
        <time>2021-06-30T11:02:21Z</time>
      </trkpt>
      <trkpt lat="44.044415" lon="4.886994">
        <ele>34.57532</ele>
        <time>2021-06-30T11:02:22Z</time>
      </trkpt>
      <trkpt lat="44.044167" lon="4.886864">
        <ele>34.45734</ele>
        <time>2021-06-30T11:02:23Z</time>
      </trkpt>
      <trkpt lat="44.043915" lon="4.886731">
        <ele>34.27649</ele>
        <time>2021-06-30T11:02:24Z</time>
      </trkpt>
      <trkpt lat="44.043671" lon="4.886598">
        <ele>33.05231</ele>
        <time>2021-06-30T11:02:25Z</time>
      </trkpt>
      <trkpt lat="44.043446" lon="4.886474">
        <ele>30.99542</ele>
        <time>2021-06-30T11:02:26Z</time>
      </trkpt>
      <trkpt lat="44.043190" lon="4.886331">
        <ele>31.13208</ele>
        <time>2021-06-30T11:02:27Z</time>
      </trkpt>
      <trkpt lat="44.042946" lon="4.886194">
        <ele>31.11774</ele>
        <time>2021-06-30T11:02:28Z</time>
      </trkpt>
      <trkpt lat="44.042706" lon="4.886057">
        <ele>31.17950</ele>
        <time>2021-06-30T11:02:29Z</time>
      </trkpt>
      <trkpt lat="44.042458" lon="4.885912">
        <ele>31.15424</ele>
        <time>2021-06-30T11:02:30Z</time>
      </trkpt>
      <trkpt lat="44.042225" lon="4.885779">
        <ele>30.29633</ele>
        <time>2021-06-30T11:02:31Z</time>
      </trkpt>
      <trkpt lat="44.042225" lon="4.885779">
        <ele>29.55823</ele>
        <time>2021-06-30T11:02:32Z</time>
      </trkpt>
      <trkpt lat="44.041958" lon="4.885625">
        <ele>26.55884</ele>
        <time>2021-06-30T11:02:33Z</time>
      </trkpt>
      <trkpt lat="44.041702" lon="4.885476">
        <ele>26.22046</ele>
        <time>2021-06-30T11:02:34Z</time>
      </trkpt>
      <trkpt lat="44.041447" lon="4.885328">
        <ele>25.67755</ele>
        <time>2021-06-30T11:02:35Z</time>
      </trkpt>
      <trkpt lat="44.041214" lon="4.885194">
        <ele>25.47644</ele>
        <time>2021-06-30T11:02:36Z</time>
      </trkpt>
      <trkpt lat="44.040951" lon="4.885042">
        <ele>25.62787</ele>
        <time>2021-06-30T11:02:37Z</time>
      </trkpt>
      <trkpt lat="44.040726" lon="4.884912">
        <ele>25.66656</ele>
        <time>2021-06-30T11:02:38Z</time>
      </trkpt>
      <trkpt lat="44.040474" lon="4.884767">
        <ele>25.24152</ele>
        <time>2021-06-30T11:02:39Z</time>
      </trkpt>
      <trkpt lat="44.040207" lon="4.884619">
        <ele>25.14093</ele>
        <time>2021-06-30T11:02:40Z</time>
      </trkpt>
      <trkpt lat="44.039963" lon="4.884502">
        <ele>25.02710</ele>
        <time>2021-06-30T11:02:41Z</time>
      </trkpt>
      <trkpt lat="44.039700" lon="4.884395">
        <ele>23.41394</ele>
        <time>2021-06-30T11:02:42Z</time>
      </trkpt>
      <trkpt lat="44.039448" lon="4.884297">
        <ele>23.18774</ele>
        <time>2021-06-30T11:02:43Z</time>
      </trkpt>
      <trkpt lat="44.039185" lon="4.884198">
        <ele>23.52313</ele>
        <time>2021-06-30T11:02:44Z</time>
      </trkpt>
      <trkpt lat="44.038933" lon="4.884130">
        <ele>24.37579</ele>
        <time>2021-06-30T11:02:45Z</time>
      </trkpt>
      <trkpt lat="44.038639" lon="4.884052">
        <ele>24.55853</ele>
        <time>2021-06-30T11:02:46Z</time>
      </trkpt>
      <trkpt lat="44.038380" lon="4.884002">
        <ele>24.53931</ele>
        <time>2021-06-30T11:02:47Z</time>
      </trkpt>
      <trkpt lat="44.038116" lon="4.883960">
        <ele>25.39728</ele>
        <time>2021-06-30T11:02:48Z</time>
      </trkpt>
      <trkpt lat="44.037876" lon="4.883923">
        <ele>25.49475</ele>
        <time>2021-06-30T11:02:49Z</time>
      </trkpt>
      <trkpt lat="44.037628" lon="4.883901">
        <ele>26.13098</ele>
        <time>2021-06-30T11:02:50Z</time>
      </trkpt>
      <trkpt lat="44.037361" lon="4.883877">
        <ele>26.09595</ele>
        <time>2021-06-30T11:02:51Z</time>
      </trkpt>
      <trkpt lat="44.037113" lon="4.883886">
        <ele>27.46350</ele>
        <time>2021-06-30T11:02:52Z</time>
      </trkpt>
      <trkpt lat="44.036850" lon="4.883902">
        <ele>28.01593</ele>
        <time>2021-06-30T11:02:53Z</time>
      </trkpt>
      <trkpt lat="44.036594" lon="4.883919">
        <ele>27.85754</ele>
        <time>2021-06-30T11:02:54Z</time>
      </trkpt>
      <trkpt lat="44.036320" lon="4.883953">
        <ele>26.77563</ele>
        <time>2021-06-30T11:02:55Z</time>
      </trkpt>
      <trkpt lat="44.036053" lon="4.883998">
        <ele>30.80042</ele>
        <time>2021-06-30T11:02:56Z</time>
      </trkpt>
      <trkpt lat="44.035797" lon="4.884051">
        <ele>28.15765</ele>
        <time>2021-06-30T11:02:57Z</time>
      </trkpt>
      <trkpt lat="44.035534" lon="4.884115">
        <ele>27.60437</ele>
        <time>2021-06-30T11:02:58Z</time>
      </trkpt>
      <trkpt lat="44.035236" lon="4.884206">
        <ele>27.30615</ele>
        <time>2021-06-30T11:02:59Z</time>
      </trkpt>
      <trkpt lat="44.034981" lon="4.884287">
        <ele>27.14850</ele>
        <time>2021-06-30T11:03:00Z</time>
      </trkpt>
      <trkpt lat="44.034706" lon="4.884383">
        <ele>26.89966</ele>
        <time>2021-06-30T11:03:01Z</time>
      </trkpt>
      <trkpt lat="44.034466" lon="4.884481">
        <ele>25.34570</ele>
        <time>2021-06-30T11:03:02Z</time>
      </trkpt>
      <trkpt lat="44.034466" lon="4.884481">
        <ele>24.47974</ele>
        <time>2021-06-30T11:03:03Z</time>
      </trkpt>
      <trkpt lat="44.034206" lon="4.884595">
        <ele>23.54663</ele>
        <time>2021-06-30T11:03:04Z</time>
      </trkpt>
      <trkpt lat="44.033955" lon="4.884704">
        <ele>23.23291</ele>
        <time>2021-06-30T11:03:05Z</time>
      </trkpt>
      <trkpt lat="44.033695" lon="4.884823">
        <ele>21.50439</ele>
        <time>2021-06-30T11:03:06Z</time>
      </trkpt>
      <trkpt lat="44.033443" lon="4.884941">
        <ele>21.48480</ele>
        <time>2021-06-30T11:03:07Z</time>
      </trkpt>
      <trkpt lat="44.033188" lon="4.885063">
        <ele>22.85687</ele>
        <time>2021-06-30T11:03:08Z</time>
      </trkpt>
      <trkpt lat="44.032948" lon="4.885177">
        <ele>23.07092</ele>
        <time>2021-06-30T11:03:09Z</time>
      </trkpt>
      <trkpt lat="44.032700" lon="4.885295">
        <ele>23.20459</ele>
        <time>2021-06-30T11:03:10Z</time>
      </trkpt>
      <trkpt lat="44.032463" lon="4.885408">
        <ele>23.87915</ele>
        <time>2021-06-30T11:03:11Z</time>
      </trkpt>
      <trkpt lat="44.032242" lon="4.885514">
        <ele>24.63007</ele>
        <time>2021-06-30T11:03:12Z</time>
      </trkpt>
      <trkpt lat="44.032001" lon="4.885622">
        <ele>25.64050</ele>
        <time>2021-06-30T11:03:13Z</time>
      </trkpt>
      <trkpt lat="44.031754" lon="4.885733">
        <ele>26.37744</ele>
        <time>2021-06-30T11:03:14Z</time>
      </trkpt>
      <trkpt lat="44.031502" lon="4.885848">
        <ele>27.43445</ele>
        <time>2021-06-30T11:03:16Z</time>
      </trkpt>
      <trkpt lat="44.031212" lon="4.885978">
        <ele>28.49518</ele>
        <time>2021-06-30T11:03:16Z</time>
      </trkpt>
      <trkpt lat="44.030991" lon="4.886079">
        <ele>29.93530</ele>
        <time>2021-06-30T11:03:17Z</time>
      </trkpt>
      <trkpt lat="44.030720" lon="4.886200">
        <ele>31.06384</ele>
        <time>2021-06-30T11:03:18Z</time>
      </trkpt>
      <trkpt lat="44.030460" lon="4.886318">
        <ele>31.04681</ele>
        <time>2021-06-30T11:03:19Z</time>
      </trkpt>
      <trkpt lat="44.030170" lon="4.886449">
        <ele>31.99182</ele>
        <time>2021-06-30T11:03:20Z</time>
      </trkpt>
      <trkpt lat="44.029850" lon="4.886594">
        <ele>33.47009</ele>
        <time>2021-06-30T11:03:21Z</time>
      </trkpt>
      <trkpt lat="44.029518" lon="4.886744">
        <ele>35.74988</ele>
        <time>2021-06-30T11:03:22Z</time>
      </trkpt>
      <trkpt lat="44.029209" lon="4.886894">
        <ele>37.28357</ele>
        <time>2021-06-30T11:03:23Z</time>
      </trkpt>
      <trkpt lat="44.028893" lon="4.887049">
        <ele>36.58777</ele>
        <time>2021-06-30T11:03:24Z</time>
      </trkpt>
      <trkpt lat="44.028568" lon="4.887189">
        <ele>37.52112</ele>
        <time>2021-06-30T11:03:25Z</time>
      </trkpt>
      <trkpt lat="44.028225" lon="4.887334">
        <ele>39.06732</ele>
        <time>2021-06-30T11:03:26Z</time>
      </trkpt>
      <trkpt lat="44.027863" lon="4.887474">
        <ele>39.48474</ele>
        <time>2021-06-30T11:03:27Z</time>
      </trkpt>
      <trkpt lat="44.027523" lon="4.887578">
        <ele>39.51685</ele>
        <time>2021-06-30T11:03:28Z</time>
      </trkpt>
      <trkpt lat="44.027149" lon="4.887677">
        <ele>39.37091</ele>
        <time>2021-06-30T11:03:29Z</time>
      </trkpt>
      <trkpt lat="44.026791" lon="4.887758">
        <ele>38.96448</ele>
        <time>2021-06-30T11:03:30Z</time>
      </trkpt>
      <trkpt lat="44.026424" lon="4.887841">
        <ele>38.99634</ele>
        <time>2021-06-30T11:03:31Z</time>
      </trkpt>
      <trkpt lat="44.026047" lon="4.887926">
        <ele>38.27582</ele>
        <time>2021-06-30T11:03:32Z</time>
      </trkpt>
      <trkpt lat="44.025677" lon="4.888007">
        <ele>39.12122</ele>
        <time>2021-06-30T11:03:33Z</time>
      </trkpt>
      <trkpt lat="44.025330" lon="4.888071">
        <ele>40.10968</ele>
        <time>2021-06-30T11:03:34Z</time>
      </trkpt>
      <trkpt lat="44.025330" lon="4.888071">
        <ele>40.10443</ele>
        <time>2021-06-30T11:03:35Z</time>
      </trkpt>
      <trkpt lat="44.024952" lon="4.888141">
        <ele>40.78235</ele>
        <time>2021-06-30T11:03:36Z</time>
      </trkpt>
      <trkpt lat="44.024590" lon="4.888208">
        <ele>40.74487</ele>
        <time>2021-06-30T11:03:37Z</time>
      </trkpt>
      <trkpt lat="44.024250" lon="4.888273">
        <ele>41.94373</ele>
        <time>2021-06-30T11:03:38Z</time>
      </trkpt>
      <trkpt lat="44.023869" lon="4.888347">
        <ele>41.37671</ele>
        <time>2021-06-30T11:03:39Z</time>
      </trkpt>
      <trkpt lat="44.023472" lon="4.888423">
        <ele>41.54126</ele>
        <time>2021-06-30T11:03:40Z</time>
      </trkpt>
      <trkpt lat="44.023151" lon="4.888485">
        <ele>40.06152</ele>
        <time>2021-06-30T11:03:41Z</time>
      </trkpt>
      <trkpt lat="44.022800" lon="4.888553">
        <ele>40.24384</ele>
        <time>2021-06-30T11:03:43Z</time>
      </trkpt>
      <trkpt lat="44.022415" lon="4.888627">
        <ele>40.02563</ele>
        <time>2021-06-30T11:03:43Z</time>
      </trkpt>
      <trkpt lat="44.022068" lon="4.888688">
        <ele>39.42413</ele>
        <time>2021-06-30T11:03:44Z</time>
      </trkpt>
      <trkpt lat="44.021702" lon="4.888752">
        <ele>39.39496</ele>
        <time>2021-06-30T11:03:45Z</time>
      </trkpt>
      <trkpt lat="44.021343" lon="4.888822">
        <ele>39.32178</ele>
        <time>2021-06-30T11:03:46Z</time>
      </trkpt>
      <trkpt lat="44.021004" lon="4.888889">
        <ele>39.20282</ele>
        <time>2021-06-30T11:03:47Z</time>
      </trkpt>
      <trkpt lat="44.020618" lon="4.888965">
        <ele>37.96057</ele>
        <time>2021-06-30T11:03:48Z</time>
      </trkpt>
      <trkpt lat="44.020271" lon="4.889032">
        <ele>37.49945</ele>
        <time>2021-06-30T11:03:49Z</time>
      </trkpt>
      <trkpt lat="44.019901" lon="4.889104">
        <ele>37.21777</ele>
        <time>2021-06-30T11:03:50Z</time>
      </trkpt>
      <trkpt lat="44.019554" lon="4.889169">
        <ele>37.56335</ele>
        <time>2021-06-30T11:03:52Z</time>
      </trkpt>
      <trkpt lat="44.019199" lon="4.889232">
        <ele>37.45679</ele>
        <time>2021-06-30T11:03:52Z</time>
      </trkpt>
      <trkpt lat="44.018860" lon="4.889287">
        <ele>37.27655</ele>
        <time>2021-06-30T11:03:54Z</time>
      </trkpt>
      <trkpt lat="44.018486" lon="4.889347">
        <ele>38.17188</ele>
        <time>2021-06-30T11:03:54Z</time>
      </trkpt>
      <trkpt lat="44.018139" lon="4.889417">
        <ele>37.56097</ele>
        <time>2021-06-30T11:03:55Z</time>
      </trkpt>
      <trkpt lat="44.017799" lon="4.889487">
        <ele>38.58099</ele>
        <time>2021-06-30T11:03:56Z</time>
      </trkpt>
      <trkpt lat="44.017460" lon="4.889556">
        <ele>40.22437</ele>
        <time>2021-06-30T11:03:57Z</time>
      </trkpt>
      <trkpt lat="44.017105" lon="4.889629">
        <ele>40.62225</ele>
        <time>2021-06-30T11:03:58Z</time>
      </trkpt>
      <trkpt lat="44.016739" lon="4.889702">
        <ele>40.68018</ele>
        <time>2021-06-30T11:03:59Z</time>
      </trkpt>
      <trkpt lat="44.016407" lon="4.889769">
        <ele>41.47797</ele>
        <time>2021-06-30T11:04:00Z</time>
      </trkpt>
      <trkpt lat="44.016048" lon="4.889840">
        <ele>41.16760</ele>
        <time>2021-06-30T11:04:01Z</time>
      </trkpt>
      <trkpt lat="44.015678" lon="4.889915">
        <ele>41.26813</ele>
        <time>2021-06-30T11:04:02Z</time>
      </trkpt>
      <trkpt lat="44.015331" lon="4.889984">
        <ele>41.56958</ele>
        <time>2021-06-30T11:04:03Z</time>
      </trkpt>
      <trkpt lat="44.014984" lon="4.890054">
        <ele>40.91217</ele>
        <time>2021-06-30T11:04:04Z</time>
      </trkpt>
      <trkpt lat="44.014599" lon="4.890129">
        <ele>41.61755</ele>
        <time>2021-06-30T11:04:05Z</time>
      </trkpt>
      <trkpt lat="44.014248" lon="4.890189">
        <ele>41.78009</ele>
        <time>2021-06-30T11:04:06Z</time>
      </trkpt>
      <trkpt lat="44.014248" lon="4.890189">
        <ele>42.52441</ele>
        <time>2021-06-30T11:04:07Z</time>
      </trkpt>
      <trkpt lat="44.013542" lon="4.890309">
        <ele>42.65173</ele>
        <time>2021-06-30T11:04:08Z</time>
      </trkpt>
      <trkpt lat="44.013206" lon="4.890367">
        <ele>42.95374</ele>
        <time>2021-06-30T11:04:09Z</time>
      </trkpt>
      <trkpt lat="44.013206" lon="4.890367">
        <ele>42.53168</ele>
        <time>2021-06-30T11:04:10Z</time>
      </trkpt>
      <trkpt lat="44.012833" lon="4.890412">
        <ele>43.27203</ele>
        <time>2021-06-30T11:04:11Z</time>
      </trkpt>
      <trkpt lat="44.012451" lon="4.890427">
        <ele>43.20599</ele>
        <time>2021-06-30T11:04:12Z</time>
      </trkpt>
      <trkpt lat="44.012093" lon="4.890414">
        <ele>42.49774</ele>
        <time>2021-06-30T11:04:13Z</time>
      </trkpt>
      <trkpt lat="44.011749" lon="4.890396">
        <ele>42.46411</ele>
        <time>2021-06-30T11:04:14Z</time>
      </trkpt>
      <trkpt lat="44.011345" lon="4.890348">
        <ele>42.80750</ele>
        <time>2021-06-30T11:04:15Z</time>
      </trkpt>
      <trkpt lat="44.010994" lon="4.890294">
        <ele>42.60925</ele>
        <time>2021-06-30T11:04:16Z</time>
      </trkpt>
      <trkpt lat="44.010643" lon="4.890225">
        <ele>43.04248</ele>
        <time>2021-06-30T11:04:17Z</time>
      </trkpt>
      <trkpt lat="44.010262" lon="4.890145">
        <ele>43.10767</ele>
        <time>2021-06-30T11:04:18Z</time>
      </trkpt>
      <trkpt lat="44.009930" lon="4.890071">
        <ele>42.90210</ele>
        <time>2021-06-30T11:04:19Z</time>
      </trkpt>
      <trkpt lat="44.009586" lon="4.889995">
        <ele>43.04175</ele>
        <time>2021-06-30T11:04:20Z</time>
      </trkpt>
      <trkpt lat="44.009205" lon="4.889911">
        <ele>42.82776</ele>
        <time>2021-06-30T11:04:21Z</time>
      </trkpt>
      <trkpt lat="44.008865" lon="4.889836">
        <ele>41.67206</ele>
        <time>2021-06-30T11:04:22Z</time>
      </trkpt>
      <trkpt lat="44.008526" lon="4.889758">
        <ele>40.88123</ele>
        <time>2021-06-30T11:04:23Z</time>
      </trkpt>
      <trkpt lat="44.008144" lon="4.889668">
        <ele>40.98621</ele>
        <time>2021-06-30T11:04:24Z</time>
      </trkpt>
      <trkpt lat="44.007782" lon="4.889582">
        <ele>40.85559</ele>
        <time>2021-06-30T11:04:26Z</time>
      </trkpt>
      <trkpt lat="44.007427" lon="4.889493">
        <ele>39.61273</ele>
        <time>2021-06-30T11:04:26Z</time>
      </trkpt>
      <trkpt lat="44.007088" lon="4.889406">
        <ele>39.87170</ele>
        <time>2021-06-30T11:04:27Z</time>
      </trkpt>
      <trkpt lat="44.006725" lon="4.889313">
        <ele>39.47772</ele>
        <time>2021-06-30T11:04:28Z</time>
      </trkpt>
      <trkpt lat="44.006355" lon="4.889219">
        <ele>38.04346</ele>
        <time>2021-06-30T11:04:29Z</time>
      </trkpt>
      <trkpt lat="44.006001" lon="4.889131">
        <ele>37.03442</ele>
        <time>2021-06-30T11:04:30Z</time>
      </trkpt>
      <trkpt lat="44.005650" lon="4.889049">
        <ele>33.95654</ele>
        <time>2021-06-30T11:04:31Z</time>
      </trkpt>
      <trkpt lat="44.005268" lon="4.888961">
        <ele>33.14478</ele>
        <time>2021-06-30T11:04:32Z</time>
      </trkpt>
      <trkpt lat="44.004898" lon="4.888875">
        <ele>32.78302</ele>
        <time>2021-06-30T11:04:33Z</time>
      </trkpt>
      <trkpt lat="44.004539" lon="4.888793">
        <ele>32.16968</ele>
        <time>2021-06-30T11:04:34Z</time>
      </trkpt>
      <trkpt lat="44.004177" lon="4.888708">
        <ele>31.53271</ele>
        <time>2021-06-30T11:04:35Z</time>
      </trkpt>
      <trkpt lat="44.003807" lon="4.888637">
        <ele>30.92889</ele>
        <time>2021-06-30T11:04:36Z</time>
      </trkpt>
      <trkpt lat="44.003460" lon="4.888558">
        <ele>30.37695</ele>
        <time>2021-06-30T11:04:37Z</time>
      </trkpt>
      <trkpt lat="44.003098" lon="4.888476">
        <ele>29.90668</ele>
        <time>2021-06-30T11:04:38Z</time>
      </trkpt>
      <trkpt lat="44.002743" lon="4.888394">
        <ele>28.78461</ele>
        <time>2021-06-30T11:04:39Z</time>
      </trkpt>
      <trkpt lat="44.002743" lon="4.888394">
        <ele>27.88672</ele>
        <time>2021-06-30T11:04:40Z</time>
      </trkpt>
      <trkpt lat="44.002384" lon="4.888313">
        <ele>27.21570</ele>
        <time>2021-06-30T11:04:41Z</time>
      </trkpt>
      <trkpt lat="44.002037" lon="4.888234">
        <ele>26.81372</ele>
        <time>2021-06-30T11:04:42Z</time>
      </trkpt>
      <trkpt lat="44.001678" lon="4.888153">
        <ele>27.07184</ele>
        <time>2021-06-30T11:04:43Z</time>
      </trkpt>
      <trkpt lat="44.001308" lon="4.888069">
        <ele>26.57751</ele>
        <time>2021-06-30T11:04:44Z</time>
      </trkpt>
      <trkpt lat="44.000938" lon="4.887984">
        <ele>26.32635</ele>
        <time>2021-06-30T11:04:45Z</time>
      </trkpt>
      <trkpt lat="44.000584" lon="4.887903">
        <ele>26.13068</ele>
        <time>2021-06-30T11:04:46Z</time>
      </trkpt>
      <trkpt lat="44.000221" lon="4.887821">
        <ele>27.03522</ele>
        <time>2021-06-30T11:04:47Z</time>
      </trkpt>
      <trkpt lat="43.999886" lon="4.887744">
        <ele>27.88715</ele>
        <time>2021-06-30T11:04:48Z</time>
      </trkpt>
      <trkpt lat="43.999531" lon="4.887666">
        <ele>28.85345</ele>
        <time>2021-06-30T11:04:49Z</time>
      </trkpt>
      <trkpt lat="43.999180" lon="4.887591">
        <ele>29.21155</ele>
        <time>2021-06-30T11:04:50Z</time>
      </trkpt>
      <trkpt lat="43.998798" lon="4.887508">
        <ele>29.09961</ele>
        <time>2021-06-30T11:04:51Z</time>
      </trkpt>
      <trkpt lat="43.998440" lon="4.887430">
        <ele>28.56885</ele>
        <time>2021-06-30T11:04:52Z</time>
      </trkpt>
      <trkpt lat="43.998108" lon="4.887357">
        <ele>27.88019</ele>
        <time>2021-06-30T11:04:53Z</time>
      </trkpt>
      <trkpt lat="43.997738" lon="4.887270">
        <ele>27.55469</ele>
        <time>2021-06-30T11:04:55Z</time>
      </trkpt>
      <trkpt lat="43.997395" lon="4.887189">
        <ele>27.32117</ele>
        <time>2021-06-30T11:04:55Z</time>
      </trkpt>
      <trkpt lat="43.997040" lon="4.887132">
        <ele>27.49432</ele>
        <time>2021-06-30T11:04:56Z</time>
      </trkpt>
      <trkpt lat="43.996693" lon="4.887083">
        <ele>27.08136</ele>
        <time>2021-06-30T11:04:57Z</time>
      </trkpt>
      <trkpt lat="43.996338" lon="4.887033">
        <ele>28.28406</ele>
        <time>2021-06-30T11:04:58Z</time>
      </trkpt>
      <trkpt lat="43.995975" lon="4.887027">
        <ele>28.33197</ele>
        <time>2021-06-30T11:05:00Z</time>
      </trkpt>
      <trkpt lat="43.995613" lon="4.887051">
        <ele>28.90784</ele>
        <time>2021-06-30T11:05:01Z</time>
      </trkpt>
      <trkpt lat="43.995262" lon="4.887086">
        <ele>28.87109</ele>
        <time>2021-06-30T11:05:01Z</time>
      </trkpt>
      <trkpt lat="43.994934" lon="4.887120">
        <ele>29.15985</ele>
        <time>2021-06-30T11:05:02Z</time>
      </trkpt>
      <trkpt lat="43.994576" lon="4.887183">
        <ele>29.12976</ele>
        <time>2021-06-30T11:05:03Z</time>
      </trkpt>
      <trkpt lat="43.994209" lon="4.887258">
        <ele>29.06171</ele>
        <time>2021-06-30T11:05:05Z</time>
      </trkpt>
      <trkpt lat="43.993874" lon="4.887350">
        <ele>29.63947</ele>
        <time>2021-06-30T11:05:05Z</time>
      </trkpt>
      <trkpt lat="43.993526" lon="4.887456">
        <ele>29.67834</ele>
        <time>2021-06-30T11:05:06Z</time>
      </trkpt>
      <trkpt lat="43.993176" lon="4.887587">
        <ele>29.60718</ele>
        <time>2021-06-30T11:05:07Z</time>
      </trkpt>
      <trkpt lat="43.992840" lon="4.887729">
        <ele>32.38776</ele>
        <time>2021-06-30T11:05:08Z</time>
      </trkpt>
      <trkpt lat="43.992493" lon="4.887876">
        <ele>30.46649</ele>
        <time>2021-06-30T11:05:09Z</time>
      </trkpt>
      <trkpt lat="43.992493" lon="4.887876">
        <ele>28.58765</ele>
        <time>2021-06-30T11:05:10Z</time>
      </trkpt>
      <trkpt lat="43.992153" lon="4.888019">
        <ele>28.26965</ele>
        <time>2021-06-30T11:05:11Z</time>
      </trkpt>
      <trkpt lat="43.991817" lon="4.888153">
        <ele>27.83936</ele>
        <time>2021-06-30T11:05:12Z</time>
      </trkpt>
      <trkpt lat="43.991425" lon="4.888310">
        <ele>26.20203</ele>
        <time>2021-06-30T11:05:14Z</time>
      </trkpt>
      <trkpt lat="43.991066" lon="4.888453">
        <ele>26.50696</ele>
        <time>2021-06-30T11:05:14Z</time>
      </trkpt>
      <trkpt lat="43.990726" lon="4.888588">
        <ele>25.65894</ele>
        <time>2021-06-30T11:05:15Z</time>
      </trkpt>
      <trkpt lat="43.989754" lon="4.888984">
        <ele>25.23035</ele>
        <time>2021-06-30T11:05:18Z</time>
      </trkpt>
      <trkpt lat="43.989754" lon="4.888984">
        <ele>25.23035</ele>
        <time>2021-06-30T11:05:18Z</time>
      </trkpt>
      <trkpt lat="43.989754" lon="4.888984">
        <ele>25.23035</ele>
        <time>2021-06-30T11:05:18Z</time>
      </trkpt>
      <trkpt lat="43.989563" lon="4.889062">
        <ele>24.34467</ele>
        <time>2021-06-30T11:05:19Z</time>
      </trkpt>
      <trkpt lat="43.989063" lon="4.889266">
        <ele>23.61798</ele>
        <time>2021-06-30T11:05:21Z</time>
      </trkpt>
      <trkpt lat="43.988663" lon="4.889428">
        <ele>25.21558</ele>
        <time>2021-06-30T11:05:21Z</time>
      </trkpt>
      <trkpt lat="43.988255" lon="4.889594">
        <ele>25.04248</ele>
        <time>2021-06-30T11:05:22Z</time>
      </trkpt>
      <trkpt lat="43.987911" lon="4.889733">
        <ele>26.03357</ele>
        <time>2021-06-30T11:05:23Z</time>
      </trkpt>
      <trkpt lat="43.987560" lon="4.889876">
        <ele>26.92493</ele>
        <time>2021-06-30T11:05:24Z</time>
      </trkpt>
      <trkpt lat="43.987186" lon="4.890029">
        <ele>27.78137</ele>
        <time>2021-06-30T11:05:26Z</time>
      </trkpt>
      <trkpt lat="43.986824" lon="4.890175">
        <ele>28.22717</ele>
        <time>2021-06-30T11:05:26Z</time>
      </trkpt>
      <trkpt lat="43.986488" lon="4.890312">
        <ele>29.81470</ele>
        <time>2021-06-30T11:05:27Z</time>
      </trkpt>
      <trkpt lat="43.986156" lon="4.890446">
        <ele>30.55255</ele>
        <time>2021-06-30T11:05:28Z</time>
      </trkpt>
      <trkpt lat="43.985794" lon="4.890593">
        <ele>32.10315</ele>
        <time>2021-06-30T11:05:29Z</time>
      </trkpt>
      <trkpt lat="43.985435" lon="4.890735">
        <ele>32.39349</ele>
        <time>2021-06-30T11:05:30Z</time>
      </trkpt>
      <trkpt lat="43.985435" lon="4.890735">
        <ele>32.09863</ele>
        <time>2021-06-30T11:05:31Z</time>
      </trkpt>
      <trkpt lat="43.984783" lon="4.890997">
        <ele>32.36780</ele>
        <time>2021-06-30T11:05:33Z</time>
      </trkpt>
      <trkpt lat="43.984783" lon="4.890997">
        <ele>31.10486</ele>
        <time>2021-06-30T11:05:33Z</time>
      </trkpt>
      <trkpt lat="43.984421" lon="4.891140">
        <ele>30.46564</ele>
        <time>2021-06-30T11:05:34Z</time>
      </trkpt>
      <trkpt lat="43.984077" lon="4.891276">
        <ele>29.13916</ele>
        <time>2021-06-30T11:05:35Z</time>
      </trkpt>
      <trkpt lat="43.983711" lon="4.891418">
        <ele>29.03668</ele>
        <time>2021-06-30T11:05:36Z</time>
      </trkpt>
      <trkpt lat="43.983334" lon="4.891578">
        <ele>28.74353</ele>
        <time>2021-06-30T11:05:37Z</time>
      </trkpt>
      <trkpt lat="43.982994" lon="4.891727">
        <ele>28.51752</ele>
        <time>2021-06-30T11:05:38Z</time>
      </trkpt>
      <trkpt lat="43.982655" lon="4.891863">
        <ele>29.26898</ele>
        <time>2021-06-30T11:05:39Z</time>
      </trkpt>
      <trkpt lat="43.982288" lon="4.892010">
        <ele>30.18384</ele>
        <time>2021-06-30T11:05:40Z</time>
      </trkpt>
      <trkpt lat="43.981922" lon="4.892155">
        <ele>29.85022</ele>
        <time>2021-06-30T11:05:41Z</time>
      </trkpt>
      <trkpt lat="43.981598" lon="4.892286">
        <ele>30.21338</ele>
        <time>2021-06-30T11:05:42Z</time>
      </trkpt>
      <trkpt lat="43.981277" lon="4.892413">
        <ele>31.03296</ele>
        <time>2021-06-30T11:05:44Z</time>
      </trkpt>
      <trkpt lat="43.980904" lon="4.892564">
        <ele>30.25970</ele>
        <time>2021-06-30T11:05:44Z</time>
      </trkpt>
      <trkpt lat="43.980598" lon="4.892685">
        <ele>30.74365</ele>
        <time>2021-06-30T11:05:45Z</time>
      </trkpt>
      <trkpt lat="43.980225" lon="4.892836">
        <ele>31.22363</ele>
        <time>2021-06-30T11:05:46Z</time>
      </trkpt>
      <trkpt lat="43.979858" lon="4.892980">
        <ele>32.67505</ele>
        <time>2021-06-30T11:05:47Z</time>
      </trkpt>
      <trkpt lat="43.979496" lon="4.893117">
        <ele>33.30994</ele>
        <time>2021-06-30T11:05:48Z</time>
      </trkpt>
      <trkpt lat="43.979149" lon="4.893249">
        <ele>33.67706</ele>
        <time>2021-06-30T11:05:49Z</time>
      </trkpt>
      <trkpt lat="43.978806" lon="4.893378">
        <ele>34.13739</ele>
        <time>2021-06-30T11:05:50Z</time>
      </trkpt>
      <trkpt lat="43.978458" lon="4.893511">
        <ele>34.13416</ele>
        <time>2021-06-30T11:05:52Z</time>
      </trkpt>
      <trkpt lat="43.978107" lon="4.893643">
        <ele>35.42029</ele>
        <time>2021-06-30T11:05:53Z</time>
      </trkpt>
      <trkpt lat="43.977741" lon="4.893782">
        <ele>36.45148</ele>
        <time>2021-06-30T11:05:53Z</time>
      </trkpt>
      <trkpt lat="43.977390" lon="4.893915">
        <ele>36.87061</ele>
        <time>2021-06-30T11:05:55Z</time>
      </trkpt>
      <trkpt lat="43.977039" lon="4.894053">
        <ele>37.76178</ele>
        <time>2021-06-30T11:05:55Z</time>
      </trkpt>
      <trkpt lat="43.976700" lon="4.894189">
        <ele>37.51050</ele>
        <time>2021-06-30T11:05:56Z</time>
      </trkpt>
      <trkpt lat="43.976357" lon="4.894322">
        <ele>37.35321</ele>
        <time>2021-06-30T11:05:57Z</time>
      </trkpt>
      <trkpt lat="43.976032" lon="4.894441">
        <ele>37.61182</ele>
        <time>2021-06-30T11:05:58Z</time>
      </trkpt>
      <trkpt lat="43.975643" lon="4.894585">
        <ele>37.65289</ele>
        <time>2021-06-30T11:05:59Z</time>
      </trkpt>
      <trkpt lat="43.975643" lon="4.894585">
        <ele>37.54431</ele>
        <time>2021-06-30T11:06:00Z</time>
      </trkpt>
      <trkpt lat="43.975288" lon="4.894719">
        <ele>37.45599</ele>
        <time>2021-06-30T11:06:01Z</time>
      </trkpt>
      <trkpt lat="43.974937" lon="4.894851">
        <ele>37.39606</ele>
        <time>2021-06-30T11:06:02Z</time>
      </trkpt>
      <trkpt lat="43.974609" lon="4.894974">
        <ele>36.87225</ele>
        <time>2021-06-30T11:06:03Z</time>
      </trkpt>
      <trkpt lat="43.974239" lon="4.895115">
        <ele>37.27576</ele>
        <time>2021-06-30T11:06:05Z</time>
      </trkpt>
      <trkpt lat="43.973919" lon="4.895244">
        <ele>36.18286</ele>
        <time>2021-06-30T11:06:05Z</time>
      </trkpt>
      <trkpt lat="43.973534" lon="4.895397">
        <ele>35.63708</ele>
        <time>2021-06-30T11:06:06Z</time>
      </trkpt>
      <trkpt lat="43.973190" lon="4.895526">
        <ele>34.51501</ele>
        <time>2021-06-30T11:06:08Z</time>
      </trkpt>
      <trkpt lat="43.972843" lon="4.895655">
        <ele>33.88318</ele>
        <time>2021-06-30T11:06:08Z</time>
      </trkpt>
      <trkpt lat="43.972492" lon="4.895787">
        <ele>33.75543</ele>
        <time>2021-06-30T11:06:09Z</time>
      </trkpt>
      <trkpt lat="43.972137" lon="4.895922">
        <ele>32.39514</ele>
        <time>2021-06-30T11:06:10Z</time>
      </trkpt>
      <trkpt lat="43.971786" lon="4.896058">
        <ele>31.94550</ele>
        <time>2021-06-30T11:06:11Z</time>
      </trkpt>
      <trkpt lat="43.971451" lon="4.896188">
        <ele>30.80109</ele>
        <time>2021-06-30T11:06:12Z</time>
      </trkpt>
      <trkpt lat="43.971085" lon="4.896330">
        <ele>30.61340</ele>
        <time>2021-06-30T11:06:13Z</time>
      </trkpt>
      <trkpt lat="43.970718" lon="4.896474">
        <ele>30.77826</ele>
        <time>2021-06-30T11:06:14Z</time>
      </trkpt>
      <trkpt lat="43.970371" lon="4.896608">
        <ele>31.36572</ele>
        <time>2021-06-30T11:06:15Z</time>
      </trkpt>
      <trkpt lat="43.970020" lon="4.896746">
        <ele>30.91602</ele>
        <time>2021-06-30T11:06:16Z</time>
      </trkpt>
      <trkpt lat="43.969662" lon="4.896885">
        <ele>31.67950</ele>
        <time>2021-06-30T11:06:17Z</time>
      </trkpt>
      <trkpt lat="43.969303" lon="4.897024">
        <ele>32.79480</ele>
        <time>2021-06-30T11:06:18Z</time>
      </trkpt>
      <trkpt lat="43.968971" lon="4.897153">
        <ele>32.99860</ele>
        <time>2021-06-30T11:06:19Z</time>
      </trkpt>
      <trkpt lat="43.968636" lon="4.897284">
        <ele>34.29529</ele>
        <time>2021-06-30T11:06:20Z</time>
      </trkpt>
      <trkpt lat="43.968300" lon="4.897414">
        <ele>34.77515</ele>
        <time>2021-06-30T11:06:21Z</time>
      </trkpt>
      <trkpt lat="43.967934" lon="4.897562">
        <ele>35.42377</ele>
        <time>2021-06-30T11:06:22Z</time>
      </trkpt>
      <trkpt lat="43.967587" lon="4.897708">
        <ele>35.99786</ele>
        <time>2021-06-30T11:06:23Z</time>
      </trkpt>
      <trkpt lat="43.967251" lon="4.897876">
        <ele>36.06097</ele>
        <time>2021-06-30T11:06:24Z</time>
      </trkpt>
      <trkpt lat="43.966892" lon="4.898070">
        <ele>36.25281</ele>
        <time>2021-06-30T11:06:25Z</time>
      </trkpt>
      <trkpt lat="43.966892" lon="4.898070">
        <ele>36.24658</ele>
        <time>2021-06-30T11:06:26Z</time>
      </trkpt>
      <trkpt lat="43.966537" lon="4.898286">
        <ele>36.21790</ele>
        <time>2021-06-30T11:06:27Z</time>
      </trkpt>
      <trkpt lat="43.966236" lon="4.898478">
        <ele>36.79889</ele>
        <time>2021-06-30T11:06:28Z</time>
      </trkpt>
      <trkpt lat="43.965908" lon="4.898691">
        <ele>37.20294</ele>
        <time>2021-06-30T11:06:29Z</time>
      </trkpt>
      <trkpt lat="43.965580" lon="4.898908">
        <ele>37.12183</ele>
        <time>2021-06-30T11:06:30Z</time>
      </trkpt>
      <trkpt lat="43.965256" lon="4.899123">
        <ele>37.92810</ele>
        <time>2021-06-30T11:06:31Z</time>
      </trkpt>
      <trkpt lat="43.964931" lon="4.899337">
        <ele>38.78387</ele>
        <time>2021-06-30T11:06:32Z</time>
      </trkpt>
      <trkpt lat="43.964577" lon="4.899567">
        <ele>38.62994</ele>
        <time>2021-06-30T11:06:33Z</time>
      </trkpt>
      <trkpt lat="43.964233" lon="4.899790">
        <ele>39.42139</ele>
        <time>2021-06-30T11:06:34Z</time>
      </trkpt>
      <trkpt lat="43.963936" lon="4.899985">
        <ele>37.43359</ele>
        <time>2021-06-30T11:06:35Z</time>
      </trkpt>
      <trkpt lat="43.963619" lon="4.900191">
        <ele>37.51617</ele>
        <time>2021-06-30T11:06:36Z</time>
      </trkpt>
      <trkpt lat="43.963268" lon="4.900417">
        <ele>37.76001</ele>
        <time>2021-06-30T11:06:37Z</time>
      </trkpt>
      <trkpt lat="43.962963" lon="4.900617">
        <ele>37.58069</ele>
        <time>2021-06-30T11:06:38Z</time>
      </trkpt>
      <trkpt lat="43.962624" lon="4.900838">
        <ele>37.76337</ele>
        <time>2021-06-30T11:06:39Z</time>
      </trkpt>
      <trkpt lat="43.962311" lon="4.901040">
        <ele>37.14294</ele>
        <time>2021-06-30T11:06:40Z</time>
      </trkpt>
      <trkpt lat="43.961987" lon="4.901251">
        <ele>37.21637</ele>
        <time>2021-06-30T11:06:41Z</time>
      </trkpt>
      <trkpt lat="43.961655" lon="4.901467">
        <ele>37.47827</ele>
        <time>2021-06-30T11:06:42Z</time>
      </trkpt>
      <trkpt lat="43.961330" lon="4.901676">
        <ele>37.90326</ele>
        <time>2021-06-30T11:06:43Z</time>
      </trkpt>
      <trkpt lat="43.960999" lon="4.901892">
        <ele>37.50574</ele>
        <time>2021-06-30T11:06:44Z</time>
      </trkpt>
      <trkpt lat="43.960663" lon="4.902110">
        <ele>38.53015</ele>
        <time>2021-06-30T11:06:45Z</time>
      </trkpt>
      <trkpt lat="43.960320" lon="4.902334">
        <ele>38.56989</ele>
        <time>2021-06-30T11:06:46Z</time>
      </trkpt>
      <trkpt lat="43.960003" lon="4.902538">
        <ele>38.17773</ele>
        <time>2021-06-30T11:06:47Z</time>
      </trkpt>
      <trkpt lat="43.959663" lon="4.902758">
        <ele>38.56537</ele>
        <time>2021-06-30T11:06:48Z</time>
      </trkpt>
      <trkpt lat="43.959332" lon="4.902975">
        <ele>39.03314</ele>
        <time>2021-06-30T11:06:49Z</time>
      </trkpt>
      <trkpt lat="43.959019" lon="4.903178">
        <ele>38.76331</ele>
        <time>2021-06-30T11:06:50Z</time>
      </trkpt>
      <trkpt lat="43.958702" lon="4.903384">
        <ele>39.54150</ele>
        <time>2021-06-30T11:06:51Z</time>
      </trkpt>
      <trkpt lat="43.958374" lon="4.903596">
        <ele>39.38422</ele>
        <time>2021-06-30T11:06:52Z</time>
      </trkpt>
      <trkpt lat="43.958031" lon="4.903819">
        <ele>40.00476</ele>
        <time>2021-06-30T11:06:53Z</time>
      </trkpt>
      <trkpt lat="43.957703" lon="4.904034">
        <ele>40.32709</ele>
        <time>2021-06-30T11:06:54Z</time>
      </trkpt>
      <trkpt lat="43.957703" lon="4.904034">
        <ele>41.75964</ele>
        <time>2021-06-30T11:06:55Z</time>
      </trkpt>
      <trkpt lat="43.957371" lon="4.904250">
        <ele>42.12976</ele>
        <time>2021-06-30T11:06:56Z</time>
      </trkpt>
      <trkpt lat="43.957035" lon="4.904468">
        <ele>41.60254</ele>
        <time>2021-06-30T11:06:57Z</time>
      </trkpt>
      <trkpt lat="43.956707" lon="4.904682">
        <ele>41.97900</ele>
        <time>2021-06-30T11:06:58Z</time>
      </trkpt>
      <trkpt lat="43.956367" lon="4.904903">
        <ele>42.88110</ele>
        <time>2021-06-30T11:06:59Z</time>
      </trkpt>
      <trkpt lat="43.956062" lon="4.905101">
        <ele>43.11584</ele>
        <time>2021-06-30T11:07:00Z</time>
      </trkpt>
      <trkpt lat="43.955704" lon="4.905334">
        <ele>44.42981</ele>
        <time>2021-06-30T11:07:01Z</time>
      </trkpt>
      <trkpt lat="43.955406" lon="4.905528">
        <ele>44.24707</ele>
        <time>2021-06-30T11:07:02Z</time>
      </trkpt>
      <trkpt lat="43.955044" lon="4.905765">
        <ele>44.75391</ele>
        <time>2021-06-30T11:07:03Z</time>
      </trkpt>
      <trkpt lat="43.954750" lon="4.905956">
        <ele>42.74518</ele>
        <time>2021-06-30T11:07:04Z</time>
      </trkpt>
      <trkpt lat="43.954441" lon="4.906176">
        <ele>42.26007</ele>
        <time>2021-06-30T11:07:05Z</time>
      </trkpt>
      <trkpt lat="43.954094" lon="4.906429">
        <ele>43.06671</ele>
        <time>2021-06-30T11:07:06Z</time>
      </trkpt>
      <trkpt lat="43.953762" lon="4.906646">
        <ele>43.49646</ele>
        <time>2021-06-30T11:07:08Z</time>
      </trkpt>
      <trkpt lat="43.953442" lon="4.906856">
        <ele>43.98535</ele>
        <time>2021-06-30T11:07:08Z</time>
      </trkpt>
      <trkpt lat="43.953121" lon="4.907065">
        <ele>44.51465</ele>
        <time>2021-06-30T11:07:09Z</time>
      </trkpt>
      <trkpt lat="43.952785" lon="4.907284">
        <ele>45.01099</ele>
        <time>2021-06-30T11:07:10Z</time>
      </trkpt>
      <trkpt lat="43.952457" lon="4.907500">
        <ele>45.62793</ele>
        <time>2021-06-30T11:07:11Z</time>
      </trkpt>
      <trkpt lat="43.952141" lon="4.907708">
        <ele>47.17419</ele>
        <time>2021-06-30T11:07:12Z</time>
      </trkpt>
      <trkpt lat="43.951824" lon="4.907912">
        <ele>48.04846</ele>
        <time>2021-06-30T11:07:13Z</time>
      </trkpt>
      <trkpt lat="43.951485" lon="4.908136">
        <ele>48.97449</ele>
        <time>2021-06-30T11:07:14Z</time>
      </trkpt>
      <trkpt lat="43.951157" lon="4.908349">
        <ele>49.16107</ele>
        <time>2021-06-30T11:07:15Z</time>
      </trkpt>
      <trkpt lat="43.950821" lon="4.908569">
        <ele>49.82434</ele>
        <time>2021-06-30T11:07:16Z</time>
      </trkpt>
      <trkpt lat="43.950504" lon="4.908776">
        <ele>49.20825</ele>
        <time>2021-06-30T11:07:17Z</time>
      </trkpt>
      <trkpt lat="43.950184" lon="4.908989">
        <ele>49.35150</ele>
        <time>2021-06-30T11:07:18Z</time>
      </trkpt>
      <trkpt lat="43.949871" lon="4.909198">
        <ele>50.10022</ele>
        <time>2021-06-30T11:07:20Z</time>
      </trkpt>
      <trkpt lat="43.949566" lon="4.909403">
        <ele>50.08783</ele>
        <time>2021-06-30T11:07:20Z</time>
      </trkpt>
      <trkpt lat="43.949238" lon="4.909622">
        <ele>50.54395</ele>
        <time>2021-06-30T11:07:21Z</time>
      </trkpt>
      <trkpt lat="43.948910" lon="4.909824">
        <ele>51.70532</ele>
        <time>2021-06-30T11:07:22Z</time>
      </trkpt>
      <trkpt lat="43.948578" lon="4.910022">
        <ele>52.32324</ele>
        <time>2021-06-30T11:07:23Z</time>
      </trkpt>
      <trkpt lat="43.948238" lon="4.910204">
        <ele>51.93842</ele>
        <time>2021-06-30T11:07:24Z</time>
      </trkpt>
      <trkpt lat="43.947906" lon="4.910362">
        <ele>52.85022</ele>
        <time>2021-06-30T11:07:26Z</time>
      </trkpt>
      <trkpt lat="43.947559" lon="4.910510">
        <ele>52.72333</ele>
        <time>2021-06-30T11:07:26Z</time>
      </trkpt>
      <trkpt lat="43.947205" lon="4.910641">
        <ele>53.34558</ele>
        <time>2021-06-30T11:07:27Z</time>
      </trkpt>
      <trkpt lat="43.946835" lon="4.910755">
        <ele>53.41412</ele>
        <time>2021-06-30T11:07:29Z</time>
      </trkpt>
      <trkpt lat="43.946835" lon="4.910755">
        <ele>53.46338</ele>
        <time>2021-06-30T11:07:29Z</time>
      </trkpt>
      <trkpt lat="43.946453" lon="4.910857">
        <ele>52.95801</ele>
        <time>2021-06-30T11:07:30Z</time>
      </trkpt>
      <trkpt lat="43.946083" lon="4.910924">
        <ele>52.72479</ele>
        <time>2021-06-30T11:07:31Z</time>
      </trkpt>
      <trkpt lat="43.945721" lon="4.910980">
        <ele>52.74237</ele>
        <time>2021-06-30T11:07:32Z</time>
      </trkpt>
      <trkpt lat="43.945374" lon="4.911016">
        <ele>52.86462</ele>
        <time>2021-06-30T11:07:33Z</time>
      </trkpt>
      <trkpt lat="43.944973" lon="4.911058">
        <ele>52.38922</ele>
        <time>2021-06-30T11:07:34Z</time>
      </trkpt>
      <trkpt lat="43.944580" lon="4.911100">
        <ele>52.08124</ele>
        <time>2021-06-30T11:07:35Z</time>
      </trkpt>
      <trkpt lat="43.944218" lon="4.911138">
        <ele>52.08643</ele>
        <time>2021-06-30T11:07:36Z</time>
      </trkpt>
      <trkpt lat="43.943871" lon="4.911174">
        <ele>51.14764</ele>
        <time>2021-06-30T11:07:37Z</time>
      </trkpt>
      <trkpt lat="43.943565" lon="4.911206">
        <ele>50.78278</ele>
        <time>2021-06-30T11:07:38Z</time>
      </trkpt>
      <trkpt lat="43.943214" lon="4.911244">
        <ele>50.68433</ele>
        <time>2021-06-30T11:07:40Z</time>
      </trkpt>
      <trkpt lat="43.942875" lon="4.911279">
        <ele>50.28632</ele>
        <time>2021-06-30T11:07:40Z</time>
      </trkpt>
      <trkpt lat="43.942558" lon="4.911312">
        <ele>49.42664</ele>
        <time>2021-06-30T11:07:41Z</time>
      </trkpt>
      <trkpt lat="43.942211" lon="4.911347">
        <ele>48.63391</ele>
        <time>2021-06-30T11:07:42Z</time>
      </trkpt>
      <trkpt lat="43.941872" lon="4.911382">
        <ele>48.60254</ele>
        <time>2021-06-30T11:07:43Z</time>
      </trkpt>
      <trkpt lat="43.941559" lon="4.911414">
        <ele>48.35773</ele>
        <time>2021-06-30T11:07:44Z</time>
      </trkpt>
      <trkpt lat="43.941250" lon="4.911446">
        <ele>48.27338</ele>
        <time>2021-06-30T11:07:45Z</time>
      </trkpt>
      <trkpt lat="43.940903" lon="4.911481">
        <ele>48.11945</ele>
        <time>2021-06-30T11:07:46Z</time>
      </trkpt>
      <trkpt lat="43.940582" lon="4.911514">
        <ele>48.07629</ele>
        <time>2021-06-30T11:07:48Z</time>
      </trkpt>
      <trkpt lat="43.940243" lon="4.911549">
        <ele>47.61047</ele>
        <time>2021-06-30T11:07:48Z</time>
      </trkpt>
      <trkpt lat="43.939877" lon="4.911587">
        <ele>47.20154</ele>
        <time>2021-06-30T11:07:49Z</time>
      </trkpt>
      <trkpt lat="43.939522" lon="4.911623">
        <ele>47.60596</ele>
        <time>2021-06-30T11:07:50Z</time>
      </trkpt>
      <trkpt lat="43.939167" lon="4.911660">
        <ele>47.39551</ele>
        <time>2021-06-30T11:07:51Z</time>
      </trkpt>
      <trkpt lat="43.938828" lon="4.911697">
        <ele>45.58838</ele>
        <time>2021-06-30T11:07:52Z</time>
      </trkpt>
      <trkpt lat="43.938461" lon="4.911757">
        <ele>45.29840</ele>
        <time>2021-06-30T11:07:53Z</time>
      </trkpt>
      <trkpt lat="43.938087" lon="4.911804">
        <ele>45.23352</ele>
        <time>2021-06-30T11:07:54Z</time>
      </trkpt>
      <trkpt lat="43.937717" lon="4.911824">
        <ele>44.11774</ele>
        <time>2021-06-30T11:07:55Z</time>
      </trkpt>
      <trkpt lat="43.937370" lon="4.911864">
        <ele>43.82324</ele>
        <time>2021-06-30T11:07:56Z</time>
      </trkpt>
      <trkpt lat="43.937016" lon="4.911905">
        <ele>44.35504</ele>
        <time>2021-06-30T11:07:57Z</time>
      </trkpt>
      <trkpt lat="43.936646" lon="4.911947">
        <ele>45.05927</ele>
        <time>2021-06-30T11:07:58Z</time>
      </trkpt>
      <trkpt lat="43.936264" lon="4.911992">
        <ele>44.94446</ele>
        <time>2021-06-30T11:07:59Z</time>
      </trkpt>
      <trkpt lat="43.935913" lon="4.912032">
        <ele>43.06000</ele>
        <time>2021-06-30T11:08:00Z</time>
      </trkpt>
      <trkpt lat="43.935913" lon="4.912032">
        <ele>41.68866</ele>
        <time>2021-06-30T11:08:01Z</time>
      </trkpt>
      <trkpt lat="43.935539" lon="4.912076">
        <ele>42.02936</ele>
        <time>2021-06-30T11:08:02Z</time>
      </trkpt>
      <trkpt lat="43.935169" lon="4.912119">
        <ele>41.84955</ele>
        <time>2021-06-30T11:08:03Z</time>
      </trkpt>
      <trkpt lat="43.934795" lon="4.912162">
        <ele>40.71478</ele>
        <time>2021-06-30T11:08:04Z</time>
      </trkpt>
      <trkpt lat="43.934437" lon="4.912203">
        <ele>40.70721</ele>
        <time>2021-06-30T11:08:05Z</time>
      </trkpt>
      <trkpt lat="43.934097" lon="4.912242">
        <ele>40.78186</ele>
        <time>2021-06-30T11:08:06Z</time>
      </trkpt>
      <trkpt lat="43.933716" lon="4.912286">
        <ele>41.45917</ele>
        <time>2021-06-30T11:08:07Z</time>
      </trkpt>
      <trkpt lat="43.933376" lon="4.912324">
        <ele>41.52130</ele>
        <time>2021-06-30T11:08:08Z</time>
      </trkpt>
      <trkpt lat="43.933025" lon="4.912360">
        <ele>42.70605</ele>
        <time>2021-06-30T11:08:09Z</time>
      </trkpt>
      <trkpt lat="43.932686" lon="4.912395">
        <ele>43.62274</ele>
        <time>2021-06-30T11:08:10Z</time>
      </trkpt>
      <trkpt lat="43.932308" lon="4.912434">
        <ele>44.32391</ele>
        <time>2021-06-30T11:08:11Z</time>
      </trkpt>
      <trkpt lat="43.931950" lon="4.912471">
        <ele>44.18347</ele>
        <time>2021-06-30T11:08:13Z</time>
      </trkpt>
      <trkpt lat="43.931602" lon="4.912506">
        <ele>45.07446</ele>
        <time>2021-06-30T11:08:13Z</time>
      </trkpt>
      <trkpt lat="43.931263" lon="4.912541">
        <ele>45.62225</ele>
        <time>2021-06-30T11:08:14Z</time>
      </trkpt>
      <trkpt lat="43.930882" lon="4.912587">
        <ele>46.14819</ele>
        <time>2021-06-30T11:08:15Z</time>
      </trkpt>
      <trkpt lat="43.930531" lon="4.912629">
        <ele>46.76184</ele>
        <time>2021-06-30T11:08:16Z</time>
      </trkpt>
      <trkpt lat="43.930183" lon="4.912672">
        <ele>47.29425</ele>
        <time>2021-06-30T11:08:18Z</time>
      </trkpt>
      <trkpt lat="43.929829" lon="4.912715">
        <ele>46.65588</ele>
        <time>2021-06-30T11:08:18Z</time>
      </trkpt>
      <trkpt lat="43.929482" lon="4.912758">
        <ele>48.48669</ele>
        <time>2021-06-30T11:08:19Z</time>
      </trkpt>
      <trkpt lat="43.929108" lon="4.912805">
        <ele>49.59320</ele>
        <time>2021-06-30T11:08:20Z</time>
      </trkpt>
      <trkpt lat="43.928741" lon="4.912850">
        <ele>50.63538</ele>
        <time>2021-06-30T11:08:21Z</time>
      </trkpt>
      <trkpt lat="43.928391" lon="4.912894">
        <ele>51.07550</ele>
        <time>2021-06-30T11:08:23Z</time>
      </trkpt>
      <trkpt lat="43.928020" lon="4.912939">
        <ele>51.63153</ele>
        <time>2021-06-30T11:08:23Z</time>
      </trkpt>
      <trkpt lat="43.927654" lon="4.912985">
        <ele>54.40356</ele>
        <time>2021-06-30T11:08:24Z</time>
      </trkpt>
      <trkpt lat="43.927303" lon="4.913028">
        <ele>54.75580</ele>
        <time>2021-06-30T11:08:25Z</time>
      </trkpt>
      <trkpt lat="43.926941" lon="4.913071">
        <ele>56.02081</ele>
        <time>2021-06-30T11:08:26Z</time>
      </trkpt>
      <trkpt lat="43.926582" lon="4.913108">
        <ele>55.93658</ele>
        <time>2021-06-30T11:08:27Z</time>
      </trkpt>
      <trkpt lat="43.926231" lon="4.913145">
        <ele>55.07709</ele>
        <time>2021-06-30T11:08:28Z</time>
      </trkpt>
      <trkpt lat="43.925888" lon="4.913185">
        <ele>55.12341</ele>
        <time>2021-06-30T11:08:29Z</time>
      </trkpt>
      <trkpt lat="43.925541" lon="4.913225">
        <ele>55.61847</ele>
        <time>2021-06-30T11:08:30Z</time>
      </trkpt>
      <trkpt lat="43.925190" lon="4.913265">
        <ele>56.69037</ele>
        <time>2021-06-30T11:08:32Z</time>
      </trkpt>
      <trkpt lat="43.924828" lon="4.913307">
        <ele>58.37299</ele>
        <time>2021-06-30T11:08:32Z</time>
      </trkpt>
      <trkpt lat="43.924458" lon="4.913350">
        <ele>59.35785</ele>
        <time>2021-06-30T11:08:33Z</time>
      </trkpt>
      <trkpt lat="43.924103" lon="4.913391">
        <ele>59.36456</ele>
        <time>2021-06-30T11:08:34Z</time>
      </trkpt>
      <trkpt lat="43.923763" lon="4.913430">
        <ele>60.31146</ele>
        <time>2021-06-30T11:08:35Z</time>
      </trkpt>
      <trkpt lat="43.923763" lon="4.913430">
        <ele>61.41406</ele>
        <time>2021-06-30T11:08:36Z</time>
      </trkpt>
      <trkpt lat="43.923412" lon="4.913471">
        <ele>62.68280</ele>
        <time>2021-06-30T11:08:37Z</time>
      </trkpt>
      <trkpt lat="43.923061" lon="4.913511">
        <ele>62.64081</ele>
        <time>2021-06-30T11:08:38Z</time>
      </trkpt>
      <trkpt lat="43.922684" lon="4.913555">
        <ele>62.63452</ele>
        <time>2021-06-30T11:08:39Z</time>
      </trkpt>
      <trkpt lat="43.922337" lon="4.913595">
        <ele>63.25549</ele>
        <time>2021-06-30T11:08:40Z</time>
      </trkpt>
      <trkpt lat="43.921986" lon="4.913633">
        <ele>63.27557</ele>
        <time>2021-06-30T11:08:41Z</time>
      </trkpt>
      <trkpt lat="43.921608" lon="4.913669">
        <ele>63.83057</ele>
        <time>2021-06-30T11:08:42Z</time>
      </trkpt>
      <trkpt lat="43.921246" lon="4.913710">
        <ele>63.90363</ele>
        <time>2021-06-30T11:08:43Z</time>
      </trkpt>
      <trkpt lat="43.920879" lon="4.913755">
        <ele>63.88293</ele>
        <time>2021-06-30T11:08:44Z</time>
      </trkpt>
      <trkpt lat="43.920506" lon="4.913801">
        <ele>64.59723</ele>
        <time>2021-06-30T11:08:45Z</time>
      </trkpt>
      <trkpt lat="43.920143" lon="4.913843">
        <ele>64.59460</ele>
        <time>2021-06-30T11:08:46Z</time>
      </trkpt>
      <trkpt lat="43.919792" lon="4.913885">
        <ele>64.49664</ele>
        <time>2021-06-30T11:08:47Z</time>
      </trkpt>
      <trkpt lat="43.919418" lon="4.913930">
        <ele>62.76483</ele>
        <time>2021-06-30T11:08:48Z</time>
      </trkpt>
      <trkpt lat="43.919052" lon="4.913973">
        <ele>62.36865</ele>
        <time>2021-06-30T11:08:49Z</time>
      </trkpt>
      <trkpt lat="43.918697" lon="4.914016">
        <ele>62.16382</ele>
        <time>2021-06-30T11:08:50Z</time>
      </trkpt>
      <trkpt lat="43.918343" lon="4.914058">
        <ele>60.68939</ele>
        <time>2021-06-30T11:08:51Z</time>
      </trkpt>
      <trkpt lat="43.917988" lon="4.914100">
        <ele>60.31067</ele>
        <time>2021-06-30T11:08:52Z</time>
      </trkpt>
      <trkpt lat="43.917618" lon="4.914143">
        <ele>59.25909</ele>
        <time>2021-06-30T11:08:53Z</time>
      </trkpt>
      <trkpt lat="43.917263" lon="4.914184">
        <ele>58.47845</ele>
        <time>2021-06-30T11:08:54Z</time>
      </trkpt>
      <trkpt lat="43.916908" lon="4.914226">
        <ele>57.74677</ele>
        <time>2021-06-30T11:08:56Z</time>
      </trkpt>
      <trkpt lat="43.916531" lon="4.914270">
        <ele>57.04175</ele>
        <time>2021-06-30T11:08:56Z</time>
      </trkpt>
      <trkpt lat="43.916172" lon="4.914312">
        <ele>53.99902</ele>
        <time>2021-06-30T11:08:57Z</time>
      </trkpt>
      <trkpt lat="43.915794" lon="4.914348">
        <ele>53.21155</ele>
        <time>2021-06-30T11:08:58Z</time>
      </trkpt>
      <trkpt lat="43.915455" lon="4.914370">
        <ele>52.37756</ele>
        <time>2021-06-30T11:08:59Z</time>
      </trkpt>
      <trkpt lat="43.915108" lon="4.914392">
        <ele>50.87207</ele>
        <time>2021-06-30T11:09:00Z</time>
      </trkpt>
      <trkpt lat="43.914719" lon="4.914377">
        <ele>49.33929</ele>
        <time>2021-06-30T11:09:01Z</time>
      </trkpt>
      <trkpt lat="43.914356" lon="4.914352">
        <ele>48.68988</ele>
        <time>2021-06-30T11:09:02Z</time>
      </trkpt>
      <trkpt lat="43.914001" lon="4.914303">
        <ele>47.90076</ele>
        <time>2021-06-30T11:09:04Z</time>
      </trkpt>
      <trkpt lat="43.913673" lon="4.914257">
        <ele>44.51172</ele>
        <time>2021-06-30T11:09:05Z</time>
      </trkpt>
      <trkpt lat="43.913330" lon="4.914209">
        <ele>43.58722</ele>
        <time>2021-06-30T11:09:06Z</time>
      </trkpt>
      <trkpt lat="43.912968" lon="4.914139">
        <ele>42.20123</ele>
        <time>2021-06-30T11:09:07Z</time>
      </trkpt>
      <trkpt lat="43.912621" lon="4.914065">
        <ele>41.79926</ele>
        <time>2021-06-30T11:09:07Z</time>
      </trkpt>
      <trkpt lat="43.912273" lon="4.913978">
        <ele>42.33099</ele>
        <time>2021-06-30T11:09:08Z</time>
      </trkpt>
      <trkpt lat="43.911907" lon="4.913887">
        <ele>41.54199</ele>
        <time>2021-06-30T11:09:09Z</time>
      </trkpt>
      <trkpt lat="43.911907" lon="4.913887">
        <ele>42.01526</ele>
        <time>2021-06-30T11:09:10Z</time>
      </trkpt>
      <trkpt lat="43.911552" lon="4.913799">
        <ele>39.33301</ele>
        <time>2021-06-30T11:09:11Z</time>
      </trkpt>
      <trkpt lat="43.911186" lon="4.913708">
        <ele>39.35840</ele>
        <time>2021-06-30T11:09:12Z</time>
      </trkpt>
      <trkpt lat="43.910843" lon="4.913623">
        <ele>38.34808</ele>
        <time>2021-06-30T11:09:13Z</time>
      </trkpt>
      <trkpt lat="43.910503" lon="4.913538">
        <ele>38.57562</ele>
        <time>2021-06-30T11:09:15Z</time>
      </trkpt>
      <trkpt lat="43.910145" lon="4.913449">
        <ele>38.66968</ele>
        <time>2021-06-30T11:09:15Z</time>
      </trkpt>
      <trkpt lat="43.909775" lon="4.913357">
        <ele>37.35400</ele>
        <time>2021-06-30T11:09:16Z</time>
      </trkpt>
      <trkpt lat="43.909416" lon="4.913268">
        <ele>34.79761</ele>
        <time>2021-06-30T11:09:18Z</time>
      </trkpt>
      <trkpt lat="43.909035" lon="4.913173">
        <ele>35.09137</ele>
        <time>2021-06-30T11:09:18Z</time>
      </trkpt>
      <trkpt lat="43.908676" lon="4.913084">
        <ele>34.62250</ele>
        <time>2021-06-30T11:09:19Z</time>
      </trkpt>
      <trkpt lat="43.908321" lon="4.912995">
        <ele>33.77045</ele>
        <time>2021-06-30T11:09:20Z</time>
      </trkpt>
      <trkpt lat="43.907951" lon="4.912904">
        <ele>33.18365</ele>
        <time>2021-06-30T11:09:21Z</time>
      </trkpt>
      <trkpt lat="43.907604" lon="4.912817">
        <ele>33.15045</ele>
        <time>2021-06-30T11:09:22Z</time>
      </trkpt>
      <trkpt lat="43.907261" lon="4.912732">
        <ele>34.29004</ele>
        <time>2021-06-30T11:09:23Z</time>
      </trkpt>
      <trkpt lat="43.906879" lon="4.912637">
        <ele>34.94708</ele>
        <time>2021-06-30T11:09:24Z</time>
      </trkpt>
      <trkpt lat="43.906532" lon="4.912551">
        <ele>35.03503</ele>
        <time>2021-06-30T11:09:26Z</time>
      </trkpt>
      <trkpt lat="43.906181" lon="4.912463">
        <ele>34.69989</ele>
        <time>2021-06-30T11:09:26Z</time>
      </trkpt>
      <trkpt lat="43.905830" lon="4.912378">
        <ele>35.51776</ele>
        <time>2021-06-30T11:09:28Z</time>
      </trkpt>
      <trkpt lat="43.905491" lon="4.912298">
        <ele>35.29248</ele>
        <time>2021-06-30T11:09:28Z</time>
      </trkpt>
      <trkpt lat="43.905132" lon="4.912213">
        <ele>34.40509</ele>
        <time>2021-06-30T11:09:30Z</time>
      </trkpt>
      <trkpt lat="43.904785" lon="4.912131">
        <ele>33.56207</ele>
        <time>2021-06-30T11:09:30Z</time>
      </trkpt>
      <trkpt lat="43.904427" lon="4.912064">
        <ele>33.54767</ele>
        <time>2021-06-30T11:09:31Z</time>
      </trkpt>
      <trkpt lat="43.904076" lon="4.912016">
        <ele>35.26477</ele>
        <time>2021-06-30T11:09:32Z</time>
      </trkpt>
      <trkpt lat="43.903706" lon="4.911985">
        <ele>36.10297</ele>
        <time>2021-06-30T11:09:34Z</time>
      </trkpt>
      <trkpt lat="43.903332" lon="4.911973">
        <ele>36.56500</ele>
        <time>2021-06-30T11:09:34Z</time>
      </trkpt>
      <trkpt lat="43.902988" lon="4.911994">
        <ele>36.02734</ele>
        <time>2021-06-30T11:09:36Z</time>
      </trkpt>
      <trkpt lat="43.902645" lon="4.912025">
        <ele>35.85095</ele>
        <time>2021-06-30T11:09:36Z</time>
      </trkpt>
      <trkpt lat="43.902287" lon="4.912082">
        <ele>35.74298</ele>
        <time>2021-06-30T11:09:37Z</time>
      </trkpt>
      <trkpt lat="43.901947" lon="4.912139">
        <ele>36.04224</ele>
        <time>2021-06-30T11:09:38Z</time>
      </trkpt>
      <trkpt lat="43.901588" lon="4.912230">
        <ele>35.70837</ele>
        <time>2021-06-30T11:09:39Z</time>
      </trkpt>
      <trkpt lat="43.901215" lon="4.912353">
        <ele>36.39758</ele>
        <time>2021-06-30T11:09:40Z</time>
      </trkpt>
      <trkpt lat="43.900871" lon="4.912478">
        <ele>36.36597</ele>
        <time>2021-06-30T11:09:41Z</time>
      </trkpt>
      <trkpt lat="43.900871" lon="4.912478">
        <ele>39.47485</ele>
        <time>2021-06-30T11:09:42Z</time>
      </trkpt>
      <trkpt lat="43.900543" lon="4.912615">
        <ele>38.92981</ele>
        <time>2021-06-30T11:09:43Z</time>
      </trkpt>
      <trkpt lat="43.900200" lon="4.912784">
        <ele>38.30688</ele>
        <time>2021-06-30T11:09:44Z</time>
      </trkpt>
      <trkpt lat="43.899895" lon="4.912964">
        <ele>38.48425</ele>
        <time>2021-06-30T11:09:46Z</time>
      </trkpt>
      <trkpt lat="43.899548" lon="4.913180">
        <ele>37.11310</ele>
        <time>2021-06-30T11:09:46Z</time>
      </trkpt>
      <trkpt lat="43.899185" lon="4.913437">
        <ele>37.58203</ele>
        <time>2021-06-30T11:09:47Z</time>
      </trkpt>
      <trkpt lat="43.898857" lon="4.913689">
        <ele>33.08911</ele>
        <time>2021-06-30T11:09:49Z</time>
      </trkpt>
      <trkpt lat="43.898537" lon="4.913939">
        <ele>31.11066</ele>
        <time>2021-06-30T11:09:49Z</time>
      </trkpt>
      <trkpt lat="43.898205" lon="4.914221">
        <ele>30.93768</ele>
        <time>2021-06-30T11:09:50Z</time>
      </trkpt>
      <trkpt lat="43.897903" lon="4.914516">
        <ele>30.50732</ele>
        <time>2021-06-30T11:09:51Z</time>
      </trkpt>
      <trkpt lat="43.897606" lon="4.914837">
        <ele>30.98688</ele>
        <time>2021-06-30T11:09:52Z</time>
      </trkpt>
      <trkpt lat="43.897343" lon="4.915148">
        <ele>30.84698</ele>
        <time>2021-06-30T11:09:54Z</time>
      </trkpt>
      <trkpt lat="43.897060" lon="4.915513">
        <ele>30.90149</ele>
        <time>2021-06-30T11:09:54Z</time>
      </trkpt>
      <trkpt lat="43.896812" lon="4.915848">
        <ele>29.68750</ele>
        <time>2021-06-30T11:09:55Z</time>
      </trkpt>
      <trkpt lat="43.896553" lon="4.916221">
        <ele>30.03473</ele>
        <time>2021-06-30T11:09:57Z</time>
      </trkpt>
      <trkpt lat="43.896297" lon="4.916595">
        <ele>30.34326</ele>
        <time>2021-06-30T11:09:57Z</time>
      </trkpt>
      <trkpt lat="43.896057" lon="4.916945">
        <ele>31.96533</ele>
        <time>2021-06-30T11:09:59Z</time>
      </trkpt>
      <trkpt lat="43.895824" lon="4.917283">
        <ele>32.96625</ele>
        <time>2021-06-30T11:09:59Z</time>
      </trkpt>
      <trkpt lat="43.895569" lon="4.917660">
        <ele>34.41571</ele>
        <time>2021-06-30T11:10:01Z</time>
      </trkpt>
      <trkpt lat="43.895321" lon="4.918015">
        <ele>34.78290</ele>
        <time>2021-06-30T11:10:01Z</time>
      </trkpt>
      <trkpt lat="43.895069" lon="4.918360">
        <ele>35.02875</ele>
        <time>2021-06-30T11:10:02Z</time>
      </trkpt>
      <trkpt lat="43.894787" lon="4.918715">
        <ele>34.77399</ele>
        <time>2021-06-30T11:10:04Z</time>
      </trkpt>
      <trkpt lat="43.894535" lon="4.919021">
        <ele>35.27728</ele>
        <time>2021-06-30T11:10:05Z</time>
      </trkpt>
      <trkpt lat="43.894264" lon="4.919325">
        <ele>36.59515</ele>
        <time>2021-06-30T11:10:05Z</time>
      </trkpt>
      <trkpt lat="43.893955" lon="4.919629">
        <ele>37.85510</ele>
        <time>2021-06-30T11:10:06Z</time>
      </trkpt>
      <trkpt lat="43.893658" lon="4.919911">
        <ele>39.35876</ele>
        <time>2021-06-30T11:10:07Z</time>
      </trkpt>
      <trkpt lat="43.893356" lon="4.920163">
        <ele>40.92810</ele>
        <time>2021-06-30T11:10:08Z</time>
      </trkpt>
      <trkpt lat="43.893059" lon="4.920400">
        <ele>41.37012</ele>
        <time>2021-06-30T11:10:10Z</time>
      </trkpt>
      <trkpt lat="43.892738" lon="4.920619">
        <ele>42.54327</ele>
        <time>2021-06-30T11:10:10Z</time>
      </trkpt>
      <trkpt lat="43.892414" lon="4.920822">
        <ele>43.03961</ele>
        <time>2021-06-30T11:10:11Z</time>
      </trkpt>
      <trkpt lat="43.892075" lon="4.921012">
        <ele>44.06818</ele>
        <time>2021-06-30T11:10:12Z</time>
      </trkpt>
      <trkpt lat="43.891743" lon="4.921178">
        <ele>43.72546</ele>
        <time>2021-06-30T11:10:13Z</time>
      </trkpt>
      <trkpt lat="43.891743" lon="4.921178">
        <ele>43.58301</ele>
        <time>2021-06-30T11:10:14Z</time>
      </trkpt>
      <trkpt lat="43.891026" lon="4.921476">
        <ele>44.45020</ele>
        <time>2021-06-30T11:10:15Z</time>
      </trkpt>
      <trkpt lat="43.891026" lon="4.921476">
        <ele>44.07507</ele>
        <time>2021-06-30T11:10:16Z</time>
      </trkpt>
      <trkpt lat="43.890694" lon="4.921591">
        <ele>41.52917</ele>
        <time>2021-06-30T11:10:17Z</time>
      </trkpt>
      <trkpt lat="43.890347" lon="4.921688">
        <ele>41.89398</ele>
        <time>2021-06-30T11:10:18Z</time>
      </trkpt>
      <trkpt lat="43.889992" lon="4.921784">
        <ele>42.49133</ele>
        <time>2021-06-30T11:10:19Z</time>
      </trkpt>
      <trkpt lat="43.889622" lon="4.921884">
        <ele>42.34814</ele>
        <time>2021-06-30T11:10:20Z</time>
      </trkpt>
      <trkpt lat="43.889248" lon="4.921980">
        <ele>43.00427</ele>
        <time>2021-06-30T11:10:21Z</time>
      </trkpt>
      <trkpt lat="43.888916" lon="4.922066">
        <ele>42.98901</ele>
        <time>2021-06-30T11:10:22Z</time>
      </trkpt>
      <trkpt lat="43.888523" lon="4.922163">
        <ele>44.15015</ele>
        <time>2021-06-30T11:10:23Z</time>
      </trkpt>
      <trkpt lat="43.888165" lon="4.922253">
        <ele>43.95190</ele>
        <time>2021-06-30T11:10:24Z</time>
      </trkpt>
      <trkpt lat="43.887836" lon="4.922345">
        <ele>43.86877</ele>
        <time>2021-06-30T11:10:25Z</time>
      </trkpt>
      <trkpt lat="43.887474" lon="4.922451">
        <ele>44.79071</ele>
        <time>2021-06-30T11:10:26Z</time>
      </trkpt>
      <trkpt lat="43.887104" lon="4.922565">
        <ele>45.34448</ele>
        <time>2021-06-30T11:10:27Z</time>
      </trkpt>
      <trkpt lat="43.886742" lon="4.922691">
        <ele>45.63776</ele>
        <time>2021-06-30T11:10:28Z</time>
      </trkpt>
      <trkpt lat="43.886402" lon="4.922812">
        <ele>45.75311</ele>
        <time>2021-06-30T11:10:29Z</time>
      </trkpt>
      <trkpt lat="43.886078" lon="4.922928">
        <ele>45.60413</ele>
        <time>2021-06-30T11:10:30Z</time>
      </trkpt>
      <trkpt lat="43.885693" lon="4.923078">
        <ele>46.14453</ele>
        <time>2021-06-30T11:10:31Z</time>
      </trkpt>
      <trkpt lat="43.885357" lon="4.923222">
        <ele>46.17688</ele>
        <time>2021-06-30T11:10:32Z</time>
      </trkpt>
      <trkpt lat="43.885010" lon="4.923375">
        <ele>46.30756</ele>
        <time>2021-06-30T11:10:33Z</time>
      </trkpt>
      <trkpt lat="43.884651" lon="4.923535">
        <ele>46.38696</ele>
        <time>2021-06-30T11:10:34Z</time>
      </trkpt>
      <trkpt lat="43.884327" lon="4.923694">
        <ele>46.45013</ele>
        <time>2021-06-30T11:10:35Z</time>
      </trkpt>
      <trkpt lat="43.883987" lon="4.923867">
        <ele>46.59698</ele>
        <time>2021-06-30T11:10:36Z</time>
      </trkpt>
      <trkpt lat="43.883652" lon="4.924042">
        <ele>46.94653</ele>
        <time>2021-06-30T11:10:37Z</time>
      </trkpt>
      <trkpt lat="43.883335" lon="4.924227">
        <ele>47.16333</ele>
        <time>2021-06-30T11:10:38Z</time>
      </trkpt>
      <trkpt lat="43.883011" lon="4.924420">
        <ele>47.03394</ele>
        <time>2021-06-30T11:10:39Z</time>
      </trkpt>
      <trkpt lat="43.882694" lon="4.924636">
        <ele>47.30408</ele>
        <time>2021-06-30T11:10:40Z</time>
      </trkpt>
      <trkpt lat="43.882374" lon="4.924871">
        <ele>47.40961</ele>
        <time>2021-06-30T11:10:41Z</time>
      </trkpt>
      <trkpt lat="43.882374" lon="4.924871">
        <ele>47.58521</ele>
        <time>2021-06-30T11:10:42Z</time>
      </trkpt>
      <trkpt lat="43.882042" lon="4.925134">
        <ele>47.23737</ele>
        <time>2021-06-30T11:10:43Z</time>
      </trkpt>
      <trkpt lat="43.881744" lon="4.925405">
        <ele>46.97223</ele>
        <time>2021-06-30T11:10:44Z</time>
      </trkpt>
      <trkpt lat="43.881447" lon="4.925694">
        <ele>46.78638</ele>
        <time>2021-06-30T11:10:45Z</time>
      </trkpt>
      <trkpt lat="43.881145" lon="4.926006">
        <ele>45.55804</ele>
        <time>2021-06-30T11:10:46Z</time>
      </trkpt>
      <trkpt lat="43.880867" lon="4.926325">
        <ele>45.45685</ele>
        <time>2021-06-30T11:10:47Z</time>
      </trkpt>
      <trkpt lat="43.880611" lon="4.926637">
        <ele>44.93622</ele>
        <time>2021-06-30T11:10:48Z</time>
      </trkpt>
      <trkpt lat="43.880360" lon="4.926982">
        <ele>43.89038</ele>
        <time>2021-06-30T11:10:49Z</time>
      </trkpt>
      <trkpt lat="43.880085" lon="4.927376">
        <ele>43.46411</ele>
        <time>2021-06-30T11:10:50Z</time>
      </trkpt>
      <trkpt lat="43.879864" lon="4.927725">
        <ele>43.10693</ele>
        <time>2021-06-30T11:10:51Z</time>
      </trkpt>
      <trkpt lat="43.879616" lon="4.928141">
        <ele>42.35309</ele>
        <time>2021-06-30T11:10:52Z</time>
      </trkpt>
      <trkpt lat="43.879398" lon="4.928561">
        <ele>42.11615</ele>
        <time>2021-06-30T11:10:53Z</time>
      </trkpt>
      <trkpt lat="43.879208" lon="4.928947">
        <ele>42.16187</ele>
        <time>2021-06-30T11:10:54Z</time>
      </trkpt>
      <trkpt lat="43.879002" lon="4.929392">
        <ele>42.09637</ele>
        <time>2021-06-30T11:10:55Z</time>
      </trkpt>
      <trkpt lat="43.878826" lon="4.929824">
        <ele>42.47345</ele>
        <time>2021-06-30T11:10:56Z</time>
      </trkpt>
      <trkpt lat="43.878670" lon="4.930243">
        <ele>42.82886</ele>
        <time>2021-06-30T11:10:57Z</time>
      </trkpt>
      <trkpt lat="43.878525" lon="4.930686">
        <ele>42.52997</ele>
        <time>2021-06-30T11:10:58Z</time>
      </trkpt>
      <trkpt lat="43.878384" lon="4.931137">
        <ele>43.26440</ele>
        <time>2021-06-30T11:10:59Z</time>
      </trkpt>
      <trkpt lat="43.878262" lon="4.931611">
        <ele>43.77789</ele>
        <time>2021-06-30T11:11:00Z</time>
      </trkpt>
      <trkpt lat="43.878139" lon="4.932106">
        <ele>44.13379</ele>
        <time>2021-06-30T11:11:01Z</time>
      </trkpt>
      <trkpt lat="43.878029" lon="4.932562">
        <ele>43.89618</ele>
        <time>2021-06-30T11:11:02Z</time>
      </trkpt>
      <trkpt lat="43.877934" lon="4.933037">
        <ele>43.64606</ele>
        <time>2021-06-30T11:11:03Z</time>
      </trkpt>
      <trkpt lat="43.877838" lon="4.933501">
        <ele>43.58673</ele>
        <time>2021-06-30T11:11:04Z</time>
      </trkpt>
      <trkpt lat="43.877766" lon="4.933951">
        <ele>44.91498</ele>
        <time>2021-06-30T11:11:05Z</time>
      </trkpt>
      <trkpt lat="43.877686" lon="4.934462">
        <ele>44.87482</ele>
        <time>2021-06-30T11:11:06Z</time>
      </trkpt>
      <trkpt lat="43.877609" lon="4.934962">
        <ele>44.91803</ele>
        <time>2021-06-30T11:11:07Z</time>
      </trkpt>
      <trkpt lat="43.877544" lon="4.935448">
        <ele>44.20422</ele>
        <time>2021-06-30T11:11:08Z</time>
      </trkpt>
      <trkpt lat="43.877476" lon="4.935949">
        <ele>44.15106</ele>
        <time>2021-06-30T11:11:09Z</time>
      </trkpt>
      <trkpt lat="43.877399" lon="4.936475">
        <ele>44.83148</ele>
        <time>2021-06-30T11:11:10Z</time>
      </trkpt>
      <trkpt lat="43.877323" lon="4.936970">
        <ele>44.19525</ele>
        <time>2021-06-30T11:11:11Z</time>
      </trkpt>
      <trkpt lat="43.877247" lon="4.937425">
        <ele>44.60596</ele>
        <time>2021-06-30T11:11:12Z</time>
      </trkpt>
      <trkpt lat="43.877159" lon="4.937923">
        <ele>44.72839</ele>
        <time>2021-06-30T11:11:13Z</time>
      </trkpt>
      <trkpt lat="43.877075" lon="4.938403">
        <ele>44.77490</ele>
        <time>2021-06-30T11:11:14Z</time>
      </trkpt>
      <trkpt lat="43.877075" lon="4.938403">
        <ele>44.74237</ele>
        <time>2021-06-30T11:11:15Z</time>
      </trkpt>
      <trkpt lat="43.876991" lon="4.938870">
        <ele>44.77136</ele>
        <time>2021-06-30T11:11:16Z</time>
      </trkpt>
      <trkpt lat="43.876900" lon="4.939390">
        <ele>44.48541</ele>
        <time>2021-06-30T11:11:17Z</time>
      </trkpt>
      <trkpt lat="43.876812" lon="4.939879">
        <ele>44.30432</ele>
        <time>2021-06-30T11:11:18Z</time>
      </trkpt>
      <trkpt lat="43.876724" lon="4.940315">
        <ele>44.60846</ele>
        <time>2021-06-30T11:11:19Z</time>
      </trkpt>
      <trkpt lat="43.876602" lon="4.940844">
        <ele>44.98920</ele>
        <time>2021-06-30T11:11:20Z</time>
      </trkpt>
      <trkpt lat="43.876488" lon="4.941347">
        <ele>45.12805</ele>
        <time>2021-06-30T11:11:21Z</time>
      </trkpt>
      <trkpt lat="43.876377" lon="4.941840">
        <ele>44.49414</ele>
        <time>2021-06-30T11:11:22Z</time>
      </trkpt>
      <trkpt lat="43.876263" lon="4.942328">
        <ele>44.56812</ele>
        <time>2021-06-30T11:11:23Z</time>
      </trkpt>
      <trkpt lat="43.876144" lon="4.942802">
        <ele>44.10876</ele>
        <time>2021-06-30T11:11:24Z</time>
      </trkpt>
      <trkpt lat="43.876053" lon="4.943246">
        <ele>44.81567</ele>
        <time>2021-06-30T11:11:25Z</time>
      </trkpt>
      <trkpt lat="43.875938" lon="4.943696">
        <ele>45.31110</ele>
        <time>2021-06-30T11:11:26Z</time>
      </trkpt>
      <trkpt lat="43.875816" lon="4.944199">
        <ele>45.36090</ele>
        <time>2021-06-30T11:11:27Z</time>
      </trkpt>
      <trkpt lat="43.875698" lon="4.944652">
        <ele>43.45258</ele>
        <time>2021-06-30T11:11:28Z</time>
      </trkpt>
      <trkpt lat="43.875565" lon="4.945112">
        <ele>43.46497</ele>
        <time>2021-06-30T11:11:29Z</time>
      </trkpt>
      <trkpt lat="43.875439" lon="4.945581">
        <ele>44.12958</ele>
        <time>2021-06-30T11:11:30Z</time>
      </trkpt>
      <trkpt lat="43.875298" lon="4.946062">
        <ele>43.88312</ele>
        <time>2021-06-30T11:11:31Z</time>
      </trkpt>
      <trkpt lat="43.875160" lon="4.946522">
        <ele>43.04022</ele>
        <time>2021-06-30T11:11:32Z</time>
      </trkpt>
      <trkpt lat="43.875019" lon="4.946999">
        <ele>43.15710</ele>
        <time>2021-06-30T11:11:33Z</time>
      </trkpt>
      <trkpt lat="43.874874" lon="4.947449">
        <ele>43.17969</ele>
        <time>2021-06-30T11:11:34Z</time>
      </trkpt>
      <trkpt lat="43.874725" lon="4.947919">
        <ele>43.93933</ele>
        <time>2021-06-30T11:11:35Z</time>
      </trkpt>
      <trkpt lat="43.874573" lon="4.948394">
        <ele>44.05145</ele>
        <time>2021-06-30T11:11:36Z</time>
      </trkpt>
      <trkpt lat="43.874424" lon="4.948842">
        <ele>44.68958</ele>
        <time>2021-06-30T11:11:37Z</time>
      </trkpt>
      <trkpt lat="43.874264" lon="4.949299">
        <ele>44.67645</ele>
        <time>2021-06-30T11:11:38Z</time>
      </trkpt>
      <trkpt lat="43.874107" lon="4.949755">
        <ele>44.65247</ele>
        <time>2021-06-30T11:11:39Z</time>
      </trkpt>
      <trkpt lat="43.873943" lon="4.950198">
        <ele>45.43707</ele>
        <time>2021-06-30T11:11:40Z</time>
      </trkpt>
      <trkpt lat="43.873772" lon="4.950668">
        <ele>46.18073</ele>
        <time>2021-06-30T11:11:41Z</time>
      </trkpt>
      <trkpt lat="43.873608" lon="4.951107">
        <ele>46.20660</ele>
        <time>2021-06-30T11:11:42Z</time>
      </trkpt>
      <trkpt lat="43.873608" lon="4.951107">
        <ele>46.48376</ele>
        <time>2021-06-30T11:11:43Z</time>
      </trkpt>
      <trkpt lat="43.873451" lon="4.951528">
        <ele>46.85791</ele>
        <time>2021-06-30T11:11:44Z</time>
      </trkpt>
      <trkpt lat="43.873276" lon="4.951980">
        <ele>46.38116</ele>
        <time>2021-06-30T11:11:45Z</time>
      </trkpt>
      <trkpt lat="43.873100" lon="4.952424">
        <ele>47.32886</ele>
        <time>2021-06-30T11:11:46Z</time>
      </trkpt>
      <trkpt lat="43.872936" lon="4.952841">
        <ele>48.08228</ele>
        <time>2021-06-30T11:11:47Z</time>
      </trkpt>
      <trkpt lat="43.872761" lon="4.953287">
        <ele>47.02191</ele>
        <time>2021-06-30T11:11:48Z</time>
      </trkpt>
      <trkpt lat="43.872578" lon="4.953743">
        <ele>47.36139</ele>
        <time>2021-06-30T11:11:49Z</time>
      </trkpt>
      <trkpt lat="43.872414" lon="4.954159">
        <ele>47.04150</ele>
        <time>2021-06-30T11:11:50Z</time>
      </trkpt>
      <trkpt lat="43.872238" lon="4.954593">
        <ele>47.17975</ele>
        <time>2021-06-30T11:11:51Z</time>
      </trkpt>
      <trkpt lat="43.872066" lon="4.955018">
        <ele>46.81647</ele>
        <time>2021-06-30T11:11:52Z</time>
      </trkpt>
      <trkpt lat="43.871880" lon="4.955472">
        <ele>46.59143</ele>
        <time>2021-06-30T11:11:53Z</time>
      </trkpt>
      <trkpt lat="43.871716" lon="4.955886">
        <ele>46.04358</ele>
        <time>2021-06-30T11:11:54Z</time>
      </trkpt>
      <trkpt lat="43.871529" lon="4.956339">
        <ele>46.01965</ele>
        <time>2021-06-30T11:11:55Z</time>
      </trkpt>
      <trkpt lat="43.871368" lon="4.956739">
        <ele>45.68512</ele>
        <time>2021-06-30T11:11:56Z</time>
      </trkpt>
      <trkpt lat="43.871185" lon="4.957196">
        <ele>45.66003</ele>
        <time>2021-06-30T11:11:57Z</time>
      </trkpt>
      <trkpt lat="43.871006" lon="4.957636">
        <ele>44.40967</ele>
        <time>2021-06-30T11:11:58Z</time>
      </trkpt>
      <trkpt lat="43.870834" lon="4.958063">
        <ele>44.44275</ele>
        <time>2021-06-30T11:11:59Z</time>
      </trkpt>
      <trkpt lat="43.870667" lon="4.958476">
        <ele>45.22760</ele>
        <time>2021-06-30T11:12:00Z</time>
      </trkpt>
      <trkpt lat="43.870480" lon="4.958935">
        <ele>44.96802</ele>
        <time>2021-06-30T11:12:01Z</time>
      </trkpt>
      <trkpt lat="43.870300" lon="4.959381">
        <ele>45.05554</ele>
        <time>2021-06-30T11:12:02Z</time>
      </trkpt>
      <trkpt lat="43.870140" lon="4.959779">
        <ele>45.07617</ele>
        <time>2021-06-30T11:12:03Z</time>
      </trkpt>
      <trkpt lat="43.869965" lon="4.960215">
        <ele>45.58868</ele>
        <time>2021-06-30T11:12:04Z</time>
      </trkpt>
      <trkpt lat="43.869778" lon="4.960676">
        <ele>45.63068</ele>
        <time>2021-06-30T11:12:05Z</time>
      </trkpt>
      <trkpt lat="43.869602" lon="4.961103">
        <ele>46.30707</ele>
        <time>2021-06-30T11:12:06Z</time>
      </trkpt>
      <trkpt lat="43.869434" lon="4.961525">
        <ele>46.58472</ele>
        <time>2021-06-30T11:12:07Z</time>
      </trkpt>
      <trkpt lat="43.869267" lon="4.961936">
        <ele>46.63824</ele>
        <time>2021-06-30T11:12:08Z</time>
      </trkpt>
      <trkpt lat="43.869091" lon="4.962373">
        <ele>47.95532</ele>
        <time>2021-06-30T11:12:09Z</time>
      </trkpt>
      <trkpt lat="43.868919" lon="4.962794">
        <ele>47.51721</ele>
        <time>2021-06-30T11:12:10Z</time>
      </trkpt>
      <trkpt lat="43.868732" lon="4.963257">
        <ele>47.46002</ele>
        <time>2021-06-30T11:12:11Z</time>
      </trkpt>
      <trkpt lat="43.868557" lon="4.963694">
        <ele>48.62128</ele>
        <time>2021-06-30T11:12:12Z</time>
      </trkpt>
      <trkpt lat="43.868385" lon="4.964119">
        <ele>48.63379</ele>
        <time>2021-06-30T11:12:13Z</time>
      </trkpt>
      <trkpt lat="43.868210" lon="4.964556">
        <ele>48.61047</ele>
        <time>2021-06-30T11:12:14Z</time>
      </trkpt>
      <trkpt lat="43.868031" lon="4.964981">
        <ele>48.92834</ele>
        <time>2021-06-30T11:12:15Z</time>
      </trkpt>
      <trkpt lat="43.867847" lon="4.965413">
        <ele>49.31287</ele>
        <time>2021-06-30T11:12:16Z</time>
      </trkpt>
      <trkpt lat="43.867668" lon="4.965835">
        <ele>48.99799</ele>
        <time>2021-06-30T11:12:17Z</time>
      </trkpt>
      <trkpt lat="43.867477" lon="4.966256">
        <ele>49.32349</ele>
        <time>2021-06-30T11:12:18Z</time>
      </trkpt>
      <trkpt lat="43.867290" lon="4.966667">
        <ele>48.62512</ele>
        <time>2021-06-30T11:12:19Z</time>
      </trkpt>
      <trkpt lat="43.867290" lon="4.966667">
        <ele>49.67480</ele>
        <time>2021-06-30T11:12:20Z</time>
      </trkpt>
      <trkpt lat="43.867085" lon="4.967118">
        <ele>50.28088</ele>
        <time>2021-06-30T11:12:21Z</time>
      </trkpt>
      <trkpt lat="43.866871" lon="4.967543">
        <ele>51.15936</ele>
        <time>2021-06-30T11:12:22Z</time>
      </trkpt>
      <trkpt lat="43.866653" lon="4.967974">
        <ele>51.15649</ele>
        <time>2021-06-30T11:12:23Z</time>
      </trkpt>
      <trkpt lat="43.866421" lon="4.968396">
        <ele>50.13770</ele>
        <time>2021-06-30T11:12:24Z</time>
      </trkpt>
      <trkpt lat="43.866207" lon="4.968780">
        <ele>49.00818</ele>
        <time>2021-06-30T11:12:25Z</time>
      </trkpt>
      <trkpt lat="43.865978" lon="4.969176">
        <ele>49.17468</ele>
        <time>2021-06-30T11:12:26Z</time>
      </trkpt>
      <trkpt lat="43.865715" lon="4.969595">
        <ele>49.09094</ele>
        <time>2021-06-30T11:12:27Z</time>
      </trkpt>
      <trkpt lat="43.865463" lon="4.969968">
        <ele>49.21399</ele>
        <time>2021-06-30T11:12:28Z</time>
      </trkpt>
      <trkpt lat="43.865227" lon="4.970319">
        <ele>48.61371</ele>
        <time>2021-06-30T11:12:29Z</time>
      </trkpt>
      <trkpt lat="43.864979" lon="4.970660">
        <ele>48.81232</ele>
        <time>2021-06-30T11:12:30Z</time>
      </trkpt>
      <trkpt lat="43.864719" lon="4.971015">
        <ele>48.64313</ele>
        <time>2021-06-30T11:12:31Z</time>
      </trkpt>
      <trkpt lat="43.864456" lon="4.971339">
        <ele>48.35132</ele>
        <time>2021-06-30T11:12:32Z</time>
      </trkpt>
      <trkpt lat="43.864178" lon="4.971684">
        <ele>47.85913</ele>
        <time>2021-06-30T11:12:33Z</time>
      </trkpt>
      <trkpt lat="43.863914" lon="4.971991">
        <ele>47.13776</ele>
        <time>2021-06-30T11:12:34Z</time>
      </trkpt>
      <trkpt lat="43.863655" lon="4.972291">
        <ele>47.59540</ele>
        <time>2021-06-30T11:12:35Z</time>
      </trkpt>
      <trkpt lat="43.863361" lon="4.972599">
        <ele>48.21991</ele>
        <time>2021-06-30T11:12:36Z</time>
      </trkpt>
      <trkpt lat="43.863064" lon="4.972913">
        <ele>48.20984</ele>
        <time>2021-06-30T11:12:37Z</time>
      </trkpt>
      <trkpt lat="43.862782" lon="4.973209">
        <ele>49.64313</ele>
        <time>2021-06-30T11:12:38Z</time>
      </trkpt>
      <trkpt lat="43.862480" lon="4.973504">
        <ele>49.77173</ele>
        <time>2021-06-30T11:12:39Z</time>
      </trkpt>
      <trkpt lat="43.862198" lon="4.973784">
        <ele>50.67291</ele>
        <time>2021-06-30T11:12:40Z</time>
      </trkpt>
      <trkpt lat="43.861889" lon="4.974078">
        <ele>50.30939</ele>
        <time>2021-06-30T11:12:41Z</time>
      </trkpt>
      <trkpt lat="43.861603" lon="4.974342">
        <ele>50.17731</ele>
        <time>2021-06-30T11:12:42Z</time>
      </trkpt>
      <trkpt lat="43.861309" lon="4.974617">
        <ele>49.96411</ele>
        <time>2021-06-30T11:12:43Z</time>
      </trkpt>
      <trkpt lat="43.861008" lon="4.974897">
        <ele>50.39075</ele>
        <time>2021-06-30T11:12:44Z</time>
      </trkpt>
      <trkpt lat="43.860725" lon="4.975163">
        <ele>50.83575</ele>
        <time>2021-06-30T11:12:45Z</time>
      </trkpt>
      <trkpt lat="43.860428" lon="4.975439">
        <ele>50.89929</ele>
        <time>2021-06-30T11:12:46Z</time>
      </trkpt>
      <trkpt lat="43.860134" lon="4.975709">
        <ele>52.22888</ele>
        <time>2021-06-30T11:12:47Z</time>
      </trkpt>
      <trkpt lat="43.859814" lon="4.976007">
        <ele>51.56677</ele>
        <time>2021-06-30T11:12:48Z</time>
      </trkpt>
      <trkpt lat="43.859814" lon="4.976007">
        <ele>52.00208</ele>
        <time>2021-06-30T11:12:49Z</time>
      </trkpt>
      <trkpt lat="43.859226" lon="4.976577">
        <ele>52.82275</ele>
        <time>2021-06-30T11:12:50Z</time>
      </trkpt>
      <trkpt lat="43.859226" lon="4.976577">
        <ele>53.87830</ele>
        <time>2021-06-30T11:12:51Z</time>
      </trkpt>
      <trkpt lat="43.858658" lon="4.977157">
        <ele>54.48792</ele>
        <time>2021-06-30T11:12:52Z</time>
      </trkpt>
      <trkpt lat="43.858658" lon="4.977157">
        <ele>54.59534</ele>
        <time>2021-06-30T11:12:53Z</time>
      </trkpt>
      <trkpt lat="43.858383" lon="4.977446">
        <ele>54.82703</ele>
        <time>2021-06-30T11:12:54Z</time>
      </trkpt>
      <trkpt lat="43.858082" lon="4.977775">
        <ele>55.28845</ele>
        <time>2021-06-30T11:12:55Z</time>
      </trkpt>
      <trkpt lat="43.857792" lon="4.978100">
        <ele>55.39856</ele>
        <time>2021-06-30T11:12:56Z</time>
      </trkpt>
      <trkpt lat="43.857525" lon="4.978412">
        <ele>54.54852</ele>
        <time>2021-06-30T11:12:57Z</time>
      </trkpt>
      <trkpt lat="43.857246" lon="4.978741">
        <ele>55.10748</ele>
        <time>2021-06-30T11:12:58Z</time>
      </trkpt>
      <trkpt lat="43.856968" lon="4.979089">
        <ele>54.15515</ele>
        <time>2021-06-30T11:12:59Z</time>
      </trkpt>
      <trkpt lat="43.856697" lon="4.979433">
        <ele>53.83325</ele>
        <time>2021-06-30T11:13:00Z</time>
      </trkpt>
      <trkpt lat="43.856441" lon="4.979774">
        <ele>54.00427</ele>
        <time>2021-06-30T11:13:01Z</time>
      </trkpt>
      <trkpt lat="43.856182" lon="4.980124">
        <ele>53.71350</ele>
        <time>2021-06-30T11:13:02Z</time>
      </trkpt>
      <trkpt lat="43.855934" lon="4.980467">
        <ele>53.62012</ele>
        <time>2021-06-30T11:13:03Z</time>
      </trkpt>
      <trkpt lat="43.855663" lon="4.980844">
        <ele>53.77118</ele>
        <time>2021-06-30T11:13:04Z</time>
      </trkpt>
      <trkpt lat="43.855431" lon="4.981184">
        <ele>53.84045</ele>
        <time>2021-06-30T11:13:05Z</time>
      </trkpt>
      <trkpt lat="43.855179" lon="4.981554">
        <ele>53.67108</ele>
        <time>2021-06-30T11:13:06Z</time>
      </trkpt>
      <trkpt lat="43.854927" lon="4.981922">
        <ele>54.15393</ele>
        <time>2021-06-30T11:13:07Z</time>
      </trkpt>
      <trkpt lat="43.854675" lon="4.982288">
        <ele>54.06085</ele>
        <time>2021-06-30T11:13:08Z</time>
      </trkpt>
      <trkpt lat="43.854435" lon="4.982640">
        <ele>54.58820</ele>
        <time>2021-06-30T11:13:09Z</time>
      </trkpt>
      <trkpt lat="43.854183" lon="4.983009">
        <ele>54.54852</ele>
        <time>2021-06-30T11:13:10Z</time>
      </trkpt>
      <trkpt lat="43.853928" lon="4.983388">
        <ele>54.61780</ele>
        <time>2021-06-30T11:13:11Z</time>
      </trkpt>
      <trkpt lat="43.853680" lon="4.983738">
        <ele>54.68134</ele>
        <time>2021-06-30T11:13:12Z</time>
      </trkpt>
      <trkpt lat="43.853428" lon="4.984086">
        <ele>55.08142</ele>
        <time>2021-06-30T11:13:13Z</time>
      </trkpt>
      <trkpt lat="43.853168" lon="4.984448">
        <ele>54.98883</ele>
        <time>2021-06-30T11:13:14Z</time>
      </trkpt>
      <trkpt lat="43.852917" lon="4.984785">
        <ele>54.60730</ele>
        <time>2021-06-30T11:13:15Z</time>
      </trkpt>
      <trkpt lat="43.852646" lon="4.985135">
        <ele>55.43359</ele>
        <time>2021-06-30T11:13:16Z</time>
      </trkpt>
      <trkpt lat="43.852394" lon="4.985450">
        <ele>55.95923</ele>
        <time>2021-06-30T11:13:17Z</time>
      </trkpt>
      <trkpt lat="43.852119" lon="4.985782">
        <ele>56.25159</ele>
        <time>2021-06-30T11:13:18Z</time>
      </trkpt>
      <trkpt lat="43.851833" lon="4.986108">
        <ele>56.30621</ele>
        <time>2021-06-30T11:13:19Z</time>
      </trkpt>
      <trkpt lat="43.851551" lon="4.986418">
        <ele>57.01776</ele>
        <time>2021-06-30T11:13:20Z</time>
      </trkpt>
      <trkpt lat="43.851551" lon="4.986418">
        <ele>56.80127</ele>
        <time>2021-06-30T11:13:21Z</time>
      </trkpt>
      <trkpt lat="43.851254" lon="4.986728">
        <ele>57.82281</ele>
        <time>2021-06-30T11:13:22Z</time>
      </trkpt>
      <trkpt lat="43.850956" lon="4.987037">
        <ele>57.60809</ele>
        <time>2021-06-30T11:13:23Z</time>
      </trkpt>
      <trkpt lat="43.850677" lon="4.987299">
        <ele>57.86896</ele>
        <time>2021-06-30T11:13:24Z</time>
      </trkpt>
      <trkpt lat="43.850349" lon="4.987591">
        <ele>58.23993</ele>
        <time>2021-06-30T11:13:25Z</time>
      </trkpt>
      <trkpt lat="43.849983" lon="4.987903">
        <ele>58.76782</ele>
        <time>2021-06-30T11:13:26Z</time>
      </trkpt>
      <trkpt lat="43.849686" lon="4.988131">
        <ele>58.91089</ele>
        <time>2021-06-30T11:13:27Z</time>
      </trkpt>
      <trkpt lat="43.849373" lon="4.988370">
        <ele>59.27069</ele>
        <time>2021-06-30T11:13:28Z</time>
      </trkpt>
      <trkpt lat="43.849037" lon="4.988602">
        <ele>59.86273</ele>
        <time>2021-06-30T11:13:29Z</time>
      </trkpt>
      <trkpt lat="43.848713" lon="4.988823">
        <ele>58.12976</ele>
        <time>2021-06-30T11:13:30Z</time>
      </trkpt>
      <trkpt lat="43.848404" lon="4.989014">
        <ele>58.43799</ele>
        <time>2021-06-30T11:13:31Z</time>
      </trkpt>
      <trkpt lat="43.848068" lon="4.989219">
        <ele>58.38940</ele>
        <time>2021-06-30T11:13:32Z</time>
      </trkpt>
      <trkpt lat="43.847752" lon="4.989415">
        <ele>57.17755</ele>
        <time>2021-06-30T11:13:33Z</time>
      </trkpt>
      <trkpt lat="43.847424" lon="4.989607">
        <ele>58.18402</ele>
        <time>2021-06-30T11:13:34Z</time>
      </trkpt>
      <trkpt lat="43.847080" lon="4.989797">
        <ele>58.17786</ele>
        <time>2021-06-30T11:13:35Z</time>
      </trkpt>
      <trkpt lat="43.846733" lon="4.989987">
        <ele>58.13794</ele>
        <time>2021-06-30T11:13:36Z</time>
      </trkpt>
      <trkpt lat="43.846420" lon="4.990158">
        <ele>55.97363</ele>
        <time>2021-06-30T11:13:37Z</time>
      </trkpt>
      <trkpt lat="43.846081" lon="4.990344">
        <ele>55.87451</ele>
        <time>2021-06-30T11:13:38Z</time>
      </trkpt>
      <trkpt lat="43.845734" lon="4.990533">
        <ele>56.08521</ele>
        <time>2021-06-30T11:13:39Z</time>
      </trkpt>
      <trkpt lat="43.845394" lon="4.990719">
        <ele>55.59369</ele>
        <time>2021-06-30T11:13:40Z</time>
      </trkpt>
      <trkpt lat="43.845066" lon="4.990908">
        <ele>55.57538</ele>
        <time>2021-06-30T11:13:41Z</time>
      </trkpt>
      <trkpt lat="43.844734" lon="4.991101">
        <ele>56.62616</ele>
        <time>2021-06-30T11:13:42Z</time>
      </trkpt>
      <trkpt lat="43.844398" lon="4.991297">
        <ele>56.53577</ele>
        <time>2021-06-30T11:13:43Z</time>
      </trkpt>
      <trkpt lat="43.844078" lon="4.991499">
        <ele>57.69440</ele>
        <time>2021-06-30T11:13:44Z</time>
      </trkpt>
      <trkpt lat="43.843761" lon="4.991703">
        <ele>58.53204</ele>
        <time>2021-06-30T11:13:45Z</time>
      </trkpt>
      <trkpt lat="43.843418" lon="4.991938">
        <ele>57.19635</ele>
        <time>2021-06-30T11:13:46Z</time>
      </trkpt>
      <trkpt lat="43.843418" lon="4.991938">
        <ele>57.10132</ele>
        <time>2021-06-30T11:13:47Z</time>
      </trkpt>
      <trkpt lat="43.842777" lon="4.992401">
        <ele>59.34790</ele>
        <time>2021-06-30T11:13:48Z</time>
      </trkpt>
      <trkpt lat="43.842777" lon="4.992401">
        <ele>59.01562</ele>
        <time>2021-06-30T11:13:49Z</time>
      </trkpt>
      <trkpt lat="43.842484" lon="4.992631">
        <ele>59.27319</ele>
        <time>2021-06-30T11:13:50Z</time>
      </trkpt>
      <trkpt lat="43.842167" lon="4.992889">
        <ele>56.73065</ele>
        <time>2021-06-30T11:13:51Z</time>
      </trkpt>
      <trkpt lat="43.841839" lon="4.993177">
        <ele>57.48517</ele>
        <time>2021-06-30T11:13:52Z</time>
      </trkpt>
      <trkpt lat="43.841530" lon="4.993451">
        <ele>57.51416</ele>
        <time>2021-06-30T11:13:53Z</time>
      </trkpt>
      <trkpt lat="43.841209" lon="4.993748">
        <ele>58.76910</ele>
        <time>2021-06-30T11:13:54Z</time>
      </trkpt>
      <trkpt lat="43.840923" lon="4.994020">
        <ele>60.27325</ele>
        <time>2021-06-30T11:13:55Z</time>
      </trkpt>
      <trkpt lat="43.840611" lon="4.994318">
        <ele>60.50140</ele>
        <time>2021-06-30T11:13:56Z</time>
      </trkpt>
      <trkpt lat="43.840328" lon="4.994603">
        <ele>60.97083</ele>
        <time>2021-06-30T11:13:57Z</time>
      </trkpt>
      <trkpt lat="43.840038" lon="4.994918">
        <ele>61.98682</ele>
        <time>2021-06-30T11:13:58Z</time>
      </trkpt>
      <trkpt lat="43.839741" lon="4.995242">
        <ele>62.10693</ele>
        <time>2021-06-30T11:13:59Z</time>
      </trkpt>
      <trkpt lat="43.839451" lon="4.995583">
        <ele>61.19507</ele>
        <time>2021-06-30T11:14:00Z</time>
      </trkpt>
      <trkpt lat="43.839161" lon="4.995926">
        <ele>61.58740</ele>
        <time>2021-06-30T11:14:01Z</time>
      </trkpt>
      <trkpt lat="43.838886" lon="4.996272">
        <ele>62.46045</ele>
        <time>2021-06-30T11:14:02Z</time>
      </trkpt>
      <trkpt lat="43.838634" lon="4.996591">
        <ele>62.94116</ele>
        <time>2021-06-30T11:14:03Z</time>
      </trkpt>
      <trkpt lat="43.838364" lon="4.996931">
        <ele>62.64368</ele>
        <time>2021-06-30T11:14:04Z</time>
      </trkpt>
      <trkpt lat="43.838093" lon="4.997272">
        <ele>62.28290</ele>
        <time>2021-06-30T11:14:05Z</time>
      </trkpt>
      <trkpt lat="43.837837" lon="4.997606">
        <ele>62.68719</ele>
        <time>2021-06-30T11:14:06Z</time>
      </trkpt>
      <trkpt lat="43.837585" lon="4.997957">
        <ele>63.11395</ele>
        <time>2021-06-30T11:14:07Z</time>
      </trkpt>
      <trkpt lat="43.837326" lon="4.998317">
        <ele>62.87445</ele>
        <time>2021-06-30T11:14:08Z</time>
      </trkpt>
      <trkpt lat="43.837074" lon="4.998680">
        <ele>62.99182</ele>
        <time>2021-06-30T11:14:09Z</time>
      </trkpt>
      <trkpt lat="43.836815" lon="4.999056">
        <ele>63.08838</ele>
        <time>2021-06-30T11:14:10Z</time>
      </trkpt>
      <trkpt lat="43.836815" lon="4.999056">
        <ele>63.47205</ele>
        <time>2021-06-30T11:14:11Z</time>
      </trkpt>
      <trkpt lat="43.836346" lon="4.999779">
        <ele>63.14966</ele>
        <time>2021-06-30T11:14:12Z</time>
      </trkpt>
      <trkpt lat="43.836346" lon="4.999779">
        <ele>62.88464</ele>
        <time>2021-06-30T11:14:13Z</time>
      </trkpt>
      <trkpt lat="43.836109" lon="5.000150">
        <ele>63.34515</ele>
        <time>2021-06-30T11:14:14Z</time>
      </trkpt>
      <trkpt lat="43.835854" lon="5.000551">
        <ele>63.45996</ele>
        <time>2021-06-30T11:14:15Z</time>
      </trkpt>
      <trkpt lat="43.835617" lon="5.000920">
        <ele>63.21753</ele>
        <time>2021-06-30T11:14:16Z</time>
      </trkpt>
      <trkpt lat="43.835388" lon="5.001332">
        <ele>63.12854</ele>
        <time>2021-06-30T11:14:17Z</time>
      </trkpt>
      <trkpt lat="43.835182" lon="5.001705">
        <ele>63.12958</ele>
        <time>2021-06-30T11:14:18Z</time>
      </trkpt>
      <trkpt lat="43.834953" lon="5.002124">
        <ele>63.86194</ele>
        <time>2021-06-30T11:14:19Z</time>
      </trkpt>
      <trkpt lat="43.834770" lon="5.002455">
        <ele>63.88037</ele>
        <time>2021-06-30T11:14:20Z</time>
      </trkpt>
      <trkpt lat="43.834572" lon="5.002823">
        <ele>64.53223</ele>
        <time>2021-06-30T11:14:21Z</time>
      </trkpt>
      <trkpt lat="43.834396" lon="5.003152">
        <ele>64.59283</ele>
        <time>2021-06-30T11:14:22Z</time>
      </trkpt>
      <trkpt lat="43.834183" lon="5.003562">
        <ele>64.29297</ele>
        <time>2021-06-30T11:14:23Z</time>
      </trkpt>
      <trkpt lat="43.833981" lon="5.003962">
        <ele>64.02679</ele>
        <time>2021-06-30T11:14:24Z</time>
      </trkpt>
      <trkpt lat="43.833771" lon="5.004380">
        <ele>64.48132</ele>
        <time>2021-06-30T11:14:25Z</time>
      </trkpt>
      <trkpt lat="43.833569" lon="5.004797">
        <ele>65.45923</ele>
        <time>2021-06-30T11:14:26Z</time>
      </trkpt>
      <trkpt lat="43.833385" lon="5.005187">
        <ele>64.65448</ele>
        <time>2021-06-30T11:14:27Z</time>
      </trkpt>
      <trkpt lat="43.833191" lon="5.005605">
        <ele>65.19922</ele>
        <time>2021-06-30T11:14:28Z</time>
      </trkpt>
      <trkpt lat="43.833000" lon="5.006023">
        <ele>64.97449</ele>
        <time>2021-06-30T11:14:29Z</time>
      </trkpt>
      <trkpt lat="43.832809" lon="5.006464">
        <ele>64.82507</ele>
        <time>2021-06-30T11:14:30Z</time>
      </trkpt>
      <trkpt lat="43.832619" lon="5.006913">
        <ele>63.37787</ele>
        <time>2021-06-30T11:14:31Z</time>
      </trkpt>
      <trkpt lat="43.832447" lon="5.007322">
        <ele>63.32196</ele>
        <time>2021-06-30T11:14:32Z</time>
      </trkpt>
      <trkpt lat="43.832256" lon="5.007783">
        <ele>63.44720</ele>
        <time>2021-06-30T11:14:33Z</time>
      </trkpt>
      <trkpt lat="43.832088" lon="5.008212">
        <ele>63.46375</ele>
        <time>2021-06-30T11:14:34Z</time>
      </trkpt>
      <trkpt lat="43.831913" lon="5.008660">
        <ele>64.11298</ele>
        <time>2021-06-30T11:14:35Z</time>
      </trkpt>
      <trkpt lat="43.831745" lon="5.009111">
        <ele>64.11707</ele>
        <time>2021-06-30T11:14:36Z</time>
      </trkpt>
      <trkpt lat="43.831585" lon="5.009570">
        <ele>64.60663</ele>
        <time>2021-06-30T11:14:37Z</time>
      </trkpt>
      <trkpt lat="43.831432" lon="5.010037">
        <ele>64.86249</ele>
        <time>2021-06-30T11:14:38Z</time>
      </trkpt>
      <trkpt lat="43.831291" lon="5.010498">
        <ele>65.42566</ele>
        <time>2021-06-30T11:14:39Z</time>
      </trkpt>
      <trkpt lat="43.831146" lon="5.010959">
        <ele>65.39709</ele>
        <time>2021-06-30T11:14:40Z</time>
      </trkpt>
      <trkpt lat="43.831017" lon="5.011419">
        <ele>65.70581</ele>
        <time>2021-06-30T11:14:41Z</time>
      </trkpt>
      <trkpt lat="43.830898" lon="5.011836">
        <ele>65.49988</ele>
        <time>2021-06-30T11:14:42Z</time>
      </trkpt>
      <trkpt lat="43.830753" lon="5.012313">
        <ele>65.81635</ele>
        <time>2021-06-30T11:14:43Z</time>
      </trkpt>
      <trkpt lat="43.830753" lon="5.012313">
        <ele>65.88507</ele>
        <time>2021-06-30T11:14:44Z</time>
      </trkpt>
      <trkpt lat="43.830608" lon="5.012819">
        <ele>64.95563</ele>
        <time>2021-06-30T11:14:45Z</time>
      </trkpt>
      <trkpt lat="43.830471" lon="5.013311">
        <ele>65.02441</ele>
        <time>2021-06-30T11:14:46Z</time>
      </trkpt>
      <trkpt lat="43.830338" lon="5.013794">
        <ele>65.06366</ele>
        <time>2021-06-30T11:14:47Z</time>
      </trkpt>
      <trkpt lat="43.830219" lon="5.014269">
        <ele>65.28851</ele>
        <time>2021-06-30T11:14:48Z</time>
      </trkpt>
      <trkpt lat="43.830101" lon="5.014731">
        <ele>65.22937</ele>
        <time>2021-06-30T11:14:49Z</time>
      </trkpt>
      <trkpt lat="43.829979" lon="5.015190">
        <ele>65.02716</ele>
        <time>2021-06-30T11:14:50Z</time>
      </trkpt>
      <trkpt lat="43.829842" lon="5.015689">
        <ele>65.06854</ele>
        <time>2021-06-30T11:14:51Z</time>
      </trkpt>
      <trkpt lat="43.829716" lon="5.016127">
        <ele>65.39667</ele>
        <time>2021-06-30T11:14:52Z</time>
      </trkpt>
      <trkpt lat="43.829582" lon="5.016575">
        <ele>65.46405</ele>
        <time>2021-06-30T11:14:53Z</time>
      </trkpt>
      <trkpt lat="43.829437" lon="5.017018">
        <ele>65.78998</ele>
        <time>2021-06-30T11:14:54Z</time>
      </trkpt>
      <trkpt lat="43.829285" lon="5.017481">
        <ele>66.20746</ele>
        <time>2021-06-30T11:14:55Z</time>
      </trkpt>
      <trkpt lat="43.829117" lon="5.017946">
        <ele>66.13422</ele>
        <time>2021-06-30T11:14:56Z</time>
      </trkpt>
      <trkpt lat="43.828957" lon="5.018363">
        <ele>65.58496</ele>
        <time>2021-06-30T11:14:57Z</time>
      </trkpt>
      <trkpt lat="43.828766" lon="5.018843">
        <ele>65.69751</ele>
        <time>2021-06-30T11:14:58Z</time>
      </trkpt>
      <trkpt lat="43.828590" lon="5.019280">
        <ele>65.72516</ele>
        <time>2021-06-30T11:14:59Z</time>
      </trkpt>
      <trkpt lat="43.828407" lon="5.019751">
        <ele>65.81818</ele>
        <time>2021-06-30T11:15:00Z</time>
      </trkpt>
      <trkpt lat="43.828224" lon="5.020156">
        <ele>65.68073</ele>
        <time>2021-06-30T11:15:01Z</time>
      </trkpt>
      <trkpt lat="43.828045" lon="5.020533">
        <ele>65.55902</ele>
        <time>2021-06-30T11:15:02Z</time>
      </trkpt>
      <trkpt lat="43.827831" lon="5.020950">
        <ele>65.64606</ele>
        <time>2021-06-30T11:15:03Z</time>
      </trkpt>
      <trkpt lat="43.827621" lon="5.021349">
        <ele>65.53491</ele>
        <time>2021-06-30T11:15:04Z</time>
      </trkpt>
      <trkpt lat="43.827396" lon="5.021760">
        <ele>66.04352</ele>
        <time>2021-06-30T11:15:05Z</time>
      </trkpt>
      <trkpt lat="43.827171" lon="5.022149">
        <ele>66.19690</ele>
        <time>2021-06-30T11:15:06Z</time>
      </trkpt>
      <trkpt lat="43.826935" lon="5.022530">
        <ele>66.09338</ele>
        <time>2021-06-30T11:15:07Z</time>
      </trkpt>
      <trkpt lat="43.826698" lon="5.022909">
        <ele>66.50122</ele>
        <time>2021-06-30T11:15:08Z</time>
      </trkpt>
      <trkpt lat="43.826454" lon="5.023270">
        <ele>66.24927</ele>
        <time>2021-06-30T11:15:09Z</time>
      </trkpt>
      <trkpt lat="43.826202" lon="5.023636">
        <ele>66.32690</ele>
        <time>2021-06-30T11:15:10Z</time>
      </trkpt>
      <trkpt lat="43.825928" lon="5.024021">
        <ele>65.57983</ele>
        <time>2021-06-30T11:15:11Z</time>
      </trkpt>
      <trkpt lat="43.825668" lon="5.024348">
        <ele>65.75452</ele>
        <time>2021-06-30T11:15:12Z</time>
      </trkpt>
      <trkpt lat="43.825401" lon="5.024684">
        <ele>65.84454</ele>
        <time>2021-06-30T11:15:13Z</time>
      </trkpt>
      <trkpt lat="43.825115" lon="5.025028">
        <ele>66.01807</ele>
        <time>2021-06-30T11:15:14Z</time>
      </trkpt>
      <trkpt lat="43.825115" lon="5.025028">
        <ele>66.79614</ele>
        <time>2021-06-30T11:15:15Z</time>
      </trkpt>
      <trkpt lat="43.824844" lon="5.025331">
        <ele>67.51337</ele>
        <time>2021-06-30T11:15:16Z</time>
      </trkpt>
      <trkpt lat="43.824547" lon="5.025652">
        <ele>67.16962</ele>
        <time>2021-06-30T11:15:17Z</time>
      </trkpt>
      <trkpt lat="43.824257" lon="5.025959">
        <ele>67.16345</ele>
        <time>2021-06-30T11:15:18Z</time>
      </trkpt>
      <trkpt lat="43.823986" lon="5.026233">
        <ele>67.50189</ele>
        <time>2021-06-30T11:15:19Z</time>
      </trkpt>
      <trkpt lat="43.823685" lon="5.026530">
        <ele>68.06152</ele>
        <time>2021-06-30T11:15:20Z</time>
      </trkpt>
      <trkpt lat="43.823414" lon="5.026786">
        <ele>68.84021</ele>
        <time>2021-06-30T11:15:21Z</time>
      </trkpt>
      <trkpt lat="43.823112" lon="5.027067">
        <ele>69.27991</ele>
        <time>2021-06-30T11:15:22Z</time>
      </trkpt>
      <trkpt lat="43.822800" lon="5.027362">
        <ele>69.28027</ele>
        <time>2021-06-30T11:15:23Z</time>
      </trkpt>
      <trkpt lat="43.822506" lon="5.027618">
        <ele>70.04474</ele>
        <time>2021-06-30T11:15:24Z</time>
      </trkpt>
      <trkpt lat="43.822212" lon="5.027873">
        <ele>69.89124</ele>
        <time>2021-06-30T11:15:25Z</time>
      </trkpt>
      <trkpt lat="43.821899" lon="5.028148">
        <ele>70.50781</ele>
        <time>2021-06-30T11:15:26Z</time>
      </trkpt>
      <trkpt lat="43.821629" lon="5.028379">
        <ele>70.53900</ele>
        <time>2021-06-30T11:15:27Z</time>
      </trkpt>
      <trkpt lat="43.821339" lon="5.028623">
        <ele>71.44299</ele>
        <time>2021-06-30T11:15:28Z</time>
      </trkpt>
      <trkpt lat="43.821053" lon="5.028860">
        <ele>72.01215</ele>
        <time>2021-06-30T11:15:29Z</time>
      </trkpt>
      <trkpt lat="43.820747" lon="5.029117">
        <ele>72.31018</ele>
        <time>2021-06-30T11:15:30Z</time>
      </trkpt>
      <trkpt lat="43.820469" lon="5.029347">
        <ele>72.82379</ele>
        <time>2021-06-30T11:15:31Z</time>
      </trkpt>
      <trkpt lat="43.820171" lon="5.029594">
        <ele>72.38678</ele>
        <time>2021-06-30T11:15:32Z</time>
      </trkpt>
      <trkpt lat="43.819870" lon="5.029841">
        <ele>73.07373</ele>
        <time>2021-06-30T11:15:33Z</time>
      </trkpt>
      <trkpt lat="43.819584" lon="5.030077">
        <ele>71.86603</ele>
        <time>2021-06-30T11:15:34Z</time>
      </trkpt>
      <trkpt lat="43.819286" lon="5.030324">
        <ele>71.01355</ele>
        <time>2021-06-30T11:15:35Z</time>
      </trkpt>
      <trkpt lat="43.819016" lon="5.030551">
        <ele>70.14148</ele>
        <time>2021-06-30T11:15:36Z</time>
      </trkpt>
      <trkpt lat="43.818722" lon="5.030799">
        <ele>69.52887</ele>
        <time>2021-06-30T11:15:37Z</time>
      </trkpt>
      <trkpt lat="43.818447" lon="5.031026">
        <ele>69.60883</ele>
        <time>2021-06-30T11:15:38Z</time>
      </trkpt>
      <trkpt lat="43.818172" lon="5.031259">
        <ele>69.47162</ele>
        <time>2021-06-30T11:15:39Z</time>
      </trkpt>
      <trkpt lat="43.817867" lon="5.031514">
        <ele>69.34351</ele>
        <time>2021-06-30T11:15:40Z</time>
      </trkpt>
      <trkpt lat="43.817574" lon="5.031761">
        <ele>68.28729</ele>
        <time>2021-06-30T11:15:41Z</time>
      </trkpt>
      <trkpt lat="43.817245" lon="5.032018">
        <ele>68.63220</ele>
        <time>2021-06-30T11:15:42Z</time>
      </trkpt>
      <trkpt lat="43.816936" lon="5.032250">
        <ele>68.49835</ele>
        <time>2021-06-30T11:15:43Z</time>
      </trkpt>
      <trkpt lat="43.816639" lon="5.032488">
        <ele>68.43115</ele>
        <time>2021-06-30T11:15:44Z</time>
      </trkpt>
      <trkpt lat="43.816341" lon="5.032747">
        <ele>69.96930</ele>
        <time>2021-06-30T11:15:45Z</time>
      </trkpt>
      <trkpt lat="43.816059" lon="5.033000">
        <ele>70.63916</ele>
        <time>2021-06-30T11:15:46Z</time>
      </trkpt>
      <trkpt lat="43.815758" lon="5.033272">
        <ele>70.51215</ele>
        <time>2021-06-30T11:15:47Z</time>
      </trkpt>
      <trkpt lat="43.815445" lon="5.033525">
        <ele>70.86591</ele>
        <time>2021-06-30T11:15:48Z</time>
      </trkpt>
      <trkpt lat="43.815445" lon="5.033525">
        <ele>71.41663</ele>
        <time>2021-06-30T11:15:49Z</time>
      </trkpt>
      <trkpt lat="43.815128" lon="5.033774">
        <ele>71.87018</ele>
        <time>2021-06-30T11:15:50Z</time>
      </trkpt>
      <trkpt lat="43.814499" lon="5.034296">
        <ele>70.31696</ele>
        <time>2021-06-30T11:15:51Z</time>
      </trkpt>
      <trkpt lat="43.814499" lon="5.034296">
        <ele>71.01056</ele>
        <time>2021-06-30T11:15:52Z</time>
      </trkpt>
      <trkpt lat="43.814182" lon="5.034547">
        <ele>70.89502</ele>
        <time>2021-06-30T11:15:53Z</time>
      </trkpt>
      <trkpt lat="43.813889" lon="5.034774">
        <ele>71.37494</ele>
        <time>2021-06-30T11:15:54Z</time>
      </trkpt>
      <trkpt lat="43.813557" lon="5.035030">
        <ele>70.83771</ele>
        <time>2021-06-30T11:15:55Z</time>
      </trkpt>
      <trkpt lat="43.813225" lon="5.035283">
        <ele>70.95062</ele>
        <time>2021-06-30T11:15:56Z</time>
      </trkpt>
      <trkpt lat="43.812920" lon="5.035514">
        <ele>70.85272</ele>
        <time>2021-06-30T11:15:57Z</time>
      </trkpt>
      <trkpt lat="43.812599" lon="5.035746">
        <ele>72.63678</ele>
        <time>2021-06-30T11:15:58Z</time>
      </trkpt>
      <trkpt lat="43.812256" lon="5.035992">
        <ele>71.30811</ele>
        <time>2021-06-30T11:15:59Z</time>
      </trkpt>
      <trkpt lat="43.811939" lon="5.036216">
        <ele>70.11029</ele>
        <time>2021-06-30T11:16:00Z</time>
      </trkpt>
      <trkpt lat="43.811626" lon="5.036434">
        <ele>69.97363</ele>
        <time>2021-06-30T11:16:01Z</time>
      </trkpt>
      <trkpt lat="43.811337" lon="5.036625">
        <ele>68.98242</ele>
        <time>2021-06-30T11:16:02Z</time>
      </trkpt>
      <trkpt lat="43.811031" lon="5.036826">
        <ele>68.31696</ele>
        <time>2021-06-30T11:16:03Z</time>
      </trkpt>
      <trkpt lat="43.810749" lon="5.037012">
        <ele>70.12335</ele>
        <time>2021-06-30T11:16:04Z</time>
      </trkpt>
      <trkpt lat="43.810432" lon="5.037212">
        <ele>69.77588</ele>
        <time>2021-06-30T11:16:05Z</time>
      </trkpt>
      <trkpt lat="43.810123" lon="5.037394">
        <ele>69.83044</ele>
        <time>2021-06-30T11:16:06Z</time>
      </trkpt>
      <trkpt lat="43.809814" lon="5.037575">
        <ele>69.64233</ele>
        <time>2021-06-30T11:16:07Z</time>
      </trkpt>
      <trkpt lat="43.809505" lon="5.037758">
        <ele>71.30048</ele>
        <time>2021-06-30T11:16:08Z</time>
      </trkpt>
      <trkpt lat="43.809196" lon="5.037923">
        <ele>71.46704</ele>
        <time>2021-06-30T11:16:09Z</time>
      </trkpt>
      <trkpt lat="43.808899" lon="5.038077">
        <ele>72.44849</ele>
        <time>2021-06-30T11:16:10Z</time>
      </trkpt>
      <trkpt lat="43.808525" lon="5.038271">
        <ele>71.80914</ele>
        <time>2021-06-30T11:16:11Z</time>
      </trkpt>
      <trkpt lat="43.808136" lon="5.038455">
        <ele>71.86469</ele>
        <time>2021-06-30T11:16:12Z</time>
      </trkpt>
      <trkpt lat="43.807770" lon="5.038623">
        <ele>72.41095</ele>
        <time>2021-06-30T11:16:13Z</time>
      </trkpt>
      <trkpt lat="43.807396" lon="5.038779">
        <ele>72.33221</ele>
        <time>2021-06-30T11:16:14Z</time>
      </trkpt>
      <trkpt lat="43.807018" lon="5.038925">
        <ele>72.79675</ele>
        <time>2021-06-30T11:16:15Z</time>
      </trkpt>
      <trkpt lat="43.806675" lon="5.039059">
        <ele>74.31934</ele>
        <time>2021-06-30T11:16:16Z</time>
      </trkpt>
      <trkpt lat="43.806320" lon="5.039174">
        <ele>74.24152</ele>
        <time>2021-06-30T11:16:17Z</time>
      </trkpt>
      <trkpt lat="43.805935" lon="5.039300">
        <ele>73.83765</ele>
        <time>2021-06-30T11:16:18Z</time>
      </trkpt>
      <trkpt lat="43.805573" lon="5.039409">
        <ele>73.28009</ele>
        <time>2021-06-30T11:16:19Z</time>
      </trkpt>
      <trkpt lat="43.805237" lon="5.039487">
        <ele>74.03412</ele>
        <time>2021-06-30T11:16:20Z</time>
      </trkpt>
      <trkpt lat="43.804890" lon="5.039558">
        <ele>73.95056</ele>
        <time>2021-06-30T11:16:21Z</time>
      </trkpt>
      <trkpt lat="43.804890" lon="5.039558">
        <ele>74.85767</ele>
        <time>2021-06-30T11:16:22Z</time>
      </trkpt>
      <trkpt lat="43.804508" lon="5.039636">
        <ele>74.67218</ele>
        <time>2021-06-30T11:16:23Z</time>
      </trkpt>
      <trkpt lat="43.804131" lon="5.039698">
        <ele>74.97620</ele>
        <time>2021-06-30T11:16:24Z</time>
      </trkpt>
      <trkpt lat="43.803787" lon="5.039745">
        <ele>74.40509</ele>
        <time>2021-06-30T11:16:25Z</time>
      </trkpt>
      <trkpt lat="43.803429" lon="5.039789">
        <ele>74.68097</ele>
        <time>2021-06-30T11:16:26Z</time>
      </trkpt>
      <trkpt lat="43.803043" lon="5.039826">
        <ele>74.14423</ele>
        <time>2021-06-30T11:16:27Z</time>
      </trkpt>
      <trkpt lat="43.802700" lon="5.039835">
        <ele>74.74103</ele>
        <time>2021-06-30T11:16:28Z</time>
      </trkpt>
      <trkpt lat="43.802334" lon="5.039843">
        <ele>74.71387</ele>
        <time>2021-06-30T11:16:29Z</time>
      </trkpt>
      <trkpt lat="43.801968" lon="5.039851">
        <ele>75.46490</ele>
        <time>2021-06-30T11:16:30Z</time>
      </trkpt>
      <trkpt lat="43.801613" lon="5.039859">
        <ele>75.36743</ele>
        <time>2021-06-30T11:16:31Z</time>
      </trkpt>
      <trkpt lat="43.801235" lon="5.039861">
        <ele>75.63098</ele>
        <time>2021-06-30T11:16:32Z</time>
      </trkpt>
      <trkpt lat="43.800892" lon="5.039857">
        <ele>75.53766</ele>
        <time>2021-06-30T11:16:33Z</time>
      </trkpt>
      <trkpt lat="43.800507" lon="5.039857">
        <ele>75.48114</ele>
        <time>2021-06-30T11:16:34Z</time>
      </trkpt>
      <trkpt lat="43.800133" lon="5.039857">
        <ele>74.91010</ele>
        <time>2021-06-30T11:16:35Z</time>
      </trkpt>
      <trkpt lat="43.799774" lon="5.039857">
        <ele>74.11639</ele>
        <time>2021-06-30T11:16:36Z</time>
      </trkpt>
      <trkpt lat="43.799423" lon="5.039857">
        <ele>73.53058</ele>
        <time>2021-06-30T11:16:37Z</time>
      </trkpt>
      <trkpt lat="43.799053" lon="5.039862">
        <ele>74.43787</ele>
        <time>2021-06-30T11:16:38Z</time>
      </trkpt>
      <trkpt lat="43.798683" lon="5.039870">
        <ele>76.20825</ele>
        <time>2021-06-30T11:16:39Z</time>
      </trkpt>
      <trkpt lat="43.798336" lon="5.039888">
        <ele>77.01013</ele>
        <time>2021-06-30T11:16:40Z</time>
      </trkpt>
      <trkpt lat="43.797974" lon="5.039933">
        <ele>77.18372</ele>
        <time>2021-06-30T11:16:41Z</time>
      </trkpt>
      <trkpt lat="43.797615" lon="5.039982">
        <ele>77.55798</ele>
        <time>2021-06-30T11:16:42Z</time>
      </trkpt>
      <trkpt lat="43.797253" lon="5.040052">
        <ele>77.64728</ele>
        <time>2021-06-30T11:16:43Z</time>
      </trkpt>
      <trkpt lat="43.796898" lon="5.040127">
        <ele>77.43878</ele>
        <time>2021-06-30T11:16:44Z</time>
      </trkpt>
      <trkpt lat="43.796566" lon="5.040218">
        <ele>77.62012</ele>
        <time>2021-06-30T11:16:45Z</time>
      </trkpt>
      <trkpt lat="43.796215" lon="5.040316">
        <ele>76.86725</ele>
        <time>2021-06-30T11:16:46Z</time>
      </trkpt>
      <trkpt lat="43.795849" lon="5.040430">
        <ele>76.64368</ele>
        <time>2021-06-30T11:16:47Z</time>
      </trkpt>
      <trkpt lat="43.795849" lon="5.040430">
        <ele>77.96167</ele>
        <time>2021-06-30T11:16:48Z</time>
      </trkpt>
      <trkpt lat="43.795490" lon="5.040553">
        <ele>78.62201</ele>
        <time>2021-06-30T11:16:49Z</time>
      </trkpt>
      <trkpt lat="43.795158" lon="5.040696">
        <ele>78.25647</ele>
        <time>2021-06-30T11:16:50Z</time>
      </trkpt>
      <trkpt lat="43.794468" lon="5.041009">
        <ele>78.92896</ele>
        <time>2021-06-30T11:16:51Z</time>
      </trkpt>
      <trkpt lat="43.794468" lon="5.041009">
        <ele>80.22864</ele>
        <time>2021-06-30T11:16:52Z</time>
      </trkpt>
      <trkpt lat="43.794144" lon="5.041187">
        <ele>80.91815</ele>
        <time>2021-06-30T11:16:53Z</time>
      </trkpt>
      <trkpt lat="43.793816" lon="5.041386">
        <ele>81.22180</ele>
        <time>2021-06-30T11:16:54Z</time>
      </trkpt>
      <trkpt lat="43.793476" lon="5.041598">
        <ele>81.36078</ele>
        <time>2021-06-30T11:16:55Z</time>
      </trkpt>
      <trkpt lat="43.793125" lon="5.041822">
        <ele>81.23657</ele>
        <time>2021-06-30T11:16:56Z</time>
      </trkpt>
      <trkpt lat="43.792805" lon="5.042031">
        <ele>80.43231</ele>
        <time>2021-06-30T11:16:57Z</time>
      </trkpt>
      <trkpt lat="43.792477" lon="5.042274">
        <ele>81.29419</ele>
        <time>2021-06-30T11:16:58Z</time>
      </trkpt>
      <trkpt lat="43.792145" lon="5.042534">
        <ele>81.66144</ele>
        <time>2021-06-30T11:16:59Z</time>
      </trkpt>
      <trkpt lat="43.791813" lon="5.042801">
        <ele>82.37402</ele>
        <time>2021-06-30T11:17:00Z</time>
      </trkpt>
      <trkpt lat="43.791512" lon="5.043079">
        <ele>83.24292</ele>
        <time>2021-06-30T11:17:01Z</time>
      </trkpt>
      <trkpt lat="43.791237" lon="5.043340">
        <ele>83.16333</ele>
        <time>2021-06-30T11:17:02Z</time>
      </trkpt>
      <trkpt lat="43.790951" lon="5.043606">
        <ele>83.41315</ele>
        <time>2021-06-30T11:17:03Z</time>
      </trkpt>
      <trkpt lat="43.790653" lon="5.043874">
        <ele>84.17645</ele>
        <time>2021-06-30T11:17:04Z</time>
      </trkpt>
      <trkpt lat="43.790325" lon="5.044180">
        <ele>84.90558</ele>
        <time>2021-06-30T11:17:05Z</time>
      </trkpt>
      <trkpt lat="43.790028" lon="5.044461">
        <ele>85.37274</ele>
        <time>2021-06-30T11:17:06Z</time>
      </trkpt>
      <trkpt lat="43.789734" lon="5.044745">
        <ele>85.76953</ele>
        <time>2021-06-30T11:17:07Z</time>
      </trkpt>
      <trkpt lat="43.789433" lon="5.045047">
        <ele>86.02710</ele>
        <time>2021-06-30T11:17:08Z</time>
      </trkpt>
      <trkpt lat="43.789143" lon="5.045336">
        <ele>86.73792</ele>
        <time>2021-06-30T11:17:09Z</time>
      </trkpt>
      <trkpt lat="43.788845" lon="5.045608">
        <ele>86.40857</ele>
        <time>2021-06-30T11:17:10Z</time>
      </trkpt>
      <trkpt lat="43.788548" lon="5.045891">
        <ele>86.60938</ele>
        <time>2021-06-30T11:17:11Z</time>
      </trkpt>
      <trkpt lat="43.788258" lon="5.046166">
        <ele>87.12036</ele>
        <time>2021-06-30T11:17:12Z</time>
      </trkpt>
      <trkpt lat="43.787956" lon="5.046454">
        <ele>86.66058</ele>
        <time>2021-06-30T11:17:13Z</time>
      </trkpt>
      <trkpt lat="43.787655" lon="5.046743">
        <ele>86.74951</ele>
        <time>2021-06-30T11:17:14Z</time>
      </trkpt>
      <trkpt lat="43.787354" lon="5.047030">
        <ele>87.22809</ele>
        <time>2021-06-30T11:17:15Z</time>
      </trkpt>
      <trkpt lat="43.787060" lon="5.047310">
        <ele>86.82568</ele>
        <time>2021-06-30T11:17:16Z</time>
      </trkpt>
      <trkpt lat="43.786762" lon="5.047602">
        <ele>86.29486</ele>
        <time>2021-06-30T11:17:17Z</time>
      </trkpt>
      <trkpt lat="43.786762" lon="5.047602">
        <ele>86.37024</ele>
        <time>2021-06-30T11:17:18Z</time>
      </trkpt>
      <trkpt lat="43.786461" lon="5.047905">
        <ele>85.44257</ele>
        <time>2021-06-30T11:17:19Z</time>
      </trkpt>
      <trkpt lat="43.786175" lon="5.048196">
        <ele>84.94849</ele>
        <time>2021-06-30T11:17:20Z</time>
      </trkpt>
      <trkpt lat="43.785873" lon="5.048497">
        <ele>84.54614</ele>
        <time>2021-06-30T11:17:21Z</time>
      </trkpt>
      <trkpt lat="43.785572" lon="5.048801">
        <ele>84.41400</ele>
        <time>2021-06-30T11:17:22Z</time>
      </trkpt>
      <trkpt lat="43.785275" lon="5.049100">
        <ele>84.12744</ele>
        <time>2021-06-30T11:17:23Z</time>
      </trkpt>
      <trkpt lat="43.784992" lon="5.049385">
        <ele>83.79309</ele>
        <time>2021-06-30T11:17:24Z</time>
      </trkpt>
      <trkpt lat="43.784687" lon="5.049693">
        <ele>82.66956</ele>
        <time>2021-06-30T11:17:25Z</time>
      </trkpt>
      <trkpt lat="43.784424" lon="5.049990">
        <ele>82.02332</ele>
        <time>2021-06-30T11:17:26Z</time>
      </trkpt>
      <trkpt lat="43.784145" lon="5.050299">
        <ele>81.62030</ele>
        <time>2021-06-30T11:17:27Z</time>
      </trkpt>
      <trkpt lat="43.783871" lon="5.050607">
        <ele>80.90826</ele>
        <time>2021-06-30T11:17:28Z</time>
      </trkpt>
      <trkpt lat="43.783573" lon="5.050946">
        <ele>80.82654</ele>
        <time>2021-06-30T11:17:29Z</time>
      </trkpt>
      <trkpt lat="43.783314" lon="5.051265">
        <ele>79.86462</ele>
        <time>2021-06-30T11:17:30Z</time>
      </trkpt>
      <trkpt lat="43.783016" lon="5.051628">
        <ele>80.17957</ele>
        <time>2021-06-30T11:17:31Z</time>
      </trkpt>
      <trkpt lat="43.782753" lon="5.051953">
        <ele>80.16040</ele>
        <time>2021-06-30T11:17:32Z</time>
      </trkpt>
      <trkpt lat="43.782497" lon="5.052278">
        <ele>80.14062</ele>
        <time>2021-06-30T11:17:33Z</time>
      </trkpt>
      <trkpt lat="43.782238" lon="5.052618">
        <ele>78.95544</ele>
        <time>2021-06-30T11:17:34Z</time>
      </trkpt>
      <trkpt lat="43.782009" lon="5.052919">
        <ele>79.81232</ele>
        <time>2021-06-30T11:17:35Z</time>
      </trkpt>
      <trkpt lat="43.781784" lon="5.053218">
        <ele>79.81561</ele>
        <time>2021-06-30T11:17:36Z</time>
      </trkpt>
      <trkpt lat="43.781528" lon="5.053553">
        <ele>81.02240</ele>
        <time>2021-06-30T11:17:37Z</time>
      </trkpt>
      <trkpt lat="43.781288" lon="5.053873">
        <ele>79.91211</ele>
        <time>2021-06-30T11:17:38Z</time>
      </trkpt>
      <trkpt lat="43.781033" lon="5.054215">
        <ele>79.69269</ele>
        <time>2021-06-30T11:17:39Z</time>
      </trkpt>
      <trkpt lat="43.780800" lon="5.054537">
        <ele>79.21643</ele>
        <time>2021-06-30T11:17:40Z</time>
      </trkpt>
      <trkpt lat="43.780579" lon="5.054847">
        <ele>79.08502</ele>
        <time>2021-06-30T11:17:41Z</time>
      </trkpt>
      <trkpt lat="43.780357" lon="5.055152">
        <ele>78.87616</ele>
        <time>2021-06-30T11:17:42Z</time>
      </trkpt>
      <trkpt lat="43.780113" lon="5.055492">
        <ele>78.85895</ele>
        <time>2021-06-30T11:17:43Z</time>
      </trkpt>
      <trkpt lat="43.779873" lon="5.055830">
        <ele>78.62201</ele>
        <time>2021-06-30T11:17:44Z</time>
      </trkpt>
      <trkpt lat="43.779652" lon="5.056137">
        <ele>78.39398</ele>
        <time>2021-06-30T11:17:45Z</time>
      </trkpt>
      <trkpt lat="43.779396" lon="5.056492">
        <ele>78.74579</ele>
        <time>2021-06-30T11:17:46Z</time>
      </trkpt>
      <trkpt lat="43.779148" lon="5.056839">
        <ele>77.45062</ele>
        <time>2021-06-30T11:17:47Z</time>
      </trkpt>
      <trkpt lat="43.778877" lon="5.057218">
        <ele>76.94049</ele>
        <time>2021-06-30T11:17:48Z</time>
      </trkpt>
      <trkpt lat="43.778877" lon="5.057218">
        <ele>76.66742</ele>
        <time>2021-06-30T11:17:49Z</time>
      </trkpt>
      <trkpt lat="43.778637" lon="5.057552">
        <ele>77.48578</ele>
        <time>2021-06-30T11:17:50Z</time>
      </trkpt>
      <trkpt lat="43.778378" lon="5.057916">
        <ele>78.76141</ele>
        <time>2021-06-30T11:17:51Z</time>
      </trkpt>
      <trkpt lat="43.778137" lon="5.058247">
        <ele>79.31659</ele>
        <time>2021-06-30T11:17:52Z</time>
      </trkpt>
      <trkpt lat="43.777885" lon="5.058601">
        <ele>79.88623</ele>
        <time>2021-06-30T11:17:53Z</time>
      </trkpt>
      <trkpt lat="43.777611" lon="5.058980">
        <ele>80.25250</ele>
        <time>2021-06-30T11:17:54Z</time>
      </trkpt>
      <trkpt lat="43.777374" lon="5.059308">
        <ele>80.19135</ele>
        <time>2021-06-30T11:17:55Z</time>
      </trkpt>
      <trkpt lat="43.777107" lon="5.059676">
        <ele>81.04797</ele>
        <time>2021-06-30T11:17:56Z</time>
      </trkpt>
      <trkpt lat="43.776871" lon="5.060007">
        <ele>81.07635</ele>
        <time>2021-06-30T11:17:57Z</time>
      </trkpt>
      <trkpt lat="43.776611" lon="5.060363">
        <ele>81.60193</ele>
        <time>2021-06-30T11:17:58Z</time>
      </trkpt>
      <trkpt lat="43.776379" lon="5.060688">
        <ele>81.42334</ele>
        <time>2021-06-30T11:17:59Z</time>
      </trkpt>
      <trkpt lat="43.776093" lon="5.061082">
        <ele>81.37201</ele>
        <time>2021-06-30T11:18:00Z</time>
      </trkpt>
      <trkpt lat="43.775856" lon="5.061402">
        <ele>81.63953</ele>
        <time>2021-06-30T11:18:01Z</time>
      </trkpt>
      <trkpt lat="43.775600" lon="5.061744">
        <ele>81.89429</ele>
        <time>2021-06-30T11:18:02Z</time>
      </trkpt>
      <trkpt lat="43.775330" lon="5.062109">
        <ele>82.32880</ele>
        <time>2021-06-30T11:18:03Z</time>
      </trkpt>
      <trkpt lat="43.775059" lon="5.062470">
        <ele>82.29431</ele>
        <time>2021-06-30T11:18:04Z</time>
      </trkpt>
      <trkpt lat="43.774799" lon="5.062823">
        <ele>82.55005</ele>
        <time>2021-06-30T11:18:05Z</time>
      </trkpt>
      <trkpt lat="43.774529" lon="5.063182">
        <ele>82.66479</ele>
        <time>2021-06-30T11:18:06Z</time>
      </trkpt>
      <trkpt lat="43.774277" lon="5.063509">
        <ele>83.45850</ele>
        <time>2021-06-30T11:18:07Z</time>
      </trkpt>
      <trkpt lat="43.774006" lon="5.063864">
        <ele>82.86194</ele>
        <time>2021-06-30T11:18:08Z</time>
      </trkpt>
      <trkpt lat="43.773762" lon="5.064181">
        <ele>82.61511</ele>
        <time>2021-06-30T11:18:09Z</time>
      </trkpt>
      <trkpt lat="43.773506" lon="5.064516">
        <ele>83.23462</ele>
        <time>2021-06-30T11:18:10Z</time>
      </trkpt>
      <trkpt lat="43.773247" lon="5.064843">
        <ele>83.20490</ele>
        <time>2021-06-30T11:18:11Z</time>
      </trkpt>
      <trkpt lat="43.772964" lon="5.065198">
        <ele>83.08398</ele>
        <time>2021-06-30T11:18:12Z</time>
      </trkpt>
      <trkpt lat="43.772701" lon="5.065529">
        <ele>83.93927</ele>
        <time>2021-06-30T11:18:13Z</time>
      </trkpt>
      <trkpt lat="43.772430" lon="5.065870">
        <ele>83.39758</ele>
        <time>2021-06-30T11:18:14Z</time>
      </trkpt>
      <trkpt lat="43.772167" lon="5.066194">
        <ele>83.36292</ele>
        <time>2021-06-30T11:18:15Z</time>
      </trkpt>
      <trkpt lat="43.771896" lon="5.066521">
        <ele>83.36609</ele>
        <time>2021-06-30T11:18:16Z</time>
      </trkpt>
      <trkpt lat="43.771626" lon="5.066853">
        <ele>83.46155</ele>
        <time>2021-06-30T11:18:17Z</time>
      </trkpt>
      <trkpt lat="43.771362" lon="5.067171">
        <ele>83.99847</ele>
        <time>2021-06-30T11:18:18Z</time>
      </trkpt>
      <trkpt lat="43.771072" lon="5.067524">
        <ele>84.47406</ele>
        <time>2021-06-30T11:18:19Z</time>
      </trkpt>
      <trkpt lat="43.770809" lon="5.067828">
        <ele>84.75098</ele>
        <time>2021-06-30T11:18:20Z</time>
      </trkpt>
      <trkpt lat="43.770531" lon="5.068153">
        <ele>84.21606</ele>
        <time>2021-06-30T11:18:21Z</time>
      </trkpt>
      <trkpt lat="43.770531" lon="5.068153">
        <ele>84.61853</ele>
        <time>2021-06-30T11:18:22Z</time>
      </trkpt>
      <trkpt lat="43.769974" lon="5.068801">
        <ele>84.72925</ele>
        <time>2021-06-30T11:18:23Z</time>
      </trkpt>
      <trkpt lat="43.769974" lon="5.068801">
        <ele>84.08594</ele>
        <time>2021-06-30T11:18:24Z</time>
      </trkpt>
      <trkpt lat="43.769707" lon="5.069110">
        <ele>83.87769</ele>
        <time>2021-06-30T11:18:25Z</time>
      </trkpt>
      <trkpt lat="43.769402" lon="5.069452">
        <ele>83.57874</ele>
        <time>2021-06-30T11:18:26Z</time>
      </trkpt>
      <trkpt lat="43.769119" lon="5.069768">
        <ele>84.00385</ele>
        <time>2021-06-30T11:18:27Z</time>
      </trkpt>
      <trkpt lat="43.768814" lon="5.070110">
        <ele>83.97571</ele>
        <time>2021-06-30T11:18:28Z</time>
      </trkpt>
      <trkpt lat="43.768570" lon="5.070383">
        <ele>84.88507</ele>
        <time>2021-06-30T11:18:29Z</time>
      </trkpt>
      <trkpt lat="43.768284" lon="5.070702">
        <ele>85.95825</ele>
        <time>2021-06-30T11:18:30Z</time>
      </trkpt>
      <trkpt lat="43.767979" lon="5.071029">
        <ele>85.80841</ele>
        <time>2021-06-30T11:18:31Z</time>
      </trkpt>
      <trkpt lat="43.767708" lon="5.071322">
        <ele>86.04089</ele>
        <time>2021-06-30T11:18:32Z</time>
      </trkpt>
      <trkpt lat="43.767414" lon="5.071640">
        <ele>86.41467</ele>
        <time>2021-06-30T11:18:33Z</time>
      </trkpt>
      <trkpt lat="43.767132" lon="5.071945">
        <ele>86.20135</ele>
        <time>2021-06-30T11:18:34Z</time>
      </trkpt>
      <trkpt lat="43.766846" lon="5.072242">
        <ele>86.76648</ele>
        <time>2021-06-30T11:18:35Z</time>
      </trkpt>
      <trkpt lat="43.766548" lon="5.072554">
        <ele>87.89648</ele>
        <time>2021-06-30T11:18:36Z</time>
      </trkpt>
      <trkpt lat="43.766273" lon="5.072842">
        <ele>87.55145</ele>
        <time>2021-06-30T11:18:37Z</time>
      </trkpt>
      <trkpt lat="43.765972" lon="5.073149">
        <ele>87.52466</ele>
        <time>2021-06-30T11:18:38Z</time>
      </trkpt>
      <trkpt lat="43.765671" lon="5.073458">
        <ele>86.80017</ele>
        <time>2021-06-30T11:18:39Z</time>
      </trkpt>
      <trkpt lat="43.765392" lon="5.073736">
        <ele>87.35291</ele>
        <time>2021-06-30T11:18:40Z</time>
      </trkpt>
      <trkpt lat="43.765095" lon="5.074030">
        <ele>86.86530</ele>
        <time>2021-06-30T11:18:41Z</time>
      </trkpt>
      <trkpt lat="43.764793" lon="5.074331">
        <ele>87.35425</ele>
        <time>2021-06-30T11:18:42Z</time>
      </trkpt>
      <trkpt lat="43.764500" lon="5.074623">
        <ele>88.07764</ele>
        <time>2021-06-30T11:18:43Z</time>
      </trkpt>
      <trkpt lat="43.764198" lon="5.074919">
        <ele>89.10126</ele>
        <time>2021-06-30T11:18:44Z</time>
      </trkpt>
      <trkpt lat="43.763889" lon="5.075212">
        <ele>89.82867</ele>
        <time>2021-06-30T11:18:45Z</time>
      </trkpt>
      <trkpt lat="43.763588" lon="5.075501">
        <ele>90.12750</ele>
        <time>2021-06-30T11:18:46Z</time>
      </trkpt>
      <trkpt lat="43.763294" lon="5.075779">
        <ele>90.03516</ele>
        <time>2021-06-30T11:18:47Z</time>
      </trkpt>
      <trkpt lat="43.763294" lon="5.075779">
        <ele>90.29901</ele>
        <time>2021-06-30T11:18:48Z</time>
      </trkpt>
      <trkpt lat="43.762711" lon="5.076333">
        <ele>90.32715</ele>
        <time>2021-06-30T11:18:49Z</time>
      </trkpt>
      <trkpt lat="43.762711" lon="5.076333">
        <ele>90.74023</ele>
        <time>2021-06-30T11:18:50Z</time>
      </trkpt>
      <trkpt lat="43.762424" lon="5.076601">
        <ele>91.33783</ele>
        <time>2021-06-30T11:18:51Z</time>
      </trkpt>
      <trkpt lat="43.762081" lon="5.076901">
        <ele>91.83032</ele>
        <time>2021-06-30T11:18:52Z</time>
      </trkpt>
      <trkpt lat="43.761784" lon="5.077171">
        <ele>92.40686</ele>
        <time>2021-06-30T11:18:53Z</time>
      </trkpt>
      <trkpt lat="43.761478" lon="5.077459">
        <ele>92.54614</ele>
        <time>2021-06-30T11:18:54Z</time>
      </trkpt>
      <trkpt lat="43.761177" lon="5.077745">
        <ele>92.30505</ele>
        <time>2021-06-30T11:18:55Z</time>
      </trkpt>
      <trkpt lat="43.760872" lon="5.078017">
        <ele>91.69611</ele>
        <time>2021-06-30T11:18:56Z</time>
      </trkpt>
      <trkpt lat="43.760555" lon="5.078288">
        <ele>91.98834</ele>
        <time>2021-06-30T11:18:57Z</time>
      </trkpt>
      <trkpt lat="43.760250" lon="5.078551">
        <ele>91.67804</ele>
        <time>2021-06-30T11:18:58Z</time>
      </trkpt>
      <trkpt lat="43.759933" lon="5.078813">
        <ele>90.78339</ele>
        <time>2021-06-30T11:18:59Z</time>
      </trkpt>
      <trkpt lat="43.759617" lon="5.079064">
        <ele>90.91547</ele>
        <time>2021-06-30T11:19:00Z</time>
      </trkpt>
      <trkpt lat="43.759304" lon="5.079313">
        <ele>91.48718</ele>
        <time>2021-06-30T11:19:01Z</time>
      </trkpt>
      <trkpt lat="43.758987" lon="5.079565">
        <ele>91.69635</ele>
        <time>2021-06-30T11:19:02Z</time>
      </trkpt>
      <trkpt lat="43.758694" lon="5.079797">
        <ele>91.59393</ele>
        <time>2021-06-30T11:19:03Z</time>
      </trkpt>
      <trkpt lat="43.758381" lon="5.080033">
        <ele>92.97308</ele>
        <time>2021-06-30T11:19:04Z</time>
      </trkpt>
      <trkpt lat="43.758045" lon="5.080279">
        <ele>91.97571</ele>
        <time>2021-06-30T11:19:05Z</time>
      </trkpt>
      <trkpt lat="43.757725" lon="5.080509">
        <ele>92.50134</ele>
        <time>2021-06-30T11:19:06Z</time>
      </trkpt>
      <trkpt lat="43.757412" lon="5.080722">
        <ele>92.31104</ele>
        <time>2021-06-30T11:19:07Z</time>
      </trkpt>
      <trkpt lat="43.757099" lon="5.080936">
        <ele>91.50665</ele>
        <time>2021-06-30T11:19:08Z</time>
      </trkpt>
      <trkpt lat="43.756767" lon="5.081163">
        <ele>91.37360</ele>
        <time>2021-06-30T11:19:09Z</time>
      </trkpt>
      <trkpt lat="43.756451" lon="5.081372">
        <ele>92.69495</ele>
        <time>2021-06-30T11:19:10Z</time>
      </trkpt>
      <trkpt lat="43.756111" lon="5.081588">
        <ele>93.09106</ele>
        <time>2021-06-30T11:19:11Z</time>
      </trkpt>
      <trkpt lat="43.755795" lon="5.081781">
        <ele>93.02710</ele>
        <time>2021-06-30T11:19:12Z</time>
      </trkpt>
      <trkpt lat="43.755455" lon="5.081982">
        <ele>93.05542</ele>
        <time>2021-06-30T11:19:13Z</time>
      </trkpt>
      <trkpt lat="43.755131" lon="5.082172">
        <ele>92.90283</ele>
        <time>2021-06-30T11:19:14Z</time>
      </trkpt>
      <trkpt lat="43.754791" lon="5.082360">
        <ele>92.83533</ele>
        <time>2021-06-30T11:19:15Z</time>
      </trkpt>
      <trkpt lat="43.754478" lon="5.082531">
        <ele>92.79382</ele>
        <time>2021-06-30T11:19:16Z</time>
      </trkpt>
      <trkpt lat="43.754143" lon="5.082711">
        <ele>92.43689</ele>
        <time>2021-06-30T11:19:17Z</time>
      </trkpt>
      <trkpt lat="43.753784" lon="5.082892">
        <ele>93.96094</ele>
        <time>2021-06-30T11:19:18Z</time>
      </trkpt>
      <trkpt lat="43.753460" lon="5.083052">
        <ele>93.74146</ele>
        <time>2021-06-30T11:19:19Z</time>
      </trkpt>
      <trkpt lat="43.753105" lon="5.083221">
        <ele>93.66504</ele>
        <time>2021-06-30T11:19:20Z</time>
      </trkpt>
      <trkpt lat="43.752750" lon="5.083391">
        <ele>94.72797</ele>
        <time>2021-06-30T11:19:21Z</time>
      </trkpt>
      <trkpt lat="43.752415" lon="5.083543">
        <ele>94.96008</ele>
        <time>2021-06-30T11:19:22Z</time>
      </trkpt>
      <trkpt lat="43.752090" lon="5.083687">
        <ele>94.94458</ele>
        <time>2021-06-30T11:19:23Z</time>
      </trkpt>
      <trkpt lat="43.751728" lon="5.083840">
        <ele>95.67029</ele>
        <time>2021-06-30T11:19:24Z</time>
      </trkpt>
      <trkpt lat="43.751369" lon="5.083992">
        <ele>96.45306</ele>
        <time>2021-06-30T11:19:25Z</time>
      </trkpt>
      <trkpt lat="43.751369" lon="5.083992">
        <ele>96.82324</ele>
        <time>2021-06-30T11:19:26Z</time>
      </trkpt>
      <trkpt lat="43.751019" lon="5.084140">
        <ele>97.38367</ele>
        <time>2021-06-30T11:19:27Z</time>
      </trkpt>
      <trkpt lat="43.750675" lon="5.084283">
        <ele>97.12988</ele>
        <time>2021-06-30T11:19:28Z</time>
      </trkpt>
      <trkpt lat="43.750328" lon="5.084412">
        <ele>96.78589</ele>
        <time>2021-06-30T11:19:29Z</time>
      </trkpt>
      <trkpt lat="43.749985" lon="5.084539">
        <ele>97.37988</ele>
        <time>2021-06-30T11:19:30Z</time>
      </trkpt>
      <trkpt lat="43.749611" lon="5.084677">
        <ele>97.51105</ele>
        <time>2021-06-30T11:19:31Z</time>
      </trkpt>
      <trkpt lat="43.749256" lon="5.084802">
        <ele>98.34656</ele>
        <time>2021-06-30T11:19:32Z</time>
      </trkpt>
      <trkpt lat="43.748913" lon="5.084919">
        <ele>98.82581</ele>
        <time>2021-06-30T11:19:33Z</time>
      </trkpt>
      <trkpt lat="43.748569" lon="5.085035">
        <ele>99.63434</ele>
        <time>2021-06-30T11:19:34Z</time>
      </trkpt>
      <trkpt lat="43.748226" lon="5.085151">
        <ele>101.18597</ele>
        <time>2021-06-30T11:19:35Z</time>
      </trkpt>
      <trkpt lat="43.747894" lon="5.085264">
        <ele>102.03052</ele>
        <time>2021-06-30T11:19:36Z</time>
      </trkpt>
      <trkpt lat="43.747551" lon="5.085384">
        <ele>102.65625</ele>
        <time>2021-06-30T11:19:37Z</time>
      </trkpt>
      <trkpt lat="43.747196" lon="5.085498">
        <ele>103.64868</ele>
        <time>2021-06-30T11:19:38Z</time>
      </trkpt>
      <trkpt lat="43.746845" lon="5.085619">
        <ele>103.55194</ele>
        <time>2021-06-30T11:19:39Z</time>
      </trkpt>
      <trkpt lat="43.746483" lon="5.085747">
        <ele>104.00244</ele>
        <time>2021-06-30T11:19:40Z</time>
      </trkpt>
      <trkpt lat="43.746147" lon="5.085866">
        <ele>103.70538</ele>
        <time>2021-06-30T11:19:41Z</time>
      </trkpt>
      <trkpt lat="43.745796" lon="5.085981">
        <ele>104.26233</ele>
        <time>2021-06-30T11:19:42Z</time>
      </trkpt>
      <trkpt lat="43.745430" lon="5.086101">
        <ele>104.00671</ele>
        <time>2021-06-30T11:19:43Z</time>
      </trkpt>
      <trkpt lat="43.745049" lon="5.086225">
        <ele>104.43091</ele>
        <time>2021-06-30T11:19:44Z</time>
      </trkpt>
      <trkpt lat="43.744701" lon="5.086338">
        <ele>104.58978</ele>
        <time>2021-06-30T11:19:45Z</time>
      </trkpt>
      <trkpt lat="43.744366" lon="5.086446">
        <ele>104.40839</ele>
        <time>2021-06-30T11:19:46Z</time>
      </trkpt>
      <trkpt lat="43.744026" lon="5.086556">
        <ele>104.46350</ele>
        <time>2021-06-30T11:19:47Z</time>
      </trkpt>
      <trkpt lat="43.743660" lon="5.086673">
        <ele>104.45679</ele>
        <time>2021-06-30T11:19:48Z</time>
      </trkpt>
      <trkpt lat="43.743294" lon="5.086790">
        <ele>104.16748</ele>
        <time>2021-06-30T11:19:49Z</time>
      </trkpt>
      <trkpt lat="43.742924" lon="5.086907">
        <ele>104.18787</ele>
        <time>2021-06-30T11:19:50Z</time>
      </trkpt>
      <trkpt lat="43.742577" lon="5.087016">
        <ele>104.20496</ele>
        <time>2021-06-30T11:19:51Z</time>
      </trkpt>
      <trkpt lat="43.742226" lon="5.087128">
        <ele>104.00110</ele>
        <time>2021-06-30T11:19:52Z</time>
      </trkpt>
      <trkpt lat="43.741859" lon="5.087245">
        <ele>104.50580</ele>
        <time>2021-06-30T11:19:53Z</time>
      </trkpt>
      <trkpt lat="43.741505" lon="5.087347">
        <ele>104.65942</ele>
        <time>2021-06-30T11:19:54Z</time>
      </trkpt>
      <trkpt lat="43.741505" lon="5.087347">
        <ele>104.74438</ele>
        <time>2021-06-30T11:19:55Z</time>
      </trkpt>
      <trkpt lat="43.741131" lon="5.087462">
        <ele>104.75995</ele>
        <time>2021-06-30T11:19:56Z</time>
      </trkpt>
      <trkpt lat="43.740768" lon="5.087576">
        <ele>104.84888</ele>
        <time>2021-06-30T11:19:57Z</time>
      </trkpt>
      <trkpt lat="43.740410" lon="5.087711">
        <ele>104.81482</ele>
        <time>2021-06-30T11:19:58Z</time>
      </trkpt>
      <trkpt lat="43.740051" lon="5.087829">
        <ele>105.41705</ele>
        <time>2021-06-30T11:19:59Z</time>
      </trkpt>
      <trkpt lat="43.739704" lon="5.087938">
        <ele>105.76465</ele>
        <time>2021-06-30T11:20:00Z</time>
      </trkpt>
      <trkpt lat="43.739353" lon="5.088050">
        <ele>104.85394</ele>
        <time>2021-06-30T11:20:01Z</time>
      </trkpt>
      <trkpt lat="43.738991" lon="5.088165">
        <ele>105.25232</ele>
        <time>2021-06-30T11:20:02Z</time>
      </trkpt>
      <trkpt lat="43.738609" lon="5.088284">
        <ele>105.16791</ele>
        <time>2021-06-30T11:20:03Z</time>
      </trkpt>
      <trkpt lat="43.738289" lon="5.088383">
        <ele>104.83215</ele>
        <time>2021-06-30T11:20:04Z</time>
      </trkpt>
      <trkpt lat="43.737900" lon="5.088485">
        <ele>104.50879</ele>
        <time>2021-06-30T11:20:05Z</time>
      </trkpt>
      <trkpt lat="43.737549" lon="5.088578">
        <ele>104.04590</ele>
        <time>2021-06-30T11:20:06Z</time>
      </trkpt>
      <trkpt lat="43.737209" lon="5.088668">
        <ele>103.83295</ele>
        <time>2021-06-30T11:20:07Z</time>
      </trkpt>
      <trkpt lat="43.736847" lon="5.088763">
        <ele>104.00378</ele>
        <time>2021-06-30T11:20:08Z</time>
      </trkpt>
      <trkpt lat="43.736481" lon="5.088847">
        <ele>103.51971</ele>
        <time>2021-06-30T11:20:09Z</time>
      </trkpt>
      <trkpt lat="43.736134" lon="5.088921">
        <ele>103.79010</ele>
        <time>2021-06-30T11:20:10Z</time>
      </trkpt>
      <trkpt lat="43.735786" lon="5.088984">
        <ele>103.19513</ele>
        <time>2021-06-30T11:20:11Z</time>
      </trkpt>
      <trkpt lat="43.735432" lon="5.089049">
        <ele>103.58704</ele>
        <time>2021-06-30T11:20:12Z</time>
      </trkpt>
      <trkpt lat="43.735058" lon="5.089114">
        <ele>102.54431</ele>
        <time>2021-06-30T11:20:13Z</time>
      </trkpt>
      <trkpt lat="43.734711" lon="5.089162">
        <ele>102.40588</ele>
        <time>2021-06-30T11:20:14Z</time>
      </trkpt>
      <trkpt lat="43.734364" lon="5.089210">
        <ele>102.10114</ele>
        <time>2021-06-30T11:20:15Z</time>
      </trkpt>
      <trkpt lat="43.734009" lon="5.089246">
        <ele>102.36511</ele>
        <time>2021-06-30T11:20:16Z</time>
      </trkpt>
      <trkpt lat="43.733643" lon="5.089282">
        <ele>102.60358</ele>
        <time>2021-06-30T11:20:18Z</time>
      </trkpt>
      <trkpt lat="43.733280" lon="5.089318">
        <ele>102.43848</ele>
        <time>2021-06-30T11:20:18Z</time>
      </trkpt>
      <trkpt lat="43.732918" lon="5.089344">
        <ele>102.94250</ele>
        <time>2021-06-30T11:20:19Z</time>
      </trkpt>
      <trkpt lat="43.732555" lon="5.089367">
        <ele>102.52209</ele>
        <time>2021-06-30T11:20:20Z</time>
      </trkpt>
      <trkpt lat="43.732189" lon="5.089389">
        <ele>102.11664</ele>
        <time>2021-06-30T11:20:21Z</time>
      </trkpt>
      <trkpt lat="43.731846" lon="5.089402">
        <ele>101.02856</ele>
        <time>2021-06-30T11:20:22Z</time>
      </trkpt>
      <trkpt lat="43.731468" lon="5.089416">
        <ele>101.16058</ele>
        <time>2021-06-30T11:20:23Z</time>
      </trkpt>
      <trkpt lat="43.731468" lon="5.089416">
        <ele>100.93286</ele>
        <time>2021-06-30T11:20:24Z</time>
      </trkpt>
      <trkpt lat="43.731121" lon="5.089428">
        <ele>100.37677</ele>
        <time>2021-06-30T11:20:25Z</time>
      </trkpt>
      <trkpt lat="43.730740" lon="5.089442">
        <ele>100.83423</ele>
        <time>2021-06-30T11:20:26Z</time>
      </trkpt>
      <trkpt lat="43.730396" lon="5.089452">
        <ele>101.16980</ele>
        <time>2021-06-30T11:20:27Z</time>
      </trkpt>
      <trkpt lat="43.730049" lon="5.089457">
        <ele>101.62384</ele>
        <time>2021-06-30T11:20:28Z</time>
      </trkpt>
      <trkpt lat="43.729683" lon="5.089462">
        <ele>102.09521</ele>
        <time>2021-06-30T11:20:29Z</time>
      </trkpt>
      <trkpt lat="43.729340" lon="5.089466">
        <ele>102.66309</ele>
        <time>2021-06-30T11:20:30Z</time>
      </trkpt>
      <trkpt lat="43.728970" lon="5.089471">
        <ele>101.15509</ele>
        <time>2021-06-30T11:20:31Z</time>
      </trkpt>
      <trkpt lat="43.728615" lon="5.089476">
        <ele>100.81293</ele>
        <time>2021-06-30T11:20:32Z</time>
      </trkpt>
      <trkpt lat="43.728237" lon="5.089480">
        <ele>101.25592</ele>
        <time>2021-06-30T11:20:33Z</time>
      </trkpt>
      <trkpt lat="43.727890" lon="5.089484">
        <ele>101.37933</ele>
        <time>2021-06-30T11:20:34Z</time>
      </trkpt>
      <trkpt lat="43.727528" lon="5.089495">
        <ele>102.02844</ele>
        <time>2021-06-30T11:20:35Z</time>
      </trkpt>
      <trkpt lat="43.727158" lon="5.089507">
        <ele>102.47797</ele>
        <time>2021-06-30T11:20:36Z</time>
      </trkpt>
      <trkpt lat="43.726807" lon="5.089518">
        <ele>101.92194</ele>
        <time>2021-06-30T11:20:37Z</time>
      </trkpt>
      <trkpt lat="43.726479" lon="5.089533">
        <ele>102.22650</ele>
        <time>2021-06-30T11:20:39Z</time>
      </trkpt>
      <trkpt lat="43.726101" lon="5.089554">
        <ele>102.20593</ele>
        <time>2021-06-30T11:20:39Z</time>
      </trkpt>
      <trkpt lat="43.725746" lon="5.089573">
        <ele>102.27771</ele>
        <time>2021-06-30T11:20:40Z</time>
      </trkpt>
      <trkpt lat="43.725399" lon="5.089591">
        <ele>102.05768</ele>
        <time>2021-06-30T11:20:41Z</time>
      </trkpt>
      <trkpt lat="43.725029" lon="5.089619">
        <ele>102.55652</ele>
        <time>2021-06-30T11:20:42Z</time>
      </trkpt>
      <trkpt lat="43.724670" lon="5.089653">
        <ele>102.03815</ele>
        <time>2021-06-30T11:20:43Z</time>
      </trkpt>
      <trkpt lat="43.724300" lon="5.089693">
        <ele>102.55481</ele>
        <time>2021-06-30T11:20:44Z</time>
      </trkpt>
      <trkpt lat="43.723934" lon="5.089732">
        <ele>102.44092</ele>
        <time>2021-06-30T11:20:45Z</time>
      </trkpt>
      <trkpt lat="43.723587" lon="5.089770">
        <ele>102.23981</ele>
        <time>2021-06-30T11:20:46Z</time>
      </trkpt>
      <trkpt lat="43.723221" lon="5.089827">
        <ele>102.47363</ele>
        <time>2021-06-30T11:20:47Z</time>
      </trkpt>
      <trkpt lat="43.722862" lon="5.089883">
        <ele>103.21588</ele>
        <time>2021-06-30T11:20:48Z</time>
      </trkpt>
      <trkpt lat="43.722500" lon="5.089939">
        <ele>102.87524</ele>
        <time>2021-06-30T11:20:49Z</time>
      </trkpt>
      <trkpt lat="43.722126" lon="5.090000">
        <ele>102.36371</ele>
        <time>2021-06-30T11:20:50Z</time>
      </trkpt>
      <trkpt lat="43.721779" lon="5.090063">
        <ele>102.45081</ele>
        <time>2021-06-30T11:20:51Z</time>
      </trkpt>
      <trkpt lat="43.721424" lon="5.090137">
        <ele>102.65179</ele>
        <time>2021-06-30T11:20:52Z</time>
      </trkpt>
      <trkpt lat="43.721066" lon="5.090212">
        <ele>102.93805</ele>
        <time>2021-06-30T11:20:53Z</time>
      </trkpt>
      <trkpt lat="43.720726" lon="5.090288">
        <ele>103.26031</ele>
        <time>2021-06-30T11:20:54Z</time>
      </trkpt>
      <trkpt lat="43.720367" lon="5.090370">
        <ele>104.00549</ele>
        <time>2021-06-30T11:20:55Z</time>
      </trkpt>
      <trkpt lat="43.720016" lon="5.090463">
        <ele>104.25574</ele>
        <time>2021-06-30T11:20:56Z</time>
      </trkpt>
      <trkpt lat="43.719666" lon="5.090558">
        <ele>104.13928</ele>
        <time>2021-06-30T11:20:57Z</time>
      </trkpt>
      <trkpt lat="43.719303" lon="5.090656">
        <ele>104.64209</ele>
        <time>2021-06-30T11:20:58Z</time>
      </trkpt>
      <trkpt lat="43.718948" lon="5.090754">
        <ele>104.36243</ele>
        <time>2021-06-30T11:20:59Z</time>
      </trkpt>
      <trkpt lat="43.718578" lon="5.090873">
        <ele>104.52911</ele>
        <time>2021-06-30T11:21:00Z</time>
      </trkpt>
      <trkpt lat="43.718578" lon="5.090873">
        <ele>104.52985</ele>
        <time>2021-06-30T11:21:01Z</time>
      </trkpt>
      <trkpt lat="43.718224" lon="5.090987">
        <ele>105.03162</ele>
        <time>2021-06-30T11:21:02Z</time>
      </trkpt>
      <trkpt lat="43.717884" lon="5.091096">
        <ele>105.37073</ele>
        <time>2021-06-30T11:21:03Z</time>
      </trkpt>
      <trkpt lat="43.717506" lon="5.091221">
        <ele>105.40698</ele>
        <time>2021-06-30T11:21:04Z</time>
      </trkpt>
      <trkpt lat="43.717155" lon="5.091345">
        <ele>105.18134</ele>
        <time>2021-06-30T11:21:05Z</time>
      </trkpt>
      <trkpt lat="43.716785" lon="5.091476">
        <ele>104.98810</ele>
        <time>2021-06-30T11:21:06Z</time>
      </trkpt>
      <trkpt lat="43.716442" lon="5.091606">
        <ele>104.87805</ele>
        <time>2021-06-30T11:21:07Z</time>
      </trkpt>
      <trkpt lat="43.716125" lon="5.091733">
        <ele>105.06128</ele>
        <time>2021-06-30T11:21:08Z</time>
      </trkpt>
      <trkpt lat="43.715782" lon="5.091873">
        <ele>105.76245</ele>
        <time>2021-06-30T11:21:10Z</time>
      </trkpt>
      <trkpt lat="43.715431" lon="5.092021">
        <ele>106.06482</ele>
        <time>2021-06-30T11:21:10Z</time>
      </trkpt>
      <trkpt lat="43.715088" lon="5.092163">
        <ele>105.58459</ele>
        <time>2021-06-30T11:21:11Z</time>
      </trkpt>
      <trkpt lat="43.714714" lon="5.092338">
        <ele>105.57898</ele>
        <time>2021-06-30T11:21:12Z</time>
      </trkpt>
      <trkpt lat="43.714375" lon="5.092499">
        <ele>105.76099</ele>
        <time>2021-06-30T11:21:13Z</time>
      </trkpt>
      <trkpt lat="43.714035" lon="5.092659">
        <ele>105.81641</ele>
        <time>2021-06-30T11:21:14Z</time>
      </trkpt>
      <trkpt lat="43.713703" lon="5.092821">
        <ele>105.66522</ele>
        <time>2021-06-30T11:21:15Z</time>
      </trkpt>
      <trkpt lat="43.713360" lon="5.092999">
        <ele>106.21912</ele>
        <time>2021-06-30T11:21:16Z</time>
      </trkpt>
      <trkpt lat="43.713009" lon="5.093181">
        <ele>107.38757</ele>
        <time>2021-06-30T11:21:17Z</time>
      </trkpt>
      <trkpt lat="43.712669" lon="5.093357">
        <ele>107.61255</ele>
        <time>2021-06-30T11:21:18Z</time>
      </trkpt>
      <trkpt lat="43.712337" lon="5.093544">
        <ele>108.31201</ele>
        <time>2021-06-30T11:21:19Z</time>
      </trkpt>
      <trkpt lat="43.712013" lon="5.093726">
        <ele>108.40344</ele>
        <time>2021-06-30T11:21:20Z</time>
      </trkpt>
      <trkpt lat="43.711681" lon="5.093913">
        <ele>107.52325</ele>
        <time>2021-06-30T11:21:21Z</time>
      </trkpt>
      <trkpt lat="43.711349" lon="5.094103">
        <ele>107.71240</ele>
        <time>2021-06-30T11:21:22Z</time>
      </trkpt>
      <trkpt lat="43.711002" lon="5.094315">
        <ele>108.23102</ele>
        <time>2021-06-30T11:21:23Z</time>
      </trkpt>
      <trkpt lat="43.710663" lon="5.094525">
        <ele>108.97198</ele>
        <time>2021-06-30T11:21:24Z</time>
      </trkpt>
      <trkpt lat="43.710358" lon="5.094716">
        <ele>109.38867</ele>
        <time>2021-06-30T11:21:25Z</time>
      </trkpt>
      <trkpt lat="43.710045" lon="5.094917">
        <ele>109.53363</ele>
        <time>2021-06-30T11:21:26Z</time>
      </trkpt>
      <trkpt lat="43.709724" lon="5.095127">
        <ele>110.43372</ele>
        <time>2021-06-30T11:21:27Z</time>
      </trkpt>
      <trkpt lat="43.709389" lon="5.095340">
        <ele>110.77069</ele>
        <time>2021-06-30T11:21:28Z</time>
      </trkpt>
      <trkpt lat="43.709064" lon="5.095560">
        <ele>110.66943</ele>
        <time>2021-06-30T11:21:29Z</time>
      </trkpt>
      <trkpt lat="43.708736" lon="5.095779">
        <ele>111.05090</ele>
        <time>2021-06-30T11:21:30Z</time>
      </trkpt>
      <trkpt lat="43.708736" lon="5.095779">
        <ele>111.78510</ele>
        <time>2021-06-30T11:21:31Z</time>
      </trkpt>
      <trkpt lat="43.708405" lon="5.096000">
        <ele>111.96619</ele>
        <time>2021-06-30T11:21:32Z</time>
      </trkpt>
      <trkpt lat="43.708080" lon="5.096213">
        <ele>113.61237</ele>
        <time>2021-06-30T11:21:33Z</time>
      </trkpt>
      <trkpt lat="43.707767" lon="5.096418">
        <ele>114.18677</ele>
        <time>2021-06-30T11:21:34Z</time>
      </trkpt>
      <trkpt lat="43.707462" lon="5.096621">
        <ele>113.78638</ele>
        <time>2021-06-30T11:21:35Z</time>
      </trkpt>
      <trkpt lat="43.707088" lon="5.096849">
        <ele>113.16467</ele>
        <time>2021-06-30T11:21:36Z</time>
      </trkpt>
      <trkpt lat="43.706764" lon="5.097044">
        <ele>113.81354</ele>
        <time>2021-06-30T11:21:37Z</time>
      </trkpt>
      <trkpt lat="43.706467" lon="5.097222">
        <ele>114.56427</ele>
        <time>2021-06-30T11:21:38Z</time>
      </trkpt>
      <trkpt lat="43.706127" lon="5.097402">
        <ele>116.78003</ele>
        <time>2021-06-30T11:21:39Z</time>
      </trkpt>
      <trkpt lat="43.705795" lon="5.097574">
        <ele>117.51074</ele>
        <time>2021-06-30T11:21:40Z</time>
      </trkpt>
      <trkpt lat="43.705444" lon="5.097737">
        <ele>117.48132</ele>
        <time>2021-06-30T11:21:41Z</time>
      </trkpt>
      <trkpt lat="43.705105" lon="5.097896">
        <ele>118.30817</ele>
        <time>2021-06-30T11:21:42Z</time>
      </trkpt>
      <trkpt lat="43.704769" lon="5.098024">
        <ele>119.84180</ele>
        <time>2021-06-30T11:21:43Z</time>
      </trkpt>
      <trkpt lat="43.704430" lon="5.098153">
        <ele>120.53363</ele>
        <time>2021-06-30T11:21:44Z</time>
      </trkpt>
      <trkpt lat="43.704075" lon="5.098264">
        <ele>121.27930</ele>
        <time>2021-06-30T11:21:45Z</time>
      </trkpt>
      <trkpt lat="43.703735" lon="5.098363">
        <ele>121.83411</ele>
        <time>2021-06-30T11:21:46Z</time>
      </trkpt>
      <trkpt lat="43.703388" lon="5.098454">
        <ele>122.25842</ele>
        <time>2021-06-30T11:21:47Z</time>
      </trkpt>
      <trkpt lat="43.703056" lon="5.098528">
        <ele>122.43945</ele>
        <time>2021-06-30T11:21:48Z</time>
      </trkpt>
      <trkpt lat="43.702698" lon="5.098594">
        <ele>122.72546</ele>
        <time>2021-06-30T11:21:49Z</time>
      </trkpt>
      <trkpt lat="43.702297" lon="5.098649">
        <ele>122.59650</ele>
        <time>2021-06-30T11:21:50Z</time>
      </trkpt>
      <trkpt lat="43.701916" lon="5.098683">
        <ele>122.18280</ele>
        <time>2021-06-30T11:21:51Z</time>
      </trkpt>
      <trkpt lat="43.701550" lon="5.098705">
        <ele>122.18781</ele>
        <time>2021-06-30T11:21:52Z</time>
      </trkpt>
      <trkpt lat="43.701195" lon="5.098709">
        <ele>122.49469</ele>
        <time>2021-06-30T11:21:53Z</time>
      </trkpt>
      <trkpt lat="43.700813" lon="5.098707">
        <ele>121.67456</ele>
        <time>2021-06-30T11:21:54Z</time>
      </trkpt>
      <trkpt lat="43.700432" lon="5.098687">
        <ele>121.87341</ele>
        <time>2021-06-30T11:21:55Z</time>
      </trkpt>
      <trkpt lat="43.700066" lon="5.098648">
        <ele>120.78381</ele>
        <time>2021-06-30T11:21:56Z</time>
      </trkpt>
      <trkpt lat="43.699688" lon="5.098593">
        <ele>121.44519</ele>
        <time>2021-06-30T11:21:57Z</time>
      </trkpt>
      <trkpt lat="43.699329" lon="5.098538">
        <ele>121.36157</ele>
        <time>2021-06-30T11:21:58Z</time>
      </trkpt>
      <trkpt lat="43.698959" lon="5.098462">
        <ele>121.44501</ele>
        <time>2021-06-30T11:21:59Z</time>
      </trkpt>
      <trkpt lat="43.698608" lon="5.098380">
        <ele>121.99866</ele>
        <time>2021-06-30T11:22:00Z</time>
      </trkpt>
      <trkpt lat="43.698257" lon="5.098289">
        <ele>121.92749</ele>
        <time>2021-06-30T11:22:01Z</time>
      </trkpt>
      <trkpt lat="43.697910" lon="5.098199">
        <ele>122.54364</ele>
        <time>2021-06-30T11:22:02Z</time>
      </trkpt>
      <trkpt lat="43.697582" lon="5.098114">
        <ele>124.01801</ele>
        <time>2021-06-30T11:22:04Z</time>
      </trkpt>
      <trkpt lat="43.697224" lon="5.098020">
        <ele>124.47070</ele>
        <time>2021-06-30T11:22:05Z</time>
      </trkpt>
      <trkpt lat="43.696861" lon="5.097925">
        <ele>124.94501</ele>
        <time>2021-06-30T11:22:05Z</time>
      </trkpt>
      <trkpt lat="43.696861" lon="5.097925">
        <ele>125.11005</ele>
        <time>2021-06-30T11:22:06Z</time>
      </trkpt>
      <trkpt lat="43.696503" lon="5.097830">
        <ele>124.67175</ele>
        <time>2021-06-30T11:22:07Z</time>
      </trkpt>
      <trkpt lat="43.696152" lon="5.097737">
        <ele>123.60315</ele>
        <time>2021-06-30T11:22:08Z</time>
      </trkpt>
      <trkpt lat="43.695808" lon="5.097649">
        <ele>123.44751</ele>
        <time>2021-06-30T11:22:09Z</time>
      </trkpt>
      <trkpt lat="43.695442" lon="5.097552">
        <ele>123.04138</ele>
        <time>2021-06-30T11:22:10Z</time>
      </trkpt>
      <trkpt lat="43.695087" lon="5.097458">
        <ele>123.27771</ele>
        <time>2021-06-30T11:22:11Z</time>
      </trkpt>
      <trkpt lat="43.694736" lon="5.097365">
        <ele>123.65198</ele>
        <time>2021-06-30T11:22:13Z</time>
      </trkpt>
      <trkpt lat="43.694359" lon="5.097265">
        <ele>124.05792</ele>
        <time>2021-06-30T11:22:13Z</time>
      </trkpt>
      <trkpt lat="43.694008" lon="5.097180">
        <ele>122.17810</ele>
        <time>2021-06-30T11:22:14Z</time>
      </trkpt>
      <trkpt lat="43.693661" lon="5.097098">
        <ele>122.26025</ele>
        <time>2021-06-30T11:22:15Z</time>
      </trkpt>
      <trkpt lat="43.693291" lon="5.097010">
        <ele>122.51660</ele>
        <time>2021-06-30T11:22:16Z</time>
      </trkpt>
      <trkpt lat="43.692928" lon="5.096923">
        <ele>122.21771</ele>
        <time>2021-06-30T11:22:17Z</time>
      </trkpt>
      <trkpt lat="43.692566" lon="5.096836">
        <ele>121.91858</ele>
        <time>2021-06-30T11:22:18Z</time>
      </trkpt>
      <trkpt lat="43.692211" lon="5.096750">
        <ele>121.81219</ele>
        <time>2021-06-30T11:22:19Z</time>
      </trkpt>
      <trkpt lat="43.691853" lon="5.096661">
        <ele>121.21912</ele>
        <time>2021-06-30T11:22:20Z</time>
      </trkpt>
      <trkpt lat="43.691498" lon="5.096585">
        <ele>121.15784</ele>
        <time>2021-06-30T11:22:21Z</time>
      </trkpt>
      <trkpt lat="43.691170" lon="5.096518">
        <ele>121.65454</ele>
        <time>2021-06-30T11:22:23Z</time>
      </trkpt>
      <trkpt lat="43.690800" lon="5.096443">
        <ele>120.94080</ele>
        <time>2021-06-30T11:22:23Z</time>
      </trkpt>
      <trkpt lat="43.690437" lon="5.096369">
        <ele>121.24756</ele>
        <time>2021-06-30T11:22:25Z</time>
      </trkpt>
      <trkpt lat="43.690102" lon="5.096307">
        <ele>121.95117</ele>
        <time>2021-06-30T11:22:25Z</time>
      </trkpt>
      <trkpt lat="43.689777" lon="5.096252">
        <ele>121.36005</ele>
        <time>2021-06-30T11:22:26Z</time>
      </trkpt>
      <trkpt lat="43.689430" lon="5.096193">
        <ele>122.26715</ele>
        <time>2021-06-30T11:22:27Z</time>
      </trkpt>
      <trkpt lat="43.689106" lon="5.096139">
        <ele>122.13837</ele>
        <time>2021-06-30T11:22:29Z</time>
      </trkpt>
      <trkpt lat="43.688793" lon="5.096086">
        <ele>122.01453</ele>
        <time>2021-06-30T11:22:29Z</time>
      </trkpt>
      <trkpt lat="43.688488" lon="5.096043">
        <ele>121.37585</ele>
        <time>2021-06-30T11:22:30Z</time>
      </trkpt>
      <trkpt lat="43.688175" lon="5.096003">
        <ele>121.25098</ele>
        <time>2021-06-30T11:22:31Z</time>
      </trkpt>
      <trkpt lat="43.687855" lon="5.095962">
        <ele>120.42456</ele>
        <time>2021-06-30T11:22:32Z</time>
      </trkpt>
      <trkpt lat="43.687519" lon="5.095924">
        <ele>119.38269</ele>
        <time>2021-06-30T11:22:33Z</time>
      </trkpt>
      <trkpt lat="43.687195" lon="5.095892">
        <ele>119.51074</ele>
        <time>2021-06-30T11:22:34Z</time>
      </trkpt>
      <trkpt lat="43.687195" lon="5.095892">
        <ele>120.38739</ele>
        <time>2021-06-30T11:22:35Z</time>
      </trkpt>
      <trkpt lat="43.686867" lon="5.095863">
        <ele>119.99561</ele>
        <time>2021-06-30T11:22:36Z</time>
      </trkpt>
      <trkpt lat="43.686550" lon="5.095839">
        <ele>119.71216</ele>
        <time>2021-06-30T11:22:37Z</time>
      </trkpt>
      <trkpt lat="43.686211" lon="5.095813">
        <ele>120.18329</ele>
        <time>2021-06-30T11:22:38Z</time>
      </trkpt>
      <trkpt lat="43.685848" lon="5.095786">
        <ele>121.21808</ele>
        <time>2021-06-30T11:22:39Z</time>
      </trkpt>
      <trkpt lat="43.685528" lon="5.095761">
        <ele>121.36133</ele>
        <time>2021-06-30T11:22:40Z</time>
      </trkpt>
      <trkpt lat="43.685177" lon="5.095738">
        <ele>121.45636</ele>
        <time>2021-06-30T11:22:41Z</time>
      </trkpt>
      <trkpt lat="43.684834" lon="5.095717">
        <ele>122.16223</ele>
        <time>2021-06-30T11:22:42Z</time>
      </trkpt>
      <trkpt lat="43.684528" lon="5.095700">
        <ele>121.77942</ele>
        <time>2021-06-30T11:22:43Z</time>
      </trkpt>
      <trkpt lat="43.684147" lon="5.095680">
        <ele>121.42841</ele>
        <time>2021-06-30T11:22:44Z</time>
      </trkpt>
      <trkpt lat="43.683800" lon="5.095663">
        <ele>120.78772</ele>
        <time>2021-06-30T11:22:45Z</time>
      </trkpt>
      <trkpt lat="43.683441" lon="5.095644">
        <ele>121.02051</ele>
        <time>2021-06-30T11:22:46Z</time>
      </trkpt>
      <trkpt lat="43.683094" lon="5.095627">
        <ele>121.01483</ele>
        <time>2021-06-30T11:22:47Z</time>
      </trkpt>
      <trkpt lat="43.682766" lon="5.095610">
        <ele>121.50311</ele>
        <time>2021-06-30T11:22:48Z</time>
      </trkpt>
      <trkpt lat="43.682400" lon="5.095596">
        <ele>121.72870</ele>
        <time>2021-06-30T11:22:49Z</time>
      </trkpt>
      <trkpt lat="43.682026" lon="5.095581">
        <ele>121.63336</ele>
        <time>2021-06-30T11:22:50Z</time>
      </trkpt>
      <trkpt lat="43.681675" lon="5.095568">
        <ele>121.54944</ele>
        <time>2021-06-30T11:22:51Z</time>
      </trkpt>
      <trkpt lat="43.681305" lon="5.095552">
        <ele>121.55408</ele>
        <time>2021-06-30T11:22:52Z</time>
      </trkpt>
      <trkpt lat="43.680939" lon="5.095537">
        <ele>121.41101</ele>
        <time>2021-06-30T11:22:53Z</time>
      </trkpt>
      <trkpt lat="43.680553" lon="5.095515">
        <ele>121.15637</ele>
        <time>2021-06-30T11:22:54Z</time>
      </trkpt>
      <trkpt lat="43.680187" lon="5.095495">
        <ele>121.68237</ele>
        <time>2021-06-30T11:22:55Z</time>
      </trkpt>
      <trkpt lat="43.679813" lon="5.095474">
        <ele>122.12476</ele>
        <time>2021-06-30T11:22:56Z</time>
      </trkpt>
      <trkpt lat="43.679447" lon="5.095454">
        <ele>121.65906</ele>
        <time>2021-06-30T11:22:57Z</time>
      </trkpt>
      <trkpt lat="43.679092" lon="5.095434">
        <ele>121.67926</ele>
        <time>2021-06-30T11:22:58Z</time>
      </trkpt>
      <trkpt lat="43.678715" lon="5.095413">
        <ele>121.12225</ele>
        <time>2021-06-30T11:22:59Z</time>
      </trkpt>
      <trkpt lat="43.678352" lon="5.095393">
        <ele>119.42358</ele>
        <time>2021-06-30T11:23:01Z</time>
      </trkpt>
      <trkpt lat="43.678005" lon="5.095393">
        <ele>118.69397</ele>
        <time>2021-06-30T11:23:01Z</time>
      </trkpt>
      <trkpt lat="43.677643" lon="5.095403">
        <ele>119.11719</ele>
        <time>2021-06-30T11:23:02Z</time>
      </trkpt>
      <trkpt lat="43.677277" lon="5.095413">
        <ele>119.40930</ele>
        <time>2021-06-30T11:23:03Z</time>
      </trkpt>
      <trkpt lat="43.676914" lon="5.095423">
        <ele>120.21582</ele>
        <time>2021-06-30T11:23:04Z</time>
      </trkpt>
      <trkpt lat="43.676914" lon="5.095423">
        <ele>121.13159</ele>
        <time>2021-06-30T11:23:05Z</time>
      </trkpt>
      <trkpt lat="43.676533" lon="5.095434">
        <ele>122.00110</ele>
        <time>2021-06-30T11:23:06Z</time>
      </trkpt>
      <trkpt lat="43.676163" lon="5.095453">
        <ele>121.90808</ele>
        <time>2021-06-30T11:23:07Z</time>
      </trkpt>
      <trkpt lat="43.675819" lon="5.095485">
        <ele>123.29205</ele>
        <time>2021-06-30T11:23:08Z</time>
      </trkpt>
      <trkpt lat="43.675430" lon="5.095523">
        <ele>123.80347</ele>
        <time>2021-06-30T11:23:09Z</time>
      </trkpt>
      <trkpt lat="43.675095" lon="5.095558">
        <ele>123.25513</ele>
        <time>2021-06-30T11:23:10Z</time>
      </trkpt>
      <trkpt lat="43.674725" lon="5.095601">
        <ele>122.30408</ele>
        <time>2021-06-30T11:23:11Z</time>
      </trkpt>
      <trkpt lat="43.674362" lon="5.095643">
        <ele>122.73883</ele>
        <time>2021-06-30T11:23:12Z</time>
      </trkpt>
      <trkpt lat="43.674030" lon="5.095684">
        <ele>123.15356</ele>
        <time>2021-06-30T11:23:13Z</time>
      </trkpt>
      <trkpt lat="43.673676" lon="5.095727">
        <ele>121.52808</ele>
        <time>2021-06-30T11:23:14Z</time>
      </trkpt>
      <trkpt lat="43.673332" lon="5.095770">
        <ele>121.29382</ele>
        <time>2021-06-30T11:23:15Z</time>
      </trkpt>
      <trkpt lat="43.673004" lon="5.095817">
        <ele>120.87610</ele>
        <time>2021-06-30T11:23:16Z</time>
      </trkpt>
      <trkpt lat="43.672703" lon="5.095860">
        <ele>121.88965</ele>
        <time>2021-06-30T11:23:17Z</time>
      </trkpt>
      <trkpt lat="43.672359" lon="5.095909">
        <ele>123.58600</ele>
        <time>2021-06-30T11:23:19Z</time>
      </trkpt>
      <trkpt lat="43.672028" lon="5.095957">
        <ele>123.89087</ele>
        <time>2021-06-30T11:23:19Z</time>
      </trkpt>
      <trkpt lat="43.671677" lon="5.096007">
        <ele>123.92603</ele>
        <time>2021-06-30T11:23:20Z</time>
      </trkpt>
      <trkpt lat="43.671299" lon="5.096061">
        <ele>124.19604</ele>
        <time>2021-06-30T11:23:21Z</time>
      </trkpt>
      <trkpt lat="43.670937" lon="5.096114">
        <ele>124.67871</ele>
        <time>2021-06-30T11:23:22Z</time>
      </trkpt>
      <trkpt lat="43.670582" lon="5.096165">
        <ele>125.19287</ele>
        <time>2021-06-30T11:23:24Z</time>
      </trkpt>
      <trkpt lat="43.670227" lon="5.096223">
        <ele>125.15668</ele>
        <time>2021-06-30T11:23:25Z</time>
      </trkpt>
      <trkpt lat="43.669888" lon="5.096297">
        <ele>125.54358</ele>
        <time>2021-06-30T11:23:25Z</time>
      </trkpt>
      <trkpt lat="43.669533" lon="5.096373">
        <ele>127.17999</ele>
        <time>2021-06-30T11:23:27Z</time>
      </trkpt>
      <trkpt lat="43.669178" lon="5.096451">
        <ele>127.63306</ele>
        <time>2021-06-30T11:23:28Z</time>
      </trkpt>
      <trkpt lat="43.668835" lon="5.096532">
        <ele>127.79626</ele>
        <time>2021-06-30T11:23:28Z</time>
      </trkpt>
      <trkpt lat="43.668488" lon="5.096623">
        <ele>127.93494</ele>
        <time>2021-06-30T11:23:29Z</time>
      </trkpt>
      <trkpt lat="43.668098" lon="5.096731">
        <ele>128.46747</ele>
        <time>2021-06-30T11:23:30Z</time>
      </trkpt>
      <trkpt lat="43.667744" lon="5.096839">
        <ele>128.81970</ele>
        <time>2021-06-30T11:23:31Z</time>
      </trkpt>
      <trkpt lat="43.667385" lon="5.096951">
        <ele>128.70569</ele>
        <time>2021-06-30T11:23:32Z</time>
      </trkpt>
      <trkpt lat="43.667038" lon="5.097068">
        <ele>128.73901</ele>
        <time>2021-06-30T11:23:33Z</time>
      </trkpt>
      <trkpt lat="43.667038" lon="5.097068">
        <ele>129.51733</ele>
        <time>2021-06-30T11:23:34Z</time>
      </trkpt>
      <trkpt lat="43.666714" lon="5.097178">
        <ele>130.01666</ele>
        <time>2021-06-30T11:23:35Z</time>
      </trkpt>
      <trkpt lat="43.666336" lon="5.097326">
        <ele>130.76770</ele>
        <time>2021-06-30T11:23:36Z</time>
      </trkpt>
      <trkpt lat="43.665985" lon="5.097473">
        <ele>130.84106</ele>
        <time>2021-06-30T11:23:37Z</time>
      </trkpt>
      <trkpt lat="43.665623" lon="5.097639">
        <ele>131.73981</ele>
        <time>2021-06-30T11:23:38Z</time>
      </trkpt>
      <trkpt lat="43.665298" lon="5.097791">
        <ele>131.95667</ele>
        <time>2021-06-30T11:23:39Z</time>
      </trkpt>
      <trkpt lat="43.664940" lon="5.097966">
        <ele>132.14105</ele>
        <time>2021-06-30T11:23:40Z</time>
      </trkpt>
      <trkpt lat="43.664593" lon="5.098146">
        <ele>132.03387</ele>
        <time>2021-06-30T11:23:41Z</time>
      </trkpt>
      <trkpt lat="43.664261" lon="5.098329">
        <ele>131.48431</ele>
        <time>2021-06-30T11:23:42Z</time>
      </trkpt>
      <trkpt lat="43.663921" lon="5.098524">
        <ele>132.42792</ele>
        <time>2021-06-30T11:23:43Z</time>
      </trkpt>
      <trkpt lat="43.663616" lon="5.098705">
        <ele>132.45758</ele>
        <time>2021-06-30T11:23:44Z</time>
      </trkpt>
      <trkpt lat="43.663284" lon="5.098916">
        <ele>132.09131</ele>
        <time>2021-06-30T11:23:45Z</time>
      </trkpt>
      <trkpt lat="43.662949" lon="5.099135">
        <ele>131.37335</ele>
        <time>2021-06-30T11:23:46Z</time>
      </trkpt>
      <trkpt lat="43.662613" lon="5.099354">
        <ele>131.34467</ele>
        <time>2021-06-30T11:23:47Z</time>
      </trkpt>
      <trkpt lat="43.662308" lon="5.099575">
        <ele>132.21448</ele>
        <time>2021-06-30T11:23:48Z</time>
      </trkpt>
      <trkpt lat="43.661968" lon="5.099816">
        <ele>131.77069</ele>
        <time>2021-06-30T11:23:49Z</time>
      </trkpt>
      <trkpt lat="43.661652" lon="5.100058">
        <ele>131.19604</ele>
        <time>2021-06-30T11:23:50Z</time>
      </trkpt>
      <trkpt lat="43.661335" lon="5.100308">
        <ele>131.26727</ele>
        <time>2021-06-30T11:23:52Z</time>
      </trkpt>
      <trkpt lat="43.661022" lon="5.100555">
        <ele>131.32178</ele>
        <time>2021-06-30T11:23:52Z</time>
      </trkpt>
      <trkpt lat="43.660702" lon="5.100813">
        <ele>130.87061</ele>
        <time>2021-06-30T11:23:53Z</time>
      </trkpt>
      <trkpt lat="43.660385" lon="5.101074">
        <ele>129.65405</ele>
        <time>2021-06-30T11:23:54Z</time>
      </trkpt>
      <trkpt lat="43.660080" lon="5.101324">
        <ele>129.52527</ele>
        <time>2021-06-30T11:23:55Z</time>
      </trkpt>
      <trkpt lat="43.659767" lon="5.101586">
        <ele>128.68463</ele>
        <time>2021-06-30T11:23:56Z</time>
      </trkpt>
      <trkpt lat="43.659466" lon="5.101848">
        <ele>128.73425</ele>
        <time>2021-06-30T11:23:57Z</time>
      </trkpt>
      <trkpt lat="43.659164" lon="5.102109">
        <ele>128.28589</ele>
        <time>2021-06-30T11:23:58Z</time>
      </trkpt>
      <trkpt lat="43.658859" lon="5.102369">
        <ele>128.49915</ele>
        <time>2021-06-30T11:24:00Z</time>
      </trkpt>
      <trkpt lat="43.658524" lon="5.102633">
        <ele>128.19250</ele>
        <time>2021-06-30T11:24:00Z</time>
      </trkpt>
      <trkpt lat="43.658222" lon="5.102867">
        <ele>128.06482</ele>
        <time>2021-06-30T11:24:01Z</time>
      </trkpt>
      <trkpt lat="43.657913" lon="5.103103">
        <ele>127.16602</ele>
        <time>2021-06-30T11:24:02Z</time>
      </trkpt>
      <trkpt lat="43.657581" lon="5.103374">
        <ele>127.64307</ele>
        <time>2021-06-30T11:24:03Z</time>
      </trkpt>
      <trkpt lat="43.657581" lon="5.103374">
        <ele>126.95642</ele>
        <time>2021-06-30T11:24:04Z</time>
      </trkpt>
      <trkpt lat="43.657261" lon="5.103640">
        <ele>128.32166</ele>
        <time>2021-06-30T11:24:05Z</time>
      </trkpt>
      <trkpt lat="43.656937" lon="5.103910">
        <ele>128.97302</ele>
        <time>2021-06-30T11:24:06Z</time>
      </trkpt>
      <trkpt lat="43.656628" lon="5.104163">
        <ele>131.14294</ele>
        <time>2021-06-30T11:24:07Z</time>
      </trkpt>
      <trkpt lat="43.656311" lon="5.104417">
        <ele>129.27771</ele>
        <time>2021-06-30T11:24:08Z</time>
      </trkpt>
      <trkpt lat="43.656006" lon="5.104665">
        <ele>130.22955</ele>
        <time>2021-06-30T11:24:09Z</time>
      </trkpt>
      <trkpt lat="43.655697" lon="5.104915">
        <ele>128.88953</ele>
        <time>2021-06-30T11:24:10Z</time>
      </trkpt>
      <trkpt lat="43.655396" lon="5.105160">
        <ele>129.28479</ele>
        <time>2021-06-30T11:24:11Z</time>
      </trkpt>
      <trkpt lat="43.655083" lon="5.105422">
        <ele>130.27490</ele>
        <time>2021-06-30T11:24:12Z</time>
      </trkpt>
      <trkpt lat="43.654766" lon="5.105688">
        <ele>130.05188</ele>
        <time>2021-06-30T11:24:13Z</time>
      </trkpt>
      <trkpt lat="43.654469" lon="5.105941">
        <ele>129.85657</ele>
        <time>2021-06-30T11:24:14Z</time>
      </trkpt>
      <trkpt lat="43.654179" lon="5.106186">
        <ele>130.51794</ele>
        <time>2021-06-30T11:24:15Z</time>
      </trkpt>
      <trkpt lat="43.653858" lon="5.106455">
        <ele>131.14661</ele>
        <time>2021-06-30T11:24:16Z</time>
      </trkpt>
      <trkpt lat="43.653542" lon="5.106724">
        <ele>131.52954</ele>
        <time>2021-06-30T11:24:17Z</time>
      </trkpt>
      <trkpt lat="43.653233" lon="5.106983">
        <ele>131.72144</ele>
        <time>2021-06-30T11:24:18Z</time>
      </trkpt>
      <trkpt lat="43.652939" lon="5.107233">
        <ele>133.73376</ele>
        <time>2021-06-30T11:24:19Z</time>
      </trkpt>
      <trkpt lat="43.652630" lon="5.107493">
        <ele>135.31799</ele>
        <time>2021-06-30T11:24:20Z</time>
      </trkpt>
      <trkpt lat="43.652328" lon="5.107736">
        <ele>135.61810</ele>
        <time>2021-06-30T11:24:21Z</time>
      </trkpt>
      <trkpt lat="43.652012" lon="5.107986">
        <ele>135.74805</ele>
        <time>2021-06-30T11:24:22Z</time>
      </trkpt>
      <trkpt lat="43.651711" lon="5.108224">
        <ele>135.38525</ele>
        <time>2021-06-30T11:24:23Z</time>
      </trkpt>
      <trkpt lat="43.651386" lon="5.108478">
        <ele>136.19049</ele>
        <time>2021-06-30T11:24:24Z</time>
      </trkpt>
      <trkpt lat="43.651085" lon="5.108703">
        <ele>136.15979</ele>
        <time>2021-06-30T11:24:25Z</time>
      </trkpt>
      <trkpt lat="43.650772" lon="5.108934">
        <ele>137.59735</ele>
        <time>2021-06-30T11:24:26Z</time>
      </trkpt>
      <trkpt lat="43.650452" lon="5.109170">
        <ele>136.24249</ele>
        <time>2021-06-30T11:24:27Z</time>
      </trkpt>
      <trkpt lat="43.650108" lon="5.109413">
        <ele>134.71729</ele>
        <time>2021-06-30T11:24:28Z</time>
      </trkpt>
      <trkpt lat="43.649769" lon="5.109646">
        <ele>135.01270</ele>
        <time>2021-06-30T11:24:29Z</time>
      </trkpt>
      <trkpt lat="43.649441" lon="5.109870">
        <ele>134.40210</ele>
        <time>2021-06-30T11:24:30Z</time>
      </trkpt>
      <trkpt lat="43.649101" lon="5.110084">
        <ele>134.35278</ele>
        <time>2021-06-30T11:24:31Z</time>
      </trkpt>
      <trkpt lat="43.648750" lon="5.110296">
        <ele>134.15820</ele>
        <time>2021-06-30T11:24:32Z</time>
      </trkpt>
      <trkpt lat="43.648411" lon="5.110501">
        <ele>134.04718</ele>
        <time>2021-06-30T11:24:33Z</time>
      </trkpt>
      <trkpt lat="43.648060" lon="5.110713">
        <ele>135.72528</ele>
        <time>2021-06-30T11:24:34Z</time>
      </trkpt>
      <trkpt lat="43.648060" lon="5.110713">
        <ele>135.95764</ele>
        <time>2021-06-30T11:24:35Z</time>
      </trkpt>
      <trkpt lat="43.647720" lon="5.110919">
        <ele>136.79797</ele>
        <time>2021-06-30T11:24:36Z</time>
      </trkpt>
      <trkpt lat="43.647369" lon="5.111137">
        <ele>136.99176</ele>
        <time>2021-06-30T11:24:37Z</time>
      </trkpt>
      <trkpt lat="43.647034" lon="5.111346">
        <ele>136.76245</ele>
        <time>2021-06-30T11:24:38Z</time>
      </trkpt>
      <trkpt lat="43.646683" lon="5.111563">
        <ele>136.11432</ele>
        <time>2021-06-30T11:24:39Z</time>
      </trkpt>
      <trkpt lat="43.646358" lon="5.111762">
        <ele>136.13354</ele>
        <time>2021-06-30T11:24:40Z</time>
      </trkpt>
      <trkpt lat="43.646065" lon="5.111929">
        <ele>134.77002</ele>
        <time>2021-06-30T11:24:41Z</time>
      </trkpt>
      <trkpt lat="43.645718" lon="5.112127">
        <ele>135.24158</ele>
        <time>2021-06-30T11:24:42Z</time>
      </trkpt>
      <trkpt lat="43.645409" lon="5.112302">
        <ele>135.22925</ele>
        <time>2021-06-30T11:24:43Z</time>
      </trkpt>
      <trkpt lat="43.645115" lon="5.112471">
        <ele>135.33679</ele>
        <time>2021-06-30T11:24:44Z</time>
      </trkpt>
      <trkpt lat="43.644772" lon="5.112666">
        <ele>134.70929</ele>
        <time>2021-06-30T11:24:45Z</time>
      </trkpt>
      <trkpt lat="43.644447" lon="5.112838">
        <ele>135.52557</ele>
        <time>2021-06-30T11:24:46Z</time>
      </trkpt>
      <trkpt lat="43.644112" lon="5.113002">
        <ele>136.42505</ele>
        <time>2021-06-30T11:24:47Z</time>
      </trkpt>
      <trkpt lat="43.643784" lon="5.113189">
        <ele>136.70172</ele>
        <time>2021-06-30T11:24:48Z</time>
      </trkpt>
      <trkpt lat="43.643463" lon="5.113381">
        <ele>136.89062</ele>
        <time>2021-06-30T11:24:49Z</time>
      </trkpt>
      <trkpt lat="43.643143" lon="5.113577">
        <ele>137.55487</ele>
        <time>2021-06-30T11:24:50Z</time>
      </trkpt>
      <trkpt lat="43.642834" lon="5.113762">
        <ele>137.39667</ele>
        <time>2021-06-30T11:24:52Z</time>
      </trkpt>
      <trkpt lat="43.642517" lon="5.113951">
        <ele>136.93127</ele>
        <time>2021-06-30T11:24:52Z</time>
      </trkpt>
      <trkpt lat="43.642189" lon="5.114146">
        <ele>133.35541</ele>
        <time>2021-06-30T11:24:53Z</time>
      </trkpt>
      <trkpt lat="43.641891" lon="5.114322">
        <ele>133.36676</ele>
        <time>2021-06-30T11:24:54Z</time>
      </trkpt>
      <trkpt lat="43.641609" lon="5.114487">
        <ele>133.67615</ele>
        <time>2021-06-30T11:24:55Z</time>
      </trkpt>
      <trkpt lat="43.641258" lon="5.114691">
        <ele>133.11475</ele>
        <time>2021-06-30T11:24:56Z</time>
      </trkpt>
      <trkpt lat="43.640926" lon="5.114886">
        <ele>131.84406</ele>
        <time>2021-06-30T11:24:57Z</time>
      </trkpt>
      <trkpt lat="43.640614" lon="5.115086">
        <ele>131.14136</ele>
        <time>2021-06-30T11:24:58Z</time>
      </trkpt>
      <trkpt lat="43.640305" lon="5.115285">
        <ele>130.71912</ele>
        <time>2021-06-30T11:24:59Z</time>
      </trkpt>
      <trkpt lat="43.640305" lon="5.115285">
        <ele>130.76245</ele>
        <time>2021-06-30T11:25:00Z</time>
      </trkpt>
      <trkpt lat="43.639980" lon="5.115504">
        <ele>130.69623</ele>
        <time>2021-06-30T11:25:01Z</time>
      </trkpt>
      <trkpt lat="43.639698" lon="5.115695">
        <ele>131.14716</ele>
        <time>2021-06-30T11:25:03Z</time>
      </trkpt>
      <trkpt lat="43.639404" lon="5.115892">
        <ele>131.45575</ele>
        <time>2021-06-30T11:25:03Z</time>
      </trkpt>
      <trkpt lat="43.639156" lon="5.116061">
        <ele>129.38135</ele>
        <time>2021-06-30T11:25:04Z</time>
      </trkpt>
      <trkpt lat="43.638912" lon="5.116225">
        <ele>129.24561</ele>
        <time>2021-06-30T11:25:05Z</time>
      </trkpt>
      <trkpt lat="43.638664" lon="5.116402">
        <ele>125.26538</ele>
        <time>2021-06-30T11:25:06Z</time>
      </trkpt>
      <trkpt lat="43.638424" lon="5.116590">
        <ele>125.65295</ele>
        <time>2021-06-30T11:25:08Z</time>
      </trkpt>
      <trkpt lat="43.638191" lon="5.116771">
        <ele>125.49139</ele>
        <time>2021-06-30T11:25:08Z</time>
      </trkpt>
      <trkpt lat="43.637970" lon="5.116950">
        <ele>120.10980</ele>
        <time>2021-06-30T11:25:09Z</time>
      </trkpt>
      <trkpt lat="43.637753" lon="5.117132">
        <ele>119.75604</ele>
        <time>2021-06-30T11:25:10Z</time>
      </trkpt>
      <trkpt lat="43.637573" lon="5.117282">
        <ele>118.61218</ele>
        <time>2021-06-30T11:25:11Z</time>
      </trkpt>
      <trkpt lat="43.637341" lon="5.117478">
        <ele>118.57166</ele>
        <time>2021-06-30T11:25:12Z</time>
      </trkpt>
      <trkpt lat="43.637146" lon="5.117642">
        <ele>117.72253</ele>
        <time>2021-06-30T11:25:14Z</time>
      </trkpt>
      <trkpt lat="43.636909" lon="5.117840">
        <ele>116.83276</ele>
        <time>2021-06-30T11:25:15Z</time>
      </trkpt>
      <trkpt lat="43.636692" lon="5.118024">
        <ele>115.41296</ele>
        <time>2021-06-30T11:25:15Z</time>
      </trkpt>
      <trkpt lat="43.636482" lon="5.118211">
        <ele>115.59296</ele>
        <time>2021-06-30T11:25:16Z</time>
      </trkpt>
      <trkpt lat="43.636284" lon="5.118393">
        <ele>114.98553</ele>
        <time>2021-06-30T11:25:17Z</time>
      </trkpt>
      <trkpt lat="43.636082" lon="5.118575">
        <ele>113.48187</ele>
        <time>2021-06-30T11:25:18Z</time>
      </trkpt>
      <trkpt lat="43.635887" lon="5.118760">
        <ele>113.09796</ele>
        <time>2021-06-30T11:25:19Z</time>
      </trkpt>
      <trkpt lat="43.635715" lon="5.118928">
        <ele>113.06061</ele>
        <time>2021-06-30T11:25:20Z</time>
      </trkpt>
      <trkpt lat="43.635548" lon="5.119090">
        <ele>112.63824</ele>
        <time>2021-06-30T11:25:22Z</time>
      </trkpt>
      <trkpt lat="43.635365" lon="5.119269">
        <ele>112.46753</ele>
        <time>2021-06-30T11:25:23Z</time>
      </trkpt>
      <trkpt lat="43.635208" lon="5.119422">
        <ele>112.10938</ele>
        <time>2021-06-30T11:25:23Z</time>
      </trkpt>
      <trkpt lat="43.635044" lon="5.119585">
        <ele>110.33832</ele>
        <time>2021-06-30T11:25:24Z</time>
      </trkpt>
      <trkpt lat="43.635044" lon="5.119585">
        <ele>109.37695</ele>
        <time>2021-06-30T11:25:25Z</time>
      </trkpt>
      <trkpt lat="43.634865" lon="5.119762">
        <ele>109.00690</ele>
        <time>2021-06-30T11:25:26Z</time>
      </trkpt>
      <trkpt lat="43.634701" lon="5.119936">
        <ele>104.99652</ele>
        <time>2021-06-30T11:25:27Z</time>
      </trkpt>
      <trkpt lat="43.634529" lon="5.120121">
        <ele>103.56195</ele>
        <time>2021-06-30T11:25:28Z</time>
      </trkpt>
      <trkpt lat="43.634369" lon="5.120293">
        <ele>102.92065</ele>
        <time>2021-06-30T11:25:30Z</time>
      </trkpt>
      <trkpt lat="43.634182" lon="5.120495">
        <ele>102.65521</ele>
        <time>2021-06-30T11:25:30Z</time>
      </trkpt>
      <trkpt lat="43.634003" lon="5.120690">
        <ele>100.78430</ele>
        <time>2021-06-30T11:25:31Z</time>
      </trkpt>
      <trkpt lat="43.633827" lon="5.120876">
        <ele>100.12207</ele>
        <time>2021-06-30T11:25:32Z</time>
      </trkpt>
      <trkpt lat="43.633644" lon="5.121067">
        <ele>98.23889</ele>
        <time>2021-06-30T11:25:34Z</time>
      </trkpt>
      <trkpt lat="43.633461" lon="5.121263">
        <ele>98.09314</ele>
        <time>2021-06-30T11:25:34Z</time>
      </trkpt>
      <trkpt lat="43.633289" lon="5.121460">
        <ele>98.61829</ele>
        <time>2021-06-30T11:25:35Z</time>
      </trkpt>
      <trkpt lat="43.633125" lon="5.121652">
        <ele>98.57043</ele>
        <time>2021-06-30T11:25:36Z</time>
      </trkpt>
      <trkpt lat="43.632935" lon="5.121866">
        <ele>97.98047</ele>
        <time>2021-06-30T11:25:37Z</time>
      </trkpt>
      <trkpt lat="43.632755" lon="5.122061">
        <ele>98.19635</ele>
        <time>2021-06-30T11:25:38Z</time>
      </trkpt>
      <trkpt lat="43.632584" lon="5.122246">
        <ele>98.25208</ele>
        <time>2021-06-30T11:25:39Z</time>
      </trkpt>
      <trkpt lat="43.632404" lon="5.122442">
        <ele>96.36163</ele>
        <time>2021-06-30T11:25:40Z</time>
      </trkpt>
      <trkpt lat="43.632229" lon="5.122630">
        <ele>96.60535</ele>
        <time>2021-06-30T11:25:41Z</time>
      </trkpt>
      <trkpt lat="43.632076" lon="5.122796">
        <ele>96.41321</ele>
        <time>2021-06-30T11:25:42Z</time>
      </trkpt>
      <trkpt lat="43.631920" lon="5.122967">
        <ele>96.15094</ele>
        <time>2021-06-30T11:25:43Z</time>
      </trkpt>
      <trkpt lat="43.631748" lon="5.123153">
        <ele>95.97107</ele>
        <time>2021-06-30T11:25:44Z</time>
      </trkpt>
      <trkpt lat="43.631588" lon="5.123326">
        <ele>93.63745</ele>
        <time>2021-06-30T11:25:45Z</time>
      </trkpt>
      <trkpt lat="43.631432" lon="5.123494">
        <ele>94.06689</ele>
        <time>2021-06-30T11:25:46Z</time>
      </trkpt>
      <trkpt lat="43.631283" lon="5.123658">
        <ele>93.63342</ele>
        <time>2021-06-30T11:25:47Z</time>
      </trkpt>
      <trkpt lat="43.631123" lon="5.123830">
        <ele>91.15002</ele>
        <time>2021-06-30T11:25:48Z</time>
      </trkpt>
      <trkpt lat="43.630966" lon="5.124001">
        <ele>91.36664</ele>
        <time>2021-06-30T11:25:49Z</time>
      </trkpt>
      <trkpt lat="43.630802" lon="5.124179">
        <ele>90.96906</ele>
        <time>2021-06-30T11:25:50Z</time>
      </trkpt>
      <trkpt lat="43.630768" lon="5.124215">
        <ele>88.45850</ele>
        <time>2021-06-30T11:25:51Z</time>
      </trkpt>
      <trkpt lat="43.630516" lon="5.124426">
        <ele>88.18842</ele>
        <time>2021-06-30T11:25:52Z</time>
      </trkpt>
      <trkpt lat="43.630283" lon="5.124653">
        <ele>86.74103</ele>
        <time>2021-06-30T11:25:53Z</time>
      </trkpt>
      <trkpt lat="43.630283" lon="5.124653">
        <ele>86.39313</ele>
        <time>2021-06-30T11:25:54Z</time>
      </trkpt>
      <trkpt lat="43.630127" lon="5.124817">
        <ele>80.49255</ele>
        <time>2021-06-30T11:25:55Z</time>
      </trkpt>
      <trkpt lat="43.629959" lon="5.124997">
        <ele>80.30023</ele>
        <time>2021-06-30T11:25:56Z</time>
      </trkpt>
      <trkpt lat="43.629852" lon="5.125115">
        <ele>80.60693</ele>
        <time>2021-06-30T11:25:57Z</time>
      </trkpt>
      <trkpt lat="43.629745" lon="5.125221">
        <ele>80.95978</ele>
        <time>2021-06-30T11:25:58Z</time>
      </trkpt>
      <trkpt lat="43.629612" lon="5.125325">
        <ele>78.69366</ele>
        <time>2021-06-30T11:25:59Z</time>
      </trkpt>
      <trkpt lat="43.629482" lon="5.125407">
        <ele>78.01868</ele>
        <time>2021-06-30T11:26:00Z</time>
      </trkpt>
      <trkpt lat="43.629360" lon="5.125473">
        <ele>77.24609</ele>
        <time>2021-06-30T11:26:01Z</time>
      </trkpt>
      <trkpt lat="43.629234" lon="5.125524">
        <ele>77.71075</ele>
        <time>2021-06-30T11:26:02Z</time>
      </trkpt>
      <trkpt lat="43.629086" lon="5.125560">
        <ele>77.70728</ele>
        <time>2021-06-30T11:26:03Z</time>
      </trkpt>
      <trkpt lat="43.628922" lon="5.125564">
        <ele>77.62842</ele>
        <time>2021-06-30T11:26:04Z</time>
      </trkpt>
      <trkpt lat="43.628777" lon="5.125545">
        <ele>76.99463</ele>
        <time>2021-06-30T11:26:05Z</time>
      </trkpt>
      <trkpt lat="43.628635" lon="5.125492">
        <ele>76.69775</ele>
        <time>2021-06-30T11:26:06Z</time>
      </trkpt>
      <trkpt lat="43.628483" lon="5.125418">
        <ele>74.08582</ele>
        <time>2021-06-30T11:26:08Z</time>
      </trkpt>
      <trkpt lat="43.628349" lon="5.125292">
        <ele>73.63232</ele>
        <time>2021-06-30T11:26:08Z</time>
      </trkpt>
      <trkpt lat="43.628208" lon="5.125136">
        <ele>72.58716</ele>
        <time>2021-06-30T11:26:09Z</time>
      </trkpt>
      <trkpt lat="43.628105" lon="5.124992">
        <ele>71.83453</ele>
        <time>2021-06-30T11:26:10Z</time>
      </trkpt>
      <trkpt lat="43.628014" lon="5.124838">
        <ele>71.78387</ele>
        <time>2021-06-30T11:26:11Z</time>
      </trkpt>
      <trkpt lat="43.627934" lon="5.124681">
        <ele>72.41229</ele>
        <time>2021-06-30T11:26:12Z</time>
      </trkpt>
      <trkpt lat="43.627846" lon="5.124510">
        <ele>72.13708</ele>
        <time>2021-06-30T11:26:13Z</time>
      </trkpt>
      <trkpt lat="43.627773" lon="5.124320">
        <ele>72.85651</ele>
        <time>2021-06-30T11:26:14Z</time>
      </trkpt>
      <trkpt lat="43.627705" lon="5.124109">
        <ele>72.25659</ele>
        <time>2021-06-30T11:26:15Z</time>
      </trkpt>
      <trkpt lat="43.627636" lon="5.123896">
        <ele>71.53174</ele>
        <time>2021-06-30T11:26:16Z</time>
      </trkpt>
      <trkpt lat="43.627563" lon="5.123723">
        <ele>71.73242</ele>
        <time>2021-06-30T11:26:17Z</time>
      </trkpt>
      <trkpt lat="43.627491" lon="5.123539">
        <ele>72.44812</ele>
        <time>2021-06-30T11:26:18Z</time>
      </trkpt>
      <trkpt lat="43.627426" lon="5.123334">
        <ele>73.24207</ele>
        <time>2021-06-30T11:26:19Z</time>
      </trkpt>
      <trkpt lat="43.627361" lon="5.123128">
        <ele>72.77271</ele>
        <time>2021-06-30T11:26:20Z</time>
      </trkpt>
      <trkpt lat="43.627296" lon="5.122913">
        <ele>73.54425</ele>
        <time>2021-06-30T11:26:21Z</time>
      </trkpt>
      <trkpt lat="43.627228" lon="5.122679">
        <ele>73.18030</ele>
        <time>2021-06-30T11:26:22Z</time>
      </trkpt>
      <trkpt lat="43.627155" lon="5.122440">
        <ele>73.11371</ele>
        <time>2021-06-30T11:26:23Z</time>
      </trkpt>
      <trkpt lat="43.627087" lon="5.122225">
        <ele>73.18652</ele>
        <time>2021-06-30T11:26:24Z</time>
      </trkpt>
      <trkpt lat="43.627087" lon="5.122225">
        <ele>71.20673</ele>
        <time>2021-06-30T11:26:25Z</time>
      </trkpt>
      <trkpt lat="43.627029" lon="5.122026">
        <ele>70.92126</ele>
        <time>2021-06-30T11:26:26Z</time>
      </trkpt>
      <trkpt lat="43.626980" lon="5.121838">
        <ele>71.09033</ele>
        <time>2021-06-30T11:26:27Z</time>
      </trkpt>
      <trkpt lat="43.626926" lon="5.121618">
        <ele>70.81360</ele>
        <time>2021-06-30T11:26:28Z</time>
      </trkpt>
      <trkpt lat="43.626862" lon="5.121358">
        <ele>71.15308</ele>
        <time>2021-06-30T11:26:29Z</time>
      </trkpt>
      <trkpt lat="43.626797" lon="5.121082">
        <ele>69.75568</ele>
        <time>2021-06-30T11:26:30Z</time>
      </trkpt>
      <trkpt lat="43.626747" lon="5.120826">
        <ele>70.46307</ele>
        <time>2021-06-30T11:26:31Z</time>
      </trkpt>
      <trkpt lat="43.626705" lon="5.120553">
        <ele>71.01990</ele>
        <time>2021-06-30T11:26:32Z</time>
      </trkpt>
      <trkpt lat="43.626663" lon="5.120254">
        <ele>70.11597</ele>
        <time>2021-06-30T11:26:34Z</time>
      </trkpt>
      <trkpt lat="43.626625" lon="5.119964">
        <ele>69.26343</ele>
        <time>2021-06-30T11:26:34Z</time>
      </trkpt>
      <trkpt lat="43.626583" lon="5.119614">
        <ele>69.09558</ele>
        <time>2021-06-30T11:26:35Z</time>
      </trkpt>
      <trkpt lat="43.626545" lon="5.119153">
        <ele>68.08813</ele>
        <time>2021-06-30T11:26:36Z</time>
      </trkpt>
      <trkpt lat="43.626526" lon="5.118680">
        <ele>67.92590</ele>
        <time>2021-06-30T11:26:37Z</time>
      </trkpt>
      <trkpt lat="43.626514" lon="5.118187">
        <ele>67.51660</ele>
        <time>2021-06-30T11:26:39Z</time>
      </trkpt>
      <trkpt lat="43.626522" lon="5.117784">
        <ele>66.59070</ele>
        <time>2021-06-30T11:26:39Z</time>
      </trkpt>
      <trkpt lat="43.626534" lon="5.117386">
        <ele>65.82050</ele>
        <time>2021-06-30T11:26:40Z</time>
      </trkpt>
      <trkpt lat="43.626572" lon="5.116951">
        <ele>65.04498</ele>
        <time>2021-06-30T11:26:41Z</time>
      </trkpt>
      <trkpt lat="43.626621" lon="5.116523">
        <ele>63.45331</ele>
        <time>2021-06-30T11:26:42Z</time>
      </trkpt>
      <trkpt lat="43.626682" lon="5.116118">
        <ele>63.67236</ele>
        <time>2021-06-30T11:26:43Z</time>
      </trkpt>
      <trkpt lat="43.626751" lon="5.115687">
        <ele>64.14996</ele>
        <time>2021-06-30T11:26:44Z</time>
      </trkpt>
      <trkpt lat="43.626823" lon="5.115271">
        <ele>63.52112</ele>
        <time>2021-06-30T11:26:45Z</time>
      </trkpt>
      <trkpt lat="43.626892" lon="5.114860">
        <ele>62.89441</ele>
        <time>2021-06-30T11:26:46Z</time>
      </trkpt>
      <trkpt lat="43.626972" lon="5.114446">
        <ele>61.95441</ele>
        <time>2021-06-30T11:26:47Z</time>
      </trkpt>
      <trkpt lat="43.627060" lon="5.114010">
        <ele>61.91791</ele>
        <time>2021-06-30T11:26:48Z</time>
      </trkpt>
      <trkpt lat="43.627148" lon="5.113573">
        <ele>61.37183</ele>
        <time>2021-06-30T11:26:49Z</time>
      </trkpt>
      <trkpt lat="43.627239" lon="5.113140">
        <ele>62.23401</ele>
        <time>2021-06-30T11:26:50Z</time>
      </trkpt>
      <trkpt lat="43.627323" lon="5.112723">
        <ele>61.75531</ele>
        <time>2021-06-30T11:26:51Z</time>
      </trkpt>
      <trkpt lat="43.627411" lon="5.112302">
        <ele>61.60266</ele>
        <time>2021-06-30T11:26:52Z</time>
      </trkpt>
      <trkpt lat="43.627491" lon="5.111889">
        <ele>60.43140</ele>
        <time>2021-06-30T11:26:53Z</time>
      </trkpt>
      <trkpt lat="43.627491" lon="5.111889">
        <ele>60.65082</ele>
        <time>2021-06-30T11:26:54Z</time>
      </trkpt>
      <trkpt lat="43.627567" lon="5.111495">
        <ele>60.95490</ele>
        <time>2021-06-30T11:26:55Z</time>
      </trkpt>
      <trkpt lat="43.627647" lon="5.111090">
        <ele>60.91168</ele>
        <time>2021-06-30T11:26:56Z</time>
      </trkpt>
      <trkpt lat="43.627728" lon="5.110665">
        <ele>60.57739</ele>
        <time>2021-06-30T11:26:57Z</time>
      </trkpt>
      <trkpt lat="43.627789" lon="5.110260">
        <ele>59.76184</ele>
        <time>2021-06-30T11:26:58Z</time>
      </trkpt>
      <trkpt lat="43.627842" lon="5.109817">
        <ele>59.23792</ele>
        <time>2021-06-30T11:26:59Z</time>
      </trkpt>
      <trkpt lat="43.627872" lon="5.109365">
        <ele>59.32581</ele>
        <time>2021-06-30T11:27:00Z</time>
      </trkpt>
      <trkpt lat="43.627876" lon="5.108903">
        <ele>59.48279</ele>
        <time>2021-06-30T11:27:01Z</time>
      </trkpt>
      <trkpt lat="43.627865" lon="5.108473">
        <ele>59.35620</ele>
        <time>2021-06-30T11:27:02Z</time>
      </trkpt>
      <trkpt lat="43.627850" lon="5.108022">
        <ele>59.35089</ele>
        <time>2021-06-30T11:27:03Z</time>
      </trkpt>
      <trkpt lat="43.627815" lon="5.107608">
        <ele>59.20300</ele>
        <time>2021-06-30T11:27:04Z</time>
      </trkpt>
      <trkpt lat="43.627754" lon="5.107134">
        <ele>58.70288</ele>
        <time>2021-06-30T11:27:05Z</time>
      </trkpt>
      <trkpt lat="43.627682" lon="5.106693">
        <ele>58.77338</ele>
        <time>2021-06-30T11:27:06Z</time>
      </trkpt>
      <trkpt lat="43.627590" lon="5.106245">
        <ele>58.40649</ele>
        <time>2021-06-30T11:27:07Z</time>
      </trkpt>
      <trkpt lat="43.627487" lon="5.105802">
        <ele>57.58929</ele>
        <time>2021-06-30T11:27:08Z</time>
      </trkpt>
      <trkpt lat="43.627380" lon="5.105343">
        <ele>56.78162</ele>
        <time>2021-06-30T11:27:09Z</time>
      </trkpt>
      <trkpt lat="43.627274" lon="5.104929">
        <ele>55.15997</ele>
        <time>2021-06-30T11:27:10Z</time>
      </trkpt>
      <trkpt lat="43.627174" lon="5.104544">
        <ele>55.02338</ele>
        <time>2021-06-30T11:27:11Z</time>
      </trkpt>
      <trkpt lat="43.627075" lon="5.104154">
        <ele>55.75427</ele>
        <time>2021-06-30T11:27:12Z</time>
      </trkpt>
      <trkpt lat="43.626972" lon="5.103764">
        <ele>55.34357</ele>
        <time>2021-06-30T11:27:13Z</time>
      </trkpt>
      <trkpt lat="43.626881" lon="5.103401">
        <ele>55.71051</ele>
        <time>2021-06-30T11:27:14Z</time>
      </trkpt>
      <trkpt lat="43.626881" lon="5.103401">
        <ele>56.71057</ele>
        <time>2021-06-30T11:27:15Z</time>
      </trkpt>
      <trkpt lat="43.626781" lon="5.103024">
        <ele>56.45490</ele>
        <time>2021-06-30T11:27:16Z</time>
      </trkpt>
      <trkpt lat="43.626686" lon="5.102658">
        <ele>56.56006</ele>
        <time>2021-06-30T11:27:17Z</time>
      </trkpt>
      <trkpt lat="43.626606" lon="5.102342">
        <ele>57.95941</ele>
        <time>2021-06-30T11:27:18Z</time>
      </trkpt>
      <trkpt lat="43.626499" lon="5.101927">
        <ele>58.57367</ele>
        <time>2021-06-30T11:27:19Z</time>
      </trkpt>
      <trkpt lat="43.626400" lon="5.101520">
        <ele>59.75171</ele>
        <time>2021-06-30T11:27:20Z</time>
      </trkpt>
      <trkpt lat="43.626305" lon="5.101138">
        <ele>60.48151</ele>
        <time>2021-06-30T11:27:21Z</time>
      </trkpt>
      <trkpt lat="43.626209" lon="5.100751">
        <ele>61.27490</ele>
        <time>2021-06-30T11:27:22Z</time>
      </trkpt>
      <trkpt lat="43.626137" lon="5.100382">
        <ele>61.64594</ele>
        <time>2021-06-30T11:27:23Z</time>
      </trkpt>
      <trkpt lat="43.626053" lon="5.099957">
        <ele>62.58508</ele>
        <time>2021-06-30T11:27:24Z</time>
      </trkpt>
      <trkpt lat="43.625980" lon="5.099527">
        <ele>63.20599</ele>
        <time>2021-06-30T11:27:25Z</time>
      </trkpt>
      <trkpt lat="43.625916" lon="5.099088">
        <ele>63.54840</ele>
        <time>2021-06-30T11:27:26Z</time>
      </trkpt>
      <trkpt lat="43.625862" lon="5.098657">
        <ele>63.32483</ele>
        <time>2021-06-30T11:27:27Z</time>
      </trkpt>
      <trkpt lat="43.625820" lon="5.098223">
        <ele>63.35968</ele>
        <time>2021-06-30T11:27:28Z</time>
      </trkpt>
      <trkpt lat="43.625774" lon="5.097771">
        <ele>61.66071</ele>
        <time>2021-06-30T11:27:29Z</time>
      </trkpt>
      <trkpt lat="43.625740" lon="5.097324">
        <ele>61.46942</ele>
        <time>2021-06-30T11:27:30Z</time>
      </trkpt>
      <trkpt lat="43.625732" lon="5.096863">
        <ele>61.27228</ele>
        <time>2021-06-30T11:27:31Z</time>
      </trkpt>
      <trkpt lat="43.625725" lon="5.096411">
        <ele>62.34900</ele>
        <time>2021-06-30T11:27:32Z</time>
      </trkpt>
      <trkpt lat="43.625729" lon="5.095947">
        <ele>62.44958</ele>
        <time>2021-06-30T11:27:33Z</time>
      </trkpt>
      <trkpt lat="43.625736" lon="5.095481">
        <ele>61.99365</ele>
        <time>2021-06-30T11:27:34Z</time>
      </trkpt>
      <trkpt lat="43.625771" lon="5.094949">
        <ele>63.33228</ele>
        <time>2021-06-30T11:27:35Z</time>
      </trkpt>
      <trkpt lat="43.625809" lon="5.094453">
        <ele>62.69299</ele>
        <time>2021-06-30T11:27:36Z</time>
      </trkpt>
      <trkpt lat="43.625854" lon="5.093963">
        <ele>63.72223</ele>
        <time>2021-06-30T11:27:37Z</time>
      </trkpt>
      <trkpt lat="43.625854" lon="5.093963">
        <ele>64.44812</ele>
        <time>2021-06-30T11:27:38Z</time>
      </trkpt>
      <trkpt lat="43.625904" lon="5.093452">
        <ele>65.14203</ele>
        <time>2021-06-30T11:27:39Z</time>
      </trkpt>
      <trkpt lat="43.625954" lon="5.092951">
        <ele>65.50220</ele>
        <time>2021-06-30T11:27:40Z</time>
      </trkpt>
      <trkpt lat="43.625996" lon="5.092471">
        <ele>67.24829</ele>
        <time>2021-06-30T11:27:41Z</time>
      </trkpt>
      <trkpt lat="43.626034" lon="5.091982">
        <ele>68.25177</ele>
        <time>2021-06-30T11:27:42Z</time>
      </trkpt>
      <trkpt lat="43.626076" lon="5.091481">
        <ele>69.01532</ele>
        <time>2021-06-30T11:27:43Z</time>
      </trkpt>
      <trkpt lat="43.626099" lon="5.091018">
        <ele>68.91840</ele>
        <time>2021-06-30T11:27:44Z</time>
      </trkpt>
      <trkpt lat="43.626122" lon="5.090492">
        <ele>69.22229</ele>
        <time>2021-06-30T11:27:45Z</time>
      </trkpt>
      <trkpt lat="43.626118" lon="5.090003">
        <ele>68.65631</ele>
        <time>2021-06-30T11:27:46Z</time>
      </trkpt>
      <trkpt lat="43.626118" lon="5.089487">
        <ele>69.30664</ele>
        <time>2021-06-30T11:27:47Z</time>
      </trkpt>
      <trkpt lat="43.626099" lon="5.089022">
        <ele>69.77429</ele>
        <time>2021-06-30T11:27:48Z</time>
      </trkpt>
      <trkpt lat="43.626080" lon="5.088536">
        <ele>69.56189</ele>
        <time>2021-06-30T11:27:49Z</time>
      </trkpt>
      <trkpt lat="43.626034" lon="5.088069">
        <ele>69.10559</ele>
        <time>2021-06-30T11:27:50Z</time>
      </trkpt>
      <trkpt lat="43.625984" lon="5.087588">
        <ele>69.41138</ele>
        <time>2021-06-30T11:27:51Z</time>
      </trkpt>
      <trkpt lat="43.625916" lon="5.087074">
        <ele>69.43597</ele>
        <time>2021-06-30T11:27:52Z</time>
      </trkpt>
      <trkpt lat="43.625839" lon="5.086582">
        <ele>68.70294</ele>
        <time>2021-06-30T11:27:53Z</time>
      </trkpt>
      <trkpt lat="43.625759" lon="5.086148">
        <ele>68.71539</ele>
        <time>2021-06-30T11:27:54Z</time>
      </trkpt>
      <trkpt lat="43.625660" lon="5.085647">
        <ele>68.56610</ele>
        <time>2021-06-30T11:27:55Z</time>
      </trkpt>
      <trkpt lat="43.625568" lon="5.085216">
        <ele>68.67816</ele>
        <time>2021-06-30T11:27:56Z</time>
      </trkpt>
      <trkpt lat="43.625481" lon="5.084811">
        <ele>68.97955</ele>
        <time>2021-06-30T11:27:57Z</time>
      </trkpt>
      <trkpt lat="43.625385" lon="5.084368">
        <ele>69.42560</ele>
        <time>2021-06-30T11:27:58Z</time>
      </trkpt>
      <trkpt lat="43.625282" lon="5.083919">
        <ele>69.79517</ele>
        <time>2021-06-30T11:27:59Z</time>
      </trkpt>
      <trkpt lat="43.625179" lon="5.083480">
        <ele>70.40552</ele>
        <time>2021-06-30T11:28:00Z</time>
      </trkpt>
      <trkpt lat="43.625069" lon="5.082992">
        <ele>71.09521</ele>
        <time>2021-06-30T11:28:01Z</time>
      </trkpt>
      <trkpt lat="43.624962" lon="5.082494">
        <ele>70.94055</ele>
        <time>2021-06-30T11:28:02Z</time>
      </trkpt>
      <trkpt lat="43.624863" lon="5.082041">
        <ele>70.33234</ele>
        <time>2021-06-30T11:28:03Z</time>
      </trkpt>
      <trkpt lat="43.624767" lon="5.081533">
        <ele>69.52905</ele>
        <time>2021-06-30T11:28:04Z</time>
      </trkpt>
      <trkpt lat="43.624687" lon="5.081000">
        <ele>68.60785</ele>
        <time>2021-06-30T11:28:05Z</time>
      </trkpt>
      <trkpt lat="43.624634" lon="5.080527">
        <ele>66.76904</ele>
        <time>2021-06-30T11:28:06Z</time>
      </trkpt>
      <trkpt lat="43.624588" lon="5.080032">
        <ele>66.39484</ele>
        <time>2021-06-30T11:28:07Z</time>
      </trkpt>
      <trkpt lat="43.624569" lon="5.079560">
        <ele>66.30457</ele>
        <time>2021-06-30T11:28:08Z</time>
      </trkpt>
      <trkpt lat="43.624569" lon="5.079560">
        <ele>67.62952</ele>
        <time>2021-06-30T11:28:09Z</time>
      </trkpt>
      <trkpt lat="43.624592" lon="5.078546">
        <ele>68.90051</ele>
        <time>2021-06-30T11:28:10Z</time>
      </trkpt>
      <trkpt lat="43.624592" lon="5.078546">
        <ele>69.83002</ele>
        <time>2021-06-30T11:28:11Z</time>
      </trkpt>
      <trkpt lat="43.624619" lon="5.078082">
        <ele>70.57709</ele>
        <time>2021-06-30T11:28:12Z</time>
      </trkpt>
      <trkpt lat="43.624722" lon="5.077103">
        <ele>71.45398</ele>
        <time>2021-06-30T11:28:13Z</time>
      </trkpt>
      <trkpt lat="43.624722" lon="5.077103">
        <ele>72.77368</ele>
        <time>2021-06-30T11:28:14Z</time>
      </trkpt>
      <trkpt lat="43.624794" lon="5.076627">
        <ele>73.26770</ele>
        <time>2021-06-30T11:28:15Z</time>
      </trkpt>
      <trkpt lat="43.624870" lon="5.076139">
        <ele>74.01880</ele>
        <time>2021-06-30T11:28:16Z</time>
      </trkpt>
      <trkpt lat="43.624954" lon="5.075698">
        <ele>74.38989</ele>
        <time>2021-06-30T11:28:17Z</time>
      </trkpt>
      <trkpt lat="43.625076" lon="5.075212">
        <ele>74.48529</ele>
        <time>2021-06-30T11:28:18Z</time>
      </trkpt>
      <trkpt lat="43.625198" lon="5.074770">
        <ele>74.67755</ele>
        <time>2021-06-30T11:28:19Z</time>
      </trkpt>
      <trkpt lat="43.625343" lon="5.074293">
        <ele>75.75555</ele>
        <time>2021-06-30T11:28:20Z</time>
      </trkpt>
      <trkpt lat="43.625511" lon="5.073833">
        <ele>75.75403</ele>
        <time>2021-06-30T11:28:21Z</time>
      </trkpt>
      <trkpt lat="43.625698" lon="5.073380">
        <ele>74.01825</ele>
        <time>2021-06-30T11:28:22Z</time>
      </trkpt>
      <trkpt lat="43.625877" lon="5.072976">
        <ele>73.20746</ele>
        <time>2021-06-30T11:28:23Z</time>
      </trkpt>
      <trkpt lat="43.626087" lon="5.072545">
        <ele>73.73059</ele>
        <time>2021-06-30T11:28:24Z</time>
      </trkpt>
      <trkpt lat="43.626278" lon="5.072156">
        <ele>73.80774</ele>
        <time>2021-06-30T11:28:25Z</time>
      </trkpt>
      <trkpt lat="43.626499" lon="5.071714">
        <ele>74.19189</ele>
        <time>2021-06-30T11:28:26Z</time>
      </trkpt>
      <trkpt lat="43.626713" lon="5.071288">
        <ele>73.93439</ele>
        <time>2021-06-30T11:28:27Z</time>
      </trkpt>
      <trkpt lat="43.626907" lon="5.070865">
        <ele>73.78162</ele>
        <time>2021-06-30T11:28:28Z</time>
      </trkpt>
      <trkpt lat="43.627102" lon="5.070438">
        <ele>73.19452</ele>
        <time>2021-06-30T11:28:29Z</time>
      </trkpt>
      <trkpt lat="43.627285" lon="5.070010">
        <ele>72.53156</ele>
        <time>2021-06-30T11:28:30Z</time>
      </trkpt>
      <trkpt lat="43.627468" lon="5.069553">
        <ele>71.52551</ele>
        <time>2021-06-30T11:28:31Z</time>
      </trkpt>
      <trkpt lat="43.627644" lon="5.069141">
        <ele>71.12024</ele>
        <time>2021-06-30T11:28:32Z</time>
      </trkpt>
      <trkpt lat="43.627789" lon="5.068730">
        <ele>70.27722</ele>
        <time>2021-06-30T11:28:33Z</time>
      </trkpt>
      <trkpt lat="43.627914" lon="5.068317">
        <ele>70.22955</ele>
        <time>2021-06-30T11:28:34Z</time>
      </trkpt>
      <trkpt lat="43.628033" lon="5.067876">
        <ele>70.44159</ele>
        <time>2021-06-30T11:28:35Z</time>
      </trkpt>
      <trkpt lat="43.628136" lon="5.067480">
        <ele>70.12317</ele>
        <time>2021-06-30T11:28:36Z</time>
      </trkpt>
      <trkpt lat="43.628223" lon="5.067095">
        <ele>70.13385</ele>
        <time>2021-06-30T11:28:37Z</time>
      </trkpt>
      <trkpt lat="43.628307" lon="5.066734">
        <ele>69.80865</ele>
        <time>2021-06-30T11:28:38Z</time>
      </trkpt>
      <trkpt lat="43.628387" lon="5.066408">
        <ele>69.63489</ele>
        <time>2021-06-30T11:28:39Z</time>
      </trkpt>
      <trkpt lat="43.628452" lon="5.066096">
        <ele>68.65198</ele>
        <time>2021-06-30T11:28:40Z</time>
      </trkpt>
      <trkpt lat="43.628452" lon="5.066096">
        <ele>66.67273</ele>
        <time>2021-06-30T11:28:41Z</time>
      </trkpt>
      <trkpt lat="43.628513" lon="5.065775">
        <ele>66.51147</ele>
        <time>2021-06-30T11:28:42Z</time>
      </trkpt>
      <trkpt lat="43.628578" lon="5.065455">
        <ele>67.47168</ele>
        <time>2021-06-30T11:28:43Z</time>
      </trkpt>
      <trkpt lat="43.628635" lon="5.065171">
        <ele>67.66626</ele>
        <time>2021-06-30T11:28:44Z</time>
      </trkpt>
      <trkpt lat="43.628704" lon="5.064827">
        <ele>67.22913</ele>
        <time>2021-06-30T11:28:45Z</time>
      </trkpt>
      <trkpt lat="43.628765" lon="5.064521">
        <ele>67.36694</ele>
        <time>2021-06-30T11:28:46Z</time>
      </trkpt>
      <trkpt lat="43.628826" lon="5.064217">
        <ele>66.47595</ele>
        <time>2021-06-30T11:28:47Z</time>
      </trkpt>
      <trkpt lat="43.628887" lon="5.063904">
        <ele>66.12122</ele>
        <time>2021-06-30T11:28:48Z</time>
      </trkpt>
      <trkpt lat="43.628944" lon="5.063605">
        <ele>66.64673</ele>
        <time>2021-06-30T11:28:49Z</time>
      </trkpt>
      <trkpt lat="43.628998" lon="5.063309">
        <ele>66.09778</ele>
        <time>2021-06-30T11:28:50Z</time>
      </trkpt>
      <trkpt lat="43.629063" lon="5.062984">
        <ele>66.15509</ele>
        <time>2021-06-30T11:28:51Z</time>
      </trkpt>
      <trkpt lat="43.629120" lon="5.062688">
        <ele>67.01123</ele>
        <time>2021-06-30T11:28:52Z</time>
      </trkpt>
      <trkpt lat="43.629185" lon="5.062367">
        <ele>66.38556</ele>
        <time>2021-06-30T11:28:53Z</time>
      </trkpt>
      <trkpt lat="43.629242" lon="5.062084">
        <ele>66.26404</ele>
        <time>2021-06-30T11:28:54Z</time>
      </trkpt>
      <trkpt lat="43.629307" lon="5.061754">
        <ele>66.53912</ele>
        <time>2021-06-30T11:28:55Z</time>
      </trkpt>
      <trkpt lat="43.629368" lon="5.061437">
        <ele>67.75287</ele>
        <time>2021-06-30T11:28:56Z</time>
      </trkpt>
      <trkpt lat="43.629429" lon="5.061116">
        <ele>67.56586</ele>
        <time>2021-06-30T11:28:57Z</time>
      </trkpt>
      <trkpt lat="43.629482" lon="5.060835">
        <ele>67.19196</ele>
        <time>2021-06-30T11:28:58Z</time>
      </trkpt>
      <trkpt lat="43.629539" lon="5.060526">
        <ele>67.57953</ele>
        <time>2021-06-30T11:28:59Z</time>
      </trkpt>
      <trkpt lat="43.629597" lon="5.060210">
        <ele>67.33295</ele>
        <time>2021-06-30T11:29:00Z</time>
      </trkpt>
      <trkpt lat="43.629650" lon="5.059896">
        <ele>67.52020</ele>
        <time>2021-06-30T11:29:01Z</time>
      </trkpt>
      <trkpt lat="43.629707" lon="5.059581">
        <ele>68.35565</ele>
        <time>2021-06-30T11:29:02Z</time>
      </trkpt>
      <trkpt lat="43.629761" lon="5.059278">
        <ele>69.08057</ele>
        <time>2021-06-30T11:29:03Z</time>
      </trkpt>
      <trkpt lat="43.629822" lon="5.058936">
        <ele>68.83636</ele>
        <time>2021-06-30T11:29:04Z</time>
      </trkpt>
      <trkpt lat="43.629890" lon="5.058553">
        <ele>68.76282</ele>
        <time>2021-06-30T11:29:05Z</time>
      </trkpt>
      <trkpt lat="43.629955" lon="5.058186">
        <ele>69.39966</ele>
        <time>2021-06-30T11:29:06Z</time>
      </trkpt>
      <trkpt lat="43.630028" lon="5.057768">
        <ele>69.77466</ele>
        <time>2021-06-30T11:29:08Z</time>
      </trkpt>
      <trkpt lat="43.630104" lon="5.057355">
        <ele>69.94604</ele>
        <time>2021-06-30T11:29:08Z</time>
      </trkpt>
      <trkpt lat="43.630104" lon="5.057355">
        <ele>69.85876</ele>
        <time>2021-06-30T11:29:09Z</time>
      </trkpt>
      <trkpt lat="43.630184" lon="5.056951">
        <ele>70.19617</ele>
        <time>2021-06-30T11:29:10Z</time>
      </trkpt>
      <trkpt lat="43.630249" lon="5.056536">
        <ele>69.92365</ele>
        <time>2021-06-30T11:29:11Z</time>
      </trkpt>
      <trkpt lat="43.630314" lon="5.056126">
        <ele>69.63409</ele>
        <time>2021-06-30T11:29:12Z</time>
      </trkpt>
      <trkpt lat="43.630383" lon="5.055731">
        <ele>70.90936</ele>
        <time>2021-06-30T11:29:13Z</time>
      </trkpt>
      <trkpt lat="43.630455" lon="5.055307">
        <ele>70.39111</ele>
        <time>2021-06-30T11:29:14Z</time>
      </trkpt>
      <trkpt lat="43.630512" lon="5.054992">
        <ele>70.31262</ele>
        <time>2021-06-30T11:29:15Z</time>
      </trkpt>
      <trkpt lat="43.630577" lon="5.054620">
        <ele>70.22369</ele>
        <time>2021-06-30T11:29:16Z</time>
      </trkpt>
      <trkpt lat="43.630642" lon="5.054258">
        <ele>70.61115</ele>
        <time>2021-06-30T11:29:17Z</time>
      </trkpt>
      <trkpt lat="43.630703" lon="5.053912">
        <ele>70.39630</ele>
        <time>2021-06-30T11:29:18Z</time>
      </trkpt>
      <trkpt lat="43.630764" lon="5.053568">
        <ele>70.07172</ele>
        <time>2021-06-30T11:29:19Z</time>
      </trkpt>
      <trkpt lat="43.630814" lon="5.053277">
        <ele>70.36121</ele>
        <time>2021-06-30T11:29:20Z</time>
      </trkpt>
      <trkpt lat="43.630878" lon="5.052939">
        <ele>70.39160</ele>
        <time>2021-06-30T11:29:21Z</time>
      </trkpt>
      <trkpt lat="43.630932" lon="5.052664">
        <ele>71.02771</ele>
        <time>2021-06-30T11:29:22Z</time>
      </trkpt>
      <trkpt lat="43.630997" lon="5.052330">
        <ele>71.09192</ele>
        <time>2021-06-30T11:29:23Z</time>
      </trkpt>
      <trkpt lat="43.631050" lon="5.052028">
        <ele>70.48999</ele>
        <time>2021-06-30T11:29:24Z</time>
      </trkpt>
      <trkpt lat="43.631111" lon="5.051717">
        <ele>70.42340</ele>
        <time>2021-06-30T11:29:25Z</time>
      </trkpt>
      <trkpt lat="43.631168" lon="5.051432">
        <ele>70.14594</ele>
        <time>2021-06-30T11:29:26Z</time>
      </trkpt>
      <trkpt lat="43.631237" lon="5.051110">
        <ele>69.39893</ele>
        <time>2021-06-30T11:29:27Z</time>
      </trkpt>
      <trkpt lat="43.631313" lon="5.050743">
        <ele>69.63293</ele>
        <time>2021-06-30T11:29:28Z</time>
      </trkpt>
      <trkpt lat="43.631397" lon="5.050332">
        <ele>70.09589</ele>
        <time>2021-06-30T11:29:29Z</time>
      </trkpt>
      <trkpt lat="43.631485" lon="5.049918">
        <ele>70.31006</ele>
        <time>2021-06-30T11:29:30Z</time>
      </trkpt>
      <trkpt lat="43.631565" lon="5.049524">
        <ele>70.37567</ele>
        <time>2021-06-30T11:29:31Z</time>
      </trkpt>
      <trkpt lat="43.631660" lon="5.049083">
        <ele>70.82062</ele>
        <time>2021-06-30T11:29:33Z</time>
      </trkpt>
      <trkpt lat="43.631763" lon="5.048593">
        <ele>70.87665</ele>
        <time>2021-06-30T11:29:33Z</time>
      </trkpt>
      <trkpt lat="43.631866" lon="5.048124">
        <ele>70.93652</ele>
        <time>2021-06-30T11:29:34Z</time>
      </trkpt>
      <trkpt lat="43.631973" lon="5.047638">
        <ele>70.60052</ele>
        <time>2021-06-30T11:29:35Z</time>
      </trkpt>
      <trkpt lat="43.632088" lon="5.047160">
        <ele>70.22540</ele>
        <time>2021-06-30T11:29:36Z</time>
      </trkpt>
      <trkpt lat="43.632202" lon="5.046694">
        <ele>69.97467</ele>
        <time>2021-06-30T11:29:37Z</time>
      </trkpt>
      <trkpt lat="43.632202" lon="5.046694">
        <ele>70.16541</ele>
        <time>2021-06-30T11:29:39Z</time>
      </trkpt>
      <trkpt lat="43.632385" lon="5.045996">
        <ele>70.18372</ele>
        <time>2021-06-30T11:29:39Z</time>
      </trkpt>
      <trkpt lat="43.632515" lon="5.045523">
        <ele>69.85895</ele>
        <time>2021-06-30T11:29:40Z</time>
      </trkpt>
      <trkpt lat="43.632648" lon="5.045092">
        <ele>69.88440</ele>
        <time>2021-06-30T11:29:41Z</time>
      </trkpt>
      <trkpt lat="43.632786" lon="5.044631">
        <ele>69.94995</ele>
        <time>2021-06-30T11:29:42Z</time>
      </trkpt>
      <trkpt lat="43.632935" lon="5.044138">
        <ele>70.11530</ele>
        <time>2021-06-30T11:29:43Z</time>
      </trkpt>
      <trkpt lat="43.633087" lon="5.043642">
        <ele>70.11530</ele>
        <time>2021-06-30T11:29:44Z</time>
      </trkpt>
      <trkpt lat="43.633129" lon="5.043504">
        <ele>70.29816</ele>
        <time>2021-06-30T11:29:45Z</time>
      </trkpt>
      <trkpt lat="43.633373" lon="5.042702">
        <ele>70.12891</ele>
        <time>2021-06-30T11:29:46Z</time>
      </trkpt>
      <trkpt lat="43.633514" lon="5.042231">
        <ele>70.25745</ele>
        <time>2021-06-30T11:29:47Z</time>
      </trkpt>
      <trkpt lat="43.633652" lon="5.041771">
        <ele>70.36603</ele>
        <time>2021-06-30T11:29:48Z</time>
      </trkpt>
      <trkpt lat="43.633781" lon="5.041346">
        <ele>69.09998</ele>
        <time>2021-06-30T11:29:49Z</time>
      </trkpt>
      <trkpt lat="43.633915" lon="5.040895">
        <ele>68.82745</ele>
        <time>2021-06-30T11:29:50Z</time>
      </trkpt>
      <trkpt lat="43.633915" lon="5.040895">
        <ele>68.63513</ele>
        <time>2021-06-30T11:29:51Z</time>
      </trkpt>
      <trkpt lat="43.634052" lon="5.040450">
        <ele>67.48364</ele>
        <time>2021-06-30T11:29:52Z</time>
      </trkpt>
      <trkpt lat="43.634331" lon="5.039583">
        <ele>67.64838</ele>
        <time>2021-06-30T11:29:53Z</time>
      </trkpt>
      <trkpt lat="43.634331" lon="5.039583">
        <ele>68.10260</ele>
        <time>2021-06-30T11:29:54Z</time>
      </trkpt>
      <trkpt lat="43.634460" lon="5.039180">
        <ele>68.09790</ele>
        <time>2021-06-30T11:29:55Z</time>
      </trkpt>
      <trkpt lat="43.634609" lon="5.038714">
        <ele>68.23077</ele>
        <time>2021-06-30T11:29:56Z</time>
      </trkpt>
      <trkpt lat="43.634762" lon="5.038237">
        <ele>68.41534</ele>
        <time>2021-06-30T11:29:57Z</time>
      </trkpt>
      <trkpt lat="43.634907" lon="5.037787">
        <ele>68.27881</ele>
        <time>2021-06-30T11:29:58Z</time>
      </trkpt>
      <trkpt lat="43.635067" lon="5.037293">
        <ele>68.54639</ele>
        <time>2021-06-30T11:29:59Z</time>
      </trkpt>
      <trkpt lat="43.635216" lon="5.036826">
        <ele>68.07703</ele>
        <time>2021-06-30T11:30:00Z</time>
      </trkpt>
      <trkpt lat="43.635361" lon="5.036380">
        <ele>67.88562</ele>
        <time>2021-06-30T11:30:01Z</time>
      </trkpt>
      <trkpt lat="43.635529" lon="5.035859">
        <ele>67.59656</ele>
        <time>2021-06-30T11:30:02Z</time>
      </trkpt>
      <trkpt lat="43.635681" lon="5.035383">
        <ele>67.40033</ele>
        <time>2021-06-30T11:30:03Z</time>
      </trkpt>
      <trkpt lat="43.635830" lon="5.034921">
        <ele>67.21448</ele>
        <time>2021-06-30T11:30:04Z</time>
      </trkpt>
      <trkpt lat="43.635979" lon="5.034463">
        <ele>67.47260</ele>
        <time>2021-06-30T11:30:05Z</time>
      </trkpt>
      <trkpt lat="43.636108" lon="5.034050">
        <ele>67.32947</ele>
        <time>2021-06-30T11:30:06Z</time>
      </trkpt>
      <trkpt lat="43.636227" lon="5.033691">
        <ele>67.44891</ele>
        <time>2021-06-30T11:30:07Z</time>
      </trkpt>
      <trkpt lat="43.636364" lon="5.033258">
        <ele>67.10529</ele>
        <time>2021-06-30T11:30:08Z</time>
      </trkpt>
      <trkpt lat="43.636486" lon="5.032887">
        <ele>67.16107</ele>
        <time>2021-06-30T11:30:09Z</time>
      </trkpt>
      <trkpt lat="43.636600" lon="5.032525">
        <ele>67.18268</ele>
        <time>2021-06-30T11:30:10Z</time>
      </trkpt>
      <trkpt lat="43.636703" lon="5.032194">
        <ele>66.87720</ele>
        <time>2021-06-30T11:30:11Z</time>
      </trkpt>
      <trkpt lat="43.636803" lon="5.031882">
        <ele>66.72723</ele>
        <time>2021-06-30T11:30:12Z</time>
      </trkpt>
      <trkpt lat="43.636890" lon="5.031599">
        <ele>66.71484</ele>
        <time>2021-06-30T11:30:13Z</time>
      </trkpt>
      <trkpt lat="43.636978" lon="5.031321">
        <ele>66.41504</ele>
        <time>2021-06-30T11:30:14Z</time>
      </trkpt>
      <trkpt lat="43.637066" lon="5.031048">
        <ele>66.21295</ele>
        <time>2021-06-30T11:30:16Z</time>
      </trkpt>
      <trkpt lat="43.637154" lon="5.030766">
        <ele>66.54810</ele>
        <time>2021-06-30T11:30:16Z</time>
      </trkpt>
      <trkpt lat="43.637249" lon="5.030471">
        <ele>66.43042</ele>
        <time>2021-06-30T11:30:17Z</time>
      </trkpt>
      <trkpt lat="43.637344" lon="5.030168">
        <ele>66.41357</ele>
        <time>2021-06-30T11:30:18Z</time>
      </trkpt>
      <trkpt lat="43.637432" lon="5.029882">
        <ele>66.10211</ele>
        <time>2021-06-30T11:30:19Z</time>
      </trkpt>
      <trkpt lat="43.637535" lon="5.029566">
        <ele>65.75897</ele>
        <time>2021-06-30T11:30:20Z</time>
      </trkpt>
      <trkpt lat="43.637634" lon="5.029244">
        <ele>66.00446</ele>
        <time>2021-06-30T11:30:21Z</time>
      </trkpt>
      <trkpt lat="43.637672" lon="5.029125">
        <ele>66.29065</ele>
        <time>2021-06-30T11:30:22Z</time>
      </trkpt>
      <trkpt lat="43.637848" lon="5.028798">
        <ele>66.42114</ele>
        <time>2021-06-30T11:30:23Z</time>
      </trkpt>
      <trkpt lat="43.637970" lon="5.028442">
        <ele>66.81030</ele>
        <time>2021-06-30T11:30:24Z</time>
      </trkpt>
      <trkpt lat="43.637970" lon="5.028442">
        <ele>67.32996</ele>
        <time>2021-06-30T11:30:25Z</time>
      </trkpt>
      <trkpt lat="43.638184" lon="5.028000">
        <ele>66.79865</ele>
        <time>2021-06-30T11:30:26Z</time>
      </trkpt>
      <trkpt lat="43.638184" lon="5.028000">
        <ele>68.33105</ele>
        <time>2021-06-30T11:30:27Z</time>
      </trkpt>
      <trkpt lat="43.638336" lon="5.027816">
        <ele>68.11292</ele>
        <time>2021-06-30T11:30:28Z</time>
      </trkpt>
      <trkpt lat="43.638531" lon="5.027648">
        <ele>67.68781</ele>
        <time>2021-06-30T11:30:29Z</time>
      </trkpt>
      <trkpt lat="43.638737" lon="5.027520">
        <ele>68.72162</ele>
        <time>2021-06-30T11:30:30Z</time>
      </trkpt>
      <trkpt lat="43.638931" lon="5.027399">
        <ele>70.43140</ele>
        <time>2021-06-30T11:30:31Z</time>
      </trkpt>
      <trkpt lat="43.639076" lon="5.027309">
        <ele>71.13202</ele>
        <time>2021-06-30T11:30:32Z</time>
      </trkpt>
      <trkpt lat="43.639210" lon="5.027222">
        <ele>72.01959</ele>
        <time>2021-06-30T11:30:34Z</time>
      </trkpt>
      <trkpt lat="43.639290" lon="5.027142">
        <ele>72.29596</ele>
        <time>2021-06-30T11:30:34Z</time>
      </trkpt>
      <trkpt lat="43.639389" lon="5.027005">
        <ele>73.12622</ele>
        <time>2021-06-30T11:30:35Z</time>
      </trkpt>
      <trkpt lat="43.639462" lon="5.026835">
        <ele>74.12897</ele>
        <time>2021-06-30T11:30:36Z</time>
      </trkpt>
      <trkpt lat="43.639481" lon="5.026689">
        <ele>74.91583</ele>
        <time>2021-06-30T11:30:37Z</time>
      </trkpt>
      <trkpt lat="43.639477" lon="5.026518">
        <ele>75.04486</ele>
        <time>2021-06-30T11:30:38Z</time>
      </trkpt>
      <trkpt lat="43.639450" lon="5.026369">
        <ele>75.34619</ele>
        <time>2021-06-30T11:30:39Z</time>
      </trkpt>
      <trkpt lat="43.639389" lon="5.026212">
        <ele>75.08838</ele>
        <time>2021-06-30T11:30:40Z</time>
      </trkpt>
      <trkpt lat="43.639339" lon="5.026101">
        <ele>76.43518</ele>
        <time>2021-06-30T11:30:41Z</time>
      </trkpt>
      <trkpt lat="43.639275" lon="5.026001">
        <ele>76.51489</ele>
        <time>2021-06-30T11:30:42Z</time>
      </trkpt>
      <trkpt lat="43.639202" lon="5.025923">
        <ele>77.44891</ele>
        <time>2021-06-30T11:30:43Z</time>
      </trkpt>
      <trkpt lat="43.639118" lon="5.025830">
        <ele>77.73248</ele>
        <time>2021-06-30T11:30:44Z</time>
      </trkpt>
      <trkpt lat="43.639027" lon="5.025736">
        <ele>78.74951</ele>
        <time>2021-06-30T11:30:45Z</time>
      </trkpt>
      <trkpt lat="43.638916" lon="5.025631">
        <ele>79.36597</ele>
        <time>2021-06-30T11:30:46Z</time>
      </trkpt>
      <trkpt lat="43.638805" lon="5.025526">
        <ele>78.67987</ele>
        <time>2021-06-30T11:30:47Z</time>
      </trkpt>
      <trkpt lat="43.638702" lon="5.025431">
        <ele>78.98193</ele>
        <time>2021-06-30T11:30:48Z</time>
      </trkpt>
      <trkpt lat="43.638599" lon="5.025328">
        <ele>78.36743</ele>
        <time>2021-06-30T11:30:49Z</time>
      </trkpt>
      <trkpt lat="43.638496" lon="5.025226">
        <ele>78.17645</ele>
        <time>2021-06-30T11:30:50Z</time>
      </trkpt>
      <trkpt lat="43.638405" lon="5.025132">
        <ele>78.32581</ele>
        <time>2021-06-30T11:30:51Z</time>
      </trkpt>
      <trkpt lat="43.638313" lon="5.025036">
        <ele>76.96753</ele>
        <time>2021-06-30T11:30:52Z</time>
      </trkpt>
      <trkpt lat="43.638245" lon="5.024967">
        <ele>78.25336</ele>
        <time>2021-06-30T11:30:53Z</time>
      </trkpt>
      <trkpt lat="43.638245" lon="5.024967">
        <ele>77.76935</ele>
        <time>2021-06-30T11:30:54Z</time>
      </trkpt>
      <trkpt lat="43.638023" lon="5.024737">
        <ele>77.98846</ele>
        <time>2021-06-30T11:30:55Z</time>
      </trkpt>
      <trkpt lat="43.638023" lon="5.024737">
        <ele>77.25507</ele>
        <time>2021-06-30T11:30:56Z</time>
      </trkpt>
      <trkpt lat="43.637920" lon="5.024628">
        <ele>76.78766</ele>
        <time>2021-06-30T11:30:57Z</time>
      </trkpt>
      <trkpt lat="43.637779" lon="5.024482">
        <ele>76.32074</ele>
        <time>2021-06-30T11:30:58Z</time>
      </trkpt>
      <trkpt lat="43.637672" lon="5.024367">
        <ele>76.37207</ele>
        <time>2021-06-30T11:30:59Z</time>
      </trkpt>
      <trkpt lat="43.637550" lon="5.024228">
        <ele>74.79907</ele>
        <time>2021-06-30T11:31:00Z</time>
      </trkpt>
      <trkpt lat="43.637463" lon="5.024121">
        <ele>73.59991</ele>
        <time>2021-06-30T11:31:01Z</time>
      </trkpt>
      <trkpt lat="43.637344" lon="5.023980">
        <ele>73.92267</ele>
        <time>2021-06-30T11:31:02Z</time>
      </trkpt>
      <trkpt lat="43.637268" lon="5.023890">
        <ele>73.50336</ele>
        <time>2021-06-30T11:31:03Z</time>
      </trkpt>
      <trkpt lat="43.637188" lon="5.023791">
        <ele>73.93701</ele>
        <time>2021-06-30T11:31:04Z</time>
      </trkpt>
      <trkpt lat="43.637115" lon="5.023702">
        <ele>73.93365</ele>
        <time>2021-06-30T11:31:05Z</time>
      </trkpt>
      <trkpt lat="43.637051" lon="5.023618">
        <ele>74.43341</ele>
        <time>2021-06-30T11:31:06Z</time>
      </trkpt>
      <trkpt lat="43.636986" lon="5.023533">
        <ele>74.45471</ele>
        <time>2021-06-30T11:31:07Z</time>
      </trkpt>
      <trkpt lat="43.636925" lon="5.023459">
        <ele>74.70197</ele>
        <time>2021-06-30T11:31:08Z</time>
      </trkpt>
      <trkpt lat="43.636871" lon="5.023391">
        <ele>74.36658</ele>
        <time>2021-06-30T11:31:09Z</time>
      </trkpt>
      <trkpt lat="43.636826" lon="5.023326">
        <ele>72.77502</ele>
        <time>2021-06-30T11:31:10Z</time>
      </trkpt>
      <trkpt lat="43.636784" lon="5.023270">
        <ele>72.57043</ele>
        <time>2021-06-30T11:31:11Z</time>
      </trkpt>
      <trkpt lat="43.636734" lon="5.023207">
        <ele>71.85339</ele>
        <time>2021-06-30T11:31:12Z</time>
      </trkpt>
      <trkpt lat="43.636684" lon="5.023139">
        <ele>71.96545</ele>
        <time>2021-06-30T11:31:13Z</time>
      </trkpt>
      <trkpt lat="43.636635" lon="5.023078">
        <ele>71.22583</ele>
        <time>2021-06-30T11:31:14Z</time>
      </trkpt>
      <trkpt lat="43.636589" lon="5.023017">
        <ele>70.42804</ele>
        <time>2021-06-30T11:31:15Z</time>
      </trkpt>
      <trkpt lat="43.636543" lon="5.022963">
        <ele>70.73444</ele>
        <time>2021-06-30T11:31:16Z</time>
      </trkpt>
      <trkpt lat="43.636497" lon="5.022902">
        <ele>70.68640</ele>
        <time>2021-06-30T11:31:17Z</time>
      </trkpt>
      <trkpt lat="43.636448" lon="5.022839">
        <ele>70.28668</ele>
        <time>2021-06-30T11:31:18Z</time>
      </trkpt>
      <trkpt lat="43.636425" lon="5.022814">
        <ele>70.36200</ele>
        <time>2021-06-30T11:31:19Z</time>
      </trkpt>
      <trkpt lat="43.636406" lon="5.022788">
        <ele>70.32635</ele>
        <time>2021-06-30T11:31:20Z</time>
      </trkpt>
      <trkpt lat="43.636379" lon="5.022752">
        <ele>70.30298</ele>
        <time>2021-06-30T11:31:21Z</time>
      </trkpt>
      <trkpt lat="43.636372" lon="5.022746">
        <ele>69.23175</ele>
        <time>2021-06-30T11:31:22Z</time>
      </trkpt>
      <trkpt lat="43.636372" lon="5.022746">
        <ele>65.86560</ele>
        <time>2021-06-30T11:31:23Z</time>
      </trkpt>
      <trkpt lat="43.636372" lon="5.022746">
        <ele>65.70032</ele>
        <time>2021-06-30T11:31:24Z</time>
      </trkpt>
      <trkpt lat="43.636368" lon="5.022739">
        <ele>66.77826</ele>
        <time>2021-06-30T11:31:25Z</time>
      </trkpt>
      <trkpt lat="43.636353" lon="5.022723">
        <ele>68.31360</ele>
        <time>2021-06-30T11:31:26Z</time>
      </trkpt>
      <trkpt lat="43.636353" lon="5.022723">
        <ele>68.83636</ele>
        <time>2021-06-30T11:31:27Z</time>
      </trkpt>
      <trkpt lat="43.636353" lon="5.022723">
        <ele>69.00073</ele>
        <time>2021-06-30T11:31:28Z</time>
      </trkpt>
      <trkpt lat="43.636337" lon="5.022701">
        <ele>69.17999</ele>
        <time>2021-06-30T11:31:29Z</time>
      </trkpt>
      <trkpt lat="43.636162" lon="5.022493">
        <ele>67.48157</ele>
        <time>2021-06-30T11:31:30Z</time>
      </trkpt>
      <trkpt lat="43.636135" lon="5.022463">
        <ele>67.75702</ele>
        <time>2021-06-30T11:31:31Z</time>
      </trkpt>
      <trkpt lat="43.636055" lon="5.022367">
        <ele>67.99225</ele>
        <time>2021-06-30T11:31:32Z</time>
      </trkpt>
      <trkpt lat="43.635956" lon="5.022254">
        <ele>68.30969</ele>
        <time>2021-06-30T11:31:33Z</time>
      </trkpt>
      <trkpt lat="43.635849" lon="5.022133">
        <ele>67.82227</ele>
        <time>2021-06-30T11:31:34Z</time>
      </trkpt>
      <trkpt lat="43.635754" lon="5.022026">
        <ele>68.23352</ele>
        <time>2021-06-30T11:31:35Z</time>
      </trkpt>
      <trkpt lat="43.635635" lon="5.021889">
        <ele>68.68689</ele>
        <time>2021-06-30T11:31:36Z</time>
      </trkpt>
      <trkpt lat="43.635525" lon="5.021766">
        <ele>69.76538</ele>
        <time>2021-06-30T11:31:37Z</time>
      </trkpt>
      <trkpt lat="43.635460" lon="5.021693">
        <ele>69.00421</ele>
        <time>2021-06-30T11:31:38Z</time>
      </trkpt>
      <trkpt lat="43.635406" lon="5.021611">
        <ele>70.88153</ele>
        <time>2021-06-30T11:31:39Z</time>
      </trkpt>
      <trkpt lat="43.635357" lon="5.021538">
        <ele>69.43945</ele>
        <time>2021-06-30T11:31:40Z</time>
      </trkpt>
      <trkpt lat="43.635315" lon="5.021476">
        <ele>68.40179</ele>
        <time>2021-06-30T11:31:41Z</time>
      </trkpt>
      <trkpt lat="43.635277" lon="5.021419">
        <ele>68.79236</ele>
        <time>2021-06-30T11:31:42Z</time>
      </trkpt>
      <trkpt lat="43.635239" lon="5.021362">
        <ele>67.64734</ele>
        <time>2021-06-30T11:31:43Z</time>
      </trkpt>
      <trkpt lat="43.635201" lon="5.021302">
        <ele>67.76776</ele>
        <time>2021-06-30T11:31:44Z</time>
      </trkpt>
      <trkpt lat="43.635162" lon="5.021238">
        <ele>68.41418</ele>
        <time>2021-06-30T11:31:45Z</time>
      </trkpt>
      <trkpt lat="43.635136" lon="5.021190">
        <ele>67.12561</ele>
        <time>2021-06-30T11:31:46Z</time>
      </trkpt>
      <trkpt lat="43.635105" lon="5.021146">
        <ele>67.17480</ele>
        <time>2021-06-30T11:31:47Z</time>
      </trkpt>
      <trkpt lat="43.635071" lon="5.021088">
        <ele>67.46338</ele>
        <time>2021-06-30T11:31:48Z</time>
      </trkpt>
      <trkpt lat="43.635059" lon="5.021004">
        <ele>66.46765</ele>
        <time>2021-06-30T11:31:49Z</time>
      </trkpt>
      <trkpt lat="43.635067" lon="5.020908">
        <ele>65.70276</ele>
        <time>2021-06-30T11:31:50Z</time>
      </trkpt>
      <trkpt lat="43.635056" lon="5.020842">
        <ele>65.93073</ele>
        <time>2021-06-30T11:31:51Z</time>
      </trkpt>
      <trkpt lat="43.635056" lon="5.020842">
        <ele>66.30511</ele>
        <time>2021-06-30T11:31:52Z</time>
      </trkpt>
      <trkpt lat="43.635036" lon="5.020752">
        <ele>65.50256</ele>
        <time>2021-06-30T11:31:53Z</time>
      </trkpt>
      <trkpt lat="43.635033" lon="5.020733">
        <ele>65.20422</ele>
        <time>2021-06-30T11:31:54Z</time>
      </trkpt>
      <trkpt lat="43.635082" lon="5.020657">
        <ele>65.09595</ele>
        <time>2021-06-30T11:31:55Z</time>
      </trkpt>
      <trkpt lat="43.635174" lon="5.020559">
        <ele>65.53448</ele>
        <time>2021-06-30T11:31:56Z</time>
      </trkpt>
      <trkpt lat="43.635242" lon="5.020516">
        <ele>64.90778</ele>
        <time>2021-06-30T11:31:57Z</time>
      </trkpt>
      <trkpt lat="43.635311" lon="5.020491">
        <ele>64.52319</ele>
        <time>2021-06-30T11:31:58Z</time>
      </trkpt>
      <trkpt lat="43.635452" lon="5.020484">
        <ele>64.24426</ele>
        <time>2021-06-30T11:31:59Z</time>
      </trkpt>
      <trkpt lat="43.635529" lon="5.020509">
        <ele>64.52673</ele>
        <time>2021-06-30T11:32:00Z</time>
      </trkpt>
      <trkpt lat="43.635616" lon="5.020561">
        <ele>65.48932</ele>
        <time>2021-06-30T11:32:01Z</time>
      </trkpt>
      <trkpt lat="43.635719" lon="5.020628">
        <ele>65.61499</ele>
        <time>2021-06-30T11:32:02Z</time>
      </trkpt>
      <trkpt lat="43.635803" lon="5.020683">
        <ele>65.50970</ele>
        <time>2021-06-30T11:32:03Z</time>
      </trkpt>
      <trkpt lat="43.635860" lon="5.020722">
        <ele>66.33868</ele>
        <time>2021-06-30T11:32:04Z</time>
      </trkpt>
      <trkpt lat="43.635910" lon="5.020753">
        <ele>66.53979</ele>
        <time>2021-06-30T11:32:05Z</time>
      </trkpt>
      <trkpt lat="43.635986" lon="5.020803">
        <ele>65.63214</ele>
        <time>2021-06-30T11:32:06Z</time>
      </trkpt>
      <trkpt lat="43.636066" lon="5.020856">
        <ele>66.09302</ele>
        <time>2021-06-30T11:32:07Z</time>
      </trkpt>
      <trkpt lat="43.636173" lon="5.020924">
        <ele>67.20007</ele>
        <time>2021-06-30T11:32:08Z</time>
      </trkpt>
      <trkpt lat="43.636280" lon="5.020986">
        <ele>67.55225</ele>
        <time>2021-06-30T11:32:09Z</time>
      </trkpt>
      <trkpt lat="43.636353" lon="5.021029">
        <ele>68.15820</ele>
        <time>2021-06-30T11:32:10Z</time>
      </trkpt>
      <trkpt lat="43.636459" lon="5.021090">
        <ele>67.90936</ele>
        <time>2021-06-30T11:32:11Z</time>
      </trkpt>
      <trkpt lat="43.636559" lon="5.021141">
        <ele>68.10510</ele>
        <time>2021-06-30T11:32:12Z</time>
      </trkpt>
      <trkpt lat="43.636673" lon="5.021194">
        <ele>68.49316</ele>
        <time>2021-06-30T11:32:13Z</time>
      </trkpt>
      <trkpt lat="43.636768" lon="5.021238">
        <ele>68.85217</ele>
        <time>2021-06-30T11:32:14Z</time>
      </trkpt>
      <trkpt lat="43.636860" lon="5.021278">
        <ele>67.94153</ele>
        <time>2021-06-30T11:32:15Z</time>
      </trkpt>
      <trkpt lat="43.636944" lon="5.021312">
        <ele>67.95184</ele>
        <time>2021-06-30T11:32:16Z</time>
      </trkpt>
      <trkpt lat="43.637012" lon="5.021341">
        <ele>68.32886</ele>
        <time>2021-06-30T11:32:17Z</time>
      </trkpt>
      <trkpt lat="43.637058" lon="5.021360">
        <ele>67.96295</ele>
        <time>2021-06-30T11:32:18Z</time>
      </trkpt>
      <trkpt lat="43.637108" lon="5.021379">
        <ele>67.85144</ele>
        <time>2021-06-30T11:32:19Z</time>
      </trkpt>
      <trkpt lat="43.637157" lon="5.021400">
        <ele>65.93683</ele>
        <time>2021-06-30T11:32:20Z</time>
      </trkpt>
      <trkpt lat="43.637196" lon="5.021416">
        <ele>66.55518</ele>
        <time>2021-06-30T11:32:21Z</time>
      </trkpt>
      <trkpt lat="43.637222" lon="5.021426">
        <ele>67.38623</ele>
        <time>2021-06-30T11:32:22Z</time>
      </trkpt>
      <trkpt lat="43.637222" lon="5.021426">
        <ele>67.73297</ele>
        <time>2021-06-30T11:32:23Z</time>
      </trkpt>
      <trkpt lat="43.637264" lon="5.021441">
        <ele>67.54926</ele>
        <time>2021-06-30T11:32:24Z</time>
      </trkpt>
      <trkpt lat="43.637276" lon="5.021445">
        <ele>67.88080</ele>
        <time>2021-06-30T11:32:25Z</time>
      </trkpt>
      <trkpt lat="43.637306" lon="5.021456">
        <ele>67.27625</ele>
        <time>2021-06-30T11:32:26Z</time>
      </trkpt>
      <trkpt lat="43.637138" lon="5.021240">
        <ele>66.90820</ele>
        <time>2021-06-30T11:32:27Z</time>
      </trkpt>
      <trkpt lat="43.636894" lon="5.021138">
        <ele>66.85461</ele>
        <time>2021-06-30T11:32:28Z</time>
      </trkpt>
      <trkpt lat="43.636612" lon="5.021018">
        <ele>66.83771</ele>
        <time>2021-06-30T11:32:29Z</time>
      </trkpt>
      <trkpt lat="43.636364" lon="5.020906">
        <ele>66.42340</ele>
        <time>2021-06-30T11:32:30Z</time>
      </trkpt>
      <trkpt lat="43.636108" lon="5.020775">
        <ele>66.18091</ele>
        <time>2021-06-30T11:32:31Z</time>
      </trkpt>
      <trkpt lat="43.635906" lon="5.020640">
        <ele>65.81775</ele>
        <time>2021-06-30T11:32:32Z</time>
      </trkpt>
      <trkpt lat="43.635723" lon="5.020512">
        <ele>65.57764</ele>
        <time>2021-06-30T11:32:33Z</time>
      </trkpt>
      <trkpt lat="43.635571" lon="5.020408">
        <ele>64.63654</ele>
        <time>2021-06-30T11:32:34Z</time>
      </trkpt>
      <trkpt lat="43.635437" lon="5.020355">
        <ele>65.30377</ele>
        <time>2021-06-30T11:32:35Z</time>
      </trkpt>
      <trkpt lat="43.635330" lon="5.020345">
        <ele>65.59631</ele>
        <time>2021-06-30T11:32:36Z</time>
      </trkpt>
      <trkpt lat="43.635220" lon="5.020367">
        <ele>66.08698</ele>
        <time>2021-06-30T11:32:37Z</time>
      </trkpt>
      <trkpt lat="43.635098" lon="5.020420">
        <ele>66.10657</ele>
        <time>2021-06-30T11:32:38Z</time>
      </trkpt>
      <trkpt lat="43.635014" lon="5.020463">
        <ele>66.27942</ele>
        <time>2021-06-30T11:32:39Z</time>
      </trkpt>
      <trkpt lat="43.634991" lon="5.020477">
        <ele>65.90833</ele>
        <time>2021-06-30T11:32:40Z</time>
      </trkpt>
      <trkpt lat="43.634979" lon="5.020482">
        <ele>66.53430</ele>
        <time>2021-06-30T11:32:41Z</time>
      </trkpt>
      <trkpt lat="43.634960" lon="5.020491">
        <ele>66.33252</ele>
        <time>2021-06-30T11:32:42Z</time>
      </trkpt>
      <trkpt lat="43.634933" lon="5.020507">
        <ele>65.97058</ele>
        <time>2021-06-30T11:32:43Z</time>
      </trkpt>
      <trkpt lat="43.634884" lon="5.020532">
        <ele>65.97681</ele>
        <time>2021-06-30T11:32:44Z</time>
      </trkpt>
      <trkpt lat="43.634823" lon="5.020521">
        <ele>66.21454</ele>
        <time>2021-06-30T11:32:45Z</time>
      </trkpt>
      <trkpt lat="43.634735" lon="5.020510">
        <ele>65.38605</ele>
        <time>2021-06-30T11:32:46Z</time>
      </trkpt>
      <trkpt lat="43.634655" lon="5.020534">
        <ele>66.41827</ele>
        <time>2021-06-30T11:32:47Z</time>
      </trkpt>
      <trkpt lat="43.634598" lon="5.020527">
        <ele>67.15509</ele>
        <time>2021-06-30T11:32:48Z</time>
      </trkpt>
      <trkpt lat="43.634537" lon="5.020503">
        <ele>66.95258</ele>
        <time>2021-06-30T11:32:49Z</time>
      </trkpt>
      <trkpt lat="43.634487" lon="5.020470">
        <ele>66.73676</ele>
        <time>2021-06-30T11:32:50Z</time>
      </trkpt>
      <trkpt lat="43.634445" lon="5.020430">
        <ele>66.42621</ele>
        <time>2021-06-30T11:32:51Z</time>
      </trkpt>
      <trkpt lat="43.634396" lon="5.020376">
        <ele>66.36639</ele>
        <time>2021-06-30T11:32:52Z</time>
      </trkpt>
      <trkpt lat="43.634396" lon="5.020376">
        <ele>66.51971</ele>
        <time>2021-06-30T11:32:53Z</time>
      </trkpt>
      <trkpt lat="43.634354" lon="5.020332">
        <ele>66.61591</ele>
        <time>2021-06-30T11:32:54Z</time>
      </trkpt>
      <trkpt lat="43.634178" lon="5.020152">
        <ele>66.79456</ele>
        <time>2021-06-30T11:32:55Z</time>
      </trkpt>
      <trkpt lat="43.634178" lon="5.020152">
        <ele>66.92731</ele>
        <time>2021-06-30T11:32:56Z</time>
      </trkpt>
      <trkpt lat="43.634098" lon="5.020077">
        <ele>67.45837</ele>
        <time>2021-06-30T11:32:57Z</time>
      </trkpt>
      <trkpt lat="43.634010" lon="5.019993">
        <ele>67.64832</ele>
        <time>2021-06-30T11:32:58Z</time>
      </trkpt>
      <trkpt lat="43.633919" lon="5.019928">
        <ele>67.02515</ele>
        <time>2021-06-30T11:32:59Z</time>
      </trkpt>
      <trkpt lat="43.633816" lon="5.019862">
        <ele>67.46680</ele>
        <time>2021-06-30T11:33:00Z</time>
      </trkpt>
      <trkpt lat="43.633694" lon="5.019786">
        <ele>65.84460</ele>
        <time>2021-06-30T11:33:01Z</time>
      </trkpt>
      <trkpt lat="43.633591" lon="5.019740">
        <ele>64.50787</ele>
        <time>2021-06-30T11:33:02Z</time>
      </trkpt>
      <trkpt lat="43.633511" lon="5.019709">
        <ele>64.08203</ele>
        <time>2021-06-30T11:33:03Z</time>
      </trkpt>
      <trkpt lat="43.633396" lon="5.019657">
        <ele>64.35712</ele>
        <time>2021-06-30T11:33:04Z</time>
      </trkpt>
      <trkpt lat="43.633282" lon="5.019605">
        <ele>63.90289</ele>
        <time>2021-06-30T11:33:05Z</time>
      </trkpt>
      <trkpt lat="43.633167" lon="5.019565">
        <ele>63.10498</ele>
        <time>2021-06-30T11:33:06Z</time>
      </trkpt>
      <trkpt lat="43.633053" lon="5.019524">
        <ele>62.96838</ele>
        <time>2021-06-30T11:33:07Z</time>
      </trkpt>
      <trkpt lat="43.632935" lon="5.019484">
        <ele>62.88855</ele>
        <time>2021-06-30T11:33:08Z</time>
      </trkpt>
      <trkpt lat="43.632805" lon="5.019439">
        <ele>63.15112</ele>
        <time>2021-06-30T11:33:09Z</time>
      </trkpt>
      <trkpt lat="43.632694" lon="5.019399">
        <ele>63.82928</ele>
        <time>2021-06-30T11:33:10Z</time>
      </trkpt>
      <trkpt lat="43.632629" lon="5.019377">
        <ele>64.20111</ele>
        <time>2021-06-30T11:33:11Z</time>
      </trkpt>
      <trkpt lat="43.632599" lon="5.019367">
        <ele>64.10840</ele>
        <time>2021-06-30T11:33:12Z</time>
      </trkpt>
      <trkpt lat="43.632557" lon="5.019351">
        <ele>63.99573</ele>
        <time>2021-06-30T11:33:13Z</time>
      </trkpt>
      <trkpt lat="43.632515" lon="5.019337">
        <ele>64.52295</ele>
        <time>2021-06-30T11:33:14Z</time>
      </trkpt>
      <trkpt lat="43.632412" lon="5.019301">
        <ele>64.23358</ele>
        <time>2021-06-30T11:33:15Z</time>
      </trkpt>
      <trkpt lat="43.632198" lon="5.019227">
        <ele>63.87390</ele>
        <time>2021-06-30T11:33:16Z</time>
      </trkpt>
      <trkpt lat="43.631905" lon="5.019125">
        <ele>63.97253</ele>
        <time>2021-06-30T11:33:17Z</time>
      </trkpt>
      <trkpt lat="43.631577" lon="5.019011">
        <ele>62.20831</ele>
        <time>2021-06-30T11:33:18Z</time>
      </trkpt>
      <trkpt lat="43.631306" lon="5.018915">
        <ele>62.08923</ele>
        <time>2021-06-30T11:33:19Z</time>
      </trkpt>
      <trkpt lat="43.631020" lon="5.018817">
        <ele>61.90009</ele>
        <time>2021-06-30T11:33:20Z</time>
      </trkpt>
      <trkpt lat="43.630775" lon="5.018731">
        <ele>62.11377</ele>
        <time>2021-06-30T11:33:21Z</time>
      </trkpt>
      <trkpt lat="43.630775" lon="5.018731">
        <ele>61.97144</ele>
        <time>2021-06-30T11:33:22Z</time>
      </trkpt>
      <trkpt lat="43.630249" lon="5.018548">
        <ele>62.52289</ele>
        <time>2021-06-30T11:33:23Z</time>
      </trkpt>
      <trkpt lat="43.630249" lon="5.018548">
        <ele>63.07709</ele>
        <time>2021-06-30T11:33:24Z</time>
      </trkpt>
      <trkpt lat="43.630001" lon="5.018461">
        <ele>62.75616</ele>
        <time>2021-06-30T11:33:25Z</time>
      </trkpt>
      <trkpt lat="43.629768" lon="5.018380">
        <ele>62.70154</ele>
        <time>2021-06-30T11:33:26Z</time>
      </trkpt>
      <trkpt lat="43.629520" lon="5.018296">
        <ele>63.06537</ele>
        <time>2021-06-30T11:33:27Z</time>
      </trkpt>
      <trkpt lat="43.629295" lon="5.018221">
        <ele>62.27509</ele>
        <time>2021-06-30T11:33:28Z</time>
      </trkpt>
      <trkpt lat="43.629063" lon="5.018143">
        <ele>62.41852</ele>
        <time>2021-06-30T11:33:29Z</time>
      </trkpt>
      <trkpt lat="43.628857" lon="5.018074">
        <ele>62.53888</ele>
        <time>2021-06-30T11:33:30Z</time>
      </trkpt>
      <trkpt lat="43.628635" lon="5.017999">
        <ele>62.70557</ele>
        <time>2021-06-30T11:33:31Z</time>
      </trkpt>
      <trkpt lat="43.628426" lon="5.017929">
        <ele>63.28833</ele>
        <time>2021-06-30T11:33:32Z</time>
      </trkpt>
      <trkpt lat="43.628216" lon="5.017856">
        <ele>63.18097</ele>
        <time>2021-06-30T11:33:33Z</time>
      </trkpt>
      <trkpt lat="43.628017" lon="5.017789">
        <ele>63.52264</ele>
        <time>2021-06-30T11:33:34Z</time>
      </trkpt>
      <trkpt lat="43.627808" lon="5.017718">
        <ele>63.13684</ele>
        <time>2021-06-30T11:33:35Z</time>
      </trkpt>
      <trkpt lat="43.627613" lon="5.017651">
        <ele>63.11963</ele>
        <time>2021-06-30T11:33:36Z</time>
      </trkpt>
      <trkpt lat="43.627407" lon="5.017580">
        <ele>63.42938</ele>
        <time>2021-06-30T11:33:37Z</time>
      </trkpt>
      <trkpt lat="43.627220" lon="5.017516">
        <ele>63.46906</ele>
        <time>2021-06-30T11:33:38Z</time>
      </trkpt>
      <trkpt lat="43.627010" lon="5.017445">
        <ele>64.15588</ele>
        <time>2021-06-30T11:33:39Z</time>
      </trkpt>
      <trkpt lat="43.626808" lon="5.017376">
        <ele>64.05017</ele>
        <time>2021-06-30T11:33:40Z</time>
      </trkpt>
      <trkpt lat="43.626602" lon="5.017302">
        <ele>63.74878</ele>
        <time>2021-06-30T11:33:41Z</time>
      </trkpt>
      <trkpt lat="43.626408" lon="5.017232">
        <ele>63.79089</ele>
        <time>2021-06-30T11:33:42Z</time>
      </trkpt>
      <trkpt lat="43.626217" lon="5.017164">
        <ele>63.54297</ele>
        <time>2021-06-30T11:33:43Z</time>
      </trkpt>
      <trkpt lat="43.626011" lon="5.017092">
        <ele>64.69287</ele>
        <time>2021-06-30T11:33:44Z</time>
      </trkpt>
      <trkpt lat="43.625813" lon="5.017021">
        <ele>64.98895</ele>
        <time>2021-06-30T11:33:45Z</time>
      </trkpt>
      <trkpt lat="43.625607" lon="5.016947">
        <ele>64.97485</ele>
        <time>2021-06-30T11:33:46Z</time>
      </trkpt>
      <trkpt lat="43.625401" lon="5.016873">
        <ele>64.56860</ele>
        <time>2021-06-30T11:33:47Z</time>
      </trkpt>
      <trkpt lat="43.625198" lon="5.016803">
        <ele>64.99695</ele>
        <time>2021-06-30T11:33:48Z</time>
      </trkpt>
      <trkpt lat="43.624996" lon="5.016733">
        <ele>65.39795</ele>
        <time>2021-06-30T11:33:49Z</time>
      </trkpt>
      <trkpt lat="43.624794" lon="5.016663">
        <ele>65.23187</ele>
        <time>2021-06-30T11:33:50Z</time>
      </trkpt>
      <trkpt lat="43.624584" lon="5.016591">
        <ele>65.07269</ele>
        <time>2021-06-30T11:33:51Z</time>
      </trkpt>
      <trkpt lat="43.624336" lon="5.016506">
        <ele>65.10162</ele>
        <time>2021-06-30T11:33:52Z</time>
      </trkpt>
      <trkpt lat="43.624016" lon="5.016395">
        <ele>65.10138</ele>
        <time>2021-06-30T11:33:53Z</time>
      </trkpt>
      <trkpt lat="43.623764" lon="5.016307">
        <ele>64.71552</ele>
        <time>2021-06-30T11:33:54Z</time>
      </trkpt>
      <trkpt lat="43.623440" lon="5.016195">
        <ele>65.24799</ele>
        <time>2021-06-30T11:33:55Z</time>
      </trkpt>
      <trkpt lat="43.622974" lon="5.016035">
        <ele>64.61145</ele>
        <time>2021-06-30T11:33:56Z</time>
      </trkpt>
      <trkpt lat="43.622684" lon="5.015934">
        <ele>65.07520</ele>
        <time>2021-06-30T11:33:57Z</time>
      </trkpt>
      <trkpt lat="43.622368" lon="5.015823">
        <ele>66.22174</ele>
        <time>2021-06-30T11:33:58Z</time>
      </trkpt>
      <trkpt lat="43.622093" lon="5.015728">
        <ele>66.30219</ele>
        <time>2021-06-30T11:33:59Z</time>
      </trkpt>
      <trkpt lat="43.621761" lon="5.015614">
        <ele>64.64618</ele>
        <time>2021-06-30T11:34:00Z</time>
      </trkpt>
      <trkpt lat="43.621452" lon="5.015508">
        <ele>63.80847</ele>
        <time>2021-06-30T11:34:01Z</time>
      </trkpt>
      <trkpt lat="43.621452" lon="5.015508">
        <ele>63.82874</ele>
        <time>2021-06-30T11:34:02Z</time>
      </trkpt>
      <trkpt lat="43.621151" lon="5.015403">
        <ele>63.45215</ele>
        <time>2021-06-30T11:34:03Z</time>
      </trkpt>
      <trkpt lat="43.620853" lon="5.015302">
        <ele>62.88922</ele>
        <time>2021-06-30T11:34:04Z</time>
      </trkpt>
      <trkpt lat="43.620575" lon="5.015205">
        <ele>63.89465</ele>
        <time>2021-06-30T11:34:05Z</time>
      </trkpt>
      <trkpt lat="43.620277" lon="5.015104">
        <ele>62.71967</ele>
        <time>2021-06-30T11:34:06Z</time>
      </trkpt>
      <trkpt lat="43.620022" lon="5.015016">
        <ele>62.72375</ele>
        <time>2021-06-30T11:34:07Z</time>
      </trkpt>
      <trkpt lat="43.619766" lon="5.014929">
        <ele>62.81964</ele>
        <time>2021-06-30T11:34:08Z</time>
      </trkpt>
      <trkpt lat="43.619526" lon="5.014827">
        <ele>60.15271</ele>
        <time>2021-06-30T11:34:09Z</time>
      </trkpt>
      <trkpt lat="43.619267" lon="5.014713">
        <ele>60.41235</ele>
        <time>2021-06-30T11:34:10Z</time>
      </trkpt>
      <trkpt lat="43.619061" lon="5.014620">
        <ele>60.13019</ele>
        <time>2021-06-30T11:34:11Z</time>
      </trkpt>
      <trkpt lat="43.618839" lon="5.014519">
        <ele>60.02985</ele>
        <time>2021-06-30T11:34:12Z</time>
      </trkpt>
      <trkpt lat="43.618649" lon="5.014431">
        <ele>60.27545</ele>
        <time>2021-06-30T11:34:13Z</time>
      </trkpt>
      <trkpt lat="43.618477" lon="5.014351">
        <ele>59.35980</ele>
        <time>2021-06-30T11:34:14Z</time>
      </trkpt>
      <trkpt lat="43.618305" lon="5.014274">
        <ele>59.69586</ele>
        <time>2021-06-30T11:34:15Z</time>
      </trkpt>
      <trkpt lat="43.618145" lon="5.014200">
        <ele>59.58984</ele>
        <time>2021-06-30T11:34:16Z</time>
      </trkpt>
      <trkpt lat="43.617977" lon="5.014124">
        <ele>59.11981</ele>
        <time>2021-06-30T11:34:17Z</time>
      </trkpt>
      <trkpt lat="43.617794" lon="5.014040">
        <ele>59.84534</ele>
        <time>2021-06-30T11:34:18Z</time>
      </trkpt>
      <trkpt lat="43.617626" lon="5.013962">
        <ele>60.03809</ele>
        <time>2021-06-30T11:34:19Z</time>
      </trkpt>
      <trkpt lat="43.617481" lon="5.013896">
        <ele>60.14801</ele>
        <time>2021-06-30T11:34:20Z</time>
      </trkpt>
      <trkpt lat="43.617325" lon="5.013825">
        <ele>59.64716</ele>
        <time>2021-06-30T11:34:21Z</time>
      </trkpt>
      <trkpt lat="43.617165" lon="5.013750">
        <ele>59.52148</ele>
        <time>2021-06-30T11:34:22Z</time>
      </trkpt>
      <trkpt lat="43.616997" lon="5.013674">
        <ele>57.99670</ele>
        <time>2021-06-30T11:34:23Z</time>
      </trkpt>
      <trkpt lat="43.616829" lon="5.013598">
        <ele>58.00500</ele>
        <time>2021-06-30T11:34:24Z</time>
      </trkpt>
      <trkpt lat="43.616653" lon="5.013518">
        <ele>58.50256</ele>
        <time>2021-06-30T11:34:25Z</time>
      </trkpt>
      <trkpt lat="43.616486" lon="5.013440">
        <ele>58.25720</ele>
        <time>2021-06-30T11:34:26Z</time>
      </trkpt>
      <trkpt lat="43.616322" lon="5.013365">
        <ele>59.34253</ele>
        <time>2021-06-30T11:34:27Z</time>
      </trkpt>
      <trkpt lat="43.616142" lon="5.013284">
        <ele>61.21069</ele>
        <time>2021-06-30T11:34:28Z</time>
      </trkpt>
      <trkpt lat="43.615971" lon="5.013204">
        <ele>61.41315</ele>
        <time>2021-06-30T11:34:29Z</time>
      </trkpt>
      <trkpt lat="43.615795" lon="5.013125">
        <ele>59.80066</ele>
        <time>2021-06-30T11:34:30Z</time>
      </trkpt>
      <trkpt lat="43.615795" lon="5.013125">
        <ele>59.76514</ele>
        <time>2021-06-30T11:34:31Z</time>
      </trkpt>
      <trkpt lat="43.615620" lon="5.013045">
        <ele>58.03607</ele>
        <time>2021-06-30T11:34:32Z</time>
      </trkpt>
      <trkpt lat="43.615444" lon="5.012965">
        <ele>58.64075</ele>
        <time>2021-06-30T11:34:33Z</time>
      </trkpt>
      <trkpt lat="43.615261" lon="5.012881">
        <ele>58.77441</ele>
        <time>2021-06-30T11:34:34Z</time>
      </trkpt>
      <trkpt lat="43.615086" lon="5.012800">
        <ele>56.51178</ele>
        <time>2021-06-30T11:34:35Z</time>
      </trkpt>
      <trkpt lat="43.614902" lon="5.012717">
        <ele>56.36053</ele>
        <time>2021-06-30T11:34:36Z</time>
      </trkpt>
      <trkpt lat="43.614685" lon="5.012618">
        <ele>56.58337</ele>
        <time>2021-06-30T11:34:37Z</time>
      </trkpt>
      <trkpt lat="43.614517" lon="5.012542">
        <ele>57.01660</ele>
        <time>2021-06-30T11:34:38Z</time>
      </trkpt>
      <trkpt lat="43.614361" lon="5.012470">
        <ele>56.41113</ele>
        <time>2021-06-30T11:34:39Z</time>
      </trkpt>
      <trkpt lat="43.614185" lon="5.012391">
        <ele>56.79358</ele>
        <time>2021-06-30T11:34:40Z</time>
      </trkpt>
      <trkpt lat="43.614014" lon="5.012313">
        <ele>56.81097</ele>
        <time>2021-06-30T11:34:41Z</time>
      </trkpt>
      <trkpt lat="43.613831" lon="5.012231">
        <ele>54.73352</ele>
        <time>2021-06-30T11:34:42Z</time>
      </trkpt>
      <trkpt lat="43.613655" lon="5.012151">
        <ele>55.17017</ele>
        <time>2021-06-30T11:34:43Z</time>
      </trkpt>
      <trkpt lat="43.613487" lon="5.012076">
        <ele>56.12164</ele>
        <time>2021-06-30T11:34:44Z</time>
      </trkpt>
      <trkpt lat="43.613316" lon="5.011999">
        <ele>56.32434</ele>
        <time>2021-06-30T11:34:45Z</time>
      </trkpt>
      <trkpt lat="43.613140" lon="5.011920">
        <ele>58.56915</ele>
        <time>2021-06-30T11:34:46Z</time>
      </trkpt>
      <trkpt lat="43.612968" lon="5.011843">
        <ele>58.31122</ele>
        <time>2021-06-30T11:34:47Z</time>
      </trkpt>
      <trkpt lat="43.612797" lon="5.011762">
        <ele>58.55249</ele>
        <time>2021-06-30T11:34:48Z</time>
      </trkpt>
      <trkpt lat="43.612614" lon="5.011678">
        <ele>58.54449</ele>
        <time>2021-06-30T11:34:49Z</time>
      </trkpt>
      <trkpt lat="43.612434" lon="5.011595">
        <ele>57.39136</ele>
        <time>2021-06-30T11:34:50Z</time>
      </trkpt>
      <trkpt lat="43.612228" lon="5.011498">
        <ele>57.74792</ele>
        <time>2021-06-30T11:34:51Z</time>
      </trkpt>
      <trkpt lat="43.612026" lon="5.011404">
        <ele>58.40051</ele>
        <time>2021-06-30T11:34:52Z</time>
      </trkpt>
      <trkpt lat="43.611835" lon="5.011316">
        <ele>58.64960</ele>
        <time>2021-06-30T11:34:53Z</time>
      </trkpt>
      <trkpt lat="43.611649" lon="5.011232">
        <ele>57.72968</ele>
        <time>2021-06-30T11:34:54Z</time>
      </trkpt>
      <trkpt lat="43.611477" lon="5.011155">
        <ele>55.96130</ele>
        <time>2021-06-30T11:34:55Z</time>
      </trkpt>
      <trkpt lat="43.611298" lon="5.011075">
        <ele>54.90350</ele>
        <time>2021-06-30T11:34:56Z</time>
      </trkpt>
      <trkpt lat="43.611122" lon="5.010998">
        <ele>55.09753</ele>
        <time>2021-06-30T11:34:57Z</time>
      </trkpt>
      <trkpt lat="43.610950" lon="5.010920">
        <ele>54.89874</ele>
        <time>2021-06-30T11:34:58Z</time>
      </trkpt>
      <trkpt lat="43.610794" lon="5.010851">
        <ele>56.93626</ele>
        <time>2021-06-30T11:34:59Z</time>
      </trkpt>
      <trkpt lat="43.610619" lon="5.010773">
        <ele>56.55072</ele>
        <time>2021-06-30T11:35:00Z</time>
      </trkpt>
      <trkpt lat="43.610462" lon="5.010702">
        <ele>56.33777</ele>
        <time>2021-06-30T11:35:01Z</time>
      </trkpt>
      <trkpt lat="43.610462" lon="5.010702">
        <ele>56.94800</ele>
        <time>2021-06-30T11:35:02Z</time>
      </trkpt>
      <trkpt lat="43.610317" lon="5.010634">
        <ele>56.51599</ele>
        <time>2021-06-30T11:35:03Z</time>
      </trkpt>
      <trkpt lat="43.610157" lon="5.010561">
        <ele>56.61902</ele>
        <time>2021-06-30T11:35:04Z</time>
      </trkpt>
      <trkpt lat="43.610001" lon="5.010488">
        <ele>56.00616</ele>
        <time>2021-06-30T11:35:05Z</time>
      </trkpt>
      <trkpt lat="43.609875" lon="5.010429">
        <ele>55.93445</ele>
        <time>2021-06-30T11:35:06Z</time>
      </trkpt>
      <trkpt lat="43.609737" lon="5.010364">
        <ele>56.23083</ele>
        <time>2021-06-30T11:35:07Z</time>
      </trkpt>
      <trkpt lat="43.609592" lon="5.010295">
        <ele>56.00958</ele>
        <time>2021-06-30T11:35:08Z</time>
      </trkpt>
      <trkpt lat="43.609444" lon="5.010248">
        <ele>54.90295</ele>
        <time>2021-06-30T11:35:09Z</time>
      </trkpt>
      <trkpt lat="43.609306" lon="5.010220">
        <ele>55.02667</ele>
        <time>2021-06-30T11:35:10Z</time>
      </trkpt>
      <trkpt lat="43.609150" lon="5.010206">
        <ele>56.51215</ele>
        <time>2021-06-30T11:35:11Z</time>
      </trkpt>
      <trkpt lat="43.608997" lon="5.010224">
        <ele>56.03320</ele>
        <time>2021-06-30T11:35:12Z</time>
      </trkpt>
      <trkpt lat="43.608814" lon="5.010277">
        <ele>54.13538</ele>
        <time>2021-06-30T11:35:13Z</time>
      </trkpt>
      <trkpt lat="43.608662" lon="5.010341">
        <ele>56.37573</ele>
        <time>2021-06-30T11:35:14Z</time>
      </trkpt>
      <trkpt lat="43.608517" lon="5.010402">
        <ele>56.65631</ele>
        <time>2021-06-30T11:35:15Z</time>
      </trkpt>
      <trkpt lat="43.608395" lon="5.010454">
        <ele>57.50562</ele>
        <time>2021-06-30T11:35:16Z</time>
      </trkpt>
      <trkpt lat="43.608284" lon="5.010499">
        <ele>57.86658</ele>
        <time>2021-06-30T11:35:17Z</time>
      </trkpt>
      <trkpt lat="43.608177" lon="5.010544">
        <ele>57.57538</ele>
        <time>2021-06-30T11:35:18Z</time>
      </trkpt>
      <trkpt lat="43.608059" lon="5.010571">
        <ele>57.18237</ele>
        <time>2021-06-30T11:35:19Z</time>
      </trkpt>
      <trkpt lat="43.607941" lon="5.010595">
        <ele>57.65771</ele>
        <time>2021-06-30T11:35:20Z</time>
      </trkpt>
      <trkpt lat="43.607826" lon="5.010598">
        <ele>56.84625</ele>
        <time>2021-06-30T11:35:21Z</time>
      </trkpt>
      <trkpt lat="43.607735" lon="5.010588">
        <ele>56.35242</ele>
        <time>2021-06-30T11:35:22Z</time>
      </trkpt>
      <trkpt lat="43.607662" lon="5.010569">
        <ele>56.68604</ele>
        <time>2021-06-30T11:35:23Z</time>
      </trkpt>
      <trkpt lat="43.607613" lon="5.010548">
        <ele>56.46313</ele>
        <time>2021-06-30T11:35:24Z</time>
      </trkpt>
      <trkpt lat="43.607563" lon="5.010524">
        <ele>57.00122</ele>
        <time>2021-06-30T11:35:25Z</time>
      </trkpt>
      <trkpt lat="43.607517" lon="5.010503">
        <ele>57.16724</ele>
        <time>2021-06-30T11:35:26Z</time>
      </trkpt>
      <trkpt lat="43.607471" lon="5.010481">
        <ele>57.96057</ele>
        <time>2021-06-30T11:35:27Z</time>
      </trkpt>
      <trkpt lat="43.607452" lon="5.010472">
        <ele>58.41162</ele>
        <time>2021-06-30T11:35:28Z</time>
      </trkpt>
      <trkpt lat="43.607445" lon="5.010468">
        <ele>57.57483</ele>
        <time>2021-06-30T11:35:29Z</time>
      </trkpt>
      <trkpt lat="43.607422" lon="5.010454">
        <ele>57.63928</ele>
        <time>2021-06-30T11:35:30Z</time>
      </trkpt>
      <trkpt lat="43.607422" lon="5.010447">
        <ele>56.69061</ele>
        <time>2021-06-30T11:35:31Z</time>
      </trkpt>
      <trkpt lat="43.607422" lon="5.010447">
        <ele>56.53125</ele>
        <time>2021-06-30T11:35:32Z</time>
      </trkpt>
      <trkpt lat="43.607422" lon="5.010447">
        <ele>56.24854</ele>
        <time>2021-06-30T11:35:33Z</time>
      </trkpt>
      <trkpt lat="43.607403" lon="5.010332">
        <ele>57.80890</ele>
        <time>2021-06-30T11:35:34Z</time>
      </trkpt>
      <trkpt lat="43.607296" lon="5.010100">
        <ele>57.30298</ele>
        <time>2021-06-30T11:35:35Z</time>
      </trkpt>
      <trkpt lat="43.607243" lon="5.010041">
        <ele>55.84137</ele>
        <time>2021-06-30T11:35:36Z</time>
      </trkpt>
      <trkpt lat="43.607243" lon="5.010041">
        <ele>56.18451</ele>
        <time>2021-06-30T11:35:37Z</time>
      </trkpt>
      <trkpt lat="43.607128" lon="5.009972">
        <ele>57.03967</ele>
        <time>2021-06-30T11:35:38Z</time>
      </trkpt>
      <trkpt lat="43.607018" lon="5.009956">
        <ele>56.17645</ele>
        <time>2021-06-30T11:35:39Z</time>
      </trkpt>
      <trkpt lat="43.606899" lon="5.009979">
        <ele>56.51062</ele>
        <time>2021-06-30T11:35:40Z</time>
      </trkpt>
      <trkpt lat="43.606808" lon="5.010042">
        <ele>56.19159</ele>
        <time>2021-06-30T11:35:41Z</time>
      </trkpt>
      <trkpt lat="43.606701" lon="5.009770">
        <ele>56.14386</ele>
        <time>2021-06-30T11:35:42Z</time>
      </trkpt>
      <trkpt lat="43.606609" lon="5.009618">
        <ele>56.67255</ele>
        <time>2021-06-30T11:35:43Z</time>
      </trkpt>
      <trkpt lat="43.606426" lon="5.009297">
        <ele>58.01398</ele>
        <time>2021-06-30T11:35:44Z</time>
      </trkpt>
      <trkpt lat="43.606243" lon="5.008968">
        <ele>58.28223</ele>
        <time>2021-06-30T11:35:45Z</time>
      </trkpt>
      <trkpt lat="43.606056" lon="5.008641">
        <ele>58.88293</ele>
        <time>2021-06-30T11:35:46Z</time>
      </trkpt>
      <trkpt lat="43.605873" lon="5.008320">
        <ele>59.09399</ele>
        <time>2021-06-30T11:35:47Z</time>
      </trkpt>
      <trkpt lat="43.605690" lon="5.007994">
        <ele>59.18671</ele>
        <time>2021-06-30T11:35:48Z</time>
      </trkpt>
      <trkpt lat="43.605488" lon="5.007641">
        <ele>59.28296</ele>
        <time>2021-06-30T11:35:49Z</time>
      </trkpt>
      <trkpt lat="43.605293" lon="5.007293">
        <ele>58.85400</ele>
        <time>2021-06-30T11:35:50Z</time>
      </trkpt>
      <trkpt lat="43.605095" lon="5.006948">
        <ele>58.92261</ele>
        <time>2021-06-30T11:35:51Z</time>
      </trkpt>
      <trkpt lat="43.604897" lon="5.006596">
        <ele>58.93573</ele>
        <time>2021-06-30T11:35:52Z</time>
      </trkpt>
      <trkpt lat="43.604694" lon="5.006234">
        <ele>59.07629</ele>
        <time>2021-06-30T11:35:53Z</time>
      </trkpt>
      <trkpt lat="43.604488" lon="5.005870">
        <ele>59.53174</ele>
        <time>2021-06-30T11:35:54Z</time>
      </trkpt>
      <trkpt lat="43.604282" lon="5.005503">
        <ele>58.96637</ele>
        <time>2021-06-30T11:35:55Z</time>
      </trkpt>
      <trkpt lat="43.604080" lon="5.005148">
        <ele>59.14539</ele>
        <time>2021-06-30T11:35:56Z</time>
      </trkpt>
      <trkpt lat="43.603882" lon="5.004796">
        <ele>59.23529</ele>
        <time>2021-06-30T11:35:57Z</time>
      </trkpt>
      <trkpt lat="43.603683" lon="5.004433">
        <ele>59.23785</ele>
        <time>2021-06-30T11:35:58Z</time>
      </trkpt>
      <trkpt lat="43.603497" lon="5.004054">
        <ele>59.79565</ele>
        <time>2021-06-30T11:35:59Z</time>
      </trkpt>
      <trkpt lat="43.603310" lon="5.003677">
        <ele>59.52148</ele>
        <time>2021-06-30T11:36:00Z</time>
      </trkpt>
      <trkpt lat="43.603130" lon="5.003289">
        <ele>59.69989</ele>
        <time>2021-06-30T11:36:01Z</time>
      </trkpt>
      <trkpt lat="43.602962" lon="5.002921">
        <ele>60.38721</ele>
        <time>2021-06-30T11:36:02Z</time>
      </trkpt>
      <trkpt lat="43.602791" lon="5.002547">
        <ele>60.44904</ele>
        <time>2021-06-30T11:36:03Z</time>
      </trkpt>
      <trkpt lat="43.602631" lon="5.002162">
        <ele>59.21838</ele>
        <time>2021-06-30T11:36:04Z</time>
      </trkpt>
      <trkpt lat="43.602631" lon="5.002162">
        <ele>59.85120</ele>
        <time>2021-06-30T11:36:05Z</time>
      </trkpt>
      <trkpt lat="43.602486" lon="5.001802">
        <ele>60.33124</ele>
        <time>2021-06-30T11:36:06Z</time>
      </trkpt>
      <trkpt lat="43.602341" lon="5.001430">
        <ele>60.03314</ele>
        <time>2021-06-30T11:36:07Z</time>
      </trkpt>
      <trkpt lat="43.602196" lon="5.001048">
        <ele>60.32318</ele>
        <time>2021-06-30T11:36:08Z</time>
      </trkpt>
      <trkpt lat="43.602036" lon="5.000631">
        <ele>59.99414</ele>
        <time>2021-06-30T11:36:09Z</time>
      </trkpt>
      <trkpt lat="43.601883" lon="5.000228">
        <ele>60.86700</ele>
        <time>2021-06-30T11:36:10Z</time>
      </trkpt>
      <trkpt lat="43.601734" lon="4.999829">
        <ele>61.07690</ele>
        <time>2021-06-30T11:36:11Z</time>
      </trkpt>
      <trkpt lat="43.601585" lon="4.999443">
        <ele>60.51300</ele>
        <time>2021-06-30T11:36:12Z</time>
      </trkpt>
      <trkpt lat="43.601440" lon="4.999056">
        <ele>60.80640</ele>
        <time>2021-06-30T11:36:13Z</time>
      </trkpt>
      <trkpt lat="43.601299" lon="4.998679">
        <ele>61.53967</ele>
        <time>2021-06-30T11:36:14Z</time>
      </trkpt>
      <trkpt lat="43.601151" lon="4.998273">
        <ele>60.59186</ele>
        <time>2021-06-30T11:36:15Z</time>
      </trkpt>
      <trkpt lat="43.601006" lon="4.997865">
        <ele>60.65106</ele>
        <time>2021-06-30T11:36:16Z</time>
      </trkpt>
      <trkpt lat="43.600872" lon="4.997438">
        <ele>59.71002</ele>
        <time>2021-06-30T11:36:17Z</time>
      </trkpt>
      <trkpt lat="43.600761" lon="4.997043">
        <ele>58.22791</ele>
        <time>2021-06-30T11:36:18Z</time>
      </trkpt>
      <trkpt lat="43.600655" lon="4.996607">
        <ele>58.21216</ele>
        <time>2021-06-30T11:36:19Z</time>
      </trkpt>
      <trkpt lat="43.600555" lon="4.996181">
        <ele>58.51099</ele>
        <time>2021-06-30T11:36:20Z</time>
      </trkpt>
      <trkpt lat="43.600456" lon="4.995741">
        <ele>57.72321</ele>
        <time>2021-06-30T11:36:21Z</time>
      </trkpt>
      <trkpt lat="43.600357" lon="4.995305">
        <ele>57.18384</ele>
        <time>2021-06-30T11:36:22Z</time>
      </trkpt>
      <trkpt lat="43.600258" lon="4.994862">
        <ele>56.45093</ele>
        <time>2021-06-30T11:36:23Z</time>
      </trkpt>
      <trkpt lat="43.600155" lon="4.994435">
        <ele>56.96326</ele>
        <time>2021-06-30T11:36:24Z</time>
      </trkpt>
      <trkpt lat="43.600033" lon="4.994006">
        <ele>57.43604</ele>
        <time>2021-06-30T11:36:25Z</time>
      </trkpt>
      <trkpt lat="43.599888" lon="4.993577">
        <ele>57.83270</ele>
        <time>2021-06-30T11:36:26Z</time>
      </trkpt>
      <trkpt lat="43.599731" lon="4.993172">
        <ele>58.86273</ele>
        <time>2021-06-30T11:36:27Z</time>
      </trkpt>
      <trkpt lat="43.599560" lon="4.992787">
        <ele>60.11182</ele>
        <time>2021-06-30T11:36:28Z</time>
      </trkpt>
      <trkpt lat="43.599373" lon="4.992417">
        <ele>60.90765</ele>
        <time>2021-06-30T11:36:29Z</time>
      </trkpt>
      <trkpt lat="43.599163" lon="4.992040">
        <ele>61.53607</ele>
        <time>2021-06-30T11:36:30Z</time>
      </trkpt>
      <trkpt lat="43.598946" lon="4.991690">
        <ele>62.85168</ele>
        <time>2021-06-30T11:36:31Z</time>
      </trkpt>
      <trkpt lat="43.598694" lon="4.991344">
        <ele>63.94849</ele>
        <time>2021-06-30T11:36:32Z</time>
      </trkpt>
      <trkpt lat="43.598427" lon="4.991004">
        <ele>65.43304</ele>
        <time>2021-06-30T11:36:33Z</time>
      </trkpt>
      <trkpt lat="43.598164" lon="4.990712">
        <ele>66.80676</ele>
        <time>2021-06-30T11:36:34Z</time>
      </trkpt>
      <trkpt lat="43.597893" lon="4.990445">
        <ele>67.69446</ele>
        <time>2021-06-30T11:36:35Z</time>
      </trkpt>
      <trkpt lat="43.597607" lon="4.990199">
        <ele>67.25647</ele>
        <time>2021-06-30T11:36:36Z</time>
      </trkpt>
      <trkpt lat="43.597321" lon="4.989985">
        <ele>67.97345</ele>
        <time>2021-06-30T11:36:37Z</time>
      </trkpt>
      <trkpt lat="43.597321" lon="4.989985">
        <ele>68.77057</ele>
        <time>2021-06-30T11:36:38Z</time>
      </trkpt>
      <trkpt lat="43.597023" lon="4.989781">
        <ele>69.55188</ele>
        <time>2021-06-30T11:36:39Z</time>
      </trkpt>
      <trkpt lat="43.596710" lon="4.989610">
        <ele>69.39032</ele>
        <time>2021-06-30T11:36:40Z</time>
      </trkpt>
      <trkpt lat="43.596378" lon="4.989445">
        <ele>69.02716</ele>
        <time>2021-06-30T11:36:41Z</time>
      </trkpt>
      <trkpt lat="43.596024" lon="4.989308">
        <ele>69.38550</ele>
        <time>2021-06-30T11:36:42Z</time>
      </trkpt>
      <trkpt lat="43.595688" lon="4.989206">
        <ele>68.98706</ele>
        <time>2021-06-30T11:36:43Z</time>
      </trkpt>
      <trkpt lat="43.595341" lon="4.989121">
        <ele>68.60364</ele>
        <time>2021-06-30T11:36:44Z</time>
      </trkpt>
      <trkpt lat="43.595013" lon="4.989083">
        <ele>67.47968</ele>
        <time>2021-06-30T11:36:45Z</time>
      </trkpt>
      <trkpt lat="43.594669" lon="4.989067">
        <ele>66.64874</ele>
        <time>2021-06-30T11:36:46Z</time>
      </trkpt>
      <trkpt lat="43.594269" lon="4.989066">
        <ele>64.99524</ele>
        <time>2021-06-30T11:36:47Z</time>
      </trkpt>
      <trkpt lat="43.593910" lon="4.989083">
        <ele>63.65051</ele>
        <time>2021-06-30T11:36:48Z</time>
      </trkpt>
      <trkpt lat="43.593529" lon="4.989101">
        <ele>60.67792</ele>
        <time>2021-06-30T11:36:49Z</time>
      </trkpt>
      <trkpt lat="43.593159" lon="4.989118">
        <ele>58.55060</ele>
        <time>2021-06-30T11:36:50Z</time>
      </trkpt>
      <trkpt lat="43.592773" lon="4.989136">
        <ele>57.27222</ele>
        <time>2021-06-30T11:36:51Z</time>
      </trkpt>
      <trkpt lat="43.592415" lon="4.989153">
        <ele>55.81561</ele>
        <time>2021-06-30T11:36:52Z</time>
      </trkpt>
      <trkpt lat="43.592064" lon="4.989169">
        <ele>55.33661</ele>
        <time>2021-06-30T11:36:53Z</time>
      </trkpt>
      <trkpt lat="43.591709" lon="4.989189">
        <ele>54.72070</ele>
        <time>2021-06-30T11:36:54Z</time>
      </trkpt>
      <trkpt lat="43.591366" lon="4.989210">
        <ele>54.48132</ele>
        <time>2021-06-30T11:36:55Z</time>
      </trkpt>
      <trkpt lat="43.591042" lon="4.989229">
        <ele>54.26379</ele>
        <time>2021-06-30T11:36:56Z</time>
      </trkpt>
      <trkpt lat="43.590675" lon="4.989251">
        <ele>53.71564</ele>
        <time>2021-06-30T11:36:57Z</time>
      </trkpt>
      <trkpt lat="43.590336" lon="4.989271">
        <ele>53.96716</ele>
        <time>2021-06-30T11:36:58Z</time>
      </trkpt>
      <trkpt lat="43.590034" lon="4.989289">
        <ele>53.90057</ele>
        <time>2021-06-30T11:36:59Z</time>
      </trkpt>
      <trkpt lat="43.589741" lon="4.989307">
        <ele>53.17737</ele>
        <time>2021-06-30T11:37:00Z</time>
      </trkpt>
      <trkpt lat="43.589462" lon="4.989323">
        <ele>52.80035</ele>
        <time>2021-06-30T11:37:01Z</time>
      </trkpt>
      <trkpt lat="43.589203" lon="4.989339">
        <ele>52.69916</ele>
        <time>2021-06-30T11:37:02Z</time>
      </trkpt>
      <trkpt lat="43.588997" lon="4.989351">
        <ele>52.06073</ele>
        <time>2021-06-30T11:37:03Z</time>
      </trkpt>
      <trkpt lat="43.588833" lon="4.989363">
        <ele>52.26825</ele>
        <time>2021-06-30T11:37:04Z</time>
      </trkpt>
      <trkpt lat="43.588722" lon="4.989368">
        <ele>52.80176</ele>
        <time>2021-06-30T11:37:05Z</time>
      </trkpt>
      <trkpt lat="43.588722" lon="4.989368">
        <ele>51.08057</ele>
        <time>2021-06-30T11:37:06Z</time>
      </trkpt>
      <trkpt lat="43.588650" lon="4.989361">
        <ele>51.19348</ele>
        <time>2021-06-30T11:37:07Z</time>
      </trkpt>
      <trkpt lat="43.588596" lon="4.989356">
        <ele>51.48773</ele>
        <time>2021-06-30T11:37:08Z</time>
      </trkpt>
      <trkpt lat="43.588547" lon="4.989348">
        <ele>51.51874</ele>
        <time>2021-06-30T11:37:09Z</time>
      </trkpt>
      <trkpt lat="43.588493" lon="4.989230">
        <ele>51.33154</ele>
        <time>2021-06-30T11:37:10Z</time>
      </trkpt>
      <trkpt lat="43.588406" lon="4.989155">
        <ele>51.12646</ele>
        <time>2021-06-30T11:37:11Z</time>
      </trkpt>
      <trkpt lat="43.588253" lon="4.989177">
        <ele>50.81586</ele>
        <time>2021-06-30T11:37:12Z</time>
      </trkpt>
      <trkpt lat="43.588188" lon="4.989222">
        <ele>50.85400</ele>
        <time>2021-06-30T11:37:13Z</time>
      </trkpt>
      <trkpt lat="43.588108" lon="4.989256">
        <ele>51.27026</ele>
        <time>2021-06-30T11:37:14Z</time>
      </trkpt>
      <trkpt lat="43.588020" lon="4.989294">
        <ele>50.90131</ele>
        <time>2021-06-30T11:37:15Z</time>
      </trkpt>
      <trkpt lat="43.587872" lon="4.989358">
        <ele>51.20203</ele>
        <time>2021-06-30T11:37:16Z</time>
      </trkpt>
      <trkpt lat="43.587749" lon="4.989377">
        <ele>50.89746</ele>
        <time>2021-06-30T11:37:17Z</time>
      </trkpt>
      <trkpt lat="43.587582" lon="4.989360">
        <ele>50.51624</ele>
        <time>2021-06-30T11:37:18Z</time>
      </trkpt>
      <trkpt lat="43.587418" lon="4.989344">
        <ele>50.55859</ele>
        <time>2021-06-30T11:37:19Z</time>
      </trkpt>
      <trkpt lat="43.587181" lon="4.989298">
        <ele>50.92749</ele>
        <time>2021-06-30T11:37:20Z</time>
      </trkpt>
      <trkpt lat="43.586964" lon="4.989240">
        <ele>51.80365</ele>
        <time>2021-06-30T11:37:21Z</time>
      </trkpt>
      <trkpt lat="43.586765" lon="4.989179">
        <ele>52.26813</ele>
        <time>2021-06-30T11:37:22Z</time>
      </trkpt>
      <trkpt lat="43.586586" lon="4.989100">
        <ele>53.48511</ele>
        <time>2021-06-30T11:37:23Z</time>
      </trkpt>
      <trkpt lat="43.586380" lon="4.989001">
        <ele>54.79749</ele>
        <time>2021-06-30T11:37:24Z</time>
      </trkpt>
      <trkpt lat="43.586208" lon="4.988905">
        <ele>56.59070</ele>
        <time>2021-06-30T11:37:25Z</time>
      </trkpt>
      <trkpt lat="43.586048" lon="4.988791">
        <ele>56.93787</ele>
        <time>2021-06-30T11:37:26Z</time>
      </trkpt>
      <trkpt lat="43.585892" lon="4.988676">
        <ele>56.80750</ele>
        <time>2021-06-30T11:37:27Z</time>
      </trkpt>
      <trkpt lat="43.585762" lon="4.988580">
        <ele>56.78864</ele>
        <time>2021-06-30T11:37:28Z</time>
      </trkpt>
      <trkpt lat="43.585617" lon="4.988469">
        <ele>56.48230</ele>
        <time>2021-06-30T11:37:29Z</time>
      </trkpt>
      <trkpt lat="43.585472" lon="4.988355">
        <ele>56.69318</ele>
        <time>2021-06-30T11:37:30Z</time>
      </trkpt>
      <trkpt lat="43.585323" lon="4.988221">
        <ele>57.70508</ele>
        <time>2021-06-30T11:37:31Z</time>
      </trkpt>
      <trkpt lat="43.585152" lon="4.988063">
        <ele>58.28717</ele>
        <time>2021-06-30T11:37:32Z</time>
      </trkpt>
      <trkpt lat="43.584976" lon="4.987900">
        <ele>58.64325</ele>
        <time>2021-06-30T11:37:33Z</time>
      </trkpt>
      <trkpt lat="43.584827" lon="4.987738">
        <ele>59.06396</ele>
        <time>2021-06-30T11:37:34Z</time>
      </trkpt>
      <trkpt lat="43.584671" lon="4.987568">
        <ele>58.68658</ele>
        <time>2021-06-30T11:37:35Z</time>
      </trkpt>
      <trkpt lat="43.584522" lon="4.987408">
        <ele>58.72815</ele>
        <time>2021-06-30T11:37:36Z</time>
      </trkpt>
      <trkpt lat="43.584396" lon="4.987259">
        <ele>59.19043</ele>
        <time>2021-06-30T11:37:37Z</time>
      </trkpt>
      <trkpt lat="43.584263" lon="4.987105">
        <ele>61.31421</ele>
        <time>2021-06-30T11:37:38Z</time>
      </trkpt>
      <trkpt lat="43.584118" lon="4.986937">
        <ele>61.38440</ele>
        <time>2021-06-30T11:37:39Z</time>
      </trkpt>
      <trkpt lat="43.583969" lon="4.986766">
        <ele>61.03070</ele>
        <time>2021-06-30T11:37:40Z</time>
      </trkpt>
      <trkpt lat="43.583824" lon="4.986601">
        <ele>60.99048</ele>
        <time>2021-06-30T11:37:41Z</time>
      </trkpt>
      <trkpt lat="43.583675" lon="4.986430">
        <ele>60.20386</ele>
        <time>2021-06-30T11:37:42Z</time>
      </trkpt>
      <trkpt lat="43.583675" lon="4.986430">
        <ele>61.59479</ele>
        <time>2021-06-30T11:37:43Z</time>
      </trkpt>
      <trkpt lat="43.583523" lon="4.986263">
        <ele>63.33447</ele>
        <time>2021-06-30T11:37:44Z</time>
      </trkpt>
      <trkpt lat="43.583374" lon="4.986102">
        <ele>63.74585</ele>
        <time>2021-06-30T11:37:45Z</time>
      </trkpt>
      <trkpt lat="43.583221" lon="4.985947">
        <ele>64.32458</ele>
        <time>2021-06-30T11:37:46Z</time>
      </trkpt>
      <trkpt lat="43.583057" lon="4.985795">
        <ele>66.07263</ele>
        <time>2021-06-30T11:37:47Z</time>
      </trkpt>
      <trkpt lat="43.582890" lon="4.985643">
        <ele>66.52069</ele>
        <time>2021-06-30T11:37:48Z</time>
      </trkpt>
      <trkpt lat="43.582722" lon="4.985509">
        <ele>66.80609</ele>
        <time>2021-06-30T11:37:49Z</time>
      </trkpt>
      <trkpt lat="43.582561" lon="4.985383">
        <ele>65.83667</ele>
        <time>2021-06-30T11:37:50Z</time>
      </trkpt>
      <trkpt lat="43.582394" lon="4.985270">
        <ele>64.18732</ele>
        <time>2021-06-30T11:37:51Z</time>
      </trkpt>
      <trkpt lat="43.582226" lon="4.985171">
        <ele>63.94659</ele>
        <time>2021-06-30T11:37:52Z</time>
      </trkpt>
      <trkpt lat="43.582035" lon="4.985059">
        <ele>64.71362</ele>
        <time>2021-06-30T11:37:53Z</time>
      </trkpt>
      <trkpt lat="43.581852" lon="4.984956">
        <ele>64.13324</ele>
        <time>2021-06-30T11:37:54Z</time>
      </trkpt>
      <trkpt lat="43.581673" lon="4.984852">
        <ele>63.53864</ele>
        <time>2021-06-30T11:37:55Z</time>
      </trkpt>
      <trkpt lat="43.581474" lon="4.984764">
        <ele>63.87012</ele>
        <time>2021-06-30T11:37:56Z</time>
      </trkpt>
      <trkpt lat="43.581291" lon="4.984688">
        <ele>63.25439</ele>
        <time>2021-06-30T11:37:57Z</time>
      </trkpt>
      <trkpt lat="43.581108" lon="4.984630">
        <ele>63.77698</ele>
        <time>2021-06-30T11:37:58Z</time>
      </trkpt>
      <trkpt lat="43.580906" lon="4.984570">
        <ele>63.87378</ele>
        <time>2021-06-30T11:37:59Z</time>
      </trkpt>
      <trkpt lat="43.580719" lon="4.984516">
        <ele>63.24768</ele>
        <time>2021-06-30T11:38:00Z</time>
      </trkpt>
      <trkpt lat="43.580524" lon="4.984472">
        <ele>63.40692</ele>
        <time>2021-06-30T11:38:01Z</time>
      </trkpt>
      <trkpt lat="43.580318" lon="4.984446">
        <ele>63.18341</ele>
        <time>2021-06-30T11:38:02Z</time>
      </trkpt>
      <trkpt lat="43.580124" lon="4.984422">
        <ele>63.56714</ele>
        <time>2021-06-30T11:38:03Z</time>
      </trkpt>
      <trkpt lat="43.579937" lon="4.984398">
        <ele>63.78827</ele>
        <time>2021-06-30T11:38:04Z</time>
      </trkpt>
      <trkpt lat="43.579750" lon="4.984379">
        <ele>63.14758</ele>
        <time>2021-06-30T11:38:05Z</time>
      </trkpt>
      <trkpt lat="43.579556" lon="4.984388">
        <ele>61.70013</ele>
        <time>2021-06-30T11:38:06Z</time>
      </trkpt>
      <trkpt lat="43.579346" lon="4.984399">
        <ele>59.76099</ele>
        <time>2021-06-30T11:38:07Z</time>
      </trkpt>
      <trkpt lat="43.579159" lon="4.984409">
        <ele>59.53162</ele>
        <time>2021-06-30T11:38:08Z</time>
      </trkpt>
      <trkpt lat="43.578972" lon="4.984419">
        <ele>58.26532</ele>
        <time>2021-06-30T11:38:09Z</time>
      </trkpt>
      <trkpt lat="43.578773" lon="4.984429">
        <ele>57.98981</ele>
        <time>2021-06-30T11:38:10Z</time>
      </trkpt>
      <trkpt lat="43.578587" lon="4.984439">
        <ele>57.24426</ele>
        <time>2021-06-30T11:38:11Z</time>
      </trkpt>
      <trkpt lat="43.578392" lon="4.984449">
        <ele>56.13171</ele>
        <time>2021-06-30T11:38:12Z</time>
      </trkpt>
      <trkpt lat="43.578197" lon="4.984460">
        <ele>55.31165</ele>
        <time>2021-06-30T11:38:13Z</time>
      </trkpt>
      <trkpt lat="43.577991" lon="4.984469">
        <ele>54.96698</ele>
        <time>2021-06-30T11:38:14Z</time>
      </trkpt>
      <trkpt lat="43.577797" lon="4.984466">
        <ele>54.31934</ele>
        <time>2021-06-30T11:38:15Z</time>
      </trkpt>
      <trkpt lat="43.577595" lon="4.984463">
        <ele>53.79779</ele>
        <time>2021-06-30T11:38:16Z</time>
      </trkpt>
      <trkpt lat="43.577396" lon="4.984460">
        <ele>52.85474</ele>
        <time>2021-06-30T11:38:17Z</time>
      </trkpt>
      <trkpt lat="43.577202" lon="4.984457">
        <ele>52.87170</ele>
        <time>2021-06-30T11:38:18Z</time>
      </trkpt>
      <trkpt lat="43.577007" lon="4.984446">
        <ele>52.11230</ele>
        <time>2021-06-30T11:38:19Z</time>
      </trkpt>
      <trkpt lat="43.577007" lon="4.984446">
        <ele>51.05536</ele>
        <time>2021-06-30T11:38:20Z</time>
      </trkpt>
      <trkpt lat="43.576805" lon="4.984431">
        <ele>50.77966</ele>
        <time>2021-06-30T11:38:21Z</time>
      </trkpt>
      <trkpt lat="43.576618" lon="4.984419">
        <ele>49.87604</ele>
        <time>2021-06-30T11:38:22Z</time>
      </trkpt>
      <trkpt lat="43.576424" lon="4.984391">
        <ele>48.81293</ele>
        <time>2021-06-30T11:38:23Z</time>
      </trkpt>
      <trkpt lat="43.576221" lon="4.984354">
        <ele>48.02045</ele>
        <time>2021-06-30T11:38:24Z</time>
      </trkpt>
      <trkpt lat="43.576027" lon="4.984318">
        <ele>47.59235</ele>
        <time>2021-06-30T11:38:25Z</time>
      </trkpt>
      <trkpt lat="43.575832" lon="4.984281">
        <ele>47.31757</ele>
        <time>2021-06-30T11:38:26Z</time>
      </trkpt>
      <trkpt lat="43.575638" lon="4.984239">
        <ele>47.01874</ele>
        <time>2021-06-30T11:38:27Z</time>
      </trkpt>
      <trkpt lat="43.575455" lon="4.984184">
        <ele>47.01678</ele>
        <time>2021-06-30T11:38:28Z</time>
      </trkpt>
      <trkpt lat="43.575260" lon="4.984126">
        <ele>46.91833</ele>
        <time>2021-06-30T11:38:29Z</time>
      </trkpt>
      <trkpt lat="43.575069" lon="4.984069">
        <ele>46.65442</ele>
        <time>2021-06-30T11:38:30Z</time>
      </trkpt>
      <trkpt lat="43.574879" lon="4.984012">
        <ele>46.53015</ele>
        <time>2021-06-30T11:38:31Z</time>
      </trkpt>
      <trkpt lat="43.574692" lon="4.983956">
        <ele>45.96179</ele>
        <time>2021-06-30T11:38:32Z</time>
      </trkpt>
      <trkpt lat="43.574509" lon="4.983887">
        <ele>45.62396</ele>
        <time>2021-06-30T11:38:33Z</time>
      </trkpt>
      <trkpt lat="43.574318" lon="4.983807">
        <ele>45.89258</ele>
        <time>2021-06-30T11:38:34Z</time>
      </trkpt>
      <trkpt lat="43.574139" lon="4.983731">
        <ele>45.77002</ele>
        <time>2021-06-30T11:38:35Z</time>
      </trkpt>
      <trkpt lat="43.573959" lon="4.983652">
        <ele>45.73517</ele>
        <time>2021-06-30T11:38:36Z</time>
      </trkpt>
      <trkpt lat="43.573772" lon="4.983565">
        <ele>45.74487</ele>
        <time>2021-06-30T11:38:37Z</time>
      </trkpt>
      <trkpt lat="43.573586" lon="4.983477">
        <ele>46.38831</ele>
        <time>2021-06-30T11:38:38Z</time>
      </trkpt>
      <trkpt lat="43.573399" lon="4.983381">
        <ele>46.07428</ele>
        <time>2021-06-30T11:38:39Z</time>
      </trkpt>
      <trkpt lat="43.573212" lon="4.983285">
        <ele>45.35907</ele>
        <time>2021-06-30T11:38:40Z</time>
      </trkpt>
      <trkpt lat="43.573036" lon="4.983174">
        <ele>45.54169</ele>
        <time>2021-06-30T11:38:41Z</time>
      </trkpt>
      <trkpt lat="43.572865" lon="4.983063">
        <ele>45.68152</ele>
        <time>2021-06-30T11:38:42Z</time>
      </trkpt>
      <trkpt lat="43.572693" lon="4.982955">
        <ele>45.79761</ele>
        <time>2021-06-30T11:38:43Z</time>
      </trkpt>
      <trkpt lat="43.572517" lon="4.982843">
        <ele>45.94031</ele>
        <time>2021-06-30T11:38:44Z</time>
      </trkpt>
      <trkpt lat="43.572334" lon="4.982729">
        <ele>45.42908</ele>
        <time>2021-06-30T11:38:45Z</time>
      </trkpt>
      <trkpt lat="43.572151" lon="4.982604">
        <ele>45.43134</ele>
        <time>2021-06-30T11:38:46Z</time>
      </trkpt>
      <trkpt lat="43.571987" lon="4.982468">
        <ele>45.63831</ele>
        <time>2021-06-30T11:38:47Z</time>
      </trkpt>
      <trkpt lat="43.571823" lon="4.982334">
        <ele>45.01807</ele>
        <time>2021-06-30T11:38:48Z</time>
      </trkpt>
      <trkpt lat="43.571823" lon="4.982334">
        <ele>44.93866</ele>
        <time>2021-06-30T11:38:49Z</time>
      </trkpt>
      <trkpt lat="43.571636" lon="4.982191">
        <ele>44.89246</ele>
        <time>2021-06-30T11:38:50Z</time>
      </trkpt>
      <trkpt lat="43.571472" lon="4.982066">
        <ele>45.18530</ele>
        <time>2021-06-30T11:38:51Z</time>
      </trkpt>
      <trkpt lat="43.571304" lon="4.981922">
        <ele>44.85626</ele>
        <time>2021-06-30T11:38:52Z</time>
      </trkpt>
      <trkpt lat="43.571159" lon="4.981793">
        <ele>45.39569</ele>
        <time>2021-06-30T11:38:53Z</time>
      </trkpt>
      <trkpt lat="43.570992" lon="4.981627">
        <ele>45.42212</ele>
        <time>2021-06-30T11:38:54Z</time>
      </trkpt>
      <trkpt lat="43.570831" lon="4.981468">
        <ele>44.86182</ele>
        <time>2021-06-30T11:38:55Z</time>
      </trkpt>
      <trkpt lat="43.570679" lon="4.981315">
        <ele>44.90979</ele>
        <time>2021-06-30T11:38:56Z</time>
      </trkpt>
      <trkpt lat="43.570522" lon="4.981159">
        <ele>46.39502</ele>
        <time>2021-06-30T11:38:57Z</time>
      </trkpt>
      <trkpt lat="43.570370" lon="4.980998">
        <ele>44.85211</ele>
        <time>2021-06-30T11:38:58Z</time>
      </trkpt>
      <trkpt lat="43.570221" lon="4.980847">
        <ele>43.23669</ele>
        <time>2021-06-30T11:38:59Z</time>
      </trkpt>
      <trkpt lat="43.570072" lon="4.980677">
        <ele>42.66638</ele>
        <time>2021-06-30T11:39:00Z</time>
      </trkpt>
      <trkpt lat="43.569923" lon="4.980498">
        <ele>43.58417</ele>
        <time>2021-06-30T11:39:01Z</time>
      </trkpt>
      <trkpt lat="43.569767" lon="4.980313">
        <ele>42.93665</ele>
        <time>2021-06-30T11:39:02Z</time>
      </trkpt>
      <trkpt lat="43.569618" lon="4.980135">
        <ele>42.82959</ele>
        <time>2021-06-30T11:39:03Z</time>
      </trkpt>
      <trkpt lat="43.569469" lon="4.979956">
        <ele>41.99615</ele>
        <time>2021-06-30T11:39:04Z</time>
      </trkpt>
      <trkpt lat="43.569317" lon="4.979776">
        <ele>40.69452</ele>
        <time>2021-06-30T11:39:05Z</time>
      </trkpt>
      <trkpt lat="43.569180" lon="4.979610">
        <ele>41.26971</ele>
        <time>2021-06-30T11:39:06Z</time>
      </trkpt>
      <trkpt lat="43.569038" lon="4.979443">
        <ele>41.47650</ele>
        <time>2021-06-30T11:39:07Z</time>
      </trkpt>
      <trkpt lat="43.568886" lon="4.979259">
        <ele>41.35962</ele>
        <time>2021-06-30T11:39:08Z</time>
      </trkpt>
      <trkpt lat="43.568726" lon="4.979065">
        <ele>41.37817</ele>
        <time>2021-06-30T11:39:09Z</time>
      </trkpt>
      <trkpt lat="43.568550" lon="4.978860">
        <ele>42.16992</ele>
        <time>2021-06-30T11:39:10Z</time>
      </trkpt>
      <trkpt lat="43.568382" lon="4.978665">
        <ele>42.89008</ele>
        <time>2021-06-30T11:39:11Z</time>
      </trkpt>
      <trkpt lat="43.568214" lon="4.978468">
        <ele>42.97668</ele>
        <time>2021-06-30T11:39:12Z</time>
      </trkpt>
      <trkpt lat="43.568047" lon="4.978272">
        <ele>43.69275</ele>
        <time>2021-06-30T11:39:13Z</time>
      </trkpt>
      <trkpt lat="43.567863" lon="4.978059">
        <ele>43.65326</ele>
        <time>2021-06-30T11:39:14Z</time>
      </trkpt>
      <trkpt lat="43.567677" lon="4.977833">
        <ele>43.26416</ele>
        <time>2021-06-30T11:39:15Z</time>
      </trkpt>
      <trkpt lat="43.567497" lon="4.977619">
        <ele>43.17993</ele>
        <time>2021-06-30T11:39:16Z</time>
      </trkpt>
      <trkpt lat="43.567307" lon="4.977393">
        <ele>42.38013</ele>
        <time>2021-06-30T11:39:17Z</time>
      </trkpt>
      <trkpt lat="43.567131" lon="4.977183">
        <ele>42.56555</ele>
        <time>2021-06-30T11:39:18Z</time>
      </trkpt>
      <trkpt lat="43.566952" lon="4.976969">
        <ele>42.43024</ele>
        <time>2021-06-30T11:39:19Z</time>
      </trkpt>
      <trkpt lat="43.566780" lon="4.976762">
        <ele>41.55145</ele>
        <time>2021-06-30T11:39:20Z</time>
      </trkpt>
      <trkpt lat="43.566608" lon="4.976555">
        <ele>40.94250</ele>
        <time>2021-06-30T11:39:21Z</time>
      </trkpt>
      <trkpt lat="43.566425" lon="4.976338">
        <ele>41.09229</ele>
        <time>2021-06-30T11:39:22Z</time>
      </trkpt>
      <trkpt lat="43.566231" lon="4.976107">
        <ele>40.70361</ele>
        <time>2021-06-30T11:39:23Z</time>
      </trkpt>
      <trkpt lat="43.566044" lon="4.975880">
        <ele>40.58270</ele>
        <time>2021-06-30T11:39:24Z</time>
      </trkpt>
      <trkpt lat="43.566044" lon="4.975880">
        <ele>39.84015</ele>
        <time>2021-06-30T11:39:25Z</time>
      </trkpt>
      <trkpt lat="43.565857" lon="4.975660">
        <ele>40.32019</ele>
        <time>2021-06-30T11:39:26Z</time>
      </trkpt>
      <trkpt lat="43.565681" lon="4.975450">
        <ele>40.49738</ele>
        <time>2021-06-30T11:39:27Z</time>
      </trkpt>
      <trkpt lat="43.565491" lon="4.975224">
        <ele>40.55402</ele>
        <time>2021-06-30T11:39:28Z</time>
      </trkpt>
      <trkpt lat="43.565308" lon="4.975011">
        <ele>40.25433</ele>
        <time>2021-06-30T11:39:29Z</time>
      </trkpt>
      <trkpt lat="43.565128" lon="4.974800">
        <ele>40.18549</ele>
        <time>2021-06-30T11:39:30Z</time>
      </trkpt>
      <trkpt lat="43.564945" lon="4.974580">
        <ele>40.88251</ele>
        <time>2021-06-30T11:39:31Z</time>
      </trkpt>
      <trkpt lat="43.564770" lon="4.974370">
        <ele>41.36029</ele>
        <time>2021-06-30T11:39:32Z</time>
      </trkpt>
      <trkpt lat="43.564594" lon="4.974163">
        <ele>41.39667</ele>
        <time>2021-06-30T11:39:33Z</time>
      </trkpt>
      <trkpt lat="43.564430" lon="4.973967">
        <ele>41.96515</ele>
        <time>2021-06-30T11:39:34Z</time>
      </trkpt>
      <trkpt lat="43.564281" lon="4.973792">
        <ele>41.52728</ele>
        <time>2021-06-30T11:39:35Z</time>
      </trkpt>
      <trkpt lat="43.564125" lon="4.973604">
        <ele>41.57050</ele>
        <time>2021-06-30T11:39:36Z</time>
      </trkpt>
      <trkpt lat="43.563946" lon="4.973391">
        <ele>41.32184</ele>
        <time>2021-06-30T11:39:37Z</time>
      </trkpt>
      <trkpt lat="43.563774" lon="4.973185">
        <ele>40.96844</ele>
        <time>2021-06-30T11:39:38Z</time>
      </trkpt>
      <trkpt lat="43.563610" lon="4.972991">
        <ele>41.04791</ele>
        <time>2021-06-30T11:39:39Z</time>
      </trkpt>
      <trkpt lat="43.563457" lon="4.972807">
        <ele>40.39209</ele>
        <time>2021-06-30T11:39:40Z</time>
      </trkpt>
      <trkpt lat="43.563293" lon="4.972610">
        <ele>40.52106</ele>
        <time>2021-06-30T11:39:41Z</time>
      </trkpt>
      <trkpt lat="43.563129" lon="4.972411">
        <ele>40.29834</ele>
        <time>2021-06-30T11:39:42Z</time>
      </trkpt>
      <trkpt lat="43.562973" lon="4.972216">
        <ele>40.21490</ele>
        <time>2021-06-30T11:39:43Z</time>
      </trkpt>
      <trkpt lat="43.562832" lon="4.972043">
        <ele>40.47430</ele>
        <time>2021-06-30T11:39:44Z</time>
      </trkpt>
      <trkpt lat="43.562687" lon="4.971866">
        <ele>40.40472</ele>
        <time>2021-06-30T11:39:45Z</time>
      </trkpt>
      <trkpt lat="43.562546" lon="4.971682">
        <ele>40.89014</ele>
        <time>2021-06-30T11:39:46Z</time>
      </trkpt>
      <trkpt lat="43.562397" lon="4.971485">
        <ele>41.21045</ele>
        <time>2021-06-30T11:39:47Z</time>
      </trkpt>
      <trkpt lat="43.562248" lon="4.971289">
        <ele>41.54352</ele>
        <time>2021-06-30T11:39:48Z</time>
      </trkpt>
      <trkpt lat="43.562103" lon="4.971095">
        <ele>41.59680</ele>
        <time>2021-06-30T11:39:49Z</time>
      </trkpt>
      <trkpt lat="43.561943" lon="4.970875">
        <ele>41.25732</ele>
        <time>2021-06-30T11:39:50Z</time>
      </trkpt>
      <trkpt lat="43.561802" lon="4.970666">
        <ele>40.45270</ele>
        <time>2021-06-30T11:39:51Z</time>
      </trkpt>
      <trkpt lat="43.561661" lon="4.970460">
        <ele>40.15149</ele>
        <time>2021-06-30T11:39:52Z</time>
      </trkpt>
      <trkpt lat="43.561661" lon="4.970460">
        <ele>40.69696</ele>
        <time>2021-06-30T11:39:53Z</time>
      </trkpt>
      <trkpt lat="43.561527" lon="4.970261">
        <ele>40.10651</ele>
        <time>2021-06-30T11:39:54Z</time>
      </trkpt>
      <trkpt lat="43.561401" lon="4.970078">
        <ele>40.08936</ele>
        <time>2021-06-30T11:39:55Z</time>
      </trkpt>
      <trkpt lat="43.561287" lon="4.969909">
        <ele>40.08691</ele>
        <time>2021-06-30T11:39:56Z</time>
      </trkpt>
      <trkpt lat="43.561165" lon="4.969722">
        <ele>40.51123</ele>
        <time>2021-06-30T11:39:57Z</time>
      </trkpt>
      <trkpt lat="43.561043" lon="4.969530">
        <ele>39.98901</ele>
        <time>2021-06-30T11:39:58Z</time>
      </trkpt>
      <trkpt lat="43.560905" lon="4.969313">
        <ele>38.92120</ele>
        <time>2021-06-30T11:39:59Z</time>
      </trkpt>
      <trkpt lat="43.560780" lon="4.969112">
        <ele>39.21655</ele>
        <time>2021-06-30T11:40:00Z</time>
      </trkpt>
      <trkpt lat="43.560658" lon="4.968922">
        <ele>39.18115</ele>
        <time>2021-06-30T11:40:01Z</time>
      </trkpt>
      <trkpt lat="43.560535" lon="4.968728">
        <ele>38.98376</ele>
        <time>2021-06-30T11:40:02Z</time>
      </trkpt>
      <trkpt lat="43.560398" lon="4.968514">
        <ele>38.21454</ele>
        <time>2021-06-30T11:40:03Z</time>
      </trkpt>
      <trkpt lat="43.560276" lon="4.968320">
        <ele>38.63910</ele>
        <time>2021-06-30T11:40:04Z</time>
      </trkpt>
      <trkpt lat="43.560162" lon="4.968138">
        <ele>39.37396</ele>
        <time>2021-06-30T11:40:05Z</time>
      </trkpt>
      <trkpt lat="43.560032" lon="4.967936">
        <ele>38.34174</ele>
        <time>2021-06-30T11:40:06Z</time>
      </trkpt>
      <trkpt lat="43.559895" lon="4.967721">
        <ele>38.46014</ele>
        <time>2021-06-30T11:40:07Z</time>
      </trkpt>
      <trkpt lat="43.559765" lon="4.967515">
        <ele>38.77130</ele>
        <time>2021-06-30T11:40:08Z</time>
      </trkpt>
      <trkpt lat="43.559631" lon="4.967308">
        <ele>38.77673</ele>
        <time>2021-06-30T11:40:09Z</time>
      </trkpt>
      <trkpt lat="43.559505" lon="4.967105">
        <ele>39.57526</ele>
        <time>2021-06-30T11:40:10Z</time>
      </trkpt>
      <trkpt lat="43.559376" lon="4.966904">
        <ele>38.98138</ele>
        <time>2021-06-30T11:40:11Z</time>
      </trkpt>
      <trkpt lat="43.559254" lon="4.966713">
        <ele>39.03510</ele>
        <time>2021-06-30T11:40:12Z</time>
      </trkpt>
      <trkpt lat="43.559132" lon="4.966519">
        <ele>39.28931</ele>
        <time>2021-06-30T11:40:13Z</time>
      </trkpt>
      <trkpt lat="43.559013" lon="4.966332">
        <ele>38.45544</ele>
        <time>2021-06-30T11:40:14Z</time>
      </trkpt>
      <trkpt lat="43.558903" lon="4.966156">
        <ele>38.33716</ele>
        <time>2021-06-30T11:40:15Z</time>
      </trkpt>
      <trkpt lat="43.558788" lon="4.965981">
        <ele>38.57593</ele>
        <time>2021-06-30T11:40:16Z</time>
      </trkpt>
      <trkpt lat="43.558670" lon="4.965790">
        <ele>38.36597</ele>
        <time>2021-06-30T11:40:17Z</time>
      </trkpt>
      <trkpt lat="43.558548" lon="4.965598">
        <ele>38.75195</ele>
        <time>2021-06-30T11:40:18Z</time>
      </trkpt>
      <trkpt lat="43.558422" lon="4.965400">
        <ele>38.30951</ele>
        <time>2021-06-30T11:40:19Z</time>
      </trkpt>
      <trkpt lat="43.558292" lon="4.965199">
        <ele>38.32666</ele>
        <time>2021-06-30T11:40:20Z</time>
      </trkpt>
      <trkpt lat="43.558163" lon="4.965017">
        <ele>37.83130</ele>
        <time>2021-06-30T11:40:21Z</time>
      </trkpt>
      <trkpt lat="43.558029" lon="4.964827">
        <ele>37.70837</ele>
        <time>2021-06-30T11:40:22Z</time>
      </trkpt>
      <trkpt lat="43.557899" lon="4.964637">
        <ele>37.74164</ele>
        <time>2021-06-30T11:40:23Z</time>
      </trkpt>
      <trkpt lat="43.557774" lon="4.964453">
        <ele>38.21448</ele>
        <time>2021-06-30T11:40:24Z</time>
      </trkpt>
      <trkpt lat="43.557774" lon="4.964453">
        <ele>38.25140</ele>
        <time>2021-06-30T11:40:25Z</time>
      </trkpt>
      <trkpt lat="43.557640" lon="4.964262">
        <ele>38.32654</ele>
        <time>2021-06-30T11:40:26Z</time>
      </trkpt>
      <trkpt lat="43.557518" lon="4.964084">
        <ele>38.20740</ele>
        <time>2021-06-30T11:40:27Z</time>
      </trkpt>
      <trkpt lat="43.557392" lon="4.963901">
        <ele>38.14136</ele>
        <time>2021-06-30T11:40:28Z</time>
      </trkpt>
      <trkpt lat="43.557259" lon="4.963703">
        <ele>36.85931</ele>
        <time>2021-06-30T11:40:29Z</time>
      </trkpt>
      <trkpt lat="43.557125" lon="4.963510">
        <ele>36.61249</ele>
        <time>2021-06-30T11:40:30Z</time>
      </trkpt>
      <trkpt lat="43.556992" lon="4.963327">
        <ele>37.45044</ele>
        <time>2021-06-30T11:40:31Z</time>
      </trkpt>
      <trkpt lat="43.556854" lon="4.963158">
        <ele>36.97357</ele>
        <time>2021-06-30T11:40:32Z</time>
      </trkpt>
      <trkpt lat="43.556709" lon="4.962983">
        <ele>37.45020</ele>
        <time>2021-06-30T11:40:33Z</time>
      </trkpt>
      <trkpt lat="43.556568" lon="4.962809">
        <ele>37.12286</ele>
        <time>2021-06-30T11:40:34Z</time>
      </trkpt>
      <trkpt lat="43.556423" lon="4.962631">
        <ele>37.04443</ele>
        <time>2021-06-30T11:40:35Z</time>
      </trkpt>
      <trkpt lat="43.556286" lon="4.962463">
        <ele>37.34631</ele>
        <time>2021-06-30T11:40:36Z</time>
      </trkpt>
      <trkpt lat="43.556133" lon="4.962275">
        <ele>37.58618</ele>
        <time>2021-06-30T11:40:37Z</time>
      </trkpt>
      <trkpt lat="43.555988" lon="4.962107">
        <ele>37.19928</ele>
        <time>2021-06-30T11:40:38Z</time>
      </trkpt>
      <trkpt lat="43.555843" lon="4.961942">
        <ele>37.26703</ele>
        <time>2021-06-30T11:40:39Z</time>
      </trkpt>
      <trkpt lat="43.555695" lon="4.961776">
        <ele>37.38232</ele>
        <time>2021-06-30T11:40:40Z</time>
      </trkpt>
      <trkpt lat="43.555542" lon="4.961607">
        <ele>37.35449</ele>
        <time>2021-06-30T11:40:41Z</time>
      </trkpt>
      <trkpt lat="43.555386" lon="4.961431">
        <ele>36.52496</ele>
        <time>2021-06-30T11:40:42Z</time>
      </trkpt>
      <trkpt lat="43.555237" lon="4.961269">
        <ele>36.79059</ele>
        <time>2021-06-30T11:40:43Z</time>
      </trkpt>
      <trkpt lat="43.555092" lon="4.961105">
        <ele>37.11542</ele>
        <time>2021-06-30T11:40:44Z</time>
      </trkpt>
      <trkpt lat="43.554939" lon="4.960944">
        <ele>37.52130</ele>
        <time>2021-06-30T11:40:45Z</time>
      </trkpt>
      <trkpt lat="43.554783" lon="4.960788">
        <ele>37.75623</ele>
        <time>2021-06-30T11:40:46Z</time>
      </trkpt>
      <trkpt lat="43.554630" lon="4.960635">
        <ele>37.36835</ele>
        <time>2021-06-30T11:40:47Z</time>
      </trkpt>
      <trkpt lat="43.554482" lon="4.960487">
        <ele>36.82367</ele>
        <time>2021-06-30T11:40:48Z</time>
      </trkpt>
      <trkpt lat="43.554325" lon="4.960333">
        <ele>36.85968</ele>
        <time>2021-06-30T11:40:49Z</time>
      </trkpt>
      <trkpt lat="43.554165" lon="4.960184">
        <ele>37.34686</ele>
        <time>2021-06-30T11:40:50Z</time>
      </trkpt>
      <trkpt lat="43.554001" lon="4.960033">
        <ele>37.24646</ele>
        <time>2021-06-30T11:40:51Z</time>
      </trkpt>
      <trkpt lat="43.553837" lon="4.959885">
        <ele>37.90222</ele>
        <time>2021-06-30T11:40:52Z</time>
      </trkpt>
      <trkpt lat="43.553680" lon="4.959741">
        <ele>37.43683</ele>
        <time>2021-06-30T11:40:53Z</time>
      </trkpt>
      <trkpt lat="43.553520" lon="4.959598">
        <ele>37.09399</ele>
        <time>2021-06-30T11:40:54Z</time>
      </trkpt>
      <trkpt lat="43.553352" lon="4.959458">
        <ele>37.03888</ele>
        <time>2021-06-30T11:40:55Z</time>
      </trkpt>
      <trkpt lat="43.553177" lon="4.959313">
        <ele>35.44434</ele>
        <time>2021-06-30T11:40:56Z</time>
      </trkpt>
      <trkpt lat="43.553013" lon="4.959185">
        <ele>35.40137</ele>
        <time>2021-06-30T11:40:57Z</time>
      </trkpt>
      <trkpt lat="43.553013" lon="4.959185">
        <ele>36.00781</ele>
        <time>2021-06-30T11:40:58Z</time>
      </trkpt>
      <trkpt lat="43.552677" lon="4.958919">
        <ele>35.77246</ele>
        <time>2021-06-30T11:40:59Z</time>
      </trkpt>
      <trkpt lat="43.552677" lon="4.958919">
        <ele>36.18945</ele>
        <time>2021-06-30T11:41:00Z</time>
      </trkpt>
      <trkpt lat="43.552517" lon="4.958794">
        <ele>35.96948</ele>
        <time>2021-06-30T11:41:01Z</time>
      </trkpt>
      <trkpt lat="43.552361" lon="4.958669">
        <ele>34.74042</ele>
        <time>2021-06-30T11:41:02Z</time>
      </trkpt>
      <trkpt lat="43.552177" lon="4.958528">
        <ele>33.30225</ele>
        <time>2021-06-30T11:41:03Z</time>
      </trkpt>
      <trkpt lat="43.552006" lon="4.958404">
        <ele>32.12939</ele>
        <time>2021-06-30T11:41:04Z</time>
      </trkpt>
      <trkpt lat="43.551842" lon="4.958286">
        <ele>31.24298</ele>
        <time>2021-06-30T11:41:05Z</time>
      </trkpt>
      <trkpt lat="43.551662" lon="4.958157">
        <ele>31.09961</ele>
        <time>2021-06-30T11:41:06Z</time>
      </trkpt>
      <trkpt lat="43.551498" lon="4.958043">
        <ele>30.05798</ele>
        <time>2021-06-30T11:41:07Z</time>
      </trkpt>
      <trkpt lat="43.551327" lon="4.957935">
        <ele>30.31036</ele>
        <time>2021-06-30T11:41:08Z</time>
      </trkpt>
      <trkpt lat="43.551147" lon="4.957819">
        <ele>30.19446</ele>
        <time>2021-06-30T11:41:09Z</time>
      </trkpt>
      <trkpt lat="43.550968" lon="4.957703">
        <ele>29.37769</ele>
        <time>2021-06-30T11:41:10Z</time>
      </trkpt>
      <trkpt lat="43.550789" lon="4.957590">
        <ele>29.55145</ele>
        <time>2021-06-30T11:41:11Z</time>
      </trkpt>
      <trkpt lat="43.550621" lon="4.957493">
        <ele>29.13574</ele>
        <time>2021-06-30T11:41:12Z</time>
      </trkpt>
      <trkpt lat="43.550442" lon="4.957392">
        <ele>29.16681</ele>
        <time>2021-06-30T11:41:13Z</time>
      </trkpt>
      <trkpt lat="43.550259" lon="4.957288">
        <ele>29.20459</ele>
        <time>2021-06-30T11:41:14Z</time>
      </trkpt>
      <trkpt lat="43.550060" lon="4.957176">
        <ele>28.55432</ele>
        <time>2021-06-30T11:41:15Z</time>
      </trkpt>
      <trkpt lat="43.549850" lon="4.957057">
        <ele>28.09723</ele>
        <time>2021-06-30T11:41:16Z</time>
      </trkpt>
      <trkpt lat="43.549637" lon="4.956940">
        <ele>28.31708</ele>
        <time>2021-06-30T11:41:17Z</time>
      </trkpt>
      <trkpt lat="43.549423" lon="4.956826">
        <ele>27.93976</ele>
        <time>2021-06-30T11:41:18Z</time>
      </trkpt>
      <trkpt lat="43.549210" lon="4.956712">
        <ele>28.52576</ele>
        <time>2021-06-30T11:41:19Z</time>
      </trkpt>
      <trkpt lat="43.548992" lon="4.956615">
        <ele>28.88470</ele>
        <time>2021-06-30T11:41:20Z</time>
      </trkpt>
      <trkpt lat="43.548779" lon="4.956522">
        <ele>28.21637</ele>
        <time>2021-06-30T11:41:21Z</time>
      </trkpt>
      <trkpt lat="43.548573" lon="4.956431">
        <ele>28.35992</ele>
        <time>2021-06-30T11:41:22Z</time>
      </trkpt>
      <trkpt lat="43.548355" lon="4.956338">
        <ele>28.67200</ele>
        <time>2021-06-30T11:41:23Z</time>
      </trkpt>
      <trkpt lat="43.548145" lon="4.956248">
        <ele>29.35815</ele>
        <time>2021-06-30T11:41:24Z</time>
      </trkpt>
      <trkpt lat="43.547939" lon="4.956165">
        <ele>30.03674</ele>
        <time>2021-06-30T11:41:25Z</time>
      </trkpt>
      <trkpt lat="43.547729" lon="4.956080">
        <ele>30.26752</ele>
        <time>2021-06-30T11:41:26Z</time>
      </trkpt>
      <trkpt lat="43.547527" lon="4.956003">
        <ele>30.68933</ele>
        <time>2021-06-30T11:41:27Z</time>
      </trkpt>
      <trkpt lat="43.547314" lon="4.955935">
        <ele>30.44641</ele>
        <time>2021-06-30T11:41:28Z</time>
      </trkpt>
      <trkpt lat="43.547104" lon="4.955867">
        <ele>30.60217</ele>
        <time>2021-06-30T11:41:29Z</time>
      </trkpt>
      <trkpt lat="43.546898" lon="4.955801">
        <ele>30.61102</ele>
        <time>2021-06-30T11:41:30Z</time>
      </trkpt>
      <trkpt lat="43.546696" lon="4.955736">
        <ele>31.09375</ele>
        <time>2021-06-30T11:41:31Z</time>
      </trkpt>
      <trkpt lat="43.546696" lon="4.955736">
        <ele>31.29108</ele>
        <time>2021-06-30T11:41:32Z</time>
      </trkpt>
      <trkpt lat="43.546474" lon="4.955669">
        <ele>31.17346</ele>
        <time>2021-06-30T11:41:33Z</time>
      </trkpt>
      <trkpt lat="43.546261" lon="4.955620">
        <ele>30.62012</ele>
        <time>2021-06-30T11:41:34Z</time>
      </trkpt>
      <trkpt lat="43.546047" lon="4.955573">
        <ele>31.28040</ele>
        <time>2021-06-30T11:41:35Z</time>
      </trkpt>
      <trkpt lat="43.545815" lon="4.955524">
        <ele>31.23663</ele>
        <time>2021-06-30T11:41:36Z</time>
      </trkpt>
      <trkpt lat="43.545578" lon="4.955496">
        <ele>31.51392</ele>
        <time>2021-06-30T11:41:37Z</time>
      </trkpt>
      <trkpt lat="43.545357" lon="4.955469">
        <ele>31.73724</ele>
        <time>2021-06-30T11:41:38Z</time>
      </trkpt>
      <trkpt lat="43.545139" lon="4.955443">
        <ele>31.63196</ele>
        <time>2021-06-30T11:41:39Z</time>
      </trkpt>
      <trkpt lat="43.544930" lon="4.955437">
        <ele>32.14636</ele>
        <time>2021-06-30T11:41:40Z</time>
      </trkpt>
      <trkpt lat="43.544724" lon="4.955437">
        <ele>32.11578</ele>
        <time>2021-06-30T11:41:41Z</time>
      </trkpt>
      <trkpt lat="43.544502" lon="4.955437">
        <ele>31.91644</ele>
        <time>2021-06-30T11:41:42Z</time>
      </trkpt>
      <trkpt lat="43.544304" lon="4.955448">
        <ele>31.98676</ele>
        <time>2021-06-30T11:41:43Z</time>
      </trkpt>
      <trkpt lat="43.544106" lon="4.955467">
        <ele>31.74780</ele>
        <time>2021-06-30T11:41:44Z</time>
      </trkpt>
      <trkpt lat="43.543903" lon="4.955490">
        <ele>31.96167</ele>
        <time>2021-06-30T11:41:45Z</time>
      </trkpt>
      <trkpt lat="43.543724" lon="4.955523">
        <ele>32.12494</ele>
        <time>2021-06-30T11:41:46Z</time>
      </trkpt>
      <trkpt lat="43.543530" lon="4.955561">
        <ele>32.65417</ele>
        <time>2021-06-30T11:41:47Z</time>
      </trkpt>
      <trkpt lat="43.543346" lon="4.955620">
        <ele>32.67786</ele>
        <time>2021-06-30T11:41:48Z</time>
      </trkpt>
      <trkpt lat="43.543159" lon="4.955680">
        <ele>32.98352</ele>
        <time>2021-06-30T11:41:49Z</time>
      </trkpt>
      <trkpt lat="43.542980" lon="4.955738">
        <ele>32.32269</ele>
        <time>2021-06-30T11:41:50Z</time>
      </trkpt>
      <trkpt lat="43.542801" lon="4.955795">
        <ele>31.84381</ele>
        <time>2021-06-30T11:41:51Z</time>
      </trkpt>
      <trkpt lat="43.542614" lon="4.955855">
        <ele>31.63910</ele>
        <time>2021-06-30T11:41:52Z</time>
      </trkpt>
      <trkpt lat="43.542431" lon="4.955913">
        <ele>30.80536</ele>
        <time>2021-06-30T11:41:53Z</time>
      </trkpt>
      <trkpt lat="43.542248" lon="4.955972">
        <ele>30.81348</ele>
        <time>2021-06-30T11:41:54Z</time>
      </trkpt>
      <trkpt lat="43.542065" lon="4.956031">
        <ele>30.82288</ele>
        <time>2021-06-30T11:41:55Z</time>
      </trkpt>
      <trkpt lat="43.541882" lon="4.956089">
        <ele>30.69788</ele>
        <time>2021-06-30T11:41:56Z</time>
      </trkpt>
      <trkpt lat="43.541691" lon="4.956151">
        <ele>30.59967</ele>
        <time>2021-06-30T11:41:57Z</time>
      </trkpt>
      <trkpt lat="43.541492" lon="4.956214">
        <ele>29.95300</ele>
        <time>2021-06-30T11:41:58Z</time>
      </trkpt>
      <trkpt lat="43.541306" lon="4.956274">
        <ele>29.95978</ele>
        <time>2021-06-30T11:41:59Z</time>
      </trkpt>
      <trkpt lat="43.541115" lon="4.956335">
        <ele>30.11096</ele>
        <time>2021-06-30T11:42:00Z</time>
      </trkpt>
      <trkpt lat="43.540936" lon="4.956394">
        <ele>29.45209</ele>
        <time>2021-06-30T11:42:01Z</time>
      </trkpt>
      <trkpt lat="43.540737" lon="4.956459">
        <ele>29.74451</ele>
        <time>2021-06-30T11:42:02Z</time>
      </trkpt>
      <trkpt lat="43.540546" lon="4.956521">
        <ele>28.71472</ele>
        <time>2021-06-30T11:42:03Z</time>
      </trkpt>
      <trkpt lat="43.540356" lon="4.956584">
        <ele>28.18848</ele>
        <time>2021-06-30T11:42:04Z</time>
      </trkpt>
      <trkpt lat="43.540356" lon="4.956584">
        <ele>28.27411</ele>
        <time>2021-06-30T11:42:05Z</time>
      </trkpt>
      <trkpt lat="43.540169" lon="4.956645">
        <ele>27.27734</ele>
        <time>2021-06-30T11:42:06Z</time>
      </trkpt>
      <trkpt lat="43.539993" lon="4.956703">
        <ele>26.84894</ele>
        <time>2021-06-30T11:42:07Z</time>
      </trkpt>
      <trkpt lat="43.539810" lon="4.956763">
        <ele>26.90131</ele>
        <time>2021-06-30T11:42:08Z</time>
      </trkpt>
      <trkpt lat="43.539623" lon="4.956823">
        <ele>27.51343</ele>
        <time>2021-06-30T11:42:09Z</time>
      </trkpt>
      <trkpt lat="43.539448" lon="4.956882">
        <ele>27.30719</ele>
        <time>2021-06-30T11:42:10Z</time>
      </trkpt>
      <trkpt lat="43.539265" lon="4.956941">
        <ele>27.38367</ele>
        <time>2021-06-30T11:42:11Z</time>
      </trkpt>
      <trkpt lat="43.539082" lon="4.957001">
        <ele>27.11169</ele>
        <time>2021-06-30T11:42:12Z</time>
      </trkpt>
      <trkpt lat="43.538910" lon="4.957058">
        <ele>27.49426</ele>
        <time>2021-06-30T11:42:13Z</time>
      </trkpt>
      <trkpt lat="43.538715" lon="4.957122">
        <ele>27.73346</ele>
        <time>2021-06-30T11:42:14Z</time>
      </trkpt>
      <trkpt lat="43.538521" lon="4.957191">
        <ele>28.28186</ele>
        <time>2021-06-30T11:42:15Z</time>
      </trkpt>
      <trkpt lat="43.538319" lon="4.957261">
        <ele>27.61780</ele>
        <time>2021-06-30T11:42:16Z</time>
      </trkpt>
      <trkpt lat="43.538128" lon="4.957327">
        <ele>28.03113</ele>
        <time>2021-06-30T11:42:17Z</time>
      </trkpt>
      <trkpt lat="43.537933" lon="4.957395">
        <ele>27.87909</ele>
        <time>2021-06-30T11:42:18Z</time>
      </trkpt>
      <trkpt lat="43.537739" lon="4.957464">
        <ele>28.39093</ele>
        <time>2021-06-30T11:42:19Z</time>
      </trkpt>
      <trkpt lat="43.537544" lon="4.957535">
        <ele>28.97656</ele>
        <time>2021-06-30T11:42:20Z</time>
      </trkpt>
      <trkpt lat="43.537346" lon="4.957609">
        <ele>29.46155</ele>
        <time>2021-06-30T11:42:21Z</time>
      </trkpt>
      <trkpt lat="43.537151" lon="4.957680">
        <ele>29.18665</ele>
        <time>2021-06-30T11:42:22Z</time>
      </trkpt>
      <trkpt lat="43.536961" lon="4.957751">
        <ele>29.46478</ele>
        <time>2021-06-30T11:42:23Z</time>
      </trkpt>
      <trkpt lat="43.536770" lon="4.957821">
        <ele>28.49487</ele>
        <time>2021-06-30T11:42:24Z</time>
      </trkpt>
      <trkpt lat="43.536575" lon="4.957892">
        <ele>28.68243</ele>
        <time>2021-06-30T11:42:25Z</time>
      </trkpt>
      <trkpt lat="43.536388" lon="4.957960">
        <ele>28.96753</ele>
        <time>2021-06-30T11:42:26Z</time>
      </trkpt>
      <trkpt lat="43.536201" lon="4.958030">
        <ele>29.56421</ele>
        <time>2021-06-30T11:42:27Z</time>
      </trkpt>
      <trkpt lat="43.536015" lon="4.958098">
        <ele>29.58533</ele>
        <time>2021-06-30T11:42:28Z</time>
      </trkpt>
      <trkpt lat="43.535824" lon="4.958169">
        <ele>29.30188</ele>
        <time>2021-06-30T11:42:29Z</time>
      </trkpt>
      <trkpt lat="43.535641" lon="4.958236">
        <ele>29.22437</ele>
        <time>2021-06-30T11:42:30Z</time>
      </trkpt>
      <trkpt lat="43.535450" lon="4.958298">
        <ele>29.33887</ele>
        <time>2021-06-30T11:42:31Z</time>
      </trkpt>
      <trkpt lat="43.535263" lon="4.958368">
        <ele>29.72693</ele>
        <time>2021-06-30T11:42:32Z</time>
      </trkpt>
      <trkpt lat="43.535103" lon="4.958429">
        <ele>29.31238</ele>
        <time>2021-06-30T11:42:33Z</time>
      </trkpt>
      <trkpt lat="43.534927" lon="4.958493">
        <ele>29.25562</ele>
        <time>2021-06-30T11:42:34Z</time>
      </trkpt>
      <trkpt lat="43.534927" lon="4.958493">
        <ele>28.96729</ele>
        <time>2021-06-30T11:42:35Z</time>
      </trkpt>
      <trkpt lat="43.534733" lon="4.958567">
        <ele>29.20911</ele>
        <time>2021-06-30T11:42:36Z</time>
      </trkpt>
      <trkpt lat="43.534557" lon="4.958633">
        <ele>28.89886</ele>
        <time>2021-06-30T11:42:37Z</time>
      </trkpt>
      <trkpt lat="43.534386" lon="4.958697">
        <ele>29.03766</ele>
        <time>2021-06-30T11:42:38Z</time>
      </trkpt>
      <trkpt lat="43.534229" lon="4.958757">
        <ele>29.22113</ele>
        <time>2021-06-30T11:42:39Z</time>
      </trkpt>
      <trkpt lat="43.534084" lon="4.958812">
        <ele>28.78790</ele>
        <time>2021-06-30T11:42:40Z</time>
      </trkpt>
      <trkpt lat="43.533939" lon="4.958867">
        <ele>28.17261</ele>
        <time>2021-06-30T11:42:41Z</time>
      </trkpt>
      <trkpt lat="43.533810" lon="4.958916">
        <ele>28.72089</ele>
        <time>2021-06-30T11:42:42Z</time>
      </trkpt>
      <trkpt lat="43.533707" lon="4.958954">
        <ele>28.78741</ele>
        <time>2021-06-30T11:42:43Z</time>
      </trkpt>
      <trkpt lat="43.533596" lon="4.958996">
        <ele>29.01862</ele>
        <time>2021-06-30T11:42:44Z</time>
      </trkpt>
      <trkpt lat="43.533459" lon="4.959047">
        <ele>28.37494</ele>
        <time>2021-06-30T11:42:45Z</time>
      </trkpt>
      <trkpt lat="43.533314" lon="4.959102">
        <ele>27.70972</ele>
        <time>2021-06-30T11:42:46Z</time>
      </trkpt>
      <trkpt lat="43.533176" lon="4.959153">
        <ele>27.56213</ele>
        <time>2021-06-30T11:42:47Z</time>
      </trkpt>
      <trkpt lat="43.533039" lon="4.959205">
        <ele>27.65143</ele>
        <time>2021-06-30T11:42:48Z</time>
      </trkpt>
      <trkpt lat="43.532902" lon="4.959257">
        <ele>27.45850</ele>
        <time>2021-06-30T11:42:49Z</time>
      </trkpt>
      <trkpt lat="43.532761" lon="4.959310">
        <ele>27.59930</ele>
        <time>2021-06-30T11:42:50Z</time>
      </trkpt>
      <trkpt lat="43.532627" lon="4.959361">
        <ele>27.54187</ele>
        <time>2021-06-30T11:42:51Z</time>
      </trkpt>
      <trkpt lat="43.532513" lon="4.959404">
        <ele>27.18372</ele>
        <time>2021-06-30T11:42:52Z</time>
      </trkpt>
      <trkpt lat="43.532398" lon="4.959446">
        <ele>26.99213</ele>
        <time>2021-06-30T11:42:53Z</time>
      </trkpt>
      <trkpt lat="43.532284" lon="4.959490">
        <ele>26.90900</ele>
        <time>2021-06-30T11:42:54Z</time>
      </trkpt>
      <trkpt lat="43.532166" lon="4.959534">
        <ele>24.86011</ele>
        <time>2021-06-30T11:42:55Z</time>
      </trkpt>
      <trkpt lat="43.532070" lon="4.959571">
        <ele>25.10559</ele>
        <time>2021-06-30T11:42:56Z</time>
      </trkpt>
      <trkpt lat="43.531971" lon="4.959608">
        <ele>25.59216</ele>
        <time>2021-06-30T11:42:57Z</time>
      </trkpt>
      <trkpt lat="43.531879" lon="4.959641">
        <ele>25.74438</ele>
        <time>2021-06-30T11:42:58Z</time>
      </trkpt>
      <trkpt lat="43.531784" lon="4.959676">
        <ele>25.36957</ele>
        <time>2021-06-30T11:42:59Z</time>
      </trkpt>
      <trkpt lat="43.531685" lon="4.959711">
        <ele>25.17792</ele>
        <time>2021-06-30T11:43:00Z</time>
      </trkpt>
      <trkpt lat="43.531590" lon="4.959746">
        <ele>25.04749</ele>
        <time>2021-06-30T11:43:01Z</time>
      </trkpt>
      <trkpt lat="43.531506" lon="4.959776">
        <ele>25.09619</ele>
        <time>2021-06-30T11:43:02Z</time>
      </trkpt>
      <trkpt lat="43.531433" lon="4.959803">
        <ele>25.76135</ele>
        <time>2021-06-30T11:43:03Z</time>
      </trkpt>
      <trkpt lat="43.531357" lon="4.959830">
        <ele>26.06396</ele>
        <time>2021-06-30T11:43:04Z</time>
      </trkpt>
      <trkpt lat="43.531357" lon="4.959830">
        <ele>25.72888</ele>
        <time>2021-06-30T11:43:05Z</time>
      </trkpt>
      <trkpt lat="43.531227" lon="4.959876">
        <ele>26.17926</ele>
        <time>2021-06-30T11:43:06Z</time>
      </trkpt>
      <trkpt lat="43.531227" lon="4.959876">
        <ele>26.08521</ele>
        <time>2021-06-30T11:43:07Z</time>
      </trkpt>
      <trkpt lat="43.531174" lon="4.959897">
        <ele>25.19678</ele>
        <time>2021-06-30T11:43:08Z</time>
      </trkpt>
      <trkpt lat="43.531136" lon="4.959911">
        <ele>24.31702</ele>
        <time>2021-06-30T11:43:09Z</time>
      </trkpt>
      <trkpt lat="43.531109" lon="4.959920">
        <ele>24.71155</ele>
        <time>2021-06-30T11:43:10Z</time>
      </trkpt>
      <trkpt lat="43.531090" lon="4.959927">
        <ele>24.63104</ele>
        <time>2021-06-30T11:43:11Z</time>
      </trkpt>
      <trkpt lat="43.531067" lon="4.959936">
        <ele>25.41461</ele>
        <time>2021-06-30T11:43:12Z</time>
      </trkpt>
      <trkpt lat="43.531052" lon="4.959941">
        <ele>25.71045</ele>
        <time>2021-06-30T11:43:13Z</time>
      </trkpt>
      <trkpt lat="43.531036" lon="4.959946">
        <ele>25.64752</ele>
        <time>2021-06-30T11:43:14Z</time>
      </trkpt>
      <trkpt lat="43.531017" lon="4.959953">
        <ele>24.90228</ele>
        <time>2021-06-30T11:43:15Z</time>
      </trkpt>
      <trkpt lat="43.531010" lon="4.959956">
        <ele>25.54645</ele>
        <time>2021-06-30T11:43:16Z</time>
      </trkpt>
      <trkpt lat="43.531002" lon="4.959959">
        <ele>25.97601</ele>
        <time>2021-06-30T11:43:17Z</time>
      </trkpt>
      <trkpt lat="43.530991" lon="4.959963">
        <ele>26.29706</ele>
        <time>2021-06-30T11:43:18Z</time>
      </trkpt>
      <trkpt lat="43.530975" lon="4.959968">
        <ele>25.52802</ele>
        <time>2021-06-30T11:43:19Z</time>
      </trkpt>
      <trkpt lat="43.530972" lon="4.959970">
        <ele>25.32861</ele>
        <time>2021-06-30T11:43:20Z</time>
      </trkpt>
      <trkpt lat="43.530960" lon="4.959974">
        <ele>25.52936</ele>
        <time>2021-06-30T11:43:21Z</time>
      </trkpt>
      <trkpt lat="43.530937" lon="4.959982">
        <ele>24.58435</ele>
        <time>2021-06-30T11:43:22Z</time>
      </trkpt>
      <trkpt lat="43.530926" lon="4.959987">
        <ele>24.64447</ele>
        <time>2021-06-30T11:43:23Z</time>
      </trkpt>
      <trkpt lat="43.530914" lon="4.959990">
        <ele>25.09167</ele>
        <time>2021-06-30T11:43:24Z</time>
      </trkpt>
      <trkpt lat="43.530903" lon="4.959995">
        <ele>24.60315</ele>
        <time>2021-06-30T11:43:25Z</time>
      </trkpt>
      <trkpt lat="43.530888" lon="4.960001">
        <ele>25.06842</ele>
        <time>2021-06-30T11:43:26Z</time>
      </trkpt>
      <trkpt lat="43.530872" lon="4.960006">
        <ele>25.50964</ele>
        <time>2021-06-30T11:43:27Z</time>
      </trkpt>
      <trkpt lat="43.530853" lon="4.960013">
        <ele>26.32764</ele>
        <time>2021-06-30T11:43:28Z</time>
      </trkpt>
      <trkpt lat="43.530838" lon="4.960018">
        <ele>26.77588</ele>
        <time>2021-06-30T11:43:29Z</time>
      </trkpt>
      <trkpt lat="43.530823" lon="4.960024">
        <ele>27.10553</ele>
        <time>2021-06-30T11:43:30Z</time>
      </trkpt>
      <trkpt lat="43.530804" lon="4.960031">
        <ele>27.02136</ele>
        <time>2021-06-30T11:43:31Z</time>
      </trkpt>
      <trkpt lat="43.530792" lon="4.960034">
        <ele>25.73987</ele>
        <time>2021-06-30T11:43:32Z</time>
      </trkpt>
      <trkpt lat="43.530792" lon="4.960034">
        <ele>25.29626</ele>
        <time>2021-06-30T11:43:33Z</time>
      </trkpt>
      <trkpt lat="43.530773" lon="4.960041">
        <ele>25.69550</ele>
        <time>2021-06-30T11:43:34Z</time>
      </trkpt>
      <trkpt lat="43.530766" lon="4.960045">
        <ele>25.47345</ele>
        <time>2021-06-30T11:43:35Z</time>
      </trkpt>
      <trkpt lat="43.530743" lon="4.960053">
        <ele>26.52301</ele>
        <time>2021-06-30T11:43:36Z</time>
      </trkpt>
      <trkpt lat="43.530735" lon="4.960056">
        <ele>27.09332</ele>
        <time>2021-06-30T11:43:37Z</time>
      </trkpt>
      <trkpt lat="43.530720" lon="4.960062">
        <ele>25.97156</ele>
        <time>2021-06-30T11:43:38Z</time>
      </trkpt>
      <trkpt lat="43.530697" lon="4.960070">
        <ele>26.12299</ele>
        <time>2021-06-30T11:43:39Z</time>
      </trkpt>
      <trkpt lat="43.530678" lon="4.960076">
        <ele>26.21466</ele>
        <time>2021-06-30T11:43:40Z</time>
      </trkpt>
      <trkpt lat="43.530659" lon="4.960083">
        <ele>26.19043</ele>
        <time>2021-06-30T11:43:41Z</time>
      </trkpt>
      <trkpt lat="43.530640" lon="4.960091">
        <ele>26.92883</ele>
        <time>2021-06-30T11:43:42Z</time>
      </trkpt>
      <trkpt lat="43.530617" lon="4.960099">
        <ele>26.82727</ele>
        <time>2021-06-30T11:43:43Z</time>
      </trkpt>
      <trkpt lat="43.530582" lon="4.960112">
        <ele>27.39471</ele>
        <time>2021-06-30T11:43:44Z</time>
      </trkpt>
      <trkpt lat="43.530544" lon="4.960125">
        <ele>27.00031</ele>
        <time>2021-06-30T11:43:45Z</time>
      </trkpt>
      <trkpt lat="43.530521" lon="4.960133">
        <ele>27.66522</ele>
        <time>2021-06-30T11:43:46Z</time>
      </trkpt>
      <trkpt lat="43.530483" lon="4.960146">
        <ele>27.32770</ele>
        <time>2021-06-30T11:43:47Z</time>
      </trkpt>
      <trkpt lat="43.530430" lon="4.960165">
        <ele>27.09277</ele>
        <time>2021-06-30T11:43:48Z</time>
      </trkpt>
      <trkpt lat="43.530373" lon="4.960187">
        <ele>27.41321</ele>
        <time>2021-06-30T11:43:49Z</time>
      </trkpt>
      <trkpt lat="43.530327" lon="4.960204">
        <ele>27.64276</ele>
        <time>2021-06-30T11:43:50Z</time>
      </trkpt>
      <trkpt lat="43.530258" lon="4.960229">
        <ele>27.44592</ele>
        <time>2021-06-30T11:43:51Z</time>
      </trkpt>
      <trkpt lat="43.530197" lon="4.960252">
        <ele>28.36658</ele>
        <time>2021-06-30T11:43:52Z</time>
      </trkpt>
      <trkpt lat="43.530148" lon="4.960270">
        <ele>28.01990</ele>
        <time>2021-06-30T11:43:53Z</time>
      </trkpt>
      <trkpt lat="43.530087" lon="4.960294">
        <ele>26.94531</ele>
        <time>2021-06-30T11:43:54Z</time>
      </trkpt>
      <trkpt lat="43.530022" lon="4.960318">
        <ele>27.11414</ele>
        <time>2021-06-30T11:43:55Z</time>
      </trkpt>
      <trkpt lat="43.529957" lon="4.960342">
        <ele>27.25568</ele>
        <time>2021-06-30T11:43:56Z</time>
      </trkpt>
      <trkpt lat="43.529888" lon="4.960368">
        <ele>27.60004</ele>
        <time>2021-06-30T11:43:57Z</time>
      </trkpt>
      <trkpt lat="43.529823" lon="4.960393">
        <ele>27.28967</ele>
        <time>2021-06-30T11:43:58Z</time>
      </trkpt>
      <trkpt lat="43.529758" lon="4.960417">
        <ele>27.62628</ele>
        <time>2021-06-30T11:43:59Z</time>
      </trkpt>
      <trkpt lat="43.529686" lon="4.960443">
        <ele>27.15601</ele>
        <time>2021-06-30T11:44:00Z</time>
      </trkpt>
      <trkpt lat="43.529610" lon="4.960472">
        <ele>27.12976</ele>
        <time>2021-06-30T11:44:01Z</time>
      </trkpt>
      <trkpt lat="43.529533" lon="4.960502">
        <ele>27.62012</ele>
        <time>2021-06-30T11:44:02Z</time>
      </trkpt>
      <trkpt lat="43.529472" lon="4.960524">
        <ele>26.71216</ele>
        <time>2021-06-30T11:44:03Z</time>
      </trkpt>
      <trkpt lat="43.529400" lon="4.960552">
        <ele>26.85693</ele>
        <time>2021-06-30T11:44:04Z</time>
      </trkpt>
      <trkpt lat="43.529400" lon="4.960552">
        <ele>26.61432</ele>
        <time>2021-06-30T11:44:05Z</time>
      </trkpt>
      <trkpt lat="43.529327" lon="4.960579">
        <ele>27.03284</ele>
        <time>2021-06-30T11:44:06Z</time>
      </trkpt>
      <trkpt lat="43.529259" lon="4.960605">
        <ele>27.23541</ele>
        <time>2021-06-30T11:44:07Z</time>
      </trkpt>
      <trkpt lat="43.529186" lon="4.960632">
        <ele>26.55573</ele>
        <time>2021-06-30T11:44:08Z</time>
      </trkpt>
      <trkpt lat="43.529133" lon="4.960652">
        <ele>25.40216</ele>
        <time>2021-06-30T11:44:09Z</time>
      </trkpt>
      <trkpt lat="43.529068" lon="4.960676">
        <ele>25.33551</ele>
        <time>2021-06-30T11:44:10Z</time>
      </trkpt>
      <trkpt lat="43.528999" lon="4.960702">
        <ele>25.76245</ele>
        <time>2021-06-30T11:44:11Z</time>
      </trkpt>
      <trkpt lat="43.528927" lon="4.960728">
        <ele>24.81763</ele>
        <time>2021-06-30T11:44:12Z</time>
      </trkpt>
      <trkpt lat="43.528851" lon="4.960757">
        <ele>24.48633</ele>
        <time>2021-06-30T11:44:13Z</time>
      </trkpt>
      <trkpt lat="43.528782" lon="4.960784">
        <ele>24.93909</ele>
        <time>2021-06-30T11:44:14Z</time>
      </trkpt>
      <trkpt lat="43.528725" lon="4.960805">
        <ele>24.55896</ele>
        <time>2021-06-30T11:44:15Z</time>
      </trkpt>
      <trkpt lat="43.528667" lon="4.960826">
        <ele>24.30969</ele>
        <time>2021-06-30T11:44:16Z</time>
      </trkpt>
      <trkpt lat="43.528606" lon="4.960852">
        <ele>24.84888</ele>
        <time>2021-06-30T11:44:17Z</time>
      </trkpt>
      <trkpt lat="43.528534" lon="4.960881">
        <ele>24.84906</ele>
        <time>2021-06-30T11:44:18Z</time>
      </trkpt>
      <trkpt lat="43.528473" lon="4.960906">
        <ele>24.98773</ele>
        <time>2021-06-30T11:44:19Z</time>
      </trkpt>
      <trkpt lat="43.528427" lon="4.960926">
        <ele>25.23187</ele>
        <time>2021-06-30T11:44:20Z</time>
      </trkpt>
      <trkpt lat="43.528374" lon="4.960954">
        <ele>25.21484</ele>
        <time>2021-06-30T11:44:21Z</time>
      </trkpt>
      <trkpt lat="43.528313" lon="4.960986">
        <ele>25.23572</ele>
        <time>2021-06-30T11:44:22Z</time>
      </trkpt>
      <trkpt lat="43.528255" lon="4.961016">
        <ele>25.07843</ele>
        <time>2021-06-30T11:44:23Z</time>
      </trkpt>
      <trkpt lat="43.528202" lon="4.961044">
        <ele>24.60687</ele>
        <time>2021-06-30T11:44:24Z</time>
      </trkpt>
      <trkpt lat="43.528152" lon="4.961084">
        <ele>24.44495</ele>
        <time>2021-06-30T11:44:25Z</time>
      </trkpt>
      <trkpt lat="43.528107" lon="4.961120">
        <ele>24.90485</ele>
        <time>2021-06-30T11:44:26Z</time>
      </trkpt>
      <trkpt lat="43.528065" lon="4.961153">
        <ele>24.94061</ele>
        <time>2021-06-30T11:44:27Z</time>
      </trkpt>
      <trkpt lat="43.528027" lon="4.961184">
        <ele>24.96313</ele>
        <time>2021-06-30T11:44:28Z</time>
      </trkpt>
      <trkpt lat="43.527985" lon="4.961216">
        <ele>25.03589</ele>
        <time>2021-06-30T11:44:29Z</time>
      </trkpt>
      <trkpt lat="43.527931" lon="4.961260">
        <ele>24.94714</ele>
        <time>2021-06-30T11:44:30Z</time>
      </trkpt>
      <trkpt lat="43.527836" lon="4.961130">
        <ele>25.46771</ele>
        <time>2021-06-30T11:44:31Z</time>
      </trkpt>
      <trkpt lat="43.527775" lon="4.961080">
        <ele>25.46533</ele>
        <time>2021-06-30T11:44:32Z</time>
      </trkpt>
      <trkpt lat="43.527733" lon="4.961056">
        <ele>25.41858</ele>
        <time>2021-06-30T11:44:33Z</time>
      </trkpt>
      <trkpt lat="43.527660" lon="4.961046">
        <ele>25.14465</ele>
        <time>2021-06-30T11:44:34Z</time>
      </trkpt>
      <trkpt lat="43.527660" lon="4.961046">
        <ele>24.70447</ele>
        <time>2021-06-30T11:44:35Z</time>
      </trkpt>
      <trkpt lat="43.527580" lon="4.961070">
        <ele>25.44574</ele>
        <time>2021-06-30T11:44:36Z</time>
      </trkpt>
      <trkpt lat="43.527531" lon="4.961109">
        <ele>25.71753</ele>
        <time>2021-06-30T11:44:37Z</time>
      </trkpt>
      <trkpt lat="43.527489" lon="4.961174">
        <ele>25.70062</ele>
        <time>2021-06-30T11:44:38Z</time>
      </trkpt>
      <trkpt lat="43.527458" lon="4.961255">
        <ele>25.65063</ele>
        <time>2021-06-30T11:44:39Z</time>
      </trkpt>
      <trkpt lat="43.527439" lon="4.961343">
        <ele>25.75726</ele>
        <time>2021-06-30T11:44:40Z</time>
      </trkpt>
      <trkpt lat="43.527428" lon="4.961429">
        <ele>25.97986</ele>
        <time>2021-06-30T11:44:41Z</time>
      </trkpt>
      <trkpt lat="43.527431" lon="4.961516">
        <ele>24.86316</ele>
        <time>2021-06-30T11:44:42Z</time>
      </trkpt>
      <trkpt lat="43.527454" lon="4.961593">
        <ele>24.97437</ele>
        <time>2021-06-30T11:44:43Z</time>
      </trkpt>
      <trkpt lat="43.527512" lon="4.961687">
        <ele>25.15271</ele>
        <time>2021-06-30T11:44:44Z</time>
      </trkpt>
      <trkpt lat="43.527596" lon="4.961745">
        <ele>24.13489</ele>
        <time>2021-06-30T11:44:45Z</time>
      </trkpt>
      <trkpt lat="43.527710" lon="4.961759">
        <ele>24.29187</ele>
        <time>2021-06-30T11:44:46Z</time>
      </trkpt>
      <trkpt lat="43.527813" lon="4.961723">
        <ele>23.86188</ele>
        <time>2021-06-30T11:44:47Z</time>
      </trkpt>
      <trkpt lat="43.527874" lon="4.961646">
        <ele>23.60150</ele>
        <time>2021-06-30T11:44:48Z</time>
      </trkpt>
      <trkpt lat="43.527924" lon="4.961517">
        <ele>23.70459</ele>
        <time>2021-06-30T11:44:49Z</time>
      </trkpt>
      <trkpt lat="43.527924" lon="4.961295">
        <ele>23.48346</ele>
        <time>2021-06-30T11:44:50Z</time>
      </trkpt>
      <trkpt lat="43.528042" lon="4.961171">
        <ele>23.41455</ele>
        <time>2021-06-30T11:44:51Z</time>
      </trkpt>
      <trkpt lat="43.528252" lon="4.961016">
        <ele>23.48138</ele>
        <time>2021-06-30T11:44:52Z</time>
      </trkpt>
      <trkpt lat="43.528439" lon="4.960921">
        <ele>24.01819</ele>
        <time>2021-06-30T11:44:53Z</time>
      </trkpt>
      <trkpt lat="43.528687" lon="4.960819">
        <ele>24.31067</ele>
        <time>2021-06-30T11:44:54Z</time>
      </trkpt>
      <trkpt lat="43.528912" lon="4.960735">
        <ele>24.04291</ele>
        <time>2021-06-30T11:44:55Z</time>
      </trkpt>
      <trkpt lat="43.529121" lon="4.960656">
        <ele>24.44818</ele>
        <time>2021-06-30T11:44:56Z</time>
      </trkpt>
      <trkpt lat="43.529308" lon="4.960586">
        <ele>24.79315</ele>
        <time>2021-06-30T11:44:57Z</time>
      </trkpt>
      <trkpt lat="43.529499" lon="4.960514">
        <ele>25.31958</ele>
        <time>2021-06-30T11:44:58Z</time>
      </trkpt>
      <trkpt lat="43.529686" lon="4.960444">
        <ele>25.09418</ele>
        <time>2021-06-30T11:44:59Z</time>
      </trkpt>
      <trkpt lat="43.529877" lon="4.960372">
        <ele>25.62714</ele>
        <time>2021-06-30T11:45:00Z</time>
      </trkpt>
      <trkpt lat="43.530079" lon="4.960297">
        <ele>25.24872</ele>
        <time>2021-06-30T11:45:01Z</time>
      </trkpt>
      <trkpt lat="43.530079" lon="4.960297">
        <ele>25.61646</ele>
        <time>2021-06-30T11:45:02Z</time>
      </trkpt>
      <trkpt lat="43.530285" lon="4.960220">
        <ele>25.97858</ele>
        <time>2021-06-30T11:45:03Z</time>
      </trkpt>
      <trkpt lat="43.530537" lon="4.960128">
        <ele>26.37543</ele>
        <time>2021-06-30T11:45:04Z</time>
      </trkpt>
      <trkpt lat="43.530739" lon="4.960055">
        <ele>26.52692</ele>
        <time>2021-06-30T11:45:05Z</time>
      </trkpt>
      <trkpt lat="43.530933" lon="4.959984">
        <ele>26.49414</ele>
        <time>2021-06-30T11:45:06Z</time>
      </trkpt>
      <trkpt lat="43.531109" lon="4.959920">
        <ele>25.84900</ele>
        <time>2021-06-30T11:45:07Z</time>
      </trkpt>
      <trkpt lat="43.531296" lon="4.959852">
        <ele>26.49060</ele>
        <time>2021-06-30T11:45:08Z</time>
      </trkpt>
      <trkpt lat="43.531498" lon="4.959779">
        <ele>26.11914</ele>
        <time>2021-06-30T11:45:09Z</time>
      </trkpt>
      <trkpt lat="43.531715" lon="4.959701">
        <ele>26.42639</ele>
        <time>2021-06-30T11:45:10Z</time>
      </trkpt>
      <trkpt lat="43.531921" lon="4.959626">
        <ele>26.19940</ele>
        <time>2021-06-30T11:45:11Z</time>
      </trkpt>
      <trkpt lat="43.532143" lon="4.959544">
        <ele>26.45667</ele>
        <time>2021-06-30T11:45:12Z</time>
      </trkpt>
      <trkpt lat="43.532368" lon="4.959459">
        <ele>26.87982</ele>
        <time>2021-06-30T11:45:13Z</time>
      </trkpt>
      <trkpt lat="43.532604" lon="4.959369">
        <ele>27.66248</ele>
        <time>2021-06-30T11:45:14Z</time>
      </trkpt>
      <trkpt lat="43.532841" lon="4.959280">
        <ele>28.19666</ele>
        <time>2021-06-30T11:45:15Z</time>
      </trkpt>
      <trkpt lat="43.533073" lon="4.959193">
        <ele>29.09338</ele>
        <time>2021-06-30T11:45:16Z</time>
      </trkpt>
      <trkpt lat="43.533295" lon="4.959109">
        <ele>29.32288</ele>
        <time>2021-06-30T11:45:17Z</time>
      </trkpt>
      <trkpt lat="43.533524" lon="4.959023">
        <ele>29.63202</ele>
        <time>2021-06-30T11:45:18Z</time>
      </trkpt>
      <trkpt lat="43.533756" lon="4.958935">
        <ele>29.99994</ele>
        <time>2021-06-30T11:45:19Z</time>
      </trkpt>
      <trkpt lat="43.533993" lon="4.958846">
        <ele>30.31885</ele>
        <time>2021-06-30T11:45:20Z</time>
      </trkpt>
      <trkpt lat="43.534225" lon="4.958758">
        <ele>31.13879</ele>
        <time>2021-06-30T11:45:21Z</time>
      </trkpt>
      <trkpt lat="43.534451" lon="4.958674">
        <ele>31.86847</ele>
        <time>2021-06-30T11:45:22Z</time>
      </trkpt>
      <trkpt lat="43.534683" lon="4.958586">
        <ele>31.70508</ele>
        <time>2021-06-30T11:45:23Z</time>
      </trkpt>
      <trkpt lat="43.534924" lon="4.958496">
        <ele>32.32935</ele>
        <time>2021-06-30T11:45:24Z</time>
      </trkpt>
      <trkpt lat="43.535164" lon="4.958405">
        <ele>33.33246</ele>
        <time>2021-06-30T11:45:25Z</time>
      </trkpt>
      <trkpt lat="43.535400" lon="4.958316">
        <ele>33.52777</ele>
        <time>2021-06-30T11:45:26Z</time>
      </trkpt>
      <trkpt lat="43.535656" lon="4.958231">
        <ele>33.14221</ele>
        <time>2021-06-30T11:45:27Z</time>
      </trkpt>
      <trkpt lat="43.535904" lon="4.958139">
        <ele>33.00391</ele>
        <time>2021-06-30T11:45:28Z</time>
      </trkpt>
      <trkpt lat="43.536156" lon="4.958048">
        <ele>32.66467</ele>
        <time>2021-06-30T11:45:29Z</time>
      </trkpt>
      <trkpt lat="43.536156" lon="4.958048">
        <ele>32.49323</ele>
        <time>2021-06-30T11:45:30Z</time>
      </trkpt>
      <trkpt lat="43.536388" lon="4.957962">
        <ele>32.70081</ele>
        <time>2021-06-30T11:45:31Z</time>
      </trkpt>
      <trkpt lat="43.536633" lon="4.957871">
        <ele>32.94080</ele>
        <time>2021-06-30T11:45:32Z</time>
      </trkpt>
      <trkpt lat="43.536873" lon="4.957782">
        <ele>32.27563</ele>
        <time>2021-06-30T11:45:33Z</time>
      </trkpt>
      <trkpt lat="43.537125" lon="4.957690">
        <ele>32.25330</ele>
        <time>2021-06-30T11:45:34Z</time>
      </trkpt>
      <trkpt lat="43.537365" lon="4.957601">
        <ele>31.62170</ele>
        <time>2021-06-30T11:45:35Z</time>
      </trkpt>
      <trkpt lat="43.537613" lon="4.957510">
        <ele>31.12256</ele>
        <time>2021-06-30T11:45:36Z</time>
      </trkpt>
      <trkpt lat="43.537838" lon="4.957430">
        <ele>31.40881</ele>
        <time>2021-06-30T11:45:37Z</time>
      </trkpt>
      <trkpt lat="43.538086" lon="4.957343">
        <ele>31.88013</ele>
        <time>2021-06-30T11:45:38Z</time>
      </trkpt>
      <trkpt lat="43.538326" lon="4.957258">
        <ele>32.50732</ele>
        <time>2021-06-30T11:45:39Z</time>
      </trkpt>
      <trkpt lat="43.538563" lon="4.957176">
        <ele>32.34406</ele>
        <time>2021-06-30T11:45:40Z</time>
      </trkpt>
      <trkpt lat="43.538769" lon="4.957104">
        <ele>32.05841</ele>
        <time>2021-06-30T11:45:41Z</time>
      </trkpt>
      <trkpt lat="43.538998" lon="4.957029">
        <ele>31.59760</ele>
        <time>2021-06-30T11:45:42Z</time>
      </trkpt>
      <trkpt lat="43.539207" lon="4.956961">
        <ele>31.75317</ele>
        <time>2021-06-30T11:45:43Z</time>
      </trkpt>
      <trkpt lat="43.539394" lon="4.956899">
        <ele>31.26154</ele>
        <time>2021-06-30T11:45:44Z</time>
      </trkpt>
      <trkpt lat="43.539574" lon="4.956840">
        <ele>31.70447</ele>
        <time>2021-06-30T11:45:45Z</time>
      </trkpt>
      <trkpt lat="43.539757" lon="4.956780">
        <ele>32.13141</ele>
        <time>2021-06-30T11:45:46Z</time>
      </trkpt>
      <trkpt lat="43.539951" lon="4.956717">
        <ele>32.02399</ele>
        <time>2021-06-30T11:45:47Z</time>
      </trkpt>
      <trkpt lat="43.540157" lon="4.956649">
        <ele>31.91736</ele>
        <time>2021-06-30T11:45:48Z</time>
      </trkpt>
      <trkpt lat="43.540390" lon="4.956573">
        <ele>31.81848</ele>
        <time>2021-06-30T11:45:49Z</time>
      </trkpt>
      <trkpt lat="43.540596" lon="4.956505">
        <ele>31.23120</ele>
        <time>2021-06-30T11:45:50Z</time>
      </trkpt>
      <trkpt lat="43.540779" lon="4.956446">
        <ele>31.38824</ele>
        <time>2021-06-30T11:45:51Z</time>
      </trkpt>
      <trkpt lat="43.540974" lon="4.956383">
        <ele>31.18451</ele>
        <time>2021-06-30T11:45:52Z</time>
      </trkpt>
      <trkpt lat="43.541164" lon="4.956319">
        <ele>30.63940</ele>
        <time>2021-06-30T11:45:53Z</time>
      </trkpt>
      <trkpt lat="43.541344" lon="4.956262">
        <ele>29.97705</ele>
        <time>2021-06-30T11:45:54Z</time>
      </trkpt>
      <trkpt lat="43.541508" lon="4.956209">
        <ele>29.23926</ele>
        <time>2021-06-30T11:45:55Z</time>
      </trkpt>
      <trkpt lat="43.541676" lon="4.956156">
        <ele>28.77393</ele>
        <time>2021-06-30T11:45:56Z</time>
      </trkpt>
      <trkpt lat="43.541828" lon="4.956106">
        <ele>28.92505</ele>
        <time>2021-06-30T11:45:57Z</time>
      </trkpt>
      <trkpt lat="43.541965" lon="4.956062">
        <ele>28.71796</ele>
        <time>2021-06-30T11:45:58Z</time>
      </trkpt>
      <trkpt lat="43.542114" lon="4.956015">
        <ele>29.22162</ele>
        <time>2021-06-30T11:45:59Z</time>
      </trkpt>
      <trkpt lat="43.542259" lon="4.955969">
        <ele>29.64441</ele>
        <time>2021-06-30T11:46:00Z</time>
      </trkpt>
      <trkpt lat="43.542412" lon="4.955920">
        <ele>30.45117</ele>
        <time>2021-06-30T11:46:01Z</time>
      </trkpt>
      <trkpt lat="43.542412" lon="4.955920">
        <ele>29.67798</ele>
        <time>2021-06-30T11:46:02Z</time>
      </trkpt>
      <trkpt lat="43.542572" lon="4.955868">
        <ele>30.21375</ele>
        <time>2021-06-30T11:46:03Z</time>
      </trkpt>
      <trkpt lat="43.542725" lon="4.955819">
        <ele>30.86481</ele>
        <time>2021-06-30T11:46:04Z</time>
      </trkpt>
      <trkpt lat="43.542885" lon="4.955768">
        <ele>30.54688</ele>
        <time>2021-06-30T11:46:05Z</time>
      </trkpt>
      <trkpt lat="43.543030" lon="4.955721">
        <ele>30.23889</ele>
        <time>2021-06-30T11:46:06Z</time>
      </trkpt>
      <trkpt lat="43.543194" lon="4.955669">
        <ele>30.11658</ele>
        <time>2021-06-30T11:46:07Z</time>
      </trkpt>
      <trkpt lat="43.543346" lon="4.955620">
        <ele>29.96539</ele>
        <time>2021-06-30T11:46:08Z</time>
      </trkpt>
      <trkpt lat="43.543526" lon="4.955563">
        <ele>30.15833</ele>
        <time>2021-06-30T11:46:09Z</time>
      </trkpt>
      <trkpt lat="43.543701" lon="4.955527">
        <ele>30.63867</ele>
        <time>2021-06-30T11:46:10Z</time>
      </trkpt>
      <trkpt lat="43.543880" lon="4.955495">
        <ele>30.79114</ele>
        <time>2021-06-30T11:46:11Z</time>
      </trkpt>
      <trkpt lat="43.544071" lon="4.955470">
        <ele>30.46338</ele>
        <time>2021-06-30T11:46:12Z</time>
      </trkpt>
      <trkpt lat="43.544262" lon="4.955452">
        <ele>30.19415</ele>
        <time>2021-06-30T11:46:13Z</time>
      </trkpt>
      <trkpt lat="43.544453" lon="4.955437">
        <ele>30.24438</ele>
        <time>2021-06-30T11:46:14Z</time>
      </trkpt>
      <trkpt lat="43.544640" lon="4.955437">
        <ele>29.85510</ele>
        <time>2021-06-30T11:46:15Z</time>
      </trkpt>
      <trkpt lat="43.544834" lon="4.955437">
        <ele>29.05811</ele>
        <time>2021-06-30T11:46:16Z</time>
      </trkpt>
      <trkpt lat="43.545033" lon="4.955437">
        <ele>29.59601</ele>
        <time>2021-06-30T11:46:17Z</time>
      </trkpt>
      <trkpt lat="43.545204" lon="4.955451">
        <ele>29.75293</ele>
        <time>2021-06-30T11:46:18Z</time>
      </trkpt>
      <trkpt lat="43.545387" lon="4.955473">
        <ele>29.88745</ele>
        <time>2021-06-30T11:46:19Z</time>
      </trkpt>
      <trkpt lat="43.545563" lon="4.955494">
        <ele>30.28784</ele>
        <time>2021-06-30T11:46:20Z</time>
      </trkpt>
      <trkpt lat="43.545742" lon="4.955515">
        <ele>30.33148</ele>
        <time>2021-06-30T11:46:21Z</time>
      </trkpt>
      <trkpt lat="43.545921" lon="4.955545">
        <ele>29.06683</ele>
        <time>2021-06-30T11:46:22Z</time>
      </trkpt>
      <trkpt lat="43.546097" lon="4.955584">
        <ele>29.12415</ele>
        <time>2021-06-30T11:46:23Z</time>
      </trkpt>
      <trkpt lat="43.546276" lon="4.955624">
        <ele>29.58826</ele>
        <time>2021-06-30T11:46:24Z</time>
      </trkpt>
      <trkpt lat="43.546436" lon="4.955660">
        <ele>30.67792</ele>
        <time>2021-06-30T11:46:25Z</time>
      </trkpt>
      <trkpt lat="43.546604" lon="4.955706">
        <ele>30.82605</ele>
        <time>2021-06-30T11:46:26Z</time>
      </trkpt>
      <trkpt lat="43.546776" lon="4.955762">
        <ele>30.80774</ele>
        <time>2021-06-30T11:46:27Z</time>
      </trkpt>
      <trkpt lat="43.546951" lon="4.955819">
        <ele>30.54382</ele>
        <time>2021-06-30T11:46:28Z</time>
      </trkpt>
      <trkpt lat="43.547150" lon="4.955882">
        <ele>31.50256</ele>
        <time>2021-06-30T11:46:29Z</time>
      </trkpt>
      <trkpt lat="43.547337" lon="4.955942">
        <ele>31.53766</ele>
        <time>2021-06-30T11:46:30Z</time>
      </trkpt>
      <trkpt lat="43.547516" lon="4.955999">
        <ele>31.37305</ele>
        <time>2021-06-30T11:46:31Z</time>
      </trkpt>
      <trkpt lat="43.547676" lon="4.956059">
        <ele>30.67474</ele>
        <time>2021-06-30T11:46:32Z</time>
      </trkpt>
      <trkpt lat="43.547848" lon="4.956128">
        <ele>30.86505</ele>
        <time>2021-06-30T11:46:33Z</time>
      </trkpt>
      <trkpt lat="43.548012" lon="4.956194">
        <ele>31.15875</ele>
        <time>2021-06-30T11:46:34Z</time>
      </trkpt>
      <trkpt lat="43.548012" lon="4.956194">
        <ele>31.62286</ele>
        <time>2021-06-30T11:46:35Z</time>
      </trkpt>
      <trkpt lat="43.548183" lon="4.956263">
        <ele>31.98340</ele>
        <time>2021-06-30T11:46:36Z</time>
      </trkpt>
      <trkpt lat="43.548367" lon="4.956342">
        <ele>31.50958</ele>
        <time>2021-06-30T11:46:37Z</time>
      </trkpt>
      <trkpt lat="43.548550" lon="4.956421">
        <ele>31.39319</ele>
        <time>2021-06-30T11:46:38Z</time>
      </trkpt>
      <trkpt lat="43.548725" lon="4.956499">
        <ele>31.99658</ele>
        <time>2021-06-30T11:46:39Z</time>
      </trkpt>
      <trkpt lat="43.548927" lon="4.956587">
        <ele>31.67053</ele>
        <time>2021-06-30T11:46:40Z</time>
      </trkpt>
      <trkpt lat="43.549114" lon="4.956669">
        <ele>31.92535</ele>
        <time>2021-06-30T11:46:41Z</time>
      </trkpt>
      <trkpt lat="43.549297" lon="4.956759">
        <ele>32.20959</ele>
        <time>2021-06-30T11:46:42Z</time>
      </trkpt>
      <trkpt lat="43.549492" lon="4.956863">
        <ele>31.80530</ele>
        <time>2021-06-30T11:46:43Z</time>
      </trkpt>
      <trkpt lat="43.549683" lon="4.956965">
        <ele>32.69922</ele>
        <time>2021-06-30T11:46:44Z</time>
      </trkpt>
      <trkpt lat="43.549877" lon="4.957072">
        <ele>32.13934</ele>
        <time>2021-06-30T11:46:45Z</time>
      </trkpt>
      <trkpt lat="43.550076" lon="4.957185">
        <ele>32.55707</ele>
        <time>2021-06-30T11:46:46Z</time>
      </trkpt>
      <trkpt lat="43.550259" lon="4.957288">
        <ele>32.84021</ele>
        <time>2021-06-30T11:46:47Z</time>
      </trkpt>
      <trkpt lat="43.550434" lon="4.957389">
        <ele>31.42609</ele>
        <time>2021-06-30T11:46:48Z</time>
      </trkpt>
      <trkpt lat="43.550606" lon="4.957485">
        <ele>31.13745</ele>
        <time>2021-06-30T11:46:49Z</time>
      </trkpt>
      <trkpt lat="43.550770" lon="4.957579">
        <ele>30.89697</ele>
        <time>2021-06-30T11:46:50Z</time>
      </trkpt>
      <trkpt lat="43.550941" lon="4.957685">
        <ele>31.27893</ele>
        <time>2021-06-30T11:46:51Z</time>
      </trkpt>
      <trkpt lat="43.551121" lon="4.957801">
        <ele>31.43762</ele>
        <time>2021-06-30T11:46:52Z</time>
      </trkpt>
      <trkpt lat="43.551292" lon="4.957912">
        <ele>31.79065</ele>
        <time>2021-06-30T11:46:53Z</time>
      </trkpt>
      <trkpt lat="43.551476" lon="4.958029">
        <ele>31.46545</ele>
        <time>2021-06-30T11:46:54Z</time>
      </trkpt>
      <trkpt lat="43.551655" lon="4.958150">
        <ele>32.21088</ele>
        <time>2021-06-30T11:46:55Z</time>
      </trkpt>
      <trkpt lat="43.551838" lon="4.958282">
        <ele>32.77502</ele>
        <time>2021-06-30T11:46:56Z</time>
      </trkpt>
      <trkpt lat="43.552017" lon="4.958411">
        <ele>31.50366</ele>
        <time>2021-06-30T11:46:57Z</time>
      </trkpt>
      <trkpt lat="43.552181" lon="4.958530">
        <ele>31.74261</ele>
        <time>2021-06-30T11:46:58Z</time>
      </trkpt>
      <trkpt lat="43.552364" lon="4.958672">
        <ele>31.93842</ele>
        <time>2021-06-30T11:46:59Z</time>
      </trkpt>
      <trkpt lat="43.552532" lon="4.958805">
        <ele>31.79156</ele>
        <time>2021-06-30T11:47:00Z</time>
      </trkpt>
      <trkpt lat="43.552704" lon="4.958942">
        <ele>31.60767</ele>
        <time>2021-06-30T11:47:01Z</time>
      </trkpt>
      <trkpt lat="43.552872" lon="4.959074">
        <ele>31.33655</ele>
        <time>2021-06-30T11:47:02Z</time>
      </trkpt>
      <trkpt lat="43.553047" lon="4.959210">
        <ele>30.87189</ele>
        <time>2021-06-30T11:47:03Z</time>
      </trkpt>
      <trkpt lat="43.553234" lon="4.959358">
        <ele>31.45850</ele>
        <time>2021-06-30T11:47:04Z</time>
      </trkpt>
      <trkpt lat="43.553406" lon="4.959501">
        <ele>31.08777</ele>
        <time>2021-06-30T11:47:05Z</time>
      </trkpt>
      <trkpt lat="43.553406" lon="4.959501">
        <ele>31.37714</ele>
        <time>2021-06-30T11:47:06Z</time>
      </trkpt>
      <trkpt lat="43.553566" lon="4.959636">
        <ele>31.27594</ele>
        <time>2021-06-30T11:47:07Z</time>
      </trkpt>
      <trkpt lat="43.553722" lon="4.959779">
        <ele>31.22766</ele>
        <time>2021-06-30T11:47:08Z</time>
      </trkpt>
      <trkpt lat="43.553879" lon="4.959922">
        <ele>31.53638</ele>
        <time>2021-06-30T11:47:09Z</time>
      </trkpt>
      <trkpt lat="43.554016" lon="4.960047">
        <ele>31.49377</ele>
        <time>2021-06-30T11:47:10Z</time>
      </trkpt>
      <trkpt lat="43.554157" lon="4.960178">
        <ele>31.63708</ele>
        <time>2021-06-30T11:47:11Z</time>
      </trkpt>
      <trkpt lat="43.554291" lon="4.960302">
        <ele>31.42712</ele>
        <time>2021-06-30T11:47:12Z</time>
      </trkpt>
      <trkpt lat="43.554455" lon="4.960461">
        <ele>31.99042</ele>
        <time>2021-06-30T11:47:13Z</time>
      </trkpt>
      <trkpt lat="43.554615" lon="4.960622">
        <ele>32.21423</ele>
        <time>2021-06-30T11:47:14Z</time>
      </trkpt>
      <trkpt lat="43.554779" lon="4.960785">
        <ele>32.53119</ele>
        <time>2021-06-30T11:47:15Z</time>
      </trkpt>
      <trkpt lat="43.554947" lon="4.960949">
        <ele>32.21033</ele>
        <time>2021-06-30T11:47:16Z</time>
      </trkpt>
      <trkpt lat="43.555099" lon="4.961112">
        <ele>32.13287</ele>
        <time>2021-06-30T11:47:17Z</time>
      </trkpt>
      <trkpt lat="43.555248" lon="4.961280">
        <ele>31.99426</ele>
        <time>2021-06-30T11:47:18Z</time>
      </trkpt>
      <trkpt lat="43.555408" lon="4.961456">
        <ele>32.48779</ele>
        <time>2021-06-30T11:47:19Z</time>
      </trkpt>
      <trkpt lat="43.555576" lon="4.961648">
        <ele>32.59106</ele>
        <time>2021-06-30T11:47:20Z</time>
      </trkpt>
      <trkpt lat="43.555729" lon="4.961815">
        <ele>31.77789</ele>
        <time>2021-06-30T11:47:21Z</time>
      </trkpt>
      <trkpt lat="43.555874" lon="4.961976">
        <ele>31.54895</ele>
        <time>2021-06-30T11:47:22Z</time>
      </trkpt>
      <trkpt lat="43.556011" lon="4.962129">
        <ele>31.86072</ele>
        <time>2021-06-30T11:47:23Z</time>
      </trkpt>
      <trkpt lat="43.556141" lon="4.962288">
        <ele>31.89069</ele>
        <time>2021-06-30T11:47:24Z</time>
      </trkpt>
      <trkpt lat="43.556267" lon="4.962440">
        <ele>32.26141</ele>
        <time>2021-06-30T11:47:25Z</time>
      </trkpt>
      <trkpt lat="43.556400" lon="4.962603">
        <ele>32.46454</ele>
        <time>2021-06-30T11:47:26Z</time>
      </trkpt>
      <trkpt lat="43.556530" lon="4.962764">
        <ele>31.43878</ele>
        <time>2021-06-30T11:47:27Z</time>
      </trkpt>
      <trkpt lat="43.556671" lon="4.962937">
        <ele>31.67542</ele>
        <time>2021-06-30T11:47:28Z</time>
      </trkpt>
      <trkpt lat="43.556808" lon="4.963104">
        <ele>30.51910</ele>
        <time>2021-06-30T11:47:29Z</time>
      </trkpt>
      <trkpt lat="43.556946" lon="4.963272">
        <ele>31.01550</ele>
        <time>2021-06-30T11:47:30Z</time>
      </trkpt>
      <trkpt lat="43.557079" lon="4.963445">
        <ele>31.49249</ele>
        <time>2021-06-30T11:47:31Z</time>
      </trkpt>
      <trkpt lat="43.557198" lon="4.963619">
        <ele>31.83850</ele>
        <time>2021-06-30T11:47:32Z</time>
      </trkpt>
      <trkpt lat="43.557335" lon="4.963815">
        <ele>32.22870</ele>
        <time>2021-06-30T11:47:33Z</time>
      </trkpt>
      <trkpt lat="43.557461" lon="4.963999">
        <ele>32.25482</ele>
        <time>2021-06-30T11:47:34Z</time>
      </trkpt>
      <trkpt lat="43.557583" lon="4.964177">
        <ele>32.11975</ele>
        <time>2021-06-30T11:47:35Z</time>
      </trkpt>
      <trkpt lat="43.557705" lon="4.964358">
        <ele>31.72998</ele>
        <time>2021-06-30T11:47:36Z</time>
      </trkpt>
      <trkpt lat="43.557842" lon="4.964554">
        <ele>31.63281</ele>
        <time>2021-06-30T11:47:37Z</time>
      </trkpt>
      <trkpt lat="43.557980" lon="4.964756">
        <ele>31.68427</ele>
        <time>2021-06-30T11:47:38Z</time>
      </trkpt>
      <trkpt lat="43.558113" lon="4.964949">
        <ele>32.77118</ele>
        <time>2021-06-30T11:47:39Z</time>
      </trkpt>
      <trkpt lat="43.558243" lon="4.965130">
        <ele>33.14050</ele>
        <time>2021-06-30T11:47:40Z</time>
      </trkpt>
      <trkpt lat="43.558243" lon="4.965130">
        <ele>33.71143</ele>
        <time>2021-06-30T11:47:41Z</time>
      </trkpt>
      <trkpt lat="43.558323" lon="4.965242">
        <ele>33.53357</ele>
        <time>2021-06-30T11:47:42Z</time>
      </trkpt>
      <trkpt lat="43.558472" lon="4.965585">
        <ele>33.08405</ele>
        <time>2021-06-30T11:47:43Z</time>
      </trkpt>
      <trkpt lat="43.558590" lon="4.965783">
        <ele>32.83038</ele>
        <time>2021-06-30T11:47:44Z</time>
      </trkpt>
      <trkpt lat="43.558689" lon="4.965954">
        <ele>33.31946</ele>
        <time>2021-06-30T11:47:45Z</time>
      </trkpt>
      <trkpt lat="43.558777" lon="4.966122">
        <ele>33.43542</ele>
        <time>2021-06-30T11:47:46Z</time>
      </trkpt>
      <trkpt lat="43.558807" lon="4.966302">
        <ele>33.37366</ele>
        <time>2021-06-30T11:47:47Z</time>
      </trkpt>
      <trkpt lat="43.558826" lon="4.966449">
        <ele>33.97156</ele>
        <time>2021-06-30T11:47:48Z</time>
      </trkpt>
      <trkpt lat="43.558792" lon="4.966611">
        <ele>34.63440</ele>
        <time>2021-06-30T11:47:49Z</time>
      </trkpt>
      <trkpt lat="43.558735" lon="4.966739">
        <ele>34.46436</ele>
        <time>2021-06-30T11:47:50Z</time>
      </trkpt>
      <trkpt lat="43.558640" lon="4.966846">
        <ele>34.58398</ele>
        <time>2021-06-30T11:47:51Z</time>
      </trkpt>
      <trkpt lat="43.558517" lon="4.966910">
        <ele>35.07550</ele>
        <time>2021-06-30T11:47:52Z</time>
      </trkpt>
      <trkpt lat="43.558392" lon="4.966905">
        <ele>35.70990</ele>
        <time>2021-06-30T11:47:53Z</time>
      </trkpt>
      <trkpt lat="43.558250" lon="4.966836">
        <ele>36.27905</ele>
        <time>2021-06-30T11:47:54Z</time>
      </trkpt>
      <trkpt lat="43.558151" lon="4.966724">
        <ele>36.84369</ele>
        <time>2021-06-30T11:47:55Z</time>
      </trkpt>
      <trkpt lat="43.558041" lon="4.966562">
        <ele>36.66235</ele>
        <time>2021-06-30T11:47:56Z</time>
      </trkpt>
      <trkpt lat="43.557938" lon="4.966378">
        <ele>36.88806</ele>
        <time>2021-06-30T11:47:57Z</time>
      </trkpt>
      <trkpt lat="43.557861" lon="4.966169">
        <ele>37.80109</ele>
        <time>2021-06-30T11:47:58Z</time>
      </trkpt>
      <trkpt lat="43.557796" lon="4.965968">
        <ele>38.33051</ele>
        <time>2021-06-30T11:47:59Z</time>
      </trkpt>
      <trkpt lat="43.557762" lon="4.965803">
        <ele>38.69940</ele>
        <time>2021-06-30T11:48:00Z</time>
      </trkpt>
      <trkpt lat="43.557735" lon="4.965620">
        <ele>38.90167</ele>
        <time>2021-06-30T11:48:01Z</time>
      </trkpt>
      <trkpt lat="43.557739" lon="4.965430">
        <ele>39.07367</ele>
        <time>2021-06-30T11:48:02Z</time>
      </trkpt>
      <trkpt lat="43.557758" lon="4.965327">
        <ele>39.78949</ele>
        <time>2021-06-30T11:48:03Z</time>
      </trkpt>
      <trkpt lat="43.557770" lon="4.965295">
        <ele>40.01044</ele>
        <time>2021-06-30T11:48:04Z</time>
      </trkpt>
      <trkpt lat="43.557800" lon="4.965220">
        <ele>40.53601</ele>
        <time>2021-06-30T11:48:05Z</time>
      </trkpt>
      <trkpt lat="43.557877" lon="4.965146">
        <ele>40.45850</ele>
        <time>2021-06-30T11:48:06Z</time>
      </trkpt>
      <trkpt lat="43.557945" lon="4.965094">
        <ele>39.98535</ele>
        <time>2021-06-30T11:48:07Z</time>
      </trkpt>
      <trkpt lat="43.558182" lon="4.964862">
        <ele>39.40985</ele>
        <time>2021-06-30T11:48:08Z</time>
      </trkpt>
      <trkpt lat="43.558357" lon="4.964681">
        <ele>39.71899</ele>
        <time>2021-06-30T11:48:09Z</time>
      </trkpt>
      <trkpt lat="43.558529" lon="4.964511">
        <ele>39.46039</ele>
        <time>2021-06-30T11:48:10Z</time>
      </trkpt>
      <trkpt lat="43.558529" lon="4.964511">
        <ele>38.83887</ele>
        <time>2021-06-30T11:48:11Z</time>
      </trkpt>
      <trkpt lat="43.558739" lon="4.964309">
        <ele>38.78027</ele>
        <time>2021-06-30T11:48:12Z</time>
      </trkpt>
      <trkpt lat="43.558945" lon="4.964132">
        <ele>37.56744</ele>
        <time>2021-06-30T11:48:13Z</time>
      </trkpt>
      <trkpt lat="43.559155" lon="4.963957">
        <ele>36.92401</ele>
        <time>2021-06-30T11:48:14Z</time>
      </trkpt>
      <trkpt lat="43.559372" lon="4.963762">
        <ele>36.65668</ele>
        <time>2021-06-30T11:48:15Z</time>
      </trkpt>
      <trkpt lat="43.559586" lon="4.963592">
        <ele>36.80792</ele>
        <time>2021-06-30T11:48:16Z</time>
      </trkpt>
      <trkpt lat="43.559803" lon="4.963429">
        <ele>36.84637</ele>
        <time>2021-06-30T11:48:17Z</time>
      </trkpt>
      <trkpt lat="43.559971" lon="4.963303">
        <ele>36.58179</ele>
        <time>2021-06-30T11:48:18Z</time>
      </trkpt>
      <trkpt lat="43.560143" lon="4.963173">
        <ele>36.46851</ele>
        <time>2021-06-30T11:48:19Z</time>
      </trkpt>
      <trkpt lat="43.560318" lon="4.963044">
        <ele>37.08777</ele>
        <time>2021-06-30T11:48:20Z</time>
      </trkpt>
      <trkpt lat="43.560505" lon="4.962912">
        <ele>37.30432</ele>
        <time>2021-06-30T11:48:21Z</time>
      </trkpt>
      <trkpt lat="43.560661" lon="4.962849">
        <ele>36.43805</ele>
        <time>2021-06-30T11:48:22Z</time>
      </trkpt>
      <trkpt lat="43.560818" lon="4.962728">
        <ele>36.30725</ele>
        <time>2021-06-30T11:48:23Z</time>
      </trkpt>
      <trkpt lat="43.560844" lon="4.962707">
        <ele>35.59406</ele>
        <time>2021-06-30T11:48:24Z</time>
      </trkpt>
      <trkpt lat="43.560844" lon="4.962706">
        <ele>35.67383</ele>
        <time>2021-06-30T11:48:25Z</time>
      </trkpt>
      <trkpt lat="43.560844" lon="4.962706">
        <ele>34.31775</ele>
        <time>2021-06-30T11:48:26Z</time>
      </trkpt>
      <trkpt lat="43.560940" lon="4.962780">
        <ele>34.05890</ele>
        <time>2021-06-30T11:48:27Z</time>
      </trkpt>
      <trkpt lat="43.561172" lon="4.962962">
        <ele>33.49463</ele>
        <time>2021-06-30T11:48:28Z</time>
      </trkpt>
      <trkpt lat="43.561283" lon="4.963046">
        <ele>34.05334</ele>
        <time>2021-06-30T11:48:29Z</time>
      </trkpt>
      <trkpt lat="43.561371" lon="4.963086">
        <ele>34.90808</ele>
        <time>2021-06-30T11:48:30Z</time>
      </trkpt>
      <trkpt lat="43.561451" lon="4.963094">
        <ele>34.98682</ele>
        <time>2021-06-30T11:48:31Z</time>
      </trkpt>
      <trkpt lat="43.561531" lon="4.963111">
        <ele>34.19434</ele>
        <time>2021-06-30T11:48:32Z</time>
      </trkpt>
      <trkpt lat="43.561558" lon="4.963125">
        <ele>33.38873</ele>
        <time>2021-06-30T11:48:33Z</time>
      </trkpt>
      <trkpt lat="43.561558" lon="4.963125">
        <ele>31.88025</ele>
        <time>2021-06-30T11:48:34Z</time>
      </trkpt>
      <trkpt lat="43.561558" lon="4.963125">
        <ele>31.02222</ele>
        <time>2021-06-30T11:48:35Z</time>
      </trkpt>
      <trkpt lat="43.561558" lon="4.963125">
        <ele>31.30115</ele>
        <time>2021-06-30T11:48:36Z</time>
      </trkpt>
      <trkpt lat="43.561558" lon="4.963125">
        <ele>30.54712</ele>
        <time>2021-06-30T11:48:37Z</time>
      </trkpt>
      <trkpt lat="43.561558" lon="4.963125">
        <ele>30.46826</ele>
        <time>2021-06-30T11:48:38Z</time>
      </trkpt>
      <trkpt lat="43.561558" lon="4.963125">
        <ele>30.70844</ele>
        <time>2021-06-30T11:48:39Z</time>
      </trkpt>
      <trkpt lat="43.561558" lon="4.963125">
        <ele>30.04211</ele>
        <time>2021-06-30T11:48:40Z</time>
      </trkpt>
      <trkpt lat="43.561558" lon="4.963125">
        <ele>30.15088</ele>
        <time>2021-06-30T11:48:41Z</time>
      </trkpt>
      <trkpt lat="43.561558" lon="4.963125">
        <ele>30.49805</ele>
        <time>2021-06-30T11:48:42Z</time>
      </trkpt>
      <trkpt lat="43.561558" lon="4.963125">
        <ele>30.12598</ele>
        <time>2021-06-30T11:48:43Z</time>
      </trkpt>
      <trkpt lat="43.561558" lon="4.963125">
        <ele>28.05096</ele>
        <time>2021-06-30T11:48:44Z</time>
      </trkpt>
      <trkpt lat="43.561558" lon="4.963125">
        <ele>26.07300</ele>
        <time>2021-06-30T11:48:45Z</time>
      </trkpt>
      <trkpt lat="43.561558" lon="4.963125">
        <ele>26.28668</ele>
        <time>2021-06-30T11:48:46Z</time>
      </trkpt>
      <trkpt lat="43.561558" lon="4.963125">
        <ele>26.08551</ele>
        <time>2021-06-30T11:48:47Z</time>
      </trkpt>
      <trkpt lat="43.561558" lon="4.963125">
        <ele>26.10620</ele>
        <time>2021-06-30T11:48:48Z</time>
      </trkpt>
      <trkpt lat="43.561558" lon="4.963125">
        <ele>26.06384</ele>
        <time>2021-06-30T11:48:49Z</time>
      </trkpt>
      <trkpt lat="43.561558" lon="4.963125">
        <ele>25.62292</ele>
        <time>2021-06-30T11:48:50Z</time>
      </trkpt>
      <trkpt lat="43.561558" lon="4.963125">
        <ele>25.99506</ele>
        <time>2021-06-30T11:48:51Z</time>
      </trkpt>
      <trkpt lat="43.561558" lon="4.963125">
        <ele>26.37799</ele>
        <time>2021-06-30T11:48:52Z</time>
      </trkpt>
      <trkpt lat="43.561558" lon="4.963125">
        <ele>26.47882</ele>
        <time>2021-06-30T11:48:53Z</time>
      </trkpt>
      <trkpt lat="43.561558" lon="4.963125">
        <ele>26.39539</ele>
        <time>2021-06-30T11:48:54Z</time>
      </trkpt>
      <trkpt lat="43.561558" lon="4.963125">
        <ele>26.86841</ele>
        <time>2021-06-30T11:48:55Z</time>
      </trkpt>
      <trkpt lat="43.561558" lon="4.963125">
        <ele>25.87714</ele>
        <time>2021-06-30T11:48:56Z</time>
      </trkpt>
      <trkpt lat="43.561558" lon="4.963125">
        <ele>25.61707</ele>
        <time>2021-06-30T11:48:57Z</time>
      </trkpt>
      <trkpt lat="43.561558" lon="4.963125">
        <ele>25.27979</ele>
        <time>2021-06-30T11:48:58Z</time>
      </trkpt>
      <trkpt lat="43.561558" lon="4.963125">
        <ele>25.91931</ele>
        <time>2021-06-30T11:48:59Z</time>
      </trkpt>
      <trkpt lat="43.561558" lon="4.963125">
        <ele>25.43964</ele>
        <time>2021-06-30T11:49:00Z</time>
      </trkpt>
      <trkpt lat="43.561558" lon="4.963125">
        <ele>24.70209</ele>
        <time>2021-06-30T11:49:01Z</time>
      </trkpt>
      <trkpt lat="43.561558" lon="4.963125">
        <ele>23.83429</ele>
        <time>2021-06-30T11:49:02Z</time>
      </trkpt>
      <trkpt lat="43.561558" lon="4.963125">
        <ele>23.46954</ele>
        <time>2021-06-30T11:49:03Z</time>
      </trkpt>
      <trkpt lat="43.561558" lon="4.963125">
        <ele>22.58881</ele>
        <time>2021-06-30T11:49:04Z</time>
      </trkpt>
      <trkpt lat="43.561558" lon="4.963125">
        <ele>22.93512</ele>
        <time>2021-06-30T11:49:05Z</time>
      </trkpt>
      <trkpt lat="43.561558" lon="4.963125">
        <ele>23.29938</ele>
        <time>2021-06-30T11:49:06Z</time>
      </trkpt>
      <trkpt lat="43.561558" lon="4.963125">
        <ele>23.28186</ele>
        <time>2021-06-30T11:49:07Z</time>
      </trkpt>
      <trkpt lat="43.561558" lon="4.963125">
        <ele>24.05988</ele>
        <time>2021-06-30T11:49:08Z</time>
      </trkpt>
      <trkpt lat="43.561558" lon="4.963125">
        <ele>24.56409</ele>
        <time>2021-06-30T11:49:09Z</time>
      </trkpt>
      <trkpt lat="43.561558" lon="4.963125">
        <ele>24.48096</ele>
        <time>2021-06-30T11:49:10Z</time>
      </trkpt>
      <trkpt lat="43.561558" lon="4.963125">
        <ele>24.89343</ele>
        <time>2021-06-30T11:49:11Z</time>
      </trkpt>
      <trkpt lat="43.561558" lon="4.963125">
        <ele>25.39233</ele>
        <time>2021-06-30T11:49:12Z</time>
      </trkpt>
      <trkpt lat="43.561558" lon="4.963125">
        <ele>25.88391</ele>
        <time>2021-06-30T11:49:13Z</time>
      </trkpt>
      <trkpt lat="43.561558" lon="4.963125">
        <ele>26.26257</ele>
        <time>2021-06-30T11:49:14Z</time>
      </trkpt>
      <trkpt lat="43.561558" lon="4.963125">
        <ele>26.34851</ele>
        <time>2021-06-30T11:49:15Z</time>
      </trkpt>
      <trkpt lat="43.561558" lon="4.963125">
        <ele>26.48444</ele>
        <time>2021-06-30T11:49:16Z</time>
      </trkpt>
      <trkpt lat="43.561558" lon="4.963125">
        <ele>26.41479</ele>
        <time>2021-06-30T11:49:17Z</time>
      </trkpt>
      <trkpt lat="43.561558" lon="4.963125">
        <ele>26.28259</ele>
        <time>2021-06-30T11:49:18Z</time>
      </trkpt>
      <trkpt lat="43.561558" lon="4.963125">
        <ele>25.97778</ele>
        <time>2021-06-30T11:49:19Z</time>
      </trkpt>
      <trkpt lat="43.561558" lon="4.963125">
        <ele>25.71082</ele>
        <time>2021-06-30T11:49:20Z</time>
      </trkpt>
      <trkpt lat="43.561558" lon="4.963125">
        <ele>25.90369</ele>
        <time>2021-06-30T11:49:21Z</time>
      </trkpt>
      <trkpt lat="43.561558" lon="4.963125">
        <ele>26.12671</ele>
        <time>2021-06-30T11:49:22Z</time>
      </trkpt>
      <trkpt lat="43.561558" lon="4.963125">
        <ele>26.35132</ele>
        <time>2021-06-30T11:49:23Z</time>
      </trkpt>
      <trkpt lat="43.561558" lon="4.963125">
        <ele>26.76825</ele>
        <time>2021-06-30T11:49:24Z</time>
      </trkpt>
      <trkpt lat="43.561558" lon="4.963125">
        <ele>26.97046</ele>
        <time>2021-06-30T11:49:25Z</time>
      </trkpt>
      <trkpt lat="43.561558" lon="4.963125">
        <ele>27.85181</ele>
        <time>2021-06-30T11:49:26Z</time>
      </trkpt>
      <trkpt lat="43.561558" lon="4.963125">
        <ele>28.28076</ele>
        <time>2021-06-30T11:49:27Z</time>
      </trkpt>
      <trkpt lat="43.561562" lon="4.963126">
        <ele>28.35297</ele>
        <time>2021-06-30T11:49:28Z</time>
      </trkpt>
      <trkpt lat="43.561596" lon="4.963144">
        <ele>29.02734</ele>
        <time>2021-06-30T11:49:29Z</time>
      </trkpt>
      <trkpt lat="43.561611" lon="4.963153">
        <ele>29.46643</ele>
        <time>2021-06-30T11:49:30Z</time>
      </trkpt>
      <trkpt lat="43.561710" lon="4.963197">
        <ele>29.49438</ele>
        <time>2021-06-30T11:49:31Z</time>
      </trkpt>
      <trkpt lat="43.561722" lon="4.963201">
        <ele>30.23920</ele>
        <time>2021-06-30T11:49:32Z</time>
      </trkpt>
      <trkpt lat="43.561760" lon="4.963217">
        <ele>29.73663</ele>
        <time>2021-06-30T11:49:33Z</time>
      </trkpt>
      <trkpt lat="43.561760" lon="4.963217">
        <ele>29.22150</ele>
        <time>2021-06-30T11:49:34Z</time>
      </trkpt>
      <trkpt lat="43.561760" lon="4.963217">
        <ele>29.11420</ele>
        <time>2021-06-30T11:49:35Z</time>
      </trkpt>
      <trkpt lat="43.561760" lon="4.963217">
        <ele>29.11023</ele>
        <time>2021-06-30T11:49:36Z</time>
      </trkpt>
      <trkpt lat="43.561760" lon="4.963217">
        <ele>29.20306</ele>
        <time>2021-06-30T11:49:37Z</time>
      </trkpt>
      <trkpt lat="43.561760" lon="4.963217">
        <ele>29.25482</ele>
        <time>2021-06-30T11:49:38Z</time>
      </trkpt>
      <trkpt lat="43.561760" lon="4.963217">
        <ele>29.73322</ele>
        <time>2021-06-30T11:49:39Z</time>
      </trkpt>
      <trkpt lat="43.561760" lon="4.963217">
        <ele>30.51727</ele>
        <time>2021-06-30T11:49:40Z</time>
      </trkpt>
      <trkpt lat="43.561760" lon="4.963217">
        <ele>30.73779</ele>
        <time>2021-06-30T11:49:41Z</time>
      </trkpt>
      <trkpt lat="43.561760" lon="4.963217">
        <ele>32.16071</ele>
        <time>2021-06-30T11:49:42Z</time>
      </trkpt>
      <trkpt lat="43.561760" lon="4.963217">
        <ele>31.93134</ele>
        <time>2021-06-30T11:49:43Z</time>
      </trkpt>
      <trkpt lat="43.561760" lon="4.963217">
        <ele>27.67822</ele>
        <time>2021-06-30T11:49:44Z</time>
      </trkpt>
      <trkpt lat="43.561760" lon="4.963217">
        <ele>28.81488</ele>
        <time>2021-06-30T11:49:45Z</time>
      </trkpt>
      <trkpt lat="43.561760" lon="4.963217">
        <ele>26.73054</ele>
        <time>2021-06-30T11:49:46Z</time>
      </trkpt>
      <trkpt lat="43.561760" lon="4.963217">
        <ele>26.75414</ele>
        <time>2021-06-30T11:49:47Z</time>
      </trkpt>
      <trkpt lat="43.561760" lon="4.963217">
        <ele>26.56057</ele>
        <time>2021-06-30T11:49:48Z</time>
      </trkpt>
      <trkpt lat="43.561760" lon="4.963217">
        <ele>28.42755</ele>
        <time>2021-06-30T11:49:49Z</time>
      </trkpt>
      <trkpt lat="43.561760" lon="4.963217">
        <ele>29.20758</ele>
        <time>2021-06-30T11:49:50Z</time>
      </trkpt>
      <trkpt lat="43.561760" lon="4.963217">
        <ele>29.62891</ele>
        <time>2021-06-30T11:49:51Z</time>
      </trkpt>
      <trkpt lat="43.561760" lon="4.963217">
        <ele>26.92642</ele>
        <time>2021-06-30T11:49:52Z</time>
      </trkpt>
      <trkpt lat="43.561760" lon="4.963217">
        <ele>26.74623</ele>
        <time>2021-06-30T11:49:53Z</time>
      </trkpt>
      <trkpt lat="43.561760" lon="4.963217">
        <ele>26.53108</ele>
        <time>2021-06-30T11:49:54Z</time>
      </trkpt>
      <trkpt lat="43.561760" lon="4.963217">
        <ele>26.55734</ele>
        <time>2021-06-30T11:49:55Z</time>
      </trkpt>
      <trkpt lat="43.561760" lon="4.963217">
        <ele>26.49489</ele>
        <time>2021-06-30T11:49:56Z</time>
      </trkpt>
      <trkpt lat="43.561760" lon="4.963217">
        <ele>26.60336</ele>
        <time>2021-06-30T11:49:57Z</time>
      </trkpt>
      <trkpt lat="43.561760" lon="4.963217">
        <ele>26.54047</ele>
        <time>2021-06-30T11:49:58Z</time>
      </trkpt>
      <trkpt lat="43.561760" lon="4.963217">
        <ele>26.40337</ele>
        <time>2021-06-30T11:49:59Z</time>
      </trkpt>
      <trkpt lat="43.561760" lon="4.963217">
        <ele>27.72766</ele>
        <time>2021-06-30T11:50:00Z</time>
      </trkpt>
      <trkpt lat="43.561760" lon="4.963217">
        <ele>28.01569</ele>
        <time>2021-06-30T11:50:01Z</time>
      </trkpt>
      <trkpt lat="43.561760" lon="4.963217">
        <ele>26.31618</ele>
        <time>2021-06-30T11:50:02Z</time>
      </trkpt>
      <trkpt lat="43.561760" lon="4.963217">
        <ele>26.58645</ele>
        <time>2021-06-30T11:50:03Z</time>
      </trkpt>
      <trkpt lat="43.561760" lon="4.963217">
        <ele>26.46615</ele>
        <time>2021-06-30T11:50:04Z</time>
      </trkpt>
      <trkpt lat="43.561760" lon="4.963217">
        <ele>26.52462</ele>
        <time>2021-06-30T11:50:05Z</time>
      </trkpt>
      <trkpt lat="43.561760" lon="4.963217">
        <ele>26.49613</ele>
        <time>2021-06-30T11:50:06Z</time>
      </trkpt>
      <trkpt lat="43.561760" lon="4.963217">
        <ele>26.35663</ele>
        <time>2021-06-30T11:50:07Z</time>
      </trkpt>
      <trkpt lat="43.561760" lon="4.963217">
        <ele>26.48779</ele>
        <time>2021-06-30T11:50:08Z</time>
      </trkpt>
      <trkpt lat="43.561760" lon="4.963217">
        <ele>26.65516</ele>
        <time>2021-06-30T11:50:09Z</time>
      </trkpt>
      <trkpt lat="43.561760" lon="4.963217">
        <ele>26.66696</ele>
        <time>2021-06-30T11:50:10Z</time>
      </trkpt>
      <trkpt lat="43.561760" lon="4.963217">
        <ele>26.64398</ele>
        <time>2021-06-30T11:50:11Z</time>
      </trkpt>
      <trkpt lat="43.561760" lon="4.963217">
        <ele>26.65017</ele>
        <time>2021-06-30T11:50:12Z</time>
      </trkpt>
      <trkpt lat="43.561760" lon="4.963217">
        <ele>26.97601</ele>
        <time>2021-06-30T11:50:13Z</time>
      </trkpt>
      <trkpt lat="43.561760" lon="4.963217">
        <ele>27.05246</ele>
        <time>2021-06-30T11:50:14Z</time>
      </trkpt>
      <trkpt lat="43.561760" lon="4.963217">
        <ele>26.92329</ele>
        <time>2021-06-30T11:50:15Z</time>
      </trkpt>
      <trkpt lat="43.561760" lon="4.963217">
        <ele>27.64288</ele>
        <time>2021-06-30T11:50:16Z</time>
      </trkpt>
      <trkpt lat="43.561760" lon="4.963217">
        <ele>27.44763</ele>
        <time>2021-06-30T11:50:17Z</time>
      </trkpt>
      <trkpt lat="43.561760" lon="4.963217">
        <ele>27.23083</ele>
        <time>2021-06-30T11:50:18Z</time>
      </trkpt>
      <trkpt lat="43.561760" lon="4.963217">
        <ele>26.63251</ele>
        <time>2021-06-30T11:50:19Z</time>
      </trkpt>
      <trkpt lat="43.561760" lon="4.963217">
        <ele>26.48042</ele>
        <time>2021-06-30T11:50:20Z</time>
      </trkpt>
      <trkpt lat="43.561760" lon="4.963217">
        <ele>26.53234</ele>
        <time>2021-06-30T11:50:21Z</time>
      </trkpt>
      <trkpt lat="43.561760" lon="4.963217">
        <ele>27.57715</ele>
        <time>2021-06-30T11:50:22Z</time>
      </trkpt>
      <trkpt lat="43.561760" lon="4.963217">
        <ele>27.98511</ele>
        <time>2021-06-30T11:50:23Z</time>
      </trkpt>
      <trkpt lat="43.561760" lon="4.963217">
        <ele>27.65399</ele>
        <time>2021-06-30T11:50:24Z</time>
      </trkpt>
      <trkpt lat="43.561760" lon="4.963217">
        <ele>27.40387</ele>
        <time>2021-06-30T11:50:25Z</time>
      </trkpt>
      <trkpt lat="43.561760" lon="4.963217">
        <ele>27.80463</ele>
        <time>2021-06-30T11:50:26Z</time>
      </trkpt>
      <trkpt lat="43.561760" lon="4.963217">
        <ele>28.10004</ele>
        <time>2021-06-30T11:50:27Z</time>
      </trkpt>
      <trkpt lat="43.561760" lon="4.963217">
        <ele>29.04309</ele>
        <time>2021-06-30T11:50:28Z</time>
      </trkpt>
      <trkpt lat="43.561760" lon="4.963217">
        <ele>30.21320</ele>
        <time>2021-06-30T11:50:29Z</time>
      </trkpt>
      <trkpt lat="43.561760" lon="4.963217">
        <ele>29.42572</ele>
        <time>2021-06-30T11:50:30Z</time>
      </trkpt>
      <trkpt lat="43.561760" lon="4.963217">
        <ele>29.22174</ele>
        <time>2021-06-30T11:50:31Z</time>
      </trkpt>
      <trkpt lat="43.561760" lon="4.963217">
        <ele>26.90747</ele>
        <time>2021-06-30T11:50:32Z</time>
      </trkpt>
      <trkpt lat="43.561760" lon="4.963217">
        <ele>26.82162</ele>
        <time>2021-06-30T11:50:33Z</time>
      </trkpt>
      <trkpt lat="43.561760" lon="4.963217">
        <ele>26.85663</ele>
        <time>2021-06-30T11:50:34Z</time>
      </trkpt>
      <trkpt lat="43.561760" lon="4.963217">
        <ele>26.98370</ele>
        <time>2021-06-30T11:50:35Z</time>
      </trkpt>
      <trkpt lat="43.561760" lon="4.963217">
        <ele>26.80626</ele>
        <time>2021-06-30T11:50:36Z</time>
      </trkpt>
      <trkpt lat="43.561760" lon="4.963217">
        <ele>27.00117</ele>
        <time>2021-06-30T11:50:37Z</time>
      </trkpt>
      <trkpt lat="43.561760" lon="4.963217">
        <ele>27.04187</ele>
        <time>2021-06-30T11:50:38Z</time>
      </trkpt>
      <trkpt lat="43.561760" lon="4.963217">
        <ele>27.11201</ele>
        <time>2021-06-30T11:50:39Z</time>
      </trkpt>
      <trkpt lat="43.561760" lon="4.963217">
        <ele>27.27033</ele>
        <time>2021-06-30T11:50:40Z</time>
      </trkpt>
      <trkpt lat="43.561760" lon="4.963217">
        <ele>27.41135</ele>
        <time>2021-06-30T11:50:41Z</time>
      </trkpt>
      <trkpt lat="43.561760" lon="4.963217">
        <ele>27.22190</ele>
        <time>2021-06-30T11:50:42Z</time>
      </trkpt>
      <trkpt lat="43.561760" lon="4.963217">
        <ele>27.03796</ele>
        <time>2021-06-30T11:50:43Z</time>
      </trkpt>
      <trkpt lat="43.561760" lon="4.963217">
        <ele>26.81033</ele>
        <time>2021-06-30T11:50:44Z</time>
      </trkpt>
      <trkpt lat="43.561760" lon="4.963217">
        <ele>26.92834</ele>
        <time>2021-06-30T11:50:45Z</time>
      </trkpt>
      <trkpt lat="43.561760" lon="4.963217">
        <ele>26.75411</ele>
        <time>2021-06-30T11:50:46Z</time>
      </trkpt>
      <trkpt lat="43.561760" lon="4.963217">
        <ele>27.12266</ele>
        <time>2021-06-30T11:50:47Z</time>
      </trkpt>
      <trkpt lat="43.561760" lon="4.963217">
        <ele>27.05942</ele>
        <time>2021-06-30T11:50:48Z</time>
      </trkpt>
      <trkpt lat="43.561760" lon="4.963217">
        <ele>28.59290</ele>
        <time>2021-06-30T11:50:49Z</time>
      </trkpt>
      <trkpt lat="43.561760" lon="4.963217">
        <ele>29.38397</ele>
        <time>2021-06-30T11:50:50Z</time>
      </trkpt>
      <trkpt lat="43.561760" lon="4.963217">
        <ele>29.78027</ele>
        <time>2021-06-30T11:50:51Z</time>
      </trkpt>
      <trkpt lat="43.561760" lon="4.963217">
        <ele>29.73859</ele>
        <time>2021-06-30T11:50:52Z</time>
      </trkpt>
      <trkpt lat="43.561760" lon="4.963217">
        <ele>29.99176</ele>
        <time>2021-06-30T11:50:53Z</time>
      </trkpt>
      <trkpt lat="43.561760" lon="4.963217">
        <ele>30.56848</ele>
        <time>2021-06-30T11:50:54Z</time>
      </trkpt>
      <trkpt lat="43.561760" lon="4.963217">
        <ele>30.51611</ele>
        <time>2021-06-30T11:50:55Z</time>
      </trkpt>
      <trkpt lat="43.561764" lon="4.963218">
        <ele>31.02448</ele>
        <time>2021-06-30T11:50:56Z</time>
      </trkpt>
      <trkpt lat="43.561798" lon="4.963232">
        <ele>31.16193</ele>
        <time>2021-06-30T11:50:57Z</time>
      </trkpt>
      <trkpt lat="43.561840" lon="4.963245">
        <ele>31.22150</ele>
        <time>2021-06-30T11:50:58Z</time>
      </trkpt>
      <trkpt lat="43.561874" lon="4.963252">
        <ele>30.88470</ele>
        <time>2021-06-30T11:50:59Z</time>
      </trkpt>
      <trkpt lat="43.561901" lon="4.963251">
        <ele>30.52216</ele>
        <time>2021-06-30T11:51:00Z</time>
      </trkpt>
      <trkpt lat="43.561905" lon="4.963250">
        <ele>30.86871</ele>
        <time>2021-06-30T11:51:01Z</time>
      </trkpt>
      <trkpt lat="43.561905" lon="4.963250">
        <ele>31.77173</ele>
        <time>2021-06-30T11:51:02Z</time>
      </trkpt>
      <trkpt lat="43.561905" lon="4.963250">
        <ele>32.00952</ele>
        <time>2021-06-30T11:51:03Z</time>
      </trkpt>
      <trkpt lat="43.561905" lon="4.963250">
        <ele>31.99585</ele>
        <time>2021-06-30T11:51:04Z</time>
      </trkpt>
      <trkpt lat="43.561905" lon="4.963250">
        <ele>31.52545</ele>
        <time>2021-06-30T11:51:05Z</time>
      </trkpt>
      <trkpt lat="43.561905" lon="4.963250">
        <ele>27.18173</ele>
        <time>2021-06-30T11:51:06Z</time>
      </trkpt>
      <trkpt lat="43.561905" lon="4.963250">
        <ele>28.29865</ele>
        <time>2021-06-30T11:51:07Z</time>
      </trkpt>
      <trkpt lat="43.561905" lon="4.963250">
        <ele>28.56958</ele>
        <time>2021-06-30T11:51:08Z</time>
      </trkpt>
      <trkpt lat="43.561905" lon="4.963250">
        <ele>28.48688</ele>
        <time>2021-06-30T11:51:09Z</time>
      </trkpt>
      <trkpt lat="43.561905" lon="4.963250">
        <ele>26.94878</ele>
        <time>2021-06-30T11:51:10Z</time>
      </trkpt>
      <trkpt lat="43.561905" lon="4.963250">
        <ele>26.88486</ele>
        <time>2021-06-30T11:51:11Z</time>
      </trkpt>
      <trkpt lat="43.561905" lon="4.963250">
        <ele>26.95307</ele>
        <time>2021-06-30T11:51:12Z</time>
      </trkpt>
      <trkpt lat="43.561905" lon="4.963250">
        <ele>27.28940</ele>
        <time>2021-06-30T11:51:13Z</time>
      </trkpt>
      <trkpt lat="43.561905" lon="4.963250">
        <ele>27.16848</ele>
        <time>2021-06-30T11:51:14Z</time>
      </trkpt>
      <trkpt lat="43.561905" lon="4.963250">
        <ele>27.42036</ele>
        <time>2021-06-30T11:51:15Z</time>
      </trkpt>
      <trkpt lat="43.561905" lon="4.963250">
        <ele>27.34181</ele>
        <time>2021-06-30T11:51:16Z</time>
      </trkpt>
      <trkpt lat="43.561905" lon="4.963250">
        <ele>27.26044</ele>
        <time>2021-06-30T11:51:17Z</time>
      </trkpt>
      <trkpt lat="43.561905" lon="4.963250">
        <ele>27.34165</ele>
        <time>2021-06-30T11:51:18Z</time>
      </trkpt>
      <trkpt lat="43.561905" lon="4.963250">
        <ele>27.56491</ele>
        <time>2021-06-30T11:51:19Z</time>
      </trkpt>
      <trkpt lat="43.561905" lon="4.963250">
        <ele>27.83279</ele>
        <time>2021-06-30T11:51:20Z</time>
      </trkpt>
      <trkpt lat="43.561905" lon="4.963250">
        <ele>27.91995</ele>
        <time>2021-06-30T11:51:21Z</time>
      </trkpt>
      <trkpt lat="43.561905" lon="4.963250">
        <ele>27.85476</ele>
        <time>2021-06-30T11:51:22Z</time>
      </trkpt>
      <trkpt lat="43.561905" lon="4.963250">
        <ele>27.74772</ele>
        <time>2021-06-30T11:51:23Z</time>
      </trkpt>
      <trkpt lat="43.561905" lon="4.963250">
        <ele>27.79981</ele>
        <time>2021-06-30T11:51:24Z</time>
      </trkpt>
      <trkpt lat="43.561905" lon="4.963250">
        <ele>27.94863</ele>
        <time>2021-06-30T11:51:25Z</time>
      </trkpt>
      <trkpt lat="43.561905" lon="4.963250">
        <ele>28.07584</ele>
        <time>2021-06-30T11:51:26Z</time>
      </trkpt>
      <trkpt lat="43.561905" lon="4.963250">
        <ele>27.89066</ele>
        <time>2021-06-30T11:51:27Z</time>
      </trkpt>
      <trkpt lat="43.561905" lon="4.963250">
        <ele>27.77351</ele>
        <time>2021-06-30T11:51:28Z</time>
      </trkpt>
      <trkpt lat="43.561905" lon="4.963250">
        <ele>27.85142</ele>
        <time>2021-06-30T11:51:29Z</time>
      </trkpt>
      <trkpt lat="43.561905" lon="4.963250">
        <ele>27.99954</ele>
        <time>2021-06-30T11:51:30Z</time>
      </trkpt>
      <trkpt lat="43.568249" lon="4.960534">
        <ele>38.08746</ele>
        <time>2021-06-30T12:03:27Z</time>
      </trkpt>
      <trkpt lat="43.568241" lon="4.960464">
        <ele>37.93646</ele>
        <time>2021-06-30T12:03:28Z</time>
      </trkpt>
      <trkpt lat="43.568241" lon="4.960464">
        <ele>37.86957</ele>
        <time>2021-06-30T12:03:29Z</time>
      </trkpt>
      <trkpt lat="43.568233" lon="4.960317">
        <ele>38.21857</ele>
        <time>2021-06-30T12:03:30Z</time>
      </trkpt>
      <trkpt lat="43.568108" lon="4.959887">
        <ele>38.43384</ele>
        <time>2021-06-30T12:03:31Z</time>
      </trkpt>
      <trkpt lat="43.568077" lon="4.959791">
        <ele>38.26801</ele>
        <time>2021-06-30T12:03:32Z</time>
      </trkpt>
      <trkpt lat="43.568050" lon="4.959717">
        <ele>39.17847</ele>
        <time>2021-06-30T12:03:33Z</time>
      </trkpt>
      <trkpt lat="43.568050" lon="4.959717">
        <ele>38.57751</ele>
        <time>2021-06-30T12:03:34Z</time>
      </trkpt>
      <trkpt lat="43.568031" lon="4.959666">
        <ele>38.59839</ele>
        <time>2021-06-30T12:03:35Z</time>
      </trkpt>
      <trkpt lat="43.568012" lon="4.959607">
        <ele>38.34259</ele>
        <time>2021-06-30T12:03:36Z</time>
      </trkpt>
      <trkpt lat="43.568035" lon="4.959492">
        <ele>39.12286</ele>
        <time>2021-06-30T12:03:37Z</time>
      </trkpt>
      <trkpt lat="43.568211" lon="4.959328">
        <ele>38.69849</ele>
        <time>2021-06-30T12:03:38Z</time>
      </trkpt>
      <trkpt lat="43.568417" lon="4.959359">
        <ele>38.08826</ele>
        <time>2021-06-30T12:03:39Z</time>
      </trkpt>
      <trkpt lat="43.568478" lon="4.959369">
        <ele>38.23206</ele>
        <time>2021-06-30T12:03:40Z</time>
      </trkpt>
      <trkpt lat="43.568558" lon="4.959381">
        <ele>38.16052</ele>
        <time>2021-06-30T12:03:41Z</time>
      </trkpt>
      <trkpt lat="43.568623" lon="4.959391">
        <ele>38.27026</ele>
        <time>2021-06-30T12:03:42Z</time>
      </trkpt>
      <trkpt lat="43.568573" lon="4.959818">
        <ele>38.68243</ele>
        <time>2021-06-30T12:03:43Z</time>
      </trkpt>
      <trkpt lat="43.568600" lon="4.959920">
        <ele>39.45984</ele>
        <time>2021-06-30T12:03:44Z</time>
      </trkpt>
      <trkpt lat="43.568584" lon="4.959976">
        <ele>39.53235</ele>
        <time>2021-06-30T12:03:45Z</time>
      </trkpt>
      <trkpt lat="43.568588" lon="4.960042">
        <ele>39.77588</ele>
        <time>2021-06-30T12:03:46Z</time>
      </trkpt>
      <trkpt lat="43.568634" lon="4.960055">
        <ele>39.82825</ele>
        <time>2021-06-30T12:03:47Z</time>
      </trkpt>
      <trkpt lat="43.568649" lon="4.960063">
        <ele>37.88452</ele>
        <time>2021-06-30T12:03:48Z</time>
      </trkpt>
      <trkpt lat="43.568672" lon="4.960087">
        <ele>37.39166</ele>
        <time>2021-06-30T12:03:49Z</time>
      </trkpt>
      <trkpt lat="43.568623" lon="4.960085">
        <ele>38.76953</ele>
        <time>2021-06-30T12:03:50Z</time>
      </trkpt>
      <trkpt lat="43.568619" lon="4.960101">
        <ele>38.65131</ele>
        <time>2021-06-30T12:03:51Z</time>
      </trkpt>
      <trkpt lat="43.568615" lon="4.960087">
        <ele>38.61426</ele>
        <time>2021-06-30T12:03:52Z</time>
      </trkpt>
      <trkpt lat="43.568558" lon="4.959971">
        <ele>38.80920</ele>
        <time>2021-06-30T12:03:53Z</time>
      </trkpt>
      <trkpt lat="43.568577" lon="4.959980">
        <ele>38.88446</ele>
        <time>2021-06-30T12:03:54Z</time>
      </trkpt>
      <trkpt lat="43.568569" lon="4.959976">
        <ele>38.99060</ele>
        <time>2021-06-30T12:03:55Z</time>
      </trkpt>
      <trkpt lat="43.568577" lon="4.959985">
        <ele>37.08032</ele>
        <time>2021-06-30T12:03:56Z</time>
      </trkpt>
      <trkpt lat="43.568584" lon="4.959997">
        <ele>37.35730</ele>
        <time>2021-06-30T12:03:57Z</time>
      </trkpt>
      <trkpt lat="43.568584" lon="4.960003">
        <ele>37.02301</ele>
        <time>2021-06-30T12:03:58Z</time>
      </trkpt>
      <trkpt lat="43.568584" lon="4.960003">
        <ele>37.64465</ele>
        <time>2021-06-30T12:03:59Z</time>
      </trkpt>
      <trkpt lat="43.568584" lon="4.960003">
        <ele>37.02814</ele>
        <time>2021-06-30T12:04:00Z</time>
      </trkpt>
      <trkpt lat="43.568584" lon="4.960003">
        <ele>37.18933</ele>
        <time>2021-06-30T12:04:01Z</time>
      </trkpt>
      <trkpt lat="43.568584" lon="4.960003">
        <ele>38.80145</ele>
        <time>2021-06-30T12:04:02Z</time>
      </trkpt>
      <trkpt lat="43.568665" lon="4.959956">
        <ele>39.22607</ele>
        <time>2021-06-30T16:42:49Z</time>
      </trkpt>
      <trkpt lat="43.568729" lon="4.959936">
        <ele>40.43964</ele>
        <time>2021-06-30T16:42:50Z</time>
      </trkpt>
      <trkpt lat="43.568729" lon="4.959936">
        <ele>39.23596</ele>
        <time>2021-06-30T16:42:51Z</time>
      </trkpt>
      <trkpt lat="43.568836" lon="4.960025">
        <ele>39.18662</ele>
        <time>2021-06-30T16:42:52Z</time>
      </trkpt>
      <trkpt lat="43.568867" lon="4.960068">
        <ele>39.25634</ele>
        <time>2021-06-30T16:42:53Z</time>
      </trkpt>
      <trkpt lat="43.568848" lon="4.960098">
        <ele>38.94556</ele>
        <time>2021-06-30T16:42:54Z</time>
      </trkpt>
      <trkpt lat="43.568829" lon="4.960095">
        <ele>39.14390</ele>
        <time>2021-06-30T16:42:55Z</time>
      </trkpt>
      <trkpt lat="43.568836" lon="4.960129">
        <ele>39.31051</ele>
        <time>2021-06-30T16:42:56Z</time>
      </trkpt>
      <trkpt lat="43.568840" lon="4.960156">
        <ele>39.40309</ele>
        <time>2021-06-30T16:42:57Z</time>
      </trkpt>
      <trkpt lat="43.568840" lon="4.960193">
        <ele>39.22819</ele>
        <time>2021-06-30T16:42:58Z</time>
      </trkpt>
      <trkpt lat="43.568829" lon="4.960225">
        <ele>39.11043</ele>
        <time>2021-06-30T16:42:59Z</time>
      </trkpt>
      <trkpt lat="43.568718" lon="4.960255">
        <ele>39.15100</ele>
        <time>2021-06-30T16:43:00Z</time>
      </trkpt>
      <trkpt lat="43.568672" lon="4.960283">
        <ele>39.37720</ele>
        <time>2021-06-30T16:43:01Z</time>
      </trkpt>
      <trkpt lat="43.568607" lon="4.960319">
        <ele>39.89902</ele>
        <time>2021-06-30T16:43:02Z</time>
      </trkpt>
      <trkpt lat="43.568531" lon="4.960358">
        <ele>39.60756</ele>
        <time>2021-06-30T16:43:03Z</time>
      </trkpt>
      <trkpt lat="43.568436" lon="4.960406">
        <ele>39.67262</ele>
        <time>2021-06-30T16:43:04Z</time>
      </trkpt>
      <trkpt lat="43.568375" lon="4.960428">
        <ele>39.70211</ele>
        <time>2021-06-30T16:43:05Z</time>
      </trkpt>
      <trkpt lat="43.568375" lon="4.960428">
        <ele>39.59405</ele>
        <time>2021-06-30T16:43:06Z</time>
      </trkpt>
      <trkpt lat="43.568317" lon="4.960444">
        <ele>39.56623</ele>
        <time>2021-06-30T16:43:07Z</time>
      </trkpt>
      <trkpt lat="43.568287" lon="4.960452">
        <ele>39.87132</ele>
        <time>2021-06-30T16:43:08Z</time>
      </trkpt>
      <trkpt lat="43.568283" lon="4.960453">
        <ele>39.80867</ele>
        <time>2021-06-30T16:43:09Z</time>
      </trkpt>
      <trkpt lat="43.568256" lon="4.960460">
        <ele>40.23765</ele>
        <time>2021-06-30T16:43:10Z</time>
      </trkpt>
      <trkpt lat="43.568245" lon="4.960495">
        <ele>40.37793</ele>
        <time>2021-06-30T16:43:11Z</time>
      </trkpt>
      <trkpt lat="43.568237" lon="4.960612">
        <ele>39.99979</ele>
        <time>2021-06-30T16:43:12Z</time>
      </trkpt>
      <trkpt lat="43.568218" lon="4.960736">
        <ele>40.22001</ele>
        <time>2021-06-30T16:43:13Z</time>
      </trkpt>
      <trkpt lat="43.568134" lon="4.960880">
        <ele>40.36761</ele>
        <time>2021-06-30T16:43:14Z</time>
      </trkpt>
      <trkpt lat="43.568043" lon="4.960991">
        <ele>40.69633</ele>
        <time>2021-06-30T16:43:15Z</time>
      </trkpt>
      <trkpt lat="43.567928" lon="4.961107">
        <ele>41.46725</ele>
        <time>2021-06-30T16:43:16Z</time>
      </trkpt>
      <trkpt lat="43.567780" lon="4.961227">
        <ele>41.36012</ele>
        <time>2021-06-30T16:43:17Z</time>
      </trkpt>
      <trkpt lat="43.567638" lon="4.961341">
        <ele>41.55292</ele>
        <time>2021-06-30T16:43:18Z</time>
      </trkpt>
      <trkpt lat="43.567497" lon="4.961456">
        <ele>41.40100</ele>
        <time>2021-06-30T16:43:19Z</time>
      </trkpt>
      <trkpt lat="43.567352" lon="4.961560">
        <ele>41.22743</ele>
        <time>2021-06-30T16:43:20Z</time>
      </trkpt>
      <trkpt lat="43.567352" lon="4.961560">
        <ele>41.37283</ele>
        <time>2021-06-30T16:43:21Z</time>
      </trkpt>
      <trkpt lat="43.567200" lon="4.961673">
        <ele>41.40737</ele>
        <time>2021-06-30T16:43:22Z</time>
      </trkpt>
      <trkpt lat="43.567047" lon="4.961772">
        <ele>41.55041</ele>
        <time>2021-06-30T16:43:23Z</time>
      </trkpt>
      <trkpt lat="43.566895" lon="4.961846">
        <ele>41.45400</ele>
        <time>2021-06-30T16:43:24Z</time>
      </trkpt>
      <trkpt lat="43.566738" lon="4.961906">
        <ele>41.18719</ele>
        <time>2021-06-30T16:43:25Z</time>
      </trkpt>
      <trkpt lat="43.566566" lon="4.961961">
        <ele>41.28958</ele>
        <time>2021-06-30T16:43:26Z</time>
      </trkpt>
      <trkpt lat="43.566406" lon="4.962013">
        <ele>41.37973</ele>
        <time>2021-06-30T16:43:27Z</time>
      </trkpt>
      <trkpt lat="43.566219" lon="4.962072">
        <ele>41.33249</ele>
        <time>2021-06-30T16:43:28Z</time>
      </trkpt>
      <trkpt lat="43.566036" lon="4.962132">
        <ele>41.12189</ele>
        <time>2021-06-30T16:43:29Z</time>
      </trkpt>
      <trkpt lat="43.565853" lon="4.962194">
        <ele>41.17973</ele>
        <time>2021-06-30T16:43:30Z</time>
      </trkpt>
      <trkpt lat="43.565689" lon="4.962250">
        <ele>40.99475</ele>
        <time>2021-06-30T16:43:31Z</time>
      </trkpt>
      <trkpt lat="43.565548" lon="4.962298">
        <ele>40.11336</ele>
        <time>2021-06-30T16:43:32Z</time>
      </trkpt>
      <trkpt lat="43.565548" lon="4.962298">
        <ele>39.92935</ele>
        <time>2021-06-30T16:43:33Z</time>
      </trkpt>
      <trkpt lat="43.565392" lon="4.962362">
        <ele>39.94976</ele>
        <time>2021-06-30T16:43:34Z</time>
      </trkpt>
      <trkpt lat="43.565258" lon="4.962422">
        <ele>39.32629</ele>
        <time>2021-06-30T16:43:35Z</time>
      </trkpt>
      <trkpt lat="43.565125" lon="4.962483">
        <ele>38.81213</ele>
        <time>2021-06-30T16:43:36Z</time>
      </trkpt>
      <trkpt lat="43.565010" lon="4.962562">
        <ele>39.15033</ele>
        <time>2021-06-30T16:43:37Z</time>
      </trkpt>
      <trkpt lat="43.564869" lon="4.962677">
        <ele>38.52551</ele>
        <time>2021-06-30T16:43:38Z</time>
      </trkpt>
      <trkpt lat="43.564751" lon="4.962768">
        <ele>35.53230</ele>
        <time>2021-06-30T16:43:39Z</time>
      </trkpt>
      <trkpt lat="43.564674" lon="4.962792">
        <ele>34.84509</ele>
        <time>2021-06-30T16:43:40Z</time>
      </trkpt>
      <trkpt lat="43.564571" lon="4.962781">
        <ele>34.81288</ele>
        <time>2021-06-30T16:43:41Z</time>
      </trkpt>
      <trkpt lat="43.564472" lon="4.962734">
        <ele>34.22372</ele>
        <time>2021-06-30T16:43:42Z</time>
      </trkpt>
      <trkpt lat="43.564358" lon="4.962668">
        <ele>34.32146</ele>
        <time>2021-06-30T16:43:43Z</time>
      </trkpt>
      <trkpt lat="43.564266" lon="4.962599">
        <ele>34.47585</ele>
        <time>2021-06-30T16:43:44Z</time>
      </trkpt>
      <trkpt lat="43.564224" lon="4.962566">
        <ele>34.87161</ele>
        <time>2021-06-30T16:43:45Z</time>
      </trkpt>
      <trkpt lat="43.564114" lon="4.962486">
        <ele>35.20551</ele>
        <time>2021-06-30T16:43:46Z</time>
      </trkpt>
      <trkpt lat="43.564030" lon="4.962418">
        <ele>35.25277</ele>
        <time>2021-06-30T16:43:47Z</time>
      </trkpt>
      <trkpt lat="43.563934" lon="4.962341">
        <ele>35.14852</ele>
        <time>2021-06-30T16:43:48Z</time>
      </trkpt>
      <trkpt lat="43.563896" lon="4.962310">
        <ele>35.31893</ele>
        <time>2021-06-30T16:43:49Z</time>
      </trkpt>
      <trkpt lat="43.563896" lon="4.962310">
        <ele>35.61566</ele>
        <time>2021-06-30T16:43:50Z</time>
      </trkpt>
      <trkpt lat="43.563850" lon="4.962273">
        <ele>35.93248</ele>
        <time>2021-06-30T16:43:51Z</time>
      </trkpt>
      <trkpt lat="43.563808" lon="4.962437">
        <ele>38.31824</ele>
        <time>2021-06-30T16:43:52Z</time>
      </trkpt>
      <trkpt lat="43.563766" lon="4.962505">
        <ele>36.61415</ele>
        <time>2021-06-30T16:43:53Z</time>
      </trkpt>
      <trkpt lat="43.563679" lon="4.962644">
        <ele>37.61344</ele>
        <time>2021-06-30T16:43:54Z</time>
      </trkpt>
      <trkpt lat="43.563602" lon="4.962767">
        <ele>38.43341</ele>
        <time>2021-06-30T16:43:55Z</time>
      </trkpt>
      <trkpt lat="43.563534" lon="4.962850">
        <ele>39.28515</ele>
        <time>2021-06-30T16:43:56Z</time>
      </trkpt>
      <trkpt lat="43.563450" lon="4.962941">
        <ele>40.03167</ele>
        <time>2021-06-30T16:43:57Z</time>
      </trkpt>
      <trkpt lat="43.563362" lon="4.963030">
        <ele>40.29837</ele>
        <time>2021-06-30T16:43:58Z</time>
      </trkpt>
      <trkpt lat="43.563362" lon="4.963030">
        <ele>40.16156</ele>
        <time>2021-06-30T16:43:59Z</time>
      </trkpt>
      <trkpt lat="43.563293" lon="4.963102">
        <ele>39.99081</ele>
        <time>2021-06-30T16:44:00Z</time>
      </trkpt>
      <trkpt lat="43.563232" lon="4.963166">
        <ele>39.89375</ele>
        <time>2021-06-30T16:44:01Z</time>
      </trkpt>
      <trkpt lat="43.563187" lon="4.963213">
        <ele>41.69006</ele>
        <time>2021-06-30T16:44:02Z</time>
      </trkpt>
      <trkpt lat="43.563175" lon="4.963227">
        <ele>41.81812</ele>
        <time>2021-06-30T16:44:03Z</time>
      </trkpt>
      <trkpt lat="43.563152" lon="4.963249">
        <ele>39.55035</ele>
        <time>2021-06-30T16:44:04Z</time>
      </trkpt>
      <trkpt lat="43.563152" lon="4.963252">
        <ele>39.60640</ele>
        <time>2021-06-30T16:44:05Z</time>
      </trkpt>
      <trkpt lat="43.563129" lon="4.963275">
        <ele>39.77762</ele>
        <time>2021-06-30T16:44:06Z</time>
      </trkpt>
      <trkpt lat="43.563126" lon="4.963279">
        <ele>40.01333</ele>
        <time>2021-06-30T16:44:07Z</time>
      </trkpt>
      <trkpt lat="43.563126" lon="4.963279">
        <ele>40.14146</ele>
        <time>2021-06-30T16:44:08Z</time>
      </trkpt>
      <trkpt lat="43.563126" lon="4.963279">
        <ele>40.24055</ele>
        <time>2021-06-30T16:44:09Z</time>
      </trkpt>
      <trkpt lat="43.563126" lon="4.963279">
        <ele>40.41579</ele>
        <time>2021-06-30T16:44:10Z</time>
      </trkpt>
      <trkpt lat="43.563126" lon="4.963279">
        <ele>40.24981</ele>
        <time>2021-06-30T16:44:11Z</time>
      </trkpt>
      <trkpt lat="43.563126" lon="4.963279">
        <ele>40.32880</ele>
        <time>2021-06-30T16:44:12Z</time>
      </trkpt>
      <trkpt lat="43.563126" lon="4.963279">
        <ele>40.23991</ele>
        <time>2021-06-30T16:44:13Z</time>
      </trkpt>
      <trkpt lat="43.563126" lon="4.963279">
        <ele>40.32753</ele>
        <time>2021-06-30T16:44:14Z</time>
      </trkpt>
      <trkpt lat="43.563126" lon="4.963279">
        <ele>40.32200</ele>
        <time>2021-06-30T16:44:15Z</time>
      </trkpt>
      <trkpt lat="43.563126" lon="4.963279">
        <ele>40.27521</ele>
        <time>2021-06-30T16:44:16Z</time>
      </trkpt>
      <trkpt lat="43.563126" lon="4.963279">
        <ele>40.31778</ele>
        <time>2021-06-30T16:44:17Z</time>
      </trkpt>
      <trkpt lat="43.563126" lon="4.963279">
        <ele>40.29401</ele>
        <time>2021-06-30T16:44:18Z</time>
      </trkpt>
      <trkpt lat="43.563126" lon="4.963279">
        <ele>40.26635</ele>
        <time>2021-06-30T16:44:19Z</time>
      </trkpt>
      <trkpt lat="43.563126" lon="4.963279">
        <ele>40.33282</ele>
        <time>2021-06-30T16:44:20Z</time>
      </trkpt>
      <trkpt lat="43.563126" lon="4.963279">
        <ele>40.39832</ele>
        <time>2021-06-30T16:44:21Z</time>
      </trkpt>
      <trkpt lat="43.563126" lon="4.963279">
        <ele>40.24237</ele>
        <time>2021-06-30T16:44:22Z</time>
      </trkpt>
      <trkpt lat="43.563126" lon="4.963279">
        <ele>40.23644</ele>
        <time>2021-06-30T16:44:23Z</time>
      </trkpt>
      <trkpt lat="43.563126" lon="4.963279">
        <ele>40.24144</ele>
        <time>2021-06-30T16:44:24Z</time>
      </trkpt>
      <trkpt lat="43.563126" lon="4.963279">
        <ele>40.29324</ele>
        <time>2021-06-30T16:44:25Z</time>
      </trkpt>
      <trkpt lat="43.563126" lon="4.963279">
        <ele>40.31410</ele>
        <time>2021-06-30T16:44:26Z</time>
      </trkpt>
      <trkpt lat="43.563126" lon="4.963279">
        <ele>40.35421</ele>
        <time>2021-06-30T16:44:27Z</time>
      </trkpt>
      <trkpt lat="43.563126" lon="4.963279">
        <ele>40.31438</ele>
        <time>2021-06-30T16:44:28Z</time>
      </trkpt>
      <trkpt lat="43.563126" lon="4.963279">
        <ele>40.24371</ele>
        <time>2021-06-30T16:44:29Z</time>
      </trkpt>
      <trkpt lat="43.563126" lon="4.963279">
        <ele>40.25412</ele>
        <time>2021-06-30T16:44:30Z</time>
      </trkpt>
      <trkpt lat="43.563126" lon="4.963279">
        <ele>40.22659</ele>
        <time>2021-06-30T16:44:31Z</time>
      </trkpt>
      <trkpt lat="43.563126" lon="4.963279">
        <ele>40.19122</ele>
        <time>2021-06-30T16:44:32Z</time>
      </trkpt>
      <trkpt lat="43.563126" lon="4.963279">
        <ele>40.30244</ele>
        <time>2021-06-30T16:44:33Z</time>
      </trkpt>
      <trkpt lat="43.563126" lon="4.963279">
        <ele>40.34581</ele>
        <time>2021-06-30T16:44:34Z</time>
      </trkpt>
      <trkpt lat="43.563126" lon="4.963279">
        <ele>40.32754</ele>
        <time>2021-06-30T16:44:35Z</time>
      </trkpt>
      <trkpt lat="43.563126" lon="4.963279">
        <ele>40.32766</ele>
        <time>2021-06-30T16:44:36Z</time>
      </trkpt>
      <trkpt lat="43.563126" lon="4.963279">
        <ele>40.32633</ele>
        <time>2021-06-30T16:44:37Z</time>
      </trkpt>
      <trkpt lat="43.563126" lon="4.963279">
        <ele>40.37709</ele>
        <time>2021-06-30T16:44:38Z</time>
      </trkpt>
      <trkpt lat="43.563126" lon="4.963279">
        <ele>40.41093</ele>
        <time>2021-06-30T16:44:39Z</time>
      </trkpt>
      <trkpt lat="43.563126" lon="4.963279">
        <ele>40.41626</ele>
        <time>2021-06-30T16:44:40Z</time>
      </trkpt>
      <trkpt lat="43.563126" lon="4.963279">
        <ele>40.40459</ele>
        <time>2021-06-30T16:44:41Z</time>
      </trkpt>
      <trkpt lat="43.563126" lon="4.963279">
        <ele>40.32574</ele>
        <time>2021-06-30T16:44:42Z</time>
      </trkpt>
      <trkpt lat="43.563126" lon="4.963279">
        <ele>40.26915</ele>
        <time>2021-06-30T16:44:43Z</time>
      </trkpt>
      <trkpt lat="43.563126" lon="4.963279">
        <ele>40.24420</ele>
        <time>2021-06-30T16:44:44Z</time>
      </trkpt>
      <trkpt lat="43.563126" lon="4.963279">
        <ele>40.24171</ele>
        <time>2021-06-30T16:44:45Z</time>
      </trkpt>
      <trkpt lat="43.563126" lon="4.963279">
        <ele>40.22046</ele>
        <time>2021-06-30T16:44:46Z</time>
      </trkpt>
      <trkpt lat="43.563126" lon="4.963279">
        <ele>40.18804</ele>
        <time>2021-06-30T16:44:47Z</time>
      </trkpt>
      <trkpt lat="43.563126" lon="4.963279">
        <ele>40.18692</ele>
        <time>2021-06-30T16:44:48Z</time>
      </trkpt>
      <trkpt lat="43.563126" lon="4.963279">
        <ele>40.19351</ele>
        <time>2021-06-30T16:44:49Z</time>
      </trkpt>
      <trkpt lat="43.563126" lon="4.963279">
        <ele>40.26303</ele>
        <time>2021-06-30T16:44:50Z</time>
      </trkpt>
      <trkpt lat="43.563126" lon="4.963279">
        <ele>40.23617</ele>
        <time>2021-06-30T16:44:51Z</time>
      </trkpt>
      <trkpt lat="43.563126" lon="4.963279">
        <ele>40.19969</ele>
        <time>2021-06-30T16:44:52Z</time>
      </trkpt>
      <trkpt lat="43.563126" lon="4.963279">
        <ele>40.17064</ele>
        <time>2021-06-30T16:44:53Z</time>
      </trkpt>
      <trkpt lat="43.563126" lon="4.963279">
        <ele>40.21225</ele>
        <time>2021-06-30T16:44:54Z</time>
      </trkpt>
      <trkpt lat="43.563126" lon="4.963279">
        <ele>40.29677</ele>
        <time>2021-06-30T16:44:55Z</time>
      </trkpt>
      <trkpt lat="43.563126" lon="4.963279">
        <ele>40.22107</ele>
        <time>2021-06-30T16:44:56Z</time>
      </trkpt>
      <trkpt lat="43.563126" lon="4.963279">
        <ele>40.15942</ele>
        <time>2021-06-30T16:44:57Z</time>
      </trkpt>
      <trkpt lat="43.563126" lon="4.963279">
        <ele>40.16022</ele>
        <time>2021-06-30T16:44:58Z</time>
      </trkpt>
      <trkpt lat="43.563126" lon="4.963279">
        <ele>40.16531</ele>
        <time>2021-06-30T16:44:59Z</time>
      </trkpt>
      <trkpt lat="43.563126" lon="4.963279">
        <ele>40.21771</ele>
        <time>2021-06-30T16:45:00Z</time>
      </trkpt>
      <trkpt lat="43.563126" lon="4.963279">
        <ele>40.24823</ele>
        <time>2021-06-30T16:45:01Z</time>
      </trkpt>
      <trkpt lat="43.563126" lon="4.963279">
        <ele>40.23943</ele>
        <time>2021-06-30T16:45:02Z</time>
      </trkpt>
      <trkpt lat="43.563126" lon="4.963279">
        <ele>40.31094</ele>
        <time>2021-06-30T16:45:03Z</time>
      </trkpt>
      <trkpt lat="43.563126" lon="4.963279">
        <ele>40.26033</ele>
        <time>2021-06-30T16:45:04Z</time>
      </trkpt>
      <trkpt lat="43.563126" lon="4.963279">
        <ele>40.23376</ele>
        <time>2021-06-30T16:45:05Z</time>
      </trkpt>
      <trkpt lat="43.563126" lon="4.963279">
        <ele>40.31036</ele>
        <time>2021-06-30T16:45:06Z</time>
      </trkpt>
      <trkpt lat="43.563126" lon="4.963279">
        <ele>40.35274</ele>
        <time>2021-06-30T16:45:07Z</time>
      </trkpt>
      <trkpt lat="43.563126" lon="4.963279">
        <ele>40.39723</ele>
        <time>2021-06-30T16:45:08Z</time>
      </trkpt>
      <trkpt lat="43.563126" lon="4.963279">
        <ele>40.33870</ele>
        <time>2021-06-30T16:45:09Z</time>
      </trkpt>
      <trkpt lat="43.563126" lon="4.963279">
        <ele>40.32627</ele>
        <time>2021-06-30T16:45:10Z</time>
      </trkpt>
      <trkpt lat="43.563126" lon="4.963279">
        <ele>40.41335</ele>
        <time>2021-06-30T16:45:11Z</time>
      </trkpt>
      <trkpt lat="43.563126" lon="4.963279">
        <ele>40.41248</ele>
        <time>2021-06-30T16:45:12Z</time>
      </trkpt>
      <trkpt lat="43.563126" lon="4.963279">
        <ele>40.48024</ele>
        <time>2021-06-30T16:45:13Z</time>
      </trkpt>
      <trkpt lat="43.563126" lon="4.963279">
        <ele>40.37649</ele>
        <time>2021-06-30T16:45:14Z</time>
      </trkpt>
      <trkpt lat="43.563126" lon="4.963279">
        <ele>40.39641</ele>
        <time>2021-06-30T16:45:15Z</time>
      </trkpt>
      <trkpt lat="43.563126" lon="4.963279">
        <ele>40.14959</ele>
        <time>2021-06-30T16:45:16Z</time>
      </trkpt>
      <trkpt lat="43.563126" lon="4.963279">
        <ele>40.45146</ele>
        <time>2021-06-30T16:45:17Z</time>
      </trkpt>
      <trkpt lat="43.563126" lon="4.963279">
        <ele>40.62975</ele>
        <time>2021-06-30T16:45:18Z</time>
      </trkpt>
      <trkpt lat="43.563107" lon="4.963297">
        <ele>43.71198</ele>
        <time>2021-06-30T16:45:19Z</time>
      </trkpt>
      <trkpt lat="43.563038" lon="4.963371">
        <ele>43.02151</ele>
        <time>2021-06-30T16:45:20Z</time>
      </trkpt>
      <trkpt lat="43.562965" lon="4.963444">
        <ele>41.72608</ele>
        <time>2021-06-30T16:45:21Z</time>
      </trkpt>
      <trkpt lat="43.562881" lon="4.963535">
        <ele>40.70041</ele>
        <time>2021-06-30T16:45:22Z</time>
      </trkpt>
      <trkpt lat="43.562820" lon="4.963586">
        <ele>40.85681</ele>
        <time>2021-06-30T16:45:23Z</time>
      </trkpt>
      <trkpt lat="43.562691" lon="4.963614">
        <ele>40.70105</ele>
        <time>2021-06-30T16:45:24Z</time>
      </trkpt>
      <trkpt lat="43.562691" lon="4.963614">
        <ele>40.59094</ele>
        <time>2021-06-30T16:45:25Z</time>
      </trkpt>
      <trkpt lat="43.562660" lon="4.963614">
        <ele>41.01239</ele>
        <time>2021-06-30T16:45:26Z</time>
      </trkpt>
      <trkpt lat="43.562611" lon="4.963615">
        <ele>41.20282</ele>
        <time>2021-06-30T16:45:27Z</time>
      </trkpt>
      <trkpt lat="43.562565" lon="4.963611">
        <ele>41.65173</ele>
        <time>2021-06-30T16:45:28Z</time>
      </trkpt>
      <trkpt lat="43.562485" lon="4.963581">
        <ele>41.49438</ele>
        <time>2021-06-30T16:45:29Z</time>
      </trkpt>
      <trkpt lat="43.562439" lon="4.963548">
        <ele>41.32959</ele>
        <time>2021-06-30T16:45:30Z</time>
      </trkpt>
      <trkpt lat="43.562332" lon="4.963444">
        <ele>41.07690</ele>
        <time>2021-06-30T16:45:31Z</time>
      </trkpt>
      <trkpt lat="43.562267" lon="4.963377">
        <ele>40.68939</ele>
        <time>2021-06-30T16:45:32Z</time>
      </trkpt>
      <trkpt lat="43.562195" lon="4.963305">
        <ele>40.99017</ele>
        <time>2021-06-30T16:45:33Z</time>
      </trkpt>
      <trkpt lat="43.562153" lon="4.963260">
        <ele>40.62579</ele>
        <time>2021-06-30T16:45:34Z</time>
      </trkpt>
      <trkpt lat="43.562092" lon="4.963199">
        <ele>40.94812</ele>
        <time>2021-06-30T16:45:35Z</time>
      </trkpt>
      <trkpt lat="43.562057" lon="4.963108">
        <ele>41.30634</ele>
        <time>2021-06-30T16:45:36Z</time>
      </trkpt>
      <trkpt lat="43.561939" lon="4.963246">
        <ele>39.76315</ele>
        <time>2021-06-30T16:45:37Z</time>
      </trkpt>
      <trkpt lat="43.561890" lon="4.963252">
        <ele>40.92474</ele>
        <time>2021-06-30T16:45:38Z</time>
      </trkpt>
      <trkpt lat="43.561890" lon="4.963252">
        <ele>41.36493</ele>
        <time>2021-06-30T16:45:39Z</time>
      </trkpt>
      <trkpt lat="43.561840" lon="4.963245">
        <ele>41.52179</ele>
        <time>2021-06-30T16:45:40Z</time>
      </trkpt>
      <trkpt lat="43.561794" lon="4.963231">
        <ele>41.57306</ele>
        <time>2021-06-30T16:45:41Z</time>
      </trkpt>
      <trkpt lat="43.561749" lon="4.963213">
        <ele>41.84521</ele>
        <time>2021-06-30T16:45:42Z</time>
      </trkpt>
      <trkpt lat="43.561726" lon="4.963203">
        <ele>42.21906</ele>
        <time>2021-06-30T16:45:43Z</time>
      </trkpt>
      <trkpt lat="43.561722" lon="4.963201">
        <ele>39.60376</ele>
        <time>2021-06-30T16:45:44Z</time>
      </trkpt>
      <trkpt lat="43.561722" lon="4.963200">
        <ele>39.82294</ele>
        <time>2021-06-30T16:45:45Z</time>
      </trkpt>
      <trkpt lat="43.561722" lon="4.963200">
        <ele>39.96740</ele>
        <time>2021-06-30T16:45:46Z</time>
      </trkpt>
      <trkpt lat="43.561722" lon="4.963200">
        <ele>40.07963</ele>
        <time>2021-06-30T16:45:47Z</time>
      </trkpt>
      <trkpt lat="43.561722" lon="4.963200">
        <ele>40.19310</ele>
        <time>2021-06-30T16:45:48Z</time>
      </trkpt>
      <trkpt lat="43.561722" lon="4.963200">
        <ele>40.34298</ele>
        <time>2021-06-30T16:45:49Z</time>
      </trkpt>
      <trkpt lat="43.561722" lon="4.963200">
        <ele>40.22795</ele>
        <time>2021-06-30T16:45:50Z</time>
      </trkpt>
      <trkpt lat="43.561722" lon="4.963200">
        <ele>40.36023</ele>
        <time>2021-06-30T16:45:51Z</time>
      </trkpt>
      <trkpt lat="43.561722" lon="4.963200">
        <ele>40.42920</ele>
        <time>2021-06-30T16:45:52Z</time>
      </trkpt>
      <trkpt lat="43.561722" lon="4.963200">
        <ele>40.35490</ele>
        <time>2021-06-30T16:45:53Z</time>
      </trkpt>
      <trkpt lat="43.561722" lon="4.963200">
        <ele>40.34003</ele>
        <time>2021-06-30T16:45:54Z</time>
      </trkpt>
      <trkpt lat="43.561722" lon="4.963200">
        <ele>40.53478</ele>
        <time>2021-06-30T16:45:55Z</time>
      </trkpt>
      <trkpt lat="43.561722" lon="4.963200">
        <ele>40.37243</ele>
        <time>2021-06-30T16:45:56Z</time>
      </trkpt>
      <trkpt lat="43.561722" lon="4.963200">
        <ele>40.64793</ele>
        <time>2021-06-30T16:45:57Z</time>
      </trkpt>
      <trkpt lat="43.561722" lon="4.963200">
        <ele>40.66024</ele>
        <time>2021-06-30T16:45:58Z</time>
      </trkpt>
      <trkpt lat="43.561722" lon="4.963200">
        <ele>40.39312</ele>
        <time>2021-06-30T16:45:59Z</time>
      </trkpt>
      <trkpt lat="43.561722" lon="4.963200">
        <ele>40.45614</ele>
        <time>2021-06-30T16:46:00Z</time>
      </trkpt>
      <trkpt lat="43.561722" lon="4.963200">
        <ele>40.33532</ele>
        <time>2021-06-30T16:46:01Z</time>
      </trkpt>
      <trkpt lat="43.561722" lon="4.963200">
        <ele>40.51327</ele>
        <time>2021-06-30T16:46:02Z</time>
      </trkpt>
      <trkpt lat="43.561722" lon="4.963200">
        <ele>40.51194</ele>
        <time>2021-06-30T16:46:03Z</time>
      </trkpt>
      <trkpt lat="43.561722" lon="4.963200">
        <ele>40.44223</ele>
        <time>2021-06-30T16:46:04Z</time>
      </trkpt>
      <trkpt lat="43.561722" lon="4.963200">
        <ele>40.25476</ele>
        <time>2021-06-30T16:46:05Z</time>
      </trkpt>
      <trkpt lat="43.561722" lon="4.963200">
        <ele>40.10816</ele>
        <time>2021-06-30T16:46:06Z</time>
      </trkpt>
      <trkpt lat="43.561722" lon="4.963200">
        <ele>40.03959</ele>
        <time>2021-06-30T16:46:07Z</time>
      </trkpt>
      <trkpt lat="43.561722" lon="4.963200">
        <ele>40.15937</ele>
        <time>2021-06-30T16:46:08Z</time>
      </trkpt>
      <trkpt lat="43.561722" lon="4.963200">
        <ele>39.96893</ele>
        <time>2021-06-30T16:46:09Z</time>
      </trkpt>
      <trkpt lat="43.561722" lon="4.963200">
        <ele>40.18685</ele>
        <time>2021-06-30T16:46:10Z</time>
      </trkpt>
      <trkpt lat="43.561722" lon="4.963200">
        <ele>40.24096</ele>
        <time>2021-06-30T16:46:11Z</time>
      </trkpt>
      <trkpt lat="43.561722" lon="4.963200">
        <ele>40.14435</ele>
        <time>2021-06-30T16:46:12Z</time>
      </trkpt>
      <trkpt lat="43.561722" lon="4.963200">
        <ele>39.97065</ele>
        <time>2021-06-30T16:46:13Z</time>
      </trkpt>
      <trkpt lat="43.561722" lon="4.963200">
        <ele>39.91973</ele>
        <time>2021-06-30T16:46:14Z</time>
      </trkpt>
      <trkpt lat="43.561722" lon="4.963200">
        <ele>40.18365</ele>
        <time>2021-06-30T16:46:15Z</time>
      </trkpt>
      <trkpt lat="43.561722" lon="4.963200">
        <ele>40.03678</ele>
        <time>2021-06-30T16:46:16Z</time>
      </trkpt>
      <trkpt lat="43.561722" lon="4.963200">
        <ele>39.93753</ele>
        <time>2021-06-30T16:46:17Z</time>
      </trkpt>
      <trkpt lat="43.561722" lon="4.963200">
        <ele>39.81893</ele>
        <time>2021-06-30T16:46:18Z</time>
      </trkpt>
      <trkpt lat="43.561722" lon="4.963200">
        <ele>39.57010</ele>
        <time>2021-06-30T16:46:19Z</time>
      </trkpt>
      <trkpt lat="43.561722" lon="4.963200">
        <ele>39.58804</ele>
        <time>2021-06-30T16:46:20Z</time>
      </trkpt>
      <trkpt lat="43.561722" lon="4.963200">
        <ele>39.91707</ele>
        <time>2021-06-30T16:46:21Z</time>
      </trkpt>
      <trkpt lat="43.561699" lon="4.963191">
        <ele>40.31536</ele>
        <time>2021-06-30T16:46:22Z</time>
      </trkpt>
      <trkpt lat="43.561657" lon="4.963174">
        <ele>40.30116</ele>
        <time>2021-06-30T16:46:23Z</time>
      </trkpt>
      <trkpt lat="43.561611" lon="4.963153">
        <ele>40.22172</ele>
        <time>2021-06-30T16:46:24Z</time>
      </trkpt>
      <trkpt lat="43.561611" lon="4.963153">
        <ele>39.57507</ele>
        <time>2021-06-30T16:46:25Z</time>
      </trkpt>
      <trkpt lat="43.561584" lon="4.963138">
        <ele>39.66565</ele>
        <time>2021-06-30T16:46:26Z</time>
      </trkpt>
      <trkpt lat="43.561565" lon="4.963128">
        <ele>39.93481</ele>
        <time>2021-06-30T16:46:27Z</time>
      </trkpt>
      <trkpt lat="43.561535" lon="4.963112">
        <ele>40.23440</ele>
        <time>2021-06-30T16:46:28Z</time>
      </trkpt>
      <trkpt lat="43.561497" lon="4.963081">
        <ele>40.43486</ele>
        <time>2021-06-30T16:46:29Z</time>
      </trkpt>
      <trkpt lat="43.561436" lon="4.962994">
        <ele>40.41609</ele>
        <time>2021-06-30T16:46:30Z</time>
      </trkpt>
      <trkpt lat="43.561356" lon="4.962919">
        <ele>40.40777</ele>
        <time>2021-06-30T16:46:31Z</time>
      </trkpt>
      <trkpt lat="43.561314" lon="4.962891">
        <ele>40.52494</ele>
        <time>2021-06-30T16:46:32Z</time>
      </trkpt>
      <trkpt lat="43.561264" lon="4.962869">
        <ele>40.65144</ele>
        <time>2021-06-30T16:46:33Z</time>
      </trkpt>
      <trkpt lat="43.561230" lon="4.962852">
        <ele>40.32147</ele>
        <time>2021-06-30T16:46:34Z</time>
      </trkpt>
      <trkpt lat="43.561192" lon="4.962835">
        <ele>40.82574</ele>
        <time>2021-06-30T16:46:35Z</time>
      </trkpt>
      <trkpt lat="43.561150" lon="4.962807">
        <ele>40.34999</ele>
        <time>2021-06-30T16:46:36Z</time>
      </trkpt>
      <trkpt lat="43.561150" lon="4.962807">
        <ele>40.45041</ele>
        <time>2021-06-30T16:46:37Z</time>
      </trkpt>
      <trkpt lat="43.561111" lon="4.962753">
        <ele>41.62109</ele>
        <time>2021-06-30T16:46:38Z</time>
      </trkpt>
      <trkpt lat="43.561089" lon="4.962666">
        <ele>41.53680</ele>
        <time>2021-06-30T16:46:39Z</time>
      </trkpt>
      <trkpt lat="43.561081" lon="4.962645">
        <ele>41.21442</ele>
        <time>2021-06-30T16:46:40Z</time>
      </trkpt>
      <trkpt lat="43.561081" lon="4.962645">
        <ele>41.34216</ele>
        <time>2021-06-30T16:46:41Z</time>
      </trkpt>
      <trkpt lat="43.561081" lon="4.962645">
        <ele>41.04388</ele>
        <time>2021-06-30T16:46:42Z</time>
      </trkpt>
      <trkpt lat="43.561077" lon="4.962638">
        <ele>40.52094</ele>
        <time>2021-06-30T16:46:43Z</time>
      </trkpt>
      <trkpt lat="43.561077" lon="4.962638">
        <ele>40.30731</ele>
        <time>2021-06-30T16:46:44Z</time>
      </trkpt>
      <trkpt lat="43.561077" lon="4.962638">
        <ele>40.58240</ele>
        <time>2021-06-30T16:46:45Z</time>
      </trkpt>
      <trkpt lat="43.561077" lon="4.962638">
        <ele>40.43447</ele>
        <time>2021-06-30T16:46:46Z</time>
      </trkpt>
      <trkpt lat="43.561077" lon="4.962638">
        <ele>40.40872</ele>
        <time>2021-06-30T16:46:47Z</time>
      </trkpt>
      <trkpt lat="43.561077" lon="4.962638">
        <ele>40.65452</ele>
        <time>2021-06-30T16:46:48Z</time>
      </trkpt>
      <trkpt lat="43.561077" lon="4.962638">
        <ele>40.54819</ele>
        <time>2021-06-30T16:46:49Z</time>
      </trkpt>
      <trkpt lat="43.561077" lon="4.962638">
        <ele>40.51882</ele>
        <time>2021-06-30T16:46:50Z</time>
      </trkpt>
      <trkpt lat="43.561077" lon="4.962638">
        <ele>40.56857</ele>
        <time>2021-06-30T16:46:51Z</time>
      </trkpt>
      <trkpt lat="43.561077" lon="4.962638">
        <ele>40.48920</ele>
        <time>2021-06-30T16:46:52Z</time>
      </trkpt>
      <trkpt lat="43.561077" lon="4.962638">
        <ele>40.49109</ele>
        <time>2021-06-30T16:46:53Z</time>
      </trkpt>
      <trkpt lat="43.561077" lon="4.962638">
        <ele>40.66968</ele>
        <time>2021-06-30T16:46:54Z</time>
      </trkpt>
      <trkpt lat="43.561077" lon="4.962638">
        <ele>40.59667</ele>
        <time>2021-06-30T16:46:55Z</time>
      </trkpt>
      <trkpt lat="43.561077" lon="4.962638">
        <ele>40.66631</ele>
        <time>2021-06-30T16:46:56Z</time>
      </trkpt>
      <trkpt lat="43.561077" lon="4.962638">
        <ele>40.57346</ele>
        <time>2021-06-30T16:46:57Z</time>
      </trkpt>
      <trkpt lat="43.561077" lon="4.962638">
        <ele>40.55246</ele>
        <time>2021-06-30T16:46:58Z</time>
      </trkpt>
      <trkpt lat="43.561077" lon="4.962638">
        <ele>40.50476</ele>
        <time>2021-06-30T16:46:59Z</time>
      </trkpt>
      <trkpt lat="43.561077" lon="4.962638">
        <ele>40.56508</ele>
        <time>2021-06-30T16:47:00Z</time>
      </trkpt>
      <trkpt lat="43.561077" lon="4.962638">
        <ele>40.46405</ele>
        <time>2021-06-30T16:47:01Z</time>
      </trkpt>
      <trkpt lat="43.561077" lon="4.962638">
        <ele>40.69788</ele>
        <time>2021-06-30T16:47:02Z</time>
      </trkpt>
      <trkpt lat="43.561077" lon="4.962638">
        <ele>40.71322</ele>
        <time>2021-06-30T16:47:03Z</time>
      </trkpt>
      <trkpt lat="43.561077" lon="4.962638">
        <ele>40.82829</ele>
        <time>2021-06-30T16:47:04Z</time>
      </trkpt>
      <trkpt lat="43.561077" lon="4.962638">
        <ele>40.53087</ele>
        <time>2021-06-30T16:47:05Z</time>
      </trkpt>
      <trkpt lat="43.561077" lon="4.962638">
        <ele>40.74335</ele>
        <time>2021-06-30T16:47:06Z</time>
      </trkpt>
      <trkpt lat="43.561073" lon="4.962623">
        <ele>41.31121</ele>
        <time>2021-06-30T16:47:07Z</time>
      </trkpt>
      <trkpt lat="43.561127" lon="4.962510">
        <ele>41.46928</ele>
        <time>2021-06-30T16:47:08Z</time>
      </trkpt>
      <trkpt lat="43.561283" lon="4.962401">
        <ele>42.07140</ele>
        <time>2021-06-30T16:47:09Z</time>
      </trkpt>
      <trkpt lat="43.561420" lon="4.962302">
        <ele>41.47961</ele>
        <time>2021-06-30T16:47:10Z</time>
      </trkpt>
      <trkpt lat="43.561565" lon="4.962201">
        <ele>40.31641</ele>
        <time>2021-06-30T16:47:11Z</time>
      </trkpt>
      <trkpt lat="43.561710" lon="4.962100">
        <ele>40.50836</ele>
        <time>2021-06-30T16:47:12Z</time>
      </trkpt>
      <trkpt lat="43.561836" lon="4.962011">
        <ele>39.93555</ele>
        <time>2021-06-30T16:47:13Z</time>
      </trkpt>
      <trkpt lat="43.561836" lon="4.962011">
        <ele>39.48932</ele>
        <time>2021-06-30T16:47:14Z</time>
      </trkpt>
      <trkpt lat="43.561989" lon="4.961907">
        <ele>39.48950</ele>
        <time>2021-06-30T16:47:15Z</time>
      </trkpt>
      <trkpt lat="43.562130" lon="4.961806">
        <ele>42.46293</ele>
        <time>2021-06-30T16:47:16Z</time>
      </trkpt>
      <trkpt lat="43.562275" lon="4.961697">
        <ele>42.52493</ele>
        <time>2021-06-30T16:47:17Z</time>
      </trkpt>
      <trkpt lat="43.562428" lon="4.961556">
        <ele>42.85942</ele>
        <time>2021-06-30T16:47:18Z</time>
      </trkpt>
      <trkpt lat="43.562599" lon="4.961429">
        <ele>43.43467</ele>
        <time>2021-06-30T16:47:19Z</time>
      </trkpt>
      <trkpt lat="43.562748" lon="4.961317">
        <ele>41.77606</ele>
        <time>2021-06-30T16:47:20Z</time>
      </trkpt>
      <trkpt lat="43.562958" lon="4.961171">
        <ele>41.40405</ele>
        <time>2021-06-30T16:47:21Z</time>
      </trkpt>
      <trkpt lat="43.563141" lon="4.961048">
        <ele>41.52246</ele>
        <time>2021-06-30T16:47:22Z</time>
      </trkpt>
      <trkpt lat="43.563328" lon="4.960910">
        <ele>41.93604</ele>
        <time>2021-06-30T16:47:23Z</time>
      </trkpt>
      <trkpt lat="43.563534" lon="4.960764">
        <ele>41.83539</ele>
        <time>2021-06-30T16:47:24Z</time>
      </trkpt>
      <trkpt lat="43.563728" lon="4.960624">
        <ele>42.18311</ele>
        <time>2021-06-30T16:47:25Z</time>
      </trkpt>
      <trkpt lat="43.563927" lon="4.960484">
        <ele>42.43445</ele>
        <time>2021-06-30T16:47:26Z</time>
      </trkpt>
      <trkpt lat="43.563927" lon="4.960484">
        <ele>42.13525</ele>
        <time>2021-06-30T16:47:27Z</time>
      </trkpt>
      <trkpt lat="43.564163" lon="4.960314">
        <ele>42.27234</ele>
        <time>2021-06-30T16:47:28Z</time>
      </trkpt>
      <trkpt lat="43.564381" lon="4.960160">
        <ele>41.85748</ele>
        <time>2021-06-30T16:47:29Z</time>
      </trkpt>
      <trkpt lat="43.564587" lon="4.960014">
        <ele>41.64124</ele>
        <time>2021-06-30T16:47:30Z</time>
      </trkpt>
      <trkpt lat="43.564804" lon="4.959860">
        <ele>41.55792</ele>
        <time>2021-06-30T16:47:31Z</time>
      </trkpt>
      <trkpt lat="43.565041" lon="4.959691">
        <ele>41.23865</ele>
        <time>2021-06-30T16:47:32Z</time>
      </trkpt>
      <trkpt lat="43.565281" lon="4.959520">
        <ele>40.80170</ele>
        <time>2021-06-30T16:47:33Z</time>
      </trkpt>
      <trkpt lat="43.565514" lon="4.959354">
        <ele>40.78394</ele>
        <time>2021-06-30T16:47:34Z</time>
      </trkpt>
      <trkpt lat="43.565746" lon="4.959188">
        <ele>40.91925</ele>
        <time>2021-06-30T16:47:35Z</time>
      </trkpt>
      <trkpt lat="43.565964" lon="4.959035">
        <ele>41.01447</ele>
        <time>2021-06-30T16:47:36Z</time>
      </trkpt>
      <trkpt lat="43.566185" lon="4.958876">
        <ele>40.76459</ele>
        <time>2021-06-30T16:47:37Z</time>
      </trkpt>
      <trkpt lat="43.566410" lon="4.958713">
        <ele>40.91754</ele>
        <time>2021-06-30T16:47:38Z</time>
      </trkpt>
      <trkpt lat="43.566628" lon="4.958557">
        <ele>40.81775</ele>
        <time>2021-06-30T16:47:39Z</time>
      </trkpt>
      <trkpt lat="43.566856" lon="4.958390">
        <ele>40.56531</ele>
        <time>2021-06-30T16:47:40Z</time>
      </trkpt>
      <trkpt lat="43.566856" lon="4.958390">
        <ele>40.34271</ele>
        <time>2021-06-30T16:47:41Z</time>
      </trkpt>
      <trkpt lat="43.567093" lon="4.958220">
        <ele>40.83240</ele>
        <time>2021-06-30T16:47:42Z</time>
      </trkpt>
      <trkpt lat="43.567322" lon="4.958055">
        <ele>40.69324</ele>
        <time>2021-06-30T16:47:43Z</time>
      </trkpt>
      <trkpt lat="43.567547" lon="4.957892">
        <ele>40.80255</ele>
        <time>2021-06-30T16:47:44Z</time>
      </trkpt>
      <trkpt lat="43.567783" lon="4.957722">
        <ele>40.55316</ele>
        <time>2021-06-30T16:47:45Z</time>
      </trkpt>
      <trkpt lat="43.567997" lon="4.957566">
        <ele>40.57086</ele>
        <time>2021-06-30T16:47:46Z</time>
      </trkpt>
      <trkpt lat="43.568211" lon="4.957411">
        <ele>40.84137</ele>
        <time>2021-06-30T16:47:47Z</time>
      </trkpt>
      <trkpt lat="43.568447" lon="4.957240">
        <ele>40.91187</ele>
        <time>2021-06-30T16:47:48Z</time>
      </trkpt>
      <trkpt lat="43.568714" lon="4.957046">
        <ele>41.20117</ele>
        <time>2021-06-30T16:47:49Z</time>
      </trkpt>
      <trkpt lat="43.568951" lon="4.956873">
        <ele>41.12622</ele>
        <time>2021-06-30T16:47:50Z</time>
      </trkpt>
      <trkpt lat="43.569214" lon="4.956683">
        <ele>41.45105</ele>
        <time>2021-06-30T16:47:51Z</time>
      </trkpt>
      <trkpt lat="43.569214" lon="4.956683">
        <ele>41.76801</ele>
        <time>2021-06-30T16:47:52Z</time>
      </trkpt>
      <trkpt lat="43.569462" lon="4.956503">
        <ele>41.77887</ele>
        <time>2021-06-30T16:47:53Z</time>
      </trkpt>
      <trkpt lat="43.569695" lon="4.956331">
        <ele>42.56317</ele>
        <time>2021-06-30T16:47:54Z</time>
      </trkpt>
      <trkpt lat="43.569931" lon="4.956158">
        <ele>42.24597</ele>
        <time>2021-06-30T16:47:55Z</time>
      </trkpt>
      <trkpt lat="43.570175" lon="4.955988">
        <ele>42.27332</ele>
        <time>2021-06-30T16:47:56Z</time>
      </trkpt>
      <trkpt lat="43.570427" lon="4.955808">
        <ele>42.07111</ele>
        <time>2021-06-30T16:47:57Z</time>
      </trkpt>
      <trkpt lat="43.570686" lon="4.955615">
        <ele>41.86517</ele>
        <time>2021-06-30T16:47:58Z</time>
      </trkpt>
      <trkpt lat="43.570930" lon="4.955434">
        <ele>41.93164</ele>
        <time>2021-06-30T16:47:59Z</time>
      </trkpt>
      <trkpt lat="43.571178" lon="4.955265">
        <ele>41.91357</ele>
        <time>2021-06-30T16:48:00Z</time>
      </trkpt>
      <trkpt lat="43.571411" lon="4.955107">
        <ele>42.08472</ele>
        <time>2021-06-30T16:48:01Z</time>
      </trkpt>
      <trkpt lat="43.571697" lon="4.954915">
        <ele>42.06091</ele>
        <time>2021-06-30T16:48:02Z</time>
      </trkpt>
      <trkpt lat="43.571697" lon="4.954915">
        <ele>42.15778</ele>
        <time>2021-06-30T16:48:03Z</time>
      </trkpt>
      <trkpt lat="43.571960" lon="4.954725">
        <ele>42.17786</ele>
        <time>2021-06-30T16:48:04Z</time>
      </trkpt>
      <trkpt lat="43.572189" lon="4.954557">
        <ele>42.09967</ele>
        <time>2021-06-30T16:48:05Z</time>
      </trkpt>
      <trkpt lat="43.572433" lon="4.954379">
        <ele>42.58588</ele>
        <time>2021-06-30T16:48:06Z</time>
      </trkpt>
      <trkpt lat="43.572704" lon="4.954183">
        <ele>42.57861</ele>
        <time>2021-06-30T16:48:07Z</time>
      </trkpt>
      <trkpt lat="43.572929" lon="4.954020">
        <ele>42.33575</ele>
        <time>2021-06-30T16:48:08Z</time>
      </trkpt>
      <trkpt lat="43.573189" lon="4.953830">
        <ele>42.70215</ele>
        <time>2021-06-30T16:48:09Z</time>
      </trkpt>
      <trkpt lat="43.573425" lon="4.953658">
        <ele>42.56763</ele>
        <time>2021-06-30T16:48:10Z</time>
      </trkpt>
      <trkpt lat="43.573662" lon="4.953487">
        <ele>42.62854</ele>
        <time>2021-06-30T16:48:11Z</time>
      </trkpt>
      <trkpt lat="43.573902" lon="4.953312">
        <ele>42.48059</ele>
        <time>2021-06-30T16:48:12Z</time>
      </trkpt>
      <trkpt lat="43.574146" lon="4.953137">
        <ele>42.20813</ele>
        <time>2021-06-30T16:48:13Z</time>
      </trkpt>
      <trkpt lat="43.574360" lon="4.952983">
        <ele>42.68011</ele>
        <time>2021-06-30T16:48:14Z</time>
      </trkpt>
      <trkpt lat="43.574627" lon="4.952790">
        <ele>42.96820</ele>
        <time>2021-06-30T16:48:15Z</time>
      </trkpt>
      <trkpt lat="43.574883" lon="4.952605">
        <ele>43.08374</ele>
        <time>2021-06-30T16:48:16Z</time>
      </trkpt>
      <trkpt lat="43.574883" lon="4.952605">
        <ele>43.53137</ele>
        <time>2021-06-30T16:48:17Z</time>
      </trkpt>
      <trkpt lat="43.575115" lon="4.952440">
        <ele>43.62537</ele>
        <time>2021-06-30T16:48:18Z</time>
      </trkpt>
      <trkpt lat="43.575375" lon="4.952252">
        <ele>43.15979</ele>
        <time>2021-06-30T16:48:19Z</time>
      </trkpt>
      <trkpt lat="43.575607" lon="4.952084">
        <ele>43.27502</ele>
        <time>2021-06-30T16:48:20Z</time>
      </trkpt>
      <trkpt lat="43.575829" lon="4.951924">
        <ele>43.27722</ele>
        <time>2021-06-30T16:48:21Z</time>
      </trkpt>
      <trkpt lat="43.576046" lon="4.951768">
        <ele>43.09021</ele>
        <time>2021-06-30T16:48:22Z</time>
      </trkpt>
      <trkpt lat="43.576298" lon="4.951587">
        <ele>43.09332</ele>
        <time>2021-06-30T16:48:23Z</time>
      </trkpt>
      <trkpt lat="43.576534" lon="4.951417">
        <ele>42.94043</ele>
        <time>2021-06-30T16:48:24Z</time>
      </trkpt>
      <trkpt lat="43.576763" lon="4.951250">
        <ele>42.69141</ele>
        <time>2021-06-30T16:48:25Z</time>
      </trkpt>
      <trkpt lat="43.576981" lon="4.951093">
        <ele>42.47723</ele>
        <time>2021-06-30T16:48:26Z</time>
      </trkpt>
      <trkpt lat="43.577183" lon="4.950949">
        <ele>42.72168</ele>
        <time>2021-06-30T16:48:27Z</time>
      </trkpt>
      <trkpt lat="43.577385" lon="4.950803">
        <ele>42.97211</ele>
        <time>2021-06-30T16:48:28Z</time>
      </trkpt>
      <trkpt lat="43.577595" lon="4.950653">
        <ele>43.08051</ele>
        <time>2021-06-30T16:48:29Z</time>
      </trkpt>
      <trkpt lat="43.577801" lon="4.950505">
        <ele>43.32477</ele>
        <time>2021-06-30T16:48:30Z</time>
      </trkpt>
      <trkpt lat="43.577999" lon="4.950362">
        <ele>43.31940</ele>
        <time>2021-06-30T16:48:31Z</time>
      </trkpt>
      <trkpt lat="43.577999" lon="4.950362">
        <ele>43.37744</ele>
        <time>2021-06-30T16:48:32Z</time>
      </trkpt>
      <trkpt lat="43.578255" lon="4.950176">
        <ele>43.26666</ele>
        <time>2021-06-30T16:48:33Z</time>
      </trkpt>
      <trkpt lat="43.578472" lon="4.950019">
        <ele>43.71460</ele>
        <time>2021-06-30T16:48:34Z</time>
      </trkpt>
      <trkpt lat="43.578686" lon="4.949865">
        <ele>43.93530</ele>
        <time>2021-06-30T16:48:35Z</time>
      </trkpt>
      <trkpt lat="43.578922" lon="4.949696">
        <ele>43.61066</ele>
        <time>2021-06-30T16:48:36Z</time>
      </trkpt>
      <trkpt lat="43.579166" lon="4.949521">
        <ele>43.24963</ele>
        <time>2021-06-30T16:48:37Z</time>
      </trkpt>
      <trkpt lat="43.579361" lon="4.949380">
        <ele>42.56909</ele>
        <time>2021-06-30T16:48:38Z</time>
      </trkpt>
      <trkpt lat="43.579586" lon="4.949217">
        <ele>42.50916</ele>
        <time>2021-06-30T16:48:39Z</time>
      </trkpt>
      <trkpt lat="43.579788" lon="4.949071">
        <ele>42.10675</ele>
        <time>2021-06-30T16:48:40Z</time>
      </trkpt>
      <trkpt lat="43.580025" lon="4.948907">
        <ele>41.70154</ele>
        <time>2021-06-30T16:48:41Z</time>
      </trkpt>
      <trkpt lat="43.580219" lon="4.948770">
        <ele>40.87335</ele>
        <time>2021-06-30T16:48:42Z</time>
      </trkpt>
      <trkpt lat="43.580219" lon="4.948770">
        <ele>41.30969</ele>
        <time>2021-06-30T16:48:43Z</time>
      </trkpt>
      <trkpt lat="43.580414" lon="4.948633">
        <ele>41.41632</ele>
        <time>2021-06-30T16:48:44Z</time>
      </trkpt>
      <trkpt lat="43.580605" lon="4.948497">
        <ele>41.25476</ele>
        <time>2021-06-30T16:48:45Z</time>
      </trkpt>
      <trkpt lat="43.580833" lon="4.948338">
        <ele>40.55475</ele>
        <time>2021-06-30T16:48:46Z</time>
      </trkpt>
      <trkpt lat="43.581017" lon="4.948208">
        <ele>40.71356</ele>
        <time>2021-06-30T16:48:47Z</time>
      </trkpt>
      <trkpt lat="43.581196" lon="4.948079">
        <ele>40.73682</ele>
        <time>2021-06-30T16:48:48Z</time>
      </trkpt>
      <trkpt lat="43.581390" lon="4.947938">
        <ele>40.93890</ele>
        <time>2021-06-30T16:48:49Z</time>
      </trkpt>
      <trkpt lat="43.581593" lon="4.947791">
        <ele>41.20508</ele>
        <time>2021-06-30T16:48:50Z</time>
      </trkpt>
      <trkpt lat="43.581787" lon="4.947648">
        <ele>41.15308</ele>
        <time>2021-06-30T16:48:51Z</time>
      </trkpt>
      <trkpt lat="43.582008" lon="4.947489">
        <ele>41.22321</ele>
        <time>2021-06-30T16:48:52Z</time>
      </trkpt>
      <trkpt lat="43.582199" lon="4.947349">
        <ele>41.04456</ele>
        <time>2021-06-30T16:48:53Z</time>
      </trkpt>
      <trkpt lat="43.582413" lon="4.947195">
        <ele>41.27667</ele>
        <time>2021-06-30T16:48:54Z</time>
      </trkpt>
      <trkpt lat="43.582623" lon="4.947048">
        <ele>40.72058</ele>
        <time>2021-06-30T16:48:55Z</time>
      </trkpt>
      <trkpt lat="43.582623" lon="4.947048">
        <ele>40.97498</ele>
        <time>2021-06-30T16:48:56Z</time>
      </trkpt>
      <trkpt lat="43.582825" lon="4.946916">
        <ele>41.16113</ele>
        <time>2021-06-30T16:48:57Z</time>
      </trkpt>
      <trkpt lat="43.583023" lon="4.946822">
        <ele>41.23871</ele>
        <time>2021-06-30T16:48:58Z</time>
      </trkpt>
      <trkpt lat="43.583187" lon="4.946725">
        <ele>41.22510</ele>
        <time>2021-06-30T16:48:59Z</time>
      </trkpt>
      <trkpt lat="43.583385" lon="4.946607">
        <ele>41.24408</ele>
        <time>2021-06-30T16:49:00Z</time>
      </trkpt>
      <trkpt lat="43.583553" lon="4.946512">
        <ele>41.50385</ele>
        <time>2021-06-30T16:49:01Z</time>
      </trkpt>
      <trkpt lat="43.583790" lon="4.946388">
        <ele>41.68372</ele>
        <time>2021-06-30T16:49:02Z</time>
      </trkpt>
      <trkpt lat="43.583961" lon="4.946302">
        <ele>42.01160</ele>
        <time>2021-06-30T16:49:03Z</time>
      </trkpt>
      <trkpt lat="43.584198" lon="4.946190">
        <ele>42.28967</ele>
        <time>2021-06-30T16:49:04Z</time>
      </trkpt>
      <trkpt lat="43.584404" lon="4.946103">
        <ele>42.81622</ele>
        <time>2021-06-30T16:49:05Z</time>
      </trkpt>
      <trkpt lat="43.584614" lon="4.946022">
        <ele>42.89514</ele>
        <time>2021-06-30T16:49:06Z</time>
      </trkpt>
      <trkpt lat="43.584839" lon="4.945946">
        <ele>43.11322</ele>
        <time>2021-06-30T16:49:07Z</time>
      </trkpt>
      <trkpt lat="43.585041" lon="4.945877">
        <ele>43.35754</ele>
        <time>2021-06-30T16:49:08Z</time>
      </trkpt>
      <trkpt lat="43.585041" lon="4.945877">
        <ele>43.59271</ele>
        <time>2021-06-30T16:49:09Z</time>
      </trkpt>
      <trkpt lat="43.585258" lon="4.945807">
        <ele>43.66284</ele>
        <time>2021-06-30T16:49:10Z</time>
      </trkpt>
      <trkpt lat="43.585514" lon="4.945737">
        <ele>44.27429</ele>
        <time>2021-06-30T16:49:11Z</time>
      </trkpt>
      <trkpt lat="43.585705" lon="4.945686">
        <ele>44.81964</ele>
        <time>2021-06-30T16:49:12Z</time>
      </trkpt>
      <trkpt lat="43.585918" lon="4.945639">
        <ele>45.51160</ele>
        <time>2021-06-30T16:49:13Z</time>
      </trkpt>
      <trkpt lat="43.586128" lon="4.945602">
        <ele>46.63202</ele>
        <time>2021-06-30T16:49:14Z</time>
      </trkpt>
      <trkpt lat="43.586361" lon="4.945561">
        <ele>47.60706</ele>
        <time>2021-06-30T16:49:15Z</time>
      </trkpt>
      <trkpt lat="43.586552" lon="4.945543">
        <ele>48.85999</ele>
        <time>2021-06-30T16:49:16Z</time>
      </trkpt>
      <trkpt lat="43.586796" lon="4.945521">
        <ele>49.62732</ele>
        <time>2021-06-30T16:49:17Z</time>
      </trkpt>
      <trkpt lat="43.587009" lon="4.945450">
        <ele>50.21301</ele>
        <time>2021-06-30T16:49:18Z</time>
      </trkpt>
      <trkpt lat="43.587238" lon="4.945430">
        <ele>51.02155</ele>
        <time>2021-06-30T16:49:19Z</time>
      </trkpt>
      <trkpt lat="43.587460" lon="4.945424">
        <ele>51.51788</ele>
        <time>2021-06-30T16:49:20Z</time>
      </trkpt>
      <trkpt lat="43.587673" lon="4.945420">
        <ele>52.04889</ele>
        <time>2021-06-30T16:49:21Z</time>
      </trkpt>
      <trkpt lat="43.587902" lon="4.945423">
        <ele>52.51489</ele>
        <time>2021-06-30T16:49:22Z</time>
      </trkpt>
      <trkpt lat="43.587902" lon="4.945423">
        <ele>52.80231</ele>
        <time>2021-06-30T16:49:23Z</time>
      </trkpt>
      <trkpt lat="43.588112" lon="4.945436">
        <ele>53.26410</ele>
        <time>2021-06-30T16:49:24Z</time>
      </trkpt>
      <trkpt lat="43.588326" lon="4.945456">
        <ele>53.66400</ele>
        <time>2021-06-30T16:49:25Z</time>
      </trkpt>
      <trkpt lat="43.588554" lon="4.945479">
        <ele>53.08069</ele>
        <time>2021-06-30T16:49:26Z</time>
      </trkpt>
      <trkpt lat="43.588745" lon="4.945498">
        <ele>53.01526</ele>
        <time>2021-06-30T16:49:27Z</time>
      </trkpt>
      <trkpt lat="43.588955" lon="4.945521">
        <ele>52.92969</ele>
        <time>2021-06-30T16:49:28Z</time>
      </trkpt>
      <trkpt lat="43.589172" lon="4.945544">
        <ele>52.61755</ele>
        <time>2021-06-30T16:49:29Z</time>
      </trkpt>
      <trkpt lat="43.589386" lon="4.945568">
        <ele>52.41296</ele>
        <time>2021-06-30T16:49:30Z</time>
      </trkpt>
      <trkpt lat="43.589615" lon="4.945593">
        <ele>52.41528</ele>
        <time>2021-06-30T16:49:31Z</time>
      </trkpt>
      <trkpt lat="43.589809" lon="4.945610">
        <ele>52.03931</ele>
        <time>2021-06-30T16:49:32Z</time>
      </trkpt>
      <trkpt lat="43.590004" lon="4.945611">
        <ele>51.63690</ele>
        <time>2021-06-30T16:49:33Z</time>
      </trkpt>
      <trkpt lat="43.590206" lon="4.945612">
        <ele>51.14594</ele>
        <time>2021-06-30T16:49:34Z</time>
      </trkpt>
      <trkpt lat="43.590431" lon="4.945578">
        <ele>50.81934</ele>
        <time>2021-06-30T16:49:35Z</time>
      </trkpt>
      <trkpt lat="43.590645" lon="4.945515">
        <ele>49.73828</ele>
        <time>2021-06-30T16:49:36Z</time>
      </trkpt>
      <trkpt lat="43.590645" lon="4.945515">
        <ele>48.53357</ele>
        <time>2021-06-30T16:49:37Z</time>
      </trkpt>
      <trkpt lat="43.590916" lon="4.945403">
        <ele>47.52087</ele>
        <time>2021-06-30T16:49:38Z</time>
      </trkpt>
      <trkpt lat="43.591171" lon="4.945251">
        <ele>47.41156</ele>
        <time>2021-06-30T16:49:39Z</time>
      </trkpt>
      <trkpt lat="43.591446" lon="4.945076">
        <ele>47.07166</ele>
        <time>2021-06-30T16:49:40Z</time>
      </trkpt>
      <trkpt lat="43.591690" lon="4.944915">
        <ele>46.32281</ele>
        <time>2021-06-30T16:49:41Z</time>
      </trkpt>
      <trkpt lat="43.591946" lon="4.944744">
        <ele>46.29303</ele>
        <time>2021-06-30T16:49:42Z</time>
      </trkpt>
      <trkpt lat="43.592197" lon="4.944574">
        <ele>46.57275</ele>
        <time>2021-06-30T16:49:43Z</time>
      </trkpt>
      <trkpt lat="43.592430" lon="4.944416">
        <ele>46.79303</ele>
        <time>2021-06-30T16:49:44Z</time>
      </trkpt>
      <trkpt lat="43.592678" lon="4.944250">
        <ele>46.68896</ele>
        <time>2021-06-30T16:49:45Z</time>
      </trkpt>
      <trkpt lat="43.592972" lon="4.944053">
        <ele>46.73431</ele>
        <time>2021-06-30T16:49:46Z</time>
      </trkpt>
      <trkpt lat="43.593246" lon="4.943868">
        <ele>46.85907</ele>
        <time>2021-06-30T16:49:47Z</time>
      </trkpt>
      <trkpt lat="43.593563" lon="4.943655">
        <ele>47.53320</ele>
        <time>2021-06-30T16:49:48Z</time>
      </trkpt>
      <trkpt lat="43.593849" lon="4.943465">
        <ele>47.71558</ele>
        <time>2021-06-30T16:49:49Z</time>
      </trkpt>
      <trkpt lat="43.593849" lon="4.943465">
        <ele>47.52826</ele>
        <time>2021-06-30T16:49:50Z</time>
      </trkpt>
      <trkpt lat="43.594120" lon="4.943287">
        <ele>47.06812</ele>
        <time>2021-06-30T16:49:51Z</time>
      </trkpt>
      <trkpt lat="43.594418" lon="4.943092">
        <ele>47.42432</ele>
        <time>2021-06-30T16:49:52Z</time>
      </trkpt>
      <trkpt lat="43.594719" lon="4.942884">
        <ele>47.43207</ele>
        <time>2021-06-30T16:49:53Z</time>
      </trkpt>
      <trkpt lat="43.594940" lon="4.942708">
        <ele>47.63434</ele>
        <time>2021-06-30T16:49:54Z</time>
      </trkpt>
      <trkpt lat="43.595222" lon="4.942464">
        <ele>47.70062</ele>
        <time>2021-06-30T16:49:55Z</time>
      </trkpt>
      <trkpt lat="43.595482" lon="4.942232">
        <ele>47.61737</ele>
        <time>2021-06-30T16:49:56Z</time>
      </trkpt>
      <trkpt lat="43.595749" lon="4.942005">
        <ele>47.26770</ele>
        <time>2021-06-30T16:49:57Z</time>
      </trkpt>
      <trkpt lat="43.595985" lon="4.941759">
        <ele>46.95746</ele>
        <time>2021-06-30T16:49:58Z</time>
      </trkpt>
      <trkpt lat="43.596214" lon="4.941498">
        <ele>47.01868</ele>
        <time>2021-06-30T16:49:59Z</time>
      </trkpt>
      <trkpt lat="43.596214" lon="4.941498">
        <ele>46.34210</ele>
        <time>2021-06-30T16:50:00Z</time>
      </trkpt>
      <trkpt lat="43.596443" lon="4.941202">
        <ele>46.82416</ele>
        <time>2021-06-30T16:50:01Z</time>
      </trkpt>
      <trkpt lat="43.596642" lon="4.940938">
        <ele>46.21924</ele>
        <time>2021-06-30T16:50:02Z</time>
      </trkpt>
      <trkpt lat="43.596851" lon="4.940634">
        <ele>46.87097</ele>
        <time>2021-06-30T16:50:03Z</time>
      </trkpt>
      <trkpt lat="43.597034" lon="4.940344">
        <ele>46.57703</ele>
        <time>2021-06-30T16:50:04Z</time>
      </trkpt>
      <trkpt lat="43.597202" lon="4.940069">
        <ele>47.10516</ele>
        <time>2021-06-30T16:50:05Z</time>
      </trkpt>
      <trkpt lat="43.597408" lon="4.939707">
        <ele>46.20264</ele>
        <time>2021-06-30T16:50:06Z</time>
      </trkpt>
      <trkpt lat="43.597584" lon="4.939376">
        <ele>46.46954</ele>
        <time>2021-06-30T16:50:07Z</time>
      </trkpt>
      <trkpt lat="43.597828" lon="4.939052">
        <ele>46.50653</ele>
        <time>2021-06-30T16:50:08Z</time>
      </trkpt>
      <trkpt lat="43.598003" lon="4.938711">
        <ele>46.08740</ele>
        <time>2021-06-30T16:50:09Z</time>
      </trkpt>
      <trkpt lat="43.598183" lon="4.938358">
        <ele>46.19116</ele>
        <time>2021-06-30T16:50:10Z</time>
      </trkpt>
      <trkpt lat="43.598358" lon="4.938008">
        <ele>47.01569</ele>
        <time>2021-06-30T16:50:11Z</time>
      </trkpt>
      <trkpt lat="43.598515" lon="4.937687">
        <ele>46.75916</ele>
        <time>2021-06-30T16:50:12Z</time>
      </trkpt>
      <trkpt lat="43.598694" lon="4.937321">
        <ele>46.74756</ele>
        <time>2021-06-30T16:50:13Z</time>
      </trkpt>
      <trkpt lat="43.598694" lon="4.937321">
        <ele>46.87341</ele>
        <time>2021-06-30T16:50:14Z</time>
      </trkpt>
      <trkpt lat="43.598881" lon="4.936947">
        <ele>46.86145</ele>
        <time>2021-06-30T16:50:15Z</time>
      </trkpt>
      <trkpt lat="43.599030" lon="4.936644">
        <ele>46.47156</ele>
        <time>2021-06-30T16:50:16Z</time>
      </trkpt>
      <trkpt lat="43.599220" lon="4.936265">
        <ele>46.17706</ele>
        <time>2021-06-30T16:50:17Z</time>
      </trkpt>
      <trkpt lat="43.599365" lon="4.935979">
        <ele>46.21057</ele>
        <time>2021-06-30T16:50:18Z</time>
      </trkpt>
      <trkpt lat="43.599545" lon="4.935673">
        <ele>45.92120</ele>
        <time>2021-06-30T16:50:19Z</time>
      </trkpt>
      <trkpt lat="43.599724" lon="4.935394">
        <ele>45.85803</ele>
        <time>2021-06-30T16:50:20Z</time>
      </trkpt>
      <trkpt lat="43.599903" lon="4.935125">
        <ele>46.24182</ele>
        <time>2021-06-30T16:50:21Z</time>
      </trkpt>
      <trkpt lat="43.600109" lon="4.934842">
        <ele>46.65533</ele>
        <time>2021-06-30T16:50:22Z</time>
      </trkpt>
      <trkpt lat="43.600334" lon="4.934568">
        <ele>47.08020</ele>
        <time>2021-06-30T16:50:23Z</time>
      </trkpt>
      <trkpt lat="43.600567" lon="4.934336">
        <ele>47.36621</ele>
        <time>2021-06-30T16:50:24Z</time>
      </trkpt>
      <trkpt lat="43.600796" lon="4.934124">
        <ele>46.88464</ele>
        <time>2021-06-30T16:50:25Z</time>
      </trkpt>
      <trkpt lat="43.600979" lon="4.933895">
        <ele>46.80884</ele>
        <time>2021-06-30T16:50:26Z</time>
      </trkpt>
      <trkpt lat="43.600979" lon="4.933895">
        <ele>46.60571</ele>
        <time>2021-06-30T16:50:27Z</time>
      </trkpt>
      <trkpt lat="43.601246" lon="4.933702">
        <ele>46.99420</ele>
        <time>2021-06-30T16:50:28Z</time>
      </trkpt>
      <trkpt lat="43.601475" lon="4.933538">
        <ele>47.09760</ele>
        <time>2021-06-30T16:50:29Z</time>
      </trkpt>
      <trkpt lat="43.601692" lon="4.933379">
        <ele>47.41418</ele>
        <time>2021-06-30T16:50:30Z</time>
      </trkpt>
      <trkpt lat="43.601891" lon="4.933238">
        <ele>47.45599</ele>
        <time>2021-06-30T16:50:31Z</time>
      </trkpt>
      <trkpt lat="43.602089" lon="4.933082">
        <ele>47.36810</ele>
        <time>2021-06-30T16:50:32Z</time>
      </trkpt>
      <trkpt lat="43.602287" lon="4.932925">
        <ele>47.62421</ele>
        <time>2021-06-30T16:50:33Z</time>
      </trkpt>
      <trkpt lat="43.602463" lon="4.932789">
        <ele>47.70337</ele>
        <time>2021-06-30T16:50:34Z</time>
      </trkpt>
      <trkpt lat="43.602612" lon="4.932670">
        <ele>47.57294</ele>
        <time>2021-06-30T16:50:35Z</time>
      </trkpt>
      <trkpt lat="43.602741" lon="4.932568">
        <ele>47.41364</ele>
        <time>2021-06-30T16:50:36Z</time>
      </trkpt>
      <trkpt lat="43.602901" lon="4.932440">
        <ele>47.29950</ele>
        <time>2021-06-30T16:50:37Z</time>
      </trkpt>
      <trkpt lat="43.603065" lon="4.932399">
        <ele>46.93695</ele>
        <time>2021-06-30T16:50:38Z</time>
      </trkpt>
      <trkpt lat="43.603207" lon="4.932309">
        <ele>44.09780</ele>
        <time>2021-06-30T16:50:39Z</time>
      </trkpt>
      <trkpt lat="43.603313" lon="4.932238">
        <ele>44.19373</ele>
        <time>2021-06-30T16:50:40Z</time>
      </trkpt>
      <trkpt lat="43.603413" lon="4.932170">
        <ele>43.46429</ele>
        <time>2021-06-30T16:50:41Z</time>
      </trkpt>
      <trkpt lat="43.603474" lon="4.932194">
        <ele>42.83141</ele>
        <time>2021-06-30T16:50:42Z</time>
      </trkpt>
      <trkpt lat="43.603474" lon="4.932194">
        <ele>43.26113</ele>
        <time>2021-06-30T16:50:43Z</time>
      </trkpt>
      <trkpt lat="43.603573" lon="4.932225">
        <ele>43.11479</ele>
        <time>2021-06-30T16:50:44Z</time>
      </trkpt>
      <trkpt lat="43.603653" lon="4.932194">
        <ele>43.63171</ele>
        <time>2021-06-30T16:50:45Z</time>
      </trkpt>
      <trkpt lat="43.603695" lon="4.932134">
        <ele>43.52986</ele>
        <time>2021-06-30T16:50:46Z</time>
      </trkpt>
      <trkpt lat="43.603737" lon="4.931979">
        <ele>43.68784</ele>
        <time>2021-06-30T16:50:47Z</time>
      </trkpt>
      <trkpt lat="43.603741" lon="4.931842">
        <ele>44.30120</ele>
        <time>2021-06-30T16:50:48Z</time>
      </trkpt>
      <trkpt lat="43.603802" lon="4.931804">
        <ele>44.89242</ele>
        <time>2021-06-30T16:50:49Z</time>
      </trkpt>
      <trkpt lat="43.604076" lon="4.931616">
        <ele>45.06865</ele>
        <time>2021-06-30T16:50:50Z</time>
      </trkpt>
      <trkpt lat="43.604286" lon="4.931474">
        <ele>46.37067</ele>
        <time>2021-06-30T16:50:51Z</time>
      </trkpt>
      <trkpt lat="43.604519" lon="4.931308">
        <ele>46.84863</ele>
        <time>2021-06-30T16:50:52Z</time>
      </trkpt>
      <trkpt lat="43.604782" lon="4.931120">
        <ele>47.72034</ele>
        <time>2021-06-30T16:50:53Z</time>
      </trkpt>
      <trkpt lat="43.605000" lon="4.930964">
        <ele>47.59375</ele>
        <time>2021-06-30T16:50:54Z</time>
      </trkpt>
      <trkpt lat="43.605148" lon="4.930857">
        <ele>47.41052</ele>
        <time>2021-06-30T16:50:55Z</time>
      </trkpt>
      <trkpt lat="43.605301" lon="4.930749">
        <ele>47.39313</ele>
        <time>2021-06-30T16:50:56Z</time>
      </trkpt>
      <trkpt lat="43.605469" lon="4.930630">
        <ele>47.87170</ele>
        <time>2021-06-30T16:50:57Z</time>
      </trkpt>
      <trkpt lat="43.605469" lon="4.930630">
        <ele>48.07007</ele>
        <time>2021-06-30T16:50:58Z</time>
      </trkpt>
      <trkpt lat="43.605644" lon="4.930503">
        <ele>47.84167</ele>
        <time>2021-06-30T16:50:59Z</time>
      </trkpt>
      <trkpt lat="43.605778" lon="4.930407">
        <ele>46.17591</ele>
        <time>2021-06-30T16:51:00Z</time>
      </trkpt>
      <trkpt lat="43.605888" lon="4.930327">
        <ele>46.32803</ele>
        <time>2021-06-30T16:51:01Z</time>
      </trkpt>
      <trkpt lat="43.606026" lon="4.930228">
        <ele>46.14045</ele>
        <time>2021-06-30T16:51:02Z</time>
      </trkpt>
      <trkpt lat="43.606133" lon="4.930149">
        <ele>46.24112</ele>
        <time>2021-06-30T16:51:03Z</time>
      </trkpt>
      <trkpt lat="43.606258" lon="4.930057">
        <ele>46.03421</ele>
        <time>2021-06-30T16:51:04Z</time>
      </trkpt>
      <trkpt lat="43.606373" lon="4.929970">
        <ele>46.11403</ele>
        <time>2021-06-30T16:51:05Z</time>
      </trkpt>
      <trkpt lat="43.606483" lon="4.929892">
        <ele>46.44714</ele>
        <time>2021-06-30T16:51:06Z</time>
      </trkpt>
      <trkpt lat="43.606606" lon="4.929808">
        <ele>46.01979</ele>
        <time>2021-06-30T16:51:07Z</time>
      </trkpt>
      <trkpt lat="43.606735" lon="4.929716">
        <ele>46.28544</ele>
        <time>2021-06-30T16:51:08Z</time>
      </trkpt>
      <trkpt lat="43.606735" lon="4.929716">
        <ele>45.95019</ele>
        <time>2021-06-30T16:51:09Z</time>
      </trkpt>
      <trkpt lat="43.606888" lon="4.929609">
        <ele>46.87584</ele>
        <time>2021-06-30T16:51:10Z</time>
      </trkpt>
      <trkpt lat="43.607037" lon="4.929503">
        <ele>48.73694</ele>
        <time>2021-06-30T16:51:11Z</time>
      </trkpt>
      <trkpt lat="43.607235" lon="4.929361">
        <ele>48.83826</ele>
        <time>2021-06-30T16:51:12Z</time>
      </trkpt>
      <trkpt lat="43.607452" lon="4.929206">
        <ele>48.72540</ele>
        <time>2021-06-30T16:51:13Z</time>
      </trkpt>
      <trkpt lat="43.607658" lon="4.929058">
        <ele>48.98419</ele>
        <time>2021-06-30T16:51:14Z</time>
      </trkpt>
      <trkpt lat="43.607903" lon="4.928886">
        <ele>49.18188</ele>
        <time>2021-06-30T16:51:15Z</time>
      </trkpt>
      <trkpt lat="43.608128" lon="4.928718">
        <ele>49.38074</ele>
        <time>2021-06-30T16:51:16Z</time>
      </trkpt>
      <trkpt lat="43.608322" lon="4.928569">
        <ele>50.61517</ele>
        <time>2021-06-30T16:51:17Z</time>
      </trkpt>
      <trkpt lat="43.608582" lon="4.928386">
        <ele>50.75464</ele>
        <time>2021-06-30T16:51:18Z</time>
      </trkpt>
      <trkpt lat="43.608810" lon="4.928228">
        <ele>50.99445</ele>
        <time>2021-06-30T16:51:19Z</time>
      </trkpt>
      <trkpt lat="43.609070" lon="4.928054">
        <ele>50.80054</ele>
        <time>2021-06-30T16:51:20Z</time>
      </trkpt>
      <trkpt lat="43.609299" lon="4.927909">
        <ele>51.03430</ele>
        <time>2021-06-30T16:51:21Z</time>
      </trkpt>
      <trkpt lat="43.609547" lon="4.927776">
        <ele>50.84241</ele>
        <time>2021-06-30T16:51:22Z</time>
      </trkpt>
      <trkpt lat="43.609802" lon="4.927659">
        <ele>50.99152</ele>
        <time>2021-06-30T16:51:23Z</time>
      </trkpt>
      <trkpt lat="43.610077" lon="4.927542">
        <ele>50.75995</ele>
        <time>2021-06-30T16:51:24Z</time>
      </trkpt>
      <trkpt lat="43.610077" lon="4.927542">
        <ele>50.90411</ele>
        <time>2021-06-30T16:51:25Z</time>
      </trkpt>
      <trkpt lat="43.610352" lon="4.927424">
        <ele>50.80273</ele>
        <time>2021-06-30T16:51:26Z</time>
      </trkpt>
      <trkpt lat="43.610611" lon="4.927312">
        <ele>50.92230</ele>
        <time>2021-06-30T16:51:27Z</time>
      </trkpt>
      <trkpt lat="43.610859" lon="4.927206">
        <ele>50.61060</ele>
        <time>2021-06-30T16:51:28Z</time>
      </trkpt>
      <trkpt lat="43.611137" lon="4.927086">
        <ele>50.82733</ele>
        <time>2021-06-30T16:51:29Z</time>
      </trkpt>
      <trkpt lat="43.611408" lon="4.926970">
        <ele>50.86926</ele>
        <time>2021-06-30T16:51:30Z</time>
      </trkpt>
      <trkpt lat="43.611702" lon="4.926845">
        <ele>50.77838</ele>
        <time>2021-06-30T16:51:31Z</time>
      </trkpt>
      <trkpt lat="43.611992" lon="4.926731">
        <ele>50.81805</ele>
        <time>2021-06-30T16:51:32Z</time>
      </trkpt>
      <trkpt lat="43.612236" lon="4.926635">
        <ele>51.12225</ele>
        <time>2021-06-30T16:51:33Z</time>
      </trkpt>
      <trkpt lat="43.612518" lon="4.926517">
        <ele>51.49762</ele>
        <time>2021-06-30T16:51:34Z</time>
      </trkpt>
      <trkpt lat="43.612801" lon="4.926386">
        <ele>51.45062</ele>
        <time>2021-06-30T16:51:35Z</time>
      </trkpt>
      <trkpt lat="43.613045" lon="4.926275">
        <ele>51.67578</ele>
        <time>2021-06-30T16:51:36Z</time>
      </trkpt>
      <trkpt lat="43.613045" lon="4.926275">
        <ele>51.73743</ele>
        <time>2021-06-30T16:51:37Z</time>
      </trkpt>
      <trkpt lat="43.613312" lon="4.926159">
        <ele>51.48846</ele>
        <time>2021-06-30T16:51:38Z</time>
      </trkpt>
      <trkpt lat="43.613594" lon="4.926039">
        <ele>51.16547</ele>
        <time>2021-06-30T16:51:39Z</time>
      </trkpt>
      <trkpt lat="43.613911" lon="4.925905">
        <ele>50.94031</ele>
        <time>2021-06-30T16:51:40Z</time>
      </trkpt>
      <trkpt lat="43.614185" lon="4.925788">
        <ele>50.64795</ele>
        <time>2021-06-30T16:51:41Z</time>
      </trkpt>
      <trkpt lat="43.614483" lon="4.925662">
        <ele>50.69635</ele>
        <time>2021-06-30T16:51:42Z</time>
      </trkpt>
      <trkpt lat="43.614780" lon="4.925536">
        <ele>50.23193</ele>
        <time>2021-06-30T16:51:43Z</time>
      </trkpt>
      <trkpt lat="43.615055" lon="4.925420">
        <ele>50.12561</ele>
        <time>2021-06-30T16:51:44Z</time>
      </trkpt>
      <trkpt lat="43.615334" lon="4.925302">
        <ele>49.81909</ele>
        <time>2021-06-30T16:51:45Z</time>
      </trkpt>
      <trkpt lat="43.615604" lon="4.925186">
        <ele>49.77753</ele>
        <time>2021-06-30T16:51:46Z</time>
      </trkpt>
      <trkpt lat="43.615868" lon="4.925074">
        <ele>49.61353</ele>
        <time>2021-06-30T16:51:47Z</time>
      </trkpt>
      <trkpt lat="43.616150" lon="4.924954">
        <ele>49.20404</ele>
        <time>2021-06-30T16:51:48Z</time>
      </trkpt>
      <trkpt lat="43.616150" lon="4.924954">
        <ele>48.55743</ele>
        <time>2021-06-30T16:51:49Z</time>
      </trkpt>
      <trkpt lat="43.616444" lon="4.924828">
        <ele>48.27844</ele>
        <time>2021-06-30T16:51:50Z</time>
      </trkpt>
      <trkpt lat="43.616722" lon="4.924709">
        <ele>48.09485</ele>
        <time>2021-06-30T16:51:51Z</time>
      </trkpt>
      <trkpt lat="43.617027" lon="4.924580">
        <ele>48.15778</ele>
        <time>2021-06-30T16:51:52Z</time>
      </trkpt>
      <trkpt lat="43.617348" lon="4.924442">
        <ele>47.93665</ele>
        <time>2021-06-30T16:51:53Z</time>
      </trkpt>
      <trkpt lat="43.617661" lon="4.924307">
        <ele>47.98907</ele>
        <time>2021-06-30T16:51:54Z</time>
      </trkpt>
      <trkpt lat="43.617950" lon="4.924180">
        <ele>48.16943</ele>
        <time>2021-06-30T16:51:55Z</time>
      </trkpt>
      <trkpt lat="43.618248" lon="4.924051">
        <ele>48.10840</ele>
        <time>2021-06-30T16:51:56Z</time>
      </trkpt>
      <trkpt lat="43.618534" lon="4.923927">
        <ele>47.76416</ele>
        <time>2021-06-30T16:51:57Z</time>
      </trkpt>
      <trkpt lat="43.618828" lon="4.923800">
        <ele>48.29889</ele>
        <time>2021-06-30T16:51:58Z</time>
      </trkpt>
      <trkpt lat="43.619102" lon="4.923681">
        <ele>48.15601</ele>
        <time>2021-06-30T16:51:59Z</time>
      </trkpt>
      <trkpt lat="43.619370" lon="4.923564">
        <ele>48.73889</ele>
        <time>2021-06-30T16:52:00Z</time>
      </trkpt>
      <trkpt lat="43.619370" lon="4.923564">
        <ele>48.78143</ele>
        <time>2021-06-30T16:52:01Z</time>
      </trkpt>
      <trkpt lat="43.619652" lon="4.923442">
        <ele>49.05817</ele>
        <time>2021-06-30T16:52:02Z</time>
      </trkpt>
      <trkpt lat="43.619934" lon="4.923319">
        <ele>49.19818</ele>
        <time>2021-06-30T16:52:03Z</time>
      </trkpt>
      <trkpt lat="43.620220" lon="4.923196">
        <ele>49.05280</ele>
        <time>2021-06-30T16:52:04Z</time>
      </trkpt>
      <trkpt lat="43.620506" lon="4.923070">
        <ele>49.00012</ele>
        <time>2021-06-30T16:52:05Z</time>
      </trkpt>
      <trkpt lat="43.620804" lon="4.922942">
        <ele>49.14362</ele>
        <time>2021-06-30T16:52:06Z</time>
      </trkpt>
      <trkpt lat="43.621117" lon="4.922805">
        <ele>48.86292</ele>
        <time>2021-06-30T16:52:07Z</time>
      </trkpt>
      <trkpt lat="43.621380" lon="4.922690">
        <ele>48.55615</ele>
        <time>2021-06-30T16:52:08Z</time>
      </trkpt>
      <trkpt lat="43.621658" lon="4.922567">
        <ele>48.42657</ele>
        <time>2021-06-30T16:52:09Z</time>
      </trkpt>
      <trkpt lat="43.621990" lon="4.922419">
        <ele>48.53589</ele>
        <time>2021-06-30T16:52:10Z</time>
      </trkpt>
      <trkpt lat="43.622292" lon="4.922288">
        <ele>48.50085</ele>
        <time>2021-06-30T16:52:11Z</time>
      </trkpt>
      <trkpt lat="43.622585" lon="4.922162">
        <ele>48.42694</ele>
        <time>2021-06-30T16:52:12Z</time>
      </trkpt>
      <trkpt lat="43.622887" lon="4.922033">
        <ele>48.29663</ele>
        <time>2021-06-30T16:52:13Z</time>
      </trkpt>
      <trkpt lat="43.623188" lon="4.921905">
        <ele>47.89014</ele>
        <time>2021-06-30T16:52:14Z</time>
      </trkpt>
      <trkpt lat="43.623188" lon="4.921905">
        <ele>48.04968</ele>
        <time>2021-06-30T16:52:15Z</time>
      </trkpt>
      <trkpt lat="43.623520" lon="4.921763">
        <ele>47.77899</ele>
        <time>2021-06-30T16:52:16Z</time>
      </trkpt>
      <trkpt lat="43.623852" lon="4.921621">
        <ele>47.86023</ele>
        <time>2021-06-30T16:52:17Z</time>
      </trkpt>
      <trkpt lat="43.624111" lon="4.921508">
        <ele>48.03448</ele>
        <time>2021-06-30T16:52:18Z</time>
      </trkpt>
      <trkpt lat="43.624435" lon="4.921366">
        <ele>48.23633</ele>
        <time>2021-06-30T16:52:19Z</time>
      </trkpt>
      <trkpt lat="43.624718" lon="4.921241">
        <ele>48.24286</ele>
        <time>2021-06-30T16:52:20Z</time>
      </trkpt>
      <trkpt lat="43.625027" lon="4.921106">
        <ele>48.04779</ele>
        <time>2021-06-30T16:52:21Z</time>
      </trkpt>
      <trkpt lat="43.625343" lon="4.920967">
        <ele>48.05103</ele>
        <time>2021-06-30T16:52:22Z</time>
      </trkpt>
      <trkpt lat="43.625641" lon="4.920836">
        <ele>48.25500</ele>
        <time>2021-06-30T16:52:23Z</time>
      </trkpt>
      <trkpt lat="43.625957" lon="4.920698">
        <ele>48.21948</ele>
        <time>2021-06-30T16:52:24Z</time>
      </trkpt>
      <trkpt lat="43.626263" lon="4.920564">
        <ele>48.22998</ele>
        <time>2021-06-30T16:52:25Z</time>
      </trkpt>
      <trkpt lat="43.626556" lon="4.920436">
        <ele>47.92194</ele>
        <time>2021-06-30T16:52:26Z</time>
      </trkpt>
      <trkpt lat="43.626858" lon="4.920304">
        <ele>47.66943</ele>
        <time>2021-06-30T16:52:27Z</time>
      </trkpt>
      <trkpt lat="43.627151" lon="4.920174">
        <ele>47.46161</ele>
        <time>2021-06-30T16:52:28Z</time>
      </trkpt>
      <trkpt lat="43.627151" lon="4.920174">
        <ele>47.37848</ele>
        <time>2021-06-30T16:52:29Z</time>
      </trkpt>
      <trkpt lat="43.627460" lon="4.920039">
        <ele>47.25537</ele>
        <time>2021-06-30T16:52:30Z</time>
      </trkpt>
      <trkpt lat="43.627773" lon="4.919901">
        <ele>47.32660</ele>
        <time>2021-06-30T16:52:31Z</time>
      </trkpt>
      <trkpt lat="43.628090" lon="4.919763">
        <ele>46.97058</ele>
        <time>2021-06-30T16:52:32Z</time>
      </trkpt>
      <trkpt lat="43.628372" lon="4.919639">
        <ele>46.88049</ele>
        <time>2021-06-30T16:52:33Z</time>
      </trkpt>
      <trkpt lat="43.628681" lon="4.919503">
        <ele>46.80530</ele>
        <time>2021-06-30T16:52:34Z</time>
      </trkpt>
      <trkpt lat="43.628937" lon="4.919393">
        <ele>46.78357</ele>
        <time>2021-06-30T16:52:35Z</time>
      </trkpt>
      <trkpt lat="43.629185" lon="4.919288">
        <ele>46.58643</ele>
        <time>2021-06-30T16:52:36Z</time>
      </trkpt>
      <trkpt lat="43.629444" lon="4.919180">
        <ele>46.78192</ele>
        <time>2021-06-30T16:52:37Z</time>
      </trkpt>
      <trkpt lat="43.629684" lon="4.919077">
        <ele>46.73047</ele>
        <time>2021-06-30T16:52:38Z</time>
      </trkpt>
      <trkpt lat="43.629902" lon="4.918986">
        <ele>46.54956</ele>
        <time>2021-06-30T16:52:39Z</time>
      </trkpt>
      <trkpt lat="43.630146" lon="4.918883">
        <ele>46.40656</ele>
        <time>2021-06-30T16:52:40Z</time>
      </trkpt>
      <trkpt lat="43.630146" lon="4.918883">
        <ele>46.68567</ele>
        <time>2021-06-30T16:52:41Z</time>
      </trkpt>
      <trkpt lat="43.630394" lon="4.918778">
        <ele>46.64734</ele>
        <time>2021-06-30T16:52:42Z</time>
      </trkpt>
      <trkpt lat="43.630657" lon="4.918668">
        <ele>47.11169</ele>
        <time>2021-06-30T16:52:43Z</time>
      </trkpt>
      <trkpt lat="43.630936" lon="4.918549">
        <ele>47.08508</ele>
        <time>2021-06-30T16:52:44Z</time>
      </trkpt>
      <trkpt lat="43.631233" lon="4.918425">
        <ele>46.45343</ele>
        <time>2021-06-30T16:52:45Z</time>
      </trkpt>
      <trkpt lat="43.631474" lon="4.918321">
        <ele>46.51007</ele>
        <time>2021-06-30T16:52:46Z</time>
      </trkpt>
      <trkpt lat="43.631744" lon="4.918206">
        <ele>45.99530</ele>
        <time>2021-06-30T16:52:47Z</time>
      </trkpt>
      <trkpt lat="43.632023" lon="4.918087">
        <ele>46.06793</ele>
        <time>2021-06-30T16:52:48Z</time>
      </trkpt>
      <trkpt lat="43.632278" lon="4.917979">
        <ele>46.12238</ele>
        <time>2021-06-30T16:52:49Z</time>
      </trkpt>
      <trkpt lat="43.632278" lon="4.917979">
        <ele>46.43463</ele>
        <time>2021-06-30T16:52:50Z</time>
      </trkpt>
      <trkpt lat="43.632568" lon="4.917853">
        <ele>46.62036</ele>
        <time>2021-06-30T16:52:51Z</time>
      </trkpt>
      <trkpt lat="43.632835" lon="4.917740">
        <ele>46.90546</ele>
        <time>2021-06-30T16:52:52Z</time>
      </trkpt>
      <trkpt lat="43.633133" lon="4.917613">
        <ele>46.73047</ele>
        <time>2021-06-30T16:52:53Z</time>
      </trkpt>
      <trkpt lat="43.633411" lon="4.917494">
        <ele>46.48395</ele>
        <time>2021-06-30T16:52:54Z</time>
      </trkpt>
      <trkpt lat="43.633667" lon="4.917385">
        <ele>46.19403</ele>
        <time>2021-06-30T16:52:55Z</time>
      </trkpt>
      <trkpt lat="43.633999" lon="4.917245">
        <ele>46.20734</ele>
        <time>2021-06-30T16:52:56Z</time>
      </trkpt>
      <trkpt lat="43.634293" lon="4.917119">
        <ele>45.99194</ele>
        <time>2021-06-30T16:52:57Z</time>
      </trkpt>
      <trkpt lat="43.634563" lon="4.917004">
        <ele>46.23224</ele>
        <time>2021-06-30T16:52:58Z</time>
      </trkpt>
      <trkpt lat="43.634846" lon="4.916883">
        <ele>46.25647</ele>
        <time>2021-06-30T16:52:59Z</time>
      </trkpt>
      <trkpt lat="43.635174" lon="4.916743">
        <ele>46.50513</ele>
        <time>2021-06-30T16:53:00Z</time>
      </trkpt>
      <trkpt lat="43.635483" lon="4.916611">
        <ele>46.48645</ele>
        <time>2021-06-30T16:53:01Z</time>
      </trkpt>
      <trkpt lat="43.635792" lon="4.916480">
        <ele>46.41101</ele>
        <time>2021-06-30T16:53:02Z</time>
      </trkpt>
      <trkpt lat="43.635792" lon="4.916480">
        <ele>46.16077</ele>
        <time>2021-06-30T16:53:03Z</time>
      </trkpt>
      <trkpt lat="43.636105" lon="4.916347">
        <ele>46.30554</ele>
        <time>2021-06-30T16:53:04Z</time>
      </trkpt>
      <trkpt lat="43.636395" lon="4.916222">
        <ele>46.59192</ele>
        <time>2021-06-30T16:53:05Z</time>
      </trkpt>
      <trkpt lat="43.636669" lon="4.916105">
        <ele>46.76025</ele>
        <time>2021-06-30T16:53:06Z</time>
      </trkpt>
      <trkpt lat="43.636944" lon="4.915988">
        <ele>46.65857</ele>
        <time>2021-06-30T16:53:07Z</time>
      </trkpt>
      <trkpt lat="43.637264" lon="4.915852">
        <ele>46.87036</ele>
        <time>2021-06-30T16:53:08Z</time>
      </trkpt>
      <trkpt lat="43.637566" lon="4.915722">
        <ele>46.99371</ele>
        <time>2021-06-30T16:53:09Z</time>
      </trkpt>
      <trkpt lat="43.637802" lon="4.915621">
        <ele>46.87891</ele>
        <time>2021-06-30T16:53:10Z</time>
      </trkpt>
      <trkpt lat="43.638039" lon="4.915504">
        <ele>47.11023</ele>
        <time>2021-06-30T16:53:11Z</time>
      </trkpt>
      <trkpt lat="43.638287" lon="4.915379">
        <ele>46.82715</ele>
        <time>2021-06-30T16:53:12Z</time>
      </trkpt>
      <trkpt lat="43.638466" lon="4.915307">
        <ele>46.55341</ele>
        <time>2021-06-30T16:53:13Z</time>
      </trkpt>
      <trkpt lat="43.638638" lon="4.915239">
        <ele>47.10187</ele>
        <time>2021-06-30T16:53:14Z</time>
      </trkpt>
      <trkpt lat="43.638805" lon="4.915168">
        <ele>47.16333</ele>
        <time>2021-06-30T16:53:15Z</time>
      </trkpt>
      <trkpt lat="43.638973" lon="4.915088">
        <ele>43.40420</ele>
        <time>2021-06-30T16:53:16Z</time>
      </trkpt>
      <trkpt lat="43.639118" lon="4.915065">
        <ele>43.04348</ele>
        <time>2021-06-30T16:53:17Z</time>
      </trkpt>
      <trkpt lat="43.639248" lon="4.915058">
        <ele>42.48454</ele>
        <time>2021-06-30T16:53:18Z</time>
      </trkpt>
      <trkpt lat="43.639359" lon="4.915044">
        <ele>42.45321</ele>
        <time>2021-06-30T16:53:19Z</time>
      </trkpt>
      <trkpt lat="43.639458" lon="4.915035">
        <ele>42.15334</ele>
        <time>2021-06-30T16:53:20Z</time>
      </trkpt>
      <trkpt lat="43.639458" lon="4.915035">
        <ele>42.49406</ele>
        <time>2021-06-30T16:53:21Z</time>
      </trkpt>
      <trkpt lat="43.639572" lon="4.915035">
        <ele>42.04502</ele>
        <time>2021-06-30T16:53:22Z</time>
      </trkpt>
      <trkpt lat="43.639679" lon="4.915035">
        <ele>41.99944</ele>
        <time>2021-06-30T16:53:23Z</time>
      </trkpt>
      <trkpt lat="43.639744" lon="4.915091">
        <ele>42.69552</ele>
        <time>2021-06-30T16:53:24Z</time>
      </trkpt>
      <trkpt lat="43.639816" lon="4.915199">
        <ele>43.08387</ele>
        <time>2021-06-30T16:53:25Z</time>
      </trkpt>
      <trkpt lat="43.639954" lon="4.915280">
        <ele>43.20965</ele>
        <time>2021-06-30T16:53:26Z</time>
      </trkpt>
      <trkpt lat="43.640045" lon="4.915281">
        <ele>42.93633</ele>
        <time>2021-06-30T16:53:27Z</time>
      </trkpt>
      <trkpt lat="43.640160" lon="4.915229">
        <ele>46.55280</ele>
        <time>2021-06-30T16:53:28Z</time>
      </trkpt>
      <trkpt lat="43.640221" lon="4.915163">
        <ele>47.04608</ele>
        <time>2021-06-30T16:53:29Z</time>
      </trkpt>
      <trkpt lat="43.640285" lon="4.915036">
        <ele>46.88989</ele>
        <time>2021-06-30T16:53:30Z</time>
      </trkpt>
      <trkpt lat="43.640301" lon="4.914909">
        <ele>47.23584</ele>
        <time>2021-06-30T16:53:31Z</time>
      </trkpt>
      <trkpt lat="43.640293" lon="4.914781">
        <ele>47.14722</ele>
        <time>2021-06-30T16:53:32Z</time>
      </trkpt>
      <trkpt lat="43.640255" lon="4.914663">
        <ele>47.36346</ele>
        <time>2021-06-30T16:53:33Z</time>
      </trkpt>
      <trkpt lat="43.640255" lon="4.914663">
        <ele>47.04462</ele>
        <time>2021-06-30T16:53:34Z</time>
      </trkpt>
      <trkpt lat="43.640217" lon="4.914579">
        <ele>46.86768</ele>
        <time>2021-06-30T16:53:35Z</time>
      </trkpt>
      <trkpt lat="43.640125" lon="4.914489">
        <ele>45.85022</ele>
        <time>2021-06-30T16:53:36Z</time>
      </trkpt>
      <trkpt lat="43.640018" lon="4.914329">
        <ele>43.82994</ele>
        <time>2021-06-30T16:53:37Z</time>
      </trkpt>
      <trkpt lat="43.639961" lon="4.914174">
        <ele>43.73978</ele>
        <time>2021-06-30T16:53:38Z</time>
      </trkpt>
      <trkpt lat="43.639927" lon="4.913955">
        <ele>44.03805</ele>
        <time>2021-06-30T16:53:39Z</time>
      </trkpt>
      <trkpt lat="43.639881" lon="4.913677">
        <ele>44.31180</ele>
        <time>2021-06-30T16:53:40Z</time>
      </trkpt>
      <trkpt lat="43.639839" lon="4.913401">
        <ele>44.46014</ele>
        <time>2021-06-30T16:53:41Z</time>
      </trkpt>
      <trkpt lat="43.639793" lon="4.913119">
        <ele>44.43921</ele>
        <time>2021-06-30T16:53:42Z</time>
      </trkpt>
      <trkpt lat="43.639736" lon="4.912838">
        <ele>44.33759</ele>
        <time>2021-06-30T16:53:43Z</time>
      </trkpt>
      <trkpt lat="43.639732" lon="4.912589">
        <ele>44.44684</ele>
        <time>2021-06-30T16:53:44Z</time>
      </trkpt>
      <trkpt lat="43.639732" lon="4.912589">
        <ele>44.27594</ele>
        <time>2021-06-30T16:53:45Z</time>
      </trkpt>
      <trkpt lat="43.639732" lon="4.912297">
        <ele>44.19427</ele>
        <time>2021-06-30T16:53:46Z</time>
      </trkpt>
      <trkpt lat="43.639732" lon="4.912027">
        <ele>44.17810</ele>
        <time>2021-06-30T16:53:47Z</time>
      </trkpt>
      <trkpt lat="43.639736" lon="4.911741">
        <ele>44.29010</ele>
        <time>2021-06-30T16:53:48Z</time>
      </trkpt>
      <trkpt lat="43.639736" lon="4.911435">
        <ele>44.53943</ele>
        <time>2021-06-30T16:53:49Z</time>
      </trkpt>
      <trkpt lat="43.639736" lon="4.911172">
        <ele>44.96057</ele>
        <time>2021-06-30T16:53:50Z</time>
      </trkpt>
      <trkpt lat="43.639736" lon="4.910918">
        <ele>43.34373</ele>
        <time>2021-06-30T16:53:51Z</time>
      </trkpt>
      <trkpt lat="43.639740" lon="4.910712">
        <ele>42.84854</ele>
        <time>2021-06-30T16:53:52Z</time>
      </trkpt>
      <trkpt lat="43.639740" lon="4.910504">
        <ele>42.68582</ele>
        <time>2021-06-30T16:53:53Z</time>
      </trkpt>
      <trkpt lat="43.639740" lon="4.910371">
        <ele>42.39668</ele>
        <time>2021-06-30T16:53:54Z</time>
      </trkpt>
      <trkpt lat="43.639740" lon="4.910371">
        <ele>42.42422</ele>
        <time>2021-06-30T16:53:55Z</time>
      </trkpt>
      <trkpt lat="43.639740" lon="4.910251">
        <ele>42.33709</ele>
        <time>2021-06-30T16:53:56Z</time>
      </trkpt>
      <trkpt lat="43.639744" lon="4.910128">
        <ele>41.80577</ele>
        <time>2021-06-30T16:53:57Z</time>
      </trkpt>
      <trkpt lat="43.639744" lon="4.910003">
        <ele>41.72519</ele>
        <time>2021-06-30T16:53:58Z</time>
      </trkpt>
      <trkpt lat="43.639744" lon="4.909991">
        <ele>41.70807</ele>
        <time>2021-06-30T16:53:59Z</time>
      </trkpt>
      <trkpt lat="43.639744" lon="4.909991">
        <ele>41.84973</ele>
        <time>2021-06-30T16:54:00Z</time>
      </trkpt>
      <trkpt lat="43.639744" lon="4.909991">
        <ele>42.07521</ele>
        <time>2021-06-30T16:54:01Z</time>
      </trkpt>
      <trkpt lat="43.639744" lon="4.909987">
        <ele>42.09398</ele>
        <time>2021-06-30T16:54:02Z</time>
      </trkpt>
      <trkpt lat="43.639744" lon="4.909987">
        <ele>45.88672</ele>
        <time>2021-06-30T16:54:03Z</time>
      </trkpt>
      <trkpt lat="43.639744" lon="4.909987">
        <ele>46.41803</ele>
        <time>2021-06-30T16:54:04Z</time>
      </trkpt>
      <trkpt lat="43.639744" lon="4.909987">
        <ele>46.84332</ele>
        <time>2021-06-30T16:54:05Z</time>
      </trkpt>
      <trkpt lat="43.639744" lon="4.909987">
        <ele>42.43525</ele>
        <time>2021-06-30T16:54:06Z</time>
      </trkpt>
      <trkpt lat="43.639744" lon="4.909987">
        <ele>42.63823</ele>
        <time>2021-06-30T16:54:07Z</time>
      </trkpt>
      <trkpt lat="43.639744" lon="4.909987">
        <ele>42.67346</ele>
        <time>2021-06-30T16:54:08Z</time>
      </trkpt>
      <trkpt lat="43.639744" lon="4.909987">
        <ele>42.76992</ele>
        <time>2021-06-30T16:54:09Z</time>
      </trkpt>
      <trkpt lat="43.639744" lon="4.909987">
        <ele>42.94056</ele>
        <time>2021-06-30T16:54:10Z</time>
      </trkpt>
      <trkpt lat="43.639744" lon="4.909987">
        <ele>42.98811</ele>
        <time>2021-06-30T16:54:11Z</time>
      </trkpt>
      <trkpt lat="43.639744" lon="4.909987">
        <ele>43.05730</ele>
        <time>2021-06-30T16:54:12Z</time>
      </trkpt>
      <trkpt lat="43.639744" lon="4.909987">
        <ele>43.05978</ele>
        <time>2021-06-30T16:54:13Z</time>
      </trkpt>
      <trkpt lat="43.639744" lon="4.909987">
        <ele>43.17592</ele>
        <time>2021-06-30T16:54:14Z</time>
      </trkpt>
      <trkpt lat="43.639744" lon="4.909987">
        <ele>43.29455</ele>
        <time>2021-06-30T16:54:15Z</time>
      </trkpt>
      <trkpt lat="43.639744" lon="4.909987">
        <ele>43.35233</ele>
        <time>2021-06-30T16:54:16Z</time>
      </trkpt>
      <trkpt lat="43.639744" lon="4.909987">
        <ele>43.30331</ele>
        <time>2021-06-30T16:54:17Z</time>
      </trkpt>
      <trkpt lat="43.639744" lon="4.909987">
        <ele>43.44914</ele>
        <time>2021-06-30T16:54:18Z</time>
      </trkpt>
      <trkpt lat="43.639744" lon="4.909987">
        <ele>43.66751</ele>
        <time>2021-06-30T16:54:19Z</time>
      </trkpt>
      <trkpt lat="43.639744" lon="4.909987">
        <ele>43.78553</ele>
        <time>2021-06-30T16:54:20Z</time>
      </trkpt>
      <trkpt lat="43.639744" lon="4.909987">
        <ele>43.90905</ele>
        <time>2021-06-30T16:54:21Z</time>
      </trkpt>
      <trkpt lat="43.639744" lon="4.909987">
        <ele>44.09312</ele>
        <time>2021-06-30T16:54:22Z</time>
      </trkpt>
      <trkpt lat="43.639744" lon="4.909987">
        <ele>44.06011</ele>
        <time>2021-06-30T16:54:23Z</time>
      </trkpt>
      <trkpt lat="43.639744" lon="4.909987">
        <ele>43.98510</ele>
        <time>2021-06-30T16:54:24Z</time>
      </trkpt>
      <trkpt lat="43.639744" lon="4.909987">
        <ele>44.16614</ele>
        <time>2021-06-30T16:54:25Z</time>
      </trkpt>
      <trkpt lat="43.639744" lon="4.909987">
        <ele>44.09683</ele>
        <time>2021-06-30T16:54:26Z</time>
      </trkpt>
      <trkpt lat="43.639744" lon="4.909987">
        <ele>44.40168</ele>
        <time>2021-06-30T16:54:27Z</time>
      </trkpt>
      <trkpt lat="43.639744" lon="4.909987">
        <ele>44.33892</ele>
        <time>2021-06-30T16:54:28Z</time>
      </trkpt>
      <trkpt lat="43.639744" lon="4.909959">
        <ele>44.65858</ele>
        <time>2021-06-30T16:54:29Z</time>
      </trkpt>
      <trkpt lat="43.639744" lon="4.909905">
        <ele>44.78608</ele>
        <time>2021-06-30T16:54:30Z</time>
      </trkpt>
      <trkpt lat="43.639744" lon="4.910175">
        <ele>45.15278</ele>
        <time>2021-06-30T16:54:31Z</time>
      </trkpt>
      <trkpt lat="43.639744" lon="4.910175">
        <ele>45.47675</ele>
        <time>2021-06-30T16:54:32Z</time>
      </trkpt>
      <trkpt lat="43.639740" lon="4.910416">
        <ele>45.76075</ele>
        <time>2021-06-30T16:54:33Z</time>
      </trkpt>
      <trkpt lat="43.639740" lon="4.910618">
        <ele>45.77163</ele>
        <time>2021-06-30T16:54:34Z</time>
      </trkpt>
      <trkpt lat="43.639740" lon="4.910790">
        <ele>46.41484</ele>
        <time>2021-06-30T16:54:35Z</time>
      </trkpt>
      <trkpt lat="43.639736" lon="4.911011">
        <ele>47.58204</ele>
        <time>2021-06-30T16:54:36Z</time>
      </trkpt>
      <trkpt lat="43.639736" lon="4.911263">
        <ele>47.70570</ele>
        <time>2021-06-30T16:54:37Z</time>
      </trkpt>
      <trkpt lat="43.639736" lon="4.911577">
        <ele>47.05169</ele>
        <time>2021-06-30T16:54:38Z</time>
      </trkpt>
      <trkpt lat="43.639736" lon="4.911828">
        <ele>47.53157</ele>
        <time>2021-06-30T16:54:39Z</time>
      </trkpt>
      <trkpt lat="43.639732" lon="4.912056">
        <ele>47.42043</ele>
        <time>2021-06-30T16:54:40Z</time>
      </trkpt>
      <trkpt lat="43.639732" lon="4.912333">
        <ele>47.77345</ele>
        <time>2021-06-30T16:54:41Z</time>
      </trkpt>
      <trkpt lat="43.639732" lon="4.912563">
        <ele>47.44627</ele>
        <time>2021-06-30T16:54:42Z</time>
      </trkpt>
      <trkpt lat="43.639732" lon="4.912563">
        <ele>47.68744</ele>
        <time>2021-06-30T16:54:43Z</time>
      </trkpt>
      <trkpt lat="43.639736" lon="4.912822">
        <ele>47.47298</ele>
        <time>2021-06-30T16:54:44Z</time>
      </trkpt>
      <trkpt lat="43.639717" lon="4.913048">
        <ele>47.77051</ele>
        <time>2021-06-30T16:54:45Z</time>
      </trkpt>
      <trkpt lat="43.639736" lon="4.913268">
        <ele>47.33389</ele>
        <time>2021-06-30T16:54:46Z</time>
      </trkpt>
      <trkpt lat="43.639774" lon="4.913540">
        <ele>48.16866</ele>
        <time>2021-06-30T16:54:47Z</time>
      </trkpt>
      <trkpt lat="43.639809" lon="4.913775">
        <ele>47.91461</ele>
        <time>2021-06-30T16:54:48Z</time>
      </trkpt>
      <trkpt lat="43.639835" lon="4.913999">
        <ele>47.96579</ele>
        <time>2021-06-30T16:54:49Z</time>
      </trkpt>
      <trkpt lat="43.639839" lon="4.914206">
        <ele>47.54681</ele>
        <time>2021-06-30T16:54:50Z</time>
      </trkpt>
      <trkpt lat="43.639839" lon="4.914384">
        <ele>47.25830</ele>
        <time>2021-06-30T16:54:51Z</time>
      </trkpt>
      <trkpt lat="43.639839" lon="4.914384">
        <ele>46.77948</ele>
        <time>2021-06-30T16:54:52Z</time>
      </trkpt>
      <trkpt lat="43.639843" lon="4.914484">
        <ele>46.63473</ele>
        <time>2021-06-30T16:54:53Z</time>
      </trkpt>
      <trkpt lat="43.639805" lon="4.914544">
        <ele>47.35043</ele>
        <time>2021-06-30T16:54:54Z</time>
      </trkpt>
      <trkpt lat="43.639751" lon="4.914629">
        <ele>46.63545</ele>
        <time>2021-06-30T16:54:55Z</time>
      </trkpt>
      <trkpt lat="43.639713" lon="4.914788">
        <ele>46.57299</ele>
        <time>2021-06-30T16:54:56Z</time>
      </trkpt>
      <trkpt lat="43.639713" lon="4.914995">
        <ele>47.10208</ele>
        <time>2021-06-30T16:54:57Z</time>
      </trkpt>
      <trkpt lat="43.639755" lon="4.915120">
        <ele>47.62183</ele>
        <time>2021-06-30T16:54:58Z</time>
      </trkpt>
      <trkpt lat="43.639832" lon="4.915218">
        <ele>48.34552</ele>
        <time>2021-06-30T16:54:59Z</time>
      </trkpt>
      <trkpt lat="43.639927" lon="4.915271">
        <ele>48.58887</ele>
        <time>2021-06-30T16:55:00Z</time>
      </trkpt>
      <trkpt lat="43.640022" lon="4.915283">
        <ele>46.90464</ele>
        <time>2021-06-30T16:55:01Z</time>
      </trkpt>
      <trkpt lat="43.640125" lon="4.915264">
        <ele>46.90987</ele>
        <time>2021-06-30T16:55:02Z</time>
      </trkpt>
      <trkpt lat="43.640198" lon="4.915190">
        <ele>47.00301</ele>
        <time>2021-06-30T16:55:03Z</time>
      </trkpt>
      <trkpt lat="43.640251" lon="4.915119">
        <ele>48.40967</ele>
        <time>2021-06-30T16:55:04Z</time>
      </trkpt>
      <trkpt lat="43.640289" lon="4.915019">
        <ele>49.00214</ele>
        <time>2021-06-30T16:55:05Z</time>
      </trkpt>
      <trkpt lat="43.640301" lon="4.914913">
        <ele>48.73523</ele>
        <time>2021-06-30T16:55:06Z</time>
      </trkpt>
      <trkpt lat="43.640293" lon="4.914783">
        <ele>48.63525</ele>
        <time>2021-06-30T16:55:07Z</time>
      </trkpt>
      <trkpt lat="43.640331" lon="4.914693">
        <ele>47.79352</ele>
        <time>2021-06-30T16:55:08Z</time>
      </trkpt>
      <trkpt lat="43.640499" lon="4.914571">
        <ele>47.46690</ele>
        <time>2021-06-30T16:55:09Z</time>
      </trkpt>
      <trkpt lat="43.640499" lon="4.914571">
        <ele>47.71490</ele>
        <time>2021-06-30T16:55:10Z</time>
      </trkpt>
      <trkpt lat="43.640663" lon="4.914475">
        <ele>48.19784</ele>
        <time>2021-06-30T16:55:11Z</time>
      </trkpt>
      <trkpt lat="43.640831" lon="4.914388">
        <ele>48.85354</ele>
        <time>2021-06-30T16:55:12Z</time>
      </trkpt>
      <trkpt lat="43.641045" lon="4.914276">
        <ele>48.40936</ele>
        <time>2021-06-30T16:55:13Z</time>
      </trkpt>
      <trkpt lat="43.641247" lon="4.914169">
        <ele>48.39355</ele>
        <time>2021-06-30T16:55:14Z</time>
      </trkpt>
      <trkpt lat="43.641479" lon="4.914019">
        <ele>48.32312</ele>
        <time>2021-06-30T16:55:15Z</time>
      </trkpt>
      <trkpt lat="43.641731" lon="4.913915">
        <ele>48.25244</ele>
        <time>2021-06-30T16:55:16Z</time>
      </trkpt>
      <trkpt lat="43.641994" lon="4.913806">
        <ele>47.76880</ele>
        <time>2021-06-30T16:55:17Z</time>
      </trkpt>
      <trkpt lat="43.642273" lon="4.913684">
        <ele>47.30359</ele>
        <time>2021-06-30T16:55:18Z</time>
      </trkpt>
      <trkpt lat="43.642590" lon="4.913545">
        <ele>47.25323</ele>
        <time>2021-06-30T16:55:19Z</time>
      </trkpt>
      <trkpt lat="43.642914" lon="4.913402">
        <ele>47.20374</ele>
        <time>2021-06-30T16:55:20Z</time>
      </trkpt>
      <trkpt lat="43.643204" lon="4.913275">
        <ele>47.02423</ele>
        <time>2021-06-30T16:55:21Z</time>
      </trkpt>
      <trkpt lat="43.643204" lon="4.913275">
        <ele>46.96429</ele>
        <time>2021-06-30T16:55:22Z</time>
      </trkpt>
      <trkpt lat="43.643539" lon="4.913129">
        <ele>46.65955</ele>
        <time>2021-06-30T16:55:23Z</time>
      </trkpt>
      <trkpt lat="43.643833" lon="4.913000">
        <ele>46.57227</ele>
        <time>2021-06-30T16:55:24Z</time>
      </trkpt>
      <trkpt lat="43.644073" lon="4.912894">
        <ele>46.37732</ele>
        <time>2021-06-30T16:55:25Z</time>
      </trkpt>
      <trkpt lat="43.644337" lon="4.912779">
        <ele>46.63776</ele>
        <time>2021-06-30T16:55:26Z</time>
      </trkpt>
      <trkpt lat="43.644627" lon="4.912652">
        <ele>46.10773</ele>
        <time>2021-06-30T16:55:27Z</time>
      </trkpt>
      <trkpt lat="43.644890" lon="4.912536">
        <ele>46.28412</ele>
        <time>2021-06-30T16:55:28Z</time>
      </trkpt>
      <trkpt lat="43.645157" lon="4.912421">
        <ele>46.02069</ele>
        <time>2021-06-30T16:55:29Z</time>
      </trkpt>
      <trkpt lat="43.645451" lon="4.912291">
        <ele>45.81989</ele>
        <time>2021-06-30T16:55:30Z</time>
      </trkpt>
      <trkpt lat="43.645699" lon="4.912183">
        <ele>45.96838</ele>
        <time>2021-06-30T16:55:31Z</time>
      </trkpt>
      <trkpt lat="43.645969" lon="4.912064">
        <ele>45.94141</ele>
        <time>2021-06-30T16:55:32Z</time>
      </trkpt>
      <trkpt lat="43.646240" lon="4.911945">
        <ele>45.84912</ele>
        <time>2021-06-30T16:55:33Z</time>
      </trkpt>
      <trkpt lat="43.646492" lon="4.911835">
        <ele>45.80988</ele>
        <time>2021-06-30T16:55:34Z</time>
      </trkpt>
      <trkpt lat="43.646782" lon="4.911707">
        <ele>45.91089</ele>
        <time>2021-06-30T16:55:35Z</time>
      </trkpt>
      <trkpt lat="43.647045" lon="4.911592">
        <ele>46.02948</ele>
        <time>2021-06-30T16:55:36Z</time>
      </trkpt>
      <trkpt lat="43.647045" lon="4.911592">
        <ele>46.02545</ele>
        <time>2021-06-30T16:55:37Z</time>
      </trkpt>
      <trkpt lat="43.647327" lon="4.911469">
        <ele>45.95770</ele>
        <time>2021-06-30T16:55:38Z</time>
      </trkpt>
      <trkpt lat="43.647591" lon="4.911354">
        <ele>46.11975</ele>
        <time>2021-06-30T16:55:39Z</time>
      </trkpt>
      <trkpt lat="43.647865" lon="4.911233">
        <ele>46.33728</ele>
        <time>2021-06-30T16:55:40Z</time>
      </trkpt>
      <trkpt lat="43.648144" lon="4.911111">
        <ele>46.39972</ele>
        <time>2021-06-30T16:55:41Z</time>
      </trkpt>
      <trkpt lat="43.648418" lon="4.910991">
        <ele>46.38330</ele>
        <time>2021-06-30T16:55:42Z</time>
      </trkpt>
      <trkpt lat="43.648670" lon="4.910880">
        <ele>46.79443</ele>
        <time>2021-06-30T16:55:43Z</time>
      </trkpt>
      <trkpt lat="43.648956" lon="4.910755">
        <ele>46.40161</ele>
        <time>2021-06-30T16:55:44Z</time>
      </trkpt>
      <trkpt lat="43.649227" lon="4.910636">
        <ele>46.27740</ele>
        <time>2021-06-30T16:55:45Z</time>
      </trkpt>
      <trkpt lat="43.649502" lon="4.910516">
        <ele>46.30334</ele>
        <time>2021-06-30T16:55:46Z</time>
      </trkpt>
      <trkpt lat="43.649757" lon="4.910403">
        <ele>46.52380</ele>
        <time>2021-06-30T16:55:47Z</time>
      </trkpt>
      <trkpt lat="43.650040" lon="4.910281">
        <ele>46.40082</ele>
        <time>2021-06-30T16:55:48Z</time>
      </trkpt>
      <trkpt lat="43.650288" lon="4.910172">
        <ele>46.49310</ele>
        <time>2021-06-30T16:55:49Z</time>
      </trkpt>
      <trkpt lat="43.650547" lon="4.910059">
        <ele>46.70087</ele>
        <time>2021-06-30T16:55:50Z</time>
      </trkpt>
      <trkpt lat="43.650833" lon="4.909932">
        <ele>46.87103</ele>
        <time>2021-06-30T16:55:51Z</time>
      </trkpt>
      <trkpt lat="43.651146" lon="4.909797">
        <ele>46.72742</ele>
        <time>2021-06-30T16:55:52Z</time>
      </trkpt>
      <trkpt lat="43.651146" lon="4.909797">
        <ele>46.59528</ele>
        <time>2021-06-30T16:55:53Z</time>
      </trkpt>
      <trkpt lat="43.651440" lon="4.909669">
        <ele>46.56012</ele>
        <time>2021-06-30T16:55:54Z</time>
      </trkpt>
      <trkpt lat="43.651772" lon="4.909523">
        <ele>46.77612</ele>
        <time>2021-06-30T16:55:55Z</time>
      </trkpt>
      <trkpt lat="43.652065" lon="4.909394">
        <ele>46.60944</ele>
        <time>2021-06-30T16:55:56Z</time>
      </trkpt>
      <trkpt lat="43.652351" lon="4.909270">
        <ele>46.09753</ele>
        <time>2021-06-30T16:55:57Z</time>
      </trkpt>
      <trkpt lat="43.652679" lon="4.909126">
        <ele>45.74768</ele>
        <time>2021-06-30T16:55:58Z</time>
      </trkpt>
      <trkpt lat="43.652950" lon="4.909008">
        <ele>45.87140</ele>
        <time>2021-06-30T16:55:59Z</time>
      </trkpt>
      <trkpt lat="43.653244" lon="4.908879">
        <ele>45.74756</ele>
        <time>2021-06-30T16:56:00Z</time>
      </trkpt>
      <trkpt lat="43.653587" lon="4.908729">
        <ele>46.01086</ele>
        <time>2021-06-30T16:56:01Z</time>
      </trkpt>
      <trkpt lat="43.653877" lon="4.908602">
        <ele>46.24847</ele>
        <time>2021-06-30T16:56:02Z</time>
      </trkpt>
      <trkpt lat="43.654182" lon="4.908468">
        <ele>46.10272</ele>
        <time>2021-06-30T16:56:03Z</time>
      </trkpt>
      <trkpt lat="43.654503" lon="4.908329">
        <ele>46.89734</ele>
        <time>2021-06-30T16:56:04Z</time>
      </trkpt>
      <trkpt lat="43.654797" lon="4.908201">
        <ele>47.49542</ele>
        <time>2021-06-30T16:56:05Z</time>
      </trkpt>
      <trkpt lat="43.655117" lon="4.908060">
        <ele>47.73584</ele>
        <time>2021-06-30T16:56:06Z</time>
      </trkpt>
      <trkpt lat="43.655117" lon="4.908060">
        <ele>47.72986</ele>
        <time>2021-06-30T16:56:07Z</time>
      </trkpt>
      <trkpt lat="43.655430" lon="4.907924">
        <ele>47.41077</ele>
        <time>2021-06-30T16:56:08Z</time>
      </trkpt>
      <trkpt lat="43.655777" lon="4.907772">
        <ele>47.15558</ele>
        <time>2021-06-30T16:56:09Z</time>
      </trkpt>
      <trkpt lat="43.656067" lon="4.907645">
        <ele>47.26324</ele>
        <time>2021-06-30T16:56:10Z</time>
      </trkpt>
      <trkpt lat="43.656399" lon="4.907499">
        <ele>47.28754</ele>
        <time>2021-06-30T16:56:11Z</time>
      </trkpt>
      <trkpt lat="43.656700" lon="4.907366">
        <ele>46.97083</ele>
        <time>2021-06-30T16:56:12Z</time>
      </trkpt>
      <trkpt lat="43.656990" lon="4.907239">
        <ele>47.00647</ele>
        <time>2021-06-30T16:56:13Z</time>
      </trkpt>
      <trkpt lat="43.657349" lon="4.907083">
        <ele>47.66968</ele>
        <time>2021-06-30T16:56:14Z</time>
      </trkpt>
      <trkpt lat="43.657681" lon="4.906937">
        <ele>47.76111</ele>
        <time>2021-06-30T16:56:15Z</time>
      </trkpt>
      <trkpt lat="43.657963" lon="4.906814">
        <ele>48.20068</ele>
        <time>2021-06-30T16:56:16Z</time>
      </trkpt>
      <trkpt lat="43.657963" lon="4.906814">
        <ele>48.17700</ele>
        <time>2021-06-30T16:56:17Z</time>
      </trkpt>
      <trkpt lat="43.658264" lon="4.906681">
        <ele>48.20844</ele>
        <time>2021-06-30T16:56:18Z</time>
      </trkpt>
      <trkpt lat="43.658569" lon="4.906548">
        <ele>48.50946</ele>
        <time>2021-06-30T16:56:19Z</time>
      </trkpt>
      <trkpt lat="43.658916" lon="4.906397">
        <ele>48.17688</ele>
        <time>2021-06-30T16:56:20Z</time>
      </trkpt>
      <trkpt lat="43.659191" lon="4.906276">
        <ele>48.33087</ele>
        <time>2021-06-30T16:56:21Z</time>
      </trkpt>
      <trkpt lat="43.659527" lon="4.906129">
        <ele>47.81262</ele>
        <time>2021-06-30T16:56:22Z</time>
      </trkpt>
      <trkpt lat="43.659779" lon="4.906019">
        <ele>47.83545</ele>
        <time>2021-06-30T16:56:23Z</time>
      </trkpt>
      <trkpt lat="43.660107" lon="4.905877">
        <ele>48.03851</ele>
        <time>2021-06-30T16:56:24Z</time>
      </trkpt>
      <trkpt lat="43.660400" lon="4.905734">
        <ele>47.47076</ele>
        <time>2021-06-30T16:56:25Z</time>
      </trkpt>
      <trkpt lat="43.660679" lon="4.905598">
        <ele>47.13757</ele>
        <time>2021-06-30T16:56:26Z</time>
      </trkpt>
      <trkpt lat="43.661003" lon="4.905455">
        <ele>47.15601</ele>
        <time>2021-06-30T16:56:27Z</time>
      </trkpt>
      <trkpt lat="43.661312" lon="4.905325">
        <ele>47.47491</ele>
        <time>2021-06-30T16:56:28Z</time>
      </trkpt>
      <trkpt lat="43.661312" lon="4.905325">
        <ele>47.61890</ele>
        <time>2021-06-30T16:56:29Z</time>
      </trkpt>
      <trkpt lat="43.661652" lon="4.905184">
        <ele>48.18451</ele>
        <time>2021-06-30T16:56:30Z</time>
      </trkpt>
      <trkpt lat="43.661926" lon="4.905068">
        <ele>48.20807</ele>
        <time>2021-06-30T16:56:31Z</time>
      </trkpt>
      <trkpt lat="43.662251" lon="4.904934">
        <ele>48.56824</ele>
        <time>2021-06-30T16:56:32Z</time>
      </trkpt>
      <trkpt lat="43.662548" lon="4.904809">
        <ele>48.67206</ele>
        <time>2021-06-30T16:56:33Z</time>
      </trkpt>
      <trkpt lat="43.662846" lon="4.904685">
        <ele>49.01105</ele>
        <time>2021-06-30T16:56:34Z</time>
      </trkpt>
      <trkpt lat="43.663177" lon="4.904537">
        <ele>49.61279</ele>
        <time>2021-06-30T16:56:35Z</time>
      </trkpt>
      <trkpt lat="43.663467" lon="4.904395">
        <ele>49.60754</ele>
        <time>2021-06-30T16:56:36Z</time>
      </trkpt>
      <trkpt lat="43.663712" lon="4.904273">
        <ele>50.02863</ele>
        <time>2021-06-30T16:56:37Z</time>
      </trkpt>
      <trkpt lat="43.664013" lon="4.904122">
        <ele>50.34155</ele>
        <time>2021-06-30T16:56:38Z</time>
      </trkpt>
      <trkpt lat="43.664295" lon="4.903983">
        <ele>50.41449</ele>
        <time>2021-06-30T16:56:39Z</time>
      </trkpt>
      <trkpt lat="43.664570" lon="4.903847">
        <ele>51.25348</ele>
        <time>2021-06-30T16:56:40Z</time>
      </trkpt>
      <trkpt lat="43.664825" lon="4.903718">
        <ele>51.78088</ele>
        <time>2021-06-30T16:56:41Z</time>
      </trkpt>
      <trkpt lat="43.665081" lon="4.903592">
        <ele>51.87537</ele>
        <time>2021-06-30T16:56:42Z</time>
      </trkpt>
      <trkpt lat="43.665325" lon="4.903433">
        <ele>52.34442</ele>
        <time>2021-06-30T16:56:43Z</time>
      </trkpt>
      <trkpt lat="43.665588" lon="4.903181">
        <ele>52.52155</ele>
        <time>2021-06-30T16:56:44Z</time>
      </trkpt>
      <trkpt lat="43.665588" lon="4.903181">
        <ele>52.35242</ele>
        <time>2021-06-30T16:56:45Z</time>
      </trkpt>
      <trkpt lat="43.665813" lon="4.902898">
        <ele>51.89490</ele>
        <time>2021-06-30T16:56:46Z</time>
      </trkpt>
      <trkpt lat="43.665970" lon="4.902694">
        <ele>52.84174</ele>
        <time>2021-06-30T16:56:47Z</time>
      </trkpt>
      <trkpt lat="43.666092" lon="4.902520">
        <ele>53.48645</ele>
        <time>2021-06-30T16:56:48Z</time>
      </trkpt>
      <trkpt lat="43.666225" lon="4.902263">
        <ele>53.82727</ele>
        <time>2021-06-30T16:56:49Z</time>
      </trkpt>
      <trkpt lat="43.666313" lon="4.902047">
        <ele>54.03833</ele>
        <time>2021-06-30T16:56:50Z</time>
      </trkpt>
      <trkpt lat="43.666389" lon="4.901846">
        <ele>51.68600</ele>
        <time>2021-06-30T16:56:51Z</time>
      </trkpt>
      <trkpt lat="43.666489" lon="4.901589">
        <ele>51.47042</ele>
        <time>2021-06-30T16:56:52Z</time>
      </trkpt>
      <trkpt lat="43.666573" lon="4.901373">
        <ele>51.68953</ele>
        <time>2021-06-30T16:56:53Z</time>
      </trkpt>
      <trkpt lat="43.666660" lon="4.901166">
        <ele>52.68885</ele>
        <time>2021-06-30T16:56:54Z</time>
      </trkpt>
      <trkpt lat="43.666748" lon="4.900948">
        <ele>52.81498</ele>
        <time>2021-06-30T16:56:55Z</time>
      </trkpt>
      <trkpt lat="43.666836" lon="4.900749">
        <ele>52.96140</ele>
        <time>2021-06-30T16:56:56Z</time>
      </trkpt>
      <trkpt lat="43.666836" lon="4.900749">
        <ele>53.70487</ele>
        <time>2021-06-30T16:56:57Z</time>
      </trkpt>
      <trkpt lat="43.666939" lon="4.900560">
        <ele>54.10049</ele>
        <time>2021-06-30T16:56:58Z</time>
      </trkpt>
      <trkpt lat="43.667046" lon="4.900369">
        <ele>54.59970</ele>
        <time>2021-06-30T16:56:59Z</time>
      </trkpt>
      <trkpt lat="43.667149" lon="4.900179">
        <ele>55.55082</ele>
        <time>2021-06-30T16:57:00Z</time>
      </trkpt>
      <trkpt lat="43.667267" lon="4.899988">
        <ele>56.89987</ele>
        <time>2021-06-30T16:57:01Z</time>
      </trkpt>
      <trkpt lat="43.667404" lon="4.899787">
        <ele>59.43964</ele>
        <time>2021-06-30T16:57:02Z</time>
      </trkpt>
      <trkpt lat="43.667545" lon="4.899576">
        <ele>59.93311</ele>
        <time>2021-06-30T16:57:03Z</time>
      </trkpt>
      <trkpt lat="43.667713" lon="4.899382">
        <ele>59.67950</ele>
        <time>2021-06-30T16:57:04Z</time>
      </trkpt>
      <trkpt lat="43.667862" lon="4.899227">
        <ele>59.59930</ele>
        <time>2021-06-30T16:57:05Z</time>
      </trkpt>
      <trkpt lat="43.668030" lon="4.899080">
        <ele>58.31829</ele>
        <time>2021-06-30T16:57:06Z</time>
      </trkpt>
      <trkpt lat="43.668198" lon="4.898934">
        <ele>59.65308</ele>
        <time>2021-06-30T16:57:07Z</time>
      </trkpt>
      <trkpt lat="43.668388" lon="4.898771">
        <ele>59.51959</ele>
        <time>2021-06-30T16:57:08Z</time>
      </trkpt>
      <trkpt lat="43.668388" lon="4.898771">
        <ele>59.21368</ele>
        <time>2021-06-30T16:57:09Z</time>
      </trkpt>
      <trkpt lat="43.668564" lon="4.898644">
        <ele>59.60339</ele>
        <time>2021-06-30T16:57:10Z</time>
      </trkpt>
      <trkpt lat="43.668736" lon="4.898523">
        <ele>59.75238</ele>
        <time>2021-06-30T16:57:11Z</time>
      </trkpt>
      <trkpt lat="43.668941" lon="4.898379">
        <ele>60.38788</ele>
        <time>2021-06-30T16:57:12Z</time>
      </trkpt>
      <trkpt lat="43.669151" lon="4.898233">
        <ele>60.82642</ele>
        <time>2021-06-30T16:57:13Z</time>
      </trkpt>
      <trkpt lat="43.669407" lon="4.898053">
        <ele>61.39594</ele>
        <time>2021-06-30T16:57:14Z</time>
      </trkpt>
      <trkpt lat="43.669701" lon="4.897847">
        <ele>61.69763</ele>
        <time>2021-06-30T16:57:15Z</time>
      </trkpt>
      <trkpt lat="43.670029" lon="4.897618">
        <ele>62.18079</ele>
        <time>2021-06-30T16:57:16Z</time>
      </trkpt>
      <trkpt lat="43.670364" lon="4.897384">
        <ele>62.68457</ele>
        <time>2021-06-30T16:57:17Z</time>
      </trkpt>
      <trkpt lat="43.670689" lon="4.897157">
        <ele>62.54468</ele>
        <time>2021-06-30T16:57:18Z</time>
      </trkpt>
      <trkpt lat="43.670967" lon="4.896963">
        <ele>62.88141</ele>
        <time>2021-06-30T16:57:19Z</time>
      </trkpt>
      <trkpt lat="43.671261" lon="4.896769">
        <ele>63.60931</ele>
        <time>2021-06-30T16:57:20Z</time>
      </trkpt>
      <trkpt lat="43.671570" lon="4.896561">
        <ele>64.08130</ele>
        <time>2021-06-30T16:57:21Z</time>
      </trkpt>
      <trkpt lat="43.671848" lon="4.896378">
        <ele>64.07727</ele>
        <time>2021-06-30T16:57:22Z</time>
      </trkpt>
      <trkpt lat="43.672157" lon="4.896172">
        <ele>64.01318</ele>
        <time>2021-06-30T16:57:23Z</time>
      </trkpt>
      <trkpt lat="43.672157" lon="4.896172">
        <ele>64.23071</ele>
        <time>2021-06-30T16:57:24Z</time>
      </trkpt>
      <trkpt lat="43.672474" lon="4.895950">
        <ele>64.16022</ele>
        <time>2021-06-30T16:57:25Z</time>
      </trkpt>
      <trkpt lat="43.672752" lon="4.895751">
        <ele>63.80188</ele>
        <time>2021-06-30T16:57:26Z</time>
      </trkpt>
      <trkpt lat="43.673046" lon="4.895541">
        <ele>63.56384</ele>
        <time>2021-06-30T16:57:27Z</time>
      </trkpt>
      <trkpt lat="43.673325" lon="4.895352">
        <ele>63.65417</ele>
        <time>2021-06-30T16:57:28Z</time>
      </trkpt>
      <trkpt lat="43.673630" lon="4.895143">
        <ele>64.10522</ele>
        <time>2021-06-30T16:57:29Z</time>
      </trkpt>
      <trkpt lat="43.673927" lon="4.894937">
        <ele>63.79486</ele>
        <time>2021-06-30T16:57:30Z</time>
      </trkpt>
      <trkpt lat="43.674206" lon="4.894742">
        <ele>63.39307</ele>
        <time>2021-06-30T16:57:31Z</time>
      </trkpt>
      <trkpt lat="43.674507" lon="4.894533">
        <ele>63.95886</ele>
        <time>2021-06-30T16:57:32Z</time>
      </trkpt>
      <trkpt lat="43.674793" lon="4.894333">
        <ele>64.09326</ele>
        <time>2021-06-30T16:57:33Z</time>
      </trkpt>
      <trkpt lat="43.675076" lon="4.894136">
        <ele>64.17334</ele>
        <time>2021-06-30T16:57:34Z</time>
      </trkpt>
      <trkpt lat="43.675076" lon="4.894136">
        <ele>64.62408</ele>
        <time>2021-06-30T16:57:35Z</time>
      </trkpt>
      <trkpt lat="43.675385" lon="4.893922">
        <ele>65.28021</ele>
        <time>2021-06-30T16:57:36Z</time>
      </trkpt>
      <trkpt lat="43.675652" lon="4.893737">
        <ele>65.64044</ele>
        <time>2021-06-30T16:57:37Z</time>
      </trkpt>
      <trkpt lat="43.675907" lon="4.893558">
        <ele>65.90442</ele>
        <time>2021-06-30T16:57:38Z</time>
      </trkpt>
      <trkpt lat="43.676174" lon="4.893374">
        <ele>66.03558</ele>
        <time>2021-06-30T16:57:39Z</time>
      </trkpt>
      <trkpt lat="43.676426" lon="4.893177">
        <ele>66.31757</ele>
        <time>2021-06-30T16:57:40Z</time>
      </trkpt>
      <trkpt lat="43.676636" lon="4.892991">
        <ele>66.84003</ele>
        <time>2021-06-30T16:57:41Z</time>
      </trkpt>
      <trkpt lat="43.676830" lon="4.892802">
        <ele>68.05554</ele>
        <time>2021-06-30T16:57:42Z</time>
      </trkpt>
      <trkpt lat="43.677032" lon="4.892506">
        <ele>68.41669</ele>
        <time>2021-06-30T16:57:43Z</time>
      </trkpt>
      <trkpt lat="43.677204" lon="4.892218">
        <ele>69.03009</ele>
        <time>2021-06-30T16:57:44Z</time>
      </trkpt>
      <trkpt lat="43.677353" lon="4.891944">
        <ele>68.85400</ele>
        <time>2021-06-30T16:57:45Z</time>
      </trkpt>
      <trkpt lat="43.677467" lon="4.891705">
        <ele>68.66901</ele>
        <time>2021-06-30T16:57:46Z</time>
      </trkpt>
      <trkpt lat="43.677551" lon="4.891575">
        <ele>65.21227</ele>
        <time>2021-06-30T16:57:47Z</time>
      </trkpt>
      <trkpt lat="43.677635" lon="4.891477">
        <ele>64.83543</ele>
        <time>2021-06-30T16:57:48Z</time>
      </trkpt>
      <trkpt lat="43.677750" lon="4.891387">
        <ele>62.98326</ele>
        <time>2021-06-30T16:57:49Z</time>
      </trkpt>
      <trkpt lat="43.677750" lon="4.891387">
        <ele>62.91666</ele>
        <time>2021-06-30T16:57:50Z</time>
      </trkpt>
      <trkpt lat="43.677914" lon="4.891342">
        <ele>65.76581</ele>
        <time>2021-06-30T16:57:51Z</time>
      </trkpt>
      <trkpt lat="43.678158" lon="4.891305">
        <ele>65.56183</ele>
        <time>2021-06-30T16:57:52Z</time>
      </trkpt>
      <trkpt lat="43.678379" lon="4.891244">
        <ele>64.71277</ele>
        <time>2021-06-30T16:57:53Z</time>
      </trkpt>
      <trkpt lat="43.678555" lon="4.891155">
        <ele>63.91339</ele>
        <time>2021-06-30T16:57:54Z</time>
      </trkpt>
      <trkpt lat="43.678753" lon="4.891056">
        <ele>63.45447</ele>
        <time>2021-06-30T16:57:55Z</time>
      </trkpt>
      <trkpt lat="43.678967" lon="4.890928">
        <ele>62.08264</ele>
        <time>2021-06-30T16:57:56Z</time>
      </trkpt>
      <trkpt lat="43.679153" lon="4.890855">
        <ele>60.84875</ele>
        <time>2021-06-30T16:57:57Z</time>
      </trkpt>
      <trkpt lat="43.679390" lon="4.890815">
        <ele>59.56879</ele>
        <time>2021-06-30T16:57:58Z</time>
      </trkpt>
      <trkpt lat="43.679577" lon="4.890832">
        <ele>58.75745</ele>
        <time>2021-06-30T16:57:59Z</time>
      </trkpt>
      <trkpt lat="43.679752" lon="4.890906">
        <ele>56.98694</ele>
        <time>2021-06-30T16:58:00Z</time>
      </trkpt>
      <trkpt lat="43.679947" lon="4.890988">
        <ele>56.97980</ele>
        <time>2021-06-30T16:58:01Z</time>
      </trkpt>
      <trkpt lat="43.680195" lon="4.891082">
        <ele>55.93219</ele>
        <time>2021-06-30T16:58:02Z</time>
      </trkpt>
      <trkpt lat="43.680195" lon="4.891082">
        <ele>55.04205</ele>
        <time>2021-06-30T16:58:03Z</time>
      </trkpt>
      <trkpt lat="43.680397" lon="4.891145">
        <ele>54.37781</ele>
        <time>2021-06-30T16:58:04Z</time>
      </trkpt>
      <trkpt lat="43.680561" lon="4.891206">
        <ele>54.05695</ele>
        <time>2021-06-30T16:58:05Z</time>
      </trkpt>
      <trkpt lat="43.680634" lon="4.891209">
        <ele>53.34564</ele>
        <time>2021-06-30T16:58:06Z</time>
      </trkpt>
      <trkpt lat="43.680996" lon="4.891118">
        <ele>52.80231</ele>
        <time>2021-06-30T16:58:07Z</time>
      </trkpt>
      <trkpt lat="43.681232" lon="4.891015">
        <ele>51.94458</ele>
        <time>2021-06-30T16:58:08Z</time>
      </trkpt>
      <trkpt lat="43.681416" lon="4.890934">
        <ele>50.23889</ele>
        <time>2021-06-30T16:58:09Z</time>
      </trkpt>
      <trkpt lat="43.681637" lon="4.890893">
        <ele>48.57214</ele>
        <time>2021-06-30T16:58:10Z</time>
      </trkpt>
      <trkpt lat="43.681850" lon="4.890870">
        <ele>46.95459</ele>
        <time>2021-06-30T16:58:11Z</time>
      </trkpt>
      <trkpt lat="43.682125" lon="4.890838">
        <ele>45.40900</ele>
        <time>2021-06-30T16:58:12Z</time>
      </trkpt>
      <trkpt lat="43.682407" lon="4.890869">
        <ele>44.30530</ele>
        <time>2021-06-30T16:58:13Z</time>
      </trkpt>
      <trkpt lat="43.682690" lon="4.890902">
        <ele>43.36053</ele>
        <time>2021-06-30T16:58:14Z</time>
      </trkpt>
      <trkpt lat="43.682690" lon="4.890902">
        <ele>42.64819</ele>
        <time>2021-06-30T16:58:15Z</time>
      </trkpt>
      <trkpt lat="43.682949" lon="4.890932">
        <ele>41.79712</ele>
        <time>2021-06-30T16:58:16Z</time>
      </trkpt>
      <trkpt lat="43.683174" lon="4.890957">
        <ele>40.93860</ele>
        <time>2021-06-30T16:58:17Z</time>
      </trkpt>
      <trkpt lat="43.683380" lon="4.890981">
        <ele>34.54567</ele>
        <time>2021-06-30T16:58:18Z</time>
      </trkpt>
      <trkpt lat="43.683521" lon="4.890994">
        <ele>33.18810</ele>
        <time>2021-06-30T16:58:19Z</time>
      </trkpt>
      <trkpt lat="43.683655" lon="4.890989">
        <ele>32.19174</ele>
        <time>2021-06-30T16:58:20Z</time>
      </trkpt>
      <trkpt lat="43.683758" lon="4.890937">
        <ele>31.10312</ele>
        <time>2021-06-30T16:58:21Z</time>
      </trkpt>
      <trkpt lat="43.683876" lon="4.890849">
        <ele>34.48193</ele>
        <time>2021-06-30T16:58:22Z</time>
      </trkpt>
      <trkpt lat="43.683983" lon="4.890685">
        <ele>34.09802</ele>
        <time>2021-06-30T16:58:23Z</time>
      </trkpt>
      <trkpt lat="43.684074" lon="4.890447">
        <ele>33.68878</ele>
        <time>2021-06-30T16:58:24Z</time>
      </trkpt>
      <trkpt lat="43.684143" lon="4.890214">
        <ele>28.90542</ele>
        <time>2021-06-30T16:58:25Z</time>
      </trkpt>
      <trkpt lat="43.684208" lon="4.889985">
        <ele>27.79476</ele>
        <time>2021-06-30T16:58:26Z</time>
      </trkpt>
      <trkpt lat="43.684208" lon="4.889985">
        <ele>30.09827</ele>
        <time>2021-06-30T16:58:27Z</time>
      </trkpt>
      <trkpt lat="43.684288" lon="4.889708">
        <ele>29.13861</ele>
        <time>2021-06-30T16:58:28Z</time>
      </trkpt>
      <trkpt lat="43.684376" lon="4.889399">
        <ele>28.58331</ele>
        <time>2021-06-30T16:58:29Z</time>
      </trkpt>
      <trkpt lat="43.684456" lon="4.889113">
        <ele>27.74194</ele>
        <time>2021-06-30T16:58:30Z</time>
      </trkpt>
      <trkpt lat="43.684559" lon="4.888758">
        <ele>26.72357</ele>
        <time>2021-06-30T16:58:31Z</time>
      </trkpt>
      <trkpt lat="43.684669" lon="4.888364">
        <ele>26.01801</ele>
        <time>2021-06-30T16:58:32Z</time>
      </trkpt>
      <trkpt lat="43.684795" lon="4.887896">
        <ele>24.93030</ele>
        <time>2021-06-30T16:58:33Z</time>
      </trkpt>
      <trkpt lat="43.684891" lon="4.887540">
        <ele>24.52789</ele>
        <time>2021-06-30T16:58:34Z</time>
      </trkpt>
      <trkpt lat="43.685013" lon="4.887110">
        <ele>23.99078</ele>
        <time>2021-06-30T16:58:35Z</time>
      </trkpt>
      <trkpt lat="43.685112" lon="4.886742">
        <ele>23.81946</ele>
        <time>2021-06-30T16:58:36Z</time>
      </trkpt>
      <trkpt lat="43.685219" lon="4.886355">
        <ele>23.47681</ele>
        <time>2021-06-30T16:58:37Z</time>
      </trkpt>
      <trkpt lat="43.685314" lon="4.885990">
        <ele>22.81097</ele>
        <time>2021-06-30T16:58:38Z</time>
      </trkpt>
      <trkpt lat="43.685406" lon="4.885627">
        <ele>22.39288</ele>
        <time>2021-06-30T16:58:39Z</time>
      </trkpt>
      <trkpt lat="43.685490" lon="4.885297">
        <ele>22.78369</ele>
        <time>2021-06-30T16:58:40Z</time>
      </trkpt>
      <trkpt lat="43.685581" lon="4.884951">
        <ele>22.91583</ele>
        <time>2021-06-30T16:58:41Z</time>
      </trkpt>
      <trkpt lat="43.685581" lon="4.884951">
        <ele>22.59021</ele>
        <time>2021-06-30T16:58:42Z</time>
      </trkpt>
      <trkpt lat="43.685665" lon="4.884644">
        <ele>22.41870</ele>
        <time>2021-06-30T16:58:43Z</time>
      </trkpt>
      <trkpt lat="43.685760" lon="4.884300">
        <ele>22.80829</ele>
        <time>2021-06-30T16:58:44Z</time>
      </trkpt>
      <trkpt lat="43.685841" lon="4.884019">
        <ele>22.55957</ele>
        <time>2021-06-30T16:58:45Z</time>
      </trkpt>
      <trkpt lat="43.685905" lon="4.883785">
        <ele>23.03906</ele>
        <time>2021-06-30T16:58:46Z</time>
      </trkpt>
      <trkpt lat="43.685982" lon="4.883509">
        <ele>22.59711</ele>
        <time>2021-06-30T16:58:47Z</time>
      </trkpt>
      <trkpt lat="43.686043" lon="4.883269">
        <ele>22.93274</ele>
        <time>2021-06-30T16:58:48Z</time>
      </trkpt>
      <trkpt lat="43.686123" lon="4.882966">
        <ele>22.11780</ele>
        <time>2021-06-30T16:58:49Z</time>
      </trkpt>
      <trkpt lat="43.686199" lon="4.882658">
        <ele>20.81262</ele>
        <time>2021-06-30T16:58:50Z</time>
      </trkpt>
      <trkpt lat="43.686272" lon="4.882370">
        <ele>20.15912</ele>
        <time>2021-06-30T16:58:51Z</time>
      </trkpt>
      <trkpt lat="43.686356" lon="4.882189">
        <ele>19.12469</ele>
        <time>2021-06-30T16:58:52Z</time>
      </trkpt>
      <trkpt lat="43.686413" lon="4.881983">
        <ele>17.78349</ele>
        <time>2021-06-30T16:58:53Z</time>
      </trkpt>
      <trkpt lat="43.686459" lon="4.881809">
        <ele>17.30465</ele>
        <time>2021-06-30T16:58:54Z</time>
      </trkpt>
      <trkpt lat="43.686459" lon="4.881809">
        <ele>16.99768</ele>
        <time>2021-06-30T16:58:55Z</time>
      </trkpt>
      <trkpt lat="43.686535" lon="4.881512">
        <ele>16.99912</ele>
        <time>2021-06-30T16:58:56Z</time>
      </trkpt>
      <trkpt lat="43.686577" lon="4.881358">
        <ele>17.23579</ele>
        <time>2021-06-30T16:58:57Z</time>
      </trkpt>
      <trkpt lat="43.686577" lon="4.881358">
        <ele>17.30334</ele>
        <time>2021-06-30T16:58:58Z</time>
      </trkpt>
      <trkpt lat="43.686626" lon="4.881168">
        <ele>17.56563</ele>
        <time>2021-06-30T16:58:59Z</time>
      </trkpt>
      <trkpt lat="43.686672" lon="4.880993">
        <ele>17.23737</ele>
        <time>2021-06-30T16:59:00Z</time>
      </trkpt>
      <trkpt lat="43.686726" lon="4.880795">
        <ele>16.91074</ele>
        <time>2021-06-30T16:59:01Z</time>
      </trkpt>
      <trkpt lat="43.686771" lon="4.880624">
        <ele>17.36047</ele>
        <time>2021-06-30T16:59:02Z</time>
      </trkpt>
      <trkpt lat="43.686817" lon="4.880447">
        <ele>17.70426</ele>
        <time>2021-06-30T16:59:03Z</time>
      </trkpt>
      <trkpt lat="43.686855" lon="4.880248">
        <ele>17.52532</ele>
        <time>2021-06-30T16:59:04Z</time>
      </trkpt>
      <trkpt lat="43.686913" lon="4.880054">
        <ele>17.58016</ele>
        <time>2021-06-30T16:59:05Z</time>
      </trkpt>
      <trkpt lat="43.686962" lon="4.879858">
        <ele>17.90546</ele>
        <time>2021-06-30T16:59:06Z</time>
      </trkpt>
      <trkpt lat="43.687000" lon="4.879699">
        <ele>17.58563</ele>
        <time>2021-06-30T16:59:07Z</time>
      </trkpt>
      <trkpt lat="43.687042" lon="4.879539">
        <ele>17.72823</ele>
        <time>2021-06-30T16:59:08Z</time>
      </trkpt>
      <trkpt lat="43.687088" lon="4.879370">
        <ele>17.92294</ele>
        <time>2021-06-30T16:59:09Z</time>
      </trkpt>
      <trkpt lat="43.687126" lon="4.879220">
        <ele>18.52392</ele>
        <time>2021-06-30T16:59:10Z</time>
      </trkpt>
      <trkpt lat="43.687160" lon="4.879081">
        <ele>18.56578</ele>
        <time>2021-06-30T16:59:11Z</time>
      </trkpt>
      <trkpt lat="43.687195" lon="4.878936">
        <ele>18.55568</ele>
        <time>2021-06-30T16:59:12Z</time>
      </trkpt>
      <trkpt lat="43.687195" lon="4.878936">
        <ele>18.43910</ele>
        <time>2021-06-30T16:59:13Z</time>
      </trkpt>
      <trkpt lat="43.687225" lon="4.878816">
        <ele>18.29689</ele>
        <time>2021-06-30T16:59:14Z</time>
      </trkpt>
      <trkpt lat="43.687263" lon="4.878682">
        <ele>18.50106</ele>
        <time>2021-06-30T16:59:15Z</time>
      </trkpt>
      <trkpt lat="43.687305" lon="4.878533">
        <ele>22.66333</ele>
        <time>2021-06-30T16:59:16Z</time>
      </trkpt>
      <trkpt lat="43.687336" lon="4.878417">
        <ele>18.28287</ele>
        <time>2021-06-30T16:59:17Z</time>
      </trkpt>
      <trkpt lat="43.687355" lon="4.878344">
        <ele>17.96989</ele>
        <time>2021-06-30T16:59:18Z</time>
      </trkpt>
      <trkpt lat="43.687393" lon="4.878289">
        <ele>18.29394</ele>
        <time>2021-06-30T16:59:19Z</time>
      </trkpt>
      <trkpt lat="43.687481" lon="4.878272">
        <ele>21.60059</ele>
        <time>2021-06-30T16:59:20Z</time>
      </trkpt>
      <trkpt lat="43.687508" lon="4.878136">
        <ele>21.82007</ele>
        <time>2021-06-30T16:59:21Z</time>
      </trkpt>
      <trkpt lat="43.687450" lon="4.878054">
        <ele>22.85852</ele>
        <time>2021-06-30T16:59:22Z</time>
      </trkpt>
      <trkpt lat="43.687485" lon="4.877869">
        <ele>18.36179</ele>
        <time>2021-06-30T16:59:23Z</time>
      </trkpt>
      <trkpt lat="43.687523" lon="4.877702">
        <ele>18.10184</ele>
        <time>2021-06-30T16:59:24Z</time>
      </trkpt>
      <trkpt lat="43.687546" lon="4.877587">
        <ele>18.01595</ele>
        <time>2021-06-30T16:59:25Z</time>
      </trkpt>
      <trkpt lat="43.687546" lon="4.877587">
        <ele>17.78699</ele>
        <time>2021-06-30T16:59:26Z</time>
      </trkpt>
      <trkpt lat="43.687572" lon="4.877476">
        <ele>17.91995</ele>
        <time>2021-06-30T16:59:27Z</time>
      </trkpt>
      <trkpt lat="43.687595" lon="4.877374">
        <ele>17.51376</ele>
        <time>2021-06-30T16:59:28Z</time>
      </trkpt>
      <trkpt lat="43.687622" lon="4.877264">
        <ele>17.40840</ele>
        <time>2021-06-30T16:59:29Z</time>
      </trkpt>
      <trkpt lat="43.687641" lon="4.877175">
        <ele>17.38279</ele>
        <time>2021-06-30T16:59:30Z</time>
      </trkpt>
      <trkpt lat="43.687672" lon="4.877052">
        <ele>17.35248</ele>
        <time>2021-06-30T16:59:31Z</time>
      </trkpt>
      <trkpt lat="43.687687" lon="4.876976">
        <ele>16.98905</ele>
        <time>2021-06-30T16:59:32Z</time>
      </trkpt>
      <trkpt lat="43.687702" lon="4.876919">
        <ele>16.99986</ele>
        <time>2021-06-30T16:59:33Z</time>
      </trkpt>
      <trkpt lat="43.687702" lon="4.876919">
        <ele>16.88841</ele>
        <time>2021-06-30T16:59:34Z</time>
      </trkpt>
      <trkpt lat="43.687710" lon="4.876892">
        <ele>17.23349</ele>
        <time>2021-06-30T16:59:35Z</time>
      </trkpt>
      <trkpt lat="43.687721" lon="4.876834">
        <ele>16.94514</ele>
        <time>2021-06-30T16:59:36Z</time>
      </trkpt>
      <trkpt lat="43.687721" lon="4.876834">
        <ele>17.24499</ele>
        <time>2021-06-30T16:59:37Z</time>
      </trkpt>
      <trkpt lat="43.687744" lon="4.876742">
        <ele>16.88926</ele>
        <time>2021-06-30T16:59:38Z</time>
      </trkpt>
      <trkpt lat="43.687786" lon="4.876594">
        <ele>16.74484</ele>
        <time>2021-06-30T16:59:39Z</time>
      </trkpt>
      <trkpt lat="43.687817" lon="4.876485">
        <ele>16.73068</ele>
        <time>2021-06-30T16:59:40Z</time>
      </trkpt>
      <trkpt lat="43.687836" lon="4.876406">
        <ele>16.68935</ele>
        <time>2021-06-30T16:59:41Z</time>
      </trkpt>
      <trkpt lat="43.687855" lon="4.876328">
        <ele>16.44475</ele>
        <time>2021-06-30T16:59:42Z</time>
      </trkpt>
      <trkpt lat="43.687859" lon="4.876304">
        <ele>16.36757</ele>
        <time>2021-06-30T16:59:43Z</time>
      </trkpt>
      <trkpt lat="43.687881" lon="4.876221">
        <ele>16.78396</ele>
        <time>2021-06-30T16:59:44Z</time>
      </trkpt>
      <trkpt lat="43.687897" lon="4.876146">
        <ele>16.65828</ele>
        <time>2021-06-30T16:59:45Z</time>
      </trkpt>
      <trkpt lat="43.687927" lon="4.876030">
        <ele>16.76463</ele>
        <time>2021-06-30T16:59:46Z</time>
      </trkpt>
      <trkpt lat="43.687927" lon="4.876030">
        <ele>16.69408</ele>
        <time>2021-06-30T16:59:47Z</time>
      </trkpt>
      <trkpt lat="43.687946" lon="4.875942">
        <ele>16.63676</ele>
        <time>2021-06-30T16:59:48Z</time>
      </trkpt>
      <trkpt lat="43.687962" lon="4.875877">
        <ele>16.54002</ele>
        <time>2021-06-30T16:59:49Z</time>
      </trkpt>
      <trkpt lat="43.687977" lon="4.875830">
        <ele>16.59221</ele>
        <time>2021-06-30T16:59:50Z</time>
      </trkpt>
      <trkpt lat="43.687996" lon="4.875755">
        <ele>16.75677</ele>
        <time>2021-06-30T16:59:51Z</time>
      </trkpt>
      <trkpt lat="43.688019" lon="4.875666">
        <ele>16.73655</ele>
        <time>2021-06-30T16:59:52Z</time>
      </trkpt>
      <trkpt lat="43.688034" lon="4.875616">
        <ele>16.62930</ele>
        <time>2021-06-30T16:59:53Z</time>
      </trkpt>
      <trkpt lat="43.688061" lon="4.875501">
        <ele>16.57155</ele>
        <time>2021-06-30T16:59:54Z</time>
      </trkpt>
      <trkpt lat="43.688084" lon="4.875412">
        <ele>16.44227</ele>
        <time>2021-06-30T16:59:55Z</time>
      </trkpt>
      <trkpt lat="43.688107" lon="4.875312">
        <ele>16.52464</ele>
        <time>2021-06-30T16:59:56Z</time>
      </trkpt>
      <trkpt lat="43.688129" lon="4.875211">
        <ele>16.74281</ele>
        <time>2021-06-30T16:59:57Z</time>
      </trkpt>
      <trkpt lat="43.688152" lon="4.875115">
        <ele>16.75725</ele>
        <time>2021-06-30T16:59:58Z</time>
      </trkpt>
      <trkpt lat="43.688183" lon="4.874999">
        <ele>16.56196</ele>
        <time>2021-06-30T16:59:59Z</time>
      </trkpt>
      <trkpt lat="43.688210" lon="4.874886">
        <ele>16.09631</ele>
        <time>2021-06-30T17:00:00Z</time>
      </trkpt>
      <trkpt lat="43.688236" lon="4.874778">
        <ele>15.79469</ele>
        <time>2021-06-30T17:00:01Z</time>
      </trkpt>
      <trkpt lat="43.688236" lon="4.874778">
        <ele>15.67887</ele>
        <time>2021-06-30T17:00:02Z</time>
      </trkpt>
      <trkpt lat="43.688255" lon="4.874696">
        <ele>15.96397</ele>
        <time>2021-06-30T17:00:03Z</time>
      </trkpt>
      <trkpt lat="43.688274" lon="4.874614">
        <ele>15.98020</ele>
        <time>2021-06-30T17:00:04Z</time>
      </trkpt>
      <trkpt lat="43.688286" lon="4.874568">
        <ele>16.17379</ele>
        <time>2021-06-30T17:00:05Z</time>
      </trkpt>
      <trkpt lat="43.688339" lon="4.874645">
        <ele>16.34203</ele>
        <time>2021-06-30T17:00:06Z</time>
      </trkpt>
      <trkpt lat="43.688377" lon="4.874659">
        <ele>16.34491</ele>
        <time>2021-06-30T17:00:07Z</time>
      </trkpt>
      <trkpt lat="43.688400" lon="4.874668">
        <ele>16.25393</ele>
        <time>2021-06-30T17:00:08Z</time>
      </trkpt>
      <trkpt lat="43.688400" lon="4.874668">
        <ele>16.34317</ele>
        <time>2021-06-30T17:00:09Z</time>
      </trkpt>
      <trkpt lat="43.688404" lon="4.874669">
        <ele>16.30970</ele>
        <time>2021-06-30T17:00:10Z</time>
      </trkpt>
      <trkpt lat="43.688412" lon="4.874670">
        <ele>16.14101</ele>
        <time>2021-06-30T17:00:11Z</time>
      </trkpt>
      <trkpt lat="43.688412" lon="4.874670">
        <ele>16.12557</ele>
        <time>2021-06-30T17:00:12Z</time>
      </trkpt>
      <trkpt lat="43.688412" lon="4.874670">
        <ele>16.12279</ele>
        <time>2021-06-30T17:00:13Z</time>
      </trkpt>
      <trkpt lat="43.688412" lon="4.874670">
        <ele>16.76285</ele>
        <time>2021-06-30T17:00:14Z</time>
      </trkpt>
      <trkpt lat="43.688412" lon="4.874670">
        <ele>16.66899</ele>
        <time>2021-06-30T17:00:15Z</time>
      </trkpt>
      <trkpt lat="43.688477" lon="4.874685">
        <ele>17.06649</ele>
        <time>2021-06-30T17:00:16Z</time>
      </trkpt>
      <trkpt lat="43.688602" lon="4.874713">
        <ele>17.47726</ele>
        <time>2021-06-30T17:00:17Z</time>
      </trkpt>
      <trkpt lat="43.688667" lon="4.874727">
        <ele>17.18948</ele>
        <time>2021-06-30T17:00:18Z</time>
      </trkpt>
      <trkpt lat="43.688717" lon="4.874738">
        <ele>17.29291</ele>
        <time>2021-06-30T17:00:19Z</time>
      </trkpt>
      <trkpt lat="43.688835" lon="4.874762">
        <ele>17.09387</ele>
        <time>2021-06-30T17:00:20Z</time>
      </trkpt>
      <trkpt lat="43.688946" lon="4.874763">
        <ele>17.98386</ele>
        <time>2021-06-30T17:00:21Z</time>
      </trkpt>
      <trkpt lat="43.689026" lon="4.874765">
        <ele>17.81169</ele>
        <time>2021-06-30T17:00:22Z</time>
      </trkpt>
      <trkpt lat="43.689171" lon="4.874767">
        <ele>17.78113</ele>
        <time>2021-06-30T17:00:23Z</time>
      </trkpt>
      <trkpt lat="43.689274" lon="4.874769">
        <ele>18.01509</ele>
        <time>2021-06-30T17:00:24Z</time>
      </trkpt>
      <trkpt lat="43.689388" lon="4.874774">
        <ele>18.22621</ele>
        <time>2021-06-30T17:00:25Z</time>
      </trkpt>
      <trkpt lat="43.689388" lon="4.874774">
        <ele>18.10501</ele>
        <time>2021-06-30T17:00:26Z</time>
      </trkpt>
      <trkpt lat="43.689476" lon="4.874779">
        <ele>18.73092</ele>
        <time>2021-06-30T17:00:27Z</time>
      </trkpt>
      <trkpt lat="43.689587" lon="4.874785">
        <ele>18.76344</ele>
        <time>2021-06-30T17:00:28Z</time>
      </trkpt>
      <trkpt lat="43.689739" lon="4.874828">
        <ele>19.23733</ele>
        <time>2021-06-30T17:00:29Z</time>
      </trkpt>
      <trkpt lat="43.689892" lon="4.874905">
        <ele>19.23597</ele>
        <time>2021-06-30T17:00:30Z</time>
      </trkpt>
      <trkpt lat="43.689999" lon="4.874931">
        <ele>20.53872</ele>
        <time>2021-06-30T17:00:31Z</time>
      </trkpt>
      <trkpt lat="43.690205" lon="4.874967">
        <ele>20.45170</ele>
        <time>2021-06-30T17:00:32Z</time>
      </trkpt>
      <trkpt lat="43.690372" lon="4.874990">
        <ele>20.51376</ele>
        <time>2021-06-30T17:00:33Z</time>
      </trkpt>
      <trkpt lat="43.690491" lon="4.875002">
        <ele>20.44860</ele>
        <time>2021-06-30T17:00:34Z</time>
      </trkpt>
      <trkpt lat="43.690598" lon="4.875007">
        <ele>20.19444</ele>
        <time>2021-06-30T17:00:35Z</time>
      </trkpt>
      <trkpt lat="43.690693" lon="4.875012">
        <ele>19.18155</ele>
        <time>2021-06-30T17:00:36Z</time>
      </trkpt>
      <trkpt lat="43.690754" lon="4.875016">
        <ele>20.69742</ele>
        <time>2021-06-30T17:00:37Z</time>
      </trkpt>
      <trkpt lat="43.690880" lon="4.875023">
        <ele>20.56352</ele>
        <time>2021-06-30T17:00:38Z</time>
      </trkpt>
      <trkpt lat="43.690964" lon="4.875027">
        <ele>20.53199</ele>
        <time>2021-06-30T17:00:39Z</time>
      </trkpt>
      <trkpt lat="43.690964" lon="4.875027">
        <ele>20.58703</ele>
        <time>2021-06-30T17:00:40Z</time>
      </trkpt>
      <trkpt lat="43.691055" lon="4.875024">
        <ele>20.73881</ele>
        <time>2021-06-30T17:00:41Z</time>
      </trkpt>
      <trkpt lat="43.691124" lon="4.875020">
        <ele>20.59957</ele>
        <time>2021-06-30T17:00:42Z</time>
      </trkpt>
      <trkpt lat="43.691170" lon="4.875017">
        <ele>20.64622</ele>
        <time>2021-06-30T17:00:43Z</time>
      </trkpt>
      <trkpt lat="43.691174" lon="4.875016">
        <ele>20.54615</ele>
        <time>2021-06-30T17:00:44Z</time>
      </trkpt>
      <trkpt lat="43.691174" lon="4.875016">
        <ele>20.67980</ele>
        <time>2021-06-30T17:00:45Z</time>
      </trkpt>
      <trkpt lat="43.691174" lon="4.875016">
        <ele>20.69353</ele>
        <time>2021-06-30T17:00:46Z</time>
      </trkpt>
      <trkpt lat="43.691174" lon="4.875016">
        <ele>20.83015</ele>
        <time>2021-06-30T17:00:47Z</time>
      </trkpt>
      <trkpt lat="43.691174" lon="4.875016">
        <ele>20.86872</ele>
        <time>2021-06-30T17:00:48Z</time>
      </trkpt>
      <trkpt lat="43.691174" lon="4.875016">
        <ele>21.07320</ele>
        <time>2021-06-30T17:00:49Z</time>
      </trkpt>
      <trkpt lat="43.691174" lon="4.875016">
        <ele>21.00870</ele>
        <time>2021-06-30T17:00:50Z</time>
      </trkpt>
      <trkpt lat="43.691174" lon="4.875016">
        <ele>21.09263</ele>
        <time>2021-06-30T17:00:51Z</time>
      </trkpt>
      <trkpt lat="43.691174" lon="4.875016">
        <ele>21.20276</ele>
        <time>2021-06-30T17:00:52Z</time>
      </trkpt>
      <trkpt lat="43.691174" lon="4.875016">
        <ele>21.34231</ele>
        <time>2021-06-30T17:00:53Z</time>
      </trkpt>
      <trkpt lat="43.691174" lon="4.875016">
        <ele>21.37816</ele>
        <time>2021-06-30T17:00:54Z</time>
      </trkpt>
      <trkpt lat="43.691174" lon="4.875016">
        <ele>21.46804</ele>
        <time>2021-06-30T17:00:55Z</time>
      </trkpt>
      <trkpt lat="43.691174" lon="4.875016">
        <ele>21.52026</ele>
        <time>2021-06-30T17:00:56Z</time>
      </trkpt>
      <trkpt lat="43.691174" lon="4.875016">
        <ele>21.48451</ele>
        <time>2021-06-30T17:00:57Z</time>
      </trkpt>
      <trkpt lat="43.691174" lon="4.875016">
        <ele>21.42687</ele>
        <time>2021-06-30T17:00:58Z</time>
      </trkpt>
      <trkpt lat="43.691174" lon="4.875016">
        <ele>21.59074</ele>
        <time>2021-06-30T17:00:59Z</time>
      </trkpt>
      <trkpt lat="43.691174" lon="4.875016">
        <ele>21.70304</ele>
        <time>2021-06-30T17:01:00Z</time>
      </trkpt>
      <trkpt lat="43.691174" lon="4.875016">
        <ele>21.72630</ele>
        <time>2021-06-30T17:01:01Z</time>
      </trkpt>
      <trkpt lat="43.691174" lon="4.875016">
        <ele>21.70365</ele>
        <time>2021-06-30T17:01:02Z</time>
      </trkpt>
      <trkpt lat="43.691174" lon="4.875016">
        <ele>21.74640</ele>
        <time>2021-06-30T17:01:03Z</time>
      </trkpt>
      <trkpt lat="43.691174" lon="4.875016">
        <ele>21.87885</ele>
        <time>2021-06-30T17:01:04Z</time>
      </trkpt>
      <trkpt lat="43.691174" lon="4.875016">
        <ele>21.99911</ele>
        <time>2021-06-30T17:01:05Z</time>
      </trkpt>
      <trkpt lat="43.691174" lon="4.875016">
        <ele>21.88224</ele>
        <time>2021-06-30T17:01:06Z</time>
      </trkpt>
      <trkpt lat="43.691174" lon="4.875016">
        <ele>21.92122</ele>
        <time>2021-06-30T17:01:07Z</time>
      </trkpt>
      <trkpt lat="43.691174" lon="4.875016">
        <ele>22.32795</ele>
        <time>2021-06-30T17:01:08Z</time>
      </trkpt>
      <trkpt lat="43.691174" lon="4.875016">
        <ele>22.51350</ele>
        <time>2021-06-30T17:01:09Z</time>
      </trkpt>
      <trkpt lat="43.691174" lon="4.875016">
        <ele>22.18882</ele>
        <time>2021-06-30T17:01:10Z</time>
      </trkpt>
      <trkpt lat="43.691269" lon="4.875014">
        <ele>22.32258</ele>
        <time>2021-06-30T17:01:11Z</time>
      </trkpt>
      <trkpt lat="43.691376" lon="4.875011">
        <ele>22.40730</ele>
        <time>2021-06-30T17:01:12Z</time>
      </trkpt>
      <trkpt lat="43.691471" lon="4.875016">
        <ele>22.43573</ele>
        <time>2021-06-30T17:01:13Z</time>
      </trkpt>
      <trkpt lat="43.691566" lon="4.875024">
        <ele>22.67346</ele>
        <time>2021-06-30T17:01:14Z</time>
      </trkpt>
      <trkpt lat="43.691650" lon="4.875043">
        <ele>22.57013</ele>
        <time>2021-06-30T17:01:15Z</time>
      </trkpt>
      <trkpt lat="43.691727" lon="4.875046">
        <ele>22.58172</ele>
        <time>2021-06-30T17:01:16Z</time>
      </trkpt>
      <trkpt lat="43.691776" lon="4.875044">
        <ele>22.64643</ele>
        <time>2021-06-30T17:01:17Z</time>
      </trkpt>
      <trkpt lat="43.691826" lon="4.875042">
        <ele>22.48778</ele>
        <time>2021-06-30T17:01:18Z</time>
      </trkpt>
      <trkpt lat="43.691826" lon="4.875042">
        <ele>22.49655</ele>
        <time>2021-06-30T17:01:19Z</time>
      </trkpt>
      <trkpt lat="43.691917" lon="4.875051">
        <ele>22.30539</ele>
        <time>2021-06-30T17:01:20Z</time>
      </trkpt>
      <trkpt lat="43.691971" lon="4.875059">
        <ele>22.32246</ele>
        <time>2021-06-30T17:01:21Z</time>
      </trkpt>
      <trkpt lat="43.691982" lon="4.875061">
        <ele>22.51082</ele>
        <time>2021-06-30T17:01:22Z</time>
      </trkpt>
      <trkpt lat="43.692013" lon="4.875066">
        <ele>22.53267</ele>
        <time>2021-06-30T17:01:23Z</time>
      </trkpt>
      <trkpt lat="43.692039" lon="4.875071">
        <ele>22.51827</ele>
        <time>2021-06-30T17:01:24Z</time>
      </trkpt>
      <trkpt lat="43.692066" lon="4.875074">
        <ele>22.48596</ele>
        <time>2021-06-30T17:01:25Z</time>
      </trkpt>
      <trkpt lat="43.692097" lon="4.875078">
        <ele>22.48327</ele>
        <time>2021-06-30T17:01:26Z</time>
      </trkpt>
      <trkpt lat="43.692142" lon="4.875083">
        <ele>22.78597</ele>
        <time>2021-06-30T17:01:27Z</time>
      </trkpt>
      <trkpt lat="43.692196" lon="4.875090">
        <ele>22.56497</ele>
        <time>2021-06-30T17:01:28Z</time>
      </trkpt>
      <trkpt lat="43.692196" lon="4.875090">
        <ele>22.70350</ele>
        <time>2021-06-30T17:01:29Z</time>
      </trkpt>
      <trkpt lat="43.692268" lon="4.875099">
        <ele>22.66671</ele>
        <time>2021-06-30T17:01:30Z</time>
      </trkpt>
      <trkpt lat="43.692337" lon="4.875108">
        <ele>22.70601</ele>
        <time>2021-06-30T17:01:31Z</time>
      </trkpt>
      <trkpt lat="43.692394" lon="4.875115">
        <ele>22.88569</ele>
        <time>2021-06-30T17:01:32Z</time>
      </trkpt>
      <trkpt lat="43.692448" lon="4.875122">
        <ele>22.89814</ele>
        <time>2021-06-30T17:01:33Z</time>
      </trkpt>
      <trkpt lat="43.692467" lon="4.875124">
        <ele>22.86649</ele>
        <time>2021-06-30T17:01:34Z</time>
      </trkpt>
      <trkpt lat="43.692516" lon="4.875125">
        <ele>23.25983</ele>
        <time>2021-06-30T17:01:35Z</time>
      </trkpt>
      <trkpt lat="43.692589" lon="4.875121">
        <ele>23.09381</ele>
        <time>2021-06-30T17:01:36Z</time>
      </trkpt>
      <trkpt lat="43.692635" lon="4.875118">
        <ele>22.99440</ele>
        <time>2021-06-30T17:01:37Z</time>
      </trkpt>
      <trkpt lat="43.692673" lon="4.875116">
        <ele>22.96954</ele>
        <time>2021-06-30T17:01:38Z</time>
      </trkpt>
      <trkpt lat="43.692696" lon="4.875115">
        <ele>23.08584</ele>
        <time>2021-06-30T17:01:39Z</time>
      </trkpt>
      <trkpt lat="43.692753" lon="4.875112">
        <ele>23.40063</ele>
        <time>2021-06-30T17:01:40Z</time>
      </trkpt>
      <trkpt lat="43.692802" lon="4.875111">
        <ele>23.33854</ele>
        <time>2021-06-30T17:01:41Z</time>
      </trkpt>
      <trkpt lat="43.692863" lon="4.875114">
        <ele>23.31323</ele>
        <time>2021-06-30T17:01:42Z</time>
      </trkpt>
      <trkpt lat="43.692928" lon="4.875116">
        <ele>22.98296</ele>
        <time>2021-06-30T17:01:43Z</time>
      </trkpt>
      <trkpt lat="43.692928" lon="4.875116">
        <ele>23.01756</ele>
        <time>2021-06-30T17:01:44Z</time>
      </trkpt>
      <trkpt lat="43.692982" lon="4.875118">
        <ele>23.23813</ele>
        <time>2021-06-30T17:01:45Z</time>
      </trkpt>
      <trkpt lat="43.693020" lon="4.875120">
        <ele>23.25263</ele>
        <time>2021-06-30T17:01:46Z</time>
      </trkpt>
      <trkpt lat="43.693058" lon="4.875121">
        <ele>23.28522</ele>
        <time>2021-06-30T17:01:47Z</time>
      </trkpt>
      <trkpt lat="43.693115" lon="4.875124">
        <ele>23.64860</ele>
        <time>2021-06-30T17:01:48Z</time>
      </trkpt>
      <trkpt lat="43.693176" lon="4.875126">
        <ele>23.72825</ele>
        <time>2021-06-30T17:01:49Z</time>
      </trkpt>
      <trkpt lat="43.693241" lon="4.875129">
        <ele>23.31502</ele>
        <time>2021-06-30T17:01:50Z</time>
      </trkpt>
      <trkpt lat="43.693310" lon="4.875132">
        <ele>23.60750</ele>
        <time>2021-06-30T17:01:51Z</time>
      </trkpt>
      <trkpt lat="43.693378" lon="4.875145">
        <ele>23.77219</ele>
        <time>2021-06-30T17:01:52Z</time>
      </trkpt>
      <trkpt lat="43.693478" lon="4.875162">
        <ele>23.80296</ele>
        <time>2021-06-30T17:01:53Z</time>
      </trkpt>
      <trkpt lat="43.693562" lon="4.875177">
        <ele>23.48174</ele>
        <time>2021-06-30T17:01:54Z</time>
      </trkpt>
      <trkpt lat="43.693604" lon="4.875187">
        <ele>23.44351</ele>
        <time>2021-06-30T17:01:55Z</time>
      </trkpt>
      <trkpt lat="43.693604" lon="4.875187">
        <ele>23.47744</ele>
        <time>2021-06-30T17:01:56Z</time>
      </trkpt>
      <trkpt lat="43.693642" lon="4.875196">
        <ele>23.32894</ele>
        <time>2021-06-30T17:01:57Z</time>
      </trkpt>
      <trkpt lat="43.693680" lon="4.875207">
        <ele>23.40684</ele>
        <time>2021-06-30T17:01:58Z</time>
      </trkpt>
      <trkpt lat="43.693726" lon="4.875218">
        <ele>23.51280</ele>
        <time>2021-06-30T17:01:59Z</time>
      </trkpt>
      <trkpt lat="43.693768" lon="4.875229">
        <ele>23.53951</ele>
        <time>2021-06-30T17:02:00Z</time>
      </trkpt>
      <trkpt lat="43.693813" lon="4.875245">
        <ele>23.61846</ele>
        <time>2021-06-30T17:02:01Z</time>
      </trkpt>
      <trkpt lat="43.693859" lon="4.875262">
        <ele>24.03516</ele>
        <time>2021-06-30T17:02:02Z</time>
      </trkpt>
      <trkpt lat="43.693916" lon="4.875285">
        <ele>24.21168</ele>
        <time>2021-06-30T17:02:03Z</time>
      </trkpt>
      <trkpt lat="43.693966" lon="4.875305">
        <ele>24.36614</ele>
        <time>2021-06-30T17:02:04Z</time>
      </trkpt>
      <trkpt lat="43.694012" lon="4.875323">
        <ele>24.72426</ele>
        <time>2021-06-30T17:02:05Z</time>
      </trkpt>
      <trkpt lat="43.694061" lon="4.875342">
        <ele>24.70638</ele>
        <time>2021-06-30T17:02:06Z</time>
      </trkpt>
      <trkpt lat="43.694141" lon="4.875374">
        <ele>24.73225</ele>
        <time>2021-06-30T17:02:07Z</time>
      </trkpt>
      <trkpt lat="43.694141" lon="4.875374">
        <ele>24.88707</ele>
        <time>2021-06-30T17:02:08Z</time>
      </trkpt>
      <trkpt lat="43.694218" lon="4.875404">
        <ele>24.99509</ele>
        <time>2021-06-30T17:02:09Z</time>
      </trkpt>
      <trkpt lat="43.694286" lon="4.875433">
        <ele>24.90897</ele>
        <time>2021-06-30T17:02:10Z</time>
      </trkpt>
      <trkpt lat="43.694363" lon="4.875463">
        <ele>24.64390</ele>
        <time>2021-06-30T17:02:11Z</time>
      </trkpt>
      <trkpt lat="43.694424" lon="4.875487">
        <ele>24.55794</ele>
        <time>2021-06-30T17:02:12Z</time>
      </trkpt>
      <trkpt lat="43.694469" lon="4.875506">
        <ele>24.55984</ele>
        <time>2021-06-30T17:02:13Z</time>
      </trkpt>
      <trkpt lat="43.694504" lon="4.875518">
        <ele>24.28384</ele>
        <time>2021-06-30T17:02:14Z</time>
      </trkpt>
      <trkpt lat="43.694542" lon="4.875533">
        <ele>24.24248</ele>
        <time>2021-06-30T17:02:15Z</time>
      </trkpt>
      <trkpt lat="43.694553" lon="4.875538">
        <ele>24.58063</ele>
        <time>2021-06-30T17:02:16Z</time>
      </trkpt>
      <trkpt lat="43.694576" lon="4.875561">
        <ele>26.37958</ele>
        <time>2021-06-30T17:02:17Z</time>
      </trkpt>
      <trkpt lat="43.694588" lon="4.875644">
        <ele>25.21411</ele>
        <time>2021-06-30T17:02:18Z</time>
      </trkpt>
      <trkpt lat="43.694599" lon="4.875739">
        <ele>25.41498</ele>
        <time>2021-06-30T17:02:19Z</time>
      </trkpt>
      <trkpt lat="43.694622" lon="4.875919">
        <ele>25.86502</ele>
        <time>2021-06-30T17:02:20Z</time>
      </trkpt>
      <trkpt lat="43.694622" lon="4.875919">
        <ele>25.56318</ele>
        <time>2021-06-30T17:02:21Z</time>
      </trkpt>
      <trkpt lat="43.694660" lon="4.876224">
        <ele>25.79788</ele>
        <time>2021-06-30T17:02:22Z</time>
      </trkpt>
      <trkpt lat="43.694679" lon="4.876389">
        <ele>25.75567</ele>
        <time>2021-06-30T17:02:23Z</time>
      </trkpt>
      <trkpt lat="43.694702" lon="4.876575">
        <ele>26.66091</ele>
        <time>2021-06-30T17:02:24Z</time>
      </trkpt>
      <trkpt lat="43.694721" lon="4.876790">
        <ele>26.46806</ele>
        <time>2021-06-30T17:02:25Z</time>
      </trkpt>
      <trkpt lat="43.694744" lon="4.876983">
        <ele>27.26339</ele>
        <time>2021-06-30T17:02:26Z</time>
      </trkpt>
      <trkpt lat="43.694763" lon="4.877137">
        <ele>27.69017</ele>
        <time>2021-06-30T17:02:27Z</time>
      </trkpt>
      <trkpt lat="43.694832" lon="4.877465">
        <ele>28.16942</ele>
        <time>2021-06-30T17:02:28Z</time>
      </trkpt>
      <trkpt lat="43.694897" lon="4.877715">
        <ele>28.88110</ele>
        <time>2021-06-30T17:02:29Z</time>
      </trkpt>
      <trkpt lat="43.694958" lon="4.877917">
        <ele>29.36865</ele>
        <time>2021-06-30T17:02:30Z</time>
      </trkpt>
      <trkpt lat="43.695057" lon="4.878225">
        <ele>29.82288</ele>
        <time>2021-06-30T17:02:31Z</time>
      </trkpt>
      <trkpt lat="43.695156" lon="4.878463">
        <ele>30.22211</ele>
        <time>2021-06-30T17:02:32Z</time>
      </trkpt>
      <trkpt lat="43.695267" lon="4.878718">
        <ele>30.69812</ele>
        <time>2021-06-30T17:02:33Z</time>
      </trkpt>
      <trkpt lat="43.695366" lon="4.878951">
        <ele>30.84113</ele>
        <time>2021-06-30T17:02:34Z</time>
      </trkpt>
      <trkpt lat="43.695480" lon="4.879234">
        <ele>30.94934</ele>
        <time>2021-06-30T17:02:35Z</time>
      </trkpt>
      <trkpt lat="43.695576" lon="4.879468">
        <ele>30.95013</ele>
        <time>2021-06-30T17:02:36Z</time>
      </trkpt>
      <trkpt lat="43.695663" lon="4.879684">
        <ele>31.33618</ele>
        <time>2021-06-30T17:02:37Z</time>
      </trkpt>
      <trkpt lat="43.695663" lon="4.879684">
        <ele>31.11914</ele>
        <time>2021-06-30T17:02:38Z</time>
      </trkpt>
      <trkpt lat="43.695763" lon="4.879928">
        <ele>30.82758</ele>
        <time>2021-06-30T17:02:39Z</time>
      </trkpt>
      <trkpt lat="43.695854" lon="4.880182">
        <ele>31.51746</ele>
        <time>2021-06-30T17:02:40Z</time>
      </trkpt>
      <trkpt lat="43.695938" lon="4.880458">
        <ele>31.86365</ele>
        <time>2021-06-30T17:02:41Z</time>
      </trkpt>
      <trkpt lat="43.696030" lon="4.880793">
        <ele>31.81024</ele>
        <time>2021-06-30T17:02:42Z</time>
      </trkpt>
      <trkpt lat="43.696106" lon="4.881074">
        <ele>32.21320</ele>
        <time>2021-06-30T17:02:43Z</time>
      </trkpt>
      <trkpt lat="43.696175" lon="4.881348">
        <ele>32.65961</ele>
        <time>2021-06-30T17:02:44Z</time>
      </trkpt>
      <trkpt lat="43.696236" lon="4.881620">
        <ele>34.20409</ele>
        <time>2021-06-30T17:02:45Z</time>
      </trkpt>
      <trkpt lat="43.696308" lon="4.881814">
        <ele>33.81687</ele>
        <time>2021-06-30T17:02:46Z</time>
      </trkpt>
      <trkpt lat="43.696350" lon="4.881875">
        <ele>34.04596</ele>
        <time>2021-06-30T17:02:47Z</time>
      </trkpt>
      <trkpt lat="43.696350" lon="4.881875">
        <ele>34.42034</ele>
        <time>2021-06-30T17:02:48Z</time>
      </trkpt>
      <trkpt lat="43.696579" lon="4.882083">
        <ele>34.26838</ele>
        <time>2021-06-30T17:02:49Z</time>
      </trkpt>
      <trkpt lat="43.696579" lon="4.882083">
        <ele>35.47326</ele>
        <time>2021-06-30T17:02:50Z</time>
      </trkpt>
      <trkpt lat="43.696758" lon="4.882237">
        <ele>35.58212</ele>
        <time>2021-06-30T17:02:51Z</time>
      </trkpt>
      <trkpt lat="43.696949" lon="4.882383">
        <ele>35.23126</ele>
        <time>2021-06-30T17:02:52Z</time>
      </trkpt>
      <trkpt lat="43.697121" lon="4.882514">
        <ele>35.60156</ele>
        <time>2021-06-30T17:02:53Z</time>
      </trkpt>
      <trkpt lat="43.697304" lon="4.882654">
        <ele>35.63440</ele>
        <time>2021-06-30T17:02:54Z</time>
      </trkpt>
      <trkpt lat="43.697495" lon="4.882802">
        <ele>35.92242</ele>
        <time>2021-06-30T17:02:55Z</time>
      </trkpt>
      <trkpt lat="43.697670" lon="4.882928">
        <ele>37.52629</ele>
        <time>2021-06-30T17:02:56Z</time>
      </trkpt>
      <trkpt lat="43.697857" lon="4.883053">
        <ele>37.42902</ele>
        <time>2021-06-30T17:02:57Z</time>
      </trkpt>
      <trkpt lat="43.698006" lon="4.883135">
        <ele>36.96930</ele>
        <time>2021-06-30T17:02:58Z</time>
      </trkpt>
      <trkpt lat="43.698174" lon="4.883203">
        <ele>39.17432</ele>
        <time>2021-06-30T17:02:59Z</time>
      </trkpt>
      <trkpt lat="43.698174" lon="4.883203">
        <ele>38.84296</ele>
        <time>2021-06-30T17:03:00Z</time>
      </trkpt>
      <trkpt lat="43.698372" lon="4.883254">
        <ele>38.68400</ele>
        <time>2021-06-30T17:03:01Z</time>
      </trkpt>
      <trkpt lat="43.698505" lon="4.883285">
        <ele>39.18891</ele>
        <time>2021-06-30T17:03:02Z</time>
      </trkpt>
      <trkpt lat="43.698624" lon="4.883305">
        <ele>40.68209</ele>
        <time>2021-06-30T17:03:03Z</time>
      </trkpt>
      <trkpt lat="43.698776" lon="4.883324">
        <ele>40.87021</ele>
        <time>2021-06-30T17:03:04Z</time>
      </trkpt>
      <trkpt lat="43.698982" lon="4.883350">
        <ele>41.02112</ele>
        <time>2021-06-30T17:03:05Z</time>
      </trkpt>
      <trkpt lat="43.699215" lon="4.883389">
        <ele>40.93530</ele>
        <time>2021-06-30T17:03:06Z</time>
      </trkpt>
      <trkpt lat="43.699444" lon="4.883440">
        <ele>40.67194</ele>
        <time>2021-06-30T17:03:07Z</time>
      </trkpt>
      <trkpt lat="43.699661" lon="4.883495">
        <ele>41.05420</ele>
        <time>2021-06-30T17:03:08Z</time>
      </trkpt>
      <trkpt lat="43.699848" lon="4.883541">
        <ele>40.89783</ele>
        <time>2021-06-30T17:03:09Z</time>
      </trkpt>
      <trkpt lat="43.700054" lon="4.883594">
        <ele>41.70087</ele>
        <time>2021-06-30T17:03:10Z</time>
      </trkpt>
      <trkpt lat="43.700241" lon="4.883641">
        <ele>42.27252</ele>
        <time>2021-06-30T17:03:11Z</time>
      </trkpt>
      <trkpt lat="43.700474" lon="4.883700">
        <ele>42.55029</ele>
        <time>2021-06-30T17:03:12Z</time>
      </trkpt>
      <trkpt lat="43.700722" lon="4.883762">
        <ele>43.03973</ele>
        <time>2021-06-30T17:03:13Z</time>
      </trkpt>
      <trkpt lat="43.700951" lon="4.883820">
        <ele>43.84082</ele>
        <time>2021-06-30T17:03:14Z</time>
      </trkpt>
      <trkpt lat="43.700951" lon="4.883820">
        <ele>44.40552</ele>
        <time>2021-06-30T17:03:15Z</time>
      </trkpt>
      <trkpt lat="43.701122" lon="4.883864">
        <ele>45.02966</ele>
        <time>2021-06-30T17:03:16Z</time>
      </trkpt>
      <trkpt lat="43.701317" lon="4.883913">
        <ele>44.92474</ele>
        <time>2021-06-30T17:03:17Z</time>
      </trkpt>
      <trkpt lat="43.701591" lon="4.883947">
        <ele>44.66827</ele>
        <time>2021-06-30T17:03:18Z</time>
      </trkpt>
      <trkpt lat="43.701843" lon="4.883969">
        <ele>45.53979</ele>
        <time>2021-06-30T17:03:19Z</time>
      </trkpt>
      <trkpt lat="43.702053" lon="4.883987">
        <ele>45.62134</ele>
        <time>2021-06-30T17:03:20Z</time>
      </trkpt>
      <trkpt lat="43.702251" lon="4.883996">
        <ele>46.16486</ele>
        <time>2021-06-30T17:03:21Z</time>
      </trkpt>
      <trkpt lat="43.702450" lon="4.884001">
        <ele>46.68933</ele>
        <time>2021-06-30T17:03:22Z</time>
      </trkpt>
      <trkpt lat="43.702660" lon="4.884006">
        <ele>47.43878</ele>
        <time>2021-06-30T17:03:23Z</time>
      </trkpt>
      <trkpt lat="43.702805" lon="4.884030">
        <ele>47.37421</ele>
        <time>2021-06-30T17:03:24Z</time>
      </trkpt>
      <trkpt lat="43.702892" lon="4.884034">
        <ele>46.73550</ele>
        <time>2021-06-30T17:03:25Z</time>
      </trkpt>
      <trkpt lat="43.702950" lon="4.884103">
        <ele>46.57528</ele>
        <time>2021-06-30T17:03:26Z</time>
      </trkpt>
      <trkpt lat="43.703030" lon="4.884209">
        <ele>46.94517</ele>
        <time>2021-06-30T17:03:27Z</time>
      </trkpt>
      <trkpt lat="43.703030" lon="4.884209">
        <ele>46.72608</ele>
        <time>2021-06-30T17:03:28Z</time>
      </trkpt>
      <trkpt lat="43.703075" lon="4.884350">
        <ele>46.09725</ele>
        <time>2021-06-30T17:03:29Z</time>
      </trkpt>
      <trkpt lat="43.703087" lon="4.884522">
        <ele>47.81239</ele>
        <time>2021-06-30T17:03:30Z</time>
      </trkpt>
      <trkpt lat="43.703079" lon="4.884734">
        <ele>48.11081</ele>
        <time>2021-06-30T17:03:31Z</time>
      </trkpt>
      <trkpt lat="43.703072" lon="4.884989">
        <ele>49.21780</ele>
        <time>2021-06-30T17:03:32Z</time>
      </trkpt>
      <trkpt lat="43.703053" lon="4.885253">
        <ele>49.47446</ele>
        <time>2021-06-30T17:03:33Z</time>
      </trkpt>
      <trkpt lat="43.703037" lon="4.885491">
        <ele>50.22822</ele>
        <time>2021-06-30T17:03:34Z</time>
      </trkpt>
      <trkpt lat="43.703014" lon="4.885781">
        <ele>50.19031</ele>
        <time>2021-06-30T17:03:35Z</time>
      </trkpt>
      <trkpt lat="43.702995" lon="4.886063">
        <ele>51.57666</ele>
        <time>2021-06-30T17:03:36Z</time>
      </trkpt>
      <trkpt lat="43.702976" lon="4.886305">
        <ele>51.69984</ele>
        <time>2021-06-30T17:03:37Z</time>
      </trkpt>
      <trkpt lat="43.702961" lon="4.886545">
        <ele>51.23570</ele>
        <time>2021-06-30T17:03:38Z</time>
      </trkpt>
      <trkpt lat="43.702953" lon="4.886746">
        <ele>50.97663</ele>
        <time>2021-06-30T17:03:39Z</time>
      </trkpt>
      <trkpt lat="43.702953" lon="4.886746">
        <ele>50.42255</ele>
        <time>2021-06-30T17:03:40Z</time>
      </trkpt>
      <trkpt lat="43.702972" lon="4.886898">
        <ele>50.60378</ele>
        <time>2021-06-30T17:03:41Z</time>
      </trkpt>
      <trkpt lat="43.703022" lon="4.886982">
        <ele>51.57721</ele>
        <time>2021-06-30T17:03:42Z</time>
      </trkpt>
      <trkpt lat="43.703114" lon="4.887120">
        <ele>52.38232</ele>
        <time>2021-06-30T17:03:43Z</time>
      </trkpt>
      <trkpt lat="43.703259" lon="4.887315">
        <ele>52.52710</ele>
        <time>2021-06-30T17:03:44Z</time>
      </trkpt>
      <trkpt lat="43.703442" lon="4.887529">
        <ele>53.22784</ele>
        <time>2021-06-30T17:03:45Z</time>
      </trkpt>
      <trkpt lat="43.703587" lon="4.887699">
        <ele>53.67029</ele>
        <time>2021-06-30T17:03:46Z</time>
      </trkpt>
      <trkpt lat="43.703781" lon="4.887928">
        <ele>54.13977</ele>
        <time>2021-06-30T17:03:47Z</time>
      </trkpt>
      <trkpt lat="43.703949" lon="4.888126">
        <ele>54.14978</ele>
        <time>2021-06-30T17:03:48Z</time>
      </trkpt>
      <trkpt lat="43.704109" lon="4.888315">
        <ele>54.43433</ele>
        <time>2021-06-30T17:03:49Z</time>
      </trkpt>
      <trkpt lat="43.704109" lon="4.888315">
        <ele>55.18268</ele>
        <time>2021-06-30T17:03:50Z</time>
      </trkpt>
      <trkpt lat="43.704277" lon="4.888510">
        <ele>55.76416</ele>
        <time>2021-06-30T17:03:51Z</time>
      </trkpt>
      <trkpt lat="43.704456" lon="4.888709">
        <ele>55.98309</ele>
        <time>2021-06-30T17:03:52Z</time>
      </trkpt>
      <trkpt lat="43.704632" lon="4.888900">
        <ele>56.16382</ele>
        <time>2021-06-30T17:03:53Z</time>
      </trkpt>
      <trkpt lat="43.704792" lon="4.889102">
        <ele>56.31421</ele>
        <time>2021-06-30T17:03:54Z</time>
      </trkpt>
      <trkpt lat="43.704922" lon="4.889289">
        <ele>56.70740</ele>
        <time>2021-06-30T17:03:55Z</time>
      </trkpt>
      <trkpt lat="43.705078" lon="4.889540">
        <ele>57.05035</ele>
        <time>2021-06-30T17:03:56Z</time>
      </trkpt>
      <trkpt lat="43.705227" lon="4.889780">
        <ele>57.71606</ele>
        <time>2021-06-30T17:03:57Z</time>
      </trkpt>
      <trkpt lat="43.705353" lon="4.889981">
        <ele>58.34766</ele>
        <time>2021-06-30T17:03:58Z</time>
      </trkpt>
      <trkpt lat="43.705479" lon="4.890182">
        <ele>58.67303</ele>
        <time>2021-06-30T17:03:59Z</time>
      </trkpt>
      <trkpt lat="43.705627" lon="4.890421">
        <ele>58.43854</ele>
        <time>2021-06-30T17:04:00Z</time>
      </trkpt>
      <trkpt lat="43.705627" lon="4.890421">
        <ele>60.40925</ele>
        <time>2021-06-30T17:04:01Z</time>
      </trkpt>
      <trkpt lat="43.705757" lon="4.890626">
        <ele>59.89827</ele>
        <time>2021-06-30T17:04:02Z</time>
      </trkpt>
      <trkpt lat="43.705868" lon="4.890804">
        <ele>59.33796</ele>
        <time>2021-06-30T17:04:03Z</time>
      </trkpt>
      <trkpt lat="43.705944" lon="4.890927">
        <ele>59.51521</ele>
        <time>2021-06-30T17:04:04Z</time>
      </trkpt>
      <trkpt lat="43.706020" lon="4.891012">
        <ele>59.44825</ele>
        <time>2021-06-30T17:04:05Z</time>
      </trkpt>
      <trkpt lat="43.706127" lon="4.891079">
        <ele>60.48333</ele>
        <time>2021-06-30T17:04:06Z</time>
      </trkpt>
      <trkpt lat="43.706314" lon="4.891178">
        <ele>59.75153</ele>
        <time>2021-06-30T17:04:07Z</time>
      </trkpt>
      <trkpt lat="43.706577" lon="4.891286">
        <ele>59.87378</ele>
        <time>2021-06-30T17:04:08Z</time>
      </trkpt>
      <trkpt lat="43.706810" lon="4.891380">
        <ele>60.72925</ele>
        <time>2021-06-30T17:04:09Z</time>
      </trkpt>
      <trkpt lat="43.706974" lon="4.891462">
        <ele>61.12054</ele>
        <time>2021-06-30T17:04:10Z</time>
      </trkpt>
      <trkpt lat="43.707172" lon="4.891544">
        <ele>62.18842</ele>
        <time>2021-06-30T17:04:11Z</time>
      </trkpt>
      <trkpt lat="43.707401" lon="4.891636">
        <ele>63.13519</ele>
        <time>2021-06-30T17:04:12Z</time>
      </trkpt>
      <trkpt lat="43.707603" lon="4.891718">
        <ele>63.84869</ele>
        <time>2021-06-30T17:04:13Z</time>
      </trkpt>
      <trkpt lat="43.707779" lon="4.891791">
        <ele>64.01129</ele>
        <time>2021-06-30T17:04:14Z</time>
      </trkpt>
      <trkpt lat="43.707779" lon="4.891791">
        <ele>64.40874</ele>
        <time>2021-06-30T17:04:15Z</time>
      </trkpt>
      <trkpt lat="43.707966" lon="4.891867">
        <ele>64.58102</ele>
        <time>2021-06-30T17:04:16Z</time>
      </trkpt>
      <trkpt lat="43.708126" lon="4.891932">
        <ele>65.06013</ele>
        <time>2021-06-30T17:04:17Z</time>
      </trkpt>
      <trkpt lat="43.708317" lon="4.891999">
        <ele>65.65076</ele>
        <time>2021-06-30T17:04:18Z</time>
      </trkpt>
      <trkpt lat="43.708496" lon="4.892051">
        <ele>66.23270</ele>
        <time>2021-06-30T17:04:19Z</time>
      </trkpt>
      <trkpt lat="43.708664" lon="4.892078">
        <ele>66.58781</ele>
        <time>2021-06-30T17:04:20Z</time>
      </trkpt>
      <trkpt lat="43.708851" lon="4.892093">
        <ele>66.83703</ele>
        <time>2021-06-30T17:04:21Z</time>
      </trkpt>
      <trkpt lat="43.708981" lon="4.892065">
        <ele>66.48449</ele>
        <time>2021-06-30T17:04:22Z</time>
      </trkpt>
      <trkpt lat="43.709099" lon="4.892033">
        <ele>67.09298</ele>
        <time>2021-06-30T17:04:23Z</time>
      </trkpt>
      <trkpt lat="43.709221" lon="4.892019">
        <ele>67.10619</ele>
        <time>2021-06-30T17:04:24Z</time>
      </trkpt>
      <trkpt lat="43.709373" lon="4.892032">
        <ele>67.49355</ele>
        <time>2021-06-30T17:04:25Z</time>
      </trkpt>
      <trkpt lat="43.709461" lon="4.892061">
        <ele>67.14722</ele>
        <time>2021-06-30T17:04:26Z</time>
      </trkpt>
      <trkpt lat="43.709461" lon="4.892061">
        <ele>68.08506</ele>
        <time>2021-06-30T17:04:27Z</time>
      </trkpt>
      <trkpt lat="43.709610" lon="4.892159">
        <ele>69.24369</ele>
        <time>2021-06-30T17:04:28Z</time>
      </trkpt>
      <trkpt lat="43.709778" lon="4.892277">
        <ele>70.51224</ele>
        <time>2021-06-30T17:04:29Z</time>
      </trkpt>
      <trkpt lat="43.709953" lon="4.892419">
        <ele>67.61292</ele>
        <time>2021-06-30T17:04:30Z</time>
      </trkpt>
      <trkpt lat="43.710121" lon="4.892554">
        <ele>67.93488</ele>
        <time>2021-06-30T17:04:31Z</time>
      </trkpt>
      <trkpt lat="43.710327" lon="4.892712">
        <ele>72.57848</ele>
        <time>2021-06-30T17:04:32Z</time>
      </trkpt>
      <trkpt lat="43.710506" lon="4.892828">
        <ele>73.90623</ele>
        <time>2021-06-30T17:04:33Z</time>
      </trkpt>
      <trkpt lat="43.710655" lon="4.892922">
        <ele>74.20156</ele>
        <time>2021-06-30T17:04:34Z</time>
      </trkpt>
      <trkpt lat="43.710835" lon="4.893037">
        <ele>71.50482</ele>
        <time>2021-06-30T17:04:35Z</time>
      </trkpt>
      <trkpt lat="43.711021" lon="4.893126">
        <ele>72.14825</ele>
        <time>2021-06-30T17:04:36Z</time>
      </trkpt>
      <trkpt lat="43.711269" lon="4.893233">
        <ele>72.39996</ele>
        <time>2021-06-30T17:04:37Z</time>
      </trkpt>
      <trkpt lat="43.711494" lon="4.893330">
        <ele>72.42688</ele>
        <time>2021-06-30T17:04:38Z</time>
      </trkpt>
      <trkpt lat="43.711494" lon="4.893330">
        <ele>72.64960</ele>
        <time>2021-06-30T17:04:39Z</time>
      </trkpt>
      <trkpt lat="43.711731" lon="4.893436">
        <ele>72.63605</ele>
        <time>2021-06-30T17:04:40Z</time>
      </trkpt>
      <trkpt lat="43.711987" lon="4.893561">
        <ele>73.46606</ele>
        <time>2021-06-30T17:04:41Z</time>
      </trkpt>
      <trkpt lat="43.712212" lon="4.893666">
        <ele>73.72052</ele>
        <time>2021-06-30T17:04:42Z</time>
      </trkpt>
      <trkpt lat="43.712475" lon="4.893786">
        <ele>75.23962</ele>
        <time>2021-06-30T17:04:43Z</time>
      </trkpt>
      <trkpt lat="43.712727" lon="4.893900">
        <ele>76.49829</ele>
        <time>2021-06-30T17:04:44Z</time>
      </trkpt>
      <trkpt lat="43.712975" lon="4.894012">
        <ele>78.67224</ele>
        <time>2021-06-30T17:04:45Z</time>
      </trkpt>
      <trkpt lat="43.713203" lon="4.894117">
        <ele>79.63477</ele>
        <time>2021-06-30T17:04:46Z</time>
      </trkpt>
      <trkpt lat="43.713490" lon="4.894246">
        <ele>80.41998</ele>
        <time>2021-06-30T17:04:47Z</time>
      </trkpt>
      <trkpt lat="43.713787" lon="4.894381">
        <ele>81.06036</ele>
        <time>2021-06-30T17:04:48Z</time>
      </trkpt>
      <trkpt lat="43.714054" lon="4.894503">
        <ele>81.71490</ele>
        <time>2021-06-30T17:04:49Z</time>
      </trkpt>
      <trkpt lat="43.714264" lon="4.894605">
        <ele>82.36469</ele>
        <time>2021-06-30T17:04:50Z</time>
      </trkpt>
      <trkpt lat="43.714478" lon="4.894690">
        <ele>83.31848</ele>
        <time>2021-06-30T17:04:51Z</time>
      </trkpt>
      <trkpt lat="43.714676" lon="4.894803">
        <ele>84.83899</ele>
        <time>2021-06-30T17:04:52Z</time>
      </trkpt>
      <trkpt lat="43.714840" lon="4.894905">
        <ele>85.11877</ele>
        <time>2021-06-30T17:04:53Z</time>
      </trkpt>
      <trkpt lat="43.714840" lon="4.894905">
        <ele>86.18732</ele>
        <time>2021-06-30T17:04:54Z</time>
      </trkpt>
      <trkpt lat="43.715027" lon="4.895036">
        <ele>87.52051</ele>
        <time>2021-06-30T17:04:55Z</time>
      </trkpt>
      <trkpt lat="43.715202" lon="4.895174">
        <ele>87.91196</ele>
        <time>2021-06-30T17:04:56Z</time>
      </trkpt>
      <trkpt lat="43.715382" lon="4.895261">
        <ele>88.02614</ele>
        <time>2021-06-30T17:04:57Z</time>
      </trkpt>
      <trkpt lat="43.715523" lon="4.895279">
        <ele>88.94094</ele>
        <time>2021-06-30T17:04:58Z</time>
      </trkpt>
      <trkpt lat="43.715725" lon="4.895294">
        <ele>89.94950</ele>
        <time>2021-06-30T17:04:59Z</time>
      </trkpt>
      <trkpt lat="43.715942" lon="4.895296">
        <ele>89.95565</ele>
        <time>2021-06-30T17:05:00Z</time>
      </trkpt>
      <trkpt lat="43.716064" lon="4.895317">
        <ele>90.02431</ele>
        <time>2021-06-30T17:05:01Z</time>
      </trkpt>
      <trkpt lat="43.716133" lon="4.895349">
        <ele>90.23714</ele>
        <time>2021-06-30T17:05:02Z</time>
      </trkpt>
      <trkpt lat="43.716221" lon="4.895413">
        <ele>90.77315</ele>
        <time>2021-06-30T17:05:03Z</time>
      </trkpt>
      <trkpt lat="43.716301" lon="4.895507">
        <ele>91.19756</ele>
        <time>2021-06-30T17:05:04Z</time>
      </trkpt>
      <trkpt lat="43.716389" lon="4.895631">
        <ele>91.39951</ele>
        <time>2021-06-30T17:05:05Z</time>
      </trkpt>
      <trkpt lat="43.716389" lon="4.895631">
        <ele>91.94470</ele>
        <time>2021-06-30T17:05:06Z</time>
      </trkpt>
      <trkpt lat="43.716461" lon="4.895735">
        <ele>92.21542</ele>
        <time>2021-06-30T17:05:07Z</time>
      </trkpt>
      <trkpt lat="43.716545" lon="4.895840">
        <ele>92.31673</ele>
        <time>2021-06-30T17:05:08Z</time>
      </trkpt>
      <trkpt lat="43.716629" lon="4.895931">
        <ele>92.21082</ele>
        <time>2021-06-30T17:05:09Z</time>
      </trkpt>
      <trkpt lat="43.716778" lon="4.896009">
        <ele>91.74421</ele>
        <time>2021-06-30T17:05:10Z</time>
      </trkpt>
      <trkpt lat="43.716904" lon="4.896073">
        <ele>91.45629</ele>
        <time>2021-06-30T17:05:11Z</time>
      </trkpt>
      <trkpt lat="43.716988" lon="4.896115">
        <ele>90.35143</ele>
        <time>2021-06-30T17:05:12Z</time>
      </trkpt>
      <trkpt lat="43.717068" lon="4.896154">
        <ele>89.85024</ele>
        <time>2021-06-30T17:05:13Z</time>
      </trkpt>
      <trkpt lat="43.717144" lon="4.896208">
        <ele>89.97680</ele>
        <time>2021-06-30T17:05:14Z</time>
      </trkpt>
      <trkpt lat="43.717216" lon="4.896303">
        <ele>89.52801</ele>
        <time>2021-06-30T17:05:15Z</time>
      </trkpt>
      <trkpt lat="43.717293" lon="4.896451">
        <ele>89.96424</ele>
        <time>2021-06-30T17:05:16Z</time>
      </trkpt>
      <trkpt lat="43.717293" lon="4.896451">
        <ele>90.68993</ele>
        <time>2021-06-30T17:05:17Z</time>
      </trkpt>
      <trkpt lat="43.717400" lon="4.896648">
        <ele>90.97025</ele>
        <time>2021-06-30T17:05:18Z</time>
      </trkpt>
      <trkpt lat="43.717510" lon="4.896837">
        <ele>91.71066</ele>
        <time>2021-06-30T17:05:19Z</time>
      </trkpt>
      <trkpt lat="43.717628" lon="4.897030">
        <ele>92.28578</ele>
        <time>2021-06-30T17:05:20Z</time>
      </trkpt>
      <trkpt lat="43.717762" lon="4.897245">
        <ele>92.57839</ele>
        <time>2021-06-30T17:05:21Z</time>
      </trkpt>
      <trkpt lat="43.717880" lon="4.897432">
        <ele>94.30103</ele>
        <time>2021-06-30T17:05:22Z</time>
      </trkpt>
      <trkpt lat="43.718037" lon="4.897673">
        <ele>95.71490</ele>
        <time>2021-06-30T17:05:23Z</time>
      </trkpt>
      <trkpt lat="43.718166" lon="4.897883">
        <ele>96.64294</ele>
        <time>2021-06-30T17:05:24Z</time>
      </trkpt>
      <trkpt lat="43.718288" lon="4.898087">
        <ele>97.23944</ele>
        <time>2021-06-30T17:05:25Z</time>
      </trkpt>
      <trkpt lat="43.718410" lon="4.898295">
        <ele>97.83252</ele>
        <time>2021-06-30T17:05:26Z</time>
      </trkpt>
      <trkpt lat="43.718548" lon="4.898524">
        <ele>98.48218</ele>
        <time>2021-06-30T17:05:27Z</time>
      </trkpt>
      <trkpt lat="43.718681" lon="4.898744">
        <ele>98.55737</ele>
        <time>2021-06-30T17:05:28Z</time>
      </trkpt>
      <trkpt lat="43.718838" lon="4.899015">
        <ele>98.38220</ele>
        <time>2021-06-30T17:05:29Z</time>
      </trkpt>
      <trkpt lat="43.718971" lon="4.899242">
        <ele>98.65088</ele>
        <time>2021-06-30T17:05:30Z</time>
      </trkpt>
      <trkpt lat="43.719093" lon="4.899469">
        <ele>96.26176</ele>
        <time>2021-06-30T17:05:31Z</time>
      </trkpt>
      <trkpt lat="43.719093" lon="4.899469">
        <ele>96.48154</ele>
        <time>2021-06-30T17:05:32Z</time>
      </trkpt>
      <trkpt lat="43.719173" lon="4.899661">
        <ele>96.86546</ele>
        <time>2021-06-30T17:05:33Z</time>
      </trkpt>
      <trkpt lat="43.719246" lon="4.899839">
        <ele>98.75732</ele>
        <time>2021-06-30T17:05:34Z</time>
      </trkpt>
      <trkpt lat="43.719318" lon="4.900087">
        <ele>98.63977</ele>
        <time>2021-06-30T17:05:35Z</time>
      </trkpt>
      <trkpt lat="43.719402" lon="4.900386">
        <ele>100.33472</ele>
        <time>2021-06-30T17:05:36Z</time>
      </trkpt>
      <trkpt lat="43.719467" lon="4.900612">
        <ele>100.92316</ele>
        <time>2021-06-30T17:05:37Z</time>
      </trkpt>
      <trkpt lat="43.719585" lon="4.900997">
        <ele>102.03809</ele>
        <time>2021-06-30T17:05:38Z</time>
      </trkpt>
      <trkpt lat="43.719692" lon="4.901335">
        <ele>102.57971</ele>
        <time>2021-06-30T17:05:39Z</time>
      </trkpt>
      <trkpt lat="43.719772" lon="4.901596">
        <ele>103.09619</ele>
        <time>2021-06-30T17:05:40Z</time>
      </trkpt>
      <trkpt lat="43.719841" lon="4.901828">
        <ele>103.17258</ele>
        <time>2021-06-30T17:05:41Z</time>
      </trkpt>
      <trkpt lat="43.719913" lon="4.902056">
        <ele>103.86943</ele>
        <time>2021-06-30T17:05:42Z</time>
      </trkpt>
      <trkpt lat="43.719990" lon="4.902258">
        <ele>104.66788</ele>
        <time>2021-06-30T17:05:43Z</time>
      </trkpt>
      <trkpt lat="43.720078" lon="4.902471">
        <ele>105.40242</ele>
        <time>2021-06-30T17:05:44Z</time>
      </trkpt>
      <trkpt lat="43.720078" lon="4.902471">
        <ele>106.16354</ele>
        <time>2021-06-30T17:05:45Z</time>
      </trkpt>
      <trkpt lat="43.720207" lon="4.902688">
        <ele>106.85300</ele>
        <time>2021-06-30T17:05:46Z</time>
      </trkpt>
      <trkpt lat="43.720345" lon="4.902846">
        <ele>106.94612</ele>
        <time>2021-06-30T17:05:47Z</time>
      </trkpt>
      <trkpt lat="43.720531" lon="4.902979">
        <ele>108.71104</ele>
        <time>2021-06-30T17:05:48Z</time>
      </trkpt>
      <trkpt lat="43.720684" lon="4.903065">
        <ele>110.65942</ele>
        <time>2021-06-30T17:05:49Z</time>
      </trkpt>
      <trkpt lat="43.720863" lon="4.903193">
        <ele>109.77878</ele>
        <time>2021-06-30T17:05:50Z</time>
      </trkpt>
      <trkpt lat="43.721039" lon="4.903340">
        <ele>110.74681</ele>
        <time>2021-06-30T17:05:51Z</time>
      </trkpt>
      <trkpt lat="43.721207" lon="4.903494">
        <ele>111.48544</ele>
        <time>2021-06-30T17:05:52Z</time>
      </trkpt>
      <trkpt lat="43.721348" lon="4.903643">
        <ele>111.18677</ele>
        <time>2021-06-30T17:05:53Z</time>
      </trkpt>
      <trkpt lat="43.721462" lon="4.903767">
        <ele>112.27455</ele>
        <time>2021-06-30T17:05:54Z</time>
      </trkpt>
      <trkpt lat="43.721569" lon="4.903881">
        <ele>111.60281</ele>
        <time>2021-06-30T17:05:55Z</time>
      </trkpt>
      <trkpt lat="43.721615" lon="4.903926">
        <ele>113.34778</ele>
        <time>2021-06-30T17:05:56Z</time>
      </trkpt>
      <trkpt lat="43.721699" lon="4.903990">
        <ele>113.31482</ele>
        <time>2021-06-30T17:05:57Z</time>
      </trkpt>
      <trkpt lat="43.721832" lon="4.904069">
        <ele>113.41089</ele>
        <time>2021-06-30T17:05:58Z</time>
      </trkpt>
      <trkpt lat="43.721832" lon="4.904069">
        <ele>113.60101</ele>
        <time>2021-06-30T17:05:59Z</time>
      </trkpt>
      <trkpt lat="43.721958" lon="4.904143">
        <ele>112.66014</ele>
        <time>2021-06-30T17:06:00Z</time>
      </trkpt>
      <trkpt lat="43.722065" lon="4.904208">
        <ele>112.50293</ele>
        <time>2021-06-30T17:06:01Z</time>
      </trkpt>
      <trkpt lat="43.722126" lon="4.904257">
        <ele>112.77920</ele>
        <time>2021-06-30T17:06:02Z</time>
      </trkpt>
      <trkpt lat="43.722176" lon="4.904314">
        <ele>113.50484</ele>
        <time>2021-06-30T17:06:03Z</time>
      </trkpt>
      <trkpt lat="43.722210" lon="4.904362">
        <ele>113.92571</ele>
        <time>2021-06-30T17:06:04Z</time>
      </trkpt>
      <trkpt lat="43.722282" lon="4.904492">
        <ele>114.32416</ele>
        <time>2021-06-30T17:06:05Z</time>
      </trkpt>
      <trkpt lat="43.722355" lon="4.904620">
        <ele>115.29208</ele>
        <time>2021-06-30T17:06:06Z</time>
      </trkpt>
      <trkpt lat="43.722446" lon="4.904786">
        <ele>116.36322</ele>
        <time>2021-06-30T17:06:07Z</time>
      </trkpt>
      <trkpt lat="43.722538" lon="4.904928">
        <ele>116.96814</ele>
        <time>2021-06-30T17:06:08Z</time>
      </trkpt>
      <trkpt lat="43.722652" lon="4.905023">
        <ele>117.90356</ele>
        <time>2021-06-30T17:06:09Z</time>
      </trkpt>
      <trkpt lat="43.722652" lon="4.905023">
        <ele>118.74194</ele>
        <time>2021-06-30T17:06:10Z</time>
      </trkpt>
      <trkpt lat="43.722755" lon="4.905080">
        <ele>117.76617</ele>
        <time>2021-06-30T17:06:11Z</time>
      </trkpt>
      <trkpt lat="43.722870" lon="4.905110">
        <ele>118.61981</ele>
        <time>2021-06-30T17:06:12Z</time>
      </trkpt>
      <trkpt lat="43.723019" lon="4.905115">
        <ele>119.11113</ele>
        <time>2021-06-30T17:06:13Z</time>
      </trkpt>
      <trkpt lat="43.723236" lon="4.905072">
        <ele>120.07708</ele>
        <time>2021-06-30T17:06:14Z</time>
      </trkpt>
      <trkpt lat="43.723396" lon="4.904995">
        <ele>120.48737</ele>
        <time>2021-06-30T17:06:15Z</time>
      </trkpt>
      <trkpt lat="43.723549" lon="4.904923">
        <ele>120.72776</ele>
        <time>2021-06-30T17:06:16Z</time>
      </trkpt>
      <trkpt lat="43.723705" lon="4.904870">
        <ele>120.92609</ele>
        <time>2021-06-30T17:06:17Z</time>
      </trkpt>
      <trkpt lat="43.723812" lon="4.904882">
        <ele>121.30222</ele>
        <time>2021-06-30T17:06:18Z</time>
      </trkpt>
      <trkpt lat="43.723965" lon="4.904915">
        <ele>121.35938</ele>
        <time>2021-06-30T17:06:19Z</time>
      </trkpt>
      <trkpt lat="43.724117" lon="4.905006">
        <ele>121.45969</ele>
        <time>2021-06-30T17:06:20Z</time>
      </trkpt>
      <trkpt lat="43.724117" lon="4.905006">
        <ele>121.85645</ele>
        <time>2021-06-30T17:06:21Z</time>
      </trkpt>
      <trkpt lat="43.724205" lon="4.905077">
        <ele>122.26150</ele>
        <time>2021-06-30T17:06:22Z</time>
      </trkpt>
      <trkpt lat="43.724358" lon="4.905204">
        <ele>123.91418</ele>
        <time>2021-06-30T17:06:23Z</time>
      </trkpt>
      <trkpt lat="43.724495" lon="4.905270">
        <ele>122.02003</ele>
        <time>2021-06-30T17:06:24Z</time>
      </trkpt>
      <trkpt lat="43.724590" lon="4.905282">
        <ele>122.12762</ele>
        <time>2021-06-30T17:06:25Z</time>
      </trkpt>
      <trkpt lat="43.724686" lon="4.905261">
        <ele>122.13129</ele>
        <time>2021-06-30T17:06:26Z</time>
      </trkpt>
      <trkpt lat="43.724808" lon="4.905186">
        <ele>124.92969</ele>
        <time>2021-06-30T17:06:27Z</time>
      </trkpt>
      <trkpt lat="43.724937" lon="4.905028">
        <ele>126.04364</ele>
        <time>2021-06-30T17:06:28Z</time>
      </trkpt>
      <trkpt lat="43.725044" lon="4.904883">
        <ele>127.18347</ele>
        <time>2021-06-30T17:06:29Z</time>
      </trkpt>
      <trkpt lat="43.725174" lon="4.904690">
        <ele>125.17371</ele>
        <time>2021-06-30T17:06:30Z</time>
      </trkpt>
      <trkpt lat="43.725307" lon="4.904535">
        <ele>125.25924</ele>
        <time>2021-06-30T17:06:31Z</time>
      </trkpt>
      <trkpt lat="43.725437" lon="4.904420">
        <ele>125.79076</ele>
        <time>2021-06-30T17:06:32Z</time>
      </trkpt>
      <trkpt lat="43.725582" lon="4.904331">
        <ele>127.29893</ele>
        <time>2021-06-30T17:06:33Z</time>
      </trkpt>
      <trkpt lat="43.725777" lon="4.904225">
        <ele>127.73380</ele>
        <time>2021-06-30T17:06:34Z</time>
      </trkpt>
      <trkpt lat="43.725941" lon="4.904181">
        <ele>128.03200</ele>
        <time>2021-06-30T17:06:35Z</time>
      </trkpt>
      <trkpt lat="43.725941" lon="4.904181">
        <ele>128.51744</ele>
        <time>2021-06-30T17:06:36Z</time>
      </trkpt>
      <trkpt lat="43.726101" lon="4.904184">
        <ele>131.00360</ele>
        <time>2021-06-30T17:06:37Z</time>
      </trkpt>
      <trkpt lat="43.726299" lon="4.904219">
        <ele>132.10681</ele>
        <time>2021-06-30T17:06:38Z</time>
      </trkpt>
      <trkpt lat="43.726543" lon="4.904303">
        <ele>132.92993</ele>
        <time>2021-06-30T17:06:39Z</time>
      </trkpt>
      <trkpt lat="43.726749" lon="4.904378">
        <ele>133.29712</ele>
        <time>2021-06-30T17:06:40Z</time>
      </trkpt>
      <trkpt lat="43.726974" lon="4.904459">
        <ele>134.04834</ele>
        <time>2021-06-30T17:06:41Z</time>
      </trkpt>
      <trkpt lat="43.727242" lon="4.904558">
        <ele>135.09778</ele>
        <time>2021-06-30T17:06:42Z</time>
      </trkpt>
      <trkpt lat="43.727448" lon="4.904661">
        <ele>135.95007</ele>
        <time>2021-06-30T17:06:43Z</time>
      </trkpt>
      <trkpt lat="43.727634" lon="4.904761">
        <ele>136.73376</ele>
        <time>2021-06-30T17:06:44Z</time>
      </trkpt>
      <trkpt lat="43.727867" lon="4.904912">
        <ele>137.48492</ele>
        <time>2021-06-30T17:06:45Z</time>
      </trkpt>
      <trkpt lat="43.728065" lon="4.905053">
        <ele>138.78473</ele>
        <time>2021-06-30T17:06:46Z</time>
      </trkpt>
      <trkpt lat="43.728268" lon="4.905192">
        <ele>138.84399</ele>
        <time>2021-06-30T17:06:47Z</time>
      </trkpt>
      <trkpt lat="43.728462" lon="4.905312">
        <ele>136.68584</ele>
        <time>2021-06-30T17:06:48Z</time>
      </trkpt>
      <trkpt lat="43.728462" lon="4.905312">
        <ele>136.92923</ele>
        <time>2021-06-30T17:06:49Z</time>
      </trkpt>
      <trkpt lat="43.728622" lon="4.905411">
        <ele>139.39044</ele>
        <time>2021-06-30T17:06:50Z</time>
      </trkpt>
      <trkpt lat="43.728760" lon="4.905495">
        <ele>138.40125</ele>
        <time>2021-06-30T17:06:51Z</time>
      </trkpt>
      <trkpt lat="43.728958" lon="4.905616">
        <ele>138.21861</ele>
        <time>2021-06-30T17:06:52Z</time>
      </trkpt>
      <trkpt lat="43.729122" lon="4.905666">
        <ele>138.94757</ele>
        <time>2021-06-30T17:06:53Z</time>
      </trkpt>
      <trkpt lat="43.729271" lon="4.905698">
        <ele>139.78419</ele>
        <time>2021-06-30T17:06:54Z</time>
      </trkpt>
      <trkpt lat="43.729424" lon="4.905720">
        <ele>140.88977</ele>
        <time>2021-06-30T17:06:55Z</time>
      </trkpt>
      <trkpt lat="43.729656" lon="4.905748">
        <ele>141.07092</ele>
        <time>2021-06-30T17:06:56Z</time>
      </trkpt>
      <trkpt lat="43.729855" lon="4.905771">
        <ele>140.68576</ele>
        <time>2021-06-30T17:06:57Z</time>
      </trkpt>
      <trkpt lat="43.729939" lon="4.905774">
        <ele>140.85834</ele>
        <time>2021-06-30T17:06:58Z</time>
      </trkpt>
      <trkpt lat="43.730034" lon="4.905750">
        <ele>142.36853</ele>
        <time>2021-06-30T17:06:59Z</time>
      </trkpt>
      <trkpt lat="43.730137" lon="4.905703">
        <ele>141.13492</ele>
        <time>2021-06-30T17:07:00Z</time>
      </trkpt>
      <trkpt lat="43.730137" lon="4.905703">
        <ele>141.50507</ele>
        <time>2021-06-30T17:07:01Z</time>
      </trkpt>
      <trkpt lat="43.730270" lon="4.905626">
        <ele>142.45982</ele>
        <time>2021-06-30T17:07:02Z</time>
      </trkpt>
      <trkpt lat="43.730453" lon="4.905543">
        <ele>144.29015</ele>
        <time>2021-06-30T17:07:03Z</time>
      </trkpt>
      <trkpt lat="43.730679" lon="4.905481">
        <ele>144.31902</ele>
        <time>2021-06-30T17:07:04Z</time>
      </trkpt>
      <trkpt lat="43.730850" lon="4.905480">
        <ele>144.88301</ele>
        <time>2021-06-30T17:07:05Z</time>
      </trkpt>
      <trkpt lat="43.731068" lon="4.905478">
        <ele>146.50194</ele>
        <time>2021-06-30T17:07:06Z</time>
      </trkpt>
      <trkpt lat="43.731236" lon="4.905494">
        <ele>146.40973</ele>
        <time>2021-06-30T17:07:07Z</time>
      </trkpt>
      <trkpt lat="43.731434" lon="4.905548">
        <ele>146.54149</ele>
        <time>2021-06-30T17:07:08Z</time>
      </trkpt>
      <trkpt lat="43.731541" lon="4.905635">
        <ele>146.47978</ele>
        <time>2021-06-30T17:07:09Z</time>
      </trkpt>
      <trkpt lat="43.731647" lon="4.905736">
        <ele>146.70572</ele>
        <time>2021-06-30T17:07:10Z</time>
      </trkpt>
      <trkpt lat="43.731762" lon="4.905887">
        <ele>147.21999</ele>
        <time>2021-06-30T17:07:11Z</time>
      </trkpt>
      <trkpt lat="43.731888" lon="4.906072">
        <ele>147.86359</ele>
        <time>2021-06-30T17:07:12Z</time>
      </trkpt>
      <trkpt lat="43.732040" lon="4.906309">
        <ele>148.97083</ele>
        <time>2021-06-30T17:07:13Z</time>
      </trkpt>
      <trkpt lat="43.732170" lon="4.906570">
        <ele>149.93390</ele>
        <time>2021-06-30T17:07:14Z</time>
      </trkpt>
      <trkpt lat="43.732170" lon="4.906570">
        <ele>151.09021</ele>
        <time>2021-06-30T17:07:15Z</time>
      </trkpt>
      <trkpt lat="43.732311" lon="4.906854">
        <ele>151.95508</ele>
        <time>2021-06-30T17:07:16Z</time>
      </trkpt>
      <trkpt lat="43.732418" lon="4.907057">
        <ele>151.51282</ele>
        <time>2021-06-30T17:07:17Z</time>
      </trkpt>
      <trkpt lat="43.732536" lon="4.907259">
        <ele>152.36064</ele>
        <time>2021-06-30T17:07:18Z</time>
      </trkpt>
      <trkpt lat="43.732658" lon="4.907461">
        <ele>152.18321</ele>
        <time>2021-06-30T17:07:19Z</time>
      </trkpt>
      <trkpt lat="43.732788" lon="4.907637">
        <ele>152.54926</ele>
        <time>2021-06-30T17:07:20Z</time>
      </trkpt>
      <trkpt lat="43.732929" lon="4.907804">
        <ele>153.37659</ele>
        <time>2021-06-30T17:07:21Z</time>
      </trkpt>
      <trkpt lat="43.733139" lon="4.908032">
        <ele>154.08789</ele>
        <time>2021-06-30T17:07:22Z</time>
      </trkpt>
      <trkpt lat="43.733356" lon="4.908244">
        <ele>155.35449</ele>
        <time>2021-06-30T17:07:23Z</time>
      </trkpt>
      <trkpt lat="43.733540" lon="4.908422">
        <ele>155.96777</ele>
        <time>2021-06-30T17:07:24Z</time>
      </trkpt>
      <trkpt lat="43.733727" lon="4.908601">
        <ele>156.92969</ele>
        <time>2021-06-30T17:07:25Z</time>
      </trkpt>
      <trkpt lat="43.733727" lon="4.908601">
        <ele>157.15764</ele>
        <time>2021-06-30T17:07:26Z</time>
      </trkpt>
      <trkpt lat="43.733883" lon="4.908734">
        <ele>157.01820</ele>
        <time>2021-06-30T17:07:27Z</time>
      </trkpt>
      <trkpt lat="43.734047" lon="4.908816">
        <ele>157.44687</ele>
        <time>2021-06-30T17:07:28Z</time>
      </trkpt>
      <trkpt lat="43.734215" lon="4.908873">
        <ele>158.37830</ele>
        <time>2021-06-30T17:07:29Z</time>
      </trkpt>
      <trkpt lat="43.734447" lon="4.908935">
        <ele>159.28650</ele>
        <time>2021-06-30T17:07:30Z</time>
      </trkpt>
      <trkpt lat="43.734722" lon="4.909001">
        <ele>160.26111</ele>
        <time>2021-06-30T17:07:31Z</time>
      </trkpt>
      <trkpt lat="43.734962" lon="4.909092">
        <ele>161.01971</ele>
        <time>2021-06-30T17:07:32Z</time>
      </trkpt>
      <trkpt lat="43.735153" lon="4.909184">
        <ele>162.40863</ele>
        <time>2021-06-30T17:07:33Z</time>
      </trkpt>
      <trkpt lat="43.735367" lon="4.909282">
        <ele>162.63031</ele>
        <time>2021-06-30T17:07:34Z</time>
      </trkpt>
      <trkpt lat="43.735584" lon="4.909382">
        <ele>163.30273</ele>
        <time>2021-06-30T17:07:35Z</time>
      </trkpt>
      <trkpt lat="43.735794" lon="4.909478">
        <ele>164.34924</ele>
        <time>2021-06-30T17:07:36Z</time>
      </trkpt>
      <trkpt lat="43.735981" lon="4.909558">
        <ele>166.29651</ele>
        <time>2021-06-30T17:07:37Z</time>
      </trkpt>
      <trkpt lat="43.736195" lon="4.909619">
        <ele>167.38385</ele>
        <time>2021-06-30T17:07:38Z</time>
      </trkpt>
      <trkpt lat="43.736420" lon="4.909674">
        <ele>168.76898</ele>
        <time>2021-06-30T17:07:39Z</time>
      </trkpt>
      <trkpt lat="43.736420" lon="4.909674">
        <ele>170.32642</ele>
        <time>2021-06-30T17:07:40Z</time>
      </trkpt>
      <trkpt lat="43.736618" lon="4.909688">
        <ele>171.92090</ele>
        <time>2021-06-30T17:07:41Z</time>
      </trkpt>
      <trkpt lat="43.736801" lon="4.909702">
        <ele>172.48212</ele>
        <time>2021-06-30T17:07:42Z</time>
      </trkpt>
      <trkpt lat="43.737026" lon="4.909705">
        <ele>172.69598</ele>
        <time>2021-06-30T17:07:43Z</time>
      </trkpt>
      <trkpt lat="43.737247" lon="4.909673">
        <ele>172.57166</ele>
        <time>2021-06-30T17:07:44Z</time>
      </trkpt>
      <trkpt lat="43.737461" lon="4.909628">
        <ele>174.56244</ele>
        <time>2021-06-30T17:07:45Z</time>
      </trkpt>
      <trkpt lat="43.737675" lon="4.909570">
        <ele>175.97070</ele>
        <time>2021-06-30T17:07:46Z</time>
      </trkpt>
      <trkpt lat="43.737850" lon="4.909521">
        <ele>176.32703</ele>
        <time>2021-06-30T17:07:47Z</time>
      </trkpt>
      <trkpt lat="43.738022" lon="4.909445">
        <ele>178.07483</ele>
        <time>2021-06-30T17:07:48Z</time>
      </trkpt>
      <trkpt lat="43.738228" lon="4.909338">
        <ele>178.83856</ele>
        <time>2021-06-30T17:07:49Z</time>
      </trkpt>
      <trkpt lat="43.738419" lon="4.909236">
        <ele>179.32898</ele>
        <time>2021-06-30T17:07:50Z</time>
      </trkpt>
      <trkpt lat="43.738644" lon="4.909095">
        <ele>180.55127</ele>
        <time>2021-06-30T17:07:51Z</time>
      </trkpt>
      <trkpt lat="43.738842" lon="4.908969">
        <ele>181.86072</ele>
        <time>2021-06-30T17:07:52Z</time>
      </trkpt>
      <trkpt lat="43.739056" lon="4.908835">
        <ele>182.63171</ele>
        <time>2021-06-30T17:07:53Z</time>
      </trkpt>
      <trkpt lat="43.739265" lon="4.908696">
        <ele>183.50806</ele>
        <time>2021-06-30T17:07:54Z</time>
      </trkpt>
      <trkpt lat="43.739265" lon="4.908696">
        <ele>184.65973</ele>
        <time>2021-06-30T17:07:55Z</time>
      </trkpt>
      <trkpt lat="43.739464" lon="4.908503">
        <ele>184.77344</ele>
        <time>2021-06-30T17:07:56Z</time>
      </trkpt>
      <trkpt lat="43.739655" lon="4.908321">
        <ele>185.69037</ele>
        <time>2021-06-30T17:07:57Z</time>
      </trkpt>
      <trkpt lat="43.739799" lon="4.908180">
        <ele>184.65414</ele>
        <time>2021-06-30T17:07:58Z</time>
      </trkpt>
      <trkpt lat="43.739937" lon="4.908036">
        <ele>184.97134</ele>
        <time>2021-06-30T17:07:59Z</time>
      </trkpt>
      <trkpt lat="43.740074" lon="4.907843">
        <ele>185.42590</ele>
        <time>2021-06-30T17:08:00Z</time>
      </trkpt>
      <trkpt lat="43.740177" lon="4.907687">
        <ele>186.23285</ele>
        <time>2021-06-30T17:08:01Z</time>
      </trkpt>
      <trkpt lat="43.740269" lon="4.907544">
        <ele>186.59146</ele>
        <time>2021-06-30T17:08:02Z</time>
      </trkpt>
      <trkpt lat="43.740402" lon="4.907366">
        <ele>186.42661</ele>
        <time>2021-06-30T17:08:03Z</time>
      </trkpt>
      <trkpt lat="43.740498" lon="4.907288">
        <ele>188.57115</ele>
        <time>2021-06-30T17:08:04Z</time>
      </trkpt>
      <trkpt lat="43.740589" lon="4.907230">
        <ele>188.32112</ele>
        <time>2021-06-30T17:08:05Z</time>
      </trkpt>
      <trkpt lat="43.740742" lon="4.907126">
        <ele>189.17955</ele>
        <time>2021-06-30T17:08:06Z</time>
      </trkpt>
      <trkpt lat="43.740936" lon="4.906984">
        <ele>192.90088</ele>
        <time>2021-06-30T17:08:07Z</time>
      </trkpt>
      <trkpt lat="43.740936" lon="4.906984">
        <ele>194.79089</ele>
        <time>2021-06-30T17:08:08Z</time>
      </trkpt>
      <trkpt lat="43.741165" lon="4.906775">
        <ele>195.47815</ele>
        <time>2021-06-30T17:08:09Z</time>
      </trkpt>
      <trkpt lat="43.741375" lon="4.906582">
        <ele>196.50159</ele>
        <time>2021-06-30T17:08:10Z</time>
      </trkpt>
      <trkpt lat="43.741627" lon="4.906408">
        <ele>197.01550</ele>
        <time>2021-06-30T17:08:11Z</time>
      </trkpt>
      <trkpt lat="43.741840" lon="4.906259">
        <ele>197.25214</ele>
        <time>2021-06-30T17:08:12Z</time>
      </trkpt>
      <trkpt lat="43.742043" lon="4.906105">
        <ele>198.35736</ele>
        <time>2021-06-30T17:08:13Z</time>
      </trkpt>
      <trkpt lat="43.742237" lon="4.905937">
        <ele>198.97717</ele>
        <time>2021-06-30T17:08:14Z</time>
      </trkpt>
      <trkpt lat="43.742397" lon="4.905792">
        <ele>199.23035</ele>
        <time>2021-06-30T17:08:15Z</time>
      </trkpt>
      <trkpt lat="43.742565" lon="4.905642">
        <ele>197.31648</ele>
        <time>2021-06-30T17:08:16Z</time>
      </trkpt>
      <trkpt lat="43.742653" lon="4.905577">
        <ele>197.61542</ele>
        <time>2021-06-30T17:08:17Z</time>
      </trkpt>
      <trkpt lat="43.742653" lon="4.905577">
        <ele>197.90985</ele>
        <time>2021-06-30T17:08:18Z</time>
      </trkpt>
      <trkpt lat="43.742695" lon="4.905553">
        <ele>199.06529</ele>
        <time>2021-06-30T17:08:19Z</time>
      </trkpt>
      <trkpt lat="43.742832" lon="4.905487">
        <ele>199.65065</ele>
        <time>2021-06-30T17:08:20Z</time>
      </trkpt>
      <trkpt lat="43.743008" lon="4.905419">
        <ele>200.90776</ele>
        <time>2021-06-30T17:08:21Z</time>
      </trkpt>
      <trkpt lat="43.743145" lon="4.905390">
        <ele>202.04979</ele>
        <time>2021-06-30T17:08:22Z</time>
      </trkpt>
      <trkpt lat="43.743351" lon="4.905391">
        <ele>202.38055</ele>
        <time>2021-06-30T17:08:23Z</time>
      </trkpt>
      <trkpt lat="43.743462" lon="4.905426">
        <ele>202.94157</ele>
        <time>2021-06-30T17:08:24Z</time>
      </trkpt>
      <trkpt lat="43.743572" lon="4.905507">
        <ele>203.11024</ele>
        <time>2021-06-30T17:08:25Z</time>
      </trkpt>
      <trkpt lat="43.743652" lon="4.905624">
        <ele>203.26872</ele>
        <time>2021-06-30T17:08:26Z</time>
      </trkpt>
      <trkpt lat="43.743687" lon="4.905767">
        <ele>204.07452</ele>
        <time>2021-06-30T17:08:27Z</time>
      </trkpt>
      <trkpt lat="43.743690" lon="4.905907">
        <ele>204.21722</ele>
        <time>2021-06-30T17:08:28Z</time>
      </trkpt>
      <trkpt lat="43.743687" lon="4.906017">
        <ele>205.01569</ele>
        <time>2021-06-30T17:08:29Z</time>
      </trkpt>
      <trkpt lat="43.743687" lon="4.906017">
        <ele>204.96855</ele>
        <time>2021-06-30T17:08:30Z</time>
      </trkpt>
      <trkpt lat="43.743645" lon="4.906334">
        <ele>204.83534</ele>
        <time>2021-06-30T17:08:31Z</time>
      </trkpt>
      <trkpt lat="43.743610" lon="4.906683">
        <ele>204.52240</ele>
        <time>2021-06-30T17:08:32Z</time>
      </trkpt>
      <trkpt lat="43.743595" lon="4.906996">
        <ele>203.95789</ele>
        <time>2021-06-30T17:08:33Z</time>
      </trkpt>
      <trkpt lat="43.743584" lon="4.907264">
        <ele>203.01685</ele>
        <time>2021-06-30T17:08:34Z</time>
      </trkpt>
      <trkpt lat="43.743572" lon="4.907465">
        <ele>202.15759</ele>
        <time>2021-06-30T17:08:35Z</time>
      </trkpt>
      <trkpt lat="43.743530" lon="4.907762">
        <ele>202.10590</ele>
        <time>2021-06-30T17:08:36Z</time>
      </trkpt>
      <trkpt lat="43.743477" lon="4.908053">
        <ele>200.27167</ele>
        <time>2021-06-30T17:08:37Z</time>
      </trkpt>
      <trkpt lat="43.743431" lon="4.908453">
        <ele>198.57141</ele>
        <time>2021-06-30T17:08:38Z</time>
      </trkpt>
      <trkpt lat="43.743412" lon="4.908770">
        <ele>198.08386</ele>
        <time>2021-06-30T17:08:39Z</time>
      </trkpt>
      <trkpt lat="43.743404" lon="4.909125">
        <ele>197.67426</ele>
        <time>2021-06-30T17:08:40Z</time>
      </trkpt>
      <trkpt lat="43.743416" lon="4.909409">
        <ele>197.56628</ele>
        <time>2021-06-30T17:08:41Z</time>
      </trkpt>
      <trkpt lat="43.743416" lon="4.909409">
        <ele>196.01703</ele>
        <time>2021-06-30T17:08:42Z</time>
      </trkpt>
      <trkpt lat="43.743439" lon="4.909697">
        <ele>195.13220</ele>
        <time>2021-06-30T17:08:43Z</time>
      </trkpt>
      <trkpt lat="43.743446" lon="4.909998">
        <ele>194.18964</ele>
        <time>2021-06-30T17:08:44Z</time>
      </trkpt>
      <trkpt lat="43.743446" lon="4.910299">
        <ele>194.19305</ele>
        <time>2021-06-30T17:08:45Z</time>
      </trkpt>
      <trkpt lat="43.743435" lon="4.910588">
        <ele>192.98022</ele>
        <time>2021-06-30T17:08:46Z</time>
      </trkpt>
      <trkpt lat="43.743420" lon="4.910886">
        <ele>192.26257</ele>
        <time>2021-06-30T17:08:47Z</time>
      </trkpt>
      <trkpt lat="43.743435" lon="4.911179">
        <ele>190.97498</ele>
        <time>2021-06-30T17:08:48Z</time>
      </trkpt>
      <trkpt lat="43.743462" lon="4.911503">
        <ele>189.73511</ele>
        <time>2021-06-30T17:08:49Z</time>
      </trkpt>
      <trkpt lat="43.743519" lon="4.911909">
        <ele>188.66650</ele>
        <time>2021-06-30T17:08:50Z</time>
      </trkpt>
      <trkpt lat="43.743568" lon="4.912265">
        <ele>187.52570</ele>
        <time>2021-06-30T17:08:51Z</time>
      </trkpt>
      <trkpt lat="43.743622" lon="4.912641">
        <ele>186.63300</ele>
        <time>2021-06-30T17:08:52Z</time>
      </trkpt>
      <trkpt lat="43.743660" lon="4.912984">
        <ele>184.17395</ele>
        <time>2021-06-30T17:08:53Z</time>
      </trkpt>
      <trkpt lat="43.743660" lon="4.912984">
        <ele>183.06824</ele>
        <time>2021-06-30T17:08:54Z</time>
      </trkpt>
      <trkpt lat="43.743706" lon="4.913344">
        <ele>182.55267</ele>
        <time>2021-06-30T17:08:55Z</time>
      </trkpt>
      <trkpt lat="43.743748" lon="4.913699">
        <ele>180.47546</ele>
        <time>2021-06-30T17:08:56Z</time>
      </trkpt>
      <trkpt lat="43.743763" lon="4.914063">
        <ele>179.56488</ele>
        <time>2021-06-30T17:08:57Z</time>
      </trkpt>
      <trkpt lat="43.743778" lon="4.914534">
        <ele>177.63037</ele>
        <time>2021-06-30T17:08:58Z</time>
      </trkpt>
      <trkpt lat="43.743793" lon="4.914885">
        <ele>176.62097</ele>
        <time>2021-06-30T17:08:59Z</time>
      </trkpt>
      <trkpt lat="43.743805" lon="4.915218">
        <ele>175.03210</ele>
        <time>2021-06-30T17:09:00Z</time>
      </trkpt>
      <trkpt lat="43.743816" lon="4.915523">
        <ele>174.77570</ele>
        <time>2021-06-30T17:09:01Z</time>
      </trkpt>
      <trkpt lat="43.743835" lon="4.915833">
        <ele>173.91138</ele>
        <time>2021-06-30T17:09:02Z</time>
      </trkpt>
      <trkpt lat="43.743881" lon="4.916209">
        <ele>172.89990</ele>
        <time>2021-06-30T17:09:03Z</time>
      </trkpt>
      <trkpt lat="43.743935" lon="4.916604">
        <ele>171.72839</ele>
        <time>2021-06-30T17:09:04Z</time>
      </trkpt>
      <trkpt lat="43.743980" lon="4.916981">
        <ele>171.04846</ele>
        <time>2021-06-30T17:09:05Z</time>
      </trkpt>
      <trkpt lat="43.744022" lon="4.917310">
        <ele>170.46539</ele>
        <time>2021-06-30T17:09:06Z</time>
      </trkpt>
      <trkpt lat="43.744053" lon="4.917641">
        <ele>168.87006</ele>
        <time>2021-06-30T17:09:07Z</time>
      </trkpt>
      <trkpt lat="43.744064" lon="4.917892">
        <ele>163.32497</ele>
        <time>2021-06-30T17:09:08Z</time>
      </trkpt>
      <trkpt lat="43.744057" lon="4.918044">
        <ele>160.49861</ele>
        <time>2021-06-30T17:09:09Z</time>
      </trkpt>
      <trkpt lat="43.744057" lon="4.918044">
        <ele>164.50940</ele>
        <time>2021-06-30T17:09:10Z</time>
      </trkpt>
      <trkpt lat="43.744038" lon="4.918283">
        <ele>164.39600</ele>
        <time>2021-06-30T17:09:11Z</time>
      </trkpt>
      <trkpt lat="43.743977" lon="4.918553">
        <ele>164.66229</ele>
        <time>2021-06-30T17:09:12Z</time>
      </trkpt>
      <trkpt lat="43.743904" lon="4.918817">
        <ele>157.93808</ele>
        <time>2021-06-30T17:09:13Z</time>
      </trkpt>
      <trkpt lat="43.743839" lon="4.919083">
        <ele>157.32434</ele>
        <time>2021-06-30T17:09:14Z</time>
      </trkpt>
      <trkpt lat="43.743797" lon="4.919312">
        <ele>161.82574</ele>
        <time>2021-06-30T17:09:15Z</time>
      </trkpt>
      <trkpt lat="43.743782" lon="4.919520">
        <ele>155.54695</ele>
        <time>2021-06-30T17:09:16Z</time>
      </trkpt>
      <trkpt lat="43.743786" lon="4.919795">
        <ele>154.56009</ele>
        <time>2021-06-30T17:09:17Z</time>
      </trkpt>
      <trkpt lat="43.743809" lon="4.919977">
        <ele>153.98824</ele>
        <time>2021-06-30T17:09:18Z</time>
      </trkpt>
      <trkpt lat="43.743832" lon="4.920077">
        <ele>157.67151</ele>
        <time>2021-06-30T17:09:19Z</time>
      </trkpt>
      <trkpt lat="43.743919" lon="4.920272">
        <ele>157.53894</ele>
        <time>2021-06-30T17:09:20Z</time>
      </trkpt>
      <trkpt lat="43.744076" lon="4.920447">
        <ele>157.06799</ele>
        <time>2021-06-30T17:09:21Z</time>
      </trkpt>
      <trkpt lat="43.744255" lon="4.920540">
        <ele>156.14374</ele>
        <time>2021-06-30T17:09:22Z</time>
      </trkpt>
      <trkpt lat="43.744446" lon="4.920599">
        <ele>155.07880</ele>
        <time>2021-06-30T17:09:23Z</time>
      </trkpt>
      <trkpt lat="43.744446" lon="4.920599">
        <ele>154.24731</ele>
        <time>2021-06-30T17:09:24Z</time>
      </trkpt>
      <trkpt lat="43.744713" lon="4.920656">
        <ele>153.96942</ele>
        <time>2021-06-30T17:09:25Z</time>
      </trkpt>
      <trkpt lat="43.744968" lon="4.920693">
        <ele>153.44031</ele>
        <time>2021-06-30T17:09:26Z</time>
      </trkpt>
      <trkpt lat="43.745220" lon="4.920729">
        <ele>152.90643</ele>
        <time>2021-06-30T17:09:27Z</time>
      </trkpt>
      <trkpt lat="43.745441" lon="4.920760">
        <ele>152.53308</ele>
        <time>2021-06-30T17:09:28Z</time>
      </trkpt>
      <trkpt lat="43.745651" lon="4.920791">
        <ele>152.06488</ele>
        <time>2021-06-30T17:09:29Z</time>
      </trkpt>
      <trkpt lat="43.745850" lon="4.920819">
        <ele>151.81683</ele>
        <time>2021-06-30T17:09:30Z</time>
      </trkpt>
      <trkpt lat="43.746010" lon="4.920841">
        <ele>151.82941</ele>
        <time>2021-06-30T17:09:31Z</time>
      </trkpt>
      <trkpt lat="43.746120" lon="4.920857">
        <ele>147.20433</ele>
        <time>2021-06-30T17:09:32Z</time>
      </trkpt>
      <trkpt lat="43.746235" lon="4.920888">
        <ele>146.82948</ele>
        <time>2021-06-30T17:09:33Z</time>
      </trkpt>
      <trkpt lat="43.746342" lon="4.920963">
        <ele>146.71765</ele>
        <time>2021-06-30T17:09:34Z</time>
      </trkpt>
      <trkpt lat="43.746414" lon="4.921033">
        <ele>146.07970</ele>
        <time>2021-06-30T17:09:35Z</time>
      </trkpt>
      <trkpt lat="43.746468" lon="4.921120">
        <ele>146.21202</ele>
        <time>2021-06-30T17:09:36Z</time>
      </trkpt>
      <trkpt lat="43.746487" lon="4.921164">
        <ele>146.59096</ele>
        <time>2021-06-30T17:09:37Z</time>
      </trkpt>
      <trkpt lat="43.746487" lon="4.921164">
        <ele>146.60750</ele>
        <time>2021-06-30T17:09:38Z</time>
      </trkpt>
      <trkpt lat="43.746490" lon="4.921176">
        <ele>146.54945</ele>
        <time>2021-06-30T17:09:39Z</time>
      </trkpt>
      <trkpt lat="43.746502" lon="4.921198">
        <ele>146.49380</ele>
        <time>2021-06-30T17:09:40Z</time>
      </trkpt>
      <trkpt lat="43.746513" lon="4.921219">
        <ele>146.40764</ele>
        <time>2021-06-30T17:09:41Z</time>
      </trkpt>
      <trkpt lat="43.746532" lon="4.921255">
        <ele>147.11238</ele>
        <time>2021-06-30T17:09:42Z</time>
      </trkpt>
      <trkpt lat="43.746628" lon="4.921119">
        <ele>147.69917</ele>
        <time>2021-06-30T17:09:43Z</time>
      </trkpt>
      <trkpt lat="43.746677" lon="4.921081">
        <ele>147.93282</ele>
        <time>2021-06-30T17:09:44Z</time>
      </trkpt>
      <trkpt lat="43.746830" lon="4.920997">
        <ele>147.79199</ele>
        <time>2021-06-30T17:09:45Z</time>
      </trkpt>
      <trkpt lat="43.746998" lon="4.920929">
        <ele>147.67090</ele>
        <time>2021-06-30T17:09:46Z</time>
      </trkpt>
      <trkpt lat="43.747208" lon="4.920846">
        <ele>148.00064</ele>
        <time>2021-06-30T17:09:47Z</time>
      </trkpt>
      <trkpt lat="43.747383" lon="4.920775">
        <ele>148.84473</ele>
        <time>2021-06-30T17:09:48Z</time>
      </trkpt>
      <trkpt lat="43.747383" lon="4.920775">
        <ele>148.65582</ele>
        <time>2021-06-30T17:09:49Z</time>
      </trkpt>
      <trkpt lat="43.747635" lon="4.920703">
        <ele>148.64264</ele>
        <time>2021-06-30T17:09:50Z</time>
      </trkpt>
      <trkpt lat="43.747852" lon="4.920698">
        <ele>146.74797</ele>
        <time>2021-06-30T17:09:51Z</time>
      </trkpt>
      <trkpt lat="43.748020" lon="4.920695">
        <ele>145.59445</ele>
        <time>2021-06-30T17:09:52Z</time>
      </trkpt>
      <trkpt lat="43.748173" lon="4.920697">
        <ele>145.57857</ele>
        <time>2021-06-30T17:09:53Z</time>
      </trkpt>
      <trkpt lat="43.748383" lon="4.920779">
        <ele>144.14639</ele>
        <time>2021-06-30T17:09:54Z</time>
      </trkpt>
      <trkpt lat="43.748520" lon="4.920862">
        <ele>145.27283</ele>
        <time>2021-06-30T17:09:55Z</time>
      </trkpt>
      <trkpt lat="43.748692" lon="4.920977">
        <ele>145.24414</ele>
        <time>2021-06-30T17:09:56Z</time>
      </trkpt>
      <trkpt lat="43.748974" lon="4.921164">
        <ele>143.86646</ele>
        <time>2021-06-30T17:09:57Z</time>
      </trkpt>
      <trkpt lat="43.749241" lon="4.921363">
        <ele>142.80536</ele>
        <time>2021-06-30T17:09:58Z</time>
      </trkpt>
      <trkpt lat="43.749557" lon="4.921597">
        <ele>142.42792</ele>
        <time>2021-06-30T17:09:59Z</time>
      </trkpt>
      <trkpt lat="43.749840" lon="4.921775">
        <ele>141.45038</ele>
        <time>2021-06-30T17:10:00Z</time>
      </trkpt>
      <trkpt lat="43.750065" lon="4.921914">
        <ele>141.01581</ele>
        <time>2021-06-30T17:10:01Z</time>
      </trkpt>
      <trkpt lat="43.750286" lon="4.922051">
        <ele>140.68567</ele>
        <time>2021-06-30T17:10:02Z</time>
      </trkpt>
      <trkpt lat="43.750492" lon="4.922177">
        <ele>140.64844</ele>
        <time>2021-06-30T17:10:03Z</time>
      </trkpt>
      <trkpt lat="43.750702" lon="4.922305">
        <ele>137.42444</ele>
        <time>2021-06-30T17:10:04Z</time>
      </trkpt>
      <trkpt lat="43.750870" lon="4.922371">
        <ele>136.70978</ele>
        <time>2021-06-30T17:10:05Z</time>
      </trkpt>
      <trkpt lat="43.750870" lon="4.922371">
        <ele>135.92877</ele>
        <time>2021-06-30T17:10:06Z</time>
      </trkpt>
      <trkpt lat="43.751034" lon="4.922421">
        <ele>135.35522</ele>
        <time>2021-06-30T17:10:07Z</time>
      </trkpt>
      <trkpt lat="43.751354" lon="4.922413">
        <ele>133.81268</ele>
        <time>2021-06-30T17:10:08Z</time>
      </trkpt>
      <trkpt lat="43.751690" lon="4.922407">
        <ele>133.42999</ele>
        <time>2021-06-30T17:10:09Z</time>
      </trkpt>
      <trkpt lat="43.751942" lon="4.922468">
        <ele>131.85754</ele>
        <time>2021-06-30T17:10:10Z</time>
      </trkpt>
      <trkpt lat="43.752155" lon="4.922609">
        <ele>130.99042</ele>
        <time>2021-06-30T17:10:11Z</time>
      </trkpt>
      <trkpt lat="43.752403" lon="4.922821">
        <ele>130.56030</ele>
        <time>2021-06-30T17:10:12Z</time>
      </trkpt>
      <trkpt lat="43.752663" lon="4.922984">
        <ele>129.39154</ele>
        <time>2021-06-30T17:10:13Z</time>
      </trkpt>
      <trkpt lat="43.752934" lon="4.923129">
        <ele>128.99915</ele>
        <time>2021-06-30T17:10:14Z</time>
      </trkpt>
      <trkpt lat="43.753201" lon="4.923269">
        <ele>128.60370</ele>
        <time>2021-06-30T17:10:15Z</time>
      </trkpt>
      <trkpt lat="43.753498" lon="4.923428">
        <ele>128.33197</ele>
        <time>2021-06-30T17:10:16Z</time>
      </trkpt>
      <trkpt lat="43.753830" lon="4.923603">
        <ele>126.97333</ele>
        <time>2021-06-30T17:10:17Z</time>
      </trkpt>
      <trkpt lat="43.754063" lon="4.923748">
        <ele>126.22723</ele>
        <time>2021-06-30T17:10:18Z</time>
      </trkpt>
      <trkpt lat="43.754288" lon="4.923892">
        <ele>126.18439</ele>
        <time>2021-06-30T17:10:19Z</time>
      </trkpt>
      <trkpt lat="43.754288" lon="4.923892">
        <ele>125.84778</ele>
        <time>2021-06-30T17:10:20Z</time>
      </trkpt>
      <trkpt lat="43.754566" lon="4.924072">
        <ele>127.10797</ele>
        <time>2021-06-30T17:10:21Z</time>
      </trkpt>
      <trkpt lat="43.754822" lon="4.924235">
        <ele>126.15631</ele>
        <time>2021-06-30T17:10:22Z</time>
      </trkpt>
      <trkpt lat="43.755047" lon="4.924366">
        <ele>125.50507</ele>
        <time>2021-06-30T17:10:23Z</time>
      </trkpt>
      <trkpt lat="43.755276" lon="4.924479">
        <ele>126.24060</ele>
        <time>2021-06-30T17:10:24Z</time>
      </trkpt>
      <trkpt lat="43.755505" lon="4.924544">
        <ele>125.60107</ele>
        <time>2021-06-30T17:10:25Z</time>
      </trkpt>
      <trkpt lat="43.755741" lon="4.924580">
        <ele>124.43237</ele>
        <time>2021-06-30T17:10:26Z</time>
      </trkpt>
      <trkpt lat="43.756039" lon="4.924616">
        <ele>123.73950</ele>
        <time>2021-06-30T17:10:27Z</time>
      </trkpt>
      <trkpt lat="43.756332" lon="4.924651">
        <ele>123.49493</ele>
        <time>2021-06-30T17:10:28Z</time>
      </trkpt>
      <trkpt lat="43.756615" lon="4.924685">
        <ele>123.26013</ele>
        <time>2021-06-30T17:10:29Z</time>
      </trkpt>
      <trkpt lat="43.756874" lon="4.924719">
        <ele>122.52081</ele>
        <time>2021-06-30T17:10:30Z</time>
      </trkpt>
      <trkpt lat="43.757114" lon="4.924770">
        <ele>122.35309</ele>
        <time>2021-06-30T17:10:31Z</time>
      </trkpt>
      <trkpt lat="43.757355" lon="4.924833">
        <ele>121.93396</ele>
        <time>2021-06-30T17:10:32Z</time>
      </trkpt>
      <trkpt lat="43.757656" lon="4.924910">
        <ele>122.07629</ele>
        <time>2021-06-30T17:10:33Z</time>
      </trkpt>
      <trkpt lat="43.757656" lon="4.924910">
        <ele>122.00647</ele>
        <time>2021-06-30T17:10:34Z</time>
      </trkpt>
      <trkpt lat="43.757977" lon="4.924979">
        <ele>122.22522</ele>
        <time>2021-06-30T17:10:35Z</time>
      </trkpt>
      <trkpt lat="43.758240" lon="4.925037">
        <ele>122.00928</ele>
        <time>2021-06-30T17:10:36Z</time>
      </trkpt>
      <trkpt lat="43.758488" lon="4.925099">
        <ele>122.32983</ele>
        <time>2021-06-30T17:10:37Z</time>
      </trkpt>
      <trkpt lat="43.758762" lon="4.925168">
        <ele>122.48016</ele>
        <time>2021-06-30T17:10:38Z</time>
      </trkpt>
      <trkpt lat="43.759071" lon="4.925238">
        <ele>122.38843</ele>
        <time>2021-06-30T17:10:39Z</time>
      </trkpt>
      <trkpt lat="43.759346" lon="4.925278">
        <ele>122.42731</ele>
        <time>2021-06-30T17:10:40Z</time>
      </trkpt>
      <trkpt lat="43.759590" lon="4.925314">
        <ele>122.41028</ele>
        <time>2021-06-30T17:10:41Z</time>
      </trkpt>
      <trkpt lat="43.759811" lon="4.925346">
        <ele>122.99994</ele>
        <time>2021-06-30T17:10:42Z</time>
      </trkpt>
      <trkpt lat="43.760078" lon="4.925367">
        <ele>123.38000</ele>
        <time>2021-06-30T17:10:43Z</time>
      </trkpt>
      <trkpt lat="43.760201" lon="4.925375">
        <ele>123.70892</ele>
        <time>2021-06-30T17:10:44Z</time>
      </trkpt>
      <trkpt lat="43.760380" lon="4.925388">
        <ele>121.99473</ele>
        <time>2021-06-30T17:10:45Z</time>
      </trkpt>
      <trkpt lat="43.760571" lon="4.925402">
        <ele>121.15702</ele>
        <time>2021-06-30T17:10:46Z</time>
      </trkpt>
      <trkpt lat="43.760715" lon="4.925414">
        <ele>122.64374</ele>
        <time>2021-06-30T17:10:47Z</time>
      </trkpt>
      <trkpt lat="43.760715" lon="4.925414">
        <ele>122.13763</ele>
        <time>2021-06-30T17:10:48Z</time>
      </trkpt>
      <trkpt lat="43.760914" lon="4.925431">
        <ele>119.44165</ele>
        <time>2021-06-30T17:10:49Z</time>
      </trkpt>
      <trkpt lat="43.761154" lon="4.925451">
        <ele>118.06464</ele>
        <time>2021-06-30T17:10:50Z</time>
      </trkpt>
      <trkpt lat="43.761372" lon="4.925469">
        <ele>117.30444</ele>
        <time>2021-06-30T17:10:51Z</time>
      </trkpt>
      <trkpt lat="43.761597" lon="4.925488">
        <ele>115.44897</ele>
        <time>2021-06-30T17:10:52Z</time>
      </trkpt>
      <trkpt lat="43.761806" lon="4.925505">
        <ele>113.66180</ele>
        <time>2021-06-30T17:10:53Z</time>
      </trkpt>
      <trkpt lat="43.761993" lon="4.925521">
        <ele>113.01404</ele>
        <time>2021-06-30T17:10:54Z</time>
      </trkpt>
      <trkpt lat="43.762192" lon="4.925538">
        <ele>112.07190</ele>
        <time>2021-06-30T17:10:55Z</time>
      </trkpt>
      <trkpt lat="43.762424" lon="4.925557">
        <ele>111.46466</ele>
        <time>2021-06-30T17:10:56Z</time>
      </trkpt>
      <trkpt lat="43.762611" lon="4.925572">
        <ele>110.15436</ele>
        <time>2021-06-30T17:10:57Z</time>
      </trkpt>
      <trkpt lat="43.762794" lon="4.925588">
        <ele>109.85895</ele>
        <time>2021-06-30T17:10:58Z</time>
      </trkpt>
      <trkpt lat="43.762997" lon="4.925605">
        <ele>109.40125</ele>
        <time>2021-06-30T17:10:59Z</time>
      </trkpt>
      <trkpt lat="43.763172" lon="4.925619">
        <ele>107.95251</ele>
        <time>2021-06-30T17:11:00Z</time>
      </trkpt>
      <trkpt lat="43.763447" lon="4.925641">
        <ele>107.26331</ele>
        <time>2021-06-30T17:11:01Z</time>
      </trkpt>
      <trkpt lat="43.763680" lon="4.925647">
        <ele>106.12195</ele>
        <time>2021-06-30T17:11:02Z</time>
      </trkpt>
      <trkpt lat="43.763844" lon="4.925652">
        <ele>104.66040</ele>
        <time>2021-06-30T17:11:03Z</time>
      </trkpt>
      <trkpt lat="43.763844" lon="4.925652">
        <ele>103.76233</ele>
        <time>2021-06-30T17:11:04Z</time>
      </trkpt>
      <trkpt lat="43.764053" lon="4.925669">
        <ele>105.60659</ele>
        <time>2021-06-30T17:11:05Z</time>
      </trkpt>
      <trkpt lat="43.764252" lon="4.925690">
        <ele>104.32349</ele>
        <time>2021-06-30T17:11:06Z</time>
      </trkpt>
      <trkpt lat="43.764423" lon="4.925707">
        <ele>104.08289</ele>
        <time>2021-06-30T17:11:07Z</time>
      </trkpt>
      <trkpt lat="43.764610" lon="4.925735">
        <ele>103.25040</ele>
        <time>2021-06-30T17:11:08Z</time>
      </trkpt>
      <trkpt lat="43.764786" lon="4.925761">
        <ele>103.22932</ele>
        <time>2021-06-30T17:11:09Z</time>
      </trkpt>
      <trkpt lat="43.764996" lon="4.925798">
        <ele>102.09746</ele>
        <time>2021-06-30T17:11:10Z</time>
      </trkpt>
      <trkpt lat="43.765167" lon="4.925839">
        <ele>101.83829</ele>
        <time>2021-06-30T17:11:11Z</time>
      </trkpt>
      <trkpt lat="43.765350" lon="4.925882">
        <ele>101.58350</ele>
        <time>2021-06-30T17:11:12Z</time>
      </trkpt>
      <trkpt lat="43.765537" lon="4.925926">
        <ele>101.01080</ele>
        <time>2021-06-30T17:11:13Z</time>
      </trkpt>
      <trkpt lat="43.765724" lon="4.925970">
        <ele>100.15973</ele>
        <time>2021-06-30T17:11:14Z</time>
      </trkpt>
      <trkpt lat="43.765923" lon="4.926017">
        <ele>99.98541</ele>
        <time>2021-06-30T17:11:15Z</time>
      </trkpt>
      <trkpt lat="43.765923" lon="4.926017">
        <ele>99.04993</ele>
        <time>2021-06-30T17:11:16Z</time>
      </trkpt>
      <trkpt lat="43.766117" lon="4.926062">
        <ele>98.47137</ele>
        <time>2021-06-30T17:11:17Z</time>
      </trkpt>
      <trkpt lat="43.766323" lon="4.926110">
        <ele>97.93353</ele>
        <time>2021-06-30T17:11:18Z</time>
      </trkpt>
      <trkpt lat="43.766487" lon="4.926148">
        <ele>96.76764</ele>
        <time>2021-06-30T17:11:19Z</time>
      </trkpt>
      <trkpt lat="43.766647" lon="4.926188">
        <ele>97.38715</ele>
        <time>2021-06-30T17:11:20Z</time>
      </trkpt>
      <trkpt lat="43.766766" lon="4.926230">
        <ele>96.94440</ele>
        <time>2021-06-30T17:11:21Z</time>
      </trkpt>
      <trkpt lat="43.766865" lon="4.926266">
        <ele>95.80023</ele>
        <time>2021-06-30T17:11:22Z</time>
      </trkpt>
      <trkpt lat="43.767052" lon="4.926335">
        <ele>94.74261</ele>
        <time>2021-06-30T17:11:23Z</time>
      </trkpt>
      <trkpt lat="43.767208" lon="4.926445">
        <ele>93.80981</ele>
        <time>2021-06-30T17:11:24Z</time>
      </trkpt>
      <trkpt lat="43.767208" lon="4.926445">
        <ele>92.58594</ele>
        <time>2021-06-30T17:11:25Z</time>
      </trkpt>
      <trkpt lat="43.767319" lon="4.926585">
        <ele>91.25061</ele>
        <time>2021-06-30T17:11:26Z</time>
      </trkpt>
      <trkpt lat="43.767437" lon="4.926768">
        <ele>91.45917</ele>
        <time>2021-06-30T17:11:27Z</time>
      </trkpt>
      <trkpt lat="43.767551" lon="4.926959">
        <ele>90.92084</ele>
        <time>2021-06-30T17:11:28Z</time>
      </trkpt>
      <trkpt lat="43.767658" lon="4.927126">
        <ele>90.44617</ele>
        <time>2021-06-30T17:11:29Z</time>
      </trkpt>
      <trkpt lat="43.767761" lon="4.927280">
        <ele>89.80115</ele>
        <time>2021-06-30T17:11:30Z</time>
      </trkpt>
      <trkpt lat="43.767868" lon="4.927435">
        <ele>90.19640</ele>
        <time>2021-06-30T17:11:31Z</time>
      </trkpt>
      <trkpt lat="43.767979" lon="4.927597">
        <ele>90.19385</ele>
        <time>2021-06-30T17:11:32Z</time>
      </trkpt>
      <trkpt lat="43.768101" lon="4.927752">
        <ele>90.10397</ele>
        <time>2021-06-30T17:11:33Z</time>
      </trkpt>
      <trkpt lat="43.768227" lon="4.927919">
        <ele>89.95434</ele>
        <time>2021-06-30T17:11:34Z</time>
      </trkpt>
      <trkpt lat="43.768364" lon="4.928090">
        <ele>89.03346</ele>
        <time>2021-06-30T17:11:35Z</time>
      </trkpt>
      <trkpt lat="43.768501" lon="4.928216">
        <ele>88.86290</ele>
        <time>2021-06-30T17:11:36Z</time>
      </trkpt>
      <trkpt lat="43.768669" lon="4.928346">
        <ele>88.75438</ele>
        <time>2021-06-30T17:11:37Z</time>
      </trkpt>
      <trkpt lat="43.768856" lon="4.928464">
        <ele>88.61206</ele>
        <time>2021-06-30T17:11:38Z</time>
      </trkpt>
      <trkpt lat="43.769035" lon="4.928565">
        <ele>88.52396</ele>
        <time>2021-06-30T17:11:39Z</time>
      </trkpt>
      <trkpt lat="43.769238" lon="4.928676">
        <ele>87.38713</ele>
        <time>2021-06-30T17:11:40Z</time>
      </trkpt>
      <trkpt lat="43.769386" lon="4.928759">
        <ele>87.47991</ele>
        <time>2021-06-30T17:11:41Z</time>
      </trkpt>
      <trkpt lat="43.769386" lon="4.928759">
        <ele>86.48998</ele>
        <time>2021-06-30T17:11:42Z</time>
      </trkpt>
      <trkpt lat="43.769562" lon="4.928858">
        <ele>85.83842</ele>
        <time>2021-06-30T17:11:43Z</time>
      </trkpt>
      <trkpt lat="43.769691" lon="4.928954">
        <ele>85.61036</ele>
        <time>2021-06-30T17:11:44Z</time>
      </trkpt>
      <trkpt lat="43.769867" lon="4.929119">
        <ele>84.86484</ele>
        <time>2021-06-30T17:11:45Z</time>
      </trkpt>
      <trkpt lat="43.770042" lon="4.929321">
        <ele>84.08746</ele>
        <time>2021-06-30T17:11:46Z</time>
      </trkpt>
      <trkpt lat="43.770187" lon="4.929497">
        <ele>84.81576</ele>
        <time>2021-06-30T17:11:47Z</time>
      </trkpt>
      <trkpt lat="43.770336" lon="4.929673">
        <ele>84.43906</ele>
        <time>2021-06-30T17:11:48Z</time>
      </trkpt>
      <trkpt lat="43.770477" lon="4.929819">
        <ele>83.72560</ele>
        <time>2021-06-30T17:11:49Z</time>
      </trkpt>
      <trkpt lat="43.770599" lon="4.929936">
        <ele>83.87558</ele>
        <time>2021-06-30T17:11:50Z</time>
      </trkpt>
      <trkpt lat="43.770737" lon="4.930068">
        <ele>83.77203</ele>
        <time>2021-06-30T17:11:51Z</time>
      </trkpt>
      <trkpt lat="43.770885" lon="4.930198">
        <ele>82.07938</ele>
        <time>2021-06-30T17:11:52Z</time>
      </trkpt>
      <trkpt lat="43.771049" lon="4.930305">
        <ele>81.87498</ele>
        <time>2021-06-30T17:11:53Z</time>
      </trkpt>
      <trkpt lat="43.771255" lon="4.930397">
        <ele>81.96326</ele>
        <time>2021-06-30T17:11:54Z</time>
      </trkpt>
      <trkpt lat="43.771255" lon="4.930397">
        <ele>81.63800</ele>
        <time>2021-06-30T17:11:55Z</time>
      </trkpt>
      <trkpt lat="43.771503" lon="4.930425">
        <ele>81.46857</ele>
        <time>2021-06-30T17:11:56Z</time>
      </trkpt>
      <trkpt lat="43.771709" lon="4.930448">
        <ele>81.34088</ele>
        <time>2021-06-30T17:11:57Z</time>
      </trkpt>
      <trkpt lat="43.771931" lon="4.930471">
        <ele>81.36975</ele>
        <time>2021-06-30T17:11:58Z</time>
      </trkpt>
      <trkpt lat="43.772110" lon="4.930488">
        <ele>79.18971</ele>
        <time>2021-06-30T17:11:59Z</time>
      </trkpt>
      <trkpt lat="43.772285" lon="4.930505">
        <ele>79.55256</ele>
        <time>2021-06-30T17:12:00Z</time>
      </trkpt>
      <trkpt lat="43.772442" lon="4.930520">
        <ele>79.16730</ele>
        <time>2021-06-30T17:12:01Z</time>
      </trkpt>
      <trkpt lat="43.772610" lon="4.930538">
        <ele>79.05246</ele>
        <time>2021-06-30T17:12:02Z</time>
      </trkpt>
      <trkpt lat="43.772751" lon="4.930553">
        <ele>79.16914</ele>
        <time>2021-06-30T17:12:03Z</time>
      </trkpt>
      <trkpt lat="43.772961" lon="4.930575">
        <ele>79.18926</ele>
        <time>2021-06-30T17:12:04Z</time>
      </trkpt>
      <trkpt lat="43.773117" lon="4.930592">
        <ele>78.48464</ele>
        <time>2021-06-30T17:12:05Z</time>
      </trkpt>
      <trkpt lat="43.773296" lon="4.930609">
        <ele>78.71954</ele>
        <time>2021-06-30T17:12:06Z</time>
      </trkpt>
      <trkpt lat="43.773487" lon="4.930628">
        <ele>78.44489</ele>
        <time>2021-06-30T17:12:07Z</time>
      </trkpt>
      <trkpt lat="43.773716" lon="4.930651">
        <ele>78.10919</ele>
        <time>2021-06-30T17:12:08Z</time>
      </trkpt>
      <trkpt lat="43.773716" lon="4.930651">
        <ele>76.31171</ele>
        <time>2021-06-30T17:12:09Z</time>
      </trkpt>
      <trkpt lat="43.774040" lon="4.930683">
        <ele>75.35712</ele>
        <time>2021-06-30T17:12:10Z</time>
      </trkpt>
      <trkpt lat="43.774239" lon="4.930703">
        <ele>74.20044</ele>
        <time>2021-06-30T17:12:11Z</time>
      </trkpt>
      <trkpt lat="43.774418" lon="4.930720">
        <ele>73.84534</ele>
        <time>2021-06-30T17:12:12Z</time>
      </trkpt>
      <trkpt lat="43.774601" lon="4.930738">
        <ele>75.29420</ele>
        <time>2021-06-30T17:12:13Z</time>
      </trkpt>
      <trkpt lat="43.774773" lon="4.930755">
        <ele>74.41713</ele>
        <time>2021-06-30T17:12:14Z</time>
      </trkpt>
      <trkpt lat="43.774937" lon="4.930772">
        <ele>73.84921</ele>
        <time>2021-06-30T17:12:15Z</time>
      </trkpt>
      <trkpt lat="43.775108" lon="4.930789">
        <ele>74.09956</ele>
        <time>2021-06-30T17:12:16Z</time>
      </trkpt>
      <trkpt lat="43.775299" lon="4.930808">
        <ele>73.56053</ele>
        <time>2021-06-30T17:12:17Z</time>
      </trkpt>
      <trkpt lat="43.775455" lon="4.930820">
        <ele>73.83592</ele>
        <time>2021-06-30T17:12:18Z</time>
      </trkpt>
      <trkpt lat="43.775635" lon="4.930832">
        <ele>73.45214</ele>
        <time>2021-06-30T17:12:19Z</time>
      </trkpt>
      <trkpt lat="43.775776" lon="4.930842">
        <ele>73.22494</ele>
        <time>2021-06-30T17:12:20Z</time>
      </trkpt>
      <trkpt lat="43.775906" lon="4.930851">
        <ele>72.36279</ele>
        <time>2021-06-30T17:12:21Z</time>
      </trkpt>
      <trkpt lat="43.776039" lon="4.930860">
        <ele>72.38474</ele>
        <time>2021-06-30T17:12:22Z</time>
      </trkpt>
      <trkpt lat="43.776039" lon="4.930860">
        <ele>72.23797</ele>
        <time>2021-06-30T17:12:23Z</time>
      </trkpt>
      <trkpt lat="43.776176" lon="4.930864">
        <ele>71.82209</ele>
        <time>2021-06-30T17:12:24Z</time>
      </trkpt>
      <trkpt lat="43.776306" lon="4.930867">
        <ele>71.25311</ele>
        <time>2021-06-30T17:12:25Z</time>
      </trkpt>
      <trkpt lat="43.776417" lon="4.930870">
        <ele>71.10588</ele>
        <time>2021-06-30T17:12:26Z</time>
      </trkpt>
      <trkpt lat="43.776451" lon="4.930871">
        <ele>71.46203</ele>
        <time>2021-06-30T17:12:27Z</time>
      </trkpt>
      <trkpt lat="43.776478" lon="4.930872">
        <ele>71.72723</ele>
        <time>2021-06-30T17:12:28Z</time>
      </trkpt>
      <trkpt lat="43.776520" lon="4.930873">
        <ele>71.77979</ele>
        <time>2021-06-30T17:12:29Z</time>
      </trkpt>
      <trkpt lat="43.776573" lon="4.930872">
        <ele>71.40613</ele>
        <time>2021-06-30T17:12:30Z</time>
      </trkpt>
      <trkpt lat="43.776672" lon="4.930833">
        <ele>71.29584</ele>
        <time>2021-06-30T17:12:31Z</time>
      </trkpt>
      <trkpt lat="43.776794" lon="4.930730">
        <ele>71.44989</ele>
        <time>2021-06-30T17:12:32Z</time>
      </trkpt>
      <trkpt lat="43.776794" lon="4.930730">
        <ele>71.51208</ele>
        <time>2021-06-30T17:12:33Z</time>
      </trkpt>
      <trkpt lat="43.776917" lon="4.930592">
        <ele>71.57851</ele>
        <time>2021-06-30T17:12:34Z</time>
      </trkpt>
      <trkpt lat="43.777023" lon="4.930460">
        <ele>72.01004</ele>
        <time>2021-06-30T17:12:35Z</time>
      </trkpt>
      <trkpt lat="43.777111" lon="4.930316">
        <ele>71.58595</ele>
        <time>2021-06-30T17:12:36Z</time>
      </trkpt>
      <trkpt lat="43.777241" lon="4.930094">
        <ele>72.15744</ele>
        <time>2021-06-30T17:12:37Z</time>
      </trkpt>
      <trkpt lat="43.777348" lon="4.929903">
        <ele>73.12744</ele>
        <time>2021-06-30T17:12:38Z</time>
      </trkpt>
      <trkpt lat="43.777485" lon="4.929665">
        <ele>72.02173</ele>
        <time>2021-06-30T17:12:39Z</time>
      </trkpt>
      <trkpt lat="43.777721" lon="4.929316">
        <ele>71.32471</ele>
        <time>2021-06-30T17:12:40Z</time>
      </trkpt>
      <trkpt lat="43.777935" lon="4.928999">
        <ele>70.54633</ele>
        <time>2021-06-30T17:12:41Z</time>
      </trkpt>
      <trkpt lat="43.778118" lon="4.928722">
        <ele>70.31348</ele>
        <time>2021-06-30T17:12:42Z</time>
      </trkpt>
      <trkpt lat="43.778324" lon="4.928424">
        <ele>70.42554</ele>
        <time>2021-06-30T17:12:43Z</time>
      </trkpt>
      <trkpt lat="43.778496" lon="4.928204">
        <ele>69.95886</ele>
        <time>2021-06-30T17:12:44Z</time>
      </trkpt>
      <trkpt lat="43.778648" lon="4.928015">
        <ele>70.02094</ele>
        <time>2021-06-30T17:12:45Z</time>
      </trkpt>
      <trkpt lat="43.778648" lon="4.928015">
        <ele>70.02258</ele>
        <time>2021-06-30T17:12:46Z</time>
      </trkpt>
      <trkpt lat="43.778778" lon="4.927848">
        <ele>69.61652</ele>
        <time>2021-06-30T17:12:47Z</time>
      </trkpt>
      <trkpt lat="43.778908" lon="4.927686">
        <ele>69.97064</ele>
        <time>2021-06-30T17:12:48Z</time>
      </trkpt>
      <trkpt lat="43.779083" lon="4.927549">
        <ele>69.47430</ele>
        <time>2021-06-30T17:12:49Z</time>
      </trkpt>
      <trkpt lat="43.779316" lon="4.927426">
        <ele>70.07751</ele>
        <time>2021-06-30T17:12:50Z</time>
      </trkpt>
      <trkpt lat="43.779564" lon="4.927295">
        <ele>69.71790</ele>
        <time>2021-06-30T17:12:51Z</time>
      </trkpt>
      <trkpt lat="43.779804" lon="4.927161">
        <ele>68.59528</ele>
        <time>2021-06-30T17:12:52Z</time>
      </trkpt>
      <trkpt lat="43.779995" lon="4.927051">
        <ele>68.32727</ele>
        <time>2021-06-30T17:12:53Z</time>
      </trkpt>
      <trkpt lat="43.780201" lon="4.926932">
        <ele>68.15485</ele>
        <time>2021-06-30T17:12:54Z</time>
      </trkpt>
      <trkpt lat="43.780376" lon="4.926832">
        <ele>68.03967</ele>
        <time>2021-06-30T17:12:55Z</time>
      </trkpt>
      <trkpt lat="43.780571" lon="4.926768">
        <ele>67.67938</ele>
        <time>2021-06-30T17:12:56Z</time>
      </trkpt>
      <trkpt lat="43.780773" lon="4.926804">
        <ele>67.35059</ele>
        <time>2021-06-30T17:12:57Z</time>
      </trkpt>
      <trkpt lat="43.780949" lon="4.926837">
        <ele>65.78326</ele>
        <time>2021-06-30T17:12:58Z</time>
      </trkpt>
      <trkpt lat="43.780949" lon="4.926837">
        <ele>66.65826</ele>
        <time>2021-06-30T17:12:59Z</time>
      </trkpt>
      <trkpt lat="43.781174" lon="4.926880">
        <ele>66.51666</ele>
        <time>2021-06-30T17:13:00Z</time>
      </trkpt>
      <trkpt lat="43.781425" lon="4.926929">
        <ele>66.33698</ele>
        <time>2021-06-30T17:13:01Z</time>
      </trkpt>
      <trkpt lat="43.781696" lon="4.926981">
        <ele>65.54962</ele>
        <time>2021-06-30T17:13:02Z</time>
      </trkpt>
      <trkpt lat="43.781952" lon="4.927006">
        <ele>64.81830</ele>
        <time>2021-06-30T17:13:03Z</time>
      </trkpt>
      <trkpt lat="43.782211" lon="4.927032">
        <ele>63.07135</ele>
        <time>2021-06-30T17:13:04Z</time>
      </trkpt>
      <trkpt lat="43.782444" lon="4.927055">
        <ele>63.19281</ele>
        <time>2021-06-30T17:13:05Z</time>
      </trkpt>
      <trkpt lat="43.782642" lon="4.927075">
        <ele>63.76538</ele>
        <time>2021-06-30T17:13:06Z</time>
      </trkpt>
      <trkpt lat="43.782871" lon="4.927071">
        <ele>63.29419</ele>
        <time>2021-06-30T17:13:07Z</time>
      </trkpt>
      <trkpt lat="43.783001" lon="4.927055">
        <ele>62.62488</ele>
        <time>2021-06-30T17:13:08Z</time>
      </trkpt>
      <trkpt lat="43.783226" lon="4.927021">
        <ele>61.77472</ele>
        <time>2021-06-30T17:13:09Z</time>
      </trkpt>
      <trkpt lat="43.783470" lon="4.926985">
        <ele>61.37573</ele>
        <time>2021-06-30T17:13:10Z</time>
      </trkpt>
      <trkpt lat="43.783737" lon="4.926945">
        <ele>60.08655</ele>
        <time>2021-06-30T17:13:11Z</time>
      </trkpt>
      <trkpt lat="43.783985" lon="4.926908">
        <ele>60.02338</ele>
        <time>2021-06-30T17:13:12Z</time>
      </trkpt>
      <trkpt lat="43.783985" lon="4.926908">
        <ele>59.72839</ele>
        <time>2021-06-30T17:13:13Z</time>
      </trkpt>
      <trkpt lat="43.784252" lon="4.926869">
        <ele>59.81091</ele>
        <time>2021-06-30T17:13:14Z</time>
      </trkpt>
      <trkpt lat="43.784454" lon="4.926837">
        <ele>59.89337</ele>
        <time>2021-06-30T17:13:15Z</time>
      </trkpt>
      <trkpt lat="43.784634" lon="4.926800">
        <ele>60.33412</ele>
        <time>2021-06-30T17:13:16Z</time>
      </trkpt>
      <trkpt lat="43.784779" lon="4.926770">
        <ele>59.92178</ele>
        <time>2021-06-30T17:13:17Z</time>
      </trkpt>
      <trkpt lat="43.784908" lon="4.926743">
        <ele>59.29248</ele>
        <time>2021-06-30T17:13:18Z</time>
      </trkpt>
      <trkpt lat="43.785042" lon="4.926715">
        <ele>58.25913</ele>
        <time>2021-06-30T17:13:19Z</time>
      </trkpt>
      <trkpt lat="43.785191" lon="4.926681">
        <ele>58.15422</ele>
        <time>2021-06-30T17:13:20Z</time>
      </trkpt>
      <trkpt lat="43.785206" lon="4.926677">
        <ele>57.87801</ele>
        <time>2021-06-30T17:13:21Z</time>
      </trkpt>
      <trkpt lat="43.785255" lon="4.926659">
        <ele>57.65364</ele>
        <time>2021-06-30T17:13:22Z</time>
      </trkpt>
      <trkpt lat="43.785275" lon="4.926651">
        <ele>57.28728</ele>
        <time>2021-06-30T17:13:23Z</time>
      </trkpt>
      <trkpt lat="43.785316" lon="4.926630">
        <ele>57.32466</ele>
        <time>2021-06-30T17:13:24Z</time>
      </trkpt>
      <trkpt lat="43.785316" lon="4.926630">
        <ele>57.30013</ele>
        <time>2021-06-30T17:13:25Z</time>
      </trkpt>
      <trkpt lat="43.785316" lon="4.926630">
        <ele>57.53553</ele>
        <time>2021-06-30T17:13:26Z</time>
      </trkpt>
      <trkpt lat="43.785316" lon="4.926630">
        <ele>57.06646</ele>
        <time>2021-06-30T17:13:27Z</time>
      </trkpt>
      <trkpt lat="43.785316" lon="4.926630">
        <ele>57.31941</ele>
        <time>2021-06-30T17:13:28Z</time>
      </trkpt>
      <trkpt lat="43.785316" lon="4.926630">
        <ele>57.11630</ele>
        <time>2021-06-30T17:13:29Z</time>
      </trkpt>
      <trkpt lat="43.785286" lon="4.926785">
        <ele>57.80652</ele>
        <time>2021-06-30T17:13:30Z</time>
      </trkpt>
      <trkpt lat="43.785290" lon="4.926839">
        <ele>57.99750</ele>
        <time>2021-06-30T17:13:31Z</time>
      </trkpt>
      <trkpt lat="43.785290" lon="4.927088">
        <ele>58.49731</ele>
        <time>2021-06-30T17:13:32Z</time>
      </trkpt>
      <trkpt lat="43.785294" lon="4.927339">
        <ele>57.80636</ele>
        <time>2021-06-30T17:13:33Z</time>
      </trkpt>
      <trkpt lat="43.785297" lon="4.927558">
        <ele>58.72679</ele>
        <time>2021-06-30T17:13:34Z</time>
      </trkpt>
      <trkpt lat="43.785301" lon="4.927847">
        <ele>59.44556</ele>
        <time>2021-06-30T17:13:35Z</time>
      </trkpt>
      <trkpt lat="43.785309" lon="4.928127">
        <ele>59.82804</ele>
        <time>2021-06-30T17:13:36Z</time>
      </trkpt>
      <trkpt lat="43.785313" lon="4.928410">
        <ele>59.66064</ele>
        <time>2021-06-30T17:13:37Z</time>
      </trkpt>
      <trkpt lat="43.785313" lon="4.928410">
        <ele>59.85382</ele>
        <time>2021-06-30T17:13:38Z</time>
      </trkpt>
      <trkpt lat="43.785316" lon="4.928696">
        <ele>60.22644</ele>
        <time>2021-06-30T17:13:39Z</time>
      </trkpt>
      <trkpt lat="43.785324" lon="4.929102">
        <ele>59.57446</ele>
        <time>2021-06-30T17:13:40Z</time>
      </trkpt>
      <trkpt lat="43.785336" lon="4.929573">
        <ele>59.44617</ele>
        <time>2021-06-30T17:13:41Z</time>
      </trkpt>
      <trkpt lat="43.785339" lon="4.929957">
        <ele>57.99847</ele>
        <time>2021-06-30T17:13:42Z</time>
      </trkpt>
      <trkpt lat="43.785347" lon="4.930273">
        <ele>58.11505</ele>
        <time>2021-06-30T17:13:43Z</time>
      </trkpt>
      <trkpt lat="43.785355" lon="4.930582">
        <ele>57.82709</ele>
        <time>2021-06-30T17:13:44Z</time>
      </trkpt>
      <trkpt lat="43.785370" lon="4.930923">
        <ele>57.15149</ele>
        <time>2021-06-30T17:13:45Z</time>
      </trkpt>
      <trkpt lat="43.785404" lon="4.931222">
        <ele>56.76953</ele>
        <time>2021-06-30T17:13:46Z</time>
      </trkpt>
      <trkpt lat="43.785450" lon="4.931583">
        <ele>56.60736</ele>
        <time>2021-06-30T17:13:47Z</time>
      </trkpt>
      <trkpt lat="43.785488" lon="4.931886">
        <ele>56.71375</ele>
        <time>2021-06-30T17:13:48Z</time>
      </trkpt>
      <trkpt lat="43.785522" lon="4.932175">
        <ele>55.89679</ele>
        <time>2021-06-30T17:13:49Z</time>
      </trkpt>
      <trkpt lat="43.785557" lon="4.932427">
        <ele>56.92566</ele>
        <time>2021-06-30T17:13:50Z</time>
      </trkpt>
      <trkpt lat="43.785583" lon="4.932656">
        <ele>57.32971</ele>
        <time>2021-06-30T17:13:51Z</time>
      </trkpt>
      <trkpt lat="43.785622" lon="4.932942">
        <ele>56.71796</ele>
        <time>2021-06-30T17:13:52Z</time>
      </trkpt>
      <trkpt lat="43.785622" lon="4.932942">
        <ele>57.33496</ele>
        <time>2021-06-30T17:13:53Z</time>
      </trkpt>
      <trkpt lat="43.785660" lon="4.933233">
        <ele>56.78802</ele>
        <time>2021-06-30T17:13:54Z</time>
      </trkpt>
      <trkpt lat="43.785698" lon="4.933531">
        <ele>56.66901</ele>
        <time>2021-06-30T17:13:55Z</time>
      </trkpt>
      <trkpt lat="43.785736" lon="4.933831">
        <ele>57.06551</ele>
        <time>2021-06-30T17:13:56Z</time>
      </trkpt>
      <trkpt lat="43.785767" lon="4.934069">
        <ele>57.18952</ele>
        <time>2021-06-30T17:13:57Z</time>
      </trkpt>
      <trkpt lat="43.785801" lon="4.934349">
        <ele>57.18011</ele>
        <time>2021-06-30T17:13:58Z</time>
      </trkpt>
      <trkpt lat="43.785831" lon="4.934590">
        <ele>56.58728</ele>
        <time>2021-06-30T17:13:59Z</time>
      </trkpt>
      <trkpt lat="43.785870" lon="4.934904">
        <ele>56.29156</ele>
        <time>2021-06-30T17:14:00Z</time>
      </trkpt>
      <trkpt lat="43.785912" lon="4.935231">
        <ele>56.81915</ele>
        <time>2021-06-30T17:14:01Z</time>
      </trkpt>
      <trkpt lat="43.785912" lon="4.935231">
        <ele>56.00336</ele>
        <time>2021-06-30T17:14:02Z</time>
      </trkpt>
      <trkpt lat="43.785950" lon="4.935542">
        <ele>56.91469</ele>
        <time>2021-06-30T17:14:03Z</time>
      </trkpt>
      <trkpt lat="43.785980" lon="4.935785">
        <ele>56.81528</ele>
        <time>2021-06-30T17:14:04Z</time>
      </trkpt>
      <trkpt lat="43.786007" lon="4.936019">
        <ele>56.30096</ele>
        <time>2021-06-30T17:14:05Z</time>
      </trkpt>
      <trkpt lat="43.786045" lon="4.936321">
        <ele>56.28288</ele>
        <time>2021-06-30T17:14:06Z</time>
      </trkpt>
      <trkpt lat="43.786076" lon="4.936574">
        <ele>56.50943</ele>
        <time>2021-06-30T17:14:07Z</time>
      </trkpt>
      <trkpt lat="43.786110" lon="4.936830">
        <ele>56.69762</ele>
        <time>2021-06-30T17:14:08Z</time>
      </trkpt>
      <trkpt lat="43.786140" lon="4.937080">
        <ele>56.25420</ele>
        <time>2021-06-30T17:14:09Z</time>
      </trkpt>
      <trkpt lat="43.786175" lon="4.937352">
        <ele>56.48957</ele>
        <time>2021-06-30T17:14:10Z</time>
      </trkpt>
      <trkpt lat="43.786209" lon="4.937625">
        <ele>56.15399</ele>
        <time>2021-06-30T17:14:11Z</time>
      </trkpt>
      <trkpt lat="43.786209" lon="4.937625">
        <ele>56.05870</ele>
        <time>2021-06-30T17:14:12Z</time>
      </trkpt>
      <trkpt lat="43.786240" lon="4.937889">
        <ele>55.78118</ele>
        <time>2021-06-30T17:14:13Z</time>
      </trkpt>
      <trkpt lat="43.786270" lon="4.938126">
        <ele>56.32098</ele>
        <time>2021-06-30T17:14:14Z</time>
      </trkpt>
      <trkpt lat="43.786301" lon="4.938365">
        <ele>56.28210</ele>
        <time>2021-06-30T17:14:15Z</time>
      </trkpt>
      <trkpt lat="43.786331" lon="4.938616">
        <ele>55.87911</ele>
        <time>2021-06-30T17:14:16Z</time>
      </trkpt>
      <trkpt lat="43.786366" lon="4.938878">
        <ele>56.14331</ele>
        <time>2021-06-30T17:14:17Z</time>
      </trkpt>
      <trkpt lat="43.786396" lon="4.939126">
        <ele>56.23215</ele>
        <time>2021-06-30T17:14:18Z</time>
      </trkpt>
      <trkpt lat="43.786423" lon="4.939353">
        <ele>56.73708</ele>
        <time>2021-06-30T17:14:19Z</time>
      </trkpt>
      <trkpt lat="43.786457" lon="4.939626">
        <ele>56.07462</ele>
        <time>2021-06-30T17:14:20Z</time>
      </trkpt>
      <trkpt lat="43.786488" lon="4.939865">
        <ele>55.94409</ele>
        <time>2021-06-30T17:14:21Z</time>
      </trkpt>
      <trkpt lat="43.786526" lon="4.940171">
        <ele>56.56134</ele>
        <time>2021-06-30T17:14:22Z</time>
      </trkpt>
      <trkpt lat="43.786560" lon="4.940425">
        <ele>56.60406</ele>
        <time>2021-06-30T17:14:23Z</time>
      </trkpt>
      <trkpt lat="43.786591" lon="4.940691">
        <ele>56.37634</ele>
        <time>2021-06-30T17:14:24Z</time>
      </trkpt>
      <trkpt lat="43.786629" lon="4.940966">
        <ele>56.09692</ele>
        <time>2021-06-30T17:14:25Z</time>
      </trkpt>
      <trkpt lat="43.786659" lon="4.941222">
        <ele>56.58679</ele>
        <time>2021-06-30T17:14:26Z</time>
      </trkpt>
      <trkpt lat="43.786659" lon="4.941222">
        <ele>57.16797</ele>
        <time>2021-06-30T17:14:27Z</time>
      </trkpt>
      <trkpt lat="43.786697" lon="4.941535">
        <ele>56.60962</ele>
        <time>2021-06-30T17:14:28Z</time>
      </trkpt>
      <trkpt lat="43.786736" lon="4.941828">
        <ele>58.22076</ele>
        <time>2021-06-30T17:14:29Z</time>
      </trkpt>
      <trkpt lat="43.786766" lon="4.942086">
        <ele>58.43073</ele>
        <time>2021-06-30T17:14:30Z</time>
      </trkpt>
      <trkpt lat="43.786804" lon="4.942396">
        <ele>58.51410</ele>
        <time>2021-06-30T17:14:31Z</time>
      </trkpt>
      <trkpt lat="43.786842" lon="4.942711">
        <ele>58.04346</ele>
        <time>2021-06-30T17:14:32Z</time>
      </trkpt>
      <trkpt lat="43.786873" lon="4.942955">
        <ele>58.43292</ele>
        <time>2021-06-30T17:14:33Z</time>
      </trkpt>
      <trkpt lat="43.786907" lon="4.943232">
        <ele>56.11653</ele>
        <time>2021-06-30T17:14:34Z</time>
      </trkpt>
      <trkpt lat="43.786938" lon="4.943465">
        <ele>56.05749</ele>
        <time>2021-06-30T17:14:35Z</time>
      </trkpt>
      <trkpt lat="43.786964" lon="4.943702">
        <ele>56.00830</ele>
        <time>2021-06-30T17:14:36Z</time>
      </trkpt>
      <trkpt lat="43.786999" lon="4.943955">
        <ele>56.32138</ele>
        <time>2021-06-30T17:14:37Z</time>
      </trkpt>
      <trkpt lat="43.787025" lon="4.944187">
        <ele>56.13086</ele>
        <time>2021-06-30T17:14:38Z</time>
      </trkpt>
      <trkpt lat="43.787025" lon="4.944187">
        <ele>56.16225</ele>
        <time>2021-06-30T17:14:39Z</time>
      </trkpt>
      <trkpt lat="43.787060" lon="4.944448">
        <ele>55.87422</ele>
        <time>2021-06-30T17:14:40Z</time>
      </trkpt>
      <trkpt lat="43.787086" lon="4.944690">
        <ele>55.72924</ele>
        <time>2021-06-30T17:14:41Z</time>
      </trkpt>
      <trkpt lat="43.787125" lon="4.944991">
        <ele>56.09925</ele>
        <time>2021-06-30T17:14:42Z</time>
      </trkpt>
      <trkpt lat="43.787148" lon="4.945182">
        <ele>56.18476</ele>
        <time>2021-06-30T17:14:43Z</time>
      </trkpt>
      <trkpt lat="43.787178" lon="4.945427">
        <ele>56.66086</ele>
        <time>2021-06-30T17:14:44Z</time>
      </trkpt>
      <trkpt lat="43.787209" lon="4.945675">
        <ele>56.55534</ele>
        <time>2021-06-30T17:14:45Z</time>
      </trkpt>
      <trkpt lat="43.787243" lon="4.945932">
        <ele>56.96750</ele>
        <time>2021-06-30T17:14:46Z</time>
      </trkpt>
      <trkpt lat="43.787277" lon="4.946216">
        <ele>54.38843</ele>
        <time>2021-06-30T17:14:47Z</time>
      </trkpt>
      <trkpt lat="43.787308" lon="4.946489">
        <ele>54.13324</ele>
        <time>2021-06-30T17:14:48Z</time>
      </trkpt>
      <trkpt lat="43.787346" lon="4.946782">
        <ele>53.97906</ele>
        <time>2021-06-30T17:14:49Z</time>
      </trkpt>
      <trkpt lat="43.787384" lon="4.947082">
        <ele>54.34888</ele>
        <time>2021-06-30T17:14:50Z</time>
      </trkpt>
      <trkpt lat="43.787384" lon="4.947082">
        <ele>53.99860</ele>
        <time>2021-06-30T17:14:51Z</time>
      </trkpt>
      <trkpt lat="43.787422" lon="4.947396">
        <ele>54.21716</ele>
        <time>2021-06-30T17:14:52Z</time>
      </trkpt>
      <trkpt lat="43.787460" lon="4.947700">
        <ele>54.31671</ele>
        <time>2021-06-30T17:14:53Z</time>
      </trkpt>
      <trkpt lat="43.787495" lon="4.947973">
        <ele>54.73047</ele>
        <time>2021-06-30T17:14:54Z</time>
      </trkpt>
      <trkpt lat="43.787525" lon="4.948234">
        <ele>55.24121</ele>
        <time>2021-06-30T17:14:55Z</time>
      </trkpt>
      <trkpt lat="43.787563" lon="4.948528">
        <ele>55.09583</ele>
        <time>2021-06-30T17:14:56Z</time>
      </trkpt>
      <trkpt lat="43.787601" lon="4.948843">
        <ele>54.84412</ele>
        <time>2021-06-30T17:14:57Z</time>
      </trkpt>
      <trkpt lat="43.787636" lon="4.949150">
        <ele>54.51740</ele>
        <time>2021-06-30T17:14:58Z</time>
      </trkpt>
      <trkpt lat="43.787682" lon="4.949490">
        <ele>54.70282</ele>
        <time>2021-06-30T17:14:59Z</time>
      </trkpt>
      <trkpt lat="43.787720" lon="4.949807">
        <ele>54.60144</ele>
        <time>2021-06-30T17:15:00Z</time>
      </trkpt>
      <trkpt lat="43.787766" lon="4.950154">
        <ele>54.52838</ele>
        <time>2021-06-30T17:15:01Z</time>
      </trkpt>
      <trkpt lat="43.787766" lon="4.950154">
        <ele>54.68646</ele>
        <time>2021-06-30T17:15:02Z</time>
      </trkpt>
      <trkpt lat="43.787811" lon="4.950498">
        <ele>55.04614</ele>
        <time>2021-06-30T17:15:03Z</time>
      </trkpt>
      <trkpt lat="43.787849" lon="4.950796">
        <ele>55.35382</ele>
        <time>2021-06-30T17:15:04Z</time>
      </trkpt>
      <trkpt lat="43.787880" lon="4.951062">
        <ele>55.17944</ele>
        <time>2021-06-30T17:15:05Z</time>
      </trkpt>
      <trkpt lat="43.787910" lon="4.951322">
        <ele>56.78980</ele>
        <time>2021-06-30T17:15:06Z</time>
      </trkpt>
      <trkpt lat="43.787941" lon="4.951593">
        <ele>56.64386</ele>
        <time>2021-06-30T17:15:07Z</time>
      </trkpt>
      <trkpt lat="43.787968" lon="4.951804">
        <ele>56.31988</ele>
        <time>2021-06-30T17:15:08Z</time>
      </trkpt>
      <trkpt lat="43.787991" lon="4.951981">
        <ele>55.74839</ele>
        <time>2021-06-30T17:15:09Z</time>
      </trkpt>
      <trkpt lat="43.788021" lon="4.952205">
        <ele>55.59301</ele>
        <time>2021-06-30T17:15:10Z</time>
      </trkpt>
      <trkpt lat="43.788040" lon="4.952376">
        <ele>55.66761</ele>
        <time>2021-06-30T17:15:11Z</time>
      </trkpt>
      <trkpt lat="43.788067" lon="4.952547">
        <ele>55.67345</ele>
        <time>2021-06-30T17:15:12Z</time>
      </trkpt>
      <trkpt lat="43.788094" lon="4.952709">
        <ele>55.63111</ele>
        <time>2021-06-30T17:15:13Z</time>
      </trkpt>
      <trkpt lat="43.788113" lon="4.952855">
        <ele>55.69731</ele>
        <time>2021-06-30T17:15:14Z</time>
      </trkpt>
      <trkpt lat="43.788113" lon="4.952855">
        <ele>55.48928</ele>
        <time>2021-06-30T17:15:15Z</time>
      </trkpt>
      <trkpt lat="43.788120" lon="4.953007">
        <ele>55.32998</ele>
        <time>2021-06-30T17:15:16Z</time>
      </trkpt>
      <trkpt lat="43.788147" lon="4.953130">
        <ele>55.39036</ele>
        <time>2021-06-30T17:15:17Z</time>
      </trkpt>
      <trkpt lat="43.788177" lon="4.953277">
        <ele>55.24808</ele>
        <time>2021-06-30T17:15:18Z</time>
      </trkpt>
      <trkpt lat="43.788200" lon="4.953391">
        <ele>55.39899</ele>
        <time>2021-06-30T17:15:19Z</time>
      </trkpt>
      <trkpt lat="43.788216" lon="4.953476">
        <ele>55.20484</ele>
        <time>2021-06-30T17:15:20Z</time>
      </trkpt>
      <trkpt lat="43.788227" lon="4.953570">
        <ele>55.16144</ele>
        <time>2021-06-30T17:15:21Z</time>
      </trkpt>
      <trkpt lat="43.788235" lon="4.953657">
        <ele>55.55975</ele>
        <time>2021-06-30T17:15:22Z</time>
      </trkpt>
      <trkpt lat="43.788212" lon="4.953734">
        <ele>55.80251</ele>
        <time>2021-06-30T17:15:23Z</time>
      </trkpt>
      <trkpt lat="43.788296" lon="4.953873">
        <ele>55.86980</ele>
        <time>2021-06-30T17:15:24Z</time>
      </trkpt>
      <trkpt lat="43.788361" lon="4.953854">
        <ele>58.09949</ele>
        <time>2021-06-30T17:15:25Z</time>
      </trkpt>
      <trkpt lat="43.788349" lon="4.954137">
        <ele>55.50311</ele>
        <time>2021-06-30T17:15:26Z</time>
      </trkpt>
      <trkpt lat="43.788349" lon="4.954137">
        <ele>55.68016</ele>
        <time>2021-06-30T17:15:27Z</time>
      </trkpt>
      <trkpt lat="43.788349" lon="4.954282">
        <ele>55.51464</ele>
        <time>2021-06-30T17:15:28Z</time>
      </trkpt>
      <trkpt lat="43.788349" lon="4.954436">
        <ele>55.76556</ele>
        <time>2021-06-30T17:15:29Z</time>
      </trkpt>
      <trkpt lat="43.788349" lon="4.954611">
        <ele>55.91249</ele>
        <time>2021-06-30T17:15:30Z</time>
      </trkpt>
      <trkpt lat="43.788353" lon="4.954769">
        <ele>55.66996</ele>
        <time>2021-06-30T17:15:31Z</time>
      </trkpt>
      <trkpt lat="43.788364" lon="4.954922">
        <ele>55.65399</ele>
        <time>2021-06-30T17:15:32Z</time>
      </trkpt>
      <trkpt lat="43.788383" lon="4.955090">
        <ele>56.37076</ele>
        <time>2021-06-30T17:15:33Z</time>
      </trkpt>
      <trkpt lat="43.788410" lon="4.955288">
        <ele>56.53165</ele>
        <time>2021-06-30T17:15:34Z</time>
      </trkpt>
      <trkpt lat="43.788437" lon="4.955513">
        <ele>56.55121</ele>
        <time>2021-06-30T17:15:35Z</time>
      </trkpt>
      <trkpt lat="43.788464" lon="4.955701">
        <ele>56.35846</ele>
        <time>2021-06-30T17:15:36Z</time>
      </trkpt>
      <trkpt lat="43.788483" lon="4.955879">
        <ele>56.57238</ele>
        <time>2021-06-30T17:15:37Z</time>
      </trkpt>
      <trkpt lat="43.788483" lon="4.955879">
        <ele>56.43076</ele>
        <time>2021-06-30T17:15:38Z</time>
      </trkpt>
      <trkpt lat="43.788513" lon="4.956104">
        <ele>56.30241</ele>
        <time>2021-06-30T17:15:39Z</time>
      </trkpt>
      <trkpt lat="43.788540" lon="4.956312">
        <ele>56.30255</ele>
        <time>2021-06-30T17:15:40Z</time>
      </trkpt>
      <trkpt lat="43.788559" lon="4.956463">
        <ele>56.17601</ele>
        <time>2021-06-30T17:15:41Z</time>
      </trkpt>
      <trkpt lat="43.788578" lon="4.956616">
        <ele>56.12212</ele>
        <time>2021-06-30T17:15:42Z</time>
      </trkpt>
      <trkpt lat="43.788597" lon="4.956782">
        <ele>56.48779</ele>
        <time>2021-06-30T17:15:43Z</time>
      </trkpt>
      <trkpt lat="43.788612" lon="4.956899">
        <ele>56.26794</ele>
        <time>2021-06-30T17:15:44Z</time>
      </trkpt>
      <trkpt lat="43.788635" lon="4.957085">
        <ele>56.30818</ele>
        <time>2021-06-30T17:15:45Z</time>
      </trkpt>
      <trkpt lat="43.788658" lon="4.957261">
        <ele>56.66490</ele>
        <time>2021-06-30T17:15:46Z</time>
      </trkpt>
      <trkpt lat="43.788681" lon="4.957449">
        <ele>56.75637</ele>
        <time>2021-06-30T17:15:47Z</time>
      </trkpt>
      <trkpt lat="43.788708" lon="4.957663">
        <ele>57.07624</ele>
        <time>2021-06-30T17:15:48Z</time>
      </trkpt>
      <trkpt lat="43.788734" lon="4.957857">
        <ele>56.77114</ele>
        <time>2021-06-30T17:15:49Z</time>
      </trkpt>
      <trkpt lat="43.788761" lon="4.958074">
        <ele>57.03996</ele>
        <time>2021-06-30T17:15:50Z</time>
      </trkpt>
      <trkpt lat="43.788761" lon="4.958074">
        <ele>57.41175</ele>
        <time>2021-06-30T17:15:51Z</time>
      </trkpt>
      <trkpt lat="43.788792" lon="4.958296">
        <ele>57.51901</ele>
        <time>2021-06-30T17:15:52Z</time>
      </trkpt>
      <trkpt lat="43.788822" lon="4.958493">
        <ele>57.31882</ele>
        <time>2021-06-30T17:15:53Z</time>
      </trkpt>
      <trkpt lat="43.788872" lon="4.958777">
        <ele>57.70061</ele>
        <time>2021-06-30T17:15:54Z</time>
      </trkpt>
      <trkpt lat="43.788910" lon="4.959021">
        <ele>58.21992</ele>
        <time>2021-06-30T17:15:55Z</time>
      </trkpt>
      <trkpt lat="43.788952" lon="4.959272">
        <ele>60.64233</ele>
        <time>2021-06-30T17:15:56Z</time>
      </trkpt>
      <trkpt lat="43.789009" lon="4.959549">
        <ele>61.36377</ele>
        <time>2021-06-30T17:15:57Z</time>
      </trkpt>
      <trkpt lat="43.789066" lon="4.959834">
        <ele>60.07520</ele>
        <time>2021-06-30T17:15:58Z</time>
      </trkpt>
      <trkpt lat="43.789124" lon="4.960085">
        <ele>60.54358</ele>
        <time>2021-06-30T17:15:59Z</time>
      </trkpt>
      <trkpt lat="43.789192" lon="4.960386">
        <ele>60.87891</ele>
        <time>2021-06-30T17:16:00Z</time>
      </trkpt>
      <trkpt lat="43.789265" lon="4.960689">
        <ele>60.24414</ele>
        <time>2021-06-30T17:16:01Z</time>
      </trkpt>
      <trkpt lat="43.789333" lon="4.960978">
        <ele>60.75470</ele>
        <time>2021-06-30T17:16:02Z</time>
      </trkpt>
      <trkpt lat="43.789402" lon="4.961273">
        <ele>60.85339</ele>
        <time>2021-06-30T17:16:03Z</time>
      </trkpt>
      <trkpt lat="43.789402" lon="4.961273">
        <ele>61.03754</ele>
        <time>2021-06-30T17:16:04Z</time>
      </trkpt>
      <trkpt lat="43.789478" lon="4.961604">
        <ele>61.19751</ele>
        <time>2021-06-30T17:16:05Z</time>
      </trkpt>
      <trkpt lat="43.789547" lon="4.961887">
        <ele>61.22131</ele>
        <time>2021-06-30T17:16:06Z</time>
      </trkpt>
      <trkpt lat="43.789585" lon="4.962111">
        <ele>58.69286</ele>
        <time>2021-06-30T17:16:07Z</time>
      </trkpt>
      <trkpt lat="43.789654" lon="4.962318">
        <ele>58.15472</ele>
        <time>2021-06-30T17:16:08Z</time>
      </trkpt>
      <trkpt lat="43.789726" lon="4.962525">
        <ele>58.32668</ele>
        <time>2021-06-30T17:16:09Z</time>
      </trkpt>
      <trkpt lat="43.789780" lon="4.962661">
        <ele>58.34333</ele>
        <time>2021-06-30T17:16:10Z</time>
      </trkpt>
      <trkpt lat="43.789818" lon="4.962765">
        <ele>57.94472</ele>
        <time>2021-06-30T17:16:11Z</time>
      </trkpt>
      <trkpt lat="43.789837" lon="4.962865">
        <ele>58.12364</ele>
        <time>2021-06-30T17:16:12Z</time>
      </trkpt>
      <trkpt lat="43.789814" lon="4.962959">
        <ele>58.38649</ele>
        <time>2021-06-30T17:16:13Z</time>
      </trkpt>
      <trkpt lat="43.789818" lon="4.963078">
        <ele>58.78231</ele>
        <time>2021-06-30T17:16:14Z</time>
      </trkpt>
      <trkpt lat="43.789818" lon="4.963078">
        <ele>59.81689</ele>
        <time>2021-06-30T17:16:15Z</time>
      </trkpt>
      <trkpt lat="43.789871" lon="4.963212">
        <ele>59.72913</ele>
        <time>2021-06-30T17:16:16Z</time>
      </trkpt>
      <trkpt lat="43.789986" lon="4.963244">
        <ele>60.23846</ele>
        <time>2021-06-30T17:16:17Z</time>
      </trkpt>
      <trkpt lat="43.790066" lon="4.963220">
        <ele>59.39691</ele>
        <time>2021-06-30T17:16:18Z</time>
      </trkpt>
      <trkpt lat="43.790180" lon="4.963345">
        <ele>58.31958</ele>
        <time>2021-06-30T17:16:19Z</time>
      </trkpt>
      <trkpt lat="43.790245" lon="4.963481">
        <ele>59.20420</ele>
        <time>2021-06-30T17:16:20Z</time>
      </trkpt>
      <trkpt lat="43.790325" lon="4.963660">
        <ele>59.45746</ele>
        <time>2021-06-30T17:16:21Z</time>
      </trkpt>
      <trkpt lat="43.790409" lon="4.963835">
        <ele>60.01955</ele>
        <time>2021-06-30T17:16:22Z</time>
      </trkpt>
      <trkpt lat="43.790554" lon="4.964059">
        <ele>58.72723</ele>
        <time>2021-06-30T17:16:23Z</time>
      </trkpt>
      <trkpt lat="43.790680" lon="4.964290">
        <ele>58.36444</ele>
        <time>2021-06-30T17:16:24Z</time>
      </trkpt>
      <trkpt lat="43.790829" lon="4.964565">
        <ele>58.29041</ele>
        <time>2021-06-30T17:16:25Z</time>
      </trkpt>
      <trkpt lat="43.790829" lon="4.964565">
        <ele>58.10840</ele>
        <time>2021-06-30T17:16:26Z</time>
      </trkpt>
      <trkpt lat="43.790981" lon="4.964853">
        <ele>58.21838</ele>
        <time>2021-06-30T17:16:27Z</time>
      </trkpt>
      <trkpt lat="43.791142" lon="4.965154">
        <ele>58.22717</ele>
        <time>2021-06-30T17:16:28Z</time>
      </trkpt>
      <trkpt lat="43.791328" lon="4.965499">
        <ele>58.72131</ele>
        <time>2021-06-30T17:16:29Z</time>
      </trkpt>
      <trkpt lat="43.791477" lon="4.965774">
        <ele>58.79596</ele>
        <time>2021-06-30T17:16:30Z</time>
      </trkpt>
      <trkpt lat="43.791626" lon="4.966052">
        <ele>59.02191</ele>
        <time>2021-06-30T17:16:31Z</time>
      </trkpt>
      <trkpt lat="43.791763" lon="4.966301">
        <ele>59.34253</ele>
        <time>2021-06-30T17:16:32Z</time>
      </trkpt>
      <trkpt lat="43.791904" lon="4.966558">
        <ele>59.36023</ele>
        <time>2021-06-30T17:16:33Z</time>
      </trkpt>
      <trkpt lat="43.792042" lon="4.966805">
        <ele>59.64777</ele>
        <time>2021-06-30T17:16:34Z</time>
      </trkpt>
      <trkpt lat="43.792183" lon="4.967072">
        <ele>59.72931</ele>
        <time>2021-06-30T17:16:35Z</time>
      </trkpt>
      <trkpt lat="43.792343" lon="4.967374">
        <ele>59.78064</ele>
        <time>2021-06-30T17:16:36Z</time>
      </trkpt>
      <trkpt lat="43.792343" lon="4.967374">
        <ele>60.08990</ele>
        <time>2021-06-30T17:16:37Z</time>
      </trkpt>
      <trkpt lat="43.792511" lon="4.967684">
        <ele>59.93335</ele>
        <time>2021-06-30T17:16:38Z</time>
      </trkpt>
      <trkpt lat="43.792648" lon="4.967956">
        <ele>60.10681</ele>
        <time>2021-06-30T17:16:39Z</time>
      </trkpt>
      <trkpt lat="43.792763" lon="4.968177">
        <ele>60.21442</ele>
        <time>2021-06-30T17:16:40Z</time>
      </trkpt>
      <trkpt lat="43.792927" lon="4.968475">
        <ele>60.53058</ele>
        <time>2021-06-30T17:16:41Z</time>
      </trkpt>
      <trkpt lat="43.793056" lon="4.968720">
        <ele>60.42358</ele>
        <time>2021-06-30T17:16:42Z</time>
      </trkpt>
      <trkpt lat="43.793205" lon="4.968999">
        <ele>60.38025</ele>
        <time>2021-06-30T17:16:43Z</time>
      </trkpt>
      <trkpt lat="43.793354" lon="4.969268">
        <ele>60.53082</ele>
        <time>2021-06-30T17:16:44Z</time>
      </trkpt>
      <trkpt lat="43.793499" lon="4.969537">
        <ele>60.48596</ele>
        <time>2021-06-30T17:16:45Z</time>
      </trkpt>
      <trkpt lat="43.793636" lon="4.969784">
        <ele>61.08807</ele>
        <time>2021-06-30T17:16:46Z</time>
      </trkpt>
      <trkpt lat="43.793789" lon="4.970068">
        <ele>60.96863</ele>
        <time>2021-06-30T17:16:47Z</time>
      </trkpt>
      <trkpt lat="43.793945" lon="4.970353">
        <ele>61.81909</ele>
        <time>2021-06-30T17:16:48Z</time>
      </trkpt>
      <trkpt lat="43.793945" lon="4.970353">
        <ele>62.06842</ele>
        <time>2021-06-30T17:16:49Z</time>
      </trkpt>
      <trkpt lat="43.794113" lon="4.970665">
        <ele>62.29529</ele>
        <time>2021-06-30T17:16:50Z</time>
      </trkpt>
      <trkpt lat="43.794254" lon="4.970924">
        <ele>62.69287</ele>
        <time>2021-06-30T17:16:51Z</time>
      </trkpt>
      <trkpt lat="43.794418" lon="4.971229">
        <ele>62.84290</ele>
        <time>2021-06-30T17:16:52Z</time>
      </trkpt>
      <trkpt lat="43.794571" lon="4.971523">
        <ele>62.52509</ele>
        <time>2021-06-30T17:16:53Z</time>
      </trkpt>
      <trkpt lat="43.794704" lon="4.971778">
        <ele>62.90533</ele>
        <time>2021-06-30T17:16:54Z</time>
      </trkpt>
      <trkpt lat="43.794880" lon="4.972106">
        <ele>62.50049</ele>
        <time>2021-06-30T17:16:55Z</time>
      </trkpt>
      <trkpt lat="43.795040" lon="4.972414">
        <ele>62.21246</ele>
        <time>2021-06-30T17:16:56Z</time>
      </trkpt>
      <trkpt lat="43.795189" lon="4.972693">
        <ele>62.77753</ele>
        <time>2021-06-30T17:16:57Z</time>
      </trkpt>
      <trkpt lat="43.795345" lon="4.972992">
        <ele>63.52075</ele>
        <time>2021-06-30T17:16:58Z</time>
      </trkpt>
      <trkpt lat="43.795490" lon="4.973265">
        <ele>63.87268</ele>
        <time>2021-06-30T17:16:59Z</time>
      </trkpt>
      <trkpt lat="43.795631" lon="4.973529">
        <ele>64.15155</ele>
        <time>2021-06-30T17:17:00Z</time>
      </trkpt>
      <trkpt lat="43.795776" lon="4.973801">
        <ele>64.64801</ele>
        <time>2021-06-30T17:17:01Z</time>
      </trkpt>
      <trkpt lat="43.795776" lon="4.973801">
        <ele>65.30804</ele>
        <time>2021-06-30T17:17:02Z</time>
      </trkpt>
      <trkpt lat="43.795921" lon="4.974069">
        <ele>65.08606</ele>
        <time>2021-06-30T17:17:03Z</time>
      </trkpt>
      <trkpt lat="43.796070" lon="4.974340">
        <ele>65.21765</ele>
        <time>2021-06-30T17:17:04Z</time>
      </trkpt>
      <trkpt lat="43.796234" lon="4.974635">
        <ele>65.60101</ele>
        <time>2021-06-30T17:17:05Z</time>
      </trkpt>
      <trkpt lat="43.796383" lon="4.974907">
        <ele>65.89746</ele>
        <time>2021-06-30T17:17:06Z</time>
      </trkpt>
      <trkpt lat="43.796562" lon="4.975232">
        <ele>66.24750</ele>
        <time>2021-06-30T17:17:07Z</time>
      </trkpt>
      <trkpt lat="43.796711" lon="4.975525">
        <ele>66.30823</ele>
        <time>2021-06-30T17:17:08Z</time>
      </trkpt>
      <trkpt lat="43.796852" lon="4.975799">
        <ele>66.15887</ele>
        <time>2021-06-30T17:17:09Z</time>
      </trkpt>
      <trkpt lat="43.797005" lon="4.976098">
        <ele>66.75995</ele>
        <time>2021-06-30T17:17:10Z</time>
      </trkpt>
      <trkpt lat="43.797157" lon="4.976396">
        <ele>67.09259</ele>
        <time>2021-06-30T17:17:11Z</time>
      </trkpt>
      <trkpt lat="43.797310" lon="4.976685">
        <ele>67.46124</ele>
        <time>2021-06-30T17:17:12Z</time>
      </trkpt>
      <trkpt lat="43.797310" lon="4.976685">
        <ele>67.95874</ele>
        <time>2021-06-30T17:17:13Z</time>
      </trkpt>
      <trkpt lat="43.797485" lon="4.977007">
        <ele>68.25262</ele>
        <time>2021-06-30T17:17:14Z</time>
      </trkpt>
      <trkpt lat="43.797646" lon="4.977318">
        <ele>68.86920</ele>
        <time>2021-06-30T17:17:15Z</time>
      </trkpt>
      <trkpt lat="43.797817" lon="4.977640">
        <ele>68.86115</ele>
        <time>2021-06-30T17:17:16Z</time>
      </trkpt>
      <trkpt lat="43.797977" lon="4.977922">
        <ele>68.74493</ele>
        <time>2021-06-30T17:17:17Z</time>
      </trkpt>
      <trkpt lat="43.798153" lon="4.978238">
        <ele>68.71887</ele>
        <time>2021-06-30T17:17:18Z</time>
      </trkpt>
      <trkpt lat="43.798336" lon="4.978564">
        <ele>68.92920</ele>
        <time>2021-06-30T17:17:19Z</time>
      </trkpt>
      <trkpt lat="43.798489" lon="4.978838">
        <ele>69.21997</ele>
        <time>2021-06-30T17:17:20Z</time>
      </trkpt>
      <trkpt lat="43.798637" lon="4.979114">
        <ele>69.79846</ele>
        <time>2021-06-30T17:17:21Z</time>
      </trkpt>
      <trkpt lat="43.798790" lon="4.979403">
        <ele>69.75952</ele>
        <time>2021-06-30T17:17:22Z</time>
      </trkpt>
      <trkpt lat="43.798790" lon="4.979403">
        <ele>69.85516</ele>
        <time>2021-06-30T17:17:23Z</time>
      </trkpt>
      <trkpt lat="43.798943" lon="4.979692">
        <ele>69.76379</ele>
        <time>2021-06-30T17:17:24Z</time>
      </trkpt>
      <trkpt lat="43.799076" lon="4.979944">
        <ele>70.15125</ele>
        <time>2021-06-30T17:17:25Z</time>
      </trkpt>
      <trkpt lat="43.799210" lon="4.980196">
        <ele>70.54480</ele>
        <time>2021-06-30T17:17:26Z</time>
      </trkpt>
      <trkpt lat="43.799347" lon="4.980451">
        <ele>70.24829</ele>
        <time>2021-06-30T17:17:27Z</time>
      </trkpt>
      <trkpt lat="43.799454" lon="4.980641">
        <ele>67.32794</ele>
        <time>2021-06-30T17:17:28Z</time>
      </trkpt>
      <trkpt lat="43.799561" lon="4.980842">
        <ele>67.47902</ele>
        <time>2021-06-30T17:17:29Z</time>
      </trkpt>
      <trkpt lat="43.799675" lon="4.981051">
        <ele>67.29451</ele>
        <time>2021-06-30T17:17:30Z</time>
      </trkpt>
      <trkpt lat="43.799801" lon="4.981284">
        <ele>69.66467</ele>
        <time>2021-06-30T17:17:31Z</time>
      </trkpt>
      <trkpt lat="43.799927" lon="4.981518">
        <ele>69.90332</ele>
        <time>2021-06-30T17:17:32Z</time>
      </trkpt>
      <trkpt lat="43.800072" lon="4.981785">
        <ele>70.14520</ele>
        <time>2021-06-30T17:17:33Z</time>
      </trkpt>
      <trkpt lat="43.800243" lon="4.982104">
        <ele>70.09113</ele>
        <time>2021-06-30T17:17:34Z</time>
      </trkpt>
      <trkpt lat="43.800243" lon="4.982104">
        <ele>69.94141</ele>
        <time>2021-06-30T17:17:35Z</time>
      </trkpt>
      <trkpt lat="43.800411" lon="4.982408">
        <ele>69.59424</ele>
        <time>2021-06-30T17:17:36Z</time>
      </trkpt>
      <trkpt lat="43.800575" lon="4.982709">
        <ele>69.56030</ele>
        <time>2021-06-30T17:17:37Z</time>
      </trkpt>
      <trkpt lat="43.800732" lon="4.982988">
        <ele>69.48376</ele>
        <time>2021-06-30T17:17:38Z</time>
      </trkpt>
      <trkpt lat="43.800888" lon="4.983267">
        <ele>68.95697</ele>
        <time>2021-06-30T17:17:39Z</time>
      </trkpt>
      <trkpt lat="43.801029" lon="4.983528">
        <ele>69.28223</ele>
        <time>2021-06-30T17:17:40Z</time>
      </trkpt>
      <trkpt lat="43.801193" lon="4.983822">
        <ele>69.51050</ele>
        <time>2021-06-30T17:17:41Z</time>
      </trkpt>
      <trkpt lat="43.801342" lon="4.984090">
        <ele>69.70959</ele>
        <time>2021-06-30T17:17:42Z</time>
      </trkpt>
      <trkpt lat="43.801479" lon="4.984341">
        <ele>69.31299</ele>
        <time>2021-06-30T17:17:43Z</time>
      </trkpt>
      <trkpt lat="43.801617" lon="4.984587">
        <ele>68.97339</ele>
        <time>2021-06-30T17:17:44Z</time>
      </trkpt>
      <trkpt lat="43.801754" lon="4.984847">
        <ele>68.56989</ele>
        <time>2021-06-30T17:17:45Z</time>
      </trkpt>
      <trkpt lat="43.801891" lon="4.985099">
        <ele>68.45020</ele>
        <time>2021-06-30T17:17:46Z</time>
      </trkpt>
      <trkpt lat="43.802040" lon="4.985380">
        <ele>68.29224</ele>
        <time>2021-06-30T17:17:47Z</time>
      </trkpt>
      <trkpt lat="43.802177" lon="4.985637">
        <ele>68.56976</ele>
        <time>2021-06-30T17:17:48Z</time>
      </trkpt>
      <trkpt lat="43.802330" lon="4.985918">
        <ele>68.29468</ele>
        <time>2021-06-30T17:17:49Z</time>
      </trkpt>
      <trkpt lat="43.802456" lon="4.986161">
        <ele>67.77588</ele>
        <time>2021-06-30T17:17:50Z</time>
      </trkpt>
      <trkpt lat="43.802456" lon="4.986161">
        <ele>67.68146</ele>
        <time>2021-06-30T17:17:51Z</time>
      </trkpt>
      <trkpt lat="43.802589" lon="4.986413">
        <ele>67.40216</ele>
        <time>2021-06-30T17:17:52Z</time>
      </trkpt>
      <trkpt lat="43.802704" lon="4.986624">
        <ele>67.44153</ele>
        <time>2021-06-30T17:17:53Z</time>
      </trkpt>
      <trkpt lat="43.802830" lon="4.986852">
        <ele>67.75482</ele>
        <time>2021-06-30T17:17:54Z</time>
      </trkpt>
      <trkpt lat="43.802959" lon="4.987082">
        <ele>67.53735</ele>
        <time>2021-06-30T17:17:55Z</time>
      </trkpt>
      <trkpt lat="43.803097" lon="4.987328">
        <ele>67.69849</ele>
        <time>2021-06-30T17:17:56Z</time>
      </trkpt>
      <trkpt lat="43.803234" lon="4.987573">
        <ele>67.89044</ele>
        <time>2021-06-30T17:17:57Z</time>
      </trkpt>
      <trkpt lat="43.803387" lon="4.987852">
        <ele>68.44177</ele>
        <time>2021-06-30T17:17:58Z</time>
      </trkpt>
      <trkpt lat="43.803535" lon="4.988135">
        <ele>68.51532</ele>
        <time>2021-06-30T17:17:59Z</time>
      </trkpt>
      <trkpt lat="43.803665" lon="4.988385">
        <ele>68.11914</ele>
        <time>2021-06-30T17:18:00Z</time>
      </trkpt>
      <trkpt lat="43.803783" lon="4.988614">
        <ele>67.84351</ele>
        <time>2021-06-30T17:18:01Z</time>
      </trkpt>
      <trkpt lat="43.803902" lon="4.988829">
        <ele>66.30846</ele>
        <time>2021-06-30T17:18:02Z</time>
      </trkpt>
      <trkpt lat="43.804005" lon="4.989020">
        <ele>65.97903</ele>
        <time>2021-06-30T17:18:03Z</time>
      </trkpt>
      <trkpt lat="43.804115" lon="4.989218">
        <ele>66.14156</ele>
        <time>2021-06-30T17:18:04Z</time>
      </trkpt>
      <trkpt lat="43.804115" lon="4.989218">
        <ele>66.10487</ele>
        <time>2021-06-30T17:18:05Z</time>
      </trkpt>
      <trkpt lat="43.804211" lon="4.989390">
        <ele>66.20922</ele>
        <time>2021-06-30T17:18:06Z</time>
      </trkpt>
      <trkpt lat="43.804321" lon="4.989598">
        <ele>65.59673</ele>
        <time>2021-06-30T17:18:07Z</time>
      </trkpt>
      <trkpt lat="43.804420" lon="4.989779">
        <ele>65.87334</ele>
        <time>2021-06-30T17:18:08Z</time>
      </trkpt>
      <trkpt lat="43.804546" lon="4.990024">
        <ele>66.02969</ele>
        <time>2021-06-30T17:18:09Z</time>
      </trkpt>
      <trkpt lat="43.804638" lon="4.990207">
        <ele>66.15826</ele>
        <time>2021-06-30T17:18:10Z</time>
      </trkpt>
      <trkpt lat="43.804741" lon="4.990397">
        <ele>66.07201</ele>
        <time>2021-06-30T17:18:11Z</time>
      </trkpt>
      <trkpt lat="43.804844" lon="4.990585">
        <ele>66.48650</ele>
        <time>2021-06-30T17:18:12Z</time>
      </trkpt>
      <trkpt lat="43.804955" lon="4.990786">
        <ele>66.57448</ele>
        <time>2021-06-30T17:18:13Z</time>
      </trkpt>
      <trkpt lat="43.805050" lon="4.990967">
        <ele>66.85060</ele>
        <time>2021-06-30T17:18:14Z</time>
      </trkpt>
      <trkpt lat="43.805050" lon="4.990967">
        <ele>66.63351</ele>
        <time>2021-06-30T17:18:15Z</time>
      </trkpt>
      <trkpt lat="43.805157" lon="4.991162">
        <ele>66.25934</ele>
        <time>2021-06-30T17:18:16Z</time>
      </trkpt>
      <trkpt lat="43.805256" lon="4.991345">
        <ele>67.15348</ele>
        <time>2021-06-30T17:18:17Z</time>
      </trkpt>
      <trkpt lat="43.805340" lon="4.991500">
        <ele>66.98219</ele>
        <time>2021-06-30T17:18:18Z</time>
      </trkpt>
      <trkpt lat="43.805416" lon="4.991644">
        <ele>66.91638</ele>
        <time>2021-06-30T17:18:19Z</time>
      </trkpt>
      <trkpt lat="43.805515" lon="4.991827">
        <ele>66.93736</ele>
        <time>2021-06-30T17:18:20Z</time>
      </trkpt>
      <trkpt lat="43.805603" lon="4.991994">
        <ele>66.71843</ele>
        <time>2021-06-30T17:18:21Z</time>
      </trkpt>
      <trkpt lat="43.805695" lon="4.992157">
        <ele>66.78541</ele>
        <time>2021-06-30T17:18:22Z</time>
      </trkpt>
      <trkpt lat="43.805756" lon="4.992260">
        <ele>66.88238</ele>
        <time>2021-06-30T17:18:23Z</time>
      </trkpt>
      <trkpt lat="43.805813" lon="4.992361">
        <ele>66.92035</ele>
        <time>2021-06-30T17:18:24Z</time>
      </trkpt>
      <trkpt lat="43.805889" lon="4.992492">
        <ele>66.70432</ele>
        <time>2021-06-30T17:18:25Z</time>
      </trkpt>
      <trkpt lat="43.805954" lon="4.992612">
        <ele>66.64334</ele>
        <time>2021-06-30T17:18:26Z</time>
      </trkpt>
      <trkpt lat="43.805988" lon="4.992673">
        <ele>65.88313</ele>
        <time>2021-06-30T17:18:27Z</time>
      </trkpt>
      <trkpt lat="43.806007" lon="4.992713">
        <ele>65.82803</ele>
        <time>2021-06-30T17:18:28Z</time>
      </trkpt>
      <trkpt lat="43.806061" lon="4.992808">
        <ele>65.88061</ele>
        <time>2021-06-30T17:18:29Z</time>
      </trkpt>
      <trkpt lat="43.806061" lon="4.992808">
        <ele>66.42944</ele>
        <time>2021-06-30T17:18:30Z</time>
      </trkpt>
      <trkpt lat="43.806171" lon="4.993023">
        <ele>66.70186</ele>
        <time>2021-06-30T17:18:31Z</time>
      </trkpt>
      <trkpt lat="43.806171" lon="4.993023">
        <ele>67.03336</ele>
        <time>2021-06-30T17:18:32Z</time>
      </trkpt>
      <trkpt lat="43.806244" lon="4.993151">
        <ele>66.76215</ele>
        <time>2021-06-30T17:18:33Z</time>
      </trkpt>
      <trkpt lat="43.806313" lon="4.993278">
        <ele>66.95711</ele>
        <time>2021-06-30T17:18:34Z</time>
      </trkpt>
      <trkpt lat="43.806393" lon="4.993428">
        <ele>67.15276</ele>
        <time>2021-06-30T17:18:35Z</time>
      </trkpt>
      <trkpt lat="43.806458" lon="4.993545">
        <ele>67.31815</ele>
        <time>2021-06-30T17:18:36Z</time>
      </trkpt>
      <trkpt lat="43.806522" lon="4.993666">
        <ele>67.71763</ele>
        <time>2021-06-30T17:18:37Z</time>
      </trkpt>
      <trkpt lat="43.806606" lon="4.993814">
        <ele>67.49676</ele>
        <time>2021-06-30T17:18:38Z</time>
      </trkpt>
      <trkpt lat="43.806664" lon="4.993922">
        <ele>67.43494</ele>
        <time>2021-06-30T17:18:39Z</time>
      </trkpt>
      <trkpt lat="43.806725" lon="4.994032">
        <ele>67.47384</ele>
        <time>2021-06-30T17:18:40Z</time>
      </trkpt>
      <trkpt lat="43.806774" lon="4.994121">
        <ele>67.63466</ele>
        <time>2021-06-30T17:18:41Z</time>
      </trkpt>
      <trkpt lat="43.806839" lon="4.994240">
        <ele>67.52140</ele>
        <time>2021-06-30T17:18:42Z</time>
      </trkpt>
      <trkpt lat="43.806839" lon="4.994240">
        <ele>68.99567</ele>
        <time>2021-06-30T17:18:43Z</time>
      </trkpt>
      <trkpt lat="43.806908" lon="4.994361">
        <ele>68.65900</ele>
        <time>2021-06-30T17:18:44Z</time>
      </trkpt>
      <trkpt lat="43.806973" lon="4.994480">
        <ele>69.55481</ele>
        <time>2021-06-30T17:18:45Z</time>
      </trkpt>
      <trkpt lat="43.807037" lon="4.994602">
        <ele>67.56223</ele>
        <time>2021-06-30T17:18:46Z</time>
      </trkpt>
      <trkpt lat="43.807095" lon="4.994705">
        <ele>67.37762</ele>
        <time>2021-06-30T17:18:47Z</time>
      </trkpt>
      <trkpt lat="43.807159" lon="4.994828">
        <ele>67.81799</ele>
        <time>2021-06-30T17:18:48Z</time>
      </trkpt>
      <trkpt lat="43.807205" lon="4.994913">
        <ele>67.47558</ele>
        <time>2021-06-30T17:18:49Z</time>
      </trkpt>
      <trkpt lat="43.807259" lon="4.995010">
        <ele>67.60048</ele>
        <time>2021-06-30T17:18:50Z</time>
      </trkpt>
      <trkpt lat="43.807301" lon="4.995083">
        <ele>67.53504</ele>
        <time>2021-06-30T17:18:51Z</time>
      </trkpt>
      <trkpt lat="43.807320" lon="4.995120">
        <ele>67.58440</ele>
        <time>2021-06-30T17:18:52Z</time>
      </trkpt>
      <trkpt lat="43.807331" lon="4.995140">
        <ele>67.89482</ele>
        <time>2021-06-30T17:18:53Z</time>
      </trkpt>
      <trkpt lat="43.807346" lon="4.995164">
        <ele>67.75653</ele>
        <time>2021-06-30T17:18:54Z</time>
      </trkpt>
      <trkpt lat="43.807362" lon="4.995194">
        <ele>67.80372</ele>
        <time>2021-06-30T17:18:55Z</time>
      </trkpt>
      <trkpt lat="43.807365" lon="4.995207">
        <ele>67.34669</ele>
        <time>2021-06-30T17:18:56Z</time>
      </trkpt>
      <trkpt lat="43.807365" lon="4.995207">
        <ele>67.43296</ele>
        <time>2021-06-30T17:18:57Z</time>
      </trkpt>
      <trkpt lat="43.807365" lon="4.995207">
        <ele>67.63847</ele>
        <time>2021-06-30T17:18:58Z</time>
      </trkpt>
      <trkpt lat="43.807365" lon="4.995207">
        <ele>67.95798</ele>
        <time>2021-06-30T17:18:59Z</time>
      </trkpt>
      <trkpt lat="43.807365" lon="4.995207">
        <ele>68.08163</ele>
        <time>2021-06-30T17:19:00Z</time>
      </trkpt>
      <trkpt lat="43.807365" lon="4.995207">
        <ele>68.32840</ele>
        <time>2021-06-30T17:19:01Z</time>
      </trkpt>
      <trkpt lat="43.807365" lon="4.995207">
        <ele>68.52511</ele>
        <time>2021-06-30T17:19:02Z</time>
      </trkpt>
      <trkpt lat="43.807365" lon="4.995207">
        <ele>68.63704</ele>
        <time>2021-06-30T17:19:03Z</time>
      </trkpt>
      <trkpt lat="43.807365" lon="4.995207">
        <ele>68.70208</ele>
        <time>2021-06-30T17:19:04Z</time>
      </trkpt>
      <trkpt lat="43.807365" lon="4.995207">
        <ele>68.86002</ele>
        <time>2021-06-30T17:19:05Z</time>
      </trkpt>
      <trkpt lat="43.807365" lon="4.995207">
        <ele>68.95435</ele>
        <time>2021-06-30T17:19:06Z</time>
      </trkpt>
      <trkpt lat="43.807365" lon="4.995207">
        <ele>68.89117</ele>
        <time>2021-06-30T17:19:07Z</time>
      </trkpt>
      <trkpt lat="43.807365" lon="4.995207">
        <ele>68.90462</ele>
        <time>2021-06-30T17:19:08Z</time>
      </trkpt>
      <trkpt lat="43.807365" lon="4.995207">
        <ele>68.97843</ele>
        <time>2021-06-30T17:19:09Z</time>
      </trkpt>
      <trkpt lat="43.807365" lon="4.995207">
        <ele>69.09178</ele>
        <time>2021-06-30T17:19:10Z</time>
      </trkpt>
      <trkpt lat="43.807365" lon="4.995207">
        <ele>69.20178</ele>
        <time>2021-06-30T17:19:11Z</time>
      </trkpt>
      <trkpt lat="43.807365" lon="4.995207">
        <ele>69.21301</ele>
        <time>2021-06-30T17:19:12Z</time>
      </trkpt>
      <trkpt lat="43.807365" lon="4.995207">
        <ele>69.15784</ele>
        <time>2021-06-30T17:19:13Z</time>
      </trkpt>
      <trkpt lat="43.807365" lon="4.995207">
        <ele>69.31183</ele>
        <time>2021-06-30T17:19:14Z</time>
      </trkpt>
      <trkpt lat="43.807365" lon="4.995207">
        <ele>69.56720</ele>
        <time>2021-06-30T17:19:15Z</time>
      </trkpt>
      <trkpt lat="43.807365" lon="4.995207">
        <ele>69.59686</ele>
        <time>2021-06-30T17:19:16Z</time>
      </trkpt>
      <trkpt lat="43.807365" lon="4.995207">
        <ele>69.53785</ele>
        <time>2021-06-30T17:19:17Z</time>
      </trkpt>
      <trkpt lat="43.807365" lon="4.995207">
        <ele>69.36530</ele>
        <time>2021-06-30T17:19:18Z</time>
      </trkpt>
      <trkpt lat="43.807365" lon="4.995207">
        <ele>69.41434</ele>
        <time>2021-06-30T17:19:19Z</time>
      </trkpt>
      <trkpt lat="43.807365" lon="4.995207">
        <ele>69.52755</ele>
        <time>2021-06-30T17:19:20Z</time>
      </trkpt>
      <trkpt lat="43.807365" lon="4.995207">
        <ele>69.75067</ele>
        <time>2021-06-30T17:19:21Z</time>
      </trkpt>
      <trkpt lat="43.807365" lon="4.995207">
        <ele>69.94157</ele>
        <time>2021-06-30T17:19:22Z</time>
      </trkpt>
      <trkpt lat="43.807365" lon="4.995207">
        <ele>70.03575</ele>
        <time>2021-06-30T17:19:23Z</time>
      </trkpt>
      <trkpt lat="43.807365" lon="4.995207">
        <ele>70.11098</ele>
        <time>2021-06-30T17:19:24Z</time>
      </trkpt>
      <trkpt lat="43.807365" lon="4.995207">
        <ele>70.30013</ele>
        <time>2021-06-30T17:19:25Z</time>
      </trkpt>
      <trkpt lat="43.807365" lon="4.995207">
        <ele>70.32636</ele>
        <time>2021-06-30T17:19:26Z</time>
      </trkpt>
      <trkpt lat="43.807365" lon="4.995207">
        <ele>70.46938</ele>
        <time>2021-06-30T17:19:27Z</time>
      </trkpt>
      <trkpt lat="43.807365" lon="4.995207">
        <ele>70.59036</ele>
        <time>2021-06-30T17:19:28Z</time>
      </trkpt>
      <trkpt lat="43.807365" lon="4.995207">
        <ele>70.67510</ele>
        <time>2021-06-30T17:19:29Z</time>
      </trkpt>
      <trkpt lat="43.807365" lon="4.995207">
        <ele>70.80350</ele>
        <time>2021-06-30T17:19:30Z</time>
      </trkpt>
      <trkpt lat="43.807365" lon="4.995207">
        <ele>70.83329</ele>
        <time>2021-06-30T17:19:31Z</time>
      </trkpt>
      <trkpt lat="43.807365" lon="4.995207">
        <ele>70.86967</ele>
        <time>2021-06-30T17:19:32Z</time>
      </trkpt>
      <trkpt lat="43.807365" lon="4.995207">
        <ele>70.78555</ele>
        <time>2021-06-30T17:19:33Z</time>
      </trkpt>
      <trkpt lat="43.807365" lon="4.995207">
        <ele>70.70647</ele>
        <time>2021-06-30T17:19:34Z</time>
      </trkpt>
      <trkpt lat="43.807365" lon="4.995207">
        <ele>70.78967</ele>
        <time>2021-06-30T17:19:35Z</time>
      </trkpt>
      <trkpt lat="43.807365" lon="4.995207">
        <ele>70.62984</ele>
        <time>2021-06-30T17:19:36Z</time>
      </trkpt>
      <trkpt lat="43.807365" lon="4.995207">
        <ele>70.78101</ele>
        <time>2021-06-30T17:19:37Z</time>
      </trkpt>
      <trkpt lat="43.807365" lon="4.995207">
        <ele>70.70595</ele>
        <time>2021-06-30T17:19:38Z</time>
      </trkpt>
      <trkpt lat="43.807388" lon="4.995251">
        <ele>71.12112</ele>
        <time>2021-06-30T17:19:39Z</time>
      </trkpt>
      <trkpt lat="43.807423" lon="4.995321">
        <ele>71.00433</ele>
        <time>2021-06-30T17:19:40Z</time>
      </trkpt>
      <trkpt lat="43.807423" lon="4.995321">
        <ele>71.34597</ele>
        <time>2021-06-30T17:19:41Z</time>
      </trkpt>
      <trkpt lat="43.807453" lon="4.995382">
        <ele>71.52114</ele>
        <time>2021-06-30T17:19:42Z</time>
      </trkpt>
      <trkpt lat="43.807491" lon="4.995456">
        <ele>71.56910</ele>
        <time>2021-06-30T17:19:43Z</time>
      </trkpt>
      <trkpt lat="43.807507" lon="4.995482">
        <ele>71.71426</ele>
        <time>2021-06-30T17:19:44Z</time>
      </trkpt>
      <trkpt lat="43.807552" lon="4.995574">
        <ele>71.69539</ele>
        <time>2021-06-30T17:19:45Z</time>
      </trkpt>
      <trkpt lat="43.807606" lon="4.995675">
        <ele>71.84126</ele>
        <time>2021-06-30T17:19:46Z</time>
      </trkpt>
      <trkpt lat="43.807648" lon="4.995753">
        <ele>71.98023</ele>
        <time>2021-06-30T17:19:47Z</time>
      </trkpt>
      <trkpt lat="43.807693" lon="4.995836">
        <ele>71.95235</ele>
        <time>2021-06-30T17:19:48Z</time>
      </trkpt>
      <trkpt lat="43.807747" lon="4.995936">
        <ele>71.73879</ele>
        <time>2021-06-30T17:19:49Z</time>
      </trkpt>
      <trkpt lat="43.807796" lon="4.996019">
        <ele>71.91914</ele>
        <time>2021-06-30T17:19:50Z</time>
      </trkpt>
      <trkpt lat="43.807842" lon="4.996096">
        <ele>72.43496</ele>
        <time>2021-06-30T17:19:51Z</time>
      </trkpt>
      <trkpt lat="43.807899" lon="4.996194">
        <ele>72.21455</ele>
        <time>2021-06-30T17:19:52Z</time>
      </trkpt>
      <trkpt lat="43.807899" lon="4.996194">
        <ele>72.48335</ele>
        <time>2021-06-30T17:19:53Z</time>
      </trkpt>
      <trkpt lat="43.807972" lon="4.996319">
        <ele>72.48699</ele>
        <time>2021-06-30T17:19:54Z</time>
      </trkpt>
      <trkpt lat="43.808064" lon="4.996487">
        <ele>72.52042</ele>
        <time>2021-06-30T17:19:55Z</time>
      </trkpt>
      <trkpt lat="43.808128" lon="4.996595">
        <ele>72.42537</ele>
        <time>2021-06-30T17:19:56Z</time>
      </trkpt>
      <trkpt lat="43.808193" lon="4.996704">
        <ele>72.51176</ele>
        <time>2021-06-30T17:19:57Z</time>
      </trkpt>
      <trkpt lat="43.808266" lon="4.996829">
        <ele>72.74525</ele>
        <time>2021-06-30T17:19:58Z</time>
      </trkpt>
      <trkpt lat="43.808323" lon="4.996931">
        <ele>72.77624</ele>
        <time>2021-06-30T17:19:59Z</time>
      </trkpt>
      <trkpt lat="43.808399" lon="4.997063">
        <ele>73.08081</ele>
        <time>2021-06-30T17:20:00Z</time>
      </trkpt>
      <trkpt lat="43.808472" lon="4.997183">
        <ele>73.09805</ele>
        <time>2021-06-30T17:20:01Z</time>
      </trkpt>
      <trkpt lat="43.808544" lon="4.997311">
        <ele>73.03864</ele>
        <time>2021-06-30T17:20:02Z</time>
      </trkpt>
      <trkpt lat="43.808624" lon="4.997452">
        <ele>73.20224</ele>
        <time>2021-06-30T17:20:03Z</time>
      </trkpt>
      <trkpt lat="43.808704" lon="4.997586">
        <ele>72.60724</ele>
        <time>2021-06-30T17:20:04Z</time>
      </trkpt>
      <trkpt lat="43.808704" lon="4.997586">
        <ele>72.70142</ele>
        <time>2021-06-30T17:20:05Z</time>
      </trkpt>
      <trkpt lat="43.808788" lon="4.997731">
        <ele>73.11069</ele>
        <time>2021-06-30T17:20:06Z</time>
      </trkpt>
      <trkpt lat="43.808884" lon="4.997894">
        <ele>73.05302</ele>
        <time>2021-06-30T17:20:07Z</time>
      </trkpt>
      <trkpt lat="43.808960" lon="4.998028">
        <ele>73.01064</ele>
        <time>2021-06-30T17:20:08Z</time>
      </trkpt>
      <trkpt lat="43.809036" lon="4.998161">
        <ele>72.96133</ele>
        <time>2021-06-30T17:20:09Z</time>
      </trkpt>
      <trkpt lat="43.809086" lon="4.998250">
        <ele>73.26884</ele>
        <time>2021-06-30T17:20:10Z</time>
      </trkpt>
      <trkpt lat="43.809139" lon="4.998342">
        <ele>72.94824</ele>
        <time>2021-06-30T17:20:11Z</time>
      </trkpt>
      <trkpt lat="43.809185" lon="4.998421">
        <ele>73.20197</ele>
        <time>2021-06-30T17:20:12Z</time>
      </trkpt>
      <trkpt lat="43.809219" lon="4.998485">
        <ele>73.04364</ele>
        <time>2021-06-30T17:20:13Z</time>
      </trkpt>
      <trkpt lat="43.809246" lon="4.998531">
        <ele>72.98157</ele>
        <time>2021-06-30T17:20:14Z</time>
      </trkpt>
      <trkpt lat="43.809284" lon="4.998596">
        <ele>73.11176</ele>
        <time>2021-06-30T17:20:15Z</time>
      </trkpt>
      <trkpt lat="43.809338" lon="4.998680">
        <ele>72.58044</ele>
        <time>2021-06-30T17:20:16Z</time>
      </trkpt>
      <trkpt lat="43.809380" lon="4.998753">
        <ele>72.70862</ele>
        <time>2021-06-30T17:20:17Z</time>
      </trkpt>
      <trkpt lat="43.809414" lon="4.998816">
        <ele>72.27643</ele>
        <time>2021-06-30T17:20:18Z</time>
      </trkpt>
      <trkpt lat="43.809464" lon="4.998903">
        <ele>72.13947</ele>
        <time>2021-06-30T17:20:19Z</time>
      </trkpt>
      <trkpt lat="43.809528" lon="4.999016">
        <ele>72.05920</ele>
        <time>2021-06-30T17:20:20Z</time>
      </trkpt>
      <trkpt lat="43.809597" lon="4.999134">
        <ele>72.14069</ele>
        <time>2021-06-30T17:20:21Z</time>
      </trkpt>
      <trkpt lat="43.809597" lon="4.999134">
        <ele>71.97229</ele>
        <time>2021-06-30T17:20:22Z</time>
      </trkpt>
      <trkpt lat="43.809669" lon="4.999262">
        <ele>72.09131</ele>
        <time>2021-06-30T17:20:23Z</time>
      </trkpt>
      <trkpt lat="43.809750" lon="4.999398">
        <ele>71.73694</ele>
        <time>2021-06-30T17:20:24Z</time>
      </trkpt>
      <trkpt lat="43.809822" lon="4.999524">
        <ele>72.21631</ele>
        <time>2021-06-30T17:20:25Z</time>
      </trkpt>
      <trkpt lat="43.809910" lon="4.999683">
        <ele>72.09277</ele>
        <time>2021-06-30T17:20:26Z</time>
      </trkpt>
      <trkpt lat="43.809990" lon="4.999830">
        <ele>72.18048</ele>
        <time>2021-06-30T17:20:27Z</time>
      </trkpt>
      <trkpt lat="43.810062" lon="4.999965">
        <ele>72.34247</ele>
        <time>2021-06-30T17:20:28Z</time>
      </trkpt>
      <trkpt lat="43.810143" lon="5.000107">
        <ele>72.18561</ele>
        <time>2021-06-30T17:20:29Z</time>
      </trkpt>
      <trkpt lat="43.810230" lon="5.000268">
        <ele>72.60864</ele>
        <time>2021-06-30T17:20:30Z</time>
      </trkpt>
      <trkpt lat="43.810322" lon="5.000426">
        <ele>72.84122</ele>
        <time>2021-06-30T17:20:31Z</time>
      </trkpt>
      <trkpt lat="43.810371" lon="5.000514">
        <ele>72.41170</ele>
        <time>2021-06-30T17:20:32Z</time>
      </trkpt>
      <trkpt lat="43.810406" lon="5.000579">
        <ele>72.21042</ele>
        <time>2021-06-30T17:20:33Z</time>
      </trkpt>
      <trkpt lat="43.810406" lon="5.000579">
        <ele>71.98091</ele>
        <time>2021-06-30T17:20:34Z</time>
      </trkpt>
      <trkpt lat="43.810448" lon="5.000650">
        <ele>72.07792</ele>
        <time>2021-06-30T17:20:35Z</time>
      </trkpt>
      <trkpt lat="43.810486" lon="5.000714">
        <ele>72.08743</ele>
        <time>2021-06-30T17:20:36Z</time>
      </trkpt>
      <trkpt lat="43.810528" lon="5.000788">
        <ele>72.14204</ele>
        <time>2021-06-30T17:20:37Z</time>
      </trkpt>
      <trkpt lat="43.810577" lon="5.000882">
        <ele>72.37782</ele>
        <time>2021-06-30T17:20:38Z</time>
      </trkpt>
      <trkpt lat="43.810631" lon="5.000971">
        <ele>72.30612</ele>
        <time>2021-06-30T17:20:39Z</time>
      </trkpt>
      <trkpt lat="43.810684" lon="5.001064">
        <ele>72.37535</ele>
        <time>2021-06-30T17:20:40Z</time>
      </trkpt>
      <trkpt lat="43.810719" lon="5.001124">
        <ele>72.57597</ele>
        <time>2021-06-30T17:20:41Z</time>
      </trkpt>
      <trkpt lat="43.810760" lon="5.001201">
        <ele>72.65701</ele>
        <time>2021-06-30T17:20:42Z</time>
      </trkpt>
      <trkpt lat="43.810837" lon="5.001339">
        <ele>72.91118</ele>
        <time>2021-06-30T17:20:43Z</time>
      </trkpt>
      <trkpt lat="43.810902" lon="5.001457">
        <ele>73.04672</ele>
        <time>2021-06-30T17:20:44Z</time>
      </trkpt>
      <trkpt lat="43.810902" lon="5.001457">
        <ele>73.11628</ele>
        <time>2021-06-30T17:20:45Z</time>
      </trkpt>
      <trkpt lat="43.810970" lon="5.001587">
        <ele>73.22684</ele>
        <time>2021-06-30T17:20:46Z</time>
      </trkpt>
      <trkpt lat="43.811047" lon="5.001732">
        <ele>73.74075</ele>
        <time>2021-06-30T17:20:47Z</time>
      </trkpt>
      <trkpt lat="43.811115" lon="5.001860">
        <ele>73.61740</ele>
        <time>2021-06-30T17:20:48Z</time>
      </trkpt>
      <trkpt lat="43.811199" lon="5.002009">
        <ele>73.64536</ele>
        <time>2021-06-30T17:20:49Z</time>
      </trkpt>
      <trkpt lat="43.811275" lon="5.002144">
        <ele>73.53288</ele>
        <time>2021-06-30T17:20:50Z</time>
      </trkpt>
      <trkpt lat="43.811325" lon="5.002232">
        <ele>73.37847</ele>
        <time>2021-06-30T17:20:51Z</time>
      </trkpt>
      <trkpt lat="43.811420" lon="5.002408">
        <ele>73.64684</ele>
        <time>2021-06-30T17:20:52Z</time>
      </trkpt>
      <trkpt lat="43.811489" lon="5.002530">
        <ele>73.20063</ele>
        <time>2021-06-30T17:20:53Z</time>
      </trkpt>
      <trkpt lat="43.811565" lon="5.002678">
        <ele>73.36217</ele>
        <time>2021-06-30T17:20:54Z</time>
      </trkpt>
      <trkpt lat="43.811653" lon="5.002836">
        <ele>73.89764</ele>
        <time>2021-06-30T17:20:55Z</time>
      </trkpt>
      <trkpt lat="43.811722" lon="5.002966">
        <ele>73.58414</ele>
        <time>2021-06-30T17:20:56Z</time>
      </trkpt>
      <trkpt lat="43.811771" lon="5.003057">
        <ele>73.31900</ele>
        <time>2021-06-30T17:20:57Z</time>
      </trkpt>
      <trkpt lat="43.811771" lon="5.003057">
        <ele>72.98497</ele>
        <time>2021-06-30T17:20:58Z</time>
      </trkpt>
      <trkpt lat="43.811813" lon="5.003136">
        <ele>73.22702</ele>
        <time>2021-06-30T17:20:59Z</time>
      </trkpt>
      <trkpt lat="43.811855" lon="5.003214">
        <ele>73.22209</ele>
        <time>2021-06-30T17:21:00Z</time>
      </trkpt>
      <trkpt lat="43.811886" lon="5.003273">
        <ele>73.42941</ele>
        <time>2021-06-30T17:21:01Z</time>
      </trkpt>
      <trkpt lat="43.811954" lon="5.003412">
        <ele>73.95689</ele>
        <time>2021-06-30T17:21:02Z</time>
      </trkpt>
      <trkpt lat="43.812008" lon="5.003541">
        <ele>73.56840</ele>
        <time>2021-06-30T17:21:03Z</time>
      </trkpt>
      <trkpt lat="43.812073" lon="5.003656">
        <ele>73.76741</ele>
        <time>2021-06-30T17:21:04Z</time>
      </trkpt>
      <trkpt lat="43.812168" lon="5.003827">
        <ele>74.27278</ele>
        <time>2021-06-30T17:21:05Z</time>
      </trkpt>
      <trkpt lat="43.812244" lon="5.003960">
        <ele>74.62708</ele>
        <time>2021-06-30T17:21:06Z</time>
      </trkpt>
      <trkpt lat="43.812309" lon="5.004079">
        <ele>74.84717</ele>
        <time>2021-06-30T17:21:07Z</time>
      </trkpt>
      <trkpt lat="43.812382" lon="5.004208">
        <ele>74.85364</ele>
        <time>2021-06-30T17:21:08Z</time>
      </trkpt>
      <trkpt lat="43.812466" lon="5.004352">
        <ele>75.07581</ele>
        <time>2021-06-30T17:21:09Z</time>
      </trkpt>
      <trkpt lat="43.812531" lon="5.004474">
        <ele>75.30975</ele>
        <time>2021-06-30T17:21:10Z</time>
      </trkpt>
      <trkpt lat="43.812576" lon="5.004560">
        <ele>75.59375</ele>
        <time>2021-06-30T17:21:11Z</time>
      </trkpt>
      <trkpt lat="43.812576" lon="5.004560">
        <ele>76.45178</ele>
        <time>2021-06-30T17:21:12Z</time>
      </trkpt>
      <trkpt lat="43.812618" lon="5.004640">
        <ele>76.35846</ele>
        <time>2021-06-30T17:21:13Z</time>
      </trkpt>
      <trkpt lat="43.812645" lon="5.004691">
        <ele>75.99377</ele>
        <time>2021-06-30T17:21:14Z</time>
      </trkpt>
      <trkpt lat="43.812683" lon="5.004763">
        <ele>76.19275</ele>
        <time>2021-06-30T17:21:15Z</time>
      </trkpt>
      <trkpt lat="43.812740" lon="5.004878">
        <ele>76.57104</ele>
        <time>2021-06-30T17:21:16Z</time>
      </trkpt>
      <trkpt lat="43.812782" lon="5.004954">
        <ele>73.99053</ele>
        <time>2021-06-30T17:21:17Z</time>
      </trkpt>
      <trkpt lat="43.812836" lon="5.005047">
        <ele>74.37755</ele>
        <time>2021-06-30T17:21:18Z</time>
      </trkpt>
      <trkpt lat="43.812885" lon="5.005138">
        <ele>74.14700</ele>
        <time>2021-06-30T17:21:19Z</time>
      </trkpt>
      <trkpt lat="43.812943" lon="5.005237">
        <ele>74.22695</ele>
        <time>2021-06-30T17:21:20Z</time>
      </trkpt>
      <trkpt lat="43.813000" lon="5.005344">
        <ele>74.48796</ele>
        <time>2021-06-30T17:21:21Z</time>
      </trkpt>
      <trkpt lat="43.813068" lon="5.005469">
        <ele>74.81987</ele>
        <time>2021-06-30T17:21:22Z</time>
      </trkpt>
      <trkpt lat="43.813145" lon="5.005599">
        <ele>75.78271</ele>
        <time>2021-06-30T17:21:23Z</time>
      </trkpt>
      <trkpt lat="43.813210" lon="5.005717">
        <ele>75.89954</ele>
        <time>2021-06-30T17:21:24Z</time>
      </trkpt>
      <trkpt lat="43.813210" lon="5.005717">
        <ele>76.01282</ele>
        <time>2021-06-30T17:21:25Z</time>
      </trkpt>
      <trkpt lat="43.813290" lon="5.005863">
        <ele>76.13733</ele>
        <time>2021-06-30T17:21:26Z</time>
      </trkpt>
      <trkpt lat="43.813366" lon="5.006001">
        <ele>76.26746</ele>
        <time>2021-06-30T17:21:27Z</time>
      </trkpt>
      <trkpt lat="43.813431" lon="5.006116">
        <ele>76.04016</ele>
        <time>2021-06-30T17:21:28Z</time>
      </trkpt>
      <trkpt lat="43.813499" lon="5.006244">
        <ele>74.96619</ele>
        <time>2021-06-30T17:21:29Z</time>
      </trkpt>
      <trkpt lat="43.813564" lon="5.006361">
        <ele>75.19882</ele>
        <time>2021-06-30T17:21:30Z</time>
      </trkpt>
      <trkpt lat="43.813637" lon="5.006493">
        <ele>75.46654</ele>
        <time>2021-06-30T17:21:31Z</time>
      </trkpt>
      <trkpt lat="43.813705" lon="5.006619">
        <ele>75.47928</ele>
        <time>2021-06-30T17:21:32Z</time>
      </trkpt>
      <trkpt lat="43.813774" lon="5.006741">
        <ele>75.43732</ele>
        <time>2021-06-30T17:21:33Z</time>
      </trkpt>
      <trkpt lat="43.813869" lon="5.006914">
        <ele>75.40488</ele>
        <time>2021-06-30T17:21:34Z</time>
      </trkpt>
      <trkpt lat="43.813938" lon="5.007040">
        <ele>75.34628</ele>
        <time>2021-06-30T17:21:35Z</time>
      </trkpt>
      <trkpt lat="43.813938" lon="5.007040">
        <ele>75.62051</ele>
        <time>2021-06-30T17:21:36Z</time>
      </trkpt>
      <trkpt lat="43.814018" lon="5.007188">
        <ele>75.87435</ele>
        <time>2021-06-30T17:21:37Z</time>
      </trkpt>
      <trkpt lat="43.814121" lon="5.007320">
        <ele>76.22266</ele>
        <time>2021-06-30T17:21:38Z</time>
      </trkpt>
      <trkpt lat="43.814186" lon="5.007448">
        <ele>74.76862</ele>
        <time>2021-06-30T17:21:39Z</time>
      </trkpt>
      <trkpt lat="43.814251" lon="5.007592">
        <ele>74.96549</ele>
        <time>2021-06-30T17:21:40Z</time>
      </trkpt>
      <trkpt lat="43.814316" lon="5.007727">
        <ele>74.84477</ele>
        <time>2021-06-30T17:21:41Z</time>
      </trkpt>
      <trkpt lat="43.814377" lon="5.007857">
        <ele>74.37611</ele>
        <time>2021-06-30T17:21:42Z</time>
      </trkpt>
      <trkpt lat="43.814419" lon="5.007950">
        <ele>74.29441</ele>
        <time>2021-06-30T17:21:43Z</time>
      </trkpt>
      <trkpt lat="43.814449" lon="5.008018">
        <ele>74.07080</ele>
        <time>2021-06-30T17:21:44Z</time>
      </trkpt>
      <trkpt lat="43.814480" lon="5.008088">
        <ele>74.30080</ele>
        <time>2021-06-30T17:21:45Z</time>
      </trkpt>
      <trkpt lat="43.814522" lon="5.008176">
        <ele>74.22025</ele>
        <time>2021-06-30T17:21:46Z</time>
      </trkpt>
      <trkpt lat="43.814522" lon="5.008176">
        <ele>74.19479</ele>
        <time>2021-06-30T17:21:47Z</time>
      </trkpt>
      <trkpt lat="43.814590" lon="5.008308">
        <ele>74.14816</ele>
        <time>2021-06-30T17:21:48Z</time>
      </trkpt>
      <trkpt lat="43.814655" lon="5.008433">
        <ele>74.33162</ele>
        <time>2021-06-30T17:21:49Z</time>
      </trkpt>
      <trkpt lat="43.814724" lon="5.008558">
        <ele>74.21255</ele>
        <time>2021-06-30T17:21:50Z</time>
      </trkpt>
      <trkpt lat="43.814781" lon="5.008662">
        <ele>74.80639</ele>
        <time>2021-06-30T17:21:51Z</time>
      </trkpt>
      <trkpt lat="43.814873" lon="5.008822">
        <ele>74.43484</ele>
        <time>2021-06-30T17:21:52Z</time>
      </trkpt>
      <trkpt lat="43.814949" lon="5.008963">
        <ele>74.62624</ele>
        <time>2021-06-30T17:21:53Z</time>
      </trkpt>
      <trkpt lat="43.815067" lon="5.009173">
        <ele>74.14946</ele>
        <time>2021-06-30T17:21:54Z</time>
      </trkpt>
      <trkpt lat="43.815144" lon="5.009306">
        <ele>74.62290</ele>
        <time>2021-06-30T17:21:55Z</time>
      </trkpt>
      <trkpt lat="43.815216" lon="5.009440">
        <ele>74.77365</ele>
        <time>2021-06-30T17:21:56Z</time>
      </trkpt>
      <trkpt lat="43.815296" lon="5.009591">
        <ele>75.01019</ele>
        <time>2021-06-30T17:21:57Z</time>
      </trkpt>
      <trkpt lat="43.815376" lon="5.009745">
        <ele>74.52074</ele>
        <time>2021-06-30T17:21:58Z</time>
      </trkpt>
      <trkpt lat="43.815468" lon="5.009909">
        <ele>73.95894</ele>
        <time>2021-06-30T17:21:59Z</time>
      </trkpt>
      <trkpt lat="43.815468" lon="5.009909">
        <ele>73.93913</ele>
        <time>2021-06-30T17:22:00Z</time>
      </trkpt>
      <trkpt lat="43.815552" lon="5.010059">
        <ele>73.81319</ele>
        <time>2021-06-30T17:22:01Z</time>
      </trkpt>
      <trkpt lat="43.815632" lon="5.010199">
        <ele>73.86149</ele>
        <time>2021-06-30T17:22:02Z</time>
      </trkpt>
      <trkpt lat="43.815708" lon="5.010337">
        <ele>74.44822</ele>
        <time>2021-06-30T17:22:03Z</time>
      </trkpt>
      <trkpt lat="43.815777" lon="5.010460">
        <ele>74.11152</ele>
        <time>2021-06-30T17:22:04Z</time>
      </trkpt>
      <trkpt lat="43.815876" lon="5.010634">
        <ele>74.45216</ele>
        <time>2021-06-30T17:22:05Z</time>
      </trkpt>
      <trkpt lat="43.815960" lon="5.010787">
        <ele>74.05427</ele>
        <time>2021-06-30T17:22:06Z</time>
      </trkpt>
      <trkpt lat="43.816048" lon="5.010940">
        <ele>74.11201</ele>
        <time>2021-06-30T17:22:07Z</time>
      </trkpt>
      <trkpt lat="43.816120" lon="5.011073">
        <ele>74.50063</ele>
        <time>2021-06-30T17:22:08Z</time>
      </trkpt>
      <trkpt lat="43.816231" lon="5.011263">
        <ele>74.52050</ele>
        <time>2021-06-30T17:22:09Z</time>
      </trkpt>
      <trkpt lat="43.816319" lon="5.011423">
        <ele>74.77970</ele>
        <time>2021-06-30T17:22:10Z</time>
      </trkpt>
      <trkpt lat="43.816418" lon="5.011598">
        <ele>74.66821</ele>
        <time>2021-06-30T17:22:11Z</time>
      </trkpt>
      <trkpt lat="43.816509" lon="5.011757">
        <ele>74.72707</ele>
        <time>2021-06-30T17:22:12Z</time>
      </trkpt>
      <trkpt lat="43.816597" lon="5.011914">
        <ele>75.73671</ele>
        <time>2021-06-30T17:22:13Z</time>
      </trkpt>
      <trkpt lat="43.816597" lon="5.011914">
        <ele>75.73285</ele>
        <time>2021-06-30T17:22:14Z</time>
      </trkpt>
      <trkpt lat="43.816689" lon="5.012073">
        <ele>76.66927</ele>
        <time>2021-06-30T17:22:15Z</time>
      </trkpt>
      <trkpt lat="43.816788" lon="5.012250">
        <ele>76.23015</ele>
        <time>2021-06-30T17:22:16Z</time>
      </trkpt>
      <trkpt lat="43.816872" lon="5.012395">
        <ele>75.95480</ele>
        <time>2021-06-30T17:22:17Z</time>
      </trkpt>
      <trkpt lat="43.816952" lon="5.012531">
        <ele>76.01398</ele>
        <time>2021-06-30T17:22:18Z</time>
      </trkpt>
      <trkpt lat="43.817024" lon="5.012652">
        <ele>75.50628</ele>
        <time>2021-06-30T17:22:19Z</time>
      </trkpt>
      <trkpt lat="43.817085" lon="5.012751">
        <ele>75.23924</ele>
        <time>2021-06-30T17:22:20Z</time>
      </trkpt>
      <trkpt lat="43.817181" lon="5.012903">
        <ele>75.00202</ele>
        <time>2021-06-30T17:22:21Z</time>
      </trkpt>
      <trkpt lat="43.817242" lon="5.013001">
        <ele>74.55628</ele>
        <time>2021-06-30T17:22:22Z</time>
      </trkpt>
      <trkpt lat="43.817303" lon="5.013093">
        <ele>74.47737</ele>
        <time>2021-06-30T17:22:23Z</time>
      </trkpt>
      <trkpt lat="43.817364" lon="5.013190">
        <ele>74.51125</ele>
        <time>2021-06-30T17:22:24Z</time>
      </trkpt>
      <trkpt lat="43.817364" lon="5.013190">
        <ele>74.55363</ele>
        <time>2021-06-30T17:22:25Z</time>
      </trkpt>
      <trkpt lat="43.817421" lon="5.013276">
        <ele>74.56884</ele>
        <time>2021-06-30T17:22:26Z</time>
      </trkpt>
      <trkpt lat="43.817482" lon="5.013354">
        <ele>74.54927</ele>
        <time>2021-06-30T17:22:27Z</time>
      </trkpt>
      <trkpt lat="43.817551" lon="5.013436">
        <ele>74.52486</ele>
        <time>2021-06-30T17:22:28Z</time>
      </trkpt>
      <trkpt lat="43.817616" lon="5.013511">
        <ele>73.41604</ele>
        <time>2021-06-30T17:22:29Z</time>
      </trkpt>
      <trkpt lat="43.817650" lon="5.013567">
        <ele>73.21832</ele>
        <time>2021-06-30T17:22:30Z</time>
      </trkpt>
      <trkpt lat="43.817650" lon="5.013567">
        <ele>73.10869</ele>
        <time>2021-06-30T17:22:31Z</time>
      </trkpt>
      <trkpt lat="43.817650" lon="5.013567">
        <ele>73.22157</ele>
        <time>2021-06-30T17:22:32Z</time>
      </trkpt>
      <trkpt lat="43.817650" lon="5.013567">
        <ele>73.31105</ele>
        <time>2021-06-30T17:22:33Z</time>
      </trkpt>
      <trkpt lat="43.817638" lon="5.013599">
        <ele>73.22767</ele>
        <time>2021-06-30T17:22:34Z</time>
      </trkpt>
      <trkpt lat="43.817635" lon="5.013717">
        <ele>74.21172</ele>
        <time>2021-06-30T17:22:35Z</time>
      </trkpt>
      <trkpt lat="43.817711" lon="5.013857">
        <ele>74.04316</ele>
        <time>2021-06-30T17:22:36Z</time>
      </trkpt>
      <trkpt lat="43.817711" lon="5.013857">
        <ele>73.91110</ele>
        <time>2021-06-30T17:22:37Z</time>
      </trkpt>
      <trkpt lat="43.817802" lon="5.013954">
        <ele>73.52844</ele>
        <time>2021-06-30T17:22:38Z</time>
      </trkpt>
      <trkpt lat="43.817852" lon="5.014086">
        <ele>74.09351</ele>
        <time>2021-06-30T17:22:39Z</time>
      </trkpt>
      <trkpt lat="43.817909" lon="5.014235">
        <ele>74.04295</ele>
        <time>2021-06-30T17:22:40Z</time>
      </trkpt>
      <trkpt lat="43.817963" lon="5.014379">
        <ele>74.18217</ele>
        <time>2021-06-30T17:22:41Z</time>
      </trkpt>
      <trkpt lat="43.818016" lon="5.014521">
        <ele>74.09010</ele>
        <time>2021-06-30T17:22:42Z</time>
      </trkpt>
      <trkpt lat="43.818062" lon="5.014628">
        <ele>74.13027</ele>
        <time>2021-06-30T17:22:43Z</time>
      </trkpt>
      <trkpt lat="43.818096" lon="5.014705">
        <ele>74.08626</ele>
        <time>2021-06-30T17:22:44Z</time>
      </trkpt>
      <trkpt lat="43.818134" lon="5.014787">
        <ele>74.38451</ele>
        <time>2021-06-30T17:22:45Z</time>
      </trkpt>
      <trkpt lat="43.818172" lon="5.014878">
        <ele>74.18270</ele>
        <time>2021-06-30T17:22:46Z</time>
      </trkpt>
      <trkpt lat="43.818214" lon="5.014976">
        <ele>73.83813</ele>
        <time>2021-06-30T17:22:47Z</time>
      </trkpt>
      <trkpt lat="43.818249" lon="5.015052">
        <ele>73.64160</ele>
        <time>2021-06-30T17:22:48Z</time>
      </trkpt>
      <trkpt lat="43.818272" lon="5.015102">
        <ele>73.62142</ele>
        <time>2021-06-30T17:22:49Z</time>
      </trkpt>
      <trkpt lat="43.818272" lon="5.015102">
        <ele>73.52148</ele>
        <time>2021-06-30T17:22:50Z</time>
      </trkpt>
      <trkpt lat="43.818291" lon="5.015148">
        <ele>73.30488</ele>
        <time>2021-06-30T17:22:51Z</time>
      </trkpt>
      <trkpt lat="43.818310" lon="5.015201">
        <ele>73.25946</ele>
        <time>2021-06-30T17:22:52Z</time>
      </trkpt>
      <trkpt lat="43.818314" lon="5.015212">
        <ele>73.37371</ele>
        <time>2021-06-30T17:22:53Z</time>
      </trkpt>
      <trkpt lat="43.818314" lon="5.015212">
        <ele>73.76003</ele>
        <time>2021-06-30T17:22:54Z</time>
      </trkpt>
      <trkpt lat="43.818333" lon="5.015273">
        <ele>73.60326</ele>
        <time>2021-06-30T17:22:55Z</time>
      </trkpt>
      <trkpt lat="43.818352" lon="5.015359">
        <ele>73.69212</ele>
        <time>2021-06-30T17:22:56Z</time>
      </trkpt>
      <trkpt lat="43.818352" lon="5.015373">
        <ele>73.55386</ele>
        <time>2021-06-30T17:22:57Z</time>
      </trkpt>
      <trkpt lat="43.818356" lon="5.015417">
        <ele>73.69460</ele>
        <time>2021-06-30T17:22:58Z</time>
      </trkpt>
      <trkpt lat="43.818359" lon="5.015433">
        <ele>73.58174</ele>
        <time>2021-06-30T17:22:59Z</time>
      </trkpt>
      <trkpt lat="43.818359" lon="5.015448">
        <ele>73.41245</ele>
        <time>2021-06-30T17:23:00Z</time>
      </trkpt>
      <trkpt lat="43.818359" lon="5.015523">
        <ele>73.86320</ele>
        <time>2021-06-30T17:23:01Z</time>
      </trkpt>
      <trkpt lat="43.818287" lon="5.015645">
        <ele>73.83197</ele>
        <time>2021-06-30T17:23:02Z</time>
      </trkpt>
      <trkpt lat="43.818287" lon="5.015645">
        <ele>73.85564</ele>
        <time>2021-06-30T17:23:03Z</time>
      </trkpt>
      <trkpt lat="43.818279" lon="5.015801">
        <ele>74.13513</ele>
        <time>2021-06-30T17:23:04Z</time>
      </trkpt>
      <trkpt lat="43.818306" lon="5.015886">
        <ele>74.29802</ele>
        <time>2021-06-30T17:23:05Z</time>
      </trkpt>
      <trkpt lat="43.818344" lon="5.015950">
        <ele>73.68921</ele>
        <time>2021-06-30T17:23:06Z</time>
      </trkpt>
      <trkpt lat="43.818405" lon="5.015980">
        <ele>73.66199</ele>
        <time>2021-06-30T17:23:07Z</time>
      </trkpt>
      <trkpt lat="43.818497" lon="5.016017">
        <ele>74.14352</ele>
        <time>2021-06-30T17:23:08Z</time>
      </trkpt>
      <trkpt lat="43.818600" lon="5.016138">
        <ele>74.24972</ele>
        <time>2021-06-30T17:23:09Z</time>
      </trkpt>
      <trkpt lat="43.818695" lon="5.016254">
        <ele>74.37745</ele>
        <time>2021-06-30T17:23:10Z</time>
      </trkpt>
      <trkpt lat="43.818787" lon="5.016413">
        <ele>75.11496</ele>
        <time>2021-06-30T17:23:11Z</time>
      </trkpt>
      <trkpt lat="43.818882" lon="5.016607">
        <ele>74.94206</ele>
        <time>2021-06-30T17:23:12Z</time>
      </trkpt>
      <trkpt lat="43.818882" lon="5.016607">
        <ele>75.63266</ele>
        <time>2021-06-30T17:23:13Z</time>
      </trkpt>
      <trkpt lat="43.818993" lon="5.016831">
        <ele>75.87566</ele>
        <time>2021-06-30T17:23:14Z</time>
      </trkpt>
      <trkpt lat="43.819088" lon="5.017058">
        <ele>74.80499</ele>
        <time>2021-06-30T17:23:15Z</time>
      </trkpt>
      <trkpt lat="43.819199" lon="5.017321">
        <ele>73.84308</ele>
        <time>2021-06-30T17:23:16Z</time>
      </trkpt>
      <trkpt lat="43.819351" lon="5.017676">
        <ele>73.00159</ele>
        <time>2021-06-30T17:23:17Z</time>
      </trkpt>
      <trkpt lat="43.819485" lon="5.017988">
        <ele>73.07513</ele>
        <time>2021-06-30T17:23:18Z</time>
      </trkpt>
      <trkpt lat="43.819653" lon="5.018350">
        <ele>73.25525</ele>
        <time>2021-06-30T17:23:19Z</time>
      </trkpt>
      <trkpt lat="43.819790" lon="5.018618">
        <ele>73.22559</ele>
        <time>2021-06-30T17:23:20Z</time>
      </trkpt>
      <trkpt lat="43.819931" lon="5.018894">
        <ele>73.47589</ele>
        <time>2021-06-30T17:23:21Z</time>
      </trkpt>
      <trkpt lat="43.820057" lon="5.019116">
        <ele>73.54218</ele>
        <time>2021-06-30T17:23:22Z</time>
      </trkpt>
      <trkpt lat="43.820206" lon="5.019377">
        <ele>73.70978</ele>
        <time>2021-06-30T17:23:23Z</time>
      </trkpt>
      <trkpt lat="43.820324" lon="5.019585">
        <ele>73.79651</ele>
        <time>2021-06-30T17:23:24Z</time>
      </trkpt>
      <trkpt lat="43.820438" lon="5.019782">
        <ele>74.26080</ele>
        <time>2021-06-30T17:23:25Z</time>
      </trkpt>
      <trkpt lat="43.820438" lon="5.019782">
        <ele>74.27008</ele>
        <time>2021-06-30T17:23:26Z</time>
      </trkpt>
      <trkpt lat="43.820576" lon="5.020030">
        <ele>74.76807</ele>
        <time>2021-06-30T17:23:27Z</time>
      </trkpt>
      <trkpt lat="43.820705" lon="5.020261">
        <ele>75.02502</ele>
        <time>2021-06-30T17:23:28Z</time>
      </trkpt>
      <trkpt lat="43.820843" lon="5.020498">
        <ele>74.70209</ele>
        <time>2021-06-30T17:23:29Z</time>
      </trkpt>
      <trkpt lat="43.820965" lon="5.020720">
        <ele>75.73177</ele>
        <time>2021-06-30T17:23:30Z</time>
      </trkpt>
      <trkpt lat="43.821083" lon="5.020933">
        <ele>75.31361</ele>
        <time>2021-06-30T17:23:31Z</time>
      </trkpt>
      <trkpt lat="43.821175" lon="5.021094">
        <ele>74.72841</ele>
        <time>2021-06-30T17:23:32Z</time>
      </trkpt>
      <trkpt lat="43.821228" lon="5.021202">
        <ele>73.89089</ele>
        <time>2021-06-30T17:23:33Z</time>
      </trkpt>
      <trkpt lat="43.821259" lon="5.021278">
        <ele>74.02701</ele>
        <time>2021-06-30T17:23:34Z</time>
      </trkpt>
      <trkpt lat="43.821301" lon="5.021379">
        <ele>73.86942</ele>
        <time>2021-06-30T17:23:35Z</time>
      </trkpt>
      <trkpt lat="43.821301" lon="5.021379">
        <ele>74.09483</ele>
        <time>2021-06-30T17:23:36Z</time>
      </trkpt>
      <trkpt lat="43.821270" lon="5.021495">
        <ele>74.38359</ele>
        <time>2021-06-30T17:23:37Z</time>
      </trkpt>
      <trkpt lat="43.821266" lon="5.021656">
        <ele>74.54431</ele>
        <time>2021-06-30T17:23:38Z</time>
      </trkpt>
      <trkpt lat="43.821304" lon="5.021793">
        <ele>74.23407</ele>
        <time>2021-06-30T17:23:39Z</time>
      </trkpt>
      <trkpt lat="43.821365" lon="5.021882">
        <ele>74.20886</ele>
        <time>2021-06-30T17:23:40Z</time>
      </trkpt>
      <trkpt lat="43.821442" lon="5.021932">
        <ele>73.58075</ele>
        <time>2021-06-30T17:23:41Z</time>
      </trkpt>
      <trkpt lat="43.821510" lon="5.021999">
        <ele>74.32415</ele>
        <time>2021-06-30T17:23:42Z</time>
      </trkpt>
      <trkpt lat="43.821587" lon="5.022290">
        <ele>74.29255</ele>
        <time>2021-06-30T17:23:43Z</time>
      </trkpt>
      <trkpt lat="43.821617" lon="5.022426">
        <ele>74.23744</ele>
        <time>2021-06-30T17:23:44Z</time>
      </trkpt>
      <trkpt lat="43.821655" lon="5.022606">
        <ele>74.02338</ele>
        <time>2021-06-30T17:23:45Z</time>
      </trkpt>
      <trkpt lat="43.821690" lon="5.022778">
        <ele>73.78850</ele>
        <time>2021-06-30T17:23:46Z</time>
      </trkpt>
      <trkpt lat="43.821690" lon="5.022778">
        <ele>74.08672</ele>
        <time>2021-06-30T17:23:47Z</time>
      </trkpt>
      <trkpt lat="43.821743" lon="5.023035">
        <ele>74.23357</ele>
        <time>2021-06-30T17:23:48Z</time>
      </trkpt>
      <trkpt lat="43.821793" lon="5.023283">
        <ele>73.99078</ele>
        <time>2021-06-30T17:23:49Z</time>
      </trkpt>
      <trkpt lat="43.821846" lon="5.023536">
        <ele>74.76874</ele>
        <time>2021-06-30T17:23:50Z</time>
      </trkpt>
      <trkpt lat="43.821911" lon="5.023836">
        <ele>75.00623</ele>
        <time>2021-06-30T17:23:51Z</time>
      </trkpt>
      <trkpt lat="43.821983" lon="5.024180">
        <ele>75.93134</ele>
        <time>2021-06-30T17:23:52Z</time>
      </trkpt>
      <trkpt lat="43.822060" lon="5.024514">
        <ele>76.82629</ele>
        <time>2021-06-30T17:23:53Z</time>
      </trkpt>
      <trkpt lat="43.822132" lon="5.024834">
        <ele>77.25940</ele>
        <time>2021-06-30T17:23:54Z</time>
      </trkpt>
      <trkpt lat="43.822205" lon="5.025134">
        <ele>77.91351</ele>
        <time>2021-06-30T17:23:55Z</time>
      </trkpt>
      <trkpt lat="43.822277" lon="5.025444">
        <ele>78.95569</ele>
        <time>2021-06-30T17:23:56Z</time>
      </trkpt>
      <trkpt lat="43.822338" lon="5.025720">
        <ele>80.24597</ele>
        <time>2021-06-30T17:23:57Z</time>
      </trkpt>
      <trkpt lat="43.822403" lon="5.025998">
        <ele>81.12610</ele>
        <time>2021-06-30T17:23:58Z</time>
      </trkpt>
      <trkpt lat="43.822464" lon="5.026253">
        <ele>81.71045</ele>
        <time>2021-06-30T17:23:59Z</time>
      </trkpt>
      <trkpt lat="43.822521" lon="5.026523">
        <ele>82.21240</ele>
        <time>2021-06-30T17:24:00Z</time>
      </trkpt>
      <trkpt lat="43.822521" lon="5.026523">
        <ele>82.52515</ele>
        <time>2021-06-30T17:24:01Z</time>
      </trkpt>
      <trkpt lat="43.822567" lon="5.026757">
        <ele>82.82275</ele>
        <time>2021-06-30T17:24:02Z</time>
      </trkpt>
      <trkpt lat="43.822613" lon="5.026973">
        <ele>83.15973</ele>
        <time>2021-06-30T17:24:03Z</time>
      </trkpt>
      <trkpt lat="43.822662" lon="5.027215">
        <ele>83.56909</ele>
        <time>2021-06-30T17:24:04Z</time>
      </trkpt>
      <trkpt lat="43.822701" lon="5.027423">
        <ele>83.72144</ele>
        <time>2021-06-30T17:24:05Z</time>
      </trkpt>
      <trkpt lat="43.822754" lon="5.027663">
        <ele>83.60034</ele>
        <time>2021-06-30T17:24:06Z</time>
      </trkpt>
      <trkpt lat="43.822800" lon="5.027868">
        <ele>83.71167</ele>
        <time>2021-06-30T17:24:07Z</time>
      </trkpt>
      <trkpt lat="43.822842" lon="5.028075">
        <ele>83.52289</ele>
        <time>2021-06-30T17:24:08Z</time>
      </trkpt>
      <trkpt lat="43.822887" lon="5.028269">
        <ele>83.22876</ele>
        <time>2021-06-30T17:24:09Z</time>
      </trkpt>
      <trkpt lat="43.822937" lon="5.028516">
        <ele>83.20801</ele>
        <time>2021-06-30T17:24:10Z</time>
      </trkpt>
      <trkpt lat="43.822979" lon="5.028761">
        <ele>83.36285</ele>
        <time>2021-06-30T17:24:11Z</time>
      </trkpt>
      <trkpt lat="43.822979" lon="5.028761">
        <ele>83.44629</ele>
        <time>2021-06-30T17:24:12Z</time>
      </trkpt>
      <trkpt lat="43.823006" lon="5.028991">
        <ele>83.19025</ele>
        <time>2021-06-30T17:24:13Z</time>
      </trkpt>
      <trkpt lat="43.823017" lon="5.029248">
        <ele>82.31152</ele>
        <time>2021-06-30T17:24:14Z</time>
      </trkpt>
      <trkpt lat="43.823009" lon="5.029509">
        <ele>82.44592</ele>
        <time>2021-06-30T17:24:15Z</time>
      </trkpt>
      <trkpt lat="43.823002" lon="5.029606">
        <ele>82.20093</ele>
        <time>2021-06-30T17:24:16Z</time>
      </trkpt>
      <trkpt lat="43.822987" lon="5.029742">
        <ele>81.92651</ele>
        <time>2021-06-30T17:24:17Z</time>
      </trkpt>
      <trkpt lat="43.822956" lon="5.029871">
        <ele>82.63341</ele>
        <time>2021-06-30T17:24:18Z</time>
      </trkpt>
      <trkpt lat="43.822922" lon="5.029993">
        <ele>82.34094</ele>
        <time>2021-06-30T17:24:19Z</time>
      </trkpt>
      <trkpt lat="43.822872" lon="5.030123">
        <ele>81.61975</ele>
        <time>2021-06-30T17:24:20Z</time>
      </trkpt>
      <trkpt lat="43.822826" lon="5.030253">
        <ele>81.56970</ele>
        <time>2021-06-30T17:24:21Z</time>
      </trkpt>
      <trkpt lat="43.822826" lon="5.030253">
        <ele>81.50995</ele>
        <time>2021-06-30T17:24:22Z</time>
      </trkpt>
      <trkpt lat="43.822758" lon="5.030399">
        <ele>81.60666</ele>
        <time>2021-06-30T17:24:23Z</time>
      </trkpt>
      <trkpt lat="43.822643" lon="5.030541">
        <ele>81.08675</ele>
        <time>2021-06-30T17:24:24Z</time>
      </trkpt>
      <trkpt lat="43.822552" lon="5.030638">
        <ele>80.62714</ele>
        <time>2021-06-30T17:24:25Z</time>
      </trkpt>
      <trkpt lat="43.822426" lon="5.030727">
        <ele>80.47583</ele>
        <time>2021-06-30T17:24:26Z</time>
      </trkpt>
      <trkpt lat="43.822338" lon="5.030759">
        <ele>80.44769</ele>
        <time>2021-06-30T17:24:27Z</time>
      </trkpt>
      <trkpt lat="43.822243" lon="5.030764">
        <ele>80.23289</ele>
        <time>2021-06-30T17:24:28Z</time>
      </trkpt>
      <trkpt lat="43.822136" lon="5.030700">
        <ele>80.16953</ele>
        <time>2021-06-30T17:24:29Z</time>
      </trkpt>
      <trkpt lat="43.822048" lon="5.030588">
        <ele>79.82152</ele>
        <time>2021-06-30T17:24:30Z</time>
      </trkpt>
      <trkpt lat="43.822006" lon="5.030463">
        <ele>79.40950</ele>
        <time>2021-06-30T17:24:31Z</time>
      </trkpt>
      <trkpt lat="43.821999" lon="5.030333">
        <ele>79.13036</ele>
        <time>2021-06-30T17:24:32Z</time>
      </trkpt>
      <trkpt lat="43.822018" lon="5.030209">
        <ele>78.84232</ele>
        <time>2021-06-30T17:24:33Z</time>
      </trkpt>
      <trkpt lat="43.822063" lon="5.030088">
        <ele>78.62909</ele>
        <time>2021-06-30T17:24:34Z</time>
      </trkpt>
      <trkpt lat="43.822128" lon="5.029981">
        <ele>78.23431</ele>
        <time>2021-06-30T17:24:35Z</time>
      </trkpt>
      <trkpt lat="43.822128" lon="5.029981">
        <ele>78.53974</ele>
        <time>2021-06-30T17:24:36Z</time>
      </trkpt>
      <trkpt lat="43.822227" lon="5.029897">
        <ele>78.60500</ele>
        <time>2021-06-30T17:24:37Z</time>
      </trkpt>
      <trkpt lat="43.822338" lon="5.029837">
        <ele>77.20001</ele>
        <time>2021-06-30T17:24:38Z</time>
      </trkpt>
      <trkpt lat="43.822487" lon="5.029757">
        <ele>77.06818</ele>
        <time>2021-06-30T17:24:39Z</time>
      </trkpt>
      <trkpt lat="43.822651" lon="5.029676">
        <ele>77.22675</ele>
        <time>2021-06-30T17:24:40Z</time>
      </trkpt>
      <trkpt lat="43.822781" lon="5.029616">
        <ele>77.11975</ele>
        <time>2021-06-30T17:24:41Z</time>
      </trkpt>
      <trkpt lat="43.822880" lon="5.029570">
        <ele>77.15582</ele>
        <time>2021-06-30T17:24:42Z</time>
      </trkpt>
      <trkpt lat="43.823017" lon="5.029506">
        <ele>79.02426</ele>
        <time>2021-06-30T17:24:43Z</time>
      </trkpt>
      <trkpt lat="43.823128" lon="5.029457">
        <ele>78.89426</ele>
        <time>2021-06-30T17:24:44Z</time>
      </trkpt>
      <trkpt lat="43.823238" lon="5.029400">
        <ele>78.24110</ele>
        <time>2021-06-30T17:24:45Z</time>
      </trkpt>
      <trkpt lat="43.823238" lon="5.029400">
        <ele>78.10136</ele>
        <time>2021-06-30T17:24:46Z</time>
      </trkpt>
      <trkpt lat="43.823368" lon="5.029336">
        <ele>78.48270</ele>
        <time>2021-06-30T17:24:47Z</time>
      </trkpt>
      <trkpt lat="43.823471" lon="5.029282">
        <ele>77.07379</ele>
        <time>2021-06-30T17:24:48Z</time>
      </trkpt>
      <trkpt lat="43.823593" lon="5.029219">
        <ele>76.73254</ele>
        <time>2021-06-30T17:24:49Z</time>
      </trkpt>
      <trkpt lat="43.823711" lon="5.029160">
        <ele>76.34167</ele>
        <time>2021-06-30T17:24:50Z</time>
      </trkpt>
      <trkpt lat="43.823833" lon="5.029098">
        <ele>76.33612</ele>
        <time>2021-06-30T17:24:51Z</time>
      </trkpt>
      <trkpt lat="43.823975" lon="5.029024">
        <ele>76.28680</ele>
        <time>2021-06-30T17:24:52Z</time>
      </trkpt>
      <trkpt lat="43.824100" lon="5.028957">
        <ele>78.20654</ele>
        <time>2021-06-30T17:24:53Z</time>
      </trkpt>
      <trkpt lat="43.824253" lon="5.028874">
        <ele>78.34682</ele>
        <time>2021-06-30T17:24:54Z</time>
      </trkpt>
      <trkpt lat="43.824375" lon="5.028808">
        <ele>76.68634</ele>
        <time>2021-06-30T17:24:55Z</time>
      </trkpt>
      <trkpt lat="43.824490" lon="5.028744">
        <ele>76.40692</ele>
        <time>2021-06-30T17:24:56Z</time>
      </trkpt>
      <trkpt lat="43.824646" lon="5.028660">
        <ele>75.88385</ele>
        <time>2021-06-30T17:24:57Z</time>
      </trkpt>
      <trkpt lat="43.824818" lon="5.028587">
        <ele>75.15594</ele>
        <time>2021-06-30T17:24:58Z</time>
      </trkpt>
      <trkpt lat="43.824963" lon="5.028573">
        <ele>75.69220</ele>
        <time>2021-06-30T17:24:59Z</time>
      </trkpt>
      <trkpt lat="43.825092" lon="5.028567">
        <ele>77.45648</ele>
        <time>2021-06-30T17:25:00Z</time>
      </trkpt>
      <trkpt lat="43.825092" lon="5.028567">
        <ele>77.29438</ele>
        <time>2021-06-30T17:25:01Z</time>
      </trkpt>
      <trkpt lat="43.825268" lon="5.028665">
        <ele>77.58537</ele>
        <time>2021-06-30T17:25:02Z</time>
      </trkpt>
      <trkpt lat="43.825405" lon="5.028742">
        <ele>77.62474</ele>
        <time>2021-06-30T17:25:03Z</time>
      </trkpt>
      <trkpt lat="43.825542" lon="5.028875">
        <ele>76.46698</ele>
        <time>2021-06-30T17:25:04Z</time>
      </trkpt>
      <trkpt lat="43.825626" lon="5.028984">
        <ele>76.41492</ele>
        <time>2021-06-30T17:25:05Z</time>
      </trkpt>
      <trkpt lat="43.825695" lon="5.029041">
        <ele>76.43445</ele>
        <time>2021-06-30T17:25:06Z</time>
      </trkpt>
      <trkpt lat="43.825813" lon="5.029252">
        <ele>77.17438</ele>
        <time>2021-06-30T17:25:07Z</time>
      </trkpt>
      <trkpt lat="43.825897" lon="5.029400">
        <ele>77.29907</ele>
        <time>2021-06-30T17:25:08Z</time>
      </trkpt>
      <trkpt lat="43.825985" lon="5.029550">
        <ele>77.70117</ele>
        <time>2021-06-30T17:25:09Z</time>
      </trkpt>
      <trkpt lat="43.826057" lon="5.029685">
        <ele>78.26648</ele>
        <time>2021-06-30T17:25:10Z</time>
      </trkpt>
      <trkpt lat="43.826122" lon="5.029804">
        <ele>78.12788</ele>
        <time>2021-06-30T17:25:11Z</time>
      </trkpt>
      <trkpt lat="43.826122" lon="5.029804">
        <ele>78.44247</ele>
        <time>2021-06-30T17:25:12Z</time>
      </trkpt>
      <trkpt lat="43.826195" lon="5.029937">
        <ele>79.03047</ele>
        <time>2021-06-30T17:25:13Z</time>
      </trkpt>
      <trkpt lat="43.826271" lon="5.030076">
        <ele>79.40672</ele>
        <time>2021-06-30T17:25:14Z</time>
      </trkpt>
      <trkpt lat="43.826351" lon="5.030228">
        <ele>79.09858</ele>
        <time>2021-06-30T17:25:15Z</time>
      </trkpt>
      <trkpt lat="43.826427" lon="5.030358">
        <ele>79.36932</ele>
        <time>2021-06-30T17:25:16Z</time>
      </trkpt>
      <trkpt lat="43.826504" lon="5.030497">
        <ele>79.86925</ele>
        <time>2021-06-30T17:25:17Z</time>
      </trkpt>
      <trkpt lat="43.826576" lon="5.030626">
        <ele>79.86726</ele>
        <time>2021-06-30T17:25:18Z</time>
      </trkpt>
      <trkpt lat="43.826653" lon="5.030758">
        <ele>80.28772</ele>
        <time>2021-06-30T17:25:19Z</time>
      </trkpt>
      <trkpt lat="43.826714" lon="5.030870">
        <ele>80.30420</ele>
        <time>2021-06-30T17:25:20Z</time>
      </trkpt>
      <trkpt lat="43.826782" lon="5.030990">
        <ele>79.23003</ele>
        <time>2021-06-30T17:25:21Z</time>
      </trkpt>
      <trkpt lat="43.826855" lon="5.031119">
        <ele>80.31073</ele>
        <time>2021-06-30T17:25:22Z</time>
      </trkpt>
      <trkpt lat="43.826931" lon="5.031254">
        <ele>80.57367</ele>
        <time>2021-06-30T17:25:23Z</time>
      </trkpt>
      <trkpt lat="43.826931" lon="5.031254">
        <ele>80.88428</ele>
        <time>2021-06-30T17:25:24Z</time>
      </trkpt>
      <trkpt lat="43.827003" lon="5.031384">
        <ele>80.80774</ele>
        <time>2021-06-30T17:25:25Z</time>
      </trkpt>
      <trkpt lat="43.827091" lon="5.031540">
        <ele>80.50061</ele>
        <time>2021-06-30T17:25:26Z</time>
      </trkpt>
      <trkpt lat="43.827175" lon="5.031685">
        <ele>78.51310</ele>
        <time>2021-06-30T17:25:27Z</time>
      </trkpt>
      <trkpt lat="43.827255" lon="5.031827">
        <ele>79.74475</ele>
        <time>2021-06-30T17:25:28Z</time>
      </trkpt>
      <trkpt lat="43.827347" lon="5.031990">
        <ele>79.69025</ele>
        <time>2021-06-30T17:25:29Z</time>
      </trkpt>
      <trkpt lat="43.827446" lon="5.032167">
        <ele>79.52222</ele>
        <time>2021-06-30T17:25:30Z</time>
      </trkpt>
      <trkpt lat="43.827538" lon="5.032328">
        <ele>78.99255</ele>
        <time>2021-06-30T17:25:31Z</time>
      </trkpt>
      <trkpt lat="43.827610" lon="5.032457">
        <ele>77.90419</ele>
        <time>2021-06-30T17:25:32Z</time>
      </trkpt>
      <trkpt lat="43.827652" lon="5.032532">
        <ele>76.66873</ele>
        <time>2021-06-30T17:25:33Z</time>
      </trkpt>
      <trkpt lat="43.827686" lon="5.032592">
        <ele>76.40235</ele>
        <time>2021-06-30T17:25:34Z</time>
      </trkpt>
      <trkpt lat="43.827686" lon="5.032592">
        <ele>76.62238</ele>
        <time>2021-06-30T17:25:35Z</time>
      </trkpt>
      <trkpt lat="43.827705" lon="5.032644">
        <ele>76.14765</ele>
        <time>2021-06-30T17:25:36Z</time>
      </trkpt>
      <trkpt lat="43.827713" lon="5.032756">
        <ele>76.02768</ele>
        <time>2021-06-30T17:25:37Z</time>
      </trkpt>
      <trkpt lat="43.827705" lon="5.032865">
        <ele>75.78301</ele>
        <time>2021-06-30T17:25:38Z</time>
      </trkpt>
      <trkpt lat="43.827702" lon="5.032970">
        <ele>75.71709</ele>
        <time>2021-06-30T17:25:39Z</time>
      </trkpt>
      <trkpt lat="43.827698" lon="5.033051">
        <ele>75.51470</ele>
        <time>2021-06-30T17:25:40Z</time>
      </trkpt>
      <trkpt lat="43.827682" lon="5.033147">
        <ele>75.28008</ele>
        <time>2021-06-30T17:25:41Z</time>
      </trkpt>
      <trkpt lat="43.827656" lon="5.033262">
        <ele>75.26031</ele>
        <time>2021-06-30T17:25:42Z</time>
      </trkpt>
      <trkpt lat="43.827644" lon="5.033415">
        <ele>75.22698</ele>
        <time>2021-06-30T17:25:43Z</time>
      </trkpt>
      <trkpt lat="43.827637" lon="5.033554">
        <ele>74.73167</ele>
        <time>2021-06-30T17:25:44Z</time>
      </trkpt>
      <trkpt lat="43.827637" lon="5.033666">
        <ele>74.59412</ele>
        <time>2021-06-30T17:25:45Z</time>
      </trkpt>
      <trkpt lat="43.827663" lon="5.033799">
        <ele>74.32262</ele>
        <time>2021-06-30T17:25:46Z</time>
      </trkpt>
      <trkpt lat="43.827663" lon="5.033799">
        <ele>74.25484</ele>
        <time>2021-06-30T17:25:47Z</time>
      </trkpt>
      <trkpt lat="43.827698" lon="5.033878">
        <ele>74.13415</ele>
        <time>2021-06-30T17:25:48Z</time>
      </trkpt>
      <trkpt lat="43.827728" lon="5.033957">
        <ele>73.79470</ele>
        <time>2021-06-30T17:25:49Z</time>
      </trkpt>
      <trkpt lat="43.827709" lon="5.034034">
        <ele>74.03614</ele>
        <time>2021-06-30T17:25:50Z</time>
      </trkpt>
      <trkpt lat="43.827702" lon="5.034138">
        <ele>74.04242</ele>
        <time>2021-06-30T17:25:51Z</time>
      </trkpt>
      <trkpt lat="43.827721" lon="5.034275">
        <ele>73.87073</ele>
        <time>2021-06-30T17:25:52Z</time>
      </trkpt>
      <trkpt lat="43.827755" lon="5.034372">
        <ele>73.99054</ele>
        <time>2021-06-30T17:25:53Z</time>
      </trkpt>
      <trkpt lat="43.827835" lon="5.034435">
        <ele>73.65997</ele>
        <time>2021-06-30T17:25:54Z</time>
      </trkpt>
      <trkpt lat="43.827911" lon="5.034455">
        <ele>73.42116</ele>
        <time>2021-06-30T17:25:55Z</time>
      </trkpt>
      <trkpt lat="43.827957" lon="5.034452">
        <ele>73.40515</ele>
        <time>2021-06-30T17:25:56Z</time>
      </trkpt>
      <trkpt lat="43.828056" lon="5.034423">
        <ele>73.39040</ele>
        <time>2021-06-30T17:25:57Z</time>
      </trkpt>
      <trkpt lat="43.828117" lon="5.034388">
        <ele>73.58630</ele>
        <time>2021-06-30T17:25:58Z</time>
      </trkpt>
      <trkpt lat="43.828178" lon="5.034316">
        <ele>73.29852</ele>
        <time>2021-06-30T17:25:59Z</time>
      </trkpt>
      <trkpt lat="43.828209" lon="5.034209">
        <ele>72.87087</ele>
        <time>2021-06-30T17:26:00Z</time>
      </trkpt>
      <trkpt lat="43.828209" lon="5.034209">
        <ele>72.92570</ele>
        <time>2021-06-30T17:26:01Z</time>
      </trkpt>
      <trkpt lat="43.828217" lon="5.034130">
        <ele>73.06837</ele>
        <time>2021-06-30T17:26:02Z</time>
      </trkpt>
      <trkpt lat="43.828194" lon="5.033945">
        <ele>74.05719</ele>
        <time>2021-06-30T17:26:03Z</time>
      </trkpt>
      <trkpt lat="43.828133" lon="5.033848">
        <ele>74.19226</ele>
        <time>2021-06-30T17:26:04Z</time>
      </trkpt>
      <trkpt lat="43.828072" lon="5.033799">
        <ele>74.06134</ele>
        <time>2021-06-30T17:26:05Z</time>
      </trkpt>
      <trkpt lat="43.828007" lon="5.033768">
        <ele>73.88737</ele>
        <time>2021-06-30T17:26:06Z</time>
      </trkpt>
      <trkpt lat="43.828018" lon="5.033667">
        <ele>74.37848</ele>
        <time>2021-06-30T17:26:07Z</time>
      </trkpt>
      <trkpt lat="43.828053" lon="5.033341">
        <ele>74.30954</ele>
        <time>2021-06-30T17:26:08Z</time>
      </trkpt>
      <trkpt lat="43.828018" lon="5.033191">
        <ele>74.23572</ele>
        <time>2021-06-30T17:26:09Z</time>
      </trkpt>
      <trkpt lat="43.827984" lon="5.033059">
        <ele>74.14279</ele>
        <time>2021-06-30T17:26:10Z</time>
      </trkpt>
      <trkpt lat="43.827950" lon="5.032933">
        <ele>74.20687</ele>
        <time>2021-06-30T17:26:11Z</time>
      </trkpt>
      <trkpt lat="43.827915" lon="5.032767">
        <ele>74.39680</ele>
        <time>2021-06-30T17:26:12Z</time>
      </trkpt>
      <trkpt lat="43.827900" lon="5.032600">
        <ele>74.05663</ele>
        <time>2021-06-30T17:26:13Z</time>
      </trkpt>
      <trkpt lat="43.827892" lon="5.032426">
        <ele>74.26780</ele>
        <time>2021-06-30T17:26:14Z</time>
      </trkpt>
      <trkpt lat="43.827892" lon="5.032426">
        <ele>74.56385</ele>
        <time>2021-06-30T17:26:15Z</time>
      </trkpt>
      <trkpt lat="43.827919" lon="5.032224">
        <ele>74.25793</ele>
        <time>2021-06-30T17:26:16Z</time>
      </trkpt>
      <trkpt lat="43.827950" lon="5.032014">
        <ele>74.03859</ele>
        <time>2021-06-30T17:26:17Z</time>
      </trkpt>
      <trkpt lat="43.828033" lon="5.031812">
        <ele>74.17506</ele>
        <time>2021-06-30T17:26:18Z</time>
      </trkpt>
      <trkpt lat="43.828121" lon="5.031661">
        <ele>74.16092</ele>
        <time>2021-06-30T17:26:19Z</time>
      </trkpt>
      <trkpt lat="43.828224" lon="5.031510">
        <ele>73.89964</ele>
        <time>2021-06-30T17:26:20Z</time>
      </trkpt>
      <trkpt lat="43.828327" lon="5.031360">
        <ele>74.52989</ele>
        <time>2021-06-30T17:26:21Z</time>
      </trkpt>
      <trkpt lat="43.828426" lon="5.031207">
        <ele>74.31905</ele>
        <time>2021-06-30T17:26:22Z</time>
      </trkpt>
      <trkpt lat="43.828556" lon="5.031015">
        <ele>74.69121</ele>
        <time>2021-06-30T17:26:23Z</time>
      </trkpt>
      <trkpt lat="43.828678" lon="5.030828">
        <ele>74.73289</ele>
        <time>2021-06-30T17:26:24Z</time>
      </trkpt>
      <trkpt lat="43.828804" lon="5.030641">
        <ele>74.81924</ele>
        <time>2021-06-30T17:26:25Z</time>
      </trkpt>
      <trkpt lat="43.828804" lon="5.030641">
        <ele>74.59959</ele>
        <time>2021-06-30T17:26:26Z</time>
      </trkpt>
      <trkpt lat="43.828938" lon="5.030436">
        <ele>71.73230</ele>
        <time>2021-06-30T17:26:27Z</time>
      </trkpt>
      <trkpt lat="43.829090" lon="5.030209">
        <ele>71.40381</ele>
        <time>2021-06-30T17:26:28Z</time>
      </trkpt>
      <trkpt lat="43.829235" lon="5.029991">
        <ele>74.93692</ele>
        <time>2021-06-30T17:26:29Z</time>
      </trkpt>
      <trkpt lat="43.829369" lon="5.029791">
        <ele>74.54981</ele>
        <time>2021-06-30T17:26:30Z</time>
      </trkpt>
      <trkpt lat="43.829468" lon="5.029638">
        <ele>73.92759</ele>
        <time>2021-06-30T17:26:31Z</time>
      </trkpt>
      <trkpt lat="43.829582" lon="5.029467">
        <ele>73.84329</ele>
        <time>2021-06-30T17:26:32Z</time>
      </trkpt>
      <trkpt lat="43.829704" lon="5.029281">
        <ele>73.77866</ele>
        <time>2021-06-30T17:26:33Z</time>
      </trkpt>
      <trkpt lat="43.829819" lon="5.029107">
        <ele>73.69363</ele>
        <time>2021-06-30T17:26:34Z</time>
      </trkpt>
      <trkpt lat="43.829926" lon="5.028949">
        <ele>73.42621</ele>
        <time>2021-06-30T17:26:35Z</time>
      </trkpt>
      <trkpt lat="43.830032" lon="5.028792">
        <ele>73.04185</ele>
        <time>2021-06-30T17:26:36Z</time>
      </trkpt>
      <trkpt lat="43.830139" lon="5.028632">
        <ele>73.33963</ele>
        <time>2021-06-30T17:26:37Z</time>
      </trkpt>
      <trkpt lat="43.830238" lon="5.028497">
        <ele>73.19183</ele>
        <time>2021-06-30T17:26:38Z</time>
      </trkpt>
      <trkpt lat="43.830238" lon="5.028497">
        <ele>73.12311</ele>
        <time>2021-06-30T17:26:39Z</time>
      </trkpt>
      <trkpt lat="43.830334" lon="5.028379">
        <ele>72.02834</ele>
        <time>2021-06-30T17:26:40Z</time>
      </trkpt>
      <trkpt lat="43.830421" lon="5.028302">
        <ele>70.96300</ele>
        <time>2021-06-30T17:26:41Z</time>
      </trkpt>
      <trkpt lat="43.830467" lon="5.028261">
        <ele>70.79269</ele>
        <time>2021-06-30T17:26:42Z</time>
      </trkpt>
      <trkpt lat="43.830517" lon="5.028225">
        <ele>70.35357</ele>
        <time>2021-06-30T17:26:43Z</time>
      </trkpt>
      <trkpt lat="43.830570" lon="5.028191">
        <ele>70.04755</ele>
        <time>2021-06-30T17:26:44Z</time>
      </trkpt>
      <trkpt lat="43.830654" lon="5.028141">
        <ele>69.20026</ele>
        <time>2021-06-30T17:26:45Z</time>
      </trkpt>
      <trkpt lat="43.830715" lon="5.028206">
        <ele>68.98071</ele>
        <time>2021-06-30T17:26:46Z</time>
      </trkpt>
      <trkpt lat="43.830853" lon="5.028103">
        <ele>68.43530</ele>
        <time>2021-06-30T17:26:47Z</time>
      </trkpt>
      <trkpt lat="43.830845" lon="5.028058">
        <ele>68.70660</ele>
        <time>2021-06-30T17:26:48Z</time>
      </trkpt>
      <trkpt lat="43.830837" lon="5.028009">
        <ele>70.12987</ele>
        <time>2021-06-30T17:26:49Z</time>
      </trkpt>
      <trkpt lat="43.830872" lon="5.027894">
        <ele>71.30718</ele>
        <time>2021-06-30T17:26:50Z</time>
      </trkpt>
      <trkpt lat="43.830872" lon="5.027894">
        <ele>70.84052</ele>
        <time>2021-06-30T17:26:51Z</time>
      </trkpt>
      <trkpt lat="43.830967" lon="5.027720">
        <ele>71.68217</ele>
        <time>2021-06-30T17:26:52Z</time>
      </trkpt>
      <trkpt lat="43.831070" lon="5.027540">
        <ele>72.02309</ele>
        <time>2021-06-30T17:26:53Z</time>
      </trkpt>
      <trkpt lat="43.831181" lon="5.027350">
        <ele>72.54581</ele>
        <time>2021-06-30T17:26:54Z</time>
      </trkpt>
      <trkpt lat="43.831284" lon="5.027172">
        <ele>73.04578</ele>
        <time>2021-06-30T17:26:55Z</time>
      </trkpt>
      <trkpt lat="43.831387" lon="5.026993">
        <ele>73.00163</ele>
        <time>2021-06-30T17:26:56Z</time>
      </trkpt>
      <trkpt lat="43.831474" lon="5.026799">
        <ele>73.70030</ele>
        <time>2021-06-30T17:26:57Z</time>
      </trkpt>
      <trkpt lat="43.831600" lon="5.026582">
        <ele>73.42184</ele>
        <time>2021-06-30T17:26:58Z</time>
      </trkpt>
      <trkpt lat="43.831741" lon="5.026355">
        <ele>73.48454</ele>
        <time>2021-06-30T17:26:59Z</time>
      </trkpt>
      <trkpt lat="43.831860" lon="5.026164">
        <ele>73.81261</ele>
        <time>2021-06-30T17:27:00Z</time>
      </trkpt>
      <trkpt lat="43.831970" lon="5.025986">
        <ele>73.29735</ele>
        <time>2021-06-30T17:27:01Z</time>
      </trkpt>
      <trkpt lat="43.832104" lon="5.025776">
        <ele>71.08124</ele>
        <time>2021-06-30T17:27:02Z</time>
      </trkpt>
      <trkpt lat="43.832104" lon="5.025776">
        <ele>70.67822</ele>
        <time>2021-06-30T17:27:03Z</time>
      </trkpt>
      <trkpt lat="43.832237" lon="5.025558">
        <ele>70.78943</ele>
        <time>2021-06-30T17:27:04Z</time>
      </trkpt>
      <trkpt lat="43.832394" lon="5.025307">
        <ele>70.81024</ele>
        <time>2021-06-30T17:27:05Z</time>
      </trkpt>
      <trkpt lat="43.832638" lon="5.024917">
        <ele>70.90967</ele>
        <time>2021-06-30T17:27:06Z</time>
      </trkpt>
      <trkpt lat="43.832905" lon="5.024484">
        <ele>70.82281</ele>
        <time>2021-06-30T17:27:07Z</time>
      </trkpt>
      <trkpt lat="43.833130" lon="5.024122">
        <ele>70.62231</ele>
        <time>2021-06-30T17:27:08Z</time>
      </trkpt>
      <trkpt lat="43.833298" lon="5.023838">
        <ele>68.70532</ele>
        <time>2021-06-30T17:27:09Z</time>
      </trkpt>
      <trkpt lat="43.833496" lon="5.023509">
        <ele>68.71210</ele>
        <time>2021-06-30T17:27:10Z</time>
      </trkpt>
      <trkpt lat="43.833687" lon="5.023188">
        <ele>68.30432</ele>
        <time>2021-06-30T17:27:11Z</time>
      </trkpt>
      <trkpt lat="43.833897" lon="5.022840">
        <ele>68.85718</ele>
        <time>2021-06-30T17:27:12Z</time>
      </trkpt>
      <trkpt lat="43.834084" lon="5.022527">
        <ele>68.73517</ele>
        <time>2021-06-30T17:27:13Z</time>
      </trkpt>
      <trkpt lat="43.834286" lon="5.022190">
        <ele>68.66394</ele>
        <time>2021-06-30T17:27:14Z</time>
      </trkpt>
      <trkpt lat="43.834465" lon="5.021886">
        <ele>69.27435</ele>
        <time>2021-06-30T17:27:15Z</time>
      </trkpt>
      <trkpt lat="43.834465" lon="5.021886">
        <ele>69.00726</ele>
        <time>2021-06-30T17:27:16Z</time>
      </trkpt>
      <trkpt lat="43.834671" lon="5.021546">
        <ele>69.31067</ele>
        <time>2021-06-30T17:27:17Z</time>
      </trkpt>
      <trkpt lat="43.834839" lon="5.021261">
        <ele>68.82758</ele>
        <time>2021-06-30T17:27:18Z</time>
      </trkpt>
      <trkpt lat="43.835030" lon="5.020947">
        <ele>68.59912</ele>
        <time>2021-06-30T17:27:19Z</time>
      </trkpt>
      <trkpt lat="43.835217" lon="5.020633">
        <ele>69.23877</ele>
        <time>2021-06-30T17:27:20Z</time>
      </trkpt>
      <trkpt lat="43.835384" lon="5.020350">
        <ele>69.36774</ele>
        <time>2021-06-30T17:27:21Z</time>
      </trkpt>
      <trkpt lat="43.835560" lon="5.020060">
        <ele>69.13599</ele>
        <time>2021-06-30T17:27:22Z</time>
      </trkpt>
      <trkpt lat="43.835732" lon="5.019838">
        <ele>69.17029</ele>
        <time>2021-06-30T17:27:23Z</time>
      </trkpt>
      <trkpt lat="43.835876" lon="5.019598">
        <ele>69.26581</ele>
        <time>2021-06-30T17:27:24Z</time>
      </trkpt>
      <trkpt lat="43.836048" lon="5.019315">
        <ele>69.14655</ele>
        <time>2021-06-30T17:27:25Z</time>
      </trkpt>
      <trkpt lat="43.836048" lon="5.019315">
        <ele>68.37207</ele>
        <time>2021-06-30T17:27:26Z</time>
      </trkpt>
      <trkpt lat="43.836208" lon="5.019051">
        <ele>68.63000</ele>
        <time>2021-06-30T17:27:27Z</time>
      </trkpt>
      <trkpt lat="43.836361" lon="5.018803">
        <ele>68.73120</ele>
        <time>2021-06-30T17:27:28Z</time>
      </trkpt>
      <trkpt lat="43.836548" lon="5.018494">
        <ele>68.30237</ele>
        <time>2021-06-30T17:27:29Z</time>
      </trkpt>
      <trkpt lat="43.836700" lon="5.018238">
        <ele>68.28986</ele>
        <time>2021-06-30T17:27:30Z</time>
      </trkpt>
      <trkpt lat="43.836838" lon="5.018013">
        <ele>68.59637</ele>
        <time>2021-06-30T17:27:31Z</time>
      </trkpt>
      <trkpt lat="43.836990" lon="5.017758">
        <ele>68.02460</ele>
        <time>2021-06-30T17:27:32Z</time>
      </trkpt>
      <trkpt lat="43.837135" lon="5.017518">
        <ele>68.15314</ele>
        <time>2021-06-30T17:27:33Z</time>
      </trkpt>
      <trkpt lat="43.837284" lon="5.017272">
        <ele>68.30365</ele>
        <time>2021-06-30T17:27:34Z</time>
      </trkpt>
      <trkpt lat="43.837448" lon="5.017005">
        <ele>68.02728</ele>
        <time>2021-06-30T17:27:35Z</time>
      </trkpt>
      <trkpt lat="43.837601" lon="5.016803">
        <ele>67.79443</ele>
        <time>2021-06-30T17:27:36Z</time>
      </trkpt>
      <trkpt lat="43.837734" lon="5.016625">
        <ele>67.38495</ele>
        <time>2021-06-30T17:27:37Z</time>
      </trkpt>
      <trkpt lat="43.837910" lon="5.016453">
        <ele>66.85461</ele>
        <time>2021-06-30T17:27:38Z</time>
      </trkpt>
      <trkpt lat="43.837910" lon="5.016453">
        <ele>66.69897</ele>
        <time>2021-06-30T17:27:39Z</time>
      </trkpt>
      <trkpt lat="43.838142" lon="5.016284">
        <ele>66.38354</ele>
        <time>2021-06-30T17:27:40Z</time>
      </trkpt>
      <trkpt lat="43.838356" lon="5.016184">
        <ele>66.82050</ele>
        <time>2021-06-30T17:27:41Z</time>
      </trkpt>
      <trkpt lat="43.838604" lon="5.016100">
        <ele>66.70728</ele>
        <time>2021-06-30T17:27:42Z</time>
      </trkpt>
      <trkpt lat="43.838875" lon="5.016056">
        <ele>66.73993</ele>
        <time>2021-06-30T17:27:43Z</time>
      </trkpt>
      <trkpt lat="43.839134" lon="5.016079">
        <ele>66.63763</ele>
        <time>2021-06-30T17:27:44Z</time>
      </trkpt>
      <trkpt lat="43.839329" lon="5.016099">
        <ele>66.25989</ele>
        <time>2021-06-30T17:27:45Z</time>
      </trkpt>
      <trkpt lat="43.839581" lon="5.016164">
        <ele>66.32910</ele>
        <time>2021-06-30T17:27:46Z</time>
      </trkpt>
      <trkpt lat="43.839787" lon="5.016244">
        <ele>65.77600</ele>
        <time>2021-06-30T17:27:47Z</time>
      </trkpt>
      <trkpt lat="43.839996" lon="5.016346">
        <ele>65.43256</ele>
        <time>2021-06-30T17:27:48Z</time>
      </trkpt>
      <trkpt lat="43.840229" lon="5.016465">
        <ele>65.41443</ele>
        <time>2021-06-30T17:27:49Z</time>
      </trkpt>
      <trkpt lat="43.840229" lon="5.016465">
        <ele>65.35095</ele>
        <time>2021-06-30T17:27:50Z</time>
      </trkpt>
      <trkpt lat="43.840477" lon="5.016566">
        <ele>65.26819</ele>
        <time>2021-06-30T17:27:51Z</time>
      </trkpt>
      <trkpt lat="43.840733" lon="5.016665">
        <ele>65.50677</ele>
        <time>2021-06-30T17:27:52Z</time>
      </trkpt>
      <trkpt lat="43.840969" lon="5.016751">
        <ele>65.78796</ele>
        <time>2021-06-30T17:27:53Z</time>
      </trkpt>
      <trkpt lat="43.841217" lon="5.016830">
        <ele>66.33441</ele>
        <time>2021-06-30T17:27:54Z</time>
      </trkpt>
      <trkpt lat="43.841457" lon="5.016895">
        <ele>66.77734</ele>
        <time>2021-06-30T17:27:55Z</time>
      </trkpt>
      <trkpt lat="43.841663" lon="5.016885">
        <ele>67.28052</ele>
        <time>2021-06-30T17:27:56Z</time>
      </trkpt>
      <trkpt lat="43.841934" lon="5.016895">
        <ele>67.76495</ele>
        <time>2021-06-30T17:27:57Z</time>
      </trkpt>
      <trkpt lat="43.842186" lon="5.016899">
        <ele>67.20825</ele>
        <time>2021-06-30T17:27:58Z</time>
      </trkpt>
      <trkpt lat="43.842403" lon="5.016897">
        <ele>67.33685</ele>
        <time>2021-06-30T17:27:59Z</time>
      </trkpt>
      <trkpt lat="43.842598" lon="5.016895">
        <ele>68.46887</ele>
        <time>2021-06-30T17:28:00Z</time>
      </trkpt>
      <trkpt lat="43.842773" lon="5.016887">
        <ele>68.53638</ele>
        <time>2021-06-30T17:28:01Z</time>
      </trkpt>
      <trkpt lat="43.842957" lon="5.016867">
        <ele>67.67444</ele>
        <time>2021-06-30T17:28:02Z</time>
      </trkpt>
      <trkpt lat="43.843143" lon="5.016847">
        <ele>67.41376</ele>
        <time>2021-06-30T17:28:03Z</time>
      </trkpt>
      <trkpt lat="43.843143" lon="5.016847">
        <ele>67.95087</ele>
        <time>2021-06-30T17:28:04Z</time>
      </trkpt>
      <trkpt lat="43.843361" lon="5.016823">
        <ele>68.10004</ele>
        <time>2021-06-30T17:28:05Z</time>
      </trkpt>
      <trkpt lat="43.843567" lon="5.016800">
        <ele>67.98749</ele>
        <time>2021-06-30T17:28:06Z</time>
      </trkpt>
      <trkpt lat="43.843796" lon="5.016791">
        <ele>68.28949</ele>
        <time>2021-06-30T17:28:07Z</time>
      </trkpt>
      <trkpt lat="43.844002" lon="5.016782">
        <ele>67.90576</ele>
        <time>2021-06-30T17:28:08Z</time>
      </trkpt>
      <trkpt lat="43.844219" lon="5.016773">
        <ele>67.94147</ele>
        <time>2021-06-30T17:28:09Z</time>
      </trkpt>
      <trkpt lat="43.844421" lon="5.016796">
        <ele>67.39526</ele>
        <time>2021-06-30T17:28:10Z</time>
      </trkpt>
      <trkpt lat="43.844639" lon="5.016820">
        <ele>67.58081</ele>
        <time>2021-06-30T17:28:11Z</time>
      </trkpt>
      <trkpt lat="43.844849" lon="5.016837">
        <ele>67.81201</ele>
        <time>2021-06-30T17:28:12Z</time>
      </trkpt>
      <trkpt lat="43.845055" lon="5.016843">
        <ele>67.71448</ele>
        <time>2021-06-30T17:28:13Z</time>
      </trkpt>
      <trkpt lat="43.845284" lon="5.016846">
        <ele>67.70050</ele>
        <time>2021-06-30T17:28:14Z</time>
      </trkpt>
      <trkpt lat="43.845516" lon="5.016868">
        <ele>67.05444</ele>
        <time>2021-06-30T17:28:15Z</time>
      </trkpt>
      <trkpt lat="43.845741" lon="5.016894">
        <ele>66.69037</ele>
        <time>2021-06-30T17:28:16Z</time>
      </trkpt>
      <trkpt lat="43.845741" lon="5.016894">
        <ele>66.47650</ele>
        <time>2021-06-30T17:28:17Z</time>
      </trkpt>
      <trkpt lat="43.845982" lon="5.016921">
        <ele>67.57996</ele>
        <time>2021-06-30T17:28:18Z</time>
      </trkpt>
      <trkpt lat="43.846172" lon="5.016975">
        <ele>67.23212</ele>
        <time>2021-06-30T17:28:19Z</time>
      </trkpt>
      <trkpt lat="43.846355" lon="5.017032">
        <ele>67.13757</ele>
        <time>2021-06-30T17:28:20Z</time>
      </trkpt>
      <trkpt lat="43.846554" lon="5.017089">
        <ele>67.58301</ele>
        <time>2021-06-30T17:28:21Z</time>
      </trkpt>
      <trkpt lat="43.846790" lon="5.017158">
        <ele>66.74957</ele>
        <time>2021-06-30T17:28:22Z</time>
      </trkpt>
      <trkpt lat="43.847050" lon="5.017216">
        <ele>66.66040</ele>
        <time>2021-06-30T17:28:23Z</time>
      </trkpt>
      <trkpt lat="43.847282" lon="5.017211">
        <ele>66.85785</ele>
        <time>2021-06-30T17:28:24Z</time>
      </trkpt>
      <trkpt lat="43.847519" lon="5.017210">
        <ele>66.99475</ele>
        <time>2021-06-30T17:28:25Z</time>
      </trkpt>
      <trkpt lat="43.847755" lon="5.017213">
        <ele>66.81873</ele>
        <time>2021-06-30T17:28:26Z</time>
      </trkpt>
      <trkpt lat="43.848000" lon="5.017194">
        <ele>66.61481</ele>
        <time>2021-06-30T17:28:27Z</time>
      </trkpt>
      <trkpt lat="43.848000" lon="5.017194">
        <ele>66.05750</ele>
        <time>2021-06-30T17:28:28Z</time>
      </trkpt>
      <trkpt lat="43.848225" lon="5.017168">
        <ele>66.17712</ele>
        <time>2021-06-30T17:28:29Z</time>
      </trkpt>
      <trkpt lat="43.848434" lon="5.017134">
        <ele>66.44000</ele>
        <time>2021-06-30T17:28:30Z</time>
      </trkpt>
      <trkpt lat="43.848633" lon="5.017079">
        <ele>66.35785</ele>
        <time>2021-06-30T17:28:31Z</time>
      </trkpt>
      <trkpt lat="43.848831" lon="5.017011">
        <ele>63.35418</ele>
        <time>2021-06-30T17:28:32Z</time>
      </trkpt>
      <trkpt lat="43.849030" lon="5.016944">
        <ele>63.71774</ele>
        <time>2021-06-30T17:28:33Z</time>
      </trkpt>
      <trkpt lat="43.849220" lon="5.016878">
        <ele>63.18899</ele>
        <time>2021-06-30T17:28:34Z</time>
      </trkpt>
      <trkpt lat="43.849392" lon="5.016820">
        <ele>63.10489</ele>
        <time>2021-06-30T17:28:35Z</time>
      </trkpt>
      <trkpt lat="43.849556" lon="5.016773">
        <ele>63.58989</ele>
        <time>2021-06-30T17:28:36Z</time>
      </trkpt>
      <trkpt lat="43.849731" lon="5.016750">
        <ele>63.66100</ele>
        <time>2021-06-30T17:28:37Z</time>
      </trkpt>
      <trkpt lat="43.849731" lon="5.016750">
        <ele>64.20030</ele>
        <time>2021-06-30T17:28:38Z</time>
      </trkpt>
      <trkpt lat="43.849899" lon="5.016747">
        <ele>65.14049</ele>
        <time>2021-06-30T17:28:39Z</time>
      </trkpt>
      <trkpt lat="43.850044" lon="5.016788">
        <ele>64.53314</ele>
        <time>2021-06-30T17:28:40Z</time>
      </trkpt>
      <trkpt lat="43.850193" lon="5.016895">
        <ele>65.17902</ele>
        <time>2021-06-30T17:28:41Z</time>
      </trkpt>
      <trkpt lat="43.850300" lon="5.017043">
        <ele>65.05213</ele>
        <time>2021-06-30T17:28:42Z</time>
      </trkpt>
      <trkpt lat="43.850388" lon="5.017215">
        <ele>64.80000</ele>
        <time>2021-06-30T17:28:43Z</time>
      </trkpt>
      <trkpt lat="43.850479" lon="5.017375">
        <ele>64.54224</ele>
        <time>2021-06-30T17:28:44Z</time>
      </trkpt>
      <trkpt lat="43.850510" lon="5.017508">
        <ele>64.41725</ele>
        <time>2021-06-30T17:28:45Z</time>
      </trkpt>
      <trkpt lat="43.850533" lon="5.017615">
        <ele>64.60497</ele>
        <time>2021-06-30T17:28:46Z</time>
      </trkpt>
      <trkpt lat="43.850552" lon="5.017690">
        <ele>64.83842</ele>
        <time>2021-06-30T17:28:47Z</time>
      </trkpt>
      <trkpt lat="43.850586" lon="5.017834">
        <ele>65.31856</ele>
        <time>2021-06-30T17:28:48Z</time>
      </trkpt>
      <trkpt lat="43.850613" lon="5.017974">
        <ele>65.66115</ele>
        <time>2021-06-30T17:28:49Z</time>
      </trkpt>
      <trkpt lat="43.850632" lon="5.018123">
        <ele>65.83829</ele>
        <time>2021-06-30T17:28:50Z</time>
      </trkpt>
      <trkpt lat="43.850639" lon="5.018273">
        <ele>66.08117</ele>
        <time>2021-06-30T17:28:51Z</time>
      </trkpt>
      <trkpt lat="43.850651" lon="5.018447">
        <ele>66.42657</ele>
        <time>2021-06-30T17:28:52Z</time>
      </trkpt>
      <trkpt lat="43.850651" lon="5.018447">
        <ele>67.50664</ele>
        <time>2021-06-30T17:28:53Z</time>
      </trkpt>
      <trkpt lat="43.850666" lon="5.018662">
        <ele>67.44971</ele>
        <time>2021-06-30T17:28:54Z</time>
      </trkpt>
      <trkpt lat="43.850681" lon="5.018906">
        <ele>67.77643</ele>
        <time>2021-06-30T17:28:55Z</time>
      </trkpt>
      <trkpt lat="43.850693" lon="5.019113">
        <ele>67.97245</ele>
        <time>2021-06-30T17:28:56Z</time>
      </trkpt>
      <trkpt lat="43.850704" lon="5.019360">
        <ele>68.59401</ele>
        <time>2021-06-30T17:28:57Z</time>
      </trkpt>
      <trkpt lat="43.850716" lon="5.019578">
        <ele>69.19096</ele>
        <time>2021-06-30T17:28:58Z</time>
      </trkpt>
      <trkpt lat="43.850727" lon="5.019831">
        <ele>69.72765</ele>
        <time>2021-06-30T17:28:59Z</time>
      </trkpt>
      <trkpt lat="43.850742" lon="5.020120">
        <ele>70.09131</ele>
        <time>2021-06-30T17:29:00Z</time>
      </trkpt>
      <trkpt lat="43.850750" lon="5.020413">
        <ele>73.20325</ele>
        <time>2021-06-30T17:29:01Z</time>
      </trkpt>
      <trkpt lat="43.850769" lon="5.020654">
        <ele>73.53619</ele>
        <time>2021-06-30T17:29:02Z</time>
      </trkpt>
      <trkpt lat="43.850800" lon="5.020878">
        <ele>74.15747</ele>
        <time>2021-06-30T17:29:03Z</time>
      </trkpt>
      <trkpt lat="43.850838" lon="5.021104">
        <ele>74.43054</ele>
        <time>2021-06-30T17:29:04Z</time>
      </trkpt>
      <trkpt lat="43.850838" lon="5.021104">
        <ele>74.50140</ele>
        <time>2021-06-30T17:29:05Z</time>
      </trkpt>
      <trkpt lat="43.850868" lon="5.021273">
        <ele>74.60962</ele>
        <time>2021-06-30T17:29:06Z</time>
      </trkpt>
      <trkpt lat="43.850895" lon="5.021354">
        <ele>70.80962</ele>
        <time>2021-06-30T17:29:07Z</time>
      </trkpt>
      <trkpt lat="43.850914" lon="5.021406">
        <ele>70.88239</ele>
        <time>2021-06-30T17:29:08Z</time>
      </trkpt>
      <trkpt lat="43.850922" lon="5.021563">
        <ele>71.05590</ele>
        <time>2021-06-30T17:29:09Z</time>
      </trkpt>
      <trkpt lat="43.850956" lon="5.021705">
        <ele>74.15259</ele>
        <time>2021-06-30T17:29:10Z</time>
      </trkpt>
      <trkpt lat="43.851032" lon="5.021876">
        <ele>74.74213</ele>
        <time>2021-06-30T17:29:11Z</time>
      </trkpt>
      <trkpt lat="43.851051" lon="5.022065">
        <ele>72.49827</ele>
        <time>2021-06-30T17:29:12Z</time>
      </trkpt>
      <trkpt lat="43.851093" lon="5.022340">
        <ele>72.64276</ele>
        <time>2021-06-30T17:29:13Z</time>
      </trkpt>
      <trkpt lat="43.851131" lon="5.022571">
        <ele>72.72572</ele>
        <time>2021-06-30T17:29:14Z</time>
      </trkpt>
      <trkpt lat="43.851131" lon="5.022571">
        <ele>74.73920</ele>
        <time>2021-06-30T17:29:15Z</time>
      </trkpt>
      <trkpt lat="43.851170" lon="5.022794">
        <ele>75.02332</ele>
        <time>2021-06-30T17:29:16Z</time>
      </trkpt>
      <trkpt lat="43.851196" lon="5.023010">
        <ele>75.23059</ele>
        <time>2021-06-30T17:29:17Z</time>
      </trkpt>
      <trkpt lat="43.851242" lon="5.023176">
        <ele>73.30379</ele>
        <time>2021-06-30T17:29:18Z</time>
      </trkpt>
      <trkpt lat="43.851284" lon="5.023404">
        <ele>73.17326</ele>
        <time>2021-06-30T17:29:19Z</time>
      </trkpt>
      <trkpt lat="43.851311" lon="5.023588">
        <ele>73.31759</ele>
        <time>2021-06-30T17:29:20Z</time>
      </trkpt>
      <trkpt lat="43.851353" lon="5.023837">
        <ele>73.54482</ele>
        <time>2021-06-30T17:29:21Z</time>
      </trkpt>
      <trkpt lat="43.851387" lon="5.024062">
        <ele>73.97609</ele>
        <time>2021-06-30T17:29:22Z</time>
      </trkpt>
      <trkpt lat="43.851418" lon="5.024260">
        <ele>75.95575</ele>
        <time>2021-06-30T17:29:23Z</time>
      </trkpt>
      <trkpt lat="43.851467" lon="5.024461">
        <ele>76.26880</ele>
        <time>2021-06-30T17:29:24Z</time>
      </trkpt>
      <trkpt lat="43.851540" lon="5.024651">
        <ele>76.23132</ele>
        <time>2021-06-30T17:29:25Z</time>
      </trkpt>
      <trkpt lat="43.851624" lon="5.024824">
        <ele>75.15593</ele>
        <time>2021-06-30T17:29:26Z</time>
      </trkpt>
      <trkpt lat="43.851624" lon="5.024824">
        <ele>74.84901</ele>
        <time>2021-06-30T17:29:27Z</time>
      </trkpt>
      <trkpt lat="43.851700" lon="5.024956">
        <ele>74.79073</ele>
        <time>2021-06-30T17:29:28Z</time>
      </trkpt>
      <trkpt lat="43.851776" lon="5.025070">
        <ele>75.30814</ele>
        <time>2021-06-30T17:29:29Z</time>
      </trkpt>
      <trkpt lat="43.851921" lon="5.025211">
        <ele>75.29944</ele>
        <time>2021-06-30T17:29:30Z</time>
      </trkpt>
      <trkpt lat="43.852089" lon="5.025356">
        <ele>74.75873</ele>
        <time>2021-06-30T17:29:31Z</time>
      </trkpt>
      <trkpt lat="43.852261" lon="5.025486">
        <ele>74.58435</ele>
        <time>2021-06-30T17:29:32Z</time>
      </trkpt>
      <trkpt lat="43.852386" lon="5.025566">
        <ele>74.00232</ele>
        <time>2021-06-30T17:29:33Z</time>
      </trkpt>
      <trkpt lat="43.852486" lon="5.025618">
        <ele>73.78961</ele>
        <time>2021-06-30T17:29:34Z</time>
      </trkpt>
      <trkpt lat="43.852570" lon="5.025662">
        <ele>74.21606</ele>
        <time>2021-06-30T17:29:35Z</time>
      </trkpt>
      <trkpt lat="43.852657" lon="5.025707">
        <ele>73.81238</ele>
        <time>2021-06-30T17:29:36Z</time>
      </trkpt>
      <trkpt lat="43.852734" lon="5.025746">
        <ele>69.96821</ele>
        <time>2021-06-30T17:29:37Z</time>
      </trkpt>
      <trkpt lat="43.852779" lon="5.025772">
        <ele>69.63783</ele>
        <time>2021-06-30T17:29:38Z</time>
      </trkpt>
      <trkpt lat="43.852821" lon="5.025805">
        <ele>69.78471</ele>
        <time>2021-06-30T17:29:39Z</time>
      </trkpt>
      <trkpt lat="43.852821" lon="5.025805">
        <ele>69.67765</ele>
        <time>2021-06-30T17:29:40Z</time>
      </trkpt>
      <trkpt lat="43.852791" lon="5.026042">
        <ele>69.70370</ele>
        <time>2021-06-30T17:29:41Z</time>
      </trkpt>
      <trkpt lat="43.852833" lon="5.026243">
        <ele>72.49677</ele>
        <time>2021-06-30T17:29:42Z</time>
      </trkpt>
      <trkpt lat="43.852913" lon="5.026335">
        <ele>73.10126</ele>
        <time>2021-06-30T17:29:43Z</time>
      </trkpt>
      <trkpt lat="43.852970" lon="5.026377">
        <ele>73.30573</ele>
        <time>2021-06-30T17:29:44Z</time>
      </trkpt>
      <trkpt lat="43.853085" lon="5.026382">
        <ele>73.17194</ele>
        <time>2021-06-30T17:29:45Z</time>
      </trkpt>
      <trkpt lat="43.853172" lon="5.026353">
        <ele>72.91113</ele>
        <time>2021-06-30T17:29:46Z</time>
      </trkpt>
      <trkpt lat="43.853275" lon="5.026351">
        <ele>73.12823</ele>
        <time>2021-06-30T17:29:47Z</time>
      </trkpt>
      <trkpt lat="43.853409" lon="5.026381">
        <ele>70.90382</ele>
        <time>2021-06-30T17:29:48Z</time>
      </trkpt>
      <trkpt lat="43.853554" lon="5.026488">
        <ele>70.54896</ele>
        <time>2021-06-30T17:29:49Z</time>
      </trkpt>
      <trkpt lat="43.853683" lon="5.026583">
        <ele>70.03001</ele>
        <time>2021-06-30T17:29:50Z</time>
      </trkpt>
      <trkpt lat="43.853806" lon="5.026672">
        <ele>70.58937</ele>
        <time>2021-06-30T17:29:51Z</time>
      </trkpt>
      <trkpt lat="43.853897" lon="5.026814">
        <ele>72.28699</ele>
        <time>2021-06-30T17:29:52Z</time>
      </trkpt>
      <trkpt lat="43.853897" lon="5.026814">
        <ele>70.45100</ele>
        <time>2021-06-30T17:29:53Z</time>
      </trkpt>
      <trkpt lat="43.853977" lon="5.027015">
        <ele>70.43665</ele>
        <time>2021-06-30T17:29:54Z</time>
      </trkpt>
      <trkpt lat="43.854042" lon="5.027207">
        <ele>70.57732</ele>
        <time>2021-06-30T17:29:55Z</time>
      </trkpt>
      <trkpt lat="43.854092" lon="5.027442">
        <ele>70.56282</ele>
        <time>2021-06-30T17:29:56Z</time>
      </trkpt>
      <trkpt lat="43.854126" lon="5.027685">
        <ele>70.27226</ele>
        <time>2021-06-30T17:29:57Z</time>
      </trkpt>
      <trkpt lat="43.854134" lon="5.027962">
        <ele>70.26270</ele>
        <time>2021-06-30T17:29:58Z</time>
      </trkpt>
      <trkpt lat="43.854126" lon="5.028243">
        <ele>71.18201</ele>
        <time>2021-06-30T17:29:59Z</time>
      </trkpt>
      <trkpt lat="43.854099" lon="5.028513">
        <ele>71.41699</ele>
        <time>2021-06-30T17:30:00Z</time>
      </trkpt>
      <trkpt lat="43.854065" lon="5.028795">
        <ele>71.50958</ele>
        <time>2021-06-30T17:30:01Z</time>
      </trkpt>
      <trkpt lat="43.854027" lon="5.029098">
        <ele>71.53345</ele>
        <time>2021-06-30T17:30:02Z</time>
      </trkpt>
      <trkpt lat="43.853977" lon="5.029383">
        <ele>71.60132</ele>
        <time>2021-06-30T17:30:03Z</time>
      </trkpt>
      <trkpt lat="43.853928" lon="5.029684">
        <ele>71.84717</ele>
        <time>2021-06-30T17:30:04Z</time>
      </trkpt>
      <trkpt lat="43.853878" lon="5.030008">
        <ele>71.51306</ele>
        <time>2021-06-30T17:30:05Z</time>
      </trkpt>
      <trkpt lat="43.853878" lon="5.030008">
        <ele>71.66864</ele>
        <time>2021-06-30T17:30:06Z</time>
      </trkpt>
      <trkpt lat="43.853832" lon="5.030375">
        <ele>71.95349</ele>
        <time>2021-06-30T17:30:07Z</time>
      </trkpt>
      <trkpt lat="43.853794" lon="5.030689">
        <ele>71.78510</ele>
        <time>2021-06-30T17:30:08Z</time>
      </trkpt>
      <trkpt lat="43.853706" lon="5.030969">
        <ele>71.18677</ele>
        <time>2021-06-30T17:30:09Z</time>
      </trkpt>
      <trkpt lat="43.853676" lon="5.031202">
        <ele>71.41754</ele>
        <time>2021-06-30T17:30:10Z</time>
      </trkpt>
      <trkpt lat="43.853638" lon="5.031492">
        <ele>71.46326</ele>
        <time>2021-06-30T17:30:11Z</time>
      </trkpt>
      <trkpt lat="43.853607" lon="5.031726">
        <ele>71.43213</ele>
        <time>2021-06-30T17:30:12Z</time>
      </trkpt>
      <trkpt lat="43.853573" lon="5.031994">
        <ele>71.32666</ele>
        <time>2021-06-30T17:30:13Z</time>
      </trkpt>
      <trkpt lat="43.853539" lon="5.032225">
        <ele>70.58977</ele>
        <time>2021-06-30T17:30:14Z</time>
      </trkpt>
      <trkpt lat="43.853508" lon="5.032441">
        <ele>70.88220</ele>
        <time>2021-06-30T17:30:15Z</time>
      </trkpt>
      <trkpt lat="43.853485" lon="5.032670">
        <ele>71.08112</ele>
        <time>2021-06-30T17:30:16Z</time>
      </trkpt>
      <trkpt lat="43.853466" lon="5.032888">
        <ele>70.84970</ele>
        <time>2021-06-30T17:30:17Z</time>
      </trkpt>
      <trkpt lat="43.853466" lon="5.032888">
        <ele>71.12347</ele>
        <time>2021-06-30T17:30:18Z</time>
      </trkpt>
      <trkpt lat="43.853443" lon="5.033132">
        <ele>71.42133</ele>
        <time>2021-06-30T17:30:19Z</time>
      </trkpt>
      <trkpt lat="43.853416" lon="5.033419">
        <ele>71.87744</ele>
        <time>2021-06-30T17:30:20Z</time>
      </trkpt>
      <trkpt lat="43.853394" lon="5.033735">
        <ele>72.04126</ele>
        <time>2021-06-30T17:30:21Z</time>
      </trkpt>
      <trkpt lat="43.853386" lon="5.033993">
        <ele>72.03137</ele>
        <time>2021-06-30T17:30:22Z</time>
      </trkpt>
      <trkpt lat="43.853378" lon="5.034304">
        <ele>72.24713</ele>
        <time>2021-06-30T17:30:23Z</time>
      </trkpt>
      <trkpt lat="43.853363" lon="5.034618">
        <ele>72.52521</ele>
        <time>2021-06-30T17:30:24Z</time>
      </trkpt>
      <trkpt lat="43.853367" lon="5.034942">
        <ele>72.82104</ele>
        <time>2021-06-30T17:30:25Z</time>
      </trkpt>
      <trkpt lat="43.853382" lon="5.035210">
        <ele>73.61267</ele>
        <time>2021-06-30T17:30:26Z</time>
      </trkpt>
      <trkpt lat="43.853405" lon="5.035436">
        <ele>73.98413</ele>
        <time>2021-06-30T17:30:27Z</time>
      </trkpt>
      <trkpt lat="43.853428" lon="5.035691">
        <ele>74.13080</ele>
        <time>2021-06-30T17:30:28Z</time>
      </trkpt>
      <trkpt lat="43.853428" lon="5.035691">
        <ele>72.30461</ele>
        <time>2021-06-30T17:30:29Z</time>
      </trkpt>
      <trkpt lat="43.853401" lon="5.035930">
        <ele>72.42162</ele>
        <time>2021-06-30T17:30:30Z</time>
      </trkpt>
      <trkpt lat="43.853359" lon="5.036089">
        <ele>72.42846</ele>
        <time>2021-06-30T17:30:31Z</time>
      </trkpt>
      <trkpt lat="43.853268" lon="5.036254">
        <ele>72.27657</ele>
        <time>2021-06-30T17:30:32Z</time>
      </trkpt>
      <trkpt lat="43.853199" lon="5.036371">
        <ele>72.37647</ele>
        <time>2021-06-30T17:30:33Z</time>
      </trkpt>
      <trkpt lat="43.853168" lon="5.036421">
        <ele>72.45180</ele>
        <time>2021-06-30T17:30:34Z</time>
      </trkpt>
      <trkpt lat="43.853077" lon="5.036468">
        <ele>75.26385</ele>
        <time>2021-06-30T17:30:35Z</time>
      </trkpt>
      <trkpt lat="43.852970" lon="5.036495">
        <ele>75.52405</ele>
        <time>2021-06-30T17:30:36Z</time>
      </trkpt>
      <trkpt lat="43.852940" lon="5.036723">
        <ele>76.49731</ele>
        <time>2021-06-30T17:30:37Z</time>
      </trkpt>
      <trkpt lat="43.852978" lon="5.036839">
        <ele>76.77490</ele>
        <time>2021-06-30T17:30:38Z</time>
      </trkpt>
      <trkpt lat="43.853024" lon="5.036918">
        <ele>76.76770</ele>
        <time>2021-06-30T17:30:39Z</time>
      </trkpt>
      <trkpt lat="43.853024" lon="5.036918">
        <ele>77.07300</ele>
        <time>2021-06-30T17:30:40Z</time>
      </trkpt>
      <trkpt lat="43.853100" lon="5.036965">
        <ele>76.80328</ele>
        <time>2021-06-30T17:30:41Z</time>
      </trkpt>
      <trkpt lat="43.853214" lon="5.036941">
        <ele>75.15397</ele>
        <time>2021-06-30T17:30:42Z</time>
      </trkpt>
      <trkpt lat="43.853413" lon="5.037027">
        <ele>75.76326</ele>
        <time>2021-06-30T17:30:43Z</time>
      </trkpt>
      <trkpt lat="43.853588" lon="5.037252">
        <ele>76.81922</ele>
        <time>2021-06-30T17:30:44Z</time>
      </trkpt>
      <trkpt lat="43.853722" lon="5.037429">
        <ele>76.63351</ele>
        <time>2021-06-30T17:30:45Z</time>
      </trkpt>
      <trkpt lat="43.853848" lon="5.037595">
        <ele>77.22424</ele>
        <time>2021-06-30T17:30:46Z</time>
      </trkpt>
      <trkpt lat="43.854012" lon="5.037813">
        <ele>77.21381</ele>
        <time>2021-06-30T17:30:47Z</time>
      </trkpt>
      <trkpt lat="43.854153" lon="5.037997">
        <ele>77.41553</ele>
        <time>2021-06-30T17:30:48Z</time>
      </trkpt>
      <trkpt lat="43.854290" lon="5.038174">
        <ele>76.51526</ele>
        <time>2021-06-30T17:30:49Z</time>
      </trkpt>
      <trkpt lat="43.854385" lon="5.038328">
        <ele>76.29681</ele>
        <time>2021-06-30T17:30:50Z</time>
      </trkpt>
      <trkpt lat="43.854473" lon="5.038471">
        <ele>75.77808</ele>
        <time>2021-06-30T17:30:51Z</time>
      </trkpt>
      <trkpt lat="43.854546" lon="5.038619">
        <ele>75.77539</ele>
        <time>2021-06-30T17:30:52Z</time>
      </trkpt>
      <trkpt lat="43.854652" lon="5.038793">
        <ele>76.30688</ele>
        <time>2021-06-30T17:30:53Z</time>
      </trkpt>
      <trkpt lat="43.854652" lon="5.038793">
        <ele>76.11090</ele>
        <time>2021-06-30T17:30:54Z</time>
      </trkpt>
      <trkpt lat="43.854809" lon="5.038978">
        <ele>76.08594</ele>
        <time>2021-06-30T17:30:55Z</time>
      </trkpt>
      <trkpt lat="43.854946" lon="5.039109">
        <ele>75.02692</ele>
        <time>2021-06-30T17:30:56Z</time>
      </trkpt>
      <trkpt lat="43.855103" lon="5.039260">
        <ele>74.43427</ele>
        <time>2021-06-30T17:30:57Z</time>
      </trkpt>
      <trkpt lat="43.855240" lon="5.039347">
        <ele>73.86218</ele>
        <time>2021-06-30T17:30:58Z</time>
      </trkpt>
      <trkpt lat="43.855476" lon="5.039478">
        <ele>73.98737</ele>
        <time>2021-06-30T17:30:59Z</time>
      </trkpt>
      <trkpt lat="43.855686" lon="5.039546">
        <ele>73.93475</ele>
        <time>2021-06-30T17:31:00Z</time>
      </trkpt>
      <trkpt lat="43.855907" lon="5.039641">
        <ele>74.06036</ele>
        <time>2021-06-30T17:31:01Z</time>
      </trkpt>
      <trkpt lat="43.856071" lon="5.039706">
        <ele>73.88611</ele>
        <time>2021-06-30T17:31:02Z</time>
      </trkpt>
      <trkpt lat="43.856293" lon="5.039791">
        <ele>73.51288</ele>
        <time>2021-06-30T17:31:03Z</time>
      </trkpt>
      <trkpt lat="43.856510" lon="5.039876">
        <ele>73.36926</ele>
        <time>2021-06-30T17:31:04Z</time>
      </trkpt>
      <trkpt lat="43.856709" lon="5.039963">
        <ele>73.38171</ele>
        <time>2021-06-30T17:31:05Z</time>
      </trkpt>
      <trkpt lat="43.856915" lon="5.040055">
        <ele>73.47345</ele>
        <time>2021-06-30T17:31:06Z</time>
      </trkpt>
      <trkpt lat="43.857117" lon="5.040146">
        <ele>73.55011</ele>
        <time>2021-06-30T17:31:07Z</time>
      </trkpt>
      <trkpt lat="43.857300" lon="5.040226">
        <ele>73.64050</ele>
        <time>2021-06-30T17:31:08Z</time>
      </trkpt>
      <trkpt lat="43.857300" lon="5.040226">
        <ele>74.08655</ele>
        <time>2021-06-30T17:31:09Z</time>
      </trkpt>
      <trkpt lat="43.857533" lon="5.040326">
        <ele>73.70746</ele>
        <time>2021-06-30T17:31:10Z</time>
      </trkpt>
      <trkpt lat="43.857758" lon="5.040423">
        <ele>73.06165</ele>
        <time>2021-06-30T17:31:11Z</time>
      </trkpt>
      <trkpt lat="43.857960" lon="5.040511">
        <ele>72.89923</ele>
        <time>2021-06-30T17:31:12Z</time>
      </trkpt>
      <trkpt lat="43.858196" lon="5.040613">
        <ele>72.58099</ele>
        <time>2021-06-30T17:31:13Z</time>
      </trkpt>
      <trkpt lat="43.858414" lon="5.040707">
        <ele>72.65039</ele>
        <time>2021-06-30T17:31:14Z</time>
      </trkpt>
      <trkpt lat="43.858612" lon="5.040792">
        <ele>72.04919</ele>
        <time>2021-06-30T17:31:15Z</time>
      </trkpt>
      <trkpt lat="43.858868" lon="5.040903">
        <ele>72.47638</ele>
        <time>2021-06-30T17:31:16Z</time>
      </trkpt>
      <trkpt lat="43.859085" lon="5.040998">
        <ele>72.69238</ele>
        <time>2021-06-30T17:31:17Z</time>
      </trkpt>
      <trkpt lat="43.859303" lon="5.041093">
        <ele>73.45996</ele>
        <time>2021-06-30T17:31:18Z</time>
      </trkpt>
      <trkpt lat="43.859520" lon="5.041187">
        <ele>73.77551</ele>
        <time>2021-06-30T17:31:19Z</time>
      </trkpt>
      <trkpt lat="43.859520" lon="5.041187">
        <ele>73.53668</ele>
        <time>2021-06-30T17:31:20Z</time>
      </trkpt>
      <trkpt lat="43.859772" lon="5.041297">
        <ele>73.46594</ele>
        <time>2021-06-30T17:31:21Z</time>
      </trkpt>
      <trkpt lat="43.859966" lon="5.041381">
        <ele>73.02557</ele>
        <time>2021-06-30T17:31:22Z</time>
      </trkpt>
      <trkpt lat="43.860207" lon="5.041491">
        <ele>72.92706</ele>
        <time>2021-06-30T17:31:23Z</time>
      </trkpt>
      <trkpt lat="43.860409" lon="5.041586">
        <ele>72.15778</ele>
        <time>2021-06-30T17:31:24Z</time>
      </trkpt>
      <trkpt lat="43.860641" lon="5.041697">
        <ele>71.76428</ele>
        <time>2021-06-30T17:31:25Z</time>
      </trkpt>
      <trkpt lat="43.860889" lon="5.041813">
        <ele>71.64642</ele>
        <time>2021-06-30T17:31:26Z</time>
      </trkpt>
      <trkpt lat="43.861111" lon="5.041916">
        <ele>72.24316</ele>
        <time>2021-06-30T17:31:27Z</time>
      </trkpt>
      <trkpt lat="43.861320" lon="5.042016">
        <ele>72.20972</ele>
        <time>2021-06-30T17:31:28Z</time>
      </trkpt>
      <trkpt lat="43.861526" lon="5.042112">
        <ele>71.97363</ele>
        <time>2021-06-30T17:31:29Z</time>
      </trkpt>
      <trkpt lat="43.861526" lon="5.042112">
        <ele>72.02600</ele>
        <time>2021-06-30T17:31:30Z</time>
      </trkpt>
      <trkpt lat="43.861748" lon="5.042216">
        <ele>72.05426</ele>
        <time>2021-06-30T17:31:31Z</time>
      </trkpt>
      <trkpt lat="43.861965" lon="5.042321">
        <ele>72.82483</ele>
        <time>2021-06-30T17:31:32Z</time>
      </trkpt>
      <trkpt lat="43.862247" lon="5.042449">
        <ele>72.65076</ele>
        <time>2021-06-30T17:31:33Z</time>
      </trkpt>
      <trkpt lat="43.862499" lon="5.042566">
        <ele>71.87701</ele>
        <time>2021-06-30T17:31:34Z</time>
      </trkpt>
      <trkpt lat="43.862797" lon="5.042701">
        <ele>71.50018</ele>
        <time>2021-06-30T17:31:35Z</time>
      </trkpt>
      <trkpt lat="43.863026" lon="5.042804">
        <ele>71.54321</ele>
        <time>2021-06-30T17:31:36Z</time>
      </trkpt>
      <trkpt lat="43.863247" lon="5.042906">
        <ele>71.14966</ele>
        <time>2021-06-30T17:31:37Z</time>
      </trkpt>
      <trkpt lat="43.863411" lon="5.042979">
        <ele>71.03370</ele>
        <time>2021-06-30T17:31:38Z</time>
      </trkpt>
      <trkpt lat="43.863537" lon="5.043036">
        <ele>70.49082</ele>
        <time>2021-06-30T17:31:39Z</time>
      </trkpt>
      <trkpt lat="43.863609" lon="5.043070">
        <ele>69.97356</ele>
        <time>2021-06-30T17:31:40Z</time>
      </trkpt>
      <trkpt lat="43.863686" lon="5.043104">
        <ele>69.33554</ele>
        <time>2021-06-30T17:31:41Z</time>
      </trkpt>
      <trkpt lat="43.863773" lon="5.043138">
        <ele>68.65918</ele>
        <time>2021-06-30T17:31:42Z</time>
      </trkpt>
      <trkpt lat="43.863922" lon="5.043186">
        <ele>70.40281</ele>
        <time>2021-06-30T17:31:43Z</time>
      </trkpt>
      <trkpt lat="43.863922" lon="5.043186">
        <ele>70.93695</ele>
        <time>2021-06-30T17:31:44Z</time>
      </trkpt>
      <trkpt lat="43.864086" lon="5.043236">
        <ele>71.17572</ele>
        <time>2021-06-30T17:31:45Z</time>
      </trkpt>
      <trkpt lat="43.864384" lon="5.043305">
        <ele>71.74060</ele>
        <time>2021-06-30T17:31:46Z</time>
      </trkpt>
      <trkpt lat="43.864708" lon="5.043354">
        <ele>71.16071</ele>
        <time>2021-06-30T17:31:47Z</time>
      </trkpt>
      <trkpt lat="43.864960" lon="5.043366">
        <ele>70.98877</ele>
        <time>2021-06-30T17:31:48Z</time>
      </trkpt>
      <trkpt lat="43.865204" lon="5.043365">
        <ele>70.62628</ele>
        <time>2021-06-30T17:31:49Z</time>
      </trkpt>
      <trkpt lat="43.865505" lon="5.043334">
        <ele>70.10217</ele>
        <time>2021-06-30T17:31:50Z</time>
      </trkpt>
      <trkpt lat="43.865803" lon="5.043286">
        <ele>70.35229</ele>
        <time>2021-06-30T17:31:51Z</time>
      </trkpt>
      <trkpt lat="43.866074" lon="5.043210">
        <ele>70.09326</ele>
        <time>2021-06-30T17:31:52Z</time>
      </trkpt>
      <trkpt lat="43.866390" lon="5.043087">
        <ele>70.47107</ele>
        <time>2021-06-30T17:31:53Z</time>
      </trkpt>
      <trkpt lat="43.866676" lon="5.042948">
        <ele>71.26196</ele>
        <time>2021-06-30T17:31:54Z</time>
      </trkpt>
      <trkpt lat="43.866936" lon="5.042815">
        <ele>71.56635</ele>
        <time>2021-06-30T17:31:55Z</time>
      </trkpt>
      <trkpt lat="43.867203" lon="5.042680">
        <ele>71.62146</ele>
        <time>2021-06-30T17:31:56Z</time>
      </trkpt>
      <trkpt lat="43.867516" lon="5.042521">
        <ele>71.22388</ele>
        <time>2021-06-30T17:31:57Z</time>
      </trkpt>
      <trkpt lat="43.867767" lon="5.042393">
        <ele>71.20648</ele>
        <time>2021-06-30T17:31:58Z</time>
      </trkpt>
      <trkpt lat="43.868034" lon="5.042253">
        <ele>71.00433</ele>
        <time>2021-06-30T17:31:59Z</time>
      </trkpt>
      <trkpt lat="43.868286" lon="5.042118">
        <ele>70.69464</ele>
        <time>2021-06-30T17:32:00Z</time>
      </trkpt>
      <trkpt lat="43.868286" lon="5.042118">
        <ele>70.81421</ele>
        <time>2021-06-30T17:32:01Z</time>
      </trkpt>
      <trkpt lat="43.868584" lon="5.041963">
        <ele>70.61102</ele>
        <time>2021-06-30T17:32:02Z</time>
      </trkpt>
      <trkpt lat="43.868870" lon="5.041822">
        <ele>70.35846</ele>
        <time>2021-06-30T17:32:03Z</time>
      </trkpt>
      <trkpt lat="43.869102" lon="5.041711">
        <ele>70.48065</ele>
        <time>2021-06-30T17:32:04Z</time>
      </trkpt>
      <trkpt lat="43.869308" lon="5.041602">
        <ele>70.56140</ele>
        <time>2021-06-30T17:32:05Z</time>
      </trkpt>
      <trkpt lat="43.869545" lon="5.041476">
        <ele>69.72400</ele>
        <time>2021-06-30T17:32:06Z</time>
      </trkpt>
      <trkpt lat="43.869766" lon="5.041370">
        <ele>70.30804</ele>
        <time>2021-06-30T17:32:07Z</time>
      </trkpt>
      <trkpt lat="43.870014" lon="5.041256">
        <ele>69.59204</ele>
        <time>2021-06-30T17:32:08Z</time>
      </trkpt>
      <trkpt lat="43.870239" lon="5.041165">
        <ele>69.89386</ele>
        <time>2021-06-30T17:32:09Z</time>
      </trkpt>
      <trkpt lat="43.870476" lon="5.041070">
        <ele>70.15955</ele>
        <time>2021-06-30T17:32:10Z</time>
      </trkpt>
      <trkpt lat="43.870693" lon="5.040982">
        <ele>70.12177</ele>
        <time>2021-06-30T17:32:11Z</time>
      </trkpt>
      <trkpt lat="43.870911" lon="5.040898">
        <ele>69.70813</ele>
        <time>2021-06-30T17:32:12Z</time>
      </trkpt>
      <trkpt lat="43.871124" lon="5.040814">
        <ele>69.86066</ele>
        <time>2021-06-30T17:32:13Z</time>
      </trkpt>
      <trkpt lat="43.871349" lon="5.040724">
        <ele>69.45251</ele>
        <time>2021-06-30T17:32:14Z</time>
      </trkpt>
      <trkpt lat="43.871349" lon="5.040724">
        <ele>70.13812</ele>
        <time>2021-06-30T17:32:15Z</time>
      </trkpt>
      <trkpt lat="43.871548" lon="5.040646">
        <ele>69.68530</ele>
        <time>2021-06-30T17:32:16Z</time>
      </trkpt>
      <trkpt lat="43.871746" lon="5.040568">
        <ele>69.89081</ele>
        <time>2021-06-30T17:32:17Z</time>
      </trkpt>
      <trkpt lat="43.871975" lon="5.040486">
        <ele>69.70142</ele>
        <time>2021-06-30T17:32:18Z</time>
      </trkpt>
      <trkpt lat="43.872204" lon="5.040409">
        <ele>69.98346</ele>
        <time>2021-06-30T17:32:19Z</time>
      </trkpt>
      <trkpt lat="43.872402" lon="5.040335">
        <ele>70.03577</ele>
        <time>2021-06-30T17:32:20Z</time>
      </trkpt>
      <trkpt lat="43.872635" lon="5.040250">
        <ele>69.88062</ele>
        <time>2021-06-30T17:32:21Z</time>
      </trkpt>
      <trkpt lat="43.872860" lon="5.040173">
        <ele>70.77930</ele>
        <time>2021-06-30T17:32:22Z</time>
      </trkpt>
      <trkpt lat="43.873089" lon="5.040103">
        <ele>70.97198</ele>
        <time>2021-06-30T17:32:23Z</time>
      </trkpt>
      <trkpt lat="43.873356" lon="5.040009">
        <ele>70.57245</ele>
        <time>2021-06-30T17:32:24Z</time>
      </trkpt>
      <trkpt lat="43.873569" lon="5.039933">
        <ele>70.48157</ele>
        <time>2021-06-30T17:32:25Z</time>
      </trkpt>
      <trkpt lat="43.873569" lon="5.039933">
        <ele>70.24561</ele>
        <time>2021-06-30T17:32:26Z</time>
      </trkpt>
      <trkpt lat="43.873833" lon="5.039851">
        <ele>70.51086</ele>
        <time>2021-06-30T17:32:27Z</time>
      </trkpt>
      <trkpt lat="43.874077" lon="5.039791">
        <ele>70.63525</ele>
        <time>2021-06-30T17:32:28Z</time>
      </trkpt>
      <trkpt lat="43.874313" lon="5.039733">
        <ele>70.80121</ele>
        <time>2021-06-30T17:32:29Z</time>
      </trkpt>
      <trkpt lat="43.874569" lon="5.039667">
        <ele>70.31458</ele>
        <time>2021-06-30T17:32:30Z</time>
      </trkpt>
      <trkpt lat="43.874783" lon="5.039610">
        <ele>70.00171</ele>
        <time>2021-06-30T17:32:31Z</time>
      </trkpt>
      <trkpt lat="43.875038" lon="5.039543">
        <ele>68.91785</ele>
        <time>2021-06-30T17:32:32Z</time>
      </trkpt>
      <trkpt lat="43.875332" lon="5.039468">
        <ele>70.77264</ele>
        <time>2021-06-30T17:32:33Z</time>
      </trkpt>
      <trkpt lat="43.875587" lon="5.039403">
        <ele>72.67212</ele>
        <time>2021-06-30T17:32:34Z</time>
      </trkpt>
      <trkpt lat="43.875851" lon="5.039355">
        <ele>73.78052</ele>
        <time>2021-06-30T17:32:35Z</time>
      </trkpt>
      <trkpt lat="43.876064" lon="5.039318">
        <ele>74.83398</ele>
        <time>2021-06-30T17:32:36Z</time>
      </trkpt>
      <trkpt lat="43.876335" lon="5.039267">
        <ele>75.01147</ele>
        <time>2021-06-30T17:32:37Z</time>
      </trkpt>
      <trkpt lat="43.876598" lon="5.039231">
        <ele>74.56421</ele>
        <time>2021-06-30T17:32:38Z</time>
      </trkpt>
      <trkpt lat="43.876598" lon="5.039231">
        <ele>74.90424</ele>
        <time>2021-06-30T17:32:39Z</time>
      </trkpt>
      <trkpt lat="43.876850" lon="5.039208">
        <ele>74.42810</ele>
        <time>2021-06-30T17:32:40Z</time>
      </trkpt>
      <trkpt lat="43.877117" lon="5.039191">
        <ele>72.14435</ele>
        <time>2021-06-30T17:32:41Z</time>
      </trkpt>
      <trkpt lat="43.877365" lon="5.039176">
        <ele>70.23523</ele>
        <time>2021-06-30T17:32:42Z</time>
      </trkpt>
      <trkpt lat="43.877586" lon="5.039168">
        <ele>69.36078</ele>
        <time>2021-06-30T17:32:43Z</time>
      </trkpt>
      <trkpt lat="43.877808" lon="5.039159">
        <ele>68.51971</ele>
        <time>2021-06-30T17:32:44Z</time>
      </trkpt>
      <trkpt lat="43.878044" lon="5.039145">
        <ele>68.21143</ele>
        <time>2021-06-30T17:32:45Z</time>
      </trkpt>
      <trkpt lat="43.878223" lon="5.039134">
        <ele>67.01175</ele>
        <time>2021-06-30T17:32:46Z</time>
      </trkpt>
      <trkpt lat="43.878414" lon="5.039123">
        <ele>66.36620</ele>
        <time>2021-06-30T17:32:47Z</time>
      </trkpt>
      <trkpt lat="43.878544" lon="5.039115">
        <ele>65.50629</ele>
        <time>2021-06-30T17:32:48Z</time>
      </trkpt>
      <trkpt lat="43.878670" lon="5.039107">
        <ele>65.20499</ele>
        <time>2021-06-30T17:32:49Z</time>
      </trkpt>
      <trkpt lat="43.878792" lon="5.039099">
        <ele>65.07130</ele>
        <time>2021-06-30T17:32:50Z</time>
      </trkpt>
      <trkpt lat="43.878918" lon="5.039091">
        <ele>65.63525</ele>
        <time>2021-06-30T17:32:51Z</time>
      </trkpt>
      <trkpt lat="43.878918" lon="5.039091">
        <ele>65.64859</ele>
        <time>2021-06-30T17:32:52Z</time>
      </trkpt>
      <trkpt lat="43.879066" lon="5.039082">
        <ele>65.24250</ele>
        <time>2021-06-30T17:32:53Z</time>
      </trkpt>
      <trkpt lat="43.879211" lon="5.039074">
        <ele>65.82935</ele>
        <time>2021-06-30T17:32:54Z</time>
      </trkpt>
      <trkpt lat="43.879387" lon="5.039054">
        <ele>65.34940</ele>
        <time>2021-06-30T17:32:55Z</time>
      </trkpt>
      <trkpt lat="43.879562" lon="5.039035">
        <ele>65.85961</ele>
        <time>2021-06-30T17:32:56Z</time>
      </trkpt>
      <trkpt lat="43.879742" lon="5.039033">
        <ele>66.48015</ele>
        <time>2021-06-30T17:32:57Z</time>
      </trkpt>
      <trkpt lat="43.879955" lon="5.039041">
        <ele>67.00873</ele>
        <time>2021-06-30T17:32:58Z</time>
      </trkpt>
      <trkpt lat="43.880184" lon="5.039052">
        <ele>67.32977</ele>
        <time>2021-06-30T17:32:59Z</time>
      </trkpt>
      <trkpt lat="43.880417" lon="5.039088">
        <ele>67.56293</ele>
        <time>2021-06-30T17:33:00Z</time>
      </trkpt>
      <trkpt lat="43.880642" lon="5.039139">
        <ele>67.15228</ele>
        <time>2021-06-30T17:33:01Z</time>
      </trkpt>
      <trkpt lat="43.880852" lon="5.039213">
        <ele>67.18195</ele>
        <time>2021-06-30T17:33:02Z</time>
      </trkpt>
      <trkpt lat="43.880852" lon="5.039213">
        <ele>67.43286</ele>
        <time>2021-06-30T17:33:03Z</time>
      </trkpt>
      <trkpt lat="43.881054" lon="5.039302">
        <ele>67.36902</ele>
        <time>2021-06-30T17:33:04Z</time>
      </trkpt>
      <trkpt lat="43.881275" lon="5.039437">
        <ele>67.43060</ele>
        <time>2021-06-30T17:33:05Z</time>
      </trkpt>
      <trkpt lat="43.881493" lon="5.039571">
        <ele>66.79718</ele>
        <time>2021-06-30T17:33:06Z</time>
      </trkpt>
      <trkpt lat="43.881710" lon="5.039704">
        <ele>66.69281</ele>
        <time>2021-06-30T17:33:07Z</time>
      </trkpt>
      <trkpt lat="43.881924" lon="5.039835">
        <ele>66.52673</ele>
        <time>2021-06-30T17:33:08Z</time>
      </trkpt>
      <trkpt lat="43.882145" lon="5.039971">
        <ele>67.06317</ele>
        <time>2021-06-30T17:33:09Z</time>
      </trkpt>
      <trkpt lat="43.882339" lon="5.040090">
        <ele>67.09753</ele>
        <time>2021-06-30T17:33:10Z</time>
      </trkpt>
      <trkpt lat="43.882523" lon="5.040204">
        <ele>66.81488</ele>
        <time>2021-06-30T17:33:11Z</time>
      </trkpt>
      <trkpt lat="43.882740" lon="5.040340">
        <ele>66.79089</ele>
        <time>2021-06-30T17:33:12Z</time>
      </trkpt>
      <trkpt lat="43.882931" lon="5.040458">
        <ele>67.51544</ele>
        <time>2021-06-30T17:33:13Z</time>
      </trkpt>
      <trkpt lat="43.883137" lon="5.040583">
        <ele>68.07068</ele>
        <time>2021-06-30T17:33:14Z</time>
      </trkpt>
      <trkpt lat="43.883335" lon="5.040697">
        <ele>68.74384</ele>
        <time>2021-06-30T17:33:15Z</time>
      </trkpt>
      <trkpt lat="43.883560" lon="5.040817">
        <ele>69.01953</ele>
        <time>2021-06-30T17:33:16Z</time>
      </trkpt>
      <trkpt lat="43.883560" lon="5.040817">
        <ele>69.08691</ele>
        <time>2021-06-30T17:33:17Z</time>
      </trkpt>
      <trkpt lat="43.883793" lon="5.040917">
        <ele>68.68597</ele>
        <time>2021-06-30T17:33:18Z</time>
      </trkpt>
      <trkpt lat="43.884033" lon="5.041055">
        <ele>68.71887</ele>
        <time>2021-06-30T17:33:19Z</time>
      </trkpt>
      <trkpt lat="43.884251" lon="5.041149">
        <ele>68.52771</ele>
        <time>2021-06-30T17:33:20Z</time>
      </trkpt>
      <trkpt lat="43.884426" lon="5.041209">
        <ele>68.52106</ele>
        <time>2021-06-30T17:33:21Z</time>
      </trkpt>
      <trkpt lat="43.884590" lon="5.041263">
        <ele>68.35364</ele>
        <time>2021-06-30T17:33:22Z</time>
      </trkpt>
      <trkpt lat="43.884754" lon="5.041317">
        <ele>68.46289</ele>
        <time>2021-06-30T17:33:23Z</time>
      </trkpt>
      <trkpt lat="43.884926" lon="5.041364">
        <ele>68.31085</ele>
        <time>2021-06-30T17:33:24Z</time>
      </trkpt>
      <trkpt lat="43.885086" lon="5.041402">
        <ele>67.99414</ele>
        <time>2021-06-30T17:33:25Z</time>
      </trkpt>
      <trkpt lat="43.885269" lon="5.041445">
        <ele>67.52606</ele>
        <time>2021-06-30T17:33:26Z</time>
      </trkpt>
      <trkpt lat="43.885414" lon="5.041478">
        <ele>67.26251</ele>
        <time>2021-06-30T17:33:27Z</time>
      </trkpt>
      <trkpt lat="43.885548" lon="5.041508">
        <ele>67.15887</ele>
        <time>2021-06-30T17:33:28Z</time>
      </trkpt>
      <trkpt lat="43.885693" lon="5.041538">
        <ele>66.93921</ele>
        <time>2021-06-30T17:33:29Z</time>
      </trkpt>
      <trkpt lat="43.885822" lon="5.041564">
        <ele>67.34680</ele>
        <time>2021-06-30T17:33:30Z</time>
      </trkpt>
      <trkpt lat="43.885963" lon="5.041592">
        <ele>66.49597</ele>
        <time>2021-06-30T17:33:31Z</time>
      </trkpt>
      <trkpt lat="43.886127" lon="5.041624">
        <ele>66.27197</ele>
        <time>2021-06-30T17:33:32Z</time>
      </trkpt>
      <trkpt lat="43.886127" lon="5.041624">
        <ele>65.48785</ele>
        <time>2021-06-30T17:33:33Z</time>
      </trkpt>
      <trkpt lat="43.886265" lon="5.041652">
        <ele>65.54321</ele>
        <time>2021-06-30T17:33:34Z</time>
      </trkpt>
      <trkpt lat="43.886364" lon="5.041672">
        <ele>65.81665</ele>
        <time>2021-06-30T17:33:35Z</time>
      </trkpt>
      <trkpt lat="43.886486" lon="5.041697">
        <ele>66.08807</ele>
        <time>2021-06-30T17:33:36Z</time>
      </trkpt>
      <trkpt lat="43.886581" lon="5.041716">
        <ele>66.09955</ele>
        <time>2021-06-30T17:33:37Z</time>
      </trkpt>
      <trkpt lat="43.886684" lon="5.041736">
        <ele>64.30812</ele>
        <time>2021-06-30T17:33:38Z</time>
      </trkpt>
      <trkpt lat="43.886745" lon="5.041806">
        <ele>64.15455</ele>
        <time>2021-06-30T17:33:39Z</time>
      </trkpt>
      <trkpt lat="43.886810" lon="5.041932">
        <ele>64.42030</ele>
        <time>2021-06-30T17:33:40Z</time>
      </trkpt>
      <trkpt lat="43.886909" lon="5.041954">
        <ele>64.67704</ele>
        <time>2021-06-30T17:33:41Z</time>
      </trkpt>
      <trkpt lat="43.886971" lon="5.041910">
        <ele>64.72737</ele>
        <time>2021-06-30T17:33:42Z</time>
      </trkpt>
      <trkpt lat="43.886971" lon="5.041910">
        <ele>65.18262</ele>
        <time>2021-06-30T17:33:43Z</time>
      </trkpt>
      <trkpt lat="43.887009" lon="5.041825">
        <ele>65.00960</ele>
        <time>2021-06-30T17:33:44Z</time>
      </trkpt>
      <trkpt lat="43.887100" lon="5.041845">
        <ele>64.93729</ele>
        <time>2021-06-30T17:33:45Z</time>
      </trkpt>
      <trkpt lat="43.887306" lon="5.041912">
        <ele>66.03192</ele>
        <time>2021-06-30T17:33:46Z</time>
      </trkpt>
      <trkpt lat="43.887527" lon="5.041984">
        <ele>65.26575</ele>
        <time>2021-06-30T17:33:47Z</time>
      </trkpt>
      <trkpt lat="43.887760" lon="5.042063">
        <ele>64.98517</ele>
        <time>2021-06-30T17:33:48Z</time>
      </trkpt>
      <trkpt lat="43.888023" lon="5.042150">
        <ele>64.32990</ele>
        <time>2021-06-30T17:33:49Z</time>
      </trkpt>
      <trkpt lat="43.888298" lon="5.042242">
        <ele>64.57373</ele>
        <time>2021-06-30T17:33:50Z</time>
      </trkpt>
      <trkpt lat="43.888577" lon="5.042325">
        <ele>64.36517</ele>
        <time>2021-06-30T17:33:51Z</time>
      </trkpt>
      <trkpt lat="43.888840" lon="5.042402">
        <ele>63.86780</ele>
        <time>2021-06-30T17:33:52Z</time>
      </trkpt>
      <trkpt lat="43.889076" lon="5.042461">
        <ele>63.66449</ele>
        <time>2021-06-30T17:33:53Z</time>
      </trkpt>
      <trkpt lat="43.889290" lon="5.042513">
        <ele>64.12811</ele>
        <time>2021-06-30T17:33:54Z</time>
      </trkpt>
      <trkpt lat="43.889290" lon="5.042513">
        <ele>64.28967</ele>
        <time>2021-06-30T17:33:55Z</time>
      </trkpt>
      <trkpt lat="43.889561" lon="5.042573">
        <ele>64.73486</ele>
        <time>2021-06-30T17:33:56Z</time>
      </trkpt>
      <trkpt lat="43.889839" lon="5.042630">
        <ele>64.19318</ele>
        <time>2021-06-30T17:33:57Z</time>
      </trkpt>
      <trkpt lat="43.890068" lon="5.042677">
        <ele>64.56787</ele>
        <time>2021-06-30T17:33:58Z</time>
      </trkpt>
      <trkpt lat="43.890301" lon="5.042719">
        <ele>64.81281</ele>
        <time>2021-06-30T17:33:59Z</time>
      </trkpt>
      <trkpt lat="43.890526" lon="5.042753">
        <ele>65.64130</ele>
        <time>2021-06-30T17:34:00Z</time>
      </trkpt>
      <trkpt lat="43.890713" lon="5.042781">
        <ele>65.71948</ele>
        <time>2021-06-30T17:34:01Z</time>
      </trkpt>
      <trkpt lat="43.890926" lon="5.042814">
        <ele>65.58075</ele>
        <time>2021-06-30T17:34:02Z</time>
      </trkpt>
      <trkpt lat="43.891136" lon="5.042846">
        <ele>65.72809</ele>
        <time>2021-06-30T17:34:03Z</time>
      </trkpt>
      <trkpt lat="43.891365" lon="5.042880">
        <ele>66.03796</ele>
        <time>2021-06-30T17:34:04Z</time>
      </trkpt>
      <trkpt lat="43.891598" lon="5.042916">
        <ele>66.21216</ele>
        <time>2021-06-30T17:34:05Z</time>
      </trkpt>
      <trkpt lat="43.891838" lon="5.042957">
        <ele>66.14520</ele>
        <time>2021-06-30T17:34:06Z</time>
      </trkpt>
      <trkpt lat="43.891838" lon="5.042957">
        <ele>66.31000</ele>
        <time>2021-06-30T17:34:07Z</time>
      </trkpt>
      <trkpt lat="43.892094" lon="5.043027">
        <ele>66.11926</ele>
        <time>2021-06-30T17:34:08Z</time>
      </trkpt>
      <trkpt lat="43.892334" lon="5.043128">
        <ele>66.04333</ele>
        <time>2021-06-30T17:34:09Z</time>
      </trkpt>
      <trkpt lat="43.892563" lon="5.043230">
        <ele>66.10779</ele>
        <time>2021-06-30T17:34:10Z</time>
      </trkpt>
      <trkpt lat="43.892757" lon="5.043326">
        <ele>66.25024</ele>
        <time>2021-06-30T17:34:11Z</time>
      </trkpt>
      <trkpt lat="43.892960" lon="5.043448">
        <ele>66.24207</ele>
        <time>2021-06-30T17:34:12Z</time>
      </trkpt>
      <trkpt lat="43.893215" lon="5.043614">
        <ele>65.97522</ele>
        <time>2021-06-30T17:34:13Z</time>
      </trkpt>
      <trkpt lat="43.893459" lon="5.043804">
        <ele>66.11005</ele>
        <time>2021-06-30T17:34:14Z</time>
      </trkpt>
      <trkpt lat="43.893635" lon="5.043957">
        <ele>65.82410</ele>
        <time>2021-06-30T17:34:15Z</time>
      </trkpt>
      <trkpt lat="43.893791" lon="5.044131">
        <ele>65.59161</ele>
        <time>2021-06-30T17:34:16Z</time>
      </trkpt>
      <trkpt lat="43.893791" lon="5.044131">
        <ele>65.54993</ele>
        <time>2021-06-30T17:34:17Z</time>
      </trkpt>
      <trkpt lat="43.893959" lon="5.044329">
        <ele>66.50714</ele>
        <time>2021-06-30T17:34:18Z</time>
      </trkpt>
      <trkpt lat="43.894127" lon="5.044539">
        <ele>68.10040</ele>
        <time>2021-06-30T17:34:19Z</time>
      </trkpt>
      <trkpt lat="43.894279" lon="5.044753">
        <ele>67.54285</ele>
        <time>2021-06-30T17:34:20Z</time>
      </trkpt>
      <trkpt lat="43.894409" lon="5.044946">
        <ele>67.91217</ele>
        <time>2021-06-30T17:34:21Z</time>
      </trkpt>
      <trkpt lat="43.894547" lon="5.045158">
        <ele>68.17542</ele>
        <time>2021-06-30T17:34:22Z</time>
      </trkpt>
      <trkpt lat="43.894669" lon="5.045342">
        <ele>68.00006</ele>
        <time>2021-06-30T17:34:23Z</time>
      </trkpt>
      <trkpt lat="43.894787" lon="5.045515">
        <ele>69.10596</ele>
        <time>2021-06-30T17:34:24Z</time>
      </trkpt>
      <trkpt lat="43.894920" lon="5.045684">
        <ele>68.98206</ele>
        <time>2021-06-30T17:34:25Z</time>
      </trkpt>
      <trkpt lat="43.895065" lon="5.045858">
        <ele>68.97479</ele>
        <time>2021-06-30T17:34:26Z</time>
      </trkpt>
      <trkpt lat="43.895222" lon="5.046045">
        <ele>69.57812</ele>
        <time>2021-06-30T17:34:27Z</time>
      </trkpt>
      <trkpt lat="43.895367" lon="5.046195">
        <ele>70.13092</ele>
        <time>2021-06-30T17:34:28Z</time>
      </trkpt>
      <trkpt lat="43.895546" lon="5.046383">
        <ele>70.55591</ele>
        <time>2021-06-30T17:34:29Z</time>
      </trkpt>
      <trkpt lat="43.895546" lon="5.046383">
        <ele>66.88641</ele>
        <time>2021-06-30T17:34:30Z</time>
      </trkpt>
      <trkpt lat="43.895699" lon="5.046527">
        <ele>65.93384</ele>
        <time>2021-06-30T17:34:31Z</time>
      </trkpt>
      <trkpt lat="43.895836" lon="5.046641">
        <ele>65.61262</ele>
        <time>2021-06-30T17:34:32Z</time>
      </trkpt>
      <trkpt lat="43.895954" lon="5.046768">
        <ele>66.15811</ele>
        <time>2021-06-30T17:34:33Z</time>
      </trkpt>
      <trkpt lat="43.896076" lon="5.046846">
        <ele>66.00080</ele>
        <time>2021-06-30T17:34:34Z</time>
      </trkpt>
      <trkpt lat="43.896240" lon="5.046937">
        <ele>66.01142</ele>
        <time>2021-06-30T17:34:35Z</time>
      </trkpt>
      <trkpt lat="43.896347" lon="5.046989">
        <ele>65.83818</ele>
        <time>2021-06-30T17:34:36Z</time>
      </trkpt>
      <trkpt lat="43.896465" lon="5.047040">
        <ele>65.91666</ele>
        <time>2021-06-30T17:34:37Z</time>
      </trkpt>
      <trkpt lat="43.896572" lon="5.047071">
        <ele>66.02912</ele>
        <time>2021-06-30T17:34:38Z</time>
      </trkpt>
      <trkpt lat="43.896679" lon="5.047101">
        <ele>68.49207</ele>
        <time>2021-06-30T17:34:39Z</time>
      </trkpt>
      <trkpt lat="43.896755" lon="5.047128">
        <ele>69.03979</ele>
        <time>2021-06-30T17:34:40Z</time>
      </trkpt>
      <trkpt lat="43.896824" lon="5.047164">
        <ele>65.95293</ele>
        <time>2021-06-30T17:34:41Z</time>
      </trkpt>
      <trkpt lat="43.896824" lon="5.047164">
        <ele>65.71619</ele>
        <time>2021-06-30T17:34:42Z</time>
      </trkpt>
      <trkpt lat="43.896881" lon="5.047220">
        <ele>65.85325</ele>
        <time>2021-06-30T17:34:43Z</time>
      </trkpt>
      <trkpt lat="43.896915" lon="5.047270">
        <ele>66.10040</ele>
        <time>2021-06-30T17:34:44Z</time>
      </trkpt>
      <trkpt lat="43.896980" lon="5.047309">
        <ele>66.13852</ele>
        <time>2021-06-30T17:34:45Z</time>
      </trkpt>
      <trkpt lat="43.897076" lon="5.047336">
        <ele>66.26295</ele>
        <time>2021-06-30T17:34:46Z</time>
      </trkpt>
      <trkpt lat="43.897137" lon="5.047224">
        <ele>66.07565</ele>
        <time>2021-06-30T17:34:47Z</time>
      </trkpt>
      <trkpt lat="43.897202" lon="5.047175">
        <ele>66.66470</ele>
        <time>2021-06-30T17:34:48Z</time>
      </trkpt>
      <trkpt lat="43.897362" lon="5.047119">
        <ele>67.29734</ele>
        <time>2021-06-30T17:34:49Z</time>
      </trkpt>
      <trkpt lat="43.897507" lon="5.047085">
        <ele>66.65017</ele>
        <time>2021-06-30T17:34:50Z</time>
      </trkpt>
      <trkpt lat="43.897659" lon="5.047048">
        <ele>67.18015</ele>
        <time>2021-06-30T17:34:51Z</time>
      </trkpt>
      <trkpt lat="43.897831" lon="5.046992">
        <ele>67.28165</ele>
        <time>2021-06-30T17:34:52Z</time>
      </trkpt>
      <trkpt lat="43.898033" lon="5.046921">
        <ele>66.13855</ele>
        <time>2021-06-30T17:34:53Z</time>
      </trkpt>
      <trkpt lat="43.898243" lon="5.046842">
        <ele>65.53314</ele>
        <time>2021-06-30T17:34:54Z</time>
      </trkpt>
      <trkpt lat="43.898487" lon="5.046748">
        <ele>65.47681</ele>
        <time>2021-06-30T17:34:55Z</time>
      </trkpt>
      <trkpt lat="43.898487" lon="5.046748">
        <ele>65.66620</ele>
        <time>2021-06-30T17:34:56Z</time>
      </trkpt>
      <trkpt lat="43.898693" lon="5.046669">
        <ele>65.57281</ele>
        <time>2021-06-30T17:34:57Z</time>
      </trkpt>
      <trkpt lat="43.898865" lon="5.046602">
        <ele>65.37469</ele>
        <time>2021-06-30T17:34:58Z</time>
      </trkpt>
      <trkpt lat="43.899048" lon="5.046482">
        <ele>67.82716</ele>
        <time>2021-06-30T17:34:59Z</time>
      </trkpt>
      <trkpt lat="43.899212" lon="5.046391">
        <ele>66.04358</ele>
        <time>2021-06-30T17:35:00Z</time>
      </trkpt>
      <trkpt lat="43.899387" lon="5.046286">
        <ele>66.12891</ele>
        <time>2021-06-30T17:35:01Z</time>
      </trkpt>
      <trkpt lat="43.899586" lon="5.046152">
        <ele>65.83350</ele>
        <time>2021-06-30T17:35:02Z</time>
      </trkpt>
      <trkpt lat="43.899773" lon="5.045995">
        <ele>66.24530</ele>
        <time>2021-06-30T17:35:03Z</time>
      </trkpt>
      <trkpt lat="43.899948" lon="5.045849">
        <ele>66.66229</ele>
        <time>2021-06-30T17:35:04Z</time>
      </trkpt>
      <trkpt lat="43.900112" lon="5.045700">
        <ele>67.15637</ele>
        <time>2021-06-30T17:35:05Z</time>
      </trkpt>
      <trkpt lat="43.900269" lon="5.045543">
        <ele>67.30646</ele>
        <time>2021-06-30T17:35:06Z</time>
      </trkpt>
      <trkpt lat="43.900417" lon="5.045384">
        <ele>66.48041</ele>
        <time>2021-06-30T17:35:07Z</time>
      </trkpt>
      <trkpt lat="43.900566" lon="5.045227">
        <ele>66.44635</ele>
        <time>2021-06-30T17:35:08Z</time>
      </trkpt>
      <trkpt lat="43.900726" lon="5.045059">
        <ele>66.42950</ele>
        <time>2021-06-30T17:35:09Z</time>
      </trkpt>
      <trkpt lat="43.902077" lon="5.043962">
        <ele>64.89197</ele>
        <time>2021-06-30T17:35:21Z</time>
      </trkpt>
      <trkpt lat="43.902077" lon="5.043962">
        <ele>64.89197</ele>
        <time>2021-06-30T17:35:21Z</time>
      </trkpt>
      <trkpt lat="43.902077" lon="5.043962">
        <ele>64.89197</ele>
        <time>2021-06-30T17:35:21Z</time>
      </trkpt>
      <trkpt lat="43.902077" lon="5.043962">
        <ele>64.89197</ele>
        <time>2021-06-30T17:35:21Z</time>
      </trkpt>
      <trkpt lat="43.902077" lon="5.043962">
        <ele>64.89197</ele>
        <time>2021-06-30T17:35:22Z</time>
      </trkpt>
      <trkpt lat="43.902077" lon="5.043962">
        <ele>64.89197</ele>
        <time>2021-06-30T17:35:22Z</time>
      </trkpt>
      <trkpt lat="43.902077" lon="5.043962">
        <ele>64.96997</ele>
        <time>2021-06-30T17:35:22Z</time>
      </trkpt>
      <trkpt lat="43.902077" lon="5.043962">
        <ele>64.96997</ele>
        <time>2021-06-30T17:35:22Z</time>
      </trkpt>
      <trkpt lat="43.902077" lon="5.043962">
        <ele>64.78668</ele>
        <time>2021-06-30T17:35:23Z</time>
      </trkpt>
      <trkpt lat="43.902077" lon="5.043962">
        <ele>64.88135</ele>
        <time>2021-06-30T17:35:24Z</time>
      </trkpt>
      <trkpt lat="43.902775" lon="5.043556">
        <ele>64.80725</ele>
        <time>2021-06-30T17:35:25Z</time>
      </trkpt>
      <trkpt lat="43.903912" lon="5.042891">
        <ele>65.13727</ele>
        <time>2021-06-30T17:35:26Z</time>
      </trkpt>
      <trkpt lat="43.904076" lon="5.042790">
        <ele>65.39069</ele>
        <time>2021-06-30T17:35:27Z</time>
      </trkpt>
      <trkpt lat="43.904076" lon="5.042790">
        <ele>65.90723</ele>
        <time>2021-06-30T17:35:28Z</time>
      </trkpt>
      <trkpt lat="43.904266" lon="5.042662">
        <ele>66.82367</ele>
        <time>2021-06-30T17:35:29Z</time>
      </trkpt>
      <trkpt lat="43.904400" lon="5.042557">
        <ele>67.04016</ele>
        <time>2021-06-30T17:35:30Z</time>
      </trkpt>
      <trkpt lat="43.904625" lon="5.042343">
        <ele>67.10626</ele>
        <time>2021-06-30T17:35:31Z</time>
      </trkpt>
      <trkpt lat="43.904774" lon="5.042195">
        <ele>67.30933</ele>
        <time>2021-06-30T17:35:32Z</time>
      </trkpt>
      <trkpt lat="43.904934" lon="5.042035">
        <ele>67.48102</ele>
        <time>2021-06-30T17:35:33Z</time>
      </trkpt>
      <trkpt lat="43.905113" lon="5.041854">
        <ele>67.19507</ele>
        <time>2021-06-30T17:35:34Z</time>
      </trkpt>
      <trkpt lat="43.905270" lon="5.041674">
        <ele>66.45105</ele>
        <time>2021-06-30T17:35:35Z</time>
      </trkpt>
      <trkpt lat="43.905487" lon="5.041405">
        <ele>66.18707</ele>
        <time>2021-06-30T17:35:36Z</time>
      </trkpt>
      <trkpt lat="43.905731" lon="5.041084">
        <ele>66.38257</ele>
        <time>2021-06-30T17:35:37Z</time>
      </trkpt>
      <trkpt lat="43.905960" lon="5.040767">
        <ele>67.05615</ele>
        <time>2021-06-30T17:35:38Z</time>
      </trkpt>
      <trkpt lat="43.905960" lon="5.040767">
        <ele>66.30035</ele>
        <time>2021-06-30T17:35:39Z</time>
      </trkpt>
      <trkpt lat="43.906170" lon="5.040442">
        <ele>66.16028</ele>
        <time>2021-06-30T17:35:40Z</time>
      </trkpt>
      <trkpt lat="43.906380" lon="5.040119">
        <ele>65.84747</ele>
        <time>2021-06-30T17:35:41Z</time>
      </trkpt>
      <trkpt lat="43.906586" lon="5.039802">
        <ele>65.93109</ele>
        <time>2021-06-30T17:35:42Z</time>
      </trkpt>
      <trkpt lat="43.906780" lon="5.039507">
        <ele>65.87897</ele>
        <time>2021-06-30T17:35:43Z</time>
      </trkpt>
      <trkpt lat="43.907005" lon="5.039195">
        <ele>65.47546</ele>
        <time>2021-06-30T17:35:44Z</time>
      </trkpt>
      <trkpt lat="43.907207" lon="5.038913">
        <ele>65.29358</ele>
        <time>2021-06-30T17:35:45Z</time>
      </trkpt>
      <trkpt lat="43.907440" lon="5.038592">
        <ele>65.12354</ele>
        <time>2021-06-30T17:35:46Z</time>
      </trkpt>
      <trkpt lat="43.907677" lon="5.038291">
        <ele>65.41748</ele>
        <time>2021-06-30T17:35:47Z</time>
      </trkpt>
      <trkpt lat="43.907890" lon="5.038021">
        <ele>65.99927</ele>
        <time>2021-06-30T17:35:48Z</time>
      </trkpt>
      <trkpt lat="43.908123" lon="5.037747">
        <ele>66.66553</ele>
        <time>2021-06-30T17:35:49Z</time>
      </trkpt>
      <trkpt lat="43.908333" lon="5.037477">
        <ele>66.79053</ele>
        <time>2021-06-30T17:35:50Z</time>
      </trkpt>
      <trkpt lat="43.908566" lon="5.037199">
        <ele>66.04132</ele>
        <time>2021-06-30T17:35:51Z</time>
      </trkpt>
      <trkpt lat="43.908566" lon="5.037199">
        <ele>65.68134</ele>
        <time>2021-06-30T17:35:52Z</time>
      </trkpt>
      <trkpt lat="43.908794" lon="5.036917">
        <ele>65.92108</ele>
        <time>2021-06-30T17:35:53Z</time>
      </trkpt>
      <trkpt lat="43.909073" lon="5.036601">
        <ele>65.60608</ele>
        <time>2021-06-30T17:35:54Z</time>
      </trkpt>
      <trkpt lat="43.909222" lon="5.036403">
        <ele>65.08289</ele>
        <time>2021-06-30T17:35:55Z</time>
      </trkpt>
      <trkpt lat="43.909439" lon="5.036122">
        <ele>65.56635</ele>
        <time>2021-06-30T17:35:56Z</time>
      </trkpt>
      <trkpt lat="43.909630" lon="5.035861">
        <ele>65.50879</ele>
        <time>2021-06-30T17:35:57Z</time>
      </trkpt>
      <trkpt lat="43.909813" lon="5.035575">
        <ele>64.96887</ele>
        <time>2021-06-30T17:35:58Z</time>
      </trkpt>
      <trkpt lat="43.909992" lon="5.035266">
        <ele>64.40784</ele>
        <time>2021-06-30T17:35:59Z</time>
      </trkpt>
      <trkpt lat="43.910126" lon="5.034982">
        <ele>63.66028</ele>
        <time>2021-06-30T17:36:00Z</time>
      </trkpt>
      <trkpt lat="43.910255" lon="5.034667">
        <ele>64.01538</ele>
        <time>2021-06-30T17:36:01Z</time>
      </trkpt>
      <trkpt lat="43.910255" lon="5.034667">
        <ele>64.45483</ele>
        <time>2021-06-30T17:36:02Z</time>
      </trkpt>
      <trkpt lat="43.910412" lon="5.034250">
        <ele>64.03009</ele>
        <time>2021-06-30T17:36:03Z</time>
      </trkpt>
      <trkpt lat="43.910549" lon="5.033858">
        <ele>64.31287</ele>
        <time>2021-06-30T17:36:04Z</time>
      </trkpt>
      <trkpt lat="43.910641" lon="5.033596">
        <ele>65.21143</ele>
        <time>2021-06-30T17:36:05Z</time>
      </trkpt>
      <trkpt lat="43.910744" lon="5.033327">
        <ele>66.08002</ele>
        <time>2021-06-30T17:36:06Z</time>
      </trkpt>
      <trkpt lat="43.910835" lon="5.033082">
        <ele>67.09192</ele>
        <time>2021-06-30T17:36:07Z</time>
      </trkpt>
      <trkpt lat="43.910934" lon="5.032840">
        <ele>67.52740</ele>
        <time>2021-06-30T17:36:08Z</time>
      </trkpt>
      <trkpt lat="43.911057" lon="5.032594">
        <ele>67.77686</ele>
        <time>2021-06-30T17:36:09Z</time>
      </trkpt>
      <trkpt lat="43.911182" lon="5.032348">
        <ele>68.03296</ele>
        <time>2021-06-30T17:36:10Z</time>
      </trkpt>
      <trkpt lat="43.911297" lon="5.032158">
        <ele>68.12292</ele>
        <time>2021-06-30T17:36:11Z</time>
      </trkpt>
      <trkpt lat="43.911438" lon="5.031934">
        <ele>67.86963</ele>
        <time>2021-06-30T17:36:12Z</time>
      </trkpt>
      <trkpt lat="43.911606" lon="5.031685">
        <ele>66.87750</ele>
        <time>2021-06-30T17:36:13Z</time>
      </trkpt>
      <trkpt lat="43.911770" lon="5.031471">
        <ele>65.54718</ele>
        <time>2021-06-30T17:36:14Z</time>
      </trkpt>
      <trkpt lat="43.911938" lon="5.031262">
        <ele>64.06317</ele>
        <time>2021-06-30T17:36:15Z</time>
      </trkpt>
      <trkpt lat="43.911938" lon="5.031262">
        <ele>63.04681</ele>
        <time>2021-06-30T17:36:16Z</time>
      </trkpt>
      <trkpt lat="43.912109" lon="5.031046">
        <ele>62.56409</ele>
        <time>2021-06-30T17:36:17Z</time>
      </trkpt>
      <trkpt lat="43.912289" lon="5.030819">
        <ele>62.45892</ele>
        <time>2021-06-30T17:36:18Z</time>
      </trkpt>
      <trkpt lat="43.912495" lon="5.030563">
        <ele>62.48071</ele>
        <time>2021-06-30T17:36:19Z</time>
      </trkpt>
      <trkpt lat="43.912689" lon="5.030390">
        <ele>62.33081</ele>
        <time>2021-06-30T17:36:20Z</time>
      </trkpt>
      <trkpt lat="43.912895" lon="5.030218">
        <ele>61.90234</ele>
        <time>2021-06-30T17:36:21Z</time>
      </trkpt>
      <trkpt lat="43.913143" lon="5.030075">
        <ele>62.04102</ele>
        <time>2021-06-30T17:36:22Z</time>
      </trkpt>
      <trkpt lat="43.913364" lon="5.029963">
        <ele>61.90839</ele>
        <time>2021-06-30T17:36:23Z</time>
      </trkpt>
      <trkpt lat="43.913628" lon="5.029862">
        <ele>61.63177</ele>
        <time>2021-06-30T17:36:24Z</time>
      </trkpt>
      <trkpt lat="43.913891" lon="5.029792">
        <ele>61.23401</ele>
        <time>2021-06-30T17:36:25Z</time>
      </trkpt>
      <trkpt lat="43.914158" lon="5.029745">
        <ele>60.98053</ele>
        <time>2021-06-30T17:36:26Z</time>
      </trkpt>
      <trkpt lat="43.914474" lon="5.029723">
        <ele>61.02850</ele>
        <time>2021-06-30T17:36:27Z</time>
      </trkpt>
      <trkpt lat="43.914757" lon="5.029769">
        <ele>60.95844</ele>
        <time>2021-06-30T17:36:28Z</time>
      </trkpt>
      <trkpt lat="43.914757" lon="5.029769">
        <ele>60.35675</ele>
        <time>2021-06-30T17:36:29Z</time>
      </trkpt>
      <trkpt lat="43.915043" lon="5.029827">
        <ele>60.50238</ele>
        <time>2021-06-30T17:36:30Z</time>
      </trkpt>
      <trkpt lat="43.915348" lon="5.029889">
        <ele>60.43951</ele>
        <time>2021-06-30T17:36:31Z</time>
      </trkpt>
      <trkpt lat="43.915638" lon="5.029948">
        <ele>60.62677</ele>
        <time>2021-06-30T17:36:32Z</time>
      </trkpt>
      <trkpt lat="43.915947" lon="5.029992">
        <ele>61.01477</ele>
        <time>2021-06-30T17:36:33Z</time>
      </trkpt>
      <trkpt lat="43.916248" lon="5.030023">
        <ele>61.73639</ele>
        <time>2021-06-30T17:36:34Z</time>
      </trkpt>
      <trkpt lat="43.916523" lon="5.030017">
        <ele>61.98676</ele>
        <time>2021-06-30T17:36:35Z</time>
      </trkpt>
      <trkpt lat="43.916801" lon="5.029989">
        <ele>62.81195</ele>
        <time>2021-06-30T17:36:36Z</time>
      </trkpt>
      <trkpt lat="43.917084" lon="5.029936">
        <ele>63.55518</ele>
        <time>2021-06-30T17:36:37Z</time>
      </trkpt>
      <trkpt lat="43.917343" lon="5.029858">
        <ele>64.09595</ele>
        <time>2021-06-30T17:36:38Z</time>
      </trkpt>
      <trkpt lat="43.917343" lon="5.029858">
        <ele>65.42493</ele>
        <time>2021-06-30T17:36:39Z</time>
      </trkpt>
      <trkpt lat="43.917610" lon="5.029778">
        <ele>67.02142</ele>
        <time>2021-06-30T17:36:40Z</time>
      </trkpt>
      <trkpt lat="43.917854" lon="5.029722">
        <ele>66.81799</ele>
        <time>2021-06-30T17:36:41Z</time>
      </trkpt>
      <trkpt lat="43.918140" lon="5.029627">
        <ele>67.20026</ele>
        <time>2021-06-30T17:36:42Z</time>
      </trkpt>
      <trkpt lat="43.918346" lon="5.029559">
        <ele>67.54578</ele>
        <time>2021-06-30T17:36:43Z</time>
      </trkpt>
      <trkpt lat="43.918625" lon="5.029468">
        <ele>68.23730</ele>
        <time>2021-06-30T17:36:44Z</time>
      </trkpt>
      <trkpt lat="43.918884" lon="5.029380">
        <ele>68.25983</ele>
        <time>2021-06-30T17:36:45Z</time>
      </trkpt>
      <trkpt lat="43.919174" lon="5.029290">
        <ele>68.40527</ele>
        <time>2021-06-30T17:36:46Z</time>
      </trkpt>
      <trkpt lat="43.919468" lon="5.029201">
        <ele>68.20435</ele>
        <time>2021-06-30T17:36:47Z</time>
      </trkpt>
      <trkpt lat="43.919731" lon="5.029129">
        <ele>67.66406</ele>
        <time>2021-06-30T17:36:48Z</time>
      </trkpt>
      <trkpt lat="43.919971" lon="5.029070">
        <ele>66.19330</ele>
        <time>2021-06-30T17:36:49Z</time>
      </trkpt>
      <trkpt lat="43.920273" lon="5.029004">
        <ele>65.76917</ele>
        <time>2021-06-30T17:36:50Z</time>
      </trkpt>
      <trkpt lat="43.920273" lon="5.029004">
        <ele>64.30231</ele>
        <time>2021-06-30T17:36:51Z</time>
      </trkpt>
      <trkpt lat="43.920830" lon="5.028897">
        <ele>63.19452</ele>
        <time>2021-06-30T17:36:52Z</time>
      </trkpt>
      <trkpt lat="43.920830" lon="5.028897">
        <ele>62.47498</ele>
        <time>2021-06-30T17:36:53Z</time>
      </trkpt>
      <trkpt lat="43.921089" lon="5.028835">
        <ele>61.47595</ele>
        <time>2021-06-30T17:36:54Z</time>
      </trkpt>
      <trkpt lat="43.921429" lon="5.028757">
        <ele>61.07642</ele>
        <time>2021-06-30T17:36:55Z</time>
      </trkpt>
      <trkpt lat="43.921745" lon="5.028701">
        <ele>61.21118</ele>
        <time>2021-06-30T17:36:56Z</time>
      </trkpt>
      <trkpt lat="43.922054" lon="5.028653">
        <ele>60.94940</ele>
        <time>2021-06-30T17:36:57Z</time>
      </trkpt>
      <trkpt lat="43.922356" lon="5.028606">
        <ele>61.46130</ele>
        <time>2021-06-30T17:36:58Z</time>
      </trkpt>
      <trkpt lat="43.922688" lon="5.028554">
        <ele>61.56714</ele>
        <time>2021-06-30T17:36:59Z</time>
      </trkpt>
      <trkpt lat="43.923019" lon="5.028502">
        <ele>61.79523</ele>
        <time>2021-06-30T17:37:00Z</time>
      </trkpt>
      <trkpt lat="43.923344" lon="5.028451">
        <ele>61.39502</ele>
        <time>2021-06-30T17:37:01Z</time>
      </trkpt>
      <trkpt lat="43.923641" lon="5.028405">
        <ele>61.41913</ele>
        <time>2021-06-30T17:37:02Z</time>
      </trkpt>
      <trkpt lat="43.923954" lon="5.028381">
        <ele>61.12451</ele>
        <time>2021-06-30T17:37:03Z</time>
      </trkpt>
      <trkpt lat="43.923954" lon="5.028381">
        <ele>60.81531</ele>
        <time>2021-06-30T17:37:04Z</time>
      </trkpt>
      <trkpt lat="43.924255" lon="5.028360">
        <ele>60.56531</ele>
        <time>2021-06-30T17:37:05Z</time>
      </trkpt>
      <trkpt lat="43.924522" lon="5.028371">
        <ele>60.32202</ele>
        <time>2021-06-30T17:37:06Z</time>
      </trkpt>
      <trkpt lat="43.924755" lon="5.028412">
        <ele>61.03223</ele>
        <time>2021-06-30T17:37:07Z</time>
      </trkpt>
      <trkpt lat="43.924988" lon="5.028460">
        <ele>60.93182</ele>
        <time>2021-06-30T17:37:08Z</time>
      </trkpt>
      <trkpt lat="43.925243" lon="5.028536">
        <ele>60.37848</ele>
        <time>2021-06-30T17:37:09Z</time>
      </trkpt>
      <trkpt lat="43.925465" lon="5.028602">
        <ele>60.27820</ele>
        <time>2021-06-30T17:37:10Z</time>
      </trkpt>
      <trkpt lat="43.925861" lon="5.028780">
        <ele>60.47906</ele>
        <time>2021-06-30T17:37:11Z</time>
      </trkpt>
      <trkpt lat="43.925861" lon="5.028780">
        <ele>60.42029</ele>
        <time>2021-06-30T17:37:12Z</time>
      </trkpt>
      <trkpt lat="43.926064" lon="5.028894">
        <ele>60.30249</ele>
        <time>2021-06-30T17:37:13Z</time>
      </trkpt>
      <trkpt lat="43.926285" lon="5.029034">
        <ele>60.26001</ele>
        <time>2021-06-30T17:37:14Z</time>
      </trkpt>
      <trkpt lat="43.926582" lon="5.029256">
        <ele>60.36316</ele>
        <time>2021-06-30T17:37:15Z</time>
      </trkpt>
      <trkpt lat="43.926792" lon="5.029415">
        <ele>60.38165</ele>
        <time>2021-06-30T17:37:16Z</time>
      </trkpt>
      <trkpt lat="43.926983" lon="5.029566">
        <ele>60.62115</ele>
        <time>2021-06-30T17:37:17Z</time>
      </trkpt>
      <trkpt lat="43.927155" lon="5.029704">
        <ele>60.27295</ele>
        <time>2021-06-30T17:37:18Z</time>
      </trkpt>
      <trkpt lat="43.927326" lon="5.029839">
        <ele>56.45965</ele>
        <time>2021-06-30T17:37:19Z</time>
      </trkpt>
      <trkpt lat="43.927464" lon="5.029943">
        <ele>55.88579</ele>
        <time>2021-06-30T17:37:20Z</time>
      </trkpt>
      <trkpt lat="43.927570" lon="5.030029">
        <ele>55.51631</ele>
        <time>2021-06-30T17:37:21Z</time>
      </trkpt>
      <trkpt lat="43.927685" lon="5.030120">
        <ele>55.10054</ele>
        <time>2021-06-30T17:37:22Z</time>
      </trkpt>
      <trkpt lat="43.927788" lon="5.030187">
        <ele>55.11542</ele>
        <time>2021-06-30T17:37:23Z</time>
      </trkpt>
      <trkpt lat="43.927864" lon="5.030239">
        <ele>54.54232</ele>
        <time>2021-06-30T17:37:24Z</time>
      </trkpt>
      <trkpt lat="43.927864" lon="5.030239">
        <ele>54.31252</ele>
        <time>2021-06-30T17:37:25Z</time>
      </trkpt>
      <trkpt lat="43.927925" lon="5.030280">
        <ele>54.36898</ele>
        <time>2021-06-30T17:37:26Z</time>
      </trkpt>
      <trkpt lat="43.927979" lon="5.030316">
        <ele>54.27686</ele>
        <time>2021-06-30T17:37:27Z</time>
      </trkpt>
      <trkpt lat="43.928043" lon="5.030359">
        <ele>54.66149</ele>
        <time>2021-06-30T17:37:28Z</time>
      </trkpt>
      <trkpt lat="43.928116" lon="5.030397">
        <ele>54.64818</ele>
        <time>2021-06-30T17:37:29Z</time>
      </trkpt>
      <trkpt lat="43.928249" lon="5.030470">
        <ele>57.42859</ele>
        <time>2021-06-30T17:37:30Z</time>
      </trkpt>
      <trkpt lat="43.928326" lon="5.030510">
        <ele>57.87622</ele>
        <time>2021-06-30T17:37:31Z</time>
      </trkpt>
      <trkpt lat="43.928432" lon="5.030566">
        <ele>58.08209</ele>
        <time>2021-06-30T17:37:32Z</time>
      </trkpt>
      <trkpt lat="43.928493" lon="5.030600">
        <ele>57.95868</ele>
        <time>2021-06-30T17:37:33Z</time>
      </trkpt>
      <trkpt lat="43.928604" lon="5.030658">
        <ele>54.32833</ele>
        <time>2021-06-30T17:37:34Z</time>
      </trkpt>
      <trkpt lat="43.928722" lon="5.030720">
        <ele>54.92416</ele>
        <time>2021-06-30T17:37:35Z</time>
      </trkpt>
      <trkpt lat="43.928856" lon="5.030790">
        <ele>54.99287</ele>
        <time>2021-06-30T17:37:36Z</time>
      </trkpt>
      <trkpt lat="43.928993" lon="5.030838">
        <ele>56.84430</ele>
        <time>2021-06-30T17:37:37Z</time>
      </trkpt>
      <trkpt lat="43.928993" lon="5.030838">
        <ele>56.71497</ele>
        <time>2021-06-30T17:37:38Z</time>
      </trkpt>
      <trkpt lat="43.929138" lon="5.030865">
        <ele>56.76874</ele>
        <time>2021-06-30T17:37:39Z</time>
      </trkpt>
      <trkpt lat="43.929317" lon="5.030882">
        <ele>55.98539</ele>
        <time>2021-06-30T17:37:40Z</time>
      </trkpt>
      <trkpt lat="43.929485" lon="5.030899">
        <ele>55.60341</ele>
        <time>2021-06-30T17:37:41Z</time>
      </trkpt>
      <trkpt lat="43.929653" lon="5.030915">
        <ele>55.85285</ele>
        <time>2021-06-30T17:37:42Z</time>
      </trkpt>
      <trkpt lat="43.929806" lon="5.030921">
        <ele>56.79214</ele>
        <time>2021-06-30T17:37:43Z</time>
      </trkpt>
      <trkpt lat="43.929958" lon="5.030917">
        <ele>56.00393</ele>
        <time>2021-06-30T17:37:44Z</time>
      </trkpt>
      <trkpt lat="43.930145" lon="5.030889">
        <ele>56.47594</ele>
        <time>2021-06-30T17:37:45Z</time>
      </trkpt>
      <trkpt lat="43.930313" lon="5.030846">
        <ele>56.20734</ele>
        <time>2021-06-30T17:37:46Z</time>
      </trkpt>
      <trkpt lat="43.930500" lon="5.030818">
        <ele>56.15091</ele>
        <time>2021-06-30T17:37:47Z</time>
      </trkpt>
      <trkpt lat="43.930695" lon="5.030789">
        <ele>56.82623</ele>
        <time>2021-06-30T17:37:48Z</time>
      </trkpt>
      <trkpt lat="43.930874" lon="5.030761">
        <ele>56.79254</ele>
        <time>2021-06-30T17:37:49Z</time>
      </trkpt>
      <trkpt lat="43.931114" lon="5.030720">
        <ele>56.56549</ele>
        <time>2021-06-30T17:37:50Z</time>
      </trkpt>
      <trkpt lat="43.931328" lon="5.030679">
        <ele>56.41058</ele>
        <time>2021-06-30T17:37:51Z</time>
      </trkpt>
      <trkpt lat="43.931530" lon="5.030639">
        <ele>56.51636</ele>
        <time>2021-06-30T17:37:52Z</time>
      </trkpt>
      <trkpt lat="43.931721" lon="5.030603">
        <ele>56.25073</ele>
        <time>2021-06-30T17:37:53Z</time>
      </trkpt>
      <trkpt lat="43.931999" lon="5.030549">
        <ele>56.46326</ele>
        <time>2021-06-30T17:37:54Z</time>
      </trkpt>
      <trkpt lat="43.931999" lon="5.030549">
        <ele>56.28802</ele>
        <time>2021-06-30T17:37:55Z</time>
      </trkpt>
      <trkpt lat="43.932232" lon="5.030504">
        <ele>56.48749</ele>
        <time>2021-06-30T17:37:56Z</time>
      </trkpt>
      <trkpt lat="43.932480" lon="5.030456">
        <ele>56.52380</ele>
        <time>2021-06-30T17:37:57Z</time>
      </trkpt>
      <trkpt lat="43.932732" lon="5.030408">
        <ele>56.79028</ele>
        <time>2021-06-30T17:37:58Z</time>
      </trkpt>
      <trkpt lat="43.932976" lon="5.030360">
        <ele>57.34906</ele>
        <time>2021-06-30T17:37:59Z</time>
      </trkpt>
      <trkpt lat="43.933205" lon="5.030314">
        <ele>57.27234</ele>
        <time>2021-06-30T17:38:00Z</time>
      </trkpt>
      <trkpt lat="43.933430" lon="5.030263">
        <ele>57.70599</ele>
        <time>2021-06-30T17:38:01Z</time>
      </trkpt>
      <trkpt lat="43.933632" lon="5.030217">
        <ele>57.58954</ele>
        <time>2021-06-30T17:38:02Z</time>
      </trkpt>
      <trkpt lat="43.933823" lon="5.030173">
        <ele>57.51190</ele>
        <time>2021-06-30T17:38:03Z</time>
      </trkpt>
      <trkpt lat="43.934017" lon="5.030129">
        <ele>57.62616</ele>
        <time>2021-06-30T17:38:04Z</time>
      </trkpt>
      <trkpt lat="43.934189" lon="5.030101">
        <ele>57.54938</ele>
        <time>2021-06-30T17:38:05Z</time>
      </trkpt>
      <trkpt lat="43.934364" lon="5.030119">
        <ele>57.94659</ele>
        <time>2021-06-30T17:38:06Z</time>
      </trkpt>
      <trkpt lat="43.934605" lon="5.030085">
        <ele>57.69971</ele>
        <time>2021-06-30T17:38:07Z</time>
      </trkpt>
      <trkpt lat="43.934826" lon="5.030053">
        <ele>57.89435</ele>
        <time>2021-06-30T17:38:08Z</time>
      </trkpt>
      <trkpt lat="43.934826" lon="5.030053">
        <ele>57.75372</ele>
        <time>2021-06-30T17:38:09Z</time>
      </trkpt>
      <trkpt lat="43.935047" lon="5.030021">
        <ele>57.35535</ele>
        <time>2021-06-30T17:38:10Z</time>
      </trkpt>
      <trkpt lat="43.935253" lon="5.029988">
        <ele>57.02588</ele>
        <time>2021-06-30T17:38:11Z</time>
      </trkpt>
      <trkpt lat="43.935463" lon="5.029947">
        <ele>56.60211</ele>
        <time>2021-06-30T17:38:12Z</time>
      </trkpt>
      <trkpt lat="43.935669" lon="5.029907">
        <ele>55.20491</ele>
        <time>2021-06-30T17:38:13Z</time>
      </trkpt>
      <trkpt lat="43.935833" lon="5.029874">
        <ele>54.93474</ele>
        <time>2021-06-30T17:38:14Z</time>
      </trkpt>
      <trkpt lat="43.936016" lon="5.029839">
        <ele>56.29718</ele>
        <time>2021-06-30T17:38:15Z</time>
      </trkpt>
      <trkpt lat="43.936249" lon="5.029793">
        <ele>57.06244</ele>
        <time>2021-06-30T17:38:16Z</time>
      </trkpt>
      <trkpt lat="43.936508" lon="5.029742">
        <ele>56.25061</ele>
        <time>2021-06-30T17:38:17Z</time>
      </trkpt>
      <trkpt lat="43.936794" lon="5.029687">
        <ele>55.58795</ele>
        <time>2021-06-30T17:38:18Z</time>
      </trkpt>
      <trkpt lat="43.937016" lon="5.029648">
        <ele>55.83246</ele>
        <time>2021-06-30T17:38:19Z</time>
      </trkpt>
      <trkpt lat="43.937241" lon="5.029617">
        <ele>55.94373</ele>
        <time>2021-06-30T17:38:20Z</time>
      </trkpt>
      <trkpt lat="43.937462" lon="5.029579">
        <ele>56.54395</ele>
        <time>2021-06-30T17:38:21Z</time>
      </trkpt>
      <trkpt lat="43.937462" lon="5.029579">
        <ele>56.30139</ele>
        <time>2021-06-30T17:38:22Z</time>
      </trkpt>
      <trkpt lat="43.937656" lon="5.029504">
        <ele>55.78387</ele>
        <time>2021-06-30T17:38:23Z</time>
      </trkpt>
      <trkpt lat="43.937855" lon="5.029466">
        <ele>55.61438</ele>
        <time>2021-06-30T17:38:24Z</time>
      </trkpt>
      <trkpt lat="43.938065" lon="5.029425">
        <ele>56.25403</ele>
        <time>2021-06-30T17:38:25Z</time>
      </trkpt>
      <trkpt lat="43.938259" lon="5.029386">
        <ele>55.87506</ele>
        <time>2021-06-30T17:38:26Z</time>
      </trkpt>
      <trkpt lat="43.938469" lon="5.029343">
        <ele>55.79688</ele>
        <time>2021-06-30T17:38:27Z</time>
      </trkpt>
      <trkpt lat="43.938656" lon="5.029314">
        <ele>55.81305</ele>
        <time>2021-06-30T17:38:28Z</time>
      </trkpt>
      <trkpt lat="43.938854" lon="5.029283">
        <ele>55.68311</ele>
        <time>2021-06-30T17:38:29Z</time>
      </trkpt>
      <trkpt lat="43.939056" lon="5.029252">
        <ele>55.58252</ele>
        <time>2021-06-30T17:38:30Z</time>
      </trkpt>
      <trkpt lat="43.939236" lon="5.029224">
        <ele>54.88619</ele>
        <time>2021-06-30T17:38:31Z</time>
      </trkpt>
      <trkpt lat="43.939453" lon="5.029178">
        <ele>54.72020</ele>
        <time>2021-06-30T17:38:32Z</time>
      </trkpt>
      <trkpt lat="43.939632" lon="5.029142">
        <ele>55.83215</ele>
        <time>2021-06-30T17:38:33Z</time>
      </trkpt>
      <trkpt lat="43.939808" lon="5.029110">
        <ele>56.41321</ele>
        <time>2021-06-30T17:38:34Z</time>
      </trkpt>
      <trkpt lat="43.940002" lon="5.029075">
        <ele>56.00183</ele>
        <time>2021-06-30T17:38:35Z</time>
      </trkpt>
      <trkpt lat="43.940193" lon="5.029039">
        <ele>54.29876</ele>
        <time>2021-06-30T17:38:36Z</time>
      </trkpt>
      <trkpt lat="43.940376" lon="5.029006">
        <ele>55.41128</ele>
        <time>2021-06-30T17:38:37Z</time>
      </trkpt>
      <trkpt lat="43.940559" lon="5.028972">
        <ele>55.13735</ele>
        <time>2021-06-30T17:38:38Z</time>
      </trkpt>
      <trkpt lat="43.940559" lon="5.028972">
        <ele>54.55350</ele>
        <time>2021-06-30T17:38:39Z</time>
      </trkpt>
      <trkpt lat="43.940758" lon="5.028936">
        <ele>54.49054</ele>
        <time>2021-06-30T17:38:40Z</time>
      </trkpt>
      <trkpt lat="43.940941" lon="5.028902">
        <ele>54.30603</ele>
        <time>2021-06-30T17:38:41Z</time>
      </trkpt>
      <trkpt lat="43.941162" lon="5.028862">
        <ele>54.28888</ele>
        <time>2021-06-30T17:38:42Z</time>
      </trkpt>
      <trkpt lat="43.941353" lon="5.028828">
        <ele>54.19177</ele>
        <time>2021-06-30T17:38:43Z</time>
      </trkpt>
      <trkpt lat="43.941544" lon="5.028792">
        <ele>54.21143</ele>
        <time>2021-06-30T17:38:44Z</time>
      </trkpt>
      <trkpt lat="43.941734" lon="5.028758">
        <ele>54.20862</ele>
        <time>2021-06-30T17:38:45Z</time>
      </trkpt>
      <trkpt lat="43.941967" lon="5.028715">
        <ele>54.29266</ele>
        <time>2021-06-30T17:38:46Z</time>
      </trkpt>
      <trkpt lat="43.942184" lon="5.028676">
        <ele>53.57990</ele>
        <time>2021-06-30T17:38:47Z</time>
      </trkpt>
      <trkpt lat="43.942375" lon="5.028641">
        <ele>54.18921</ele>
        <time>2021-06-30T17:38:48Z</time>
      </trkpt>
      <trkpt lat="43.942577" lon="5.028603">
        <ele>54.29297</ele>
        <time>2021-06-30T17:38:49Z</time>
      </trkpt>
      <trkpt lat="43.942783" lon="5.028566">
        <ele>55.28455</ele>
        <time>2021-06-30T17:38:50Z</time>
      </trkpt>
      <trkpt lat="43.942963" lon="5.028533">
        <ele>54.80914</ele>
        <time>2021-06-30T17:38:51Z</time>
      </trkpt>
      <trkpt lat="43.943176" lon="5.028494">
        <ele>54.31659</ele>
        <time>2021-06-30T17:38:52Z</time>
      </trkpt>
      <trkpt lat="43.943371" lon="5.028458">
        <ele>54.28369</ele>
        <time>2021-06-30T17:38:53Z</time>
      </trkpt>
      <trkpt lat="43.943371" lon="5.028458">
        <ele>54.23779</ele>
        <time>2021-06-30T17:38:54Z</time>
      </trkpt>
      <trkpt lat="43.943588" lon="5.028419">
        <ele>54.27844</ele>
        <time>2021-06-30T17:38:55Z</time>
      </trkpt>
      <trkpt lat="43.943783" lon="5.028383">
        <ele>54.64191</ele>
        <time>2021-06-30T17:38:56Z</time>
      </trkpt>
      <trkpt lat="43.943981" lon="5.028347">
        <ele>54.45593</ele>
        <time>2021-06-30T17:38:57Z</time>
      </trkpt>
      <trkpt lat="43.944187" lon="5.028309">
        <ele>54.63245</ele>
        <time>2021-06-30T17:38:58Z</time>
      </trkpt>
      <trkpt lat="43.944412" lon="5.028268">
        <ele>53.78973</ele>
        <time>2021-06-30T17:38:59Z</time>
      </trkpt>
      <trkpt lat="43.944630" lon="5.028229">
        <ele>54.06989</ele>
        <time>2021-06-30T17:39:00Z</time>
      </trkpt>
      <trkpt lat="43.944836" lon="5.028190">
        <ele>53.56720</ele>
        <time>2021-06-30T17:39:01Z</time>
      </trkpt>
      <trkpt lat="43.945030" lon="5.028155">
        <ele>53.72943</ele>
        <time>2021-06-30T17:39:02Z</time>
      </trkpt>
      <trkpt lat="43.945217" lon="5.028121">
        <ele>53.62927</ele>
        <time>2021-06-30T17:39:03Z</time>
      </trkpt>
      <trkpt lat="43.945389" lon="5.028089">
        <ele>53.32031</ele>
        <time>2021-06-30T17:39:04Z</time>
      </trkpt>
      <trkpt lat="43.945599" lon="5.028051">
        <ele>52.89111</ele>
        <time>2021-06-30T17:39:05Z</time>
      </trkpt>
      <trkpt lat="43.945789" lon="5.028016">
        <ele>52.71350</ele>
        <time>2021-06-30T17:39:06Z</time>
      </trkpt>
      <trkpt lat="43.945969" lon="5.027983">
        <ele>52.53296</ele>
        <time>2021-06-30T17:39:07Z</time>
      </trkpt>
      <trkpt lat="43.946175" lon="5.027945">
        <ele>52.72467</ele>
        <time>2021-06-30T17:39:08Z</time>
      </trkpt>
      <trkpt lat="43.946365" lon="5.027911">
        <ele>53.17596</ele>
        <time>2021-06-30T17:39:09Z</time>
      </trkpt>
      <trkpt lat="43.946365" lon="5.027911">
        <ele>53.13715</ele>
        <time>2021-06-30T17:39:10Z</time>
      </trkpt>
      <trkpt lat="43.946564" lon="5.027880">
        <ele>52.87085</ele>
        <time>2021-06-30T17:39:11Z</time>
      </trkpt>
      <trkpt lat="43.946789" lon="5.027845">
        <ele>52.09314</ele>
        <time>2021-06-30T17:39:12Z</time>
      </trkpt>
      <trkpt lat="43.946976" lon="5.027816">
        <ele>52.35028</ele>
        <time>2021-06-30T17:39:13Z</time>
      </trkpt>
      <trkpt lat="43.947170" lon="5.027781">
        <ele>52.59229</ele>
        <time>2021-06-30T17:39:14Z</time>
      </trkpt>
      <trkpt lat="43.947350" lon="5.027745">
        <ele>52.44812</ele>
        <time>2021-06-30T17:39:15Z</time>
      </trkpt>
      <trkpt lat="43.947559" lon="5.027703">
        <ele>52.38385</ele>
        <time>2021-06-30T17:39:16Z</time>
      </trkpt>
      <trkpt lat="43.947720" lon="5.027671">
        <ele>52.57953</ele>
        <time>2021-06-30T17:39:17Z</time>
      </trkpt>
      <trkpt lat="43.947926" lon="5.027629">
        <ele>53.07013</ele>
        <time>2021-06-30T17:39:18Z</time>
      </trkpt>
      <trkpt lat="43.948132" lon="5.027587">
        <ele>52.17279</ele>
        <time>2021-06-30T17:39:19Z</time>
      </trkpt>
      <trkpt lat="43.948330" lon="5.027546">
        <ele>52.16840</ele>
        <time>2021-06-30T17:39:20Z</time>
      </trkpt>
      <trkpt lat="43.948528" lon="5.027506">
        <ele>52.22937</ele>
        <time>2021-06-30T17:39:21Z</time>
      </trkpt>
      <trkpt lat="43.948761" lon="5.027459">
        <ele>52.59058</ele>
        <time>2021-06-30T17:39:22Z</time>
      </trkpt>
      <trkpt lat="43.948975" lon="5.027415">
        <ele>52.83887</ele>
        <time>2021-06-30T17:39:23Z</time>
      </trkpt>
      <trkpt lat="43.949181" lon="5.027373">
        <ele>52.98334</ele>
        <time>2021-06-30T17:39:24Z</time>
      </trkpt>
      <trkpt lat="43.949390" lon="5.027330">
        <ele>53.33344</ele>
        <time>2021-06-30T17:39:25Z</time>
      </trkpt>
      <trkpt lat="43.949390" lon="5.027330">
        <ele>54.25183</ele>
        <time>2021-06-30T17:39:26Z</time>
      </trkpt>
      <trkpt lat="43.949623" lon="5.027283">
        <ele>54.26617</ele>
        <time>2021-06-30T17:39:27Z</time>
      </trkpt>
      <trkpt lat="43.949810" lon="5.027245">
        <ele>53.65769</ele>
        <time>2021-06-30T17:39:28Z</time>
      </trkpt>
      <trkpt lat="43.950020" lon="5.027215">
        <ele>52.78571</ele>
        <time>2021-06-30T17:39:29Z</time>
      </trkpt>
      <trkpt lat="43.950077" lon="5.027202">
        <ele>51.63020</ele>
        <time>2021-06-30T17:39:30Z</time>
      </trkpt>
      <trkpt lat="43.950245" lon="5.027173">
        <ele>52.14984</ele>
        <time>2021-06-30T17:39:31Z</time>
      </trkpt>
      <trkpt lat="43.950386" lon="5.027152">
        <ele>51.59431</ele>
        <time>2021-06-30T17:39:32Z</time>
      </trkpt>
      <trkpt lat="43.950535" lon="5.027129">
        <ele>50.85105</ele>
        <time>2021-06-30T17:39:33Z</time>
      </trkpt>
      <trkpt lat="43.950638" lon="5.027113">
        <ele>50.67192</ele>
        <time>2021-06-30T17:39:34Z</time>
      </trkpt>
      <trkpt lat="43.950722" lon="5.027099">
        <ele>50.62270</ele>
        <time>2021-06-30T17:39:35Z</time>
      </trkpt>
      <trkpt lat="43.950813" lon="5.027091">
        <ele>50.62325</ele>
        <time>2021-06-30T17:39:36Z</time>
      </trkpt>
      <trkpt lat="43.950832" lon="5.027423">
        <ele>50.81343</ele>
        <time>2021-06-30T17:39:37Z</time>
      </trkpt>
      <trkpt lat="43.950832" lon="5.027423">
        <ele>50.85432</ele>
        <time>2021-06-30T17:39:38Z</time>
      </trkpt>
      <trkpt lat="43.950970" lon="5.027078">
        <ele>50.55251</ele>
        <time>2021-06-30T17:39:39Z</time>
      </trkpt>
      <trkpt lat="43.951057" lon="5.027070">
        <ele>50.17709</ele>
        <time>2021-06-30T17:39:40Z</time>
      </trkpt>
      <trkpt lat="43.951107" lon="5.027066">
        <ele>49.79010</ele>
        <time>2021-06-30T17:39:41Z</time>
      </trkpt>
      <trkpt lat="43.951122" lon="5.027065">
        <ele>49.51896</ele>
        <time>2021-06-30T17:39:42Z</time>
      </trkpt>
      <trkpt lat="43.951180" lon="5.027060">
        <ele>49.20519</ele>
        <time>2021-06-30T17:39:43Z</time>
      </trkpt>
      <trkpt lat="43.951210" lon="5.027058">
        <ele>49.37448</ele>
        <time>2021-06-30T17:39:44Z</time>
      </trkpt>
      <trkpt lat="43.951225" lon="5.027056">
        <ele>49.29654</ele>
        <time>2021-06-30T17:39:45Z</time>
      </trkpt>
      <trkpt lat="43.951241" lon="5.027055">
        <ele>49.38300</ele>
        <time>2021-06-30T17:39:46Z</time>
      </trkpt>
      <trkpt lat="43.951244" lon="5.027055">
        <ele>49.22186</ele>
        <time>2021-06-30T17:39:47Z</time>
      </trkpt>
      <trkpt lat="43.951244" lon="5.027055">
        <ele>49.40068</ele>
        <time>2021-06-30T17:39:48Z</time>
      </trkpt>
      <trkpt lat="43.951244" lon="5.027055">
        <ele>49.40409</ele>
        <time>2021-06-30T17:39:49Z</time>
      </trkpt>
      <trkpt lat="43.951244" lon="5.027055">
        <ele>49.28491</ele>
        <time>2021-06-30T17:39:50Z</time>
      </trkpt>
      <trkpt lat="43.951244" lon="5.027055">
        <ele>49.29723</ele>
        <time>2021-06-30T17:39:51Z</time>
      </trkpt>
      <trkpt lat="43.951244" lon="5.027055">
        <ele>49.30072</ele>
        <time>2021-06-30T17:39:52Z</time>
      </trkpt>
      <trkpt lat="43.951244" lon="5.027055">
        <ele>49.29695</ele>
        <time>2021-06-30T17:39:53Z</time>
      </trkpt>
      <trkpt lat="43.951244" lon="5.027055">
        <ele>49.29894</ele>
        <time>2021-06-30T17:39:54Z</time>
      </trkpt>
      <trkpt lat="43.951244" lon="5.027055">
        <ele>49.38676</ele>
        <time>2021-06-30T17:39:55Z</time>
      </trkpt>
      <trkpt lat="43.951244" lon="5.027055">
        <ele>49.39235</ele>
        <time>2021-06-30T17:39:56Z</time>
      </trkpt>
      <trkpt lat="43.951244" lon="5.027055">
        <ele>49.37358</ele>
        <time>2021-06-30T17:39:57Z</time>
      </trkpt>
      <trkpt lat="43.951244" lon="5.027055">
        <ele>49.33419</ele>
        <time>2021-06-30T17:39:58Z</time>
      </trkpt>
      <trkpt lat="43.951244" lon="5.027055">
        <ele>49.29793</ele>
        <time>2021-06-30T17:39:59Z</time>
      </trkpt>
      <trkpt lat="43.951244" lon="5.027055">
        <ele>49.30330</ele>
        <time>2021-06-30T17:40:00Z</time>
      </trkpt>
      <trkpt lat="43.951244" lon="5.027055">
        <ele>49.31387</ele>
        <time>2021-06-30T17:40:01Z</time>
      </trkpt>
      <trkpt lat="43.951244" lon="5.027055">
        <ele>49.31887</ele>
        <time>2021-06-30T17:40:02Z</time>
      </trkpt>
      <trkpt lat="43.951244" lon="5.027055">
        <ele>49.30536</ele>
        <time>2021-06-30T17:40:03Z</time>
      </trkpt>
      <trkpt lat="43.951244" lon="5.027055">
        <ele>49.38186</ele>
        <time>2021-06-30T17:40:04Z</time>
      </trkpt>
      <trkpt lat="43.951244" lon="5.027055">
        <ele>49.42512</ele>
        <time>2021-06-30T17:40:05Z</time>
      </trkpt>
      <trkpt lat="43.951244" lon="5.027055">
        <ele>49.30364</ele>
        <time>2021-06-30T17:40:06Z</time>
      </trkpt>
      <trkpt lat="43.951244" lon="5.027055">
        <ele>49.25221</ele>
        <time>2021-06-30T17:40:07Z</time>
      </trkpt>
      <trkpt lat="43.951244" lon="5.027055">
        <ele>49.30689</ele>
        <time>2021-06-30T17:40:08Z</time>
      </trkpt>
      <trkpt lat="43.951244" lon="5.027055">
        <ele>49.30880</ele>
        <time>2021-06-30T17:40:09Z</time>
      </trkpt>
      <trkpt lat="43.951244" lon="5.027055">
        <ele>49.40953</ele>
        <time>2021-06-30T17:40:10Z</time>
      </trkpt>
      <trkpt lat="43.951244" lon="5.027055">
        <ele>49.47589</ele>
        <time>2021-06-30T17:40:11Z</time>
      </trkpt>
      <trkpt lat="43.951244" lon="5.027055">
        <ele>49.48476</ele>
        <time>2021-06-30T17:40:12Z</time>
      </trkpt>
      <trkpt lat="43.951244" lon="5.027055">
        <ele>49.53581</ele>
        <time>2021-06-30T17:40:13Z</time>
      </trkpt>
      <trkpt lat="43.951244" lon="5.027055">
        <ele>49.49159</ele>
        <time>2021-06-30T17:40:14Z</time>
      </trkpt>
      <trkpt lat="43.951244" lon="5.027055">
        <ele>49.42986</ele>
        <time>2021-06-30T17:40:15Z</time>
      </trkpt>
      <trkpt lat="43.951244" lon="5.027055">
        <ele>49.46783</ele>
        <time>2021-06-30T17:40:16Z</time>
      </trkpt>
      <trkpt lat="43.951244" lon="5.027055">
        <ele>49.47924</ele>
        <time>2021-06-30T17:40:17Z</time>
      </trkpt>
      <trkpt lat="43.951244" lon="5.027055">
        <ele>49.56927</ele>
        <time>2021-06-30T17:40:18Z</time>
      </trkpt>
      <trkpt lat="43.951244" lon="5.027055">
        <ele>49.53148</ele>
        <time>2021-06-30T17:40:19Z</time>
      </trkpt>
      <trkpt lat="43.951244" lon="5.027055">
        <ele>49.50037</ele>
        <time>2021-06-30T17:40:20Z</time>
      </trkpt>
      <trkpt lat="43.951244" lon="5.027055">
        <ele>49.51646</ele>
        <time>2021-06-30T17:40:21Z</time>
      </trkpt>
      <trkpt lat="43.951244" lon="5.027055">
        <ele>49.39243</ele>
        <time>2021-06-30T17:40:22Z</time>
      </trkpt>
      <trkpt lat="43.951244" lon="5.027055">
        <ele>49.38790</ele>
        <time>2021-06-30T17:40:23Z</time>
      </trkpt>
      <trkpt lat="43.951244" lon="5.027055">
        <ele>49.37048</ele>
        <time>2021-06-30T17:40:24Z</time>
      </trkpt>
      <trkpt lat="43.951244" lon="5.027055">
        <ele>49.30801</ele>
        <time>2021-06-30T17:40:25Z</time>
      </trkpt>
      <trkpt lat="43.951244" lon="5.027055">
        <ele>49.30610</ele>
        <time>2021-06-30T17:40:26Z</time>
      </trkpt>
      <trkpt lat="43.951244" lon="5.027055">
        <ele>49.40730</ele>
        <time>2021-06-30T17:40:27Z</time>
      </trkpt>
      <trkpt lat="43.951244" lon="5.027055">
        <ele>49.47680</ele>
        <time>2021-06-30T17:40:28Z</time>
      </trkpt>
      <trkpt lat="43.951244" lon="5.027055">
        <ele>49.58595</ele>
        <time>2021-06-30T17:40:32Z</time>
      </trkpt>
      <trkpt lat="43.951244" lon="5.027055">
        <ele>49.55717</ele>
        <time>2021-06-30T17:40:33Z</time>
      </trkpt>
      <trkpt lat="43.951248" lon="5.027314">
        <ele>49.71680</ele>
        <time>2021-06-30T17:53:38Z</time>
      </trkpt>
      <trkpt lat="43.951248" lon="5.027314">
        <ele>49.33893</ele>
        <time>2021-06-30T17:53:39Z</time>
      </trkpt>
      <trkpt lat="43.951248" lon="5.027314">
        <ele>46.51453</ele>
        <time>2021-06-30T17:53:40Z</time>
      </trkpt>
      <trkpt lat="43.951248" lon="5.027314">
        <ele>46.21436</ele>
        <time>2021-06-30T17:53:41Z</time>
      </trkpt>
      <trkpt lat="43.951248" lon="5.027314">
        <ele>47.44092</ele>
        <time>2021-06-30T17:53:42Z</time>
      </trkpt>
      <trkpt lat="43.951248" lon="5.027314">
        <ele>46.06030</ele>
        <time>2021-06-30T17:53:43Z</time>
      </trkpt>
      <trkpt lat="43.951248" lon="5.027314">
        <ele>46.50214</ele>
        <time>2021-06-30T17:53:44Z</time>
      </trkpt>
      <trkpt lat="43.951218" lon="5.027316">
        <ele>46.49042</ele>
        <time>2021-06-30T17:53:45Z</time>
      </trkpt>
      <trkpt lat="43.951214" lon="5.027315">
        <ele>45.36890</ele>
        <time>2021-06-30T17:53:46Z</time>
      </trkpt>
      <trkpt lat="43.951214" lon="5.027316">
        <ele>46.72546</ele>
        <time>2021-06-30T17:53:47Z</time>
      </trkpt>
      <trkpt lat="43.951214" lon="5.027316">
        <ele>45.56335</ele>
        <time>2021-06-30T17:53:48Z</time>
      </trkpt>
      <trkpt lat="43.951214" lon="5.027316">
        <ele>45.40759</ele>
        <time>2021-06-30T17:53:49Z</time>
      </trkpt>
      <trkpt lat="43.951214" lon="5.027316">
        <ele>45.12567</ele>
        <time>2021-06-30T17:53:50Z</time>
      </trkpt>
      <trkpt lat="43.951214" lon="5.027316">
        <ele>44.86243</ele>
        <time>2021-06-30T17:53:51Z</time>
      </trkpt>
      <trkpt lat="43.951214" lon="5.027316">
        <ele>44.80719</ele>
        <time>2021-06-30T17:53:52Z</time>
      </trkpt>
      <trkpt lat="43.951214" lon="5.027316">
        <ele>45.44116</ele>
        <time>2021-06-30T17:53:53Z</time>
      </trkpt>
      <trkpt lat="43.951214" lon="5.027316">
        <ele>45.43866</ele>
        <time>2021-06-30T17:53:54Z</time>
      </trkpt>
      <trkpt lat="43.951214" lon="5.027316">
        <ele>45.45410</ele>
        <time>2021-06-30T17:53:55Z</time>
      </trkpt>
      <trkpt lat="43.951214" lon="5.027316">
        <ele>45.54321</ele>
        <time>2021-06-30T17:53:56Z</time>
      </trkpt>
      <trkpt lat="43.951214" lon="5.027316">
        <ele>45.43781</ele>
        <time>2021-06-30T17:53:57Z</time>
      </trkpt>
      <trkpt lat="43.951214" lon="5.027316">
        <ele>45.40735</ele>
        <time>2021-06-30T17:53:58Z</time>
      </trkpt>
      <trkpt lat="43.951214" lon="5.027316">
        <ele>45.44397</ele>
        <time>2021-06-30T17:53:59Z</time>
      </trkpt>
      <trkpt lat="43.951214" lon="5.027316">
        <ele>45.35107</ele>
        <time>2021-06-30T17:54:00Z</time>
      </trkpt>
      <trkpt lat="43.951214" lon="5.027316">
        <ele>45.23431</ele>
        <time>2021-06-30T17:54:01Z</time>
      </trkpt>
      <trkpt lat="43.951214" lon="5.027316">
        <ele>44.50604</ele>
        <time>2021-06-30T17:54:02Z</time>
      </trkpt>
      <trkpt lat="43.951214" lon="5.027316">
        <ele>45.27502</ele>
        <time>2021-06-30T17:54:03Z</time>
      </trkpt>
      <trkpt lat="43.951214" lon="5.027316">
        <ele>46.64771</ele>
        <time>2021-06-30T17:54:04Z</time>
      </trkpt>
      <trkpt lat="43.951214" lon="5.027316">
        <ele>46.62738</ele>
        <time>2021-06-30T17:54:05Z</time>
      </trkpt>
      <trkpt lat="43.951214" lon="5.027316">
        <ele>46.54962</ele>
        <time>2021-06-30T17:54:06Z</time>
      </trkpt>
      <trkpt lat="43.951214" lon="5.027316">
        <ele>46.50879</ele>
        <time>2021-06-30T17:54:07Z</time>
      </trkpt>
      <trkpt lat="43.951214" lon="5.027316">
        <ele>46.47968</ele>
        <time>2021-06-30T17:54:08Z</time>
      </trkpt>
      <trkpt lat="43.951214" lon="5.027316">
        <ele>46.46271</ele>
        <time>2021-06-30T17:54:09Z</time>
      </trkpt>
      <trkpt lat="43.951214" lon="5.027316">
        <ele>46.45850</ele>
        <time>2021-06-30T17:54:10Z</time>
      </trkpt>
      <trkpt lat="43.951214" lon="5.027316">
        <ele>46.47058</ele>
        <time>2021-06-30T17:54:11Z</time>
      </trkpt>
      <trkpt lat="43.951214" lon="5.027316">
        <ele>46.47797</ele>
        <time>2021-06-30T17:54:12Z</time>
      </trkpt>
      <trkpt lat="43.951214" lon="5.027316">
        <ele>46.49365</ele>
        <time>2021-06-30T17:54:13Z</time>
      </trkpt>
      <trkpt lat="43.951214" lon="5.027316">
        <ele>46.50330</ele>
        <time>2021-06-30T17:54:14Z</time>
      </trkpt>
      <trkpt lat="43.951214" lon="5.027316">
        <ele>46.51538</ele>
        <time>2021-06-30T17:54:15Z</time>
      </trkpt>
      <trkpt lat="43.951214" lon="5.027316">
        <ele>46.50720</ele>
        <time>2021-06-30T17:54:16Z</time>
      </trkpt>
      <trkpt lat="43.951214" lon="5.027316">
        <ele>46.49768</ele>
        <time>2021-06-30T17:54:17Z</time>
      </trkpt>
      <trkpt lat="43.951214" lon="5.027316">
        <ele>46.49890</ele>
        <time>2021-06-30T17:54:18Z</time>
      </trkpt>
      <trkpt lat="43.951214" lon="5.027316">
        <ele>46.50647</ele>
        <time>2021-06-30T17:54:19Z</time>
      </trkpt>
      <trkpt lat="43.951214" lon="5.027316">
        <ele>46.52716</ele>
        <time>2021-06-30T17:54:20Z</time>
      </trkpt>
      <trkpt lat="43.951214" lon="5.027316">
        <ele>46.54352</ele>
        <time>2021-06-30T17:54:21Z</time>
      </trkpt>
      <trkpt lat="43.951214" lon="5.027316">
        <ele>46.53265</ele>
        <time>2021-06-30T17:54:22Z</time>
      </trkpt>
      <trkpt lat="43.951214" lon="5.027316">
        <ele>46.54706</ele>
        <time>2021-06-30T17:54:23Z</time>
      </trkpt>
      <trkpt lat="43.951214" lon="5.027316">
        <ele>46.54572</ele>
        <time>2021-06-30T17:54:24Z</time>
      </trkpt>
      <trkpt lat="43.951214" lon="5.027316">
        <ele>46.56598</ele>
        <time>2021-06-30T17:54:25Z</time>
      </trkpt>
      <trkpt lat="43.951214" lon="5.027316">
        <ele>46.58820</ele>
        <time>2021-06-30T17:54:26Z</time>
      </trkpt>
      <trkpt lat="43.951214" lon="5.027316">
        <ele>47.74396</ele>
        <time>2021-06-30T17:54:27Z</time>
      </trkpt>
      <trkpt lat="43.951214" lon="5.027316">
        <ele>47.74829</ele>
        <time>2021-06-30T17:54:28Z</time>
      </trkpt>
      <trkpt lat="43.951214" lon="5.027316">
        <ele>47.75500</ele>
        <time>2021-06-30T17:54:29Z</time>
      </trkpt>
      <trkpt lat="43.951214" lon="5.027316">
        <ele>47.76221</ele>
        <time>2021-06-30T17:54:30Z</time>
      </trkpt>
      <trkpt lat="43.951214" lon="5.027316">
        <ele>47.76697</ele>
        <time>2021-06-30T17:54:31Z</time>
      </trkpt>
      <trkpt lat="43.951214" lon="5.027316">
        <ele>47.77814</ele>
        <time>2021-06-30T17:54:32Z</time>
      </trkpt>
      <trkpt lat="43.951214" lon="5.027316">
        <ele>47.79175</ele>
        <time>2021-06-30T17:54:33Z</time>
      </trkpt>
      <trkpt lat="43.951214" lon="5.027316">
        <ele>47.79413</ele>
        <time>2021-06-30T17:54:34Z</time>
      </trkpt>
      <trkpt lat="43.951214" lon="5.027316">
        <ele>47.79871</ele>
        <time>2021-06-30T17:54:35Z</time>
      </trkpt>
      <trkpt lat="43.951214" lon="5.027316">
        <ele>47.79858</ele>
        <time>2021-06-30T17:54:36Z</time>
      </trkpt>
      <trkpt lat="43.951214" lon="5.027316">
        <ele>47.81274</ele>
        <time>2021-06-30T17:54:37Z</time>
      </trkpt>
      <trkpt lat="43.951214" lon="5.027316">
        <ele>47.81726</ele>
        <time>2021-06-30T17:54:38Z</time>
      </trkpt>
      <trkpt lat="43.951214" lon="5.027316">
        <ele>49.39612</ele>
        <time>2021-06-30T17:54:39Z</time>
      </trkpt>
      <trkpt lat="43.951214" lon="5.027316">
        <ele>49.43439</ele>
        <time>2021-06-30T17:54:40Z</time>
      </trkpt>
      <trkpt lat="43.951214" lon="5.027316">
        <ele>49.56921</ele>
        <time>2021-06-30T17:54:41Z</time>
      </trkpt>
      <trkpt lat="43.951214" lon="5.027316">
        <ele>49.51666</ele>
        <time>2021-06-30T17:54:42Z</time>
      </trkpt>
      <trkpt lat="43.951214" lon="5.027316">
        <ele>49.42181</ele>
        <time>2021-06-30T17:54:43Z</time>
      </trkpt>
      <trkpt lat="43.951214" lon="5.027316">
        <ele>49.27515</ele>
        <time>2021-06-30T17:54:44Z</time>
      </trkpt>
      <trkpt lat="43.951214" lon="5.027316">
        <ele>49.09552</ele>
        <time>2021-06-30T17:54:45Z</time>
      </trkpt>
      <trkpt lat="43.951214" lon="5.027316">
        <ele>48.95538</ele>
        <time>2021-06-30T17:54:46Z</time>
      </trkpt>
      <trkpt lat="43.951214" lon="5.027316">
        <ele>48.85175</ele>
        <time>2021-06-30T17:54:47Z</time>
      </trkpt>
      <trkpt lat="43.951214" lon="5.027316">
        <ele>48.77344</ele>
        <time>2021-06-30T17:54:48Z</time>
      </trkpt>
      <trkpt lat="43.951214" lon="5.027316">
        <ele>48.65472</ele>
        <time>2021-06-30T17:54:49Z</time>
      </trkpt>
      <trkpt lat="43.951214" lon="5.027316">
        <ele>48.60626</ele>
        <time>2021-06-30T17:54:50Z</time>
      </trkpt>
      <trkpt lat="43.951214" lon="5.027316">
        <ele>48.56921</ele>
        <time>2021-06-30T17:54:51Z</time>
      </trkpt>
      <trkpt lat="43.951214" lon="5.027316">
        <ele>48.62842</ele>
        <time>2021-06-30T17:54:52Z</time>
      </trkpt>
      <trkpt lat="43.951214" lon="5.027316">
        <ele>48.58746</ele>
        <time>2021-06-30T17:54:53Z</time>
      </trkpt>
      <trkpt lat="43.951214" lon="5.027316">
        <ele>48.60626</ele>
        <time>2021-06-30T17:54:54Z</time>
      </trkpt>
      <trkpt lat="43.951214" lon="5.027316">
        <ele>48.53210</ele>
        <time>2021-06-30T17:54:55Z</time>
      </trkpt>
      <trkpt lat="43.951214" lon="5.027316">
        <ele>51.82129</ele>
        <time>2021-06-30T17:54:56Z</time>
      </trkpt>
      <trkpt lat="43.951214" lon="5.027316">
        <ele>51.19836</ele>
        <time>2021-06-30T17:54:57Z</time>
      </trkpt>
      <trkpt lat="43.951214" lon="5.027316">
        <ele>50.65106</ele>
        <time>2021-06-30T17:54:58Z</time>
      </trkpt>
      <trkpt lat="43.951214" lon="5.027316">
        <ele>50.07440</ele>
        <time>2021-06-30T17:54:59Z</time>
      </trkpt>
      <trkpt lat="43.951214" lon="5.027316">
        <ele>50.38739</ele>
        <time>2021-06-30T17:55:00Z</time>
      </trkpt>
      <trkpt lat="43.951214" lon="5.027316">
        <ele>49.76978</ele>
        <time>2021-06-30T17:55:01Z</time>
      </trkpt>
      <trkpt lat="43.951214" lon="5.027316">
        <ele>48.85925</ele>
        <time>2021-06-30T17:55:02Z</time>
      </trkpt>
      <trkpt lat="43.951214" lon="5.027316">
        <ele>48.57135</ele>
        <time>2021-06-30T17:55:03Z</time>
      </trkpt>
      <trkpt lat="43.951214" lon="5.027316">
        <ele>48.42401</ele>
        <time>2021-06-30T17:55:04Z</time>
      </trkpt>
      <trkpt lat="43.951214" lon="5.027316">
        <ele>48.92139</ele>
        <time>2021-06-30T17:55:05Z</time>
      </trkpt>
      <trkpt lat="43.951199" lon="5.027335">
        <ele>49.74219</ele>
        <time>2021-06-30T17:55:06Z</time>
      </trkpt>
      <trkpt lat="43.951199" lon="5.027335">
        <ele>50.07056</ele>
        <time>2021-06-30T17:55:07Z</time>
      </trkpt>
      <trkpt lat="43.951199" lon="5.027335">
        <ele>50.47705</ele>
        <time>2021-06-30T17:55:08Z</time>
      </trkpt>
      <trkpt lat="43.951199" lon="5.027335">
        <ele>50.54431</ele>
        <time>2021-06-30T17:55:09Z</time>
      </trkpt>
      <trkpt lat="43.951199" lon="5.027335">
        <ele>51.97662</ele>
        <time>2021-06-30T17:55:10Z</time>
      </trkpt>
      <trkpt lat="43.951199" lon="5.027335">
        <ele>51.89374</ele>
        <time>2021-06-30T17:55:11Z</time>
      </trkpt>
      <trkpt lat="43.951199" lon="5.027335">
        <ele>51.26965</ele>
        <time>2021-06-30T17:55:12Z</time>
      </trkpt>
      <trkpt lat="43.951199" lon="5.027335">
        <ele>52.68378</ele>
        <time>2021-06-30T17:55:13Z</time>
      </trkpt>
      <trkpt lat="43.951199" lon="5.027335">
        <ele>52.03906</ele>
        <time>2021-06-30T17:55:14Z</time>
      </trkpt>
      <trkpt lat="43.951199" lon="5.027335">
        <ele>51.92651</ele>
        <time>2021-06-30T17:55:15Z</time>
      </trkpt>
      <trkpt lat="43.951199" lon="5.027335">
        <ele>51.82574</ele>
        <time>2021-06-30T17:55:16Z</time>
      </trkpt>
      <trkpt lat="43.951199" lon="5.027335">
        <ele>51.78271</ele>
        <time>2021-06-30T17:55:17Z</time>
      </trkpt>
      <trkpt lat="43.951199" lon="5.027335">
        <ele>51.69635</ele>
        <time>2021-06-30T17:55:18Z</time>
      </trkpt>
      <trkpt lat="43.951199" lon="5.027335">
        <ele>51.60822</ele>
        <time>2021-06-30T17:55:19Z</time>
      </trkpt>
      <trkpt lat="43.951199" lon="5.027335">
        <ele>51.52258</ele>
        <time>2021-06-30T17:55:20Z</time>
      </trkpt>
      <trkpt lat="43.951199" lon="5.027335">
        <ele>51.49506</ele>
        <time>2021-06-30T17:55:21Z</time>
      </trkpt>
      <trkpt lat="43.951199" lon="5.027335">
        <ele>51.48346</ele>
        <time>2021-06-30T17:55:22Z</time>
      </trkpt>
      <trkpt lat="43.951199" lon="5.027335">
        <ele>51.46753</ele>
        <time>2021-06-30T17:55:23Z</time>
      </trkpt>
      <trkpt lat="43.951199" lon="5.027335">
        <ele>51.48755</ele>
        <time>2021-06-30T17:55:24Z</time>
      </trkpt>
      <trkpt lat="43.951199" lon="5.027335">
        <ele>51.46552</ele>
        <time>2021-06-30T17:55:25Z</time>
      </trkpt>
      <trkpt lat="43.951199" lon="5.027335">
        <ele>51.30316</ele>
        <time>2021-06-30T17:55:26Z</time>
      </trkpt>
      <trkpt lat="43.951180" lon="5.027314">
        <ele>53.89563</ele>
        <time>2021-06-30T17:55:47Z</time>
      </trkpt>
      <trkpt lat="43.951180" lon="5.027314">
        <ele>53.73529</ele>
        <time>2021-06-30T17:55:48Z</time>
      </trkpt>
      <trkpt lat="43.951180" lon="5.027314">
        <ele>53.71472</ele>
        <time>2021-06-30T17:55:49Z</time>
      </trkpt>
      <trkpt lat="43.951180" lon="5.027314">
        <ele>53.67505</ele>
        <time>2021-06-30T17:55:50Z</time>
      </trkpt>
      <trkpt lat="43.951180" lon="5.027314">
        <ele>53.63824</ele>
        <time>2021-06-30T17:55:51Z</time>
      </trkpt>
      <trkpt lat="43.951180" lon="5.027314">
        <ele>56.17633</ele>
        <time>2021-06-30T17:55:52Z</time>
      </trkpt>
      <trkpt lat="43.951180" lon="5.027314">
        <ele>55.41351</ele>
        <time>2021-06-30T17:55:53Z</time>
      </trkpt>
      <trkpt lat="43.951180" lon="5.027314">
        <ele>55.30890</ele>
        <time>2021-06-30T17:55:54Z</time>
      </trkpt>
      <trkpt lat="43.951180" lon="5.027314">
        <ele>54.74036</ele>
        <time>2021-06-30T17:55:55Z</time>
      </trkpt>
      <trkpt lat="43.951180" lon="5.027314">
        <ele>54.36487</ele>
        <time>2021-06-30T17:55:56Z</time>
      </trkpt>
      <trkpt lat="43.951180" lon="5.027314">
        <ele>54.86230</ele>
        <time>2021-06-30T17:55:57Z</time>
      </trkpt>
      <trkpt lat="43.951180" lon="5.027314">
        <ele>54.27869</ele>
        <time>2021-06-30T17:55:58Z</time>
      </trkpt>
      <trkpt lat="43.951180" lon="5.027314">
        <ele>55.92792</ele>
        <time>2021-06-30T17:55:59Z</time>
      </trkpt>
      <trkpt lat="43.951195" lon="5.027312">
        <ele>55.80426</ele>
        <time>2021-06-30T17:56:00Z</time>
      </trkpt>
      <trkpt lat="43.951279" lon="5.027312">
        <ele>56.27380</ele>
        <time>2021-06-30T17:56:01Z</time>
      </trkpt>
      <trkpt lat="43.951302" lon="5.027277">
        <ele>56.95490</ele>
        <time>2021-06-30T17:56:02Z</time>
      </trkpt>
      <trkpt lat="43.951332" lon="5.027224">
        <ele>58.63422</ele>
        <time>2021-06-30T17:56:03Z</time>
      </trkpt>
      <trkpt lat="43.951363" lon="5.027182">
        <ele>63.75848</ele>
        <time>2021-06-30T17:56:04Z</time>
      </trkpt>
      <trkpt lat="43.951462" lon="5.027170">
        <ele>62.70593</ele>
        <time>2021-06-30T17:56:05Z</time>
      </trkpt>
      <trkpt lat="43.951550" lon="5.027187">
        <ele>62.11554</ele>
        <time>2021-06-30T17:56:06Z</time>
      </trkpt>
      <trkpt lat="43.951599" lon="5.027159">
        <ele>61.11371</ele>
        <time>2021-06-30T17:56:07Z</time>
      </trkpt>
      <trkpt lat="43.951653" lon="5.026990">
        <ele>61.56140</ele>
        <time>2021-06-30T17:56:08Z</time>
      </trkpt>
      <trkpt lat="43.951736" lon="5.026970">
        <ele>61.39465</ele>
        <time>2021-06-30T17:56:09Z</time>
      </trkpt>
      <trkpt lat="43.951847" lon="5.026942">
        <ele>60.73175</ele>
        <time>2021-06-30T17:56:10Z</time>
      </trkpt>
      <trkpt lat="43.951958" lon="5.026915">
        <ele>60.69116</ele>
        <time>2021-06-30T17:56:11Z</time>
      </trkpt>
      <trkpt lat="43.951958" lon="5.026915">
        <ele>60.83252</ele>
        <time>2021-06-30T17:56:12Z</time>
      </trkpt>
      <trkpt lat="43.952084" lon="5.026884">
        <ele>61.09698</ele>
        <time>2021-06-30T17:56:13Z</time>
      </trkpt>
      <trkpt lat="43.952152" lon="5.026867">
        <ele>60.95099</ele>
        <time>2021-06-30T17:56:14Z</time>
      </trkpt>
      <trkpt lat="43.952209" lon="5.026853">
        <ele>60.62036</ele>
        <time>2021-06-30T17:56:15Z</time>
      </trkpt>
      <trkpt lat="43.952290" lon="5.026833">
        <ele>60.76831</ele>
        <time>2021-06-30T17:56:16Z</time>
      </trkpt>
      <trkpt lat="43.952446" lon="5.026795">
        <ele>59.89948</ele>
        <time>2021-06-30T17:56:17Z</time>
      </trkpt>
      <trkpt lat="43.952728" lon="5.026726">
        <ele>59.64771</ele>
        <time>2021-06-30T17:56:18Z</time>
      </trkpt>
      <trkpt lat="43.952930" lon="5.026689">
        <ele>59.08887</ele>
        <time>2021-06-30T17:56:19Z</time>
      </trkpt>
      <trkpt lat="43.953121" lon="5.026654">
        <ele>58.76007</ele>
        <time>2021-06-30T17:56:20Z</time>
      </trkpt>
      <trkpt lat="43.953312" lon="5.026619">
        <ele>58.81512</ele>
        <time>2021-06-30T17:56:21Z</time>
      </trkpt>
      <trkpt lat="43.953518" lon="5.026581">
        <ele>58.81860</ele>
        <time>2021-06-30T17:56:22Z</time>
      </trkpt>
      <trkpt lat="43.953712" lon="5.026541">
        <ele>57.81873</ele>
        <time>2021-06-30T17:56:23Z</time>
      </trkpt>
      <trkpt lat="43.953876" lon="5.026505">
        <ele>58.57007</ele>
        <time>2021-06-30T17:56:24Z</time>
      </trkpt>
      <trkpt lat="43.954048" lon="5.026468">
        <ele>58.35455</ele>
        <time>2021-06-30T17:56:25Z</time>
      </trkpt>
      <trkpt lat="43.954048" lon="5.026468">
        <ele>58.25977</ele>
        <time>2021-06-30T17:56:26Z</time>
      </trkpt>
      <trkpt lat="43.954243" lon="5.026426">
        <ele>58.96490</ele>
        <time>2021-06-30T17:56:27Z</time>
      </trkpt>
      <trkpt lat="43.954403" lon="5.026399">
        <ele>59.67871</ele>
        <time>2021-06-30T17:56:28Z</time>
      </trkpt>
      <trkpt lat="43.954582" lon="5.026368">
        <ele>60.41003</ele>
        <time>2021-06-30T17:56:29Z</time>
      </trkpt>
      <trkpt lat="43.954765" lon="5.026337">
        <ele>60.64856</ele>
        <time>2021-06-30T17:56:30Z</time>
      </trkpt>
      <trkpt lat="43.954933" lon="5.026308">
        <ele>61.21710</ele>
        <time>2021-06-30T17:56:31Z</time>
      </trkpt>
      <trkpt lat="43.955105" lon="5.026278">
        <ele>61.66461</ele>
        <time>2021-06-30T17:56:32Z</time>
      </trkpt>
      <trkpt lat="43.955284" lon="5.026247">
        <ele>63.01166</ele>
        <time>2021-06-30T17:56:33Z</time>
      </trkpt>
      <trkpt lat="43.955460" lon="5.026207">
        <ele>63.23108</ele>
        <time>2021-06-30T17:56:34Z</time>
      </trkpt>
      <trkpt lat="43.955635" lon="5.026170">
        <ele>63.52838</ele>
        <time>2021-06-30T17:56:35Z</time>
      </trkpt>
      <trkpt lat="43.955818" lon="5.026132">
        <ele>63.52924</ele>
        <time>2021-06-30T17:56:36Z</time>
      </trkpt>
      <trkpt lat="43.955818" lon="5.026132">
        <ele>62.56769</ele>
        <time>2021-06-30T17:56:37Z</time>
      </trkpt>
      <trkpt lat="43.956032" lon="5.026093">
        <ele>61.47949</ele>
        <time>2021-06-30T17:56:38Z</time>
      </trkpt>
      <trkpt lat="43.956264" lon="5.026071">
        <ele>61.49194</ele>
        <time>2021-06-30T17:56:39Z</time>
      </trkpt>
      <trkpt lat="43.956482" lon="5.026050">
        <ele>61.36212</ele>
        <time>2021-06-30T17:56:40Z</time>
      </trkpt>
      <trkpt lat="43.956707" lon="5.026054">
        <ele>61.05762</ele>
        <time>2021-06-30T17:56:41Z</time>
      </trkpt>
      <trkpt lat="43.956944" lon="5.026064">
        <ele>58.95300</ele>
        <time>2021-06-30T17:56:42Z</time>
      </trkpt>
      <trkpt lat="43.957214" lon="5.026066">
        <ele>58.57263</ele>
        <time>2021-06-30T17:56:43Z</time>
      </trkpt>
      <trkpt lat="43.957474" lon="5.026080">
        <ele>58.90308</ele>
        <time>2021-06-30T17:56:44Z</time>
      </trkpt>
      <trkpt lat="43.957687" lon="5.026092">
        <ele>58.64636</ele>
        <time>2021-06-30T17:56:45Z</time>
      </trkpt>
      <trkpt lat="43.957924" lon="5.026117">
        <ele>58.73615</ele>
        <time>2021-06-30T17:56:46Z</time>
      </trkpt>
      <trkpt lat="43.958145" lon="5.026141">
        <ele>58.57147</ele>
        <time>2021-06-30T17:56:47Z</time>
      </trkpt>
      <trkpt lat="43.958363" lon="5.026183">
        <ele>58.32990</ele>
        <time>2021-06-30T17:56:48Z</time>
      </trkpt>
      <trkpt lat="43.958569" lon="5.026234">
        <ele>58.14191</ele>
        <time>2021-06-30T17:56:49Z</time>
      </trkpt>
      <trkpt lat="43.958828" lon="5.026304">
        <ele>58.69373</ele>
        <time>2021-06-30T17:56:50Z</time>
      </trkpt>
      <trkpt lat="43.959057" lon="5.026364">
        <ele>59.43201</ele>
        <time>2021-06-30T17:56:51Z</time>
      </trkpt>
      <trkpt lat="43.959282" lon="5.026425">
        <ele>61.23676</ele>
        <time>2021-06-30T17:56:52Z</time>
      </trkpt>
      <trkpt lat="43.959526" lon="5.026492">
        <ele>62.09137</ele>
        <time>2021-06-30T17:56:53Z</time>
      </trkpt>
      <trkpt lat="43.959743" lon="5.026543">
        <ele>61.94714</ele>
        <time>2021-06-30T17:56:54Z</time>
      </trkpt>
      <trkpt lat="43.959991" lon="5.026584">
        <ele>62.16998</ele>
        <time>2021-06-30T17:56:55Z</time>
      </trkpt>
      <trkpt lat="43.959991" lon="5.026584">
        <ele>60.83875</ele>
        <time>2021-06-30T17:56:56Z</time>
      </trkpt>
      <trkpt lat="43.960236" lon="5.026606">
        <ele>62.53894</ele>
        <time>2021-06-30T17:56:57Z</time>
      </trkpt>
      <trkpt lat="43.960526" lon="5.026607">
        <ele>63.15247</ele>
        <time>2021-06-30T17:56:58Z</time>
      </trkpt>
      <trkpt lat="43.960793" lon="5.026596">
        <ele>61.56653</ele>
        <time>2021-06-30T17:56:59Z</time>
      </trkpt>
      <trkpt lat="43.961044" lon="5.026564">
        <ele>60.76709</ele>
        <time>2021-06-30T17:57:00Z</time>
      </trkpt>
      <trkpt lat="43.961281" lon="5.026513">
        <ele>60.92993</ele>
        <time>2021-06-30T17:57:01Z</time>
      </trkpt>
      <trkpt lat="43.961472" lon="5.026456">
        <ele>60.27649</ele>
        <time>2021-06-30T17:57:02Z</time>
      </trkpt>
      <trkpt lat="43.961681" lon="5.026392">
        <ele>60.20227</ele>
        <time>2021-06-30T17:57:03Z</time>
      </trkpt>
      <trkpt lat="43.961872" lon="5.026334">
        <ele>59.31165</ele>
        <time>2021-06-30T17:57:04Z</time>
      </trkpt>
      <trkpt lat="43.962097" lon="5.026236">
        <ele>58.89648</ele>
        <time>2021-06-30T17:57:05Z</time>
      </trkpt>
      <trkpt lat="43.962288" lon="5.026151">
        <ele>59.75385</ele>
        <time>2021-06-30T17:57:06Z</time>
      </trkpt>
      <trkpt lat="43.962482" lon="5.026064">
        <ele>59.05151</ele>
        <time>2021-06-30T17:57:07Z</time>
      </trkpt>
      <trkpt lat="43.962696" lon="5.025968">
        <ele>58.65515</ele>
        <time>2021-06-30T17:57:08Z</time>
      </trkpt>
      <trkpt lat="43.962696" lon="5.025968">
        <ele>58.88007</ele>
        <time>2021-06-30T17:57:09Z</time>
      </trkpt>
      <trkpt lat="43.962933" lon="5.025852">
        <ele>58.40234</ele>
        <time>2021-06-30T17:57:10Z</time>
      </trkpt>
      <trkpt lat="43.963116" lon="5.025746">
        <ele>59.06897</ele>
        <time>2021-06-30T17:57:11Z</time>
      </trkpt>
      <trkpt lat="43.963383" lon="5.025588">
        <ele>58.49945</ele>
        <time>2021-06-30T17:57:12Z</time>
      </trkpt>
      <trkpt lat="43.963737" lon="5.025394">
        <ele>57.81482</ele>
        <time>2021-06-30T17:57:13Z</time>
      </trkpt>
      <trkpt lat="43.964085" lon="5.025227">
        <ele>57.39038</ele>
        <time>2021-06-30T17:57:14Z</time>
      </trkpt>
      <trkpt lat="43.964409" lon="5.025069">
        <ele>56.63574</ele>
        <time>2021-06-30T17:57:15Z</time>
      </trkpt>
      <trkpt lat="43.964710" lon="5.024899">
        <ele>55.16376</ele>
        <time>2021-06-30T17:57:16Z</time>
      </trkpt>
      <trkpt lat="43.965103" lon="5.024641">
        <ele>55.45972</ele>
        <time>2021-06-30T17:57:17Z</time>
      </trkpt>
      <trkpt lat="43.965401" lon="5.024439">
        <ele>54.79803</ele>
        <time>2021-06-30T17:57:18Z</time>
      </trkpt>
      <trkpt lat="43.965687" lon="5.024214">
        <ele>54.41718</ele>
        <time>2021-06-30T17:57:19Z</time>
      </trkpt>
      <trkpt lat="43.965973" lon="5.023971">
        <ele>53.58069</ele>
        <time>2021-06-30T17:57:20Z</time>
      </trkpt>
      <trkpt lat="43.966232" lon="5.023742">
        <ele>52.41168</ele>
        <time>2021-06-30T17:57:21Z</time>
      </trkpt>
      <trkpt lat="43.966232" lon="5.023742">
        <ele>52.32971</ele>
        <time>2021-06-30T17:57:22Z</time>
      </trkpt>
      <trkpt lat="43.966488" lon="5.023498">
        <ele>53.56665</ele>
        <time>2021-06-30T17:57:23Z</time>
      </trkpt>
      <trkpt lat="43.966740" lon="5.023258">
        <ele>53.74884</ele>
        <time>2021-06-30T17:57:24Z</time>
      </trkpt>
      <trkpt lat="43.966995" lon="5.023013">
        <ele>54.07513</ele>
        <time>2021-06-30T17:57:25Z</time>
      </trkpt>
      <trkpt lat="43.967243" lon="5.022776">
        <ele>54.65289</ele>
        <time>2021-06-30T17:57:26Z</time>
      </trkpt>
      <trkpt lat="43.967499" lon="5.022529">
        <ele>54.55585</ele>
        <time>2021-06-30T17:57:27Z</time>
      </trkpt>
      <trkpt lat="43.967731" lon="5.022303">
        <ele>53.82629</ele>
        <time>2021-06-30T17:57:28Z</time>
      </trkpt>
      <trkpt lat="43.967972" lon="5.022072">
        <ele>53.95709</ele>
        <time>2021-06-30T17:57:29Z</time>
      </trkpt>
      <trkpt lat="43.967972" lon="5.022072">
        <ele>53.77057</ele>
        <time>2021-06-30T17:57:30Z</time>
      </trkpt>
      <trkpt lat="43.968212" lon="5.021851">
        <ele>53.78552</ele>
        <time>2021-06-30T17:57:31Z</time>
      </trkpt>
      <trkpt lat="43.968430" lon="5.021651">
        <ele>54.50482</ele>
        <time>2021-06-30T17:57:32Z</time>
      </trkpt>
      <trkpt lat="43.968643" lon="5.021487">
        <ele>54.72357</ele>
        <time>2021-06-30T17:57:33Z</time>
      </trkpt>
      <trkpt lat="43.968891" lon="5.021330">
        <ele>54.73883</ele>
        <time>2021-06-30T17:57:34Z</time>
      </trkpt>
      <trkpt lat="43.969124" lon="5.021198">
        <ele>54.91284</ele>
        <time>2021-06-30T17:57:35Z</time>
      </trkpt>
      <trkpt lat="43.969414" lon="5.021036">
        <ele>55.41772</ele>
        <time>2021-06-30T17:57:36Z</time>
      </trkpt>
      <trkpt lat="43.969688" lon="5.020879">
        <ele>55.38544</ele>
        <time>2021-06-30T17:57:37Z</time>
      </trkpt>
      <trkpt lat="43.970009" lon="5.020706">
        <ele>55.93732</ele>
        <time>2021-06-30T17:57:38Z</time>
      </trkpt>
      <trkpt lat="43.970299" lon="5.020559">
        <ele>56.59998</ele>
        <time>2021-06-30T17:57:39Z</time>
      </trkpt>
      <trkpt lat="43.970608" lon="5.020405">
        <ele>56.43427</ele>
        <time>2021-06-30T17:57:40Z</time>
      </trkpt>
      <trkpt lat="43.970863" lon="5.020276">
        <ele>56.65106</ele>
        <time>2021-06-30T17:57:41Z</time>
      </trkpt>
      <trkpt lat="43.970863" lon="5.020276">
        <ele>57.10742</ele>
        <time>2021-06-30T17:57:42Z</time>
      </trkpt>
      <trkpt lat="43.971092" lon="5.020145">
        <ele>56.43073</ele>
        <time>2021-06-30T17:57:43Z</time>
      </trkpt>
      <trkpt lat="43.971333" lon="5.020002">
        <ele>56.13037</ele>
        <time>2021-06-30T17:57:44Z</time>
      </trkpt>
      <trkpt lat="43.971535" lon="5.019894">
        <ele>56.34741</ele>
        <time>2021-06-30T17:57:45Z</time>
      </trkpt>
      <trkpt lat="43.971703" lon="5.019806">
        <ele>56.21533</ele>
        <time>2021-06-30T17:57:46Z</time>
      </trkpt>
      <trkpt lat="43.971897" lon="5.019704">
        <ele>56.03412</ele>
        <time>2021-06-30T17:57:47Z</time>
      </trkpt>
      <trkpt lat="43.972054" lon="5.019621">
        <ele>56.36420</ele>
        <time>2021-06-30T17:57:48Z</time>
      </trkpt>
      <trkpt lat="43.972237" lon="5.019523">
        <ele>56.38422</ele>
        <time>2021-06-30T17:57:49Z</time>
      </trkpt>
      <trkpt lat="43.972446" lon="5.019425">
        <ele>56.13153</ele>
        <time>2021-06-30T17:57:50Z</time>
      </trkpt>
      <trkpt lat="43.972675" lon="5.019318">
        <ele>55.51367</ele>
        <time>2021-06-30T17:57:51Z</time>
      </trkpt>
      <trkpt lat="43.972904" lon="5.019193">
        <ele>55.02289</ele>
        <time>2021-06-30T17:57:52Z</time>
      </trkpt>
      <trkpt lat="43.973141" lon="5.019062">
        <ele>55.01093</ele>
        <time>2021-06-30T17:57:53Z</time>
      </trkpt>
      <trkpt lat="43.973362" lon="5.018942">
        <ele>54.57489</ele>
        <time>2021-06-30T17:57:54Z</time>
      </trkpt>
      <trkpt lat="43.973591" lon="5.018821">
        <ele>55.05341</ele>
        <time>2021-06-30T17:57:55Z</time>
      </trkpt>
      <trkpt lat="43.973591" lon="5.018821">
        <ele>55.12134</ele>
        <time>2021-06-30T17:57:56Z</time>
      </trkpt>
      <trkpt lat="43.973839" lon="5.018703">
        <ele>54.52313</ele>
        <time>2021-06-30T17:57:57Z</time>
      </trkpt>
      <trkpt lat="43.974083" lon="5.018622">
        <ele>54.80811</ele>
        <time>2021-06-30T17:57:58Z</time>
      </trkpt>
      <trkpt lat="43.974350" lon="5.018536">
        <ele>55.04877</ele>
        <time>2021-06-30T17:57:59Z</time>
      </trkpt>
      <trkpt lat="43.974651" lon="5.018439">
        <ele>55.26276</ele>
        <time>2021-06-30T17:58:00Z</time>
      </trkpt>
      <trkpt lat="43.974854" lon="5.018375">
        <ele>54.96417</ele>
        <time>2021-06-30T17:58:01Z</time>
      </trkpt>
      <trkpt lat="43.975128" lon="5.018296">
        <ele>54.63501</ele>
        <time>2021-06-30T17:58:02Z</time>
      </trkpt>
      <trkpt lat="43.975361" lon="5.018232">
        <ele>55.00916</ele>
        <time>2021-06-30T17:58:03Z</time>
      </trkpt>
      <trkpt lat="43.975597" lon="5.018167">
        <ele>55.22333</ele>
        <time>2021-06-30T17:58:04Z</time>
      </trkpt>
      <trkpt lat="43.975796" lon="5.018105">
        <ele>55.29858</ele>
        <time>2021-06-30T17:58:05Z</time>
      </trkpt>
      <trkpt lat="43.976021" lon="5.018036">
        <ele>55.99518</ele>
        <time>2021-06-30T17:58:06Z</time>
      </trkpt>
      <trkpt lat="43.976196" lon="5.017981">
        <ele>57.35535</ele>
        <time>2021-06-30T17:58:07Z</time>
      </trkpt>
      <trkpt lat="43.976196" lon="5.017981">
        <ele>57.08173</ele>
        <time>2021-06-30T17:58:08Z</time>
      </trkpt>
      <trkpt lat="43.976387" lon="5.017922">
        <ele>57.28357</ele>
        <time>2021-06-30T17:58:09Z</time>
      </trkpt>
      <trkpt lat="43.976593" lon="5.017858">
        <ele>56.48096</ele>
        <time>2021-06-30T17:58:10Z</time>
      </trkpt>
      <trkpt lat="43.976795" lon="5.017808">
        <ele>55.81293</ele>
        <time>2021-06-30T17:58:11Z</time>
      </trkpt>
      <trkpt lat="43.977013" lon="5.017758">
        <ele>56.01129</ele>
        <time>2021-06-30T17:58:12Z</time>
      </trkpt>
      <trkpt lat="43.977180" lon="5.017728">
        <ele>55.89587</ele>
        <time>2021-06-30T17:58:13Z</time>
      </trkpt>
      <trkpt lat="43.977383" lon="5.017708">
        <ele>55.53424</ele>
        <time>2021-06-30T17:58:14Z</time>
      </trkpt>
      <trkpt lat="43.977554" lon="5.017702">
        <ele>55.46143</ele>
        <time>2021-06-30T17:58:15Z</time>
      </trkpt>
      <trkpt lat="43.977779" lon="5.017696">
        <ele>55.93286</ele>
        <time>2021-06-30T17:58:16Z</time>
      </trkpt>
      <trkpt lat="43.977974" lon="5.017690">
        <ele>55.44653</ele>
        <time>2021-06-30T17:58:17Z</time>
      </trkpt>
      <trkpt lat="43.978168" lon="5.017684">
        <ele>54.52509</ele>
        <time>2021-06-30T17:58:18Z</time>
      </trkpt>
      <trkpt lat="43.978378" lon="5.017678">
        <ele>54.95697</ele>
        <time>2021-06-30T17:58:19Z</time>
      </trkpt>
      <trkpt lat="43.978378" lon="5.017678">
        <ele>54.90332</ele>
        <time>2021-06-30T17:58:20Z</time>
      </trkpt>
      <trkpt lat="43.978607" lon="5.017671">
        <ele>54.48645</ele>
        <time>2021-06-30T17:58:21Z</time>
      </trkpt>
      <trkpt lat="43.978863" lon="5.017664">
        <ele>53.90295</ele>
        <time>2021-06-30T17:58:22Z</time>
      </trkpt>
      <trkpt lat="43.979099" lon="5.017663">
        <ele>53.88477</ele>
        <time>2021-06-30T17:58:23Z</time>
      </trkpt>
      <trkpt lat="43.979321" lon="5.017665">
        <ele>53.63586</ele>
        <time>2021-06-30T17:58:24Z</time>
      </trkpt>
      <trkpt lat="43.979549" lon="5.017667">
        <ele>53.53857</ele>
        <time>2021-06-30T17:58:25Z</time>
      </trkpt>
      <trkpt lat="43.979740" lon="5.017669">
        <ele>53.24634</ele>
        <time>2021-06-30T17:58:26Z</time>
      </trkpt>
      <trkpt lat="43.979919" lon="5.017667">
        <ele>53.20752</ele>
        <time>2021-06-30T17:58:27Z</time>
      </trkpt>
      <trkpt lat="43.980106" lon="5.017663">
        <ele>51.73175</ele>
        <time>2021-06-30T17:58:28Z</time>
      </trkpt>
      <trkpt lat="43.980270" lon="5.017659">
        <ele>52.32300</ele>
        <time>2021-06-30T17:58:29Z</time>
      </trkpt>
      <trkpt lat="43.980270" lon="5.017659">
        <ele>52.46326</ele>
        <time>2021-06-30T17:58:30Z</time>
      </trkpt>
      <trkpt lat="43.980442" lon="5.017666">
        <ele>52.92346</ele>
        <time>2021-06-30T17:58:31Z</time>
      </trkpt>
      <trkpt lat="43.980591" lon="5.017641">
        <ele>52.23102</ele>
        <time>2021-06-30T17:58:32Z</time>
      </trkpt>
      <trkpt lat="43.980728" lon="5.017590">
        <ele>52.18451</ele>
        <time>2021-06-30T17:58:33Z</time>
      </trkpt>
      <trkpt lat="43.980850" lon="5.017515">
        <ele>51.48718</ele>
        <time>2021-06-30T17:58:34Z</time>
      </trkpt>
      <trkpt lat="43.980953" lon="5.017449">
        <ele>51.51123</ele>
        <time>2021-06-30T17:58:35Z</time>
      </trkpt>
      <trkpt lat="43.981052" lon="5.017380">
        <ele>51.15100</ele>
        <time>2021-06-30T17:58:36Z</time>
      </trkpt>
      <trkpt lat="43.981129" lon="5.017318">
        <ele>50.48846</ele>
        <time>2021-06-30T17:58:37Z</time>
      </trkpt>
      <trkpt lat="43.981182" lon="5.017271">
        <ele>50.54059</ele>
        <time>2021-06-30T17:58:38Z</time>
      </trkpt>
      <trkpt lat="43.981232" lon="5.017249">
        <ele>50.24170</ele>
        <time>2021-06-30T17:58:39Z</time>
      </trkpt>
      <trkpt lat="43.981270" lon="5.017234">
        <ele>50.45471</ele>
        <time>2021-06-30T17:58:40Z</time>
      </trkpt>
      <trkpt lat="43.981297" lon="5.017224">
        <ele>50.96301</ele>
        <time>2021-06-30T17:58:41Z</time>
      </trkpt>
      <trkpt lat="43.981354" lon="5.017202">
        <ele>50.47015</ele>
        <time>2021-06-30T17:58:42Z</time>
      </trkpt>
      <trkpt lat="43.981430" lon="5.017226">
        <ele>50.73322</ele>
        <time>2021-06-30T17:58:43Z</time>
      </trkpt>
      <trkpt lat="43.981525" lon="5.017191">
        <ele>51.13745</ele>
        <time>2021-06-30T17:58:44Z</time>
      </trkpt>
      <trkpt lat="43.981525" lon="5.017191">
        <ele>51.26196</ele>
        <time>2021-06-30T17:58:45Z</time>
      </trkpt>
      <trkpt lat="43.981583" lon="5.017143">
        <ele>51.83655</ele>
        <time>2021-06-30T17:58:46Z</time>
      </trkpt>
      <trkpt lat="43.981640" lon="5.017028">
        <ele>51.67993</ele>
        <time>2021-06-30T17:58:47Z</time>
      </trkpt>
      <trkpt lat="43.981655" lon="5.016914">
        <ele>50.80237</ele>
        <time>2021-06-30T17:58:48Z</time>
      </trkpt>
      <trkpt lat="43.981716" lon="5.016817">
        <ele>51.02618</ele>
        <time>2021-06-30T17:58:49Z</time>
      </trkpt>
      <trkpt lat="43.981804" lon="5.016718">
        <ele>52.22467</ele>
        <time>2021-06-30T17:58:50Z</time>
      </trkpt>
      <trkpt lat="43.981922" lon="5.016641">
        <ele>52.38892</ele>
        <time>2021-06-30T17:58:51Z</time>
      </trkpt>
      <trkpt lat="43.982082" lon="5.016538">
        <ele>52.56366</ele>
        <time>2021-06-30T17:58:52Z</time>
      </trkpt>
      <trkpt lat="43.982220" lon="5.016451">
        <ele>52.94861</ele>
        <time>2021-06-30T17:58:53Z</time>
      </trkpt>
      <trkpt lat="43.982433" lon="5.016310">
        <ele>53.10376</ele>
        <time>2021-06-30T17:58:54Z</time>
      </trkpt>
      <trkpt lat="43.982666" lon="5.016113">
        <ele>53.45959</ele>
        <time>2021-06-30T17:58:55Z</time>
      </trkpt>
      <trkpt lat="43.982838" lon="5.015986">
        <ele>53.30261</ele>
        <time>2021-06-30T17:58:56Z</time>
      </trkpt>
      <trkpt lat="43.983051" lon="5.015827">
        <ele>52.86700</ele>
        <time>2021-06-30T17:58:57Z</time>
      </trkpt>
      <trkpt lat="43.983273" lon="5.015662">
        <ele>53.15411</ele>
        <time>2021-06-30T17:58:58Z</time>
      </trkpt>
      <trkpt lat="43.983463" lon="5.015533">
        <ele>53.38000</ele>
        <time>2021-06-30T17:58:59Z</time>
      </trkpt>
      <trkpt lat="43.983463" lon="5.015533">
        <ele>52.69629</ele>
        <time>2021-06-30T17:59:00Z</time>
      </trkpt>
      <trkpt lat="43.983654" lon="5.015403">
        <ele>52.53125</ele>
        <time>2021-06-30T17:59:01Z</time>
      </trkpt>
      <trkpt lat="43.983833" lon="5.015280">
        <ele>53.93683</ele>
        <time>2021-06-30T17:59:02Z</time>
      </trkpt>
      <trkpt lat="43.984039" lon="5.015136">
        <ele>53.80701</ele>
        <time>2021-06-30T17:59:03Z</time>
      </trkpt>
      <trkpt lat="43.984245" lon="5.014992">
        <ele>53.54968</ele>
        <time>2021-06-30T17:59:04Z</time>
      </trkpt>
      <trkpt lat="43.984474" lon="5.014833">
        <ele>53.08569</ele>
        <time>2021-06-30T17:59:05Z</time>
      </trkpt>
      <trkpt lat="43.984726" lon="5.014656">
        <ele>52.23157</ele>
        <time>2021-06-30T17:59:06Z</time>
      </trkpt>
      <trkpt lat="43.984962" lon="5.014493">
        <ele>53.01202</ele>
        <time>2021-06-30T17:59:07Z</time>
      </trkpt>
      <trkpt lat="43.985149" lon="5.014362">
        <ele>53.18231</ele>
        <time>2021-06-30T17:59:08Z</time>
      </trkpt>
      <trkpt lat="43.985359" lon="5.014215">
        <ele>52.69183</ele>
        <time>2021-06-30T17:59:09Z</time>
      </trkpt>
      <trkpt lat="43.985535" lon="5.014094">
        <ele>53.63940</ele>
        <time>2021-06-30T17:59:10Z</time>
      </trkpt>
      <trkpt lat="43.985729" lon="5.013957">
        <ele>52.86249</ele>
        <time>2021-06-30T17:59:11Z</time>
      </trkpt>
      <trkpt lat="43.985729" lon="5.013957">
        <ele>52.61487</ele>
        <time>2021-06-30T17:59:12Z</time>
      </trkpt>
      <trkpt lat="43.985943" lon="5.013809">
        <ele>52.08527</ele>
        <time>2021-06-30T17:59:13Z</time>
      </trkpt>
      <trkpt lat="43.986153" lon="5.013663">
        <ele>51.52740</ele>
        <time>2021-06-30T17:59:14Z</time>
      </trkpt>
      <trkpt lat="43.986408" lon="5.013486">
        <ele>51.69122</ele>
        <time>2021-06-30T17:59:15Z</time>
      </trkpt>
      <trkpt lat="43.986668" lon="5.013307">
        <ele>52.09521</ele>
        <time>2021-06-30T17:59:16Z</time>
      </trkpt>
      <trkpt lat="43.986969" lon="5.013097">
        <ele>51.79993</ele>
        <time>2021-06-30T17:59:17Z</time>
      </trkpt>
      <trkpt lat="43.987255" lon="5.012899">
        <ele>49.86981</ele>
        <time>2021-06-30T17:59:18Z</time>
      </trkpt>
      <trkpt lat="43.987537" lon="5.012705">
        <ele>49.43280</ele>
        <time>2021-06-30T17:59:19Z</time>
      </trkpt>
      <trkpt lat="43.987804" lon="5.012518">
        <ele>49.64685</ele>
        <time>2021-06-30T17:59:20Z</time>
      </trkpt>
      <trkpt lat="43.988094" lon="5.012327">
        <ele>49.12445</ele>
        <time>2021-06-30T17:59:21Z</time>
      </trkpt>
      <trkpt lat="43.988373" lon="5.012142">
        <ele>49.66089</ele>
        <time>2021-06-30T17:59:22Z</time>
      </trkpt>
      <trkpt lat="43.988651" lon="5.011981">
        <ele>49.93793</ele>
        <time>2021-06-30T17:59:23Z</time>
      </trkpt>
      <trkpt lat="43.988651" lon="5.011981">
        <ele>50.99854</ele>
        <time>2021-06-30T17:59:24Z</time>
      </trkpt>
      <trkpt lat="43.988949" lon="5.011837">
        <ele>50.24554</ele>
        <time>2021-06-30T17:59:25Z</time>
      </trkpt>
      <trkpt lat="43.989258" lon="5.011701">
        <ele>50.65094</ele>
        <time>2021-06-30T17:59:26Z</time>
      </trkpt>
      <trkpt lat="43.989559" lon="5.011609">
        <ele>50.60339</ele>
        <time>2021-06-30T17:59:27Z</time>
      </trkpt>
      <trkpt lat="43.989841" lon="5.011556">
        <ele>50.69348</ele>
        <time>2021-06-30T17:59:28Z</time>
      </trkpt>
      <trkpt lat="43.990166" lon="5.011514">
        <ele>51.46362</ele>
        <time>2021-06-30T17:59:29Z</time>
      </trkpt>
      <trkpt lat="43.990482" lon="5.011487">
        <ele>52.65741</ele>
        <time>2021-06-30T17:59:30Z</time>
      </trkpt>
      <trkpt lat="43.990829" lon="5.011465">
        <ele>52.98224</ele>
        <time>2021-06-30T17:59:31Z</time>
      </trkpt>
      <trkpt lat="43.991158" lon="5.011453">
        <ele>50.47046</ele>
        <time>2021-06-30T17:59:32Z</time>
      </trkpt>
      <trkpt lat="43.991505" lon="5.011440">
        <ele>51.26062</ele>
        <time>2021-06-30T17:59:33Z</time>
      </trkpt>
      <trkpt lat="43.991817" lon="5.011429">
        <ele>52.42108</ele>
        <time>2021-06-30T17:59:34Z</time>
      </trkpt>
      <trkpt lat="43.992123" lon="5.011421">
        <ele>52.83191</ele>
        <time>2021-06-30T17:59:35Z</time>
      </trkpt>
      <trkpt lat="43.992420" lon="5.011413">
        <ele>53.63635</ele>
        <time>2021-06-30T17:59:36Z</time>
      </trkpt>
      <trkpt lat="43.992725" lon="5.011406">
        <ele>54.29852</ele>
        <time>2021-06-30T17:59:37Z</time>
      </trkpt>
      <trkpt lat="43.992725" lon="5.011406">
        <ele>54.63959</ele>
        <time>2021-06-30T17:59:38Z</time>
      </trkpt>
      <trkpt lat="43.993011" lon="5.011398">
        <ele>54.33630</ele>
        <time>2021-06-30T17:59:39Z</time>
      </trkpt>
      <trkpt lat="43.993320" lon="5.011387">
        <ele>53.55780</ele>
        <time>2021-06-30T17:59:40Z</time>
      </trkpt>
      <trkpt lat="43.993595" lon="5.011378">
        <ele>53.45343</ele>
        <time>2021-06-30T17:59:41Z</time>
      </trkpt>
      <trkpt lat="43.993931" lon="5.011366">
        <ele>53.06476</ele>
        <time>2021-06-30T17:59:42Z</time>
      </trkpt>
      <trkpt lat="43.994205" lon="5.011357">
        <ele>53.82336</ele>
        <time>2021-06-30T17:59:43Z</time>
      </trkpt>
      <trkpt lat="43.994480" lon="5.011347">
        <ele>54.22424</ele>
        <time>2021-06-30T17:59:44Z</time>
      </trkpt>
      <trkpt lat="43.994724" lon="5.011339">
        <ele>55.45520</ele>
        <time>2021-06-30T17:59:45Z</time>
      </trkpt>
      <trkpt lat="43.994984" lon="5.011330">
        <ele>54.44769</ele>
        <time>2021-06-30T17:59:46Z</time>
      </trkpt>
      <trkpt lat="43.995228" lon="5.011321">
        <ele>54.98193</ele>
        <time>2021-06-30T17:59:47Z</time>
      </trkpt>
      <trkpt lat="43.995453" lon="5.011312">
        <ele>54.92987</ele>
        <time>2021-06-30T17:59:48Z</time>
      </trkpt>
      <trkpt lat="43.995712" lon="5.011302">
        <ele>55.26172</ele>
        <time>2021-06-30T17:59:49Z</time>
      </trkpt>
      <trkpt lat="43.995712" lon="5.011302">
        <ele>55.55206</ele>
        <time>2021-06-30T17:59:50Z</time>
      </trkpt>
      <trkpt lat="43.995934" lon="5.011293">
        <ele>55.95856</ele>
        <time>2021-06-30T17:59:51Z</time>
      </trkpt>
      <trkpt lat="43.996159" lon="5.011285">
        <ele>55.53455</ele>
        <time>2021-06-30T17:59:52Z</time>
      </trkpt>
      <trkpt lat="43.996391" lon="5.011276">
        <ele>56.43335</ele>
        <time>2021-06-30T17:59:53Z</time>
      </trkpt>
      <trkpt lat="43.996601" lon="5.011270">
        <ele>56.63702</ele>
        <time>2021-06-30T17:59:54Z</time>
      </trkpt>
      <trkpt lat="43.996845" lon="5.011262">
        <ele>56.26569</ele>
        <time>2021-06-30T17:59:55Z</time>
      </trkpt>
      <trkpt lat="43.997013" lon="5.011257">
        <ele>56.29883</ele>
        <time>2021-06-30T17:59:56Z</time>
      </trkpt>
      <trkpt lat="43.997208" lon="5.011252">
        <ele>56.21155</ele>
        <time>2021-06-30T17:59:57Z</time>
      </trkpt>
      <trkpt lat="43.997387" lon="5.011246">
        <ele>56.56964</ele>
        <time>2021-06-30T17:59:58Z</time>
      </trkpt>
      <trkpt lat="43.997589" lon="5.011268">
        <ele>56.07416</ele>
        <time>2021-06-30T17:59:59Z</time>
      </trkpt>
      <trkpt lat="43.997772" lon="5.011255">
        <ele>55.95551</ele>
        <time>2021-06-30T18:00:00Z</time>
      </trkpt>
      <trkpt lat="43.997772" lon="5.011255">
        <ele>55.92017</ele>
        <time>2021-06-30T18:00:01Z</time>
      </trkpt>
      <trkpt lat="43.997990" lon="5.011248">
        <ele>55.71521</ele>
        <time>2021-06-30T18:00:02Z</time>
      </trkpt>
      <trkpt lat="43.998184" lon="5.011244">
        <ele>55.72974</ele>
        <time>2021-06-30T18:00:03Z</time>
      </trkpt>
      <trkpt lat="43.998348" lon="5.011240">
        <ele>55.31897</ele>
        <time>2021-06-30T18:00:04Z</time>
      </trkpt>
      <trkpt lat="43.998528" lon="5.011237">
        <ele>55.56946</ele>
        <time>2021-06-30T18:00:05Z</time>
      </trkpt>
      <trkpt lat="43.998684" lon="5.011234">
        <ele>55.33459</ele>
        <time>2021-06-30T18:00:06Z</time>
      </trkpt>
      <trkpt lat="43.998852" lon="5.011235">
        <ele>55.60138</ele>
        <time>2021-06-30T18:00:07Z</time>
      </trkpt>
      <trkpt lat="43.999020" lon="5.011239">
        <ele>56.73993</ele>
        <time>2021-06-30T18:00:08Z</time>
      </trkpt>
      <trkpt lat="43.999184" lon="5.011247">
        <ele>56.54999</ele>
        <time>2021-06-30T18:00:09Z</time>
      </trkpt>
      <trkpt lat="43.999332" lon="5.011265">
        <ele>55.79352</ele>
        <time>2021-06-30T18:00:10Z</time>
      </trkpt>
      <trkpt lat="43.999519" lon="5.011296">
        <ele>55.70990</ele>
        <time>2021-06-30T18:00:11Z</time>
      </trkpt>
      <trkpt lat="43.999660" lon="5.011332">
        <ele>55.18323</ele>
        <time>2021-06-30T18:00:12Z</time>
      </trkpt>
      <trkpt lat="43.999771" lon="5.011362">
        <ele>54.88055</ele>
        <time>2021-06-30T18:00:13Z</time>
      </trkpt>
      <trkpt lat="43.999882" lon="5.011391">
        <ele>54.47491</ele>
        <time>2021-06-30T18:00:14Z</time>
      </trkpt>
      <trkpt lat="43.999882" lon="5.011391">
        <ele>54.91705</ele>
        <time>2021-06-30T18:00:15Z</time>
      </trkpt>
      <trkpt lat="44.000000" lon="5.011423">
        <ele>55.27899</ele>
        <time>2021-06-30T18:00:16Z</time>
      </trkpt>
      <trkpt lat="44.000095" lon="5.011465">
        <ele>55.26904</ele>
        <time>2021-06-30T18:00:17Z</time>
      </trkpt>
      <trkpt lat="44.000160" lon="5.011495">
        <ele>55.05243</ele>
        <time>2021-06-30T18:00:18Z</time>
      </trkpt>
      <trkpt lat="44.000168" lon="5.011497">
        <ele>54.54431</ele>
        <time>2021-06-30T18:00:19Z</time>
      </trkpt>
      <trkpt lat="44.000187" lon="5.011507">
        <ele>54.37451</ele>
        <time>2021-06-30T18:00:20Z</time>
      </trkpt>
      <trkpt lat="44.000217" lon="5.011522">
        <ele>53.56335</ele>
        <time>2021-06-30T18:00:21Z</time>
      </trkpt>
      <trkpt lat="44.000248" lon="5.011613">
        <ele>53.47253</ele>
        <time>2021-06-30T18:00:22Z</time>
      </trkpt>
      <trkpt lat="44.000282" lon="5.011663">
        <ele>53.29285</ele>
        <time>2021-06-30T18:00:23Z</time>
      </trkpt>
      <trkpt lat="44.000366" lon="5.011716">
        <ele>53.43665</ele>
        <time>2021-06-30T18:00:24Z</time>
      </trkpt>
      <trkpt lat="44.000450" lon="5.011735">
        <ele>53.01611</ele>
        <time>2021-06-30T18:00:25Z</time>
      </trkpt>
      <trkpt lat="44.000538" lon="5.011762">
        <ele>52.19067</ele>
        <time>2021-06-30T18:00:26Z</time>
      </trkpt>
      <trkpt lat="44.000610" lon="5.011834">
        <ele>52.48492</ele>
        <time>2021-06-30T18:00:27Z</time>
      </trkpt>
      <trkpt lat="44.000641" lon="5.011959">
        <ele>52.93262</ele>
        <time>2021-06-30T18:00:28Z</time>
      </trkpt>
      <trkpt lat="44.000652" lon="5.012076">
        <ele>53.53192</ele>
        <time>2021-06-30T18:00:29Z</time>
      </trkpt>
      <trkpt lat="44.000664" lon="5.012207">
        <ele>53.62457</ele>
        <time>2021-06-30T18:00:30Z</time>
      </trkpt>
      <trkpt lat="44.000664" lon="5.012207">
        <ele>53.97711</ele>
        <time>2021-06-30T18:00:31Z</time>
      </trkpt>
      <trkpt lat="44.000641" lon="5.012397">
        <ele>53.96124</ele>
        <time>2021-06-30T18:00:32Z</time>
      </trkpt>
      <trkpt lat="44.000622" lon="5.012585">
        <ele>53.63708</ele>
        <time>2021-06-30T18:00:33Z</time>
      </trkpt>
      <trkpt lat="44.000614" lon="5.012700">
        <ele>53.38464</ele>
        <time>2021-06-30T18:00:34Z</time>
      </trkpt>
      <trkpt lat="44.000629" lon="5.012939">
        <ele>53.15259</ele>
        <time>2021-06-30T18:00:35Z</time>
      </trkpt>
      <trkpt lat="44.000668" lon="5.013186">
        <ele>52.83154</ele>
        <time>2021-06-30T18:00:36Z</time>
      </trkpt>
      <trkpt lat="44.000740" lon="5.013535">
        <ele>53.52356</ele>
        <time>2021-06-30T18:00:37Z</time>
      </trkpt>
      <trkpt lat="44.000809" lon="5.013857">
        <ele>53.73877</ele>
        <time>2021-06-30T18:00:38Z</time>
      </trkpt>
      <trkpt lat="44.000862" lon="5.014204">
        <ele>53.54596</ele>
        <time>2021-06-30T18:00:39Z</time>
      </trkpt>
      <trkpt lat="44.000946" lon="5.014557">
        <ele>53.52142</ele>
        <time>2021-06-30T18:00:40Z</time>
      </trkpt>
      <trkpt lat="44.001038" lon="5.014863">
        <ele>53.72229</ele>
        <time>2021-06-30T18:00:41Z</time>
      </trkpt>
      <trkpt lat="44.001038" lon="5.014863">
        <ele>54.09558</ele>
        <time>2021-06-30T18:00:42Z</time>
      </trkpt>
      <trkpt lat="44.001232" lon="5.015386">
        <ele>53.93683</ele>
        <time>2021-06-30T18:00:43Z</time>
      </trkpt>
      <trkpt lat="44.001343" lon="5.015623">
        <ele>54.48785</ele>
        <time>2021-06-30T18:00:44Z</time>
      </trkpt>
      <trkpt lat="44.001343" lon="5.015623">
        <ele>54.48047</ele>
        <time>2021-06-30T18:00:45Z</time>
      </trkpt>
      <trkpt lat="44.001476" lon="5.015878">
        <ele>54.89960</ele>
        <time>2021-06-30T18:00:46Z</time>
      </trkpt>
      <trkpt lat="44.001644" lon="5.016187">
        <ele>55.08337</ele>
        <time>2021-06-30T18:00:47Z</time>
      </trkpt>
      <trkpt lat="44.001842" lon="5.016431">
        <ele>55.43732</ele>
        <time>2021-06-30T18:00:48Z</time>
      </trkpt>
      <trkpt lat="44.002106" lon="5.016724">
        <ele>56.18896</ele>
        <time>2021-06-30T18:00:49Z</time>
      </trkpt>
      <trkpt lat="44.002346" lon="5.016969">
        <ele>55.50281</ele>
        <time>2021-06-30T18:00:50Z</time>
      </trkpt>
      <trkpt lat="44.002567" lon="5.017184">
        <ele>55.24725</ele>
        <time>2021-06-30T18:00:51Z</time>
      </trkpt>
      <trkpt lat="44.002827" lon="5.017418">
        <ele>56.22607</ele>
        <time>2021-06-30T18:00:52Z</time>
      </trkpt>
      <trkpt lat="44.003059" lon="5.017626">
        <ele>56.30890</ele>
        <time>2021-06-30T18:00:53Z</time>
      </trkpt>
      <trkpt lat="44.003307" lon="5.017848">
        <ele>56.81268</ele>
        <time>2021-06-30T18:00:54Z</time>
      </trkpt>
      <trkpt lat="44.003551" lon="5.018069">
        <ele>56.75574</ele>
        <time>2021-06-30T18:00:55Z</time>
      </trkpt>
      <trkpt lat="44.003803" lon="5.018297">
        <ele>54.17303</ele>
        <time>2021-06-30T18:00:56Z</time>
      </trkpt>
      <trkpt lat="44.003803" lon="5.018297">
        <ele>54.68201</ele>
        <time>2021-06-30T18:00:57Z</time>
      </trkpt>
      <trkpt lat="44.004059" lon="5.018494">
        <ele>54.89197</ele>
        <time>2021-06-30T18:00:58Z</time>
      </trkpt>
      <trkpt lat="44.004284" lon="5.018696">
        <ele>55.22668</ele>
        <time>2021-06-30T18:00:59Z</time>
      </trkpt>
      <trkpt lat="44.004536" lon="5.018929">
        <ele>55.99231</ele>
        <time>2021-06-30T18:01:00Z</time>
      </trkpt>
      <trkpt lat="44.004810" lon="5.019177">
        <ele>56.27734</ele>
        <time>2021-06-30T18:01:01Z</time>
      </trkpt>
      <trkpt lat="44.005047" lon="5.019394">
        <ele>56.70685</ele>
        <time>2021-06-30T18:01:02Z</time>
      </trkpt>
      <trkpt lat="44.005226" lon="5.019559">
        <ele>56.69086</ele>
        <time>2021-06-30T18:01:03Z</time>
      </trkpt>
      <trkpt lat="44.005432" lon="5.019763">
        <ele>56.39093</ele>
        <time>2021-06-30T18:01:04Z</time>
      </trkpt>
      <trkpt lat="44.005623" lon="5.019947">
        <ele>55.72565</ele>
        <time>2021-06-30T18:01:05Z</time>
      </trkpt>
      <trkpt lat="44.005848" lon="5.020196">
        <ele>55.58490</ele>
        <time>2021-06-30T18:01:06Z</time>
      </trkpt>
      <trkpt lat="44.006069" lon="5.020468">
        <ele>55.70502</ele>
        <time>2021-06-30T18:01:07Z</time>
      </trkpt>
      <trkpt lat="44.006298" lon="5.020760">
        <ele>56.00519</ele>
        <time>2021-06-30T18:01:08Z</time>
      </trkpt>
      <trkpt lat="44.006519" lon="5.021073">
        <ele>56.29584</ele>
        <time>2021-06-30T18:01:09Z</time>
      </trkpt>
      <trkpt lat="44.006519" lon="5.021073">
        <ele>56.49487</ele>
        <time>2021-06-30T18:01:10Z</time>
      </trkpt>
      <trkpt lat="44.006710" lon="5.021377">
        <ele>57.63489</ele>
        <time>2021-06-30T18:01:11Z</time>
      </trkpt>
      <trkpt lat="44.006920" lon="5.021738">
        <ele>57.28534</ele>
        <time>2021-06-30T18:01:12Z</time>
      </trkpt>
      <trkpt lat="44.007095" lon="5.022064">
        <ele>57.90381</ele>
        <time>2021-06-30T18:01:13Z</time>
      </trkpt>
      <trkpt lat="44.007294" lon="5.022421">
        <ele>58.51099</ele>
        <time>2021-06-30T18:01:14Z</time>
      </trkpt>
      <trkpt lat="44.007488" lon="5.022750">
        <ele>58.65045</ele>
        <time>2021-06-30T18:01:15Z</time>
      </trkpt>
      <trkpt lat="44.007671" lon="5.023067">
        <ele>57.92450</ele>
        <time>2021-06-30T18:01:16Z</time>
      </trkpt>
      <trkpt lat="44.007866" lon="5.023332">
        <ele>57.74060</ele>
        <time>2021-06-30T18:01:17Z</time>
      </trkpt>
      <trkpt lat="44.008099" lon="5.023654">
        <ele>58.60913</ele>
        <time>2021-06-30T18:01:18Z</time>
      </trkpt>
      <trkpt lat="44.008297" lon="5.023953">
        <ele>59.18011</ele>
        <time>2021-06-30T18:01:19Z</time>
      </trkpt>
      <trkpt lat="44.008511" lon="5.024215">
        <ele>59.37646</ele>
        <time>2021-06-30T18:01:20Z</time>
      </trkpt>
      <trkpt lat="44.008511" lon="5.024215">
        <ele>58.49957</ele>
        <time>2021-06-30T18:01:21Z</time>
      </trkpt>
      <trkpt lat="44.008736" lon="5.024466">
        <ele>59.48828</ele>
        <time>2021-06-30T18:01:22Z</time>
      </trkpt>
      <trkpt lat="44.008995" lon="5.024729">
        <ele>60.08899</ele>
        <time>2021-06-30T18:01:23Z</time>
      </trkpt>
      <trkpt lat="44.009262" lon="5.024940">
        <ele>60.73309</ele>
        <time>2021-06-30T18:01:24Z</time>
      </trkpt>
      <trkpt lat="44.009544" lon="5.025154">
        <ele>62.26917</ele>
        <time>2021-06-30T18:01:25Z</time>
      </trkpt>
      <trkpt lat="44.009815" lon="5.025320">
        <ele>63.22302</ele>
        <time>2021-06-30T18:01:26Z</time>
      </trkpt>
      <trkpt lat="44.010090" lon="5.025496">
        <ele>63.98846</ele>
        <time>2021-06-30T18:01:27Z</time>
      </trkpt>
      <trkpt lat="44.010357" lon="5.025671">
        <ele>63.98608</ele>
        <time>2021-06-30T18:01:28Z</time>
      </trkpt>
      <trkpt lat="44.010674" lon="5.025882">
        <ele>64.30597</ele>
        <time>2021-06-30T18:01:29Z</time>
      </trkpt>
      <trkpt lat="44.010944" lon="5.026037">
        <ele>63.40198</ele>
        <time>2021-06-30T18:01:30Z</time>
      </trkpt>
      <trkpt lat="44.011196" lon="5.026231">
        <ele>62.94592</ele>
        <time>2021-06-30T18:01:31Z</time>
      </trkpt>
      <trkpt lat="44.011196" lon="5.026231">
        <ele>62.96637</ele>
        <time>2021-06-30T18:01:32Z</time>
      </trkpt>
      <trkpt lat="44.011475" lon="5.026448">
        <ele>62.86053</ele>
        <time>2021-06-30T18:01:33Z</time>
      </trkpt>
      <trkpt lat="44.011738" lon="5.026651">
        <ele>63.53815</ele>
        <time>2021-06-30T18:01:34Z</time>
      </trkpt>
      <trkpt lat="44.012009" lon="5.026864">
        <ele>63.68640</ele>
        <time>2021-06-30T18:01:35Z</time>
      </trkpt>
      <trkpt lat="44.012260" lon="5.027057">
        <ele>64.36450</ele>
        <time>2021-06-30T18:01:36Z</time>
      </trkpt>
      <trkpt lat="44.012566" lon="5.027296">
        <ele>65.69263</ele>
        <time>2021-06-30T18:01:37Z</time>
      </trkpt>
      <trkpt lat="44.012829" lon="5.027498">
        <ele>64.97125</ele>
        <time>2021-06-30T18:01:38Z</time>
      </trkpt>
      <trkpt lat="44.013065" lon="5.027682">
        <ele>65.78046</ele>
        <time>2021-06-30T18:01:39Z</time>
      </trkpt>
      <trkpt lat="44.013359" lon="5.027912">
        <ele>65.84882</ele>
        <time>2021-06-30T18:01:40Z</time>
      </trkpt>
      <trkpt lat="44.013622" lon="5.028116">
        <ele>66.24646</ele>
        <time>2021-06-30T18:01:41Z</time>
      </trkpt>
      <trkpt lat="44.013866" lon="5.028313">
        <ele>66.30817</ele>
        <time>2021-06-30T18:01:42Z</time>
      </trkpt>
      <trkpt lat="44.013866" lon="5.028313">
        <ele>66.48914</ele>
        <time>2021-06-30T18:01:43Z</time>
      </trkpt>
      <trkpt lat="44.014118" lon="5.028527">
        <ele>67.90887</ele>
        <time>2021-06-30T18:01:44Z</time>
      </trkpt>
      <trkpt lat="44.014381" lon="5.028749">
        <ele>68.44580</ele>
        <time>2021-06-30T18:01:45Z</time>
      </trkpt>
      <trkpt lat="44.014591" lon="5.028938">
        <ele>68.16315</ele>
        <time>2021-06-30T18:01:46Z</time>
      </trkpt>
      <trkpt lat="44.014824" lon="5.029163">
        <ele>67.67853</ele>
        <time>2021-06-30T18:01:47Z</time>
      </trkpt>
      <trkpt lat="44.015072" lon="5.029405">
        <ele>67.24542</ele>
        <time>2021-06-30T18:01:48Z</time>
      </trkpt>
      <trkpt lat="44.015270" lon="5.029595">
        <ele>67.16943</ele>
        <time>2021-06-30T18:01:49Z</time>
      </trkpt>
      <trkpt lat="44.015507" lon="5.029811">
        <ele>68.70264</ele>
        <time>2021-06-30T18:01:50Z</time>
      </trkpt>
      <trkpt lat="44.015743" lon="5.030005">
        <ele>68.75354</ele>
        <time>2021-06-30T18:01:51Z</time>
      </trkpt>
      <trkpt lat="44.015972" lon="5.030193">
        <ele>66.93939</ele>
        <time>2021-06-30T18:01:52Z</time>
      </trkpt>
      <trkpt lat="44.016220" lon="5.030389">
        <ele>66.91528</ele>
        <time>2021-06-30T18:01:53Z</time>
      </trkpt>
      <trkpt lat="44.016220" lon="5.030389">
        <ele>67.90491</ele>
        <time>2021-06-30T18:01:54Z</time>
      </trkpt>
      <trkpt lat="44.016479" lon="5.030585">
        <ele>68.76910</ele>
        <time>2021-06-30T18:01:55Z</time>
      </trkpt>
      <trkpt lat="44.016708" lon="5.030756">
        <ele>69.28271</ele>
        <time>2021-06-30T18:01:56Z</time>
      </trkpt>
      <trkpt lat="44.016937" lon="5.030927">
        <ele>68.86877</ele>
        <time>2021-06-30T18:01:57Z</time>
      </trkpt>
      <trkpt lat="44.017185" lon="5.031112">
        <ele>70.31805</ele>
        <time>2021-06-30T18:01:58Z</time>
      </trkpt>
      <trkpt lat="44.017406" lon="5.031294">
        <ele>70.93762</ele>
        <time>2021-06-30T18:01:59Z</time>
      </trkpt>
      <trkpt lat="44.017658" lon="5.031503">
        <ele>71.45001</ele>
        <time>2021-06-30T18:02:00Z</time>
      </trkpt>
      <trkpt lat="44.017879" lon="5.031723">
        <ele>72.20874</ele>
        <time>2021-06-30T18:02:01Z</time>
      </trkpt>
      <trkpt lat="44.018101" lon="5.031959">
        <ele>72.80914</ele>
        <time>2021-06-30T18:02:02Z</time>
      </trkpt>
      <trkpt lat="44.018311" lon="5.032175">
        <ele>72.85626</ele>
        <time>2021-06-30T18:02:03Z</time>
      </trkpt>
      <trkpt lat="44.018539" lon="5.032428">
        <ele>72.38324</ele>
        <time>2021-06-30T18:02:04Z</time>
      </trkpt>
      <trkpt lat="44.018761" lon="5.032708">
        <ele>72.20898</ele>
        <time>2021-06-30T18:02:05Z</time>
      </trkpt>
      <trkpt lat="44.018951" lon="5.032970">
        <ele>71.57837</ele>
        <time>2021-06-30T18:02:06Z</time>
      </trkpt>
      <trkpt lat="44.018951" lon="5.032970">
        <ele>71.75519</ele>
        <time>2021-06-30T18:02:07Z</time>
      </trkpt>
      <trkpt lat="44.019173" lon="5.033273">
        <ele>73.53180</ele>
        <time>2021-06-30T18:02:08Z</time>
      </trkpt>
      <trkpt lat="44.019371" lon="5.033492">
        <ele>73.28357</ele>
        <time>2021-06-30T18:02:09Z</time>
      </trkpt>
      <trkpt lat="44.019550" lon="5.033741">
        <ele>73.29517</ele>
        <time>2021-06-30T18:02:10Z</time>
      </trkpt>
      <trkpt lat="44.019726" lon="5.033979">
        <ele>72.69757</ele>
        <time>2021-06-30T18:02:11Z</time>
      </trkpt>
      <trkpt lat="44.019909" lon="5.034237">
        <ele>73.07660</ele>
        <time>2021-06-30T18:02:12Z</time>
      </trkpt>
      <trkpt lat="44.020061" lon="5.034442">
        <ele>73.48425</ele>
        <time>2021-06-30T18:02:13Z</time>
      </trkpt>
      <trkpt lat="44.020210" lon="5.034638">
        <ele>73.58844</ele>
        <time>2021-06-30T18:02:14Z</time>
      </trkpt>
      <trkpt lat="44.020363" lon="5.034829">
        <ele>74.29218</ele>
        <time>2021-06-30T18:02:15Z</time>
      </trkpt>
      <trkpt lat="44.020561" lon="5.035045">
        <ele>73.62872</ele>
        <time>2021-06-30T18:02:16Z</time>
      </trkpt>
      <trkpt lat="44.020748" lon="5.035199">
        <ele>73.90979</ele>
        <time>2021-06-30T18:02:17Z</time>
      </trkpt>
      <trkpt lat="44.020916" lon="5.035324">
        <ele>74.60974</ele>
        <time>2021-06-30T18:02:18Z</time>
      </trkpt>
      <trkpt lat="44.021084" lon="5.035418">
        <ele>76.24255</ele>
        <time>2021-06-30T18:02:19Z</time>
      </trkpt>
      <trkpt lat="44.021233" lon="5.035497">
        <ele>76.24091</ele>
        <time>2021-06-30T18:02:20Z</time>
      </trkpt>
      <trkpt lat="44.021233" lon="5.035497">
        <ele>76.10840</ele>
        <time>2021-06-30T18:02:21Z</time>
      </trkpt>
      <trkpt lat="44.021408" lon="5.035585">
        <ele>75.98267</ele>
        <time>2021-06-30T18:02:22Z</time>
      </trkpt>
      <trkpt lat="44.021572" lon="5.035674">
        <ele>76.19427</ele>
        <time>2021-06-30T18:02:23Z</time>
      </trkpt>
      <trkpt lat="44.021706" lon="5.035750">
        <ele>76.47101</ele>
        <time>2021-06-30T18:02:24Z</time>
      </trkpt>
      <trkpt lat="44.021847" lon="5.035831">
        <ele>76.38470</ele>
        <time>2021-06-30T18:02:25Z</time>
      </trkpt>
      <trkpt lat="44.021996" lon="5.035913">
        <ele>77.07898</ele>
        <time>2021-06-30T18:02:26Z</time>
      </trkpt>
      <trkpt lat="44.022179" lon="5.036028">
        <ele>77.29730</ele>
        <time>2021-06-30T18:02:27Z</time>
      </trkpt>
      <trkpt lat="44.022331" lon="5.036120">
        <ele>77.45355</ele>
        <time>2021-06-30T18:02:28Z</time>
      </trkpt>
      <trkpt lat="44.022449" lon="5.036186">
        <ele>77.07556</ele>
        <time>2021-06-30T18:02:29Z</time>
      </trkpt>
      <trkpt lat="44.022579" lon="5.036260">
        <ele>77.82239</ele>
        <time>2021-06-30T18:02:30Z</time>
      </trkpt>
      <trkpt lat="44.022770" lon="5.036363">
        <ele>78.19501</ele>
        <time>2021-06-30T18:02:31Z</time>
      </trkpt>
      <trkpt lat="44.022972" lon="5.036451">
        <ele>77.85370</ele>
        <time>2021-06-30T18:02:32Z</time>
      </trkpt>
      <trkpt lat="44.022972" lon="5.036451">
        <ele>79.41016</ele>
        <time>2021-06-30T18:02:33Z</time>
      </trkpt>
      <trkpt lat="44.023163" lon="5.036526">
        <ele>80.19708</ele>
        <time>2021-06-30T18:02:34Z</time>
      </trkpt>
      <trkpt lat="44.023380" lon="5.036595">
        <ele>80.28369</ele>
        <time>2021-06-30T18:02:35Z</time>
      </trkpt>
      <trkpt lat="44.023586" lon="5.036659">
        <ele>80.30310</ele>
        <time>2021-06-30T18:02:36Z</time>
      </trkpt>
      <trkpt lat="44.023808" lon="5.036722">
        <ele>80.48059</ele>
        <time>2021-06-30T18:02:37Z</time>
      </trkpt>
      <trkpt lat="44.024006" lon="5.036768">
        <ele>80.05981</ele>
        <time>2021-06-30T18:02:38Z</time>
      </trkpt>
      <trkpt lat="44.024181" lon="5.036810">
        <ele>80.03644</ele>
        <time>2021-06-30T18:02:39Z</time>
      </trkpt>
      <trkpt lat="44.024372" lon="5.036842">
        <ele>80.21973</ele>
        <time>2021-06-30T18:02:40Z</time>
      </trkpt>
      <trkpt lat="44.024570" lon="5.036870">
        <ele>80.42957</ele>
        <time>2021-06-30T18:02:41Z</time>
      </trkpt>
      <trkpt lat="44.024757" lon="5.036896">
        <ele>80.01147</ele>
        <time>2021-06-30T18:02:42Z</time>
      </trkpt>
      <trkpt lat="44.024982" lon="5.036928">
        <ele>79.25342</ele>
        <time>2021-06-30T18:02:43Z</time>
      </trkpt>
      <trkpt lat="44.025215" lon="5.036955">
        <ele>78.97546</ele>
        <time>2021-06-30T18:02:44Z</time>
      </trkpt>
      <trkpt lat="44.025467" lon="5.036984">
        <ele>79.58368</ele>
        <time>2021-06-30T18:02:45Z</time>
      </trkpt>
      <trkpt lat="44.025467" lon="5.036984">
        <ele>80.13293</ele>
        <time>2021-06-30T18:02:46Z</time>
      </trkpt>
      <trkpt lat="44.025753" lon="5.037023">
        <ele>81.93030</ele>
        <time>2021-06-30T18:02:47Z</time>
      </trkpt>
      <trkpt lat="44.026016" lon="5.037057">
        <ele>81.72247</ele>
        <time>2021-06-30T18:02:48Z</time>
      </trkpt>
      <trkpt lat="44.026321" lon="5.037099">
        <ele>81.86432</ele>
        <time>2021-06-30T18:02:49Z</time>
      </trkpt>
      <trkpt lat="44.026596" lon="5.037137">
        <ele>82.08087</ele>
        <time>2021-06-30T18:02:50Z</time>
      </trkpt>
      <trkpt lat="44.026852" lon="5.037186">
        <ele>82.25732</ele>
        <time>2021-06-30T18:02:51Z</time>
      </trkpt>
      <trkpt lat="44.027119" lon="5.037239">
        <ele>81.27478</ele>
        <time>2021-06-30T18:02:52Z</time>
      </trkpt>
      <trkpt lat="44.027325" lon="5.037281">
        <ele>82.18976</ele>
        <time>2021-06-30T18:02:53Z</time>
      </trkpt>
      <trkpt lat="44.027561" lon="5.037331">
        <ele>81.74170</ele>
        <time>2021-06-30T18:02:54Z</time>
      </trkpt>
      <trkpt lat="44.027767" lon="5.037384">
        <ele>82.03156</ele>
        <time>2021-06-30T18:02:55Z</time>
      </trkpt>
      <trkpt lat="44.028065" lon="5.037456">
        <ele>81.51416</ele>
        <time>2021-06-30T18:02:56Z</time>
      </trkpt>
      <trkpt lat="44.028343" lon="5.037534">
        <ele>81.90234</ele>
        <time>2021-06-30T18:02:57Z</time>
      </trkpt>
      <trkpt lat="44.028591" lon="5.037605">
        <ele>81.75732</ele>
        <time>2021-06-30T18:02:58Z</time>
      </trkpt>
      <trkpt lat="44.028591" lon="5.037605">
        <ele>82.14111</ele>
        <time>2021-06-30T18:02:59Z</time>
      </trkpt>
      <trkpt lat="44.028858" lon="5.037683">
        <ele>81.65045</ele>
        <time>2021-06-30T18:03:00Z</time>
      </trkpt>
      <trkpt lat="44.029133" lon="5.037759">
        <ele>80.54791</ele>
        <time>2021-06-30T18:03:01Z</time>
      </trkpt>
      <trkpt lat="44.029377" lon="5.037822">
        <ele>80.41455</ele>
        <time>2021-06-30T18:03:02Z</time>
      </trkpt>
      <trkpt lat="44.029613" lon="5.037889">
        <ele>80.71240</ele>
        <time>2021-06-30T18:03:03Z</time>
      </trkpt>
      <trkpt lat="44.029816" lon="5.037946">
        <ele>80.61188</ele>
        <time>2021-06-30T18:03:04Z</time>
      </trkpt>
      <trkpt lat="44.030083" lon="5.038021">
        <ele>80.86401</ele>
        <time>2021-06-30T18:03:05Z</time>
      </trkpt>
      <trkpt lat="44.030315" lon="5.038087">
        <ele>80.77716</ele>
        <time>2021-06-30T18:03:06Z</time>
      </trkpt>
      <trkpt lat="44.030556" lon="5.038155">
        <ele>81.55530</ele>
        <time>2021-06-30T18:03:07Z</time>
      </trkpt>
      <trkpt lat="44.030807" lon="5.038225">
        <ele>81.58228</ele>
        <time>2021-06-30T18:03:08Z</time>
      </trkpt>
      <trkpt lat="44.031048" lon="5.038295">
        <ele>82.52173</ele>
        <time>2021-06-30T18:03:09Z</time>
      </trkpt>
      <trkpt lat="44.031048" lon="5.038295">
        <ele>81.87146</ele>
        <time>2021-06-30T18:03:10Z</time>
      </trkpt>
      <trkpt lat="44.031284" lon="5.038374">
        <ele>81.77966</ele>
        <time>2021-06-30T18:03:11Z</time>
      </trkpt>
      <trkpt lat="44.031490" lon="5.038444">
        <ele>81.93738</ele>
        <time>2021-06-30T18:03:12Z</time>
      </trkpt>
      <trkpt lat="44.031685" lon="5.038509">
        <ele>82.17725</ele>
        <time>2021-06-30T18:03:13Z</time>
      </trkpt>
      <trkpt lat="44.031891" lon="5.038588">
        <ele>82.29712</ele>
        <time>2021-06-30T18:03:14Z</time>
      </trkpt>
      <trkpt lat="44.032104" lon="5.038669">
        <ele>82.59839</ele>
        <time>2021-06-30T18:03:15Z</time>
      </trkpt>
      <trkpt lat="44.032288" lon="5.038738">
        <ele>83.74731</ele>
        <time>2021-06-30T18:03:16Z</time>
      </trkpt>
      <trkpt lat="44.032459" lon="5.038800">
        <ele>83.90417</ele>
        <time>2021-06-30T18:03:17Z</time>
      </trkpt>
      <trkpt lat="44.032604" lon="5.038850">
        <ele>84.31024</ele>
        <time>2021-06-30T18:03:18Z</time>
      </trkpt>
      <trkpt lat="44.032745" lon="5.038929">
        <ele>84.08984</ele>
        <time>2021-06-30T18:03:19Z</time>
      </trkpt>
      <trkpt lat="44.032837" lon="5.038975">
        <ele>83.87866</ele>
        <time>2021-06-30T18:03:20Z</time>
      </trkpt>
      <trkpt lat="44.032921" lon="5.039009">
        <ele>84.45166</ele>
        <time>2021-06-30T18:03:21Z</time>
      </trkpt>
      <trkpt lat="44.033005" lon="5.039042">
        <ele>84.47552</ele>
        <time>2021-06-30T18:03:22Z</time>
      </trkpt>
      <trkpt lat="44.033058" lon="5.039062">
        <ele>83.96765</ele>
        <time>2021-06-30T18:03:23Z</time>
      </trkpt>
      <trkpt lat="44.033096" lon="5.039100">
        <ele>84.18243</ele>
        <time>2021-06-30T18:03:24Z</time>
      </trkpt>
      <trkpt lat="44.033096" lon="5.039100">
        <ele>84.67194</ele>
        <time>2021-06-30T18:03:25Z</time>
      </trkpt>
      <trkpt lat="44.033138" lon="5.039183">
        <ele>84.46063</ele>
        <time>2021-06-30T18:03:26Z</time>
      </trkpt>
      <trkpt lat="44.033195" lon="5.039236">
        <ele>84.68066</ele>
        <time>2021-06-30T18:03:27Z</time>
      </trkpt>
      <trkpt lat="44.033257" lon="5.039264">
        <ele>85.02722</ele>
        <time>2021-06-30T18:03:28Z</time>
      </trkpt>
      <trkpt lat="44.033306" lon="5.039277">
        <ele>84.03595</ele>
        <time>2021-06-30T18:03:29Z</time>
      </trkpt>
      <trkpt lat="44.033379" lon="5.039268">
        <ele>83.58313</ele>
        <time>2021-06-30T18:03:30Z</time>
      </trkpt>
      <trkpt lat="44.033440" lon="5.039228">
        <ele>83.87720</ele>
        <time>2021-06-30T18:03:31Z</time>
      </trkpt>
      <trkpt lat="44.033489" lon="5.039172">
        <ele>83.32446</ele>
        <time>2021-06-30T18:03:32Z</time>
      </trkpt>
      <trkpt lat="44.033527" lon="5.039099">
        <ele>83.24158</ele>
        <time>2021-06-30T18:03:33Z</time>
      </trkpt>
      <trkpt lat="44.033550" lon="5.039002">
        <ele>82.77515</ele>
        <time>2021-06-30T18:03:34Z</time>
      </trkpt>
      <trkpt lat="44.033550" lon="5.039002">
        <ele>82.92993</ele>
        <time>2021-06-30T18:03:35Z</time>
      </trkpt>
      <trkpt lat="44.033550" lon="5.038882">
        <ele>82.09766</ele>
        <time>2021-06-30T18:03:36Z</time>
      </trkpt>
      <trkpt lat="44.033512" lon="5.038752">
        <ele>81.09924</ele>
        <time>2021-06-30T18:03:37Z</time>
      </trkpt>
      <trkpt lat="44.033436" lon="5.038652">
        <ele>81.38953</ele>
        <time>2021-06-30T18:03:38Z</time>
      </trkpt>
      <trkpt lat="44.033348" lon="5.038620">
        <ele>81.39740</ele>
        <time>2021-06-30T18:03:39Z</time>
      </trkpt>
      <trkpt lat="44.033264" lon="5.038630">
        <ele>81.41949</ele>
        <time>2021-06-30T18:03:40Z</time>
      </trkpt>
      <trkpt lat="44.033195" lon="5.038660">
        <ele>81.17950</ele>
        <time>2021-06-30T18:03:41Z</time>
      </trkpt>
      <trkpt lat="44.033150" lon="5.038723">
        <ele>81.53589</ele>
        <time>2021-06-30T18:03:42Z</time>
      </trkpt>
      <trkpt lat="44.033100" lon="5.038821">
        <ele>82.14026</ele>
        <time>2021-06-30T18:03:43Z</time>
      </trkpt>
      <trkpt lat="44.033073" lon="5.038940">
        <ele>82.08325</ele>
        <time>2021-06-30T18:03:44Z</time>
      </trkpt>
      <trkpt lat="44.033073" lon="5.038940">
        <ele>81.88025</ele>
        <time>2021-06-30T18:03:45Z</time>
      </trkpt>
      <trkpt lat="44.033081" lon="5.039057">
        <ele>81.46521</ele>
        <time>2021-06-30T18:03:46Z</time>
      </trkpt>
      <trkpt lat="44.033127" lon="5.039165">
        <ele>80.96655</ele>
        <time>2021-06-30T18:03:47Z</time>
      </trkpt>
      <trkpt lat="44.033150" lon="5.039194">
        <ele>79.89130</ele>
        <time>2021-06-30T18:03:48Z</time>
      </trkpt>
      <trkpt lat="44.033272" lon="5.039269">
        <ele>79.86987</ele>
        <time>2021-06-30T18:03:49Z</time>
      </trkpt>
      <trkpt lat="44.033306" lon="5.039331">
        <ele>79.38269</ele>
        <time>2021-06-30T18:03:50Z</time>
      </trkpt>
      <trkpt lat="44.033298" lon="5.039434">
        <ele>79.05139</ele>
        <time>2021-06-30T18:03:51Z</time>
      </trkpt>
      <trkpt lat="44.033257" lon="5.039707">
        <ele>79.75903</ele>
        <time>2021-06-30T18:03:52Z</time>
      </trkpt>
      <trkpt lat="44.033237" lon="5.039775">
        <ele>80.02161</ele>
        <time>2021-06-30T18:03:53Z</time>
      </trkpt>
      <trkpt lat="44.033222" lon="5.039839">
        <ele>80.29303</ele>
        <time>2021-06-30T18:03:54Z</time>
      </trkpt>
      <trkpt lat="44.033199" lon="5.039944">
        <ele>81.04608</ele>
        <time>2021-06-30T18:03:55Z</time>
      </trkpt>
      <trkpt lat="44.033169" lon="5.040082">
        <ele>81.57892</ele>
        <time>2021-06-30T18:03:56Z</time>
      </trkpt>
      <trkpt lat="44.033138" lon="5.040203">
        <ele>82.19373</ele>
        <time>2021-06-30T18:03:57Z</time>
      </trkpt>
      <trkpt lat="44.033138" lon="5.040203">
        <ele>81.47729</ele>
        <time>2021-06-30T18:03:58Z</time>
      </trkpt>
      <trkpt lat="44.033115" lon="5.040295">
        <ele>81.69855</ele>
        <time>2021-06-30T18:03:59Z</time>
      </trkpt>
      <trkpt lat="44.033096" lon="5.040374">
        <ele>82.57642</ele>
        <time>2021-06-30T18:04:00Z</time>
      </trkpt>
      <trkpt lat="44.033077" lon="5.040450">
        <ele>83.03528</ele>
        <time>2021-06-30T18:04:01Z</time>
      </trkpt>
      <trkpt lat="44.033054" lon="5.040554">
        <ele>82.53406</ele>
        <time>2021-06-30T18:04:02Z</time>
      </trkpt>
      <trkpt lat="44.033031" lon="5.040668">
        <ele>82.81006</ele>
        <time>2021-06-30T18:04:03Z</time>
      </trkpt>
      <trkpt lat="44.033009" lon="5.040802">
        <ele>82.56274</ele>
        <time>2021-06-30T18:04:04Z</time>
      </trkpt>
      <trkpt lat="44.032986" lon="5.040908">
        <ele>82.48322</ele>
        <time>2021-06-30T18:04:05Z</time>
      </trkpt>
      <trkpt lat="44.032978" lon="5.041004">
        <ele>83.25696</ele>
        <time>2021-06-30T18:04:06Z</time>
      </trkpt>
      <trkpt lat="44.032967" lon="5.041165">
        <ele>82.30676</ele>
        <time>2021-06-30T18:04:07Z</time>
      </trkpt>
      <trkpt lat="44.032963" lon="5.041331">
        <ele>82.52448</ele>
        <time>2021-06-30T18:04:08Z</time>
      </trkpt>
      <trkpt lat="44.032959" lon="5.041462">
        <ele>81.99951</ele>
        <time>2021-06-30T18:04:09Z</time>
      </trkpt>
      <trkpt lat="44.032955" lon="5.041600">
        <ele>81.94116</ele>
        <time>2021-06-30T18:04:10Z</time>
      </trkpt>
      <trkpt lat="44.032955" lon="5.041743">
        <ele>81.36700</ele>
        <time>2021-06-30T18:04:11Z</time>
      </trkpt>
      <trkpt lat="44.032955" lon="5.041883">
        <ele>81.77606</ele>
        <time>2021-06-30T18:04:12Z</time>
      </trkpt>
      <trkpt lat="44.032955" lon="5.041883">
        <ele>82.12994</ele>
        <time>2021-06-30T18:04:13Z</time>
      </trkpt>
      <trkpt lat="44.032948" lon="5.042007">
        <ele>82.40790</ele>
        <time>2021-06-30T18:04:14Z</time>
      </trkpt>
      <trkpt lat="44.032944" lon="5.042108">
        <ele>83.21606</ele>
        <time>2021-06-30T18:04:15Z</time>
      </trkpt>
      <trkpt lat="44.032890" lon="5.042224">
        <ele>83.10730</ele>
        <time>2021-06-30T18:04:16Z</time>
      </trkpt>
      <trkpt lat="44.032864" lon="5.042333">
        <ele>81.50659</ele>
        <time>2021-06-30T18:04:17Z</time>
      </trkpt>
      <trkpt lat="44.032864" lon="5.042438">
        <ele>82.11609</ele>
        <time>2021-06-30T18:04:18Z</time>
      </trkpt>
      <trkpt lat="44.032860" lon="5.042611">
        <ele>82.30286</ele>
        <time>2021-06-30T18:04:19Z</time>
      </trkpt>
      <trkpt lat="44.032856" lon="5.042804">
        <ele>82.55066</ele>
        <time>2021-06-30T18:04:20Z</time>
      </trkpt>
      <trkpt lat="44.032833" lon="5.043033">
        <ele>82.59100</ele>
        <time>2021-06-30T18:04:21Z</time>
      </trkpt>
      <trkpt lat="44.032791" lon="5.043228">
        <ele>82.85645</ele>
        <time>2021-06-30T18:04:22Z</time>
      </trkpt>
      <trkpt lat="44.032738" lon="5.043420">
        <ele>82.89307</ele>
        <time>2021-06-30T18:04:23Z</time>
      </trkpt>
      <trkpt lat="44.032642" lon="5.043673">
        <ele>83.24451</ele>
        <time>2021-06-30T18:04:24Z</time>
      </trkpt>
      <trkpt lat="44.032539" lon="5.043850">
        <ele>82.98889</ele>
        <time>2021-06-30T18:04:25Z</time>
      </trkpt>
      <trkpt lat="44.032440" lon="5.044020">
        <ele>83.03058</ele>
        <time>2021-06-30T18:04:26Z</time>
      </trkpt>
      <trkpt lat="44.032440" lon="5.044020">
        <ele>82.41565</ele>
        <time>2021-06-30T18:04:27Z</time>
      </trkpt>
      <trkpt lat="44.032330" lon="5.044213">
        <ele>82.41846</ele>
        <time>2021-06-30T18:04:28Z</time>
      </trkpt>
      <trkpt lat="44.032242" lon="5.044455">
        <ele>82.54724</ele>
        <time>2021-06-30T18:04:29Z</time>
      </trkpt>
      <trkpt lat="44.032154" lon="5.044635">
        <ele>83.12091</ele>
        <time>2021-06-30T18:04:30Z</time>
      </trkpt>
      <trkpt lat="44.032078" lon="5.044929">
        <ele>83.13892</ele>
        <time>2021-06-30T18:04:31Z</time>
      </trkpt>
      <trkpt lat="44.032028" lon="5.045158">
        <ele>83.50140</ele>
        <time>2021-06-30T18:04:32Z</time>
      </trkpt>
      <trkpt lat="44.031982" lon="5.045410">
        <ele>83.23688</ele>
        <time>2021-06-30T18:04:33Z</time>
      </trkpt>
      <trkpt lat="44.031952" lon="5.045641">
        <ele>83.44983</ele>
        <time>2021-06-30T18:04:34Z</time>
      </trkpt>
      <trkpt lat="44.031918" lon="5.045924">
        <ele>84.55518</ele>
        <time>2021-06-30T18:04:35Z</time>
      </trkpt>
      <trkpt lat="44.031891" lon="5.046138">
        <ele>84.79822</ele>
        <time>2021-06-30T18:04:36Z</time>
      </trkpt>
      <trkpt lat="44.031868" lon="5.046345">
        <ele>85.72095</ele>
        <time>2021-06-30T18:04:37Z</time>
      </trkpt>
      <trkpt lat="44.031845" lon="5.046570">
        <ele>86.20886</ele>
        <time>2021-06-30T18:04:38Z</time>
      </trkpt>
      <trkpt lat="44.031837" lon="5.046792">
        <ele>86.73132</ele>
        <time>2021-06-30T18:04:39Z</time>
      </trkpt>
      <trkpt lat="44.031830" lon="5.047013">
        <ele>85.80933</ele>
        <time>2021-06-30T18:04:40Z</time>
      </trkpt>
      <trkpt lat="44.031818" lon="5.047346">
        <ele>85.96924</ele>
        <time>2021-06-30T18:04:41Z</time>
      </trkpt>
      <trkpt lat="44.031818" lon="5.047346">
        <ele>85.82117</ele>
        <time>2021-06-30T18:04:42Z</time>
      </trkpt>
      <trkpt lat="44.031815" lon="5.047606">
        <ele>85.52563</ele>
        <time>2021-06-30T18:04:43Z</time>
      </trkpt>
      <trkpt lat="44.031799" lon="5.047913">
        <ele>85.80115</ele>
        <time>2021-06-30T18:04:44Z</time>
      </trkpt>
      <trkpt lat="44.031773" lon="5.048187">
        <ele>86.54712</ele>
        <time>2021-06-30T18:04:45Z</time>
      </trkpt>
      <trkpt lat="44.031746" lon="5.048438">
        <ele>86.16003</ele>
        <time>2021-06-30T18:04:46Z</time>
      </trkpt>
      <trkpt lat="44.031715" lon="5.048747">
        <ele>86.76672</ele>
        <time>2021-06-30T18:04:47Z</time>
      </trkpt>
      <trkpt lat="44.031708" lon="5.048978">
        <ele>86.87378</ele>
        <time>2021-06-30T18:04:48Z</time>
      </trkpt>
      <trkpt lat="44.031708" lon="5.049286">
        <ele>86.85437</ele>
        <time>2021-06-30T18:04:49Z</time>
      </trkpt>
      <trkpt lat="44.031708" lon="5.049544">
        <ele>86.00629</ele>
        <time>2021-06-30T18:04:50Z</time>
      </trkpt>
      <trkpt lat="44.031715" lon="5.049837">
        <ele>86.09717</ele>
        <time>2021-06-30T18:04:51Z</time>
      </trkpt>
      <trkpt lat="44.031723" lon="5.050091">
        <ele>86.87970</ele>
        <time>2021-06-30T18:04:52Z</time>
      </trkpt>
      <trkpt lat="44.031723" lon="5.050340">
        <ele>86.62250</ele>
        <time>2021-06-30T18:04:53Z</time>
      </trkpt>
      <trkpt lat="44.031719" lon="5.050592">
        <ele>86.62585</ele>
        <time>2021-06-30T18:04:54Z</time>
      </trkpt>
      <trkpt lat="44.031719" lon="5.050592">
        <ele>86.29663</ele>
        <time>2021-06-30T18:04:55Z</time>
      </trkpt>
      <trkpt lat="44.031727" lon="5.050849">
        <ele>87.19006</ele>
        <time>2021-06-30T18:04:56Z</time>
      </trkpt>
      <trkpt lat="44.031754" lon="5.051051">
        <ele>87.12238</ele>
        <time>2021-06-30T18:04:57Z</time>
      </trkpt>
      <trkpt lat="44.031776" lon="5.051205">
        <ele>88.15930</ele>
        <time>2021-06-30T18:04:58Z</time>
      </trkpt>
      <trkpt lat="44.031799" lon="5.051289">
        <ele>87.69171</ele>
        <time>2021-06-30T18:04:59Z</time>
      </trkpt>
      <trkpt lat="44.031826" lon="5.051341">
        <ele>86.86871</ele>
        <time>2021-06-30T18:05:00Z</time>
      </trkpt>
      <trkpt lat="44.031830" lon="5.051347">
        <ele>87.02374</ele>
        <time>2021-06-30T18:05:01Z</time>
      </trkpt>
      <trkpt lat="44.031837" lon="5.051360">
        <ele>86.88593</ele>
        <time>2021-06-30T18:05:02Z</time>
      </trkpt>
      <trkpt lat="44.031879" lon="5.051428">
        <ele>87.21960</ele>
        <time>2021-06-30T18:05:03Z</time>
      </trkpt>
      <trkpt lat="44.031815" lon="5.051516">
        <ele>86.85095</ele>
        <time>2021-06-30T18:05:04Z</time>
      </trkpt>
      <trkpt lat="44.031796" lon="5.051703">
        <ele>87.01099</ele>
        <time>2021-06-30T18:05:05Z</time>
      </trkpt>
      <trkpt lat="44.031830" lon="5.051799">
        <ele>85.68115</ele>
        <time>2021-06-30T18:05:06Z</time>
      </trkpt>
      <trkpt lat="44.031830" lon="5.051799">
        <ele>86.35559</ele>
        <time>2021-06-30T18:05:07Z</time>
      </trkpt>
      <trkpt lat="44.031898" lon="5.051854">
        <ele>87.72198</ele>
        <time>2021-06-30T18:05:08Z</time>
      </trkpt>
      <trkpt lat="44.031982" lon="5.051861">
        <ele>88.16821</ele>
        <time>2021-06-30T18:05:09Z</time>
      </trkpt>
      <trkpt lat="44.032047" lon="5.051820">
        <ele>87.90247</ele>
        <time>2021-06-30T18:05:10Z</time>
      </trkpt>
      <trkpt lat="44.032101" lon="5.051731">
        <ele>87.80945</ele>
        <time>2021-06-30T18:05:11Z</time>
      </trkpt>
      <trkpt lat="44.032112" lon="5.051638">
        <ele>87.72229</ele>
        <time>2021-06-30T18:05:12Z</time>
      </trkpt>
      <trkpt lat="44.032227" lon="5.051660">
        <ele>86.40717</ele>
        <time>2021-06-30T18:05:13Z</time>
      </trkpt>
      <trkpt lat="44.032520" lon="5.051689">
        <ele>85.94873</ele>
        <time>2021-06-30T18:05:14Z</time>
      </trkpt>
      <trkpt lat="44.032681" lon="5.051668">
        <ele>86.43665</ele>
        <time>2021-06-30T18:05:15Z</time>
      </trkpt>
      <trkpt lat="44.032833" lon="5.051647">
        <ele>86.70032</ele>
        <time>2021-06-30T18:05:16Z</time>
      </trkpt>
      <trkpt lat="44.033024" lon="5.051597">
        <ele>87.18530</ele>
        <time>2021-06-30T18:05:17Z</time>
      </trkpt>
      <trkpt lat="44.033192" lon="5.051551">
        <ele>86.94989</ele>
        <time>2021-06-30T18:05:18Z</time>
      </trkpt>
      <trkpt lat="44.033192" lon="5.051551">
        <ele>86.99957</ele>
        <time>2021-06-30T18:05:19Z</time>
      </trkpt>
      <trkpt lat="44.033352" lon="5.051509">
        <ele>85.97864</ele>
        <time>2021-06-30T18:05:20Z</time>
      </trkpt>
      <trkpt lat="44.033497" lon="5.051460">
        <ele>85.91071</ele>
        <time>2021-06-30T18:05:21Z</time>
      </trkpt>
      <trkpt lat="44.033604" lon="5.051421">
        <ele>85.69849</ele>
        <time>2021-06-30T18:05:22Z</time>
      </trkpt>
      <trkpt lat="44.033703" lon="5.051385">
        <ele>86.23511</ele>
        <time>2021-06-30T18:05:23Z</time>
      </trkpt>
      <trkpt lat="44.033764" lon="5.051362">
        <ele>86.80975</ele>
        <time>2021-06-30T18:05:24Z</time>
      </trkpt>
      <trkpt lat="44.033859" lon="5.051328">
        <ele>88.28967</ele>
        <time>2021-06-30T18:05:25Z</time>
      </trkpt>
      <trkpt lat="44.033943" lon="5.051292">
        <ele>87.21460</ele>
        <time>2021-06-30T18:05:26Z</time>
      </trkpt>
      <trkpt lat="44.034023" lon="5.051257">
        <ele>87.21454</ele>
        <time>2021-06-30T18:05:27Z</time>
      </trkpt>
      <trkpt lat="44.034073" lon="5.051267">
        <ele>86.68762</ele>
        <time>2021-06-30T18:05:28Z</time>
      </trkpt>
      <trkpt lat="44.034138" lon="5.051380">
        <ele>86.58191</ele>
        <time>2021-06-30T18:05:29Z</time>
      </trkpt>
      <trkpt lat="44.034271" lon="5.051428">
        <ele>86.82727</ele>
        <time>2021-06-30T18:05:30Z</time>
      </trkpt>
      <trkpt lat="44.034344" lon="5.051340">
        <ele>86.92596</ele>
        <time>2021-06-30T18:05:31Z</time>
      </trkpt>
      <trkpt lat="44.034344" lon="5.051340">
        <ele>87.06586</ele>
        <time>2021-06-30T18:05:32Z</time>
      </trkpt>
      <trkpt lat="44.034370" lon="5.051284">
        <ele>86.82892</ele>
        <time>2021-06-30T18:05:33Z</time>
      </trkpt>
      <trkpt lat="44.034405" lon="5.051181">
        <ele>87.23352</ele>
        <time>2021-06-30T18:05:34Z</time>
      </trkpt>
      <trkpt lat="44.034603" lon="5.051149">
        <ele>86.77203</ele>
        <time>2021-06-30T18:05:35Z</time>
      </trkpt>
      <trkpt lat="44.034714" lon="5.051136">
        <ele>86.71838</ele>
        <time>2021-06-30T18:05:36Z</time>
      </trkpt>
      <trkpt lat="44.034824" lon="5.051123">
        <ele>86.21008</ele>
        <time>2021-06-30T18:05:37Z</time>
      </trkpt>
      <trkpt lat="44.034950" lon="5.051104">
        <ele>86.28943</ele>
        <time>2021-06-30T18:05:38Z</time>
      </trkpt>
      <trkpt lat="44.035049" lon="5.051084">
        <ele>86.37500</ele>
        <time>2021-06-30T18:05:39Z</time>
      </trkpt>
      <trkpt lat="44.035110" lon="5.051070">
        <ele>86.46326</ele>
        <time>2021-06-30T18:05:40Z</time>
      </trkpt>
      <trkpt lat="44.035198" lon="5.051052">
        <ele>86.28217</ele>
        <time>2021-06-30T18:05:41Z</time>
      </trkpt>
      <trkpt lat="44.035351" lon="5.051019">
        <ele>86.18671</ele>
        <time>2021-06-30T18:05:42Z</time>
      </trkpt>
      <trkpt lat="44.035496" lon="5.050983">
        <ele>86.05127</ele>
        <time>2021-06-30T18:05:43Z</time>
      </trkpt>
      <trkpt lat="44.035599" lon="5.050953">
        <ele>86.14972</ele>
        <time>2021-06-30T18:05:44Z</time>
      </trkpt>
      <trkpt lat="44.035732" lon="5.050915">
        <ele>88.69684</ele>
        <time>2021-06-30T18:05:45Z</time>
      </trkpt>
      <trkpt lat="44.035732" lon="5.050915">
        <ele>88.72778</ele>
        <time>2021-06-30T18:05:46Z</time>
      </trkpt>
      <trkpt lat="44.035900" lon="5.050890">
        <ele>88.82910</ele>
        <time>2021-06-30T18:05:47Z</time>
      </trkpt>
      <trkpt lat="44.036053" lon="5.050857">
        <ele>88.55920</ele>
        <time>2021-06-30T18:05:48Z</time>
      </trkpt>
      <trkpt lat="44.036217" lon="5.050818">
        <ele>87.79950</ele>
        <time>2021-06-30T18:05:49Z</time>
      </trkpt>
      <trkpt lat="44.036346" lon="5.050786">
        <ele>88.02112</ele>
        <time>2021-06-30T18:05:50Z</time>
      </trkpt>
      <trkpt lat="44.036488" lon="5.050746">
        <ele>87.07251</ele>
        <time>2021-06-30T18:05:51Z</time>
      </trkpt>
      <trkpt lat="44.036652" lon="5.050699">
        <ele>87.06409</ele>
        <time>2021-06-30T18:05:52Z</time>
      </trkpt>
      <trkpt lat="44.036823" lon="5.050659">
        <ele>86.94940</ele>
        <time>2021-06-30T18:05:53Z</time>
      </trkpt>
      <trkpt lat="44.036972" lon="5.050623">
        <ele>85.86969</ele>
        <time>2021-06-30T18:05:54Z</time>
      </trkpt>
      <trkpt lat="44.037144" lon="5.050559">
        <ele>86.04169</ele>
        <time>2021-06-30T18:05:55Z</time>
      </trkpt>
      <trkpt lat="44.037266" lon="5.050507">
        <ele>86.79773</ele>
        <time>2021-06-30T18:05:56Z</time>
      </trkpt>
      <trkpt lat="44.037266" lon="5.050507">
        <ele>86.81421</ele>
        <time>2021-06-30T18:05:57Z</time>
      </trkpt>
      <trkpt lat="44.037395" lon="5.050448">
        <ele>86.44995</ele>
        <time>2021-06-30T18:05:58Z</time>
      </trkpt>
      <trkpt lat="44.037529" lon="5.050378">
        <ele>86.10120</ele>
        <time>2021-06-30T18:05:59Z</time>
      </trkpt>
      <trkpt lat="44.037685" lon="5.050311">
        <ele>85.99780</ele>
        <time>2021-06-30T18:06:00Z</time>
      </trkpt>
      <trkpt lat="44.037861" lon="5.050241">
        <ele>86.00781</ele>
        <time>2021-06-30T18:06:01Z</time>
      </trkpt>
      <trkpt lat="44.037983" lon="5.050194">
        <ele>86.37598</ele>
        <time>2021-06-30T18:06:02Z</time>
      </trkpt>
      <trkpt lat="44.038120" lon="5.050141">
        <ele>85.86182</ele>
        <time>2021-06-30T18:06:03Z</time>
      </trkpt>
      <trkpt lat="44.038277" lon="5.050101">
        <ele>86.09247</ele>
        <time>2021-06-30T18:06:04Z</time>
      </trkpt>
      <trkpt lat="44.038418" lon="5.050067">
        <ele>86.51532</ele>
        <time>2021-06-30T18:06:05Z</time>
      </trkpt>
      <trkpt lat="44.038559" lon="5.050034">
        <ele>87.06702</ele>
        <time>2021-06-30T18:06:06Z</time>
      </trkpt>
      <trkpt lat="44.038704" lon="5.049993">
        <ele>87.45874</ele>
        <time>2021-06-30T18:06:07Z</time>
      </trkpt>
      <trkpt lat="44.038815" lon="5.049951">
        <ele>88.00287</ele>
        <time>2021-06-30T18:06:08Z</time>
      </trkpt>
      <trkpt lat="44.038933" lon="5.049900">
        <ele>88.28162</ele>
        <time>2021-06-30T18:06:09Z</time>
      </trkpt>
      <trkpt lat="44.039051" lon="5.049846">
        <ele>88.17456</ele>
        <time>2021-06-30T18:06:10Z</time>
      </trkpt>
      <trkpt lat="44.039146" lon="5.049803">
        <ele>88.09741</ele>
        <time>2021-06-30T18:06:11Z</time>
      </trkpt>
      <trkpt lat="44.039146" lon="5.049803">
        <ele>88.59058</ele>
        <time>2021-06-30T18:06:12Z</time>
      </trkpt>
      <trkpt lat="44.039249" lon="5.049756">
        <ele>88.95251</ele>
        <time>2021-06-30T18:06:13Z</time>
      </trkpt>
      <trkpt lat="44.039326" lon="5.049728">
        <ele>88.63312</ele>
        <time>2021-06-30T18:06:14Z</time>
      </trkpt>
      <trkpt lat="44.039417" lon="5.049705">
        <ele>93.55908</ele>
        <time>2021-06-30T18:06:15Z</time>
      </trkpt>
      <trkpt lat="44.039570" lon="5.049667">
        <ele>93.33862</ele>
        <time>2021-06-30T18:06:16Z</time>
      </trkpt>
      <trkpt lat="44.039707" lon="5.049629">
        <ele>93.38660</ele>
        <time>2021-06-30T18:06:17Z</time>
      </trkpt>
      <trkpt lat="44.039860" lon="5.049588">
        <ele>94.07385</ele>
        <time>2021-06-30T18:06:18Z</time>
      </trkpt>
      <trkpt lat="44.040001" lon="5.049549">
        <ele>94.80396</ele>
        <time>2021-06-30T18:06:19Z</time>
      </trkpt>
      <trkpt lat="44.040138" lon="5.049512">
        <ele>94.83948</ele>
        <time>2021-06-30T18:06:20Z</time>
      </trkpt>
      <trkpt lat="44.040302" lon="5.049467">
        <ele>94.96191</ele>
        <time>2021-06-30T18:06:21Z</time>
      </trkpt>
      <trkpt lat="44.040462" lon="5.049418">
        <ele>94.66614</ele>
        <time>2021-06-30T18:06:22Z</time>
      </trkpt>
      <trkpt lat="44.040607" lon="5.049368">
        <ele>94.59479</ele>
        <time>2021-06-30T18:06:23Z</time>
      </trkpt>
      <trkpt lat="44.040726" lon="5.049329">
        <ele>94.04150</ele>
        <time>2021-06-30T18:06:24Z</time>
      </trkpt>
      <trkpt lat="44.040878" lon="5.049279">
        <ele>94.59467</ele>
        <time>2021-06-30T18:06:25Z</time>
      </trkpt>
      <trkpt lat="44.041054" lon="5.049221">
        <ele>95.02771</ele>
        <time>2021-06-30T18:06:26Z</time>
      </trkpt>
      <trkpt lat="44.041054" lon="5.049221">
        <ele>95.35132</ele>
        <time>2021-06-30T18:06:27Z</time>
      </trkpt>
      <trkpt lat="44.041218" lon="5.049186">
        <ele>95.39734</ele>
        <time>2021-06-30T18:06:28Z</time>
      </trkpt>
      <trkpt lat="44.041340" lon="5.049164">
        <ele>95.58929</ele>
        <time>2021-06-30T18:06:29Z</time>
      </trkpt>
      <trkpt lat="44.041519" lon="5.049129">
        <ele>95.57092</ele>
        <time>2021-06-30T18:06:30Z</time>
      </trkpt>
      <trkpt lat="44.041698" lon="5.049090">
        <ele>95.66669</ele>
        <time>2021-06-30T18:06:31Z</time>
      </trkpt>
      <trkpt lat="44.041862" lon="5.049034">
        <ele>95.24060</ele>
        <time>2021-06-30T18:06:32Z</time>
      </trkpt>
      <trkpt lat="44.041969" lon="5.048998">
        <ele>95.57574</ele>
        <time>2021-06-30T18:06:33Z</time>
      </trkpt>
      <trkpt lat="44.042110" lon="5.048951">
        <ele>95.90900</ele>
        <time>2021-06-30T18:06:34Z</time>
      </trkpt>
      <trkpt lat="44.042263" lon="5.048905">
        <ele>96.36078</ele>
        <time>2021-06-30T18:06:35Z</time>
      </trkpt>
      <trkpt lat="44.042435" lon="5.048855">
        <ele>95.93219</ele>
        <time>2021-06-30T18:06:36Z</time>
      </trkpt>
      <trkpt lat="44.042599" lon="5.048808">
        <ele>96.41803</ele>
        <time>2021-06-30T18:06:37Z</time>
      </trkpt>
      <trkpt lat="44.042767" lon="5.048760">
        <ele>95.51392</ele>
        <time>2021-06-30T18:06:38Z</time>
      </trkpt>
      <trkpt lat="44.042908" lon="5.048724">
        <ele>95.24146</ele>
        <time>2021-06-30T18:06:39Z</time>
      </trkpt>
      <trkpt lat="44.043091" lon="5.048675">
        <ele>94.88184</ele>
        <time>2021-06-30T18:06:40Z</time>
      </trkpt>
      <trkpt lat="44.043091" lon="5.048675">
        <ele>94.07886</ele>
        <time>2021-06-30T18:06:41Z</time>
      </trkpt>
      <trkpt lat="44.043285" lon="5.048627">
        <ele>93.69067</ele>
        <time>2021-06-30T18:06:42Z</time>
      </trkpt>
      <trkpt lat="44.043465" lon="5.048586">
        <ele>93.82214</ele>
        <time>2021-06-30T18:06:43Z</time>
      </trkpt>
      <trkpt lat="44.043591" lon="5.048558">
        <ele>94.55359</ele>
        <time>2021-06-30T18:06:44Z</time>
      </trkpt>
      <trkpt lat="44.043762" lon="5.048534">
        <ele>93.58954</ele>
        <time>2021-06-30T18:06:45Z</time>
      </trkpt>
      <trkpt lat="44.043873" lon="5.048519">
        <ele>93.02368</ele>
        <time>2021-06-30T18:06:46Z</time>
      </trkpt>
      <trkpt lat="44.043907" lon="5.048514">
        <ele>94.21277</ele>
        <time>2021-06-30T18:06:47Z</time>
      </trkpt>
      <trkpt lat="44.043964" lon="5.048506">
        <ele>95.12000</ele>
        <time>2021-06-30T18:06:48Z</time>
      </trkpt>
      <trkpt lat="44.043980" lon="5.048504">
        <ele>95.10577</ele>
        <time>2021-06-30T18:06:49Z</time>
      </trkpt>
      <trkpt lat="44.043980" lon="5.048504">
        <ele>95.48248</ele>
        <time>2021-06-30T18:06:50Z</time>
      </trkpt>
      <trkpt lat="44.043983" lon="5.048503">
        <ele>95.40283</ele>
        <time>2021-06-30T18:06:51Z</time>
      </trkpt>
      <trkpt lat="44.044003" lon="5.048501">
        <ele>96.22565</ele>
        <time>2021-06-30T18:06:52Z</time>
      </trkpt>
      <trkpt lat="44.044018" lon="5.048499">
        <ele>95.51202</ele>
        <time>2021-06-30T18:06:53Z</time>
      </trkpt>
      <trkpt lat="44.044098" lon="5.048500">
        <ele>96.03027</ele>
        <time>2021-06-30T18:06:54Z</time>
      </trkpt>
      <trkpt lat="44.044144" lon="5.048503">
        <ele>96.95050</ele>
        <time>2021-06-30T18:06:55Z</time>
      </trkpt>
      <trkpt lat="44.044231" lon="5.048508">
        <ele>96.77161</ele>
        <time>2021-06-30T18:06:56Z</time>
      </trkpt>
      <trkpt lat="44.044281" lon="5.048510">
        <ele>97.02661</ele>
        <time>2021-06-30T18:06:57Z</time>
      </trkpt>
      <trkpt lat="44.044315" lon="5.048511">
        <ele>98.00085</ele>
        <time>2021-06-30T18:06:58Z</time>
      </trkpt>
      <trkpt lat="44.044353" lon="5.048512">
        <ele>98.46423</ele>
        <time>2021-06-30T18:06:59Z</time>
      </trkpt>
      <trkpt lat="44.044422" lon="5.048515">
        <ele>98.45013</ele>
        <time>2021-06-30T18:07:00Z</time>
      </trkpt>
      <trkpt lat="44.044483" lon="5.048519">
        <ele>98.51129</ele>
        <time>2021-06-30T18:07:01Z</time>
      </trkpt>
      <trkpt lat="44.044483" lon="5.048519">
        <ele>98.86591</ele>
        <time>2021-06-30T18:07:02Z</time>
      </trkpt>
      <trkpt lat="44.044575" lon="5.048526">
        <ele>99.34845</ele>
        <time>2021-06-30T18:07:03Z</time>
      </trkpt>
      <trkpt lat="44.044662" lon="5.048532">
        <ele>99.63171</ele>
        <time>2021-06-30T18:07:04Z</time>
      </trkpt>
      <trkpt lat="44.044754" lon="5.048537">
        <ele>99.16492</ele>
        <time>2021-06-30T18:07:05Z</time>
      </trkpt>
      <trkpt lat="44.044827" lon="5.048532">
        <ele>98.95319</ele>
        <time>2021-06-30T18:07:06Z</time>
      </trkpt>
      <trkpt lat="44.044937" lon="5.048513">
        <ele>98.39557</ele>
        <time>2021-06-30T18:07:07Z</time>
      </trkpt>
      <trkpt lat="44.045017" lon="5.048503">
        <ele>98.79395</ele>
        <time>2021-06-30T18:07:08Z</time>
      </trkpt>
      <trkpt lat="44.045132" lon="5.048488">
        <ele>99.02063</ele>
        <time>2021-06-30T18:07:09Z</time>
      </trkpt>
      <trkpt lat="44.045219" lon="5.048477">
        <ele>99.23187</ele>
        <time>2021-06-30T18:07:10Z</time>
      </trkpt>
      <trkpt lat="44.045307" lon="5.048465">
        <ele>99.91974</ele>
        <time>2021-06-30T18:07:11Z</time>
      </trkpt>
      <trkpt lat="44.045387" lon="5.048455">
        <ele>99.57947</ele>
        <time>2021-06-30T18:07:12Z</time>
      </trkpt>
      <trkpt lat="44.045387" lon="5.048455">
        <ele>99.58167</ele>
        <time>2021-06-30T18:07:13Z</time>
      </trkpt>
      <trkpt lat="44.045448" lon="5.048446">
        <ele>97.77594</ele>
        <time>2021-06-30T18:07:14Z</time>
      </trkpt>
      <trkpt lat="44.045502" lon="5.048437">
        <ele>96.87708</ele>
        <time>2021-06-30T18:07:15Z</time>
      </trkpt>
      <trkpt lat="44.045570" lon="5.048426">
        <ele>96.58716</ele>
        <time>2021-06-30T18:07:16Z</time>
      </trkpt>
      <trkpt lat="44.045616" lon="5.048419">
        <ele>96.23340</ele>
        <time>2021-06-30T18:07:17Z</time>
      </trkpt>
      <trkpt lat="44.045666" lon="5.048412">
        <ele>96.59839</ele>
        <time>2021-06-30T18:07:18Z</time>
      </trkpt>
      <trkpt lat="44.045715" lon="5.048404">
        <ele>97.32465</ele>
        <time>2021-06-30T18:07:19Z</time>
      </trkpt>
      <trkpt lat="44.045784" lon="5.048393">
        <ele>99.33508</ele>
        <time>2021-06-30T18:07:20Z</time>
      </trkpt>
      <trkpt lat="44.045849" lon="5.048382">
        <ele>98.91144</ele>
        <time>2021-06-30T18:07:21Z</time>
      </trkpt>
      <trkpt lat="44.045910" lon="5.048372">
        <ele>100.05420</ele>
        <time>2021-06-30T18:07:22Z</time>
      </trkpt>
      <trkpt lat="44.045910" lon="5.048372">
        <ele>100.53503</ele>
        <time>2021-06-30T18:07:23Z</time>
      </trkpt>
      <trkpt lat="44.045979" lon="5.048361">
        <ele>99.85449</ele>
        <time>2021-06-30T18:07:24Z</time>
      </trkpt>
      <trkpt lat="44.046043" lon="5.048351">
        <ele>98.90094</ele>
        <time>2021-06-30T18:07:25Z</time>
      </trkpt>
      <trkpt lat="44.046059" lon="5.048349">
        <ele>99.50012</ele>
        <time>2021-06-30T18:07:26Z</time>
      </trkpt>
      <trkpt lat="44.046070" lon="5.048347">
        <ele>98.58447</ele>
        <time>2021-06-30T18:07:27Z</time>
      </trkpt>
      <trkpt lat="44.046154" lon="5.048334">
        <ele>98.66492</ele>
        <time>2021-06-30T18:07:28Z</time>
      </trkpt>
      <trkpt lat="44.046288" lon="5.048310">
        <ele>98.61499</ele>
        <time>2021-06-30T18:07:29Z</time>
      </trkpt>
      <trkpt lat="44.046333" lon="5.048302">
        <ele>98.79779</ele>
        <time>2021-06-30T18:07:30Z</time>
      </trkpt>
      <trkpt lat="44.046478" lon="5.048276">
        <ele>98.83484</ele>
        <time>2021-06-30T18:07:31Z</time>
      </trkpt>
      <trkpt lat="44.046577" lon="5.048262">
        <ele>97.37073</ele>
        <time>2021-06-30T18:07:32Z</time>
      </trkpt>
      <trkpt lat="44.046738" lon="5.048239">
        <ele>98.12402</ele>
        <time>2021-06-30T18:07:33Z</time>
      </trkpt>
      <trkpt lat="44.046947" lon="5.048207">
        <ele>98.32275</ele>
        <time>2021-06-30T18:07:34Z</time>
      </trkpt>
      <trkpt lat="44.046947" lon="5.048207">
        <ele>98.38641</ele>
        <time>2021-06-30T18:07:35Z</time>
      </trkpt>
      <trkpt lat="44.047108" lon="5.048182">
        <ele>99.07861</ele>
        <time>2021-06-30T18:07:36Z</time>
      </trkpt>
      <trkpt lat="44.047234" lon="5.048162">
        <ele>98.76526</ele>
        <time>2021-06-30T18:07:37Z</time>
      </trkpt>
      <trkpt lat="44.047340" lon="5.048145">
        <ele>98.16449</ele>
        <time>2021-06-30T18:07:38Z</time>
      </trkpt>
      <trkpt lat="44.047451" lon="5.048126">
        <ele>98.40253</ele>
        <time>2021-06-30T18:07:39Z</time>
      </trkpt>
      <trkpt lat="44.047600" lon="5.048101">
        <ele>99.91516</ele>
        <time>2021-06-30T18:07:40Z</time>
      </trkpt>
      <trkpt lat="44.047775" lon="5.048073">
        <ele>100.09698</ele>
        <time>2021-06-30T18:07:41Z</time>
      </trkpt>
      <trkpt lat="44.047909" lon="5.048054">
        <ele>100.71039</ele>
        <time>2021-06-30T18:07:42Z</time>
      </trkpt>
      <trkpt lat="44.048073" lon="5.048028">
        <ele>101.04785</ele>
        <time>2021-06-30T18:07:43Z</time>
      </trkpt>
      <trkpt lat="44.048233" lon="5.048004">
        <ele>101.08276</ele>
        <time>2021-06-30T18:07:44Z</time>
      </trkpt>
      <trkpt lat="44.048389" lon="5.047983">
        <ele>105.17108</ele>
        <time>2021-06-30T18:07:45Z</time>
      </trkpt>
      <trkpt lat="44.048473" lon="5.047973">
        <ele>104.91113</ele>
        <time>2021-06-30T18:07:46Z</time>
      </trkpt>
      <trkpt lat="44.048588" lon="5.047959">
        <ele>107.42548</ele>
        <time>2021-06-30T18:07:47Z</time>
      </trkpt>
      <trkpt lat="44.048588" lon="5.047959">
        <ele>107.21027</ele>
        <time>2021-06-30T18:07:48Z</time>
      </trkpt>
      <trkpt lat="44.048725" lon="5.047942">
        <ele>106.12213</ele>
        <time>2021-06-30T18:07:49Z</time>
      </trkpt>
      <trkpt lat="44.048847" lon="5.047927">
        <ele>106.69623</ele>
        <time>2021-06-30T18:07:50Z</time>
      </trkpt>
      <trkpt lat="44.048931" lon="5.047917">
        <ele>106.79773</ele>
        <time>2021-06-30T18:07:51Z</time>
      </trkpt>
      <trkpt lat="44.049004" lon="5.047908">
        <ele>106.33813</ele>
        <time>2021-06-30T18:07:52Z</time>
      </trkpt>
      <trkpt lat="44.049171" lon="5.047884">
        <ele>103.97516</ele>
        <time>2021-06-30T18:07:53Z</time>
      </trkpt>
      <trkpt lat="44.049278" lon="5.047863">
        <ele>103.77673</ele>
        <time>2021-06-30T18:07:54Z</time>
      </trkpt>
      <trkpt lat="44.049374" lon="5.047844">
        <ele>104.79456</ele>
        <time>2021-06-30T18:07:55Z</time>
      </trkpt>
      <trkpt lat="44.049500" lon="5.047820">
        <ele>104.73169</ele>
        <time>2021-06-30T18:07:56Z</time>
      </trkpt>
      <trkpt lat="44.049595" lon="5.047800">
        <ele>104.88324</ele>
        <time>2021-06-30T18:07:57Z</time>
      </trkpt>
      <trkpt lat="44.049644" lon="5.047790">
        <ele>104.91748</ele>
        <time>2021-06-30T18:07:58Z</time>
      </trkpt>
      <trkpt lat="44.049732" lon="5.047774">
        <ele>107.76306</ele>
        <time>2021-06-30T18:07:59Z</time>
      </trkpt>
      <trkpt lat="44.049805" lon="5.047763">
        <ele>107.47839</ele>
        <time>2021-06-30T18:08:00Z</time>
      </trkpt>
      <trkpt lat="44.049885" lon="5.047753">
        <ele>107.23907</ele>
        <time>2021-06-30T18:08:01Z</time>
      </trkpt>
      <trkpt lat="44.049885" lon="5.047753">
        <ele>107.56287</ele>
        <time>2021-06-30T18:08:02Z</time>
      </trkpt>
      <trkpt lat="44.049976" lon="5.047740">
        <ele>107.03052</ele>
        <time>2021-06-30T18:08:03Z</time>
      </trkpt>
      <trkpt lat="44.050083" lon="5.047726">
        <ele>106.80450</ele>
        <time>2021-06-30T18:08:04Z</time>
      </trkpt>
      <trkpt lat="44.050163" lon="5.047716">
        <ele>105.61377</ele>
        <time>2021-06-30T18:08:05Z</time>
      </trkpt>
      <trkpt lat="44.050224" lon="5.047709">
        <ele>105.62268</ele>
        <time>2021-06-30T18:08:06Z</time>
      </trkpt>
      <trkpt lat="44.050373" lon="5.047692">
        <ele>105.11871</ele>
        <time>2021-06-30T18:08:07Z</time>
      </trkpt>
      <trkpt lat="44.050552" lon="5.047672">
        <ele>103.40540</ele>
        <time>2021-06-30T18:08:08Z</time>
      </trkpt>
      <trkpt lat="44.050671" lon="5.047658">
        <ele>104.77063</ele>
        <time>2021-06-30T18:08:09Z</time>
      </trkpt>
      <trkpt lat="44.050816" lon="5.047648">
        <ele>104.04919</ele>
        <time>2021-06-30T18:08:10Z</time>
      </trkpt>
      <trkpt lat="44.050926" lon="5.047676">
        <ele>104.85455</ele>
        <time>2021-06-30T18:08:11Z</time>
      </trkpt>
      <trkpt lat="44.051025" lon="5.047672">
        <ele>104.79907</ele>
        <time>2021-06-30T18:08:12Z</time>
      </trkpt>
      <trkpt lat="44.051113" lon="5.047662">
        <ele>108.64136</ele>
        <time>2021-06-30T18:08:13Z</time>
      </trkpt>
      <trkpt lat="44.051216" lon="5.047650">
        <ele>110.86865</ele>
        <time>2021-06-30T18:08:14Z</time>
      </trkpt>
      <trkpt lat="44.051296" lon="5.047641">
        <ele>109.71832</ele>
        <time>2021-06-30T18:08:15Z</time>
      </trkpt>
      <trkpt lat="44.051411" lon="5.047629">
        <ele>107.93988</ele>
        <time>2021-06-30T18:08:16Z</time>
      </trkpt>
      <trkpt lat="44.051411" lon="5.047629">
        <ele>106.19623</ele>
        <time>2021-06-30T18:08:17Z</time>
      </trkpt>
      <trkpt lat="44.051487" lon="5.047622">
        <ele>105.08276</ele>
        <time>2021-06-30T18:08:18Z</time>
      </trkpt>
      <trkpt lat="44.051537" lon="5.047617">
        <ele>107.99561</ele>
        <time>2021-06-30T18:08:19Z</time>
      </trkpt>
      <trkpt lat="44.051544" lon="5.047616">
        <ele>108.06000</ele>
        <time>2021-06-30T18:08:20Z</time>
      </trkpt>
      <trkpt lat="44.051544" lon="5.047616">
        <ele>108.37469</ele>
        <time>2021-06-30T18:08:21Z</time>
      </trkpt>
      <trkpt lat="44.051586" lon="5.047612">
        <ele>107.72937</ele>
        <time>2021-06-30T18:08:22Z</time>
      </trkpt>
      <trkpt lat="44.051594" lon="5.047612">
        <ele>108.24695</ele>
        <time>2021-06-30T18:08:23Z</time>
      </trkpt>
      <trkpt lat="44.051594" lon="5.047612">
        <ele>109.63593</ele>
        <time>2021-06-30T18:08:24Z</time>
      </trkpt>
      <trkpt lat="44.051594" lon="5.047612">
        <ele>112.76532</ele>
        <time>2021-06-30T18:08:25Z</time>
      </trkpt>
      <trkpt lat="44.051594" lon="5.047612">
        <ele>111.70734</ele>
        <time>2021-06-30T18:08:26Z</time>
      </trkpt>
      <trkpt lat="44.051594" lon="5.047612">
        <ele>111.55121</ele>
        <time>2021-06-30T18:08:27Z</time>
      </trkpt>
      <trkpt lat="44.051594" lon="5.047612">
        <ele>111.92688</ele>
        <time>2021-06-30T18:08:28Z</time>
      </trkpt>
      <trkpt lat="44.051594" lon="5.047612">
        <ele>112.29559</ele>
        <time>2021-06-30T18:08:29Z</time>
      </trkpt>
      <trkpt lat="44.051594" lon="5.047612">
        <ele>113.45789</ele>
        <time>2021-06-30T18:08:30Z</time>
      </trkpt>
      <trkpt lat="44.051594" lon="5.047612">
        <ele>114.34680</ele>
        <time>2021-06-30T18:08:31Z</time>
      </trkpt>
      <trkpt lat="44.051594" lon="5.047612">
        <ele>114.46838</ele>
        <time>2021-06-30T18:08:32Z</time>
      </trkpt>
      <trkpt lat="44.051598" lon="5.047611">
        <ele>114.52710</ele>
        <time>2021-06-30T18:08:33Z</time>
      </trkpt>
      <trkpt lat="44.051628" lon="5.047609">
        <ele>113.42133</ele>
        <time>2021-06-30T18:08:34Z</time>
      </trkpt>
      <trkpt lat="44.051674" lon="5.047646">
        <ele>112.88898</ele>
        <time>2021-06-30T18:08:35Z</time>
      </trkpt>
      <trkpt lat="44.051731" lon="5.047696">
        <ele>114.10333</ele>
        <time>2021-06-30T18:08:36Z</time>
      </trkpt>
      <trkpt lat="44.051792" lon="5.047750">
        <ele>114.76111</ele>
        <time>2021-06-30T18:08:37Z</time>
      </trkpt>
      <trkpt lat="44.051792" lon="5.047750">
        <ele>113.60693</ele>
        <time>2021-06-30T18:08:38Z</time>
      </trkpt>
      <trkpt lat="44.051853" lon="5.047821">
        <ele>112.05298</ele>
        <time>2021-06-30T18:08:39Z</time>
      </trkpt>
      <trkpt lat="44.051903" lon="5.047874">
        <ele>111.81030</ele>
        <time>2021-06-30T18:08:40Z</time>
      </trkpt>
      <trkpt lat="44.051956" lon="5.047937">
        <ele>111.38165</ele>
        <time>2021-06-30T18:08:41Z</time>
      </trkpt>
      <trkpt lat="44.051998" lon="5.048000">
        <ele>110.83167</ele>
        <time>2021-06-30T18:08:42Z</time>
      </trkpt>
      <trkpt lat="44.052021" lon="5.048042">
        <ele>111.69421</ele>
        <time>2021-06-30T18:08:43Z</time>
      </trkpt>
      <trkpt lat="44.052032" lon="5.048089">
        <ele>112.45160</ele>
        <time>2021-06-30T18:08:44Z</time>
      </trkpt>
      <trkpt lat="44.052040" lon="5.048113">
        <ele>111.35254</ele>
        <time>2021-06-30T18:08:45Z</time>
      </trkpt>
      <trkpt lat="44.052040" lon="5.048117">
        <ele>110.94647</ele>
        <time>2021-06-30T18:08:46Z</time>
      </trkpt>
      <trkpt lat="44.052067" lon="5.048218">
        <ele>110.24329</ele>
        <time>2021-06-30T18:08:47Z</time>
      </trkpt>
      <trkpt lat="44.052101" lon="5.048327">
        <ele>109.50391</ele>
        <time>2021-06-30T18:08:48Z</time>
      </trkpt>
      <trkpt lat="44.052101" lon="5.048327">
        <ele>109.09888</ele>
        <time>2021-06-30T18:08:49Z</time>
      </trkpt>
      <trkpt lat="44.052105" lon="5.048341">
        <ele>107.81531</ele>
        <time>2021-06-30T18:08:50Z</time>
      </trkpt>
      <trkpt lat="44.052132" lon="5.048389">
        <ele>109.35181</ele>
        <time>2021-06-30T18:08:51Z</time>
      </trkpt>
      <trkpt lat="44.052132" lon="5.048389">
        <ele>108.52527</ele>
        <time>2021-06-30T18:08:52Z</time>
      </trkpt>
      <trkpt lat="44.052204" lon="5.048467">
        <ele>109.07843</ele>
        <time>2021-06-30T18:08:53Z</time>
      </trkpt>
      <trkpt lat="44.052319" lon="5.048572">
        <ele>109.07379</ele>
        <time>2021-06-30T18:08:54Z</time>
      </trkpt>
      <trkpt lat="44.052410" lon="5.048671">
        <ele>110.03198</ele>
        <time>2021-06-30T18:08:55Z</time>
      </trkpt>
      <trkpt lat="44.052513" lon="5.048780">
        <ele>110.04761</ele>
        <time>2021-06-30T18:08:56Z</time>
      </trkpt>
      <trkpt lat="44.052624" lon="5.048899">
        <ele>110.17664</ele>
        <time>2021-06-30T18:08:57Z</time>
      </trkpt>
      <trkpt lat="44.052711" lon="5.048992">
        <ele>111.22894</ele>
        <time>2021-06-30T18:08:58Z</time>
      </trkpt>
      <trkpt lat="44.052803" lon="5.049090">
        <ele>111.42993</ele>
        <time>2021-06-30T18:08:59Z</time>
      </trkpt>
      <trkpt lat="44.052887" lon="5.049179">
        <ele>110.94629</ele>
        <time>2021-06-30T18:09:00Z</time>
      </trkpt>
      <trkpt lat="44.052959" lon="5.049256">
        <ele>111.28821</ele>
        <time>2021-06-30T18:09:01Z</time>
      </trkpt>
      <trkpt lat="44.053082" lon="5.049388">
        <ele>111.54443</ele>
        <time>2021-06-30T18:09:02Z</time>
      </trkpt>
      <trkpt lat="44.053158" lon="5.049465">
        <ele>110.32111</ele>
        <time>2021-06-30T18:09:03Z</time>
      </trkpt>
      <trkpt lat="44.053226" lon="5.049538">
        <ele>110.31763</ele>
        <time>2021-06-30T18:09:04Z</time>
      </trkpt>
      <trkpt lat="44.053307" lon="5.049627">
        <ele>110.54755</ele>
        <time>2021-06-30T18:09:05Z</time>
      </trkpt>
      <trkpt lat="44.053307" lon="5.049627">
        <ele>108.76239</ele>
        <time>2021-06-30T18:09:06Z</time>
      </trkpt>
      <trkpt lat="44.053387" lon="5.049716">
        <ele>108.57440</ele>
        <time>2021-06-30T18:09:07Z</time>
      </trkpt>
      <trkpt lat="44.053478" lon="5.049816">
        <ele>106.41235</ele>
        <time>2021-06-30T18:09:08Z</time>
      </trkpt>
      <trkpt lat="44.053570" lon="5.049916">
        <ele>106.97083</ele>
        <time>2021-06-30T18:09:09Z</time>
      </trkpt>
      <trkpt lat="44.053673" lon="5.050027">
        <ele>108.39496</ele>
        <time>2021-06-30T18:09:10Z</time>
      </trkpt>
      <trkpt lat="44.053814" lon="5.050174">
        <ele>108.24518</ele>
        <time>2021-06-30T18:09:11Z</time>
      </trkpt>
      <trkpt lat="44.053925" lon="5.050284">
        <ele>107.76245</ele>
        <time>2021-06-30T18:09:12Z</time>
      </trkpt>
      <trkpt lat="44.054016" lon="5.050376">
        <ele>107.83057</ele>
        <time>2021-06-30T18:09:13Z</time>
      </trkpt>
      <trkpt lat="44.054096" lon="5.050459">
        <ele>108.37500</ele>
        <time>2021-06-30T18:09:14Z</time>
      </trkpt>
      <trkpt lat="44.054173" lon="5.050555">
        <ele>108.08264</ele>
        <time>2021-06-30T18:09:15Z</time>
      </trkpt>
      <trkpt lat="44.054226" lon="5.050617">
        <ele>109.44421</ele>
        <time>2021-06-30T18:09:16Z</time>
      </trkpt>
      <trkpt lat="44.054279" lon="5.050672">
        <ele>109.63330</ele>
        <time>2021-06-30T18:09:17Z</time>
      </trkpt>
      <trkpt lat="44.054386" lon="5.050789">
        <ele>108.92444</ele>
        <time>2021-06-30T18:09:18Z</time>
      </trkpt>
      <trkpt lat="44.054478" lon="5.050884">
        <ele>107.28162</ele>
        <time>2021-06-30T18:09:19Z</time>
      </trkpt>
      <trkpt lat="44.054478" lon="5.050884">
        <ele>106.36884</ele>
        <time>2021-06-30T18:09:20Z</time>
      </trkpt>
      <trkpt lat="44.054596" lon="5.051010">
        <ele>106.46960</ele>
        <time>2021-06-30T18:09:21Z</time>
      </trkpt>
      <trkpt lat="44.054688" lon="5.051102">
        <ele>106.51782</ele>
        <time>2021-06-30T18:09:22Z</time>
      </trkpt>
      <trkpt lat="44.054771" lon="5.051182">
        <ele>104.88385</ele>
        <time>2021-06-30T18:09:23Z</time>
      </trkpt>
      <trkpt lat="44.054859" lon="5.051270">
        <ele>105.15710</ele>
        <time>2021-06-30T18:09:24Z</time>
      </trkpt>
      <trkpt lat="44.054958" lon="5.051373">
        <ele>105.64844</ele>
        <time>2021-06-30T18:09:25Z</time>
      </trkpt>
      <trkpt lat="44.055050" lon="5.051475">
        <ele>105.41608</ele>
        <time>2021-06-30T18:09:26Z</time>
      </trkpt>
      <trkpt lat="44.055119" lon="5.051546">
        <ele>105.96271</ele>
        <time>2021-06-30T18:09:27Z</time>
      </trkpt>
      <trkpt lat="44.055176" lon="5.051605">
        <ele>104.58154</ele>
        <time>2021-06-30T18:09:28Z</time>
      </trkpt>
      <trkpt lat="44.055237" lon="5.051677">
        <ele>104.27600</ele>
        <time>2021-06-30T18:09:29Z</time>
      </trkpt>
      <trkpt lat="44.055286" lon="5.051730">
        <ele>104.14282</ele>
        <time>2021-06-30T18:09:30Z</time>
      </trkpt>
      <trkpt lat="44.055286" lon="5.051730">
        <ele>103.83722</ele>
        <time>2021-06-30T18:09:31Z</time>
      </trkpt>
      <trkpt lat="44.055332" lon="5.051786">
        <ele>103.58441</ele>
        <time>2021-06-30T18:09:32Z</time>
      </trkpt>
      <trkpt lat="44.055378" lon="5.051836">
        <ele>103.74524</ele>
        <time>2021-06-30T18:09:33Z</time>
      </trkpt>
      <trkpt lat="44.055443" lon="5.051917">
        <ele>103.32556</ele>
        <time>2021-06-30T18:09:34Z</time>
      </trkpt>
      <trkpt lat="44.055511" lon="5.052004">
        <ele>103.10022</ele>
        <time>2021-06-30T18:09:35Z</time>
      </trkpt>
      <trkpt lat="44.055584" lon="5.052098">
        <ele>103.08063</ele>
        <time>2021-06-30T18:09:36Z</time>
      </trkpt>
      <trkpt lat="44.055641" lon="5.052180">
        <ele>103.70874</ele>
        <time>2021-06-30T18:09:37Z</time>
      </trkpt>
      <trkpt lat="44.055691" lon="5.052260">
        <ele>103.63147</ele>
        <time>2021-06-30T18:09:38Z</time>
      </trkpt>
      <trkpt lat="44.055752" lon="5.052363">
        <ele>103.89551</ele>
        <time>2021-06-30T18:09:39Z</time>
      </trkpt>
      <trkpt lat="44.055752" lon="5.052470">
        <ele>104.77472</ele>
        <time>2021-06-30T18:09:40Z</time>
      </trkpt>
      <trkpt lat="44.055756" lon="5.052615">
        <ele>104.97791</ele>
        <time>2021-06-30T18:09:41Z</time>
      </trkpt>
      <trkpt lat="44.055775" lon="5.052780">
        <ele>104.75061</ele>
        <time>2021-06-30T18:09:42Z</time>
      </trkpt>
      <trkpt lat="44.055794" lon="5.052931">
        <ele>104.22577</ele>
        <time>2021-06-30T18:09:43Z</time>
      </trkpt>
      <trkpt lat="44.055809" lon="5.053066">
        <ele>103.45776</ele>
        <time>2021-06-30T18:09:44Z</time>
      </trkpt>
      <trkpt lat="44.055809" lon="5.053066">
        <ele>103.18634</ele>
        <time>2021-06-30T18:09:45Z</time>
      </trkpt>
      <trkpt lat="44.055824" lon="5.053212">
        <ele>102.83057</ele>
        <time>2021-06-30T18:09:46Z</time>
      </trkpt>
      <trkpt lat="44.055843" lon="5.053350">
        <ele>103.13849</ele>
        <time>2021-06-30T18:09:47Z</time>
      </trkpt>
      <trkpt lat="44.055862" lon="5.053508">
        <ele>103.11169</ele>
        <time>2021-06-30T18:09:48Z</time>
      </trkpt>
      <trkpt lat="44.055882" lon="5.053655">
        <ele>103.04260</ele>
        <time>2021-06-30T18:09:49Z</time>
      </trkpt>
      <trkpt lat="44.055897" lon="5.053807">
        <ele>102.49084</ele>
        <time>2021-06-30T18:09:50Z</time>
      </trkpt>
      <trkpt lat="44.055916" lon="5.053942">
        <ele>101.77734</ele>
        <time>2021-06-30T18:09:51Z</time>
      </trkpt>
      <trkpt lat="44.055935" lon="5.054094">
        <ele>101.07751</ele>
        <time>2021-06-30T18:09:52Z</time>
      </trkpt>
      <trkpt lat="44.055950" lon="5.054239">
        <ele>99.28058</ele>
        <time>2021-06-30T18:09:53Z</time>
      </trkpt>
      <trkpt lat="44.055969" lon="5.054383">
        <ele>100.72620</ele>
        <time>2021-06-30T18:09:54Z</time>
      </trkpt>
      <trkpt lat="44.055984" lon="5.054521">
        <ele>98.80145</ele>
        <time>2021-06-30T18:09:55Z</time>
      </trkpt>
      <trkpt lat="44.056007" lon="5.054717">
        <ele>99.17896</ele>
        <time>2021-06-30T18:09:56Z</time>
      </trkpt>
      <trkpt lat="44.056030" lon="5.054898">
        <ele>99.64954</ele>
        <time>2021-06-30T18:09:57Z</time>
      </trkpt>
      <trkpt lat="44.056049" lon="5.055073">
        <ele>99.73163</ele>
        <time>2021-06-30T18:09:58Z</time>
      </trkpt>
      <trkpt lat="44.056068" lon="5.055237">
        <ele>97.29327</ele>
        <time>2021-06-30T18:09:59Z</time>
      </trkpt>
      <trkpt lat="44.056068" lon="5.055237">
        <ele>97.32581</ele>
        <time>2021-06-30T18:10:00Z</time>
      </trkpt>
      <trkpt lat="44.056087" lon="5.055415">
        <ele>96.81677</ele>
        <time>2021-06-30T18:10:01Z</time>
      </trkpt>
      <trkpt lat="44.056107" lon="5.055574">
        <ele>97.01270</ele>
        <time>2021-06-30T18:10:02Z</time>
      </trkpt>
      <trkpt lat="44.056126" lon="5.055754">
        <ele>97.43909</ele>
        <time>2021-06-30T18:10:03Z</time>
      </trkpt>
      <trkpt lat="44.056160" lon="5.055969">
        <ele>97.85858</ele>
        <time>2021-06-30T18:10:04Z</time>
      </trkpt>
      <trkpt lat="44.056179" lon="5.056085">
        <ele>97.82690</ele>
        <time>2021-06-30T18:10:05Z</time>
      </trkpt>
      <trkpt lat="44.056213" lon="5.056324">
        <ele>98.39343</ele>
        <time>2021-06-30T18:10:06Z</time>
      </trkpt>
      <trkpt lat="44.056236" lon="5.056502">
        <ele>98.94458</ele>
        <time>2021-06-30T18:10:07Z</time>
      </trkpt>
      <trkpt lat="44.056244" lon="5.056570">
        <ele>98.61163</ele>
        <time>2021-06-30T18:10:08Z</time>
      </trkpt>
      <trkpt lat="44.056263" lon="5.056737">
        <ele>99.21130</ele>
        <time>2021-06-30T18:10:09Z</time>
      </trkpt>
      <trkpt lat="44.056271" lon="5.056821">
        <ele>101.18805</ele>
        <time>2021-06-30T18:10:10Z</time>
      </trkpt>
      <trkpt lat="44.056286" lon="5.056936">
        <ele>101.31012</ele>
        <time>2021-06-30T18:10:11Z</time>
      </trkpt>
      <trkpt lat="44.056286" lon="5.056936">
        <ele>101.13928</ele>
        <time>2021-06-30T18:10:12Z</time>
      </trkpt>
      <trkpt lat="44.056297" lon="5.057063">
        <ele>102.49188</ele>
        <time>2021-06-30T18:10:13Z</time>
      </trkpt>
      <trkpt lat="44.056309" lon="5.057189">
        <ele>102.52795</ele>
        <time>2021-06-30T18:10:14Z</time>
      </trkpt>
      <trkpt lat="44.056320" lon="5.057315">
        <ele>102.48035</ele>
        <time>2021-06-30T18:10:15Z</time>
      </trkpt>
      <trkpt lat="44.056335" lon="5.057458">
        <ele>102.04919</ele>
        <time>2021-06-30T18:10:16Z</time>
      </trkpt>
      <trkpt lat="44.056355" lon="5.057618">
        <ele>102.17358</ele>
        <time>2021-06-30T18:10:17Z</time>
      </trkpt>
      <trkpt lat="44.056377" lon="5.057776">
        <ele>101.31665</ele>
        <time>2021-06-30T18:10:18Z</time>
      </trkpt>
      <trkpt lat="44.056396" lon="5.057932">
        <ele>101.11328</ele>
        <time>2021-06-30T18:10:19Z</time>
      </trkpt>
      <trkpt lat="44.056412" lon="5.058087">
        <ele>101.45288</ele>
        <time>2021-06-30T18:10:20Z</time>
      </trkpt>
      <trkpt lat="44.056427" lon="5.058199">
        <ele>102.14941</ele>
        <time>2021-06-30T18:10:21Z</time>
      </trkpt>
      <trkpt lat="44.056412" lon="5.058272">
        <ele>102.17688</ele>
        <time>2021-06-30T18:10:22Z</time>
      </trkpt>
      <trkpt lat="44.056385" lon="5.058382">
        <ele>102.28485</ele>
        <time>2021-06-30T18:10:23Z</time>
      </trkpt>
      <trkpt lat="44.056408" lon="5.058499">
        <ele>102.07806</ele>
        <time>2021-06-30T18:10:24Z</time>
      </trkpt>
      <trkpt lat="44.056408" lon="5.058499">
        <ele>101.64209</ele>
        <time>2021-06-30T18:10:25Z</time>
      </trkpt>
      <trkpt lat="44.056370" lon="5.058598">
        <ele>101.72827</ele>
        <time>2021-06-30T18:10:26Z</time>
      </trkpt>
      <trkpt lat="44.056522" lon="5.058587">
        <ele>101.59296</ele>
        <time>2021-06-30T18:10:27Z</time>
      </trkpt>
      <trkpt lat="44.056599" lon="5.058535">
        <ele>101.54510</ele>
        <time>2021-06-30T18:10:28Z</time>
      </trkpt>
      <trkpt lat="44.056648" lon="5.058410">
        <ele>101.57166</ele>
        <time>2021-06-30T18:10:29Z</time>
      </trkpt>
      <trkpt lat="44.056755" lon="5.058360">
        <ele>100.39313</ele>
        <time>2021-06-30T18:10:30Z</time>
      </trkpt>
      <trkpt lat="44.056904" lon="5.058404">
        <ele>100.10785</ele>
        <time>2021-06-30T18:10:31Z</time>
      </trkpt>
      <trkpt lat="44.057037" lon="5.058456">
        <ele>97.46313</ele>
        <time>2021-06-30T18:10:32Z</time>
      </trkpt>
      <trkpt lat="44.057133" lon="5.058493">
        <ele>97.28375</ele>
        <time>2021-06-30T18:10:33Z</time>
      </trkpt>
      <trkpt lat="44.057404" lon="5.058614">
        <ele>96.57330</ele>
        <time>2021-06-30T18:10:34Z</time>
      </trkpt>
      <trkpt lat="44.057503" lon="5.058660">
        <ele>96.68994</ele>
        <time>2021-06-30T18:10:35Z</time>
      </trkpt>
      <trkpt lat="44.057686" lon="5.058747">
        <ele>95.95599</ele>
        <time>2021-06-30T18:10:36Z</time>
      </trkpt>
      <trkpt lat="44.057686" lon="5.058747">
        <ele>96.23987</ele>
        <time>2021-06-30T18:10:37Z</time>
      </trkpt>
      <trkpt lat="44.057774" lon="5.058790">
        <ele>96.25525</ele>
        <time>2021-06-30T18:10:38Z</time>
      </trkpt>
      <trkpt lat="44.057873" lon="5.058838">
        <ele>96.26086</ele>
        <time>2021-06-30T18:10:39Z</time>
      </trkpt>
      <trkpt lat="44.058018" lon="5.058905">
        <ele>96.74054</ele>
        <time>2021-06-30T18:10:40Z</time>
      </trkpt>
      <trkpt lat="44.058048" lon="5.058920">
        <ele>96.57391</ele>
        <time>2021-06-30T18:10:41Z</time>
      </trkpt>
      <trkpt lat="44.058067" lon="5.058932">
        <ele>96.91846</ele>
        <time>2021-06-30T18:10:42Z</time>
      </trkpt>
      <trkpt lat="44.058163" lon="5.058983">
        <ele>95.93518</ele>
        <time>2021-06-30T18:10:43Z</time>
      </trkpt>
      <trkpt lat="44.058258" lon="5.059032">
        <ele>96.76068</ele>
        <time>2021-06-30T18:10:44Z</time>
      </trkpt>
      <trkpt lat="44.058369" lon="5.059089">
        <ele>95.73334</ele>
        <time>2021-06-30T18:10:45Z</time>
      </trkpt>
      <trkpt lat="44.058483" lon="5.059143">
        <ele>94.43103</ele>
        <time>2021-06-30T18:10:46Z</time>
      </trkpt>
      <trkpt lat="44.058617" lon="5.059200">
        <ele>94.02448</ele>
        <time>2021-06-30T18:10:47Z</time>
      </trkpt>
      <trkpt lat="44.058739" lon="5.059235">
        <ele>93.84863</ele>
        <time>2021-06-30T18:10:48Z</time>
      </trkpt>
      <trkpt lat="44.058739" lon="5.059235">
        <ele>94.05359</ele>
        <time>2021-06-30T18:10:49Z</time>
      </trkpt>
      <trkpt lat="44.058876" lon="5.059262">
        <ele>94.93384</ele>
        <time>2021-06-30T18:10:50Z</time>
      </trkpt>
      <trkpt lat="44.058998" lon="5.059243">
        <ele>95.26611</ele>
        <time>2021-06-30T18:10:51Z</time>
      </trkpt>
      <trkpt lat="44.059143" lon="5.059170">
        <ele>95.02753</ele>
        <time>2021-06-30T18:10:52Z</time>
      </trkpt>
      <trkpt lat="44.059284" lon="5.059085">
        <ele>89.32239</ele>
        <time>2021-06-30T18:10:53Z</time>
      </trkpt>
      <trkpt lat="44.059399" lon="5.059017">
        <ele>89.38977</ele>
        <time>2021-06-30T18:10:54Z</time>
      </trkpt>
      <trkpt lat="44.059509" lon="5.058950">
        <ele>90.48773</ele>
        <time>2021-06-30T18:10:55Z</time>
      </trkpt>
      <trkpt lat="44.059643" lon="5.058856">
        <ele>91.37903</ele>
        <time>2021-06-30T18:10:56Z</time>
      </trkpt>
      <trkpt lat="44.059753" lon="5.058777">
        <ele>92.18213</ele>
        <time>2021-06-30T18:10:57Z</time>
      </trkpt>
      <trkpt lat="44.059872" lon="5.058693">
        <ele>92.46698</ele>
        <time>2021-06-30T18:10:58Z</time>
      </trkpt>
      <trkpt lat="44.059986" lon="5.058606">
        <ele>91.80487</ele>
        <time>2021-06-30T18:10:59Z</time>
      </trkpt>
      <trkpt lat="44.060104" lon="5.058521">
        <ele>91.41809</ele>
        <time>2021-06-30T18:11:00Z</time>
      </trkpt>
      <trkpt lat="44.060211" lon="5.058456">
        <ele>90.80475</ele>
        <time>2021-06-30T18:11:01Z</time>
      </trkpt>
      <trkpt lat="44.060329" lon="5.058398">
        <ele>90.65063</ele>
        <time>2021-06-30T18:11:02Z</time>
      </trkpt>
      <trkpt lat="44.060444" lon="5.058375">
        <ele>90.49524</ele>
        <time>2021-06-30T18:11:03Z</time>
      </trkpt>
      <trkpt lat="44.060444" lon="5.058375">
        <ele>90.56158</ele>
        <time>2021-06-30T18:11:04Z</time>
      </trkpt>
      <trkpt lat="44.060497" lon="5.058371">
        <ele>90.21643</ele>
        <time>2021-06-30T18:11:05Z</time>
      </trkpt>
      <trkpt lat="44.060535" lon="5.058368">
        <ele>89.43115</ele>
        <time>2021-06-30T18:11:06Z</time>
      </trkpt>
      <trkpt lat="44.060654" lon="5.058364">
        <ele>91.57410</ele>
        <time>2021-06-30T18:11:07Z</time>
      </trkpt>
      <trkpt lat="44.060745" lon="5.058377">
        <ele>92.91962</ele>
        <time>2021-06-30T18:11:08Z</time>
      </trkpt>
      <trkpt lat="44.060806" lon="5.058386">
        <ele>91.61517</ele>
        <time>2021-06-30T18:11:09Z</time>
      </trkpt>
      <trkpt lat="44.060917" lon="5.058411">
        <ele>92.73358</ele>
        <time>2021-06-30T18:11:10Z</time>
      </trkpt>
      <trkpt lat="44.061020" lon="5.058434">
        <ele>92.37842</ele>
        <time>2021-06-30T18:11:11Z</time>
      </trkpt>
      <trkpt lat="44.061131" lon="5.058458">
        <ele>92.17157</ele>
        <time>2021-06-30T18:11:12Z</time>
      </trkpt>
      <trkpt lat="44.061234" lon="5.058487">
        <ele>92.70135</ele>
        <time>2021-06-30T18:11:13Z</time>
      </trkpt>
      <trkpt lat="44.061302" lon="5.058507">
        <ele>93.69446</ele>
        <time>2021-06-30T18:11:14Z</time>
      </trkpt>
      <trkpt lat="44.061302" lon="5.058507">
        <ele>94.29150</ele>
        <time>2021-06-30T18:11:15Z</time>
      </trkpt>
      <trkpt lat="44.061359" lon="5.058523">
        <ele>93.75854</ele>
        <time>2021-06-30T18:11:16Z</time>
      </trkpt>
      <trkpt lat="44.061451" lon="5.058545">
        <ele>92.81061</ele>
        <time>2021-06-30T18:11:17Z</time>
      </trkpt>
      <trkpt lat="44.061523" lon="5.058680">
        <ele>93.21674</ele>
        <time>2021-06-30T18:11:18Z</time>
      </trkpt>
      <trkpt lat="44.061596" lon="5.058754">
        <ele>94.70660</ele>
        <time>2021-06-30T18:11:19Z</time>
      </trkpt>
      <trkpt lat="44.061676" lon="5.058834">
        <ele>95.00647</ele>
        <time>2021-06-30T18:11:20Z</time>
      </trkpt>
      <trkpt lat="44.061768" lon="5.058921">
        <ele>95.23309</ele>
        <time>2021-06-30T18:11:21Z</time>
      </trkpt>
      <trkpt lat="44.061882" lon="5.059015">
        <ele>95.22009</ele>
        <time>2021-06-30T18:11:22Z</time>
      </trkpt>
      <trkpt lat="44.061966" lon="5.059100">
        <ele>96.31702</ele>
        <time>2021-06-30T18:11:23Z</time>
      </trkpt>
      <trkpt lat="44.062061" lon="5.059199">
        <ele>95.96631</ele>
        <time>2021-06-30T18:11:24Z</time>
      </trkpt>
      <trkpt lat="44.062149" lon="5.059291">
        <ele>96.30664</ele>
        <time>2021-06-30T18:11:25Z</time>
      </trkpt>
      <trkpt lat="44.062244" lon="5.059383">
        <ele>96.03174</ele>
        <time>2021-06-30T18:11:26Z</time>
      </trkpt>
      <trkpt lat="44.062366" lon="5.059491">
        <ele>96.59210</ele>
        <time>2021-06-30T18:11:27Z</time>
      </trkpt>
      <trkpt lat="44.062366" lon="5.059491">
        <ele>96.33014</ele>
        <time>2021-06-30T18:11:28Z</time>
      </trkpt>
      <trkpt lat="44.062492" lon="5.059603">
        <ele>96.47595</ele>
        <time>2021-06-30T18:11:29Z</time>
      </trkpt>
      <trkpt lat="44.062607" lon="5.059706">
        <ele>96.95459</ele>
        <time>2021-06-30T18:11:30Z</time>
      </trkpt>
      <trkpt lat="44.062691" lon="5.059779">
        <ele>97.46021</ele>
        <time>2021-06-30T18:11:31Z</time>
      </trkpt>
      <trkpt lat="44.062763" lon="5.059862">
        <ele>96.36896</ele>
        <time>2021-06-30T18:11:32Z</time>
      </trkpt>
      <trkpt lat="44.062828" lon="5.059934">
        <ele>95.70502</ele>
        <time>2021-06-30T18:11:33Z</time>
      </trkpt>
      <trkpt lat="44.062893" lon="5.060005">
        <ele>96.12115</ele>
        <time>2021-06-30T18:11:34Z</time>
      </trkpt>
      <trkpt lat="44.062965" lon="5.060099">
        <ele>96.60126</ele>
        <time>2021-06-30T18:11:35Z</time>
      </trkpt>
      <trkpt lat="44.063042" lon="5.060200">
        <ele>96.37994</ele>
        <time>2021-06-30T18:11:36Z</time>
      </trkpt>
      <trkpt lat="44.063107" lon="5.060308">
        <ele>96.03888</ele>
        <time>2021-06-30T18:11:37Z</time>
      </trkpt>
      <trkpt lat="44.063179" lon="5.060430">
        <ele>94.92932</ele>
        <time>2021-06-30T18:11:38Z</time>
      </trkpt>
      <trkpt lat="44.063244" lon="5.060540">
        <ele>95.26550</ele>
        <time>2021-06-30T18:11:39Z</time>
      </trkpt>
      <trkpt lat="44.063305" lon="5.060668">
        <ele>95.75586</ele>
        <time>2021-06-30T18:11:40Z</time>
      </trkpt>
      <trkpt lat="44.063389" lon="5.060845">
        <ele>96.72705</ele>
        <time>2021-06-30T18:11:41Z</time>
      </trkpt>
      <trkpt lat="44.063469" lon="5.061028">
        <ele>94.34296</ele>
        <time>2021-06-30T18:11:42Z</time>
      </trkpt>
      <trkpt lat="44.063469" lon="5.061028">
        <ele>93.98877</ele>
        <time>2021-06-30T18:11:43Z</time>
      </trkpt>
      <trkpt lat="44.063545" lon="5.061217">
        <ele>94.47302</ele>
        <time>2021-06-30T18:11:44Z</time>
      </trkpt>
      <trkpt lat="44.063618" lon="5.061383">
        <ele>94.49780</ele>
        <time>2021-06-30T18:11:45Z</time>
      </trkpt>
      <trkpt lat="44.063686" lon="5.061545">
        <ele>95.07904</ele>
        <time>2021-06-30T18:11:46Z</time>
      </trkpt>
      <trkpt lat="44.063763" lon="5.061728">
        <ele>94.86029</ele>
        <time>2021-06-30T18:11:47Z</time>
      </trkpt>
      <trkpt lat="44.063828" lon="5.061884">
        <ele>96.39508</ele>
        <time>2021-06-30T18:11:48Z</time>
      </trkpt>
      <trkpt lat="44.063896" lon="5.062047">
        <ele>97.27466</ele>
        <time>2021-06-30T18:11:49Z</time>
      </trkpt>
      <trkpt lat="44.063961" lon="5.062206">
        <ele>96.68896</ele>
        <time>2021-06-30T18:11:50Z</time>
      </trkpt>
      <trkpt lat="44.064022" lon="5.062355">
        <ele>96.83710</ele>
        <time>2021-06-30T18:11:51Z</time>
      </trkpt>
      <trkpt lat="44.064079" lon="5.062509">
        <ele>96.94141</ele>
        <time>2021-06-30T18:11:52Z</time>
      </trkpt>
      <trkpt lat="44.064140" lon="5.062674">
        <ele>96.47754</ele>
        <time>2021-06-30T18:11:53Z</time>
      </trkpt>
      <trkpt lat="44.064198" lon="5.062821">
        <ele>97.74493</ele>
        <time>2021-06-30T18:11:54Z</time>
      </trkpt>
      <trkpt lat="44.064251" lon="5.062960">
        <ele>96.59076</ele>
        <time>2021-06-30T18:11:55Z</time>
      </trkpt>
      <trkpt lat="44.064316" lon="5.063097">
        <ele>96.25134</ele>
        <time>2021-06-30T18:11:56Z</time>
      </trkpt>
      <trkpt lat="44.064316" lon="5.063097">
        <ele>97.11304</ele>
        <time>2021-06-30T18:11:57Z</time>
      </trkpt>
      <trkpt lat="44.064388" lon="5.063237">
        <ele>96.54083</ele>
        <time>2021-06-30T18:11:58Z</time>
      </trkpt>
      <trkpt lat="44.064461" lon="5.063370">
        <ele>97.48682</ele>
        <time>2021-06-30T18:11:59Z</time>
      </trkpt>
      <trkpt lat="44.064518" lon="5.063476">
        <ele>98.30939</ele>
        <time>2021-06-30T18:12:00Z</time>
      </trkpt>
      <trkpt lat="44.064568" lon="5.063573">
        <ele>98.30719</ele>
        <time>2021-06-30T18:12:01Z</time>
      </trkpt>
      <trkpt lat="44.064613" lon="5.063659">
        <ele>99.10339</ele>
        <time>2021-06-30T18:12:02Z</time>
      </trkpt>
      <trkpt lat="44.064663" lon="5.063746">
        <ele>99.69141</ele>
        <time>2021-06-30T18:12:03Z</time>
      </trkpt>
      <trkpt lat="44.064705" lon="5.063818">
        <ele>99.94714</ele>
        <time>2021-06-30T18:12:04Z</time>
      </trkpt>
      <trkpt lat="44.064743" lon="5.063886">
        <ele>99.96545</ele>
        <time>2021-06-30T18:12:05Z</time>
      </trkpt>
      <trkpt lat="44.064781" lon="5.063952">
        <ele>100.61169</ele>
        <time>2021-06-30T18:12:06Z</time>
      </trkpt>
      <trkpt lat="44.064812" lon="5.064004">
        <ele>99.88953</ele>
        <time>2021-06-30T18:12:07Z</time>
      </trkpt>
      <trkpt lat="44.064835" lon="5.064045">
        <ele>100.00281</ele>
        <time>2021-06-30T18:12:08Z</time>
      </trkpt>
      <trkpt lat="44.064835" lon="5.064045">
        <ele>98.51746</ele>
        <time>2021-06-30T18:12:09Z</time>
      </trkpt>
      <trkpt lat="44.064865" lon="5.064097">
        <ele>98.06329</ele>
        <time>2021-06-30T18:12:10Z</time>
      </trkpt>
      <trkpt lat="44.064899" lon="5.064160">
        <ele>97.94940</ele>
        <time>2021-06-30T18:12:11Z</time>
      </trkpt>
      <trkpt lat="44.064960" lon="5.064276">
        <ele>97.69458</ele>
        <time>2021-06-30T18:12:12Z</time>
      </trkpt>
      <trkpt lat="44.065037" lon="5.064423">
        <ele>98.64929</ele>
        <time>2021-06-30T18:12:13Z</time>
      </trkpt>
      <trkpt lat="44.065090" lon="5.064522">
        <ele>98.48572</ele>
        <time>2021-06-30T18:12:14Z</time>
      </trkpt>
      <trkpt lat="44.065155" lon="5.064649">
        <ele>99.69971</ele>
        <time>2021-06-30T18:12:15Z</time>
      </trkpt>
      <trkpt lat="44.065231" lon="5.064788">
        <ele>100.28357</ele>
        <time>2021-06-30T18:12:16Z</time>
      </trkpt>
      <trkpt lat="44.065289" lon="5.064897">
        <ele>100.81903</ele>
        <time>2021-06-30T18:12:17Z</time>
      </trkpt>
      <trkpt lat="44.065346" lon="5.065005">
        <ele>101.70551</ele>
        <time>2021-06-30T18:12:18Z</time>
      </trkpt>
      <trkpt lat="44.065411" lon="5.065131">
        <ele>101.82788</ele>
        <time>2021-06-30T18:12:19Z</time>
      </trkpt>
      <trkpt lat="44.065483" lon="5.065268">
        <ele>102.14624</ele>
        <time>2021-06-30T18:12:20Z</time>
      </trkpt>
      <trkpt lat="44.065544" lon="5.065381">
        <ele>102.19720</ele>
        <time>2021-06-30T18:12:21Z</time>
      </trkpt>
      <trkpt lat="44.065544" lon="5.065381">
        <ele>102.35596</ele>
        <time>2021-06-30T18:12:22Z</time>
      </trkpt>
      <trkpt lat="44.065605" lon="5.065495">
        <ele>102.55841</ele>
        <time>2021-06-30T18:12:23Z</time>
      </trkpt>
      <trkpt lat="44.065689" lon="5.065657">
        <ele>100.91467</ele>
        <time>2021-06-30T18:12:24Z</time>
      </trkpt>
      <trkpt lat="44.065762" lon="5.065792">
        <ele>101.16650</ele>
        <time>2021-06-30T18:12:25Z</time>
      </trkpt>
      <trkpt lat="44.065830" lon="5.065927">
        <ele>101.13519</ele>
        <time>2021-06-30T18:12:26Z</time>
      </trkpt>
      <trkpt lat="44.065899" lon="5.066052">
        <ele>101.11847</ele>
        <time>2021-06-30T18:12:27Z</time>
      </trkpt>
      <trkpt lat="44.065990" lon="5.066232">
        <ele>102.75024</ele>
        <time>2021-06-30T18:12:28Z</time>
      </trkpt>
      <trkpt lat="44.066067" lon="5.066372">
        <ele>104.49994</ele>
        <time>2021-06-30T18:12:29Z</time>
      </trkpt>
      <trkpt lat="44.066086" lon="5.066409">
        <ele>104.33423</ele>
        <time>2021-06-30T18:12:30Z</time>
      </trkpt>
      <trkpt lat="44.066162" lon="5.066556">
        <ele>104.94312</ele>
        <time>2021-06-30T18:12:31Z</time>
      </trkpt>
      <trkpt lat="44.066227" lon="5.066682">
        <ele>107.00928</ele>
        <time>2021-06-30T18:12:32Z</time>
      </trkpt>
      <trkpt lat="44.066299" lon="5.066814">
        <ele>108.14673</ele>
        <time>2021-06-30T18:12:33Z</time>
      </trkpt>
      <trkpt lat="44.066360" lon="5.066931">
        <ele>109.01923</ele>
        <time>2021-06-30T18:12:34Z</time>
      </trkpt>
      <trkpt lat="44.066418" lon="5.067027">
        <ele>110.04938</ele>
        <time>2021-06-30T18:12:35Z</time>
      </trkpt>
      <trkpt lat="44.066418" lon="5.067027">
        <ele>111.28687</ele>
        <time>2021-06-30T18:12:36Z</time>
      </trkpt>
      <trkpt lat="44.066463" lon="5.067098">
        <ele>111.72095</ele>
        <time>2021-06-30T18:12:37Z</time>
      </trkpt>
      <trkpt lat="44.066502" lon="5.067160">
        <ele>112.48932</ele>
        <time>2021-06-30T18:12:38Z</time>
      </trkpt>
      <trkpt lat="44.066540" lon="5.067217">
        <ele>112.46033</ele>
        <time>2021-06-30T18:12:39Z</time>
      </trkpt>
      <trkpt lat="44.066570" lon="5.067269">
        <ele>112.84155</ele>
        <time>2021-06-30T18:12:40Z</time>
      </trkpt>
      <trkpt lat="44.066608" lon="5.067329">
        <ele>112.66956</ele>
        <time>2021-06-30T18:12:41Z</time>
      </trkpt>
      <trkpt lat="44.066639" lon="5.067376">
        <ele>112.57135</ele>
        <time>2021-06-30T18:12:42Z</time>
      </trkpt>
      <trkpt lat="44.066689" lon="5.067455">
        <ele>111.36224</ele>
        <time>2021-06-30T18:12:43Z</time>
      </trkpt>
      <trkpt lat="44.066696" lon="5.067557">
        <ele>111.56873</ele>
        <time>2021-06-30T18:12:44Z</time>
      </trkpt>
      <trkpt lat="44.066669" lon="5.067732">
        <ele>112.28113</ele>
        <time>2021-06-30T18:12:45Z</time>
      </trkpt>
      <trkpt lat="44.066700" lon="5.067911">
        <ele>112.28278</ele>
        <time>2021-06-30T18:12:46Z</time>
      </trkpt>
      <trkpt lat="44.066761" lon="5.067999">
        <ele>112.30573</ele>
        <time>2021-06-30T18:12:47Z</time>
      </trkpt>
      <trkpt lat="44.066872" lon="5.068065">
        <ele>112.85089</ele>
        <time>2021-06-30T18:12:48Z</time>
      </trkpt>
      <trkpt lat="44.066887" lon="5.068257">
        <ele>113.16412</ele>
        <time>2021-06-30T18:12:49Z</time>
      </trkpt>
      <trkpt lat="44.066940" lon="5.068571">
        <ele>113.49750</ele>
        <time>2021-06-30T18:12:50Z</time>
      </trkpt>
      <trkpt lat="44.067005" lon="5.068752">
        <ele>113.13831</ele>
        <time>2021-06-30T18:12:51Z</time>
      </trkpt>
      <trkpt lat="44.067005" lon="5.068752">
        <ele>113.75909</ele>
        <time>2021-06-30T18:12:52Z</time>
      </trkpt>
      <trkpt lat="44.067101" lon="5.068994">
        <ele>114.55286</ele>
        <time>2021-06-30T18:12:53Z</time>
      </trkpt>
      <trkpt lat="44.067196" lon="5.069216">
        <ele>115.10724</ele>
        <time>2021-06-30T18:12:54Z</time>
      </trkpt>
      <trkpt lat="44.067287" lon="5.069435">
        <ele>114.93188</ele>
        <time>2021-06-30T18:12:55Z</time>
      </trkpt>
      <trkpt lat="44.067379" lon="5.069648">
        <ele>116.53625</ele>
        <time>2021-06-30T18:12:56Z</time>
      </trkpt>
      <trkpt lat="44.067463" lon="5.069843">
        <ele>116.78937</ele>
        <time>2021-06-30T18:12:57Z</time>
      </trkpt>
      <trkpt lat="44.067535" lon="5.070025">
        <ele>117.32703</ele>
        <time>2021-06-30T18:12:58Z</time>
      </trkpt>
      <trkpt lat="44.067638" lon="5.070272">
        <ele>117.08539</ele>
        <time>2021-06-30T18:12:59Z</time>
      </trkpt>
      <trkpt lat="44.067757" lon="5.070562">
        <ele>117.71460</ele>
        <time>2021-06-30T18:13:00Z</time>
      </trkpt>
      <trkpt lat="44.067860" lon="5.070814">
        <ele>118.36713</ele>
        <time>2021-06-30T18:13:01Z</time>
      </trkpt>
      <trkpt lat="44.067966" lon="5.071071">
        <ele>117.60553</ele>
        <time>2021-06-30T18:13:02Z</time>
      </trkpt>
      <trkpt lat="44.068066" lon="5.071313">
        <ele>117.36340</ele>
        <time>2021-06-30T18:13:03Z</time>
      </trkpt>
      <trkpt lat="44.068161" lon="5.071544">
        <ele>116.98175</ele>
        <time>2021-06-30T18:13:04Z</time>
      </trkpt>
      <trkpt lat="44.068272" lon="5.071809">
        <ele>117.58350</ele>
        <time>2021-06-30T18:13:05Z</time>
      </trkpt>
      <trkpt lat="44.068272" lon="5.071809">
        <ele>119.09180</ele>
        <time>2021-06-30T18:13:06Z</time>
      </trkpt>
      <trkpt lat="44.068375" lon="5.072051">
        <ele>119.27094</ele>
        <time>2021-06-30T18:13:07Z</time>
      </trkpt>
      <trkpt lat="44.068470" lon="5.072286">
        <ele>119.43549</ele>
        <time>2021-06-30T18:13:08Z</time>
      </trkpt>
      <trkpt lat="44.068554" lon="5.072531">
        <ele>119.07819</ele>
        <time>2021-06-30T18:13:09Z</time>
      </trkpt>
      <trkpt lat="44.068623" lon="5.072792">
        <ele>120.71216</ele>
        <time>2021-06-30T18:13:10Z</time>
      </trkpt>
      <trkpt lat="44.068684" lon="5.073132">
        <ele>121.29724</ele>
        <time>2021-06-30T18:13:11Z</time>
      </trkpt>
      <trkpt lat="44.068737" lon="5.073382">
        <ele>122.95227</ele>
        <time>2021-06-30T18:13:12Z</time>
      </trkpt>
      <trkpt lat="44.068813" lon="5.073713">
        <ele>122.74695</ele>
        <time>2021-06-30T18:13:13Z</time>
      </trkpt>
      <trkpt lat="44.068859" lon="5.073975">
        <ele>123.27057</ele>
        <time>2021-06-30T18:13:14Z</time>
      </trkpt>
      <trkpt lat="44.068905" lon="5.074240">
        <ele>123.93506</ele>
        <time>2021-06-30T18:13:15Z</time>
      </trkpt>
      <trkpt lat="44.068962" lon="5.074561">
        <ele>124.51868</ele>
        <time>2021-06-30T18:13:16Z</time>
      </trkpt>
      <trkpt lat="44.069031" lon="5.074871">
        <ele>123.27948</ele>
        <time>2021-06-30T18:13:17Z</time>
      </trkpt>
      <trkpt lat="44.069080" lon="5.075158">
        <ele>121.85132</ele>
        <time>2021-06-30T18:13:18Z</time>
      </trkpt>
      <trkpt lat="44.069080" lon="5.075158">
        <ele>122.11603</ele>
        <time>2021-06-30T18:13:19Z</time>
      </trkpt>
      <trkpt lat="44.069138" lon="5.075508">
        <ele>122.84344</ele>
        <time>2021-06-30T18:13:20Z</time>
      </trkpt>
      <trkpt lat="44.069199" lon="5.075824">
        <ele>122.19049</ele>
        <time>2021-06-30T18:13:21Z</time>
      </trkpt>
      <trkpt lat="44.069260" lon="5.076108">
        <ele>123.09705</ele>
        <time>2021-06-30T18:13:22Z</time>
      </trkpt>
      <trkpt lat="44.069321" lon="5.076372">
        <ele>121.80402</ele>
        <time>2021-06-30T18:13:23Z</time>
      </trkpt>
      <trkpt lat="44.069386" lon="5.076678">
        <ele>121.62823</ele>
        <time>2021-06-30T18:13:24Z</time>
      </trkpt>
      <trkpt lat="44.069443" lon="5.077021">
        <ele>122.09973</ele>
        <time>2021-06-30T18:13:25Z</time>
      </trkpt>
      <trkpt lat="44.069496" lon="5.077326">
        <ele>122.02295</ele>
        <time>2021-06-30T18:13:26Z</time>
      </trkpt>
      <trkpt lat="44.069550" lon="5.077624">
        <ele>122.31830</ele>
        <time>2021-06-30T18:13:27Z</time>
      </trkpt>
      <trkpt lat="44.069607" lon="5.077918">
        <ele>121.77496</ele>
        <time>2021-06-30T18:13:28Z</time>
      </trkpt>
      <trkpt lat="44.069664" lon="5.078208">
        <ele>121.89056</ele>
        <time>2021-06-30T18:13:29Z</time>
      </trkpt>
      <trkpt lat="44.069664" lon="5.078208">
        <ele>122.00562</ele>
        <time>2021-06-30T18:13:30Z</time>
      </trkpt>
      <trkpt lat="44.069717" lon="5.078507">
        <ele>122.63995</ele>
        <time>2021-06-30T18:13:31Z</time>
      </trkpt>
      <trkpt lat="44.069771" lon="5.078810">
        <ele>122.07898</ele>
        <time>2021-06-30T18:13:32Z</time>
      </trkpt>
      <trkpt lat="44.069828" lon="5.079062">
        <ele>122.08716</ele>
        <time>2021-06-30T18:13:33Z</time>
      </trkpt>
      <trkpt lat="44.069889" lon="5.079331">
        <ele>122.82861</ele>
        <time>2021-06-30T18:13:34Z</time>
      </trkpt>
      <trkpt lat="44.069962" lon="5.079547">
        <ele>121.96387</ele>
        <time>2021-06-30T18:13:35Z</time>
      </trkpt>
      <trkpt lat="44.070053" lon="5.079795">
        <ele>122.44061</ele>
        <time>2021-06-30T18:13:36Z</time>
      </trkpt>
      <trkpt lat="44.070152" lon="5.080037">
        <ele>122.41223</ele>
        <time>2021-06-30T18:13:37Z</time>
      </trkpt>
      <trkpt lat="44.070229" lon="5.080259">
        <ele>123.42651</ele>
        <time>2021-06-30T18:13:38Z</time>
      </trkpt>
      <trkpt lat="44.070286" lon="5.080427">
        <ele>123.36023</ele>
        <time>2021-06-30T18:13:39Z</time>
      </trkpt>
      <trkpt lat="44.070381" lon="5.080705">
        <ele>124.35535</ele>
        <time>2021-06-30T18:13:40Z</time>
      </trkpt>
      <trkpt lat="44.070469" lon="5.080902">
        <ele>125.43799</ele>
        <time>2021-06-30T18:13:41Z</time>
      </trkpt>
      <trkpt lat="44.070538" lon="5.081073">
        <ele>127.33197</ele>
        <time>2021-06-30T18:13:42Z</time>
      </trkpt>
      <trkpt lat="44.070435" lon="5.081491">
        <ele>126.08722</ele>
        <time>2021-06-30T18:13:43Z</time>
      </trkpt>
      <trkpt lat="44.070454" lon="5.081810">
        <ele>126.78271</ele>
        <time>2021-06-30T18:13:44Z</time>
      </trkpt>
      <trkpt lat="44.070488" lon="5.082169">
        <ele>126.58740</ele>
        <time>2021-06-30T18:13:45Z</time>
      </trkpt>
      <trkpt lat="44.070522" lon="5.082427">
        <ele>125.93695</ele>
        <time>2021-06-30T18:13:46Z</time>
      </trkpt>
      <trkpt lat="44.070564" lon="5.082764">
        <ele>125.47180</ele>
        <time>2021-06-30T18:13:47Z</time>
      </trkpt>
      <trkpt lat="44.070621" lon="5.083037">
        <ele>125.68970</ele>
        <time>2021-06-30T18:13:48Z</time>
      </trkpt>
      <trkpt lat="44.070621" lon="5.083037">
        <ele>125.53058</ele>
        <time>2021-06-30T18:13:49Z</time>
      </trkpt>
      <trkpt lat="44.070724" lon="5.083346">
        <ele>125.66846</ele>
        <time>2021-06-30T18:13:50Z</time>
      </trkpt>
      <trkpt lat="44.070835" lon="5.083607">
        <ele>125.52881</ele>
        <time>2021-06-30T18:13:51Z</time>
      </trkpt>
      <trkpt lat="44.070957" lon="5.083833">
        <ele>125.40137</ele>
        <time>2021-06-30T18:13:52Z</time>
      </trkpt>
      <trkpt lat="44.071106" lon="5.084061">
        <ele>124.79730</ele>
        <time>2021-06-30T18:13:53Z</time>
      </trkpt>
      <trkpt lat="44.071236" lon="5.084262">
        <ele>125.11755</ele>
        <time>2021-06-30T18:13:54Z</time>
      </trkpt>
      <trkpt lat="44.071365" lon="5.084457">
        <ele>125.55835</ele>
        <time>2021-06-30T18:13:55Z</time>
      </trkpt>
      <trkpt lat="44.071491" lon="5.084657">
        <ele>125.70154</ele>
        <time>2021-06-30T18:13:56Z</time>
      </trkpt>
      <trkpt lat="44.071629" lon="5.084865">
        <ele>126.28461</ele>
        <time>2021-06-30T18:13:57Z</time>
      </trkpt>
      <trkpt lat="44.071754" lon="5.085061">
        <ele>126.75928</ele>
        <time>2021-06-30T18:13:58Z</time>
      </trkpt>
      <trkpt lat="44.071896" lon="5.085277">
        <ele>126.22400</ele>
        <time>2021-06-30T18:13:59Z</time>
      </trkpt>
      <trkpt lat="44.072029" lon="5.085483">
        <ele>125.92932</ele>
        <time>2021-06-30T18:14:00Z</time>
      </trkpt>
      <trkpt lat="44.072163" lon="5.085675">
        <ele>125.72821</ele>
        <time>2021-06-30T18:14:01Z</time>
      </trkpt>
      <trkpt lat="44.072327" lon="5.085891">
        <ele>125.12762</ele>
        <time>2021-06-30T18:14:02Z</time>
      </trkpt>
      <trkpt lat="44.072475" lon="5.086093">
        <ele>124.79797</ele>
        <time>2021-06-30T18:14:03Z</time>
      </trkpt>
      <trkpt lat="44.072475" lon="5.086093">
        <ele>124.55029</ele>
        <time>2021-06-30T18:14:04Z</time>
      </trkpt>
      <trkpt lat="44.072659" lon="5.086315">
        <ele>124.72852</ele>
        <time>2021-06-30T18:14:05Z</time>
      </trkpt>
      <trkpt lat="44.072876" lon="5.086546">
        <ele>124.63031</ele>
        <time>2021-06-30T18:14:06Z</time>
      </trkpt>
      <trkpt lat="44.073059" lon="5.086738">
        <ele>124.62402</ele>
        <time>2021-06-30T18:14:07Z</time>
      </trkpt>
      <trkpt lat="44.073231" lon="5.086907">
        <ele>124.35840</ele>
        <time>2021-06-30T18:14:08Z</time>
      </trkpt>
      <trkpt lat="44.073448" lon="5.087101">
        <ele>124.74414</ele>
        <time>2021-06-30T18:14:09Z</time>
      </trkpt>
      <trkpt lat="44.073608" lon="5.087243">
        <ele>124.28406</ele>
        <time>2021-06-30T18:14:10Z</time>
      </trkpt>
      <trkpt lat="44.073803" lon="5.087400">
        <ele>125.16248</ele>
        <time>2021-06-30T18:14:11Z</time>
      </trkpt>
      <trkpt lat="44.073956" lon="5.087524">
        <ele>125.97852</ele>
        <time>2021-06-30T18:14:12Z</time>
      </trkpt>
      <trkpt lat="44.074139" lon="5.087682">
        <ele>126.24396</ele>
        <time>2021-06-30T18:14:13Z</time>
      </trkpt>
      <trkpt lat="44.074139" lon="5.087682">
        <ele>126.65448</ele>
        <time>2021-06-30T18:14:14Z</time>
      </trkpt>
      <trkpt lat="44.074265" lon="5.087826">
        <ele>126.92932</ele>
        <time>2021-06-30T18:14:15Z</time>
      </trkpt>
      <trkpt lat="44.074402" lon="5.087987">
        <ele>127.21509</ele>
        <time>2021-06-30T18:14:16Z</time>
      </trkpt>
      <trkpt lat="44.074543" lon="5.088197">
        <ele>128.64429</ele>
        <time>2021-06-30T18:14:17Z</time>
      </trkpt>
      <trkpt lat="44.074654" lon="5.088452">
        <ele>128.73743</ele>
        <time>2021-06-30T18:14:18Z</time>
      </trkpt>
      <trkpt lat="44.074799" lon="5.088784">
        <ele>128.85620</ele>
        <time>2021-06-30T18:14:19Z</time>
      </trkpt>
      <trkpt lat="44.074905" lon="5.089037">
        <ele>129.28564</ele>
        <time>2021-06-30T18:14:20Z</time>
      </trkpt>
      <trkpt lat="44.075001" lon="5.089266">
        <ele>128.70587</ele>
        <time>2021-06-30T18:14:21Z</time>
      </trkpt>
      <trkpt lat="44.075096" lon="5.089541">
        <ele>129.20776</ele>
        <time>2021-06-30T18:14:22Z</time>
      </trkpt>
      <trkpt lat="44.075188" lon="5.089837">
        <ele>129.90094</ele>
        <time>2021-06-30T18:14:23Z</time>
      </trkpt>
      <trkpt lat="44.075268" lon="5.090108">
        <ele>130.31720</ele>
        <time>2021-06-30T18:14:24Z</time>
      </trkpt>
      <trkpt lat="44.075359" lon="5.090406">
        <ele>131.19226</ele>
        <time>2021-06-30T18:14:25Z</time>
      </trkpt>
      <trkpt lat="44.075439" lon="5.090659">
        <ele>131.92255</ele>
        <time>2021-06-30T18:14:26Z</time>
      </trkpt>
      <trkpt lat="44.075527" lon="5.090931">
        <ele>132.20856</ele>
        <time>2021-06-30T18:14:27Z</time>
      </trkpt>
      <trkpt lat="44.075619" lon="5.091209">
        <ele>133.35632</ele>
        <time>2021-06-30T18:14:28Z</time>
      </trkpt>
      <trkpt lat="44.075619" lon="5.091209">
        <ele>134.86194</ele>
        <time>2021-06-30T18:14:29Z</time>
      </trkpt>
      <trkpt lat="44.075729" lon="5.091531">
        <ele>135.45929</ele>
        <time>2021-06-30T18:14:30Z</time>
      </trkpt>
      <trkpt lat="44.075829" lon="5.091849">
        <ele>135.69507</ele>
        <time>2021-06-30T18:14:31Z</time>
      </trkpt>
      <trkpt lat="44.075905" lon="5.092114">
        <ele>136.10712</ele>
        <time>2021-06-30T18:14:32Z</time>
      </trkpt>
      <trkpt lat="44.075977" lon="5.092385">
        <ele>136.39160</ele>
        <time>2021-06-30T18:14:33Z</time>
      </trkpt>
      <trkpt lat="44.076077" lon="5.092676">
        <ele>136.59747</ele>
        <time>2021-06-30T18:14:34Z</time>
      </trkpt>
      <trkpt lat="44.076183" lon="5.092978">
        <ele>136.88843</ele>
        <time>2021-06-30T18:14:35Z</time>
      </trkpt>
      <trkpt lat="44.076321" lon="5.093342">
        <ele>136.78284</ele>
        <time>2021-06-30T18:14:36Z</time>
      </trkpt>
      <trkpt lat="44.076454" lon="5.093652">
        <ele>137.18738</ele>
        <time>2021-06-30T18:14:37Z</time>
      </trkpt>
      <trkpt lat="44.076595" lon="5.093961">
        <ele>137.81201</ele>
        <time>2021-06-30T18:14:38Z</time>
      </trkpt>
      <trkpt lat="44.076694" lon="5.094160">
        <ele>138.79248</ele>
        <time>2021-06-30T18:14:39Z</time>
      </trkpt>
      <trkpt lat="44.076824" lon="5.094420">
        <ele>138.58929</ele>
        <time>2021-06-30T18:14:40Z</time>
      </trkpt>
      <trkpt lat="44.076824" lon="5.094420">
        <ele>138.87091</ele>
        <time>2021-06-30T18:14:41Z</time>
      </trkpt>
      <trkpt lat="44.076969" lon="5.094737">
        <ele>138.83655</ele>
        <time>2021-06-30T18:14:42Z</time>
      </trkpt>
      <trkpt lat="44.077084" lon="5.095002">
        <ele>139.51715</ele>
        <time>2021-06-30T18:14:43Z</time>
      </trkpt>
      <trkpt lat="44.077209" lon="5.095321">
        <ele>140.00714</ele>
        <time>2021-06-30T18:14:44Z</time>
      </trkpt>
      <trkpt lat="44.077320" lon="5.095652">
        <ele>140.63855</ele>
        <time>2021-06-30T18:14:45Z</time>
      </trkpt>
      <trkpt lat="44.077396" lon="5.095947">
        <ele>141.60321</ele>
        <time>2021-06-30T18:14:46Z</time>
      </trkpt>
      <trkpt lat="44.077488" lon="5.096291">
        <ele>142.02368</ele>
        <time>2021-06-30T18:14:47Z</time>
      </trkpt>
      <trkpt lat="44.077576" lon="5.096630">
        <ele>142.71918</ele>
        <time>2021-06-30T18:14:48Z</time>
      </trkpt>
      <trkpt lat="44.077644" lon="5.096955">
        <ele>143.22198</ele>
        <time>2021-06-30T18:14:49Z</time>
      </trkpt>
      <trkpt lat="44.077709" lon="5.097260">
        <ele>143.61310</ele>
        <time>2021-06-30T18:14:50Z</time>
      </trkpt>
      <trkpt lat="44.077778" lon="5.097581">
        <ele>142.84802</ele>
        <time>2021-06-30T18:14:51Z</time>
      </trkpt>
      <trkpt lat="44.077778" lon="5.097581">
        <ele>142.55341</ele>
        <time>2021-06-30T18:14:52Z</time>
      </trkpt>
      <trkpt lat="44.077847" lon="5.097893">
        <ele>143.29199</ele>
        <time>2021-06-30T18:14:53Z</time>
      </trkpt>
      <trkpt lat="44.077927" lon="5.098261">
        <ele>143.77283</ele>
        <time>2021-06-30T18:14:54Z</time>
      </trkpt>
      <trkpt lat="44.077995" lon="5.098575">
        <ele>144.16101</ele>
        <time>2021-06-30T18:14:55Z</time>
      </trkpt>
      <trkpt lat="44.078083" lon="5.098916">
        <ele>144.74463</ele>
        <time>2021-06-30T18:14:56Z</time>
      </trkpt>
      <trkpt lat="44.078163" lon="5.099190">
        <ele>145.18042</ele>
        <time>2021-06-30T18:14:57Z</time>
      </trkpt>
      <trkpt lat="44.078278" lon="5.099542">
        <ele>145.75592</ele>
        <time>2021-06-30T18:14:58Z</time>
      </trkpt>
      <trkpt lat="44.078403" lon="5.099851">
        <ele>145.86371</ele>
        <time>2021-06-30T18:14:59Z</time>
      </trkpt>
      <trkpt lat="44.078537" lon="5.100154">
        <ele>146.10071</ele>
        <time>2021-06-30T18:15:00Z</time>
      </trkpt>
      <trkpt lat="44.078655" lon="5.100417">
        <ele>147.21899</ele>
        <time>2021-06-30T18:15:01Z</time>
      </trkpt>
      <trkpt lat="44.078777" lon="5.100680">
        <ele>147.62823</ele>
        <time>2021-06-30T18:15:02Z</time>
      </trkpt>
      <trkpt lat="44.078777" lon="5.100680">
        <ele>147.73950</ele>
        <time>2021-06-30T18:15:03Z</time>
      </trkpt>
      <trkpt lat="44.078892" lon="5.100934">
        <ele>147.06940</ele>
        <time>2021-06-30T18:15:04Z</time>
      </trkpt>
      <trkpt lat="44.078987" lon="5.101170">
        <ele>147.92548</ele>
        <time>2021-06-30T18:15:05Z</time>
      </trkpt>
      <trkpt lat="44.079082" lon="5.101450">
        <ele>148.02087</ele>
        <time>2021-06-30T18:15:06Z</time>
      </trkpt>
      <trkpt lat="44.079182" lon="5.101730">
        <ele>147.75757</ele>
        <time>2021-06-30T18:15:07Z</time>
      </trkpt>
      <trkpt lat="44.079281" lon="5.102020">
        <ele>148.10266</ele>
        <time>2021-06-30T18:15:08Z</time>
      </trkpt>
      <trkpt lat="44.079372" lon="5.102318">
        <ele>148.56274</ele>
        <time>2021-06-30T18:15:09Z</time>
      </trkpt>
      <trkpt lat="44.079464" lon="5.102621">
        <ele>149.94177</ele>
        <time>2021-06-30T18:15:10Z</time>
      </trkpt>
      <trkpt lat="44.079552" lon="5.102908">
        <ele>150.16565</ele>
        <time>2021-06-30T18:15:11Z</time>
      </trkpt>
      <trkpt lat="44.079639" lon="5.103210">
        <ele>150.03125</ele>
        <time>2021-06-30T18:15:12Z</time>
      </trkpt>
      <trkpt lat="44.079742" lon="5.103540">
        <ele>151.37836</ele>
        <time>2021-06-30T18:15:13Z</time>
      </trkpt>
      <trkpt lat="44.079842" lon="5.103874">
        <ele>150.52142</ele>
        <time>2021-06-30T18:15:14Z</time>
      </trkpt>
      <trkpt lat="44.079994" lon="5.104258">
        <ele>150.91223</ele>
        <time>2021-06-30T18:15:15Z</time>
      </trkpt>
      <trkpt lat="44.080166" lon="5.104680">
        <ele>150.45630</ele>
        <time>2021-06-30T18:15:16Z</time>
      </trkpt>
      <trkpt lat="44.080326" lon="5.105076">
        <ele>150.68604</ele>
        <time>2021-06-30T18:15:17Z</time>
      </trkpt>
      <trkpt lat="44.080326" lon="5.105076">
        <ele>150.67480</ele>
        <time>2021-06-30T18:15:18Z</time>
      </trkpt>
      <trkpt lat="44.080486" lon="5.105504">
        <ele>150.98840</ele>
        <time>2021-06-30T18:15:19Z</time>
      </trkpt>
      <trkpt lat="44.080631" lon="5.105904">
        <ele>151.54700</ele>
        <time>2021-06-30T18:15:20Z</time>
      </trkpt>
      <trkpt lat="44.080776" lon="5.106305">
        <ele>152.17529</ele>
        <time>2021-06-30T18:15:21Z</time>
      </trkpt>
      <trkpt lat="44.080910" lon="5.106649">
        <ele>153.03497</ele>
        <time>2021-06-30T18:15:22Z</time>
      </trkpt>
      <trkpt lat="44.081074" lon="5.107013">
        <ele>153.55481</ele>
        <time>2021-06-30T18:15:23Z</time>
      </trkpt>
      <trkpt lat="44.081261" lon="5.107362">
        <ele>153.74817</ele>
        <time>2021-06-30T18:15:24Z</time>
      </trkpt>
      <trkpt lat="44.081470" lon="5.107675">
        <ele>153.13611</ele>
        <time>2021-06-30T18:15:25Z</time>
      </trkpt>
      <trkpt lat="44.081757" lon="5.108096">
        <ele>154.50610</ele>
        <time>2021-06-30T18:15:26Z</time>
      </trkpt>
      <trkpt lat="44.082001" lon="5.108477">
        <ele>155.78644</ele>
        <time>2021-06-30T18:15:27Z</time>
      </trkpt>
      <trkpt lat="44.082169" lon="5.108741">
        <ele>156.39752</ele>
        <time>2021-06-30T18:15:28Z</time>
      </trkpt>
      <trkpt lat="44.082390" lon="5.109087">
        <ele>156.90076</ele>
        <time>2021-06-30T18:15:29Z</time>
      </trkpt>
      <trkpt lat="44.082390" lon="5.109087">
        <ele>156.75281</ele>
        <time>2021-06-30T18:15:30Z</time>
      </trkpt>
      <trkpt lat="44.082581" lon="5.109385">
        <ele>157.43909</ele>
        <time>2021-06-30T18:15:31Z</time>
      </trkpt>
      <trkpt lat="44.082729" lon="5.109668">
        <ele>157.47290</ele>
        <time>2021-06-30T18:15:32Z</time>
      </trkpt>
      <trkpt lat="44.082882" lon="5.110023">
        <ele>158.06299</ele>
        <time>2021-06-30T18:15:33Z</time>
      </trkpt>
      <trkpt lat="44.082996" lon="5.110415">
        <ele>158.54199</ele>
        <time>2021-06-30T18:15:34Z</time>
      </trkpt>
      <trkpt lat="44.083107" lon="5.110808">
        <ele>159.08002</ele>
        <time>2021-06-30T18:15:35Z</time>
      </trkpt>
      <trkpt lat="44.083218" lon="5.111243">
        <ele>159.92242</ele>
        <time>2021-06-30T18:15:36Z</time>
      </trkpt>
      <trkpt lat="44.083313" lon="5.111647">
        <ele>160.46564</ele>
        <time>2021-06-30T18:15:37Z</time>
      </trkpt>
      <trkpt lat="44.083412" lon="5.112061">
        <ele>160.41479</ele>
        <time>2021-06-30T18:15:38Z</time>
      </trkpt>
      <trkpt lat="44.083530" lon="5.112537">
        <ele>160.41455</ele>
        <time>2021-06-30T18:15:39Z</time>
      </trkpt>
      <trkpt lat="44.083637" lon="5.112957">
        <ele>160.53326</ele>
        <time>2021-06-30T18:15:40Z</time>
      </trkpt>
      <trkpt lat="44.083733" lon="5.113351">
        <ele>161.19122</ele>
        <time>2021-06-30T18:15:41Z</time>
      </trkpt>
      <trkpt lat="44.083813" lon="5.113690">
        <ele>160.64954</ele>
        <time>2021-06-30T18:15:42Z</time>
      </trkpt>
      <trkpt lat="44.083897" lon="5.114019">
        <ele>160.32544</ele>
        <time>2021-06-30T18:15:43Z</time>
      </trkpt>
      <trkpt lat="44.083981" lon="5.114368">
        <ele>160.65607</ele>
        <time>2021-06-30T18:15:44Z</time>
      </trkpt>
      <trkpt lat="44.084034" lon="5.114586">
        <ele>161.29529</ele>
        <time>2021-06-30T18:15:45Z</time>
      </trkpt>
      <trkpt lat="44.084087" lon="5.114810">
        <ele>161.03394</ele>
        <time>2021-06-30T18:15:46Z</time>
      </trkpt>
      <trkpt lat="44.084087" lon="5.114810">
        <ele>162.44604</ele>
        <time>2021-06-30T18:15:47Z</time>
      </trkpt>
      <trkpt lat="44.084148" lon="5.115063">
        <ele>162.71313</ele>
        <time>2021-06-30T18:15:48Z</time>
      </trkpt>
      <trkpt lat="44.084198" lon="5.115274">
        <ele>163.42395</ele>
        <time>2021-06-30T18:15:49Z</time>
      </trkpt>
      <trkpt lat="44.084240" lon="5.115447">
        <ele>164.44171</ele>
        <time>2021-06-30T18:15:50Z</time>
      </trkpt>
      <trkpt lat="44.084270" lon="5.115567">
        <ele>164.52466</ele>
        <time>2021-06-30T18:15:51Z</time>
      </trkpt>
      <trkpt lat="44.084305" lon="5.115712">
        <ele>164.14435</ele>
        <time>2021-06-30T18:15:52Z</time>
      </trkpt>
      <trkpt lat="44.084335" lon="5.115837">
        <ele>164.17310</ele>
        <time>2021-06-30T18:15:53Z</time>
      </trkpt>
      <trkpt lat="44.084316" lon="5.115918">
        <ele>164.89050</ele>
        <time>2021-06-30T18:15:54Z</time>
      </trkpt>
      <trkpt lat="44.084278" lon="5.116001">
        <ele>165.67017</ele>
        <time>2021-06-30T18:15:55Z</time>
      </trkpt>
      <trkpt lat="44.084301" lon="5.116152">
        <ele>165.75201</ele>
        <time>2021-06-30T18:15:56Z</time>
      </trkpt>
      <trkpt lat="44.084366" lon="5.116210">
        <ele>165.43243</ele>
        <time>2021-06-30T18:15:57Z</time>
      </trkpt>
      <trkpt lat="44.084473" lon="5.116394">
        <ele>166.02942</ele>
        <time>2021-06-30T18:15:58Z</time>
      </trkpt>
      <trkpt lat="44.084530" lon="5.116610">
        <ele>166.74646</ele>
        <time>2021-06-30T18:15:59Z</time>
      </trkpt>
      <trkpt lat="44.084614" lon="5.116940">
        <ele>166.95929</ele>
        <time>2021-06-30T18:16:00Z</time>
      </trkpt>
      <trkpt lat="44.084614" lon="5.116940">
        <ele>167.79846</ele>
        <time>2021-06-30T18:16:01Z</time>
      </trkpt>
      <trkpt lat="44.084724" lon="5.117377">
        <ele>167.89319</ele>
        <time>2021-06-30T18:16:02Z</time>
      </trkpt>
      <trkpt lat="44.084831" lon="5.117804">
        <ele>168.17511</ele>
        <time>2021-06-30T18:16:03Z</time>
      </trkpt>
      <trkpt lat="44.084923" lon="5.118176">
        <ele>169.07507</ele>
        <time>2021-06-30T18:16:04Z</time>
      </trkpt>
      <trkpt lat="44.085026" lon="5.118580">
        <ele>170.01892</ele>
        <time>2021-06-30T18:16:05Z</time>
      </trkpt>
      <trkpt lat="44.085117" lon="5.118963">
        <ele>171.53967</ele>
        <time>2021-06-30T18:16:06Z</time>
      </trkpt>
      <trkpt lat="44.085258" lon="5.119330">
        <ele>172.26160</ele>
        <time>2021-06-30T18:16:07Z</time>
      </trkpt>
      <trkpt lat="44.085419" lon="5.119685">
        <ele>173.13171</ele>
        <time>2021-06-30T18:16:08Z</time>
      </trkpt>
      <trkpt lat="44.085617" lon="5.120101">
        <ele>173.23651</ele>
        <time>2021-06-30T18:16:09Z</time>
      </trkpt>
      <trkpt lat="44.085785" lon="5.120443">
        <ele>173.35864</ele>
        <time>2021-06-30T18:16:10Z</time>
      </trkpt>
      <trkpt lat="44.085949" lon="5.120772">
        <ele>173.40704</ele>
        <time>2021-06-30T18:16:11Z</time>
      </trkpt>
      <trkpt lat="44.086109" lon="5.121056">
        <ele>173.54456</ele>
        <time>2021-06-30T18:16:12Z</time>
      </trkpt>
      <trkpt lat="44.086304" lon="5.121401">
        <ele>174.20245</ele>
        <time>2021-06-30T18:16:13Z</time>
      </trkpt>
      <trkpt lat="44.086304" lon="5.121401">
        <ele>174.03412</ele>
        <time>2021-06-30T18:16:14Z</time>
      </trkpt>
      <trkpt lat="44.086525" lon="5.121760">
        <ele>174.70190</ele>
        <time>2021-06-30T18:16:15Z</time>
      </trkpt>
      <trkpt lat="44.086754" lon="5.122021">
        <ele>174.81970</ele>
        <time>2021-06-30T18:16:16Z</time>
      </trkpt>
      <trkpt lat="44.086952" lon="5.122344">
        <ele>175.39392</ele>
        <time>2021-06-30T18:16:17Z</time>
      </trkpt>
      <trkpt lat="44.087177" lon="5.122677">
        <ele>176.09210</ele>
        <time>2021-06-30T18:16:18Z</time>
      </trkpt>
      <trkpt lat="44.087406" lon="5.123022">
        <ele>177.07104</ele>
        <time>2021-06-30T18:16:19Z</time>
      </trkpt>
      <trkpt lat="44.087597" lon="5.123319">
        <ele>177.91931</ele>
        <time>2021-06-30T18:16:20Z</time>
      </trkpt>
      <trkpt lat="44.087795" lon="5.123690">
        <ele>178.93103</ele>
        <time>2021-06-30T18:16:21Z</time>
      </trkpt>
      <trkpt lat="44.087994" lon="5.124074">
        <ele>179.91870</ele>
        <time>2021-06-30T18:16:22Z</time>
      </trkpt>
      <trkpt lat="44.088150" lon="5.124381">
        <ele>180.61029</ele>
        <time>2021-06-30T18:16:23Z</time>
      </trkpt>
      <trkpt lat="44.088310" lon="5.124698">
        <ele>181.34467</ele>
        <time>2021-06-30T18:16:24Z</time>
      </trkpt>
      <trkpt lat="44.088470" lon="5.124954">
        <ele>181.73969</ele>
        <time>2021-06-30T18:16:25Z</time>
      </trkpt>
      <trkpt lat="44.088470" lon="5.124954">
        <ele>182.56738</ele>
        <time>2021-06-30T18:16:26Z</time>
      </trkpt>
      <trkpt lat="44.088634" lon="5.125205">
        <ele>183.51392</ele>
        <time>2021-06-30T18:16:27Z</time>
      </trkpt>
      <trkpt lat="44.088787" lon="5.125403">
        <ele>184.35687</ele>
        <time>2021-06-30T18:16:28Z</time>
      </trkpt>
      <trkpt lat="44.089012" lon="5.125622">
        <ele>185.12640</ele>
        <time>2021-06-30T18:16:29Z</time>
      </trkpt>
      <trkpt lat="44.089218" lon="5.125837">
        <ele>186.37811</ele>
        <time>2021-06-30T18:16:30Z</time>
      </trkpt>
      <trkpt lat="44.089470" lon="5.126104">
        <ele>187.69659</ele>
        <time>2021-06-30T18:16:31Z</time>
      </trkpt>
      <trkpt lat="44.089699" lon="5.126349">
        <ele>187.63464</ele>
        <time>2021-06-30T18:16:32Z</time>
      </trkpt>
      <trkpt lat="44.089912" lon="5.126624">
        <ele>187.48798</ele>
        <time>2021-06-30T18:16:33Z</time>
      </trkpt>
      <trkpt lat="44.090111" lon="5.126908">
        <ele>187.58038</ele>
        <time>2021-06-30T18:16:34Z</time>
      </trkpt>
      <trkpt lat="44.090305" lon="5.127185">
        <ele>187.57190</ele>
        <time>2021-06-30T18:16:35Z</time>
      </trkpt>
      <trkpt lat="44.090488" lon="5.127447">
        <ele>188.52344</ele>
        <time>2021-06-30T18:16:36Z</time>
      </trkpt>
      <trkpt lat="44.090488" lon="5.127447">
        <ele>188.95374</ele>
        <time>2021-06-30T18:16:37Z</time>
      </trkpt>
      <trkpt lat="44.090672" lon="5.127711">
        <ele>189.67883</ele>
        <time>2021-06-30T18:16:38Z</time>
      </trkpt>
      <trkpt lat="44.090858" lon="5.127994">
        <ele>189.53693</ele>
        <time>2021-06-30T18:16:39Z</time>
      </trkpt>
      <trkpt lat="44.091000" lon="5.128208">
        <ele>190.30237</ele>
        <time>2021-06-30T18:16:40Z</time>
      </trkpt>
      <trkpt lat="44.091133" lon="5.128421">
        <ele>188.95691</ele>
        <time>2021-06-30T18:16:41Z</time>
      </trkpt>
      <trkpt lat="44.091251" lon="5.128611">
        <ele>188.83990</ele>
        <time>2021-06-30T18:16:42Z</time>
      </trkpt>
      <trkpt lat="44.091400" lon="5.128853">
        <ele>189.07794</ele>
        <time>2021-06-30T18:16:43Z</time>
      </trkpt>
      <trkpt lat="44.091545" lon="5.129091">
        <ele>188.43933</ele>
        <time>2021-06-30T18:16:44Z</time>
      </trkpt>
      <trkpt lat="44.091686" lon="5.129317">
        <ele>188.26160</ele>
        <time>2021-06-30T18:16:45Z</time>
      </trkpt>
      <trkpt lat="44.091808" lon="5.129521">
        <ele>188.44672</ele>
        <time>2021-06-30T18:16:46Z</time>
      </trkpt>
      <trkpt lat="44.091808" lon="5.129521">
        <ele>188.80585</ele>
        <time>2021-06-30T18:16:47Z</time>
      </trkpt>
      <trkpt lat="44.091919" lon="5.129699">
        <ele>189.16510</ele>
        <time>2021-06-30T18:16:48Z</time>
      </trkpt>
      <trkpt lat="44.092026" lon="5.129864">
        <ele>189.45972</ele>
        <time>2021-06-30T18:16:49Z</time>
      </trkpt>
      <trkpt lat="44.092117" lon="5.129996">
        <ele>189.89734</ele>
        <time>2021-06-30T18:16:50Z</time>
      </trkpt>
      <trkpt lat="44.092201" lon="5.130145">
        <ele>190.14844</ele>
        <time>2021-06-30T18:16:51Z</time>
      </trkpt>
      <trkpt lat="44.092308" lon="5.130301">
        <ele>190.06085</ele>
        <time>2021-06-30T18:16:52Z</time>
      </trkpt>
      <trkpt lat="44.092434" lon="5.130494">
        <ele>190.16937</ele>
        <time>2021-06-30T18:16:53Z</time>
      </trkpt>
      <trkpt lat="44.092545" lon="5.130694">
        <ele>190.12964</ele>
        <time>2021-06-30T18:16:54Z</time>
      </trkpt>
      <trkpt lat="44.092651" lon="5.130905">
        <ele>190.07886</ele>
        <time>2021-06-30T18:16:55Z</time>
      </trkpt>
      <trkpt lat="44.092751" lon="5.131180">
        <ele>190.50067</ele>
        <time>2021-06-30T18:16:56Z</time>
      </trkpt>
      <trkpt lat="44.092838" lon="5.131480">
        <ele>190.38318</ele>
        <time>2021-06-30T18:16:57Z</time>
      </trkpt>
      <trkpt lat="44.092838" lon="5.131480">
        <ele>190.43311</ele>
        <time>2021-06-30T18:16:58Z</time>
      </trkpt>
      <trkpt lat="44.092922" lon="5.131822">
        <ele>190.90808</ele>
        <time>2021-06-30T18:16:59Z</time>
      </trkpt>
      <trkpt lat="44.092987" lon="5.132116">
        <ele>190.99121</ele>
        <time>2021-06-30T18:17:00Z</time>
      </trkpt>
      <trkpt lat="44.093056" lon="5.132429">
        <ele>191.59534</ele>
        <time>2021-06-30T18:17:01Z</time>
      </trkpt>
      <trkpt lat="44.093117" lon="5.132739">
        <ele>191.71082</ele>
        <time>2021-06-30T18:17:02Z</time>
      </trkpt>
      <trkpt lat="44.093193" lon="5.133022">
        <ele>192.08710</ele>
        <time>2021-06-30T18:17:03Z</time>
      </trkpt>
      <trkpt lat="44.093281" lon="5.133262">
        <ele>192.20178</ele>
        <time>2021-06-30T18:17:04Z</time>
      </trkpt>
      <trkpt lat="44.093357" lon="5.133481">
        <ele>192.51257</ele>
        <time>2021-06-30T18:17:05Z</time>
      </trkpt>
      <trkpt lat="44.093437" lon="5.133711">
        <ele>192.77258</ele>
        <time>2021-06-30T18:17:06Z</time>
      </trkpt>
      <trkpt lat="44.093521" lon="5.133932">
        <ele>193.06866</ele>
        <time>2021-06-30T18:17:07Z</time>
      </trkpt>
      <trkpt lat="44.093620" lon="5.134194">
        <ele>193.53632</ele>
        <time>2021-06-30T18:17:08Z</time>
      </trkpt>
      <trkpt lat="44.093704" lon="5.134420">
        <ele>194.15826</ele>
        <time>2021-06-30T18:17:09Z</time>
      </trkpt>
      <trkpt lat="44.093704" lon="5.134420">
        <ele>194.41309</ele>
        <time>2021-06-30T18:17:10Z</time>
      </trkpt>
      <trkpt lat="44.093777" lon="5.134660">
        <ele>195.11047</ele>
        <time>2021-06-30T18:17:11Z</time>
      </trkpt>
      <trkpt lat="44.093845" lon="5.134898">
        <ele>195.63757</ele>
        <time>2021-06-30T18:17:12Z</time>
      </trkpt>
      <trkpt lat="44.093914" lon="5.135147">
        <ele>195.53052</ele>
        <time>2021-06-30T18:17:13Z</time>
      </trkpt>
      <trkpt lat="44.093979" lon="5.135440">
        <ele>195.87286</ele>
        <time>2021-06-30T18:17:14Z</time>
      </trkpt>
      <trkpt lat="44.094036" lon="5.135759">
        <ele>196.38336</ele>
        <time>2021-06-30T18:17:15Z</time>
      </trkpt>
      <trkpt lat="44.094086" lon="5.136090">
        <ele>196.80029</ele>
        <time>2021-06-30T18:17:16Z</time>
      </trkpt>
      <trkpt lat="44.094120" lon="5.136341">
        <ele>197.97125</ele>
        <time>2021-06-30T18:17:17Z</time>
      </trkpt>
      <trkpt lat="44.094162" lon="5.136584">
        <ele>197.94128</ele>
        <time>2021-06-30T18:17:18Z</time>
      </trkpt>
      <trkpt lat="44.094223" lon="5.136872">
        <ele>199.09619</ele>
        <time>2021-06-30T18:17:19Z</time>
      </trkpt>
      <trkpt lat="44.094296" lon="5.137112">
        <ele>199.17767</ele>
        <time>2021-06-30T18:17:20Z</time>
      </trkpt>
      <trkpt lat="44.094383" lon="5.137343">
        <ele>199.84021</ele>
        <time>2021-06-30T18:17:21Z</time>
      </trkpt>
      <trkpt lat="44.094486" lon="5.137607">
        <ele>200.27271</ele>
        <time>2021-06-30T18:17:22Z</time>
      </trkpt>
      <trkpt lat="44.094570" lon="5.137789">
        <ele>200.02881</ele>
        <time>2021-06-30T18:17:23Z</time>
      </trkpt>
      <trkpt lat="44.094654" lon="5.137975">
        <ele>200.56036</ele>
        <time>2021-06-30T18:17:24Z</time>
      </trkpt>
      <trkpt lat="44.094654" lon="5.137975">
        <ele>200.76038</ele>
        <time>2021-06-30T18:17:25Z</time>
      </trkpt>
      <trkpt lat="44.094753" lon="5.138214">
        <ele>201.01373</ele>
        <time>2021-06-30T18:17:26Z</time>
      </trkpt>
      <trkpt lat="44.094856" lon="5.138469">
        <ele>200.89978</ele>
        <time>2021-06-30T18:17:27Z</time>
      </trkpt>
      <trkpt lat="44.094959" lon="5.138715">
        <ele>200.10541</ele>
        <time>2021-06-30T18:17:28Z</time>
      </trkpt>
      <trkpt lat="44.095055" lon="5.138946">
        <ele>200.63727</ele>
        <time>2021-06-30T18:17:29Z</time>
      </trkpt>
      <trkpt lat="44.095150" lon="5.139170">
        <ele>200.19446</ele>
        <time>2021-06-30T18:17:30Z</time>
      </trkpt>
      <trkpt lat="44.095234" lon="5.139359">
        <ele>199.51276</ele>
        <time>2021-06-30T18:17:31Z</time>
      </trkpt>
      <trkpt lat="44.095329" lon="5.139574">
        <ele>200.11462</ele>
        <time>2021-06-30T18:17:32Z</time>
      </trkpt>
      <trkpt lat="44.095413" lon="5.139783">
        <ele>199.88489</ele>
        <time>2021-06-30T18:17:33Z</time>
      </trkpt>
      <trkpt lat="44.095493" lon="5.139971">
        <ele>199.97937</ele>
        <time>2021-06-30T18:17:34Z</time>
      </trkpt>
      <trkpt lat="44.095585" lon="5.140184">
        <ele>199.50586</ele>
        <time>2021-06-30T18:17:35Z</time>
      </trkpt>
      <trkpt lat="44.095657" lon="5.140359">
        <ele>199.76782</ele>
        <time>2021-06-30T18:17:36Z</time>
      </trkpt>
      <trkpt lat="44.095715" lon="5.140490">
        <ele>200.36768</ele>
        <time>2021-06-30T18:17:37Z</time>
      </trkpt>
      <trkpt lat="44.095787" lon="5.140633">
        <ele>199.95325</ele>
        <time>2021-06-30T18:17:38Z</time>
      </trkpt>
      <trkpt lat="44.095787" lon="5.140633">
        <ele>200.39087</ele>
        <time>2021-06-30T18:17:39Z</time>
      </trkpt>
      <trkpt lat="44.095856" lon="5.140756">
        <ele>200.50049</ele>
        <time>2021-06-30T18:17:40Z</time>
      </trkpt>
      <trkpt lat="44.095913" lon="5.140855">
        <ele>200.41907</ele>
        <time>2021-06-30T18:17:41Z</time>
      </trkpt>
      <trkpt lat="44.095955" lon="5.140942">
        <ele>199.94293</ele>
        <time>2021-06-30T18:17:42Z</time>
      </trkpt>
      <trkpt lat="44.096020" lon="5.141080">
        <ele>200.75745</ele>
        <time>2021-06-30T18:17:43Z</time>
      </trkpt>
      <trkpt lat="44.096077" lon="5.141209">
        <ele>200.76440</ele>
        <time>2021-06-30T18:17:44Z</time>
      </trkpt>
      <trkpt lat="44.096081" lon="5.141300">
        <ele>200.54419</ele>
        <time>2021-06-30T18:17:45Z</time>
      </trkpt>
      <trkpt lat="44.096134" lon="5.141407">
        <ele>201.33228</ele>
        <time>2021-06-30T18:17:46Z</time>
      </trkpt>
      <trkpt lat="44.096195" lon="5.141461">
        <ele>201.51526</ele>
        <time>2021-06-30T18:17:47Z</time>
      </trkpt>
      <trkpt lat="44.096313" lon="5.141457">
        <ele>201.86157</ele>
        <time>2021-06-30T18:17:48Z</time>
      </trkpt>
      <trkpt lat="44.096313" lon="5.141457">
        <ele>201.39539</ele>
        <time>2021-06-30T18:17:49Z</time>
      </trkpt>
      <trkpt lat="44.096371" lon="5.141416">
        <ele>200.72589</ele>
        <time>2021-06-30T18:17:50Z</time>
      </trkpt>
      <trkpt lat="44.096500" lon="5.141455">
        <ele>201.00208</ele>
        <time>2021-06-30T18:17:51Z</time>
      </trkpt>
      <trkpt lat="44.096638" lon="5.141499">
        <ele>200.97070</ele>
        <time>2021-06-30T18:17:52Z</time>
      </trkpt>
      <trkpt lat="44.096737" lon="5.141642">
        <ele>200.99530</ele>
        <time>2021-06-30T18:17:53Z</time>
      </trkpt>
      <trkpt lat="44.096840" lon="5.141789">
        <ele>201.12158</ele>
        <time>2021-06-30T18:17:54Z</time>
      </trkpt>
      <trkpt lat="44.096966" lon="5.141946">
        <ele>201.70099</ele>
        <time>2021-06-30T18:17:55Z</time>
      </trkpt>
      <trkpt lat="44.097084" lon="5.142064">
        <ele>201.94342</ele>
        <time>2021-06-30T18:17:56Z</time>
      </trkpt>
      <trkpt lat="44.097221" lon="5.142189">
        <ele>202.28284</ele>
        <time>2021-06-30T18:17:57Z</time>
      </trkpt>
      <trkpt lat="44.097378" lon="5.142272">
        <ele>203.43500</ele>
        <time>2021-06-30T18:17:58Z</time>
      </trkpt>
      <trkpt lat="44.097527" lon="5.142319">
        <ele>204.68347</ele>
        <time>2021-06-30T18:17:59Z</time>
      </trkpt>
      <trkpt lat="44.097698" lon="5.142325">
        <ele>204.95990</ele>
        <time>2021-06-30T18:18:00Z</time>
      </trkpt>
      <trkpt lat="44.097889" lon="5.142342">
        <ele>205.87402</ele>
        <time>2021-06-30T18:18:01Z</time>
      </trkpt>
      <trkpt lat="44.098064" lon="5.142358">
        <ele>206.73688</ele>
        <time>2021-06-30T18:18:02Z</time>
      </trkpt>
      <trkpt lat="44.098213" lon="5.142372">
        <ele>208.18182</ele>
        <time>2021-06-30T18:18:03Z</time>
      </trkpt>
      <trkpt lat="44.098377" lon="5.142392">
        <ele>208.35040</ele>
        <time>2021-06-30T18:18:04Z</time>
      </trkpt>
      <trkpt lat="44.098377" lon="5.142392">
        <ele>208.89355</ele>
        <time>2021-06-30T18:18:05Z</time>
      </trkpt>
      <trkpt lat="44.098553" lon="5.142413">
        <ele>209.94531</ele>
        <time>2021-06-30T18:18:06Z</time>
      </trkpt>
      <trkpt lat="44.098724" lon="5.142443">
        <ele>209.79419</ele>
        <time>2021-06-30T18:18:07Z</time>
      </trkpt>
      <trkpt lat="44.098888" lon="5.142477">
        <ele>210.47766</ele>
        <time>2021-06-30T18:18:08Z</time>
      </trkpt>
      <trkpt lat="44.099087" lon="5.142537">
        <ele>210.60712</ele>
        <time>2021-06-30T18:18:09Z</time>
      </trkpt>
      <trkpt lat="44.099262" lon="5.142605">
        <ele>210.85144</ele>
        <time>2021-06-30T18:18:10Z</time>
      </trkpt>
      <trkpt lat="44.099422" lon="5.142689">
        <ele>211.53790</ele>
        <time>2021-06-30T18:18:11Z</time>
      </trkpt>
      <trkpt lat="44.099567" lon="5.142778">
        <ele>211.86108</ele>
        <time>2021-06-30T18:18:12Z</time>
      </trkpt>
      <trkpt lat="44.099709" lon="5.142870">
        <ele>212.26666</ele>
        <time>2021-06-30T18:18:13Z</time>
      </trkpt>
      <trkpt lat="44.099861" lon="5.142987">
        <ele>211.81146</ele>
        <time>2021-06-30T18:18:14Z</time>
      </trkpt>
      <trkpt lat="44.100002" lon="5.143093">
        <ele>212.96106</ele>
        <time>2021-06-30T18:18:15Z</time>
      </trkpt>
      <trkpt lat="44.100124" lon="5.143194">
        <ele>213.82568</ele>
        <time>2021-06-30T18:18:16Z</time>
      </trkpt>
      <trkpt lat="44.100285" lon="5.143337">
        <ele>214.09186</ele>
        <time>2021-06-30T18:18:17Z</time>
      </trkpt>
      <trkpt lat="44.100285" lon="5.143337">
        <ele>213.37195</ele>
        <time>2021-06-30T18:18:18Z</time>
      </trkpt>
      <trkpt lat="44.100418" lon="5.143490">
        <ele>212.40791</ele>
        <time>2021-06-30T18:18:19Z</time>
      </trkpt>
      <trkpt lat="44.100544" lon="5.143698">
        <ele>213.74475</ele>
        <time>2021-06-30T18:18:20Z</time>
      </trkpt>
      <trkpt lat="44.100651" lon="5.143888">
        <ele>214.77570</ele>
        <time>2021-06-30T18:18:21Z</time>
      </trkpt>
      <trkpt lat="44.100750" lon="5.144095">
        <ele>215.15491</ele>
        <time>2021-06-30T18:18:22Z</time>
      </trkpt>
      <trkpt lat="44.100849" lon="5.144286">
        <ele>216.35699</ele>
        <time>2021-06-30T18:18:23Z</time>
      </trkpt>
      <trkpt lat="44.100933" lon="5.144445">
        <ele>215.61694</ele>
        <time>2021-06-30T18:18:24Z</time>
      </trkpt>
      <trkpt lat="44.101055" lon="5.144639">
        <ele>216.11243</ele>
        <time>2021-06-30T18:18:25Z</time>
      </trkpt>
      <trkpt lat="44.101200" lon="5.144813">
        <ele>216.61493</ele>
        <time>2021-06-30T18:18:26Z</time>
      </trkpt>
      <trkpt lat="44.101364" lon="5.144964">
        <ele>216.75885</ele>
        <time>2021-06-30T18:18:27Z</time>
      </trkpt>
      <trkpt lat="44.101528" lon="5.145112">
        <ele>216.41809</ele>
        <time>2021-06-30T18:18:28Z</time>
      </trkpt>
      <trkpt lat="44.101662" lon="5.145229">
        <ele>217.29102</ele>
        <time>2021-06-30T18:18:29Z</time>
      </trkpt>
      <trkpt lat="44.101788" lon="5.145347">
        <ele>216.64319</ele>
        <time>2021-06-30T18:18:30Z</time>
      </trkpt>
      <trkpt lat="44.101788" lon="5.145347">
        <ele>216.34167</ele>
        <time>2021-06-30T18:18:31Z</time>
      </trkpt>
      <trkpt lat="44.101925" lon="5.145469">
        <ele>216.93860</ele>
        <time>2021-06-30T18:18:32Z</time>
      </trkpt>
      <trkpt lat="44.102043" lon="5.145576">
        <ele>217.21985</ele>
        <time>2021-06-30T18:18:33Z</time>
      </trkpt>
      <trkpt lat="44.102173" lon="5.145692">
        <ele>217.57349</ele>
        <time>2021-06-30T18:18:34Z</time>
      </trkpt>
      <trkpt lat="44.102318" lon="5.145779">
        <ele>216.82800</ele>
        <time>2021-06-30T18:18:35Z</time>
      </trkpt>
      <trkpt lat="44.102478" lon="5.145797">
        <ele>215.93518</ele>
        <time>2021-06-30T18:18:36Z</time>
      </trkpt>
      <trkpt lat="44.102612" lon="5.145806">
        <ele>216.51880</ele>
        <time>2021-06-30T18:18:37Z</time>
      </trkpt>
      <trkpt lat="44.102779" lon="5.145816">
        <ele>216.34747</ele>
        <time>2021-06-30T18:18:38Z</time>
      </trkpt>
      <trkpt lat="44.102951" lon="5.145827">
        <ele>218.13031</ele>
        <time>2021-06-30T18:18:39Z</time>
      </trkpt>
      <trkpt lat="44.103111" lon="5.145840">
        <ele>218.95343</ele>
        <time>2021-06-30T18:18:40Z</time>
      </trkpt>
      <trkpt lat="44.103245" lon="5.145856">
        <ele>219.59418</ele>
        <time>2021-06-30T18:18:41Z</time>
      </trkpt>
      <trkpt lat="44.103352" lon="5.145866">
        <ele>219.74878</ele>
        <time>2021-06-30T18:18:42Z</time>
      </trkpt>
      <trkpt lat="44.103481" lon="5.145930">
        <ele>220.20782</ele>
        <time>2021-06-30T18:18:43Z</time>
      </trkpt>
      <trkpt lat="44.103630" lon="5.145984">
        <ele>219.36133</ele>
        <time>2021-06-30T18:18:44Z</time>
      </trkpt>
      <trkpt lat="44.103630" lon="5.145984">
        <ele>219.84082</ele>
        <time>2021-06-30T18:18:45Z</time>
      </trkpt>
      <trkpt lat="44.103756" lon="5.146043">
        <ele>218.73975</ele>
        <time>2021-06-30T18:18:46Z</time>
      </trkpt>
      <trkpt lat="44.103855" lon="5.146117">
        <ele>219.48962</ele>
        <time>2021-06-30T18:18:47Z</time>
      </trkpt>
      <trkpt lat="44.103943" lon="5.146253">
        <ele>219.58081</ele>
        <time>2021-06-30T18:18:48Z</time>
      </trkpt>
      <trkpt lat="44.104000" lon="5.146372">
        <ele>220.69336</ele>
        <time>2021-06-30T18:18:49Z</time>
      </trkpt>
      <trkpt lat="44.104034" lon="5.146553">
        <ele>222.45264</ele>
        <time>2021-06-30T18:18:50Z</time>
      </trkpt>
      <trkpt lat="44.104046" lon="5.146723">
        <ele>222.54889</ele>
        <time>2021-06-30T18:18:51Z</time>
      </trkpt>
      <trkpt lat="44.104031" lon="5.146868">
        <ele>223.28564</ele>
        <time>2021-06-30T18:18:52Z</time>
      </trkpt>
      <trkpt lat="44.103992" lon="5.147044">
        <ele>222.26721</ele>
        <time>2021-06-30T18:18:53Z</time>
      </trkpt>
      <trkpt lat="44.103943" lon="5.147165">
        <ele>223.11115</ele>
        <time>2021-06-30T18:18:54Z</time>
      </trkpt>
      <trkpt lat="44.103832" lon="5.147443">
        <ele>224.13208</ele>
        <time>2021-06-30T18:18:55Z</time>
      </trkpt>
      <trkpt lat="44.103741" lon="5.147672">
        <ele>225.20081</ele>
        <time>2021-06-30T18:18:56Z</time>
      </trkpt>
      <trkpt lat="44.103668" lon="5.147861">
        <ele>224.18719</ele>
        <time>2021-06-30T18:18:57Z</time>
      </trkpt>
      <trkpt lat="44.103638" lon="5.148041">
        <ele>224.64722</ele>
        <time>2021-06-30T18:18:58Z</time>
      </trkpt>
      <trkpt lat="44.103584" lon="5.148209">
        <ele>225.14124</ele>
        <time>2021-06-30T18:18:59Z</time>
      </trkpt>
      <trkpt lat="44.103584" lon="5.148209">
        <ele>224.44684</ele>
        <time>2021-06-30T18:19:00Z</time>
      </trkpt>
      <trkpt lat="44.103535" lon="5.148442">
        <ele>225.03394</ele>
        <time>2021-06-30T18:19:01Z</time>
      </trkpt>
      <trkpt lat="44.103531" lon="5.148706">
        <ele>224.92224</ele>
        <time>2021-06-30T18:19:02Z</time>
      </trkpt>
      <trkpt lat="44.103523" lon="5.148920">
        <ele>226.04260</ele>
        <time>2021-06-30T18:19:03Z</time>
      </trkpt>
      <trkpt lat="44.103531" lon="5.149130">
        <ele>223.69458</ele>
        <time>2021-06-30T18:19:04Z</time>
      </trkpt>
      <trkpt lat="44.103558" lon="5.149408">
        <ele>221.58411</ele>
        <time>2021-06-30T18:19:05Z</time>
      </trkpt>
      <trkpt lat="44.103577" lon="5.149617">
        <ele>220.70209</ele>
        <time>2021-06-30T18:19:06Z</time>
      </trkpt>
      <trkpt lat="44.103603" lon="5.149918">
        <ele>223.50415</ele>
        <time>2021-06-30T18:19:07Z</time>
      </trkpt>
      <trkpt lat="44.103634" lon="5.150260">
        <ele>226.00806</ele>
        <time>2021-06-30T18:19:08Z</time>
      </trkpt>
      <trkpt lat="44.103668" lon="5.150700">
        <ele>226.45752</ele>
        <time>2021-06-30T18:19:09Z</time>
      </trkpt>
      <trkpt lat="44.103714" lon="5.151156">
        <ele>228.44092</ele>
        <time>2021-06-30T18:19:10Z</time>
      </trkpt>
      <trkpt lat="44.103748" lon="5.151496">
        <ele>229.57422</ele>
        <time>2021-06-30T18:19:11Z</time>
      </trkpt>
      <trkpt lat="44.103775" lon="5.151825">
        <ele>230.53882</ele>
        <time>2021-06-30T18:19:12Z</time>
      </trkpt>
      <trkpt lat="44.103779" lon="5.152133">
        <ele>231.01233</ele>
        <time>2021-06-30T18:19:13Z</time>
      </trkpt>
      <trkpt lat="44.103760" lon="5.152469">
        <ele>230.27356</ele>
        <time>2021-06-30T18:19:14Z</time>
      </trkpt>
      <trkpt lat="44.103718" lon="5.152851">
        <ele>230.71655</ele>
        <time>2021-06-30T18:19:15Z</time>
      </trkpt>
      <trkpt lat="44.103668" lon="5.153226">
        <ele>232.18677</ele>
        <time>2021-06-30T18:19:16Z</time>
      </trkpt>
      <trkpt lat="44.103668" lon="5.153226">
        <ele>232.05615</ele>
        <time>2021-06-30T18:19:17Z</time>
      </trkpt>
      <trkpt lat="44.103634" lon="5.153579">
        <ele>233.22083</ele>
        <time>2021-06-30T18:19:18Z</time>
      </trkpt>
      <trkpt lat="44.103600" lon="5.153988">
        <ele>233.40320</ele>
        <time>2021-06-30T18:19:19Z</time>
      </trkpt>
      <trkpt lat="44.103607" lon="5.154338">
        <ele>234.65936</ele>
        <time>2021-06-30T18:19:20Z</time>
      </trkpt>
      <trkpt lat="44.103645" lon="5.154639">
        <ele>234.69391</ele>
        <time>2021-06-30T18:19:21Z</time>
      </trkpt>
      <trkpt lat="44.103718" lon="5.154960">
        <ele>235.16742</ele>
        <time>2021-06-30T18:19:22Z</time>
      </trkpt>
      <trkpt lat="44.103806" lon="5.155320">
        <ele>235.89941</ele>
        <time>2021-06-30T18:19:23Z</time>
      </trkpt>
      <trkpt lat="44.103878" lon="5.155602">
        <ele>236.47186</ele>
        <time>2021-06-30T18:19:24Z</time>
      </trkpt>
      <trkpt lat="44.103951" lon="5.155907">
        <ele>237.02490</ele>
        <time>2021-06-30T18:19:25Z</time>
      </trkpt>
      <trkpt lat="44.104004" lon="5.156281">
        <ele>237.55237</ele>
        <time>2021-06-30T18:19:26Z</time>
      </trkpt>
      <trkpt lat="44.104034" lon="5.156631">
        <ele>238.13525</ele>
        <time>2021-06-30T18:19:27Z</time>
      </trkpt>
      <trkpt lat="44.104034" lon="5.156631">
        <ele>238.39264</ele>
        <time>2021-06-30T18:19:28Z</time>
      </trkpt>
      <trkpt lat="44.104050" lon="5.156976">
        <ele>240.05554</ele>
        <time>2021-06-30T18:19:29Z</time>
      </trkpt>
      <trkpt lat="44.104053" lon="5.157370">
        <ele>239.57678</ele>
        <time>2021-06-30T18:19:30Z</time>
      </trkpt>
      <trkpt lat="44.104073" lon="5.157724">
        <ele>239.07556</ele>
        <time>2021-06-30T18:19:31Z</time>
      </trkpt>
      <trkpt lat="44.104126" lon="5.158012">
        <ele>238.67651</ele>
        <time>2021-06-30T18:19:32Z</time>
      </trkpt>
      <trkpt lat="44.104206" lon="5.158310">
        <ele>238.63379</ele>
        <time>2021-06-30T18:19:33Z</time>
      </trkpt>
      <trkpt lat="44.104343" lon="5.158598">
        <ele>239.26038</ele>
        <time>2021-06-30T18:19:34Z</time>
      </trkpt>
      <trkpt lat="44.104496" lon="5.158900">
        <ele>239.48407</ele>
        <time>2021-06-30T18:19:35Z</time>
      </trkpt>
      <trkpt lat="44.104652" lon="5.159206">
        <ele>238.93225</ele>
        <time>2021-06-30T18:19:36Z</time>
      </trkpt>
      <trkpt lat="44.104813" lon="5.159492">
        <ele>239.18127</ele>
        <time>2021-06-30T18:19:37Z</time>
      </trkpt>
      <trkpt lat="44.104965" lon="5.159757">
        <ele>239.04285</ele>
        <time>2021-06-30T18:19:38Z</time>
      </trkpt>
      <trkpt lat="44.105145" lon="5.160097">
        <ele>239.45544</ele>
        <time>2021-06-30T18:19:39Z</time>
      </trkpt>
      <trkpt lat="44.105244" lon="5.160458">
        <ele>241.52063</ele>
        <time>2021-06-30T18:19:40Z</time>
      </trkpt>
      <trkpt lat="44.105297" lon="5.160849">
        <ele>243.55640</ele>
        <time>2021-06-30T18:19:41Z</time>
      </trkpt>
      <trkpt lat="44.105297" lon="5.160849">
        <ele>245.42102</ele>
        <time>2021-06-30T18:19:42Z</time>
      </trkpt>
      <trkpt lat="44.105354" lon="5.161285">
        <ele>246.65295</ele>
        <time>2021-06-30T18:19:43Z</time>
      </trkpt>
      <trkpt lat="44.105396" lon="5.161615">
        <ele>248.46875</ele>
        <time>2021-06-30T18:19:44Z</time>
      </trkpt>
      <trkpt lat="44.105442" lon="5.161933">
        <ele>249.77954</ele>
        <time>2021-06-30T18:19:45Z</time>
      </trkpt>
      <trkpt lat="44.105503" lon="5.162371">
        <ele>250.90210</ele>
        <time>2021-06-30T18:19:46Z</time>
      </trkpt>
      <trkpt lat="44.105556" lon="5.162735">
        <ele>251.86182</ele>
        <time>2021-06-30T18:19:47Z</time>
      </trkpt>
      <trkpt lat="44.105598" lon="5.163041">
        <ele>252.62537</ele>
        <time>2021-06-30T18:19:48Z</time>
      </trkpt>
      <trkpt lat="44.105644" lon="5.163364">
        <ele>252.98486</ele>
        <time>2021-06-30T18:19:49Z</time>
      </trkpt>
      <trkpt lat="44.105690" lon="5.163683">
        <ele>254.94299</ele>
        <time>2021-06-30T18:19:50Z</time>
      </trkpt>
      <trkpt lat="44.105743" lon="5.164079">
        <ele>255.73218</ele>
        <time>2021-06-30T18:19:51Z</time>
      </trkpt>
      <trkpt lat="44.105789" lon="5.164416">
        <ele>255.59418</ele>
        <time>2021-06-30T18:19:52Z</time>
      </trkpt>
      <trkpt lat="44.105827" lon="5.164679">
        <ele>254.72815</ele>
        <time>2021-06-30T18:19:53Z</time>
      </trkpt>
      <trkpt lat="44.105850" lon="5.164974">
        <ele>255.80627</ele>
        <time>2021-06-30T18:19:54Z</time>
      </trkpt>
      <trkpt lat="44.105873" lon="5.165354">
        <ele>255.61334</ele>
        <time>2021-06-30T18:19:55Z</time>
      </trkpt>
      <trkpt lat="44.105873" lon="5.165354">
        <ele>256.19092</ele>
        <time>2021-06-30T18:19:56Z</time>
      </trkpt>
      <trkpt lat="44.105881" lon="5.165782">
        <ele>256.86731</ele>
        <time>2021-06-30T18:19:57Z</time>
      </trkpt>
      <trkpt lat="44.105881" lon="5.166256">
        <ele>257.89160</ele>
        <time>2021-06-30T18:19:58Z</time>
      </trkpt>
      <trkpt lat="44.105877" lon="5.166789">
        <ele>258.90826</ele>
        <time>2021-06-30T18:19:59Z</time>
      </trkpt>
      <trkpt lat="44.105865" lon="5.167333">
        <ele>259.93396</ele>
        <time>2021-06-30T18:20:00Z</time>
      </trkpt>
      <trkpt lat="44.105843" lon="5.167830">
        <ele>260.88989</ele>
        <time>2021-06-30T18:20:01Z</time>
      </trkpt>
      <trkpt lat="44.105816" lon="5.168275">
        <ele>261.45880</ele>
        <time>2021-06-30T18:20:02Z</time>
      </trkpt>
      <trkpt lat="44.105789" lon="5.168717">
        <ele>262.51758</ele>
        <time>2021-06-30T18:20:03Z</time>
      </trkpt>
      <trkpt lat="44.105755" lon="5.169107">
        <ele>262.89520</ele>
        <time>2021-06-30T18:20:04Z</time>
      </trkpt>
      <trkpt lat="44.105713" lon="5.169496">
        <ele>263.02881</ele>
        <time>2021-06-30T18:20:05Z</time>
      </trkpt>
      <trkpt lat="44.105713" lon="5.169496">
        <ele>263.40076</ele>
        <time>2021-06-30T18:20:06Z</time>
      </trkpt>
      <trkpt lat="44.105686" lon="5.169910">
        <ele>263.56824</ele>
        <time>2021-06-30T18:20:07Z</time>
      </trkpt>
      <trkpt lat="44.105675" lon="5.170331">
        <ele>264.88770</ele>
        <time>2021-06-30T18:20:08Z</time>
      </trkpt>
      <trkpt lat="44.105671" lon="5.170715">
        <ele>266.93384</ele>
        <time>2021-06-30T18:20:09Z</time>
      </trkpt>
      <trkpt lat="44.105671" lon="5.171181">
        <ele>268.05811</ele>
        <time>2021-06-30T18:20:10Z</time>
      </trkpt>
      <trkpt lat="44.105705" lon="5.171600">
        <ele>269.86938</ele>
        <time>2021-06-30T18:20:11Z</time>
      </trkpt>
      <trkpt lat="44.105762" lon="5.171991">
        <ele>270.75128</ele>
        <time>2021-06-30T18:20:12Z</time>
      </trkpt>
      <trkpt lat="44.105824" lon="5.172359">
        <ele>272.09119</ele>
        <time>2021-06-30T18:20:13Z</time>
      </trkpt>
      <trkpt lat="44.105923" lon="5.172736">
        <ele>272.62866</ele>
        <time>2021-06-30T18:20:14Z</time>
      </trkpt>
      <trkpt lat="44.106083" lon="5.173038">
        <ele>273.38782</ele>
        <time>2021-06-30T18:20:15Z</time>
      </trkpt>
      <trkpt lat="44.106319" lon="5.173361">
        <ele>274.05664</ele>
        <time>2021-06-30T18:20:16Z</time>
      </trkpt>
      <trkpt lat="44.106503" lon="5.173602">
        <ele>274.86426</ele>
        <time>2021-06-30T18:20:17Z</time>
      </trkpt>
      <trkpt lat="44.106697" lon="5.173848">
        <ele>275.63342</ele>
        <time>2021-06-30T18:20:18Z</time>
      </trkpt>
      <trkpt lat="44.106911" lon="5.174068">
        <ele>276.52283</ele>
        <time>2021-06-30T18:20:19Z</time>
      </trkpt>
      <trkpt lat="44.107143" lon="5.174301">
        <ele>276.94592</ele>
        <time>2021-06-30T18:20:20Z</time>
      </trkpt>
      <trkpt lat="44.107410" lon="5.174564">
        <ele>278.82275</ele>
        <time>2021-06-30T18:20:21Z</time>
      </trkpt>
      <trkpt lat="44.107410" lon="5.174564">
        <ele>279.54749</ele>
        <time>2021-06-30T18:20:22Z</time>
      </trkpt>
      <trkpt lat="44.107655" lon="5.174802">
        <ele>280.56519</ele>
        <time>2021-06-30T18:20:23Z</time>
      </trkpt>
      <trkpt lat="44.107891" lon="5.175045">
        <ele>281.35315</ele>
        <time>2021-06-30T18:20:24Z</time>
      </trkpt>
      <trkpt lat="44.108093" lon="5.175268">
        <ele>281.14288</ele>
        <time>2021-06-30T18:20:25Z</time>
      </trkpt>
      <trkpt lat="44.108276" lon="5.175473">
        <ele>280.60840</ele>
        <time>2021-06-30T18:20:26Z</time>
      </trkpt>
      <trkpt lat="44.108452" lon="5.175671">
        <ele>282.06256</ele>
        <time>2021-06-30T18:20:27Z</time>
      </trkpt>
      <trkpt lat="44.108597" lon="5.175820">
        <ele>283.65326</ele>
        <time>2021-06-30T18:20:28Z</time>
      </trkpt>
      <trkpt lat="44.108700" lon="5.175978">
        <ele>284.55267</ele>
        <time>2021-06-30T18:20:29Z</time>
      </trkpt>
      <trkpt lat="44.108791" lon="5.176090">
        <ele>285.58875</ele>
        <time>2021-06-30T18:20:30Z</time>
      </trkpt>
      <trkpt lat="44.108887" lon="5.176203">
        <ele>285.97864</ele>
        <time>2021-06-30T18:20:31Z</time>
      </trkpt>
      <trkpt lat="44.108959" lon="5.176292">
        <ele>286.79370</ele>
        <time>2021-06-30T18:20:32Z</time>
      </trkpt>
      <trkpt lat="44.109028" lon="5.176376">
        <ele>286.62793</ele>
        <time>2021-06-30T18:20:33Z</time>
      </trkpt>
      <trkpt lat="44.109081" lon="5.176459">
        <ele>287.06970</ele>
        <time>2021-06-30T18:20:34Z</time>
      </trkpt>
      <trkpt lat="44.109081" lon="5.176459">
        <ele>288.23499</ele>
        <time>2021-06-30T18:20:35Z</time>
      </trkpt>
      <trkpt lat="44.109070" lon="5.176521">
        <ele>287.20898</ele>
        <time>2021-06-30T18:20:36Z</time>
      </trkpt>
      <trkpt lat="44.109074" lon="5.176618">
        <ele>286.34460</ele>
        <time>2021-06-30T18:20:37Z</time>
      </trkpt>
      <trkpt lat="44.109104" lon="5.176736">
        <ele>286.79230</ele>
        <time>2021-06-30T18:20:38Z</time>
      </trkpt>
      <trkpt lat="44.109161" lon="5.176810">
        <ele>286.77911</ele>
        <time>2021-06-30T18:20:39Z</time>
      </trkpt>
      <trkpt lat="44.109245" lon="5.176848">
        <ele>287.28650</ele>
        <time>2021-06-30T18:20:40Z</time>
      </trkpt>
      <trkpt lat="44.109329" lon="5.176843">
        <ele>286.98145</ele>
        <time>2021-06-30T18:20:41Z</time>
      </trkpt>
      <trkpt lat="44.109402" lon="5.176790">
        <ele>287.18445</ele>
        <time>2021-06-30T18:20:42Z</time>
      </trkpt>
      <trkpt lat="44.109451" lon="5.176708">
        <ele>287.26648</ele>
        <time>2021-06-30T18:20:43Z</time>
      </trkpt>
      <trkpt lat="44.109570" lon="5.176716">
        <ele>287.44495</ele>
        <time>2021-06-30T18:20:44Z</time>
      </trkpt>
      <trkpt lat="44.109795" lon="5.176771">
        <ele>285.94873</ele>
        <time>2021-06-30T18:20:45Z</time>
      </trkpt>
      <trkpt lat="44.109940" lon="5.176811">
        <ele>286.33441</ele>
        <time>2021-06-30T18:20:46Z</time>
      </trkpt>
      <trkpt lat="44.109940" lon="5.176811">
        <ele>286.86261</ele>
        <time>2021-06-30T18:20:47Z</time>
      </trkpt>
      <trkpt lat="44.110115" lon="5.176842">
        <ele>287.71191</ele>
        <time>2021-06-30T18:20:48Z</time>
      </trkpt>
      <trkpt lat="44.110317" lon="5.176862">
        <ele>287.60461</ele>
        <time>2021-06-30T18:20:49Z</time>
      </trkpt>
      <trkpt lat="44.110516" lon="5.176898">
        <ele>286.95782</ele>
        <time>2021-06-30T18:20:50Z</time>
      </trkpt>
      <trkpt lat="44.110752" lon="5.176942">
        <ele>287.23981</ele>
        <time>2021-06-30T18:20:51Z</time>
      </trkpt>
      <trkpt lat="44.110970" lon="5.176981">
        <ele>287.18054</ele>
        <time>2021-06-30T18:20:52Z</time>
      </trkpt>
      <trkpt lat="44.111191" lon="5.177019">
        <ele>287.43982</ele>
        <time>2021-06-30T18:20:53Z</time>
      </trkpt>
      <trkpt lat="44.111423" lon="5.177056">
        <ele>286.93677</ele>
        <time>2021-06-30T18:20:54Z</time>
      </trkpt>
      <trkpt lat="44.111706" lon="5.177096">
        <ele>286.95679</ele>
        <time>2021-06-30T18:20:55Z</time>
      </trkpt>
      <trkpt lat="44.111931" lon="5.177103">
        <ele>287.62891</ele>
        <time>2021-06-30T18:20:56Z</time>
      </trkpt>
      <trkpt lat="44.112141" lon="5.177110">
        <ele>288.03210</ele>
        <time>2021-06-30T18:20:57Z</time>
      </trkpt>
      <trkpt lat="44.112339" lon="5.177118">
        <ele>289.29565</ele>
        <time>2021-06-30T18:20:58Z</time>
      </trkpt>
      <trkpt lat="44.112545" lon="5.177128">
        <ele>289.35291</ele>
        <time>2021-06-30T18:20:59Z</time>
      </trkpt>
      <trkpt lat="44.112545" lon="5.177128">
        <ele>289.50635</ele>
        <time>2021-06-30T18:21:00Z</time>
      </trkpt>
      <trkpt lat="44.112747" lon="5.177137">
        <ele>289.93652</ele>
        <time>2021-06-30T18:21:01Z</time>
      </trkpt>
      <trkpt lat="44.112938" lon="5.177146">
        <ele>290.33459</ele>
        <time>2021-06-30T18:21:02Z</time>
      </trkpt>
      <trkpt lat="44.113106" lon="5.177158">
        <ele>290.90247</ele>
        <time>2021-06-30T18:21:03Z</time>
      </trkpt>
      <trkpt lat="44.113289" lon="5.177210">
        <ele>289.90222</ele>
        <time>2021-06-30T18:21:04Z</time>
      </trkpt>
      <trkpt lat="44.113476" lon="5.177267">
        <ele>290.15442</ele>
        <time>2021-06-30T18:21:05Z</time>
      </trkpt>
      <trkpt lat="44.113655" lon="5.177321">
        <ele>290.33240</ele>
        <time>2021-06-30T18:21:06Z</time>
      </trkpt>
      <trkpt lat="44.113853" lon="5.177374">
        <ele>291.34729</ele>
        <time>2021-06-30T18:21:07Z</time>
      </trkpt>
      <trkpt lat="44.114040" lon="5.177418">
        <ele>291.73938</ele>
        <time>2021-06-30T18:21:08Z</time>
      </trkpt>
      <trkpt lat="44.114265" lon="5.177446">
        <ele>291.81738</ele>
        <time>2021-06-30T18:21:09Z</time>
      </trkpt>
      <trkpt lat="44.114452" lon="5.177464">
        <ele>292.69922</ele>
        <time>2021-06-30T18:21:10Z</time>
      </trkpt>
      <trkpt lat="44.114666" lon="5.177482">
        <ele>292.97906</ele>
        <time>2021-06-30T18:21:11Z</time>
      </trkpt>
      <trkpt lat="44.114872" lon="5.177497">
        <ele>292.53711</ele>
        <time>2021-06-30T18:21:12Z</time>
      </trkpt>
      <trkpt lat="44.115082" lon="5.177514">
        <ele>293.36304</ele>
        <time>2021-06-30T18:21:13Z</time>
      </trkpt>
      <trkpt lat="44.115265" lon="5.177530">
        <ele>293.03473</ele>
        <time>2021-06-30T18:21:14Z</time>
      </trkpt>
      <trkpt lat="44.115437" lon="5.177544">
        <ele>293.81970</ele>
        <time>2021-06-30T18:21:15Z</time>
      </trkpt>
      <trkpt lat="44.115589" lon="5.177561">
        <ele>293.71973</ele>
        <time>2021-06-30T18:21:16Z</time>
      </trkpt>
      <trkpt lat="44.115589" lon="5.177561">
        <ele>293.71997</ele>
        <time>2021-06-30T18:21:17Z</time>
      </trkpt>
      <trkpt lat="44.115738" lon="5.177578">
        <ele>294.33240</ele>
        <time>2021-06-30T18:21:18Z</time>
      </trkpt>
      <trkpt lat="44.115902" lon="5.177597">
        <ele>294.12817</ele>
        <time>2021-06-30T18:21:19Z</time>
      </trkpt>
      <trkpt lat="44.116081" lon="5.177620">
        <ele>294.20569</ele>
        <time>2021-06-30T18:21:20Z</time>
      </trkpt>
      <trkpt lat="44.116280" lon="5.177662">
        <ele>293.11487</ele>
        <time>2021-06-30T18:21:21Z</time>
      </trkpt>
      <trkpt lat="44.116512" lon="5.177735">
        <ele>293.46582</ele>
        <time>2021-06-30T18:21:22Z</time>
      </trkpt>
      <trkpt lat="44.116692" lon="5.177819">
        <ele>294.05725</ele>
        <time>2021-06-30T18:21:23Z</time>
      </trkpt>
      <trkpt lat="44.116859" lon="5.177919">
        <ele>295.18372</ele>
        <time>2021-06-30T18:21:24Z</time>
      </trkpt>
      <trkpt lat="44.117043" lon="5.178045">
        <ele>295.81055</ele>
        <time>2021-06-30T18:21:25Z</time>
      </trkpt>
      <trkpt lat="44.117252" lon="5.178195">
        <ele>296.46655</ele>
        <time>2021-06-30T18:21:26Z</time>
      </trkpt>
      <trkpt lat="44.117424" lon="5.178344">
        <ele>296.45569</ele>
        <time>2021-06-30T18:21:27Z</time>
      </trkpt>
      <trkpt lat="44.117577" lon="5.178499">
        <ele>296.34460</ele>
        <time>2021-06-30T18:21:28Z</time>
      </trkpt>
      <trkpt lat="44.117710" lon="5.178652">
        <ele>296.28235</ele>
        <time>2021-06-30T18:21:29Z</time>
      </trkpt>
      <trkpt lat="44.117710" lon="5.178652">
        <ele>296.25159</ele>
        <time>2021-06-30T18:21:30Z</time>
      </trkpt>
      <trkpt lat="44.117851" lon="5.178788">
        <ele>296.24939</ele>
        <time>2021-06-30T18:21:31Z</time>
      </trkpt>
      <trkpt lat="44.117977" lon="5.178910">
        <ele>296.27051</ele>
        <time>2021-06-30T18:21:32Z</time>
      </trkpt>
      <trkpt lat="44.118073" lon="5.179005">
        <ele>296.61926</ele>
        <time>2021-06-30T18:21:33Z</time>
      </trkpt>
      <trkpt lat="44.118145" lon="5.179074">
        <ele>299.44971</ele>
        <time>2021-06-30T18:21:34Z</time>
      </trkpt>
      <trkpt lat="44.118233" lon="5.179160">
        <ele>299.82983</ele>
        <time>2021-06-30T18:21:35Z</time>
      </trkpt>
      <trkpt lat="44.118259" lon="5.179184">
        <ele>298.39270</ele>
        <time>2021-06-30T18:21:36Z</time>
      </trkpt>
      <trkpt lat="44.118286" lon="5.179210">
        <ele>298.69800</ele>
        <time>2021-06-30T18:21:37Z</time>
      </trkpt>
      <trkpt lat="44.118324" lon="5.179250">
        <ele>298.25391</ele>
        <time>2021-06-30T18:21:38Z</time>
      </trkpt>
      <trkpt lat="44.118359" lon="5.179337">
        <ele>297.49268</ele>
        <time>2021-06-30T18:21:39Z</time>
      </trkpt>
      <trkpt lat="44.118481" lon="5.179357">
        <ele>297.42078</ele>
        <time>2021-06-30T18:21:40Z</time>
      </trkpt>
      <trkpt lat="44.118549" lon="5.179353">
        <ele>297.70764</ele>
        <time>2021-06-30T18:21:41Z</time>
      </trkpt>
      <trkpt lat="44.118603" lon="5.179342">
        <ele>297.73291</ele>
        <time>2021-06-30T18:21:42Z</time>
      </trkpt>
      <trkpt lat="44.118687" lon="5.179323">
        <ele>297.90869</ele>
        <time>2021-06-30T18:21:43Z</time>
      </trkpt>
      <trkpt lat="44.118820" lon="5.179293">
        <ele>298.33838</ele>
        <time>2021-06-30T18:21:44Z</time>
      </trkpt>
      <trkpt lat="44.118938" lon="5.179267">
        <ele>297.57233</ele>
        <time>2021-06-30T18:21:45Z</time>
      </trkpt>
      <trkpt lat="44.118938" lon="5.179267">
        <ele>298.10553</ele>
        <time>2021-06-30T18:21:46Z</time>
      </trkpt>
      <trkpt lat="44.119061" lon="5.179240">
        <ele>297.97424</ele>
        <time>2021-06-30T18:21:47Z</time>
      </trkpt>
      <trkpt lat="44.119202" lon="5.179209">
        <ele>298.11194</ele>
        <time>2021-06-30T18:21:48Z</time>
      </trkpt>
      <trkpt lat="44.119335" lon="5.179180">
        <ele>298.83325</ele>
        <time>2021-06-30T18:21:49Z</time>
      </trkpt>
      <trkpt lat="44.119457" lon="5.179152">
        <ele>299.36334</ele>
        <time>2021-06-30T18:21:50Z</time>
      </trkpt>
      <trkpt lat="44.119560" lon="5.179130">
        <ele>299.08569</ele>
        <time>2021-06-30T18:21:51Z</time>
      </trkpt>
      <trkpt lat="44.119698" lon="5.179102">
        <ele>298.38110</ele>
        <time>2021-06-30T18:21:52Z</time>
      </trkpt>
      <trkpt lat="44.119808" lon="5.179079">
        <ele>299.08545</ele>
        <time>2021-06-30T18:21:53Z</time>
      </trkpt>
      <trkpt lat="44.119938" lon="5.179046">
        <ele>299.27069</ele>
        <time>2021-06-30T18:21:54Z</time>
      </trkpt>
      <trkpt lat="44.120079" lon="5.178999">
        <ele>298.03717</ele>
        <time>2021-06-30T18:21:55Z</time>
      </trkpt>
      <trkpt lat="44.120186" lon="5.178964">
        <ele>298.13403</ele>
        <time>2021-06-30T18:21:56Z</time>
      </trkpt>
      <trkpt lat="44.120289" lon="5.178930">
        <ele>298.26910</ele>
        <time>2021-06-30T18:21:57Z</time>
      </trkpt>
      <trkpt lat="44.120403" lon="5.178893">
        <ele>297.63831</ele>
        <time>2021-06-30T18:21:58Z</time>
      </trkpt>
      <trkpt lat="44.120510" lon="5.178857">
        <ele>297.01520</ele>
        <time>2021-06-30T18:21:59Z</time>
      </trkpt>
      <trkpt lat="44.120628" lon="5.178815">
        <ele>297.01038</ele>
        <time>2021-06-30T18:22:00Z</time>
      </trkpt>
      <trkpt lat="44.120750" lon="5.178772">
        <ele>297.07739</ele>
        <time>2021-06-30T18:22:01Z</time>
      </trkpt>
      <trkpt lat="44.120922" lon="5.178709">
        <ele>297.16968</ele>
        <time>2021-06-30T18:22:02Z</time>
      </trkpt>
      <trkpt lat="44.121056" lon="5.178659">
        <ele>297.96533</ele>
        <time>2021-06-30T18:22:03Z</time>
      </trkpt>
      <trkpt lat="44.121193" lon="5.178609">
        <ele>297.68909</ele>
        <time>2021-06-30T18:22:04Z</time>
      </trkpt>
      <trkpt lat="44.121193" lon="5.178609">
        <ele>298.22601</ele>
        <time>2021-06-30T18:22:05Z</time>
      </trkpt>
      <trkpt lat="44.121315" lon="5.178564">
        <ele>298.41229</ele>
        <time>2021-06-30T18:22:06Z</time>
      </trkpt>
      <trkpt lat="44.121414" lon="5.178528">
        <ele>297.76746</ele>
        <time>2021-06-30T18:22:07Z</time>
      </trkpt>
      <trkpt lat="44.121529" lon="5.178486">
        <ele>298.20886</ele>
        <time>2021-06-30T18:22:08Z</time>
      </trkpt>
      <trkpt lat="44.121647" lon="5.178452">
        <ele>294.26733</ele>
        <time>2021-06-30T18:22:09Z</time>
      </trkpt>
      <trkpt lat="44.121731" lon="5.178430">
        <ele>294.97327</ele>
        <time>2021-06-30T18:22:10Z</time>
      </trkpt>
      <trkpt lat="44.121780" lon="5.178416">
        <ele>295.27307</ele>
        <time>2021-06-30T18:22:11Z</time>
      </trkpt>
      <trkpt lat="44.121838" lon="5.178415">
        <ele>295.57031</ele>
        <time>2021-06-30T18:22:12Z</time>
      </trkpt>
      <trkpt lat="44.121876" lon="5.178428">
        <ele>296.22076</ele>
        <time>2021-06-30T18:22:13Z</time>
      </trkpt>
      <trkpt lat="44.121910" lon="5.178507">
        <ele>297.04395</ele>
        <time>2021-06-30T18:22:14Z</time>
      </trkpt>
      <trkpt lat="44.121967" lon="5.178514">
        <ele>297.25793</ele>
        <time>2021-06-30T18:22:15Z</time>
      </trkpt>
      <trkpt lat="44.122021" lon="5.178624">
        <ele>296.84924</ele>
        <time>2021-06-30T18:22:16Z</time>
      </trkpt>
      <trkpt lat="44.122124" lon="5.178792">
        <ele>296.63098</ele>
        <time>2021-06-30T18:22:17Z</time>
      </trkpt>
      <trkpt lat="44.122208" lon="5.178905">
        <ele>297.08832</ele>
        <time>2021-06-30T18:22:18Z</time>
      </trkpt>
      <trkpt lat="44.122292" lon="5.179013">
        <ele>298.56104</ele>
        <time>2021-06-30T18:22:19Z</time>
      </trkpt>
      <trkpt lat="44.122292" lon="5.179013">
        <ele>298.71252</ele>
        <time>2021-06-30T18:22:20Z</time>
      </trkpt>
      <trkpt lat="44.122353" lon="5.179102">
        <ele>299.41638</ele>
        <time>2021-06-30T18:22:21Z</time>
      </trkpt>
      <trkpt lat="44.122395" lon="5.179160">
        <ele>302.54077</ele>
        <time>2021-06-30T18:22:22Z</time>
      </trkpt>
      <trkpt lat="44.122425" lon="5.179202">
        <ele>302.51489</ele>
        <time>2021-06-30T18:22:23Z</time>
      </trkpt>
      <trkpt lat="44.122467" lon="5.179260">
        <ele>302.67371</ele>
        <time>2021-06-30T18:22:24Z</time>
      </trkpt>
      <trkpt lat="44.122494" lon="5.179301">
        <ele>303.33484</ele>
        <time>2021-06-30T18:22:25Z</time>
      </trkpt>
      <trkpt lat="44.122543" lon="5.179366">
        <ele>303.05225</ele>
        <time>2021-06-30T18:22:26Z</time>
      </trkpt>
      <trkpt lat="44.122555" lon="5.179385">
        <ele>304.15479</ele>
        <time>2021-06-30T18:22:27Z</time>
      </trkpt>
      <trkpt lat="44.122643" lon="5.179528">
        <ele>303.63220</ele>
        <time>2021-06-30T18:22:28Z</time>
      </trkpt>
      <trkpt lat="44.122692" lon="5.179609">
        <ele>303.75867</ele>
        <time>2021-06-30T18:22:29Z</time>
      </trkpt>
      <trkpt lat="44.122753" lon="5.179700">
        <ele>303.17981</ele>
        <time>2021-06-30T18:22:30Z</time>
      </trkpt>
      <trkpt lat="44.122772" lon="5.179726">
        <ele>303.34747</ele>
        <time>2021-06-30T18:22:31Z</time>
      </trkpt>
      <trkpt lat="44.122776" lon="5.179731">
        <ele>301.12402</ele>
        <time>2021-06-30T18:22:32Z</time>
      </trkpt>
      <trkpt lat="44.122795" lon="5.179762">
        <ele>300.28906</ele>
        <time>2021-06-30T18:22:33Z</time>
      </trkpt>
      <trkpt lat="44.122795" lon="5.179762">
        <ele>299.84680</ele>
        <time>2021-06-30T18:22:34Z</time>
      </trkpt>
      <trkpt lat="44.122829" lon="5.179808">
        <ele>298.90143</ele>
        <time>2021-06-30T18:22:35Z</time>
      </trkpt>
      <trkpt lat="44.122875" lon="5.179877">
        <ele>298.62341</ele>
        <time>2021-06-30T18:22:36Z</time>
      </trkpt>
      <trkpt lat="44.122925" lon="5.179953">
        <ele>297.93884</ele>
        <time>2021-06-30T18:22:37Z</time>
      </trkpt>
      <trkpt lat="44.122952" lon="5.179991">
        <ele>297.25854</ele>
        <time>2021-06-30T18:22:38Z</time>
      </trkpt>
      <trkpt lat="44.123009" lon="5.180076">
        <ele>296.94434</ele>
        <time>2021-06-30T18:22:39Z</time>
      </trkpt>
      <trkpt lat="44.123074" lon="5.180169">
        <ele>297.39978</ele>
        <time>2021-06-30T18:22:40Z</time>
      </trkpt>
      <trkpt lat="44.123158" lon="5.180285">
        <ele>298.07483</ele>
        <time>2021-06-30T18:22:41Z</time>
      </trkpt>
      <trkpt lat="44.123199" lon="5.180338">
        <ele>297.78784</ele>
        <time>2021-06-30T18:22:42Z</time>
      </trkpt>
      <trkpt lat="44.123241" lon="5.180380">
        <ele>297.84357</ele>
        <time>2021-06-30T18:22:43Z</time>
      </trkpt>
      <trkpt lat="44.123241" lon="5.180380">
        <ele>297.68573</ele>
        <time>2021-06-30T18:22:44Z</time>
      </trkpt>
      <trkpt lat="44.123318" lon="5.180448">
        <ele>297.38580</ele>
        <time>2021-06-30T18:22:45Z</time>
      </trkpt>
      <trkpt lat="44.123371" lon="5.180493">
        <ele>297.35144</ele>
        <time>2021-06-30T18:22:46Z</time>
      </trkpt>
      <trkpt lat="44.123425" lon="5.180536">
        <ele>299.21741</ele>
        <time>2021-06-30T18:22:47Z</time>
      </trkpt>
      <trkpt lat="44.123497" lon="5.180589">
        <ele>299.80090</ele>
        <time>2021-06-30T18:22:48Z</time>
      </trkpt>
      <trkpt lat="44.123600" lon="5.180665">
        <ele>300.61401</ele>
        <time>2021-06-30T18:22:49Z</time>
      </trkpt>
      <trkpt lat="44.123680" lon="5.180718">
        <ele>302.04626</ele>
        <time>2021-06-30T18:22:50Z</time>
      </trkpt>
      <trkpt lat="44.123760" lon="5.180760">
        <ele>301.77313</ele>
        <time>2021-06-30T18:22:51Z</time>
      </trkpt>
      <trkpt lat="44.123791" lon="5.180777">
        <ele>301.57520</ele>
        <time>2021-06-30T18:22:52Z</time>
      </trkpt>
      <trkpt lat="44.123833" lon="5.180795">
        <ele>302.31091</ele>
        <time>2021-06-30T18:22:53Z</time>
      </trkpt>
      <trkpt lat="44.123943" lon="5.180824">
        <ele>303.26526</ele>
        <time>2021-06-30T18:22:54Z</time>
      </trkpt>
      <trkpt lat="44.124001" lon="5.180833">
        <ele>303.68262</ele>
        <time>2021-06-30T18:22:55Z</time>
      </trkpt>
      <trkpt lat="44.124001" lon="5.180833">
        <ele>303.69104</ele>
        <time>2021-06-30T18:22:56Z</time>
      </trkpt>
      <trkpt lat="44.124084" lon="5.180829">
        <ele>304.83594</ele>
        <time>2021-06-30T18:22:57Z</time>
      </trkpt>
      <trkpt lat="44.124161" lon="5.180823">
        <ele>305.02338</ele>
        <time>2021-06-30T18:22:58Z</time>
      </trkpt>
      <trkpt lat="44.124256" lon="5.180814">
        <ele>304.29852</ele>
        <time>2021-06-30T18:22:59Z</time>
      </trkpt>
      <trkpt lat="44.124336" lon="5.180806">
        <ele>304.34717</ele>
        <time>2021-06-30T18:23:00Z</time>
      </trkpt>
      <trkpt lat="44.124393" lon="5.180791">
        <ele>305.05908</ele>
        <time>2021-06-30T18:23:01Z</time>
      </trkpt>
      <trkpt lat="44.124458" lon="5.180764">
        <ele>303.01190</ele>
        <time>2021-06-30T18:23:02Z</time>
      </trkpt>
      <trkpt lat="44.124542" lon="5.180725">
        <ele>302.76721</ele>
        <time>2021-06-30T18:23:03Z</time>
      </trkpt>
      <trkpt lat="44.124645" lon="5.180655">
        <ele>303.15320</ele>
        <time>2021-06-30T18:23:04Z</time>
      </trkpt>
      <trkpt lat="44.124733" lon="5.180595">
        <ele>303.51843</ele>
        <time>2021-06-30T18:23:05Z</time>
      </trkpt>
      <trkpt lat="44.124794" lon="5.180546">
        <ele>304.16101</ele>
        <time>2021-06-30T18:23:06Z</time>
      </trkpt>
      <trkpt lat="44.124870" lon="5.180481">
        <ele>304.44031</ele>
        <time>2021-06-30T18:23:07Z</time>
      </trkpt>
      <trkpt lat="44.124935" lon="5.180427">
        <ele>302.01074</ele>
        <time>2021-06-30T18:23:08Z</time>
      </trkpt>
      <trkpt lat="44.125000" lon="5.180372">
        <ele>303.37610</ele>
        <time>2021-06-30T18:23:09Z</time>
      </trkpt>
      <trkpt lat="44.125034" lon="5.180350">
        <ele>303.33917</ele>
        <time>2021-06-30T18:23:10Z</time>
      </trkpt>
      <trkpt lat="44.125034" lon="5.180350">
        <ele>303.22266</ele>
        <time>2021-06-30T18:23:11Z</time>
      </trkpt>
      <trkpt lat="44.125072" lon="5.180324">
        <ele>303.70483</ele>
        <time>2021-06-30T18:23:12Z</time>
      </trkpt>
      <trkpt lat="44.125084" lon="5.180317">
        <ele>304.92737</ele>
        <time>2021-06-30T18:23:13Z</time>
      </trkpt>
      <trkpt lat="44.125175" lon="5.180322">
        <ele>305.92297</ele>
        <time>2021-06-30T18:23:14Z</time>
      </trkpt>
      <trkpt lat="44.125172" lon="5.180355">
        <ele>306.00854</ele>
        <time>2021-06-30T18:23:15Z</time>
      </trkpt>
      <trkpt lat="44.125256" lon="5.180461">
        <ele>306.88647</ele>
        <time>2021-06-30T18:23:16Z</time>
      </trkpt>
      <trkpt lat="44.125294" lon="5.180573">
        <ele>305.37390</ele>
        <time>2021-06-30T18:23:17Z</time>
      </trkpt>
      <trkpt lat="44.125286" lon="5.180682">
        <ele>305.71106</ele>
        <time>2021-06-30T18:23:18Z</time>
      </trkpt>
      <trkpt lat="44.125275" lon="5.180752">
        <ele>305.34314</ele>
        <time>2021-06-30T18:23:19Z</time>
      </trkpt>
      <trkpt lat="44.125256" lon="5.180840">
        <ele>305.16278</ele>
        <time>2021-06-30T18:23:20Z</time>
      </trkpt>
      <trkpt lat="44.125256" lon="5.180840">
        <ele>303.38770</ele>
        <time>2021-06-30T18:23:21Z</time>
      </trkpt>
      <trkpt lat="44.125214" lon="5.181049">
        <ele>303.43713</ele>
        <time>2021-06-30T18:23:22Z</time>
      </trkpt>
      <trkpt lat="44.125168" lon="5.181270">
        <ele>304.14270</ele>
        <time>2021-06-30T18:23:23Z</time>
      </trkpt>
      <trkpt lat="44.125114" lon="5.181503">
        <ele>303.90869</ele>
        <time>2021-06-30T18:23:24Z</time>
      </trkpt>
      <trkpt lat="44.125084" lon="5.181633">
        <ele>302.87561</ele>
        <time>2021-06-30T18:23:25Z</time>
      </trkpt>
      <trkpt lat="44.125053" lon="5.181770">
        <ele>301.35071</ele>
        <time>2021-06-30T18:23:26Z</time>
      </trkpt>
      <trkpt lat="44.125023" lon="5.181893">
        <ele>303.06897</ele>
        <time>2021-06-30T18:23:27Z</time>
      </trkpt>
      <trkpt lat="44.124989" lon="5.182038">
        <ele>304.18298</ele>
        <time>2021-06-30T18:23:28Z</time>
      </trkpt>
      <trkpt lat="44.124985" lon="5.182051">
        <ele>305.34961</ele>
        <time>2021-06-30T18:23:29Z</time>
      </trkpt>
      <trkpt lat="44.124966" lon="5.182137">
        <ele>305.86121</ele>
        <time>2021-06-30T18:23:30Z</time>
      </trkpt>
      <trkpt lat="44.124943" lon="5.182228">
        <ele>306.60327</ele>
        <time>2021-06-30T18:23:31Z</time>
      </trkpt>
      <trkpt lat="44.124905" lon="5.182401">
        <ele>307.90698</ele>
        <time>2021-06-30T18:23:32Z</time>
      </trkpt>
      <trkpt lat="44.124905" lon="5.182401">
        <ele>308.96704</ele>
        <time>2021-06-30T18:23:33Z</time>
      </trkpt>
      <trkpt lat="44.124859" lon="5.182609">
        <ele>309.53625</ele>
        <time>2021-06-30T18:23:34Z</time>
      </trkpt>
      <trkpt lat="44.124817" lon="5.182806">
        <ele>309.91455</ele>
        <time>2021-06-30T18:23:35Z</time>
      </trkpt>
      <trkpt lat="44.124771" lon="5.183020">
        <ele>311.02832</ele>
        <time>2021-06-30T18:23:36Z</time>
      </trkpt>
      <trkpt lat="44.124748" lon="5.183108">
        <ele>311.50537</ele>
        <time>2021-06-30T18:23:37Z</time>
      </trkpt>
      <trkpt lat="44.124725" lon="5.183208">
        <ele>313.26611</ele>
        <time>2021-06-30T18:23:38Z</time>
      </trkpt>
      <trkpt lat="44.124695" lon="5.183334">
        <ele>313.58813</ele>
        <time>2021-06-30T18:23:39Z</time>
      </trkpt>
      <trkpt lat="44.124660" lon="5.183472">
        <ele>313.74286</ele>
        <time>2021-06-30T18:23:40Z</time>
      </trkpt>
      <trkpt lat="44.124630" lon="5.183622">
        <ele>314.18713</ele>
        <time>2021-06-30T18:23:41Z</time>
      </trkpt>
      <trkpt lat="44.124607" lon="5.183727">
        <ele>313.42902</ele>
        <time>2021-06-30T18:23:42Z</time>
      </trkpt>
      <trkpt lat="44.124577" lon="5.183881">
        <ele>313.57477</ele>
        <time>2021-06-30T18:23:43Z</time>
      </trkpt>
      <trkpt lat="44.124577" lon="5.183881">
        <ele>313.31091</ele>
        <time>2021-06-30T18:23:44Z</time>
      </trkpt>
      <trkpt lat="44.124546" lon="5.184010">
        <ele>313.44879</ele>
        <time>2021-06-30T18:23:45Z</time>
      </trkpt>
      <trkpt lat="44.124516" lon="5.184130">
        <ele>313.07532</ele>
        <time>2021-06-30T18:23:46Z</time>
      </trkpt>
      <trkpt lat="44.124470" lon="5.184293">
        <ele>313.73407</ele>
        <time>2021-06-30T18:23:47Z</time>
      </trkpt>
      <trkpt lat="44.124435" lon="5.184426">
        <ele>313.83875</ele>
        <time>2021-06-30T18:23:48Z</time>
      </trkpt>
      <trkpt lat="44.124401" lon="5.184572">
        <ele>314.92340</ele>
        <time>2021-06-30T18:23:49Z</time>
      </trkpt>
      <trkpt lat="44.124363" lon="5.184748">
        <ele>315.37976</ele>
        <time>2021-06-30T18:23:50Z</time>
      </trkpt>
      <trkpt lat="44.124306" lon="5.185007">
        <ele>316.34045</ele>
        <time>2021-06-30T18:23:51Z</time>
      </trkpt>
      <trkpt lat="44.124264" lon="5.185210">
        <ele>316.51636</ele>
        <time>2021-06-30T18:23:52Z</time>
      </trkpt>
      <trkpt lat="44.124199" lon="5.185500">
        <ele>315.72290</ele>
        <time>2021-06-30T18:23:53Z</time>
      </trkpt>
      <trkpt lat="44.124134" lon="5.185800">
        <ele>315.64197</ele>
        <time>2021-06-30T18:23:54Z</time>
      </trkpt>
      <trkpt lat="44.124065" lon="5.186110">
        <ele>314.82898</ele>
        <time>2021-06-30T18:23:55Z</time>
      </trkpt>
      <trkpt lat="44.124001" lon="5.186400">
        <ele>314.29785</ele>
        <time>2021-06-30T18:23:56Z</time>
      </trkpt>
      <trkpt lat="44.123894" lon="5.186868">
        <ele>311.11938</ele>
        <time>2021-06-30T18:23:57Z</time>
      </trkpt>
      <trkpt lat="44.123821" lon="5.187183">
        <ele>312.85498</ele>
        <time>2021-06-30T18:23:58Z</time>
      </trkpt>
      <trkpt lat="44.123745" lon="5.187508">
        <ele>314.48187</ele>
        <time>2021-06-30T18:23:59Z</time>
      </trkpt>
      <trkpt lat="44.123745" lon="5.187508">
        <ele>315.82605</ele>
        <time>2021-06-30T18:24:00Z</time>
      </trkpt>
      <trkpt lat="44.123676" lon="5.187813">
        <ele>317.74713</ele>
        <time>2021-06-30T18:24:01Z</time>
      </trkpt>
      <trkpt lat="44.123604" lon="5.188183">
        <ele>318.28638</ele>
        <time>2021-06-30T18:24:02Z</time>
      </trkpt>
      <trkpt lat="44.123566" lon="5.188474">
        <ele>319.04456</ele>
        <time>2021-06-30T18:24:03Z</time>
      </trkpt>
      <trkpt lat="44.123493" lon="5.188738">
        <ele>320.63708</ele>
        <time>2021-06-30T18:24:04Z</time>
      </trkpt>
      <trkpt lat="44.123383" lon="5.188938">
        <ele>322.12433</ele>
        <time>2021-06-30T18:24:05Z</time>
      </trkpt>
      <trkpt lat="44.123272" lon="5.189130">
        <ele>323.93542</ele>
        <time>2021-06-30T18:24:06Z</time>
      </trkpt>
      <trkpt lat="44.123112" lon="5.189287">
        <ele>324.59949</ele>
        <time>2021-06-30T18:24:07Z</time>
      </trkpt>
      <trkpt lat="44.122875" lon="5.189526">
        <ele>326.68555</ele>
        <time>2021-06-30T18:24:08Z</time>
      </trkpt>
      <trkpt lat="44.122635" lon="5.189720">
        <ele>325.96039</ele>
        <time>2021-06-30T18:24:09Z</time>
      </trkpt>
      <trkpt lat="44.122425" lon="5.189889">
        <ele>326.34442</ele>
        <time>2021-06-30T18:24:10Z</time>
      </trkpt>
      <trkpt lat="44.122425" lon="5.189889">
        <ele>326.50604</ele>
        <time>2021-06-30T18:24:11Z</time>
      </trkpt>
      <trkpt lat="44.122246" lon="5.190065">
        <ele>328.22009</ele>
        <time>2021-06-30T18:24:12Z</time>
      </trkpt>
      <trkpt lat="44.122139" lon="5.190321">
        <ele>330.10614</ele>
        <time>2021-06-30T18:24:13Z</time>
      </trkpt>
      <trkpt lat="44.122120" lon="5.190372">
        <ele>328.78857</ele>
        <time>2021-06-30T18:24:14Z</time>
      </trkpt>
      <trkpt lat="44.122009" lon="5.190638">
        <ele>329.13379</ele>
        <time>2021-06-30T18:24:15Z</time>
      </trkpt>
      <trkpt lat="44.121864" lon="5.190927">
        <ele>329.99756</ele>
        <time>2021-06-30T18:24:16Z</time>
      </trkpt>
      <trkpt lat="44.121773" lon="5.191160">
        <ele>328.44714</ele>
        <time>2021-06-30T18:24:17Z</time>
      </trkpt>
      <trkpt lat="44.121658" lon="5.191454">
        <ele>329.02832</ele>
        <time>2021-06-30T18:24:18Z</time>
      </trkpt>
      <trkpt lat="44.121552" lon="5.191723">
        <ele>328.98798</ele>
        <time>2021-06-30T18:24:19Z</time>
      </trkpt>
      <trkpt lat="44.121552" lon="5.191723">
        <ele>328.14307</ele>
        <time>2021-06-30T18:24:20Z</time>
      </trkpt>
      <trkpt lat="44.121445" lon="5.192036">
        <ele>328.08630</ele>
        <time>2021-06-30T18:24:21Z</time>
      </trkpt>
      <trkpt lat="44.121323" lon="5.192415">
        <ele>328.75116</ele>
        <time>2021-06-30T18:24:22Z</time>
      </trkpt>
      <trkpt lat="44.121231" lon="5.192747">
        <ele>329.30164</ele>
        <time>2021-06-30T18:24:23Z</time>
      </trkpt>
      <trkpt lat="44.121147" lon="5.193057">
        <ele>329.42700</ele>
        <time>2021-06-30T18:24:24Z</time>
      </trkpt>
      <trkpt lat="44.121044" lon="5.193417">
        <ele>330.94263</ele>
        <time>2021-06-30T18:24:25Z</time>
      </trkpt>
      <trkpt lat="44.120960" lon="5.193720">
        <ele>331.67883</ele>
        <time>2021-06-30T18:24:26Z</time>
      </trkpt>
      <trkpt lat="44.120861" lon="5.194004">
        <ele>332.12134</ele>
        <time>2021-06-30T18:24:27Z</time>
      </trkpt>
      <trkpt lat="44.120758" lon="5.194361">
        <ele>332.23169</ele>
        <time>2021-06-30T18:24:28Z</time>
      </trkpt>
      <trkpt lat="44.120689" lon="5.194624">
        <ele>332.43726</ele>
        <time>2021-06-30T18:24:29Z</time>
      </trkpt>
      <trkpt lat="44.120598" lon="5.194956">
        <ele>332.72351</ele>
        <time>2021-06-30T18:24:30Z</time>
      </trkpt>
      <trkpt lat="44.120487" lon="5.195290">
        <ele>335.68402</ele>
        <time>2021-06-30T18:24:31Z</time>
      </trkpt>
      <trkpt lat="44.120380" lon="5.195593">
        <ele>336.38092</ele>
        <time>2021-06-30T18:24:32Z</time>
      </trkpt>
      <trkpt lat="44.120380" lon="5.195593">
        <ele>337.26929</ele>
        <time>2021-06-30T18:24:33Z</time>
      </trkpt>
      <trkpt lat="44.120274" lon="5.195891">
        <ele>337.76404</ele>
        <time>2021-06-30T18:24:34Z</time>
      </trkpt>
      <trkpt lat="44.120178" lon="5.196155">
        <ele>339.09961</ele>
        <time>2021-06-30T18:24:35Z</time>
      </trkpt>
      <trkpt lat="44.120068" lon="5.196391">
        <ele>337.51318</ele>
        <time>2021-06-30T18:24:36Z</time>
      </trkpt>
      <trkpt lat="44.119961" lon="5.196612">
        <ele>337.95911</ele>
        <time>2021-06-30T18:24:37Z</time>
      </trkpt>
      <trkpt lat="44.119862" lon="5.196826">
        <ele>338.19568</ele>
        <time>2021-06-30T18:24:38Z</time>
      </trkpt>
      <trkpt lat="44.119781" lon="5.196997">
        <ele>339.16272</ele>
        <time>2021-06-30T18:24:39Z</time>
      </trkpt>
      <trkpt lat="44.119701" lon="5.197161">
        <ele>340.74756</ele>
        <time>2021-06-30T18:24:40Z</time>
      </trkpt>
      <trkpt lat="44.119625" lon="5.197316">
        <ele>341.96722</ele>
        <time>2021-06-30T18:24:41Z</time>
      </trkpt>
      <trkpt lat="44.119503" lon="5.197560">
        <ele>343.05017</ele>
        <time>2021-06-30T18:24:42Z</time>
      </trkpt>
      <trkpt lat="44.119400" lon="5.197768">
        <ele>342.48853</ele>
        <time>2021-06-30T18:24:43Z</time>
      </trkpt>
      <trkpt lat="44.119282" lon="5.198006">
        <ele>342.96259</ele>
        <time>2021-06-30T18:24:44Z</time>
      </trkpt>
      <trkpt lat="44.119179" lon="5.198211">
        <ele>343.41284</ele>
        <time>2021-06-30T18:24:45Z</time>
      </trkpt>
      <trkpt lat="44.119087" lon="5.198400">
        <ele>343.75488</ele>
        <time>2021-06-30T18:24:46Z</time>
      </trkpt>
      <trkpt lat="44.118996" lon="5.198591">
        <ele>344.52832</ele>
        <time>2021-06-30T18:24:47Z</time>
      </trkpt>
      <trkpt lat="44.118916" lon="5.198762">
        <ele>344.82544</ele>
        <time>2021-06-30T18:24:48Z</time>
      </trkpt>
      <trkpt lat="44.118824" lon="5.198962">
        <ele>345.01868</ele>
        <time>2021-06-30T18:24:49Z</time>
      </trkpt>
      <trkpt lat="44.118824" lon="5.198962">
        <ele>344.98456</ele>
        <time>2021-06-30T18:24:50Z</time>
      </trkpt>
      <trkpt lat="44.118713" lon="5.199204">
        <ele>346.50427</ele>
        <time>2021-06-30T18:24:51Z</time>
      </trkpt>
      <trkpt lat="44.118626" lon="5.199424">
        <ele>346.56531</ele>
        <time>2021-06-30T18:24:52Z</time>
      </trkpt>
      <trkpt lat="44.118549" lon="5.199637">
        <ele>349.01416</ele>
        <time>2021-06-30T18:24:53Z</time>
      </trkpt>
      <trkpt lat="44.118500" lon="5.199829">
        <ele>349.86401</ele>
        <time>2021-06-30T18:24:54Z</time>
      </trkpt>
      <trkpt lat="44.118469" lon="5.199935">
        <ele>351.43909</ele>
        <time>2021-06-30T18:24:55Z</time>
      </trkpt>
      <trkpt lat="44.118439" lon="5.200082">
        <ele>351.81970</ele>
        <time>2021-06-30T18:24:56Z</time>
      </trkpt>
      <trkpt lat="44.118427" lon="5.200142">
        <ele>351.99817</ele>
        <time>2021-06-30T18:24:57Z</time>
      </trkpt>
      <trkpt lat="44.118443" lon="5.200254">
        <ele>353.94116</ele>
        <time>2021-06-30T18:24:58Z</time>
      </trkpt>
      <trkpt lat="44.118488" lon="5.200353">
        <ele>353.73767</ele>
        <time>2021-06-30T18:24:59Z</time>
      </trkpt>
      <trkpt lat="44.118565" lon="5.200442">
        <ele>354.51587</ele>
        <time>2021-06-30T18:25:00Z</time>
      </trkpt>
      <trkpt lat="44.118683" lon="5.200516">
        <ele>355.27826</ele>
        <time>2021-06-30T18:25:01Z</time>
      </trkpt>
      <trkpt lat="44.118870" lon="5.200626">
        <ele>356.30011</ele>
        <time>2021-06-30T18:25:02Z</time>
      </trkpt>
      <trkpt lat="44.119087" lon="5.200754">
        <ele>356.69263</ele>
        <time>2021-06-30T18:25:03Z</time>
      </trkpt>
      <trkpt lat="44.119308" lon="5.200924">
        <ele>356.64093</ele>
        <time>2021-06-30T18:25:04Z</time>
      </trkpt>
      <trkpt lat="44.119308" lon="5.200924">
        <ele>358.00140</ele>
        <time>2021-06-30T18:25:05Z</time>
      </trkpt>
      <trkpt lat="44.119507" lon="5.201145">
        <ele>359.13330</ele>
        <time>2021-06-30T18:25:06Z</time>
      </trkpt>
      <trkpt lat="44.119667" lon="5.201367">
        <ele>360.13049</ele>
        <time>2021-06-30T18:25:07Z</time>
      </trkpt>
      <trkpt lat="44.119789" lon="5.201573">
        <ele>360.70801</ele>
        <time>2021-06-30T18:25:08Z</time>
      </trkpt>
      <trkpt lat="44.119854" lon="5.201779">
        <ele>363.09973</ele>
        <time>2021-06-30T18:25:09Z</time>
      </trkpt>
      <trkpt lat="44.119896" lon="5.202029">
        <ele>363.12097</ele>
        <time>2021-06-30T18:25:10Z</time>
      </trkpt>
      <trkpt lat="44.119938" lon="5.202459">
        <ele>364.94800</ele>
        <time>2021-06-30T18:25:11Z</time>
      </trkpt>
      <trkpt lat="44.119980" lon="5.202886">
        <ele>366.29724</ele>
        <time>2021-06-30T18:25:12Z</time>
      </trkpt>
      <trkpt lat="44.120010" lon="5.203264">
        <ele>366.66040</ele>
        <time>2021-06-30T18:25:13Z</time>
      </trkpt>
      <trkpt lat="44.120049" lon="5.203643">
        <ele>368.85822</ele>
        <time>2021-06-30T18:25:14Z</time>
      </trkpt>
      <trkpt lat="44.120079" lon="5.204011">
        <ele>369.31116</ele>
        <time>2021-06-30T18:25:15Z</time>
      </trkpt>
      <trkpt lat="44.120110" lon="5.204434">
        <ele>370.22461</ele>
        <time>2021-06-30T18:25:16Z</time>
      </trkpt>
      <trkpt lat="44.120129" lon="5.204787">
        <ele>372.28687</ele>
        <time>2021-06-30T18:25:17Z</time>
      </trkpt>
      <trkpt lat="44.120129" lon="5.204787">
        <ele>373.97510</ele>
        <time>2021-06-30T18:25:18Z</time>
      </trkpt>
      <trkpt lat="44.120132" lon="5.205145">
        <ele>375.16272</ele>
        <time>2021-06-30T18:25:19Z</time>
      </trkpt>
      <trkpt lat="44.120117" lon="5.205555">
        <ele>376.73291</ele>
        <time>2021-06-30T18:25:20Z</time>
      </trkpt>
      <trkpt lat="44.120083" lon="5.205932">
        <ele>378.91229</ele>
        <time>2021-06-30T18:25:21Z</time>
      </trkpt>
      <trkpt lat="44.120041" lon="5.206356">
        <ele>380.48828</ele>
        <time>2021-06-30T18:25:22Z</time>
      </trkpt>
      <trkpt lat="44.120003" lon="5.206796">
        <ele>382.12329</ele>
        <time>2021-06-30T18:25:23Z</time>
      </trkpt>
      <trkpt lat="44.119972" lon="5.207184">
        <ele>383.24927</ele>
        <time>2021-06-30T18:25:24Z</time>
      </trkpt>
      <trkpt lat="44.119938" lon="5.207610">
        <ele>384.63428</ele>
        <time>2021-06-30T18:25:25Z</time>
      </trkpt>
      <trkpt lat="44.119892" lon="5.208066">
        <ele>385.77289</ele>
        <time>2021-06-30T18:25:26Z</time>
      </trkpt>
      <trkpt lat="44.119865" lon="5.208353">
        <ele>386.80920</ele>
        <time>2021-06-30T18:25:27Z</time>
      </trkpt>
      <trkpt lat="44.119843" lon="5.208685">
        <ele>387.65967</ele>
        <time>2021-06-30T18:25:28Z</time>
      </trkpt>
      <trkpt lat="44.119858" lon="5.208982">
        <ele>388.63977</ele>
        <time>2021-06-30T18:25:29Z</time>
      </trkpt>
      <trkpt lat="44.119896" lon="5.209369">
        <ele>389.89648</ele>
        <time>2021-06-30T18:25:30Z</time>
      </trkpt>
      <trkpt lat="44.119961" lon="5.209820">
        <ele>391.64905</ele>
        <time>2021-06-30T18:25:31Z</time>
      </trkpt>
      <trkpt lat="44.120033" lon="5.210249">
        <ele>392.82336</ele>
        <time>2021-06-30T18:25:32Z</time>
      </trkpt>
      <trkpt lat="44.120033" lon="5.210249">
        <ele>393.56842</ele>
        <time>2021-06-30T18:25:33Z</time>
      </trkpt>
      <trkpt lat="44.120110" lon="5.210605">
        <ele>395.27759</ele>
        <time>2021-06-30T18:25:34Z</time>
      </trkpt>
      <trkpt lat="44.120190" lon="5.210950">
        <ele>396.63757</ele>
        <time>2021-06-30T18:25:35Z</time>
      </trkpt>
      <trkpt lat="44.120255" lon="5.211243">
        <ele>398.01355</ele>
        <time>2021-06-30T18:25:36Z</time>
      </trkpt>
      <trkpt lat="44.120327" lon="5.211516">
        <ele>399.19855</ele>
        <time>2021-06-30T18:25:37Z</time>
      </trkpt>
      <trkpt lat="44.120396" lon="5.211758">
        <ele>398.88794</ele>
        <time>2021-06-30T18:25:38Z</time>
      </trkpt>
      <trkpt lat="44.120476" lon="5.212040">
        <ele>398.67194</ele>
        <time>2021-06-30T18:25:39Z</time>
      </trkpt>
      <trkpt lat="44.120579" lon="5.212315">
        <ele>399.96161</ele>
        <time>2021-06-30T18:25:40Z</time>
      </trkpt>
      <trkpt lat="44.120743" lon="5.212660">
        <ele>401.52478</ele>
        <time>2021-06-30T18:25:41Z</time>
      </trkpt>
      <trkpt lat="44.120903" lon="5.212953">
        <ele>403.47559</ele>
        <time>2021-06-30T18:25:42Z</time>
      </trkpt>
      <trkpt lat="44.121056" lon="5.213201">
        <ele>404.43463</ele>
        <time>2021-06-30T18:25:43Z</time>
      </trkpt>
      <trkpt lat="44.121212" lon="5.213454">
        <ele>405.56348</ele>
        <time>2021-06-30T18:25:44Z</time>
      </trkpt>
      <trkpt lat="44.121380" lon="5.213736">
        <ele>407.77844</ele>
        <time>2021-06-30T18:25:45Z</time>
      </trkpt>
      <trkpt lat="44.121529" lon="5.214010">
        <ele>409.37756</ele>
        <time>2021-06-30T18:25:46Z</time>
      </trkpt>
      <trkpt lat="44.121529" lon="5.214010">
        <ele>410.25488</ele>
        <time>2021-06-30T18:25:47Z</time>
      </trkpt>
      <trkpt lat="44.121662" lon="5.214266">
        <ele>410.73779</ele>
        <time>2021-06-30T18:25:48Z</time>
      </trkpt>
      <trkpt lat="44.121769" lon="5.214523">
        <ele>410.99292</ele>
        <time>2021-06-30T18:25:49Z</time>
      </trkpt>
      <trkpt lat="44.121872" lon="5.214815">
        <ele>412.77216</ele>
        <time>2021-06-30T18:25:50Z</time>
      </trkpt>
      <trkpt lat="44.121967" lon="5.215094">
        <ele>415.39490</ele>
        <time>2021-06-30T18:25:51Z</time>
      </trkpt>
      <trkpt lat="44.122051" lon="5.215361">
        <ele>416.60681</ele>
        <time>2021-06-30T18:25:52Z</time>
      </trkpt>
      <trkpt lat="44.122120" lon="5.215597">
        <ele>417.09851</ele>
        <time>2021-06-30T18:25:53Z</time>
      </trkpt>
      <trkpt lat="44.122135" lon="5.215830">
        <ele>416.66150</ele>
        <time>2021-06-30T18:25:54Z</time>
      </trkpt>
      <trkpt lat="44.122101" lon="5.216083">
        <ele>416.39136</ele>
        <time>2021-06-30T18:25:55Z</time>
      </trkpt>
      <trkpt lat="44.122070" lon="5.216311">
        <ele>418.76221</ele>
        <time>2021-06-30T18:25:56Z</time>
      </trkpt>
      <trkpt lat="44.122017" lon="5.216597">
        <ele>420.46344</ele>
        <time>2021-06-30T18:25:57Z</time>
      </trkpt>
      <trkpt lat="44.121967" lon="5.216869">
        <ele>422.14673</ele>
        <time>2021-06-30T18:25:58Z</time>
      </trkpt>
      <trkpt lat="44.121895" lon="5.217163">
        <ele>422.37195</ele>
        <time>2021-06-30T18:25:59Z</time>
      </trkpt>
      <trkpt lat="44.121815" lon="5.217443">
        <ele>423.75476</ele>
        <time>2021-06-30T18:26:00Z</time>
      </trkpt>
      <trkpt lat="44.121742" lon="5.217684">
        <ele>425.13086</ele>
        <time>2021-06-30T18:26:01Z</time>
      </trkpt>
      <trkpt lat="44.121742" lon="5.217684">
        <ele>426.28748</ele>
        <time>2021-06-30T18:26:02Z</time>
      </trkpt>
      <trkpt lat="44.121655" lon="5.217987">
        <ele>428.35742</ele>
        <time>2021-06-30T18:26:03Z</time>
      </trkpt>
      <trkpt lat="44.121559" lon="5.218324">
        <ele>429.05194</ele>
        <time>2021-06-30T18:26:04Z</time>
      </trkpt>
      <trkpt lat="44.121464" lon="5.218649">
        <ele>431.42480</ele>
        <time>2021-06-30T18:26:05Z</time>
      </trkpt>
      <trkpt lat="44.121365" lon="5.218977">
        <ele>432.02856</ele>
        <time>2021-06-30T18:26:06Z</time>
      </trkpt>
      <trkpt lat="44.121258" lon="5.219306">
        <ele>432.98468</ele>
        <time>2021-06-30T18:26:07Z</time>
      </trkpt>
      <trkpt lat="44.121147" lon="5.219635">
        <ele>432.90588</ele>
        <time>2021-06-30T18:26:08Z</time>
      </trkpt>
      <trkpt lat="44.121029" lon="5.219999">
        <ele>433.19934</ele>
        <time>2021-06-30T18:26:09Z</time>
      </trkpt>
      <trkpt lat="44.120911" lon="5.220327">
        <ele>433.46631</ele>
        <time>2021-06-30T18:26:10Z</time>
      </trkpt>
      <trkpt lat="44.120773" lon="5.220663">
        <ele>432.82507</ele>
        <time>2021-06-30T18:26:11Z</time>
      </trkpt>
      <trkpt lat="44.120773" lon="5.220663">
        <ele>434.66071</ele>
        <time>2021-06-30T18:26:12Z</time>
      </trkpt>
      <trkpt lat="44.120647" lon="5.220973">
        <ele>436.61304</ele>
        <time>2021-06-30T18:26:13Z</time>
      </trkpt>
      <trkpt lat="44.120556" lon="5.221231">
        <ele>438.62256</ele>
        <time>2021-06-30T18:26:14Z</time>
      </trkpt>
      <trkpt lat="44.120476" lon="5.221499">
        <ele>440.14960</ele>
        <time>2021-06-30T18:26:15Z</time>
      </trkpt>
      <trkpt lat="44.120441" lon="5.221807">
        <ele>440.62531</ele>
        <time>2021-06-30T18:26:16Z</time>
      </trkpt>
      <trkpt lat="44.120365" lon="5.222066">
        <ele>441.62146</ele>
        <time>2021-06-30T18:26:17Z</time>
      </trkpt>
      <trkpt lat="44.120316" lon="5.222337">
        <ele>442.80017</ele>
        <time>2021-06-30T18:26:18Z</time>
      </trkpt>
      <trkpt lat="44.120289" lon="5.222538">
        <ele>443.89282</ele>
        <time>2021-06-30T18:26:19Z</time>
      </trkpt>
      <trkpt lat="44.120289" lon="5.222741">
        <ele>443.79736</ele>
        <time>2021-06-30T18:26:20Z</time>
      </trkpt>
      <trkpt lat="44.120293" lon="5.222891">
        <ele>445.69910</ele>
        <time>2021-06-30T18:26:21Z</time>
      </trkpt>
      <trkpt lat="44.120293" lon="5.222891">
        <ele>447.93945</ele>
        <time>2021-06-30T18:26:22Z</time>
      </trkpt>
      <trkpt lat="44.120323" lon="5.223122">
        <ele>448.77069</ele>
        <time>2021-06-30T18:26:23Z</time>
      </trkpt>
      <trkpt lat="44.120358" lon="5.223296">
        <ele>450.73267</ele>
        <time>2021-06-30T18:26:24Z</time>
      </trkpt>
      <trkpt lat="44.120384" lon="5.223431">
        <ele>452.78210</ele>
        <time>2021-06-30T18:26:25Z</time>
      </trkpt>
      <trkpt lat="44.120434" lon="5.223692">
        <ele>452.88745</ele>
        <time>2021-06-30T18:26:26Z</time>
      </trkpt>
      <trkpt lat="44.120476" lon="5.223981">
        <ele>454.52441</ele>
        <time>2021-06-30T18:26:27Z</time>
      </trkpt>
      <trkpt lat="44.120495" lon="5.224247">
        <ele>455.80957</ele>
        <time>2021-06-30T18:26:28Z</time>
      </trkpt>
      <trkpt lat="44.120495" lon="5.224452">
        <ele>455.38538</ele>
        <time>2021-06-30T18:26:29Z</time>
      </trkpt>
      <trkpt lat="44.120487" lon="5.224671">
        <ele>457.33392</ele>
        <time>2021-06-30T18:26:30Z</time>
      </trkpt>
      <trkpt lat="44.120464" lon="5.224978">
        <ele>459.14221</ele>
        <time>2021-06-30T18:26:31Z</time>
      </trkpt>
      <trkpt lat="44.120434" lon="5.225279">
        <ele>459.96082</ele>
        <time>2021-06-30T18:26:32Z</time>
      </trkpt>
      <trkpt lat="44.120388" lon="5.225635">
        <ele>461.91400</ele>
        <time>2021-06-30T18:26:33Z</time>
      </trkpt>
      <trkpt lat="44.120342" lon="5.225987">
        <ele>463.01294</ele>
        <time>2021-06-30T18:26:34Z</time>
      </trkpt>
      <trkpt lat="44.120342" lon="5.225987">
        <ele>464.53198</ele>
        <time>2021-06-30T18:26:35Z</time>
      </trkpt>
      <trkpt lat="44.120304" lon="5.226280">
        <ele>464.62415</ele>
        <time>2021-06-30T18:26:36Z</time>
      </trkpt>
      <trkpt lat="44.120258" lon="5.226604">
        <ele>466.38098</ele>
        <time>2021-06-30T18:26:37Z</time>
      </trkpt>
      <trkpt lat="44.120228" lon="5.226953">
        <ele>467.82172</ele>
        <time>2021-06-30T18:26:38Z</time>
      </trkpt>
      <trkpt lat="44.120216" lon="5.227266">
        <ele>469.97894</ele>
        <time>2021-06-30T18:26:39Z</time>
      </trkpt>
      <trkpt lat="44.120216" lon="5.227589">
        <ele>472.47229</ele>
        <time>2021-06-30T18:26:40Z</time>
      </trkpt>
      <trkpt lat="44.120235" lon="5.227915">
        <ele>474.17804</ele>
        <time>2021-06-30T18:26:41Z</time>
      </trkpt>
      <trkpt lat="44.120293" lon="5.228324">
        <ele>475.59595</ele>
        <time>2021-06-30T18:26:42Z</time>
      </trkpt>
      <trkpt lat="44.120335" lon="5.228579">
        <ele>477.26453</ele>
        <time>2021-06-30T18:26:43Z</time>
      </trkpt>
      <trkpt lat="44.120392" lon="5.228892">
        <ele>479.00146</ele>
        <time>2021-06-30T18:26:44Z</time>
      </trkpt>
      <trkpt lat="44.120438" lon="5.229232">
        <ele>481.47461</ele>
        <time>2021-06-30T18:26:45Z</time>
      </trkpt>
      <trkpt lat="44.120483" lon="5.229501">
        <ele>482.86938</ele>
        <time>2021-06-30T18:26:46Z</time>
      </trkpt>
      <trkpt lat="44.120518" lon="5.229763">
        <ele>484.01587</ele>
        <time>2021-06-30T18:26:47Z</time>
      </trkpt>
      <trkpt lat="44.120541" lon="5.230006">
        <ele>485.61597</ele>
        <time>2021-06-30T18:26:48Z</time>
      </trkpt>
      <trkpt lat="44.120533" lon="5.230230">
        <ele>486.50073</ele>
        <time>2021-06-30T18:26:49Z</time>
      </trkpt>
      <trkpt lat="44.120533" lon="5.230230">
        <ele>488.69824</ele>
        <time>2021-06-30T18:26:50Z</time>
      </trkpt>
      <trkpt lat="44.120483" lon="5.230447">
        <ele>490.44775</ele>
        <time>2021-06-30T18:26:51Z</time>
      </trkpt>
      <trkpt lat="44.120380" lon="5.230662">
        <ele>489.95959</ele>
        <time>2021-06-30T18:26:52Z</time>
      </trkpt>
      <trkpt lat="44.120266" lon="5.230847">
        <ele>490.71106</ele>
        <time>2021-06-30T18:26:53Z</time>
      </trkpt>
      <trkpt lat="44.120049" lon="5.231142">
        <ele>491.75220</ele>
        <time>2021-06-30T18:26:54Z</time>
      </trkpt>
      <trkpt lat="44.119877" lon="5.231375">
        <ele>494.22974</ele>
        <time>2021-06-30T18:26:55Z</time>
      </trkpt>
      <trkpt lat="44.119678" lon="5.231641">
        <ele>495.34937</ele>
        <time>2021-06-30T18:26:56Z</time>
      </trkpt>
      <trkpt lat="44.119511" lon="5.231874">
        <ele>497.51025</ele>
        <time>2021-06-30T18:26:57Z</time>
      </trkpt>
      <trkpt lat="44.119316" lon="5.232134">
        <ele>499.46680</ele>
        <time>2021-06-30T18:26:58Z</time>
      </trkpt>
      <trkpt lat="44.119122" lon="5.232400">
        <ele>502.04285</ele>
        <time>2021-06-30T18:26:59Z</time>
      </trkpt>
      <trkpt lat="44.118938" lon="5.232651">
        <ele>503.85864</ele>
        <time>2021-06-30T18:27:00Z</time>
      </trkpt>
      <trkpt lat="44.118755" lon="5.232901">
        <ele>506.08643</ele>
        <time>2021-06-30T18:27:01Z</time>
      </trkpt>
      <trkpt lat="44.118755" lon="5.232901">
        <ele>508.28918</ele>
        <time>2021-06-30T18:27:02Z</time>
      </trkpt>
      <trkpt lat="44.118576" lon="5.233132">
        <ele>510.77527</ele>
        <time>2021-06-30T18:27:03Z</time>
      </trkpt>
      <trkpt lat="44.118385" lon="5.233398">
        <ele>512.74170</ele>
        <time>2021-06-30T18:27:04Z</time>
      </trkpt>
      <trkpt lat="44.118210" lon="5.233645">
        <ele>514.75732</ele>
        <time>2021-06-30T18:27:05Z</time>
      </trkpt>
      <trkpt lat="44.118092" lon="5.233816">
        <ele>515.49756</ele>
        <time>2021-06-30T18:27:06Z</time>
      </trkpt>
      <trkpt lat="44.117996" lon="5.233977">
        <ele>517.07788</ele>
        <time>2021-06-30T18:27:07Z</time>
      </trkpt>
      <trkpt lat="44.117889" lon="5.234213">
        <ele>517.77563</ele>
        <time>2021-06-30T18:27:08Z</time>
      </trkpt>
      <trkpt lat="44.117821" lon="5.234478">
        <ele>518.20447</ele>
        <time>2021-06-30T18:27:09Z</time>
      </trkpt>
      <trkpt lat="44.117756" lon="5.234751">
        <ele>518.65063</ele>
        <time>2021-06-30T18:27:10Z</time>
      </trkpt>
      <trkpt lat="44.117645" lon="5.234966">
        <ele>519.36572</ele>
        <time>2021-06-30T18:27:11Z</time>
      </trkpt>
      <trkpt lat="44.117512" lon="5.235188">
        <ele>520.47656</ele>
        <time>2021-06-30T18:27:12Z</time>
      </trkpt>
      <trkpt lat="44.117462" lon="5.235299">
        <ele>520.95837</ele>
        <time>2021-06-30T18:27:13Z</time>
      </trkpt>
      <trkpt lat="44.117416" lon="5.235432">
        <ele>521.52881</ele>
        <time>2021-06-30T18:27:14Z</time>
      </trkpt>
      <trkpt lat="44.117424" lon="5.235624">
        <ele>521.10559</ele>
        <time>2021-06-30T18:27:15Z</time>
      </trkpt>
      <trkpt lat="44.117455" lon="5.235839">
        <ele>521.85498</ele>
        <time>2021-06-30T18:27:16Z</time>
      </trkpt>
      <trkpt lat="44.117489" lon="5.236100">
        <ele>522.49292</ele>
        <time>2021-06-30T18:27:17Z</time>
      </trkpt>
      <trkpt lat="44.117489" lon="5.236100">
        <ele>522.33521</ele>
        <time>2021-06-30T18:27:18Z</time>
      </trkpt>
      <trkpt lat="44.117523" lon="5.236357">
        <ele>522.82886</ele>
        <time>2021-06-30T18:27:19Z</time>
      </trkpt>
      <trkpt lat="44.117542" lon="5.236597">
        <ele>523.13086</ele>
        <time>2021-06-30T18:27:20Z</time>
      </trkpt>
      <trkpt lat="44.117538" lon="5.236841">
        <ele>525.20410</ele>
        <time>2021-06-30T18:27:21Z</time>
      </trkpt>
      <trkpt lat="44.117508" lon="5.237140">
        <ele>526.25146</ele>
        <time>2021-06-30T18:27:22Z</time>
      </trkpt>
      <trkpt lat="44.117455" lon="5.237504">
        <ele>526.82166</ele>
        <time>2021-06-30T18:27:23Z</time>
      </trkpt>
      <trkpt lat="44.117416" lon="5.237746">
        <ele>528.47852</ele>
        <time>2021-06-30T18:27:24Z</time>
      </trkpt>
      <trkpt lat="44.117367" lon="5.237973">
        <ele>529.78284</ele>
        <time>2021-06-30T18:27:25Z</time>
      </trkpt>
      <trkpt lat="44.117306" lon="5.238201">
        <ele>528.53809</ele>
        <time>2021-06-30T18:27:26Z</time>
      </trkpt>
      <trkpt lat="44.117214" lon="5.238394">
        <ele>529.77222</ele>
        <time>2021-06-30T18:27:27Z</time>
      </trkpt>
      <trkpt lat="44.117043" lon="5.238651">
        <ele>531.75098</ele>
        <time>2021-06-30T18:27:28Z</time>
      </trkpt>
      <trkpt lat="44.116879" lon="5.238867">
        <ele>532.22900</ele>
        <time>2021-06-30T18:27:29Z</time>
      </trkpt>
      <trkpt lat="44.116711" lon="5.239067">
        <ele>532.16199</ele>
        <time>2021-06-30T18:27:30Z</time>
      </trkpt>
      <trkpt lat="44.116711" lon="5.239067">
        <ele>531.65625</ele>
        <time>2021-06-30T18:27:31Z</time>
      </trkpt>
      <trkpt lat="44.116531" lon="5.239289">
        <ele>532.29053</ele>
        <time>2021-06-30T18:27:32Z</time>
      </trkpt>
      <trkpt lat="44.116371" lon="5.239483">
        <ele>531.77808</ele>
        <time>2021-06-30T18:27:33Z</time>
      </trkpt>
      <trkpt lat="44.116226" lon="5.239662">
        <ele>531.53442</ele>
        <time>2021-06-30T18:27:34Z</time>
      </trkpt>
      <trkpt lat="44.116081" lon="5.239835">
        <ele>531.39771</ele>
        <time>2021-06-30T18:27:35Z</time>
      </trkpt>
      <trkpt lat="44.115959" lon="5.239989">
        <ele>532.33643</ele>
        <time>2021-06-30T18:27:36Z</time>
      </trkpt>
      <trkpt lat="44.115791" lon="5.240154">
        <ele>529.17163</ele>
        <time>2021-06-30T18:27:37Z</time>
      </trkpt>
      <trkpt lat="44.115646" lon="5.240220">
        <ele>528.27173</ele>
        <time>2021-06-30T18:27:38Z</time>
      </trkpt>
      <trkpt lat="44.115433" lon="5.240278">
        <ele>528.35059</ele>
        <time>2021-06-30T18:27:39Z</time>
      </trkpt>
      <trkpt lat="44.115196" lon="5.240326">
        <ele>529.86658</ele>
        <time>2021-06-30T18:27:40Z</time>
      </trkpt>
      <trkpt lat="44.114967" lon="5.240346">
        <ele>530.49744</ele>
        <time>2021-06-30T18:27:41Z</time>
      </trkpt>
      <trkpt lat="44.114967" lon="5.240346">
        <ele>530.69580</ele>
        <time>2021-06-30T18:27:42Z</time>
      </trkpt>
      <trkpt lat="44.114845" lon="5.240292">
        <ele>531.68054</ele>
        <time>2021-06-30T18:27:43Z</time>
      </trkpt>
      <trkpt lat="44.114712" lon="5.240204">
        <ele>533.80273</ele>
        <time>2021-06-30T18:27:44Z</time>
      </trkpt>
      <trkpt lat="44.114571" lon="5.240081">
        <ele>533.34656</ele>
        <time>2021-06-30T18:27:45Z</time>
      </trkpt>
      <trkpt lat="44.114460" lon="5.239983">
        <ele>534.47314</ele>
        <time>2021-06-30T18:27:46Z</time>
      </trkpt>
      <trkpt lat="44.114288" lon="5.239856">
        <ele>535.01099</ele>
        <time>2021-06-30T18:27:47Z</time>
      </trkpt>
      <trkpt lat="44.114147" lon="5.239776">
        <ele>535.53088</ele>
        <time>2021-06-30T18:27:48Z</time>
      </trkpt>
      <trkpt lat="44.113953" lon="5.239713">
        <ele>536.03455</ele>
        <time>2021-06-30T18:27:49Z</time>
      </trkpt>
      <trkpt lat="44.113789" lon="5.239693">
        <ele>537.97461</ele>
        <time>2021-06-30T18:27:50Z</time>
      </trkpt>
      <trkpt lat="44.113632" lon="5.239686">
        <ele>538.58398</ele>
        <time>2021-06-30T18:27:51Z</time>
      </trkpt>
      <trkpt lat="44.113571" lon="5.239699">
        <ele>538.23193</ele>
        <time>2021-06-30T18:27:52Z</time>
      </trkpt>
      <trkpt lat="44.113537" lon="5.239713">
        <ele>539.23450</ele>
        <time>2021-06-30T18:27:53Z</time>
      </trkpt>
      <trkpt lat="44.113480" lon="5.239770">
        <ele>541.08862</ele>
        <time>2021-06-30T18:27:54Z</time>
      </trkpt>
      <trkpt lat="44.113441" lon="5.239845">
        <ele>542.37671</ele>
        <time>2021-06-30T18:27:55Z</time>
      </trkpt>
      <trkpt lat="44.113441" lon="5.239845">
        <ele>544.49805</ele>
        <time>2021-06-30T18:27:56Z</time>
      </trkpt>
      <trkpt lat="44.113503" lon="5.239904">
        <ele>545.32056</ele>
        <time>2021-06-30T18:27:57Z</time>
      </trkpt>
      <trkpt lat="44.113579" lon="5.239946">
        <ele>543.75537</ele>
        <time>2021-06-30T18:27:58Z</time>
      </trkpt>
      <trkpt lat="44.113659" lon="5.239990">
        <ele>543.09167</ele>
        <time>2021-06-30T18:27:59Z</time>
      </trkpt>
      <trkpt lat="44.113785" lon="5.240051">
        <ele>542.07764</ele>
        <time>2021-06-30T18:28:00Z</time>
      </trkpt>
      <trkpt lat="44.114056" lon="5.240249">
        <ele>542.27734</ele>
        <time>2021-06-30T18:28:01Z</time>
      </trkpt>
      <trkpt lat="44.114128" lon="5.240335">
        <ele>543.33130</ele>
        <time>2021-06-30T18:28:02Z</time>
      </trkpt>
      <trkpt lat="44.114246" lon="5.240496">
        <ele>544.61145</ele>
        <time>2021-06-30T18:28:03Z</time>
      </trkpt>
      <trkpt lat="44.114464" lon="5.240801">
        <ele>545.07312</ele>
        <time>2021-06-30T18:28:04Z</time>
      </trkpt>
      <trkpt lat="44.114586" lon="5.240984">
        <ele>545.93164</ele>
        <time>2021-06-30T18:28:05Z</time>
      </trkpt>
      <trkpt lat="44.114738" lon="5.241204">
        <ele>548.22302</ele>
        <time>2021-06-30T18:28:06Z</time>
      </trkpt>
      <trkpt lat="44.114864" lon="5.241370">
        <ele>549.75781</ele>
        <time>2021-06-30T18:28:07Z</time>
      </trkpt>
      <trkpt lat="44.114864" lon="5.241370">
        <ele>551.50256</ele>
        <time>2021-06-30T18:28:08Z</time>
      </trkpt>
      <trkpt lat="44.114983" lon="5.241499">
        <ele>552.12183</ele>
        <time>2021-06-30T18:28:09Z</time>
      </trkpt>
      <trkpt lat="44.115128" lon="5.241648">
        <ele>550.30322</ele>
        <time>2021-06-30T18:28:10Z</time>
      </trkpt>
      <trkpt lat="44.115299" lon="5.241783">
        <ele>552.19702</ele>
        <time>2021-06-30T18:28:11Z</time>
      </trkpt>
      <trkpt lat="44.115532" lon="5.241938">
        <ele>553.13660</ele>
        <time>2021-06-30T18:28:12Z</time>
      </trkpt>
      <trkpt lat="44.115707" lon="5.242060">
        <ele>556.75732</ele>
        <time>2021-06-30T18:28:13Z</time>
      </trkpt>
      <trkpt lat="44.115894" lon="5.242207">
        <ele>557.43042</ele>
        <time>2021-06-30T18:28:14Z</time>
      </trkpt>
      <trkpt lat="44.115974" lon="5.242310">
        <ele>559.44580</ele>
        <time>2021-06-30T18:28:15Z</time>
      </trkpt>
      <trkpt lat="44.116055" lon="5.242498">
        <ele>561.55627</ele>
        <time>2021-06-30T18:28:16Z</time>
      </trkpt>
      <trkpt lat="44.116085" lon="5.242610">
        <ele>564.95459</ele>
        <time>2021-06-30T18:28:17Z</time>
      </trkpt>
      <trkpt lat="44.116093" lon="5.242695">
        <ele>565.99536</ele>
        <time>2021-06-30T18:28:18Z</time>
      </trkpt>
      <trkpt lat="44.116066" lon="5.242841">
        <ele>566.72937</ele>
        <time>2021-06-30T18:28:19Z</time>
      </trkpt>
      <trkpt lat="44.116001" lon="5.242933">
        <ele>567.94702</ele>
        <time>2021-06-30T18:28:20Z</time>
      </trkpt>
      <trkpt lat="44.115902" lon="5.243063">
        <ele>568.17700</ele>
        <time>2021-06-30T18:28:21Z</time>
      </trkpt>
      <trkpt lat="44.115768" lon="5.243240">
        <ele>569.89429</ele>
        <time>2021-06-30T18:28:22Z</time>
      </trkpt>
      <trkpt lat="44.115608" lon="5.243445">
        <ele>570.31677</ele>
        <time>2021-06-30T18:28:23Z</time>
      </trkpt>
      <trkpt lat="44.115482" lon="5.243674">
        <ele>573.19507</ele>
        <time>2021-06-30T18:28:24Z</time>
      </trkpt>
      <trkpt lat="44.115482" lon="5.243674">
        <ele>577.90430</ele>
        <time>2021-06-30T18:28:25Z</time>
      </trkpt>
      <trkpt lat="44.115452" lon="5.243887">
        <ele>578.84839</ele>
        <time>2021-06-30T18:28:26Z</time>
      </trkpt>
      <trkpt lat="44.115463" lon="5.244117">
        <ele>580.62158</ele>
        <time>2021-06-30T18:28:27Z</time>
      </trkpt>
      <trkpt lat="44.115520" lon="5.244338">
        <ele>581.86169</ele>
        <time>2021-06-30T18:28:28Z</time>
      </trkpt>
      <trkpt lat="44.115608" lon="5.244484">
        <ele>581.89038</ele>
        <time>2021-06-30T18:28:29Z</time>
      </trkpt>
      <trkpt lat="44.115711" lon="5.244608">
        <ele>581.93884</ele>
        <time>2021-06-30T18:28:30Z</time>
      </trkpt>
      <trkpt lat="44.115826" lon="5.244744">
        <ele>584.71960</ele>
        <time>2021-06-30T18:28:31Z</time>
      </trkpt>
      <trkpt lat="44.116035" lon="5.244996">
        <ele>586.45728</ele>
        <time>2021-06-30T18:28:32Z</time>
      </trkpt>
      <trkpt lat="44.116379" lon="5.245411">
        <ele>588.78674</ele>
        <time>2021-06-30T18:28:33Z</time>
      </trkpt>
      <trkpt lat="44.116558" lon="5.245624">
        <ele>591.40967</ele>
        <time>2021-06-30T18:28:34Z</time>
      </trkpt>
      <trkpt lat="44.116558" lon="5.245624">
        <ele>593.78650</ele>
        <time>2021-06-30T18:28:35Z</time>
      </trkpt>
      <trkpt lat="44.116768" lon="5.245878">
        <ele>595.52661</ele>
        <time>2021-06-30T18:28:36Z</time>
      </trkpt>
      <trkpt lat="44.116943" lon="5.246070">
        <ele>596.83618</ele>
        <time>2021-06-30T18:28:37Z</time>
      </trkpt>
      <trkpt lat="44.117100" lon="5.246229">
        <ele>598.05957</ele>
        <time>2021-06-30T18:28:38Z</time>
      </trkpt>
      <trkpt lat="44.117283" lon="5.246420">
        <ele>599.47607</ele>
        <time>2021-06-30T18:28:39Z</time>
      </trkpt>
      <trkpt lat="44.117474" lon="5.246616">
        <ele>600.49463</ele>
        <time>2021-06-30T18:28:40Z</time>
      </trkpt>
      <trkpt lat="44.117645" lon="5.246795">
        <ele>601.02271</ele>
        <time>2021-06-30T18:28:41Z</time>
      </trkpt>
      <trkpt lat="44.117813" lon="5.246969">
        <ele>602.06641</ele>
        <time>2021-06-30T18:28:42Z</time>
      </trkpt>
      <trkpt lat="44.118023" lon="5.247178">
        <ele>602.12964</ele>
        <time>2021-06-30T18:28:43Z</time>
      </trkpt>
      <trkpt lat="44.118256" lon="5.247396">
        <ele>604.84839</ele>
        <time>2021-06-30T18:28:44Z</time>
      </trkpt>
      <trkpt lat="44.118458" lon="5.247584">
        <ele>604.64624</ele>
        <time>2021-06-30T18:28:45Z</time>
      </trkpt>
      <trkpt lat="44.118458" lon="5.247584">
        <ele>606.41968</ele>
        <time>2021-06-30T18:28:46Z</time>
      </trkpt>
      <trkpt lat="44.118687" lon="5.247799">
        <ele>605.31555</ele>
        <time>2021-06-30T18:28:47Z</time>
      </trkpt>
      <trkpt lat="44.118855" lon="5.247888">
        <ele>607.90576</ele>
        <time>2021-06-30T18:28:48Z</time>
      </trkpt>
      <trkpt lat="44.119019" lon="5.247930">
        <ele>608.52710</ele>
        <time>2021-06-30T18:28:49Z</time>
      </trkpt>
      <trkpt lat="44.119171" lon="5.247969">
        <ele>610.58960</ele>
        <time>2021-06-30T18:28:50Z</time>
      </trkpt>
      <trkpt lat="44.119347" lon="5.248030">
        <ele>610.54846</ele>
        <time>2021-06-30T18:28:51Z</time>
      </trkpt>
      <trkpt lat="44.119530" lon="5.248196">
        <ele>611.20386</ele>
        <time>2021-06-30T18:28:52Z</time>
      </trkpt>
      <trkpt lat="44.119675" lon="5.248324">
        <ele>611.42749</ele>
        <time>2021-06-30T18:28:53Z</time>
      </trkpt>
      <trkpt lat="44.119862" lon="5.248476">
        <ele>613.48999</ele>
        <time>2021-06-30T18:28:54Z</time>
      </trkpt>
      <trkpt lat="44.120018" lon="5.248559">
        <ele>614.55115</ele>
        <time>2021-06-30T18:28:55Z</time>
      </trkpt>
      <trkpt lat="44.120193" lon="5.248613">
        <ele>614.68701</ele>
        <time>2021-06-30T18:28:56Z</time>
      </trkpt>
      <trkpt lat="44.120193" lon="5.248613">
        <ele>616.54150</ele>
        <time>2021-06-30T18:28:57Z</time>
      </trkpt>
      <trkpt lat="44.120396" lon="5.248646">
        <ele>617.21460</ele>
        <time>2021-06-30T18:28:58Z</time>
      </trkpt>
      <trkpt lat="44.120529" lon="5.248668">
        <ele>617.65454</ele>
        <time>2021-06-30T18:28:59Z</time>
      </trkpt>
      <trkpt lat="44.120621" lon="5.248677">
        <ele>617.66650</ele>
        <time>2021-06-30T18:29:00Z</time>
      </trkpt>
      <trkpt lat="44.120792" lon="5.248689">
        <ele>618.24011</ele>
        <time>2021-06-30T18:29:01Z</time>
      </trkpt>
      <trkpt lat="44.120941" lon="5.248700">
        <ele>619.28516</ele>
        <time>2021-06-30T18:29:02Z</time>
      </trkpt>
      <trkpt lat="44.121048" lon="5.248882">
        <ele>646.75922</ele>
        <time>2021-06-30T18:29:03Z</time>
      </trkpt>
      <trkpt lat="44.121090" lon="5.248984">
        <ele>649.21155</ele>
        <time>2021-06-30T18:29:04Z</time>
      </trkpt>
      <trkpt lat="44.121105" lon="5.249021">
        <ele>650.11444</ele>
        <time>2021-06-30T18:29:05Z</time>
      </trkpt>
      <trkpt lat="44.121208" lon="5.249289">
        <ele>650.36865</ele>
        <time>2021-06-30T18:29:06Z</time>
      </trkpt>
      <trkpt lat="44.121300" lon="5.249453">
        <ele>650.80579</ele>
        <time>2021-06-30T18:29:07Z</time>
      </trkpt>
      <trkpt lat="44.121437" lon="5.249472">
        <ele>652.70618</ele>
        <time>2021-06-30T18:29:08Z</time>
      </trkpt>
      <trkpt lat="44.121490" lon="5.249445">
        <ele>654.01038</ele>
        <time>2021-06-30T18:29:09Z</time>
      </trkpt>
      <trkpt lat="44.121555" lon="5.249386">
        <ele>656.34021</ele>
        <time>2021-06-30T18:29:10Z</time>
      </trkpt>
      <trkpt lat="44.121841" lon="5.249592">
        <ele>657.86401</ele>
        <time>2021-06-30T18:29:11Z</time>
      </trkpt>
      <trkpt lat="44.121929" lon="5.249576">
        <ele>658.23236</ele>
        <time>2021-06-30T18:29:12Z</time>
      </trkpt>
      <trkpt lat="44.121929" lon="5.249576">
        <ele>659.11676</ele>
        <time>2021-06-30T18:29:13Z</time>
      </trkpt>
      <trkpt lat="44.122204" lon="5.249451">
        <ele>661.87500</ele>
        <time>2021-06-30T18:29:14Z</time>
      </trkpt>
      <trkpt lat="44.122326" lon="5.249468">
        <ele>663.91608</ele>
        <time>2021-06-30T18:29:15Z</time>
      </trkpt>
      <trkpt lat="44.122456" lon="5.249502">
        <ele>666.24628</ele>
        <time>2021-06-30T18:29:16Z</time>
      </trkpt>
      <trkpt lat="44.122631" lon="5.249672">
        <ele>661.50317</ele>
        <time>2021-06-30T18:29:17Z</time>
      </trkpt>
      <trkpt lat="44.122875" lon="5.249886">
        <ele>659.76953</ele>
        <time>2021-06-30T18:29:18Z</time>
      </trkpt>
      <trkpt lat="44.122936" lon="5.250636">
        <ele>659.31226</ele>
        <time>2021-06-30T18:29:19Z</time>
      </trkpt>
      <trkpt lat="44.123108" lon="5.250915">
        <ele>659.83508</ele>
        <time>2021-06-30T18:29:20Z</time>
      </trkpt>
      <trkpt lat="44.123302" lon="5.251229">
        <ele>660.98047</ele>
        <time>2021-06-30T18:29:21Z</time>
      </trkpt>
      <trkpt lat="44.123432" lon="5.251445">
        <ele>662.72290</ele>
        <time>2021-06-30T18:29:22Z</time>
      </trkpt>
      <trkpt lat="44.123432" lon="5.251445">
        <ele>664.05737</ele>
        <time>2021-06-30T18:29:23Z</time>
      </trkpt>
      <trkpt lat="44.123615" lon="5.251740">
        <ele>666.64844</ele>
        <time>2021-06-30T18:29:24Z</time>
      </trkpt>
      <trkpt lat="44.123775" lon="5.252000">
        <ele>671.49536</ele>
        <time>2021-06-30T18:29:25Z</time>
      </trkpt>
      <trkpt lat="44.123932" lon="5.252252">
        <ele>676.55750</ele>
        <time>2021-06-30T18:29:26Z</time>
      </trkpt>
      <trkpt lat="44.124119" lon="5.252553">
        <ele>679.82739</ele>
        <time>2021-06-30T18:29:27Z</time>
      </trkpt>
      <trkpt lat="44.124283" lon="5.252828">
        <ele>681.87683</ele>
        <time>2021-06-30T18:29:28Z</time>
      </trkpt>
      <trkpt lat="44.124416" lon="5.253059">
        <ele>683.12769</ele>
        <time>2021-06-30T18:29:29Z</time>
      </trkpt>
      <trkpt lat="44.124554" lon="5.253303">
        <ele>687.21533</ele>
        <time>2021-06-30T18:29:30Z</time>
      </trkpt>
      <trkpt lat="44.124619" lon="5.253505">
        <ele>688.98267</ele>
        <time>2021-06-30T18:29:31Z</time>
      </trkpt>
      <trkpt lat="44.124626" lon="5.253688">
        <ele>690.58142</ele>
        <time>2021-06-30T18:29:32Z</time>
      </trkpt>
      <trkpt lat="44.124626" lon="5.253957">
        <ele>692.55273</ele>
        <time>2021-06-30T18:29:33Z</time>
      </trkpt>
      <trkpt lat="44.124626" lon="5.254144">
        <ele>695.15405</ele>
        <time>2021-06-30T18:29:34Z</time>
      </trkpt>
      <trkpt lat="44.125072" lon="5.254305">
        <ele>695.31665</ele>
        <time>2021-06-30T18:29:35Z</time>
      </trkpt>
      <trkpt lat="44.125072" lon="5.254305">
        <ele>696.26440</ele>
        <time>2021-06-30T18:29:36Z</time>
      </trkpt>
      <trkpt lat="44.125179" lon="5.254558">
        <ele>696.95935</ele>
        <time>2021-06-30T18:29:37Z</time>
      </trkpt>
      <trkpt lat="44.125107" lon="5.255013">
        <ele>702.74512</ele>
        <time>2021-06-30T18:29:38Z</time>
      </trkpt>
      <trkpt lat="44.125038" lon="5.255361">
        <ele>703.64319</ele>
        <time>2021-06-30T18:29:39Z</time>
      </trkpt>
      <trkpt lat="44.124649" lon="5.255821">
        <ele>710.33301</ele>
        <time>2021-06-30T18:29:40Z</time>
      </trkpt>
      <trkpt lat="44.124718" lon="5.256143">
        <ele>713.49768</ele>
        <time>2021-06-30T18:29:41Z</time>
      </trkpt>
      <trkpt lat="44.124840" lon="5.256668">
        <ele>717.19922</ele>
        <time>2021-06-30T18:29:42Z</time>
      </trkpt>
      <trkpt lat="44.124905" lon="5.256954">
        <ele>718.32544</ele>
        <time>2021-06-30T18:29:43Z</time>
      </trkpt>
      <trkpt lat="44.124981" lon="5.257261">
        <ele>723.16711</ele>
        <time>2021-06-30T18:29:44Z</time>
      </trkpt>
      <trkpt lat="44.125050" lon="5.257556">
        <ele>722.27319</ele>
        <time>2021-06-30T18:29:45Z</time>
      </trkpt>
      <trkpt lat="44.125069" lon="5.257639">
        <ele>724.52612</ele>
        <time>2021-06-30T18:29:46Z</time>
      </trkpt>
      <trkpt lat="44.125114" lon="5.257810">
        <ele>728.83350</ele>
        <time>2021-06-30T18:29:47Z</time>
      </trkpt>
      <trkpt lat="44.125134" lon="5.257944">
        <ele>730.79395</ele>
        <time>2021-06-30T18:29:48Z</time>
      </trkpt>
      <trkpt lat="44.125134" lon="5.257944">
        <ele>731.92712</ele>
        <time>2021-06-30T18:29:49Z</time>
      </trkpt>
      <trkpt lat="44.125103" lon="5.258119">
        <ele>732.10938</ele>
        <time>2021-06-30T18:29:50Z</time>
      </trkpt>
      <trkpt lat="44.125057" lon="5.258201">
        <ele>734.12573</ele>
        <time>2021-06-30T18:29:51Z</time>
      </trkpt>
      <trkpt lat="44.124992" lon="5.258312">
        <ele>737.69397</ele>
        <time>2021-06-30T18:29:52Z</time>
      </trkpt>
      <trkpt lat="44.124947" lon="5.258392">
        <ele>738.06812</ele>
        <time>2021-06-30T18:29:53Z</time>
      </trkpt>
      <trkpt lat="44.124905" lon="5.258450">
        <ele>739.97559</ele>
        <time>2021-06-30T18:29:54Z</time>
      </trkpt>
      <trkpt lat="44.124847" lon="5.258529">
        <ele>742.94873</ele>
        <time>2021-06-30T18:29:55Z</time>
      </trkpt>
      <trkpt lat="44.124832" lon="5.258549">
        <ele>743.77539</ele>
        <time>2021-06-30T18:29:56Z</time>
      </trkpt>
      <trkpt lat="44.124775" lon="5.258629">
        <ele>745.24609</ele>
        <time>2021-06-30T18:29:57Z</time>
      </trkpt>
      <trkpt lat="44.124733" lon="5.258690">
        <ele>743.33984</ele>
        <time>2021-06-30T18:29:58Z</time>
      </trkpt>
      <trkpt lat="44.124676" lon="5.258767">
        <ele>743.36157</ele>
        <time>2021-06-30T18:29:59Z</time>
      </trkpt>
      <trkpt lat="44.124603" lon="5.258869">
        <ele>744.65918</ele>
        <time>2021-06-30T18:30:00Z</time>
      </trkpt>
      <trkpt lat="44.124573" lon="5.258907">
        <ele>744.75842</ele>
        <time>2021-06-30T18:30:01Z</time>
      </trkpt>
      <trkpt lat="44.124554" lon="5.258934">
        <ele>745.07617</ele>
        <time>2021-06-30T18:30:02Z</time>
      </trkpt>
      <trkpt lat="44.124516" lon="5.258980">
        <ele>741.71295</ele>
        <time>2021-06-30T18:30:03Z</time>
      </trkpt>
      <trkpt lat="44.124477" lon="5.259029">
        <ele>742.37701</ele>
        <time>2021-06-30T18:30:04Z</time>
      </trkpt>
      <trkpt lat="44.124477" lon="5.259029">
        <ele>742.98743</ele>
        <time>2021-06-30T18:30:05Z</time>
      </trkpt>
      <trkpt lat="44.124416" lon="5.259138">
        <ele>744.71625</ele>
        <time>2021-06-30T18:30:06Z</time>
      </trkpt>
      <trkpt lat="44.124378" lon="5.259258">
        <ele>746.28992</ele>
        <time>2021-06-30T18:30:07Z</time>
      </trkpt>
      <trkpt lat="44.124355" lon="5.259398">
        <ele>747.38751</ele>
        <time>2021-06-30T18:30:08Z</time>
      </trkpt>
      <trkpt lat="44.124340" lon="5.259569">
        <ele>750.92535</ele>
        <time>2021-06-30T18:30:09Z</time>
      </trkpt>
      <trkpt lat="44.124313" lon="5.259852">
        <ele>752.30359</ele>
        <time>2021-06-30T18:30:10Z</time>
      </trkpt>
      <trkpt lat="44.124298" lon="5.260125">
        <ele>753.88611</ele>
        <time>2021-06-30T18:30:11Z</time>
      </trkpt>
      <trkpt lat="44.124294" lon="5.260376">
        <ele>755.62787</ele>
        <time>2021-06-30T18:30:12Z</time>
      </trkpt>
      <trkpt lat="44.124306" lon="5.260620">
        <ele>757.67310</ele>
        <time>2021-06-30T18:30:13Z</time>
      </trkpt>
      <trkpt lat="44.124355" lon="5.260852">
        <ele>758.36652</ele>
        <time>2021-06-30T18:30:14Z</time>
      </trkpt>
      <trkpt lat="44.124424" lon="5.261056">
        <ele>760.73511</ele>
        <time>2021-06-30T18:30:15Z</time>
      </trkpt>
      <trkpt lat="44.124531" lon="5.261321">
        <ele>763.48047</ele>
        <time>2021-06-30T18:30:16Z</time>
      </trkpt>
      <trkpt lat="44.124531" lon="5.261321">
        <ele>764.49097</ele>
        <time>2021-06-30T18:30:17Z</time>
      </trkpt>
      <trkpt lat="44.124565" lon="5.261546">
        <ele>765.34442</ele>
        <time>2021-06-30T18:30:18Z</time>
      </trkpt>
      <trkpt lat="44.124569" lon="5.261753">
        <ele>769.15399</ele>
        <time>2021-06-30T18:30:19Z</time>
      </trkpt>
      <trkpt lat="44.124531" lon="5.261999">
        <ele>769.15137</ele>
        <time>2021-06-30T18:30:20Z</time>
      </trkpt>
      <trkpt lat="44.124466" lon="5.262320">
        <ele>769.44519</ele>
        <time>2021-06-30T18:30:21Z</time>
      </trkpt>
      <trkpt lat="44.124382" lon="5.262650">
        <ele>769.74707</ele>
        <time>2021-06-30T18:30:22Z</time>
      </trkpt>
      <trkpt lat="44.124329" lon="5.263001">
        <ele>770.00146</ele>
        <time>2021-06-30T18:30:23Z</time>
      </trkpt>
      <trkpt lat="44.124283" lon="5.263427">
        <ele>772.95361</ele>
        <time>2021-06-30T18:30:24Z</time>
      </trkpt>
      <trkpt lat="44.124241" lon="5.263742">
        <ele>775.98022</ele>
        <time>2021-06-30T18:30:25Z</time>
      </trkpt>
      <trkpt lat="44.124153" lon="5.264078">
        <ele>778.00635</ele>
        <time>2021-06-30T18:30:26Z</time>
      </trkpt>
      <trkpt lat="44.124088" lon="5.264214">
        <ele>778.76025</ele>
        <time>2021-06-30T18:30:27Z</time>
      </trkpt>
      <trkpt lat="44.123970" lon="5.264472">
        <ele>779.62354</ele>
        <time>2021-06-30T18:30:28Z</time>
      </trkpt>
      <trkpt lat="44.123928" lon="5.264734">
        <ele>791.90558</ele>
        <time>2021-06-30T18:30:29Z</time>
      </trkpt>
      <trkpt lat="44.123928" lon="5.264734">
        <ele>792.35638</ele>
        <time>2021-06-30T18:30:30Z</time>
      </trkpt>
      <trkpt lat="44.123920" lon="5.264930">
        <ele>792.96887</ele>
        <time>2021-06-30T18:30:31Z</time>
      </trkpt>
      <trkpt lat="44.123955" lon="5.265124">
        <ele>796.94641</ele>
        <time>2021-06-30T18:30:32Z</time>
      </trkpt>
      <trkpt lat="44.124016" lon="5.265317">
        <ele>800.44440</ele>
        <time>2021-06-30T18:30:33Z</time>
      </trkpt>
      <trkpt lat="44.124107" lon="5.265529">
        <ele>798.43188</ele>
        <time>2021-06-30T18:30:34Z</time>
      </trkpt>
      <trkpt lat="44.124237" lon="5.265777">
        <ele>797.92590</ele>
        <time>2021-06-30T18:30:35Z</time>
      </trkpt>
      <trkpt lat="44.124371" lon="5.265977">
        <ele>797.36768</ele>
        <time>2021-06-30T18:30:36Z</time>
      </trkpt>
      <trkpt lat="44.124531" lon="5.266212">
        <ele>798.55469</ele>
        <time>2021-06-30T18:30:37Z</time>
      </trkpt>
      <trkpt lat="44.124653" lon="5.266374">
        <ele>799.22559</ele>
        <time>2021-06-30T18:30:38Z</time>
      </trkpt>
      <trkpt lat="44.124802" lon="5.266657">
        <ele>801.20825</ele>
        <time>2021-06-30T18:30:39Z</time>
      </trkpt>
      <trkpt lat="44.124939" lon="5.266948">
        <ele>803.42224</ele>
        <time>2021-06-30T18:30:40Z</time>
      </trkpt>
      <trkpt lat="44.125076" lon="5.267329">
        <ele>804.96301</ele>
        <time>2021-06-30T18:30:41Z</time>
      </trkpt>
      <trkpt lat="44.125240" lon="5.267764">
        <ele>807.15125</ele>
        <time>2021-06-30T18:30:42Z</time>
      </trkpt>
      <trkpt lat="44.125343" lon="5.268012">
        <ele>808.80786</ele>
        <time>2021-06-30T18:30:43Z</time>
      </trkpt>
      <trkpt lat="44.125343" lon="5.268012">
        <ele>812.19519</ele>
        <time>2021-06-30T18:30:44Z</time>
      </trkpt>
      <trkpt lat="44.125443" lon="5.268231">
        <ele>813.93848</ele>
        <time>2021-06-30T18:30:45Z</time>
      </trkpt>
      <trkpt lat="44.125553" lon="5.268456">
        <ele>815.44885</ele>
        <time>2021-06-30T18:30:46Z</time>
      </trkpt>
      <trkpt lat="44.125671" lon="5.268726">
        <ele>824.30518</ele>
        <time>2021-06-30T18:30:47Z</time>
      </trkpt>
      <trkpt lat="44.125778" lon="5.268989">
        <ele>827.15894</ele>
        <time>2021-06-30T18:30:48Z</time>
      </trkpt>
      <trkpt lat="44.125896" lon="5.269338">
        <ele>830.08350</ele>
        <time>2021-06-30T18:30:49Z</time>
      </trkpt>
      <trkpt lat="44.125988" lon="5.269622">
        <ele>832.69702</ele>
        <time>2021-06-30T18:30:50Z</time>
      </trkpt>
      <trkpt lat="44.126110" lon="5.269996">
        <ele>834.83765</ele>
        <time>2021-06-30T18:30:51Z</time>
      </trkpt>
      <trkpt lat="44.126167" lon="5.270325">
        <ele>838.76099</ele>
        <time>2021-06-30T18:30:52Z</time>
      </trkpt>
      <trkpt lat="44.126213" lon="5.270545">
        <ele>842.92529</ele>
        <time>2021-06-30T18:30:53Z</time>
      </trkpt>
      <trkpt lat="44.126320" lon="5.270843">
        <ele>845.14771</ele>
        <time>2021-06-30T18:30:54Z</time>
      </trkpt>
      <trkpt lat="44.126434" lon="5.271107">
        <ele>846.76807</ele>
        <time>2021-06-30T18:30:55Z</time>
      </trkpt>
      <trkpt lat="44.126522" lon="5.271359">
        <ele>848.52612</ele>
        <time>2021-06-30T18:30:56Z</time>
      </trkpt>
      <trkpt lat="44.126553" lon="5.271666">
        <ele>854.21802</ele>
        <time>2021-06-30T18:30:57Z</time>
      </trkpt>
      <trkpt lat="44.126553" lon="5.271666">
        <ele>857.70020</ele>
        <time>2021-06-30T18:30:58Z</time>
      </trkpt>
      <trkpt lat="44.126575" lon="5.272095">
        <ele>861.66821</ele>
        <time>2021-06-30T18:30:59Z</time>
      </trkpt>
      <trkpt lat="44.126587" lon="5.272474">
        <ele>863.95483</ele>
        <time>2021-06-30T18:31:00Z</time>
      </trkpt>
      <trkpt lat="44.126583" lon="5.272908">
        <ele>867.20068</ele>
        <time>2021-06-30T18:31:01Z</time>
      </trkpt>
      <trkpt lat="44.126583" lon="5.273199">
        <ele>869.43677</ele>
        <time>2021-06-30T18:31:02Z</time>
      </trkpt>
      <trkpt lat="44.126579" lon="5.273374">
        <ele>869.58453</ele>
        <time>2021-06-30T18:31:03Z</time>
      </trkpt>
      <trkpt lat="44.126568" lon="5.273524">
        <ele>872.21869</ele>
        <time>2021-06-30T18:31:04Z</time>
      </trkpt>
      <trkpt lat="44.126492" lon="5.273764">
        <ele>873.92627</ele>
        <time>2021-06-30T18:31:05Z</time>
      </trkpt>
      <trkpt lat="44.126373" lon="5.274044">
        <ele>875.83252</ele>
        <time>2021-06-30T18:31:06Z</time>
      </trkpt>
      <trkpt lat="44.126251" lon="5.274348">
        <ele>876.68213</ele>
        <time>2021-06-30T18:31:07Z</time>
      </trkpt>
      <trkpt lat="44.126110" lon="5.274691">
        <ele>880.79504</ele>
        <time>2021-06-30T18:31:08Z</time>
      </trkpt>
      <trkpt lat="44.125965" lon="5.275022">
        <ele>882.91138</ele>
        <time>2021-06-30T18:31:09Z</time>
      </trkpt>
      <trkpt lat="44.125851" lon="5.275269">
        <ele>884.28491</ele>
        <time>2021-06-30T18:31:10Z</time>
      </trkpt>
      <trkpt lat="44.125736" lon="5.275529">
        <ele>885.86792</ele>
        <time>2021-06-30T18:31:11Z</time>
      </trkpt>
      <trkpt lat="44.125736" lon="5.275529">
        <ele>886.72034</ele>
        <time>2021-06-30T18:31:12Z</time>
      </trkpt>
      <trkpt lat="44.125690" lon="5.275720">
        <ele>887.41278</ele>
        <time>2021-06-30T18:31:13Z</time>
      </trkpt>
      <trkpt lat="44.125679" lon="5.275862">
        <ele>889.75934</ele>
        <time>2021-06-30T18:31:14Z</time>
      </trkpt>
      <trkpt lat="44.125683" lon="5.276036">
        <ele>892.56659</ele>
        <time>2021-06-30T18:31:15Z</time>
      </trkpt>
      <trkpt lat="44.125698" lon="5.276235">
        <ele>892.79700</ele>
        <time>2021-06-30T18:31:16Z</time>
      </trkpt>
      <trkpt lat="44.125736" lon="5.276503">
        <ele>895.16345</ele>
        <time>2021-06-30T18:31:17Z</time>
      </trkpt>
      <trkpt lat="44.125820" lon="5.276917">
        <ele>896.71313</ele>
        <time>2021-06-30T18:31:18Z</time>
      </trkpt>
      <trkpt lat="44.125912" lon="5.277347">
        <ele>899.68799</ele>
        <time>2021-06-30T18:31:19Z</time>
      </trkpt>
      <trkpt lat="44.125984" lon="5.277684">
        <ele>903.74463</ele>
        <time>2021-06-30T18:31:20Z</time>
      </trkpt>
      <trkpt lat="44.126045" lon="5.278005">
        <ele>905.44275</ele>
        <time>2021-06-30T18:31:21Z</time>
      </trkpt>
      <trkpt lat="44.126095" lon="5.278219">
        <ele>904.73987</ele>
        <time>2021-06-30T18:31:22Z</time>
      </trkpt>
      <trkpt lat="44.126129" lon="5.278284">
        <ele>904.42407</ele>
        <time>2021-06-30T18:31:23Z</time>
      </trkpt>
      <trkpt lat="44.126202" lon="5.278339">
        <ele>905.31647</ele>
        <time>2021-06-30T18:31:24Z</time>
      </trkpt>
      <trkpt lat="44.126320" lon="5.278395">
        <ele>907.09247</ele>
        <time>2021-06-30T18:31:25Z</time>
      </trkpt>
      <trkpt lat="44.126446" lon="5.278565">
        <ele>908.64868</ele>
        <time>2021-06-30T18:31:26Z</time>
      </trkpt>
      <trkpt lat="44.126446" lon="5.278565">
        <ele>910.99042</ele>
        <time>2021-06-30T18:31:27Z</time>
      </trkpt>
      <trkpt lat="44.126476" lon="5.278841">
        <ele>912.45831</ele>
        <time>2021-06-30T18:31:28Z</time>
      </trkpt>
      <trkpt lat="44.126484" lon="5.279035">
        <ele>914.08978</ele>
        <time>2021-06-30T18:31:29Z</time>
      </trkpt>
      <trkpt lat="44.126495" lon="5.279297">
        <ele>919.28857</ele>
        <time>2021-06-30T18:31:30Z</time>
      </trkpt>
      <trkpt lat="44.126495" lon="5.279527">
        <ele>921.56274</ele>
        <time>2021-06-30T18:31:31Z</time>
      </trkpt>
      <trkpt lat="44.126476" lon="5.279999">
        <ele>924.52844</ele>
        <time>2021-06-30T18:31:32Z</time>
      </trkpt>
      <trkpt lat="44.126503" lon="5.280364">
        <ele>926.29321</ele>
        <time>2021-06-30T18:31:33Z</time>
      </trkpt>
      <trkpt lat="44.126545" lon="5.280580">
        <ele>923.63513</ele>
        <time>2021-06-30T18:31:34Z</time>
      </trkpt>
      <trkpt lat="44.126614" lon="5.280754">
        <ele>925.37787</ele>
        <time>2021-06-30T18:31:35Z</time>
      </trkpt>
      <trkpt lat="44.126705" lon="5.280988">
        <ele>934.14185</ele>
        <time>2021-06-30T18:31:36Z</time>
      </trkpt>
      <trkpt lat="44.126831" lon="5.281303">
        <ele>937.67822</ele>
        <time>2021-06-30T18:31:37Z</time>
      </trkpt>
      <trkpt lat="44.126831" lon="5.281303">
        <ele>939.01514</ele>
        <time>2021-06-30T18:31:38Z</time>
      </trkpt>
      <trkpt lat="44.126938" lon="5.281570">
        <ele>932.74994</ele>
        <time>2021-06-30T18:31:39Z</time>
      </trkpt>
      <trkpt lat="44.126991" lon="5.281865">
        <ele>940.63098</ele>
        <time>2021-06-30T18:31:40Z</time>
      </trkpt>
      <trkpt lat="44.127003" lon="5.281996">
        <ele>936.64911</ele>
        <time>2021-06-30T18:31:41Z</time>
      </trkpt>
      <trkpt lat="44.126984" lon="5.282177">
        <ele>938.53210</ele>
        <time>2021-06-30T18:31:42Z</time>
      </trkpt>
      <trkpt lat="44.126949" lon="5.282431">
        <ele>946.19727</ele>
        <time>2021-06-30T18:31:43Z</time>
      </trkpt>
      <trkpt lat="44.126919" lon="5.282690">
        <ele>948.69141</ele>
        <time>2021-06-30T18:31:44Z</time>
      </trkpt>
      <trkpt lat="44.126877" lon="5.283089">
        <ele>946.33154</ele>
        <time>2021-06-30T18:31:45Z</time>
      </trkpt>
      <trkpt lat="44.126877" lon="5.283377">
        <ele>947.04205</ele>
        <time>2021-06-30T18:31:46Z</time>
      </trkpt>
      <trkpt lat="44.126938" lon="5.283529">
        <ele>948.31482</ele>
        <time>2021-06-30T18:31:47Z</time>
      </trkpt>
      <trkpt lat="44.126938" lon="5.283529">
        <ele>949.29724</ele>
        <time>2021-06-30T18:31:48Z</time>
      </trkpt>
      <trkpt lat="44.127037" lon="5.283642">
        <ele>957.10388</ele>
        <time>2021-06-30T18:31:49Z</time>
      </trkpt>
      <trkpt lat="44.127090" lon="5.283685">
        <ele>959.38306</ele>
        <time>2021-06-30T18:31:50Z</time>
      </trkpt>
      <trkpt lat="44.127308" lon="5.283711">
        <ele>962.30908</ele>
        <time>2021-06-30T18:31:51Z</time>
      </trkpt>
      <trkpt lat="44.127506" lon="5.283699">
        <ele>964.07495</ele>
        <time>2021-06-30T18:31:52Z</time>
      </trkpt>
      <trkpt lat="44.127750" lon="5.283685">
        <ele>966.23108</ele>
        <time>2021-06-30T18:31:53Z</time>
      </trkpt>
      <trkpt lat="44.127903" lon="5.283678">
        <ele>969.04749</ele>
        <time>2021-06-30T18:31:54Z</time>
      </trkpt>
      <trkpt lat="44.128124" lon="5.283670">
        <ele>971.41931</ele>
        <time>2021-06-30T18:31:55Z</time>
      </trkpt>
      <trkpt lat="44.128452" lon="5.283689">
        <ele>973.69995</ele>
        <time>2021-06-30T18:31:56Z</time>
      </trkpt>
      <trkpt lat="44.128597" lon="5.283697">
        <ele>976.82983</ele>
        <time>2021-06-30T18:31:57Z</time>
      </trkpt>
      <trkpt lat="44.128693" lon="5.283828">
        <ele>978.33923</ele>
        <time>2021-06-30T18:31:58Z</time>
      </trkpt>
      <trkpt lat="44.128693" lon="5.283828">
        <ele>980.76721</ele>
        <time>2021-06-30T18:31:59Z</time>
      </trkpt>
      <trkpt lat="44.128651" lon="5.283882">
        <ele>981.40808</ele>
        <time>2021-06-30T18:32:00Z</time>
      </trkpt>
      <trkpt lat="44.128651" lon="5.283882">
        <ele>984.42224</ele>
        <time>2021-06-30T18:32:01Z</time>
      </trkpt>
      <trkpt lat="44.128651" lon="5.283882">
        <ele>985.54321</ele>
        <time>2021-06-30T18:32:02Z</time>
      </trkpt>
      <trkpt lat="44.128643" lon="5.283888">
        <ele>986.74780</ele>
        <time>2021-06-30T18:32:03Z</time>
      </trkpt>
      <trkpt lat="44.128529" lon="5.284016">
        <ele>989.30762</ele>
        <time>2021-06-30T18:32:04Z</time>
      </trkpt>
      <trkpt lat="44.128445" lon="5.284117">
        <ele>990.09363</ele>
        <time>2021-06-30T18:32:05Z</time>
      </trkpt>
      <trkpt lat="44.128414" lon="5.284243">
        <ele>991.09570</ele>
        <time>2021-06-30T18:32:06Z</time>
      </trkpt>
      <trkpt lat="44.128452" lon="5.284418">
        <ele>990.97644</ele>
        <time>2021-06-30T18:32:07Z</time>
      </trkpt>
      <trkpt lat="44.128540" lon="5.284566">
        <ele>992.58801</ele>
        <time>2021-06-30T18:32:08Z</time>
      </trkpt>
      <trkpt lat="44.128674" lon="5.284794">
        <ele>994.64819</ele>
        <time>2021-06-30T18:32:09Z</time>
      </trkpt>
      <trkpt lat="44.128765" lon="5.285033">
        <ele>995.41260</ele>
        <time>2021-06-30T18:32:10Z</time>
      </trkpt>
      <trkpt lat="44.128807" lon="5.285222">
        <ele>997.28699</ele>
        <time>2021-06-30T18:32:11Z</time>
      </trkpt>
      <trkpt lat="44.128830" lon="5.285434">
        <ele>998.34717</ele>
        <time>2021-06-30T18:32:12Z</time>
      </trkpt>
      <trkpt lat="44.128841" lon="5.285670">
        <ele>999.37000</ele>
        <time>2021-06-30T18:32:13Z</time>
      </trkpt>
      <trkpt lat="44.128841" lon="5.285670">
        <ele>1002.19287</ele>
        <time>2021-06-30T18:32:14Z</time>
      </trkpt>
      <trkpt lat="44.128868" lon="5.285919">
        <ele>1003.80066</ele>
        <time>2021-06-30T18:32:15Z</time>
      </trkpt>
      <trkpt lat="44.128929" lon="5.286101">
        <ele>1006.41382</ele>
        <time>2021-06-30T18:32:16Z</time>
      </trkpt>
      <trkpt lat="44.129009" lon="5.286277">
        <ele>1008.98962</ele>
        <time>2021-06-30T18:32:17Z</time>
      </trkpt>
      <trkpt lat="44.129169" lon="5.286501">
        <ele>1010.82544</ele>
        <time>2021-06-30T18:32:18Z</time>
      </trkpt>
      <trkpt lat="44.129326" lon="5.286723">
        <ele>1011.21436</ele>
        <time>2021-06-30T18:32:19Z</time>
      </trkpt>
      <trkpt lat="44.129459" lon="5.286914">
        <ele>1012.49927</ele>
        <time>2021-06-30T18:32:20Z</time>
      </trkpt>
      <trkpt lat="44.129517" lon="5.287165">
        <ele>1013.12720</ele>
        <time>2021-06-30T18:32:21Z</time>
      </trkpt>
      <trkpt lat="44.129517" lon="5.287165">
        <ele>1015.84863</ele>
        <time>2021-06-30T18:32:22Z</time>
      </trkpt>
      <trkpt lat="44.129532" lon="5.287419">
        <ele>1017.28870</ele>
        <time>2021-06-30T18:32:23Z</time>
      </trkpt>
      <trkpt lat="44.129536" lon="5.287589">
        <ele>1018.33704</ele>
        <time>2021-06-30T18:32:24Z</time>
      </trkpt>
      <trkpt lat="44.129539" lon="5.287734">
        <ele>1021.24121</ele>
        <time>2021-06-30T18:32:25Z</time>
      </trkpt>
      <trkpt lat="44.129570" lon="5.287958">
        <ele>1022.97974</ele>
        <time>2021-06-30T18:32:26Z</time>
      </trkpt>
      <trkpt lat="44.129608" lon="5.288079">
        <ele>1023.30774</ele>
        <time>2021-06-30T18:32:27Z</time>
      </trkpt>
      <trkpt lat="44.129673" lon="5.288185">
        <ele>1025.74146</ele>
        <time>2021-06-30T18:32:28Z</time>
      </trkpt>
      <trkpt lat="44.129772" lon="5.288321">
        <ele>1027.81079</ele>
        <time>2021-06-30T18:32:29Z</time>
      </trkpt>
      <trkpt lat="44.129951" lon="5.288498">
        <ele>1030.39734</ele>
        <time>2021-06-30T18:32:30Z</time>
      </trkpt>
      <trkpt lat="44.130093" lon="5.288626">
        <ele>1031.94861</ele>
        <time>2021-06-30T18:32:31Z</time>
      </trkpt>
      <trkpt lat="44.130257" lon="5.288766">
        <ele>1033.05261</ele>
        <time>2021-06-30T18:32:32Z</time>
      </trkpt>
      <trkpt lat="44.130386" lon="5.288872">
        <ele>1035.26392</ele>
        <time>2021-06-30T18:32:33Z</time>
      </trkpt>
      <trkpt lat="44.130531" lon="5.289050">
        <ele>1037.40320</ele>
        <time>2021-06-30T18:32:34Z</time>
      </trkpt>
      <trkpt lat="44.130531" lon="5.289050">
        <ele>1037.51282</ele>
        <time>2021-06-30T18:32:35Z</time>
      </trkpt>
      <trkpt lat="44.130630" lon="5.289268">
        <ele>1036.35828</ele>
        <time>2021-06-30T18:32:36Z</time>
      </trkpt>
      <trkpt lat="44.130695" lon="5.289512">
        <ele>1036.81763</ele>
        <time>2021-06-30T18:32:37Z</time>
      </trkpt>
      <trkpt lat="44.130760" lon="5.289762">
        <ele>1040.67505</ele>
        <time>2021-06-30T18:32:38Z</time>
      </trkpt>
      <trkpt lat="44.130844" lon="5.290076">
        <ele>1044.79895</ele>
        <time>2021-06-30T18:32:39Z</time>
      </trkpt>
      <trkpt lat="44.130913" lon="5.290295">
        <ele>1047.39417</ele>
        <time>2021-06-30T18:32:40Z</time>
      </trkpt>
      <trkpt lat="44.131046" lon="5.290599">
        <ele>1049.57336</ele>
        <time>2021-06-30T18:32:41Z</time>
      </trkpt>
      <trkpt lat="44.131241" lon="5.290848">
        <ele>1049.93335</ele>
        <time>2021-06-30T18:32:42Z</time>
      </trkpt>
      <trkpt lat="44.131443" lon="5.291106">
        <ele>1051.82263</ele>
        <time>2021-06-30T18:32:43Z</time>
      </trkpt>
      <trkpt lat="44.131580" lon="5.291438">
        <ele>1052.63586</ele>
        <time>2021-06-30T18:32:44Z</time>
      </trkpt>
      <trkpt lat="44.131706" lon="5.291828">
        <ele>1054.36450</ele>
        <time>2021-06-30T18:32:45Z</time>
      </trkpt>
      <trkpt lat="44.131802" lon="5.292111">
        <ele>1058.25903</ele>
        <time>2021-06-30T18:32:46Z</time>
      </trkpt>
      <trkpt lat="44.131912" lon="5.292419">
        <ele>1061.33240</ele>
        <time>2021-06-30T18:32:47Z</time>
      </trkpt>
      <trkpt lat="44.132030" lon="5.292754">
        <ele>1064.36279</ele>
        <time>2021-06-30T18:32:48Z</time>
      </trkpt>
      <trkpt lat="44.132030" lon="5.292754">
        <ele>1067.94653</ele>
        <time>2021-06-30T18:32:49Z</time>
      </trkpt>
      <trkpt lat="44.132168" lon="5.293114">
        <ele>1069.91687</ele>
        <time>2021-06-30T18:32:50Z</time>
      </trkpt>
      <trkpt lat="44.132332" lon="5.293459">
        <ele>1071.79565</ele>
        <time>2021-06-30T18:32:51Z</time>
      </trkpt>
      <trkpt lat="44.132504" lon="5.293799">
        <ele>1072.91040</ele>
        <time>2021-06-30T18:32:52Z</time>
      </trkpt>
      <trkpt lat="44.132641" lon="5.294041">
        <ele>1074.04883</ele>
        <time>2021-06-30T18:32:53Z</time>
      </trkpt>
      <trkpt lat="44.132778" lon="5.294280">
        <ele>1078.80249</ele>
        <time>2021-06-30T18:32:54Z</time>
      </trkpt>
      <trkpt lat="44.132923" lon="5.294540">
        <ele>1080.59143</ele>
        <time>2021-06-30T18:32:55Z</time>
      </trkpt>
      <trkpt lat="44.133121" lon="5.294892">
        <ele>1082.15845</ele>
        <time>2021-06-30T18:32:56Z</time>
      </trkpt>
      <trkpt lat="44.133282" lon="5.295183">
        <ele>1083.54358</ele>
        <time>2021-06-30T18:32:57Z</time>
      </trkpt>
      <trkpt lat="44.133438" lon="5.295474">
        <ele>1084.16418</ele>
        <time>2021-06-30T18:32:58Z</time>
      </trkpt>
      <trkpt lat="44.133610" lon="5.295781">
        <ele>1085.44385</ele>
        <time>2021-06-30T18:32:59Z</time>
      </trkpt>
      <trkpt lat="44.133789" lon="5.296109">
        <ele>1088.31604</ele>
        <time>2021-06-30T18:33:00Z</time>
      </trkpt>
      <trkpt lat="44.133789" lon="5.296109">
        <ele>1088.90027</ele>
        <time>2021-06-30T18:33:01Z</time>
      </trkpt>
      <trkpt lat="44.133945" lon="5.296391">
        <ele>1088.85034</ele>
        <time>2021-06-30T18:33:02Z</time>
      </trkpt>
      <trkpt lat="44.134075" lon="5.296632">
        <ele>1091.54175</ele>
        <time>2021-06-30T18:33:03Z</time>
      </trkpt>
      <trkpt lat="44.134205" lon="5.296941">
        <ele>1092.23083</ele>
        <time>2021-06-30T18:33:04Z</time>
      </trkpt>
      <trkpt lat="44.134315" lon="5.297204">
        <ele>1092.31519</ele>
        <time>2021-06-30T18:33:05Z</time>
      </trkpt>
      <trkpt lat="44.134418" lon="5.297496">
        <ele>1092.47180</ele>
        <time>2021-06-30T18:33:06Z</time>
      </trkpt>
      <trkpt lat="44.134480" lon="5.297748">
        <ele>1096.75232</ele>
        <time>2021-06-30T18:33:07Z</time>
      </trkpt>
      <trkpt lat="44.134541" lon="5.298073">
        <ele>1099.73633</ele>
        <time>2021-06-30T18:33:08Z</time>
      </trkpt>
      <trkpt lat="44.134579" lon="5.298399">
        <ele>1104.21228</ele>
        <time>2021-06-30T18:33:09Z</time>
      </trkpt>
      <trkpt lat="44.134598" lon="5.298749">
        <ele>1107.32825</ele>
        <time>2021-06-30T18:33:10Z</time>
      </trkpt>
      <trkpt lat="44.134621" lon="5.299141">
        <ele>1110.92627</ele>
        <time>2021-06-30T18:33:11Z</time>
      </trkpt>
      <trkpt lat="44.134640" lon="5.299499">
        <ele>1114.53748</ele>
        <time>2021-06-30T18:33:12Z</time>
      </trkpt>
      <trkpt lat="44.134663" lon="5.299906">
        <ele>1117.81165</ele>
        <time>2021-06-30T18:33:13Z</time>
      </trkpt>
      <trkpt lat="44.134705" lon="5.300237">
        <ele>1121.72046</ele>
        <time>2021-06-30T18:33:14Z</time>
      </trkpt>
      <trkpt lat="44.134762" lon="5.300468">
        <ele>1124.92285</ele>
        <time>2021-06-30T18:33:15Z</time>
      </trkpt>
      <trkpt lat="44.134808" lon="5.300648">
        <ele>1128.56384</ele>
        <time>2021-06-30T18:33:16Z</time>
      </trkpt>
      <trkpt lat="44.134869" lon="5.300845">
        <ele>1130.49109</ele>
        <time>2021-06-30T18:33:17Z</time>
      </trkpt>
      <trkpt lat="44.134869" lon="5.300845">
        <ele>1132.14758</ele>
        <time>2021-06-30T18:33:18Z</time>
      </trkpt>
      <trkpt lat="44.134972" lon="5.301100">
        <ele>1135.04187</ele>
        <time>2021-06-30T18:33:19Z</time>
      </trkpt>
      <trkpt lat="44.135082" lon="5.301352">
        <ele>1135.24292</ele>
        <time>2021-06-30T18:33:20Z</time>
      </trkpt>
      <trkpt lat="44.135201" lon="5.301566">
        <ele>1138.18237</ele>
        <time>2021-06-30T18:33:21Z</time>
      </trkpt>
      <trkpt lat="44.135345" lon="5.301831">
        <ele>1141.19556</ele>
        <time>2021-06-30T18:33:22Z</time>
      </trkpt>
      <trkpt lat="44.135612" lon="5.302274">
        <ele>1143.25842</ele>
        <time>2021-06-30T18:33:23Z</time>
      </trkpt>
      <trkpt lat="44.135712" lon="5.302487">
        <ele>1147.03467</ele>
        <time>2021-06-30T18:33:24Z</time>
      </trkpt>
      <trkpt lat="44.135792" lon="5.302715">
        <ele>1148.08044</ele>
        <time>2021-06-30T18:33:25Z</time>
      </trkpt>
      <trkpt lat="44.135811" lon="5.302837">
        <ele>1150.10071</ele>
        <time>2021-06-30T18:33:26Z</time>
      </trkpt>
      <trkpt lat="44.135803" lon="5.303100">
        <ele>1152.99805</ele>
        <time>2021-06-30T18:33:27Z</time>
      </trkpt>
      <trkpt lat="44.135792" lon="5.303258">
        <ele>1157.04736</ele>
        <time>2021-06-30T18:33:28Z</time>
      </trkpt>
      <trkpt lat="44.135773" lon="5.303373">
        <ele>1158.18298</ele>
        <time>2021-06-30T18:33:29Z</time>
      </trkpt>
      <trkpt lat="44.135715" lon="5.303720">
        <ele>1159.10229</ele>
        <time>2021-06-30T18:33:30Z</time>
      </trkpt>
      <trkpt lat="44.135670" lon="5.304003">
        <ele>1160.57288</ele>
        <time>2021-06-30T18:33:31Z</time>
      </trkpt>
      <trkpt lat="44.135670" lon="5.304003">
        <ele>1163.06396</ele>
        <time>2021-06-30T18:33:32Z</time>
      </trkpt>
      <trkpt lat="44.135612" lon="5.304357">
        <ele>1164.56958</ele>
        <time>2021-06-30T18:33:33Z</time>
      </trkpt>
      <trkpt lat="44.135567" lon="5.304662">
        <ele>1164.72925</ele>
        <time>2021-06-30T18:33:34Z</time>
      </trkpt>
      <trkpt lat="44.135517" lon="5.304978">
        <ele>1166.00989</ele>
        <time>2021-06-30T18:33:35Z</time>
      </trkpt>
      <trkpt lat="44.135479" lon="5.305243">
        <ele>1167.60986</ele>
        <time>2021-06-30T18:33:36Z</time>
      </trkpt>
      <trkpt lat="44.135437" lon="5.305528">
        <ele>1170.21082</ele>
        <time>2021-06-30T18:33:37Z</time>
      </trkpt>
      <trkpt lat="44.135433" lon="5.305827">
        <ele>1173.46472</ele>
        <time>2021-06-30T18:33:38Z</time>
      </trkpt>
      <trkpt lat="44.135468" lon="5.306131">
        <ele>1175.21594</ele>
        <time>2021-06-30T18:33:39Z</time>
      </trkpt>
      <trkpt lat="44.135563" lon="5.306440">
        <ele>1179.80066</ele>
        <time>2021-06-30T18:33:40Z</time>
      </trkpt>
      <trkpt lat="44.135693" lon="5.306730">
        <ele>1182.74585</ele>
        <time>2021-06-30T18:33:41Z</time>
      </trkpt>
      <trkpt lat="44.135834" lon="5.307007">
        <ele>1184.64429</ele>
        <time>2021-06-30T18:33:42Z</time>
      </trkpt>
      <trkpt lat="44.135998" lon="5.307242">
        <ele>1185.11096</ele>
        <time>2021-06-30T18:33:43Z</time>
      </trkpt>
      <trkpt lat="44.136185" lon="5.307517">
        <ele>1186.31982</ele>
        <time>2021-06-30T18:33:44Z</time>
      </trkpt>
      <trkpt lat="44.136333" lon="5.307732">
        <ele>1187.24963</ele>
        <time>2021-06-30T18:33:45Z</time>
      </trkpt>
      <trkpt lat="44.136547" lon="5.308013">
        <ele>1190.43323</ele>
        <time>2021-06-30T18:33:46Z</time>
      </trkpt>
      <trkpt lat="44.136761" lon="5.308285">
        <ele>1192.39636</ele>
        <time>2021-06-30T18:33:47Z</time>
      </trkpt>
      <trkpt lat="44.136761" lon="5.308285">
        <ele>1193.71826</ele>
        <time>2021-06-30T18:33:48Z</time>
      </trkpt>
      <trkpt lat="44.136978" lon="5.308561">
        <ele>1195.00964</ele>
        <time>2021-06-30T18:33:49Z</time>
      </trkpt>
      <trkpt lat="44.137173" lon="5.308813">
        <ele>1196.89246</ele>
        <time>2021-06-30T18:33:50Z</time>
      </trkpt>
      <trkpt lat="44.137356" lon="5.309073">
        <ele>1198.52100</ele>
        <time>2021-06-30T18:33:51Z</time>
      </trkpt>
      <trkpt lat="44.137520" lon="5.309327">
        <ele>1198.98022</ele>
        <time>2021-06-30T18:33:52Z</time>
      </trkpt>
      <trkpt lat="44.137657" lon="5.309593">
        <ele>1200.72791</ele>
        <time>2021-06-30T18:33:53Z</time>
      </trkpt>
      <trkpt lat="44.137798" lon="5.309926">
        <ele>1201.82690</ele>
        <time>2021-06-30T18:33:54Z</time>
      </trkpt>
      <trkpt lat="44.137909" lon="5.310197">
        <ele>1204.15894</ele>
        <time>2021-06-30T18:33:55Z</time>
      </trkpt>
      <trkpt lat="44.138020" lon="5.310508">
        <ele>1204.72156</ele>
        <time>2021-06-30T18:33:56Z</time>
      </trkpt>
      <trkpt lat="44.138111" lon="5.310814">
        <ele>1206.39050</ele>
        <time>2021-06-30T18:33:57Z</time>
      </trkpt>
      <trkpt lat="44.138176" lon="5.311118">
        <ele>1207.87427</ele>
        <time>2021-06-30T18:33:58Z</time>
      </trkpt>
      <trkpt lat="44.138180" lon="5.311310">
        <ele>1209.51013</ele>
        <time>2021-06-30T18:33:59Z</time>
      </trkpt>
      <trkpt lat="44.138180" lon="5.311310">
        <ele>1210.42493</ele>
        <time>2021-06-30T18:34:00Z</time>
      </trkpt>
      <trkpt lat="44.138165" lon="5.311539">
        <ele>1212.42578</ele>
        <time>2021-06-30T18:34:01Z</time>
      </trkpt>
      <trkpt lat="44.138165" lon="5.311776">
        <ele>1214.20789</ele>
        <time>2021-06-30T18:34:02Z</time>
      </trkpt>
      <trkpt lat="44.138206" lon="5.311969">
        <ele>1216.33325</ele>
        <time>2021-06-30T18:34:03Z</time>
      </trkpt>
      <trkpt lat="44.138279" lon="5.312260">
        <ele>1216.55298</ele>
        <time>2021-06-30T18:34:04Z</time>
      </trkpt>
      <trkpt lat="44.138359" lon="5.312622">
        <ele>1220.72168</ele>
        <time>2021-06-30T18:34:05Z</time>
      </trkpt>
      <trkpt lat="44.138405" lon="5.312901">
        <ele>1224.75867</ele>
        <time>2021-06-30T18:34:06Z</time>
      </trkpt>
      <trkpt lat="44.138447" lon="5.313244">
        <ele>1225.60046</ele>
        <time>2021-06-30T18:34:07Z</time>
      </trkpt>
      <trkpt lat="44.138477" lon="5.313452">
        <ele>1230.00842</ele>
        <time>2021-06-30T18:34:08Z</time>
      </trkpt>
      <trkpt lat="44.138542" lon="5.313770">
        <ele>1232.79749</ele>
        <time>2021-06-30T18:34:09Z</time>
      </trkpt>
      <trkpt lat="44.138630" lon="5.314064">
        <ele>1236.57288</ele>
        <time>2021-06-30T18:34:10Z</time>
      </trkpt>
      <trkpt lat="44.138779" lon="5.314406">
        <ele>1238.47314</ele>
        <time>2021-06-30T18:34:11Z</time>
      </trkpt>
      <trkpt lat="44.138779" lon="5.314406">
        <ele>1241.76733</ele>
        <time>2021-06-30T18:34:12Z</time>
      </trkpt>
      <trkpt lat="44.138943" lon="5.314735">
        <ele>1244.21948</ele>
        <time>2021-06-30T18:34:13Z</time>
      </trkpt>
      <trkpt lat="44.139137" lon="5.315047">
        <ele>1245.75305</ele>
        <time>2021-06-30T18:34:14Z</time>
      </trkpt>
      <trkpt lat="44.139320" lon="5.315331">
        <ele>1247.49292</ele>
        <time>2021-06-30T18:34:15Z</time>
      </trkpt>
      <trkpt lat="44.139462" lon="5.315559">
        <ele>1249.06836</ele>
        <time>2021-06-30T18:34:16Z</time>
      </trkpt>
      <trkpt lat="44.139633" lon="5.315839">
        <ele>1251.85754</ele>
        <time>2021-06-30T18:34:17Z</time>
      </trkpt>
      <trkpt lat="44.139839" lon="5.316127">
        <ele>1254.51111</ele>
        <time>2021-06-30T18:34:18Z</time>
      </trkpt>
      <trkpt lat="44.140045" lon="5.316415">
        <ele>1256.04822</ele>
        <time>2021-06-30T18:34:19Z</time>
      </trkpt>
      <trkpt lat="44.140255" lon="5.316706">
        <ele>1257.87720</ele>
        <time>2021-06-30T18:34:20Z</time>
      </trkpt>
      <trkpt lat="44.140423" lon="5.316946">
        <ele>1259.18762</ele>
        <time>2021-06-30T18:34:21Z</time>
      </trkpt>
      <trkpt lat="44.140602" lon="5.317230">
        <ele>1261.59302</ele>
        <time>2021-06-30T18:34:22Z</time>
      </trkpt>
      <trkpt lat="44.140743" lon="5.317450">
        <ele>1263.80627</ele>
        <time>2021-06-30T18:34:23Z</time>
      </trkpt>
      <trkpt lat="44.140884" lon="5.317669">
        <ele>1266.30847</ele>
        <time>2021-06-30T18:34:24Z</time>
      </trkpt>
      <trkpt lat="44.141048" lon="5.317892">
        <ele>1266.69922</ele>
        <time>2021-06-30T18:34:25Z</time>
      </trkpt>
      <trkpt lat="44.141048" lon="5.317892">
        <ele>1268.21960</ele>
        <time>2021-06-30T18:34:26Z</time>
      </trkpt>
      <trkpt lat="44.141247" lon="5.318121">
        <ele>1269.38123</ele>
        <time>2021-06-30T18:34:27Z</time>
      </trkpt>
      <trkpt lat="44.141403" lon="5.318289">
        <ele>1271.16638</ele>
        <time>2021-06-30T18:34:28Z</time>
      </trkpt>
      <trkpt lat="44.141556" lon="5.318405">
        <ele>1271.29602</ele>
        <time>2021-06-30T18:34:29Z</time>
      </trkpt>
      <trkpt lat="44.141670" lon="5.318452">
        <ele>1272.95654</ele>
        <time>2021-06-30T18:34:30Z</time>
      </trkpt>
      <trkpt lat="44.141846" lon="5.318478">
        <ele>1279.88062</ele>
        <time>2021-06-30T18:34:31Z</time>
      </trkpt>
      <trkpt lat="44.141987" lon="5.318459">
        <ele>1283.09375</ele>
        <time>2021-06-30T18:34:32Z</time>
      </trkpt>
      <trkpt lat="44.142162" lon="5.318440">
        <ele>1284.92236</ele>
        <time>2021-06-30T18:34:33Z</time>
      </trkpt>
      <trkpt lat="44.142384" lon="5.318474">
        <ele>1285.33875</ele>
        <time>2021-06-30T18:34:34Z</time>
      </trkpt>
      <trkpt lat="44.142555" lon="5.318541">
        <ele>1284.68127</ele>
        <time>2021-06-30T18:34:35Z</time>
      </trkpt>
      <trkpt lat="44.142715" lon="5.318561">
        <ele>1293.43628</ele>
        <time>2021-06-30T18:34:36Z</time>
      </trkpt>
      <trkpt lat="44.142715" lon="5.318561">
        <ele>1295.16711</ele>
        <time>2021-06-30T18:34:37Z</time>
      </trkpt>
      <trkpt lat="44.142815" lon="5.318542">
        <ele>1296.69983</ele>
        <time>2021-06-30T18:34:38Z</time>
      </trkpt>
      <trkpt lat="44.142906" lon="5.318478">
        <ele>1298.30103</ele>
        <time>2021-06-30T18:34:39Z</time>
      </trkpt>
      <trkpt lat="44.143059" lon="5.318365">
        <ele>1301.77600</ele>
        <time>2021-06-30T18:34:40Z</time>
      </trkpt>
      <trkpt lat="44.143242" lon="5.318150">
        <ele>1300.67871</ele>
        <time>2021-06-30T18:34:41Z</time>
      </trkpt>
      <trkpt lat="44.143394" lon="5.318022">
        <ele>1301.50073</ele>
        <time>2021-06-30T18:34:42Z</time>
      </trkpt>
      <trkpt lat="44.143585" lon="5.317859">
        <ele>1303.56995</ele>
        <time>2021-06-30T18:34:43Z</time>
      </trkpt>
      <trkpt lat="44.143829" lon="5.317648">
        <ele>1304.95349</ele>
        <time>2021-06-30T18:34:44Z</time>
      </trkpt>
      <trkpt lat="44.143951" lon="5.317540">
        <ele>1305.52100</ele>
        <time>2021-06-30T18:34:45Z</time>
      </trkpt>
      <trkpt lat="44.144146" lon="5.317455">
        <ele>1312.58679</ele>
        <time>2021-06-30T18:34:46Z</time>
      </trkpt>
      <trkpt lat="44.144318" lon="5.317430">
        <ele>1315.61658</ele>
        <time>2021-06-30T18:34:47Z</time>
      </trkpt>
      <trkpt lat="44.144478" lon="5.317410">
        <ele>1317.75281</ele>
        <time>2021-06-30T18:34:48Z</time>
      </trkpt>
      <trkpt lat="44.144650" lon="5.317420">
        <ele>1319.41040</ele>
        <time>2021-06-30T18:34:49Z</time>
      </trkpt>
      <trkpt lat="44.144852" lon="5.317456">
        <ele>1320.18433</ele>
        <time>2021-06-30T18:34:50Z</time>
      </trkpt>
      <trkpt lat="44.144852" lon="5.317456">
        <ele>1322.59546</ele>
        <time>2021-06-30T18:34:51Z</time>
      </trkpt>
      <trkpt lat="44.145084" lon="5.317517">
        <ele>1326.86096</ele>
        <time>2021-06-30T18:34:52Z</time>
      </trkpt>
      <trkpt lat="44.145267" lon="5.317566">
        <ele>1329.98572</ele>
        <time>2021-06-30T18:34:53Z</time>
      </trkpt>
      <trkpt lat="44.145473" lon="5.317620">
        <ele>1329.87183</ele>
        <time>2021-06-30T18:34:54Z</time>
      </trkpt>
      <trkpt lat="44.145645" lon="5.317657">
        <ele>1329.46130</ele>
        <time>2021-06-30T18:34:55Z</time>
      </trkpt>
      <trkpt lat="44.145775" lon="5.317684">
        <ele>1327.97791</ele>
        <time>2021-06-30T18:34:56Z</time>
      </trkpt>
      <trkpt lat="44.145821" lon="5.317693">
        <ele>1333.82141</ele>
        <time>2021-06-30T18:34:57Z</time>
      </trkpt>
      <trkpt lat="44.145882" lon="5.317679">
        <ele>1335.35254</ele>
        <time>2021-06-30T18:34:58Z</time>
      </trkpt>
      <trkpt lat="44.145905" lon="5.317629">
        <ele>1336.93262</ele>
        <time>2021-06-30T18:34:59Z</time>
      </trkpt>
      <trkpt lat="44.145889" lon="5.317551">
        <ele>1337.35156</ele>
        <time>2021-06-30T18:35:00Z</time>
      </trkpt>
      <trkpt lat="44.145824" lon="5.317421">
        <ele>1339.46729</ele>
        <time>2021-06-30T18:35:01Z</time>
      </trkpt>
      <trkpt lat="44.145824" lon="5.317421">
        <ele>1340.29724</ele>
        <time>2021-06-30T18:35:02Z</time>
      </trkpt>
      <trkpt lat="44.145710" lon="5.317202">
        <ele>1341.55896</ele>
        <time>2021-06-30T18:35:03Z</time>
      </trkpt>
      <trkpt lat="44.145618" lon="5.317029">
        <ele>1342.27881</ele>
        <time>2021-06-30T18:35:04Z</time>
      </trkpt>
      <trkpt lat="44.145515" lon="5.316832">
        <ele>1343.97949</ele>
        <time>2021-06-30T18:35:05Z</time>
      </trkpt>
      <trkpt lat="44.145462" lon="5.316704">
        <ele>1344.88562</ele>
        <time>2021-06-30T18:35:06Z</time>
      </trkpt>
      <trkpt lat="44.145439" lon="5.316562">
        <ele>1345.13989</ele>
        <time>2021-06-30T18:35:07Z</time>
      </trkpt>
      <trkpt lat="44.145443" lon="5.316482">
        <ele>1346.02368</ele>
        <time>2021-06-30T18:35:08Z</time>
      </trkpt>
      <trkpt lat="44.145493" lon="5.316323">
        <ele>1346.43665</ele>
        <time>2021-06-30T18:35:09Z</time>
      </trkpt>
      <trkpt lat="44.145557" lon="5.316199">
        <ele>1347.86670</ele>
        <time>2021-06-30T18:35:10Z</time>
      </trkpt>
      <trkpt lat="44.145638" lon="5.316046">
        <ele>1347.40710</ele>
        <time>2021-06-30T18:35:11Z</time>
      </trkpt>
      <trkpt lat="44.145748" lon="5.315826">
        <ele>1348.06543</ele>
        <time>2021-06-30T18:35:12Z</time>
      </trkpt>
      <trkpt lat="44.145870" lon="5.315615">
        <ele>1347.97144</ele>
        <time>2021-06-30T18:35:13Z</time>
      </trkpt>
      <trkpt lat="44.145901" lon="5.315564">
        <ele>1349.54834</ele>
        <time>2021-06-30T18:35:14Z</time>
      </trkpt>
      <trkpt lat="44.145901" lon="5.315564">
        <ele>1351.46472</ele>
        <time>2021-06-30T18:35:15Z</time>
      </trkpt>
      <trkpt lat="44.145969" lon="5.315453">
        <ele>1352.36096</ele>
        <time>2021-06-30T18:35:16Z</time>
      </trkpt>
      <trkpt lat="44.146076" lon="5.315335">
        <ele>1354.58887</ele>
        <time>2021-06-30T18:35:17Z</time>
      </trkpt>
      <trkpt lat="44.146179" lon="5.315278">
        <ele>1356.23767</ele>
        <time>2021-06-30T18:35:18Z</time>
      </trkpt>
      <trkpt lat="44.146275" lon="5.315244">
        <ele>1357.97705</ele>
        <time>2021-06-30T18:35:19Z</time>
      </trkpt>
      <trkpt lat="44.146420" lon="5.315239">
        <ele>1360.55859</ele>
        <time>2021-06-30T18:35:20Z</time>
      </trkpt>
      <trkpt lat="44.146618" lon="5.315276">
        <ele>1361.52698</ele>
        <time>2021-06-30T18:35:21Z</time>
      </trkpt>
      <trkpt lat="44.146763" lon="5.315327">
        <ele>1361.94763</ele>
        <time>2021-06-30T18:35:22Z</time>
      </trkpt>
      <trkpt lat="44.146877" lon="5.315371">
        <ele>1362.89722</ele>
        <time>2021-06-30T18:35:23Z</time>
      </trkpt>
      <trkpt lat="44.147038" lon="5.315475">
        <ele>1362.91541</ele>
        <time>2021-06-30T18:35:24Z</time>
      </trkpt>
      <trkpt lat="44.147175" lon="5.315594">
        <ele>1363.47754</ele>
        <time>2021-06-30T18:35:25Z</time>
      </trkpt>
      <trkpt lat="44.147305" lon="5.315760">
        <ele>1364.77429</ele>
        <time>2021-06-30T18:35:26Z</time>
      </trkpt>
      <trkpt lat="44.147430" lon="5.315910">
        <ele>1365.33130</ele>
        <time>2021-06-30T18:35:27Z</time>
      </trkpt>
      <trkpt lat="44.147560" lon="5.316009">
        <ele>1366.30139</ele>
        <time>2021-06-30T18:35:28Z</time>
      </trkpt>
      <trkpt lat="44.147560" lon="5.316009">
        <ele>1365.26355</ele>
        <time>2021-06-30T18:35:29Z</time>
      </trkpt>
      <trkpt lat="44.147732" lon="5.316113">
        <ele>1367.78979</ele>
        <time>2021-06-30T18:35:30Z</time>
      </trkpt>
      <trkpt lat="44.147884" lon="5.316186">
        <ele>1369.45129</ele>
        <time>2021-06-30T18:35:31Z</time>
      </trkpt>
      <trkpt lat="44.148087" lon="5.316280">
        <ele>1370.96277</ele>
        <time>2021-06-30T18:35:32Z</time>
      </trkpt>
      <trkpt lat="44.148293" lon="5.316382">
        <ele>1372.92261</ele>
        <time>2021-06-30T18:35:33Z</time>
      </trkpt>
      <trkpt lat="44.148525" lon="5.316501">
        <ele>1373.61792</ele>
        <time>2021-06-30T18:35:34Z</time>
      </trkpt>
      <trkpt lat="44.148750" lon="5.316613">
        <ele>1375.53577</ele>
        <time>2021-06-30T18:35:35Z</time>
      </trkpt>
      <trkpt lat="44.148949" lon="5.316727">
        <ele>1377.13269</ele>
        <time>2021-06-30T18:35:36Z</time>
      </trkpt>
      <trkpt lat="44.149166" lon="5.316865">
        <ele>1379.28528</ele>
        <time>2021-06-30T18:35:37Z</time>
      </trkpt>
      <trkpt lat="44.149395" lon="5.317028">
        <ele>1381.28882</ele>
        <time>2021-06-30T18:35:38Z</time>
      </trkpt>
      <trkpt lat="44.149586" lon="5.317166">
        <ele>1382.46606</ele>
        <time>2021-06-30T18:35:39Z</time>
      </trkpt>
      <trkpt lat="44.149586" lon="5.317166">
        <ele>1383.79492</ele>
        <time>2021-06-30T18:35:40Z</time>
      </trkpt>
      <trkpt lat="44.149776" lon="5.317301">
        <ele>1385.64612</ele>
        <time>2021-06-30T18:35:41Z</time>
      </trkpt>
      <trkpt lat="44.149982" lon="5.317424">
        <ele>1387.53662</ele>
        <time>2021-06-30T18:35:42Z</time>
      </trkpt>
      <trkpt lat="44.150185" lon="5.317515">
        <ele>1389.52075</ele>
        <time>2021-06-30T18:35:43Z</time>
      </trkpt>
      <trkpt lat="44.150440" lon="5.317607">
        <ele>1390.39465</ele>
        <time>2021-06-30T18:35:44Z</time>
      </trkpt>
      <trkpt lat="44.150703" lon="5.317759">
        <ele>1392.62708</ele>
        <time>2021-06-30T18:35:45Z</time>
      </trkpt>
      <trkpt lat="44.150887" lon="5.317873">
        <ele>1392.69360</ele>
        <time>2021-06-30T18:35:46Z</time>
      </trkpt>
      <trkpt lat="44.151054" lon="5.318025">
        <ele>1394.45850</ele>
        <time>2021-06-30T18:35:47Z</time>
      </trkpt>
      <trkpt lat="44.151264" lon="5.318222">
        <ele>1396.21411</ele>
        <time>2021-06-30T18:35:48Z</time>
      </trkpt>
      <trkpt lat="44.151413" lon="5.318365">
        <ele>1397.62878</ele>
        <time>2021-06-30T18:35:49Z</time>
      </trkpt>
      <trkpt lat="44.151413" lon="5.318365">
        <ele>1398.93591</ele>
        <time>2021-06-30T18:35:50Z</time>
      </trkpt>
      <trkpt lat="44.151566" lon="5.318512">
        <ele>1400.89014</ele>
        <time>2021-06-30T18:35:51Z</time>
      </trkpt>
      <trkpt lat="44.151703" lon="5.318643">
        <ele>1402.31140</ele>
        <time>2021-06-30T18:35:52Z</time>
      </trkpt>
      <trkpt lat="44.151814" lon="5.318750">
        <ele>1394.22156</ele>
        <time>2021-06-30T18:35:53Z</time>
      </trkpt>
      <trkpt lat="44.151917" lon="5.318851">
        <ele>1394.30542</ele>
        <time>2021-06-30T18:35:54Z</time>
      </trkpt>
      <trkpt lat="44.151997" lon="5.318893">
        <ele>1394.54553</ele>
        <time>2021-06-30T18:35:55Z</time>
      </trkpt>
      <trkpt lat="44.152077" lon="5.318848">
        <ele>1399.75488</ele>
        <time>2021-06-30T18:35:56Z</time>
      </trkpt>
      <trkpt lat="44.152126" lon="5.318810">
        <ele>1403.25562</ele>
        <time>2021-06-30T18:35:57Z</time>
      </trkpt>
      <trkpt lat="44.152203" lon="5.318708">
        <ele>1405.96948</ele>
        <time>2021-06-30T18:35:58Z</time>
      </trkpt>
      <trkpt lat="44.152233" lon="5.318595">
        <ele>1408.06787</ele>
        <time>2021-06-30T18:35:59Z</time>
      </trkpt>
      <trkpt lat="44.152218" lon="5.318415">
        <ele>1409.25610</ele>
        <time>2021-06-30T18:36:00Z</time>
      </trkpt>
      <trkpt lat="44.152172" lon="5.318226">
        <ele>1400.12378</ele>
        <time>2021-06-30T18:36:01Z</time>
      </trkpt>
      <trkpt lat="44.152172" lon="5.318226">
        <ele>1402.10791</ele>
        <time>2021-06-30T18:36:02Z</time>
      </trkpt>
      <trkpt lat="44.152115" lon="5.318037">
        <ele>1410.93933</ele>
        <time>2021-06-30T18:36:03Z</time>
      </trkpt>
      <trkpt lat="44.152035" lon="5.317781">
        <ele>1414.83838</ele>
        <time>2021-06-30T18:36:04Z</time>
      </trkpt>
      <trkpt lat="44.151932" lon="5.317443">
        <ele>1417.99512</ele>
        <time>2021-06-30T18:36:05Z</time>
      </trkpt>
      <trkpt lat="44.151848" lon="5.317171">
        <ele>1420.15625</ele>
        <time>2021-06-30T18:36:06Z</time>
      </trkpt>
      <trkpt lat="44.151733" lon="5.316883">
        <ele>1422.55811</ele>
        <time>2021-06-30T18:36:07Z</time>
      </trkpt>
      <trkpt lat="44.151646" lon="5.316660">
        <ele>1425.90015</ele>
        <time>2021-06-30T18:36:08Z</time>
      </trkpt>
      <trkpt lat="44.151554" lon="5.316387">
        <ele>1427.61633</ele>
        <time>2021-06-30T18:36:09Z</time>
      </trkpt>
      <trkpt lat="44.151443" lon="5.315990">
        <ele>1429.04529</ele>
        <time>2021-06-30T18:36:10Z</time>
      </trkpt>
      <trkpt lat="44.151344" lon="5.315617">
        <ele>1431.89783</ele>
        <time>2021-06-30T18:36:11Z</time>
      </trkpt>
      <trkpt lat="44.151245" lon="5.315259">
        <ele>1434.46265</ele>
        <time>2021-06-30T18:36:12Z</time>
      </trkpt>
      <trkpt lat="44.151138" lon="5.314956">
        <ele>1436.41382</ele>
        <time>2021-06-30T18:36:13Z</time>
      </trkpt>
      <trkpt lat="44.151035" lon="5.314718">
        <ele>1437.99609</ele>
        <time>2021-06-30T18:36:14Z</time>
      </trkpt>
      <trkpt lat="44.150948" lon="5.314488">
        <ele>1428.72632</ele>
        <time>2021-06-30T18:36:15Z</time>
      </trkpt>
      <trkpt lat="44.150909" lon="5.314278">
        <ele>1428.12720</ele>
        <time>2021-06-30T18:36:16Z</time>
      </trkpt>
      <trkpt lat="44.150909" lon="5.314278">
        <ele>1428.39490</ele>
        <time>2021-06-30T18:36:17Z</time>
      </trkpt>
      <trkpt lat="44.150913" lon="5.314209">
        <ele>1429.09009</ele>
        <time>2021-06-30T18:36:18Z</time>
      </trkpt>
      <trkpt lat="44.150932" lon="5.314114">
        <ele>1429.44629</ele>
        <time>2021-06-30T18:36:19Z</time>
      </trkpt>
      <trkpt lat="44.150951" lon="5.314039">
        <ele>1432.25439</ele>
        <time>2021-06-30T18:36:20Z</time>
      </trkpt>
      <trkpt lat="44.151070" lon="5.313849">
        <ele>1433.55481</ele>
        <time>2021-06-30T18:36:21Z</time>
      </trkpt>
      <trkpt lat="44.151203" lon="5.313708">
        <ele>1434.99451</ele>
        <time>2021-06-30T18:36:22Z</time>
      </trkpt>
      <trkpt lat="44.151329" lon="5.313607">
        <ele>1437.05579</ele>
        <time>2021-06-30T18:36:23Z</time>
      </trkpt>
      <trkpt lat="44.151470" lon="5.313519">
        <ele>1436.54224</ele>
        <time>2021-06-30T18:36:24Z</time>
      </trkpt>
      <trkpt lat="44.151608" lon="5.313490">
        <ele>1435.88196</ele>
        <time>2021-06-30T18:36:25Z</time>
      </trkpt>
      <trkpt lat="44.151714" lon="5.313484">
        <ele>1438.57996</ele>
        <time>2021-06-30T18:36:26Z</time>
      </trkpt>
      <trkpt lat="44.151814" lon="5.313493">
        <ele>1439.09985</ele>
        <time>2021-06-30T18:36:27Z</time>
      </trkpt>
      <trkpt lat="44.151970" lon="5.313543">
        <ele>1440.82947</ele>
        <time>2021-06-30T18:36:28Z</time>
      </trkpt>
      <trkpt lat="44.151970" lon="5.313543">
        <ele>1442.80798</ele>
        <time>2021-06-30T18:36:29Z</time>
      </trkpt>
      <trkpt lat="44.152145" lon="5.313622">
        <ele>1443.82275</ele>
        <time>2021-06-30T18:36:30Z</time>
      </trkpt>
      <trkpt lat="44.152248" lon="5.313708">
        <ele>1456.30249</ele>
        <time>2021-06-30T18:36:31Z</time>
      </trkpt>
      <trkpt lat="44.152332" lon="5.313783">
        <ele>1459.65613</ele>
        <time>2021-06-30T18:36:32Z</time>
      </trkpt>
      <trkpt lat="44.152481" lon="5.313950">
        <ele>1447.71521</ele>
        <time>2021-06-30T18:36:33Z</time>
      </trkpt>
      <trkpt lat="44.152626" lon="5.314116">
        <ele>1448.61353</ele>
        <time>2021-06-30T18:36:34Z</time>
      </trkpt>
      <trkpt lat="44.152760" lon="5.314254">
        <ele>1449.54431</ele>
        <time>2021-06-30T18:36:35Z</time>
      </trkpt>
      <trkpt lat="44.152885" lon="5.314353">
        <ele>1462.67065</ele>
        <time>2021-06-30T18:36:36Z</time>
      </trkpt>
      <trkpt lat="44.153011" lon="5.314418">
        <ele>1465.61536</ele>
        <time>2021-06-30T18:36:37Z</time>
      </trkpt>
      <trkpt lat="44.153152" lon="5.314471">
        <ele>1467.98962</ele>
        <time>2021-06-30T18:36:38Z</time>
      </trkpt>
      <trkpt lat="44.153313" lon="5.314533">
        <ele>1469.85718</ele>
        <time>2021-06-30T18:36:39Z</time>
      </trkpt>
      <trkpt lat="44.153313" lon="5.314533">
        <ele>1471.79163</ele>
        <time>2021-06-30T18:36:40Z</time>
      </trkpt>
      <trkpt lat="44.153503" lon="5.314627">
        <ele>1473.28894</ele>
        <time>2021-06-30T18:36:41Z</time>
      </trkpt>
      <trkpt lat="44.153664" lon="5.314713">
        <ele>1459.42737</ele>
        <time>2021-06-30T18:36:42Z</time>
      </trkpt>
      <trkpt lat="44.153812" lon="5.314794">
        <ele>1460.34717</ele>
        <time>2021-06-30T18:36:43Z</time>
      </trkpt>
      <trkpt lat="44.153980" lon="5.314903">
        <ele>1460.33850</ele>
        <time>2021-06-30T18:36:44Z</time>
      </trkpt>
      <trkpt lat="44.154076" lon="5.314973">
        <ele>1461.19800</ele>
        <time>2021-06-30T18:36:45Z</time>
      </trkpt>
      <trkpt lat="44.154213" lon="5.315074">
        <ele>1474.19543</ele>
        <time>2021-06-30T18:36:46Z</time>
      </trkpt>
      <trkpt lat="44.154308" lon="5.315143">
        <ele>1461.95056</ele>
        <time>2021-06-30T18:36:47Z</time>
      </trkpt>
      <trkpt lat="44.154408" lon="5.315212">
        <ele>1463.21985</ele>
        <time>2021-06-30T18:36:48Z</time>
      </trkpt>
      <trkpt lat="44.154495" lon="5.315276">
        <ele>1464.40137</ele>
        <time>2021-06-30T18:36:49Z</time>
      </trkpt>
      <trkpt lat="44.154583" lon="5.315339">
        <ele>1465.40491</ele>
        <time>2021-06-30T18:36:50Z</time>
      </trkpt>
      <trkpt lat="44.154652" lon="5.315389">
        <ele>1466.20020</ele>
        <time>2021-06-30T18:36:51Z</time>
      </trkpt>
      <trkpt lat="44.154701" lon="5.315426">
        <ele>1467.03662</ele>
        <time>2021-06-30T18:36:52Z</time>
      </trkpt>
      <trkpt lat="44.154701" lon="5.315426">
        <ele>1467.92651</ele>
        <time>2021-06-30T18:36:53Z</time>
      </trkpt>
      <trkpt lat="44.154762" lon="5.315449">
        <ele>1468.95740</ele>
        <time>2021-06-30T18:36:54Z</time>
      </trkpt>
      <trkpt lat="44.154831" lon="5.315471">
        <ele>1469.48218</ele>
        <time>2021-06-30T18:36:55Z</time>
      </trkpt>
      <trkpt lat="44.154907" lon="5.315465">
        <ele>1470.56860</ele>
        <time>2021-06-30T18:36:56Z</time>
      </trkpt>
      <trkpt lat="44.154972" lon="5.315402">
        <ele>1471.43933</ele>
        <time>2021-06-30T18:36:57Z</time>
      </trkpt>
      <trkpt lat="44.154980" lon="5.315285">
        <ele>1472.39392</ele>
        <time>2021-06-30T18:36:58Z</time>
      </trkpt>
      <trkpt lat="44.154915" lon="5.315091">
        <ele>1472.88171</ele>
        <time>2021-06-30T18:36:59Z</time>
      </trkpt>
      <trkpt lat="44.154865" lon="5.314941">
        <ele>1473.13733</ele>
        <time>2021-06-30T18:37:00Z</time>
      </trkpt>
      <trkpt lat="44.154827" lon="5.314808">
        <ele>1474.61084</ele>
        <time>2021-06-30T18:37:01Z</time>
      </trkpt>
      <trkpt lat="44.154800" lon="5.314631">
        <ele>1475.78064</ele>
        <time>2021-06-30T18:37:02Z</time>
      </trkpt>
      <trkpt lat="44.154789" lon="5.314424">
        <ele>1477.90723</ele>
        <time>2021-06-30T18:37:03Z</time>
      </trkpt>
      <trkpt lat="44.154793" lon="5.314245">
        <ele>1479.39404</ele>
        <time>2021-06-30T18:37:04Z</time>
      </trkpt>
      <trkpt lat="44.154793" lon="5.314245">
        <ele>1480.55981</ele>
        <time>2021-06-30T18:37:05Z</time>
      </trkpt>
      <trkpt lat="44.154793" lon="5.314048">
        <ele>1480.53845</ele>
        <time>2021-06-30T18:37:06Z</time>
      </trkpt>
      <trkpt lat="44.154797" lon="5.313824">
        <ele>1488.29395</ele>
        <time>2021-06-30T18:37:07Z</time>
      </trkpt>
      <trkpt lat="44.154808" lon="5.313626">
        <ele>1489.94678</ele>
        <time>2021-06-30T18:37:08Z</time>
      </trkpt>
      <trkpt lat="44.154816" lon="5.313439">
        <ele>1490.97375</ele>
        <time>2021-06-30T18:37:09Z</time>
      </trkpt>
      <trkpt lat="44.154827" lon="5.313207">
        <ele>1492.41345</ele>
        <time>2021-06-30T18:37:10Z</time>
      </trkpt>
      <trkpt lat="44.154839" lon="5.313003">
        <ele>1493.52161</ele>
        <time>2021-06-30T18:37:11Z</time>
      </trkpt>
      <trkpt lat="44.154873" lon="5.312788">
        <ele>1494.27039</ele>
        <time>2021-06-30T18:37:12Z</time>
      </trkpt>
      <trkpt lat="44.154903" lon="5.312637">
        <ele>1495.44189</ele>
        <time>2021-06-30T18:37:13Z</time>
      </trkpt>
      <trkpt lat="44.154949" lon="5.312485">
        <ele>1496.69824</ele>
        <time>2021-06-30T18:37:14Z</time>
      </trkpt>
      <trkpt lat="44.155022" lon="5.312352">
        <ele>1498.25085</ele>
        <time>2021-06-30T18:37:15Z</time>
      </trkpt>
      <trkpt lat="44.155140" lon="5.312227">
        <ele>1499.46826</ele>
        <time>2021-06-30T18:37:16Z</time>
      </trkpt>
      <trkpt lat="44.155140" lon="5.312227">
        <ele>1499.66162</ele>
        <time>2021-06-30T18:37:17Z</time>
      </trkpt>
      <trkpt lat="44.155273" lon="5.312185">
        <ele>1500.33691</ele>
        <time>2021-06-30T18:37:18Z</time>
      </trkpt>
      <trkpt lat="44.155445" lon="5.312220">
        <ele>1501.79346</ele>
        <time>2021-06-30T18:37:19Z</time>
      </trkpt>
      <trkpt lat="44.155582" lon="5.312308">
        <ele>1502.34131</ele>
        <time>2021-06-30T18:37:20Z</time>
      </trkpt>
      <trkpt lat="44.155693" lon="5.312386">
        <ele>1503.47656</ele>
        <time>2021-06-30T18:37:21Z</time>
      </trkpt>
      <trkpt lat="44.155834" lon="5.312486">
        <ele>1504.83032</ele>
        <time>2021-06-30T18:37:22Z</time>
      </trkpt>
      <trkpt lat="44.155975" lon="5.312587">
        <ele>1505.37988</ele>
        <time>2021-06-30T18:37:23Z</time>
      </trkpt>
      <trkpt lat="44.156116" lon="5.312680">
        <ele>1504.38232</ele>
        <time>2021-06-30T18:37:24Z</time>
      </trkpt>
      <trkpt lat="44.156258" lon="5.312761">
        <ele>1505.57520</ele>
        <time>2021-06-30T18:37:25Z</time>
      </trkpt>
      <trkpt lat="44.156410" lon="5.312847">
        <ele>1504.93359</ele>
        <time>2021-06-30T18:37:26Z</time>
      </trkpt>
      <trkpt lat="44.156559" lon="5.312933">
        <ele>1506.08838</ele>
        <time>2021-06-30T18:37:27Z</time>
      </trkpt>
      <trkpt lat="44.156719" lon="5.313024">
        <ele>1506.93530</ele>
        <time>2021-06-30T18:37:28Z</time>
      </trkpt>
      <trkpt lat="44.156879" lon="5.313099">
        <ele>1506.94385</ele>
        <time>2021-06-30T18:37:29Z</time>
      </trkpt>
      <trkpt lat="44.156879" lon="5.313099">
        <ele>1508.42627</ele>
        <time>2021-06-30T18:37:30Z</time>
      </trkpt>
      <trkpt lat="44.157047" lon="5.313161">
        <ele>1509.81836</ele>
        <time>2021-06-30T18:37:31Z</time>
      </trkpt>
      <trkpt lat="44.157234" lon="5.313256">
        <ele>1511.52490</ele>
        <time>2021-06-30T18:37:32Z</time>
      </trkpt>
      <trkpt lat="44.157368" lon="5.313350">
        <ele>1512.03809</ele>
        <time>2021-06-30T18:37:33Z</time>
      </trkpt>
      <trkpt lat="44.157524" lon="5.313449">
        <ele>1513.22144</ele>
        <time>2021-06-30T18:37:34Z</time>
      </trkpt>
      <trkpt lat="44.157658" lon="5.313466">
        <ele>1513.95020</ele>
        <time>2021-06-30T18:37:35Z</time>
      </trkpt>
      <trkpt lat="44.157776" lon="5.313391">
        <ele>1513.64209</ele>
        <time>2021-06-30T18:37:36Z</time>
      </trkpt>
      <trkpt lat="44.157803" lon="5.313323">
        <ele>1513.12549</ele>
        <time>2021-06-30T18:37:37Z</time>
      </trkpt>
      <trkpt lat="44.157822" lon="5.313138">
        <ele>1514.22949</ele>
        <time>2021-06-30T18:37:38Z</time>
      </trkpt>
      <trkpt lat="44.157814" lon="5.312873">
        <ele>1515.43628</ele>
        <time>2021-06-30T18:37:39Z</time>
      </trkpt>
      <trkpt lat="44.157803" lon="5.312603">
        <ele>1515.89014</ele>
        <time>2021-06-30T18:37:40Z</time>
      </trkpt>
      <trkpt lat="44.157803" lon="5.312603">
        <ele>1517.12451</ele>
        <time>2021-06-30T18:37:41Z</time>
      </trkpt>
      <trkpt lat="44.157791" lon="5.312385">
        <ele>1519.29639</ele>
        <time>2021-06-30T18:37:42Z</time>
      </trkpt>
      <trkpt lat="44.157768" lon="5.312191">
        <ele>1522.17969</ele>
        <time>2021-06-30T18:37:43Z</time>
      </trkpt>
      <trkpt lat="44.157696" lon="5.311959">
        <ele>1523.98877</ele>
        <time>2021-06-30T18:37:44Z</time>
      </trkpt>
      <trkpt lat="44.157623" lon="5.311744">
        <ele>1525.37817</ele>
        <time>2021-06-30T18:37:45Z</time>
      </trkpt>
      <trkpt lat="44.157543" lon="5.311544">
        <ele>1526.79443</ele>
        <time>2021-06-30T18:37:46Z</time>
      </trkpt>
      <trkpt lat="44.157494" lon="5.311384">
        <ele>1527.71606</ele>
        <time>2021-06-30T18:37:47Z</time>
      </trkpt>
      <trkpt lat="44.157448" lon="5.311136">
        <ele>1527.43628</ele>
        <time>2021-06-30T18:37:48Z</time>
      </trkpt>
      <trkpt lat="44.157425" lon="5.310916">
        <ele>1527.01465</ele>
        <time>2021-06-30T18:37:49Z</time>
      </trkpt>
      <trkpt lat="44.157417" lon="5.310679">
        <ele>1526.88647</ele>
        <time>2021-06-30T18:37:50Z</time>
      </trkpt>
      <trkpt lat="44.157421" lon="5.310420">
        <ele>1529.83887</ele>
        <time>2021-06-30T18:37:51Z</time>
      </trkpt>
      <trkpt lat="44.157444" lon="5.310147">
        <ele>1531.93921</ele>
        <time>2021-06-30T18:37:52Z</time>
      </trkpt>
      <trkpt lat="44.157490" lon="5.309915">
        <ele>1533.69678</ele>
        <time>2021-06-30T18:37:53Z</time>
      </trkpt>
      <trkpt lat="44.157551" lon="5.309662">
        <ele>1535.02539</ele>
        <time>2021-06-30T18:37:54Z</time>
      </trkpt>
      <trkpt lat="44.157551" lon="5.309662">
        <ele>1537.45605</ele>
        <time>2021-06-30T18:37:55Z</time>
      </trkpt>
      <trkpt lat="44.157619" lon="5.309463">
        <ele>1538.53101</ele>
        <time>2021-06-30T18:37:56Z</time>
      </trkpt>
      <trkpt lat="44.157688" lon="5.309271">
        <ele>1539.32471</ele>
        <time>2021-06-30T18:37:57Z</time>
      </trkpt>
      <trkpt lat="44.157749" lon="5.309117">
        <ele>1540.81982</ele>
        <time>2021-06-30T18:37:58Z</time>
      </trkpt>
      <trkpt lat="44.157818" lon="5.308950">
        <ele>1541.47021</ele>
        <time>2021-06-30T18:37:59Z</time>
      </trkpt>
      <trkpt lat="44.157898" lon="5.308812">
        <ele>1542.10645</ele>
        <time>2021-06-30T18:38:00Z</time>
      </trkpt>
      <trkpt lat="44.157990" lon="5.308695">
        <ele>1544.03247</ele>
        <time>2021-06-30T18:38:01Z</time>
      </trkpt>
      <trkpt lat="44.158119" lon="5.308560">
        <ele>1544.80640</ele>
        <time>2021-06-30T18:38:02Z</time>
      </trkpt>
      <trkpt lat="44.158272" lon="5.308421">
        <ele>1545.24585</ele>
        <time>2021-06-30T18:38:03Z</time>
      </trkpt>
      <trkpt lat="44.158413" lon="5.308322">
        <ele>1547.72559</ele>
        <time>2021-06-30T18:38:04Z</time>
      </trkpt>
      <trkpt lat="44.158615" lon="5.308210">
        <ele>1549.54614</ele>
        <time>2021-06-30T18:38:05Z</time>
      </trkpt>
      <trkpt lat="44.158829" lon="5.308146">
        <ele>1551.10498</ele>
        <time>2021-06-30T18:38:06Z</time>
      </trkpt>
      <trkpt lat="44.158829" lon="5.308146">
        <ele>1551.88696</ele>
        <time>2021-06-30T18:38:07Z</time>
      </trkpt>
      <trkpt lat="44.159008" lon="5.308095">
        <ele>1552.89453</ele>
        <time>2021-06-30T18:38:08Z</time>
      </trkpt>
      <trkpt lat="44.159225" lon="5.308131">
        <ele>1554.29492</ele>
        <time>2021-06-30T18:38:09Z</time>
      </trkpt>
      <trkpt lat="44.159447" lon="5.308195">
        <ele>1556.61719</ele>
        <time>2021-06-30T18:38:10Z</time>
      </trkpt>
      <trkpt lat="44.159649" lon="5.308231">
        <ele>1558.55420</ele>
        <time>2021-06-30T18:38:11Z</time>
      </trkpt>
      <trkpt lat="44.159805" lon="5.308246">
        <ele>1558.75073</ele>
        <time>2021-06-30T18:38:12Z</time>
      </trkpt>
      <trkpt lat="44.159943" lon="5.308235">
        <ele>1559.20410</ele>
        <time>2021-06-30T18:38:13Z</time>
      </trkpt>
      <trkpt lat="44.160072" lon="5.308170">
        <ele>1553.58081</ele>
        <time>2021-06-30T18:38:14Z</time>
      </trkpt>
      <trkpt lat="44.160145" lon="5.308069">
        <ele>1553.74988</ele>
        <time>2021-06-30T18:38:15Z</time>
      </trkpt>
      <trkpt lat="44.160172" lon="5.307976">
        <ele>1553.91907</ele>
        <time>2021-06-30T18:38:16Z</time>
      </trkpt>
      <trkpt lat="44.160179" lon="5.307866">
        <ele>1554.30322</ele>
        <time>2021-06-30T18:38:17Z</time>
      </trkpt>
      <trkpt lat="44.160179" lon="5.307866">
        <ele>1555.56299</ele>
        <time>2021-06-30T18:38:18Z</time>
      </trkpt>
      <trkpt lat="44.160164" lon="5.307769">
        <ele>1556.17627</ele>
        <time>2021-06-30T18:38:19Z</time>
      </trkpt>
      <trkpt lat="44.160114" lon="5.307663">
        <ele>1558.14355</ele>
        <time>2021-06-30T18:38:20Z</time>
      </trkpt>
      <trkpt lat="44.160042" lon="5.307551">
        <ele>1559.53015</ele>
        <time>2021-06-30T18:38:21Z</time>
      </trkpt>
      <trkpt lat="44.159901" lon="5.307336">
        <ele>1560.82288</ele>
        <time>2021-06-30T18:38:22Z</time>
      </trkpt>
      <trkpt lat="44.159821" lon="5.307177">
        <ele>1560.68958</ele>
        <time>2021-06-30T18:38:23Z</time>
      </trkpt>
      <trkpt lat="44.159748" lon="5.306980">
        <ele>1561.26941</ele>
        <time>2021-06-30T18:38:24Z</time>
      </trkpt>
      <trkpt lat="44.159702" lon="5.306787">
        <ele>1562.64526</ele>
        <time>2021-06-30T18:38:25Z</time>
      </trkpt>
      <trkpt lat="44.159664" lon="5.306571">
        <ele>1563.92175</ele>
        <time>2021-06-30T18:38:26Z</time>
      </trkpt>
      <trkpt lat="44.159637" lon="5.306350">
        <ele>1565.68420</ele>
        <time>2021-06-30T18:38:27Z</time>
      </trkpt>
      <trkpt lat="44.159611" lon="5.306141">
        <ele>1566.82520</ele>
        <time>2021-06-30T18:38:28Z</time>
      </trkpt>
      <trkpt lat="44.159611" lon="5.306141">
        <ele>1567.93591</ele>
        <time>2021-06-30T18:38:29Z</time>
      </trkpt>
      <trkpt lat="44.159603" lon="5.305921">
        <ele>1569.13513</ele>
        <time>2021-06-30T18:38:30Z</time>
      </trkpt>
      <trkpt lat="44.159599" lon="5.305706">
        <ele>1570.87695</ele>
        <time>2021-06-30T18:38:31Z</time>
      </trkpt>
      <trkpt lat="44.159603" lon="5.305461">
        <ele>1572.33557</ele>
        <time>2021-06-30T18:38:32Z</time>
      </trkpt>
      <trkpt lat="44.159611" lon="5.305215">
        <ele>1574.10413</ele>
        <time>2021-06-30T18:38:33Z</time>
      </trkpt>
      <trkpt lat="44.159653" lon="5.304931">
        <ele>1579.26855</ele>
        <time>2021-06-30T18:38:34Z</time>
      </trkpt>
      <trkpt lat="44.159695" lon="5.304640">
        <ele>1581.91895</ele>
        <time>2021-06-30T18:38:35Z</time>
      </trkpt>
      <trkpt lat="44.159748" lon="5.304335">
        <ele>1583.85303</ele>
        <time>2021-06-30T18:38:36Z</time>
      </trkpt>
      <trkpt lat="44.159801" lon="5.304037">
        <ele>1586.02637</ele>
        <time>2021-06-30T18:38:37Z</time>
      </trkpt>
      <trkpt lat="44.159855" lon="5.303749">
        <ele>1584.76892</ele>
        <time>2021-06-30T18:38:38Z</time>
      </trkpt>
      <trkpt lat="44.159912" lon="5.303477">
        <ele>1586.16724</ele>
        <time>2021-06-30T18:38:39Z</time>
      </trkpt>
      <trkpt lat="44.159912" lon="5.303477">
        <ele>1586.60046</ele>
        <time>2021-06-30T18:38:40Z</time>
      </trkpt>
      <trkpt lat="44.159981" lon="5.303239">
        <ele>1587.51282</ele>
        <time>2021-06-30T18:38:41Z</time>
      </trkpt>
      <trkpt lat="44.160061" lon="5.303019">
        <ele>1588.74902</ele>
        <time>2021-06-30T18:38:42Z</time>
      </trkpt>
      <trkpt lat="44.160149" lon="5.302801">
        <ele>1593.38452</ele>
        <time>2021-06-30T18:38:43Z</time>
      </trkpt>
      <trkpt lat="44.160240" lon="5.302566">
        <ele>1595.24072</ele>
        <time>2021-06-30T18:38:44Z</time>
      </trkpt>
      <trkpt lat="44.160366" lon="5.302259">
        <ele>1594.20007</ele>
        <time>2021-06-30T18:38:45Z</time>
      </trkpt>
      <trkpt lat="44.160488" lon="5.302002">
        <ele>1595.68347</ele>
        <time>2021-06-30T18:38:46Z</time>
      </trkpt>
      <trkpt lat="44.160568" lon="5.301828">
        <ele>1597.20984</ele>
        <time>2021-06-30T18:38:47Z</time>
      </trkpt>
      <trkpt lat="44.160645" lon="5.301669">
        <ele>1597.54272</ele>
        <time>2021-06-30T18:38:48Z</time>
      </trkpt>
      <trkpt lat="44.160744" lon="5.301501">
        <ele>1598.95825</ele>
        <time>2021-06-30T18:38:49Z</time>
      </trkpt>
      <trkpt lat="44.160744" lon="5.301501">
        <ele>1601.26965</ele>
        <time>2021-06-30T18:38:50Z</time>
      </trkpt>
      <trkpt lat="44.160881" lon="5.301310">
        <ele>1604.95459</ele>
        <time>2021-06-30T18:38:51Z</time>
      </trkpt>
      <trkpt lat="44.161060" lon="5.301117">
        <ele>1606.91675</ele>
        <time>2021-06-30T18:38:52Z</time>
      </trkpt>
      <trkpt lat="44.161278" lon="5.300943">
        <ele>1607.92773</ele>
        <time>2021-06-30T18:38:53Z</time>
      </trkpt>
      <trkpt lat="44.161461" lon="5.300819">
        <ele>1605.98450</ele>
        <time>2021-06-30T18:38:54Z</time>
      </trkpt>
      <trkpt lat="44.161621" lon="5.300755">
        <ele>1606.11304</ele>
        <time>2021-06-30T18:38:55Z</time>
      </trkpt>
      <trkpt lat="44.161770" lon="5.300756">
        <ele>1606.08850</ele>
        <time>2021-06-30T18:38:56Z</time>
      </trkpt>
      <trkpt lat="44.161865" lon="5.300805">
        <ele>1606.21240</ele>
        <time>2021-06-30T18:38:57Z</time>
      </trkpt>
      <trkpt lat="44.161964" lon="5.300915">
        <ele>1606.33411</ele>
        <time>2021-06-30T18:38:58Z</time>
      </trkpt>
      <trkpt lat="44.162067" lon="5.301090">
        <ele>1609.05774</ele>
        <time>2021-06-30T18:38:59Z</time>
      </trkpt>
      <trkpt lat="44.162167" lon="5.301269">
        <ele>1614.25610</ele>
        <time>2021-06-30T18:39:00Z</time>
      </trkpt>
      <trkpt lat="44.162273" lon="5.301465">
        <ele>1611.52283</ele>
        <time>2021-06-30T18:39:01Z</time>
      </trkpt>
      <trkpt lat="44.162273" lon="5.301465">
        <ele>1614.95850</ele>
        <time>2021-06-30T18:39:02Z</time>
      </trkpt>
      <trkpt lat="44.162354" lon="5.301608">
        <ele>1617.26843</ele>
        <time>2021-06-30T18:39:03Z</time>
      </trkpt>
      <trkpt lat="44.162441" lon="5.301773">
        <ele>1618.81165</ele>
        <time>2021-06-30T18:39:04Z</time>
      </trkpt>
      <trkpt lat="44.162540" lon="5.301955">
        <ele>1618.61230</ele>
        <time>2021-06-30T18:39:05Z</time>
      </trkpt>
      <trkpt lat="44.162655" lon="5.302168">
        <ele>1620.07068</ele>
        <time>2021-06-30T18:39:06Z</time>
      </trkpt>
      <trkpt lat="44.162762" lon="5.302331">
        <ele>1621.42529</ele>
        <time>2021-06-30T18:39:07Z</time>
      </trkpt>
      <trkpt lat="44.162868" lon="5.302457">
        <ele>1621.14758</ele>
        <time>2021-06-30T18:39:08Z</time>
      </trkpt>
      <trkpt lat="44.162975" lon="5.302514">
        <ele>1625.95215</ele>
        <time>2021-06-30T18:39:09Z</time>
      </trkpt>
      <trkpt lat="44.163101" lon="5.302518">
        <ele>1623.77795</ele>
        <time>2021-06-30T18:39:10Z</time>
      </trkpt>
      <trkpt lat="44.163239" lon="5.302452">
        <ele>1624.40479</ele>
        <time>2021-06-30T18:39:11Z</time>
      </trkpt>
      <trkpt lat="44.163239" lon="5.302452">
        <ele>1627.08582</ele>
        <time>2021-06-30T18:39:12Z</time>
      </trkpt>
      <trkpt lat="44.163425" lon="5.302333">
        <ele>1628.92236</ele>
        <time>2021-06-30T18:39:13Z</time>
      </trkpt>
      <trkpt lat="44.163631" lon="5.302186">
        <ele>1628.99011</ele>
        <time>2021-06-30T18:39:14Z</time>
      </trkpt>
      <trkpt lat="44.163792" lon="5.302036">
        <ele>1630.53174</ele>
        <time>2021-06-30T18:39:15Z</time>
      </trkpt>
      <trkpt lat="44.163883" lon="5.301905">
        <ele>1631.18896</ele>
        <time>2021-06-30T18:39:16Z</time>
      </trkpt>
      <trkpt lat="44.163994" lon="5.301690">
        <ele>1634.47607</ele>
        <time>2021-06-30T18:39:17Z</time>
      </trkpt>
      <trkpt lat="44.164085" lon="5.301441">
        <ele>1635.61914</ele>
        <time>2021-06-30T18:39:18Z</time>
      </trkpt>
      <trkpt lat="44.164165" lon="5.301205">
        <ele>1637.32227</ele>
        <time>2021-06-30T18:39:19Z</time>
      </trkpt>
      <trkpt lat="44.164249" lon="5.300943">
        <ele>1639.22803</ele>
        <time>2021-06-30T18:39:20Z</time>
      </trkpt>
      <trkpt lat="44.164333" lon="5.300699">
        <ele>1639.40161</ele>
        <time>2021-06-30T18:39:21Z</time>
      </trkpt>
      <trkpt lat="44.164413" lon="5.300467">
        <ele>1641.09778</ele>
        <time>2021-06-30T18:39:22Z</time>
      </trkpt>
      <trkpt lat="44.164505" lon="5.300223">
        <ele>1642.85278</ele>
        <time>2021-06-30T18:39:23Z</time>
      </trkpt>
      <trkpt lat="44.164505" lon="5.300223">
        <ele>1642.98035</ele>
        <time>2021-06-30T18:39:24Z</time>
      </trkpt>
      <trkpt lat="44.164585" lon="5.300019">
        <ele>1642.92615</ele>
        <time>2021-06-30T18:39:25Z</time>
      </trkpt>
      <trkpt lat="44.164665" lon="5.299838">
        <ele>1647.40308</ele>
        <time>2021-06-30T18:39:26Z</time>
      </trkpt>
      <trkpt lat="44.164757" lon="5.299630">
        <ele>1649.29932</ele>
        <time>2021-06-30T18:39:27Z</time>
      </trkpt>
      <trkpt lat="44.164871" lon="5.299375">
        <ele>1651.13623</ele>
        <time>2021-06-30T18:39:28Z</time>
      </trkpt>
      <trkpt lat="44.164982" lon="5.299117">
        <ele>1652.82642</ele>
        <time>2021-06-30T18:39:29Z</time>
      </trkpt>
      <trkpt lat="44.165043" lon="5.298958">
        <ele>1654.34570</ele>
        <time>2021-06-30T18:39:30Z</time>
      </trkpt>
      <trkpt lat="44.165096" lon="5.298774">
        <ele>1656.24902</ele>
        <time>2021-06-30T18:39:31Z</time>
      </trkpt>
      <trkpt lat="44.165138" lon="5.298625">
        <ele>1657.32324</ele>
        <time>2021-06-30T18:39:32Z</time>
      </trkpt>
      <trkpt lat="44.165188" lon="5.298411">
        <ele>1658.77686</ele>
        <time>2021-06-30T18:39:33Z</time>
      </trkpt>
      <trkpt lat="44.165237" lon="5.298182">
        <ele>1657.12061</ele>
        <time>2021-06-30T18:39:34Z</time>
      </trkpt>
      <trkpt lat="44.165283" lon="5.297957">
        <ele>1659.71692</ele>
        <time>2021-06-30T18:39:35Z</time>
      </trkpt>
      <trkpt lat="44.165344" lon="5.297683">
        <ele>1659.76562</ele>
        <time>2021-06-30T18:39:36Z</time>
      </trkpt>
      <trkpt lat="44.165344" lon="5.297683">
        <ele>1663.38135</ele>
        <time>2021-06-30T18:39:37Z</time>
      </trkpt>
      <trkpt lat="44.165409" lon="5.297445">
        <ele>1665.21167</ele>
        <time>2021-06-30T18:39:38Z</time>
      </trkpt>
      <trkpt lat="44.165459" lon="5.297307">
        <ele>1666.69385</ele>
        <time>2021-06-30T18:39:39Z</time>
      </trkpt>
      <trkpt lat="44.165531" lon="5.297166">
        <ele>1668.37598</ele>
        <time>2021-06-30T18:39:40Z</time>
      </trkpt>
      <trkpt lat="44.165619" lon="5.297036">
        <ele>1669.87354</ele>
        <time>2021-06-30T18:39:41Z</time>
      </trkpt>
      <trkpt lat="44.165775" lon="5.296884">
        <ele>1670.92700</ele>
        <time>2021-06-30T18:39:42Z</time>
      </trkpt>
      <trkpt lat="44.165943" lon="5.296770">
        <ele>1671.48047</ele>
        <time>2021-06-30T18:39:43Z</time>
      </trkpt>
      <trkpt lat="44.166115" lon="5.296662">
        <ele>1673.44604</ele>
        <time>2021-06-30T18:39:44Z</time>
      </trkpt>
      <trkpt lat="44.166275" lon="5.296576">
        <ele>1674.07202</ele>
        <time>2021-06-30T18:39:45Z</time>
      </trkpt>
      <trkpt lat="44.166431" lon="5.296488">
        <ele>1675.84619</ele>
        <time>2021-06-30T18:39:46Z</time>
      </trkpt>
      <trkpt lat="44.166607" lon="5.296372">
        <ele>1676.99756</ele>
        <time>2021-06-30T18:39:47Z</time>
      </trkpt>
      <trkpt lat="44.166763" lon="5.296271">
        <ele>1678.47900</ele>
        <time>2021-06-30T18:39:48Z</time>
      </trkpt>
      <trkpt lat="44.166763" lon="5.296271">
        <ele>1679.28613</ele>
        <time>2021-06-30T18:39:49Z</time>
      </trkpt>
      <trkpt lat="44.166901" lon="5.296181">
        <ele>1681.42090</ele>
        <time>2021-06-30T18:39:50Z</time>
      </trkpt>
      <trkpt lat="44.167015" lon="5.296092">
        <ele>1684.63330</ele>
        <time>2021-06-30T18:39:51Z</time>
      </trkpt>
      <trkpt lat="44.167141" lon="5.295979">
        <ele>1685.99097</ele>
        <time>2021-06-30T18:39:52Z</time>
      </trkpt>
      <trkpt lat="44.167282" lon="5.295845">
        <ele>1686.95068</ele>
        <time>2021-06-30T18:39:53Z</time>
      </trkpt>
      <trkpt lat="44.167408" lon="5.295704">
        <ele>1688.84619</ele>
        <time>2021-06-30T18:39:54Z</time>
      </trkpt>
      <trkpt lat="44.167522" lon="5.295532">
        <ele>1691.33984</ele>
        <time>2021-06-30T18:39:55Z</time>
      </trkpt>
      <trkpt lat="44.167625" lon="5.295342">
        <ele>1691.66504</ele>
        <time>2021-06-30T18:39:56Z</time>
      </trkpt>
      <trkpt lat="44.167671" lon="5.295124">
        <ele>1691.75781</ele>
        <time>2021-06-30T18:39:57Z</time>
      </trkpt>
      <trkpt lat="44.167664" lon="5.294918">
        <ele>1691.91211</ele>
        <time>2021-06-30T18:39:58Z</time>
      </trkpt>
      <trkpt lat="44.167572" lon="5.294658">
        <ele>1692.40967</ele>
        <time>2021-06-30T18:39:59Z</time>
      </trkpt>
      <trkpt lat="44.167572" lon="5.294658">
        <ele>1693.29395</ele>
        <time>2021-06-30T18:40:00Z</time>
      </trkpt>
      <trkpt lat="44.167465" lon="5.294418">
        <ele>1697.48950</ele>
        <time>2021-06-30T18:40:01Z</time>
      </trkpt>
      <trkpt lat="44.167370" lon="5.294199">
        <ele>1698.40527</ele>
        <time>2021-06-30T18:40:02Z</time>
      </trkpt>
      <trkpt lat="44.167252" lon="5.293932">
        <ele>1700.65088</ele>
        <time>2021-06-30T18:40:03Z</time>
      </trkpt>
      <trkpt lat="44.167191" lon="5.293732">
        <ele>1701.76904</ele>
        <time>2021-06-30T18:40:04Z</time>
      </trkpt>
      <trkpt lat="44.167126" lon="5.293479">
        <ele>1703.47119</ele>
        <time>2021-06-30T18:40:05Z</time>
      </trkpt>
      <trkpt lat="44.167072" lon="5.293163">
        <ele>1704.48779</ele>
        <time>2021-06-30T18:40:06Z</time>
      </trkpt>
      <trkpt lat="44.167072" lon="5.292934">
        <ele>1705.06445</ele>
        <time>2021-06-30T18:40:07Z</time>
      </trkpt>
      <trkpt lat="44.167103" lon="5.292664">
        <ele>1707.81909</ele>
        <time>2021-06-30T18:40:08Z</time>
      </trkpt>
      <trkpt lat="44.167191" lon="5.292443">
        <ele>1707.55566</ele>
        <time>2021-06-30T18:40:09Z</time>
      </trkpt>
      <trkpt lat="44.167301" lon="5.292244">
        <ele>1708.53662</ele>
        <time>2021-06-30T18:40:10Z</time>
      </trkpt>
      <trkpt lat="44.167439" lon="5.292066">
        <ele>1710.17236</ele>
        <time>2021-06-30T18:40:11Z</time>
      </trkpt>
      <trkpt lat="44.167625" lon="5.291898">
        <ele>1709.72632</ele>
        <time>2021-06-30T18:40:12Z</time>
      </trkpt>
      <trkpt lat="44.167625" lon="5.291898">
        <ele>1711.65820</ele>
        <time>2021-06-30T18:40:13Z</time>
      </trkpt>
      <trkpt lat="44.167812" lon="5.291808">
        <ele>1714.17261</ele>
        <time>2021-06-30T18:40:14Z</time>
      </trkpt>
      <trkpt lat="44.168022" lon="5.291712">
        <ele>1716.96045</ele>
        <time>2021-06-30T18:40:15Z</time>
      </trkpt>
      <trkpt lat="44.168262" lon="5.291620">
        <ele>1718.36255</ele>
        <time>2021-06-30T18:40:16Z</time>
      </trkpt>
      <trkpt lat="44.168537" lon="5.291520">
        <ele>1719.92603</ele>
        <time>2021-06-30T18:40:17Z</time>
      </trkpt>
      <trkpt lat="44.168678" lon="5.291469">
        <ele>1724.71289</ele>
        <time>2021-06-30T18:40:18Z</time>
      </trkpt>
      <trkpt lat="44.168869" lon="5.291400">
        <ele>1726.96533</ele>
        <time>2021-06-30T18:40:19Z</time>
      </trkpt>
      <trkpt lat="44.169018" lon="5.291341">
        <ele>1727.71191</ele>
        <time>2021-06-30T18:40:20Z</time>
      </trkpt>
      <trkpt lat="44.169182" lon="5.291274">
        <ele>1730.07227</ele>
        <time>2021-06-30T18:40:21Z</time>
      </trkpt>
      <trkpt lat="44.169289" lon="5.291224">
        <ele>1731.65918</ele>
        <time>2021-06-30T18:40:22Z</time>
      </trkpt>
      <trkpt lat="44.169399" lon="5.291137">
        <ele>1733.35156</ele>
        <time>2021-06-30T18:40:23Z</time>
      </trkpt>
      <trkpt lat="44.169453" lon="5.291021">
        <ele>1732.05566</ele>
        <time>2021-06-30T18:40:24Z</time>
      </trkpt>
      <trkpt lat="44.169453" lon="5.291021">
        <ele>1731.78540</ele>
        <time>2021-06-30T18:40:25Z</time>
      </trkpt>
      <trkpt lat="44.169453" lon="5.290893">
        <ele>1732.12598</ele>
        <time>2021-06-30T18:40:26Z</time>
      </trkpt>
      <trkpt lat="44.169395" lon="5.290723">
        <ele>1732.02881</ele>
        <time>2021-06-30T18:40:27Z</time>
      </trkpt>
      <trkpt lat="44.169323" lon="5.290611">
        <ele>1733.67090</ele>
        <time>2021-06-30T18:40:28Z</time>
      </trkpt>
      <trkpt lat="44.169098" lon="5.290357">
        <ele>1733.98291</ele>
        <time>2021-06-30T18:40:29Z</time>
      </trkpt>
      <trkpt lat="44.168915" lon="5.290152">
        <ele>1735.36963</ele>
        <time>2021-06-30T18:40:30Z</time>
      </trkpt>
      <trkpt lat="44.168823" lon="5.290028">
        <ele>1738.27588</ele>
        <time>2021-06-30T18:40:31Z</time>
      </trkpt>
      <trkpt lat="44.168732" lon="5.289885">
        <ele>1739.77466</ele>
        <time>2021-06-30T18:40:32Z</time>
      </trkpt>
      <trkpt lat="44.168659" lon="5.289698">
        <ele>1740.60840</ele>
        <time>2021-06-30T18:40:33Z</time>
      </trkpt>
      <trkpt lat="44.168610" lon="5.289457">
        <ele>1741.71289</ele>
        <time>2021-06-30T18:40:34Z</time>
      </trkpt>
      <trkpt lat="44.168591" lon="5.289224">
        <ele>1743.01660</ele>
        <time>2021-06-30T18:40:35Z</time>
      </trkpt>
      <trkpt lat="44.168594" lon="5.288997">
        <ele>1744.39404</ele>
        <time>2021-06-30T18:40:36Z</time>
      </trkpt>
      <trkpt lat="44.168621" lon="5.288749">
        <ele>1744.62695</ele>
        <time>2021-06-30T18:40:37Z</time>
      </trkpt>
      <trkpt lat="44.168663" lon="5.288433">
        <ele>1746.43018</ele>
        <time>2021-06-30T18:40:38Z</time>
      </trkpt>
      <trkpt lat="44.168709" lon="5.288144">
        <ele>1749.14771</ele>
        <time>2021-06-30T18:40:39Z</time>
      </trkpt>
      <trkpt lat="44.168709" lon="5.288144">
        <ele>1751.44531</ele>
        <time>2021-06-30T18:40:40Z</time>
      </trkpt>
      <trkpt lat="44.168770" lon="5.287917">
        <ele>1752.93408</ele>
        <time>2021-06-30T18:40:41Z</time>
      </trkpt>
      <trkpt lat="44.168839" lon="5.287670">
        <ele>1755.11133</ele>
        <time>2021-06-30T18:40:42Z</time>
      </trkpt>
      <trkpt lat="44.168907" lon="5.287449">
        <ele>1756.84839</ele>
        <time>2021-06-30T18:40:43Z</time>
      </trkpt>
      <trkpt lat="44.169003" lon="5.287178">
        <ele>1758.70361</ele>
        <time>2021-06-30T18:40:44Z</time>
      </trkpt>
      <trkpt lat="44.169098" lon="5.286937">
        <ele>1760.39209</ele>
        <time>2021-06-30T18:40:45Z</time>
      </trkpt>
      <trkpt lat="44.169186" lon="5.286747">
        <ele>1762.80298</ele>
        <time>2021-06-30T18:40:46Z</time>
      </trkpt>
      <trkpt lat="44.169289" lon="5.286560">
        <ele>1764.52881</ele>
        <time>2021-06-30T18:40:47Z</time>
      </trkpt>
      <trkpt lat="44.169392" lon="5.286399">
        <ele>1767.20483</ele>
        <time>2021-06-30T18:40:48Z</time>
      </trkpt>
      <trkpt lat="44.169498" lon="5.286243">
        <ele>1769.01831</ele>
        <time>2021-06-30T18:40:49Z</time>
      </trkpt>
      <trkpt lat="44.169498" lon="5.286243">
        <ele>1771.16260</ele>
        <time>2021-06-30T18:40:50Z</time>
      </trkpt>
      <trkpt lat="44.169632" lon="5.286065">
        <ele>1771.85449</ele>
        <time>2021-06-30T18:40:51Z</time>
      </trkpt>
      <trkpt lat="44.169765" lon="5.285921">
        <ele>1773.28125</ele>
        <time>2021-06-30T18:40:52Z</time>
      </trkpt>
      <trkpt lat="44.169907" lon="5.285785">
        <ele>1774.54492</ele>
        <time>2021-06-30T18:40:53Z</time>
      </trkpt>
      <trkpt lat="44.170048" lon="5.285657">
        <ele>1776.03418</ele>
        <time>2021-06-30T18:40:54Z</time>
      </trkpt>
      <trkpt lat="44.170181" lon="5.285543">
        <ele>1777.60132</ele>
        <time>2021-06-30T18:40:55Z</time>
      </trkpt>
      <trkpt lat="44.170296" lon="5.285445">
        <ele>1777.50537</ele>
        <time>2021-06-30T18:40:56Z</time>
      </trkpt>
      <trkpt lat="44.170433" lon="5.285317">
        <ele>1781.16064</ele>
        <time>2021-06-30T18:40:57Z</time>
      </trkpt>
      <trkpt lat="44.170605" lon="5.285143">
        <ele>1783.88135</ele>
        <time>2021-06-30T18:40:58Z</time>
      </trkpt>
      <trkpt lat="44.170780" lon="5.284909">
        <ele>1786.57422</ele>
        <time>2021-06-30T18:40:59Z</time>
      </trkpt>
      <trkpt lat="44.170929" lon="5.284711">
        <ele>1789.76001</ele>
        <time>2021-06-30T18:41:00Z</time>
      </trkpt>
      <trkpt lat="44.171074" lon="5.284547">
        <ele>1791.24365</ele>
        <time>2021-06-30T18:41:01Z</time>
      </trkpt>
      <trkpt lat="44.171242" lon="5.284409">
        <ele>1792.62891</ele>
        <time>2021-06-30T18:41:02Z</time>
      </trkpt>
      <trkpt lat="44.171459" lon="5.284310">
        <ele>1794.06787</ele>
        <time>2021-06-30T18:41:03Z</time>
      </trkpt>
      <trkpt lat="44.171459" lon="5.284310">
        <ele>1798.18115</ele>
        <time>2021-06-30T18:41:04Z</time>
      </trkpt>
      <trkpt lat="44.171677" lon="5.284258">
        <ele>1800.75537</ele>
        <time>2021-06-30T18:41:05Z</time>
      </trkpt>
      <trkpt lat="44.171997" lon="5.284210">
        <ele>1805.13477</ele>
        <time>2021-06-30T18:41:06Z</time>
      </trkpt>
      <trkpt lat="44.172321" lon="5.284161">
        <ele>1808.15186</ele>
        <time>2021-06-30T18:41:07Z</time>
      </trkpt>
      <trkpt lat="44.172642" lon="5.284113">
        <ele>1810.14453</ele>
        <time>2021-06-30T18:41:08Z</time>
      </trkpt>
      <trkpt lat="44.172916" lon="5.284071">
        <ele>1813.66406</ele>
        <time>2021-06-30T18:41:09Z</time>
      </trkpt>
      <trkpt lat="44.173145" lon="5.284037">
        <ele>1812.95850</ele>
        <time>2021-06-30T18:41:10Z</time>
      </trkpt>
      <trkpt lat="44.173325" lon="5.284010">
        <ele>1813.50659</ele>
        <time>2021-06-30T18:41:11Z</time>
      </trkpt>
      <trkpt lat="44.173550" lon="5.283976">
        <ele>1815.94629</ele>
        <time>2021-06-30T18:41:12Z</time>
      </trkpt>
      <trkpt lat="44.173717" lon="5.283939">
        <ele>1821.16650</ele>
        <time>2021-06-30T18:41:13Z</time>
      </trkpt>
      <trkpt lat="44.173897" lon="5.283899">
        <ele>1821.56689</ele>
        <time>2021-06-30T18:41:14Z</time>
      </trkpt>
      <trkpt lat="44.174046" lon="5.283852">
        <ele>1822.27490</ele>
        <time>2021-06-30T18:41:15Z</time>
      </trkpt>
      <trkpt lat="44.174160" lon="5.283776">
        <ele>1824.17871</ele>
        <time>2021-06-30T18:41:16Z</time>
      </trkpt>
      <trkpt lat="44.174160" lon="5.283776">
        <ele>1825.16919</ele>
        <time>2021-06-30T18:41:17Z</time>
      </trkpt>
      <trkpt lat="44.174225" lon="5.283684">
        <ele>1827.33447</ele>
        <time>2021-06-30T18:41:18Z</time>
      </trkpt>
      <trkpt lat="44.174259" lon="5.283531">
        <ele>1828.79443</ele>
        <time>2021-06-30T18:41:19Z</time>
      </trkpt>
      <trkpt lat="44.174255" lon="5.283364">
        <ele>1830.82666</ele>
        <time>2021-06-30T18:41:20Z</time>
      </trkpt>
      <trkpt lat="44.174225" lon="5.283099">
        <ele>1831.98291</ele>
        <time>2021-06-30T18:41:21Z</time>
      </trkpt>
      <trkpt lat="44.174168" lon="5.282781">
        <ele>1833.73389</ele>
        <time>2021-06-30T18:41:22Z</time>
      </trkpt>
      <trkpt lat="44.174122" lon="5.282523">
        <ele>1835.58447</ele>
        <time>2021-06-30T18:41:23Z</time>
      </trkpt>
      <trkpt lat="44.174088" lon="5.282348">
        <ele>1837.28418</ele>
        <time>2021-06-30T18:41:24Z</time>
      </trkpt>
      <trkpt lat="44.174053" lon="5.282151">
        <ele>1839.19971</ele>
        <time>2021-06-30T18:41:25Z</time>
      </trkpt>
      <trkpt lat="44.174015" lon="5.281955">
        <ele>1841.00195</ele>
        <time>2021-06-30T18:41:26Z</time>
      </trkpt>
      <trkpt lat="44.173985" lon="5.281776">
        <ele>1842.49658</ele>
        <time>2021-06-30T18:41:27Z</time>
      </trkpt>
      <trkpt lat="44.173954" lon="5.281611">
        <ele>1843.81982</ele>
        <time>2021-06-30T18:41:28Z</time>
      </trkpt>
      <trkpt lat="44.173916" lon="5.281409">
        <ele>1844.70654</ele>
        <time>2021-06-30T18:41:29Z</time>
      </trkpt>
      <trkpt lat="44.173916" lon="5.281409">
        <ele>1845.93921</ele>
        <time>2021-06-30T18:41:30Z</time>
      </trkpt>
      <trkpt lat="44.173878" lon="5.281201">
        <ele>1847.68872</ele>
        <time>2021-06-30T18:41:31Z</time>
      </trkpt>
      <trkpt lat="44.173832" lon="5.281000">
        <ele>1850.08398</ele>
        <time>2021-06-30T18:41:32Z</time>
      </trkpt>
      <trkpt lat="44.173752" lon="5.280735">
        <ele>1851.27881</ele>
        <time>2021-06-30T18:41:33Z</time>
      </trkpt>
      <trkpt lat="44.173618" lon="5.280402">
        <ele>1852.44238</ele>
        <time>2021-06-30T18:41:34Z</time>
      </trkpt>
      <trkpt lat="44.173462" lon="5.280107">
        <ele>1854.90894</ele>
        <time>2021-06-30T18:41:35Z</time>
      </trkpt>
      <trkpt lat="44.173328" lon="5.279853">
        <ele>1859.04492</ele>
        <time>2021-06-30T18:41:36Z</time>
      </trkpt>
      <trkpt lat="44.173172" lon="5.279552">
        <ele>1861.62354</ele>
        <time>2021-06-30T18:41:37Z</time>
      </trkpt>
      <trkpt lat="44.173058" lon="5.279308">
        <ele>1862.07764</ele>
        <time>2021-06-30T18:41:38Z</time>
      </trkpt>
      <trkpt lat="44.172997" lon="5.279103">
        <ele>1863.70850</ele>
        <time>2021-06-30T18:41:39Z</time>
      </trkpt>
      <trkpt lat="44.172958" lon="5.278887">
        <ele>1863.49268</ele>
        <time>2021-06-30T18:41:40Z</time>
      </trkpt>
      <trkpt lat="44.172955" lon="5.278635">
        <ele>1866.41357</ele>
        <time>2021-06-30T18:41:41Z</time>
      </trkpt>
      <trkpt lat="44.172955" lon="5.278477">
        <ele>1866.99316</ele>
        <time>2021-06-30T18:41:42Z</time>
      </trkpt>
      <trkpt lat="44.172955" lon="5.278443">
        <ele>1868.56006</ele>
        <time>2021-06-30T18:41:43Z</time>
      </trkpt>
      <trkpt lat="44.172962" lon="5.278308">
        <ele>1869.00049</ele>
        <time>2021-06-30T18:41:44Z</time>
      </trkpt>
      <trkpt lat="44.172985" lon="5.278204">
        <ele>1871.31299</ele>
        <time>2021-06-30T18:41:45Z</time>
      </trkpt>
      <trkpt lat="44.173012" lon="5.278110">
        <ele>1873.42773</ele>
        <time>2021-06-30T18:41:46Z</time>
      </trkpt>
      <trkpt lat="44.173038" lon="5.278011">
        <ele>1872.61255</ele>
        <time>2021-06-30T18:41:47Z</time>
      </trkpt>
      <trkpt lat="44.173073" lon="5.277892">
        <ele>1874.66528</ele>
        <time>2021-06-30T18:41:48Z</time>
      </trkpt>
      <trkpt lat="44.173107" lon="5.277796">
        <ele>1876.02148</ele>
        <time>2021-06-30T18:41:49Z</time>
      </trkpt>
      <trkpt lat="44.173138" lon="5.277708">
        <ele>1876.51221</ele>
        <time>2021-06-30T18:41:50Z</time>
      </trkpt>
      <trkpt lat="44.173138" lon="5.277708">
        <ele>1876.81055</ele>
        <time>2021-06-30T18:41:51Z</time>
      </trkpt>
      <trkpt lat="44.173176" lon="5.277612">
        <ele>1877.74658</ele>
        <time>2021-06-30T18:41:52Z</time>
      </trkpt>
      <trkpt lat="44.173206" lon="5.277523">
        <ele>1878.90063</ele>
        <time>2021-06-30T18:41:53Z</time>
      </trkpt>
      <trkpt lat="44.173237" lon="5.277445">
        <ele>1880.66846</ele>
        <time>2021-06-30T18:41:54Z</time>
      </trkpt>
      <trkpt lat="44.173264" lon="5.277373">
        <ele>1881.76416</ele>
        <time>2021-06-30T18:41:55Z</time>
      </trkpt>
      <trkpt lat="44.173290" lon="5.277298">
        <ele>1882.20728</ele>
        <time>2021-06-30T18:41:56Z</time>
      </trkpt>
      <trkpt lat="44.173317" lon="5.277225">
        <ele>1884.52344</ele>
        <time>2021-06-30T18:41:57Z</time>
      </trkpt>
      <trkpt lat="44.173332" lon="5.277176">
        <ele>1885.35107</ele>
        <time>2021-06-30T18:41:58Z</time>
      </trkpt>
      <trkpt lat="44.173355" lon="5.277121">
        <ele>1885.15112</ele>
        <time>2021-06-30T18:41:59Z</time>
      </trkpt>
      <trkpt lat="44.173367" lon="5.277085">
        <ele>1885.70215</ele>
        <time>2021-06-30T18:42:00Z</time>
      </trkpt>
      <trkpt lat="44.173397" lon="5.277038">
        <ele>1886.34863</ele>
        <time>2021-06-30T18:42:01Z</time>
      </trkpt>
      <trkpt lat="44.173428" lon="5.277020">
        <ele>1888.18604</ele>
        <time>2021-06-30T18:42:02Z</time>
      </trkpt>
      <trkpt lat="44.173481" lon="5.277018">
        <ele>1889.48047</ele>
        <time>2021-06-30T18:42:03Z</time>
      </trkpt>
      <trkpt lat="44.173538" lon="5.277122">
        <ele>1890.63672</ele>
        <time>2021-06-30T18:42:04Z</time>
      </trkpt>
      <trkpt lat="44.173538" lon="5.277211">
        <ele>1891.11670</ele>
        <time>2021-06-30T18:42:05Z</time>
      </trkpt>
      <trkpt lat="44.173534" lon="5.277258">
        <ele>1891.28906</ele>
        <time>2021-06-30T18:42:06Z</time>
      </trkpt>
      <trkpt lat="44.173531" lon="5.277306">
        <ele>1892.36401</ele>
        <time>2021-06-30T18:42:07Z</time>
      </trkpt>
      <trkpt lat="44.173531" lon="5.277306">
        <ele>1892.21143</ele>
        <time>2021-06-30T18:42:08Z</time>
      </trkpt>
      <trkpt lat="44.173515" lon="5.277356">
        <ele>1893.06616</ele>
        <time>2021-06-30T18:42:09Z</time>
      </trkpt>
      <trkpt lat="44.173489" lon="5.277409">
        <ele>1894.04053</ele>
        <time>2021-06-30T18:42:10Z</time>
      </trkpt>
      <trkpt lat="44.173477" lon="5.277426">
        <ele>1894.17090</ele>
        <time>2021-06-30T18:42:11Z</time>
      </trkpt>
      <trkpt lat="44.173443" lon="5.277505">
        <ele>1895.10791</ele>
        <time>2021-06-30T18:42:12Z</time>
      </trkpt>
      <trkpt lat="44.173409" lon="5.277607">
        <ele>1895.79175</ele>
        <time>2021-06-30T18:42:13Z</time>
      </trkpt>
      <trkpt lat="44.173386" lon="5.277724">
        <ele>1897.19336</ele>
        <time>2021-06-30T18:42:14Z</time>
      </trkpt>
      <trkpt lat="44.173363" lon="5.277846">
        <ele>1898.38452</ele>
        <time>2021-06-30T18:42:15Z</time>
      </trkpt>
      <trkpt lat="44.173344" lon="5.277942">
        <ele>1899.22852</ele>
        <time>2021-06-30T18:42:16Z</time>
      </trkpt>
      <trkpt lat="44.173332" lon="5.278034">
        <ele>1900.83936</ele>
        <time>2021-06-30T18:42:17Z</time>
      </trkpt>
      <trkpt lat="44.173321" lon="5.278119">
        <ele>1901.66382</ele>
        <time>2021-06-30T18:42:18Z</time>
      </trkpt>
      <trkpt lat="44.173313" lon="5.278162">
        <ele>1902.29541</ele>
        <time>2021-06-30T18:42:19Z</time>
      </trkpt>
      <trkpt lat="44.173313" lon="5.278162">
        <ele>1902.35303</ele>
        <time>2021-06-30T18:42:20Z</time>
      </trkpt>
      <trkpt lat="44.173309" lon="5.278216">
        <ele>1903.27417</ele>
        <time>2021-06-30T18:42:21Z</time>
      </trkpt>
      <trkpt lat="44.173309" lon="5.278306">
        <ele>1902.73145</ele>
        <time>2021-06-30T18:42:22Z</time>
      </trkpt>
      <trkpt lat="44.173313" lon="5.278415">
        <ele>1902.62988</ele>
        <time>2021-06-30T18:42:23Z</time>
      </trkpt>
      <trkpt lat="44.173317" lon="5.278444">
        <ele>1902.40283</ele>
        <time>2021-06-30T18:42:24Z</time>
      </trkpt>
      <trkpt lat="44.173317" lon="5.278463">
        <ele>1902.73682</ele>
        <time>2021-06-30T18:42:25Z</time>
      </trkpt>
      <trkpt lat="44.173317" lon="5.278480">
        <ele>1902.00342</ele>
        <time>2021-06-30T18:42:26Z</time>
      </trkpt>
      <trkpt lat="44.173317" lon="5.278480">
        <ele>1902.91455</ele>
        <time>2021-06-30T18:42:27Z</time>
      </trkpt>
      <trkpt lat="44.173317" lon="5.278480">
        <ele>1902.86157</ele>
        <time>2021-06-30T18:42:28Z</time>
      </trkpt>
      <trkpt lat="44.173317" lon="5.278480">
        <ele>1903.42676</ele>
        <time>2021-06-30T18:42:29Z</time>
      </trkpt>
      <trkpt lat="44.173317" lon="5.278480">
        <ele>1903.26953</ele>
        <time>2021-06-30T18:42:30Z</time>
      </trkpt>
      <trkpt lat="44.173317" lon="5.278480">
        <ele>1902.56641</ele>
        <time>2021-06-30T18:42:31Z</time>
      </trkpt>
      <trkpt lat="44.173317" lon="5.278480">
        <ele>1902.57080</ele>
        <time>2021-06-30T18:42:32Z</time>
      </trkpt>
      <trkpt lat="44.173317" lon="5.278480">
        <ele>1903.29688</ele>
        <time>2021-06-30T18:42:33Z</time>
      </trkpt>
      <trkpt lat="44.173317" lon="5.278480">
        <ele>1894.44373</ele>
        <time>2021-06-30T18:42:34Z</time>
      </trkpt>
      <trkpt lat="44.173317" lon="5.278480">
        <ele>1894.36353</ele>
        <time>2021-06-30T18:42:35Z</time>
      </trkpt>
      <trkpt lat="44.173317" lon="5.278480">
        <ele>1894.39514</ele>
        <time>2021-06-30T18:42:36Z</time>
      </trkpt>
      <trkpt lat="44.173317" lon="5.278480">
        <ele>1894.15808</ele>
        <time>2021-06-30T18:42:37Z</time>
      </trkpt>
      <trkpt lat="44.173317" lon="5.278480">
        <ele>1894.24316</ele>
        <time>2021-06-30T18:42:38Z</time>
      </trkpt>
      <trkpt lat="44.173317" lon="5.278480">
        <ele>1894.60229</ele>
        <time>2021-06-30T18:42:39Z</time>
      </trkpt>
      <trkpt lat="44.173317" lon="5.278480">
        <ele>1894.81616</ele>
        <time>2021-06-30T18:42:40Z</time>
      </trkpt>
      <trkpt lat="44.173317" lon="5.278480">
        <ele>1894.92114</ele>
        <time>2021-06-30T18:42:41Z</time>
      </trkpt>
      <trkpt lat="44.173317" lon="5.278480">
        <ele>1894.86707</ele>
        <time>2021-06-30T18:42:42Z</time>
      </trkpt>
      <trkpt lat="44.173317" lon="5.278480">
        <ele>1895.18335</ele>
        <time>2021-06-30T18:42:43Z</time>
      </trkpt>
      <trkpt lat="44.173317" lon="5.278480">
        <ele>1895.48645</ele>
        <time>2021-06-30T18:42:44Z</time>
      </trkpt>
      <trkpt lat="44.173317" lon="5.278480">
        <ele>1898.91309</ele>
        <time>2021-06-30T18:42:45Z</time>
      </trkpt>
      <trkpt lat="44.173317" lon="5.278480">
        <ele>1900.48926</ele>
        <time>2021-06-30T18:42:46Z</time>
      </trkpt>
      <trkpt lat="44.173317" lon="5.278480">
        <ele>1895.27673</ele>
        <time>2021-06-30T18:42:47Z</time>
      </trkpt>
      <trkpt lat="44.173317" lon="5.278480">
        <ele>1895.30212</ele>
        <time>2021-06-30T18:42:48Z</time>
      </trkpt>
      <trkpt lat="44.173317" lon="5.278480">
        <ele>1895.16736</ele>
        <time>2021-06-30T18:42:49Z</time>
      </trkpt>
      <trkpt lat="44.173317" lon="5.278480">
        <ele>1895.29834</ele>
        <time>2021-06-30T18:42:50Z</time>
      </trkpt>
      <trkpt lat="44.173317" lon="5.278480">
        <ele>1899.82129</ele>
        <time>2021-06-30T18:42:51Z</time>
      </trkpt>
      <trkpt lat="44.173317" lon="5.278480">
        <ele>1901.91357</ele>
        <time>2021-06-30T18:42:52Z</time>
      </trkpt>
      <trkpt lat="44.173317" lon="5.278480">
        <ele>1903.26465</ele>
        <time>2021-06-30T18:42:53Z</time>
      </trkpt>
      <trkpt lat="44.173317" lon="5.278480">
        <ele>1904.04761</ele>
        <time>2021-06-30T18:42:54Z</time>
      </trkpt>
      <trkpt lat="44.173317" lon="5.278480">
        <ele>1904.77563</ele>
        <time>2021-06-30T18:42:55Z</time>
      </trkpt>
      <trkpt lat="44.173317" lon="5.278480">
        <ele>1904.78174</ele>
        <time>2021-06-30T18:42:56Z</time>
      </trkpt>
      <trkpt lat="44.173317" lon="5.278488">
        <ele>1905.07739</ele>
        <time>2021-06-30T18:42:57Z</time>
      </trkpt>
      <trkpt lat="44.173332" lon="5.278553">
        <ele>1905.24561</ele>
        <time>2021-06-30T18:42:58Z</time>
      </trkpt>
      <trkpt lat="44.173347" lon="5.278627">
        <ele>1905.67236</ele>
        <time>2021-06-30T18:42:59Z</time>
      </trkpt>
      <trkpt lat="44.173351" lon="5.278654">
        <ele>1906.14453</ele>
        <time>2021-06-30T18:43:00Z</time>
      </trkpt>
      <trkpt lat="44.173355" lon="5.278671">
        <ele>1906.11523</ele>
        <time>2021-06-30T18:43:01Z</time>
      </trkpt>
      <trkpt lat="44.173355" lon="5.278671">
        <ele>1905.57617</ele>
        <time>2021-06-30T18:43:02Z</time>
      </trkpt>
      <trkpt lat="44.173355" lon="5.278671">
        <ele>1905.16650</ele>
        <time>2021-06-30T18:43:03Z</time>
      </trkpt>
      <trkpt lat="44.173355" lon="5.278671">
        <ele>1904.43799</ele>
        <time>2021-06-30T18:43:04Z</time>
      </trkpt>
      <trkpt lat="44.173355" lon="5.278671">
        <ele>1903.99951</ele>
        <time>2021-06-30T18:43:05Z</time>
      </trkpt>
      <trkpt lat="44.173355" lon="5.278671">
        <ele>1904.19946</ele>
        <time>2021-06-30T18:43:06Z</time>
      </trkpt>
      <trkpt lat="44.173355" lon="5.278671">
        <ele>1903.06372</ele>
        <time>2021-06-30T18:43:07Z</time>
      </trkpt>
      <trkpt lat="44.173344" lon="5.278610">
        <ele>1902.07178</ele>
        <time>2021-06-30T18:43:08Z</time>
      </trkpt>
      <trkpt lat="44.173550" lon="5.278548">
        <ele>1902.10156</ele>
        <time>2021-06-30T18:43:09Z</time>
      </trkpt>
      <trkpt lat="44.173550" lon="5.278536">
        <ele>1902.11035</ele>
        <time>2021-06-30T18:43:10Z</time>
      </trkpt>
      <trkpt lat="44.173550" lon="5.278536">
        <ele>1901.01270</ele>
        <time>2021-06-30T18:43:11Z</time>
      </trkpt>
      <trkpt lat="44.173550" lon="5.278536">
        <ele>1900.85303</ele>
        <time>2021-06-30T18:43:12Z</time>
      </trkpt>
      <trkpt lat="44.173550" lon="5.278536">
        <ele>1901.57080</ele>
        <time>2021-06-30T18:43:13Z</time>
      </trkpt>
      <trkpt lat="44.173550" lon="5.278536">
        <ele>1901.96997</ele>
        <time>2021-06-30T18:43:14Z</time>
      </trkpt>
      <trkpt lat="44.173550" lon="5.278536">
        <ele>1902.49902</ele>
        <time>2021-06-30T18:43:15Z</time>
      </trkpt>
      <trkpt lat="44.173550" lon="5.278536">
        <ele>1903.57788</ele>
        <time>2021-06-30T18:43:16Z</time>
      </trkpt>
      <trkpt lat="44.173550" lon="5.278536">
        <ele>1895.11011</ele>
        <time>2021-06-30T18:43:17Z</time>
      </trkpt>
      <trkpt lat="44.173550" lon="5.278536">
        <ele>1895.33752</ele>
        <time>2021-06-30T18:43:18Z</time>
      </trkpt>
      <trkpt lat="44.173550" lon="5.278536">
        <ele>1895.83032</ele>
        <time>2021-06-30T18:43:19Z</time>
      </trkpt>
      <trkpt lat="44.173550" lon="5.278536">
        <ele>1897.42346</ele>
        <time>2021-06-30T18:43:20Z</time>
      </trkpt>
      <trkpt lat="44.173550" lon="5.278536">
        <ele>1898.00745</ele>
        <time>2021-06-30T18:43:21Z</time>
      </trkpt>
      <trkpt lat="44.173550" lon="5.278536">
        <ele>1898.06091</ele>
        <time>2021-06-30T18:43:22Z</time>
      </trkpt>
      <trkpt lat="44.173550" lon="5.278536">
        <ele>1897.54749</ele>
        <time>2021-06-30T18:43:23Z</time>
      </trkpt>
      <trkpt lat="44.173550" lon="5.278536">
        <ele>1896.99316</ele>
        <time>2021-06-30T18:43:24Z</time>
      </trkpt>
      <trkpt lat="44.173550" lon="5.278536">
        <ele>1896.87109</ele>
        <time>2021-06-30T18:43:25Z</time>
      </trkpt>
      <trkpt lat="44.173550" lon="5.278536">
        <ele>1896.96741</ele>
        <time>2021-06-30T18:43:26Z</time>
      </trkpt>
      <trkpt lat="44.173550" lon="5.278536">
        <ele>1896.87878</ele>
        <time>2021-06-30T18:43:27Z</time>
      </trkpt>
      <trkpt lat="44.173550" lon="5.278536">
        <ele>1897.06396</ele>
        <time>2021-06-30T18:43:28Z</time>
      </trkpt>
      <trkpt lat="44.173550" lon="5.278536">
        <ele>1897.20447</ele>
        <time>2021-06-30T18:43:29Z</time>
      </trkpt>
      <trkpt lat="44.173550" lon="5.278536">
        <ele>1897.55127</ele>
        <time>2021-06-30T18:43:30Z</time>
      </trkpt>
      <trkpt lat="44.173550" lon="5.278536">
        <ele>1897.90210</ele>
        <time>2021-06-30T18:43:31Z</time>
      </trkpt>
      <trkpt lat="44.173550" lon="5.278536">
        <ele>1898.03845</ele>
        <time>2021-06-30T18:43:32Z</time>
      </trkpt>
      <trkpt lat="44.173550" lon="5.278536">
        <ele>1896.48376</ele>
        <time>2021-06-30T18:43:33Z</time>
      </trkpt>
      <trkpt lat="44.173550" lon="5.278536">
        <ele>1896.37317</ele>
        <time>2021-06-30T18:43:34Z</time>
      </trkpt>
      <trkpt lat="44.173550" lon="5.278536">
        <ele>1897.10620</ele>
        <time>2021-06-30T18:43:35Z</time>
      </trkpt>
      <trkpt lat="44.173550" lon="5.278536">
        <ele>1899.92273</ele>
        <time>2021-06-30T18:43:36Z</time>
      </trkpt>
      <trkpt lat="44.173550" lon="5.278536">
        <ele>1901.20312</ele>
        <time>2021-06-30T18:43:37Z</time>
      </trkpt>
      <trkpt lat="44.173550" lon="5.278536">
        <ele>1901.43774</ele>
        <time>2021-06-30T18:43:38Z</time>
      </trkpt>
      <trkpt lat="44.173550" lon="5.278536">
        <ele>1899.03552</ele>
        <time>2021-06-30T18:43:39Z</time>
      </trkpt>
      <trkpt lat="44.173550" lon="5.278536">
        <ele>1898.36841</ele>
        <time>2021-06-30T18:43:40Z</time>
      </trkpt>
      <trkpt lat="44.173550" lon="5.278536">
        <ele>1898.27783</ele>
        <time>2021-06-30T18:43:41Z</time>
      </trkpt>
      <trkpt lat="44.173550" lon="5.278536">
        <ele>1899.94409</ele>
        <time>2021-06-30T18:43:42Z</time>
      </trkpt>
      <trkpt lat="44.173550" lon="5.278536">
        <ele>1901.46265</ele>
        <time>2021-06-30T18:43:43Z</time>
      </trkpt>
      <trkpt lat="44.173550" lon="5.278536">
        <ele>1901.61182</ele>
        <time>2021-06-30T18:43:44Z</time>
      </trkpt>
      <trkpt lat="44.173550" lon="5.278536">
        <ele>1899.47339</ele>
        <time>2021-06-30T18:43:45Z</time>
      </trkpt>
      <trkpt lat="44.173550" lon="5.278536">
        <ele>1898.73926</ele>
        <time>2021-06-30T18:43:46Z</time>
      </trkpt>
      <trkpt lat="44.173550" lon="5.278536">
        <ele>1898.41528</ele>
        <time>2021-06-30T18:43:47Z</time>
      </trkpt>
      <trkpt lat="44.173550" lon="5.278536">
        <ele>1898.05688</ele>
        <time>2021-06-30T18:43:48Z</time>
      </trkpt>
      <trkpt lat="44.173550" lon="5.278536">
        <ele>1899.46082</ele>
        <time>2021-06-30T18:43:49Z</time>
      </trkpt>
      <trkpt lat="44.173550" lon="5.278536">
        <ele>1900.65625</ele>
        <time>2021-06-30T18:43:50Z</time>
      </trkpt>
      <trkpt lat="44.173550" lon="5.278536">
        <ele>1900.49963</ele>
        <time>2021-06-30T18:43:51Z</time>
      </trkpt>
      <trkpt lat="44.173550" lon="5.278536">
        <ele>1898.88794</ele>
        <time>2021-06-30T18:43:52Z</time>
      </trkpt>
      <trkpt lat="44.173550" lon="5.278536">
        <ele>1899.52551</ele>
        <time>2021-06-30T18:43:53Z</time>
      </trkpt>
      <trkpt lat="44.173550" lon="5.278536">
        <ele>1900.02441</ele>
        <time>2021-06-30T18:43:54Z</time>
      </trkpt>
      <trkpt lat="44.173550" lon="5.278536">
        <ele>1899.27026</ele>
        <time>2021-06-30T18:43:55Z</time>
      </trkpt>
      <trkpt lat="44.173550" lon="5.278536">
        <ele>1899.04028</ele>
        <time>2021-06-30T18:43:56Z</time>
      </trkpt>
      <trkpt lat="44.173550" lon="5.278536">
        <ele>1899.03223</ele>
        <time>2021-06-30T18:43:57Z</time>
      </trkpt>
      <trkpt lat="44.173550" lon="5.278536">
        <ele>1900.81104</ele>
        <time>2021-06-30T18:43:58Z</time>
      </trkpt>
      <trkpt lat="44.173550" lon="5.278536">
        <ele>1901.21533</ele>
        <time>2021-06-30T18:43:59Z</time>
      </trkpt>
      <trkpt lat="44.173550" lon="5.278536">
        <ele>1900.88879</ele>
        <time>2021-06-30T18:44:00Z</time>
      </trkpt>
      <trkpt lat="44.173550" lon="5.278536">
        <ele>1899.85181</ele>
        <time>2021-06-30T18:44:01Z</time>
      </trkpt>
      <trkpt lat="44.173550" lon="5.278536">
        <ele>1899.36584</ele>
        <time>2021-06-30T18:44:02Z</time>
      </trkpt>
      <trkpt lat="44.173550" lon="5.278536">
        <ele>1899.53357</ele>
        <time>2021-06-30T18:44:03Z</time>
      </trkpt>
      <trkpt lat="44.173550" lon="5.278536">
        <ele>1899.57336</ele>
        <time>2021-06-30T18:44:04Z</time>
      </trkpt>
      <trkpt lat="44.173550" lon="5.278536">
        <ele>1900.02869</ele>
        <time>2021-06-30T18:44:05Z</time>
      </trkpt>
      <trkpt lat="44.173550" lon="5.278536">
        <ele>1901.36841</ele>
        <time>2021-06-30T18:44:06Z</time>
      </trkpt>
      <trkpt lat="44.173550" lon="5.278536">
        <ele>1901.49243</ele>
        <time>2021-06-30T18:44:07Z</time>
      </trkpt>
      <trkpt lat="44.173534" lon="5.277264">
        <ele>1904.92969</ele>
        <time>2021-06-30T18:53:13Z</time>
      </trkpt>
      <trkpt lat="44.173538" lon="5.277144">
        <ele>1903.19458</ele>
        <time>2021-06-30T18:53:14Z</time>
      </trkpt>
      <trkpt lat="44.173515" lon="5.277050">
        <ele>1901.97192</ele>
        <time>2021-06-30T18:53:15Z</time>
      </trkpt>
      <trkpt lat="44.173454" lon="5.277016">
        <ele>1900.57495</ele>
        <time>2021-06-30T18:53:16Z</time>
      </trkpt>
      <trkpt lat="44.173424" lon="5.277023">
        <ele>1898.66919</ele>
        <time>2021-06-30T18:53:17Z</time>
      </trkpt>
      <trkpt lat="44.173374" lon="5.277069">
        <ele>1898.10864</ele>
        <time>2021-06-30T18:53:18Z</time>
      </trkpt>
      <trkpt lat="44.173347" lon="5.277143">
        <ele>1897.30518</ele>
        <time>2021-06-30T18:53:19Z</time>
      </trkpt>
      <trkpt lat="44.173347" lon="5.277143">
        <ele>1895.59912</ele>
        <time>2021-06-30T18:53:20Z</time>
      </trkpt>
      <trkpt lat="44.173309" lon="5.277240">
        <ele>1894.44873</ele>
        <time>2021-06-30T18:53:21Z</time>
      </trkpt>
      <trkpt lat="44.173248" lon="5.277404">
        <ele>1892.53809</ele>
        <time>2021-06-30T18:53:22Z</time>
      </trkpt>
      <trkpt lat="44.173199" lon="5.277546">
        <ele>1891.37671</ele>
        <time>2021-06-30T18:53:23Z</time>
      </trkpt>
      <trkpt lat="44.173149" lon="5.277684">
        <ele>1890.41504</ele>
        <time>2021-06-30T18:53:24Z</time>
      </trkpt>
      <trkpt lat="44.173111" lon="5.277783">
        <ele>1889.68091</ele>
        <time>2021-06-30T18:53:25Z</time>
      </trkpt>
      <trkpt lat="44.173077" lon="5.277883">
        <ele>1888.30981</ele>
        <time>2021-06-30T18:53:26Z</time>
      </trkpt>
      <trkpt lat="44.173038" lon="5.278008">
        <ele>1886.96533</ele>
        <time>2021-06-30T18:53:27Z</time>
      </trkpt>
      <trkpt lat="44.173016" lon="5.278090">
        <ele>1886.26172</ele>
        <time>2021-06-30T18:53:28Z</time>
      </trkpt>
      <trkpt lat="44.172989" lon="5.278191">
        <ele>1886.19727</ele>
        <time>2021-06-30T18:53:29Z</time>
      </trkpt>
      <trkpt lat="44.172966" lon="5.278273">
        <ele>1886.19727</ele>
        <time>2021-06-30T18:53:30Z</time>
      </trkpt>
      <trkpt lat="44.172962" lon="5.278307">
        <ele>1884.03198</ele>
        <time>2021-06-30T18:53:31Z</time>
      </trkpt>
      <trkpt lat="44.172955" lon="5.278434">
        <ele>1884.03198</ele>
        <time>2021-06-30T18:53:32Z</time>
      </trkpt>
      <trkpt lat="44.172955" lon="5.278434">
        <ele>1882.45361</ele>
        <time>2021-06-30T18:53:33Z</time>
      </trkpt>
      <trkpt lat="44.172955" lon="5.278642">
        <ele>1881.07446</ele>
        <time>2021-06-30T18:53:34Z</time>
      </trkpt>
      <trkpt lat="44.172958" lon="5.278810">
        <ele>1879.50098</ele>
        <time>2021-06-30T18:53:35Z</time>
      </trkpt>
      <trkpt lat="44.172974" lon="5.278999">
        <ele>1877.78027</ele>
        <time>2021-06-30T18:53:36Z</time>
      </trkpt>
      <trkpt lat="44.173012" lon="5.279171">
        <ele>1875.16992</ele>
        <time>2021-06-30T18:53:37Z</time>
      </trkpt>
      <trkpt lat="44.173077" lon="5.279356">
        <ele>1875.16992</ele>
        <time>2021-06-30T18:53:37Z</time>
      </trkpt>
      <trkpt lat="44.173176" lon="5.279558">
        <ele>1873.34521</ele>
        <time>2021-06-30T18:53:39Z</time>
      </trkpt>
      <trkpt lat="44.173279" lon="5.279759">
        <ele>1871.49146</ele>
        <time>2021-06-30T18:53:40Z</time>
      </trkpt>
      <trkpt lat="44.173409" lon="5.280006">
        <ele>1869.96802</ele>
        <time>2021-06-30T18:53:40Z</time>
      </trkpt>
      <trkpt lat="44.173519" lon="5.280213">
        <ele>1867.77441</ele>
        <time>2021-06-30T18:53:42Z</time>
      </trkpt>
      <trkpt lat="44.173622" lon="5.280416">
        <ele>1864.91284</ele>
        <time>2021-06-30T18:53:42Z</time>
      </trkpt>
      <trkpt lat="44.173733" lon="5.280672">
        <ele>1861.18481</ele>
        <time>2021-06-30T18:53:44Z</time>
      </trkpt>
      <trkpt lat="44.173817" lon="5.280929">
        <ele>1861.18481</ele>
        <time>2021-06-30T18:53:44Z</time>
      </trkpt>
      <trkpt lat="44.173882" lon="5.281226">
        <ele>1859.60034</ele>
        <time>2021-06-30T18:53:46Z</time>
      </trkpt>
      <trkpt lat="44.173882" lon="5.281226">
        <ele>1858.06885</ele>
        <time>2021-06-30T18:53:47Z</time>
      </trkpt>
      <trkpt lat="44.173939" lon="5.281542">
        <ele>1855.85229</ele>
        <time>2021-06-30T18:53:48Z</time>
      </trkpt>
      <trkpt lat="44.173985" lon="5.281790">
        <ele>1853.70068</ele>
        <time>2021-06-30T18:53:48Z</time>
      </trkpt>
      <trkpt lat="44.174030" lon="5.282027">
        <ele>1851.63965</ele>
        <time>2021-06-30T18:53:50Z</time>
      </trkpt>
      <trkpt lat="44.174080" lon="5.282295">
        <ele>1848.91016</ele>
        <time>2021-06-30T18:53:50Z</time>
      </trkpt>
      <trkpt lat="44.174129" lon="5.282573">
        <ele>1846.72217</ele>
        <time>2021-06-30T18:53:52Z</time>
      </trkpt>
      <trkpt lat="44.174175" lon="5.282825">
        <ele>1844.00586</ele>
        <time>2021-06-30T18:53:53Z</time>
      </trkpt>
      <trkpt lat="44.174225" lon="5.283087">
        <ele>1841.23535</ele>
        <time>2021-06-30T18:53:54Z</time>
      </trkpt>
      <trkpt lat="44.174252" lon="5.283324">
        <ele>1841.23535</ele>
        <time>2021-06-30T18:53:55Z</time>
      </trkpt>
      <trkpt lat="44.174259" lon="5.283467">
        <ele>1839.34790</ele>
        <time>2021-06-30T18:53:56Z</time>
      </trkpt>
      <trkpt lat="44.174252" lon="5.283617">
        <ele>1838.31885</ele>
        <time>2021-06-30T18:53:57Z</time>
      </trkpt>
      <trkpt lat="44.174252" lon="5.283617">
        <ele>1837.20776</ele>
        <time>2021-06-30T18:53:58Z</time>
      </trkpt>
      <trkpt lat="44.174164" lon="5.283775">
        <ele>1834.80127</ele>
        <time>2021-06-30T18:53:59Z</time>
      </trkpt>
      <trkpt lat="44.174095" lon="5.283833">
        <ele>1834.80127</ele>
        <time>2021-06-30T18:54:00Z</time>
      </trkpt>
      <trkpt lat="44.174011" lon="5.283865">
        <ele>1833.45361</ele>
        <time>2021-06-30T18:54:01Z</time>
      </trkpt>
      <trkpt lat="44.173813" lon="5.283918">
        <ele>1831.10498</ele>
        <time>2021-06-30T18:54:02Z</time>
      </trkpt>
      <trkpt lat="44.173641" lon="5.283956">
        <ele>1828.23901</ele>
        <time>2021-06-30T18:54:03Z</time>
      </trkpt>
      <trkpt lat="44.173321" lon="5.284010">
        <ele>1827.17432</ele>
        <time>2021-06-30T18:54:04Z</time>
      </trkpt>
      <trkpt lat="44.173084" lon="5.284046">
        <ele>1825.92603</ele>
        <time>2021-06-30T18:54:04Z</time>
      </trkpt>
      <trkpt lat="44.172852" lon="5.284081">
        <ele>1822.80591</ele>
        <time>2021-06-30T18:54:06Z</time>
      </trkpt>
      <trkpt lat="44.172508" lon="5.284133">
        <ele>1819.81299</ele>
        <time>2021-06-30T18:54:07Z</time>
      </trkpt>
      <trkpt lat="44.172222" lon="5.284176">
        <ele>1816.42334</ele>
        <time>2021-06-30T18:54:08Z</time>
      </trkpt>
      <trkpt lat="44.172005" lon="5.284209">
        <ele>1810.89673</ele>
        <time>2021-06-30T18:54:09Z</time>
      </trkpt>
      <trkpt lat="44.171757" lon="5.284246">
        <ele>1810.89673</ele>
        <time>2021-06-30T18:54:10Z</time>
      </trkpt>
      <trkpt lat="44.171757" lon="5.284246">
        <ele>1808.38184</ele>
        <time>2021-06-30T18:54:11Z</time>
      </trkpt>
      <trkpt lat="44.171528" lon="5.284293">
        <ele>1806.10474</ele>
        <time>2021-06-30T18:54:12Z</time>
      </trkpt>
      <trkpt lat="44.171337" lon="5.284355">
        <ele>1804.06421</ele>
        <time>2021-06-30T18:54:13Z</time>
      </trkpt>
      <trkpt lat="44.171158" lon="5.284476">
        <ele>1803.37988</ele>
        <time>2021-06-30T18:54:14Z</time>
      </trkpt>
      <trkpt lat="44.170982" lon="5.284644">
        <ele>1801.85278</ele>
        <time>2021-06-30T18:54:15Z</time>
      </trkpt>
      <trkpt lat="44.170815" lon="5.284865">
        <ele>1800.37842</ele>
        <time>2021-06-30T18:54:16Z</time>
      </trkpt>
      <trkpt lat="44.170639" lon="5.285096">
        <ele>1797.12451</ele>
        <time>2021-06-30T18:54:17Z</time>
      </trkpt>
      <trkpt lat="44.170479" lon="5.285270">
        <ele>1793.77686</ele>
        <time>2021-06-30T18:54:17Z</time>
      </trkpt>
      <trkpt lat="44.170261" lon="5.285472">
        <ele>1791.27881</ele>
        <time>2021-06-30T18:54:18Z</time>
      </trkpt>
      <trkpt lat="44.170082" lon="5.285628">
        <ele>1788.44678</ele>
        <time>2021-06-30T18:54:20Z</time>
      </trkpt>
      <trkpt lat="44.169930" lon="5.285763">
        <ele>1786.90527</ele>
        <time>2021-06-30T18:54:21Z</time>
      </trkpt>
      <trkpt lat="44.169819" lon="5.285868">
        <ele>1785.39404</ele>
        <time>2021-06-30T18:54:22Z</time>
      </trkpt>
      <trkpt lat="44.169701" lon="5.285984">
        <ele>1784.70410</ele>
        <time>2021-06-30T18:54:22Z</time>
      </trkpt>
      <trkpt lat="44.169571" lon="5.286137">
        <ele>1783.08398</ele>
        <time>2021-06-30T18:54:24Z</time>
      </trkpt>
      <trkpt lat="44.169476" lon="5.286276">
        <ele>1782.19775</ele>
        <time>2021-06-30T18:54:25Z</time>
      </trkpt>
      <trkpt lat="44.169407" lon="5.286376">
        <ele>1781.56128</ele>
        <time>2021-06-30T18:54:26Z</time>
      </trkpt>
      <trkpt lat="44.169312" lon="5.286516">
        <ele>1780.10107</ele>
        <time>2021-06-30T18:54:27Z</time>
      </trkpt>
      <trkpt lat="44.169231" lon="5.286660">
        <ele>1778.70410</ele>
        <time>2021-06-30T18:54:27Z</time>
      </trkpt>
      <trkpt lat="44.169231" lon="5.286660">
        <ele>1778.49487</ele>
        <time>2021-06-30T18:54:28Z</time>
      </trkpt>
      <trkpt lat="44.169147" lon="5.286822">
        <ele>1776.75195</ele>
        <time>2021-06-30T18:54:30Z</time>
      </trkpt>
      <trkpt lat="44.169067" lon="5.287010">
        <ele>1774.94092</ele>
        <time>2021-06-30T18:54:31Z</time>
      </trkpt>
      <trkpt lat="44.168987" lon="5.287214">
        <ele>1773.59717</ele>
        <time>2021-06-30T18:54:32Z</time>
      </trkpt>
      <trkpt lat="44.168900" lon="5.287468">
        <ele>1772.17969</ele>
        <time>2021-06-30T18:54:32Z</time>
      </trkpt>
      <trkpt lat="44.168819" lon="5.287750">
        <ele>1770.59668</ele>
        <time>2021-06-30T18:54:33Z</time>
      </trkpt>
      <trkpt lat="44.168732" lon="5.288052">
        <ele>1768.70068</ele>
        <time>2021-06-30T18:54:35Z</time>
      </trkpt>
      <trkpt lat="44.168671" lon="5.288359">
        <ele>1767.40479</ele>
        <time>2021-06-30T18:54:36Z</time>
      </trkpt>
      <trkpt lat="44.168629" lon="5.288684">
        <ele>1765.81494</ele>
        <time>2021-06-30T18:54:37Z</time>
      </trkpt>
      <trkpt lat="44.168598" lon="5.288949">
        <ele>1763.42310</ele>
        <time>2021-06-30T18:54:38Z</time>
      </trkpt>
      <trkpt lat="44.168591" lon="5.289168">
        <ele>1761.88135</ele>
        <time>2021-06-30T18:54:38Z</time>
      </trkpt>
      <trkpt lat="44.168606" lon="5.289429">
        <ele>1761.14014</ele>
        <time>2021-06-30T18:54:40Z</time>
      </trkpt>
      <trkpt lat="44.168648" lon="5.289647">
        <ele>1759.40552</ele>
        <time>2021-06-30T18:54:41Z</time>
      </trkpt>
      <trkpt lat="44.168701" lon="5.289816">
        <ele>1757.85254</ele>
        <time>2021-06-30T18:54:42Z</time>
      </trkpt>
      <trkpt lat="44.168777" lon="5.289959">
        <ele>1755.95923</ele>
        <time>2021-06-30T18:54:42Z</time>
      </trkpt>
      <trkpt lat="44.168877" lon="5.290101">
        <ele>1755.11353</ele>
        <time>2021-06-30T18:54:44Z</time>
      </trkpt>
      <trkpt lat="44.168877" lon="5.290101">
        <ele>1753.63794</ele>
        <time>2021-06-30T18:54:44Z</time>
      </trkpt>
      <trkpt lat="44.168991" lon="5.290237">
        <ele>1752.65405</ele>
        <time>2021-06-30T18:54:46Z</time>
      </trkpt>
      <trkpt lat="44.169102" lon="5.290363">
        <ele>1751.74512</ele>
        <time>2021-06-30T18:54:47Z</time>
      </trkpt>
      <trkpt lat="44.169205" lon="5.290477">
        <ele>1751.05615</ele>
        <time>2021-06-30T18:54:48Z</time>
      </trkpt>
      <trkpt lat="44.169304" lon="5.290589">
        <ele>1749.54492</ele>
        <time>2021-06-30T18:54:48Z</time>
      </trkpt>
      <trkpt lat="44.169369" lon="5.290683">
        <ele>1748.83350</ele>
        <time>2021-06-30T18:54:50Z</time>
      </trkpt>
      <trkpt lat="44.169411" lon="5.290763">
        <ele>1748.24854</ele>
        <time>2021-06-30T18:54:50Z</time>
      </trkpt>
      <trkpt lat="44.169449" lon="5.290870">
        <ele>1746.66406</ele>
        <time>2021-06-30T18:54:52Z</time>
      </trkpt>
      <trkpt lat="44.169456" lon="5.291007">
        <ele>1744.96973</ele>
        <time>2021-06-30T18:54:53Z</time>
      </trkpt>
      <trkpt lat="44.169426" lon="5.291099">
        <ele>1744.71338</ele>
        <time>2021-06-30T18:54:54Z</time>
      </trkpt>
      <trkpt lat="44.169392" lon="5.291144">
        <ele>1744.71338</ele>
        <time>2021-06-30T18:54:54Z</time>
      </trkpt>
      <trkpt lat="44.169273" lon="5.291232">
        <ele>1743.58154</ele>
        <time>2021-06-30T18:54:56Z</time>
      </trkpt>
      <trkpt lat="44.169109" lon="5.291304">
        <ele>1740.61816</ele>
        <time>2021-06-30T18:54:57Z</time>
      </trkpt>
      <trkpt lat="44.168919" lon="5.291382">
        <ele>1735.10889</ele>
        <time>2021-06-30T18:54:58Z</time>
      </trkpt>
      <trkpt lat="44.168716" lon="5.291456">
        <ele>1735.10889</ele>
        <time>2021-06-30T18:54:58Z</time>
      </trkpt>
      <trkpt lat="44.168716" lon="5.291456">
        <ele>1732.87646</ele>
        <time>2021-06-30T18:55:00Z</time>
      </trkpt>
      <trkpt lat="44.168510" lon="5.291529">
        <ele>1730.88623</ele>
        <time>2021-06-30T18:55:00Z</time>
      </trkpt>
      <trkpt lat="44.168304" lon="5.291605">
        <ele>1728.29199</ele>
        <time>2021-06-30T18:55:01Z</time>
      </trkpt>
      <trkpt lat="44.168110" lon="5.291675">
        <ele>1726.51367</ele>
        <time>2021-06-30T18:55:03Z</time>
      </trkpt>
      <trkpt lat="44.167915" lon="5.291760">
        <ele>1724.76025</ele>
        <time>2021-06-30T18:55:04Z</time>
      </trkpt>
      <trkpt lat="44.167789" lon="5.291820">
        <ele>1722.66992</ele>
        <time>2021-06-30T18:55:04Z</time>
      </trkpt>
      <trkpt lat="44.167610" lon="5.291908">
        <ele>1720.74170</ele>
        <time>2021-06-30T18:55:06Z</time>
      </trkpt>
      <trkpt lat="44.167465" lon="5.292035">
        <ele>1719.36279</ele>
        <time>2021-06-30T18:55:07Z</time>
      </trkpt>
      <trkpt lat="44.167355" lon="5.292169">
        <ele>1719.36279</ele>
        <time>2021-06-30T18:55:07Z</time>
      </trkpt>
      <trkpt lat="44.167217" lon="5.292383">
        <ele>1718.22119</ele>
        <time>2021-06-30T18:55:09Z</time>
      </trkpt>
      <trkpt lat="44.167122" lon="5.292604">
        <ele>1716.49219</ele>
        <time>2021-06-30T18:55:09Z</time>
      </trkpt>
      <trkpt lat="44.167072" lon="5.292822">
        <ele>1713.76270</ele>
        <time>2021-06-30T18:55:11Z</time>
      </trkpt>
      <trkpt lat="44.167072" lon="5.293080">
        <ele>1713.76270</ele>
        <time>2021-06-30T18:55:11Z</time>
      </trkpt>
      <trkpt lat="44.167088" lon="5.293338">
        <ele>1712.87744</ele>
        <time>2021-06-30T18:55:13Z</time>
      </trkpt>
      <trkpt lat="44.167088" lon="5.293338">
        <ele>1711.25098</ele>
        <time>2021-06-30T18:55:13Z</time>
      </trkpt>
      <trkpt lat="44.167152" lon="5.293584">
        <ele>1709.05371</ele>
        <time>2021-06-30T18:55:14Z</time>
      </trkpt>
      <trkpt lat="44.167221" lon="5.293857">
        <ele>1707.80469</ele>
        <time>2021-06-30T18:55:16Z</time>
      </trkpt>
      <trkpt lat="44.167320" lon="5.294091">
        <ele>1706.68652</ele>
        <time>2021-06-30T18:55:17Z</time>
      </trkpt>
      <trkpt lat="44.167431" lon="5.294340">
        <ele>1705.31958</ele>
        <time>2021-06-30T18:55:18Z</time>
      </trkpt>
      <trkpt lat="44.167534" lon="5.294574">
        <ele>1704.09961</ele>
        <time>2021-06-30T18:55:18Z</time>
      </trkpt>
      <trkpt lat="44.167606" lon="5.294744">
        <ele>1703.55811</ele>
        <time>2021-06-30T18:55:20Z</time>
      </trkpt>
      <trkpt lat="44.167664" lon="5.294918">
        <ele>1702.37720</ele>
        <time>2021-06-30T18:55:21Z</time>
      </trkpt>
      <trkpt lat="44.167679" lon="5.295062">
        <ele>1701.63037</ele>
        <time>2021-06-30T18:55:21Z</time>
      </trkpt>
      <trkpt lat="44.167633" lon="5.295323">
        <ele>1701.14941</ele>
        <time>2021-06-30T18:55:23Z</time>
      </trkpt>
      <trkpt lat="44.167553" lon="5.295485">
        <ele>1701.08301</ele>
        <time>2021-06-30T18:55:24Z</time>
      </trkpt>
      <trkpt lat="44.167412" lon="5.295694">
        <ele>1701.08301</ele>
        <time>2021-06-30T18:55:25Z</time>
      </trkpt>
      <trkpt lat="44.167168" lon="5.295956">
        <ele>1699.61841</ele>
        <time>2021-06-30T18:55:26Z</time>
      </trkpt>
      <trkpt lat="44.166981" lon="5.296124">
        <ele>1698.04102</ele>
        <time>2021-06-30T18:55:27Z</time>
      </trkpt>
      <trkpt lat="44.166771" lon="5.296266">
        <ele>1694.49951</ele>
        <time>2021-06-30T18:55:28Z</time>
      </trkpt>
      <trkpt lat="44.166550" lon="5.296410">
        <ele>1692.44775</ele>
        <time>2021-06-30T18:55:28Z</time>
      </trkpt>
      <trkpt lat="44.166351" lon="5.296534">
        <ele>1690.61548</ele>
        <time>2021-06-30T18:55:29Z</time>
      </trkpt>
      <trkpt lat="44.166122" lon="5.296659">
        <ele>1689.14380</ele>
        <time>2021-06-30T18:55:31Z</time>
      </trkpt>
      <trkpt lat="44.166122" lon="5.296659">
        <ele>1686.79346</ele>
        <time>2021-06-30T18:55:32Z</time>
      </trkpt>
      <trkpt lat="44.165951" lon="5.296767">
        <ele>1683.91870</ele>
        <time>2021-06-30T18:55:32Z</time>
      </trkpt>
      <trkpt lat="44.165810" lon="5.296862">
        <ele>1681.91504</ele>
        <time>2021-06-30T18:55:34Z</time>
      </trkpt>
      <trkpt lat="44.165688" lon="5.296961">
        <ele>1679.81494</ele>
        <time>2021-06-30T18:55:35Z</time>
      </trkpt>
      <trkpt lat="44.165562" lon="5.297118">
        <ele>1678.16675</ele>
        <time>2021-06-30T18:55:36Z</time>
      </trkpt>
      <trkpt lat="44.165440" lon="5.297353">
        <ele>1676.91455</ele>
        <time>2021-06-30T18:55:37Z</time>
      </trkpt>
      <trkpt lat="44.165363" lon="5.297597">
        <ele>1675.55200</ele>
        <time>2021-06-30T18:55:37Z</time>
      </trkpt>
      <trkpt lat="44.165295" lon="5.297906">
        <ele>1674.45410</ele>
        <time>2021-06-30T18:55:38Z</time>
      </trkpt>
      <trkpt lat="44.165226" lon="5.298234">
        <ele>1671.94580</ele>
        <time>2021-06-30T18:55:40Z</time>
      </trkpt>
      <trkpt lat="44.165154" lon="5.298573">
        <ele>1670.07397</ele>
        <time>2021-06-30T18:55:40Z</time>
      </trkpt>
      <trkpt lat="44.165051" lon="5.298934">
        <ele>1666.87695</ele>
        <time>2021-06-30T18:55:42Z</time>
      </trkpt>
      <trkpt lat="44.164925" lon="5.299252">
        <ele>1664.97803</ele>
        <time>2021-06-30T18:55:43Z</time>
      </trkpt>
      <trkpt lat="44.164814" lon="5.299502">
        <ele>1663.54053</ele>
        <time>2021-06-30T18:55:44Z</time>
      </trkpt>
      <trkpt lat="44.164814" lon="5.299502">
        <ele>1662.05615</ele>
        <time>2021-06-30T18:55:45Z</time>
      </trkpt>
      <trkpt lat="44.164677" lon="5.299814">
        <ele>1660.15112</ele>
        <time>2021-06-30T18:55:45Z</time>
      </trkpt>
      <trkpt lat="44.164513" lon="5.300204">
        <ele>1657.80029</ele>
        <time>2021-06-30T18:55:46Z</time>
      </trkpt>
      <trkpt lat="44.164368" lon="5.300592">
        <ele>1655.26807</ele>
        <time>2021-06-30T18:55:47Z</time>
      </trkpt>
      <trkpt lat="44.164253" lon="5.300936">
        <ele>1653.68408</ele>
        <time>2021-06-30T18:55:48Z</time>
      </trkpt>
      <trkpt lat="44.164135" lon="5.301293">
        <ele>1651.76172</ele>
        <time>2021-06-30T18:55:50Z</time>
      </trkpt>
      <trkpt lat="44.164028" lon="5.301593">
        <ele>1650.51514</ele>
        <time>2021-06-30T18:55:51Z</time>
      </trkpt>
      <trkpt lat="44.163960" lon="5.301768">
        <ele>1649.17871</ele>
        <time>2021-06-30T18:55:52Z</time>
      </trkpt>
      <trkpt lat="44.163849" lon="5.301962">
        <ele>1647.90576</ele>
        <time>2021-06-30T18:55:52Z</time>
      </trkpt>
      <trkpt lat="44.163666" lon="5.302159">
        <ele>1647.40381</ele>
        <time>2021-06-30T18:55:53Z</time>
      </trkpt>
      <trkpt lat="44.163666" lon="5.302159">
        <ele>1645.99756</ele>
        <time>2021-06-30T18:55:54Z</time>
      </trkpt>
      <trkpt lat="44.163437" lon="5.302325">
        <ele>1644.79150</ele>
        <time>2021-06-30T18:55:56Z</time>
      </trkpt>
      <trkpt lat="44.163246" lon="5.302448">
        <ele>1643.36328</ele>
        <time>2021-06-30T18:55:57Z</time>
      </trkpt>
      <trkpt lat="44.163094" lon="5.302519">
        <ele>1642.42236</ele>
        <time>2021-06-30T18:55:57Z</time>
      </trkpt>
      <trkpt lat="44.162994" lon="5.302520">
        <ele>1641.74707</ele>
        <time>2021-06-30T18:55:58Z</time>
      </trkpt>
      <trkpt lat="44.162891" lon="5.302471">
        <ele>1640.95020</ele>
        <time>2021-06-30T18:56:00Z</time>
      </trkpt>
      <trkpt lat="44.162781" lon="5.302359">
        <ele>1640.97266</ele>
        <time>2021-06-30T18:56:01Z</time>
      </trkpt>
      <trkpt lat="44.162670" lon="5.302196">
        <ele>1640.07544</ele>
        <time>2021-06-30T18:56:02Z</time>
      </trkpt>
      <trkpt lat="44.162521" lon="5.301922">
        <ele>1638.90820</ele>
        <time>2021-06-30T18:56:02Z</time>
      </trkpt>
      <trkpt lat="44.162403" lon="5.301702">
        <ele>1636.24561</ele>
        <time>2021-06-30T18:56:04Z</time>
      </trkpt>
      <trkpt lat="44.162262" lon="5.301438">
        <ele>1634.78467</ele>
        <time>2021-06-30T18:56:05Z</time>
      </trkpt>
      <trkpt lat="44.162170" lon="5.301272">
        <ele>1630.56152</ele>
        <time>2021-06-30T18:56:05Z</time>
      </trkpt>
      <trkpt lat="44.162083" lon="5.301120">
        <ele>1629.20605</ele>
        <time>2021-06-30T18:56:06Z</time>
      </trkpt>
      <trkpt lat="44.162003" lon="5.300975">
        <ele>1627.67749</ele>
        <time>2021-06-30T18:56:08Z</time>
      </trkpt>
      <trkpt lat="44.161896" lon="5.300835">
        <ele>1626.68701</ele>
        <time>2021-06-30T18:56:08Z</time>
      </trkpt>
      <trkpt lat="44.161762" lon="5.300754">
        <ele>1626.64502</ele>
        <time>2021-06-30T18:56:10Z</time>
      </trkpt>
      <trkpt lat="44.161617" lon="5.300756">
        <ele>1625.01367</ele>
        <time>2021-06-30T18:56:10Z</time>
      </trkpt>
      <trkpt lat="44.161617" lon="5.300756">
        <ele>1624.24219</ele>
        <time>2021-06-30T18:56:12Z</time>
      </trkpt>
      <trkpt lat="44.161308" lon="5.300920">
        <ele>1620.82520</ele>
        <time>2021-06-30T18:56:13Z</time>
      </trkpt>
      <trkpt lat="44.161308" lon="5.300920">
        <ele>1620.82520</ele>
        <time>2021-06-30T18:56:14Z</time>
      </trkpt>
      <trkpt lat="44.161152" lon="5.301044">
        <ele>1618.77930</ele>
        <time>2021-06-30T18:56:14Z</time>
      </trkpt>
      <trkpt lat="44.161011" lon="5.301171">
        <ele>1617.30127</ele>
        <time>2021-06-30T18:56:15Z</time>
      </trkpt>
      <trkpt lat="44.160881" lon="5.301313">
        <ele>1616.81470</ele>
        <time>2021-06-30T18:56:16Z</time>
      </trkpt>
      <trkpt lat="44.160782" lon="5.301444">
        <ele>1615.95093</ele>
        <time>2021-06-30T18:56:17Z</time>
      </trkpt>
      <trkpt lat="44.160698" lon="5.301568">
        <ele>1614.92725</ele>
        <time>2021-06-30T18:56:19Z</time>
      </trkpt>
      <trkpt lat="44.160606" lon="5.301754">
        <ele>1613.10596</ele>
        <time>2021-06-30T18:56:20Z</time>
      </trkpt>
      <trkpt lat="44.160477" lon="5.302023">
        <ele>1610.81860</ele>
        <time>2021-06-30T18:56:21Z</time>
      </trkpt>
      <trkpt lat="44.160358" lon="5.302275">
        <ele>1608.01367</ele>
        <time>2021-06-30T18:56:21Z</time>
      </trkpt>
      <trkpt lat="44.160255" lon="5.302527">
        <ele>1607.26074</ele>
        <time>2021-06-30T18:56:23Z</time>
      </trkpt>
      <trkpt lat="44.160152" lon="5.302788">
        <ele>1606.11328</ele>
        <time>2021-06-30T18:56:23Z</time>
      </trkpt>
      <trkpt lat="44.160057" lon="5.303030">
        <ele>1605.04688</ele>
        <time>2021-06-30T18:56:25Z</time>
      </trkpt>
      <trkpt lat="44.160057" lon="5.303030">
        <ele>1603.76440</ele>
        <time>2021-06-30T18:56:25Z</time>
      </trkpt>
      <trkpt lat="44.159969" lon="5.303280">
        <ele>1601.77637</ele>
        <time>2021-06-30T18:56:27Z</time>
      </trkpt>
      <trkpt lat="44.159885" lon="5.303586">
        <ele>1595.68872</ele>
        <time>2021-06-30T18:56:28Z</time>
      </trkpt>
      <trkpt lat="44.159821" lon="5.303928">
        <ele>1595.68872</ele>
        <time>2021-06-30T18:56:28Z</time>
      </trkpt>
      <trkpt lat="44.159767" lon="5.304231">
        <ele>1594.33447</ele>
        <time>2021-06-30T18:56:30Z</time>
      </trkpt>
      <trkpt lat="44.159714" lon="5.304525">
        <ele>1591.90039</ele>
        <time>2021-06-30T18:56:31Z</time>
      </trkpt>
      <trkpt lat="44.159672" lon="5.304790">
        <ele>1590.24487</ele>
        <time>2021-06-30T18:56:32Z</time>
      </trkpt>
      <trkpt lat="44.159630" lon="5.305080">
        <ele>1588.66357</ele>
        <time>2021-06-30T18:56:32Z</time>
      </trkpt>
      <trkpt lat="44.159607" lon="5.305350">
        <ele>1586.66943</ele>
        <time>2021-06-30T18:56:33Z</time>
      </trkpt>
      <trkpt lat="44.159599" lon="5.305593">
        <ele>1584.75000</ele>
        <time>2021-06-30T18:56:35Z</time>
      </trkpt>
      <trkpt lat="44.159599" lon="5.305880">
        <ele>1584.75000</ele>
        <time>2021-06-30T18:56:36Z</time>
      </trkpt>
      <trkpt lat="44.159618" lon="5.306225">
        <ele>1583.26807</ele>
        <time>2021-06-30T18:56:36Z</time>
      </trkpt>
      <trkpt lat="44.159653" lon="5.306463">
        <ele>1581.76611</ele>
        <time>2021-06-30T18:56:37Z</time>
      </trkpt>
      <trkpt lat="44.159702" lon="5.306784">
        <ele>1579.86475</ele>
        <time>2021-06-30T18:56:38Z</time>
      </trkpt>
      <trkpt lat="44.159771" lon="5.307059">
        <ele>1577.96997</ele>
        <time>2021-06-30T18:56:40Z</time>
      </trkpt>
      <trkpt lat="44.159885" lon="5.307304">
        <ele>1577.09229</ele>
        <time>2021-06-30T18:56:41Z</time>
      </trkpt>
      <trkpt lat="44.159885" lon="5.307304">
        <ele>1575.89600</ele>
        <time>2021-06-30T18:56:41Z</time>
      </trkpt>
      <trkpt lat="44.160019" lon="5.307517">
        <ele>1574.23535</ele>
        <time>2021-06-30T18:56:42Z</time>
      </trkpt>
      <trkpt lat="44.160145" lon="5.307713">
        <ele>1571.94043</ele>
        <time>2021-06-30T18:56:44Z</time>
      </trkpt>
      <trkpt lat="44.160179" lon="5.307890">
        <ele>1571.94043</ele>
        <time>2021-06-30T18:56:45Z</time>
      </trkpt>
      <trkpt lat="44.160160" lon="5.308031">
        <ele>1571.06738</ele>
        <time>2021-06-30T18:56:46Z</time>
      </trkpt>
      <trkpt lat="44.160133" lon="5.308092">
        <ele>1570.47607</ele>
        <time>2021-06-30T18:56:47Z</time>
      </trkpt>
      <trkpt lat="44.160088" lon="5.308156">
        <ele>1569.79004</ele>
        <time>2021-06-30T18:56:48Z</time>
      </trkpt>
      <trkpt lat="44.160046" lon="5.308195">
        <ele>1569.89014</ele>
        <time>2021-06-30T18:56:49Z</time>
      </trkpt>
      <trkpt lat="44.160019" lon="5.308214">
        <ele>1569.65674</ele>
        <time>2021-06-30T18:56:50Z</time>
      </trkpt>
      <trkpt lat="44.159939" lon="5.308236">
        <ele>1568.12256</ele>
        <time>2021-06-30T18:56:51Z</time>
      </trkpt>
      <trkpt lat="44.159767" lon="5.308246">
        <ele>1566.35498</ele>
        <time>2021-06-30T18:56:52Z</time>
      </trkpt>
      <trkpt lat="44.159512" lon="5.308211">
        <ele>1564.89111</ele>
        <time>2021-06-30T18:56:53Z</time>
      </trkpt>
      <trkpt lat="44.159275" lon="5.308146">
        <ele>1563.51953</ele>
        <time>2021-06-30T18:56:53Z</time>
      </trkpt>
      <trkpt lat="44.159084" lon="5.308100">
        <ele>1560.76709</ele>
        <time>2021-06-30T18:56:54Z</time>
      </trkpt>
      <trkpt lat="44.158859" lon="5.308137">
        <ele>1558.51123</ele>
        <time>2021-06-30T18:56:56Z</time>
      </trkpt>
      <trkpt lat="44.158653" lon="5.308199">
        <ele>1557.63477</ele>
        <time>2021-06-30T18:56:57Z</time>
      </trkpt>
      <trkpt lat="44.158653" lon="5.308199">
        <ele>1555.46997</ele>
        <time>2021-06-30T18:56:58Z</time>
      </trkpt>
      <trkpt lat="44.158447" lon="5.308302">
        <ele>1555.13330</ele>
        <time>2021-06-30T18:56:59Z</time>
      </trkpt>
      <trkpt lat="44.158272" lon="5.308419">
        <ele>1554.57861</ele>
        <time>2021-06-30T18:57:00Z</time>
      </trkpt>
      <trkpt lat="44.158085" lon="5.308595">
        <ele>1552.73633</ele>
        <time>2021-06-30T18:57:01Z</time>
      </trkpt>
      <trkpt lat="44.157921" lon="5.308775">
        <ele>1552.39014</ele>
        <time>2021-06-30T18:57:02Z</time>
      </trkpt>
      <trkpt lat="44.157818" lon="5.308955">
        <ele>1551.65186</ele>
        <time>2021-06-30T18:57:03Z</time>
      </trkpt>
      <trkpt lat="44.157730" lon="5.309167">
        <ele>1550.05298</ele>
        <time>2021-06-30T18:57:04Z</time>
      </trkpt>
      <trkpt lat="44.157639" lon="5.309418">
        <ele>1548.33984</ele>
        <time>2021-06-30T18:57:05Z</time>
      </trkpt>
      <trkpt lat="44.157520" lon="5.309756">
        <ele>1546.59131</ele>
        <time>2021-06-30T18:57:06Z</time>
      </trkpt>
      <trkpt lat="44.157482" lon="5.309958">
        <ele>1544.85693</ele>
        <time>2021-06-30T18:57:06Z</time>
      </trkpt>
      <trkpt lat="44.157433" lon="5.310225">
        <ele>1542.74097</ele>
        <time>2021-06-30T18:57:07Z</time>
      </trkpt>
      <trkpt lat="44.157417" lon="5.310513">
        <ele>1540.52637</ele>
        <time>2021-06-30T18:57:08Z</time>
      </trkpt>
      <trkpt lat="44.157421" lon="5.310798">
        <ele>1539.46704</ele>
        <time>2021-06-30T18:57:10Z</time>
      </trkpt>
      <trkpt lat="44.157444" lon="5.311095">
        <ele>1538.98926</ele>
        <time>2021-06-30T18:57:11Z</time>
      </trkpt>
      <trkpt lat="44.157444" lon="5.311095">
        <ele>1537.04492</ele>
        <time>2021-06-30T18:57:11Z</time>
      </trkpt>
      <trkpt lat="44.157486" lon="5.311361">
        <ele>1535.39551</ele>
        <time>2021-06-30T18:57:13Z</time>
      </trkpt>
      <trkpt lat="44.157562" lon="5.311596">
        <ele>1534.10254</ele>
        <time>2021-06-30T18:57:14Z</time>
      </trkpt>
      <trkpt lat="44.157639" lon="5.311782">
        <ele>1533.02783</ele>
        <time>2021-06-30T18:57:15Z</time>
      </trkpt>
      <trkpt lat="44.157692" lon="5.311940">
        <ele>1528.92139</ele>
        <time>2021-06-30T18:57:16Z</time>
      </trkpt>
      <trkpt lat="44.157742" lon="5.312095">
        <ele>1528.92139</ele>
        <time>2021-06-30T18:57:17Z</time>
      </trkpt>
      <trkpt lat="44.157776" lon="5.312271">
        <ele>1527.14111</ele>
        <time>2021-06-30T18:57:18Z</time>
      </trkpt>
      <trkpt lat="44.157799" lon="5.312447">
        <ele>1526.29492</ele>
        <time>2021-06-30T18:57:18Z</time>
      </trkpt>
      <trkpt lat="44.157803" lon="5.312610">
        <ele>1525.42480</ele>
        <time>2021-06-30T18:57:20Z</time>
      </trkpt>
      <trkpt lat="44.157806" lon="5.312729">
        <ele>1525.08984</ele>
        <time>2021-06-30T18:57:21Z</time>
      </trkpt>
      <trkpt lat="44.157810" lon="5.312861">
        <ele>1524.52344</ele>
        <time>2021-06-30T18:57:22Z</time>
      </trkpt>
      <trkpt lat="44.157818" lon="5.312971">
        <ele>1523.98535</ele>
        <time>2021-06-30T18:57:23Z</time>
      </trkpt>
      <trkpt lat="44.157818" lon="5.312971">
        <ele>1522.29102</ele>
        <time>2021-06-30T18:57:24Z</time>
      </trkpt>
      <trkpt lat="44.157822" lon="5.313067">
        <ele>1522.29102</ele>
        <time>2021-06-30T18:57:25Z</time>
      </trkpt>
      <trkpt lat="44.157822" lon="5.313175">
        <ele>1521.43701</ele>
        <time>2021-06-30T18:57:25Z</time>
      </trkpt>
      <trkpt lat="44.157806" lon="5.313299">
        <ele>1520.52905</ele>
        <time>2021-06-30T18:57:27Z</time>
      </trkpt>
      <trkpt lat="44.157764" lon="5.313410">
        <ele>1521.37061</ele>
        <time>2021-06-30T18:57:28Z</time>
      </trkpt>
      <trkpt lat="44.157684" lon="5.313461">
        <ele>1521.68701</ele>
        <time>2021-06-30T18:57:28Z</time>
      </trkpt>
      <trkpt lat="44.157597" lon="5.313464">
        <ele>1521.43750</ele>
        <time>2021-06-30T18:57:30Z</time>
      </trkpt>
      <trkpt lat="44.157497" lon="5.313432">
        <ele>1520.64233</ele>
        <time>2021-06-30T18:57:30Z</time>
      </trkpt>
      <trkpt lat="44.157372" lon="5.313353">
        <ele>1520.05322</ele>
        <time>2021-06-30T18:57:32Z</time>
      </trkpt>
      <trkpt lat="44.157288" lon="5.313293">
        <ele>1518.98193</ele>
        <time>2021-06-30T18:57:33Z</time>
      </trkpt>
      <trkpt lat="44.157173" lon="5.313213">
        <ele>1518.40991</ele>
        <time>2021-06-30T18:57:33Z</time>
      </trkpt>
      <trkpt lat="44.157089" lon="5.313175">
        <ele>1518.10938</ele>
        <time>2021-06-30T18:57:35Z</time>
      </trkpt>
      <trkpt lat="44.157005" lon="5.313151">
        <ele>1517.58667</ele>
        <time>2021-06-30T18:57:35Z</time>
      </trkpt>
      <trkpt lat="44.156898" lon="5.313108">
        <ele>1518.07056</ele>
        <time>2021-06-30T18:57:37Z</time>
      </trkpt>
      <trkpt lat="44.156757" lon="5.313041">
        <ele>1516.48047</ele>
        <time>2021-06-30T18:57:37Z</time>
      </trkpt>
      <trkpt lat="44.156757" lon="5.313041">
        <ele>1514.97852</ele>
        <time>2021-06-30T18:57:38Z</time>
      </trkpt>
      <trkpt lat="44.156578" lon="5.312943">
        <ele>1514.80542</ele>
        <time>2021-06-30T18:57:39Z</time>
      </trkpt>
      <trkpt lat="44.156326" lon="5.312801">
        <ele>1513.95532</ele>
        <time>2021-06-30T18:57:40Z</time>
      </trkpt>
      <trkpt lat="44.156136" lon="5.312690">
        <ele>1511.57617</ele>
        <time>2021-06-30T18:57:42Z</time>
      </trkpt>
      <trkpt lat="44.155926" lon="5.312552">
        <ele>1511.54272</ele>
        <time>2021-06-30T18:57:42Z</time>
      </trkpt>
      <trkpt lat="44.155758" lon="5.312431">
        <ele>1512.61914</ele>
        <time>2021-06-30T18:57:43Z</time>
      </trkpt>
      <trkpt lat="44.155609" lon="5.312326">
        <ele>1511.39624</ele>
        <time>2021-06-30T18:57:44Z</time>
      </trkpt>
      <trkpt lat="44.155479" lon="5.312236">
        <ele>1510.94092</ele>
        <time>2021-06-30T18:57:45Z</time>
      </trkpt>
      <trkpt lat="44.155369" lon="5.312194">
        <ele>1509.29565</ele>
        <time>2021-06-30T18:57:47Z</time>
      </trkpt>
      <trkpt lat="44.155197" lon="5.312207">
        <ele>1508.52979</ele>
        <time>2021-06-30T18:57:47Z</time>
      </trkpt>
      <trkpt lat="44.155064" lon="5.312293">
        <ele>1507.95215</ele>
        <time>2021-06-30T18:57:48Z</time>
      </trkpt>
      <trkpt lat="44.154949" lon="5.312480">
        <ele>1507.55176</ele>
        <time>2021-06-30T18:57:50Z</time>
      </trkpt>
      <trkpt lat="44.154888" lon="5.312693">
        <ele>1506.67871</ele>
        <time>2021-06-30T18:57:51Z</time>
      </trkpt>
      <trkpt lat="44.154842" lon="5.312979">
        <ele>1506.24609</ele>
        <time>2021-06-30T18:57:52Z</time>
      </trkpt>
      <trkpt lat="44.154819" lon="5.313366">
        <ele>1504.84424</ele>
        <time>2021-06-30T18:57:53Z</time>
      </trkpt>
      <trkpt lat="44.154819" lon="5.313366">
        <ele>1503.69727</ele>
        <time>2021-06-30T18:57:54Z</time>
      </trkpt>
      <trkpt lat="44.154804" lon="5.313647">
        <ele>1502.50684</ele>
        <time>2021-06-30T18:57:55Z</time>
      </trkpt>
      <trkpt lat="44.154797" lon="5.313890">
        <ele>1500.91650</ele>
        <time>2021-06-30T18:57:56Z</time>
      </trkpt>
      <trkpt lat="44.154793" lon="5.314182">
        <ele>1500.54932</ele>
        <time>2021-06-30T18:57:56Z</time>
      </trkpt>
      <trkpt lat="44.154789" lon="5.314439">
        <ele>1499.68701</ele>
        <time>2021-06-30T18:57:58Z</time>
      </trkpt>
      <trkpt lat="44.154804" lon="5.314682">
        <ele>1498.84375</ele>
        <time>2021-06-30T18:57:59Z</time>
      </trkpt>
      <trkpt lat="44.154846" lon="5.314889">
        <ele>1498.81750</ele>
        <time>2021-06-30T18:58:00Z</time>
      </trkpt>
      <trkpt lat="44.154892" lon="5.315022">
        <ele>1498.85413</ele>
        <time>2021-06-30T18:58:00Z</time>
      </trkpt>
      <trkpt lat="44.154953" lon="5.315197">
        <ele>1498.47290</ele>
        <time>2021-06-30T18:58:02Z</time>
      </trkpt>
      <trkpt lat="44.154984" lon="5.315327">
        <ele>1497.57153</ele>
        <time>2021-06-30T18:58:02Z</time>
      </trkpt>
      <trkpt lat="44.154945" lon="5.315440">
        <ele>1496.91333</ele>
        <time>2021-06-30T18:58:04Z</time>
      </trkpt>
      <trkpt lat="44.154930" lon="5.315450">
        <ele>1495.40869</ele>
        <time>2021-06-30T18:58:05Z</time>
      </trkpt>
      <trkpt lat="44.154854" lon="5.315471">
        <ele>1494.33569</ele>
        <time>2021-06-30T18:58:06Z</time>
      </trkpt>
      <trkpt lat="44.154781" lon="5.315456">
        <ele>1493.26904</ele>
        <time>2021-06-30T18:58:07Z</time>
      </trkpt>
      <trkpt lat="44.154572" lon="5.315332">
        <ele>1492.09924</ele>
        <time>2021-06-30T18:58:08Z</time>
      </trkpt>
      <trkpt lat="44.154423" lon="5.315224">
        <ele>1490.45508</ele>
        <time>2021-06-30T18:58:09Z</time>
      </trkpt>
      <trkpt lat="44.154182" lon="5.315052">
        <ele>1486.50293</ele>
        <time>2021-06-30T18:58:10Z</time>
      </trkpt>
      <trkpt lat="44.154091" lon="5.314984">
        <ele>1486.50293</ele>
        <time>2021-06-30T18:58:11Z</time>
      </trkpt>
      <trkpt lat="44.154091" lon="5.314984">
        <ele>1484.92554</ele>
        <time>2021-06-30T18:58:11Z</time>
      </trkpt>
      <trkpt lat="44.153904" lon="5.314850">
        <ele>1482.67236</ele>
        <time>2021-06-30T18:58:13Z</time>
      </trkpt>
      <trkpt lat="44.153702" lon="5.314734">
        <ele>1481.69641</ele>
        <time>2021-06-30T18:58:13Z</time>
      </trkpt>
      <trkpt lat="44.153484" lon="5.314617">
        <ele>1480.77551</ele>
        <time>2021-06-30T18:58:14Z</time>
      </trkpt>
      <trkpt lat="44.153313" lon="5.314532">
        <ele>1478.70190</ele>
        <time>2021-06-30T18:58:15Z</time>
      </trkpt>
      <trkpt lat="44.153118" lon="5.314459">
        <ele>1477.34631</ele>
        <time>2021-06-30T18:58:17Z</time>
      </trkpt>
      <trkpt lat="44.152973" lon="5.314403">
        <ele>1475.93933</ele>
        <time>2021-06-30T18:58:18Z</time>
      </trkpt>
      <trkpt lat="44.152832" lon="5.314313">
        <ele>1474.14233</ele>
        <time>2021-06-30T18:58:18Z</time>
      </trkpt>
      <trkpt lat="44.152733" lon="5.314228">
        <ele>1471.85303</ele>
        <time>2021-06-30T18:58:20Z</time>
      </trkpt>
      <trkpt lat="44.152615" lon="5.314103">
        <ele>1471.85303</ele>
        <time>2021-06-30T18:58:21Z</time>
      </trkpt>
      <trkpt lat="44.152489" lon="5.313960">
        <ele>1469.94995</ele>
        <time>2021-06-30T18:58:22Z</time>
      </trkpt>
      <trkpt lat="44.152386" lon="5.313844">
        <ele>1468.35278</ele>
        <time>2021-06-30T18:58:23Z</time>
      </trkpt>
      <trkpt lat="44.152279" lon="5.313730">
        <ele>1467.11804</ele>
        <time>2021-06-30T18:58:24Z</time>
      </trkpt>
      <trkpt lat="44.152138" lon="5.313617">
        <ele>1464.72754</ele>
        <time>2021-06-30T18:58:25Z</time>
      </trkpt>
      <trkpt lat="44.152004" lon="5.313555">
        <ele>1464.72754</ele>
        <time>2021-06-30T18:58:26Z</time>
      </trkpt>
      <trkpt lat="44.151859" lon="5.313506">
        <ele>1462.38989</ele>
        <time>2021-06-30T18:58:26Z</time>
      </trkpt>
      <trkpt lat="44.151859" lon="5.313506">
        <ele>1461.59705</ele>
        <time>2021-06-30T18:58:27Z</time>
      </trkpt>
      <trkpt lat="44.151733" lon="5.313484">
        <ele>1460.00537</ele>
        <time>2021-06-30T18:58:28Z</time>
      </trkpt>
      <trkpt lat="44.151592" lon="5.313492">
        <ele>1459.10400</ele>
        <time>2021-06-30T18:58:29Z</time>
      </trkpt>
      <trkpt lat="44.151466" lon="5.313520">
        <ele>1456.93372</ele>
        <time>2021-06-30T18:58:30Z</time>
      </trkpt>
      <trkpt lat="44.151318" lon="5.313618">
        <ele>1455.27087</ele>
        <time>2021-06-30T18:58:32Z</time>
      </trkpt>
      <trkpt lat="44.151173" lon="5.313742">
        <ele>1453.89478</ele>
        <time>2021-06-30T18:58:33Z</time>
      </trkpt>
      <trkpt lat="44.151051" lon="5.313869">
        <ele>1452.15198</ele>
        <time>2021-06-30T18:58:34Z</time>
      </trkpt>
      <trkpt lat="44.150970" lon="5.313995">
        <ele>1451.20557</ele>
        <time>2021-06-30T18:58:35Z</time>
      </trkpt>
      <trkpt lat="44.150932" lon="5.314108">
        <ele>1450.40576</ele>
        <time>2021-06-30T18:58:35Z</time>
      </trkpt>
      <trkpt lat="44.150909" lon="5.314273">
        <ele>1449.42053</ele>
        <time>2021-06-30T18:58:37Z</time>
      </trkpt>
      <trkpt lat="44.150932" lon="5.314438">
        <ele>1448.89819</ele>
        <time>2021-06-30T18:58:38Z</time>
      </trkpt>
      <trkpt lat="44.150951" lon="5.314500">
        <ele>1448.24988</ele>
        <time>2021-06-30T18:58:38Z</time>
      </trkpt>
      <trkpt lat="44.151070" lon="5.314798">
        <ele>1447.85498</ele>
        <time>2021-06-30T18:58:40Z</time>
      </trkpt>
      <trkpt lat="44.151173" lon="5.315036">
        <ele>1446.77856</ele>
        <time>2021-06-30T18:58:41Z</time>
      </trkpt>
      <trkpt lat="44.151241" lon="5.315258">
        <ele>1445.22778</ele>
        <time>2021-06-30T18:58:41Z</time>
      </trkpt>
      <trkpt lat="44.151321" lon="5.315533">
        <ele>1444.32275</ele>
        <time>2021-06-30T18:58:43Z</time>
      </trkpt>
      <trkpt lat="44.151402" lon="5.315835">
        <ele>1442.43188</ele>
        <time>2021-06-30T18:58:43Z</time>
      </trkpt>
      <trkpt lat="44.151470" lon="5.316102">
        <ele>1440.46643</ele>
        <time>2021-06-30T18:58:45Z</time>
      </trkpt>
      <trkpt lat="44.151470" lon="5.316102">
        <ele>1438.71094</ele>
        <time>2021-06-30T18:58:46Z</time>
      </trkpt>
      <trkpt lat="44.151539" lon="5.316338">
        <ele>1437.76379</ele>
        <time>2021-06-30T18:58:46Z</time>
      </trkpt>
      <trkpt lat="44.151627" lon="5.316604">
        <ele>1436.39539</ele>
        <time>2021-06-30T18:58:48Z</time>
      </trkpt>
      <trkpt lat="44.151718" lon="5.316850">
        <ele>1435.43262</ele>
        <time>2021-06-30T18:58:48Z</time>
      </trkpt>
      <trkpt lat="44.151810" lon="5.317070">
        <ele>1434.58350</ele>
        <time>2021-06-30T18:58:50Z</time>
      </trkpt>
      <trkpt lat="44.151882" lon="5.317289">
        <ele>1432.94910</ele>
        <time>2021-06-30T18:58:51Z</time>
      </trkpt>
      <trkpt lat="44.151947" lon="5.317495">
        <ele>1431.92786</ele>
        <time>2021-06-30T18:58:52Z</time>
      </trkpt>
      <trkpt lat="44.152000" lon="5.317670">
        <ele>1431.18518</ele>
        <time>2021-06-30T18:58:53Z</time>
      </trkpt>
      <trkpt lat="44.152050" lon="5.317829">
        <ele>1430.22668</ele>
        <time>2021-06-30T18:58:54Z</time>
      </trkpt>
      <trkpt lat="44.152100" lon="5.317996">
        <ele>1429.52356</ele>
        <time>2021-06-30T18:58:54Z</time>
      </trkpt>
      <trkpt lat="44.152157" lon="5.318171">
        <ele>1428.02759</ele>
        <time>2021-06-30T18:58:56Z</time>
      </trkpt>
      <trkpt lat="44.152191" lon="5.318292">
        <ele>1427.50427</ele>
        <time>2021-06-30T18:58:57Z</time>
      </trkpt>
      <trkpt lat="44.152222" lon="5.318420">
        <ele>1427.31873</ele>
        <time>2021-06-30T18:58:58Z</time>
      </trkpt>
      <trkpt lat="44.152233" lon="5.318554">
        <ele>1426.59546</ele>
        <time>2021-06-30T18:58:58Z</time>
      </trkpt>
      <trkpt lat="44.152222" lon="5.318656">
        <ele>1425.75427</ele>
        <time>2021-06-30T18:59:00Z</time>
      </trkpt>
      <trkpt lat="44.152191" lon="5.318739">
        <ele>1424.72900</ele>
        <time>2021-06-30T18:59:00Z</time>
      </trkpt>
      <trkpt lat="44.152122" lon="5.318811">
        <ele>1423.96973</ele>
        <time>2021-06-30T18:59:02Z</time>
      </trkpt>
      <trkpt lat="44.152122" lon="5.318811">
        <ele>1424.46277</ele>
        <time>2021-06-30T18:59:02Z</time>
      </trkpt>
      <trkpt lat="44.152061" lon="5.318856">
        <ele>1424.59351</ele>
        <time>2021-06-30T18:59:04Z</time>
      </trkpt>
      <trkpt lat="44.151978" lon="5.318906">
        <ele>1424.33569</ele>
        <time>2021-06-30T18:59:05Z</time>
      </trkpt>
      <trkpt lat="44.151909" lon="5.318903">
        <ele>1424.38306</ele>
        <time>2021-06-30T18:59:05Z</time>
      </trkpt>
      <trkpt lat="44.151936" lon="5.318870">
        <ele>1424.57520</ele>
        <time>2021-06-30T18:59:07Z</time>
      </trkpt>
      <trkpt lat="44.151917" lon="5.318903">
        <ele>1424.62683</ele>
        <time>2021-06-30T18:59:08Z</time>
      </trkpt>
      <trkpt lat="44.151897" lon="5.318902">
        <ele>1423.89197</ele>
        <time>2021-06-30T18:59:09Z</time>
      </trkpt>
      <trkpt lat="44.151890" lon="5.318901">
        <ele>1422.71570</ele>
        <time>2021-06-30T18:59:10Z</time>
      </trkpt>
      <trkpt lat="44.151863" lon="5.318799">
        <ele>1422.46143</ele>
        <time>2021-06-30T18:59:11Z</time>
      </trkpt>
      <trkpt lat="44.151836" lon="5.318773">
        <ele>1422.50452</ele>
        <time>2021-06-30T18:59:12Z</time>
      </trkpt>
      <trkpt lat="44.151787" lon="5.318724">
        <ele>1422.34851</ele>
        <time>2021-06-30T18:59:12Z</time>
      </trkpt>
      <trkpt lat="44.151695" lon="5.318637">
        <ele>1422.03699</ele>
        <time>2021-06-30T18:59:14Z</time>
      </trkpt>
      <trkpt lat="44.151600" lon="5.318544">
        <ele>1421.63477</ele>
        <time>2021-06-30T18:59:15Z</time>
      </trkpt>
      <trkpt lat="44.151482" lon="5.318433">
        <ele>1420.69336</ele>
        <time>2021-06-30T18:59:16Z</time>
      </trkpt>
      <trkpt lat="44.151482" lon="5.318433">
        <ele>1420.56592</ele>
        <time>2021-06-30T18:59:17Z</time>
      </trkpt>
      <trkpt lat="44.151348" lon="5.318306">
        <ele>1419.78760</ele>
        <time>2021-06-30T18:59:18Z</time>
      </trkpt>
      <trkpt lat="44.151230" lon="5.318190">
        <ele>1418.89563</ele>
        <time>2021-06-30T18:59:18Z</time>
      </trkpt>
      <trkpt lat="44.151085" lon="5.318051">
        <ele>1419.34692</ele>
        <time>2021-06-30T18:59:19Z</time>
      </trkpt>
      <trkpt lat="44.150928" lon="5.317907">
        <ele>1419.46643</ele>
        <time>2021-06-30T18:59:21Z</time>
      </trkpt>
      <trkpt lat="44.150734" lon="5.317776">
        <ele>1417.09766</ele>
        <time>2021-06-30T18:59:22Z</time>
      </trkpt>
      <trkpt lat="44.150558" lon="5.317675">
        <ele>1416.85571</ele>
        <time>2021-06-30T18:59:23Z</time>
      </trkpt>
      <trkpt lat="44.150391" lon="5.317589">
        <ele>1417.25293</ele>
        <time>2021-06-30T18:59:24Z</time>
      </trkpt>
      <trkpt lat="44.150253" lon="5.317540">
        <ele>1415.94458</ele>
        <time>2021-06-30T18:59:25Z</time>
      </trkpt>
      <trkpt lat="44.150066" lon="5.317463">
        <ele>1414.57080</ele>
        <time>2021-06-30T18:59:25Z</time>
      </trkpt>
      <trkpt lat="44.149891" lon="5.317374">
        <ele>1411.81311</ele>
        <time>2021-06-30T18:59:27Z</time>
      </trkpt>
      <trkpt lat="44.149689" lon="5.317239">
        <ele>1409.94666</ele>
        <time>2021-06-30T18:59:27Z</time>
      </trkpt>
      <trkpt lat="44.149498" lon="5.317102">
        <ele>1408.25586</ele>
        <time>2021-06-30T18:59:28Z</time>
      </trkpt>
      <trkpt lat="44.149284" lon="5.316949">
        <ele>1406.79858</ele>
        <time>2021-06-30T18:59:29Z</time>
      </trkpt>
      <trkpt lat="44.149075" lon="5.316804">
        <ele>1405.30237</ele>
        <time>2021-06-30T18:59:30Z</time>
      </trkpt>
      <trkpt lat="44.148876" lon="5.316681">
        <ele>1403.71167</ele>
        <time>2021-06-30T18:59:32Z</time>
      </trkpt>
      <trkpt lat="44.148651" lon="5.316563">
        <ele>1401.72070</ele>
        <time>2021-06-30T18:59:32Z</time>
      </trkpt>
      <trkpt lat="44.148457" lon="5.316466">
        <ele>1399.03357</ele>
        <time>2021-06-30T18:59:34Z</time>
      </trkpt>
      <trkpt lat="44.148457" lon="5.316466">
        <ele>1396.50891</ele>
        <time>2021-06-30T18:59:35Z</time>
      </trkpt>
      <trkpt lat="44.148266" lon="5.316370">
        <ele>1393.90991</ele>
        <time>2021-06-30T18:59:35Z</time>
      </trkpt>
      <trkpt lat="44.148014" lon="5.316248">
        <ele>1390.90930</ele>
        <time>2021-06-30T18:59:36Z</time>
      </trkpt>
      <trkpt lat="44.147820" lon="5.316156">
        <ele>1389.17053</ele>
        <time>2021-06-30T18:59:38Z</time>
      </trkpt>
      <trkpt lat="44.147648" lon="5.316062">
        <ele>1387.90869</ele>
        <time>2021-06-30T18:59:39Z</time>
      </trkpt>
      <trkpt lat="44.147465" lon="5.315940">
        <ele>1388.95093</ele>
        <time>2021-06-30T18:59:40Z</time>
      </trkpt>
      <trkpt lat="44.147324" lon="5.315787">
        <ele>1387.69324</ele>
        <time>2021-06-30T18:59:41Z</time>
      </trkpt>
      <trkpt lat="44.147224" lon="5.315658">
        <ele>1386.34448</ele>
        <time>2021-06-30T18:59:42Z</time>
      </trkpt>
      <trkpt lat="44.147087" lon="5.315517">
        <ele>1384.70618</ele>
        <time>2021-06-30T18:59:43Z</time>
      </trkpt>
      <trkpt lat="44.146976" lon="5.315429">
        <ele>1380.58044</ele>
        <time>2021-06-30T18:59:44Z</time>
      </trkpt>
      <trkpt lat="44.146820" lon="5.315349">
        <ele>1380.58044</ele>
        <time>2021-06-30T18:59:44Z</time>
      </trkpt>
      <trkpt lat="44.146820" lon="5.315349">
        <ele>1377.83801</ele>
        <time>2021-06-30T18:59:45Z</time>
      </trkpt>
      <trkpt lat="44.146439" lon="5.315241">
        <ele>1376.45825</ele>
        <time>2021-06-30T18:59:47Z</time>
      </trkpt>
      <trkpt lat="44.146439" lon="5.315241">
        <ele>1375.47742</ele>
        <time>2021-06-30T18:59:48Z</time>
      </trkpt>
      <trkpt lat="44.146317" lon="5.315238">
        <ele>1375.84680</ele>
        <time>2021-06-30T18:59:49Z</time>
      </trkpt>
      <trkpt lat="44.146210" lon="5.315267">
        <ele>1374.73157</ele>
        <time>2021-06-30T18:59:50Z</time>
      </trkpt>
      <trkpt lat="44.146084" lon="5.315328">
        <ele>1373.69006</ele>
        <time>2021-06-30T18:59:51Z</time>
      </trkpt>
      <trkpt lat="44.145962" lon="5.315462">
        <ele>1373.70825</ele>
        <time>2021-06-30T18:59:52Z</time>
      </trkpt>
      <trkpt lat="44.145851" lon="5.315650">
        <ele>1372.42346</ele>
        <time>2021-06-30T18:59:52Z</time>
      </trkpt>
      <trkpt lat="44.145733" lon="5.315859">
        <ele>1371.21570</ele>
        <time>2021-06-30T18:59:54Z</time>
      </trkpt>
      <trkpt lat="44.145588" lon="5.316138">
        <ele>1370.02100</ele>
        <time>2021-06-30T18:59:55Z</time>
      </trkpt>
      <trkpt lat="44.145508" lon="5.316286">
        <ele>1369.51221</ele>
        <time>2021-06-30T18:59:56Z</time>
      </trkpt>
      <trkpt lat="44.145462" lon="5.316414">
        <ele>1368.98926</ele>
        <time>2021-06-30T18:59:57Z</time>
      </trkpt>
      <trkpt lat="44.145439" lon="5.316516">
        <ele>1369.06616</ele>
        <time>2021-06-30T18:59:58Z</time>
      </trkpt>
      <trkpt lat="44.145451" lon="5.316652">
        <ele>1369.05811</ele>
        <time>2021-06-30T18:59:59Z</time>
      </trkpt>
      <trkpt lat="44.145489" lon="5.316785">
        <ele>1369.52966</ele>
        <time>2021-06-30T19:00:00Z</time>
      </trkpt>
      <trkpt lat="44.145550" lon="5.316895">
        <ele>1367.74695</ele>
        <time>2021-06-30T19:00:01Z</time>
      </trkpt>
      <trkpt lat="44.145660" lon="5.317111">
        <ele>1364.72961</ele>
        <time>2021-06-30T19:00:02Z</time>
      </trkpt>
      <trkpt lat="44.145779" lon="5.317334">
        <ele>1364.64233</ele>
        <time>2021-06-30T19:00:02Z</time>
      </trkpt>
      <trkpt lat="44.145847" lon="5.317465">
        <ele>1364.15784</ele>
        <time>2021-06-30T19:00:04Z</time>
      </trkpt>
      <trkpt lat="44.145893" lon="5.317560">
        <ele>1363.84778</ele>
        <time>2021-06-30T19:00:05Z</time>
      </trkpt>
      <trkpt lat="44.145893" lon="5.317560">
        <ele>1363.84778</ele>
        <time>2021-06-30T19:00:05Z</time>
      </trkpt>
      <trkpt lat="44.145905" lon="5.317607">
        <ele>1362.67908</ele>
        <time>2021-06-30T19:00:07Z</time>
      </trkpt>
      <trkpt lat="44.145878" lon="5.317680">
        <ele>1362.65088</ele>
        <time>2021-06-30T19:00:07Z</time>
      </trkpt>
      <trkpt lat="44.145805" lon="5.317691">
        <ele>1363.09021</ele>
        <time>2021-06-30T19:00:08Z</time>
      </trkpt>
      <trkpt lat="44.145737" lon="5.317676">
        <ele>1362.29089</ele>
        <time>2021-06-30T19:00:10Z</time>
      </trkpt>
      <trkpt lat="44.145664" lon="5.317662">
        <ele>1361.44238</ele>
        <time>2021-06-30T19:00:11Z</time>
      </trkpt>
      <trkpt lat="44.145481" lon="5.317622">
        <ele>1361.30310</ele>
        <time>2021-06-30T19:00:12Z</time>
      </trkpt>
      <trkpt lat="44.145306" lon="5.317576">
        <ele>1358.93677</ele>
        <time>2021-06-30T19:00:13Z</time>
      </trkpt>
      <trkpt lat="44.145107" lon="5.317524">
        <ele>1353.60986</ele>
        <time>2021-06-30T19:00:14Z</time>
      </trkpt>
      <trkpt lat="44.144901" lon="5.317470">
        <ele>1351.87207</ele>
        <time>2021-06-30T19:00:15Z</time>
      </trkpt>
      <trkpt lat="44.144741" lon="5.317433">
        <ele>1350.42078</ele>
        <time>2021-06-30T19:00:16Z</time>
      </trkpt>
      <trkpt lat="44.144547" lon="5.317414">
        <ele>1347.12000</ele>
        <time>2021-06-30T19:00:17Z</time>
      </trkpt>
      <trkpt lat="44.144329" lon="5.317428">
        <ele>1345.22656</ele>
        <time>2021-06-30T19:00:18Z</time>
      </trkpt>
      <trkpt lat="44.144150" lon="5.317455">
        <ele>1342.74585</ele>
        <time>2021-06-30T19:00:19Z</time>
      </trkpt>
      <trkpt lat="44.144047" lon="5.317489">
        <ele>1340.81702</ele>
        <time>2021-06-30T19:00:19Z</time>
      </trkpt>
      <trkpt lat="44.143917" lon="5.317565">
        <ele>1340.32935</ele>
        <time>2021-06-30T19:00:21Z</time>
      </trkpt>
      <trkpt lat="44.143757" lon="5.317712">
        <ele>1337.42334</ele>
        <time>2021-06-30T19:00:22Z</time>
      </trkpt>
      <trkpt lat="44.143551" lon="5.317888">
        <ele>1335.64136</ele>
        <time>2021-06-30T19:00:23Z</time>
      </trkpt>
      <trkpt lat="44.143368" lon="5.318043">
        <ele>1333.32886</ele>
        <time>2021-06-30T19:00:24Z</time>
      </trkpt>
      <trkpt lat="44.143368" lon="5.318043">
        <ele>1332.37549</ele>
        <time>2021-06-30T19:00:25Z</time>
      </trkpt>
      <trkpt lat="44.143200" lon="5.318195">
        <ele>1331.19739</ele>
        <time>2021-06-30T19:00:26Z</time>
      </trkpt>
      <trkpt lat="44.143059" lon="5.318365">
        <ele>1330.02954</ele>
        <time>2021-06-30T19:00:27Z</time>
      </trkpt>
      <trkpt lat="44.142921" lon="5.318469">
        <ele>1328.95386</ele>
        <time>2021-06-30T19:00:28Z</time>
      </trkpt>
      <trkpt lat="44.142799" lon="5.318546">
        <ele>1326.59119</ele>
        <time>2021-06-30T19:00:29Z</time>
      </trkpt>
      <trkpt lat="44.142654" lon="5.318564">
        <ele>1323.83716</ele>
        <time>2021-06-30T19:00:30Z</time>
      </trkpt>
      <trkpt lat="44.142483" lon="5.318512">
        <ele>1323.10474</ele>
        <time>2021-06-30T19:00:31Z</time>
      </trkpt>
      <trkpt lat="44.142368" lon="5.318471">
        <ele>1321.74011</ele>
        <time>2021-06-30T19:00:32Z</time>
      </trkpt>
      <trkpt lat="44.142250" lon="5.318444">
        <ele>1320.96118</ele>
        <time>2021-06-30T19:00:33Z</time>
      </trkpt>
      <trkpt lat="44.142113" lon="5.318442">
        <ele>1318.74597</ele>
        <time>2021-06-30T19:00:34Z</time>
      </trkpt>
      <trkpt lat="44.141907" lon="5.318470">
        <ele>1318.13000</ele>
        <time>2021-06-30T19:00:35Z</time>
      </trkpt>
      <trkpt lat="44.141804" lon="5.318480">
        <ele>1317.64075</ele>
        <time>2021-06-30T19:00:36Z</time>
      </trkpt>
      <trkpt lat="44.141682" lon="5.318455">
        <ele>1315.90027</ele>
        <time>2021-06-30T19:00:37Z</time>
      </trkpt>
      <trkpt lat="44.141529" lon="5.318390">
        <ele>1314.98547</ele>
        <time>2021-06-30T19:00:38Z</time>
      </trkpt>
      <trkpt lat="44.141529" lon="5.318390">
        <ele>1313.61829</ele>
        <time>2021-06-30T19:00:39Z</time>
      </trkpt>
      <trkpt lat="44.141361" lon="5.318249">
        <ele>1311.28906</ele>
        <time>2021-06-30T19:00:40Z</time>
      </trkpt>
      <trkpt lat="44.141186" lon="5.318053">
        <ele>1310.24316</ele>
        <time>2021-06-30T19:00:41Z</time>
      </trkpt>
      <trkpt lat="44.141037" lon="5.317878">
        <ele>1308.85437</ele>
        <time>2021-06-30T19:00:42Z</time>
      </trkpt>
      <trkpt lat="44.140900" lon="5.317694">
        <ele>1308.37329</ele>
        <time>2021-06-30T19:00:43Z</time>
      </trkpt>
      <trkpt lat="44.140766" lon="5.317488">
        <ele>1305.80725</ele>
        <time>2021-06-30T19:00:44Z</time>
      </trkpt>
      <trkpt lat="44.140602" lon="5.317231">
        <ele>1304.95374</ele>
        <time>2021-06-30T19:00:45Z</time>
      </trkpt>
      <trkpt lat="44.140446" lon="5.316978">
        <ele>1303.44226</ele>
        <time>2021-06-30T19:00:45Z</time>
      </trkpt>
      <trkpt lat="44.140305" lon="5.316777">
        <ele>1301.73169</ele>
        <time>2021-06-30T19:00:47Z</time>
      </trkpt>
      <trkpt lat="44.140141" lon="5.316548">
        <ele>1298.74768</ele>
        <time>2021-06-30T19:00:47Z</time>
      </trkpt>
      <trkpt lat="44.139973" lon="5.316312">
        <ele>1298.08630</ele>
        <time>2021-06-30T19:00:49Z</time>
      </trkpt>
      <trkpt lat="44.139793" lon="5.316062">
        <ele>1295.60767</ele>
        <time>2021-06-30T19:00:50Z</time>
      </trkpt>
      <trkpt lat="44.139576" lon="5.315750">
        <ele>1293.24268</ele>
        <time>2021-06-30T19:00:51Z</time>
      </trkpt>
      <trkpt lat="44.139412" lon="5.315481">
        <ele>1291.93933</ele>
        <time>2021-06-30T19:00:51Z</time>
      </trkpt>
      <trkpt lat="44.139252" lon="5.315226">
        <ele>1288.77478</ele>
        <time>2021-06-30T19:00:53Z</time>
      </trkpt>
      <trkpt lat="44.139252" lon="5.315226">
        <ele>1285.06555</ele>
        <time>2021-06-30T19:00:54Z</time>
      </trkpt>
      <trkpt lat="44.139091" lon="5.314979">
        <ele>1283.10229</ele>
        <time>2021-06-30T19:00:55Z</time>
      </trkpt>
      <trkpt lat="44.138966" lon="5.314775">
        <ele>1281.96069</ele>
        <time>2021-06-30T19:00:56Z</time>
      </trkpt>
      <trkpt lat="44.138851" lon="5.314575">
        <ele>1281.33350</ele>
        <time>2021-06-30T19:00:57Z</time>
      </trkpt>
      <trkpt lat="44.138737" lon="5.314312">
        <ele>1278.35938</ele>
        <time>2021-06-30T19:00:58Z</time>
      </trkpt>
      <trkpt lat="44.138622" lon="5.314034">
        <ele>1276.70703</ele>
        <time>2021-06-30T19:00:59Z</time>
      </trkpt>
      <trkpt lat="44.138542" lon="5.313766">
        <ele>1275.41638</ele>
        <time>2021-06-30T19:01:00Z</time>
      </trkpt>
      <trkpt lat="44.138485" lon="5.313499">
        <ele>1275.12671</ele>
        <time>2021-06-30T19:01:00Z</time>
      </trkpt>
      <trkpt lat="44.138443" lon="5.313227">
        <ele>1273.77563</ele>
        <time>2021-06-30T19:01:02Z</time>
      </trkpt>
      <trkpt lat="44.138412" lon="5.312972">
        <ele>1271.51367</ele>
        <time>2021-06-30T19:01:03Z</time>
      </trkpt>
      <trkpt lat="44.138393" lon="5.312792">
        <ele>1270.79993</ele>
        <time>2021-06-30T19:01:04Z</time>
      </trkpt>
      <trkpt lat="44.138336" lon="5.312516">
        <ele>1269.95776</ele>
        <time>2021-06-30T19:01:05Z</time>
      </trkpt>
      <trkpt lat="44.138275" lon="5.312245">
        <ele>1269.54089</ele>
        <time>2021-06-30T19:01:05Z</time>
      </trkpt>
      <trkpt lat="44.138210" lon="5.311980">
        <ele>1266.10242</ele>
        <time>2021-06-30T19:01:07Z</time>
      </trkpt>
      <trkpt lat="44.138210" lon="5.311980">
        <ele>1264.58777</ele>
        <time>2021-06-30T19:01:08Z</time>
      </trkpt>
      <trkpt lat="44.138165" lon="5.311747">
        <ele>1261.92334</ele>
        <time>2021-06-30T19:01:08Z</time>
      </trkpt>
      <trkpt lat="44.138168" lon="5.311512">
        <ele>1260.43066</ele>
        <time>2021-06-30T19:01:09Z</time>
      </trkpt>
      <trkpt lat="44.138180" lon="5.311377">
        <ele>1260.87170</ele>
        <time>2021-06-30T19:01:11Z</time>
      </trkpt>
      <trkpt lat="44.138180" lon="5.311203">
        <ele>1260.66797</ele>
        <time>2021-06-30T19:01:11Z</time>
      </trkpt>
      <trkpt lat="44.138161" lon="5.311031">
        <ele>1255.46521</ele>
        <time>2021-06-30T19:01:12Z</time>
      </trkpt>
      <trkpt lat="44.138103" lon="5.310788">
        <ele>1251.82874</ele>
        <time>2021-06-30T19:01:14Z</time>
      </trkpt>
      <trkpt lat="44.137966" lon="5.310359">
        <ele>1249.93237</ele>
        <time>2021-06-30T19:01:15Z</time>
      </trkpt>
      <trkpt lat="44.137886" lon="5.310139">
        <ele>1249.25720</ele>
        <time>2021-06-30T19:01:16Z</time>
      </trkpt>
      <trkpt lat="44.137791" lon="5.309910">
        <ele>1246.39270</ele>
        <time>2021-06-30T19:01:16Z</time>
      </trkpt>
      <trkpt lat="44.137695" lon="5.309680">
        <ele>1243.86694</ele>
        <time>2021-06-30T19:01:17Z</time>
      </trkpt>
      <trkpt lat="44.137600" lon="5.309479">
        <ele>1242.47571</ele>
        <time>2021-06-30T19:01:19Z</time>
      </trkpt>
      <trkpt lat="44.137470" lon="5.309245">
        <ele>1242.09229</ele>
        <time>2021-06-30T19:01:19Z</time>
      </trkpt>
      <trkpt lat="44.137325" lon="5.309027">
        <ele>1240.91992</ele>
        <time>2021-06-30T19:01:21Z</time>
      </trkpt>
      <trkpt lat="44.137180" lon="5.308824">
        <ele>1237.62061</ele>
        <time>2021-06-30T19:01:22Z</time>
      </trkpt>
      <trkpt lat="44.137180" lon="5.308824">
        <ele>1236.95093</ele>
        <time>2021-06-30T19:01:23Z</time>
      </trkpt>
      <trkpt lat="44.137020" lon="5.308611">
        <ele>1233.19727</ele>
        <time>2021-06-30T19:01:24Z</time>
      </trkpt>
      <trkpt lat="44.136864" lon="5.308415">
        <ele>1231.59216</ele>
        <time>2021-06-30T19:01:25Z</time>
      </trkpt>
      <trkpt lat="44.136703" lon="5.308209">
        <ele>1229.20898</ele>
        <time>2021-06-30T19:01:26Z</time>
      </trkpt>
      <trkpt lat="44.136532" lon="5.307994">
        <ele>1226.93762</ele>
        <time>2021-06-30T19:01:27Z</time>
      </trkpt>
      <trkpt lat="44.136333" lon="5.307732">
        <ele>1226.21716</ele>
        <time>2021-06-30T19:01:27Z</time>
      </trkpt>
      <trkpt lat="44.136181" lon="5.307507">
        <ele>1223.96399</ele>
        <time>2021-06-30T19:01:29Z</time>
      </trkpt>
      <trkpt lat="44.136005" lon="5.307253">
        <ele>1219.48499</ele>
        <time>2021-06-30T19:01:30Z</time>
      </trkpt>
      <trkpt lat="44.135853" lon="5.307031">
        <ele>1219.48499</ele>
        <time>2021-06-30T19:01:31Z</time>
      </trkpt>
      <trkpt lat="44.135719" lon="5.306782">
        <ele>1207.53455</ele>
        <time>2021-06-30T19:01:32Z</time>
      </trkpt>
      <trkpt lat="44.135609" lon="5.306564">
        <ele>1204.77173</ele>
        <time>2021-06-30T19:01:33Z</time>
      </trkpt>
      <trkpt lat="44.135609" lon="5.306564">
        <ele>1204.52905</ele>
        <time>2021-06-30T19:01:34Z</time>
      </trkpt>
      <trkpt lat="44.135548" lon="5.306396">
        <ele>1201.09778</ele>
        <time>2021-06-30T19:01:35Z</time>
      </trkpt>
      <trkpt lat="44.135468" lon="5.306147">
        <ele>1200.18311</ele>
        <time>2021-06-30T19:01:36Z</time>
      </trkpt>
      <trkpt lat="44.135433" lon="5.305848">
        <ele>1199.84021</ele>
        <time>2021-06-30T19:01:37Z</time>
      </trkpt>
      <trkpt lat="44.135445" lon="5.305483">
        <ele>1197.01965</ele>
        <time>2021-06-30T19:01:38Z</time>
      </trkpt>
      <trkpt lat="44.135487" lon="5.305197">
        <ele>1195.77869</ele>
        <time>2021-06-30T19:01:39Z</time>
      </trkpt>
      <trkpt lat="44.135529" lon="5.304929">
        <ele>1195.01331</ele>
        <time>2021-06-30T19:01:40Z</time>
      </trkpt>
      <trkpt lat="44.135597" lon="5.304457">
        <ele>1189.04944</ele>
        <time>2021-06-30T19:01:41Z</time>
      </trkpt>
      <trkpt lat="44.135635" lon="5.304202">
        <ele>1187.00696</ele>
        <time>2021-06-30T19:01:42Z</time>
      </trkpt>
      <trkpt lat="44.135681" lon="5.303922">
        <ele>1183.48657</ele>
        <time>2021-06-30T19:01:43Z</time>
      </trkpt>
      <trkpt lat="44.135723" lon="5.303671">
        <ele>1181.02246</ele>
        <time>2021-06-30T19:01:44Z</time>
      </trkpt>
      <trkpt lat="44.135742" lon="5.303567">
        <ele>1179.55347</ele>
        <time>2021-06-30T19:01:45Z</time>
      </trkpt>
      <trkpt lat="44.135777" lon="5.303349">
        <ele>1179.12085</ele>
        <time>2021-06-30T19:01:46Z</time>
      </trkpt>
      <trkpt lat="44.135799" lon="5.303151">
        <ele>1178.35535</ele>
        <time>2021-06-30T19:01:47Z</time>
      </trkpt>
      <trkpt lat="44.135799" lon="5.303151">
        <ele>1178.35107</ele>
        <time>2021-06-30T19:01:48Z</time>
      </trkpt>
      <trkpt lat="44.135815" lon="5.302943">
        <ele>1177.40674</ele>
        <time>2021-06-30T19:01:49Z</time>
      </trkpt>
      <trkpt lat="44.135799" lon="5.302764">
        <ele>1177.55566</ele>
        <time>2021-06-30T19:01:50Z</time>
      </trkpt>
      <trkpt lat="44.135746" lon="5.302561">
        <ele>1177.57166</ele>
        <time>2021-06-30T19:01:51Z</time>
      </trkpt>
      <trkpt lat="44.135651" lon="5.302346">
        <ele>1173.01624</ele>
        <time>2021-06-30T19:01:52Z</time>
      </trkpt>
      <trkpt lat="44.135536" lon="5.302150">
        <ele>1170.63171</ele>
        <time>2021-06-30T19:01:52Z</time>
      </trkpt>
      <trkpt lat="44.135342" lon="5.301821">
        <ele>1167.18677</ele>
        <time>2021-06-30T19:01:54Z</time>
      </trkpt>
      <trkpt lat="44.135193" lon="5.301551">
        <ele>1166.16235</ele>
        <time>2021-06-30T19:01:55Z</time>
      </trkpt>
      <trkpt lat="44.135063" lon="5.301313">
        <ele>1164.70898</ele>
        <time>2021-06-30T19:01:56Z</time>
      </trkpt>
      <trkpt lat="44.134975" lon="5.301108">
        <ele>1163.09656</ele>
        <time>2021-06-30T19:01:57Z</time>
      </trkpt>
      <trkpt lat="44.134872" lon="5.300850">
        <ele>1162.55920</ele>
        <time>2021-06-30T19:01:58Z</time>
      </trkpt>
      <trkpt lat="44.134811" lon="5.300681">
        <ele>1162.51245</ele>
        <time>2021-06-30T19:01:59Z</time>
      </trkpt>
      <trkpt lat="44.134739" lon="5.300396">
        <ele>1162.36902</ele>
        <time>2021-06-30T19:02:00Z</time>
      </trkpt>
      <trkpt lat="44.134678" lon="5.300040">
        <ele>1158.76172</ele>
        <time>2021-06-30T19:02:01Z</time>
      </trkpt>
      <trkpt lat="44.134655" lon="5.299766">
        <ele>1158.76172</ele>
        <time>2021-06-30T19:02:01Z</time>
      </trkpt>
      <trkpt lat="44.134632" lon="5.299334">
        <ele>1158.37170</ele>
        <time>2021-06-30T19:02:03Z</time>
      </trkpt>
      <trkpt lat="44.134632" lon="5.299334">
        <ele>1156.44128</ele>
        <time>2021-06-30T19:02:04Z</time>
      </trkpt>
      <trkpt lat="44.134617" lon="5.299064">
        <ele>1153.99512</ele>
        <time>2021-06-30T19:02:05Z</time>
      </trkpt>
      <trkpt lat="44.134598" lon="5.298753">
        <ele>1152.61975</ele>
        <time>2021-06-30T19:02:06Z</time>
      </trkpt>
      <trkpt lat="44.134579" lon="5.298423">
        <ele>1150.11987</ele>
        <time>2021-06-30T19:02:07Z</time>
      </trkpt>
      <trkpt lat="44.134544" lon="5.298090">
        <ele>1149.66467</ele>
        <time>2021-06-30T19:02:08Z</time>
      </trkpt>
      <trkpt lat="44.134499" lon="5.297824">
        <ele>1146.56177</ele>
        <time>2021-06-30T19:02:09Z</time>
      </trkpt>
      <trkpt lat="44.134434" lon="5.297540">
        <ele>1145.51904</ele>
        <time>2021-06-30T19:02:09Z</time>
      </trkpt>
      <trkpt lat="44.134335" lon="5.297251">
        <ele>1143.40027</ele>
        <time>2021-06-30T19:02:11Z</time>
      </trkpt>
      <trkpt lat="44.134220" lon="5.296980">
        <ele>1143.16077</ele>
        <time>2021-06-30T19:02:12Z</time>
      </trkpt>
      <trkpt lat="44.134094" lon="5.296680">
        <ele>1140.38770</ele>
        <time>2021-06-30T19:02:13Z</time>
      </trkpt>
      <trkpt lat="44.133976" lon="5.296448">
        <ele>1139.10071</ele>
        <time>2021-06-30T19:02:14Z</time>
      </trkpt>
      <trkpt lat="44.133781" lon="5.296097">
        <ele>1140.51575</ele>
        <time>2021-06-30T19:02:14Z</time>
      </trkpt>
      <trkpt lat="44.133629" lon="5.295813">
        <ele>1138.74646</ele>
        <time>2021-06-30T19:02:16Z</time>
      </trkpt>
      <trkpt lat="44.133469" lon="5.295529">
        <ele>1138.63123</ele>
        <time>2021-06-30T19:02:17Z</time>
      </trkpt>
      <trkpt lat="44.133327" lon="5.295272">
        <ele>1134.62732</ele>
        <time>2021-06-30T19:02:17Z</time>
      </trkpt>
      <trkpt lat="44.133327" lon="5.295272">
        <ele>1132.61523</ele>
        <time>2021-06-30T19:02:18Z</time>
      </trkpt>
      <trkpt lat="44.133186" lon="5.295011">
        <ele>1127.63354</ele>
        <time>2021-06-30T19:02:19Z</time>
      </trkpt>
      <trkpt lat="44.133068" lon="5.294795">
        <ele>1125.54565</ele>
        <time>2021-06-30T19:02:21Z</time>
      </trkpt>
      <trkpt lat="44.132912" lon="5.294518">
        <ele>1119.90662</ele>
        <time>2021-06-30T19:02:22Z</time>
      </trkpt>
      <trkpt lat="44.132778" lon="5.294281">
        <ele>1119.90662</ele>
        <time>2021-06-30T19:02:23Z</time>
      </trkpt>
      <trkpt lat="44.132629" lon="5.294018">
        <ele>1119.11975</ele>
        <time>2021-06-30T19:02:24Z</time>
      </trkpt>
      <trkpt lat="44.132481" lon="5.293752">
        <ele>1114.26758</ele>
        <time>2021-06-30T19:02:25Z</time>
      </trkpt>
      <trkpt lat="44.132339" lon="5.293473">
        <ele>1111.87903</ele>
        <time>2021-06-30T19:02:26Z</time>
      </trkpt>
      <trkpt lat="44.132217" lon="5.293223">
        <ele>1110.32532</ele>
        <time>2021-06-30T19:02:26Z</time>
      </trkpt>
      <trkpt lat="44.132092" lon="5.292924">
        <ele>1108.48755</ele>
        <time>2021-06-30T19:02:27Z</time>
      </trkpt>
      <trkpt lat="44.131989" lon="5.292635">
        <ele>1107.69592</ele>
        <time>2021-06-30T19:02:29Z</time>
      </trkpt>
      <trkpt lat="44.131874" lon="5.292318">
        <ele>1103.28516</ele>
        <time>2021-06-30T19:02:30Z</time>
      </trkpt>
      <trkpt lat="44.131760" lon="5.291997">
        <ele>1098.74719</ele>
        <time>2021-06-30T19:02:31Z</time>
      </trkpt>
      <trkpt lat="44.131672" lon="5.291709">
        <ele>1098.25134</ele>
        <time>2021-06-30T19:02:32Z</time>
      </trkpt>
      <trkpt lat="44.131577" lon="5.291422">
        <ele>1094.48792</ele>
        <time>2021-06-30T19:02:33Z</time>
      </trkpt>
      <trkpt lat="44.131477" lon="5.291173">
        <ele>1091.70959</ele>
        <time>2021-06-30T19:02:34Z</time>
      </trkpt>
      <trkpt lat="44.131397" lon="5.291043">
        <ele>1089.04285</ele>
        <time>2021-06-30T19:02:35Z</time>
      </trkpt>
      <trkpt lat="44.131199" lon="5.290798">
        <ele>1087.62268</ele>
        <time>2021-06-30T19:02:35Z</time>
      </trkpt>
      <trkpt lat="44.131199" lon="5.290798">
        <ele>1086.23584</ele>
        <time>2021-06-30T19:02:37Z</time>
      </trkpt>
      <trkpt lat="44.131016" lon="5.290549">
        <ele>1083.24500</ele>
        <time>2021-06-30T19:02:37Z</time>
      </trkpt>
      <trkpt lat="44.130901" lon="5.290268">
        <ele>1080.60266</ele>
        <time>2021-06-30T19:02:38Z</time>
      </trkpt>
      <trkpt lat="44.130829" lon="5.290023">
        <ele>1073.79749</ele>
        <time>2021-06-30T19:02:40Z</time>
      </trkpt>
      <trkpt lat="44.130741" lon="5.289687">
        <ele>1071.94604</ele>
        <time>2021-06-30T19:02:41Z</time>
      </trkpt>
      <trkpt lat="44.130665" lon="5.289392">
        <ele>1061.99634</ele>
        <time>2021-06-30T19:02:42Z</time>
      </trkpt>
      <trkpt lat="44.130592" lon="5.289167">
        <ele>1059.26965</ele>
        <time>2021-06-30T19:02:43Z</time>
      </trkpt>
      <trkpt lat="44.130512" lon="5.289024">
        <ele>1056.64124</ele>
        <time>2021-06-30T19:02:44Z</time>
      </trkpt>
      <trkpt lat="44.130470" lon="5.288962">
        <ele>1055.94482</ele>
        <time>2021-06-30T19:02:45Z</time>
      </trkpt>
      <trkpt lat="44.130341" lon="5.288836">
        <ele>1057.37280</ele>
        <time>2021-06-30T19:02:45Z</time>
      </trkpt>
      <trkpt lat="44.130180" lon="5.288702">
        <ele>1055.72412</ele>
        <time>2021-06-30T19:02:46Z</time>
      </trkpt>
      <trkpt lat="44.129921" lon="5.288469">
        <ele>1051.73010</ele>
        <time>2021-06-30T19:02:48Z</time>
      </trkpt>
      <trkpt lat="44.129787" lon="5.288337">
        <ele>1049.77014</ele>
        <time>2021-06-30T19:02:49Z</time>
      </trkpt>
      <trkpt lat="44.129684" lon="5.288208">
        <ele>1045.35352</ele>
        <time>2021-06-30T19:02:49Z</time>
      </trkpt>
      <trkpt lat="44.129623" lon="5.288102">
        <ele>1043.84827</ele>
        <time>2021-06-30T19:02:50Z</time>
      </trkpt>
      <trkpt lat="44.129623" lon="5.288102">
        <ele>1040.86633</ele>
        <time>2021-06-30T19:02:52Z</time>
      </trkpt>
      <trkpt lat="44.129578" lon="5.288006">
        <ele>1040.86633</ele>
        <time>2021-06-30T19:02:53Z</time>
      </trkpt>
      <trkpt lat="44.129551" lon="5.287841">
        <ele>1039.60510</ele>
        <time>2021-06-30T19:02:54Z</time>
      </trkpt>
      <trkpt lat="44.129539" lon="5.287696">
        <ele>1039.60510</ele>
        <time>2021-06-30T19:02:55Z</time>
      </trkpt>
      <trkpt lat="44.129536" lon="5.287537">
        <ele>1037.98730</ele>
        <time>2021-06-30T19:02:56Z</time>
      </trkpt>
      <trkpt lat="44.129528" lon="5.287264">
        <ele>1037.36792</ele>
        <time>2021-06-30T19:02:57Z</time>
      </trkpt>
      <trkpt lat="44.129501" lon="5.287049">
        <ele>1030.97412</ele>
        <time>2021-06-30T19:02:58Z</time>
      </trkpt>
      <trkpt lat="44.129372" lon="5.286783">
        <ele>1028.08655</ele>
        <time>2021-06-30T19:02:58Z</time>
      </trkpt>
      <trkpt lat="44.129185" lon="5.286523">
        <ele>1031.03552</ele>
        <time>2021-06-30T19:02:59Z</time>
      </trkpt>
      <trkpt lat="44.129051" lon="5.286335">
        <ele>1028.11816</ele>
        <time>2021-06-30T19:03:01Z</time>
      </trkpt>
      <trkpt lat="44.128998" lon="5.286254">
        <ele>1026.11401</ele>
        <time>2021-06-30T19:03:02Z</time>
      </trkpt>
      <trkpt lat="44.128998" lon="5.286254">
        <ele>1025.52124</ele>
        <time>2021-06-30T19:03:02Z</time>
      </trkpt>
      <trkpt lat="44.128910" lon="5.286059">
        <ele>1024.19861</ele>
        <time>2021-06-30T19:03:03Z</time>
      </trkpt>
      <trkpt lat="44.128849" lon="5.285814">
        <ele>1021.97522</ele>
        <time>2021-06-30T19:03:05Z</time>
      </trkpt>
      <trkpt lat="44.128834" lon="5.285568">
        <ele>1020.24835</ele>
        <time>2021-06-30T19:03:06Z</time>
      </trkpt>
      <trkpt lat="44.128819" lon="5.285308">
        <ele>1018.66504</ele>
        <time>2021-06-30T19:03:07Z</time>
      </trkpt>
      <trkpt lat="44.128780" lon="5.285088">
        <ele>1016.28082</ele>
        <time>2021-06-30T19:03:07Z</time>
      </trkpt>
      <trkpt lat="44.128700" lon="5.284844">
        <ele>1014.36090</ele>
        <time>2021-06-30T19:03:08Z</time>
      </trkpt>
      <trkpt lat="44.128563" lon="5.284608">
        <ele>1008.00586</ele>
        <time>2021-06-30T19:03:10Z</time>
      </trkpt>
      <trkpt lat="44.128479" lon="5.284464">
        <ele>1009.06854</ele>
        <time>2021-06-30T19:03:11Z</time>
      </trkpt>
      <trkpt lat="44.128429" lon="5.284362">
        <ele>1007.87421</ele>
        <time>2021-06-30T19:03:12Z</time>
      </trkpt>
      <trkpt lat="44.128414" lon="5.284230">
        <ele>1006.99933</ele>
        <time>2021-06-30T19:03:12Z</time>
      </trkpt>
      <trkpt lat="44.128448" lon="5.284114">
        <ele>1005.56238</ele>
        <time>2021-06-30T19:03:14Z</time>
      </trkpt>
      <trkpt lat="44.128448" lon="5.284114">
        <ele>1004.48224</ele>
        <time>2021-06-30T19:03:15Z</time>
      </trkpt>
      <trkpt lat="44.128529" lon="5.284016">
        <ele>1003.71429</ele>
        <time>2021-06-30T19:03:16Z</time>
      </trkpt>
      <trkpt lat="44.128639" lon="5.283894">
        <ele>1003.71429</ele>
        <time>2021-06-30T19:03:16Z</time>
      </trkpt>
      <trkpt lat="44.128662" lon="5.283866">
        <ele>1003.12732</ele>
        <time>2021-06-30T19:03:18Z</time>
      </trkpt>
      <trkpt lat="44.128674" lon="5.283724">
        <ele>1002.58636</ele>
        <time>2021-06-30T19:03:18Z</time>
      </trkpt>
      <trkpt lat="44.128643" lon="5.283702">
        <ele>1001.37463</ele>
        <time>2021-06-30T19:03:19Z</time>
      </trkpt>
      <trkpt lat="44.128639" lon="5.283701">
        <ele>1000.92572</ele>
        <time>2021-06-30T19:03:20Z</time>
      </trkpt>
      <trkpt lat="44.128609" lon="5.283698">
        <ele>1000.42267</ele>
        <time>2021-06-30T19:03:21Z</time>
      </trkpt>
      <trkpt lat="44.128517" lon="5.283692">
        <ele>1000.00647</ele>
        <time>2021-06-30T19:03:23Z</time>
      </trkpt>
      <trkpt lat="44.128345" lon="5.283683">
        <ele>999.27393</ele>
        <time>2021-06-30T19:03:24Z</time>
      </trkpt>
      <trkpt lat="44.128345" lon="5.283683">
        <ele>998.32990</ele>
        <time>2021-06-30T19:03:25Z</time>
      </trkpt>
      <trkpt lat="44.128155" lon="5.283672">
        <ele>995.77466</ele>
        <time>2021-06-30T19:03:26Z</time>
      </trkpt>
      <trkpt lat="44.128010" lon="5.283674">
        <ele>994.71198</ele>
        <time>2021-06-30T19:03:27Z</time>
      </trkpt>
      <trkpt lat="44.127838" lon="5.283681">
        <ele>993.02777</ele>
        <time>2021-06-30T19:03:28Z</time>
      </trkpt>
      <trkpt lat="44.127651" lon="5.283689">
        <ele>990.75854</ele>
        <time>2021-06-30T19:03:28Z</time>
      </trkpt>
      <trkpt lat="44.127495" lon="5.283700">
        <ele>984.73645</ele>
        <time>2021-06-30T19:03:30Z</time>
      </trkpt>
      <trkpt lat="44.127342" lon="5.283711">
        <ele>988.26385</ele>
        <time>2021-06-30T19:03:31Z</time>
      </trkpt>
      <trkpt lat="44.127193" lon="5.283712">
        <ele>985.90491</ele>
        <time>2021-06-30T19:03:31Z</time>
      </trkpt>
      <trkpt lat="44.127056" lon="5.283658">
        <ele>983.94495</ele>
        <time>2021-06-30T19:03:33Z</time>
      </trkpt>
      <trkpt lat="44.126957" lon="5.283555">
        <ele>982.49835</ele>
        <time>2021-06-30T19:03:34Z</time>
      </trkpt>
      <trkpt lat="44.126900" lon="5.283472">
        <ele>980.03522</ele>
        <time>2021-06-30T19:03:35Z</time>
      </trkpt>
      <trkpt lat="44.126873" lon="5.283230">
        <ele>979.32562</ele>
        <time>2021-06-30T19:03:35Z</time>
      </trkpt>
      <trkpt lat="44.126881" lon="5.283018">
        <ele>978.26526</ele>
        <time>2021-06-30T19:03:37Z</time>
      </trkpt>
      <trkpt lat="44.126881" lon="5.283018">
        <ele>976.63354</ele>
        <time>2021-06-30T19:03:38Z</time>
      </trkpt>
      <trkpt lat="44.126911" lon="5.282748">
        <ele>975.53741</ele>
        <time>2021-06-30T19:03:38Z</time>
      </trkpt>
      <trkpt lat="44.126945" lon="5.282469">
        <ele>974.33905</ele>
        <time>2021-06-30T19:03:40Z</time>
      </trkpt>
      <trkpt lat="44.126984" lon="5.282191">
        <ele>971.69916</ele>
        <time>2021-06-30T19:03:41Z</time>
      </trkpt>
      <trkpt lat="44.126999" lon="5.281964">
        <ele>970.58276</ele>
        <time>2021-06-30T19:03:42Z</time>
      </trkpt>
      <trkpt lat="44.126976" lon="5.281730">
        <ele>965.19897</ele>
        <time>2021-06-30T19:03:43Z</time>
      </trkpt>
      <trkpt lat="44.126900" lon="5.281480">
        <ele>963.75879</ele>
        <time>2021-06-30T19:03:44Z</time>
      </trkpt>
      <trkpt lat="44.126789" lon="5.281197">
        <ele>963.75879</ele>
        <time>2021-06-30T19:03:45Z</time>
      </trkpt>
      <trkpt lat="44.126694" lon="5.280954">
        <ele>960.08984</ele>
        <time>2021-06-30T19:03:46Z</time>
      </trkpt>
      <trkpt lat="44.126579" lon="5.280669">
        <ele>960.08984</ele>
        <time>2021-06-30T19:03:46Z</time>
      </trkpt>
      <trkpt lat="44.126511" lon="5.280405">
        <ele>957.99817</ele>
        <time>2021-06-30T19:03:48Z</time>
      </trkpt>
      <trkpt lat="44.126511" lon="5.280405">
        <ele>957.99817</ele>
        <time>2021-06-30T19:03:48Z</time>
      </trkpt>
      <trkpt lat="44.126476" lon="5.280142">
        <ele>955.15625</ele>
        <time>2021-06-30T19:03:50Z</time>
      </trkpt>
      <trkpt lat="44.126499" lon="5.279432">
        <ele>952.20300</ele>
        <time>2021-06-30T19:03:51Z</time>
      </trkpt>
      <trkpt lat="44.126499" lon="5.279432">
        <ele>952.20300</ele>
        <time>2021-06-30T19:03:51Z</time>
      </trkpt>
      <trkpt lat="44.126488" lon="5.279081">
        <ele>950.03943</ele>
        <time>2021-06-30T19:03:52Z</time>
      </trkpt>
      <trkpt lat="44.126476" lon="5.278847">
        <ele>947.67200</ele>
        <time>2021-06-30T19:03:54Z</time>
      </trkpt>
      <trkpt lat="44.126469" lon="5.278726">
        <ele>947.67200</ele>
        <time>2021-06-30T19:03:54Z</time>
      </trkpt>
      <trkpt lat="44.126442" lon="5.278544">
        <ele>945.92175</ele>
        <time>2021-06-30T19:03:56Z</time>
      </trkpt>
      <trkpt lat="44.126293" lon="5.278383">
        <ele>944.68256</ele>
        <time>2021-06-30T19:03:56Z</time>
      </trkpt>
      <trkpt lat="44.126167" lon="5.278320">
        <ele>941.57538</ele>
        <time>2021-06-30T19:03:58Z</time>
      </trkpt>
      <trkpt lat="44.126072" lon="5.278159">
        <ele>941.57538</ele>
        <time>2021-06-30T19:03:59Z</time>
      </trkpt>
      <trkpt lat="44.126030" lon="5.277921">
        <ele>941.34576</ele>
        <time>2021-06-30T19:04:00Z</time>
      </trkpt>
      <trkpt lat="44.125961" lon="5.277580">
        <ele>936.88501</ele>
        <time>2021-06-30T19:04:01Z</time>
      </trkpt>
      <trkpt lat="44.125900" lon="5.277291">
        <ele>936.88501</ele>
        <time>2021-06-30T19:04:01Z</time>
      </trkpt>
      <trkpt lat="44.125900" lon="5.277291">
        <ele>934.92847</ele>
        <time>2021-06-30T19:04:02Z</time>
      </trkpt>
      <trkpt lat="44.125767" lon="5.276645">
        <ele>930.72668</ele>
        <time>2021-06-30T19:04:04Z</time>
      </trkpt>
      <trkpt lat="44.125767" lon="5.276645">
        <ele>930.72668</ele>
        <time>2021-06-30T19:04:04Z</time>
      </trkpt>
      <trkpt lat="44.125736" lon="5.276494">
        <ele>929.39856</ele>
        <time>2021-06-30T19:04:05Z</time>
      </trkpt>
      <trkpt lat="44.125702" lon="5.276285">
        <ele>928.47980</ele>
        <time>2021-06-30T19:04:07Z</time>
      </trkpt>
      <trkpt lat="44.125690" lon="5.276128">
        <ele>926.24347</ele>
        <time>2021-06-30T19:04:08Z</time>
      </trkpt>
      <trkpt lat="44.125683" lon="5.275959">
        <ele>926.24347</ele>
        <time>2021-06-30T19:04:08Z</time>
      </trkpt>
      <trkpt lat="44.125683" lon="5.275768">
        <ele>925.39111</ele>
        <time>2021-06-30T19:04:09Z</time>
      </trkpt>
      <trkpt lat="44.125744" lon="5.275502">
        <ele>922.91986</ele>
        <time>2021-06-30T19:04:11Z</time>
      </trkpt>
      <trkpt lat="44.125824" lon="5.275327">
        <ele>920.32782</ele>
        <time>2021-06-30T19:04:12Z</time>
      </trkpt>
      <trkpt lat="44.125919" lon="5.275123">
        <ele>920.32782</ele>
        <time>2021-06-30T19:04:13Z</time>
      </trkpt>
      <trkpt lat="44.125973" lon="5.275006">
        <ele>918.52203</ele>
        <time>2021-06-30T19:04:13Z</time>
      </trkpt>
      <trkpt lat="44.126030" lon="5.274881">
        <ele>917.50513</ele>
        <time>2021-06-30T19:04:15Z</time>
      </trkpt>
      <trkpt lat="44.126095" lon="5.274728">
        <ele>916.33893</ele>
        <time>2021-06-30T19:04:16Z</time>
      </trkpt>
      <trkpt lat="44.126152" lon="5.274589">
        <ele>914.23425</ele>
        <time>2021-06-30T19:04:17Z</time>
      </trkpt>
      <trkpt lat="44.126228" lon="5.274400">
        <ele>914.23425</ele>
        <time>2021-06-30T19:04:18Z</time>
      </trkpt>
      <trkpt lat="44.126228" lon="5.274400">
        <ele>913.61169</ele>
        <time>2021-06-30T19:04:18Z</time>
      </trkpt>
      <trkpt lat="44.126301" lon="5.274222">
        <ele>911.83997</ele>
        <time>2021-06-30T19:04:20Z</time>
      </trkpt>
      <trkpt lat="44.126377" lon="5.274036">
        <ele>910.92474</ele>
        <time>2021-06-30T19:04:20Z</time>
      </trkpt>
      <trkpt lat="44.126457" lon="5.273848">
        <ele>907.88568</ele>
        <time>2021-06-30T19:04:22Z</time>
      </trkpt>
      <trkpt lat="44.126534" lon="5.273651">
        <ele>907.88568</ele>
        <time>2021-06-30T19:04:22Z</time>
      </trkpt>
      <trkpt lat="44.126579" lon="5.273432">
        <ele>907.08582</ele>
        <time>2021-06-30T19:04:23Z</time>
      </trkpt>
      <trkpt lat="44.126583" lon="5.273281">
        <ele>906.71234</ele>
        <time>2021-06-30T19:04:24Z</time>
      </trkpt>
      <trkpt lat="44.126583" lon="5.273136">
        <ele>905.57483</ele>
        <time>2021-06-30T19:04:25Z</time>
      </trkpt>
      <trkpt lat="44.126583" lon="5.272926">
        <ele>905.35968</ele>
        <time>2021-06-30T19:04:26Z</time>
      </trkpt>
      <trkpt lat="44.126583" lon="5.272740">
        <ele>902.72559</ele>
        <time>2021-06-30T19:04:27Z</time>
      </trkpt>
      <trkpt lat="44.126587" lon="5.272430">
        <ele>899.63696</ele>
        <time>2021-06-30T19:04:28Z</time>
      </trkpt>
      <trkpt lat="44.126572" lon="5.272068">
        <ele>896.66528</ele>
        <time>2021-06-30T19:04:29Z</time>
      </trkpt>
      <trkpt lat="44.126530" lon="5.271393">
        <ele>893.64148</ele>
        <time>2021-06-30T19:04:30Z</time>
      </trkpt>
      <trkpt lat="44.126484" lon="5.271219">
        <ele>889.27673</ele>
        <time>2021-06-30T19:04:31Z</time>
      </trkpt>
      <trkpt lat="44.126400" lon="5.271028">
        <ele>886.65100</ele>
        <time>2021-06-30T19:04:32Z</time>
      </trkpt>
      <trkpt lat="44.126259" lon="5.270685">
        <ele>883.30225</ele>
        <time>2021-06-30T19:04:33Z</time>
      </trkpt>
      <trkpt lat="44.126167" lon="5.270342">
        <ele>879.26013</ele>
        <time>2021-06-30T19:04:34Z</time>
      </trkpt>
      <trkpt lat="44.126167" lon="5.270342">
        <ele>876.45508</ele>
        <time>2021-06-30T19:04:35Z</time>
      </trkpt>
      <trkpt lat="44.126122" lon="5.270060">
        <ele>873.99927</ele>
        <time>2021-06-30T19:04:36Z</time>
      </trkpt>
      <trkpt lat="44.126026" lon="5.269736">
        <ele>873.23999</ele>
        <time>2021-06-30T19:04:37Z</time>
      </trkpt>
      <trkpt lat="44.125927" lon="5.269434">
        <ele>872.43164</ele>
        <time>2021-06-30T19:04:38Z</time>
      </trkpt>
      <trkpt lat="44.125835" lon="5.269149">
        <ele>868.29980</ele>
        <time>2021-06-30T19:04:39Z</time>
      </trkpt>
      <trkpt lat="44.125755" lon="5.268925">
        <ele>875.65155</ele>
        <time>2021-06-30T19:04:40Z</time>
      </trkpt>
      <trkpt lat="44.125690" lon="5.268774">
        <ele>871.81500</ele>
        <time>2021-06-30T19:04:41Z</time>
      </trkpt>
      <trkpt lat="44.125599" lon="5.268562">
        <ele>870.27771</ele>
        <time>2021-06-30T19:04:42Z</time>
      </trkpt>
      <trkpt lat="44.125507" lon="5.268351">
        <ele>868.82178</ele>
        <time>2021-06-30T19:04:43Z</time>
      </trkpt>
      <trkpt lat="44.125381" lon="5.268105">
        <ele>863.45190</ele>
        <time>2021-06-30T19:04:44Z</time>
      </trkpt>
      <trkpt lat="44.125278" lon="5.267859">
        <ele>861.64209</ele>
        <time>2021-06-30T19:04:45Z</time>
      </trkpt>
      <trkpt lat="44.125278" lon="5.267859">
        <ele>860.12939</ele>
        <time>2021-06-30T19:04:46Z</time>
      </trkpt>
      <trkpt lat="44.125172" lon="5.267588">
        <ele>857.62891</ele>
        <time>2021-06-30T19:04:47Z</time>
      </trkpt>
      <trkpt lat="44.125076" lon="5.267331">
        <ele>852.47107</ele>
        <time>2021-06-30T19:04:48Z</time>
      </trkpt>
      <trkpt lat="44.124992" lon="5.267077">
        <ele>848.95728</ele>
        <time>2021-06-30T19:04:49Z</time>
      </trkpt>
      <trkpt lat="44.124886" lon="5.266819">
        <ele>846.66528</ele>
        <time>2021-06-30T19:04:50Z</time>
      </trkpt>
      <trkpt lat="44.124763" lon="5.266576">
        <ele>845.84619</ele>
        <time>2021-06-30T19:04:51Z</time>
      </trkpt>
      <trkpt lat="44.124645" lon="5.266366">
        <ele>845.59106</ele>
        <time>2021-06-30T19:04:52Z</time>
      </trkpt>
      <trkpt lat="44.124485" lon="5.266147">
        <ele>844.59277</ele>
        <time>2021-06-30T19:04:53Z</time>
      </trkpt>
      <trkpt lat="44.124363" lon="5.265966">
        <ele>843.16956</ele>
        <time>2021-06-30T19:04:54Z</time>
      </trkpt>
      <trkpt lat="44.124249" lon="5.265793">
        <ele>839.70300</ele>
        <time>2021-06-30T19:04:55Z</time>
      </trkpt>
      <trkpt lat="44.124115" lon="5.265547">
        <ele>835.90503</ele>
        <time>2021-06-30T19:04:56Z</time>
      </trkpt>
      <trkpt lat="44.124004" lon="5.265286">
        <ele>834.65796</ele>
        <time>2021-06-30T19:04:57Z</time>
      </trkpt>
      <trkpt lat="44.123940" lon="5.265058">
        <ele>832.65955</ele>
        <time>2021-06-30T19:04:58Z</time>
      </trkpt>
      <trkpt lat="44.123920" lon="5.264874">
        <ele>829.88593</ele>
        <time>2021-06-30T19:04:59Z</time>
      </trkpt>
      <trkpt lat="44.123920" lon="5.264874">
        <ele>828.58527</ele>
        <time>2021-06-30T19:05:00Z</time>
      </trkpt>
      <trkpt lat="44.123936" lon="5.264678">
        <ele>827.64874</ele>
        <time>2021-06-30T19:05:01Z</time>
      </trkpt>
      <trkpt lat="44.123974" lon="5.264464">
        <ele>825.39960</ele>
        <time>2021-06-30T19:05:02Z</time>
      </trkpt>
      <trkpt lat="44.124046" lon="5.264291">
        <ele>824.13477</ele>
        <time>2021-06-30T19:05:03Z</time>
      </trkpt>
      <trkpt lat="44.124161" lon="5.264049">
        <ele>822.98199</ele>
        <time>2021-06-30T19:05:04Z</time>
      </trkpt>
      <trkpt lat="44.124226" lon="5.263827">
        <ele>822.26385</ele>
        <time>2021-06-30T19:05:05Z</time>
      </trkpt>
      <trkpt lat="44.124264" lon="5.263586">
        <ele>817.71240</ele>
        <time>2021-06-30T19:05:06Z</time>
      </trkpt>
      <trkpt lat="44.124294" lon="5.263319">
        <ele>815.45630</ele>
        <time>2021-06-30T19:05:07Z</time>
      </trkpt>
      <trkpt lat="44.124352" lon="5.262866">
        <ele>813.13013</ele>
        <time>2021-06-30T19:05:08Z</time>
      </trkpt>
      <trkpt lat="44.124382" lon="5.262647">
        <ele>812.94122</ele>
        <time>2021-06-30T19:05:09Z</time>
      </trkpt>
      <trkpt lat="44.124439" lon="5.262410">
        <ele>810.38458</ele>
        <time>2021-06-30T19:05:10Z</time>
      </trkpt>
      <trkpt lat="44.124496" lon="5.262209">
        <ele>806.81323</ele>
        <time>2021-06-30T19:05:11Z</time>
      </trkpt>
      <trkpt lat="44.124531" lon="5.262003">
        <ele>805.26367</ele>
        <time>2021-06-30T19:05:12Z</time>
      </trkpt>
      <trkpt lat="44.124557" lon="5.261855">
        <ele>803.89648</ele>
        <time>2021-06-30T19:05:13Z</time>
      </trkpt>
      <trkpt lat="44.124569" lon="5.261681">
        <ele>801.78864</ele>
        <time>2021-06-30T19:05:14Z</time>
      </trkpt>
      <trkpt lat="44.124561" lon="5.261537">
        <ele>800.56006</ele>
        <time>2021-06-30T19:05:15Z</time>
      </trkpt>
      <trkpt lat="44.124561" lon="5.261537">
        <ele>799.64532</ele>
        <time>2021-06-30T19:05:16Z</time>
      </trkpt>
      <trkpt lat="44.124542" lon="5.261402">
        <ele>798.58124</ele>
        <time>2021-06-30T19:05:17Z</time>
      </trkpt>
      <trkpt lat="44.124500" lon="5.261250">
        <ele>797.42981</ele>
        <time>2021-06-30T19:05:18Z</time>
      </trkpt>
      <trkpt lat="44.124424" lon="5.261057">
        <ele>796.40430</ele>
        <time>2021-06-30T19:05:19Z</time>
      </trkpt>
      <trkpt lat="44.124359" lon="5.260867">
        <ele>794.90076</ele>
        <time>2021-06-30T19:05:20Z</time>
      </trkpt>
      <trkpt lat="44.124310" lon="5.260689">
        <ele>794.01849</ele>
        <time>2021-06-30T19:05:21Z</time>
      </trkpt>
      <trkpt lat="44.124298" lon="5.260441">
        <ele>793.02515</ele>
        <time>2021-06-30T19:05:22Z</time>
      </trkpt>
      <trkpt lat="44.124298" lon="5.260214">
        <ele>791.70508</ele>
        <time>2021-06-30T19:05:23Z</time>
      </trkpt>
      <trkpt lat="44.124310" lon="5.259902">
        <ele>787.71582</ele>
        <time>2021-06-30T19:05:24Z</time>
      </trkpt>
      <trkpt lat="44.124348" lon="5.259491">
        <ele>786.02466</ele>
        <time>2021-06-30T19:05:25Z</time>
      </trkpt>
      <trkpt lat="44.124386" lon="5.259233">
        <ele>783.79602</ele>
        <time>2021-06-30T19:05:27Z</time>
      </trkpt>
      <trkpt lat="44.124466" lon="5.259050">
        <ele>782.18402</ele>
        <time>2021-06-30T19:05:28Z</time>
      </trkpt>
      <trkpt lat="44.124466" lon="5.259050">
        <ele>781.31079</ele>
        <time>2021-06-30T19:05:29Z</time>
      </trkpt>
      <trkpt lat="44.124577" lon="5.258902">
        <ele>776.17932</ele>
        <time>2021-06-30T19:05:30Z</time>
      </trkpt>
      <trkpt lat="44.124737" lon="5.258684">
        <ele>776.17932</ele>
        <time>2021-06-30T19:05:31Z</time>
      </trkpt>
      <trkpt lat="44.124920" lon="5.258426">
        <ele>774.35876</ele>
        <time>2021-06-30T19:05:32Z</time>
      </trkpt>
      <trkpt lat="44.125031" lon="5.258249">
        <ele>771.44550</ele>
        <time>2021-06-30T19:05:33Z</time>
      </trkpt>
      <trkpt lat="44.125118" lon="5.258083">
        <ele>770.51996</ele>
        <time>2021-06-30T19:05:34Z</time>
      </trkpt>
      <trkpt lat="44.125134" lon="5.257879">
        <ele>769.77759</ele>
        <time>2021-06-30T19:05:35Z</time>
      </trkpt>
      <trkpt lat="44.125080" lon="5.257686">
        <ele>768.33582</ele>
        <time>2021-06-30T19:05:35Z</time>
      </trkpt>
      <trkpt lat="44.125019" lon="5.257427">
        <ele>765.69763</ele>
        <time>2021-06-30T19:05:37Z</time>
      </trkpt>
      <trkpt lat="44.124962" lon="5.257181">
        <ele>764.57617</ele>
        <time>2021-06-30T19:05:38Z</time>
      </trkpt>
      <trkpt lat="44.124893" lon="5.256893">
        <ele>762.40210</ele>
        <time>2021-06-30T19:05:39Z</time>
      </trkpt>
      <trkpt lat="44.124779" lon="5.256420">
        <ele>759.67151</ele>
        <time>2021-06-30T19:05:39Z</time>
      </trkpt>
      <trkpt lat="44.124718" lon="5.256138">
        <ele>756.32892</ele>
        <time>2021-06-30T19:05:40Z</time>
      </trkpt>
      <trkpt lat="44.124676" lon="5.255957">
        <ele>753.34656</ele>
        <time>2021-06-30T19:05:42Z</time>
      </trkpt>
      <trkpt lat="44.124641" lon="5.255800">
        <ele>750.27820</ele>
        <time>2021-06-30T19:05:43Z</time>
      </trkpt>
      <trkpt lat="44.124626" lon="5.255526">
        <ele>750.27820</ele>
        <time>2021-06-30T19:05:44Z</time>
      </trkpt>
      <trkpt lat="44.124619" lon="5.255126">
        <ele>747.96289</ele>
        <time>2021-06-30T19:05:45Z</time>
      </trkpt>
      <trkpt lat="44.124622" lon="5.254752">
        <ele>746.00610</ele>
        <time>2021-06-30T19:05:46Z</time>
      </trkpt>
      <trkpt lat="44.124622" lon="5.254752">
        <ele>743.22729</ele>
        <time>2021-06-30T19:05:47Z</time>
      </trkpt>
      <trkpt lat="44.124622" lon="5.254390">
        <ele>741.51196</ele>
        <time>2021-06-30T19:05:47Z</time>
      </trkpt>
      <trkpt lat="44.124626" lon="5.254038">
        <ele>740.71436</ele>
        <time>2021-06-30T19:05:48Z</time>
      </trkpt>
      <trkpt lat="44.124626" lon="5.253766">
        <ele>736.14081</ele>
        <time>2021-06-30T19:05:49Z</time>
      </trkpt>
      <trkpt lat="44.124622" lon="5.253565">
        <ele>733.94452</ele>
        <time>2021-06-30T19:05:51Z</time>
      </trkpt>
      <trkpt lat="44.124607" lon="5.253421">
        <ele>733.51819</ele>
        <time>2021-06-30T19:05:52Z</time>
      </trkpt>
      <trkpt lat="44.124523" lon="5.253252">
        <ele>730.23291</ele>
        <time>2021-06-30T19:05:52Z</time>
      </trkpt>
      <trkpt lat="44.124393" lon="5.253022">
        <ele>725.43921</ele>
        <time>2021-06-30T19:05:54Z</time>
      </trkpt>
      <trkpt lat="44.124203" lon="5.252688">
        <ele>725.43921</ele>
        <time>2021-06-30T19:05:55Z</time>
      </trkpt>
      <trkpt lat="44.124023" lon="5.252398">
        <ele>724.25684</ele>
        <time>2021-06-30T19:05:55Z</time>
      </trkpt>
      <trkpt lat="44.123817" lon="5.252066">
        <ele>722.02844</ele>
        <time>2021-06-30T19:05:57Z</time>
      </trkpt>
      <trkpt lat="44.123562" lon="5.251651">
        <ele>719.25830</ele>
        <time>2021-06-30T19:05:58Z</time>
      </trkpt>
      <trkpt lat="44.123283" lon="5.251201">
        <ele>716.88086</ele>
        <time>2021-06-30T19:05:59Z</time>
      </trkpt>
      <trkpt lat="44.123089" lon="5.250882">
        <ele>713.50696</ele>
        <time>2021-06-30T19:06:00Z</time>
      </trkpt>
      <trkpt lat="44.122887" lon="5.250557">
        <ele>710.53589</ele>
        <time>2021-06-30T19:06:00Z</time>
      </trkpt>
      <trkpt lat="44.122692" lon="5.250244">
        <ele>707.61597</ele>
        <time>2021-06-30T19:06:02Z</time>
      </trkpt>
      <trkpt lat="44.122692" lon="5.250244">
        <ele>704.99463</ele>
        <time>2021-06-30T19:06:03Z</time>
      </trkpt>
      <trkpt lat="44.122520" lon="5.249965">
        <ele>702.76050</ele>
        <time>2021-06-30T19:06:04Z</time>
      </trkpt>
      <trkpt lat="44.122410" lon="5.249782">
        <ele>700.57751</ele>
        <time>2021-06-30T19:06:04Z</time>
      </trkpt>
      <trkpt lat="44.122303" lon="5.249612">
        <ele>698.81232</ele>
        <time>2021-06-30T19:06:06Z</time>
      </trkpt>
      <trkpt lat="44.122189" lon="5.249428">
        <ele>696.76886</ele>
        <time>2021-06-30T19:06:07Z</time>
      </trkpt>
      <trkpt lat="44.122074" lon="5.249304">
        <ele>695.94653</ele>
        <time>2021-06-30T19:06:07Z</time>
      </trkpt>
      <trkpt lat="44.122032" lon="5.249268">
        <ele>694.47107</ele>
        <time>2021-06-30T19:06:08Z</time>
      </trkpt>
      <trkpt lat="44.121910" lon="5.249195">
        <ele>693.68408</ele>
        <time>2021-06-30T19:06:09Z</time>
      </trkpt>
      <trkpt lat="44.121746" lon="5.249217">
        <ele>692.82977</ele>
        <time>2021-06-30T19:06:10Z</time>
      </trkpt>
      <trkpt lat="44.121635" lon="5.249312">
        <ele>691.58215</ele>
        <time>2021-06-30T19:06:11Z</time>
      </trkpt>
      <trkpt lat="44.121635" lon="5.249312">
        <ele>689.79358</ele>
        <time>2021-06-30T19:06:12Z</time>
      </trkpt>
      <trkpt lat="44.121483" lon="5.249452">
        <ele>687.91687</ele>
        <time>2021-06-30T19:06:13Z</time>
      </trkpt>
      <trkpt lat="44.121296" lon="5.249451">
        <ele>686.02972</ele>
        <time>2021-06-30T19:06:15Z</time>
      </trkpt>
      <trkpt lat="44.121243" lon="5.249363">
        <ele>685.22382</ele>
        <time>2021-06-30T19:06:16Z</time>
      </trkpt>
      <trkpt lat="44.121235" lon="5.249349">
        <ele>683.17627</ele>
        <time>2021-06-30T19:06:17Z</time>
      </trkpt>
      <trkpt lat="44.121189" lon="5.249232">
        <ele>683.17627</ele>
        <time>2021-06-30T19:06:17Z</time>
      </trkpt>
      <trkpt lat="44.121071" lon="5.248942">
        <ele>682.26312</ele>
        <time>2021-06-30T19:06:18Z</time>
      </trkpt>
      <trkpt lat="44.121006" lon="5.248785">
        <ele>681.72125</ele>
        <time>2021-06-30T19:06:19Z</time>
      </trkpt>
      <trkpt lat="44.120930" lon="5.248698">
        <ele>679.67322</ele>
        <time>2021-06-30T19:06:21Z</time>
      </trkpt>
      <trkpt lat="44.120796" lon="5.248689">
        <ele>678.87164</ele>
        <time>2021-06-30T19:06:22Z</time>
      </trkpt>
      <trkpt lat="44.120628" lon="5.248677">
        <ele>677.99487</ele>
        <time>2021-06-30T19:06:22Z</time>
      </trkpt>
      <trkpt lat="44.120491" lon="5.248662">
        <ele>676.02795</ele>
        <time>2021-06-30T19:06:24Z</time>
      </trkpt>
      <trkpt lat="44.120369" lon="5.248642">
        <ele>674.79993</ele>
        <time>2021-06-30T19:06:25Z</time>
      </trkpt>
      <trkpt lat="44.120239" lon="5.248621">
        <ele>673.66486</ele>
        <time>2021-06-30T19:06:25Z</time>
      </trkpt>
      <trkpt lat="44.120239" lon="5.248621">
        <ele>671.99030</ele>
        <time>2021-06-30T19:06:26Z</time>
      </trkpt>
      <trkpt lat="44.120049" lon="5.248569">
        <ele>671.08606</ele>
        <time>2021-06-30T19:06:27Z</time>
      </trkpt>
      <trkpt lat="44.119820" lon="5.248442">
        <ele>669.96033</ele>
        <time>2021-06-30T19:06:29Z</time>
      </trkpt>
      <trkpt lat="44.119640" lon="5.248296">
        <ele>667.17407</ele>
        <time>2021-06-30T19:06:29Z</time>
      </trkpt>
      <trkpt lat="44.119499" lon="5.248165">
        <ele>665.49640</ele>
        <time>2021-06-30T19:06:31Z</time>
      </trkpt>
      <trkpt lat="44.119362" lon="5.248036">
        <ele>664.19055</ele>
        <time>2021-06-30T19:06:32Z</time>
      </trkpt>
      <trkpt lat="44.119244" lon="5.247993">
        <ele>662.37592</ele>
        <time>2021-06-30T19:06:32Z</time>
      </trkpt>
      <trkpt lat="44.119049" lon="5.247938">
        <ele>660.36414</ele>
        <time>2021-06-30T19:06:33Z</time>
      </trkpt>
      <trkpt lat="44.118874" lon="5.247893">
        <ele>658.68439</ele>
        <time>2021-06-30T19:06:34Z</time>
      </trkpt>
      <trkpt lat="44.118713" lon="5.247823">
        <ele>655.99298</ele>
        <time>2021-06-30T19:06:36Z</time>
      </trkpt>
      <trkpt lat="44.118580" lon="5.247700">
        <ele>653.36401</ele>
        <time>2021-06-30T19:06:37Z</time>
      </trkpt>
      <trkpt lat="44.118412" lon="5.247542">
        <ele>651.51196</ele>
        <time>2021-06-30T19:06:37Z</time>
      </trkpt>
      <trkpt lat="44.118233" lon="5.247373">
        <ele>648.43335</ele>
        <time>2021-06-30T19:06:39Z</time>
      </trkpt>
      <trkpt lat="44.118015" lon="5.247171">
        <ele>646.20837</ele>
        <time>2021-06-30T19:06:39Z</time>
      </trkpt>
      <trkpt lat="44.117821" lon="5.246974">
        <ele>642.77271</ele>
        <time>2021-06-30T19:06:41Z</time>
      </trkpt>
      <trkpt lat="44.117615" lon="5.246764">
        <ele>640.76416</ele>
        <time>2021-06-30T19:06:42Z</time>
      </trkpt>
      <trkpt lat="44.117615" lon="5.246764">
        <ele>638.41968</ele>
        <time>2021-06-30T19:06:43Z</time>
      </trkpt>
      <trkpt lat="44.117409" lon="5.246549">
        <ele>636.28857</ele>
        <time>2021-06-30T19:06:44Z</time>
      </trkpt>
      <trkpt lat="44.117153" lon="5.246286">
        <ele>631.05981</ele>
        <time>2021-06-30T19:06:44Z</time>
      </trkpt>
      <trkpt lat="44.116924" lon="5.246050">
        <ele>628.59814</ele>
        <time>2021-06-30T19:06:46Z</time>
      </trkpt>
      <trkpt lat="44.116753" lon="5.245859">
        <ele>625.97339</ele>
        <time>2021-06-30T19:06:47Z</time>
      </trkpt>
      <trkpt lat="44.116554" lon="5.245620">
        <ele>619.24060</ele>
        <time>2021-06-30T19:06:48Z</time>
      </trkpt>
      <trkpt lat="44.116364" lon="5.245392">
        <ele>616.74011</ele>
        <time>2021-06-30T19:06:49Z</time>
      </trkpt>
      <trkpt lat="44.116203" lon="5.245202">
        <ele>614.21704</ele>
        <time>2021-06-30T19:06:50Z</time>
      </trkpt>
      <trkpt lat="44.116039" lon="5.245003">
        <ele>611.58374</ele>
        <time>2021-06-30T19:06:51Z</time>
      </trkpt>
      <trkpt lat="44.115891" lon="5.244822">
        <ele>609.68286</ele>
        <time>2021-06-30T19:06:51Z</time>
      </trkpt>
      <trkpt lat="44.115780" lon="5.244690">
        <ele>620.02435</ele>
        <time>2021-06-30T19:06:52Z</time>
      </trkpt>
      <trkpt lat="44.115646" lon="5.244529">
        <ele>618.71954</ele>
        <time>2021-06-30T19:06:54Z</time>
      </trkpt>
      <trkpt lat="44.115547" lon="5.244400">
        <ele>616.03442</ele>
        <time>2021-06-30T19:06:55Z</time>
      </trkpt>
      <trkpt lat="44.115486" lon="5.244249">
        <ele>614.56976</ele>
        <time>2021-06-30T19:06:56Z</time>
      </trkpt>
      <trkpt lat="44.115459" lon="5.244067">
        <ele>613.50232</ele>
        <time>2021-06-30T19:06:57Z</time>
      </trkpt>
      <trkpt lat="44.115459" lon="5.244067">
        <ele>611.49896</ele>
        <time>2021-06-30T19:06:58Z</time>
      </trkpt>
      <trkpt lat="44.115452" lon="5.243918">
        <ele>610.77655</ele>
        <time>2021-06-30T19:06:58Z</time>
      </trkpt>
      <trkpt lat="44.115467" lon="5.243732">
        <ele>610.06067</ele>
        <time>2021-06-30T19:07:00Z</time>
      </trkpt>
      <trkpt lat="44.115517" lon="5.243587">
        <ele>609.32690</ele>
        <time>2021-06-30T19:07:01Z</time>
      </trkpt>
      <trkpt lat="44.115578" lon="5.243492">
        <ele>608.59662</ele>
        <time>2021-06-30T19:07:02Z</time>
      </trkpt>
      <trkpt lat="44.115726" lon="5.243294">
        <ele>607.91333</ele>
        <time>2021-06-30T19:07:03Z</time>
      </trkpt>
      <trkpt lat="44.115871" lon="5.243102">
        <ele>605.72357</ele>
        <time>2021-06-30T19:07:04Z</time>
      </trkpt>
      <trkpt lat="44.116032" lon="5.242893">
        <ele>603.71039</ele>
        <time>2021-06-30T19:07:05Z</time>
      </trkpt>
      <trkpt lat="44.116093" lon="5.242698">
        <ele>601.56885</ele>
        <time>2021-06-30T19:07:06Z</time>
      </trkpt>
      <trkpt lat="44.116081" lon="5.242592">
        <ele>599.03918</ele>
        <time>2021-06-30T19:07:06Z</time>
      </trkpt>
      <trkpt lat="44.116074" lon="5.242559">
        <ele>598.14429</ele>
        <time>2021-06-30T19:07:08Z</time>
      </trkpt>
      <trkpt lat="44.116055" lon="5.242499">
        <ele>597.38275</ele>
        <time>2021-06-30T19:07:08Z</time>
      </trkpt>
      <trkpt lat="44.116055" lon="5.242499">
        <ele>596.74017</ele>
        <time>2021-06-30T19:07:10Z</time>
      </trkpt>
      <trkpt lat="44.116013" lon="5.242386">
        <ele>596.14838</ele>
        <time>2021-06-30T19:07:11Z</time>
      </trkpt>
      <trkpt lat="44.115868" lon="5.242184">
        <ele>595.48907</ele>
        <time>2021-06-30T19:07:12Z</time>
      </trkpt>
      <trkpt lat="44.115723" lon="5.242069">
        <ele>592.29852</ele>
        <time>2021-06-30T19:07:13Z</time>
      </trkpt>
      <trkpt lat="44.115555" lon="5.241955">
        <ele>581.04248</ele>
        <time>2021-06-30T19:07:13Z</time>
      </trkpt>
      <trkpt lat="44.115349" lon="5.241815">
        <ele>588.03082</ele>
        <time>2021-06-30T19:07:15Z</time>
      </trkpt>
      <trkpt lat="44.115150" lon="5.241669">
        <ele>578.31030</ele>
        <time>2021-06-30T19:07:15Z</time>
      </trkpt>
      <trkpt lat="44.115040" lon="5.241556">
        <ele>571.90430</ele>
        <time>2021-06-30T19:07:17Z</time>
      </trkpt>
      <trkpt lat="44.114841" lon="5.241341">
        <ele>571.90430</ele>
        <time>2021-06-30T19:07:17Z</time>
      </trkpt>
      <trkpt lat="44.114689" lon="5.241136">
        <ele>568.54077</ele>
        <time>2021-06-30T19:07:18Z</time>
      </trkpt>
      <trkpt lat="44.114494" lon="5.240845">
        <ele>566.48340</ele>
        <time>2021-06-30T19:07:20Z</time>
      </trkpt>
      <trkpt lat="44.114368" lon="5.240666">
        <ele>565.90894</ele>
        <time>2021-06-30T19:07:21Z</time>
      </trkpt>
      <trkpt lat="44.114239" lon="5.240485">
        <ele>564.71680</ele>
        <time>2021-06-30T19:07:22Z</time>
      </trkpt>
      <trkpt lat="44.114101" lon="5.240299">
        <ele>563.96069</ele>
        <time>2021-06-30T19:07:22Z</time>
      </trkpt>
      <trkpt lat="44.114052" lon="5.240245">
        <ele>561.76538</ele>
        <time>2021-06-30T19:07:24Z</time>
      </trkpt>
      <trkpt lat="44.114052" lon="5.240245">
        <ele>560.76733</ele>
        <time>2021-06-30T19:07:25Z</time>
      </trkpt>
      <trkpt lat="44.113930" lon="5.240138">
        <ele>560.76733</ele>
        <time>2021-06-30T19:07:25Z</time>
      </trkpt>
      <trkpt lat="44.113781" lon="5.240049">
        <ele>558.62305</ele>
        <time>2021-06-30T19:07:26Z</time>
      </trkpt>
      <trkpt lat="44.113625" lon="5.239974">
        <ele>558.88306</ele>
        <time>2021-06-30T19:07:28Z</time>
      </trkpt>
      <trkpt lat="44.113548" lon="5.239930">
        <ele>558.81372</ele>
        <time>2021-06-30T19:07:29Z</time>
      </trkpt>
      <trkpt lat="44.113461" lon="5.239855">
        <ele>557.27686</ele>
        <time>2021-06-30T19:07:29Z</time>
      </trkpt>
      <trkpt lat="44.113445" lon="5.239845">
        <ele>555.34363</ele>
        <time>2021-06-30T19:07:31Z</time>
      </trkpt>
      <trkpt lat="44.113377" lon="5.239846">
        <ele>555.25586</ele>
        <time>2021-06-30T19:07:32Z</time>
      </trkpt>
      <trkpt lat="44.113476" lon="5.239774">
        <ele>555.29785</ele>
        <time>2021-06-30T19:07:33Z</time>
      </trkpt>
      <trkpt lat="44.113499" lon="5.239738">
        <ele>554.73901</ele>
        <time>2021-06-30T19:07:34Z</time>
      </trkpt>
      <trkpt lat="44.113544" lon="5.239710">
        <ele>554.67139</ele>
        <time>2021-06-30T19:07:34Z</time>
      </trkpt>
      <trkpt lat="44.113873" lon="5.239697">
        <ele>543.91748</ele>
        <time>2021-06-30T19:07:36Z</time>
      </trkpt>
      <trkpt lat="44.114155" lon="5.239778">
        <ele>543.91748</ele>
        <time>2021-06-30T19:07:37Z</time>
      </trkpt>
      <trkpt lat="44.114155" lon="5.239778">
        <ele>542.54285</ele>
        <time>2021-06-30T19:07:37Z</time>
      </trkpt>
      <trkpt lat="44.114498" lon="5.240014">
        <ele>541.26831</ele>
        <time>2021-06-30T19:07:39Z</time>
      </trkpt>
      <trkpt lat="44.114498" lon="5.240014">
        <ele>541.62415</ele>
        <time>2021-06-30T19:07:40Z</time>
      </trkpt>
      <trkpt lat="44.114620" lon="5.240127">
        <ele>541.37695</ele>
        <time>2021-06-30T19:07:41Z</time>
      </trkpt>
      <trkpt lat="44.114723" lon="5.240218">
        <ele>541.37695</ele>
        <time>2021-06-30T19:07:41Z</time>
      </trkpt>
      <trkpt lat="44.114838" lon="5.240289">
        <ele>540.25269</ele>
        <time>2021-06-30T19:07:43Z</time>
      </trkpt>
      <trkpt lat="44.114964" lon="5.240345">
        <ele>538.70850</ele>
        <time>2021-06-30T19:07:43Z</time>
      </trkpt>
      <trkpt lat="44.115139" lon="5.240331">
        <ele>536.84351</ele>
        <time>2021-06-30T19:07:45Z</time>
      </trkpt>
      <trkpt lat="44.115284" lon="5.240310">
        <ele>538.06458</ele>
        <time>2021-06-30T19:07:46Z</time>
      </trkpt>
      <trkpt lat="44.115459" lon="5.240273">
        <ele>538.81445</ele>
        <time>2021-06-30T19:07:47Z</time>
      </trkpt>
      <trkpt lat="44.115604" lon="5.240232">
        <ele>538.81445</ele>
        <time>2021-06-30T19:07:47Z</time>
      </trkpt>
      <trkpt lat="44.115704" lon="5.240202">
        <ele>538.03638</ele>
        <time>2021-06-30T19:07:48Z</time>
      </trkpt>
      <trkpt lat="44.115826" lon="5.240124">
        <ele>536.99890</ele>
        <time>2021-06-30T19:07:50Z</time>
      </trkpt>
      <trkpt lat="44.115952" lon="5.239996">
        <ele>537.37207</ele>
        <time>2021-06-30T19:07:51Z</time>
      </trkpt>
      <trkpt lat="44.116077" lon="5.239843">
        <ele>537.37207</ele>
        <time>2021-06-30T19:07:51Z</time>
      </trkpt>
      <trkpt lat="44.116222" lon="5.239664">
        <ele>534.69849</ele>
        <time>2021-06-30T19:07:52Z</time>
      </trkpt>
      <trkpt lat="44.116337" lon="5.239525">
        <ele>534.51746</ele>
        <time>2021-06-30T19:07:53Z</time>
      </trkpt>
      <trkpt lat="44.116451" lon="5.239385">
        <ele>534.33301</ele>
        <time>2021-06-30T19:07:54Z</time>
      </trkpt>
      <trkpt lat="44.116573" lon="5.239238">
        <ele>533.52734</ele>
        <time>2021-06-30T19:07:55Z</time>
      </trkpt>
      <trkpt lat="44.116699" lon="5.239082">
        <ele>534.16821</ele>
        <time>2021-06-30T19:07:56Z</time>
      </trkpt>
      <trkpt lat="44.116699" lon="5.239082">
        <ele>534.15320</ele>
        <time>2021-06-30T19:07:58Z</time>
      </trkpt>
      <trkpt lat="44.116821" lon="5.238935">
        <ele>533.88684</ele>
        <time>2021-06-30T19:07:58Z</time>
      </trkpt>
      <trkpt lat="44.116947" lon="5.238777">
        <ele>532.01794</ele>
        <time>2021-06-30T19:08:00Z</time>
      </trkpt>
      <trkpt lat="44.117062" lon="5.238630">
        <ele>531.85791</ele>
        <time>2021-06-30T19:08:00Z</time>
      </trkpt>
      <trkpt lat="44.117157" lon="5.238484">
        <ele>530.22217</ele>
        <time>2021-06-30T19:08:01Z</time>
      </trkpt>
      <trkpt lat="44.117260" lon="5.238314">
        <ele>530.49524</ele>
        <time>2021-06-30T19:08:02Z</time>
      </trkpt>
      <trkpt lat="44.117336" lon="5.238097">
        <ele>530.56189</ele>
        <time>2021-06-30T19:08:04Z</time>
      </trkpt>
      <trkpt lat="44.117393" lon="5.237871">
        <ele>529.52051</ele>
        <time>2021-06-30T19:08:04Z</time>
      </trkpt>
      <trkpt lat="44.117428" lon="5.237680">
        <ele>529.19385</ele>
        <time>2021-06-30T19:08:06Z</time>
      </trkpt>
      <trkpt lat="44.117493" lon="5.237245">
        <ele>528.67310</ele>
        <time>2021-06-30T19:08:07Z</time>
      </trkpt>
      <trkpt lat="44.117519" lon="5.237044">
        <ele>528.53882</ele>
        <time>2021-06-30T19:08:07Z</time>
      </trkpt>
      <trkpt lat="44.117542" lon="5.236772">
        <ele>527.17163</ele>
        <time>2021-06-30T19:08:08Z</time>
      </trkpt>
      <trkpt lat="44.117535" lon="5.236480">
        <ele>527.58862</ele>
        <time>2021-06-30T19:08:10Z</time>
      </trkpt>
      <trkpt lat="44.117504" lon="5.236201">
        <ele>525.51758</ele>
        <time>2021-06-30T19:08:10Z</time>
      </trkpt>
      <trkpt lat="44.117462" lon="5.235898">
        <ele>523.89355</ele>
        <time>2021-06-30T19:08:11Z</time>
      </trkpt>
      <trkpt lat="44.117428" lon="5.235651">
        <ele>524.25220</ele>
        <time>2021-06-30T19:08:12Z</time>
      </trkpt>
      <trkpt lat="44.117416" lon="5.235464">
        <ele>524.23511</ele>
        <time>2021-06-30T19:08:14Z</time>
      </trkpt>
      <trkpt lat="44.117416" lon="5.235464">
        <ele>524.11963</ele>
        <time>2021-06-30T19:08:14Z</time>
      </trkpt>
      <trkpt lat="44.117493" lon="5.235217">
        <ele>523.80493</ele>
        <time>2021-06-30T19:08:15Z</time>
      </trkpt>
      <trkpt lat="44.117558" lon="5.235114">
        <ele>523.81372</ele>
        <time>2021-06-30T19:08:17Z</time>
      </trkpt>
      <trkpt lat="44.117626" lon="5.235006">
        <ele>523.88965</ele>
        <time>2021-06-30T19:08:18Z</time>
      </trkpt>
      <trkpt lat="44.117710" lon="5.234843">
        <ele>523.82397</ele>
        <time>2021-06-30T19:08:19Z</time>
      </trkpt>
      <trkpt lat="44.117779" lon="5.234686">
        <ele>523.02637</ele>
        <time>2021-06-30T19:08:20Z</time>
      </trkpt>
      <trkpt lat="44.117828" lon="5.234439">
        <ele>522.45508</ele>
        <time>2021-06-30T19:08:21Z</time>
      </trkpt>
      <trkpt lat="44.117874" lon="5.234249">
        <ele>520.89453</ele>
        <time>2021-06-30T19:08:22Z</time>
      </trkpt>
      <trkpt lat="44.117950" lon="5.234067">
        <ele>519.47510</ele>
        <time>2021-06-30T19:08:22Z</time>
      </trkpt>
      <trkpt lat="44.118008" lon="5.233953">
        <ele>518.93799</ele>
        <time>2021-06-30T19:08:24Z</time>
      </trkpt>
      <trkpt lat="44.118114" lon="5.233780">
        <ele>517.87183</ele>
        <time>2021-06-30T19:08:25Z</time>
      </trkpt>
      <trkpt lat="44.118210" lon="5.233646">
        <ele>517.19604</ele>
        <time>2021-06-30T19:08:26Z</time>
      </trkpt>
      <trkpt lat="44.118324" lon="5.233482">
        <ele>513.94604</ele>
        <time>2021-06-30T19:08:27Z</time>
      </trkpt>
      <trkpt lat="44.118324" lon="5.233482">
        <ele>513.18420</ele>
        <time>2021-06-30T19:08:28Z</time>
      </trkpt>
      <trkpt lat="44.118427" lon="5.233337">
        <ele>511.34448</ele>
        <time>2021-06-30T19:08:29Z</time>
      </trkpt>
      <trkpt lat="44.118519" lon="5.233209">
        <ele>507.06421</ele>
        <time>2021-06-30T19:08:30Z</time>
      </trkpt>
      <trkpt lat="44.118618" lon="5.233078">
        <ele>507.06421</ele>
        <time>2021-06-30T19:08:30Z</time>
      </trkpt>
      <trkpt lat="44.118717" lon="5.232953">
        <ele>504.99756</ele>
        <time>2021-06-30T19:08:32Z</time>
      </trkpt>
      <trkpt lat="44.118832" lon="5.232797">
        <ele>504.18823</ele>
        <time>2021-06-30T19:08:33Z</time>
      </trkpt>
      <trkpt lat="44.118977" lon="5.232600">
        <ele>502.97949</ele>
        <time>2021-06-30T19:08:33Z</time>
      </trkpt>
      <trkpt lat="44.119110" lon="5.232418">
        <ele>502.30566</ele>
        <time>2021-06-30T19:08:35Z</time>
      </trkpt>
      <trkpt lat="44.119251" lon="5.232227">
        <ele>500.52100</ele>
        <time>2021-06-30T19:08:36Z</time>
      </trkpt>
      <trkpt lat="44.119385" lon="5.232043">
        <ele>499.94165</ele>
        <time>2021-06-30T19:08:36Z</time>
      </trkpt>
      <trkpt lat="44.119507" lon="5.231879">
        <ele>498.79346</ele>
        <time>2021-06-30T19:08:37Z</time>
      </trkpt>
      <trkpt lat="44.119656" lon="5.231672">
        <ele>497.67053</ele>
        <time>2021-06-30T19:08:39Z</time>
      </trkpt>
      <trkpt lat="44.119793" lon="5.231487">
        <ele>497.53503</ele>
        <time>2021-06-30T19:08:40Z</time>
      </trkpt>
      <trkpt lat="44.119919" lon="5.231314">
        <ele>497.50488</ele>
        <time>2021-06-30T19:08:41Z</time>
      </trkpt>
      <trkpt lat="44.119919" lon="5.231314">
        <ele>496.37549</ele>
        <time>2021-06-30T19:08:41Z</time>
      </trkpt>
      <trkpt lat="44.120045" lon="5.231146">
        <ele>493.70728</ele>
        <time>2021-06-30T19:08:43Z</time>
      </trkpt>
      <trkpt lat="44.120171" lon="5.230979">
        <ele>493.15894</ele>
        <time>2021-06-30T19:08:43Z</time>
      </trkpt>
      <trkpt lat="44.120277" lon="5.230832">
        <ele>490.41528</ele>
        <time>2021-06-30T19:08:45Z</time>
      </trkpt>
      <trkpt lat="44.120377" lon="5.230670">
        <ele>490.41528</ele>
        <time>2021-06-30T19:08:45Z</time>
      </trkpt>
      <trkpt lat="44.120453" lon="5.230530">
        <ele>490.32520</ele>
        <time>2021-06-30T19:08:46Z</time>
      </trkpt>
      <trkpt lat="44.120502" lon="5.230381">
        <ele>490.07568</ele>
        <time>2021-06-30T19:08:48Z</time>
      </trkpt>
      <trkpt lat="44.120537" lon="5.230187">
        <ele>489.03210</ele>
        <time>2021-06-30T19:08:48Z</time>
      </trkpt>
      <trkpt lat="44.120541" lon="5.229994">
        <ele>488.42676</ele>
        <time>2021-06-30T19:08:50Z</time>
      </trkpt>
      <trkpt lat="44.120491" lon="5.229545">
        <ele>487.53918</ele>
        <time>2021-06-30T19:08:51Z</time>
      </trkpt>
      <trkpt lat="44.120441" lon="5.229252">
        <ele>485.75513</ele>
        <time>2021-06-30T19:08:52Z</time>
      </trkpt>
      <trkpt lat="44.120392" lon="5.228885">
        <ele>484.71570</ele>
        <time>2021-06-30T19:08:53Z</time>
      </trkpt>
      <trkpt lat="44.120342" lon="5.228613">
        <ele>484.33398</ele>
        <time>2021-06-30T19:08:54Z</time>
      </trkpt>
      <trkpt lat="44.120289" lon="5.228315">
        <ele>483.21155</ele>
        <time>2021-06-30T19:08:55Z</time>
      </trkpt>
      <trkpt lat="44.120289" lon="5.228315">
        <ele>482.11536</ele>
        <time>2021-06-30T19:08:56Z</time>
      </trkpt>
      <trkpt lat="44.120255" lon="5.228051">
        <ele>480.57983</ele>
        <time>2021-06-30T19:08:56Z</time>
      </trkpt>
      <trkpt lat="44.120228" lon="5.227749">
        <ele>480.04150</ele>
        <time>2021-06-30T19:08:58Z</time>
      </trkpt>
      <trkpt lat="44.120213" lon="5.227547">
        <ele>480.38501</ele>
        <time>2021-06-30T19:08:58Z</time>
      </trkpt>
      <trkpt lat="44.120220" lon="5.227143">
        <ele>477.80835</ele>
        <time>2021-06-30T19:09:00Z</time>
      </trkpt>
      <trkpt lat="44.120235" lon="5.226780">
        <ele>475.66943</ele>
        <time>2021-06-30T19:09:01Z</time>
      </trkpt>
      <trkpt lat="44.120289" lon="5.226392">
        <ele>471.97766</ele>
        <time>2021-06-30T19:09:02Z</time>
      </trkpt>
      <trkpt lat="44.120342" lon="5.225994">
        <ele>471.72931</ele>
        <time>2021-06-30T19:09:02Z</time>
      </trkpt>
      <trkpt lat="44.120384" lon="5.225681">
        <ele>469.38818</ele>
        <time>2021-06-30T19:09:03Z</time>
      </trkpt>
      <trkpt lat="44.120419" lon="5.225413">
        <ele>464.81433</ele>
        <time>2021-06-30T19:09:05Z</time>
      </trkpt>
      <trkpt lat="44.120445" lon="5.225166">
        <ele>464.81433</ele>
        <time>2021-06-30T19:09:06Z</time>
      </trkpt>
      <trkpt lat="44.120445" lon="5.225166">
        <ele>463.48328</ele>
        <time>2021-06-30T19:09:06Z</time>
      </trkpt>
      <trkpt lat="44.120472" lon="5.224899">
        <ele>462.46155</ele>
        <time>2021-06-30T19:09:08Z</time>
      </trkpt>
      <trkpt lat="44.120487" lon="5.224672">
        <ele>461.46942</ele>
        <time>2021-06-30T19:09:09Z</time>
      </trkpt>
      <trkpt lat="44.120495" lon="5.224464">
        <ele>461.33203</ele>
        <time>2021-06-30T19:09:10Z</time>
      </trkpt>
      <trkpt lat="44.120499" lon="5.224268">
        <ele>461.31970</ele>
        <time>2021-06-30T19:09:10Z</time>
      </trkpt>
      <trkpt lat="44.120483" lon="5.224059">
        <ele>459.83179</ele>
        <time>2021-06-30T19:09:12Z</time>
      </trkpt>
      <trkpt lat="44.120453" lon="5.223811">
        <ele>459.64417</ele>
        <time>2021-06-30T19:09:13Z</time>
      </trkpt>
      <trkpt lat="44.120426" lon="5.223641">
        <ele>459.49182</ele>
        <time>2021-06-30T19:09:14Z</time>
      </trkpt>
      <trkpt lat="44.120380" lon="5.223404">
        <ele>459.23981</ele>
        <time>2021-06-30T19:09:15Z</time>
      </trkpt>
      <trkpt lat="44.120338" lon="5.223193">
        <ele>459.09106</ele>
        <time>2021-06-30T19:09:16Z</time>
      </trkpt>
      <trkpt lat="44.120304" lon="5.222984">
        <ele>459.05585</ele>
        <time>2021-06-30T19:09:16Z</time>
      </trkpt>
      <trkpt lat="44.120293" lon="5.222795">
        <ele>458.67053</ele>
        <time>2021-06-30T19:09:18Z</time>
      </trkpt>
      <trkpt lat="44.120289" lon="5.222682">
        <ele>458.39709</ele>
        <time>2021-06-30T19:09:19Z</time>
      </trkpt>
      <trkpt lat="44.120289" lon="5.222524">
        <ele>458.28271</ele>
        <time>2021-06-30T19:09:20Z</time>
      </trkpt>
      <trkpt lat="44.120316" lon="5.222332">
        <ele>458.48328</ele>
        <time>2021-06-30T19:09:21Z</time>
      </trkpt>
      <trkpt lat="44.120316" lon="5.222332">
        <ele>457.48511</ele>
        <time>2021-06-30T19:09:21Z</time>
      </trkpt>
      <trkpt lat="44.120338" lon="5.222204">
        <ele>457.08484</ele>
        <time>2021-06-30T19:09:23Z</time>
      </trkpt>
      <trkpt lat="44.120377" lon="5.222022">
        <ele>456.52991</ele>
        <time>2021-06-30T19:09:24Z</time>
      </trkpt>
      <trkpt lat="44.120430" lon="5.221845">
        <ele>457.00623</ele>
        <time>2021-06-30T19:09:25Z</time>
      </trkpt>
      <trkpt lat="44.120457" lon="5.221683">
        <ele>456.60449</ele>
        <time>2021-06-30T19:09:26Z</time>
      </trkpt>
      <trkpt lat="44.120480" lon="5.221490">
        <ele>457.31494</ele>
        <time>2021-06-30T19:09:27Z</time>
      </trkpt>
      <trkpt lat="44.120541" lon="5.221273">
        <ele>457.21051</ele>
        <time>2021-06-30T19:09:28Z</time>
      </trkpt>
      <trkpt lat="44.120640" lon="5.221001">
        <ele>457.27289</ele>
        <time>2021-06-30T19:09:29Z</time>
      </trkpt>
      <trkpt lat="44.120731" lon="5.220762">
        <ele>456.13953</ele>
        <time>2021-06-30T19:09:30Z</time>
      </trkpt>
      <trkpt lat="44.120819" lon="5.220553">
        <ele>455.59766</ele>
        <time>2021-06-30T19:09:31Z</time>
      </trkpt>
      <trkpt lat="44.120907" lon="5.220334">
        <ele>453.25201</ele>
        <time>2021-06-30T19:09:32Z</time>
      </trkpt>
      <trkpt lat="44.120998" lon="5.220086">
        <ele>453.63770</ele>
        <time>2021-06-30T19:09:33Z</time>
      </trkpt>
      <trkpt lat="44.121075" lon="5.219861">
        <ele>452.07050</ele>
        <time>2021-06-30T19:09:33Z</time>
      </trkpt>
      <trkpt lat="44.121166" lon="5.219582">
        <ele>450.32996</ele>
        <time>2021-06-30T19:09:35Z</time>
      </trkpt>
      <trkpt lat="44.121246" lon="5.219333">
        <ele>449.29565</ele>
        <time>2021-06-30T19:09:35Z</time>
      </trkpt>
      <trkpt lat="44.121346" lon="5.219031">
        <ele>450.58337</ele>
        <time>2021-06-30T19:09:36Z</time>
      </trkpt>
      <trkpt lat="44.121445" lon="5.218726">
        <ele>448.16064</ele>
        <time>2021-06-30T19:09:38Z</time>
      </trkpt>
      <trkpt lat="44.121445" lon="5.218726">
        <ele>449.00757</ele>
        <time>2021-06-30T19:09:38Z</time>
      </trkpt>
      <trkpt lat="44.121521" lon="5.218451">
        <ele>447.73694</ele>
        <time>2021-06-30T19:09:40Z</time>
      </trkpt>
      <trkpt lat="44.121605" lon="5.218167">
        <ele>445.70172</ele>
        <time>2021-06-30T19:09:41Z</time>
      </trkpt>
      <trkpt lat="44.121696" lon="5.217849">
        <ele>445.03198</ele>
        <time>2021-06-30T19:09:42Z</time>
      </trkpt>
      <trkpt lat="44.121784" lon="5.217541">
        <ele>441.47583</ele>
        <time>2021-06-30T19:09:43Z</time>
      </trkpt>
      <trkpt lat="44.121883" lon="5.217196">
        <ele>439.84674</ele>
        <time>2021-06-30T19:09:44Z</time>
      </trkpt>
      <trkpt lat="44.121967" lon="5.216875">
        <ele>437.31396</ele>
        <time>2021-06-30T19:09:45Z</time>
      </trkpt>
      <trkpt lat="44.122017" lon="5.216613">
        <ele>436.96625</ele>
        <time>2021-06-30T19:09:46Z</time>
      </trkpt>
      <trkpt lat="44.122044" lon="5.216454">
        <ele>435.53107</ele>
        <time>2021-06-30T19:09:46Z</time>
      </trkpt>
      <trkpt lat="44.122082" lon="5.216219">
        <ele>435.24414</ele>
        <time>2021-06-30T19:09:48Z</time>
      </trkpt>
      <trkpt lat="44.122116" lon="5.215977">
        <ele>434.65796</ele>
        <time>2021-06-30T19:09:49Z</time>
      </trkpt>
      <trkpt lat="44.122147" lon="5.215740">
        <ele>432.67139</ele>
        <time>2021-06-30T19:09:50Z</time>
      </trkpt>
      <trkpt lat="44.122097" lon="5.215515">
        <ele>432.67139</ele>
        <time>2021-06-30T19:09:50Z</time>
      </trkpt>
      <trkpt lat="44.122036" lon="5.215309">
        <ele>431.74158</ele>
        <time>2021-06-30T19:09:51Z</time>
      </trkpt>
      <trkpt lat="44.121948" lon="5.215048">
        <ele>431.57251</ele>
        <time>2021-06-30T19:09:53Z</time>
      </trkpt>
      <trkpt lat="44.121948" lon="5.215048">
        <ele>429.36371</ele>
        <time>2021-06-30T19:09:53Z</time>
      </trkpt>
      <trkpt lat="44.121845" lon="5.214736">
        <ele>428.85730</ele>
        <time>2021-06-30T19:09:54Z</time>
      </trkpt>
      <trkpt lat="44.121742" lon="5.214459">
        <ele>428.68848</ele>
        <time>2021-06-30T19:09:56Z</time>
      </trkpt>
      <trkpt lat="44.121613" lon="5.214164">
        <ele>424.43481</ele>
        <time>2021-06-30T19:09:57Z</time>
      </trkpt>
      <trkpt lat="44.121475" lon="5.213917">
        <ele>421.65308</ele>
        <time>2021-06-30T19:09:58Z</time>
      </trkpt>
      <trkpt lat="44.121300" lon="5.213600">
        <ele>419.79749</ele>
        <time>2021-06-30T19:09:58Z</time>
      </trkpt>
      <trkpt lat="44.121162" lon="5.213367">
        <ele>418.36707</ele>
        <time>2021-06-30T19:10:00Z</time>
      </trkpt>
      <trkpt lat="44.120998" lon="5.213121">
        <ele>418.32343</ele>
        <time>2021-06-30T19:10:01Z</time>
      </trkpt>
      <trkpt lat="44.120872" lon="5.212903">
        <ele>417.24438</ele>
        <time>2021-06-30T19:10:02Z</time>
      </trkpt>
      <trkpt lat="44.120724" lon="5.212627">
        <ele>414.17426</ele>
        <time>2021-06-30T19:10:02Z</time>
      </trkpt>
      <trkpt lat="44.120617" lon="5.212405">
        <ele>412.24976</ele>
        <time>2021-06-30T19:10:04Z</time>
      </trkpt>
      <trkpt lat="44.120518" lon="5.212157">
        <ele>411.95129</ele>
        <time>2021-06-30T19:10:04Z</time>
      </trkpt>
      <trkpt lat="44.120518" lon="5.212157">
        <ele>410.77686</ele>
        <time>2021-06-30T19:10:06Z</time>
      </trkpt>
      <trkpt lat="44.120438" lon="5.211909">
        <ele>410.70386</ele>
        <time>2021-06-30T19:10:06Z</time>
      </trkpt>
      <trkpt lat="44.120369" lon="5.211666">
        <ele>410.67114</ele>
        <time>2021-06-30T19:10:08Z</time>
      </trkpt>
      <trkpt lat="44.120296" lon="5.211411">
        <ele>409.96387</ele>
        <time>2021-06-30T19:10:08Z</time>
      </trkpt>
      <trkpt lat="44.120232" lon="5.211141">
        <ele>409.91943</ele>
        <time>2021-06-30T19:10:10Z</time>
      </trkpt>
      <trkpt lat="44.120167" lon="5.210862">
        <ele>409.62903</ele>
        <time>2021-06-30T19:10:10Z</time>
      </trkpt>
      <trkpt lat="44.120090" lon="5.210516">
        <ele>408.84717</ele>
        <time>2021-06-30T19:10:11Z</time>
      </trkpt>
      <trkpt lat="44.120018" lon="5.210182">
        <ele>408.41919</ele>
        <time>2021-06-30T19:10:13Z</time>
      </trkpt>
      <trkpt lat="44.119972" lon="5.209890">
        <ele>407.44385</ele>
        <time>2021-06-30T19:10:14Z</time>
      </trkpt>
      <trkpt lat="44.119926" lon="5.209592">
        <ele>402.30591</ele>
        <time>2021-06-30T19:10:15Z</time>
      </trkpt>
      <trkpt lat="44.119888" lon="5.209318">
        <ele>400.89880</ele>
        <time>2021-06-30T19:10:15Z</time>
      </trkpt>
      <trkpt lat="44.119862" lon="5.209032">
        <ele>398.44745</ele>
        <time>2021-06-30T19:10:17Z</time>
      </trkpt>
      <trkpt lat="44.119843" lon="5.208703">
        <ele>396.06104</ele>
        <time>2021-06-30T19:10:17Z</time>
      </trkpt>
      <trkpt lat="44.119865" lon="5.208363">
        <ele>395.90961</ele>
        <time>2021-06-30T19:10:19Z</time>
      </trkpt>
      <trkpt lat="44.119865" lon="5.208363">
        <ele>393.87274</ele>
        <time>2021-06-30T19:10:19Z</time>
      </trkpt>
      <trkpt lat="44.119900" lon="5.207997">
        <ele>391.35822</ele>
        <time>2021-06-30T19:10:21Z</time>
      </trkpt>
      <trkpt lat="44.119934" lon="5.207659">
        <ele>390.99048</ele>
        <time>2021-06-30T19:10:21Z</time>
      </trkpt>
      <trkpt lat="44.119961" lon="5.207311">
        <ele>387.59558</ele>
        <time>2021-06-30T19:10:23Z</time>
      </trkpt>
      <trkpt lat="44.119987" lon="5.207006">
        <ele>384.89624</ele>
        <time>2021-06-30T19:10:24Z</time>
      </trkpt>
      <trkpt lat="44.120010" lon="5.206701">
        <ele>385.84827</ele>
        <time>2021-06-30T19:10:24Z</time>
      </trkpt>
      <trkpt lat="44.120037" lon="5.206407">
        <ele>385.43536</ele>
        <time>2021-06-30T19:10:26Z</time>
      </trkpt>
      <trkpt lat="44.120064" lon="5.206094">
        <ele>385.62433</ele>
        <time>2021-06-30T19:10:27Z</time>
      </trkpt>
      <trkpt lat="44.120098" lon="5.205776">
        <ele>385.77600</ele>
        <time>2021-06-30T19:10:27Z</time>
      </trkpt>
      <trkpt lat="44.120125" lon="5.205394">
        <ele>383.76428</ele>
        <time>2021-06-30T19:10:28Z</time>
      </trkpt>
      <trkpt lat="44.120132" lon="5.205015">
        <ele>381.31934</ele>
        <time>2021-06-30T19:10:29Z</time>
      </trkpt>
      <trkpt lat="44.120125" lon="5.204629">
        <ele>380.76306</ele>
        <time>2021-06-30T19:10:31Z</time>
      </trkpt>
      <trkpt lat="44.120094" lon="5.204255">
        <ele>380.59058</ele>
        <time>2021-06-30T19:10:32Z</time>
      </trkpt>
      <trkpt lat="44.120094" lon="5.204255">
        <ele>380.00330</ele>
        <time>2021-06-30T19:10:32Z</time>
      </trkpt>
      <trkpt lat="44.120071" lon="5.203921">
        <ele>380.15057</ele>
        <time>2021-06-30T19:10:34Z</time>
      </trkpt>
      <trkpt lat="44.120041" lon="5.203563">
        <ele>379.87244</ele>
        <time>2021-06-30T19:10:35Z</time>
      </trkpt>
      <trkpt lat="44.120010" lon="5.203224">
        <ele>378.61096</ele>
        <time>2021-06-30T19:10:36Z</time>
      </trkpt>
      <trkpt lat="44.119980" lon="5.202880">
        <ele>378.25848</ele>
        <time>2021-06-30T19:10:37Z</time>
      </trkpt>
      <trkpt lat="44.119946" lon="5.202548">
        <ele>376.98389</ele>
        <time>2021-06-30T19:10:38Z</time>
      </trkpt>
      <trkpt lat="44.119911" lon="5.202193">
        <ele>371.93079</ele>
        <time>2021-06-30T19:10:39Z</time>
      </trkpt>
      <trkpt lat="44.119873" lon="5.201882">
        <ele>371.84387</ele>
        <time>2021-06-30T19:10:40Z</time>
      </trkpt>
      <trkpt lat="44.119835" lon="5.201686">
        <ele>373.11261</ele>
        <time>2021-06-30T19:10:41Z</time>
      </trkpt>
      <trkpt lat="44.119740" lon="5.201487">
        <ele>372.98273</ele>
        <time>2021-06-30T19:10:41Z</time>
      </trkpt>
      <trkpt lat="44.119633" lon="5.201309">
        <ele>372.94397</ele>
        <time>2021-06-30T19:10:43Z</time>
      </trkpt>
      <trkpt lat="44.119465" lon="5.201095">
        <ele>371.08862</ele>
        <time>2021-06-30T19:10:43Z</time>
      </trkpt>
      <trkpt lat="44.119305" lon="5.200922">
        <ele>371.31036</ele>
        <time>2021-06-30T19:10:45Z</time>
      </trkpt>
      <trkpt lat="44.119141" lon="5.200791">
        <ele>370.07935</ele>
        <time>2021-06-30T19:10:46Z</time>
      </trkpt>
      <trkpt lat="44.118999" lon="5.200702">
        <ele>368.54675</ele>
        <time>2021-06-30T19:10:46Z</time>
      </trkpt>
      <trkpt lat="44.118835" lon="5.200607">
        <ele>366.46442</ele>
        <time>2021-06-30T19:10:48Z</time>
      </trkpt>
      <trkpt lat="44.118713" lon="5.200535">
        <ele>366.56384</ele>
        <time>2021-06-30T19:10:48Z</time>
      </trkpt>
      <trkpt lat="44.118614" lon="5.200478">
        <ele>366.06238</ele>
        <time>2021-06-30T19:10:50Z</time>
      </trkpt>
      <trkpt lat="44.118523" lon="5.200405">
        <ele>366.06238</ele>
        <time>2021-06-30T19:10:50Z</time>
      </trkpt>
      <trkpt lat="44.118458" lon="5.200288">
        <ele>364.96423</ele>
        <time>2021-06-30T19:10:52Z</time>
      </trkpt>
      <trkpt lat="44.118420" lon="5.200174">
        <ele>364.10974</ele>
        <time>2021-06-30T19:10:53Z</time>
      </trkpt>
      <trkpt lat="44.118446" lon="5.200041">
        <ele>362.60950</ele>
        <time>2021-06-30T19:10:54Z</time>
      </trkpt>
      <trkpt lat="44.118446" lon="5.200041">
        <ele>362.66467</ele>
        <time>2021-06-30T19:10:54Z</time>
      </trkpt>
      <trkpt lat="44.118462" lon="5.199969">
        <ele>361.70465</ele>
        <time>2021-06-30T19:10:56Z</time>
      </trkpt>
      <trkpt lat="44.118519" lon="5.199756">
        <ele>360.70923</ele>
        <time>2021-06-30T19:10:57Z</time>
      </trkpt>
      <trkpt lat="44.118610" lon="5.199460">
        <ele>359.43286</ele>
        <time>2021-06-30T19:10:58Z</time>
      </trkpt>
      <trkpt lat="44.118656" lon="5.199349">
        <ele>358.52783</ele>
        <time>2021-06-30T19:10:58Z</time>
      </trkpt>
      <trkpt lat="44.118721" lon="5.199191">
        <ele>358.65527</ele>
        <time>2021-06-30T19:11:00Z</time>
      </trkpt>
      <trkpt lat="44.118793" lon="5.199026">
        <ele>358.29688</ele>
        <time>2021-06-30T19:11:00Z</time>
      </trkpt>
      <trkpt lat="44.118828" lon="5.198956">
        <ele>358.33136</ele>
        <time>2021-06-30T19:11:01Z</time>
      </trkpt>
      <trkpt lat="44.118877" lon="5.198841">
        <ele>359.55273</ele>
        <time>2021-06-30T19:11:02Z</time>
      </trkpt>
      <trkpt lat="44.118916" lon="5.198761">
        <ele>360.30072</ele>
        <time>2021-06-30T19:11:04Z</time>
      </trkpt>
      <trkpt lat="44.118954" lon="5.198682">
        <ele>359.10736</ele>
        <time>2021-06-30T19:11:05Z</time>
      </trkpt>
      <trkpt lat="44.118980" lon="5.198619">
        <ele>359.61682</ele>
        <time>2021-06-30T19:11:05Z</time>
      </trkpt>
      <trkpt lat="44.119019" lon="5.198543">
        <ele>359.63281</ele>
        <time>2021-06-30T19:11:07Z</time>
      </trkpt>
      <trkpt lat="44.119019" lon="5.198543">
        <ele>358.87402</ele>
        <time>2021-06-30T19:11:07Z</time>
      </trkpt>
      <trkpt lat="44.119019" lon="5.198409">
        <ele>358.17865</ele>
        <time>2021-06-30T19:11:09Z</time>
      </trkpt>
      <trkpt lat="44.118999" lon="5.198218">
        <ele>358.08130</ele>
        <time>2021-06-30T19:11:09Z</time>
      </trkpt>
      <trkpt lat="44.118977" lon="5.197949">
        <ele>357.94116</ele>
        <time>2021-06-30T19:11:11Z</time>
      </trkpt>
      <trkpt lat="44.118969" lon="5.197768">
        <ele>356.88171</ele>
        <time>2021-06-30T19:11:12Z</time>
      </trkpt>
      <trkpt lat="44.118961" lon="5.197578">
        <ele>356.84619</ele>
        <time>2021-06-30T19:11:13Z</time>
      </trkpt>
      <trkpt lat="44.118927" lon="5.197345">
        <ele>354.62012</ele>
        <time>2021-06-30T19:11:14Z</time>
      </trkpt>
      <trkpt lat="44.118893" lon="5.197098">
        <ele>353.53455</ele>
        <time>2021-06-30T19:11:15Z</time>
      </trkpt>
      <trkpt lat="44.118824" lon="5.196758">
        <ele>352.62396</ele>
        <time>2021-06-30T19:11:16Z</time>
      </trkpt>
      <trkpt lat="44.118767" lon="5.196470">
        <ele>351.48639</ele>
        <time>2021-06-30T19:11:16Z</time>
      </trkpt>
      <trkpt lat="44.118698" lon="5.196197">
        <ele>348.86035</ele>
        <time>2021-06-30T19:11:18Z</time>
      </trkpt>
      <trkpt lat="44.118629" lon="5.195928">
        <ele>348.52917</ele>
        <time>2021-06-30T19:11:18Z</time>
      </trkpt>
      <trkpt lat="44.118534" lon="5.195650">
        <ele>347.96368</ele>
        <time>2021-06-30T19:11:20Z</time>
      </trkpt>
      <trkpt lat="44.118439" lon="5.195370">
        <ele>347.30774</ele>
        <time>2021-06-30T19:11:21Z</time>
      </trkpt>
      <trkpt lat="44.118343" lon="5.195094">
        <ele>347.30585</ele>
        <time>2021-06-30T19:11:22Z</time>
      </trkpt>
      <trkpt lat="44.118343" lon="5.195094">
        <ele>346.29480</ele>
        <time>2021-06-30T19:11:23Z</time>
      </trkpt>
      <trkpt lat="44.118244" lon="5.194799">
        <ele>346.80737</ele>
        <time>2021-06-30T19:11:24Z</time>
      </trkpt>
      <trkpt lat="44.118156" lon="5.194541">
        <ele>346.71655</ele>
        <time>2021-06-30T19:11:25Z</time>
      </trkpt>
      <trkpt lat="44.118073" lon="5.194289">
        <ele>345.16760</ele>
        <time>2021-06-30T19:11:26Z</time>
      </trkpt>
      <trkpt lat="44.117981" lon="5.194059">
        <ele>344.13470</ele>
        <time>2021-06-30T19:11:26Z</time>
      </trkpt>
      <trkpt lat="44.117897" lon="5.193843">
        <ele>340.09143</ele>
        <time>2021-06-30T19:11:27Z</time>
      </trkpt>
      <trkpt lat="44.117764" lon="5.193578">
        <ele>338.77222</ele>
        <time>2021-06-30T19:11:28Z</time>
      </trkpt>
      <trkpt lat="44.117619" lon="5.193327">
        <ele>337.45105</ele>
        <time>2021-06-30T19:11:29Z</time>
      </trkpt>
      <trkpt lat="44.117458" lon="5.193054">
        <ele>336.51337</ele>
        <time>2021-06-30T19:11:31Z</time>
      </trkpt>
      <trkpt lat="44.117325" lon="5.192816">
        <ele>336.72900</ele>
        <time>2021-06-30T19:11:32Z</time>
      </trkpt>
      <trkpt lat="44.117199" lon="5.192587">
        <ele>336.52692</ele>
        <time>2021-06-30T19:11:32Z</time>
      </trkpt>
      <trkpt lat="44.117096" lon="5.192407">
        <ele>336.18835</ele>
        <time>2021-06-30T19:11:34Z</time>
      </trkpt>
      <trkpt lat="44.116997" lon="5.192235">
        <ele>337.91925</ele>
        <time>2021-06-30T19:11:35Z</time>
      </trkpt>
      <trkpt lat="44.116909" lon="5.192098">
        <ele>337.91925</ele>
        <time>2021-06-30T19:11:35Z</time>
      </trkpt>
      <trkpt lat="44.116859" lon="5.192017">
        <ele>337.91260</ele>
        <time>2021-06-30T19:11:37Z</time>
      </trkpt>
      <trkpt lat="44.116859" lon="5.192017">
        <ele>339.06860</ele>
        <time>2021-06-30T19:11:38Z</time>
      </trkpt>
      <trkpt lat="44.116852" lon="5.192003">
        <ele>337.22070</ele>
        <time>2021-06-30T19:11:39Z</time>
      </trkpt>
      <trkpt lat="44.116837" lon="5.191982">
        <ele>336.62158</ele>
        <time>2021-06-30T19:11:40Z</time>
      </trkpt>
      <trkpt lat="44.116825" lon="5.191963">
        <ele>335.96008</ele>
        <time>2021-06-30T19:11:41Z</time>
      </trkpt>
      <trkpt lat="44.116821" lon="5.191958">
        <ele>336.72125</ele>
        <time>2021-06-30T19:11:42Z</time>
      </trkpt>
      <trkpt lat="44.116810" lon="5.191938">
        <ele>336.72125</ele>
        <time>2021-06-30T19:11:43Z</time>
      </trkpt>
      <trkpt lat="44.116795" lon="5.191917">
        <ele>336.90833</ele>
        <time>2021-06-30T19:11:44Z</time>
      </trkpt>
      <trkpt lat="44.116787" lon="5.191900">
        <ele>337.08160</ele>
        <time>2021-06-30T19:11:45Z</time>
      </trkpt>
      <trkpt lat="44.116776" lon="5.191885">
        <ele>336.35486</ele>
        <time>2021-06-30T19:11:46Z</time>
      </trkpt>
      <trkpt lat="44.116760" lon="5.191869">
        <ele>336.37793</ele>
        <time>2021-06-30T19:11:47Z</time>
      </trkpt>
      <trkpt lat="44.116730" lon="5.191831">
        <ele>336.77692</ele>
        <time>2021-06-30T19:11:48Z</time>
      </trkpt>
      <trkpt lat="44.116688" lon="5.191784">
        <ele>335.89038</ele>
        <time>2021-06-30T19:11:48Z</time>
      </trkpt>
      <trkpt lat="44.116550" lon="5.191631">
        <ele>336.50244</ele>
        <time>2021-06-30T19:11:50Z</time>
      </trkpt>
      <trkpt lat="44.116447" lon="5.191532">
        <ele>336.01965</ele>
        <time>2021-06-30T19:11:50Z</time>
      </trkpt>
      <trkpt lat="44.116344" lon="5.191434">
        <ele>335.57446</ele>
        <time>2021-06-30T19:11:52Z</time>
      </trkpt>
      <trkpt lat="44.116234" lon="5.191297">
        <ele>334.75372</ele>
        <time>2021-06-30T19:11:52Z</time>
      </trkpt>
      <trkpt lat="44.116234" lon="5.191297">
        <ele>335.19922</ele>
        <time>2021-06-30T19:11:53Z</time>
      </trkpt>
      <trkpt lat="44.116096" lon="5.191116">
        <ele>334.09125</ele>
        <time>2021-06-30T19:11:55Z</time>
      </trkpt>
      <trkpt lat="44.115944" lon="5.190948">
        <ele>333.32758</ele>
        <time>2021-06-30T19:11:56Z</time>
      </trkpt>
      <trkpt lat="44.115768" lon="5.190761">
        <ele>332.29993</ele>
        <time>2021-06-30T19:11:56Z</time>
      </trkpt>
      <trkpt lat="44.115620" lon="5.190595">
        <ele>331.26282</ele>
        <time>2021-06-30T19:11:58Z</time>
      </trkpt>
      <trkpt lat="44.115433" lon="5.190391">
        <ele>331.16302</ele>
        <time>2021-06-30T19:11:58Z</time>
      </trkpt>
      <trkpt lat="44.115269" lon="5.190207">
        <ele>328.82288</ele>
        <time>2021-06-30T19:12:00Z</time>
      </trkpt>
      <trkpt lat="44.115128" lon="5.190050">
        <ele>328.53119</ele>
        <time>2021-06-30T19:12:01Z</time>
      </trkpt>
      <trkpt lat="44.114998" lon="5.189890">
        <ele>328.72070</ele>
        <time>2021-06-30T19:12:01Z</time>
      </trkpt>
      <trkpt lat="44.114864" lon="5.189692">
        <ele>328.82367</ele>
        <time>2021-06-30T19:12:02Z</time>
      </trkpt>
      <trkpt lat="44.114754" lon="5.189512">
        <ele>328.94458</ele>
        <time>2021-06-30T19:12:04Z</time>
      </trkpt>
      <trkpt lat="44.114670" lon="5.189313">
        <ele>328.90424</ele>
        <time>2021-06-30T19:12:05Z</time>
      </trkpt>
      <trkpt lat="44.114605" lon="5.189079">
        <ele>328.80780</ele>
        <time>2021-06-30T19:12:06Z</time>
      </trkpt>
      <trkpt lat="44.114532" lon="5.188840">
        <ele>328.53809</ele>
        <time>2021-06-30T19:12:06Z</time>
      </trkpt>
      <trkpt lat="44.114460" lon="5.188606">
        <ele>328.55499</ele>
        <time>2021-06-30T19:12:07Z</time>
      </trkpt>
      <trkpt lat="44.114460" lon="5.188606">
        <ele>328.21460</ele>
        <time>2021-06-30T19:12:08Z</time>
      </trkpt>
      <trkpt lat="44.114304" lon="5.188130">
        <ele>327.67822</ele>
        <time>2021-06-30T19:12:10Z</time>
      </trkpt>
      <trkpt lat="44.114304" lon="5.188130">
        <ele>328.00171</ele>
        <time>2021-06-30T19:12:11Z</time>
      </trkpt>
      <trkpt lat="44.114231" lon="5.187930">
        <ele>326.89478</ele>
        <time>2021-06-30T19:12:12Z</time>
      </trkpt>
      <trkpt lat="44.114155" lon="5.187750">
        <ele>326.35205</ele>
        <time>2021-06-30T19:12:13Z</time>
      </trkpt>
      <trkpt lat="44.114044" lon="5.187571">
        <ele>325.81317</ele>
        <time>2021-06-30T19:12:13Z</time>
      </trkpt>
      <trkpt lat="44.113922" lon="5.187376">
        <ele>325.97437</ele>
        <time>2021-06-30T19:12:15Z</time>
      </trkpt>
      <trkpt lat="44.113770" lon="5.187171">
        <ele>325.76685</ele>
        <time>2021-06-30T19:12:16Z</time>
      </trkpt>
      <trkpt lat="44.113609" lon="5.186986">
        <ele>324.25079</ele>
        <time>2021-06-30T19:12:17Z</time>
      </trkpt>
      <trkpt lat="44.113468" lon="5.186819">
        <ele>324.31909</ele>
        <time>2021-06-30T19:12:18Z</time>
      </trkpt>
      <trkpt lat="44.113308" lon="5.186602">
        <ele>323.38318</ele>
        <time>2021-06-30T19:12:19Z</time>
      </trkpt>
      <trkpt lat="44.113129" lon="5.186363">
        <ele>322.59406</ele>
        <time>2021-06-30T19:12:19Z</time>
      </trkpt>
      <trkpt lat="44.112961" lon="5.186154">
        <ele>320.28137</ele>
        <time>2021-06-30T19:12:20Z</time>
      </trkpt>
      <trkpt lat="44.112816" lon="5.185972">
        <ele>319.15906</ele>
        <time>2021-06-30T19:12:22Z</time>
      </trkpt>
      <trkpt lat="44.112690" lon="5.185782">
        <ele>317.34241</ele>
        <time>2021-06-30T19:12:23Z</time>
      </trkpt>
      <trkpt lat="44.112587" lon="5.185575">
        <ele>316.86987</ele>
        <time>2021-06-30T19:12:24Z</time>
      </trkpt>
      <trkpt lat="44.112473" lon="5.185312">
        <ele>315.85669</ele>
        <time>2021-06-30T19:12:25Z</time>
      </trkpt>
      <trkpt lat="44.112473" lon="5.185312">
        <ele>315.23999</ele>
        <time>2021-06-30T19:12:25Z</time>
      </trkpt>
      <trkpt lat="44.112347" lon="5.184947">
        <ele>315.35498</ele>
        <time>2021-06-30T19:12:26Z</time>
      </trkpt>
      <trkpt lat="44.112255" lon="5.184632">
        <ele>314.79755</ele>
        <time>2021-06-30T19:12:27Z</time>
      </trkpt>
      <trkpt lat="44.112152" lon="5.184334">
        <ele>315.13202</ele>
        <time>2021-06-30T19:12:29Z</time>
      </trkpt>
      <trkpt lat="44.112080" lon="5.184115">
        <ele>313.06543</ele>
        <time>2021-06-30T19:12:30Z</time>
      </trkpt>
      <trkpt lat="44.112007" lon="5.183906">
        <ele>313.06940</ele>
        <time>2021-06-30T19:12:31Z</time>
      </trkpt>
      <trkpt lat="44.111931" lon="5.183725">
        <ele>312.35687</ele>
        <time>2021-06-30T19:12:32Z</time>
      </trkpt>
      <trkpt lat="44.111809" lon="5.183455">
        <ele>312.05603</ele>
        <time>2021-06-30T19:12:32Z</time>
      </trkpt>
      <trkpt lat="44.111691" lon="5.183198">
        <ele>310.43591</ele>
        <time>2021-06-30T19:12:33Z</time>
      </trkpt>
      <trkpt lat="44.111584" lon="5.182970">
        <ele>309.10840</ele>
        <time>2021-06-30T19:12:35Z</time>
      </trkpt>
      <trkpt lat="44.111443" lon="5.182699">
        <ele>307.50287</ele>
        <time>2021-06-30T19:12:36Z</time>
      </trkpt>
      <trkpt lat="44.111443" lon="5.182699">
        <ele>305.41211</ele>
        <time>2021-06-30T19:12:36Z</time>
      </trkpt>
      <trkpt lat="44.111332" lon="5.182487">
        <ele>304.83008</ele>
        <time>2021-06-30T19:12:38Z</time>
      </trkpt>
      <trkpt lat="44.111229" lon="5.182298">
        <ele>304.31763</ele>
        <time>2021-06-30T19:12:39Z</time>
      </trkpt>
      <trkpt lat="44.111095" lon="5.182066">
        <ele>303.42932</ele>
        <time>2021-06-30T19:12:40Z</time>
      </trkpt>
      <trkpt lat="44.110973" lon="5.181833">
        <ele>302.06653</ele>
        <time>2021-06-30T19:12:40Z</time>
      </trkpt>
      <trkpt lat="44.110874" lon="5.181560">
        <ele>301.46423</ele>
        <time>2021-06-30T19:12:41Z</time>
      </trkpt>
      <trkpt lat="44.110798" lon="5.181310">
        <ele>302.30676</ele>
        <time>2021-06-30T19:12:43Z</time>
      </trkpt>
      <trkpt lat="44.110706" lon="5.181040">
        <ele>302.13940</ele>
        <time>2021-06-30T19:12:43Z</time>
      </trkpt>
      <trkpt lat="44.110603" lon="5.180763">
        <ele>301.97046</ele>
        <time>2021-06-30T19:12:45Z</time>
      </trkpt>
      <trkpt lat="44.110493" lon="5.180464">
        <ele>301.38110</ele>
        <time>2021-06-30T19:12:46Z</time>
      </trkpt>
      <trkpt lat="44.110394" lon="5.180181">
        <ele>300.90692</ele>
        <time>2021-06-30T19:12:47Z</time>
      </trkpt>
      <trkpt lat="44.110317" lon="5.179976">
        <ele>300.51404</ele>
        <time>2021-06-30T19:12:48Z</time>
      </trkpt>
      <trkpt lat="44.110268" lon="5.179761">
        <ele>300.87134</ele>
        <time>2021-06-30T19:12:49Z</time>
      </trkpt>
      <trkpt lat="44.110271" lon="5.179576">
        <ele>299.43176</ele>
        <time>2021-06-30T19:12:49Z</time>
      </trkpt>
      <trkpt lat="44.110271" lon="5.179576">
        <ele>298.81873</ele>
        <time>2021-06-30T19:12:51Z</time>
      </trkpt>
      <trkpt lat="44.110306" lon="5.179314">
        <ele>299.57703</ele>
        <time>2021-06-30T19:12:51Z</time>
      </trkpt>
      <trkpt lat="44.110291" lon="5.179107">
        <ele>297.61322</ele>
        <time>2021-06-30T19:12:53Z</time>
      </trkpt>
      <trkpt lat="44.110237" lon="5.178915">
        <ele>297.36719</ele>
        <time>2021-06-30T19:12:53Z</time>
      </trkpt>
      <trkpt lat="44.110168" lon="5.178729">
        <ele>295.83801</ele>
        <time>2021-06-30T19:12:54Z</time>
      </trkpt>
      <trkpt lat="44.110092" lon="5.178537">
        <ele>295.79907</ele>
        <time>2021-06-30T19:12:55Z</time>
      </trkpt>
      <trkpt lat="44.110004" lon="5.178336">
        <ele>295.32660</ele>
        <time>2021-06-30T19:12:56Z</time>
      </trkpt>
      <trkpt lat="44.109924" lon="5.178164">
        <ele>293.46826</ele>
        <time>2021-06-30T19:12:58Z</time>
      </trkpt>
      <trkpt lat="44.109856" lon="5.178007">
        <ele>292.75452</ele>
        <time>2021-06-30T19:12:59Z</time>
      </trkpt>
      <trkpt lat="44.109783" lon="5.177849">
        <ele>292.23029</ele>
        <time>2021-06-30T19:13:00Z</time>
      </trkpt>
      <trkpt lat="44.109715" lon="5.177701">
        <ele>291.42682</ele>
        <time>2021-06-30T19:13:01Z</time>
      </trkpt>
      <trkpt lat="44.109661" lon="5.177581">
        <ele>291.16858</ele>
        <time>2021-06-30T19:13:02Z</time>
      </trkpt>
      <trkpt lat="44.109604" lon="5.177480">
        <ele>291.13538</ele>
        <time>2021-06-30T19:13:03Z</time>
      </trkpt>
      <trkpt lat="44.109547" lon="5.177370">
        <ele>290.69666</ele>
        <time>2021-06-30T19:13:03Z</time>
      </trkpt>
      <trkpt lat="44.109489" lon="5.177271">
        <ele>290.99573</ele>
        <time>2021-06-30T19:13:05Z</time>
      </trkpt>
      <trkpt lat="44.109489" lon="5.177271">
        <ele>291.04028</ele>
        <time>2021-06-30T19:13:05Z</time>
      </trkpt>
      <trkpt lat="44.109432" lon="5.177166">
        <ele>290.12659</ele>
        <time>2021-06-30T19:13:06Z</time>
      </trkpt>
      <trkpt lat="44.109394" lon="5.177096">
        <ele>289.12415</ele>
        <time>2021-06-30T19:13:07Z</time>
      </trkpt>
      <trkpt lat="44.109364" lon="5.177044">
        <ele>288.97473</ele>
        <time>2021-06-30T19:13:08Z</time>
      </trkpt>
      <trkpt lat="44.109337" lon="5.176995">
        <ele>288.69727</ele>
        <time>2021-06-30T19:13:09Z</time>
      </trkpt>
      <trkpt lat="44.109303" lon="5.176940">
        <ele>287.82068</ele>
        <time>2021-06-30T19:13:11Z</time>
      </trkpt>
      <trkpt lat="44.109310" lon="5.176849">
        <ele>287.31085</ele>
        <time>2021-06-30T19:13:11Z</time>
      </trkpt>
      <trkpt lat="44.109459" lon="5.176679">
        <ele>286.49463</ele>
        <time>2021-06-30T19:13:13Z</time>
      </trkpt>
      <trkpt lat="44.109470" lon="5.176593">
        <ele>287.04724</ele>
        <time>2021-06-30T19:13:13Z</time>
      </trkpt>
      <trkpt lat="44.109463" lon="5.176510">
        <ele>287.35400</ele>
        <time>2021-06-30T19:13:14Z</time>
      </trkpt>
      <trkpt lat="44.109409" lon="5.176371">
        <ele>286.86267</ele>
        <time>2021-06-30T19:13:15Z</time>
      </trkpt>
      <trkpt lat="44.109341" lon="5.176311">
        <ele>286.61395</ele>
        <time>2021-06-30T19:13:17Z</time>
      </trkpt>
      <trkpt lat="44.109341" lon="5.176311">
        <ele>287.55725</ele>
        <time>2021-06-30T19:13:17Z</time>
      </trkpt>
      <trkpt lat="44.109245" lon="5.176294">
        <ele>287.67792</ele>
        <time>2021-06-30T19:13:18Z</time>
      </trkpt>
      <trkpt lat="44.109112" lon="5.176258">
        <ele>287.80505</ele>
        <time>2021-06-30T19:13:20Z</time>
      </trkpt>
      <trkpt lat="44.108967" lon="5.176143">
        <ele>286.45996</ele>
        <time>2021-06-30T19:13:21Z</time>
      </trkpt>
      <trkpt lat="44.108768" lon="5.175952">
        <ele>286.25610</ele>
        <time>2021-06-30T19:13:22Z</time>
      </trkpt>
      <trkpt lat="44.108597" lon="5.175821">
        <ele>285.58789</ele>
        <time>2021-06-30T19:13:22Z</time>
      </trkpt>
      <trkpt lat="44.108421" lon="5.175635">
        <ele>285.25055</ele>
        <time>2021-06-30T19:13:23Z</time>
      </trkpt>
      <trkpt lat="44.108280" lon="5.175480">
        <ele>284.78156</ele>
        <time>2021-06-30T19:13:25Z</time>
      </trkpt>
      <trkpt lat="44.108017" lon="5.175184">
        <ele>283.93323</ele>
        <time>2021-06-30T19:13:26Z</time>
      </trkpt>
      <trkpt lat="44.107822" lon="5.174968">
        <ele>283.29651</ele>
        <time>2021-06-30T19:13:26Z</time>
      </trkpt>
      <trkpt lat="44.107616" lon="5.174766">
        <ele>282.29724</ele>
        <time>2021-06-30T19:13:28Z</time>
      </trkpt>
      <trkpt lat="44.107380" lon="5.174531">
        <ele>281.77563</ele>
        <time>2021-06-30T19:13:29Z</time>
      </trkpt>
      <trkpt lat="44.107147" lon="5.174301">
        <ele>281.10339</ele>
        <time>2021-06-30T19:13:30Z</time>
      </trkpt>
      <trkpt lat="44.106915" lon="5.174071">
        <ele>280.54596</ele>
        <time>2021-06-30T19:13:31Z</time>
      </trkpt>
      <trkpt lat="44.106720" lon="5.173877">
        <ele>280.73535</ele>
        <time>2021-06-30T19:13:32Z</time>
      </trkpt>
      <trkpt lat="44.106552" lon="5.173663">
        <ele>279.53638</ele>
        <time>2021-06-30T19:13:33Z</time>
      </trkpt>
      <trkpt lat="44.106361" lon="5.173418">
        <ele>278.54791</ele>
        <time>2021-06-30T19:13:34Z</time>
      </trkpt>
      <trkpt lat="44.106361" lon="5.173418">
        <ele>277.93408</ele>
        <time>2021-06-30T19:13:35Z</time>
      </trkpt>
      <trkpt lat="44.106194" lon="5.173189">
        <ele>278.12952</ele>
        <time>2021-06-30T19:13:36Z</time>
      </trkpt>
      <trkpt lat="44.106033" lon="5.172947">
        <ele>276.31335</ele>
        <time>2021-06-30T19:13:37Z</time>
      </trkpt>
      <trkpt lat="44.105896" lon="5.172638">
        <ele>275.52380</ele>
        <time>2021-06-30T19:13:38Z</time>
      </trkpt>
      <trkpt lat="44.105808" lon="5.172267">
        <ele>275.21643</ele>
        <time>2021-06-30T19:13:39Z</time>
      </trkpt>
      <trkpt lat="44.105747" lon="5.171903">
        <ele>274.04358</ele>
        <time>2021-06-30T19:13:40Z</time>
      </trkpt>
      <trkpt lat="44.105698" lon="5.171512">
        <ele>273.76288</ele>
        <time>2021-06-30T19:13:41Z</time>
      </trkpt>
      <trkpt lat="44.105671" lon="5.171164">
        <ele>271.03113</ele>
        <time>2021-06-30T19:13:41Z</time>
      </trkpt>
      <trkpt lat="44.105671" lon="5.170772">
        <ele>270.57129</ele>
        <time>2021-06-30T19:13:43Z</time>
      </trkpt>
      <trkpt lat="44.105675" lon="5.170430">
        <ele>267.65271</ele>
        <time>2021-06-30T19:13:44Z</time>
      </trkpt>
      <trkpt lat="44.105682" lon="5.170063">
        <ele>268.06360</ele>
        <time>2021-06-30T19:13:45Z</time>
      </trkpt>
      <trkpt lat="44.105701" lon="5.169686">
        <ele>266.21606</ele>
        <time>2021-06-30T19:13:46Z</time>
      </trkpt>
      <trkpt lat="44.105732" lon="5.169266">
        <ele>266.01355</ele>
        <time>2021-06-30T19:13:47Z</time>
      </trkpt>
      <trkpt lat="44.105778" lon="5.168871">
        <ele>266.32776</ele>
        <time>2021-06-30T19:13:48Z</time>
      </trkpt>
      <trkpt lat="44.105804" lon="5.168472">
        <ele>265.47058</ele>
        <time>2021-06-30T19:13:48Z</time>
      </trkpt>
      <trkpt lat="44.105831" lon="5.168061">
        <ele>263.90356</ele>
        <time>2021-06-30T19:13:50Z</time>
      </trkpt>
      <trkpt lat="44.105846" lon="5.167685">
        <ele>263.34814</ele>
        <time>2021-06-30T19:13:51Z</time>
      </trkpt>
      <trkpt lat="44.105865" lon="5.167300">
        <ele>262.27356</ele>
        <time>2021-06-30T19:13:52Z</time>
      </trkpt>
      <trkpt lat="44.105877" lon="5.166905">
        <ele>261.52509</ele>
        <time>2021-06-30T19:13:53Z</time>
      </trkpt>
      <trkpt lat="44.105881" lon="5.166480">
        <ele>261.29846</ele>
        <time>2021-06-30T19:13:54Z</time>
      </trkpt>
      <trkpt lat="44.105881" lon="5.166480">
        <ele>260.74646</ele>
        <time>2021-06-30T19:13:55Z</time>
      </trkpt>
      <trkpt lat="44.105881" lon="5.166097">
        <ele>259.50464</ele>
        <time>2021-06-30T19:13:55Z</time>
      </trkpt>
      <trkpt lat="44.105881" lon="5.165751">
        <ele>259.97644</ele>
        <time>2021-06-30T19:13:56Z</time>
      </trkpt>
      <trkpt lat="44.105873" lon="5.165372">
        <ele>259.12842</ele>
        <time>2021-06-30T19:13:58Z</time>
      </trkpt>
      <trkpt lat="44.105850" lon="5.165004">
        <ele>258.72192</ele>
        <time>2021-06-30T19:13:58Z</time>
      </trkpt>
      <trkpt lat="44.105812" lon="5.164556">
        <ele>258.26794</ele>
        <time>2021-06-30T19:14:00Z</time>
      </trkpt>
      <trkpt lat="44.105747" lon="5.164107">
        <ele>257.71698</ele>
        <time>2021-06-30T19:14:00Z</time>
      </trkpt>
      <trkpt lat="44.105694" lon="5.163717">
        <ele>257.29797</ele>
        <time>2021-06-30T19:14:02Z</time>
      </trkpt>
      <trkpt lat="44.105637" lon="5.163308">
        <ele>257.18762</ele>
        <time>2021-06-30T19:14:03Z</time>
      </trkpt>
      <trkpt lat="44.105579" lon="5.162905">
        <ele>255.93286</ele>
        <time>2021-06-30T19:14:03Z</time>
      </trkpt>
      <trkpt lat="44.105522" lon="5.162500">
        <ele>254.72449</ele>
        <time>2021-06-30T19:14:05Z</time>
      </trkpt>
      <trkpt lat="44.105469" lon="5.162108">
        <ele>252.81030</ele>
        <time>2021-06-30T19:14:06Z</time>
      </trkpt>
      <trkpt lat="44.105469" lon="5.162108">
        <ele>252.47998</ele>
        <time>2021-06-30T19:14:06Z</time>
      </trkpt>
      <trkpt lat="44.105408" lon="5.161696">
        <ele>252.04736</ele>
        <time>2021-06-30T19:14:08Z</time>
      </trkpt>
      <trkpt lat="44.105358" lon="5.161315">
        <ele>250.26270</ele>
        <time>2021-06-30T19:14:08Z</time>
      </trkpt>
      <trkpt lat="44.105305" lon="5.160892">
        <ele>248.57483</ele>
        <time>2021-06-30T19:14:10Z</time>
      </trkpt>
      <trkpt lat="44.105255" lon="5.160520">
        <ele>246.34149</ele>
        <time>2021-06-30T19:14:10Z</time>
      </trkpt>
      <trkpt lat="44.105156" lon="5.160134">
        <ele>246.20728</ele>
        <time>2021-06-30T19:14:11Z</time>
      </trkpt>
      <trkpt lat="44.104996" lon="5.159811">
        <ele>246.08057</ele>
        <time>2021-06-30T19:14:12Z</time>
      </trkpt>
      <trkpt lat="44.104797" lon="5.159466">
        <ele>246.58960</ele>
        <time>2021-06-30T19:14:14Z</time>
      </trkpt>
      <trkpt lat="44.104626" lon="5.159156">
        <ele>246.86859</ele>
        <time>2021-06-30T19:14:15Z</time>
      </trkpt>
      <trkpt lat="44.104504" lon="5.158910">
        <ele>246.69592</ele>
        <time>2021-06-30T19:14:16Z</time>
      </trkpt>
      <trkpt lat="44.104366" lon="5.158645">
        <ele>247.01013</ele>
        <time>2021-06-30T19:14:17Z</time>
      </trkpt>
      <trkpt lat="44.104244" lon="5.158400">
        <ele>246.42255</ele>
        <time>2021-06-30T19:14:18Z</time>
      </trkpt>
      <trkpt lat="44.104168" lon="5.158164">
        <ele>247.07935</ele>
        <time>2021-06-30T19:14:19Z</time>
      </trkpt>
      <trkpt lat="44.104107" lon="5.157938">
        <ele>247.87402</ele>
        <time>2021-06-30T19:14:19Z</time>
      </trkpt>
      <trkpt lat="44.104061" lon="5.157662">
        <ele>248.28345</ele>
        <time>2021-06-30T19:14:21Z</time>
      </trkpt>
      <trkpt lat="44.104053" lon="5.157372">
        <ele>248.11322</ele>
        <time>2021-06-30T19:14:22Z</time>
      </trkpt>
      <trkpt lat="44.104053" lon="5.157372">
        <ele>246.57019</ele>
        <time>2021-06-30T19:14:23Z</time>
      </trkpt>
      <trkpt lat="44.104050" lon="5.157061">
        <ele>246.83478</ele>
        <time>2021-06-30T19:14:23Z</time>
      </trkpt>
      <trkpt lat="44.104050" lon="5.156812">
        <ele>247.04260</ele>
        <time>2021-06-30T19:14:25Z</time>
      </trkpt>
      <trkpt lat="44.104027" lon="5.156521">
        <ele>246.43677</ele>
        <time>2021-06-30T19:14:26Z</time>
      </trkpt>
      <trkpt lat="44.104004" lon="5.156289">
        <ele>246.97058</ele>
        <time>2021-06-30T19:14:27Z</time>
      </trkpt>
      <trkpt lat="44.103973" lon="5.156045">
        <ele>246.60175</ele>
        <time>2021-06-30T19:14:28Z</time>
      </trkpt>
      <trkpt lat="44.103931" lon="5.155794">
        <ele>245.96741</ele>
        <time>2021-06-30T19:14:28Z</time>
      </trkpt>
      <trkpt lat="44.103863" lon="5.155551">
        <ele>245.65948</ele>
        <time>2021-06-30T19:14:30Z</time>
      </trkpt>
      <trkpt lat="44.103802" lon="5.155305">
        <ele>245.73163</ele>
        <time>2021-06-30T19:14:30Z</time>
      </trkpt>
      <trkpt lat="44.103745" lon="5.155061">
        <ele>245.31921</ele>
        <time>2021-06-30T19:14:32Z</time>
      </trkpt>
      <trkpt lat="44.103680" lon="5.154792">
        <ele>244.86102</ele>
        <time>2021-06-30T19:14:32Z</time>
      </trkpt>
      <trkpt lat="44.103626" lon="5.154553">
        <ele>242.87012</ele>
        <time>2021-06-30T19:14:33Z</time>
      </trkpt>
      <trkpt lat="44.103626" lon="5.154553">
        <ele>241.59222</ele>
        <time>2021-06-30T19:14:35Z</time>
      </trkpt>
      <trkpt lat="44.103600" lon="5.154249">
        <ele>241.13513</ele>
        <time>2021-06-30T19:14:35Z</time>
      </trkpt>
      <trkpt lat="44.103607" lon="5.153814">
        <ele>240.63696</ele>
        <time>2021-06-30T19:14:37Z</time>
      </trkpt>
      <trkpt lat="44.103645" lon="5.153460">
        <ele>241.87292</ele>
        <time>2021-06-30T19:14:38Z</time>
      </trkpt>
      <trkpt lat="44.103687" lon="5.153084">
        <ele>239.55042</ele>
        <time>2021-06-30T19:14:39Z</time>
      </trkpt>
      <trkpt lat="44.103725" lon="5.152804">
        <ele>239.30383</ele>
        <time>2021-06-30T19:14:40Z</time>
      </trkpt>
      <trkpt lat="44.103756" lon="5.152523">
        <ele>238.50781</ele>
        <time>2021-06-30T19:14:40Z</time>
      </trkpt>
      <trkpt lat="44.103771" lon="5.152225">
        <ele>238.80554</ele>
        <time>2021-06-30T19:14:42Z</time>
      </trkpt>
      <trkpt lat="44.103775" lon="5.151897">
        <ele>238.21338</ele>
        <time>2021-06-30T19:14:42Z</time>
      </trkpt>
      <trkpt lat="44.103752" lon="5.151580">
        <ele>237.40869</ele>
        <time>2021-06-30T19:14:43Z</time>
      </trkpt>
      <trkpt lat="44.103729" lon="5.151270">
        <ele>236.38550</ele>
        <time>2021-06-30T19:14:45Z</time>
      </trkpt>
      <trkpt lat="44.103699" lon="5.151015">
        <ele>235.72852</ele>
        <time>2021-06-30T19:14:46Z</time>
      </trkpt>
      <trkpt lat="44.103672" lon="5.150715">
        <ele>235.90540</ele>
        <time>2021-06-30T19:14:47Z</time>
      </trkpt>
      <trkpt lat="44.103672" lon="5.150715">
        <ele>235.85944</ele>
        <time>2021-06-30T19:14:48Z</time>
      </trkpt>
      <trkpt lat="44.103649" lon="5.150458">
        <ele>235.06390</ele>
        <time>2021-06-30T19:14:48Z</time>
      </trkpt>
      <trkpt lat="44.103634" lon="5.150243">
        <ele>234.60907</ele>
        <time>2021-06-30T19:14:50Z</time>
      </trkpt>
      <trkpt lat="44.103611" lon="5.150002">
        <ele>234.58704</ele>
        <time>2021-06-30T19:14:50Z</time>
      </trkpt>
      <trkpt lat="44.103584" lon="5.149717">
        <ele>233.78760</ele>
        <time>2021-06-30T19:14:52Z</time>
      </trkpt>
      <trkpt lat="44.103554" lon="5.149400">
        <ele>233.85010</ele>
        <time>2021-06-30T19:14:53Z</time>
      </trkpt>
      <trkpt lat="44.103531" lon="5.149127">
        <ele>234.81024</ele>
        <time>2021-06-30T19:14:53Z</time>
      </trkpt>
      <trkpt lat="44.103523" lon="5.148853">
        <ele>234.90015</ele>
        <time>2021-06-30T19:14:55Z</time>
      </trkpt>
      <trkpt lat="44.103531" lon="5.148646">
        <ele>234.13745</ele>
        <time>2021-06-30T19:14:56Z</time>
      </trkpt>
      <trkpt lat="44.103542" lon="5.148351">
        <ele>233.55725</ele>
        <time>2021-06-30T19:14:57Z</time>
      </trkpt>
      <trkpt lat="44.103615" lon="5.148114">
        <ele>232.67609</ele>
        <time>2021-06-30T19:14:58Z</time>
      </trkpt>
      <trkpt lat="44.103741" lon="5.147870">
        <ele>233.06158</ele>
        <time>2021-06-30T19:14:58Z</time>
      </trkpt>
      <trkpt lat="44.103809" lon="5.147685">
        <ele>232.23010</ele>
        <time>2021-06-30T19:14:59Z</time>
      </trkpt>
      <trkpt lat="44.103809" lon="5.147685">
        <ele>231.61987</ele>
        <time>2021-06-30T19:15:00Z</time>
      </trkpt>
      <trkpt lat="44.103897" lon="5.147465">
        <ele>230.82642</ele>
        <time>2021-06-30T19:15:01Z</time>
      </trkpt>
      <trkpt lat="44.103970" lon="5.147273">
        <ele>228.84717</ele>
        <time>2021-06-30T19:15:03Z</time>
      </trkpt>
      <trkpt lat="44.104042" lon="5.147084">
        <ele>228.98938</ele>
        <time>2021-06-30T19:15:04Z</time>
      </trkpt>
      <trkpt lat="44.104092" lon="5.146942">
        <ele>229.20288</ele>
        <time>2021-06-30T19:15:05Z</time>
      </trkpt>
      <trkpt lat="44.104111" lon="5.146812">
        <ele>227.78137</ele>
        <time>2021-06-30T19:15:05Z</time>
      </trkpt>
      <trkpt lat="44.104107" lon="5.146648">
        <ele>226.99982</ele>
        <time>2021-06-30T19:15:06Z</time>
      </trkpt>
      <trkpt lat="44.104080" lon="5.146484">
        <ele>226.55774</ele>
        <time>2021-06-30T19:15:08Z</time>
      </trkpt>
      <trkpt lat="44.104046" lon="5.146338">
        <ele>227.26251</ele>
        <time>2021-06-30T19:15:09Z</time>
      </trkpt>
      <trkpt lat="44.104004" lon="5.146201">
        <ele>228.95911</ele>
        <time>2021-06-30T19:15:10Z</time>
      </trkpt>
      <trkpt lat="44.103954" lon="5.146112">
        <ele>229.83203</ele>
        <time>2021-06-30T19:15:11Z</time>
      </trkpt>
      <trkpt lat="44.103874" lon="5.146035">
        <ele>227.63281</ele>
        <time>2021-06-30T19:15:11Z</time>
      </trkpt>
      <trkpt lat="44.103790" lon="5.145971">
        <ele>227.44604</ele>
        <time>2021-06-30T19:15:13Z</time>
      </trkpt>
      <trkpt lat="44.103668" lon="5.145920">
        <ele>227.23370</ele>
        <time>2021-06-30T19:15:13Z</time>
      </trkpt>
      <trkpt lat="44.103523" lon="5.145867">
        <ele>226.96509</ele>
        <time>2021-06-30T19:15:15Z</time>
      </trkpt>
      <trkpt lat="44.103340" lon="5.145865">
        <ele>227.59692</ele>
        <time>2021-06-30T19:15:15Z</time>
      </trkpt>
      <trkpt lat="44.103340" lon="5.145865">
        <ele>227.37354</ele>
        <time>2021-06-30T19:15:17Z</time>
      </trkpt>
      <trkpt lat="44.103188" lon="5.145851">
        <ele>228.32434</ele>
        <time>2021-06-30T19:15:18Z</time>
      </trkpt>
      <trkpt lat="44.103024" lon="5.145832">
        <ele>227.37463</ele>
        <time>2021-06-30T19:15:18Z</time>
      </trkpt>
      <trkpt lat="44.102840" lon="5.145820">
        <ele>226.76160</ele>
        <time>2021-06-30T19:15:20Z</time>
      </trkpt>
      <trkpt lat="44.102680" lon="5.145810">
        <ele>225.85699</ele>
        <time>2021-06-30T19:15:21Z</time>
      </trkpt>
      <trkpt lat="44.102573" lon="5.145803">
        <ele>225.87354</ele>
        <time>2021-06-30T19:15:22Z</time>
      </trkpt>
      <trkpt lat="44.102482" lon="5.145797">
        <ele>226.09222</ele>
        <time>2021-06-30T19:15:22Z</time>
      </trkpt>
      <trkpt lat="44.102329" lon="5.145783">
        <ele>226.21838</ele>
        <time>2021-06-30T19:15:23Z</time>
      </trkpt>
      <trkpt lat="44.102169" lon="5.145689">
        <ele>226.52063</ele>
        <time>2021-06-30T19:15:25Z</time>
      </trkpt>
      <trkpt lat="44.102051" lon="5.145582">
        <ele>226.76196</ele>
        <time>2021-06-30T19:15:25Z</time>
      </trkpt>
      <trkpt lat="44.101898" lon="5.145445">
        <ele>226.09216</ele>
        <time>2021-06-30T19:15:27Z</time>
      </trkpt>
      <trkpt lat="44.101757" lon="5.145316">
        <ele>226.86743</ele>
        <time>2021-06-30T19:15:28Z</time>
      </trkpt>
      <trkpt lat="44.101624" lon="5.145197">
        <ele>226.35498</ele>
        <time>2021-06-30T19:15:28Z</time>
      </trkpt>
      <trkpt lat="44.101479" lon="5.145068">
        <ele>225.74609</ele>
        <time>2021-06-30T19:15:30Z</time>
      </trkpt>
      <trkpt lat="44.101326" lon="5.144930">
        <ele>225.59564</ele>
        <time>2021-06-30T19:15:30Z</time>
      </trkpt>
      <trkpt lat="44.101326" lon="5.144930">
        <ele>225.12726</ele>
        <time>2021-06-30T19:15:31Z</time>
      </trkpt>
      <trkpt lat="44.101173" lon="5.144785">
        <ele>224.84143</ele>
        <time>2021-06-30T19:15:33Z</time>
      </trkpt>
      <trkpt lat="44.101040" lon="5.144616">
        <ele>223.80554</ele>
        <time>2021-06-30T19:15:34Z</time>
      </trkpt>
      <trkpt lat="44.100929" lon="5.144434">
        <ele>223.42615</ele>
        <time>2021-06-30T19:15:35Z</time>
      </trkpt>
      <trkpt lat="44.100807" lon="5.144203">
        <ele>222.04822</ele>
        <time>2021-06-30T19:15:35Z</time>
      </trkpt>
      <trkpt lat="44.100700" lon="5.143987">
        <ele>221.60632</ele>
        <time>2021-06-30T19:15:36Z</time>
      </trkpt>
      <trkpt lat="44.100605" lon="5.143801">
        <ele>221.58777</ele>
        <time>2021-06-30T19:15:38Z</time>
      </trkpt>
      <trkpt lat="44.100510" lon="5.143637">
        <ele>221.85620</ele>
        <time>2021-06-30T19:15:39Z</time>
      </trkpt>
      <trkpt lat="44.100414" lon="5.143488">
        <ele>222.35785</ele>
        <time>2021-06-30T19:15:39Z</time>
      </trkpt>
      <trkpt lat="44.100285" lon="5.143337">
        <ele>222.85022</ele>
        <time>2021-06-30T19:15:41Z</time>
      </trkpt>
      <trkpt lat="44.100136" lon="5.143203">
        <ele>222.89758</ele>
        <time>2021-06-30T19:15:41Z</time>
      </trkpt>
      <trkpt lat="44.099949" lon="5.143055">
        <ele>221.89392</ele>
        <time>2021-06-30T19:15:43Z</time>
      </trkpt>
      <trkpt lat="44.099789" lon="5.142931">
        <ele>221.27429</ele>
        <time>2021-06-30T19:15:44Z</time>
      </trkpt>
      <trkpt lat="44.099628" lon="5.142818">
        <ele>220.96240</ele>
        <time>2021-06-30T19:15:44Z</time>
      </trkpt>
      <trkpt lat="44.099487" lon="5.142727">
        <ele>221.54114</ele>
        <time>2021-06-30T19:15:46Z</time>
      </trkpt>
      <trkpt lat="44.099487" lon="5.142727">
        <ele>219.73926</ele>
        <time>2021-06-30T19:15:47Z</time>
      </trkpt>
      <trkpt lat="44.099342" lon="5.142644">
        <ele>218.86548</ele>
        <time>2021-06-30T19:15:47Z</time>
      </trkpt>
      <trkpt lat="44.099216" lon="5.142587">
        <ele>217.78381</ele>
        <time>2021-06-30T19:15:48Z</time>
      </trkpt>
      <trkpt lat="44.099068" lon="5.142530">
        <ele>217.29895</ele>
        <time>2021-06-30T19:15:50Z</time>
      </trkpt>
      <trkpt lat="44.098904" lon="5.142480">
        <ele>217.24493</ele>
        <time>2021-06-30T19:15:51Z</time>
      </trkpt>
      <trkpt lat="44.098785" lon="5.142456">
        <ele>215.99744</ele>
        <time>2021-06-30T19:15:52Z</time>
      </trkpt>
      <trkpt lat="44.098633" lon="5.142424">
        <ele>216.36823</ele>
        <time>2021-06-30T19:15:53Z</time>
      </trkpt>
      <trkpt lat="44.098503" lon="5.142407">
        <ele>216.14282</ele>
        <time>2021-06-30T19:15:53Z</time>
      </trkpt>
      <trkpt lat="44.098366" lon="5.142391">
        <ele>215.29895</ele>
        <time>2021-06-30T19:15:55Z</time>
      </trkpt>
      <trkpt lat="44.098225" lon="5.142373">
        <ele>213.99420</ele>
        <time>2021-06-30T19:15:55Z</time>
      </trkpt>
      <trkpt lat="44.098068" lon="5.142359">
        <ele>213.01147</ele>
        <time>2021-06-30T19:15:57Z</time>
      </trkpt>
      <trkpt lat="44.097893" lon="5.142343">
        <ele>213.30212</ele>
        <time>2021-06-30T19:15:57Z</time>
      </trkpt>
      <trkpt lat="44.097752" lon="5.142330">
        <ele>211.60669</ele>
        <time>2021-06-30T19:15:59Z</time>
      </trkpt>
      <trkpt lat="44.097588" lon="5.142321">
        <ele>210.51123</ele>
        <time>2021-06-30T19:16:00Z</time>
      </trkpt>
      <trkpt lat="44.097450" lon="5.142297">
        <ele>209.39093</ele>
        <time>2021-06-30T19:16:01Z</time>
      </trkpt>
      <trkpt lat="44.097450" lon="5.142297">
        <ele>209.29370</ele>
        <time>2021-06-30T19:16:01Z</time>
      </trkpt>
      <trkpt lat="44.097324" lon="5.142248">
        <ele>209.29602</ele>
        <time>2021-06-30T19:16:02Z</time>
      </trkpt>
      <trkpt lat="44.097202" lon="5.142174">
        <ele>208.61664</ele>
        <time>2021-06-30T19:16:04Z</time>
      </trkpt>
      <trkpt lat="44.097076" lon="5.142058">
        <ele>206.92310</ele>
        <time>2021-06-30T19:16:05Z</time>
      </trkpt>
      <trkpt lat="44.096977" lon="5.141957">
        <ele>206.45520</ele>
        <time>2021-06-30T19:16:05Z</time>
      </trkpt>
      <trkpt lat="44.096897" lon="5.141863">
        <ele>206.21130</ele>
        <time>2021-06-30T19:16:07Z</time>
      </trkpt>
      <trkpt lat="44.096821" lon="5.141761">
        <ele>205.87970</ele>
        <time>2021-06-30T19:16:08Z</time>
      </trkpt>
      <trkpt lat="44.096748" lon="5.141660">
        <ele>205.38831</ele>
        <time>2021-06-30T19:16:08Z</time>
      </trkpt>
      <trkpt lat="44.096680" lon="5.141561">
        <ele>205.48071</ele>
        <time>2021-06-30T19:16:09Z</time>
      </trkpt>
      <trkpt lat="44.096615" lon="5.141468">
        <ele>205.05823</ele>
        <time>2021-06-30T19:16:11Z</time>
      </trkpt>
      <trkpt lat="44.096581" lon="5.141418">
        <ele>204.31842</ele>
        <time>2021-06-30T19:16:11Z</time>
      </trkpt>
      <trkpt lat="44.096546" lon="5.141371">
        <ele>204.32166</ele>
        <time>2021-06-30T19:16:12Z</time>
      </trkpt>
      <trkpt lat="44.096523" lon="5.141337">
        <ele>204.06549</ele>
        <time>2021-06-30T19:16:13Z</time>
      </trkpt>
      <trkpt lat="44.096470" lon="5.141265">
        <ele>203.82086</ele>
        <time>2021-06-30T19:16:15Z</time>
      </trkpt>
      <trkpt lat="44.096424" lon="5.141149">
        <ele>203.47955</ele>
        <time>2021-06-30T19:16:16Z</time>
      </trkpt>
      <trkpt lat="44.096382" lon="5.141050">
        <ele>203.56232</ele>
        <time>2021-06-30T19:16:17Z</time>
      </trkpt>
      <trkpt lat="44.096317" lon="5.140990">
        <ele>202.93268</ele>
        <time>2021-06-30T19:16:18Z</time>
      </trkpt>
      <trkpt lat="44.096272" lon="5.140976">
        <ele>202.94580</ele>
        <time>2021-06-30T19:16:19Z</time>
      </trkpt>
      <trkpt lat="44.096272" lon="5.140976">
        <ele>202.50732</ele>
        <time>2021-06-30T19:16:20Z</time>
      </trkpt>
      <trkpt lat="44.096169" lon="5.141006">
        <ele>203.38843</ele>
        <time>2021-06-30T19:16:21Z</time>
      </trkpt>
      <trkpt lat="44.096081" lon="5.141167">
        <ele>202.68298</ele>
        <time>2021-06-30T19:16:22Z</time>
      </trkpt>
      <trkpt lat="44.095886" lon="5.140807">
        <ele>201.67590</ele>
        <time>2021-06-30T19:16:23Z</time>
      </trkpt>
      <trkpt lat="44.095798" lon="5.140651">
        <ele>201.93231</ele>
        <time>2021-06-30T19:16:24Z</time>
      </trkpt>
      <trkpt lat="44.095665" lon="5.140376">
        <ele>201.26282</ele>
        <time>2021-06-30T19:16:25Z</time>
      </trkpt>
      <trkpt lat="44.095547" lon="5.140094">
        <ele>201.67615</ele>
        <time>2021-06-30T19:16:26Z</time>
      </trkpt>
      <trkpt lat="44.095444" lon="5.139849">
        <ele>202.09521</ele>
        <time>2021-06-30T19:16:27Z</time>
      </trkpt>
      <trkpt lat="44.095287" lon="5.139478">
        <ele>200.67358</ele>
        <time>2021-06-30T19:16:27Z</time>
      </trkpt>
      <trkpt lat="44.095158" lon="5.139186">
        <ele>200.22662</ele>
        <time>2021-06-30T19:16:29Z</time>
      </trkpt>
      <trkpt lat="44.095020" lon="5.138867">
        <ele>200.21301</ele>
        <time>2021-06-30T19:16:29Z</time>
      </trkpt>
      <trkpt lat="44.094902" lon="5.138576">
        <ele>199.91541</ele>
        <time>2021-06-30T19:16:30Z</time>
      </trkpt>
      <trkpt lat="44.094795" lon="5.138315">
        <ele>199.16003</ele>
        <time>2021-06-30T19:16:32Z</time>
      </trkpt>
      <trkpt lat="44.094704" lon="5.138085">
        <ele>199.04419</ele>
        <time>2021-06-30T19:16:33Z</time>
      </trkpt>
      <trkpt lat="44.094589" lon="5.137834">
        <ele>199.30591</ele>
        <time>2021-06-30T19:16:34Z</time>
      </trkpt>
      <trkpt lat="44.094479" lon="5.137588">
        <ele>198.67896</ele>
        <time>2021-06-30T19:16:35Z</time>
      </trkpt>
      <trkpt lat="44.094383" lon="5.137338">
        <ele>198.39130</ele>
        <time>2021-06-30T19:16:35Z</time>
      </trkpt>
      <trkpt lat="44.094276" lon="5.137062">
        <ele>198.68201</ele>
        <time>2021-06-30T19:16:37Z</time>
      </trkpt>
      <trkpt lat="44.094276" lon="5.137062">
        <ele>199.83136</ele>
        <time>2021-06-30T19:16:38Z</time>
      </trkpt>
      <trkpt lat="44.094185" lon="5.136707">
        <ele>198.20386</ele>
        <time>2021-06-30T19:16:39Z</time>
      </trkpt>
      <trkpt lat="44.094128" lon="5.136394">
        <ele>198.74042</ele>
        <time>2021-06-30T19:16:39Z</time>
      </trkpt>
      <trkpt lat="44.094070" lon="5.135989">
        <ele>197.97559</ele>
        <time>2021-06-30T19:16:41Z</time>
      </trkpt>
      <trkpt lat="44.094013" lon="5.135606">
        <ele>194.41864</ele>
        <time>2021-06-30T19:16:42Z</time>
      </trkpt>
      <trkpt lat="44.093941" lon="5.135258">
        <ele>194.35687</ele>
        <time>2021-06-30T19:16:43Z</time>
      </trkpt>
      <trkpt lat="44.093849" lon="5.134909">
        <ele>193.38806</ele>
        <time>2021-06-30T19:16:43Z</time>
      </trkpt>
      <trkpt lat="44.093754" lon="5.134587">
        <ele>193.97278</ele>
        <time>2021-06-30T19:16:45Z</time>
      </trkpt>
      <trkpt lat="44.093632" lon="5.134223">
        <ele>193.36395</ele>
        <time>2021-06-30T19:16:46Z</time>
      </trkpt>
      <trkpt lat="44.093468" lon="5.133795">
        <ele>192.86713</ele>
        <time>2021-06-30T19:16:46Z</time>
      </trkpt>
      <trkpt lat="44.093346" lon="5.133452">
        <ele>191.26025</ele>
        <time>2021-06-30T19:16:48Z</time>
      </trkpt>
      <trkpt lat="44.093243" lon="5.133153">
        <ele>191.56818</ele>
        <time>2021-06-30T19:16:48Z</time>
      </trkpt>
      <trkpt lat="44.093113" lon="5.132726">
        <ele>190.72162</ele>
        <time>2021-06-30T19:16:50Z</time>
      </trkpt>
      <trkpt lat="44.093040" lon="5.132354">
        <ele>190.68170</ele>
        <time>2021-06-30T19:16:51Z</time>
      </trkpt>
      <trkpt lat="44.092957" lon="5.131974">
        <ele>190.74365</ele>
        <time>2021-06-30T19:16:51Z</time>
      </trkpt>
      <trkpt lat="44.092957" lon="5.131974">
        <ele>189.03088</ele>
        <time>2021-06-30T19:16:52Z</time>
      </trkpt>
      <trkpt lat="44.092873" lon="5.131604">
        <ele>188.11090</ele>
        <time>2021-06-30T19:16:53Z</time>
      </trkpt>
      <trkpt lat="44.092781" lon="5.131280">
        <ele>187.45459</ele>
        <time>2021-06-30T19:16:55Z</time>
      </trkpt>
      <trkpt lat="44.092697" lon="5.131007">
        <ele>186.66589</ele>
        <time>2021-06-30T19:16:55Z</time>
      </trkpt>
      <trkpt lat="44.092571" lon="5.130742">
        <ele>186.57806</ele>
        <time>2021-06-30T19:16:56Z</time>
      </trkpt>
      <trkpt lat="44.092419" lon="5.130464">
        <ele>187.35004</ele>
        <time>2021-06-30T19:16:57Z</time>
      </trkpt>
      <trkpt lat="44.092213" lon="5.130160">
        <ele>185.12451</ele>
        <time>2021-06-30T19:16:59Z</time>
      </trkpt>
      <trkpt lat="44.092014" lon="5.129846">
        <ele>183.99542</ele>
        <time>2021-06-30T19:17:00Z</time>
      </trkpt>
      <trkpt lat="44.091820" lon="5.129539">
        <ele>179.62915</ele>
        <time>2021-06-30T19:17:01Z</time>
      </trkpt>
      <trkpt lat="44.091667" lon="5.129289">
        <ele>179.23511</ele>
        <time>2021-06-30T19:17:02Z</time>
      </trkpt>
      <trkpt lat="44.091515" lon="5.129038">
        <ele>179.66528</ele>
        <time>2021-06-30T19:17:03Z</time>
      </trkpt>
      <trkpt lat="44.091354" lon="5.128776">
        <ele>179.84692</ele>
        <time>2021-06-30T19:17:04Z</time>
      </trkpt>
      <trkpt lat="44.091202" lon="5.128531">
        <ele>179.53784</ele>
        <time>2021-06-30T19:17:04Z</time>
      </trkpt>
      <trkpt lat="44.091034" lon="5.128261">
        <ele>178.86279</ele>
        <time>2021-06-30T19:17:06Z</time>
      </trkpt>
      <trkpt lat="44.090855" lon="5.127991">
        <ele>178.88354</ele>
        <time>2021-06-30T19:17:07Z</time>
      </trkpt>
      <trkpt lat="44.090698" lon="5.127752">
        <ele>177.88995</ele>
        <time>2021-06-30T19:17:07Z</time>
      </trkpt>
      <trkpt lat="44.090546" lon="5.127528">
        <ele>178.59308</ele>
        <time>2021-06-30T19:17:08Z</time>
      </trkpt>
      <trkpt lat="44.090546" lon="5.127528">
        <ele>177.71063</ele>
        <time>2021-06-30T19:17:10Z</time>
      </trkpt>
      <trkpt lat="44.090393" lon="5.127310">
        <ele>177.92139</ele>
        <time>2021-06-30T19:17:10Z</time>
      </trkpt>
      <trkpt lat="44.090225" lon="5.127069">
        <ele>178.37897</ele>
        <time>2021-06-30T19:17:11Z</time>
      </trkpt>
      <trkpt lat="44.090054" lon="5.126827">
        <ele>179.00037</ele>
        <time>2021-06-30T19:17:13Z</time>
      </trkpt>
      <trkpt lat="44.089890" lon="5.126592">
        <ele>178.46423</ele>
        <time>2021-06-30T19:17:13Z</time>
      </trkpt>
      <trkpt lat="44.089722" lon="5.126376">
        <ele>179.21259</ele>
        <time>2021-06-30T19:17:14Z</time>
      </trkpt>
      <trkpt lat="44.089539" lon="5.126178">
        <ele>178.73096</ele>
        <time>2021-06-30T19:17:15Z</time>
      </trkpt>
      <trkpt lat="44.089355" lon="5.125982">
        <ele>178.58765</ele>
        <time>2021-06-30T19:17:16Z</time>
      </trkpt>
      <trkpt lat="44.089195" lon="5.125812">
        <ele>178.00922</ele>
        <time>2021-06-30T19:17:17Z</time>
      </trkpt>
      <trkpt lat="44.089066" lon="5.125672">
        <ele>177.71008</ele>
        <time>2021-06-30T19:17:18Z</time>
      </trkpt>
      <trkpt lat="44.088940" lon="5.125548">
        <ele>177.54108</ele>
        <time>2021-06-30T19:17:19Z</time>
      </trkpt>
      <trkpt lat="44.088760" lon="5.125377">
        <ele>176.08124</ele>
        <time>2021-06-30T19:17:21Z</time>
      </trkpt>
      <trkpt lat="44.088669" lon="5.125256">
        <ele>177.87592</ele>
        <time>2021-06-30T19:17:21Z</time>
      </trkpt>
      <trkpt lat="44.088528" lon="5.125042">
        <ele>177.29443</ele>
        <time>2021-06-30T19:17:22Z</time>
      </trkpt>
      <trkpt lat="44.088387" lon="5.124826">
        <ele>177.69427</ele>
        <time>2021-06-30T19:17:23Z</time>
      </trkpt>
      <trkpt lat="44.088272" lon="5.124618">
        <ele>177.42273</ele>
        <time>2021-06-30T19:17:25Z</time>
      </trkpt>
      <trkpt lat="44.088272" lon="5.124618">
        <ele>178.07623</ele>
        <time>2021-06-30T19:17:26Z</time>
      </trkpt>
      <trkpt lat="44.088142" lon="5.124370">
        <ele>178.08447</ele>
        <time>2021-06-30T19:17:26Z</time>
      </trkpt>
      <trkpt lat="44.088024" lon="5.124139">
        <ele>177.31769</ele>
        <time>2021-06-30T19:17:27Z</time>
      </trkpt>
      <trkpt lat="44.087917" lon="5.123923">
        <ele>177.06641</ele>
        <time>2021-06-30T19:17:29Z</time>
      </trkpt>
      <trkpt lat="44.087811" lon="5.123721">
        <ele>177.47424</ele>
        <time>2021-06-30T19:17:30Z</time>
      </trkpt>
      <trkpt lat="44.087708" lon="5.123523">
        <ele>177.53241</ele>
        <time>2021-06-30T19:17:30Z</time>
      </trkpt>
      <trkpt lat="44.087601" lon="5.123326">
        <ele>177.87646</ele>
        <time>2021-06-30T19:17:31Z</time>
      </trkpt>
      <trkpt lat="44.087486" lon="5.123144">
        <ele>177.05713</ele>
        <time>2021-06-30T19:17:33Z</time>
      </trkpt>
      <trkpt lat="44.087372" lon="5.122968">
        <ele>175.91980</ele>
        <time>2021-06-30T19:17:34Z</time>
      </trkpt>
      <trkpt lat="44.087292" lon="5.122848">
        <ele>174.70642</ele>
        <time>2021-06-30T19:17:34Z</time>
      </trkpt>
      <trkpt lat="44.087181" lon="5.122682">
        <ele>170.81158</ele>
        <time>2021-06-30T19:17:36Z</time>
      </trkpt>
      <trkpt lat="44.087112" lon="5.122581">
        <ele>169.59839</ele>
        <time>2021-06-30T19:17:37Z</time>
      </trkpt>
      <trkpt lat="44.087036" lon="5.122467">
        <ele>169.59393</ele>
        <time>2021-06-30T19:17:38Z</time>
      </trkpt>
      <trkpt lat="44.086967" lon="5.122363">
        <ele>169.33734</ele>
        <time>2021-06-30T19:17:39Z</time>
      </trkpt>
      <trkpt lat="44.086891" lon="5.122251">
        <ele>169.50128</ele>
        <time>2021-06-30T19:17:39Z</time>
      </trkpt>
      <trkpt lat="44.086823" lon="5.122121">
        <ele>169.67572</ele>
        <time>2021-06-30T19:17:41Z</time>
      </trkpt>
      <trkpt lat="44.086723" lon="5.121986">
        <ele>170.29761</ele>
        <time>2021-06-30T19:17:42Z</time>
      </trkpt>
      <trkpt lat="44.086594" lon="5.121838">
        <ele>171.20404</ele>
        <time>2021-06-30T19:17:43Z</time>
      </trkpt>
      <trkpt lat="44.086594" lon="5.121838">
        <ele>171.62708</ele>
        <time>2021-06-30T19:17:43Z</time>
      </trkpt>
      <trkpt lat="44.086456" lon="5.121648">
        <ele>170.67511</ele>
        <time>2021-06-30T19:17:44Z</time>
      </trkpt>
      <trkpt lat="44.086311" lon="5.121408">
        <ele>171.71814</ele>
        <time>2021-06-30T19:17:46Z</time>
      </trkpt>
      <trkpt lat="44.086178" lon="5.121184">
        <ele>171.93970</ele>
        <time>2021-06-30T19:17:47Z</time>
      </trkpt>
      <trkpt lat="44.086056" lon="5.120960">
        <ele>173.40051</ele>
        <time>2021-06-30T19:17:48Z</time>
      </trkpt>
      <trkpt lat="44.085918" lon="5.120712">
        <ele>173.09296</ele>
        <time>2021-06-30T19:17:48Z</time>
      </trkpt>
      <trkpt lat="44.085777" lon="5.120424">
        <ele>172.92517</ele>
        <time>2021-06-30T19:17:50Z</time>
      </trkpt>
      <trkpt lat="44.085651" lon="5.120172">
        <ele>173.14618</ele>
        <time>2021-06-30T19:17:51Z</time>
      </trkpt>
      <trkpt lat="44.085529" lon="5.119922">
        <ele>172.55457</ele>
        <time>2021-06-30T19:17:52Z</time>
      </trkpt>
      <trkpt lat="44.085415" lon="5.119681">
        <ele>171.96008</ele>
        <time>2021-06-30T19:17:53Z</time>
      </trkpt>
      <trkpt lat="44.085300" lon="5.119428">
        <ele>172.19214</ele>
        <time>2021-06-30T19:17:54Z</time>
      </trkpt>
      <trkpt lat="44.085197" lon="5.119173">
        <ele>172.28485</ele>
        <time>2021-06-30T19:17:54Z</time>
      </trkpt>
      <trkpt lat="44.085102" lon="5.118926">
        <ele>171.76898</ele>
        <time>2021-06-30T19:17:56Z</time>
      </trkpt>
      <trkpt lat="44.085041" lon="5.118646">
        <ele>168.64111</ele>
        <time>2021-06-30T19:17:57Z</time>
      </trkpt>
      <trkpt lat="44.084957" lon="5.118317">
        <ele>168.01965</ele>
        <time>2021-06-30T19:17:58Z</time>
      </trkpt>
      <trkpt lat="44.084877" lon="5.117992">
        <ele>168.88153</ele>
        <time>2021-06-30T19:17:58Z</time>
      </trkpt>
      <trkpt lat="44.084808" lon="5.117709">
        <ele>169.17822</ele>
        <time>2021-06-30T19:18:00Z</time>
      </trkpt>
      <trkpt lat="44.084747" lon="5.117465">
        <ele>169.25293</ele>
        <time>2021-06-30T19:18:01Z</time>
      </trkpt>
      <trkpt lat="44.084747" lon="5.117465">
        <ele>169.25293</ele>
        <time>2021-06-30T19:18:02Z</time>
      </trkpt>
      <trkpt lat="44.084702" lon="5.117292">
        <ele>165.19299</ele>
        <time>2021-06-30T19:18:03Z</time>
      </trkpt>
      <trkpt lat="44.084648" lon="5.117075">
        <ele>163.28760</ele>
        <time>2021-06-30T19:18:04Z</time>
      </trkpt>
      <trkpt lat="44.084610" lon="5.116925">
        <ele>162.50061</ele>
        <time>2021-06-30T19:18:04Z</time>
      </trkpt>
      <trkpt lat="44.084572" lon="5.116781">
        <ele>162.28406</ele>
        <time>2021-06-30T19:18:05Z</time>
      </trkpt>
      <trkpt lat="44.084541" lon="5.116656">
        <ele>162.52393</ele>
        <time>2021-06-30T19:18:06Z</time>
      </trkpt>
      <trkpt lat="44.084511" lon="5.116543">
        <ele>161.68860</ele>
        <time>2021-06-30T19:18:07Z</time>
      </trkpt>
      <trkpt lat="44.084488" lon="5.116447">
        <ele>161.36865</ele>
        <time>2021-06-30T19:18:09Z</time>
      </trkpt>
      <trkpt lat="44.084457" lon="5.116333">
        <ele>161.08997</ele>
        <time>2021-06-30T19:18:09Z</time>
      </trkpt>
      <trkpt lat="44.084431" lon="5.116218">
        <ele>160.04218</ele>
        <time>2021-06-30T19:18:11Z</time>
      </trkpt>
      <trkpt lat="44.084492" lon="5.116098">
        <ele>159.49866</ele>
        <time>2021-06-30T19:18:12Z</time>
      </trkpt>
      <trkpt lat="44.084446" lon="5.115908">
        <ele>159.68610</ele>
        <time>2021-06-30T19:18:13Z</time>
      </trkpt>
      <trkpt lat="44.084396" lon="5.115881">
        <ele>159.88898</ele>
        <time>2021-06-30T19:18:14Z</time>
      </trkpt>
      <trkpt lat="44.084274" lon="5.115596">
        <ele>160.35773</ele>
        <time>2021-06-30T19:18:14Z</time>
      </trkpt>
      <trkpt lat="44.084229" lon="5.115391">
        <ele>159.57458</ele>
        <time>2021-06-30T19:18:15Z</time>
      </trkpt>
      <trkpt lat="44.084137" lon="5.115012">
        <ele>156.02502</ele>
        <time>2021-06-30T19:18:17Z</time>
      </trkpt>
      <trkpt lat="44.084064" lon="5.114715">
        <ele>155.64465</ele>
        <time>2021-06-30T19:18:17Z</time>
      </trkpt>
      <trkpt lat="44.084064" lon="5.114715">
        <ele>154.94128</ele>
        <time>2021-06-30T19:18:19Z</time>
      </trkpt>
      <trkpt lat="44.083984" lon="5.114372">
        <ele>154.60626</ele>
        <time>2021-06-30T19:18:19Z</time>
      </trkpt>
      <trkpt lat="44.083885" lon="5.113988">
        <ele>154.52917</ele>
        <time>2021-06-30T19:18:21Z</time>
      </trkpt>
      <trkpt lat="44.083820" lon="5.113716">
        <ele>154.04919</ele>
        <time>2021-06-30T19:18:21Z</time>
      </trkpt>
      <trkpt lat="44.083744" lon="5.113393">
        <ele>152.81244</ele>
        <time>2021-06-30T19:18:23Z</time>
      </trkpt>
      <trkpt lat="44.083679" lon="5.113126">
        <ele>152.31726</ele>
        <time>2021-06-30T19:18:24Z</time>
      </trkpt>
      <trkpt lat="44.083607" lon="5.112845">
        <ele>152.21387</ele>
        <time>2021-06-30T19:18:25Z</time>
      </trkpt>
      <trkpt lat="44.083530" lon="5.112544">
        <ele>151.33936</ele>
        <time>2021-06-30T19:18:26Z</time>
      </trkpt>
      <trkpt lat="44.083458" lon="5.112261">
        <ele>151.70062</ele>
        <time>2021-06-30T19:18:26Z</time>
      </trkpt>
      <trkpt lat="44.083385" lon="5.111950">
        <ele>152.02441</ele>
        <time>2021-06-30T19:18:28Z</time>
      </trkpt>
      <trkpt lat="44.083321" lon="5.111673">
        <ele>151.96112</ele>
        <time>2021-06-30T19:18:29Z</time>
      </trkpt>
      <trkpt lat="44.083252" lon="5.111380">
        <ele>154.20569</ele>
        <time>2021-06-30T19:18:29Z</time>
      </trkpt>
      <trkpt lat="44.083176" lon="5.111055">
        <ele>153.98108</ele>
        <time>2021-06-30T19:18:30Z</time>
      </trkpt>
      <trkpt lat="44.083176" lon="5.111055">
        <ele>153.17316</ele>
        <time>2021-06-30T19:18:32Z</time>
      </trkpt>
      <trkpt lat="44.083096" lon="5.110769">
        <ele>153.53040</ele>
        <time>2021-06-30T19:18:33Z</time>
      </trkpt>
      <trkpt lat="44.083012" lon="5.110471">
        <ele>150.91333</ele>
        <time>2021-06-30T19:18:34Z</time>
      </trkpt>
      <trkpt lat="44.082932" lon="5.110180">
        <ele>151.32434</ele>
        <time>2021-06-30T19:18:35Z</time>
      </trkpt>
      <trkpt lat="44.082844" lon="5.109917">
        <ele>150.82831</ele>
        <time>2021-06-30T19:18:36Z</time>
      </trkpt>
      <trkpt lat="44.082733" lon="5.109673">
        <ele>149.95203</ele>
        <time>2021-06-30T19:18:37Z</time>
      </trkpt>
      <trkpt lat="44.082592" lon="5.109404">
        <ele>150.30768</ele>
        <time>2021-06-30T19:18:38Z</time>
      </trkpt>
      <trkpt lat="44.082413" lon="5.109119">
        <ele>149.78760</ele>
        <time>2021-06-30T19:18:39Z</time>
      </trkpt>
      <trkpt lat="44.082264" lon="5.108889">
        <ele>149.25006</ele>
        <time>2021-06-30T19:18:40Z</time>
      </trkpt>
      <trkpt lat="44.082088" lon="5.108614">
        <ele>148.73987</ele>
        <time>2021-06-30T19:18:41Z</time>
      </trkpt>
      <trkpt lat="44.081982" lon="5.108445">
        <ele>148.17761</ele>
        <time>2021-06-30T19:18:41Z</time>
      </trkpt>
      <trkpt lat="44.081856" lon="5.108250">
        <ele>147.38983</ele>
        <time>2021-06-30T19:18:43Z</time>
      </trkpt>
      <trkpt lat="44.081711" lon="5.108030">
        <ele>147.53894</ele>
        <time>2021-06-30T19:18:44Z</time>
      </trkpt>
      <trkpt lat="44.081589" lon="5.107851">
        <ele>147.04724</ele>
        <time>2021-06-30T19:18:45Z</time>
      </trkpt>
      <trkpt lat="44.081455" lon="5.107655">
        <ele>146.49200</ele>
        <time>2021-06-30T19:18:45Z</time>
      </trkpt>
      <trkpt lat="44.081333" lon="5.107473">
        <ele>146.65210</ele>
        <time>2021-06-30T19:18:47Z</time>
      </trkpt>
      <trkpt lat="44.081196" lon="5.107248">
        <ele>146.71716</ele>
        <time>2021-06-30T19:18:48Z</time>
      </trkpt>
      <trkpt lat="44.081196" lon="5.107248">
        <ele>146.82178</ele>
        <time>2021-06-30T19:18:49Z</time>
      </trkpt>
      <trkpt lat="44.081081" lon="5.107030">
        <ele>147.93262</ele>
        <time>2021-06-30T19:18:49Z</time>
      </trkpt>
      <trkpt lat="44.080959" lon="5.106776">
        <ele>148.91998</ele>
        <time>2021-06-30T19:18:51Z</time>
      </trkpt>
      <trkpt lat="44.080849" lon="5.106490">
        <ele>149.24591</ele>
        <time>2021-06-30T19:18:52Z</time>
      </trkpt>
      <trkpt lat="44.080738" lon="5.106198">
        <ele>148.69812</ele>
        <time>2021-06-30T19:18:52Z</time>
      </trkpt>
      <trkpt lat="44.080635" lon="5.105914">
        <ele>148.76776</ele>
        <time>2021-06-30T19:18:54Z</time>
      </trkpt>
      <trkpt lat="44.080528" lon="5.105619">
        <ele>149.78009</ele>
        <time>2021-06-30T19:18:55Z</time>
      </trkpt>
      <trkpt lat="44.080433" lon="5.105351">
        <ele>149.30383</ele>
        <time>2021-06-30T19:18:56Z</time>
      </trkpt>
      <trkpt lat="44.080338" lon="5.105099">
        <ele>147.89539</ele>
        <time>2021-06-30T19:18:57Z</time>
      </trkpt>
      <trkpt lat="44.080219" lon="5.104810">
        <ele>148.93909</ele>
        <time>2021-06-30T19:18:58Z</time>
      </trkpt>
      <trkpt lat="44.080124" lon="5.104575">
        <ele>150.03027</ele>
        <time>2021-06-30T19:18:58Z</time>
      </trkpt>
      <trkpt lat="44.080017" lon="5.104311">
        <ele>148.85565</ele>
        <time>2021-06-30T19:19:00Z</time>
      </trkpt>
      <trkpt lat="44.079906" lon="5.104040">
        <ele>148.31372</ele>
        <time>2021-06-30T19:19:01Z</time>
      </trkpt>
      <trkpt lat="44.079803" lon="5.103741">
        <ele>148.34778</ele>
        <time>2021-06-30T19:19:02Z</time>
      </trkpt>
      <trkpt lat="44.079803" lon="5.103741">
        <ele>149.30457</ele>
        <time>2021-06-30T19:19:02Z</time>
      </trkpt>
      <trkpt lat="44.079708" lon="5.103430">
        <ele>149.16974</ele>
        <time>2021-06-30T19:19:03Z</time>
      </trkpt>
      <trkpt lat="44.079620" lon="5.103146">
        <ele>148.97217</ele>
        <time>2021-06-30T19:19:04Z</time>
      </trkpt>
      <trkpt lat="44.079536" lon="5.102869">
        <ele>145.23438</ele>
        <time>2021-06-30T19:19:05Z</time>
      </trkpt>
      <trkpt lat="44.079453" lon="5.102585">
        <ele>145.15765</ele>
        <time>2021-06-30T19:19:07Z</time>
      </trkpt>
      <trkpt lat="44.079369" lon="5.102306">
        <ele>144.63843</ele>
        <time>2021-06-30T19:19:08Z</time>
      </trkpt>
      <trkpt lat="44.079296" lon="5.102066">
        <ele>144.45178</ele>
        <time>2021-06-30T19:19:08Z</time>
      </trkpt>
      <trkpt lat="44.079208" lon="5.101796">
        <ele>142.52539</ele>
        <time>2021-06-30T19:19:09Z</time>
      </trkpt>
      <trkpt lat="44.079105" lon="5.101512">
        <ele>142.33374</ele>
        <time>2021-06-30T19:19:10Z</time>
      </trkpt>
      <trkpt lat="44.078999" lon="5.101202">
        <ele>140.70251</ele>
        <time>2021-06-30T19:19:12Z</time>
      </trkpt>
      <trkpt lat="44.078884" lon="5.100922">
        <ele>140.31763</ele>
        <time>2021-06-30T19:19:13Z</time>
      </trkpt>
      <trkpt lat="44.078751" lon="5.100622">
        <ele>139.50671</ele>
        <time>2021-06-30T19:19:13Z</time>
      </trkpt>
      <trkpt lat="44.078613" lon="5.100325">
        <ele>139.43011</ele>
        <time>2021-06-30T19:19:15Z</time>
      </trkpt>
      <trkpt lat="44.078499" lon="5.100061">
        <ele>138.03918</ele>
        <time>2021-06-30T19:19:16Z</time>
      </trkpt>
      <trkpt lat="44.078377" lon="5.099789">
        <ele>134.17957</ele>
        <time>2021-06-30T19:19:17Z</time>
      </trkpt>
      <trkpt lat="44.078377" lon="5.099789">
        <ele>134.41541</ele>
        <time>2021-06-30T19:19:17Z</time>
      </trkpt>
      <trkpt lat="44.078259" lon="5.099495">
        <ele>135.59467</ele>
        <time>2021-06-30T19:19:19Z</time>
      </trkpt>
      <trkpt lat="44.078091" lon="5.098945">
        <ele>135.45410</ele>
        <time>2021-06-30T19:19:20Z</time>
      </trkpt>
      <trkpt lat="44.078091" lon="5.098945">
        <ele>135.01025</ele>
        <time>2021-06-30T19:19:21Z</time>
      </trkpt>
      <trkpt lat="44.078011" lon="5.098643">
        <ele>135.67456</ele>
        <time>2021-06-30T19:19:21Z</time>
      </trkpt>
      <trkpt lat="44.077950" lon="5.098358">
        <ele>135.38525</ele>
        <time>2021-06-30T19:19:22Z</time>
      </trkpt>
      <trkpt lat="44.077881" lon="5.098046">
        <ele>136.06238</ele>
        <time>2021-06-30T19:19:23Z</time>
      </trkpt>
      <trkpt lat="44.077808" lon="5.097705">
        <ele>135.09888</ele>
        <time>2021-06-30T19:19:25Z</time>
      </trkpt>
      <trkpt lat="44.077740" lon="5.097405">
        <ele>135.30432</ele>
        <time>2021-06-30T19:19:26Z</time>
      </trkpt>
      <trkpt lat="44.077667" lon="5.097075">
        <ele>136.76605</ele>
        <time>2021-06-30T19:19:26Z</time>
      </trkpt>
      <trkpt lat="44.077606" lon="5.096773">
        <ele>136.68677</ele>
        <time>2021-06-30T19:19:28Z</time>
      </trkpt>
      <trkpt lat="44.077545" lon="5.096500">
        <ele>136.77429</ele>
        <time>2021-06-30T19:19:29Z</time>
      </trkpt>
      <trkpt lat="44.077469" lon="5.096207">
        <ele>136.73431</ele>
        <time>2021-06-30T19:19:29Z</time>
      </trkpt>
      <trkpt lat="44.077389" lon="5.095902">
        <ele>136.77478</ele>
        <time>2021-06-30T19:19:30Z</time>
      </trkpt>
      <trkpt lat="44.077339" lon="5.095717">
        <ele>136.68335</ele>
        <time>2021-06-30T19:19:32Z</time>
      </trkpt>
      <trkpt lat="44.077339" lon="5.095717">
        <ele>137.45184</ele>
        <time>2021-06-30T19:19:33Z</time>
      </trkpt>
      <trkpt lat="44.077129" lon="5.095116">
        <ele>137.26965</ele>
        <time>2021-06-30T19:19:34Z</time>
      </trkpt>
      <trkpt lat="44.077129" lon="5.095116">
        <ele>137.49261</ele>
        <time>2021-06-30T19:19:35Z</time>
      </trkpt>
      <trkpt lat="44.077015" lon="5.094837">
        <ele>137.55432</ele>
        <time>2021-06-30T19:19:35Z</time>
      </trkpt>
      <trkpt lat="44.076897" lon="5.094569">
        <ele>137.95215</ele>
        <time>2021-06-30T19:19:36Z</time>
      </trkpt>
      <trkpt lat="44.076775" lon="5.094323">
        <ele>139.39197</ele>
        <time>2021-06-30T19:19:38Z</time>
      </trkpt>
      <trkpt lat="44.076656" lon="5.094087">
        <ele>140.05420</ele>
        <time>2021-06-30T19:19:39Z</time>
      </trkpt>
      <trkpt lat="44.076542" lon="5.093839">
        <ele>140.31458</ele>
        <time>2021-06-30T19:19:39Z</time>
      </trkpt>
      <trkpt lat="44.076431" lon="5.093597">
        <ele>140.53986</ele>
        <time>2021-06-30T19:19:41Z</time>
      </trkpt>
      <trkpt lat="44.076336" lon="5.093380">
        <ele>141.01520</ele>
        <time>2021-06-30T19:19:41Z</time>
      </trkpt>
      <trkpt lat="44.076225" lon="5.093093">
        <ele>141.14465</ele>
        <time>2021-06-30T19:19:43Z</time>
      </trkpt>
      <trkpt lat="44.076130" lon="5.092837">
        <ele>140.84039</ele>
        <time>2021-06-30T19:19:43Z</time>
      </trkpt>
      <trkpt lat="44.076054" lon="5.092611">
        <ele>140.15479</ele>
        <time>2021-06-30T19:19:45Z</time>
      </trkpt>
      <trkpt lat="44.075947" lon="5.092267">
        <ele>139.61646</ele>
        <time>2021-06-30T19:19:45Z</time>
      </trkpt>
      <trkpt lat="44.075859" lon="5.091960">
        <ele>139.15131</ele>
        <time>2021-06-30T19:19:47Z</time>
      </trkpt>
      <trkpt lat="44.075787" lon="5.091714">
        <ele>138.74884</ele>
        <time>2021-06-30T19:19:47Z</time>
      </trkpt>
      <trkpt lat="44.075684" lon="5.091401">
        <ele>137.19470</ele>
        <time>2021-06-30T19:19:49Z</time>
      </trkpt>
      <trkpt lat="44.075588" lon="5.091123">
        <ele>136.34338</ele>
        <time>2021-06-30T19:19:50Z</time>
      </trkpt>
      <trkpt lat="44.075588" lon="5.091123">
        <ele>135.73096</ele>
        <time>2021-06-30T19:19:51Z</time>
      </trkpt>
      <trkpt lat="44.075497" lon="5.090830">
        <ele>136.05420</ele>
        <time>2021-06-30T19:19:51Z</time>
      </trkpt>
      <trkpt lat="44.075420" lon="5.090588">
        <ele>135.35095</ele>
        <time>2021-06-30T19:19:52Z</time>
      </trkpt>
      <trkpt lat="44.075336" lon="5.090331">
        <ele>135.01544</ele>
        <time>2021-06-30T19:19:54Z</time>
      </trkpt>
      <trkpt lat="44.075256" lon="5.090067">
        <ele>133.78369</ele>
        <time>2021-06-30T19:19:55Z</time>
      </trkpt>
      <trkpt lat="44.075188" lon="5.089833">
        <ele>133.93829</ele>
        <time>2021-06-30T19:19:56Z</time>
      </trkpt>
      <trkpt lat="44.075104" lon="5.089564">
        <ele>132.64594</ele>
        <time>2021-06-30T19:19:56Z</time>
      </trkpt>
      <trkpt lat="44.075027" lon="5.089332">
        <ele>132.77252</ele>
        <time>2021-06-30T19:19:58Z</time>
      </trkpt>
      <trkpt lat="44.074905" lon="5.089033">
        <ele>131.93872</ele>
        <time>2021-06-30T19:19:59Z</time>
      </trkpt>
      <trkpt lat="44.074795" lon="5.088779">
        <ele>132.67078</ele>
        <time>2021-06-30T19:20:00Z</time>
      </trkpt>
      <trkpt lat="44.074677" lon="5.088504">
        <ele>131.80377</ele>
        <time>2021-06-30T19:20:01Z</time>
      </trkpt>
      <trkpt lat="44.074593" lon="5.088311">
        <ele>132.42450</ele>
        <time>2021-06-30T19:20:01Z</time>
      </trkpt>
      <trkpt lat="44.074509" lon="5.088142">
        <ele>132.38641</ele>
        <time>2021-06-30T19:20:02Z</time>
      </trkpt>
      <trkpt lat="44.074375" lon="5.087955">
        <ele>132.39709</ele>
        <time>2021-06-30T19:20:04Z</time>
      </trkpt>
      <trkpt lat="44.074230" lon="5.087784">
        <ele>132.21753</ele>
        <time>2021-06-30T19:20:04Z</time>
      </trkpt>
      <trkpt lat="44.074081" lon="5.087626">
        <ele>132.17969</ele>
        <time>2021-06-30T19:20:06Z</time>
      </trkpt>
      <trkpt lat="44.074081" lon="5.087626">
        <ele>129.04456</ele>
        <time>2021-06-30T19:20:07Z</time>
      </trkpt>
      <trkpt lat="44.073917" lon="5.087492">
        <ele>129.08557</ele>
        <time>2021-06-30T19:20:07Z</time>
      </trkpt>
      <trkpt lat="44.073689" lon="5.087307">
        <ele>128.98169</ele>
        <time>2021-06-30T19:20:09Z</time>
      </trkpt>
      <trkpt lat="44.073452" lon="5.087106">
        <ele>128.15625</ele>
        <time>2021-06-30T19:20:10Z</time>
      </trkpt>
      <trkpt lat="44.073269" lon="5.086945">
        <ele>128.19061</ele>
        <time>2021-06-30T19:20:11Z</time>
      </trkpt>
      <trkpt lat="44.073105" lon="5.086781">
        <ele>129.05682</ele>
        <time>2021-06-30T19:20:12Z</time>
      </trkpt>
      <trkpt lat="44.072933" lon="5.086607">
        <ele>130.41858</ele>
        <time>2021-06-30T19:20:12Z</time>
      </trkpt>
      <trkpt lat="44.072754" lon="5.086418">
        <ele>130.32971</ele>
        <time>2021-06-30T19:20:14Z</time>
      </trkpt>
      <trkpt lat="44.072571" lon="5.086217">
        <ele>131.99182</ele>
        <time>2021-06-30T19:20:15Z</time>
      </trkpt>
      <trkpt lat="44.072422" lon="5.086018">
        <ele>132.32812</ele>
        <time>2021-06-30T19:20:16Z</time>
      </trkpt>
      <trkpt lat="44.072235" lon="5.085770">
        <ele>131.08350</ele>
        <time>2021-06-30T19:20:17Z</time>
      </trkpt>
      <trkpt lat="44.072060" lon="5.085529">
        <ele>131.60779</ele>
        <time>2021-06-30T19:20:18Z</time>
      </trkpt>
      <trkpt lat="44.071960" lon="5.085379">
        <ele>131.44342</ele>
        <time>2021-06-30T19:20:18Z</time>
      </trkpt>
      <trkpt lat="44.071812" lon="5.085150">
        <ele>130.95654</ele>
        <time>2021-06-30T19:20:19Z</time>
      </trkpt>
      <trkpt lat="44.071686" lon="5.084953">
        <ele>128.12476</ele>
        <time>2021-06-30T19:20:20Z</time>
      </trkpt>
      <trkpt lat="44.071529" lon="5.084713">
        <ele>128.49060</ele>
        <time>2021-06-30T19:20:21Z</time>
      </trkpt>
      <trkpt lat="44.071529" lon="5.084713">
        <ele>129.17474</ele>
        <time>2021-06-30T19:20:23Z</time>
      </trkpt>
      <trkpt lat="44.071411" lon="5.084528">
        <ele>128.84814</ele>
        <time>2021-06-30T19:20:24Z</time>
      </trkpt>
      <trkpt lat="44.071278" lon="5.084324">
        <ele>129.83777</ele>
        <time>2021-06-30T19:20:25Z</time>
      </trkpt>
      <trkpt lat="44.071152" lon="5.084132">
        <ele>129.11145</ele>
        <time>2021-06-30T19:20:26Z</time>
      </trkpt>
      <trkpt lat="44.071037" lon="5.083955">
        <ele>129.34320</ele>
        <time>2021-06-30T19:20:27Z</time>
      </trkpt>
      <trkpt lat="44.070900" lon="5.083749">
        <ele>128.33228</ele>
        <time>2021-06-30T19:20:27Z</time>
      </trkpt>
      <trkpt lat="44.070816" lon="5.083554">
        <ele>127.17950</ele>
        <time>2021-06-30T19:20:29Z</time>
      </trkpt>
      <trkpt lat="44.070683" lon="5.083249">
        <ele>127.05701</ele>
        <time>2021-06-30T19:20:29Z</time>
      </trkpt>
      <trkpt lat="44.070595" lon="5.082913">
        <ele>127.15063</ele>
        <time>2021-06-30T19:20:30Z</time>
      </trkpt>
      <trkpt lat="44.070549" lon="5.082647">
        <ele>126.81494</ele>
        <time>2021-06-30T19:20:32Z</time>
      </trkpt>
      <trkpt lat="44.070515" lon="5.082382">
        <ele>126.57361</ele>
        <time>2021-06-30T19:20:32Z</time>
      </trkpt>
      <trkpt lat="44.070480" lon="5.082097">
        <ele>126.53815</ele>
        <time>2021-06-30T19:20:33Z</time>
      </trkpt>
      <trkpt lat="44.070454" lon="5.081801">
        <ele>126.41138</ele>
        <time>2021-06-30T19:20:35Z</time>
      </trkpt>
      <trkpt lat="44.070438" lon="5.081531">
        <ele>123.39801</ele>
        <time>2021-06-30T19:20:35Z</time>
      </trkpt>
      <trkpt lat="44.070427" lon="5.081247">
        <ele>123.98926</ele>
        <time>2021-06-30T19:20:37Z</time>
      </trkpt>
      <trkpt lat="44.070454" lon="5.081035">
        <ele>124.77588</ele>
        <time>2021-06-30T19:20:37Z</time>
      </trkpt>
      <trkpt lat="44.070454" lon="5.081035">
        <ele>124.85669</ele>
        <time>2021-06-30T19:20:38Z</time>
      </trkpt>
      <trkpt lat="44.070354" lon="5.080623">
        <ele>125.13171</ele>
        <time>2021-06-30T19:20:40Z</time>
      </trkpt>
      <trkpt lat="44.070354" lon="5.080623">
        <ele>125.45227</ele>
        <time>2021-06-30T19:20:41Z</time>
      </trkpt>
      <trkpt lat="44.070206" lon="5.080195">
        <ele>126.28265</ele>
        <time>2021-06-30T19:20:42Z</time>
      </trkpt>
      <trkpt lat="44.070126" lon="5.079968">
        <ele>125.18140</ele>
        <time>2021-06-30T19:20:43Z</time>
      </trkpt>
      <trkpt lat="44.069988" lon="5.079632">
        <ele>123.85608</ele>
        <time>2021-06-30T19:20:43Z</time>
      </trkpt>
      <trkpt lat="44.069908" lon="5.079385">
        <ele>124.24780</ele>
        <time>2021-06-30T19:20:44Z</time>
      </trkpt>
      <trkpt lat="44.069843" lon="5.079129">
        <ele>124.66064</ele>
        <time>2021-06-30T19:20:45Z</time>
      </trkpt>
      <trkpt lat="44.069782" lon="5.078852">
        <ele>125.57837</ele>
        <time>2021-06-30T19:20:47Z</time>
      </trkpt>
      <trkpt lat="44.069714" lon="5.078503">
        <ele>126.03351</ele>
        <time>2021-06-30T19:20:47Z</time>
      </trkpt>
      <trkpt lat="44.069664" lon="5.078215">
        <ele>125.95959</ele>
        <time>2021-06-30T19:20:49Z</time>
      </trkpt>
      <trkpt lat="44.069595" lon="5.077873">
        <ele>126.96344</ele>
        <time>2021-06-30T19:20:50Z</time>
      </trkpt>
      <trkpt lat="44.069538" lon="5.077565">
        <ele>126.78040</ele>
        <time>2021-06-30T19:20:50Z</time>
      </trkpt>
      <trkpt lat="44.069447" lon="5.077045">
        <ele>127.09644</ele>
        <time>2021-06-30T19:20:51Z</time>
      </trkpt>
      <trkpt lat="44.069378" lon="5.076631">
        <ele>127.23224</ele>
        <time>2021-06-30T19:20:52Z</time>
      </trkpt>
      <trkpt lat="44.069279" lon="5.076199">
        <ele>127.15625</ele>
        <time>2021-06-30T19:20:54Z</time>
      </trkpt>
      <trkpt lat="44.069206" lon="5.075849">
        <ele>127.23016</ele>
        <time>2021-06-30T19:20:54Z</time>
      </trkpt>
      <trkpt lat="44.069206" lon="5.075849">
        <ele>126.13422</ele>
        <time>2021-06-30T19:20:56Z</time>
      </trkpt>
      <trkpt lat="44.069134" lon="5.075492">
        <ele>126.13037</ele>
        <time>2021-06-30T19:20:56Z</time>
      </trkpt>
      <trkpt lat="44.069080" lon="5.075147">
        <ele>123.78430</ele>
        <time>2021-06-30T19:20:58Z</time>
      </trkpt>
      <trkpt lat="44.069023" lon="5.074847">
        <ele>123.64099</ele>
        <time>2021-06-30T19:20:58Z</time>
      </trkpt>
      <trkpt lat="44.068970" lon="5.074599">
        <ele>124.38562</ele>
        <time>2021-06-30T19:21:00Z</time>
      </trkpt>
      <trkpt lat="44.068905" lon="5.074239">
        <ele>123.49451</ele>
        <time>2021-06-30T19:21:01Z</time>
      </trkpt>
      <trkpt lat="44.068855" lon="5.073945">
        <ele>123.47827</ele>
        <time>2021-06-30T19:21:02Z</time>
      </trkpt>
      <trkpt lat="44.068806" lon="5.073676">
        <ele>123.74298</ele>
        <time>2021-06-30T19:21:03Z</time>
      </trkpt>
      <trkpt lat="44.068741" lon="5.073393">
        <ele>122.97931</ele>
        <time>2021-06-30T19:21:04Z</time>
      </trkpt>
      <trkpt lat="44.068684" lon="5.073136">
        <ele>122.71869</ele>
        <time>2021-06-30T19:21:04Z</time>
      </trkpt>
      <trkpt lat="44.068638" lon="5.072864">
        <ele>122.90881</ele>
        <time>2021-06-30T19:21:06Z</time>
      </trkpt>
      <trkpt lat="44.068565" lon="5.072567">
        <ele>122.56873</ele>
        <time>2021-06-30T19:21:07Z</time>
      </trkpt>
      <trkpt lat="44.068485" lon="5.072325">
        <ele>122.33154</ele>
        <time>2021-06-30T19:21:07Z</time>
      </trkpt>
      <trkpt lat="44.068485" lon="5.072325">
        <ele>121.25378</ele>
        <time>2021-06-30T19:21:08Z</time>
      </trkpt>
      <trkpt lat="44.068275" lon="5.071817">
        <ele>121.32379</ele>
        <time>2021-06-30T19:21:09Z</time>
      </trkpt>
      <trkpt lat="44.068275" lon="5.071817">
        <ele>122.10303</ele>
        <time>2021-06-30T19:21:10Z</time>
      </trkpt>
      <trkpt lat="44.068146" lon="5.071510">
        <ele>123.39136</ele>
        <time>2021-06-30T19:21:12Z</time>
      </trkpt>
      <trkpt lat="44.068027" lon="5.071216">
        <ele>124.72644</ele>
        <time>2021-06-30T19:21:13Z</time>
      </trkpt>
      <trkpt lat="44.067909" lon="5.070935">
        <ele>124.88922</ele>
        <time>2021-06-30T19:21:13Z</time>
      </trkpt>
      <trkpt lat="44.067799" lon="5.070658">
        <ele>124.54828</ele>
        <time>2021-06-30T19:21:15Z</time>
      </trkpt>
      <trkpt lat="44.067673" lon="5.070350">
        <ele>123.84857</ele>
        <time>2021-06-30T19:21:15Z</time>
      </trkpt>
      <trkpt lat="44.067558" lon="5.070078">
        <ele>121.43829</ele>
        <time>2021-06-30T19:21:16Z</time>
      </trkpt>
      <trkpt lat="44.067432" lon="5.069774">
        <ele>121.19330</ele>
        <time>2021-06-30T19:21:17Z</time>
      </trkpt>
      <trkpt lat="44.067329" lon="5.069530">
        <ele>117.54578</ele>
        <time>2021-06-30T19:21:19Z</time>
      </trkpt>
      <trkpt lat="44.067226" lon="5.069296">
        <ele>117.54840</ele>
        <time>2021-06-30T19:21:20Z</time>
      </trkpt>
      <trkpt lat="44.067112" lon="5.069027">
        <ele>117.18506</ele>
        <time>2021-06-30T19:21:20Z</time>
      </trkpt>
      <trkpt lat="44.067020" lon="5.068784">
        <ele>118.21899</ele>
        <time>2021-06-30T19:21:22Z</time>
      </trkpt>
      <trkpt lat="44.066929" lon="5.068521">
        <ele>118.39758</ele>
        <time>2021-06-30T19:21:23Z</time>
      </trkpt>
      <trkpt lat="44.066895" lon="5.068387">
        <ele>118.60449</ele>
        <time>2021-06-30T19:21:24Z</time>
      </trkpt>
      <trkpt lat="44.066883" lon="5.068197">
        <ele>117.26184</ele>
        <time>2021-06-30T19:21:25Z</time>
      </trkpt>
      <trkpt lat="44.066883" lon="5.068197">
        <ele>116.51703</ele>
        <time>2021-06-30T19:21:26Z</time>
      </trkpt>
      <trkpt lat="44.066902" lon="5.068073">
        <ele>115.67603</ele>
        <time>2021-06-30T19:21:27Z</time>
      </trkpt>
      <trkpt lat="44.066921" lon="5.068071">
        <ele>116.33179</ele>
        <time>2021-06-30T19:21:28Z</time>
      </trkpt>
      <trkpt lat="44.066990" lon="5.068056">
        <ele>115.82385</ele>
        <time>2021-06-30T19:21:29Z</time>
      </trkpt>
      <trkpt lat="44.067112" lon="5.067954">
        <ele>118.29114</ele>
        <time>2021-06-30T19:21:30Z</time>
      </trkpt>
      <trkpt lat="44.067181" lon="5.067788">
        <ele>117.51184</ele>
        <time>2021-06-30T19:21:31Z</time>
      </trkpt>
      <trkpt lat="44.067196" lon="5.067687">
        <ele>117.10114</ele>
        <time>2021-06-30T19:21:31Z</time>
      </trkpt>
      <trkpt lat="44.067188" lon="5.067561">
        <ele>116.85046</ele>
        <time>2021-06-30T19:21:33Z</time>
      </trkpt>
      <trkpt lat="44.067162" lon="5.067462">
        <ele>117.29077</ele>
        <time>2021-06-30T19:21:33Z</time>
      </trkpt>
      <trkpt lat="44.067036" lon="5.067187">
        <ele>116.90387</ele>
        <time>2021-06-30T19:21:34Z</time>
      </trkpt>
      <trkpt lat="44.067059" lon="5.067020">
        <ele>118.00421</ele>
        <time>2021-06-30T19:21:36Z</time>
      </trkpt>
      <trkpt lat="44.067074" lon="5.066946">
        <ele>116.40955</ele>
        <time>2021-06-30T19:21:37Z</time>
      </trkpt>
      <trkpt lat="44.067135" lon="5.066691">
        <ele>116.66559</ele>
        <time>2021-06-30T19:21:37Z</time>
      </trkpt>
      <trkpt lat="44.067196" lon="5.066437">
        <ele>115.34473</ele>
        <time>2021-06-30T19:21:39Z</time>
      </trkpt>
      <trkpt lat="44.067284" lon="5.066067">
        <ele>114.62061</ele>
        <time>2021-06-30T19:21:40Z</time>
      </trkpt>
      <trkpt lat="44.067368" lon="5.065702">
        <ele>115.08435</ele>
        <time>2021-06-30T19:21:41Z</time>
      </trkpt>
      <trkpt lat="44.067478" lon="5.065273">
        <ele>116.15088</ele>
        <time>2021-06-30T19:21:41Z</time>
      </trkpt>
      <trkpt lat="44.067577" lon="5.064893">
        <ele>117.67413</ele>
        <time>2021-06-30T19:21:43Z</time>
      </trkpt>
      <trkpt lat="44.067577" lon="5.064893">
        <ele>118.99866</ele>
        <time>2021-06-30T19:21:43Z</time>
      </trkpt>
      <trkpt lat="44.067673" lon="5.064497">
        <ele>118.39600</ele>
        <time>2021-06-30T19:21:45Z</time>
      </trkpt>
      <trkpt lat="44.067745" lon="5.064080">
        <ele>118.08716</ele>
        <time>2021-06-30T19:21:45Z</time>
      </trkpt>
      <trkpt lat="44.067780" lon="5.063622">
        <ele>118.22821</ele>
        <time>2021-06-30T19:21:47Z</time>
      </trkpt>
      <trkpt lat="44.067814" lon="5.063112">
        <ele>116.48578</ele>
        <time>2021-06-30T19:21:48Z</time>
      </trkpt>
      <trkpt lat="44.067848" lon="5.062612">
        <ele>115.72650</ele>
        <time>2021-06-30T19:21:49Z</time>
      </trkpt>
      <trkpt lat="44.067875" lon="5.062192">
        <ele>115.32855</ele>
        <time>2021-06-30T19:21:49Z</time>
      </trkpt>
      <trkpt lat="44.067905" lon="5.061762">
        <ele>115.29700</ele>
        <time>2021-06-30T19:21:51Z</time>
      </trkpt>
      <trkpt lat="44.067944" lon="5.061180">
        <ele>115.91663</ele>
        <time>2021-06-30T19:21:51Z</time>
      </trkpt>
      <trkpt lat="44.067974" lon="5.060650">
        <ele>115.22473</ele>
        <time>2021-06-30T19:21:52Z</time>
      </trkpt>
      <trkpt lat="44.068001" lon="5.060229">
        <ele>114.78143</ele>
        <time>2021-06-30T19:21:54Z</time>
      </trkpt>
      <trkpt lat="44.068035" lon="5.059712">
        <ele>114.25208</ele>
        <time>2021-06-30T19:21:55Z</time>
      </trkpt>
      <trkpt lat="44.068062" lon="5.059247">
        <ele>113.18378</ele>
        <time>2021-06-30T19:21:55Z</time>
      </trkpt>
      <trkpt lat="44.068092" lon="5.058764">
        <ele>112.35535</ele>
        <time>2021-06-30T19:21:56Z</time>
      </trkpt>
      <trkpt lat="44.068123" lon="5.058273">
        <ele>112.48914</ele>
        <time>2021-06-30T19:21:58Z</time>
      </trkpt>
      <trkpt lat="44.068123" lon="5.058273">
        <ele>112.92676</ele>
        <time>2021-06-30T19:21:58Z</time>
      </trkpt>
      <trkpt lat="44.068150" lon="5.057831">
        <ele>110.59137</ele>
        <time>2021-06-30T19:22:00Z</time>
      </trkpt>
      <trkpt lat="44.068172" lon="5.057449">
        <ele>108.95667</ele>
        <time>2021-06-30T19:22:01Z</time>
      </trkpt>
      <trkpt lat="44.068195" lon="5.057091">
        <ele>108.40393</ele>
        <time>2021-06-30T19:22:01Z</time>
      </trkpt>
      <trkpt lat="44.068218" lon="5.056740">
        <ele>107.73206</ele>
        <time>2021-06-30T19:22:02Z</time>
      </trkpt>
      <trkpt lat="44.068241" lon="5.056340">
        <ele>107.72455</ele>
        <time>2021-06-30T19:22:04Z</time>
      </trkpt>
      <trkpt lat="44.068268" lon="5.055952">
        <ele>106.60553</ele>
        <time>2021-06-30T19:22:04Z</time>
      </trkpt>
      <trkpt lat="44.068291" lon="5.055559">
        <ele>107.28064</ele>
        <time>2021-06-30T19:22:06Z</time>
      </trkpt>
      <trkpt lat="44.068302" lon="5.055238">
        <ele>107.00885</ele>
        <time>2021-06-30T19:22:07Z</time>
      </trkpt>
      <trkpt lat="44.068302" lon="5.054894">
        <ele>107.01715</ele>
        <time>2021-06-30T19:22:08Z</time>
      </trkpt>
      <trkpt lat="44.068295" lon="5.054567">
        <ele>105.88831</ele>
        <time>2021-06-30T19:22:08Z</time>
      </trkpt>
      <trkpt lat="44.068268" lon="5.054278">
        <ele>106.58415</ele>
        <time>2021-06-30T19:22:10Z</time>
      </trkpt>
      <trkpt lat="44.068249" lon="5.054112">
        <ele>106.32892</ele>
        <time>2021-06-30T19:22:11Z</time>
      </trkpt>
      <trkpt lat="44.068226" lon="5.053873">
        <ele>105.65601</ele>
        <time>2021-06-30T19:22:12Z</time>
      </trkpt>
      <trkpt lat="44.068226" lon="5.053873">
        <ele>104.61304</ele>
        <time>2021-06-30T19:22:12Z</time>
      </trkpt>
      <trkpt lat="44.068207" lon="5.053678">
        <ele>104.31287</ele>
        <time>2021-06-30T19:22:13Z</time>
      </trkpt>
      <trkpt lat="44.068192" lon="5.053524">
        <ele>104.65100</ele>
        <time>2021-06-30T19:22:15Z</time>
      </trkpt>
      <trkpt lat="44.068184" lon="5.053360">
        <ele>103.27649</ele>
        <time>2021-06-30T19:22:16Z</time>
      </trkpt>
      <trkpt lat="44.068192" lon="5.053199">
        <ele>103.32275</ele>
        <time>2021-06-30T19:22:17Z</time>
      </trkpt>
      <trkpt lat="44.068195" lon="5.053108">
        <ele>103.65460</ele>
        <time>2021-06-30T19:22:17Z</time>
      </trkpt>
      <trkpt lat="44.068249" lon="5.053067">
        <ele>103.69171</ele>
        <time>2021-06-30T19:22:19Z</time>
      </trkpt>
      <trkpt lat="44.068394" lon="5.052925">
        <ele>103.65674</ele>
        <time>2021-06-30T19:22:19Z</time>
      </trkpt>
      <trkpt lat="44.068447" lon="5.052735">
        <ele>104.02252</ele>
        <time>2021-06-30T19:22:20Z</time>
      </trkpt>
      <trkpt lat="44.068436" lon="5.052593">
        <ele>104.68262</ele>
        <time>2021-06-30T19:22:21Z</time>
      </trkpt>
      <trkpt lat="44.068359" lon="5.052435">
        <ele>105.27271</ele>
        <time>2021-06-30T19:22:23Z</time>
      </trkpt>
      <trkpt lat="44.068245" lon="5.052313">
        <ele>105.42261</ele>
        <time>2021-06-30T19:22:23Z</time>
      </trkpt>
      <trkpt lat="44.068195" lon="5.052098">
        <ele>105.04431</ele>
        <time>2021-06-30T19:22:25Z</time>
      </trkpt>
      <trkpt lat="44.068150" lon="5.051790">
        <ele>105.45447</ele>
        <time>2021-06-30T19:22:26Z</time>
      </trkpt>
      <trkpt lat="44.068111" lon="5.051524">
        <ele>106.06488</ele>
        <time>2021-06-30T19:22:27Z</time>
      </trkpt>
      <trkpt lat="44.068050" lon="5.051044">
        <ele>105.64752</ele>
        <time>2021-06-30T19:22:28Z</time>
      </trkpt>
      <trkpt lat="44.068050" lon="5.051044">
        <ele>104.36969</ele>
        <time>2021-06-30T19:22:29Z</time>
      </trkpt>
      <trkpt lat="44.068005" lon="5.050699">
        <ele>103.19067</ele>
        <time>2021-06-30T19:22:30Z</time>
      </trkpt>
      <trkpt lat="44.067944" lon="5.050239">
        <ele>103.88904</ele>
        <time>2021-06-30T19:22:31Z</time>
      </trkpt>
      <trkpt lat="44.067879" lon="5.049827">
        <ele>103.56494</ele>
        <time>2021-06-30T19:22:32Z</time>
      </trkpt>
      <trkpt lat="44.067814" lon="5.049479">
        <ele>102.97052</ele>
        <time>2021-06-30T19:22:33Z</time>
      </trkpt>
      <trkpt lat="44.067726" lon="5.049075">
        <ele>102.33124</ele>
        <time>2021-06-30T19:22:33Z</time>
      </trkpt>
      <trkpt lat="44.067623" lon="5.048678">
        <ele>102.08673</ele>
        <time>2021-06-30T19:22:35Z</time>
      </trkpt>
      <trkpt lat="44.067535" lon="5.048360">
        <ele>102.03839</ele>
        <time>2021-06-30T19:22:36Z</time>
      </trkpt>
      <trkpt lat="44.067440" lon="5.048040">
        <ele>101.46051</ele>
        <time>2021-06-30T19:22:36Z</time>
      </trkpt>
      <trkpt lat="44.067318" lon="5.047662">
        <ele>100.41809</ele>
        <time>2021-06-30T19:22:38Z</time>
      </trkpt>
      <trkpt lat="44.067200" lon="5.047301">
        <ele>99.62152</ele>
        <time>2021-06-30T19:22:39Z</time>
      </trkpt>
      <trkpt lat="44.067074" lon="5.046936">
        <ele>98.96069</ele>
        <time>2021-06-30T19:22:39Z</time>
      </trkpt>
      <trkpt lat="44.067074" lon="5.046936">
        <ele>96.76166</ele>
        <time>2021-06-30T19:22:40Z</time>
      </trkpt>
      <trkpt lat="44.066917" lon="5.046508">
        <ele>96.48822</ele>
        <time>2021-06-30T19:22:41Z</time>
      </trkpt>
      <trkpt lat="44.066788" lon="5.046142">
        <ele>96.02405</ele>
        <time>2021-06-30T19:22:43Z</time>
      </trkpt>
      <trkpt lat="44.066635" lon="5.045730">
        <ele>95.16138</ele>
        <time>2021-06-30T19:22:43Z</time>
      </trkpt>
      <trkpt lat="44.066494" lon="5.045367">
        <ele>95.27606</ele>
        <time>2021-06-30T19:22:45Z</time>
      </trkpt>
      <trkpt lat="44.066319" lon="5.044989">
        <ele>94.89050</ele>
        <time>2021-06-30T19:22:46Z</time>
      </trkpt>
      <trkpt lat="44.066147" lon="5.044633">
        <ele>95.24011</ele>
        <time>2021-06-30T19:22:47Z</time>
      </trkpt>
      <trkpt lat="44.065952" lon="5.044265">
        <ele>94.49237</ele>
        <time>2021-06-30T19:22:47Z</time>
      </trkpt>
      <trkpt lat="44.065826" lon="5.044030">
        <ele>93.87018</ele>
        <time>2021-06-30T19:22:48Z</time>
      </trkpt>
      <trkpt lat="44.065643" lon="5.043739">
        <ele>93.68414</ele>
        <time>2021-06-30T19:22:50Z</time>
      </trkpt>
      <trkpt lat="44.065472" lon="5.043482">
        <ele>92.99091</ele>
        <time>2021-06-30T19:22:50Z</time>
      </trkpt>
      <trkpt lat="44.065296" lon="5.043221">
        <ele>93.25842</ele>
        <time>2021-06-30T19:22:52Z</time>
      </trkpt>
      <trkpt lat="44.065083" lon="5.042932">
        <ele>94.10278</ele>
        <time>2021-06-30T19:22:53Z</time>
      </trkpt>
      <trkpt lat="44.065083" lon="5.042932">
        <ele>94.23334</ele>
        <time>2021-06-30T19:22:54Z</time>
      </trkpt>
      <trkpt lat="44.064854" lon="5.042654">
        <ele>93.83173</ele>
        <time>2021-06-30T19:22:54Z</time>
      </trkpt>
      <trkpt lat="44.064571" lon="5.042325">
        <ele>94.33704</ele>
        <time>2021-06-30T19:22:56Z</time>
      </trkpt>
      <trkpt lat="44.064335" lon="5.042050">
        <ele>94.10797</ele>
        <time>2021-06-30T19:22:57Z</time>
      </trkpt>
      <trkpt lat="44.064102" lon="5.041807">
        <ele>94.49878</ele>
        <time>2021-06-30T19:22:58Z</time>
      </trkpt>
      <trkpt lat="44.063866" lon="5.041587">
        <ele>94.07587</ele>
        <time>2021-06-30T19:22:58Z</time>
      </trkpt>
      <trkpt lat="44.063656" lon="5.041403">
        <ele>93.50854</ele>
        <time>2021-06-30T19:22:59Z</time>
      </trkpt>
      <trkpt lat="44.063438" lon="5.041209">
        <ele>92.35480</ele>
        <time>2021-06-30T19:23:01Z</time>
      </trkpt>
      <trkpt lat="44.063236" lon="5.041038">
        <ele>92.34528</ele>
        <time>2021-06-30T19:23:02Z</time>
      </trkpt>
      <trkpt lat="44.062969" lon="5.040811">
        <ele>91.77832</ele>
        <time>2021-06-30T19:23:03Z</time>
      </trkpt>
      <trkpt lat="44.062737" lon="5.040614">
        <ele>90.00854</ele>
        <time>2021-06-30T19:23:03Z</time>
      </trkpt>
      <trkpt lat="44.062485" lon="5.040397">
        <ele>88.54962</ele>
        <time>2021-06-30T19:23:05Z</time>
      </trkpt>
      <trkpt lat="44.062225" lon="5.040174">
        <ele>88.51575</ele>
        <time>2021-06-30T19:23:06Z</time>
      </trkpt>
      <trkpt lat="44.062035" lon="5.040014">
        <ele>88.11060</ele>
        <time>2021-06-30T19:23:06Z</time>
      </trkpt>
      <trkpt lat="44.061802" lon="5.039813">
        <ele>88.31757</ele>
        <time>2021-06-30T19:23:07Z</time>
      </trkpt>
      <trkpt lat="44.061802" lon="5.039813">
        <ele>87.34979</ele>
        <time>2021-06-30T19:23:08Z</time>
      </trkpt>
      <trkpt lat="44.061623" lon="5.039656">
        <ele>86.50287</ele>
        <time>2021-06-30T19:23:10Z</time>
      </trkpt>
      <trkpt lat="44.061466" lon="5.039509">
        <ele>85.26294</ele>
        <time>2021-06-30T19:23:11Z</time>
      </trkpt>
      <trkpt lat="44.061321" lon="5.039374">
        <ele>84.53125</ele>
        <time>2021-06-30T19:23:11Z</time>
      </trkpt>
      <trkpt lat="44.061207" lon="5.039235">
        <ele>84.33337</ele>
        <time>2021-06-30T19:23:12Z</time>
      </trkpt>
      <trkpt lat="44.061108" lon="5.039100">
        <ele>84.66467</ele>
        <time>2021-06-30T19:23:13Z</time>
      </trkpt>
      <trkpt lat="44.061039" lon="5.038990">
        <ele>83.94763</ele>
        <time>2021-06-30T19:23:15Z</time>
      </trkpt>
      <trkpt lat="44.060997" lon="5.038925">
        <ele>84.39685</ele>
        <time>2021-06-30T19:23:16Z</time>
      </trkpt>
      <trkpt lat="44.060993" lon="5.038917">
        <ele>84.46649</ele>
        <time>2021-06-30T19:23:16Z</time>
      </trkpt>
      <trkpt lat="44.060947" lon="5.038845">
        <ele>85.79834</ele>
        <time>2021-06-30T19:23:18Z</time>
      </trkpt>
      <trkpt lat="44.060932" lon="5.038714">
        <ele>84.20862</ele>
        <time>2021-06-30T19:23:18Z</time>
      </trkpt>
      <trkpt lat="44.060959" lon="5.038572">
        <ele>84.22546</ele>
        <time>2021-06-30T19:23:19Z</time>
      </trkpt>
      <trkpt lat="44.060947" lon="5.038434">
        <ele>85.27386</ele>
        <time>2021-06-30T19:23:21Z</time>
      </trkpt>
      <trkpt lat="44.060890" lon="5.038285">
        <ele>84.96313</ele>
        <time>2021-06-30T19:23:22Z</time>
      </trkpt>
      <trkpt lat="44.060890" lon="5.038285">
        <ele>84.65997</ele>
        <time>2021-06-30T19:23:23Z</time>
      </trkpt>
      <trkpt lat="44.060730" lon="5.038145">
        <ele>84.58185</ele>
        <time>2021-06-30T19:23:24Z</time>
      </trkpt>
      <trkpt lat="44.060730" lon="5.038145">
        <ele>85.59344</ele>
        <time>2021-06-30T19:23:25Z</time>
      </trkpt>
      <trkpt lat="44.060619" lon="5.038124">
        <ele>84.63416</ele>
        <time>2021-06-30T19:23:25Z</time>
      </trkpt>
      <trkpt lat="44.060535" lon="5.038151">
        <ele>84.76392</ele>
        <time>2021-06-30T19:23:27Z</time>
      </trkpt>
      <trkpt lat="44.060383" lon="5.038269">
        <ele>84.98468</ele>
        <time>2021-06-30T19:23:28Z</time>
      </trkpt>
      <trkpt lat="44.060226" lon="5.038275">
        <ele>85.83160</ele>
        <time>2021-06-30T19:23:28Z</time>
      </trkpt>
      <trkpt lat="44.060059" lon="5.038211">
        <ele>85.97473</ele>
        <time>2021-06-30T19:23:30Z</time>
      </trkpt>
      <trkpt lat="44.059883" lon="5.038110">
        <ele>85.84760</ele>
        <time>2021-06-30T19:23:31Z</time>
      </trkpt>
      <trkpt lat="44.059700" lon="5.038005">
        <ele>84.93799</ele>
        <time>2021-06-30T19:23:32Z</time>
      </trkpt>
      <trkpt lat="44.059471" lon="5.037861">
        <ele>83.47351</ele>
        <time>2021-06-30T19:23:32Z</time>
      </trkpt>
      <trkpt lat="44.059254" lon="5.037708">
        <ele>83.13684</ele>
        <time>2021-06-30T19:23:33Z</time>
      </trkpt>
      <trkpt lat="44.059048" lon="5.037527">
        <ele>83.01514</ele>
        <time>2021-06-30T19:23:35Z</time>
      </trkpt>
      <trkpt lat="44.059048" lon="5.037527">
        <ele>82.16931</ele>
        <time>2021-06-30T19:23:36Z</time>
      </trkpt>
      <trkpt lat="44.058830" lon="5.037304">
        <ele>82.43054</ele>
        <time>2021-06-30T19:23:36Z</time>
      </trkpt>
      <trkpt lat="44.058647" lon="5.037080">
        <ele>83.01147</ele>
        <time>2021-06-30T19:23:37Z</time>
      </trkpt>
      <trkpt lat="44.058472" lon="5.036821">
        <ele>82.70496</ele>
        <time>2021-06-30T19:23:39Z</time>
      </trkpt>
      <trkpt lat="44.058289" lon="5.036479">
        <ele>82.88403</ele>
        <time>2021-06-30T19:23:40Z</time>
      </trkpt>
      <trkpt lat="44.058155" lon="5.036185">
        <ele>82.59509</ele>
        <time>2021-06-30T19:23:40Z</time>
      </trkpt>
      <trkpt lat="44.058025" lon="5.035853">
        <ele>82.29266</ele>
        <time>2021-06-30T19:23:42Z</time>
      </trkpt>
      <trkpt lat="44.057899" lon="5.035478">
        <ele>82.25800</ele>
        <time>2021-06-30T19:23:43Z</time>
      </trkpt>
      <trkpt lat="44.057816" lon="5.035131">
        <ele>82.38727</ele>
        <time>2021-06-30T19:23:43Z</time>
      </trkpt>
      <trkpt lat="44.057735" lon="5.034791">
        <ele>81.71051</ele>
        <time>2021-06-30T19:23:45Z</time>
      </trkpt>
      <trkpt lat="44.057652" lon="5.034456">
        <ele>81.93762</ele>
        <time>2021-06-30T19:23:46Z</time>
      </trkpt>
      <trkpt lat="44.057568" lon="5.034117">
        <ele>80.82166</ele>
        <time>2021-06-30T19:23:46Z</time>
      </trkpt>
      <trkpt lat="44.057487" lon="5.033776">
        <ele>81.56830</ele>
        <time>2021-06-30T19:23:47Z</time>
      </trkpt>
      <trkpt lat="44.057384" lon="5.033371">
        <ele>81.50391</ele>
        <time>2021-06-30T19:23:48Z</time>
      </trkpt>
      <trkpt lat="44.057301" lon="5.033022">
        <ele>82.71759</ele>
        <time>2021-06-30T19:23:50Z</time>
      </trkpt>
      <trkpt lat="44.057194" lon="5.032658">
        <ele>83.10162</ele>
        <time>2021-06-30T19:23:50Z</time>
      </trkpt>
      <trkpt lat="44.057053" lon="5.032305">
        <ele>83.39661</ele>
        <time>2021-06-30T19:23:51Z</time>
      </trkpt>
      <trkpt lat="44.057053" lon="5.032305">
        <ele>83.77637</ele>
        <time>2021-06-30T19:23:53Z</time>
      </trkpt>
      <trkpt lat="44.056885" lon="5.031944">
        <ele>84.11316</ele>
        <time>2021-06-30T19:23:53Z</time>
      </trkpt>
      <trkpt lat="44.056530" lon="5.031343">
        <ele>83.59723</ele>
        <time>2021-06-30T19:23:55Z</time>
      </trkpt>
      <trkpt lat="44.056530" lon="5.031343">
        <ele>83.13409</ele>
        <time>2021-06-30T19:23:55Z</time>
      </trkpt>
      <trkpt lat="44.056343" lon="5.031079">
        <ele>83.37964</ele>
        <time>2021-06-30T19:23:57Z</time>
      </trkpt>
      <trkpt lat="44.056129" lon="5.030832">
        <ele>81.00262</ele>
        <time>2021-06-30T19:23:58Z</time>
      </trkpt>
      <trkpt lat="44.055885" lon="5.030594">
        <ele>82.18738</ele>
        <time>2021-06-30T19:23:58Z</time>
      </trkpt>
      <trkpt lat="44.055637" lon="5.030384">
        <ele>80.73975</ele>
        <time>2021-06-30T19:24:00Z</time>
      </trkpt>
      <trkpt lat="44.055325" lon="5.030173">
        <ele>80.10400</ele>
        <time>2021-06-30T19:24:01Z</time>
      </trkpt>
      <trkpt lat="44.055058" lon="5.030030">
        <ele>79.93896</ele>
        <time>2021-06-30T19:24:01Z</time>
      </trkpt>
      <trkpt lat="44.054771" lon="5.029927">
        <ele>79.55872</ele>
        <time>2021-06-30T19:24:03Z</time>
      </trkpt>
      <trkpt lat="44.054482" lon="5.029839">
        <ele>80.15332</ele>
        <time>2021-06-30T19:24:04Z</time>
      </trkpt>
      <trkpt lat="44.054188" lon="5.029783">
        <ele>80.20215</ele>
        <time>2021-06-30T19:24:05Z</time>
      </trkpt>
      <trkpt lat="44.053848" lon="5.029726">
        <ele>80.01459</ele>
        <time>2021-06-30T19:24:06Z</time>
      </trkpt>
      <trkpt lat="44.053535" lon="5.029676">
        <ele>80.14758</ele>
        <time>2021-06-30T19:24:07Z</time>
      </trkpt>
      <trkpt lat="44.053242" lon="5.029629">
        <ele>80.08252</ele>
        <time>2021-06-30T19:24:08Z</time>
      </trkpt>
      <trkpt lat="44.052898" lon="5.029574">
        <ele>80.29449</ele>
        <time>2021-06-30T19:24:09Z</time>
      </trkpt>
      <trkpt lat="44.052593" lon="5.029525">
        <ele>80.11353</ele>
        <time>2021-06-30T19:24:10Z</time>
      </trkpt>
      <trkpt lat="44.052593" lon="5.029525">
        <ele>80.29016</ele>
        <time>2021-06-30T19:24:10Z</time>
      </trkpt>
      <trkpt lat="44.052250" lon="5.029469">
        <ele>79.80878</ele>
        <time>2021-06-30T19:24:12Z</time>
      </trkpt>
      <trkpt lat="44.051960" lon="5.029425">
        <ele>79.78052</ele>
        <time>2021-06-30T19:24:13Z</time>
      </trkpt>
      <trkpt lat="44.051620" lon="5.029372">
        <ele>79.99414</ele>
        <time>2021-06-30T19:24:13Z</time>
      </trkpt>
      <trkpt lat="44.051315" lon="5.029292">
        <ele>80.83698</ele>
        <time>2021-06-30T19:24:15Z</time>
      </trkpt>
      <trkpt lat="44.051022" lon="5.029203">
        <ele>81.79077</ele>
        <time>2021-06-30T19:24:16Z</time>
      </trkpt>
      <trkpt lat="44.050697" lon="5.029087">
        <ele>81.90680</ele>
        <time>2021-06-30T19:24:16Z</time>
      </trkpt>
      <trkpt lat="44.050407" lon="5.028957">
        <ele>81.62421</ele>
        <time>2021-06-30T19:24:18Z</time>
      </trkpt>
      <trkpt lat="44.050121" lon="5.028795">
        <ele>81.69781</ele>
        <time>2021-06-30T19:24:19Z</time>
      </trkpt>
      <trkpt lat="44.049843" lon="5.028613">
        <ele>81.61523</ele>
        <time>2021-06-30T19:24:20Z</time>
      </trkpt>
      <trkpt lat="44.049538" lon="5.028390">
        <ele>80.96375</ele>
        <time>2021-06-30T19:24:20Z</time>
      </trkpt>
      <trkpt lat="44.049297" lon="5.028194">
        <ele>80.51227</ele>
        <time>2021-06-30T19:24:22Z</time>
      </trkpt>
      <trkpt lat="44.049023" lon="5.027948">
        <ele>79.90918</ele>
        <time>2021-06-30T19:24:23Z</time>
      </trkpt>
      <trkpt lat="44.048817" lon="5.027715">
        <ele>79.30609</ele>
        <time>2021-06-30T19:24:24Z</time>
      </trkpt>
      <trkpt lat="44.048580" lon="5.027448">
        <ele>78.31873</ele>
        <time>2021-06-30T19:24:25Z</time>
      </trkpt>
      <trkpt lat="44.048374" lon="5.027183">
        <ele>77.84161</ele>
        <time>2021-06-30T19:24:26Z</time>
      </trkpt>
      <trkpt lat="44.048374" lon="5.027183">
        <ele>76.69635</ele>
        <time>2021-06-30T19:24:26Z</time>
      </trkpt>
      <trkpt lat="44.048164" lon="5.026895">
        <ele>76.21893</ele>
        <time>2021-06-30T19:24:28Z</time>
      </trkpt>
      <trkpt lat="44.047962" lon="5.026573">
        <ele>75.16064</ele>
        <time>2021-06-30T19:24:29Z</time>
      </trkpt>
      <trkpt lat="44.047771" lon="5.026243">
        <ele>74.11731</ele>
        <time>2021-06-30T19:24:29Z</time>
      </trkpt>
      <trkpt lat="44.047619" lon="5.025940">
        <ele>73.84265</ele>
        <time>2021-06-30T19:24:31Z</time>
      </trkpt>
      <trkpt lat="44.047466" lon="5.025639">
        <ele>73.46777</ele>
        <time>2021-06-30T19:24:32Z</time>
      </trkpt>
      <trkpt lat="44.047321" lon="5.025360">
        <ele>73.69434</ele>
        <time>2021-06-30T19:24:32Z</time>
      </trkpt>
      <trkpt lat="44.047195" lon="5.025136">
        <ele>73.31512</ele>
        <time>2021-06-30T19:24:33Z</time>
      </trkpt>
      <trkpt lat="44.047077" lon="5.024958">
        <ele>73.71027</ele>
        <time>2021-06-30T19:24:35Z</time>
      </trkpt>
      <trkpt lat="44.046955" lon="5.024789">
        <ele>73.76166</ele>
        <time>2021-06-30T19:24:36Z</time>
      </trkpt>
      <trkpt lat="44.046848" lon="5.024643">
        <ele>73.97314</ele>
        <time>2021-06-30T19:24:37Z</time>
      </trkpt>
      <trkpt lat="44.046848" lon="5.024643">
        <ele>74.36414</ele>
        <time>2021-06-30T19:24:38Z</time>
      </trkpt>
      <trkpt lat="44.046753" lon="5.024512">
        <ele>73.02319</ele>
        <time>2021-06-30T19:24:39Z</time>
      </trkpt>
      <trkpt lat="44.046684" lon="5.024420">
        <ele>73.70074</ele>
        <time>2021-06-30T19:24:40Z</time>
      </trkpt>
      <trkpt lat="44.046669" lon="5.024398">
        <ele>73.70074</ele>
        <time>2021-06-30T19:24:41Z</time>
      </trkpt>
      <trkpt lat="44.046669" lon="5.024398">
        <ele>73.16132</ele>
        <time>2021-06-30T19:24:42Z</time>
      </trkpt>
      <trkpt lat="44.046669" lon="5.024398">
        <ele>73.43353</ele>
        <time>2021-06-30T19:24:43Z</time>
      </trkpt>
      <trkpt lat="44.046673" lon="5.024351">
        <ele>73.59332</ele>
        <time>2021-06-30T19:24:44Z</time>
      </trkpt>
      <trkpt lat="44.046673" lon="5.024187">
        <ele>73.38318</ele>
        <time>2021-06-30T19:24:45Z</time>
      </trkpt>
      <trkpt lat="44.046635" lon="5.024072">
        <ele>74.14099</ele>
        <time>2021-06-30T19:24:46Z</time>
      </trkpt>
      <trkpt lat="44.046543" lon="5.023976">
        <ele>74.22192</ele>
        <time>2021-06-30T19:24:47Z</time>
      </trkpt>
      <trkpt lat="44.046463" lon="5.023953">
        <ele>74.21881</ele>
        <time>2021-06-30T19:24:48Z</time>
      </trkpt>
      <trkpt lat="44.046391" lon="5.023964">
        <ele>74.37274</ele>
        <time>2021-06-30T19:24:49Z</time>
      </trkpt>
      <trkpt lat="44.046391" lon="5.023964">
        <ele>74.28497</ele>
        <time>2021-06-30T19:24:50Z</time>
      </trkpt>
      <trkpt lat="44.046326" lon="5.024018">
        <ele>74.00677</ele>
        <time>2021-06-30T19:24:51Z</time>
      </trkpt>
      <trkpt lat="44.046246" lon="5.024177">
        <ele>73.28705</ele>
        <time>2021-06-30T19:24:52Z</time>
      </trkpt>
      <trkpt lat="44.046242" lon="5.024312">
        <ele>73.58990</ele>
        <time>2021-06-30T19:24:52Z</time>
      </trkpt>
      <trkpt lat="44.046291" lon="5.024467">
        <ele>73.17206</ele>
        <time>2021-06-30T19:24:54Z</time>
      </trkpt>
      <trkpt lat="44.046345" lon="5.024637">
        <ele>73.99237</ele>
        <time>2021-06-30T19:24:55Z</time>
      </trkpt>
      <trkpt lat="44.046280" lon="5.024918">
        <ele>74.11548</ele>
        <time>2021-06-30T19:24:56Z</time>
      </trkpt>
      <trkpt lat="44.046219" lon="5.025205">
        <ele>73.82263</ele>
        <time>2021-06-30T19:24:57Z</time>
      </trkpt>
      <trkpt lat="44.046158" lon="5.025480">
        <ele>73.86957</ele>
        <time>2021-06-30T19:24:58Z</time>
      </trkpt>
      <trkpt lat="44.046101" lon="5.025821">
        <ele>74.72003</ele>
        <time>2021-06-30T19:24:58Z</time>
      </trkpt>
      <trkpt lat="44.046055" lon="5.026125">
        <ele>75.77814</ele>
        <time>2021-06-30T19:25:00Z</time>
      </trkpt>
      <trkpt lat="44.045998" lon="5.026429">
        <ele>76.88379</ele>
        <time>2021-06-30T19:25:01Z</time>
      </trkpt>
      <trkpt lat="44.045925" lon="5.026710">
        <ele>78.01434</ele>
        <time>2021-06-30T19:25:02Z</time>
      </trkpt>
      <trkpt lat="44.045837" lon="5.027031">
        <ele>78.27771</ele>
        <time>2021-06-30T19:25:03Z</time>
      </trkpt>
      <trkpt lat="44.045761" lon="5.027326">
        <ele>77.98572</ele>
        <time>2021-06-30T19:25:03Z</time>
      </trkpt>
      <trkpt lat="44.045696" lon="5.027572">
        <ele>78.08081</ele>
        <time>2021-06-30T19:25:05Z</time>
      </trkpt>
      <trkpt lat="44.045696" lon="5.027572">
        <ele>78.52008</ele>
        <time>2021-06-30T19:25:06Z</time>
      </trkpt>
      <trkpt lat="44.045635" lon="5.027787">
        <ele>77.26056</ele>
        <time>2021-06-30T19:25:07Z</time>
      </trkpt>
      <trkpt lat="44.045555" lon="5.028049">
        <ele>76.58563</ele>
        <time>2021-06-30T19:25:07Z</time>
      </trkpt>
      <trkpt lat="44.045418" lon="5.028314">
        <ele>76.55450</ele>
        <time>2021-06-30T19:25:08Z</time>
      </trkpt>
      <trkpt lat="44.045296" lon="5.028521">
        <ele>76.43274</ele>
        <time>2021-06-30T19:25:10Z</time>
      </trkpt>
      <trkpt lat="44.045162" lon="5.028725">
        <ele>75.88995</ele>
        <time>2021-06-30T19:25:11Z</time>
      </trkpt>
      <trkpt lat="44.045036" lon="5.028904">
        <ele>78.33472</ele>
        <time>2021-06-30T19:25:12Z</time>
      </trkpt>
      <trkpt lat="44.044922" lon="5.029062">
        <ele>79.21411</ele>
        <time>2021-06-30T19:25:13Z</time>
      </trkpt>
      <trkpt lat="44.044762" lon="5.029293">
        <ele>80.45483</ele>
        <time>2021-06-30T19:25:14Z</time>
      </trkpt>
      <trkpt lat="44.044598" lon="5.029505">
        <ele>81.66675</ele>
        <time>2021-06-30T19:25:14Z</time>
      </trkpt>
      <trkpt lat="44.044411" lon="5.029661">
        <ele>82.74622</ele>
        <time>2021-06-30T19:25:16Z</time>
      </trkpt>
      <trkpt lat="44.044170" lon="5.029777">
        <ele>84.05872</ele>
        <time>2021-06-30T19:25:17Z</time>
      </trkpt>
      <trkpt lat="44.044170" lon="5.029777">
        <ele>83.91632</ele>
        <time>2021-06-30T19:25:18Z</time>
      </trkpt>
      <trkpt lat="44.043972" lon="5.029832">
        <ele>84.19818</ele>
        <time>2021-06-30T19:25:19Z</time>
      </trkpt>
      <trkpt lat="44.043797" lon="5.029865">
        <ele>84.81799</ele>
        <time>2021-06-30T19:25:20Z</time>
      </trkpt>
      <trkpt lat="44.043583" lon="5.029883">
        <ele>84.48895</ele>
        <time>2021-06-30T19:25:20Z</time>
      </trkpt>
      <trkpt lat="44.043362" lon="5.029897">
        <ele>84.32794</ele>
        <time>2021-06-30T19:25:21Z</time>
      </trkpt>
      <trkpt lat="44.043114" lon="5.029912">
        <ele>84.47272</ele>
        <time>2021-06-30T19:25:23Z</time>
      </trkpt>
      <trkpt lat="44.042873" lon="5.029908">
        <ele>84.48828</ele>
        <time>2021-06-30T19:25:24Z</time>
      </trkpt>
      <trkpt lat="44.042667" lon="5.029902">
        <ele>84.84552</ele>
        <time>2021-06-30T19:25:25Z</time>
      </trkpt>
      <trkpt lat="44.042446" lon="5.029874">
        <ele>84.81842</ele>
        <time>2021-06-30T19:25:26Z</time>
      </trkpt>
      <trkpt lat="44.042263" lon="5.029836">
        <ele>84.81726</ele>
        <time>2021-06-30T19:25:27Z</time>
      </trkpt>
      <trkpt lat="44.042072" lon="5.029787">
        <ele>84.54822</ele>
        <time>2021-06-30T19:25:28Z</time>
      </trkpt>
      <trkpt lat="44.041874" lon="5.029723">
        <ele>83.72339</ele>
        <time>2021-06-30T19:25:29Z</time>
      </trkpt>
      <trkpt lat="44.041656" lon="5.029654">
        <ele>82.99554</ele>
        <time>2021-06-30T19:25:29Z</time>
      </trkpt>
      <trkpt lat="44.041656" lon="5.029654">
        <ele>82.35364</ele>
        <time>2021-06-30T19:25:30Z</time>
      </trkpt>
      <trkpt lat="44.041454" lon="5.029602">
        <ele>82.06750</ele>
        <time>2021-06-30T19:25:32Z</time>
      </trkpt>
      <trkpt lat="44.041317" lon="5.029592">
        <ele>82.00049</ele>
        <time>2021-06-30T19:25:33Z</time>
      </trkpt>
      <trkpt lat="44.041176" lon="5.029597">
        <ele>81.11707</ele>
        <time>2021-06-30T19:25:34Z</time>
      </trkpt>
      <trkpt lat="44.041069" lon="5.029609">
        <ele>81.37549</ele>
        <time>2021-06-30T19:25:34Z</time>
      </trkpt>
      <trkpt lat="44.041000" lon="5.029565">
        <ele>81.80682</ele>
        <time>2021-06-30T19:25:36Z</time>
      </trkpt>
      <trkpt lat="44.040951" lon="5.029453">
        <ele>81.03949</ele>
        <time>2021-06-30T19:25:37Z</time>
      </trkpt>
      <trkpt lat="44.040771" lon="5.029389">
        <ele>82.08411</ele>
        <time>2021-06-30T19:25:37Z</time>
      </trkpt>
      <trkpt lat="44.040722" lon="5.029427">
        <ele>83.60504</ele>
        <time>2021-06-30T19:25:39Z</time>
      </trkpt>
      <trkpt lat="44.040646" lon="5.029608">
        <ele>83.16376</ele>
        <time>2021-06-30T19:25:39Z</time>
      </trkpt>
      <trkpt lat="44.040646" lon="5.029608">
        <ele>83.20361</ele>
        <time>2021-06-30T19:25:40Z</time>
      </trkpt>
      <trkpt lat="44.040474" lon="5.029741">
        <ele>83.92743</ele>
        <time>2021-06-30T19:25:41Z</time>
      </trkpt>
      <trkpt lat="44.040253" lon="5.029821">
        <ele>84.29071</ele>
        <time>2021-06-30T19:25:42Z</time>
      </trkpt>
      <trkpt lat="44.039951" lon="5.029924">
        <ele>83.91693</ele>
        <time>2021-06-30T19:25:44Z</time>
      </trkpt>
      <trkpt lat="44.039673" lon="5.030013">
        <ele>83.83313</ele>
        <time>2021-06-30T19:25:45Z</time>
      </trkpt>
      <trkpt lat="44.039371" lon="5.030056">
        <ele>85.19238</ele>
        <time>2021-06-30T19:25:46Z</time>
      </trkpt>
      <trkpt lat="44.039089" lon="5.030056">
        <ele>85.75323</ele>
        <time>2021-06-30T19:25:47Z</time>
      </trkpt>
      <trkpt lat="44.038815" lon="5.030071">
        <ele>87.16174</ele>
        <time>2021-06-30T19:25:48Z</time>
      </trkpt>
      <trkpt lat="44.038582" lon="5.030097">
        <ele>87.64148</ele>
        <time>2021-06-30T19:25:49Z</time>
      </trkpt>
      <trkpt lat="44.038315" lon="5.030158">
        <ele>87.88696</ele>
        <time>2021-06-30T19:25:50Z</time>
      </trkpt>
      <trkpt lat="44.038315" lon="5.030158">
        <ele>89.37592</ele>
        <time>2021-06-30T19:25:50Z</time>
      </trkpt>
      <trkpt lat="44.038013" lon="5.030266">
        <ele>89.96051</ele>
        <time>2021-06-30T19:25:51Z</time>
      </trkpt>
      <trkpt lat="44.037758" lon="5.030394">
        <ele>90.43549</ele>
        <time>2021-06-30T19:25:53Z</time>
      </trkpt>
      <trkpt lat="44.037472" lon="5.030575">
        <ele>89.87372</ele>
        <time>2021-06-30T19:25:54Z</time>
      </trkpt>
      <trkpt lat="44.037239" lon="5.030758">
        <ele>89.36920</ele>
        <time>2021-06-30T19:25:55Z</time>
      </trkpt>
      <trkpt lat="44.037025" lon="5.030961">
        <ele>88.68628</ele>
        <time>2021-06-30T19:25:56Z</time>
      </trkpt>
      <trkpt lat="44.036797" lon="5.031219">
        <ele>86.85022</ele>
        <time>2021-06-30T19:25:57Z</time>
      </trkpt>
      <trkpt lat="44.036579" lon="5.031492">
        <ele>85.18518</ele>
        <time>2021-06-30T19:25:58Z</time>
      </trkpt>
      <trkpt lat="44.036381" lon="5.031752">
        <ele>83.54346</ele>
        <time>2021-06-30T19:25:59Z</time>
      </trkpt>
      <trkpt lat="44.036194" lon="5.032000">
        <ele>82.62555</ele>
        <time>2021-06-30T19:26:00Z</time>
      </trkpt>
      <trkpt lat="44.036018" lon="5.032227">
        <ele>81.78546</ele>
        <time>2021-06-30T19:26:00Z</time>
      </trkpt>
      <trkpt lat="44.035858" lon="5.032451">
        <ele>80.89557</ele>
        <time>2021-06-30T19:26:02Z</time>
      </trkpt>
      <trkpt lat="44.035702" lon="5.032625">
        <ele>79.47406</ele>
        <time>2021-06-30T19:26:02Z</time>
      </trkpt>
      <trkpt lat="44.035587" lon="5.032792">
        <ele>79.72595</ele>
        <time>2021-06-30T19:26:04Z</time>
      </trkpt>
      <trkpt lat="44.035587" lon="5.032792">
        <ele>80.34589</ele>
        <time>2021-06-30T19:26:04Z</time>
      </trkpt>
      <trkpt lat="44.035496" lon="5.032924">
        <ele>79.82025</ele>
        <time>2021-06-30T19:26:06Z</time>
      </trkpt>
      <trkpt lat="44.035423" lon="5.033018">
        <ele>80.21887</ele>
        <time>2021-06-30T19:26:07Z</time>
      </trkpt>
      <trkpt lat="44.035339" lon="5.033120">
        <ele>80.71826</ele>
        <time>2021-06-30T19:26:07Z</time>
      </trkpt>
      <trkpt lat="44.035213" lon="5.033150">
        <ele>80.67004</ele>
        <time>2021-06-30T19:26:08Z</time>
      </trkpt>
      <trkpt lat="44.035088" lon="5.033171">
        <ele>80.83264</ele>
        <time>2021-06-30T19:26:10Z</time>
      </trkpt>
      <trkpt lat="44.035019" lon="5.033223">
        <ele>80.60535</ele>
        <time>2021-06-30T19:26:11Z</time>
      </trkpt>
      <trkpt lat="44.034962" lon="5.033324">
        <ele>80.53174</ele>
        <time>2021-06-30T19:26:11Z</time>
      </trkpt>
      <trkpt lat="44.034950" lon="5.033454">
        <ele>80.57404</ele>
        <time>2021-06-30T19:26:13Z</time>
      </trkpt>
      <trkpt lat="44.035004" lon="5.033673">
        <ele>80.87402</ele>
        <time>2021-06-30T19:26:13Z</time>
      </trkpt>
      <trkpt lat="44.035103" lon="5.033777">
        <ele>80.31799</ele>
        <time>2021-06-30T19:26:15Z</time>
      </trkpt>
      <trkpt lat="44.035103" lon="5.033777">
        <ele>80.14594</ele>
        <time>2021-06-30T19:26:15Z</time>
      </trkpt>
      <trkpt lat="44.034977" lon="5.034116">
        <ele>79.85352</ele>
        <time>2021-06-30T19:26:17Z</time>
      </trkpt>
      <trkpt lat="44.034847" lon="5.034513">
        <ele>79.50433</ele>
        <time>2021-06-30T19:26:18Z</time>
      </trkpt>
      <trkpt lat="44.034744" lon="5.034822">
        <ele>80.19427</ele>
        <time>2021-06-30T19:26:19Z</time>
      </trkpt>
      <trkpt lat="44.034569" lon="5.035359">
        <ele>79.65527</ele>
        <time>2021-06-30T19:26:20Z</time>
      </trkpt>
      <trkpt lat="44.034428" lon="5.035798">
        <ele>80.34772</ele>
        <time>2021-06-30T19:26:20Z</time>
      </trkpt>
      <trkpt lat="44.034306" lon="5.036171">
        <ele>80.09021</ele>
        <time>2021-06-30T19:26:22Z</time>
      </trkpt>
      <trkpt lat="44.034176" lon="5.036548">
        <ele>80.01404</ele>
        <time>2021-06-30T19:26:23Z</time>
      </trkpt>
      <trkpt lat="44.034050" lon="5.036921">
        <ele>79.95416</ele>
        <time>2021-06-30T19:26:24Z</time>
      </trkpt>
      <trkpt lat="44.033951" lon="5.037216">
        <ele>81.54395</ele>
        <time>2021-06-30T19:26:25Z</time>
      </trkpt>
      <trkpt lat="44.033848" lon="5.037508">
        <ele>81.67731</ele>
        <time>2021-06-30T19:26:25Z</time>
      </trkpt>
      <trkpt lat="44.033760" lon="5.037754">
        <ele>82.46918</ele>
        <time>2021-06-30T19:26:26Z</time>
      </trkpt>
      <trkpt lat="44.033691" lon="5.037951">
        <ele>81.83728</ele>
        <time>2021-06-30T19:26:28Z</time>
      </trkpt>
      <trkpt lat="44.033691" lon="5.037951">
        <ele>82.42126</ele>
        <time>2021-06-30T19:26:28Z</time>
      </trkpt>
      <trkpt lat="44.033634" lon="5.038108">
        <ele>82.36212</ele>
        <time>2021-06-30T19:26:30Z</time>
      </trkpt>
      <trkpt lat="44.033588" lon="5.038238">
        <ele>83.04462</ele>
        <time>2021-06-30T19:26:31Z</time>
      </trkpt>
      <trkpt lat="44.033531" lon="5.038401">
        <ele>83.79492</ele>
        <time>2021-06-30T19:26:32Z</time>
      </trkpt>
      <trkpt lat="44.033493" lon="5.038521">
        <ele>84.42041</ele>
        <time>2021-06-30T19:26:32Z</time>
      </trkpt>
      <trkpt lat="44.033455" lon="5.038631">
        <ele>83.69592</ele>
        <time>2021-06-30T19:26:34Z</time>
      </trkpt>
      <trkpt lat="44.033379" lon="5.038628">
        <ele>81.81494</ele>
        <time>2021-06-30T19:26:34Z</time>
      </trkpt>
      <trkpt lat="44.033253" lon="5.038633">
        <ele>82.01459</ele>
        <time>2021-06-30T19:26:36Z</time>
      </trkpt>
      <trkpt lat="44.033112" lon="5.038787">
        <ele>81.81512</ele>
        <time>2021-06-30T19:26:36Z</time>
      </trkpt>
      <trkpt lat="44.033024" lon="5.038855">
        <ele>80.59863</ele>
        <time>2021-06-30T19:26:38Z</time>
      </trkpt>
      <trkpt lat="44.032860" lon="5.038885">
        <ele>81.20789</ele>
        <time>2021-06-30T19:26:39Z</time>
      </trkpt>
      <trkpt lat="44.032688" lon="5.038880">
        <ele>82.96332</ele>
        <time>2021-06-30T19:26:40Z</time>
      </trkpt>
      <trkpt lat="44.032475" lon="5.038805">
        <ele>82.46356</ele>
        <time>2021-06-30T19:26:40Z</time>
      </trkpt>
      <trkpt lat="44.032269" lon="5.038730">
        <ele>82.07050</ele>
        <time>2021-06-30T19:26:41Z</time>
      </trkpt>
      <trkpt lat="44.032028" lon="5.038640">
        <ele>81.94232</ele>
        <time>2021-06-30T19:26:43Z</time>
      </trkpt>
      <trkpt lat="44.031769" lon="5.038541">
        <ele>81.42914</ele>
        <time>2021-06-30T19:26:44Z</time>
      </trkpt>
      <trkpt lat="44.031548" lon="5.038463">
        <ele>80.62506</ele>
        <time>2021-06-30T19:26:45Z</time>
      </trkpt>
      <trkpt lat="44.031548" lon="5.038463">
        <ele>80.60596</ele>
        <time>2021-06-30T19:26:46Z</time>
      </trkpt>
      <trkpt lat="44.031319" lon="5.038386">
        <ele>80.61255</ele>
        <time>2021-06-30T19:26:47Z</time>
      </trkpt>
      <trkpt lat="44.031090" lon="5.038309">
        <ele>79.51929</ele>
        <time>2021-06-30T19:26:47Z</time>
      </trkpt>
      <trkpt lat="44.030827" lon="5.038232">
        <ele>79.74561</ele>
        <time>2021-06-30T19:26:49Z</time>
      </trkpt>
      <trkpt lat="44.030598" lon="5.038166">
        <ele>79.48682</ele>
        <time>2021-06-30T19:26:50Z</time>
      </trkpt>
      <trkpt lat="44.030342" lon="5.038094">
        <ele>79.67377</ele>
        <time>2021-06-30T19:26:50Z</time>
      </trkpt>
      <trkpt lat="44.030083" lon="5.038021">
        <ele>79.62769</ele>
        <time>2021-06-30T19:26:52Z</time>
      </trkpt>
      <trkpt lat="44.029839" lon="5.037952">
        <ele>79.41492</ele>
        <time>2021-06-30T19:26:53Z</time>
      </trkpt>
      <trkpt lat="44.029579" lon="5.037879">
        <ele>80.40448</ele>
        <time>2021-06-30T19:26:54Z</time>
      </trkpt>
      <trkpt lat="44.029327" lon="5.037810">
        <ele>79.05170</ele>
        <time>2021-06-30T19:26:55Z</time>
      </trkpt>
      <trkpt lat="44.029102" lon="5.037750">
        <ele>78.91058</ele>
        <time>2021-06-30T19:26:56Z</time>
      </trkpt>
      <trkpt lat="44.028824" lon="5.037673">
        <ele>79.10559</ele>
        <time>2021-06-30T19:26:56Z</time>
      </trkpt>
      <trkpt lat="44.028507" lon="5.037581">
        <ele>78.96344</ele>
        <time>2021-06-30T19:26:58Z</time>
      </trkpt>
      <trkpt lat="44.028236" lon="5.037504">
        <ele>77.22522</ele>
        <time>2021-06-30T19:26:59Z</time>
      </trkpt>
      <trkpt lat="44.027985" lon="5.037436">
        <ele>77.27142</ele>
        <time>2021-06-30T19:27:00Z</time>
      </trkpt>
      <trkpt lat="44.027760" lon="5.037382">
        <ele>76.65234</ele>
        <time>2021-06-30T19:27:01Z</time>
      </trkpt>
      <trkpt lat="44.027760" lon="5.037382">
        <ele>77.70667</ele>
        <time>2021-06-30T19:27:01Z</time>
      </trkpt>
      <trkpt lat="44.027493" lon="5.037315">
        <ele>78.73645</ele>
        <time>2021-06-30T19:27:03Z</time>
      </trkpt>
      <trkpt lat="44.027210" lon="5.037258">
        <ele>78.85980</ele>
        <time>2021-06-30T19:27:04Z</time>
      </trkpt>
      <trkpt lat="44.026920" lon="5.037199">
        <ele>79.51221</ele>
        <time>2021-06-30T19:27:04Z</time>
      </trkpt>
      <trkpt lat="44.026646" lon="5.037145">
        <ele>78.95642</ele>
        <time>2021-06-30T19:27:05Z</time>
      </trkpt>
      <trkpt lat="44.026379" lon="5.037107">
        <ele>79.28925</ele>
        <time>2021-06-30T19:27:07Z</time>
      </trkpt>
      <trkpt lat="44.026127" lon="5.037072">
        <ele>81.03601</ele>
        <time>2021-06-30T19:27:07Z</time>
      </trkpt>
      <trkpt lat="44.025864" lon="5.037035">
        <ele>80.13715</ele>
        <time>2021-06-30T19:27:09Z</time>
      </trkpt>
      <trkpt lat="44.025566" lon="5.036997">
        <ele>79.19666</ele>
        <time>2021-06-30T19:27:10Z</time>
      </trkpt>
      <trkpt lat="44.025326" lon="5.036968">
        <ele>79.13959</ele>
        <time>2021-06-30T19:27:10Z</time>
      </trkpt>
      <trkpt lat="44.025078" lon="5.036939">
        <ele>74.86780</ele>
        <time>2021-06-30T19:27:11Z</time>
      </trkpt>
      <trkpt lat="44.024773" lon="5.036898">
        <ele>75.24036</ele>
        <time>2021-06-30T19:27:13Z</time>
      </trkpt>
      <trkpt lat="44.024532" lon="5.036865">
        <ele>75.43243</ele>
        <time>2021-06-30T19:27:14Z</time>
      </trkpt>
      <trkpt lat="44.024288" lon="5.036830">
        <ele>74.56451</ele>
        <time>2021-06-30T19:27:15Z</time>
      </trkpt>
      <trkpt lat="44.024071" lon="5.036783">
        <ele>74.77203</ele>
        <time>2021-06-30T19:27:15Z</time>
      </trkpt>
      <trkpt lat="44.023888" lon="5.036740">
        <ele>74.85529</ele>
        <time>2021-06-30T19:27:17Z</time>
      </trkpt>
      <trkpt lat="44.023689" lon="5.036690">
        <ele>74.94592</ele>
        <time>2021-06-30T19:27:18Z</time>
      </trkpt>
      <trkpt lat="44.023476" lon="5.036625">
        <ele>75.42517</ele>
        <time>2021-06-30T19:27:18Z</time>
      </trkpt>
      <trkpt lat="44.023476" lon="5.036625">
        <ele>75.60504</ele>
        <time>2021-06-30T19:27:20Z</time>
      </trkpt>
      <trkpt lat="44.023300" lon="5.036571">
        <ele>75.82391</ele>
        <time>2021-06-30T19:27:21Z</time>
      </trkpt>
      <trkpt lat="44.023117" lon="5.036511">
        <ele>75.08893</ele>
        <time>2021-06-30T19:27:22Z</time>
      </trkpt>
      <trkpt lat="44.022942" lon="5.036438">
        <ele>75.77185</ele>
        <time>2021-06-30T19:27:22Z</time>
      </trkpt>
      <trkpt lat="44.022789" lon="5.036370">
        <ele>75.27258</ele>
        <time>2021-06-30T19:27:24Z</time>
      </trkpt>
      <trkpt lat="44.022629" lon="5.036287">
        <ele>74.93671</ele>
        <time>2021-06-30T19:27:24Z</time>
      </trkpt>
      <trkpt lat="44.022419" lon="5.036169">
        <ele>75.64258</ele>
        <time>2021-06-30T19:27:26Z</time>
      </trkpt>
      <trkpt lat="44.022224" lon="5.036057">
        <ele>75.70544</ele>
        <time>2021-06-30T19:27:27Z</time>
      </trkpt>
      <trkpt lat="44.022041" lon="5.035940">
        <ele>75.46130</ele>
        <time>2021-06-30T19:27:28Z</time>
      </trkpt>
      <trkpt lat="44.021793" lon="5.035800">
        <ele>76.20538</ele>
        <time>2021-06-30T19:27:28Z</time>
      </trkpt>
      <trkpt lat="44.021557" lon="5.035666">
        <ele>76.55011</ele>
        <time>2021-06-30T19:27:30Z</time>
      </trkpt>
      <trkpt lat="44.021347" lon="5.035554">
        <ele>76.98676</ele>
        <time>2021-06-30T19:27:31Z</time>
      </trkpt>
      <trkpt lat="44.021160" lon="5.035459">
        <ele>76.94647</ele>
        <time>2021-06-30T19:27:31Z</time>
      </trkpt>
      <trkpt lat="44.021160" lon="5.035459">
        <ele>75.73242</ele>
        <time>2021-06-30T19:27:32Z</time>
      </trkpt>
      <trkpt lat="44.020958" lon="5.035350">
        <ele>75.33624</ele>
        <time>2021-06-30T19:27:33Z</time>
      </trkpt>
      <trkpt lat="44.020821" lon="5.035253">
        <ele>75.82135</ele>
        <time>2021-06-30T19:27:35Z</time>
      </trkpt>
      <trkpt lat="44.020699" lon="5.035158">
        <ele>76.11041</ele>
        <time>2021-06-30T19:27:36Z</time>
      </trkpt>
      <trkpt lat="44.020584" lon="5.035065">
        <ele>75.71069</ele>
        <time>2021-06-30T19:27:37Z</time>
      </trkpt>
      <trkpt lat="44.020485" lon="5.034966">
        <ele>70.15924</ele>
        <time>2021-06-30T19:27:37Z</time>
      </trkpt>
      <trkpt lat="44.020363" lon="5.034832">
        <ele>70.35284</ele>
        <time>2021-06-30T19:27:39Z</time>
      </trkpt>
      <trkpt lat="44.020271" lon="5.034719">
        <ele>70.13660</ele>
        <time>2021-06-30T19:27:40Z</time>
      </trkpt>
      <trkpt lat="44.020195" lon="5.034622">
        <ele>70.72998</ele>
        <time>2021-06-30T19:27:41Z</time>
      </trkpt>
      <trkpt lat="44.020115" lon="5.034509">
        <ele>72.86536</ele>
        <time>2021-06-30T19:27:41Z</time>
      </trkpt>
      <trkpt lat="44.020008" lon="5.034370">
        <ele>72.06396</ele>
        <time>2021-06-30T19:27:43Z</time>
      </trkpt>
      <trkpt lat="44.019909" lon="5.034234">
        <ele>72.30292</ele>
        <time>2021-06-30T19:27:44Z</time>
      </trkpt>
      <trkpt lat="44.019802" lon="5.034090">
        <ele>71.09619</ele>
        <time>2021-06-30T19:27:45Z</time>
      </trkpt>
      <trkpt lat="44.019699" lon="5.033947">
        <ele>71.34357</ele>
        <time>2021-06-30T19:27:45Z</time>
      </trkpt>
      <trkpt lat="44.019592" lon="5.033797">
        <ele>71.03094</ele>
        <time>2021-06-30T19:27:46Z</time>
      </trkpt>
      <trkpt lat="44.019474" lon="5.033633">
        <ele>70.79120</ele>
        <time>2021-06-30T19:27:47Z</time>
      </trkpt>
      <trkpt lat="44.019363" lon="5.033472">
        <ele>70.37329</ele>
        <time>2021-06-30T19:27:49Z</time>
      </trkpt>
      <trkpt lat="44.019363" lon="5.033472">
        <ele>71.87390</ele>
        <time>2021-06-30T19:27:49Z</time>
      </trkpt>
      <trkpt lat="44.019253" lon="5.033282">
        <ele>71.18970</ele>
        <time>2021-06-30T19:27:50Z</time>
      </trkpt>
      <trkpt lat="44.019138" lon="5.033115">
        <ele>70.13489</ele>
        <time>2021-06-30T19:27:51Z</time>
      </trkpt>
      <trkpt lat="44.018993" lon="5.032906">
        <ele>70.00061</ele>
        <time>2021-06-30T19:27:52Z</time>
      </trkpt>
      <trkpt lat="44.018871" lon="5.032730">
        <ele>70.10931</ele>
        <time>2021-06-30T19:27:54Z</time>
      </trkpt>
      <trkpt lat="44.018749" lon="5.032555">
        <ele>69.16467</ele>
        <time>2021-06-30T19:27:54Z</time>
      </trkpt>
      <trkpt lat="44.018597" lon="5.032372">
        <ele>68.99432</ele>
        <time>2021-06-30T19:27:56Z</time>
      </trkpt>
      <trkpt lat="44.018463" lon="5.032217">
        <ele>69.03455</ele>
        <time>2021-06-30T19:27:56Z</time>
      </trkpt>
      <trkpt lat="44.018322" lon="5.032057">
        <ele>68.71283</ele>
        <time>2021-06-30T19:27:57Z</time>
      </trkpt>
      <trkpt lat="44.018188" lon="5.031910">
        <ele>68.78790</ele>
        <time>2021-06-30T19:27:58Z</time>
      </trkpt>
      <trkpt lat="44.018024" lon="5.031726">
        <ele>68.13745</ele>
        <time>2021-06-30T19:28:00Z</time>
      </trkpt>
      <trkpt lat="44.017845" lon="5.031563">
        <ele>68.08423</ele>
        <time>2021-06-30T19:28:01Z</time>
      </trkpt>
      <trkpt lat="44.017845" lon="5.031563">
        <ele>68.32336</ele>
        <time>2021-06-30T19:28:01Z</time>
      </trkpt>
      <trkpt lat="44.017677" lon="5.031422">
        <ele>68.80579</ele>
        <time>2021-06-30T19:28:03Z</time>
      </trkpt>
      <trkpt lat="44.017452" lon="5.031235">
        <ele>69.54773</ele>
        <time>2021-06-30T19:28:04Z</time>
      </trkpt>
      <trkpt lat="44.017208" lon="5.031036">
        <ele>69.37006</ele>
        <time>2021-06-30T19:28:05Z</time>
      </trkpt>
      <trkpt lat="44.017014" lon="5.030878">
        <ele>69.18579</ele>
        <time>2021-06-30T19:28:06Z</time>
      </trkpt>
      <trkpt lat="44.016766" lon="5.030707">
        <ele>68.54730</ele>
        <time>2021-06-30T19:28:07Z</time>
      </trkpt>
      <trkpt lat="44.016502" lon="5.030529">
        <ele>68.02826</ele>
        <time>2021-06-30T19:28:07Z</time>
      </trkpt>
      <trkpt lat="44.016308" lon="5.030386">
        <ele>67.82275</ele>
        <time>2021-06-30T19:28:09Z</time>
      </trkpt>
      <trkpt lat="44.016109" lon="5.030242">
        <ele>68.33362</ele>
        <time>2021-06-30T19:28:10Z</time>
      </trkpt>
      <trkpt lat="44.015881" lon="5.030107">
        <ele>68.06592</ele>
        <time>2021-06-30T19:28:10Z</time>
      </trkpt>
      <trkpt lat="44.015667" lon="5.029944">
        <ele>68.86212</ele>
        <time>2021-06-30T19:28:12Z</time>
      </trkpt>
      <trkpt lat="44.015453" lon="5.029763">
        <ele>68.99255</ele>
        <time>2021-06-30T19:28:13Z</time>
      </trkpt>
      <trkpt lat="44.015266" lon="5.029591">
        <ele>68.86078</ele>
        <time>2021-06-30T19:28:13Z</time>
      </trkpt>
      <trkpt lat="44.015266" lon="5.029591">
        <ele>68.74646</ele>
        <time>2021-06-30T19:28:14Z</time>
      </trkpt>
      <trkpt lat="44.015060" lon="5.029395">
        <ele>68.69489</ele>
        <time>2021-06-30T19:28:16Z</time>
      </trkpt>
      <trkpt lat="44.014854" lon="5.029192">
        <ele>68.20435</ele>
        <time>2021-06-30T19:28:16Z</time>
      </trkpt>
      <trkpt lat="44.014648" lon="5.028993">
        <ele>67.54816</ele>
        <time>2021-06-30T19:28:18Z</time>
      </trkpt>
      <trkpt lat="44.014439" lon="5.028799">
        <ele>68.11035</ele>
        <time>2021-06-30T19:28:18Z</time>
      </trkpt>
      <trkpt lat="44.014217" lon="5.028611">
        <ele>68.11749</ele>
        <time>2021-06-30T19:28:20Z</time>
      </trkpt>
      <trkpt lat="44.013981" lon="5.028408">
        <ele>68.00391</ele>
        <time>2021-06-30T19:28:21Z</time>
      </trkpt>
      <trkpt lat="44.013763" lon="5.028227">
        <ele>68.48901</ele>
        <time>2021-06-30T19:28:22Z</time>
      </trkpt>
      <trkpt lat="44.013531" lon="5.028045">
        <ele>68.40680</ele>
        <time>2021-06-30T19:28:23Z</time>
      </trkpt>
      <trkpt lat="44.013325" lon="5.027884">
        <ele>68.19275</ele>
        <time>2021-06-30T19:28:23Z</time>
      </trkpt>
      <trkpt lat="44.013084" lon="5.027699">
        <ele>67.83856</ele>
        <time>2021-06-30T19:28:25Z</time>
      </trkpt>
      <trkpt lat="44.012844" lon="5.027511">
        <ele>67.41541</ele>
        <time>2021-06-30T19:28:26Z</time>
      </trkpt>
      <trkpt lat="44.012638" lon="5.027351">
        <ele>66.57471</ele>
        <time>2021-06-30T19:28:27Z</time>
      </trkpt>
      <trkpt lat="44.012413" lon="5.027178">
        <ele>66.33777</ele>
        <time>2021-06-30T19:28:28Z</time>
      </trkpt>
      <trkpt lat="44.012199" lon="5.027012">
        <ele>65.74854</ele>
        <time>2021-06-30T19:28:29Z</time>
      </trkpt>
      <trkpt lat="44.011974" lon="5.026838">
        <ele>66.94153</ele>
        <time>2021-06-30T19:28:30Z</time>
      </trkpt>
      <trkpt lat="44.011974" lon="5.026838">
        <ele>66.59052</ele>
        <time>2021-06-30T19:28:31Z</time>
      </trkpt>
      <trkpt lat="44.011730" lon="5.026648">
        <ele>65.39294</ele>
        <time>2021-06-30T19:28:32Z</time>
      </trkpt>
      <trkpt lat="44.011505" lon="5.026472">
        <ele>65.47638</ele>
        <time>2021-06-30T19:28:33Z</time>
      </trkpt>
      <trkpt lat="44.011288" lon="5.026303">
        <ele>65.33466</ele>
        <time>2021-06-30T19:28:34Z</time>
      </trkpt>
      <trkpt lat="44.011063" lon="5.026127">
        <ele>66.60248</ele>
        <time>2021-06-30T19:28:34Z</time>
      </trkpt>
      <trkpt lat="44.010845" lon="5.025959">
        <ele>67.06799</ele>
        <time>2021-06-30T19:28:35Z</time>
      </trkpt>
      <trkpt lat="44.010628" lon="5.025770">
        <ele>67.06763</ele>
        <time>2021-06-30T19:28:36Z</time>
      </trkpt>
      <trkpt lat="44.010349" lon="5.025590">
        <ele>67.67700</ele>
        <time>2021-06-30T19:28:38Z</time>
      </trkpt>
      <trkpt lat="44.010117" lon="5.025439">
        <ele>67.32208</ele>
        <time>2021-06-30T19:28:39Z</time>
      </trkpt>
      <trkpt lat="44.009911" lon="5.025312">
        <ele>67.63477</ele>
        <time>2021-06-30T19:28:39Z</time>
      </trkpt>
      <trkpt lat="44.009663" lon="5.025166">
        <ele>66.69727</ele>
        <time>2021-06-30T19:28:40Z</time>
      </trkpt>
      <trkpt lat="44.009418" lon="5.025000">
        <ele>66.34100</ele>
        <time>2021-06-30T19:28:41Z</time>
      </trkpt>
      <trkpt lat="44.009418" lon="5.025000">
        <ele>67.26050</ele>
        <time>2021-06-30T19:28:43Z</time>
      </trkpt>
      <trkpt lat="44.009197" lon="5.024820">
        <ele>66.64612</ele>
        <time>2021-06-30T19:28:43Z</time>
      </trkpt>
      <trkpt lat="44.008980" lon="5.024628">
        <ele>66.43805</ele>
        <time>2021-06-30T19:28:44Z</time>
      </trkpt>
      <trkpt lat="44.008766" lon="5.024413">
        <ele>66.39941</ele>
        <time>2021-06-30T19:28:45Z</time>
      </trkpt>
      <trkpt lat="44.008568" lon="5.024202">
        <ele>65.64294</ele>
        <time>2021-06-30T19:28:46Z</time>
      </trkpt>
      <trkpt lat="44.008366" lon="5.023947">
        <ele>63.25867</ele>
        <time>2021-06-30T19:28:47Z</time>
      </trkpt>
      <trkpt lat="44.008232" lon="5.023784">
        <ele>62.85242</ele>
        <time>2021-06-30T19:28:49Z</time>
      </trkpt>
      <trkpt lat="44.008060" lon="5.023600">
        <ele>62.52258</ele>
        <time>2021-06-30T19:28:49Z</time>
      </trkpt>
      <trkpt lat="44.007889" lon="5.023363">
        <ele>62.25073</ele>
        <time>2021-06-30T19:28:50Z</time>
      </trkpt>
      <trkpt lat="44.007725" lon="5.023139">
        <ele>61.92297</ele>
        <time>2021-06-30T19:28:52Z</time>
      </trkpt>
      <trkpt lat="44.007549" lon="5.022856">
        <ele>61.64935</ele>
        <time>2021-06-30T19:28:53Z</time>
      </trkpt>
      <trkpt lat="44.007404" lon="5.022610">
        <ele>61.44641</ele>
        <time>2021-06-30T19:28:53Z</time>
      </trkpt>
      <trkpt lat="44.007229" lon="5.022302">
        <ele>61.40710</ele>
        <time>2021-06-30T19:28:54Z</time>
      </trkpt>
      <trkpt lat="44.007072" lon="5.022019">
        <ele>61.37219</ele>
        <time>2021-06-30T19:28:56Z</time>
      </trkpt>
      <trkpt lat="44.006920" lon="5.021744">
        <ele>61.01135</ele>
        <time>2021-06-30T19:28:56Z</time>
      </trkpt>
      <trkpt lat="44.006920" lon="5.021744">
        <ele>60.05145</ele>
        <time>2021-06-30T19:28:57Z</time>
      </trkpt>
      <trkpt lat="44.006756" lon="5.021456">
        <ele>59.28094</ele>
        <time>2021-06-30T19:28:59Z</time>
      </trkpt>
      <trkpt lat="44.006592" lon="5.021178">
        <ele>58.77808</ele>
        <time>2021-06-30T19:29:00Z</time>
      </trkpt>
      <trkpt lat="44.006420" lon="5.020926">
        <ele>58.29022</ele>
        <time>2021-06-30T19:29:01Z</time>
      </trkpt>
      <trkpt lat="44.006226" lon="5.020668">
        <ele>58.53741</ele>
        <time>2021-06-30T19:29:01Z</time>
      </trkpt>
      <trkpt lat="44.006012" lon="5.020396">
        <ele>58.91565</ele>
        <time>2021-06-30T19:29:02Z</time>
      </trkpt>
      <trkpt lat="44.005791" lon="5.020132">
        <ele>58.50348</ele>
        <time>2021-06-30T19:29:03Z</time>
      </trkpt>
      <trkpt lat="44.005615" lon="5.019942">
        <ele>58.11047</ele>
        <time>2021-06-30T19:29:05Z</time>
      </trkpt>
      <trkpt lat="44.005383" lon="5.019713">
        <ele>58.12396</ele>
        <time>2021-06-30T19:29:06Z</time>
      </trkpt>
      <trkpt lat="44.005192" lon="5.019526">
        <ele>58.72369</ele>
        <time>2021-06-30T19:29:06Z</time>
      </trkpt>
      <trkpt lat="44.004959" lon="5.019313">
        <ele>59.25146</ele>
        <time>2021-06-30T19:29:08Z</time>
      </trkpt>
      <trkpt lat="44.004959" lon="5.019313">
        <ele>59.16089</ele>
        <time>2021-06-30T19:29:08Z</time>
      </trkpt>
      <trkpt lat="44.004768" lon="5.019139">
        <ele>58.81689</ele>
        <time>2021-06-30T19:29:10Z</time>
      </trkpt>
      <trkpt lat="44.004478" lon="5.018876">
        <ele>58.71661</ele>
        <time>2021-06-30T19:29:10Z</time>
      </trkpt>
      <trkpt lat="44.004234" lon="5.018652">
        <ele>58.34705</ele>
        <time>2021-06-30T19:29:12Z</time>
      </trkpt>
      <trkpt lat="44.004025" lon="5.018447">
        <ele>58.27814</ele>
        <time>2021-06-30T19:29:13Z</time>
      </trkpt>
      <trkpt lat="44.003780" lon="5.018198">
        <ele>58.18225</ele>
        <time>2021-06-30T19:29:14Z</time>
      </trkpt>
      <trkpt lat="44.003544" lon="5.017990">
        <ele>56.54810</ele>
        <time>2021-06-30T19:29:15Z</time>
      </trkpt>
      <trkpt lat="44.003300" lon="5.017772">
        <ele>55.07544</ele>
        <time>2021-06-30T19:29:15Z</time>
      </trkpt>
      <trkpt lat="44.003067" lon="5.017557">
        <ele>55.59918</ele>
        <time>2021-06-30T19:29:16Z</time>
      </trkpt>
      <trkpt lat="44.003067" lon="5.017557">
        <ele>56.30701</ele>
        <time>2021-06-30T19:29:18Z</time>
      </trkpt>
      <trkpt lat="44.002861" lon="5.017361">
        <ele>57.23267</ele>
        <time>2021-06-30T19:29:18Z</time>
      </trkpt>
      <trkpt lat="44.002617" lon="5.017123">
        <ele>57.38135</ele>
        <time>2021-06-30T19:29:20Z</time>
      </trkpt>
      <trkpt lat="44.002426" lon="5.016924">
        <ele>58.42981</ele>
        <time>2021-06-30T19:29:21Z</time>
      </trkpt>
      <trkpt lat="44.002205" lon="5.016692">
        <ele>59.90186</ele>
        <time>2021-06-30T19:29:21Z</time>
      </trkpt>
      <trkpt lat="44.002007" lon="5.016446">
        <ele>59.18262</ele>
        <time>2021-06-30T19:29:23Z</time>
      </trkpt>
      <trkpt lat="44.001816" lon="5.016177">
        <ele>58.53314</ele>
        <time>2021-06-30T19:29:24Z</time>
      </trkpt>
      <trkpt lat="44.001614" lon="5.015931">
        <ele>58.84906</ele>
        <time>2021-06-30T19:29:24Z</time>
      </trkpt>
      <trkpt lat="44.001492" lon="5.015734">
        <ele>57.32251</ele>
        <time>2021-06-30T19:29:25Z</time>
      </trkpt>
      <trkpt lat="44.001328" lon="5.015419">
        <ele>55.65582</ele>
        <time>2021-06-30T19:29:26Z</time>
      </trkpt>
      <trkpt lat="44.001328" lon="5.015419">
        <ele>56.50354</ele>
        <time>2021-06-30T19:29:27Z</time>
      </trkpt>
      <trkpt lat="44.001194" lon="5.015085">
        <ele>56.04877</ele>
        <time>2021-06-30T19:29:29Z</time>
      </trkpt>
      <trkpt lat="44.001068" lon="5.014768">
        <ele>55.23035</ele>
        <time>2021-06-30T19:29:30Z</time>
      </trkpt>
      <trkpt lat="44.000969" lon="5.014429">
        <ele>54.96051</ele>
        <time>2021-06-30T19:29:30Z</time>
      </trkpt>
      <trkpt lat="44.000862" lon="5.014139">
        <ele>54.93457</ele>
        <time>2021-06-30T19:29:31Z</time>
      </trkpt>
      <trkpt lat="44.000797" lon="5.013815">
        <ele>55.29999</ele>
        <time>2021-06-30T19:29:32Z</time>
      </trkpt>
      <trkpt lat="44.000732" lon="5.013504">
        <ele>55.68964</ele>
        <time>2021-06-30T19:29:33Z</time>
      </trkpt>
      <trkpt lat="44.000679" lon="5.013266">
        <ele>56.48840</ele>
        <time>2021-06-30T19:29:35Z</time>
      </trkpt>
      <trkpt lat="44.000641" lon="5.013011">
        <ele>56.51166</ele>
        <time>2021-06-30T19:29:36Z</time>
      </trkpt>
      <trkpt lat="44.000614" lon="5.012752">
        <ele>55.85864</ele>
        <time>2021-06-30T19:29:37Z</time>
      </trkpt>
      <trkpt lat="44.000629" lon="5.012522">
        <ele>55.33038</ele>
        <time>2021-06-30T19:29:38Z</time>
      </trkpt>
      <trkpt lat="44.000656" lon="5.012274">
        <ele>53.80426</ele>
        <time>2021-06-30T19:29:39Z</time>
      </trkpt>
      <trkpt lat="44.000683" lon="5.012148">
        <ele>54.27100</ele>
        <time>2021-06-30T19:29:39Z</time>
      </trkpt>
      <trkpt lat="44.000717" lon="5.012061">
        <ele>54.87146</ele>
        <time>2021-06-30T19:29:41Z</time>
      </trkpt>
      <trkpt lat="44.000717" lon="5.012061">
        <ele>53.95618</ele>
        <time>2021-06-30T19:29:41Z</time>
      </trkpt>
      <trkpt lat="44.000740" lon="5.012002">
        <ele>52.99329</ele>
        <time>2021-06-30T19:29:43Z</time>
      </trkpt>
      <trkpt lat="44.000755" lon="5.011967">
        <ele>53.78558</ele>
        <time>2021-06-30T19:29:44Z</time>
      </trkpt>
      <trkpt lat="44.000805" lon="5.011875">
        <ele>52.05304</ele>
        <time>2021-06-30T19:29:45Z</time>
      </trkpt>
      <trkpt lat="44.000900" lon="5.011743">
        <ele>52.30084</ele>
        <time>2021-06-30T19:29:46Z</time>
      </trkpt>
      <trkpt lat="44.000916" lon="5.011663">
        <ele>52.23657</ele>
        <time>2021-06-30T19:29:47Z</time>
      </trkpt>
      <trkpt lat="44.000908" lon="5.011594">
        <ele>52.07739</ele>
        <time>2021-06-30T19:29:48Z</time>
      </trkpt>
      <trkpt lat="44.000866" lon="5.011494">
        <ele>51.65149</ele>
        <time>2021-06-30T19:29:49Z</time>
      </trkpt>
      <trkpt lat="44.000748" lon="5.011422">
        <ele>51.37000</ele>
        <time>2021-06-30T19:29:50Z</time>
      </trkpt>
      <trkpt lat="44.000637" lon="5.011399">
        <ele>52.11627</ele>
        <time>2021-06-30T19:29:51Z</time>
      </trkpt>
      <trkpt lat="44.000519" lon="5.011306">
        <ele>53.95099</ele>
        <time>2021-06-30T19:29:52Z</time>
      </trkpt>
      <trkpt lat="44.000401" lon="5.011255">
        <ele>53.88123</ele>
        <time>2021-06-30T19:29:53Z</time>
      </trkpt>
      <trkpt lat="44.000401" lon="5.011255">
        <ele>54.03668</ele>
        <time>2021-06-30T19:29:54Z</time>
      </trkpt>
      <trkpt lat="44.000301" lon="5.011297">
        <ele>51.70575</ele>
        <time>2021-06-30T19:29:55Z</time>
      </trkpt>
      <trkpt lat="44.000237" lon="5.011410">
        <ele>51.51685</ele>
        <time>2021-06-30T19:29:56Z</time>
      </trkpt>
      <trkpt lat="44.000034" lon="5.011354">
        <ele>50.91003</ele>
        <time>2021-06-30T19:29:56Z</time>
      </trkpt>
      <trkpt lat="43.999863" lon="5.011302">
        <ele>50.09167</ele>
        <time>2021-06-30T19:29:58Z</time>
      </trkpt>
      <trkpt lat="43.999657" lon="5.011246">
        <ele>49.82385</ele>
        <time>2021-06-30T19:29:59Z</time>
      </trkpt>
      <trkpt lat="43.999435" lon="5.011186">
        <ele>49.46375</ele>
        <time>2021-06-30T19:30:00Z</time>
      </trkpt>
      <trkpt lat="43.999130" lon="5.011129">
        <ele>50.37488</ele>
        <time>2021-06-30T19:30:01Z</time>
      </trkpt>
      <trkpt lat="43.998894" lon="5.011123">
        <ele>50.44824</ele>
        <time>2021-06-30T19:30:01Z</time>
      </trkpt>
      <trkpt lat="43.998627" lon="5.011134">
        <ele>50.68457</ele>
        <time>2021-06-30T19:30:03Z</time>
      </trkpt>
      <trkpt lat="43.998356" lon="5.011146">
        <ele>50.89557</ele>
        <time>2021-06-30T19:30:03Z</time>
      </trkpt>
      <trkpt lat="43.998356" lon="5.011146">
        <ele>51.27258</ele>
        <time>2021-06-30T19:30:04Z</time>
      </trkpt>
      <trkpt lat="43.997753" lon="5.011188">
        <ele>51.45325</ele>
        <time>2021-06-30T19:30:06Z</time>
      </trkpt>
      <trkpt lat="43.997753" lon="5.011188">
        <ele>50.41638</ele>
        <time>2021-06-30T19:30:07Z</time>
      </trkpt>
      <trkpt lat="43.997421" lon="5.011239">
        <ele>48.84460</ele>
        <time>2021-06-30T19:30:07Z</time>
      </trkpt>
      <trkpt lat="43.997066" lon="5.011256">
        <ele>49.56360</ele>
        <time>2021-06-30T19:30:08Z</time>
      </trkpt>
      <trkpt lat="43.996777" lon="5.011264">
        <ele>49.95569</ele>
        <time>2021-06-30T19:30:10Z</time>
      </trkpt>
      <trkpt lat="43.996487" lon="5.011273">
        <ele>50.07928</ele>
        <time>2021-06-30T19:30:10Z</time>
      </trkpt>
      <trkpt lat="43.996227" lon="5.011282">
        <ele>49.83063</ele>
        <time>2021-06-30T19:30:12Z</time>
      </trkpt>
      <trkpt lat="43.995918" lon="5.011294">
        <ele>49.45752</ele>
        <time>2021-06-30T19:30:13Z</time>
      </trkpt>
      <trkpt lat="43.995579" lon="5.011307">
        <ele>49.16547</ele>
        <time>2021-06-30T19:30:14Z</time>
      </trkpt>
      <trkpt lat="43.995258" lon="5.011319">
        <ele>49.06006</ele>
        <time>2021-06-30T19:30:14Z</time>
      </trkpt>
      <trkpt lat="43.994987" lon="5.011330">
        <ele>49.18579</ele>
        <time>2021-06-30T19:30:15Z</time>
      </trkpt>
      <trkpt lat="43.994713" lon="5.011339">
        <ele>49.41803</ele>
        <time>2021-06-30T19:30:17Z</time>
      </trkpt>
      <trkpt lat="43.994408" lon="5.011350">
        <ele>48.51941</ele>
        <time>2021-06-30T19:30:18Z</time>
      </trkpt>
      <trkpt lat="43.994122" lon="5.011359">
        <ele>49.59393</ele>
        <time>2021-06-30T19:30:19Z</time>
      </trkpt>
      <trkpt lat="43.994122" lon="5.011359">
        <ele>49.94666</ele>
        <time>2021-06-30T19:30:20Z</time>
      </trkpt>
      <trkpt lat="43.993820" lon="5.011370">
        <ele>50.12012</ele>
        <time>2021-06-30T19:30:20Z</time>
      </trkpt>
      <trkpt lat="43.993523" lon="5.011380">
        <ele>50.42810</ele>
        <time>2021-06-30T19:30:21Z</time>
      </trkpt>
      <trkpt lat="43.993202" lon="5.011391">
        <ele>50.82660</ele>
        <time>2021-06-30T19:30:23Z</time>
      </trkpt>
      <trkpt lat="43.992928" lon="5.011400">
        <ele>50.91089</ele>
        <time>2021-06-30T19:30:23Z</time>
      </trkpt>
      <trkpt lat="43.992691" lon="5.011407">
        <ele>49.65375</ele>
        <time>2021-06-30T19:30:24Z</time>
      </trkpt>
      <trkpt lat="43.992401" lon="5.011413">
        <ele>48.98425</ele>
        <time>2021-06-30T19:30:26Z</time>
      </trkpt>
      <trkpt lat="43.992077" lon="5.011422">
        <ele>48.62872</ele>
        <time>2021-06-30T19:30:27Z</time>
      </trkpt>
      <trkpt lat="43.991791" lon="5.011430">
        <ele>48.17517</ele>
        <time>2021-06-30T19:30:28Z</time>
      </trkpt>
      <trkpt lat="43.991520" lon="5.011439">
        <ele>47.60022</ele>
        <time>2021-06-30T19:30:29Z</time>
      </trkpt>
      <trkpt lat="43.991238" lon="5.011450">
        <ele>48.43555</ele>
        <time>2021-06-30T19:30:29Z</time>
      </trkpt>
      <trkpt lat="43.990944" lon="5.011461">
        <ele>49.03217</ele>
        <time>2021-06-30T19:30:31Z</time>
      </trkpt>
      <trkpt lat="43.990669" lon="5.011471">
        <ele>48.88104</ele>
        <time>2021-06-30T19:30:32Z</time>
      </trkpt>
      <trkpt lat="43.990669" lon="5.011471">
        <ele>48.54907</ele>
        <time>2021-06-30T19:30:33Z</time>
      </trkpt>
      <trkpt lat="43.990429" lon="5.011491">
        <ele>48.27783</ele>
        <time>2021-06-30T19:30:34Z</time>
      </trkpt>
      <trkpt lat="43.990223" lon="5.011509">
        <ele>48.39667</ele>
        <time>2021-06-30T19:30:34Z</time>
      </trkpt>
      <trkpt lat="43.990005" lon="5.011529">
        <ele>48.25421</ele>
        <time>2021-06-30T19:30:36Z</time>
      </trkpt>
      <trkpt lat="43.989796" lon="5.011563">
        <ele>48.19952</ele>
        <time>2021-06-30T19:30:36Z</time>
      </trkpt>
      <trkpt lat="43.989574" lon="5.011631">
        <ele>48.26001</ele>
        <time>2021-06-30T19:30:38Z</time>
      </trkpt>
      <trkpt lat="43.989365" lon="5.011669">
        <ele>48.32587</ele>
        <time>2021-06-30T19:30:39Z</time>
      </trkpt>
      <trkpt lat="43.989162" lon="5.011742">
        <ele>48.88336</ele>
        <time>2021-06-30T19:30:39Z</time>
      </trkpt>
      <trkpt lat="43.988945" lon="5.011840">
        <ele>48.90869</ele>
        <time>2021-06-30T19:30:41Z</time>
      </trkpt>
      <trkpt lat="43.988724" lon="5.011943">
        <ele>48.02753</ele>
        <time>2021-06-30T19:30:42Z</time>
      </trkpt>
      <trkpt lat="43.988537" lon="5.012045">
        <ele>49.08008</ele>
        <time>2021-06-30T19:30:43Z</time>
      </trkpt>
      <trkpt lat="43.988338" lon="5.012164">
        <ele>48.91919</ele>
        <time>2021-06-30T19:30:44Z</time>
      </trkpt>
      <trkpt lat="43.988140" lon="5.012296">
        <ele>49.54974</ele>
        <time>2021-06-30T19:30:44Z</time>
      </trkpt>
      <trkpt lat="43.987926" lon="5.012436">
        <ele>50.00867</ele>
        <time>2021-06-30T19:30:46Z</time>
      </trkpt>
      <trkpt lat="43.987724" lon="5.012575">
        <ele>50.03735</ele>
        <time>2021-06-30T19:30:47Z</time>
      </trkpt>
      <trkpt lat="43.987522" lon="5.012715">
        <ele>50.30609</ele>
        <time>2021-06-30T19:30:48Z</time>
      </trkpt>
      <trkpt lat="43.987522" lon="5.012715">
        <ele>49.94757</ele>
        <time>2021-06-30T19:30:49Z</time>
      </trkpt>
      <trkpt lat="43.987328" lon="5.012849">
        <ele>49.88660</ele>
        <time>2021-06-30T19:30:49Z</time>
      </trkpt>
      <trkpt lat="43.987133" lon="5.012983">
        <ele>49.87079</ele>
        <time>2021-06-30T19:30:51Z</time>
      </trkpt>
      <trkpt lat="43.986904" lon="5.013143">
        <ele>50.06079</ele>
        <time>2021-06-30T19:30:52Z</time>
      </trkpt>
      <trkpt lat="43.986713" lon="5.013274">
        <ele>49.37109</ele>
        <time>2021-06-30T19:30:53Z</time>
      </trkpt>
      <trkpt lat="43.986507" lon="5.013418">
        <ele>49.19202</ele>
        <time>2021-06-30T19:30:54Z</time>
      </trkpt>
      <trkpt lat="43.986282" lon="5.013574">
        <ele>49.75574</ele>
        <time>2021-06-30T19:30:55Z</time>
      </trkpt>
      <trkpt lat="43.986076" lon="5.013716">
        <ele>49.71600</ele>
        <time>2021-06-30T19:30:56Z</time>
      </trkpt>
      <trkpt lat="43.985878" lon="5.013854">
        <ele>50.18774</ele>
        <time>2021-06-30T19:30:56Z</time>
      </trkpt>
      <trkpt lat="43.985661" lon="5.014005">
        <ele>49.26575</ele>
        <time>2021-06-30T19:30:58Z</time>
      </trkpt>
      <trkpt lat="43.985458" lon="5.014146">
        <ele>48.91888</ele>
        <time>2021-06-30T19:30:59Z</time>
      </trkpt>
      <trkpt lat="43.985264" lon="5.014281">
        <ele>49.51617</ele>
        <time>2021-06-30T19:31:00Z</time>
      </trkpt>
      <trkpt lat="43.985058" lon="5.014425">
        <ele>50.12555</ele>
        <time>2021-06-30T19:31:01Z</time>
      </trkpt>
      <trkpt lat="43.985058" lon="5.014425">
        <ele>50.43695</ele>
        <time>2021-06-30T19:31:02Z</time>
      </trkpt>
      <trkpt lat="43.984856" lon="5.014568">
        <ele>50.61816</ele>
        <time>2021-06-30T19:31:03Z</time>
      </trkpt>
      <trkpt lat="43.984646" lon="5.014713">
        <ele>49.56622</ele>
        <time>2021-06-30T19:31:04Z</time>
      </trkpt>
      <trkpt lat="43.984444" lon="5.014854">
        <ele>49.60699</ele>
        <time>2021-06-30T19:31:05Z</time>
      </trkpt>
      <trkpt lat="43.984238" lon="5.014997">
        <ele>49.68219</ele>
        <time>2021-06-30T19:31:06Z</time>
      </trkpt>
      <trkpt lat="43.984055" lon="5.015125">
        <ele>49.54907</ele>
        <time>2021-06-30T19:31:07Z</time>
      </trkpt>
      <trkpt lat="43.983868" lon="5.015255">
        <ele>49.65393</ele>
        <time>2021-06-30T19:31:08Z</time>
      </trkpt>
      <trkpt lat="43.983688" lon="5.015378">
        <ele>49.26849</ele>
        <time>2021-06-30T19:31:09Z</time>
      </trkpt>
      <trkpt lat="43.983551" lon="5.015473">
        <ele>48.93030</ele>
        <time>2021-06-30T19:31:10Z</time>
      </trkpt>
      <trkpt lat="43.983311" lon="5.015636">
        <ele>49.66888</ele>
        <time>2021-06-30T19:31:11Z</time>
      </trkpt>
      <trkpt lat="43.983120" lon="5.015778">
        <ele>49.76074</ele>
        <time>2021-06-30T19:31:12Z</time>
      </trkpt>
      <trkpt lat="43.982914" lon="5.015932">
        <ele>49.80353</ele>
        <time>2021-06-30T19:31:12Z</time>
      </trkpt>
      <trkpt lat="43.982746" lon="5.016052">
        <ele>49.60352</ele>
        <time>2021-06-30T19:31:14Z</time>
      </trkpt>
      <trkpt lat="43.982582" lon="5.016175">
        <ele>50.02124</ele>
        <time>2021-06-30T19:31:14Z</time>
      </trkpt>
      <trkpt lat="43.982422" lon="5.016251">
        <ele>49.95502</ele>
        <time>2021-06-30T19:31:16Z</time>
      </trkpt>
      <trkpt lat="43.982422" lon="5.016251">
        <ele>50.18036</ele>
        <time>2021-06-30T19:31:16Z</time>
      </trkpt>
      <trkpt lat="43.982269" lon="5.016337">
        <ele>50.94104</ele>
        <time>2021-06-30T19:31:17Z</time>
      </trkpt>
      <trkpt lat="43.982128" lon="5.016418">
        <ele>50.50745</ele>
        <time>2021-06-30T19:31:19Z</time>
      </trkpt>
      <trkpt lat="43.982006" lon="5.016487">
        <ele>51.31311</ele>
        <time>2021-06-30T19:31:20Z</time>
      </trkpt>
      <trkpt lat="43.981911" lon="5.016540">
        <ele>51.30151</ele>
        <time>2021-06-30T19:31:21Z</time>
      </trkpt>
      <trkpt lat="43.981823" lon="5.016589">
        <ele>51.61652</ele>
        <time>2021-06-30T19:31:22Z</time>
      </trkpt>
      <trkpt lat="43.981750" lon="5.016630">
        <ele>51.53387</ele>
        <time>2021-06-30T19:31:22Z</time>
      </trkpt>
      <trkpt lat="43.981663" lon="5.016666">
        <ele>51.89386</ele>
        <time>2021-06-30T19:31:23Z</time>
      </trkpt>
      <trkpt lat="43.981564" lon="5.016692">
        <ele>51.89624</ele>
        <time>2021-06-30T19:31:25Z</time>
      </trkpt>
      <trkpt lat="43.981461" lon="5.016678">
        <ele>51.64606</ele>
        <time>2021-06-30T19:31:26Z</time>
      </trkpt>
      <trkpt lat="43.981377" lon="5.016698">
        <ele>52.66522</ele>
        <time>2021-06-30T19:31:26Z</time>
      </trkpt>
      <trkpt lat="43.981297" lon="5.016754">
        <ele>51.40979</ele>
        <time>2021-06-30T19:31:28Z</time>
      </trkpt>
      <trkpt lat="43.981255" lon="5.016841">
        <ele>52.21857</ele>
        <time>2021-06-30T19:31:29Z</time>
      </trkpt>
      <trkpt lat="43.981220" lon="5.016997">
        <ele>52.50897</ele>
        <time>2021-06-30T19:31:29Z</time>
      </trkpt>
      <trkpt lat="43.981148" lon="5.017124">
        <ele>51.50610</ele>
        <time>2021-06-30T19:31:30Z</time>
      </trkpt>
      <trkpt lat="43.981056" lon="5.017243">
        <ele>51.77594</ele>
        <time>2021-06-30T19:31:32Z</time>
      </trkpt>
      <trkpt lat="43.980919" lon="5.017368">
        <ele>52.42072</ele>
        <time>2021-06-30T19:31:33Z</time>
      </trkpt>
      <trkpt lat="43.980789" lon="5.017465">
        <ele>53.39081</ele>
        <time>2021-06-30T19:31:34Z</time>
      </trkpt>
      <trkpt lat="43.980618" lon="5.017548">
        <ele>53.61108</ele>
        <time>2021-06-30T19:31:34Z</time>
      </trkpt>
      <trkpt lat="43.980473" lon="5.017597">
        <ele>53.35315</ele>
        <time>2021-06-30T19:31:36Z</time>
      </trkpt>
      <trkpt lat="43.980301" lon="5.017653">
        <ele>53.49579</ele>
        <time>2021-06-30T19:31:37Z</time>
      </trkpt>
      <trkpt lat="43.980301" lon="5.017653">
        <ele>52.56567</ele>
        <time>2021-06-30T19:31:38Z</time>
      </trkpt>
      <trkpt lat="43.980129" lon="5.017663">
        <ele>52.30914</ele>
        <time>2021-06-30T19:31:38Z</time>
      </trkpt>
      <trkpt lat="43.979950" lon="5.017666">
        <ele>51.39435</ele>
        <time>2021-06-30T19:31:39Z</time>
      </trkpt>
      <trkpt lat="43.979786" lon="5.017670">
        <ele>50.81702</ele>
        <time>2021-06-30T19:31:40Z</time>
      </trkpt>
      <trkpt lat="43.979614" lon="5.017668">
        <ele>51.19525</ele>
        <time>2021-06-30T19:31:41Z</time>
      </trkpt>
      <trkpt lat="43.979454" lon="5.017666">
        <ele>50.57092</ele>
        <time>2021-06-30T19:31:43Z</time>
      </trkpt>
      <trkpt lat="43.979282" lon="5.017665">
        <ele>51.08075</ele>
        <time>2021-06-30T19:31:43Z</time>
      </trkpt>
      <trkpt lat="43.979099" lon="5.017663">
        <ele>51.11920</ele>
        <time>2021-06-30T19:31:44Z</time>
      </trkpt>
      <trkpt lat="43.978912" lon="5.017662">
        <ele>49.97253</ele>
        <time>2021-06-30T19:31:46Z</time>
      </trkpt>
      <trkpt lat="43.978748" lon="5.017667">
        <ele>50.92035</ele>
        <time>2021-06-30T19:31:46Z</time>
      </trkpt>
      <trkpt lat="43.978558" lon="5.017673">
        <ele>51.01782</ele>
        <time>2021-06-30T19:31:48Z</time>
      </trkpt>
      <trkpt lat="43.978378" lon="5.017678">
        <ele>51.74512</ele>
        <time>2021-06-30T19:31:48Z</time>
      </trkpt>
      <trkpt lat="43.978168" lon="5.017684">
        <ele>51.51562</ele>
        <time>2021-06-30T19:31:50Z</time>
      </trkpt>
      <trkpt lat="43.977978" lon="5.017690">
        <ele>51.72784</ele>
        <time>2021-06-30T19:31:51Z</time>
      </trkpt>
      <trkpt lat="43.977791" lon="5.017695">
        <ele>52.19531</ele>
        <time>2021-06-30T19:31:51Z</time>
      </trkpt>
      <trkpt lat="43.977604" lon="5.017701">
        <ele>51.89075</ele>
        <time>2021-06-30T19:31:52Z</time>
      </trkpt>
      <trkpt lat="43.977421" lon="5.017706">
        <ele>51.35699</ele>
        <time>2021-06-30T19:31:53Z</time>
      </trkpt>
      <trkpt lat="43.977234" lon="5.017723">
        <ele>51.56720</ele>
        <time>2021-06-30T19:31:55Z</time>
      </trkpt>
      <trkpt lat="43.977043" lon="5.017751">
        <ele>52.08972</ele>
        <time>2021-06-30T19:31:56Z</time>
      </trkpt>
      <trkpt lat="43.977043" lon="5.017751">
        <ele>51.76086</ele>
        <time>2021-06-30T19:31:56Z</time>
      </trkpt>
      <trkpt lat="43.976845" lon="5.017796">
        <ele>52.05225</ele>
        <time>2021-06-30T19:31:57Z</time>
      </trkpt>
      <trkpt lat="43.976631" lon="5.017846">
        <ele>52.06085</ele>
        <time>2021-06-30T19:31:58Z</time>
      </trkpt>
      <trkpt lat="43.976425" lon="5.017910">
        <ele>52.01068</ele>
        <time>2021-06-30T19:32:00Z</time>
      </trkpt>
      <trkpt lat="43.976215" lon="5.017975">
        <ele>52.39325</ele>
        <time>2021-06-30T19:32:01Z</time>
      </trkpt>
      <trkpt lat="43.976025" lon="5.018034">
        <ele>52.63391</ele>
        <time>2021-06-30T19:32:02Z</time>
      </trkpt>
      <trkpt lat="43.975807" lon="5.018102">
        <ele>53.06305</ele>
        <time>2021-06-30T19:32:03Z</time>
      </trkpt>
      <trkpt lat="43.975594" lon="5.018168">
        <ele>52.80151</ele>
        <time>2021-06-30T19:32:03Z</time>
      </trkpt>
      <trkpt lat="43.975410" lon="5.018218">
        <ele>53.02118</ele>
        <time>2021-06-30T19:32:05Z</time>
      </trkpt>
      <trkpt lat="43.975197" lon="5.018277">
        <ele>53.34186</ele>
        <time>2021-06-30T19:32:06Z</time>
      </trkpt>
      <trkpt lat="43.975006" lon="5.018330">
        <ele>53.81335</ele>
        <time>2021-06-30T19:32:07Z</time>
      </trkpt>
      <trkpt lat="43.974804" lon="5.018390">
        <ele>53.23169</ele>
        <time>2021-06-30T19:32:08Z</time>
      </trkpt>
      <trkpt lat="43.974632" lon="5.018444">
        <ele>51.86176</ele>
        <time>2021-06-30T19:32:08Z</time>
      </trkpt>
      <trkpt lat="43.974426" lon="5.018511">
        <ele>51.55640</ele>
        <time>2021-06-30T19:32:09Z</time>
      </trkpt>
      <trkpt lat="43.974228" lon="5.018575">
        <ele>51.72144</ele>
        <time>2021-06-30T19:32:11Z</time>
      </trkpt>
      <trkpt lat="43.974049" lon="5.018633">
        <ele>51.50378</ele>
        <time>2021-06-30T19:32:11Z</time>
      </trkpt>
      <trkpt lat="43.973869" lon="5.018692">
        <ele>51.09082</ele>
        <time>2021-06-30T19:32:13Z</time>
      </trkpt>
      <trkpt lat="43.973869" lon="5.018692">
        <ele>50.80133</ele>
        <time>2021-06-30T19:32:13Z</time>
      </trkpt>
      <trkpt lat="43.973663" lon="5.018782">
        <ele>50.99756</ele>
        <time>2021-06-30T19:32:14Z</time>
      </trkpt>
      <trkpt lat="43.973461" lon="5.018888">
        <ele>51.02283</ele>
        <time>2021-06-30T19:32:16Z</time>
      </trkpt>
      <trkpt lat="43.973289" lon="5.018980">
        <ele>51.80066</ele>
        <time>2021-06-30T19:32:17Z</time>
      </trkpt>
      <trkpt lat="43.973106" lon="5.019081">
        <ele>52.10150</ele>
        <time>2021-06-30T19:32:18Z</time>
      </trkpt>
      <trkpt lat="43.972942" lon="5.019173">
        <ele>51.79248</ele>
        <time>2021-06-30T19:32:18Z</time>
      </trkpt>
      <trkpt lat="43.972736" lon="5.019287">
        <ele>52.38263</ele>
        <time>2021-06-30T19:32:20Z</time>
      </trkpt>
      <trkpt lat="43.972557" lon="5.019373">
        <ele>50.38062</ele>
        <time>2021-06-30T19:32:20Z</time>
      </trkpt>
      <trkpt lat="43.972404" lon="5.019444">
        <ele>49.88593</ele>
        <time>2021-06-30T19:32:21Z</time>
      </trkpt>
      <trkpt lat="43.972214" lon="5.019535">
        <ele>49.93048</ele>
        <time>2021-06-30T19:32:22Z</time>
      </trkpt>
      <trkpt lat="43.972027" lon="5.019633">
        <ele>50.31250</ele>
        <time>2021-06-30T19:32:24Z</time>
      </trkpt>
      <trkpt lat="43.971848" lon="5.019729">
        <ele>51.06354</ele>
        <time>2021-06-30T19:32:25Z</time>
      </trkpt>
      <trkpt lat="43.971687" lon="5.019813">
        <ele>52.13208</ele>
        <time>2021-06-30T19:32:26Z</time>
      </trkpt>
      <trkpt lat="43.971519" lon="5.019903">
        <ele>52.71442</ele>
        <time>2021-06-30T19:32:27Z</time>
      </trkpt>
      <trkpt lat="43.971359" lon="5.019987">
        <ele>53.32874</ele>
        <time>2021-06-30T19:32:27Z</time>
      </trkpt>
      <trkpt lat="43.971359" lon="5.019987">
        <ele>52.41266</ele>
        <time>2021-06-30T19:32:28Z</time>
      </trkpt>
      <trkpt lat="43.971203" lon="5.020079">
        <ele>52.61877</ele>
        <time>2021-06-30T19:32:30Z</time>
      </trkpt>
      <trkpt lat="43.971031" lon="5.020180">
        <ele>51.94446</ele>
        <time>2021-06-30T19:32:31Z</time>
      </trkpt>
      <trkpt lat="43.970867" lon="5.020273">
        <ele>52.62793</ele>
        <time>2021-06-30T19:32:32Z</time>
      </trkpt>
      <trkpt lat="43.970703" lon="5.020355">
        <ele>53.55646</ele>
        <time>2021-06-30T19:32:32Z</time>
      </trkpt>
      <trkpt lat="43.970539" lon="5.020439">
        <ele>53.96167</ele>
        <time>2021-06-30T19:32:34Z</time>
      </trkpt>
      <trkpt lat="43.970379" lon="5.020521">
        <ele>52.78540</ele>
        <time>2021-06-30T19:32:35Z</time>
      </trkpt>
      <trkpt lat="43.970203" lon="5.020607">
        <ele>52.76202</ele>
        <time>2021-06-30T19:32:35Z</time>
      </trkpt>
      <trkpt lat="43.970024" lon="5.020699">
        <ele>52.97302</ele>
        <time>2021-06-30T19:32:37Z</time>
      </trkpt>
      <trkpt lat="43.969868" lon="5.020779">
        <ele>53.09393</ele>
        <time>2021-06-30T19:32:37Z</time>
      </trkpt>
      <trkpt lat="43.969727" lon="5.020859">
        <ele>52.66748</ele>
        <time>2021-06-30T19:32:39Z</time>
      </trkpt>
      <trkpt lat="43.969593" lon="5.020934">
        <ele>52.24738</ele>
        <time>2021-06-30T19:32:39Z</time>
      </trkpt>
      <trkpt lat="43.969513" lon="5.020979">
        <ele>53.41150</ele>
        <time>2021-06-30T19:32:40Z</time>
      </trkpt>
      <trkpt lat="43.969467" lon="5.021004">
        <ele>52.26172</ele>
        <time>2021-06-30T19:32:42Z</time>
      </trkpt>
      <trkpt lat="43.969437" lon="5.021023">
        <ele>52.26007</ele>
        <time>2021-06-30T19:32:42Z</time>
      </trkpt>
      <trkpt lat="43.969437" lon="5.021023">
        <ele>52.06567</ele>
        <time>2021-06-30T19:32:43Z</time>
      </trkpt>
      <trkpt lat="43.969402" lon="5.021040">
        <ele>50.82288</ele>
        <time>2021-06-30T19:32:44Z</time>
      </trkpt>
      <trkpt lat="43.969383" lon="5.021051">
        <ele>51.48077</ele>
        <time>2021-06-30T19:32:46Z</time>
      </trkpt>
      <trkpt lat="43.969383" lon="5.021051">
        <ele>51.28943</ele>
        <time>2021-06-30T19:32:47Z</time>
      </trkpt>
      <trkpt lat="43.969383" lon="5.021051">
        <ele>49.46025</ele>
        <time>2021-06-30T19:32:47Z</time>
      </trkpt>
      <trkpt lat="43.969383" lon="5.021051">
        <ele>49.48791</ele>
        <time>2021-06-30T19:32:48Z</time>
      </trkpt>
      <trkpt lat="43.969383" lon="5.021051">
        <ele>51.10840</ele>
        <time>2021-06-30T19:32:49Z</time>
      </trkpt>
      <trkpt lat="43.969383" lon="5.021051">
        <ele>52.18115</ele>
        <time>2021-06-30T19:32:50Z</time>
      </trkpt>
      <trkpt lat="43.969383" lon="5.021052">
        <ele>52.39844</ele>
        <time>2021-06-30T19:32:51Z</time>
      </trkpt>
      <trkpt lat="43.969368" lon="5.021061">
        <ele>52.53717</ele>
        <time>2021-06-30T19:32:52Z</time>
      </trkpt>
      <trkpt lat="43.969353" lon="5.021070">
        <ele>52.55908</ele>
        <time>2021-06-30T19:32:54Z</time>
      </trkpt>
      <trkpt lat="43.969269" lon="5.021116">
        <ele>50.19324</ele>
        <time>2021-06-30T19:32:55Z</time>
      </trkpt>
      <trkpt lat="43.969166" lon="5.021175">
        <ele>51.86365</ele>
        <time>2021-06-30T19:32:55Z</time>
      </trkpt>
      <trkpt lat="43.969093" lon="5.021216">
        <ele>53.15973</ele>
        <time>2021-06-30T19:32:56Z</time>
      </trkpt>
      <trkpt lat="43.969013" lon="5.021260">
        <ele>53.57434</ele>
        <time>2021-06-30T19:32:58Z</time>
      </trkpt>
      <trkpt lat="43.968941" lon="5.021302">
        <ele>54.11908</ele>
        <time>2021-06-30T19:32:59Z</time>
      </trkpt>
      <trkpt lat="43.968876" lon="5.021338">
        <ele>54.32104</ele>
        <time>2021-06-30T19:33:00Z</time>
      </trkpt>
      <trkpt lat="43.968803" lon="5.021378">
        <ele>54.51141</ele>
        <time>2021-06-30T19:33:01Z</time>
      </trkpt>
      <trkpt lat="43.968803" lon="5.021378">
        <ele>53.96179</ele>
        <time>2021-06-30T19:33:02Z</time>
      </trkpt>
      <trkpt lat="43.968719" lon="5.021429">
        <ele>53.79370</ele>
        <time>2021-06-30T19:33:03Z</time>
      </trkpt>
      <trkpt lat="43.968643" lon="5.021489">
        <ele>54.45697</ele>
        <time>2021-06-30T19:33:04Z</time>
      </trkpt>
      <trkpt lat="43.968578" lon="5.021538">
        <ele>54.75470</ele>
        <time>2021-06-30T19:33:05Z</time>
      </trkpt>
      <trkpt lat="43.968521" lon="5.021580">
        <ele>54.39001</ele>
        <time>2021-06-30T19:33:05Z</time>
      </trkpt>
      <trkpt lat="43.968430" lon="5.021652">
        <ele>53.75342</ele>
        <time>2021-06-30T19:33:06Z</time>
      </trkpt>
      <trkpt lat="43.968338" lon="5.021733">
        <ele>54.28906</ele>
        <time>2021-06-30T19:33:07Z</time>
      </trkpt>
      <trkpt lat="43.968239" lon="5.021825">
        <ele>54.75110</ele>
        <time>2021-06-30T19:33:09Z</time>
      </trkpt>
      <trkpt lat="43.968155" lon="5.021904">
        <ele>54.67010</ele>
        <time>2021-06-30T19:33:10Z</time>
      </trkpt>
      <trkpt lat="43.968044" lon="5.022005">
        <ele>54.98151</ele>
        <time>2021-06-30T19:33:11Z</time>
      </trkpt>
      <trkpt lat="43.967934" lon="5.022109">
        <ele>54.83014</ele>
        <time>2021-06-30T19:33:12Z</time>
      </trkpt>
      <trkpt lat="43.967823" lon="5.022214">
        <ele>54.91589</ele>
        <time>2021-06-30T19:33:13Z</time>
      </trkpt>
      <trkpt lat="43.967712" lon="5.022323">
        <ele>54.77032</ele>
        <time>2021-06-30T19:33:14Z</time>
      </trkpt>
      <trkpt lat="43.967712" lon="5.022323">
        <ele>54.89026</ele>
        <time>2021-06-30T19:33:14Z</time>
      </trkpt>
      <trkpt lat="43.967606" lon="5.022425">
        <ele>55.47437</ele>
        <time>2021-06-30T19:33:16Z</time>
      </trkpt>
      <trkpt lat="43.967533" lon="5.022496">
        <ele>56.02179</ele>
        <time>2021-06-30T19:33:17Z</time>
      </trkpt>
      <trkpt lat="43.967461" lon="5.022568">
        <ele>55.61768</ele>
        <time>2021-06-30T19:33:17Z</time>
      </trkpt>
      <trkpt lat="43.967384" lon="5.022639">
        <ele>55.24976</ele>
        <time>2021-06-30T19:33:18Z</time>
      </trkpt>
      <trkpt lat="43.967319" lon="5.022702">
        <ele>55.98523</ele>
        <time>2021-06-30T19:33:20Z</time>
      </trkpt>
      <trkpt lat="43.967297" lon="5.022723">
        <ele>55.39716</ele>
        <time>2021-06-30T19:33:21Z</time>
      </trkpt>
      <trkpt lat="43.967278" lon="5.022744">
        <ele>54.47070</ele>
        <time>2021-06-30T19:33:21Z</time>
      </trkpt>
      <trkpt lat="43.967247" lon="5.022774">
        <ele>53.50415</ele>
        <time>2021-06-30T19:33:23Z</time>
      </trkpt>
      <trkpt lat="43.967236" lon="5.022782">
        <ele>53.21906</ele>
        <time>2021-06-30T19:33:24Z</time>
      </trkpt>
      <trkpt lat="43.967236" lon="5.022783">
        <ele>53.83191</ele>
        <time>2021-06-30T19:33:25Z</time>
      </trkpt>
      <trkpt lat="43.967236" lon="5.022783">
        <ele>54.80200</ele>
        <time>2021-06-30T19:33:26Z</time>
      </trkpt>
      <trkpt lat="43.967236" lon="5.022783">
        <ele>55.34406</ele>
        <time>2021-06-30T19:33:26Z</time>
      </trkpt>
      <trkpt lat="43.967220" lon="5.022797">
        <ele>54.82440</ele>
        <time>2021-06-30T19:33:28Z</time>
      </trkpt>
      <trkpt lat="43.967205" lon="5.022813">
        <ele>55.19415</ele>
        <time>2021-06-30T19:33:28Z</time>
      </trkpt>
      <trkpt lat="43.967205" lon="5.022813">
        <ele>55.55371</ele>
        <time>2021-06-30T19:33:30Z</time>
      </trkpt>
      <trkpt lat="43.967205" lon="5.022813">
        <ele>56.36743</ele>
        <time>2021-06-30T19:33:30Z</time>
      </trkpt>
      <trkpt lat="43.967205" lon="5.022813">
        <ele>56.21661</ele>
        <time>2021-06-30T19:33:32Z</time>
      </trkpt>
      <trkpt lat="43.967205" lon="5.022813">
        <ele>57.17035</ele>
        <time>2021-06-30T19:33:32Z</time>
      </trkpt>
      <trkpt lat="43.967205" lon="5.022813">
        <ele>57.32635</ele>
        <time>2021-06-30T19:33:34Z</time>
      </trkpt>
      <trkpt lat="43.967205" lon="5.022813">
        <ele>57.35950</ele>
        <time>2021-06-30T19:33:34Z</time>
      </trkpt>
      <trkpt lat="43.967205" lon="5.022813">
        <ele>57.53241</ele>
        <time>2021-06-30T19:33:36Z</time>
      </trkpt>
      <trkpt lat="43.967205" lon="5.022813">
        <ele>57.09998</ele>
        <time>2021-06-30T19:33:37Z</time>
      </trkpt>
      <trkpt lat="43.967205" lon="5.022813">
        <ele>51.91397</ele>
        <time>2021-06-30T19:33:38Z</time>
      </trkpt>
      <trkpt lat="43.967205" lon="5.022813">
        <ele>51.95789</ele>
        <time>2021-06-30T19:33:39Z</time>
      </trkpt>
      <trkpt lat="43.967205" lon="5.022813">
        <ele>52.01324</ele>
        <time>2021-06-30T19:33:40Z</time>
      </trkpt>
      <trkpt lat="43.967205" lon="5.022813">
        <ele>52.03159</ele>
        <time>2021-06-30T19:33:41Z</time>
      </trkpt>
      <trkpt lat="43.967205" lon="5.022813">
        <ele>52.12116</ele>
        <time>2021-06-30T19:33:42Z</time>
      </trkpt>
      <trkpt lat="43.967205" lon="5.022813">
        <ele>52.12205</ele>
        <time>2021-06-30T19:33:43Z</time>
      </trkpt>
      <trkpt lat="43.967205" lon="5.022813">
        <ele>52.25945</ele>
        <time>2021-06-30T19:33:44Z</time>
      </trkpt>
      <trkpt lat="43.967205" lon="5.022813">
        <ele>52.33141</ele>
        <time>2021-06-30T19:33:45Z</time>
      </trkpt>
      <trkpt lat="43.967205" lon="5.022813">
        <ele>52.38577</ele>
        <time>2021-06-30T19:33:46Z</time>
      </trkpt>
      <trkpt lat="43.967205" lon="5.022813">
        <ele>52.43932</ele>
        <time>2021-06-30T19:33:46Z</time>
      </trkpt>
      <trkpt lat="43.967205" lon="5.022813">
        <ele>52.45858</ele>
        <time>2021-06-30T19:33:48Z</time>
      </trkpt>
      <trkpt lat="43.967205" lon="5.022813">
        <ele>52.54935</ele>
        <time>2021-06-30T19:33:49Z</time>
      </trkpt>
      <trkpt lat="43.967205" lon="5.022813">
        <ele>54.79407</ele>
        <time>2021-06-30T19:33:50Z</time>
      </trkpt>
      <trkpt lat="43.967205" lon="5.022813">
        <ele>55.11475</ele>
        <time>2021-06-30T19:33:51Z</time>
      </trkpt>
      <trkpt lat="43.967205" lon="5.022813">
        <ele>53.49429</ele>
        <time>2021-06-30T19:33:52Z</time>
      </trkpt>
      <trkpt lat="43.967205" lon="5.022813">
        <ele>52.74804</ele>
        <time>2021-06-30T19:33:52Z</time>
      </trkpt>
      <trkpt lat="43.967205" lon="5.022813">
        <ele>55.32544</ele>
        <time>2021-06-30T19:33:53Z</time>
      </trkpt>
      <trkpt lat="43.967205" lon="5.022813">
        <ele>55.44537</ele>
        <time>2021-06-30T19:33:54Z</time>
      </trkpt>
      <trkpt lat="43.967205" lon="5.022813">
        <ele>55.67535</ele>
        <time>2021-06-30T19:33:56Z</time>
      </trkpt>
      <trkpt lat="43.967205" lon="5.022813">
        <ele>56.44556</ele>
        <time>2021-06-30T19:33:56Z</time>
      </trkpt>
      <trkpt lat="43.967205" lon="5.022813">
        <ele>56.30640</ele>
        <time>2021-06-30T19:33:57Z</time>
      </trkpt>
      <trkpt lat="43.967205" lon="5.022813">
        <ele>55.99274</ele>
        <time>2021-06-30T19:33:58Z</time>
      </trkpt>
      <trkpt lat="43.967205" lon="5.022813">
        <ele>56.59601</ele>
        <time>2021-06-30T19:34:00Z</time>
      </trkpt>
      <trkpt lat="43.967205" lon="5.022813">
        <ele>56.81812</ele>
        <time>2021-06-30T19:34:00Z</time>
      </trkpt>
      <trkpt lat="43.967205" lon="5.022813">
        <ele>56.64142</ele>
        <time>2021-06-30T19:34:01Z</time>
      </trkpt>
      <trkpt lat="43.967205" lon="5.022813">
        <ele>56.10547</ele>
        <time>2021-06-30T19:34:02Z</time>
      </trkpt>
      <trkpt lat="43.967205" lon="5.022813">
        <ele>53.27790</ele>
        <time>2021-06-30T19:34:03Z</time>
      </trkpt>
      <trkpt lat="43.967205" lon="5.022813">
        <ele>53.30699</ele>
        <time>2021-06-30T19:34:04Z</time>
      </trkpt>
      <trkpt lat="43.967205" lon="5.022813">
        <ele>53.39633</ele>
        <time>2021-06-30T19:34:05Z</time>
      </trkpt>
      <trkpt lat="43.967205" lon="5.022813">
        <ele>53.54502</ele>
        <time>2021-06-30T19:34:07Z</time>
      </trkpt>
      <trkpt lat="43.967205" lon="5.022813">
        <ele>53.53677</ele>
        <time>2021-06-30T19:34:07Z</time>
      </trkpt>
      <trkpt lat="43.967205" lon="5.022813">
        <ele>53.61658</ele>
        <time>2021-06-30T19:34:09Z</time>
      </trkpt>
      <trkpt lat="43.967205" lon="5.022813">
        <ele>53.73325</ele>
        <time>2021-06-30T19:34:10Z</time>
      </trkpt>
      <trkpt lat="43.967205" lon="5.022813">
        <ele>53.70939</ele>
        <time>2021-06-30T19:34:11Z</time>
      </trkpt>
      <trkpt lat="43.967205" lon="5.022813">
        <ele>53.72700</ele>
        <time>2021-06-30T19:34:12Z</time>
      </trkpt>
      <trkpt lat="43.967205" lon="5.022813">
        <ele>53.65788</ele>
        <time>2021-06-30T19:34:12Z</time>
      </trkpt>
      <trkpt lat="43.967205" lon="5.022813">
        <ele>53.78516</ele>
        <time>2021-06-30T19:34:13Z</time>
      </trkpt>
      <trkpt lat="43.967205" lon="5.022813">
        <ele>53.97913</ele>
        <time>2021-06-30T19:34:15Z</time>
      </trkpt>
      <trkpt lat="43.967205" lon="5.022813">
        <ele>53.97913</ele>
        <time>2021-06-30T19:34:15Z</time>
      </trkpt>
      <trkpt lat="43.967205" lon="5.022813">
        <ele>54.03070</ele>
        <time>2021-06-30T19:34:17Z</time>
      </trkpt>
      <trkpt lat="43.967205" lon="5.022813">
        <ele>54.06758</ele>
        <time>2021-06-30T19:34:18Z</time>
      </trkpt>
      <trkpt lat="43.967205" lon="5.022813">
        <ele>54.08517</ele>
        <time>2021-06-30T19:34:18Z</time>
      </trkpt>
      <trkpt lat="43.967205" lon="5.022813">
        <ele>54.17559</ele>
        <time>2021-06-30T19:34:19Z</time>
      </trkpt>
      <trkpt lat="43.967205" lon="5.022813">
        <ele>54.22254</ele>
        <time>2021-06-30T19:34:21Z</time>
      </trkpt>
      <trkpt lat="43.967205" lon="5.022813">
        <ele>54.21685</ele>
        <time>2021-06-30T19:34:21Z</time>
      </trkpt>
      <trkpt lat="43.967205" lon="5.022813">
        <ele>54.19637</ele>
        <time>2021-06-30T19:34:22Z</time>
      </trkpt>
      <trkpt lat="43.967205" lon="5.022813">
        <ele>54.30743</ele>
        <time>2021-06-30T19:34:23Z</time>
      </trkpt>
      <trkpt lat="43.967205" lon="5.022813">
        <ele>54.33427</ele>
        <time>2021-06-30T19:34:25Z</time>
      </trkpt>
      <trkpt lat="43.967205" lon="5.022813">
        <ele>54.28090</ele>
        <time>2021-06-30T19:34:25Z</time>
      </trkpt>
      <trkpt lat="43.967205" lon="5.022813">
        <ele>54.40004</ele>
        <time>2021-06-30T19:34:27Z</time>
      </trkpt>
      <trkpt lat="43.967205" lon="5.022813">
        <ele>54.34594</ele>
        <time>2021-06-30T19:34:27Z</time>
      </trkpt>
      <trkpt lat="43.967205" lon="5.022813">
        <ele>54.32468</ele>
        <time>2021-06-30T19:34:28Z</time>
      </trkpt>
      <trkpt lat="43.967205" lon="5.022813">
        <ele>54.34713</ele>
        <time>2021-06-30T19:34:35Z</time>
      </trkpt>
      <trkpt lat="43.967205" lon="5.022814">
        <ele>54.34713</ele>
        <time>2021-06-30T19:34:37Z</time>
      </trkpt>
      <trkpt lat="43.967205" lon="5.022814">
        <ele>56.65106</ele>
        <time>2021-06-30T19:34:37Z</time>
      </trkpt>
      <trkpt lat="43.967205" lon="5.022814">
        <ele>56.65106</ele>
        <time>2021-06-30T19:34:37Z</time>
      </trkpt>
      <trkpt lat="43.967209" lon="5.022779">
        <ele>48.56268</ele>
        <time>2021-06-30T19:38:55Z</time>
      </trkpt>
      <trkpt lat="43.967209" lon="5.022779">
        <ele>48.50938</ele>
        <time>2021-06-30T19:38:56Z</time>
      </trkpt>
      <trkpt lat="43.967209" lon="5.022779">
        <ele>48.83874</ele>
        <time>2021-06-30T19:38:57Z</time>
      </trkpt>
      <trkpt lat="43.967209" lon="5.022779">
        <ele>48.97191</ele>
        <time>2021-06-30T19:38:58Z</time>
      </trkpt>
      <trkpt lat="43.967209" lon="5.022779">
        <ele>49.28030</ele>
        <time>2021-06-30T19:38:59Z</time>
      </trkpt>
      <trkpt lat="43.967209" lon="5.022779">
        <ele>49.25929</ele>
        <time>2021-06-30T19:39:00Z</time>
      </trkpt>
      <trkpt lat="43.967209" lon="5.022779">
        <ele>49.40217</ele>
        <time>2021-06-30T19:39:01Z</time>
      </trkpt>
      <trkpt lat="43.967209" lon="5.022779">
        <ele>49.57734</ele>
        <time>2021-06-30T19:39:02Z</time>
      </trkpt>
      <trkpt lat="43.967178" lon="5.022733">
        <ele>49.77808</ele>
        <time>2021-06-30T19:39:03Z</time>
      </trkpt>
      <trkpt lat="43.967178" lon="5.022733">
        <ele>49.91794</ele>
        <time>2021-06-30T19:39:04Z</time>
      </trkpt>
      <trkpt lat="43.967178" lon="5.022733">
        <ele>49.98178</ele>
        <time>2021-06-30T19:39:05Z</time>
      </trkpt>
      <trkpt lat="43.967178" lon="5.022733">
        <ele>50.06739</ele>
        <time>2021-06-30T19:39:06Z</time>
      </trkpt>
      <trkpt lat="43.967178" lon="5.022733">
        <ele>50.12188</ele>
        <time>2021-06-30T19:39:07Z</time>
      </trkpt>
      <trkpt lat="43.967178" lon="5.022733">
        <ele>50.16014</ele>
        <time>2021-06-30T19:39:08Z</time>
      </trkpt>
      <trkpt lat="43.967178" lon="5.022733">
        <ele>50.23801</ele>
        <time>2021-06-30T19:39:09Z</time>
      </trkpt>
      <trkpt lat="43.967178" lon="5.022733">
        <ele>50.33213</ele>
        <time>2021-06-30T19:39:10Z</time>
      </trkpt>
      <trkpt lat="43.967178" lon="5.022733">
        <ele>50.36967</ele>
        <time>2021-06-30T19:39:11Z</time>
      </trkpt>
      <trkpt lat="43.967178" lon="5.022733">
        <ele>50.37559</ele>
        <time>2021-06-30T19:39:12Z</time>
      </trkpt>
      <trkpt lat="43.967178" lon="5.022733">
        <ele>50.38632</ele>
        <time>2021-06-30T19:39:13Z</time>
      </trkpt>
      <trkpt lat="43.967178" lon="5.022733">
        <ele>50.41092</ele>
        <time>2021-06-30T19:39:14Z</time>
      </trkpt>
      <trkpt lat="43.967178" lon="5.022733">
        <ele>50.45323</ele>
        <time>2021-06-30T19:39:15Z</time>
      </trkpt>
      <trkpt lat="43.967178" lon="5.022733">
        <ele>50.52470</ele>
        <time>2021-06-30T19:39:16Z</time>
      </trkpt>
      <trkpt lat="43.967178" lon="5.022733">
        <ele>50.62312</ele>
        <time>2021-06-30T19:39:17Z</time>
      </trkpt>
      <trkpt lat="43.967178" lon="5.022733">
        <ele>50.64926</ele>
        <time>2021-06-30T19:39:18Z</time>
      </trkpt>
      <trkpt lat="43.967178" lon="5.022733">
        <ele>50.66830</ele>
        <time>2021-06-30T19:39:19Z</time>
      </trkpt>
      <trkpt lat="43.967178" lon="5.022733">
        <ele>50.66191</ele>
        <time>2021-06-30T19:39:20Z</time>
      </trkpt>
      <trkpt lat="43.967178" lon="5.022733">
        <ele>50.60353</ele>
        <time>2021-06-30T19:39:21Z</time>
      </trkpt>
      <trkpt lat="43.967178" lon="5.022733">
        <ele>50.53835</ele>
        <time>2021-06-30T19:39:22Z</time>
      </trkpt>
      <trkpt lat="43.967178" lon="5.022733">
        <ele>50.56892</ele>
        <time>2021-06-30T19:39:23Z</time>
      </trkpt>
      <trkpt lat="43.967178" lon="5.022733">
        <ele>50.57985</ele>
        <time>2021-06-30T19:39:24Z</time>
      </trkpt>
      <trkpt lat="43.967178" lon="5.022733">
        <ele>50.56692</ele>
        <time>2021-06-30T19:39:25Z</time>
      </trkpt>
      <trkpt lat="43.967178" lon="5.022733">
        <ele>50.61477</ele>
        <time>2021-06-30T19:39:26Z</time>
      </trkpt>
      <trkpt lat="43.967178" lon="5.022733">
        <ele>50.57830</ele>
        <time>2021-06-30T19:39:27Z</time>
      </trkpt>
      <trkpt lat="43.967178" lon="5.022733">
        <ele>50.95428</ele>
        <time>2021-06-30T19:39:28Z</time>
      </trkpt>
      <trkpt lat="43.967178" lon="5.022733">
        <ele>51.01630</ele>
        <time>2021-06-30T19:39:29Z</time>
      </trkpt>
      <trkpt lat="43.967178" lon="5.022733">
        <ele>50.54954</ele>
        <time>2021-06-30T19:39:30Z</time>
      </trkpt>
      <trkpt lat="43.967175" lon="5.022725">
        <ele>50.60411</ele>
        <time>2021-06-30T19:39:31Z</time>
      </trkpt>
      <trkpt lat="43.967175" lon="5.022725">
        <ele>50.53713</ele>
        <time>2021-06-30T19:39:32Z</time>
      </trkpt>
      <trkpt lat="43.967175" lon="5.022725">
        <ele>50.56912</ele>
        <time>2021-06-30T19:39:33Z</time>
      </trkpt>
      <trkpt lat="43.967175" lon="5.022725">
        <ele>50.72278</ele>
        <time>2021-06-30T19:39:34Z</time>
      </trkpt>
      <trkpt lat="43.967175" lon="5.022725">
        <ele>50.78813</ele>
        <time>2021-06-30T19:39:35Z</time>
      </trkpt>
      <trkpt lat="43.967171" lon="5.022715">
        <ele>50.75557</ele>
        <time>2021-06-30T19:39:36Z</time>
      </trkpt>
      <trkpt lat="43.967171" lon="5.022723">
        <ele>50.96091</ele>
        <time>2021-06-30T19:39:37Z</time>
      </trkpt>
      <trkpt lat="43.967171" lon="5.022736">
        <ele>50.86953</ele>
        <time>2021-06-30T19:39:38Z</time>
      </trkpt>
      <trkpt lat="43.967171" lon="5.022736">
        <ele>50.96612</ele>
        <time>2021-06-30T19:39:39Z</time>
      </trkpt>
      <trkpt lat="43.967171" lon="5.022753">
        <ele>51.08849</ele>
        <time>2021-06-30T19:39:40Z</time>
      </trkpt>
      <trkpt lat="43.967171" lon="5.022753">
        <ele>51.13022</ele>
        <time>2021-06-30T19:39:41Z</time>
      </trkpt>
      <trkpt lat="43.967171" lon="5.022750">
        <ele>51.07172</ele>
        <time>2021-06-30T19:39:42Z</time>
      </trkpt>
      <trkpt lat="43.967171" lon="5.022742">
        <ele>51.25998</ele>
        <time>2021-06-30T19:39:43Z</time>
      </trkpt>
      <trkpt lat="43.967171" lon="5.022736">
        <ele>51.25434</ele>
        <time>2021-06-30T19:39:44Z</time>
      </trkpt>
      <trkpt lat="43.967175" lon="5.022733">
        <ele>51.16098</ele>
        <time>2021-06-30T19:39:45Z</time>
      </trkpt>
      <trkpt lat="43.967175" lon="5.022730">
        <ele>51.18377</ele>
        <time>2021-06-30T19:39:46Z</time>
      </trkpt>
      <trkpt lat="43.967175" lon="5.022730">
        <ele>51.36464</ele>
        <time>2021-06-30T19:39:47Z</time>
      </trkpt>
      <trkpt lat="43.967175" lon="5.022730">
        <ele>51.32803</ele>
        <time>2021-06-30T19:39:48Z</time>
      </trkpt>
      <trkpt lat="43.967182" lon="5.022735">
        <ele>51.19829</ele>
        <time>2021-06-30T19:39:49Z</time>
      </trkpt>
      <trkpt lat="43.967194" lon="5.022740">
        <ele>51.43570</ele>
        <time>2021-06-30T19:39:50Z</time>
      </trkpt>
      <trkpt lat="43.967201" lon="5.022742">
        <ele>51.37894</ele>
        <time>2021-06-30T19:39:51Z</time>
      </trkpt>
      <trkpt lat="43.967201" lon="5.022742">
        <ele>51.41215</ele>
        <time>2021-06-30T19:39:52Z</time>
      </trkpt>
      <trkpt lat="43.967201" lon="5.022742">
        <ele>51.37302</ele>
        <time>2021-06-30T19:39:53Z</time>
      </trkpt>
      <trkpt lat="43.967220" lon="5.022737">
        <ele>51.61454</ele>
        <time>2021-06-30T19:39:54Z</time>
      </trkpt>
      <trkpt lat="43.967220" lon="5.022737">
        <ele>51.41867</ele>
        <time>2021-06-30T19:39:55Z</time>
      </trkpt>
      <trkpt lat="43.967278" lon="5.022742">
        <ele>51.38882</ele>
        <time>2021-06-30T19:39:56Z</time>
      </trkpt>
      <trkpt lat="43.967293" lon="5.022727">
        <ele>51.56226</ele>
        <time>2021-06-30T19:39:57Z</time>
      </trkpt>
      <trkpt lat="43.967297" lon="5.022724">
        <ele>51.48222</ele>
        <time>2021-06-30T19:39:58Z</time>
      </trkpt>
      <trkpt lat="43.967300" lon="5.022720">
        <ele>51.60940</ele>
        <time>2021-06-30T19:39:59Z</time>
      </trkpt>
      <trkpt lat="43.967300" lon="5.022720">
        <ele>51.66464</ele>
        <time>2021-06-30T19:40:00Z</time>
      </trkpt>
      <trkpt lat="43.967300" lon="5.022720">
        <ele>51.58307</ele>
        <time>2021-06-30T19:40:01Z</time>
      </trkpt>
      <trkpt lat="43.967300" lon="5.022720">
        <ele>51.85690</ele>
        <time>2021-06-30T19:40:02Z</time>
      </trkpt>
      <trkpt lat="43.967300" lon="5.022720">
        <ele>52.07390</ele>
        <time>2021-06-30T19:40:03Z</time>
      </trkpt>
      <trkpt lat="43.967300" lon="5.022720">
        <ele>51.86636</ele>
        <time>2021-06-30T19:40:04Z</time>
      </trkpt>
      <trkpt lat="43.967323" lon="5.022698">
        <ele>52.24462</ele>
        <time>2021-06-30T19:40:05Z</time>
      </trkpt>
      <trkpt lat="43.967197" lon="5.022819">
        <ele>52.63920</ele>
        <time>2021-06-30T19:40:06Z</time>
      </trkpt>
      <trkpt lat="43.967148" lon="5.022866">
        <ele>53.12471</ele>
        <time>2021-06-30T19:40:07Z</time>
      </trkpt>
      <trkpt lat="43.967148" lon="5.022866">
        <ele>53.69640</ele>
        <time>2021-06-30T19:40:08Z</time>
      </trkpt>
      <trkpt lat="43.967037" lon="5.022971">
        <ele>54.67786</ele>
        <time>2021-06-30T19:40:09Z</time>
      </trkpt>
      <trkpt lat="43.966862" lon="5.023141">
        <ele>54.95575</ele>
        <time>2021-06-30T19:40:10Z</time>
      </trkpt>
      <trkpt lat="43.966686" lon="5.023310">
        <ele>54.11774</ele>
        <time>2021-06-30T19:40:11Z</time>
      </trkpt>
      <trkpt lat="43.966534" lon="5.023455">
        <ele>53.96552</ele>
        <time>2021-06-30T19:40:12Z</time>
      </trkpt>
      <trkpt lat="43.966351" lon="5.023632">
        <ele>54.30652</ele>
        <time>2021-06-30T19:40:13Z</time>
      </trkpt>
      <trkpt lat="43.966114" lon="5.023854">
        <ele>54.09851</ele>
        <time>2021-06-30T19:40:14Z</time>
      </trkpt>
      <trkpt lat="43.965858" lon="5.024068">
        <ele>54.70959</ele>
        <time>2021-06-30T19:40:15Z</time>
      </trkpt>
      <trkpt lat="43.965527" lon="5.024346">
        <ele>55.31342</ele>
        <time>2021-06-30T19:40:16Z</time>
      </trkpt>
      <trkpt lat="43.965214" lon="5.024567">
        <ele>55.21899</ele>
        <time>2021-06-30T19:40:17Z</time>
      </trkpt>
      <trkpt lat="43.964943" lon="5.024750">
        <ele>55.38080</ele>
        <time>2021-06-30T19:40:18Z</time>
      </trkpt>
      <trkpt lat="43.964943" lon="5.024750">
        <ele>55.91736</ele>
        <time>2021-06-30T19:40:19Z</time>
      </trkpt>
      <trkpt lat="43.964622" lon="5.024954">
        <ele>55.78381</ele>
        <time>2021-06-30T19:40:20Z</time>
      </trkpt>
      <trkpt lat="43.964344" lon="5.025103">
        <ele>55.99127</ele>
        <time>2021-06-30T19:40:21Z</time>
      </trkpt>
      <trkpt lat="43.964050" lon="5.025245">
        <ele>56.23651</ele>
        <time>2021-06-30T19:40:22Z</time>
      </trkpt>
      <trkpt lat="43.963779" lon="5.025374">
        <ele>56.33173</ele>
        <time>2021-06-30T19:40:23Z</time>
      </trkpt>
      <trkpt lat="43.963505" lon="5.025518">
        <ele>56.54468</ele>
        <time>2021-06-30T19:40:24Z</time>
      </trkpt>
      <trkpt lat="43.963261" lon="5.025661">
        <ele>56.59894</ele>
        <time>2021-06-30T19:40:25Z</time>
      </trkpt>
      <trkpt lat="43.962994" lon="5.025818">
        <ele>56.70166</ele>
        <time>2021-06-30T19:40:26Z</time>
      </trkpt>
      <trkpt lat="43.962746" lon="5.025947">
        <ele>56.63757</ele>
        <time>2021-06-30T19:40:27Z</time>
      </trkpt>
      <trkpt lat="43.962486" lon="5.026063">
        <ele>56.11035</ele>
        <time>2021-06-30T19:40:28Z</time>
      </trkpt>
      <trkpt lat="43.962227" lon="5.026178">
        <ele>55.48877</ele>
        <time>2021-06-30T19:40:29Z</time>
      </trkpt>
      <trkpt lat="43.961948" lon="5.026303">
        <ele>55.71582</ele>
        <time>2021-06-30T19:40:30Z</time>
      </trkpt>
      <trkpt lat="43.961693" lon="5.026388">
        <ele>55.62061</ele>
        <time>2021-06-30T19:40:31Z</time>
      </trkpt>
      <trkpt lat="43.961449" lon="5.026463">
        <ele>55.06665</ele>
        <time>2021-06-30T19:40:32Z</time>
      </trkpt>
      <trkpt lat="43.961449" lon="5.026463">
        <ele>54.86456</ele>
        <time>2021-06-30T19:40:33Z</time>
      </trkpt>
      <trkpt lat="43.961163" lon="5.026538">
        <ele>55.49969</ele>
        <time>2021-06-30T19:40:34Z</time>
      </trkpt>
      <trkpt lat="43.960884" lon="5.026587">
        <ele>55.37622</ele>
        <time>2021-06-30T19:40:35Z</time>
      </trkpt>
      <trkpt lat="43.960617" lon="5.026607">
        <ele>55.62695</ele>
        <time>2021-06-30T19:40:36Z</time>
      </trkpt>
      <trkpt lat="43.960369" lon="5.026607">
        <ele>55.44849</ele>
        <time>2021-06-30T19:40:37Z</time>
      </trkpt>
      <trkpt lat="43.960136" lon="5.026597">
        <ele>55.71985</ele>
        <time>2021-06-30T19:40:38Z</time>
      </trkpt>
      <trkpt lat="43.959949" lon="5.026578">
        <ele>56.14435</ele>
        <time>2021-06-30T19:40:39Z</time>
      </trkpt>
      <trkpt lat="43.959721" lon="5.026539">
        <ele>56.52075</ele>
        <time>2021-06-30T19:40:40Z</time>
      </trkpt>
      <trkpt lat="43.959503" lon="5.026486">
        <ele>56.68701</ele>
        <time>2021-06-30T19:40:41Z</time>
      </trkpt>
      <trkpt lat="43.959297" lon="5.026429">
        <ele>56.57239</ele>
        <time>2021-06-30T19:40:42Z</time>
      </trkpt>
      <trkpt lat="43.959080" lon="5.026370">
        <ele>56.58270</ele>
        <time>2021-06-30T19:40:43Z</time>
      </trkpt>
      <trkpt lat="43.958866" lon="5.026313">
        <ele>57.17255</ele>
        <time>2021-06-30T19:40:44Z</time>
      </trkpt>
      <trkpt lat="43.958866" lon="5.026313">
        <ele>57.94836</ele>
        <time>2021-06-30T19:40:45Z</time>
      </trkpt>
      <trkpt lat="43.958645" lon="5.026254">
        <ele>58.06799</ele>
        <time>2021-06-30T19:40:46Z</time>
      </trkpt>
      <trkpt lat="43.958416" lon="5.026195">
        <ele>57.74139</ele>
        <time>2021-06-30T19:40:47Z</time>
      </trkpt>
      <trkpt lat="43.958210" lon="5.026150">
        <ele>57.64197</ele>
        <time>2021-06-30T19:40:48Z</time>
      </trkpt>
      <trkpt lat="43.957935" lon="5.026118">
        <ele>57.72491</ele>
        <time>2021-06-30T19:40:49Z</time>
      </trkpt>
      <trkpt lat="43.957726" lon="5.026095">
        <ele>57.82062</ele>
        <time>2021-06-30T19:40:50Z</time>
      </trkpt>
      <trkpt lat="43.957500" lon="5.026082">
        <ele>57.91492</ele>
        <time>2021-06-30T19:40:51Z</time>
      </trkpt>
      <trkpt lat="43.957294" lon="5.026071">
        <ele>57.69714</ele>
        <time>2021-06-30T19:40:52Z</time>
      </trkpt>
      <trkpt lat="43.957088" lon="5.026063">
        <ele>57.49707</ele>
        <time>2021-06-30T19:40:53Z</time>
      </trkpt>
      <trkpt lat="43.956848" lon="5.026065">
        <ele>57.71674</ele>
        <time>2021-06-30T19:40:54Z</time>
      </trkpt>
      <trkpt lat="43.956615" lon="5.026044">
        <ele>57.90796</ele>
        <time>2021-06-30T19:40:55Z</time>
      </trkpt>
      <trkpt lat="43.956360" lon="5.026061">
        <ele>58.69073</ele>
        <time>2021-06-30T19:40:56Z</time>
      </trkpt>
      <trkpt lat="43.956360" lon="5.026061">
        <ele>59.47424</ele>
        <time>2021-06-30T19:40:57Z</time>
      </trkpt>
      <trkpt lat="43.956112" lon="5.026085">
        <ele>60.33325</ele>
        <time>2021-06-30T19:40:58Z</time>
      </trkpt>
      <trkpt lat="43.955868" lon="5.026122">
        <ele>61.06665</ele>
        <time>2021-06-30T19:40:59Z</time>
      </trkpt>
      <trkpt lat="43.955627" lon="5.026171">
        <ele>61.12524</ele>
        <time>2021-06-30T19:41:00Z</time>
      </trkpt>
      <trkpt lat="43.955395" lon="5.026223">
        <ele>60.74182</ele>
        <time>2021-06-30T19:41:01Z</time>
      </trkpt>
      <trkpt lat="43.955143" lon="5.026271">
        <ele>59.97711</ele>
        <time>2021-06-30T19:41:02Z</time>
      </trkpt>
      <trkpt lat="43.954922" lon="5.026310">
        <ele>58.52124</ele>
        <time>2021-06-30T19:41:03Z</time>
      </trkpt>
      <trkpt lat="43.954689" lon="5.026350">
        <ele>60.61582</ele>
        <time>2021-06-30T19:41:04Z</time>
      </trkpt>
      <trkpt lat="43.954494" lon="5.026383">
        <ele>59.76991</ele>
        <time>2021-06-30T19:41:05Z</time>
      </trkpt>
      <trkpt lat="43.954342" lon="5.026409">
        <ele>58.50104</ele>
        <time>2021-06-30T19:41:06Z</time>
      </trkpt>
      <trkpt lat="43.954185" lon="5.026437">
        <ele>58.90250</ele>
        <time>2021-06-30T19:41:07Z</time>
      </trkpt>
      <trkpt lat="43.954025" lon="5.026472">
        <ele>58.78671</ele>
        <time>2021-06-30T19:41:08Z</time>
      </trkpt>
      <trkpt lat="43.953842" lon="5.026512">
        <ele>57.13422</ele>
        <time>2021-06-30T19:41:09Z</time>
      </trkpt>
      <trkpt lat="43.953842" lon="5.026512">
        <ele>59.02211</ele>
        <time>2021-06-30T19:41:10Z</time>
      </trkpt>
      <trkpt lat="43.953644" lon="5.026556">
        <ele>58.56640</ele>
        <time>2021-06-30T19:41:11Z</time>
      </trkpt>
      <trkpt lat="43.953438" lon="5.026596">
        <ele>58.34293</ele>
        <time>2021-06-30T19:41:12Z</time>
      </trkpt>
      <trkpt lat="43.953247" lon="5.026631">
        <ele>58.31818</ele>
        <time>2021-06-30T19:41:13Z</time>
      </trkpt>
      <trkpt lat="43.953060" lon="5.026665">
        <ele>57.81534</ele>
        <time>2021-06-30T19:41:14Z</time>
      </trkpt>
      <trkpt lat="43.952923" lon="5.026690">
        <ele>57.37700</ele>
        <time>2021-06-30T19:41:15Z</time>
      </trkpt>
      <trkpt lat="43.952782" lon="5.026716">
        <ele>57.34188</ele>
        <time>2021-06-30T19:41:16Z</time>
      </trkpt>
      <trkpt lat="43.952629" lon="5.026750">
        <ele>57.34068</ele>
        <time>2021-06-30T19:41:17Z</time>
      </trkpt>
      <trkpt lat="43.952511" lon="5.026779">
        <ele>57.03625</ele>
        <time>2021-06-30T19:41:18Z</time>
      </trkpt>
      <trkpt lat="43.952381" lon="5.026811">
        <ele>57.32959</ele>
        <time>2021-06-30T19:41:19Z</time>
      </trkpt>
      <trkpt lat="43.952251" lon="5.026843">
        <ele>57.51014</ele>
        <time>2021-06-30T19:41:20Z</time>
      </trkpt>
      <trkpt lat="43.952106" lon="5.026878">
        <ele>57.94626</ele>
        <time>2021-06-30T19:41:21Z</time>
      </trkpt>
      <trkpt lat="43.951946" lon="5.026918">
        <ele>58.11860</ele>
        <time>2021-06-30T19:41:22Z</time>
      </trkpt>
      <trkpt lat="43.951775" lon="5.026959">
        <ele>58.04735</ele>
        <time>2021-06-30T19:41:23Z</time>
      </trkpt>
      <trkpt lat="43.951775" lon="5.026959">
        <ele>58.27373</ele>
        <time>2021-06-30T19:41:24Z</time>
      </trkpt>
      <trkpt lat="43.951607" lon="5.027001">
        <ele>58.29440</ele>
        <time>2021-06-30T19:41:25Z</time>
      </trkpt>
      <trkpt lat="43.951454" lon="5.027037">
        <ele>58.45747</ele>
        <time>2021-06-30T19:41:26Z</time>
      </trkpt>
      <trkpt lat="43.951275" lon="5.027052">
        <ele>58.57128</ele>
        <time>2021-06-30T19:41:27Z</time>
      </trkpt>
      <trkpt lat="43.951103" lon="5.027066">
        <ele>58.95403</ele>
        <time>2021-06-30T19:41:28Z</time>
      </trkpt>
      <trkpt lat="43.950916" lon="5.027082">
        <ele>58.75052</ele>
        <time>2021-06-30T19:41:29Z</time>
      </trkpt>
      <trkpt lat="43.950714" lon="5.027100">
        <ele>59.24478</ele>
        <time>2021-06-30T19:41:30Z</time>
      </trkpt>
      <trkpt lat="43.950546" lon="5.027126">
        <ele>58.99216</ele>
        <time>2021-06-30T19:41:31Z</time>
      </trkpt>
      <trkpt lat="43.950382" lon="5.027152">
        <ele>59.00374</ele>
        <time>2021-06-30T19:41:32Z</time>
      </trkpt>
      <trkpt lat="43.950165" lon="5.027186">
        <ele>59.03349</ele>
        <time>2021-06-30T19:41:33Z</time>
      </trkpt>
      <trkpt lat="43.949989" lon="5.027221">
        <ele>59.05908</ele>
        <time>2021-06-30T19:41:34Z</time>
      </trkpt>
      <trkpt lat="43.949795" lon="5.027248">
        <ele>59.29339</ele>
        <time>2021-06-30T19:41:35Z</time>
      </trkpt>
      <trkpt lat="43.949600" lon="5.027287">
        <ele>55.31354</ele>
        <time>2021-06-30T19:41:36Z</time>
      </trkpt>
      <trkpt lat="43.949432" lon="5.027321">
        <ele>54.83356</ele>
        <time>2021-06-30T19:41:37Z</time>
      </trkpt>
      <trkpt lat="43.949432" lon="5.027321">
        <ele>54.66046</ele>
        <time>2021-06-30T19:41:38Z</time>
      </trkpt>
      <trkpt lat="43.949219" lon="5.027365">
        <ele>54.52533</ele>
        <time>2021-06-30T19:41:39Z</time>
      </trkpt>
      <trkpt lat="43.949009" lon="5.027408">
        <ele>54.32361</ele>
        <time>2021-06-30T19:41:40Z</time>
      </trkpt>
      <trkpt lat="43.948826" lon="5.027445">
        <ele>54.17413</ele>
        <time>2021-06-30T19:41:41Z</time>
      </trkpt>
      <trkpt lat="43.948627" lon="5.027486">
        <ele>54.24670</ele>
        <time>2021-06-30T19:41:42Z</time>
      </trkpt>
      <trkpt lat="43.948395" lon="5.027533">
        <ele>54.82483</ele>
        <time>2021-06-30T19:41:43Z</time>
      </trkpt>
      <trkpt lat="43.948212" lon="5.027571">
        <ele>55.26086</ele>
        <time>2021-06-30T19:41:44Z</time>
      </trkpt>
      <trkpt lat="43.948017" lon="5.027610">
        <ele>55.06073</ele>
        <time>2021-06-30T19:41:45Z</time>
      </trkpt>
      <trkpt lat="43.947796" lon="5.027655">
        <ele>55.09680</ele>
        <time>2021-06-30T19:41:46Z</time>
      </trkpt>
      <trkpt lat="43.947578" lon="5.027699">
        <ele>55.26111</ele>
        <time>2021-06-30T19:41:47Z</time>
      </trkpt>
      <trkpt lat="43.947338" lon="5.027747">
        <ele>55.21796</ele>
        <time>2021-06-30T19:41:48Z</time>
      </trkpt>
      <trkpt lat="43.947102" lon="5.027794">
        <ele>55.22180</ele>
        <time>2021-06-30T19:41:49Z</time>
      </trkpt>
      <trkpt lat="43.946880" lon="5.027831">
        <ele>55.71533</ele>
        <time>2021-06-30T19:41:50Z</time>
      </trkpt>
      <trkpt lat="43.946663" lon="5.027865">
        <ele>55.57599</ele>
        <time>2021-06-30T19:41:51Z</time>
      </trkpt>
      <trkpt lat="43.946663" lon="5.027865">
        <ele>55.71448</ele>
        <time>2021-06-30T19:41:52Z</time>
      </trkpt>
      <trkpt lat="43.946442" lon="5.027899">
        <ele>55.77026</ele>
        <time>2021-06-30T19:41:53Z</time>
      </trkpt>
      <trkpt lat="43.946205" lon="5.027939">
        <ele>55.85687</ele>
        <time>2021-06-30T19:41:54Z</time>
      </trkpt>
      <trkpt lat="43.945927" lon="5.027990">
        <ele>55.84100</ele>
        <time>2021-06-30T19:41:55Z</time>
      </trkpt>
      <trkpt lat="43.945702" lon="5.028032">
        <ele>56.71167</ele>
        <time>2021-06-30T19:41:56Z</time>
      </trkpt>
      <trkpt lat="43.945480" lon="5.028072">
        <ele>56.66504</ele>
        <time>2021-06-30T19:41:57Z</time>
      </trkpt>
      <trkpt lat="43.945210" lon="5.028122">
        <ele>56.86798</ele>
        <time>2021-06-30T19:41:58Z</time>
      </trkpt>
      <trkpt lat="43.944935" lon="5.028172">
        <ele>57.02515</ele>
        <time>2021-06-30T19:41:59Z</time>
      </trkpt>
      <trkpt lat="43.944645" lon="5.028226">
        <ele>57.17383</ele>
        <time>2021-06-30T19:42:00Z</time>
      </trkpt>
      <trkpt lat="43.944378" lon="5.028274">
        <ele>57.52466</ele>
        <time>2021-06-30T19:42:01Z</time>
      </trkpt>
      <trkpt lat="43.944378" lon="5.028274">
        <ele>57.43866</ele>
        <time>2021-06-30T19:42:02Z</time>
      </trkpt>
      <trkpt lat="43.944126" lon="5.028320">
        <ele>57.64374</ele>
        <time>2021-06-30T19:42:03Z</time>
      </trkpt>
      <trkpt lat="43.943836" lon="5.028373">
        <ele>57.78979</ele>
        <time>2021-06-30T19:42:04Z</time>
      </trkpt>
      <trkpt lat="43.943626" lon="5.028411">
        <ele>57.50464</ele>
        <time>2021-06-30T19:42:05Z</time>
      </trkpt>
      <trkpt lat="43.943390" lon="5.028455">
        <ele>56.91327</ele>
        <time>2021-06-30T19:42:06Z</time>
      </trkpt>
      <trkpt lat="43.943130" lon="5.028502">
        <ele>57.06409</ele>
        <time>2021-06-30T19:42:07Z</time>
      </trkpt>
      <trkpt lat="43.942890" lon="5.028546">
        <ele>57.05688</ele>
        <time>2021-06-30T19:42:08Z</time>
      </trkpt>
      <trkpt lat="43.942616" lon="5.028596">
        <ele>57.12115</ele>
        <time>2021-06-30T19:42:09Z</time>
      </trkpt>
      <trkpt lat="43.942352" lon="5.028645">
        <ele>57.26099</ele>
        <time>2021-06-30T19:42:10Z</time>
      </trkpt>
      <trkpt lat="43.942101" lon="5.028691">
        <ele>57.42987</ele>
        <time>2021-06-30T19:42:11Z</time>
      </trkpt>
      <trkpt lat="43.941856" lon="5.028735">
        <ele>57.48657</ele>
        <time>2021-06-30T19:42:12Z</time>
      </trkpt>
      <trkpt lat="43.941597" lon="5.028783">
        <ele>57.28369</ele>
        <time>2021-06-30T19:42:13Z</time>
      </trkpt>
      <trkpt lat="43.941338" lon="5.028830">
        <ele>57.12036</ele>
        <time>2021-06-30T19:42:14Z</time>
      </trkpt>
      <trkpt lat="43.941044" lon="5.028884">
        <ele>56.88428</ele>
        <time>2021-06-30T19:42:15Z</time>
      </trkpt>
      <trkpt lat="43.940723" lon="5.028942">
        <ele>56.70837</ele>
        <time>2021-06-30T19:42:16Z</time>
      </trkpt>
      <trkpt lat="43.940723" lon="5.028942">
        <ele>56.62891</ele>
        <time>2021-06-30T19:42:17Z</time>
      </trkpt>
      <trkpt lat="43.940350" lon="5.029011">
        <ele>56.86560</ele>
        <time>2021-06-30T19:42:18Z</time>
      </trkpt>
      <trkpt lat="43.939987" lon="5.029077">
        <ele>57.08069</ele>
        <time>2021-06-30T19:42:19Z</time>
      </trkpt>
      <trkpt lat="43.939583" lon="5.029151">
        <ele>57.07080</ele>
        <time>2021-06-30T19:42:20Z</time>
      </trkpt>
      <trkpt lat="43.939224" lon="5.029225">
        <ele>56.62933</ele>
        <time>2021-06-30T19:42:21Z</time>
      </trkpt>
      <trkpt lat="43.938885" lon="5.029278">
        <ele>56.68042</ele>
        <time>2021-06-30T19:42:22Z</time>
      </trkpt>
      <trkpt lat="43.938606" lon="5.029322">
        <ele>56.61639</ele>
        <time>2021-06-30T19:42:23Z</time>
      </trkpt>
      <trkpt lat="43.938335" lon="5.029369">
        <ele>56.78094</ele>
        <time>2021-06-30T19:42:24Z</time>
      </trkpt>
      <trkpt lat="43.937992" lon="5.029439">
        <ele>56.61548</ele>
        <time>2021-06-30T19:42:25Z</time>
      </trkpt>
      <trkpt lat="43.937679" lon="5.029500">
        <ele>56.15186</ele>
        <time>2021-06-30T19:42:26Z</time>
      </trkpt>
      <trkpt lat="43.937420" lon="5.029517">
        <ele>56.19470</ele>
        <time>2021-06-30T19:42:27Z</time>
      </trkpt>
      <trkpt lat="43.937119" lon="5.029567">
        <ele>56.72369</ele>
        <time>2021-06-30T19:42:28Z</time>
      </trkpt>
      <trkpt lat="43.936817" lon="5.029618">
        <ele>57.01782</ele>
        <time>2021-06-30T19:42:29Z</time>
      </trkpt>
      <trkpt lat="43.936817" lon="5.029618">
        <ele>56.66595</ele>
        <time>2021-06-30T19:42:30Z</time>
      </trkpt>
      <trkpt lat="43.936543" lon="5.029664">
        <ele>56.80933</ele>
        <time>2021-06-30T19:42:31Z</time>
      </trkpt>
      <trkpt lat="43.936302" lon="5.029703">
        <ele>56.92004</ele>
        <time>2021-06-30T19:42:32Z</time>
      </trkpt>
      <trkpt lat="43.936043" lon="5.029748">
        <ele>56.89423</ele>
        <time>2021-06-30T19:42:33Z</time>
      </trkpt>
      <trkpt lat="43.935787" lon="5.029795">
        <ele>56.83978</ele>
        <time>2021-06-30T19:42:34Z</time>
      </trkpt>
      <trkpt lat="43.935482" lon="5.029848">
        <ele>56.76752</ele>
        <time>2021-06-30T19:42:35Z</time>
      </trkpt>
      <trkpt lat="43.935265" lon="5.029874">
        <ele>56.18860</ele>
        <time>2021-06-30T19:42:36Z</time>
      </trkpt>
      <trkpt lat="43.935020" lon="5.029922">
        <ele>56.41315</ele>
        <time>2021-06-30T19:42:37Z</time>
      </trkpt>
      <trkpt lat="43.934811" lon="5.029961">
        <ele>56.68408</ele>
        <time>2021-06-30T19:42:38Z</time>
      </trkpt>
      <trkpt lat="43.934612" lon="5.029999">
        <ele>56.54828</ele>
        <time>2021-06-30T19:42:39Z</time>
      </trkpt>
      <trkpt lat="43.934429" lon="5.030033">
        <ele>56.78839</ele>
        <time>2021-06-30T19:42:40Z</time>
      </trkpt>
      <trkpt lat="43.934254" lon="5.030094">
        <ele>57.04626</ele>
        <time>2021-06-30T19:42:41Z</time>
      </trkpt>
      <trkpt lat="43.934044" lon="5.030123">
        <ele>56.72516</ele>
        <time>2021-06-30T19:42:42Z</time>
      </trkpt>
      <trkpt lat="43.933838" lon="5.030169">
        <ele>56.07776</ele>
        <time>2021-06-30T19:42:43Z</time>
      </trkpt>
      <trkpt lat="43.933647" lon="5.030213">
        <ele>56.47540</ele>
        <time>2021-06-30T19:42:44Z</time>
      </trkpt>
      <trkpt lat="43.933426" lon="5.030264">
        <ele>56.14801</ele>
        <time>2021-06-30T19:42:45Z</time>
      </trkpt>
      <trkpt lat="43.933205" lon="5.030314">
        <ele>56.62195</ele>
        <time>2021-06-30T19:42:46Z</time>
      </trkpt>
      <trkpt lat="43.933205" lon="5.030314">
        <ele>56.50250</ele>
        <time>2021-06-30T19:42:47Z</time>
      </trkpt>
      <trkpt lat="43.932976" lon="5.030360">
        <ele>56.46521</ele>
        <time>2021-06-30T19:42:48Z</time>
      </trkpt>
      <trkpt lat="43.932686" lon="5.030417">
        <ele>56.44141</ele>
        <time>2021-06-30T19:42:49Z</time>
      </trkpt>
      <trkpt lat="43.932400" lon="5.030472">
        <ele>56.04333</ele>
        <time>2021-06-30T19:42:50Z</time>
      </trkpt>
      <trkpt lat="43.932159" lon="5.030518">
        <ele>56.28943</ele>
        <time>2021-06-30T19:42:51Z</time>
      </trkpt>
      <trkpt lat="43.931885" lon="5.030571">
        <ele>56.28943</ele>
        <time>2021-06-30T19:42:52Z</time>
      </trkpt>
      <trkpt lat="43.931660" lon="5.030614">
        <ele>56.55688</ele>
        <time>2021-06-30T19:42:53Z</time>
      </trkpt>
      <trkpt lat="43.931435" lon="5.030658">
        <ele>56.63696</ele>
        <time>2021-06-30T19:42:54Z</time>
      </trkpt>
      <trkpt lat="43.931210" lon="5.030701">
        <ele>57.08081</ele>
        <time>2021-06-30T19:42:55Z</time>
      </trkpt>
      <trkpt lat="43.931007" lon="5.030740">
        <ele>57.04108</ele>
        <time>2021-06-30T19:42:56Z</time>
      </trkpt>
      <trkpt lat="43.930790" lon="5.030774">
        <ele>57.13660</ele>
        <time>2021-06-30T19:42:57Z</time>
      </trkpt>
      <trkpt lat="43.930573" lon="5.030807">
        <ele>57.00110</ele>
        <time>2021-06-30T19:42:58Z</time>
      </trkpt>
      <trkpt lat="43.930370" lon="5.030838">
        <ele>57.00110</ele>
        <time>2021-06-30T19:42:59Z</time>
      </trkpt>
      <trkpt lat="43.930370" lon="5.030838">
        <ele>56.66785</ele>
        <time>2021-06-30T19:43:00Z</time>
      </trkpt>
      <trkpt lat="43.930176" lon="5.030857">
        <ele>57.28076</ele>
        <time>2021-06-30T19:43:01Z</time>
      </trkpt>
      <trkpt lat="43.929951" lon="5.030826">
        <ele>57.20086</ele>
        <time>2021-06-30T19:43:02Z</time>
      </trkpt>
      <trkpt lat="43.929783" lon="5.030820">
        <ele>57.51329</ele>
        <time>2021-06-30T19:43:03Z</time>
      </trkpt>
      <trkpt lat="43.929619" lon="5.030813">
        <ele>57.51329</ele>
        <time>2021-06-30T19:43:07Z</time>
      </trkpt>
      <trkpt lat="43.928493" lon="5.030530">
        <ele>55.84838</ele>
        <time>2021-06-30T19:43:10Z</time>
      </trkpt>
      <trkpt lat="43.928493" lon="5.030530">
        <ele>55.84838</ele>
        <time>2021-06-30T19:43:10Z</time>
      </trkpt>
      <trkpt lat="43.928493" lon="5.030530">
        <ele>55.69408</ele>
        <time>2021-06-30T19:43:11Z</time>
      </trkpt>
      <trkpt lat="43.928486" lon="5.030527">
        <ele>55.69408</ele>
        <time>2021-06-30T19:43:12Z</time>
      </trkpt>
      <trkpt lat="43.928478" lon="5.030523">
        <ele>55.75856</ele>
        <time>2021-06-30T19:43:13Z</time>
      </trkpt>
      <trkpt lat="43.928478" lon="5.030523">
        <ele>55.22393</ele>
        <time>2021-06-30T19:43:14Z</time>
      </trkpt>
      <trkpt lat="43.928368" lon="5.030460">
        <ele>55.22393</ele>
        <time>2021-06-30T19:43:15Z</time>
      </trkpt>
      <trkpt lat="43.928207" lon="5.030369">
        <ele>55.59137</ele>
        <time>2021-06-30T19:43:16Z</time>
      </trkpt>
      <trkpt lat="43.928162" lon="5.030344">
        <ele>55.59137</ele>
        <time>2021-06-30T19:43:17Z</time>
      </trkpt>
      <trkpt lat="43.928066" lon="5.030288">
        <ele>55.82505</ele>
        <time>2021-06-30T19:43:18Z</time>
      </trkpt>
      <trkpt lat="43.927944" lon="5.030221">
        <ele>57.15966</ele>
        <time>2021-06-30T19:43:19Z</time>
      </trkpt>
      <trkpt lat="43.927944" lon="5.030221">
        <ele>57.30103</ele>
        <time>2021-06-30T19:43:20Z</time>
      </trkpt>
      <trkpt lat="43.927818" lon="5.030146">
        <ele>58.12760</ele>
        <time>2021-06-30T19:43:21Z</time>
      </trkpt>
      <trkpt lat="43.927704" lon="5.030070">
        <ele>58.12760</ele>
        <time>2021-06-30T19:43:22Z</time>
      </trkpt>
      <trkpt lat="43.927547" lon="5.029955">
        <ele>57.82610</ele>
        <time>2021-06-30T19:43:23Z</time>
      </trkpt>
      <trkpt lat="43.927402" lon="5.029842">
        <ele>58.02869</ele>
        <time>2021-06-30T19:43:24Z</time>
      </trkpt>
      <trkpt lat="43.927242" lon="5.029713">
        <ele>57.92537</ele>
        <time>2021-06-30T19:43:25Z</time>
      </trkpt>
      <trkpt lat="43.927094" lon="5.029586">
        <ele>58.07311</ele>
        <time>2021-06-30T19:43:26Z</time>
      </trkpt>
      <trkpt lat="43.926975" lon="5.029485">
        <ele>58.42619</ele>
        <time>2021-06-30T19:43:27Z</time>
      </trkpt>
      <trkpt lat="43.926777" lon="5.029313">
        <ele>58.37353</ele>
        <time>2021-06-30T19:43:28Z</time>
      </trkpt>
      <trkpt lat="43.926628" lon="5.029190">
        <ele>58.26832</ele>
        <time>2021-06-30T19:43:29Z</time>
      </trkpt>
      <trkpt lat="43.926628" lon="5.029190">
        <ele>58.26173</ele>
        <time>2021-06-30T19:43:30Z</time>
      </trkpt>
      <trkpt lat="43.926495" lon="5.029080">
        <ele>58.19066</ele>
        <time>2021-06-30T19:43:31Z</time>
      </trkpt>
      <trkpt lat="43.926342" lon="5.028965">
        <ele>58.79919</ele>
        <time>2021-06-30T19:43:32Z</time>
      </trkpt>
      <trkpt lat="43.926167" lon="5.028849">
        <ele>58.70466</ele>
        <time>2021-06-30T19:43:33Z</time>
      </trkpt>
      <trkpt lat="43.925999" lon="5.028753">
        <ele>59.69067</ele>
        <time>2021-06-30T19:43:34Z</time>
      </trkpt>
      <trkpt lat="43.925816" lon="5.028648">
        <ele>59.06915</ele>
        <time>2021-06-30T19:43:35Z</time>
      </trkpt>
      <trkpt lat="43.925625" lon="5.028563">
        <ele>59.18237</ele>
        <time>2021-06-30T19:43:36Z</time>
      </trkpt>
      <trkpt lat="43.925407" lon="5.028483">
        <ele>58.86340</ele>
        <time>2021-06-30T19:43:37Z</time>
      </trkpt>
      <trkpt lat="43.925224" lon="5.028433">
        <ele>59.58365</ele>
        <time>2021-06-30T19:43:38Z</time>
      </trkpt>
      <trkpt lat="43.925030" lon="5.028402">
        <ele>59.33948</ele>
        <time>2021-06-30T19:43:39Z</time>
      </trkpt>
      <trkpt lat="43.924854" lon="5.028374">
        <ele>59.22948</ele>
        <time>2021-06-30T19:43:40Z</time>
      </trkpt>
      <trkpt lat="43.924854" lon="5.028374">
        <ele>58.35743</ele>
        <time>2021-06-30T19:43:41Z</time>
      </trkpt>
      <trkpt lat="43.924675" lon="5.028379">
        <ele>58.49146</ele>
        <time>2021-06-30T19:43:42Z</time>
      </trkpt>
      <trkpt lat="43.924484" lon="5.028369">
        <ele>58.07869</ele>
        <time>2021-06-30T19:43:43Z</time>
      </trkpt>
      <trkpt lat="43.924335" lon="5.028362">
        <ele>57.95985</ele>
        <time>2021-06-30T19:43:44Z</time>
      </trkpt>
      <trkpt lat="43.924179" lon="5.028365">
        <ele>57.70205</ele>
        <time>2021-06-30T19:43:45Z</time>
      </trkpt>
      <trkpt lat="43.924038" lon="5.028375">
        <ele>57.86845</ele>
        <time>2021-06-30T19:43:46Z</time>
      </trkpt>
      <trkpt lat="43.923901" lon="5.028385">
        <ele>57.65894</ele>
        <time>2021-06-30T19:43:47Z</time>
      </trkpt>
      <trkpt lat="43.923725" lon="5.028398">
        <ele>57.96379</ele>
        <time>2021-06-30T19:43:48Z</time>
      </trkpt>
      <trkpt lat="43.923580" lon="5.028414">
        <ele>58.27516</ele>
        <time>2021-06-30T19:43:49Z</time>
      </trkpt>
      <trkpt lat="43.923412" lon="5.028440">
        <ele>58.54031</ele>
        <time>2021-06-30T19:43:50Z</time>
      </trkpt>
      <trkpt lat="43.923264" lon="5.028464">
        <ele>58.36169</ele>
        <time>2021-06-30T19:43:51Z</time>
      </trkpt>
      <trkpt lat="43.923103" lon="5.028489">
        <ele>58.47247</ele>
        <time>2021-06-30T19:43:52Z</time>
      </trkpt>
      <trkpt lat="43.922943" lon="5.028514">
        <ele>58.72742</ele>
        <time>2021-06-30T19:43:53Z</time>
      </trkpt>
      <trkpt lat="43.922775" lon="5.028540">
        <ele>58.31465</ele>
        <time>2021-06-30T19:43:54Z</time>
      </trkpt>
      <trkpt lat="43.922619" lon="5.028565">
        <ele>58.73761</ele>
        <time>2021-06-30T19:43:55Z</time>
      </trkpt>
      <trkpt lat="43.922447" lon="5.028592">
        <ele>58.81575</ele>
        <time>2021-06-30T19:43:56Z</time>
      </trkpt>
      <trkpt lat="43.922447" lon="5.028592">
        <ele>58.55739</ele>
        <time>2021-06-30T19:43:57Z</time>
      </trkpt>
      <trkpt lat="43.922272" lon="5.028619">
        <ele>58.47424</ele>
        <time>2021-06-30T19:43:58Z</time>
      </trkpt>
      <trkpt lat="43.922077" lon="5.028649">
        <ele>58.48737</ele>
        <time>2021-06-30T19:43:59Z</time>
      </trkpt>
      <trkpt lat="43.921917" lon="5.028674">
        <ele>58.73783</ele>
        <time>2021-06-30T19:44:00Z</time>
      </trkpt>
      <trkpt lat="43.921772" lon="5.028697">
        <ele>58.33785</ele>
        <time>2021-06-30T19:44:01Z</time>
      </trkpt>
      <trkpt lat="43.921631" lon="5.028722">
        <ele>58.33377</ele>
        <time>2021-06-30T19:44:02Z</time>
      </trkpt>
      <trkpt lat="43.921436" lon="5.028756">
        <ele>58.59321</ele>
        <time>2021-06-30T19:44:03Z</time>
      </trkpt>
      <trkpt lat="43.921284" lon="5.028783">
        <ele>58.95545</ele>
        <time>2021-06-30T19:44:04Z</time>
      </trkpt>
      <trkpt lat="43.921089" lon="5.028801">
        <ele>59.34217</ele>
        <time>2021-06-30T19:44:05Z</time>
      </trkpt>
      <trkpt lat="43.920914" lon="5.028819">
        <ele>60.19584</ele>
        <time>2021-06-30T19:44:06Z</time>
      </trkpt>
      <trkpt lat="43.920753" lon="5.028853">
        <ele>60.19584</ele>
        <time>2021-06-30T19:44:07Z</time>
      </trkpt>
      <trkpt lat="43.920624" lon="5.028880">
        <ele>61.17590</ele>
        <time>2021-06-30T19:44:08Z</time>
      </trkpt>
      <trkpt lat="43.920475" lon="5.028911">
        <ele>61.17590</ele>
        <time>2021-06-30T19:44:09Z</time>
      </trkpt>
      <trkpt lat="43.920277" lon="5.028952">
        <ele>62.63048</ele>
        <time>2021-06-30T19:44:10Z</time>
      </trkpt>
      <trkpt lat="43.920277" lon="5.028952">
        <ele>62.63048</ele>
        <time>2021-06-30T19:44:11Z</time>
      </trkpt>
      <trkpt lat="43.920105" lon="5.028988">
        <ele>63.68016</ele>
        <time>2021-06-30T19:44:12Z</time>
      </trkpt>
      <trkpt lat="43.919945" lon="5.029022">
        <ele>64.22250</ele>
        <time>2021-06-30T19:44:13Z</time>
      </trkpt>
      <trkpt lat="43.919800" lon="5.029053">
        <ele>64.42486</ele>
        <time>2021-06-30T19:44:14Z</time>
      </trkpt>
      <trkpt lat="43.919670" lon="5.029080">
        <ele>64.51900</ele>
        <time>2021-06-30T19:44:15Z</time>
      </trkpt>
      <trkpt lat="43.919567" lon="5.029099">
        <ele>65.15485</ele>
        <time>2021-06-30T19:44:16Z</time>
      </trkpt>
      <trkpt lat="43.919464" lon="5.029123">
        <ele>65.87499</ele>
        <time>2021-06-30T19:44:17Z</time>
      </trkpt>
      <trkpt lat="43.919334" lon="5.029156">
        <ele>67.13495</ele>
        <time>2021-06-30T19:44:18Z</time>
      </trkpt>
      <trkpt lat="43.919136" lon="5.029206">
        <ele>68.36987</ele>
        <time>2021-06-30T19:44:19Z</time>
      </trkpt>
      <trkpt lat="43.918930" lon="5.029270">
        <ele>68.77191</ele>
        <time>2021-06-30T19:44:20Z</time>
      </trkpt>
      <trkpt lat="43.918724" lon="5.029339">
        <ele>68.82910</ele>
        <time>2021-06-30T19:44:21Z</time>
      </trkpt>
      <trkpt lat="43.918507" lon="5.029413">
        <ele>68.70178</ele>
        <time>2021-06-30T19:44:22Z</time>
      </trkpt>
      <trkpt lat="43.918259" lon="5.029508">
        <ele>68.30469</ele>
        <time>2021-06-30T19:44:23Z</time>
      </trkpt>
      <trkpt lat="43.918259" lon="5.029508">
        <ele>67.77582</ele>
        <time>2021-06-30T19:44:24Z</time>
      </trkpt>
      <trkpt lat="43.917927" lon="5.029633">
        <ele>67.08484</ele>
        <time>2021-06-30T19:44:25Z</time>
      </trkpt>
      <trkpt lat="43.917702" lon="5.029720">
        <ele>67.08484</ele>
        <time>2021-06-30T19:44:26Z</time>
      </trkpt>
      <trkpt lat="43.917324" lon="5.029863">
        <ele>65.71021</ele>
        <time>2021-06-30T19:44:27Z</time>
      </trkpt>
      <trkpt lat="43.917103" lon="5.029931">
        <ele>64.79517</ele>
        <time>2021-06-30T19:44:28Z</time>
      </trkpt>
      <trkpt lat="43.916790" lon="5.029990">
        <ele>63.12091</ele>
        <time>2021-06-30T19:44:29Z</time>
      </trkpt>
      <trkpt lat="43.916454" lon="5.030018">
        <ele>62.86761</ele>
        <time>2021-06-30T19:44:30Z</time>
      </trkpt>
      <trkpt lat="43.916122" lon="5.030012">
        <ele>62.93671</ele>
        <time>2021-06-30T19:44:31Z</time>
      </trkpt>
      <trkpt lat="43.916122" lon="5.030012">
        <ele>62.81219</ele>
        <time>2021-06-30T19:44:32Z</time>
      </trkpt>
      <trkpt lat="43.915836" lon="5.029980">
        <ele>62.85876</ele>
        <time>2021-06-30T19:44:33Z</time>
      </trkpt>
      <trkpt lat="43.915497" lon="5.029919">
        <ele>62.85876</ele>
        <time>2021-06-30T19:44:34Z</time>
      </trkpt>
      <trkpt lat="43.914562" lon="5.029733">
        <ele>64.33521</ele>
        <time>2021-06-30T19:44:36Z</time>
      </trkpt>
      <trkpt lat="43.914562" lon="5.029733">
        <ele>64.33521</ele>
        <time>2021-06-30T19:44:36Z</time>
      </trkpt>
      <trkpt lat="43.914562" lon="5.029733">
        <ele>64.33521</ele>
        <time>2021-06-30T19:44:37Z</time>
      </trkpt>
      <trkpt lat="43.914360" lon="5.029710">
        <ele>64.68921</ele>
        <time>2021-06-30T19:44:38Z</time>
      </trkpt>
      <trkpt lat="43.913967" lon="5.029690">
        <ele>64.77332</ele>
        <time>2021-06-30T19:44:39Z</time>
      </trkpt>
      <trkpt lat="43.913677" lon="5.029748">
        <ele>64.70349</ele>
        <time>2021-06-30T19:44:40Z</time>
      </trkpt>
      <trkpt lat="43.913391" lon="5.029852">
        <ele>65.11646</ele>
        <time>2021-06-30T19:44:41Z</time>
      </trkpt>
      <trkpt lat="43.913097" lon="5.030003">
        <ele>65.34705</ele>
        <time>2021-06-30T19:44:42Z</time>
      </trkpt>
      <trkpt lat="43.912884" lon="5.030155">
        <ele>65.90076</ele>
        <time>2021-06-30T19:44:43Z</time>
      </trkpt>
      <trkpt lat="43.912884" lon="5.030155">
        <ele>66.09393</ele>
        <time>2021-06-30T19:44:44Z</time>
      </trkpt>
      <trkpt lat="43.912666" lon="5.030329">
        <ele>66.01514</ele>
        <time>2021-06-30T19:44:45Z</time>
      </trkpt>
      <trkpt lat="43.912464" lon="5.030600">
        <ele>66.12585</ele>
        <time>2021-06-30T19:44:46Z</time>
      </trkpt>
      <trkpt lat="43.912281" lon="5.030830">
        <ele>66.72681</ele>
        <time>2021-06-30T19:44:47Z</time>
      </trkpt>
      <trkpt lat="43.912083" lon="5.031078">
        <ele>66.72681</ele>
        <time>2021-06-30T19:44:48Z</time>
      </trkpt>
      <trkpt lat="43.911873" lon="5.031341">
        <ele>69.65442</ele>
        <time>2021-06-30T19:44:49Z</time>
      </trkpt>
      <trkpt lat="43.911667" lon="5.031604">
        <ele>70.45959</ele>
        <time>2021-06-30T19:44:50Z</time>
      </trkpt>
      <trkpt lat="43.911472" lon="5.031876">
        <ele>71.37610</ele>
        <time>2021-06-30T19:44:51Z</time>
      </trkpt>
      <trkpt lat="43.911297" lon="5.032159">
        <ele>71.50714</ele>
        <time>2021-06-30T19:44:52Z</time>
      </trkpt>
      <trkpt lat="43.911125" lon="5.032462">
        <ele>71.19678</ele>
        <time>2021-06-30T19:44:53Z</time>
      </trkpt>
      <trkpt lat="43.910946" lon="5.032815">
        <ele>70.44800</ele>
        <time>2021-06-30T19:44:54Z</time>
      </trkpt>
      <trkpt lat="43.910809" lon="5.033154">
        <ele>68.80048</ele>
        <time>2021-06-30T19:44:55Z</time>
      </trkpt>
      <trkpt lat="43.910652" lon="5.033565">
        <ele>67.13702</ele>
        <time>2021-06-30T19:44:56Z</time>
      </trkpt>
      <trkpt lat="43.910503" lon="5.033989">
        <ele>66.65796</ele>
        <time>2021-06-30T19:44:57Z</time>
      </trkpt>
      <trkpt lat="43.910503" lon="5.033989">
        <ele>66.53308</ele>
        <time>2021-06-30T19:44:58Z</time>
      </trkpt>
      <trkpt lat="43.910347" lon="5.034421">
        <ele>66.77527</ele>
        <time>2021-06-30T19:44:59Z</time>
      </trkpt>
      <trkpt lat="43.910210" lon="5.034788">
        <ele>67.04779</ele>
        <time>2021-06-30T19:45:00Z</time>
      </trkpt>
      <trkpt lat="43.910069" lon="5.035109">
        <ele>67.31195</ele>
        <time>2021-06-30T19:45:01Z</time>
      </trkpt>
      <trkpt lat="43.909897" lon="5.035442">
        <ele>67.07697</ele>
        <time>2021-06-30T19:45:02Z</time>
      </trkpt>
      <trkpt lat="43.909664" lon="5.035808">
        <ele>67.10663</ele>
        <time>2021-06-30T19:45:03Z</time>
      </trkpt>
      <trkpt lat="43.909428" lon="5.036134">
        <ele>67.15973</ele>
        <time>2021-06-30T19:45:04Z</time>
      </trkpt>
      <trkpt lat="43.909138" lon="5.036514">
        <ele>67.75775</ele>
        <time>2021-06-30T19:45:05Z</time>
      </trkpt>
      <trkpt lat="43.908844" lon="5.036865">
        <ele>68.05316</ele>
        <time>2021-06-30T19:45:06Z</time>
      </trkpt>
      <trkpt lat="43.908592" lon="5.037170">
        <ele>67.94080</ele>
        <time>2021-06-30T19:45:07Z</time>
      </trkpt>
      <trkpt lat="43.908344" lon="5.037462">
        <ele>67.95294</ele>
        <time>2021-06-30T19:45:08Z</time>
      </trkpt>
      <trkpt lat="43.908092" lon="5.037781">
        <ele>68.46326</ele>
        <time>2021-06-30T19:45:09Z</time>
      </trkpt>
      <trkpt lat="43.908092" lon="5.037781">
        <ele>68.77930</ele>
        <time>2021-06-30T19:45:10Z</time>
      </trkpt>
      <trkpt lat="43.907837" lon="5.038082">
        <ele>68.69202</ele>
        <time>2021-06-30T19:45:11Z</time>
      </trkpt>
      <trkpt lat="43.907600" lon="5.038386">
        <ele>68.96002</ele>
        <time>2021-06-30T19:45:12Z</time>
      </trkpt>
      <trkpt lat="43.907352" lon="5.038712">
        <ele>69.17981</ele>
        <time>2021-06-30T19:45:13Z</time>
      </trkpt>
      <trkpt lat="43.907162" lon="5.038981">
        <ele>69.15021</ele>
        <time>2021-06-30T19:45:14Z</time>
      </trkpt>
      <trkpt lat="43.906914" lon="5.039321">
        <ele>69.35938</ele>
        <time>2021-06-30T19:45:15Z</time>
      </trkpt>
      <trkpt lat="43.906715" lon="5.039605">
        <ele>69.23779</ele>
        <time>2021-06-30T19:45:16Z</time>
      </trkpt>
      <trkpt lat="43.906456" lon="5.040002">
        <ele>69.38074</ele>
        <time>2021-06-30T19:45:17Z</time>
      </trkpt>
      <trkpt lat="43.906181" lon="5.040422">
        <ele>69.68579</ele>
        <time>2021-06-30T19:45:18Z</time>
      </trkpt>
      <trkpt lat="43.905960" lon="5.040767">
        <ele>69.71301</ele>
        <time>2021-06-30T19:45:19Z</time>
      </trkpt>
      <trkpt lat="43.905720" lon="5.041100">
        <ele>69.91345</ele>
        <time>2021-06-30T19:45:20Z</time>
      </trkpt>
      <trkpt lat="43.905437" lon="5.041471">
        <ele>69.83643</ele>
        <time>2021-06-30T19:45:21Z</time>
      </trkpt>
      <trkpt lat="43.905155" lon="5.041811">
        <ele>69.89758</ele>
        <time>2021-06-30T19:45:22Z</time>
      </trkpt>
      <trkpt lat="43.905155" lon="5.041811">
        <ele>69.97241</ele>
        <time>2021-06-30T19:45:23Z</time>
      </trkpt>
      <trkpt lat="43.904877" lon="5.042090">
        <ele>70.09772</ele>
        <time>2021-06-30T19:45:24Z</time>
      </trkpt>
      <trkpt lat="43.904606" lon="5.042360">
        <ele>69.85767</ele>
        <time>2021-06-30T19:45:25Z</time>
      </trkpt>
      <trkpt lat="43.904324" lon="5.042616">
        <ele>69.54120</ele>
        <time>2021-06-30T19:45:26Z</time>
      </trkpt>
      <trkpt lat="43.904053" lon="5.042803">
        <ele>69.27991</ele>
        <time>2021-06-30T19:45:27Z</time>
      </trkpt>
      <trkpt lat="43.903713" lon="5.043012">
        <ele>69.20294</ele>
        <time>2021-06-30T19:45:28Z</time>
      </trkpt>
      <trkpt lat="43.903389" lon="5.043199">
        <ele>69.09625</ele>
        <time>2021-06-30T19:45:29Z</time>
      </trkpt>
      <trkpt lat="43.903114" lon="5.043360">
        <ele>68.56354</ele>
        <time>2021-06-30T19:45:30Z</time>
      </trkpt>
      <trkpt lat="43.902775" lon="5.043556">
        <ele>68.77130</ele>
        <time>2021-06-30T19:45:31Z</time>
      </trkpt>
      <trkpt lat="43.902390" lon="5.043780">
        <ele>68.07434</ele>
        <time>2021-06-30T19:45:32Z</time>
      </trkpt>
      <trkpt lat="43.902046" lon="5.043980">
        <ele>67.96265</ele>
        <time>2021-06-30T19:45:33Z</time>
      </trkpt>
      <trkpt lat="43.902046" lon="5.043980">
        <ele>67.72321</ele>
        <time>2021-06-30T19:45:34Z</time>
      </trkpt>
      <trkpt lat="43.901779" lon="5.044152">
        <ele>68.06683</ele>
        <time>2021-06-30T19:45:35Z</time>
      </trkpt>
      <trkpt lat="43.901520" lon="5.044344">
        <ele>68.36157</ele>
        <time>2021-06-30T19:45:36Z</time>
      </trkpt>
      <trkpt lat="43.901192" lon="5.044611">
        <ele>67.98602</ele>
        <time>2021-06-30T19:45:37Z</time>
      </trkpt>
      <trkpt lat="43.900940" lon="5.044840">
        <ele>68.24268</ele>
        <time>2021-06-30T19:45:38Z</time>
      </trkpt>
      <trkpt lat="43.900623" lon="5.045166">
        <ele>67.90778</ele>
        <time>2021-06-30T19:45:39Z</time>
      </trkpt>
      <trkpt lat="43.900349" lon="5.045458">
        <ele>67.64178</ele>
        <time>2021-06-30T19:45:40Z</time>
      </trkpt>
      <trkpt lat="43.900089" lon="5.045720">
        <ele>67.68579</ele>
        <time>2021-06-30T19:45:41Z</time>
      </trkpt>
      <trkpt lat="43.899826" lon="5.045953">
        <ele>67.33374</ele>
        <time>2021-06-30T19:45:42Z</time>
      </trkpt>
      <trkpt lat="43.899555" lon="5.046175">
        <ele>67.36298</ele>
        <time>2021-06-30T19:45:43Z</time>
      </trkpt>
      <trkpt lat="43.899292" lon="5.046347">
        <ele>67.88409</ele>
        <time>2021-06-30T19:45:44Z</time>
      </trkpt>
      <trkpt lat="43.899059" lon="5.046475">
        <ele>68.09668</ele>
        <time>2021-06-30T19:45:45Z</time>
      </trkpt>
      <trkpt lat="43.898853" lon="5.046546">
        <ele>66.92499</ele>
        <time>2021-06-30T19:45:46Z</time>
      </trkpt>
      <trkpt lat="43.898853" lon="5.046546">
        <ele>67.21191</ele>
        <time>2021-06-30T19:45:47Z</time>
      </trkpt>
      <trkpt lat="43.898651" lon="5.046622">
        <ele>67.26501</ele>
        <time>2021-06-30T19:45:48Z</time>
      </trkpt>
      <trkpt lat="43.898468" lon="5.046693">
        <ele>64.97365</ele>
        <time>2021-06-30T19:45:49Z</time>
      </trkpt>
      <trkpt lat="43.898270" lon="5.046769">
        <ele>64.75919</ele>
        <time>2021-06-30T19:45:50Z</time>
      </trkpt>
      <trkpt lat="43.898079" lon="5.046842">
        <ele>64.14621</ele>
        <time>2021-06-30T19:45:51Z</time>
      </trkpt>
      <trkpt lat="43.897903" lon="5.046894">
        <ele>63.13995</ele>
        <time>2021-06-30T19:45:52Z</time>
      </trkpt>
      <trkpt lat="43.897770" lon="5.046932">
        <ele>62.98859</ele>
        <time>2021-06-30T19:45:53Z</time>
      </trkpt>
      <trkpt lat="43.897648" lon="5.046966">
        <ele>62.93101</ele>
        <time>2021-06-30T19:45:54Z</time>
      </trkpt>
      <trkpt lat="43.897568" lon="5.046989">
        <ele>62.92151</ele>
        <time>2021-06-30T19:45:55Z</time>
      </trkpt>
      <trkpt lat="43.897461" lon="5.047006">
        <ele>62.97823</ele>
        <time>2021-06-30T19:45:56Z</time>
      </trkpt>
      <trkpt lat="43.897354" lon="5.047021">
        <ele>62.85392</ele>
        <time>2021-06-30T19:45:57Z</time>
      </trkpt>
      <trkpt lat="43.897247" lon="5.047032">
        <ele>62.75084</ele>
        <time>2021-06-30T19:45:58Z</time>
      </trkpt>
      <trkpt lat="43.897137" lon="5.046984">
        <ele>62.66550</ele>
        <time>2021-06-30T19:45:59Z</time>
      </trkpt>
      <trkpt lat="43.897053" lon="5.046906">
        <ele>62.21181</ele>
        <time>2021-06-30T19:46:00Z</time>
      </trkpt>
      <trkpt lat="43.897053" lon="5.046906">
        <ele>62.06436</ele>
        <time>2021-06-30T19:46:01Z</time>
      </trkpt>
      <trkpt lat="43.896969" lon="5.046903">
        <ele>62.51251</ele>
        <time>2021-06-30T19:46:02Z</time>
      </trkpt>
      <trkpt lat="43.896908" lon="5.046947">
        <ele>62.67690</ele>
        <time>2021-06-30T19:46:03Z</time>
      </trkpt>
      <trkpt lat="43.896851" lon="5.046987">
        <ele>62.91109</ele>
        <time>2021-06-30T19:46:04Z</time>
      </trkpt>
      <trkpt lat="43.896736" lon="5.047022">
        <ele>64.42951</ele>
        <time>2021-06-30T19:46:05Z</time>
      </trkpt>
      <trkpt lat="43.896603" lon="5.047002">
        <ele>64.83904</ele>
        <time>2021-06-30T19:46:06Z</time>
      </trkpt>
      <trkpt lat="43.896458" lon="5.046950">
        <ele>65.16187</ele>
        <time>2021-06-30T19:46:07Z</time>
      </trkpt>
      <trkpt lat="43.896248" lon="5.046868">
        <ele>65.95648</ele>
        <time>2021-06-30T19:46:08Z</time>
      </trkpt>
      <trkpt lat="43.896019" lon="5.046746">
        <ele>66.74377</ele>
        <time>2021-06-30T19:46:09Z</time>
      </trkpt>
      <trkpt lat="43.895836" lon="5.046644">
        <ele>67.01129</ele>
        <time>2021-06-30T19:46:10Z</time>
      </trkpt>
      <trkpt lat="43.895618" lon="5.046456">
        <ele>67.31720</ele>
        <time>2021-06-30T19:46:11Z</time>
      </trkpt>
      <trkpt lat="43.895370" lon="5.046202">
        <ele>67.39679</ele>
        <time>2021-06-30T19:46:12Z</time>
      </trkpt>
      <trkpt lat="43.895161" lon="5.045974">
        <ele>66.63550</ele>
        <time>2021-06-30T19:46:13Z</time>
      </trkpt>
      <trkpt lat="43.895161" lon="5.045974">
        <ele>66.64978</ele>
        <time>2021-06-30T19:46:14Z</time>
      </trkpt>
      <trkpt lat="43.894924" lon="5.045691">
        <ele>67.02673</ele>
        <time>2021-06-30T19:46:15Z</time>
      </trkpt>
      <trkpt lat="43.894711" lon="5.045406">
        <ele>67.06201</ele>
        <time>2021-06-30T19:46:16Z</time>
      </trkpt>
      <trkpt lat="43.894485" lon="5.045065">
        <ele>66.79053</ele>
        <time>2021-06-30T19:46:17Z</time>
      </trkpt>
      <trkpt lat="43.894318" lon="5.044811">
        <ele>66.78381</ele>
        <time>2021-06-30T19:46:18Z</time>
      </trkpt>
      <trkpt lat="43.894131" lon="5.044543">
        <ele>67.03802</ele>
        <time>2021-06-30T19:46:19Z</time>
      </trkpt>
      <trkpt lat="43.893902" lon="5.044262">
        <ele>67.04565</ele>
        <time>2021-06-30T19:46:20Z</time>
      </trkpt>
      <trkpt lat="43.893688" lon="5.044014">
        <ele>66.78394</ele>
        <time>2021-06-30T19:46:21Z</time>
      </trkpt>
      <trkpt lat="43.893456" lon="5.043799">
        <ele>66.53149</ele>
        <time>2021-06-30T19:46:22Z</time>
      </trkpt>
      <trkpt lat="43.893196" lon="5.043601">
        <ele>66.12714</ele>
        <time>2021-06-30T19:46:23Z</time>
      </trkpt>
      <trkpt lat="43.892857" lon="5.043384">
        <ele>65.53839</ele>
        <time>2021-06-30T19:46:24Z</time>
      </trkpt>
      <trkpt lat="43.892525" lon="5.043214">
        <ele>65.89587</ele>
        <time>2021-06-30T19:46:25Z</time>
      </trkpt>
      <trkpt lat="43.892193" lon="5.043063">
        <ele>65.62610</ele>
        <time>2021-06-30T19:46:26Z</time>
      </trkpt>
      <trkpt lat="43.891933" lon="5.042983">
        <ele>66.25891</ele>
        <time>2021-06-30T19:46:27Z</time>
      </trkpt>
      <trkpt lat="43.891933" lon="5.042983">
        <ele>66.30756</ele>
        <time>2021-06-30T19:46:28Z</time>
      </trkpt>
      <trkpt lat="43.891636" lon="5.042922">
        <ele>66.52197</ele>
        <time>2021-06-30T19:46:29Z</time>
      </trkpt>
      <trkpt lat="43.891342" lon="5.042877">
        <ele>66.06085</ele>
        <time>2021-06-30T19:46:30Z</time>
      </trkpt>
      <trkpt lat="43.891018" lon="5.042828">
        <ele>66.31555</ele>
        <time>2021-06-30T19:46:31Z</time>
      </trkpt>
      <trkpt lat="43.890781" lon="5.042792">
        <ele>65.85266</ele>
        <time>2021-06-30T19:46:32Z</time>
      </trkpt>
      <trkpt lat="43.890591" lon="5.042763">
        <ele>65.74890</ele>
        <time>2021-06-30T19:46:33Z</time>
      </trkpt>
      <trkpt lat="43.890381" lon="5.042731">
        <ele>65.67413</ele>
        <time>2021-06-30T19:46:34Z</time>
      </trkpt>
      <trkpt lat="43.890175" lon="5.042699">
        <ele>65.76282</ele>
        <time>2021-06-30T19:46:35Z</time>
      </trkpt>
      <trkpt lat="43.889977" lon="5.042658">
        <ele>65.68524</ele>
        <time>2021-06-30T19:46:36Z</time>
      </trkpt>
      <trkpt lat="43.889793" lon="5.042620">
        <ele>65.45746</ele>
        <time>2021-06-30T19:46:37Z</time>
      </trkpt>
      <trkpt lat="43.889599" lon="5.042581">
        <ele>63.16682</ele>
        <time>2021-06-30T19:46:38Z</time>
      </trkpt>
      <trkpt lat="43.889599" lon="5.042581">
        <ele>63.11011</ele>
        <time>2021-06-30T19:46:39Z</time>
      </trkpt>
      <trkpt lat="43.889404" lon="5.042540">
        <ele>63.24340</ele>
        <time>2021-06-30T19:46:40Z</time>
      </trkpt>
      <trkpt lat="43.889233" lon="5.042499">
        <ele>63.31039</ele>
        <time>2021-06-30T19:46:41Z</time>
      </trkpt>
      <trkpt lat="43.889038" lon="5.042451">
        <ele>63.45545</ele>
        <time>2021-06-30T19:46:42Z</time>
      </trkpt>
      <trkpt lat="43.888859" lon="5.042407">
        <ele>63.33500</ele>
        <time>2021-06-30T19:46:43Z</time>
      </trkpt>
      <trkpt lat="43.888672" lon="5.042354">
        <ele>63.25424</ele>
        <time>2021-06-30T19:46:44Z</time>
      </trkpt>
      <trkpt lat="43.888512" lon="5.042306">
        <ele>63.11574</ele>
        <time>2021-06-30T19:46:45Z</time>
      </trkpt>
      <trkpt lat="43.888332" lon="5.042253">
        <ele>63.06114</ele>
        <time>2021-06-30T19:46:46Z</time>
      </trkpt>
      <trkpt lat="43.888165" lon="5.042198">
        <ele>62.98132</ele>
        <time>2021-06-30T19:46:47Z</time>
      </trkpt>
      <trkpt lat="43.887993" lon="5.042140">
        <ele>62.97617</ele>
        <time>2021-06-30T19:46:48Z</time>
      </trkpt>
      <trkpt lat="43.887833" lon="5.042087">
        <ele>62.82255</ele>
        <time>2021-06-30T19:46:49Z</time>
      </trkpt>
      <trkpt lat="43.887672" lon="5.042033">
        <ele>62.40105</ele>
        <time>2021-06-30T19:46:50Z</time>
      </trkpt>
      <trkpt lat="43.887520" lon="5.041982">
        <ele>62.18587</ele>
        <time>2021-06-30T19:46:51Z</time>
      </trkpt>
      <trkpt lat="43.887356" lon="5.041928">
        <ele>61.98334</ele>
        <time>2021-06-30T19:46:52Z</time>
      </trkpt>
      <trkpt lat="43.887238" lon="5.041888">
        <ele>61.94598</ele>
        <time>2021-06-30T19:46:53Z</time>
      </trkpt>
      <trkpt lat="43.887238" lon="5.041888">
        <ele>61.97355</ele>
        <time>2021-06-30T19:46:54Z</time>
      </trkpt>
      <trkpt lat="43.887115" lon="5.041850">
        <ele>62.15920</ele>
        <time>2021-06-30T19:46:55Z</time>
      </trkpt>
      <trkpt lat="43.887016" lon="5.041817">
        <ele>62.00433</ele>
        <time>2021-06-30T19:46:56Z</time>
      </trkpt>
      <trkpt lat="43.886986" lon="5.041652">
        <ele>62.12770</ele>
        <time>2021-06-30T19:46:57Z</time>
      </trkpt>
      <trkpt lat="43.886902" lon="5.041470">
        <ele>62.32015</ele>
        <time>2021-06-30T19:46:58Z</time>
      </trkpt>
      <trkpt lat="43.886753" lon="5.041698">
        <ele>62.93802</ele>
        <time>2021-06-30T19:46:59Z</time>
      </trkpt>
      <trkpt lat="43.886749" lon="5.041835">
        <ele>63.79955</ele>
        <time>2021-06-30T19:47:00Z</time>
      </trkpt>
      <trkpt lat="43.886463" lon="5.041692">
        <ele>64.11111</ele>
        <time>2021-06-30T19:47:01Z</time>
      </trkpt>
      <trkpt lat="43.886292" lon="5.041658">
        <ele>64.79468</ele>
        <time>2021-06-30T19:47:02Z</time>
      </trkpt>
      <trkpt lat="43.886055" lon="5.041610">
        <ele>64.97150</ele>
        <time>2021-06-30T19:47:03Z</time>
      </trkpt>
      <trkpt lat="43.885818" lon="5.041563">
        <ele>65.47894</ele>
        <time>2021-06-30T19:47:04Z</time>
      </trkpt>
      <trkpt lat="43.885586" lon="5.041516">
        <ele>65.27454</ele>
        <time>2021-06-30T19:47:05Z</time>
      </trkpt>
      <trkpt lat="43.885365" lon="5.041468">
        <ele>65.27008</ele>
        <time>2021-06-30T19:47:06Z</time>
      </trkpt>
      <trkpt lat="43.885113" lon="5.041408">
        <ele>65.30090</ele>
        <time>2021-06-30T19:47:07Z</time>
      </trkpt>
      <trkpt lat="43.884884" lon="5.041354">
        <ele>64.58148</ele>
        <time>2021-06-30T19:47:08Z</time>
      </trkpt>
      <trkpt lat="43.884659" lon="5.041286">
        <ele>65.26398</ele>
        <time>2021-06-30T19:47:09Z</time>
      </trkpt>
      <trkpt lat="43.884659" lon="5.041286">
        <ele>65.31940</ele>
        <time>2021-06-30T19:47:10Z</time>
      </trkpt>
      <trkpt lat="43.884407" lon="5.041202">
        <ele>61.94885</ele>
        <time>2021-06-30T19:47:11Z</time>
      </trkpt>
      <trkpt lat="43.884148" lon="5.041105">
        <ele>62.02490</ele>
        <time>2021-06-30T19:47:12Z</time>
      </trkpt>
      <trkpt lat="43.883862" lon="5.040957">
        <ele>62.73499</ele>
        <time>2021-06-30T19:47:13Z</time>
      </trkpt>
      <trkpt lat="43.883659" lon="5.040856">
        <ele>62.42444</ele>
        <time>2021-06-30T19:47:14Z</time>
      </trkpt>
      <trkpt lat="43.883392" lon="5.040727">
        <ele>63.17041</ele>
        <time>2021-06-30T19:47:15Z</time>
      </trkpt>
      <trkpt lat="43.883129" lon="5.040579">
        <ele>63.33734</ele>
        <time>2021-06-30T19:47:16Z</time>
      </trkpt>
      <trkpt lat="43.882938" lon="5.040463">
        <ele>63.28259</ele>
        <time>2021-06-30T19:47:17Z</time>
      </trkpt>
      <trkpt lat="43.882771" lon="5.040360">
        <ele>64.48376</ele>
        <time>2021-06-30T19:47:18Z</time>
      </trkpt>
      <trkpt lat="43.882614" lon="5.040259">
        <ele>65.22638</ele>
        <time>2021-06-30T19:47:19Z</time>
      </trkpt>
      <trkpt lat="43.882416" lon="5.040138">
        <ele>63.87439</ele>
        <time>2021-06-30T19:47:20Z</time>
      </trkpt>
      <trkpt lat="43.882202" lon="5.040007">
        <ele>63.61572</ele>
        <time>2021-06-30T19:47:21Z</time>
      </trkpt>
      <trkpt lat="43.882202" lon="5.040007">
        <ele>63.84595</ele>
        <time>2021-06-30T19:47:22Z</time>
      </trkpt>
      <trkpt lat="43.882015" lon="5.039893">
        <ele>65.31885</ele>
        <time>2021-06-30T19:47:23Z</time>
      </trkpt>
      <trkpt lat="43.881832" lon="5.039779">
        <ele>65.40393</ele>
        <time>2021-06-30T19:47:24Z</time>
      </trkpt>
      <trkpt lat="43.881645" lon="5.039666">
        <ele>65.78406</ele>
        <time>2021-06-30T19:47:25Z</time>
      </trkpt>
      <trkpt lat="43.881458" lon="5.039549">
        <ele>65.81000</ele>
        <time>2021-06-30T19:47:26Z</time>
      </trkpt>
      <trkpt lat="43.881264" lon="5.039431">
        <ele>66.39801</ele>
        <time>2021-06-30T19:47:27Z</time>
      </trkpt>
      <trkpt lat="43.881073" lon="5.039315">
        <ele>66.74310</ele>
        <time>2021-06-30T19:47:28Z</time>
      </trkpt>
      <trkpt lat="43.880833" lon="5.039204">
        <ele>67.31085</ele>
        <time>2021-06-30T19:47:29Z</time>
      </trkpt>
      <trkpt lat="43.880619" lon="5.039132">
        <ele>67.30109</ele>
        <time>2021-06-30T19:47:30Z</time>
      </trkpt>
      <trkpt lat="43.880379" lon="5.039082">
        <ele>67.06036</ele>
        <time>2021-06-30T19:47:31Z</time>
      </trkpt>
      <trkpt lat="43.880146" lon="5.039050">
        <ele>68.54883</ele>
        <time>2021-06-30T19:47:32Z</time>
      </trkpt>
      <trkpt lat="43.879948" lon="5.039041">
        <ele>68.44684</ele>
        <time>2021-06-30T19:47:33Z</time>
      </trkpt>
      <trkpt lat="43.879948" lon="5.039041">
        <ele>69.49445</ele>
        <time>2021-06-30T19:47:34Z</time>
      </trkpt>
      <trkpt lat="43.879719" lon="5.039033">
        <ele>69.79510</ele>
        <time>2021-06-30T19:47:35Z</time>
      </trkpt>
      <trkpt lat="43.879513" lon="5.039036">
        <ele>69.63611</ele>
        <time>2021-06-30T19:47:36Z</time>
      </trkpt>
      <trkpt lat="43.879314" lon="5.039002">
        <ele>70.22241</ele>
        <time>2021-06-30T19:47:37Z</time>
      </trkpt>
      <trkpt lat="43.879143" lon="5.039010">
        <ele>69.15741</ele>
        <time>2021-06-30T19:47:38Z</time>
      </trkpt>
      <trkpt lat="43.878944" lon="5.039022">
        <ele>69.84265</ele>
        <time>2021-06-30T19:47:39Z</time>
      </trkpt>
      <trkpt lat="43.878693" lon="5.039036">
        <ele>70.43433</ele>
        <time>2021-06-30T19:47:40Z</time>
      </trkpt>
      <trkpt lat="43.878517" lon="5.039044">
        <ele>70.74774</ele>
        <time>2021-06-30T19:47:41Z</time>
      </trkpt>
      <trkpt lat="43.878304" lon="5.039055">
        <ele>71.25256</ele>
        <time>2021-06-30T19:47:42Z</time>
      </trkpt>
      <trkpt lat="43.878101" lon="5.039065">
        <ele>72.04987</ele>
        <time>2021-06-30T19:47:43Z</time>
      </trkpt>
      <trkpt lat="43.877911" lon="5.039074">
        <ele>72.55890</ele>
        <time>2021-06-30T19:47:44Z</time>
      </trkpt>
      <trkpt lat="43.877724" lon="5.039078">
        <ele>72.43451</ele>
        <time>2021-06-30T19:47:45Z</time>
      </trkpt>
      <trkpt lat="43.877533" lon="5.039083">
        <ele>72.01080</ele>
        <time>2021-06-30T19:47:46Z</time>
      </trkpt>
      <trkpt lat="43.877331" lon="5.039094">
        <ele>71.42828</ele>
        <time>2021-06-30T19:47:47Z</time>
      </trkpt>
      <trkpt lat="43.877331" lon="5.039094">
        <ele>72.94373</ele>
        <time>2021-06-30T19:47:48Z</time>
      </trkpt>
      <trkpt lat="43.877125" lon="5.039110">
        <ele>73.70508</ele>
        <time>2021-06-30T19:47:49Z</time>
      </trkpt>
      <trkpt lat="43.876934" lon="5.039125">
        <ele>74.56451</ele>
        <time>2021-06-30T19:47:50Z</time>
      </trkpt>
      <trkpt lat="43.876743" lon="5.039141">
        <ele>75.75232</ele>
        <time>2021-06-30T19:47:51Z</time>
      </trkpt>
      <trkpt lat="43.876553" lon="5.039162">
        <ele>75.73248</ele>
        <time>2021-06-30T19:47:52Z</time>
      </trkpt>
      <trkpt lat="43.876347" lon="5.039207">
        <ele>75.80560</ele>
        <time>2021-06-30T19:47:53Z</time>
      </trkpt>
      <trkpt lat="43.876144" lon="5.039249">
        <ele>75.50671</ele>
        <time>2021-06-30T19:47:54Z</time>
      </trkpt>
      <trkpt lat="43.875950" lon="5.039290">
        <ele>74.06580</ele>
        <time>2021-06-30T19:47:55Z</time>
      </trkpt>
      <trkpt lat="43.875725" lon="5.039367">
        <ele>72.17358</ele>
        <time>2021-06-30T19:47:56Z</time>
      </trkpt>
      <trkpt lat="43.875484" lon="5.039429">
        <ele>71.54712</ele>
        <time>2021-06-30T19:47:57Z</time>
      </trkpt>
      <trkpt lat="43.875244" lon="5.039491">
        <ele>70.39899</ele>
        <time>2021-06-30T19:47:58Z</time>
      </trkpt>
      <trkpt lat="43.875011" lon="5.039550">
        <ele>69.58228</ele>
        <time>2021-06-30T19:47:59Z</time>
      </trkpt>
      <trkpt lat="43.875011" lon="5.039550">
        <ele>68.46417</ele>
        <time>2021-06-30T19:48:00Z</time>
      </trkpt>
      <trkpt lat="43.874763" lon="5.039615">
        <ele>68.10083</ele>
        <time>2021-06-30T19:48:01Z</time>
      </trkpt>
      <trkpt lat="43.874496" lon="5.039687">
        <ele>67.75568</ele>
        <time>2021-06-30T19:48:02Z</time>
      </trkpt>
      <trkpt lat="43.874313" lon="5.039732">
        <ele>65.88416</ele>
        <time>2021-06-30T19:48:03Z</time>
      </trkpt>
      <trkpt lat="43.874107" lon="5.039783">
        <ele>66.79822</ele>
        <time>2021-06-30T19:48:04Z</time>
      </trkpt>
      <trkpt lat="43.873909" lon="5.039832">
        <ele>65.65576</ele>
        <time>2021-06-30T19:48:05Z</time>
      </trkpt>
      <trkpt lat="43.873699" lon="5.039888">
        <ele>65.56683</ele>
        <time>2021-06-30T19:48:06Z</time>
      </trkpt>
      <trkpt lat="43.873486" lon="5.039963">
        <ele>65.91815</ele>
        <time>2021-06-30T19:48:07Z</time>
      </trkpt>
      <trkpt lat="43.873295" lon="5.040030">
        <ele>65.47992</ele>
        <time>2021-06-30T19:48:08Z</time>
      </trkpt>
      <trkpt lat="43.873089" lon="5.040102">
        <ele>64.71008</ele>
        <time>2021-06-30T19:48:09Z</time>
      </trkpt>
      <trkpt lat="43.872898" lon="5.040162">
        <ele>64.47107</ele>
        <time>2021-06-30T19:48:10Z</time>
      </trkpt>
      <trkpt lat="43.872711" lon="5.040221">
        <ele>64.09973</ele>
        <time>2021-06-30T19:48:11Z</time>
      </trkpt>
      <trkpt lat="43.872540" lon="5.040285">
        <ele>64.69568</ele>
        <time>2021-06-30T19:48:12Z</time>
      </trkpt>
      <trkpt lat="43.872360" lon="5.040350">
        <ele>64.77094</ele>
        <time>2021-06-30T19:48:13Z</time>
      </trkpt>
      <trkpt lat="43.872166" lon="5.040421">
        <ele>65.02118</ele>
        <time>2021-06-30T19:48:14Z</time>
      </trkpt>
      <trkpt lat="43.871956" lon="5.040493">
        <ele>64.79022</ele>
        <time>2021-06-30T19:48:15Z</time>
      </trkpt>
      <trkpt lat="43.871750" lon="5.040567">
        <ele>65.21698</ele>
        <time>2021-06-30T19:48:16Z</time>
      </trkpt>
      <trkpt lat="43.871750" lon="5.040567">
        <ele>65.76929</ele>
        <time>2021-06-30T19:48:17Z</time>
      </trkpt>
      <trkpt lat="43.871529" lon="5.040653">
        <ele>65.86084</ele>
        <time>2021-06-30T19:48:18Z</time>
      </trkpt>
      <trkpt lat="43.871315" lon="5.040738">
        <ele>64.34027</ele>
        <time>2021-06-30T19:48:19Z</time>
      </trkpt>
      <trkpt lat="43.871120" lon="5.040815">
        <ele>65.38965</ele>
        <time>2021-06-30T19:48:20Z</time>
      </trkpt>
      <trkpt lat="43.870907" lon="5.040900">
        <ele>66.19165</ele>
        <time>2021-06-30T19:48:21Z</time>
      </trkpt>
      <trkpt lat="43.870705" lon="5.040978">
        <ele>66.40649</ele>
        <time>2021-06-30T19:48:22Z</time>
      </trkpt>
      <trkpt lat="43.870502" lon="5.041059">
        <ele>66.82269</ele>
        <time>2021-06-30T19:48:23Z</time>
      </trkpt>
      <trkpt lat="43.870293" lon="5.041144">
        <ele>66.50385</ele>
        <time>2021-06-30T19:48:24Z</time>
      </trkpt>
      <trkpt lat="43.870075" lon="5.041230">
        <ele>68.05029</ele>
        <time>2021-06-30T19:48:25Z</time>
      </trkpt>
      <trkpt lat="43.869846" lon="5.041334">
        <ele>68.55634</ele>
        <time>2021-06-30T19:48:26Z</time>
      </trkpt>
      <trkpt lat="43.869610" lon="5.041445">
        <ele>67.76208</ele>
        <time>2021-06-30T19:48:27Z</time>
      </trkpt>
      <trkpt lat="43.869358" lon="5.041575">
        <ele>69.14868</ele>
        <time>2021-06-30T19:48:28Z</time>
      </trkpt>
      <trkpt lat="43.869141" lon="5.041691">
        <ele>68.94653</ele>
        <time>2021-06-30T19:48:29Z</time>
      </trkpt>
      <trkpt lat="43.869141" lon="5.041691">
        <ele>69.80823</ele>
        <time>2021-06-30T19:48:30Z</time>
      </trkpt>
      <trkpt lat="43.868927" lon="5.041795">
        <ele>68.28229</ele>
        <time>2021-06-30T19:48:31Z</time>
      </trkpt>
      <trkpt lat="43.868687" lon="5.041909">
        <ele>68.45508</ele>
        <time>2021-06-30T19:48:32Z</time>
      </trkpt>
      <trkpt lat="43.868462" lon="5.042026">
        <ele>69.13391</ele>
        <time>2021-06-30T19:48:33Z</time>
      </trkpt>
      <trkpt lat="43.868217" lon="5.042156">
        <ele>69.39514</ele>
        <time>2021-06-30T19:48:34Z</time>
      </trkpt>
      <trkpt lat="43.868038" lon="5.042252">
        <ele>69.12549</ele>
        <time>2021-06-30T19:48:35Z</time>
      </trkpt>
      <trkpt lat="43.867794" lon="5.042379">
        <ele>68.87012</ele>
        <time>2021-06-30T19:48:36Z</time>
      </trkpt>
      <trkpt lat="43.867592" lon="5.042482">
        <ele>69.53876</ele>
        <time>2021-06-30T19:48:37Z</time>
      </trkpt>
      <trkpt lat="43.867405" lon="5.042577">
        <ele>69.97302</ele>
        <time>2021-06-30T19:48:38Z</time>
      </trkpt>
      <trkpt lat="43.867199" lon="5.042682">
        <ele>70.77258</ele>
        <time>2021-06-30T19:48:39Z</time>
      </trkpt>
      <trkpt lat="43.867027" lon="5.042768">
        <ele>71.72144</ele>
        <time>2021-06-30T19:48:40Z</time>
      </trkpt>
      <trkpt lat="43.866825" lon="5.042871">
        <ele>71.75220</ele>
        <time>2021-06-30T19:48:41Z</time>
      </trkpt>
      <trkpt lat="43.866631" lon="5.042969">
        <ele>71.99640</ele>
        <time>2021-06-30T19:48:42Z</time>
      </trkpt>
      <trkpt lat="43.866413" lon="5.043075">
        <ele>72.41736</ele>
        <time>2021-06-30T19:48:43Z</time>
      </trkpt>
      <trkpt lat="43.866158" lon="5.043179">
        <ele>72.11310</ele>
        <time>2021-06-30T19:48:44Z</time>
      </trkpt>
      <trkpt lat="43.865871" lon="5.043268">
        <ele>71.80408</ele>
        <time>2021-06-30T19:48:45Z</time>
      </trkpt>
      <trkpt lat="43.865871" lon="5.043268">
        <ele>70.77441</ele>
        <time>2021-06-30T19:48:46Z</time>
      </trkpt>
      <trkpt lat="43.865589" lon="5.043322">
        <ele>70.83868</ele>
        <time>2021-06-30T19:48:47Z</time>
      </trkpt>
      <trkpt lat="43.865349" lon="5.043354">
        <ele>69.85510</ele>
        <time>2021-06-30T19:48:48Z</time>
      </trkpt>
      <trkpt lat="43.865105" lon="5.043369">
        <ele>69.78094</ele>
        <time>2021-06-30T19:48:49Z</time>
      </trkpt>
      <trkpt lat="43.864853" lon="5.043361">
        <ele>69.84851</ele>
        <time>2021-06-30T19:48:50Z</time>
      </trkpt>
      <trkpt lat="43.864582" lon="5.043337">
        <ele>69.69312</ele>
        <time>2021-06-30T19:48:51Z</time>
      </trkpt>
      <trkpt lat="43.864349" lon="5.043300">
        <ele>70.06317</ele>
        <time>2021-06-30T19:48:52Z</time>
      </trkpt>
      <trkpt lat="43.864059" lon="5.043227">
        <ele>70.44922</ele>
        <time>2021-06-30T19:48:53Z</time>
      </trkpt>
      <trkpt lat="43.863815" lon="5.043152">
        <ele>67.80524</ele>
        <time>2021-06-30T19:48:54Z</time>
      </trkpt>
      <trkpt lat="43.863575" lon="5.043055">
        <ele>68.10400</ele>
        <time>2021-06-30T19:48:55Z</time>
      </trkpt>
      <trkpt lat="43.863365" lon="5.042959">
        <ele>67.95740</ele>
        <time>2021-06-30T19:48:56Z</time>
      </trkpt>
      <trkpt lat="43.863037" lon="5.042811">
        <ele>68.02191</ele>
        <time>2021-06-30T19:48:57Z</time>
      </trkpt>
      <trkpt lat="43.862774" lon="5.042690">
        <ele>67.02783</ele>
        <time>2021-06-30T19:48:58Z</time>
      </trkpt>
      <trkpt lat="43.862503" lon="5.042567">
        <ele>66.40540</ele>
        <time>2021-06-30T19:48:59Z</time>
      </trkpt>
      <trkpt lat="43.862503" lon="5.042567">
        <ele>67.00305</ele>
        <time>2021-06-30T19:49:00Z</time>
      </trkpt>
      <trkpt lat="43.862247" lon="5.042451">
        <ele>66.17004</ele>
        <time>2021-06-30T19:49:01Z</time>
      </trkpt>
      <trkpt lat="43.861996" lon="5.042335">
        <ele>66.22046</ele>
        <time>2021-06-30T19:49:02Z</time>
      </trkpt>
      <trkpt lat="43.861771" lon="5.042228">
        <ele>67.15735</ele>
        <time>2021-06-30T19:49:03Z</time>
      </trkpt>
      <trkpt lat="43.861588" lon="5.042141">
        <ele>67.25238</ele>
        <time>2021-06-30T19:49:04Z</time>
      </trkpt>
      <trkpt lat="43.861355" lon="5.042032">
        <ele>66.83508</ele>
        <time>2021-06-30T19:49:05Z</time>
      </trkpt>
      <trkpt lat="43.861202" lon="5.041960">
        <ele>65.81439</ele>
        <time>2021-06-30T19:49:06Z</time>
      </trkpt>
      <trkpt lat="43.860989" lon="5.041859">
        <ele>65.05585</ele>
        <time>2021-06-30T19:49:07Z</time>
      </trkpt>
      <trkpt lat="43.860813" lon="5.041777">
        <ele>62.89575</ele>
        <time>2021-06-30T19:49:08Z</time>
      </trkpt>
      <trkpt lat="43.860653" lon="5.041702">
        <ele>63.36432</ele>
        <time>2021-06-30T19:49:09Z</time>
      </trkpt>
      <trkpt lat="43.860477" lon="5.041619">
        <ele>63.60431</ele>
        <time>2021-06-30T19:49:10Z</time>
      </trkpt>
      <trkpt lat="43.860291" lon="5.041532">
        <ele>64.01447</ele>
        <time>2021-06-30T19:49:11Z</time>
      </trkpt>
      <trkpt lat="43.860104" lon="5.041442">
        <ele>64.46338</ele>
        <time>2021-06-30T19:49:12Z</time>
      </trkpt>
      <trkpt lat="43.859909" lon="5.041356">
        <ele>64.98029</ele>
        <time>2021-06-30T19:49:13Z</time>
      </trkpt>
      <trkpt lat="43.859909" lon="5.041356">
        <ele>62.88916</ele>
        <time>2021-06-30T19:49:14Z</time>
      </trkpt>
      <trkpt lat="43.859715" lon="5.041272">
        <ele>62.92316</ele>
        <time>2021-06-30T19:49:15Z</time>
      </trkpt>
      <trkpt lat="43.859524" lon="5.041189">
        <ele>60.08984</ele>
        <time>2021-06-30T19:49:16Z</time>
      </trkpt>
      <trkpt lat="43.859318" lon="5.041099">
        <ele>59.87848</ele>
        <time>2021-06-30T19:49:17Z</time>
      </trkpt>
      <trkpt lat="43.859112" lon="5.041009">
        <ele>60.79095</ele>
        <time>2021-06-30T19:49:18Z</time>
      </trkpt>
      <trkpt lat="43.858925" lon="5.040928">
        <ele>60.27655</ele>
        <time>2021-06-30T19:49:19Z</time>
      </trkpt>
      <trkpt lat="43.858719" lon="5.040840">
        <ele>61.04700</ele>
        <time>2021-06-30T19:49:20Z</time>
      </trkpt>
      <trkpt lat="43.858482" lon="5.040738">
        <ele>59.76123</ele>
        <time>2021-06-30T19:49:21Z</time>
      </trkpt>
      <trkpt lat="43.858311" lon="5.040662">
        <ele>59.10431</ele>
        <time>2021-06-30T19:49:22Z</time>
      </trkpt>
      <trkpt lat="43.858109" lon="5.040574">
        <ele>59.52808</ele>
        <time>2021-06-30T19:49:23Z</time>
      </trkpt>
      <trkpt lat="43.857906" lon="5.040487">
        <ele>60.14276</ele>
        <time>2021-06-30T19:49:24Z</time>
      </trkpt>
      <trkpt lat="43.857700" lon="5.040399">
        <ele>58.54669</ele>
        <time>2021-06-30T19:49:25Z</time>
      </trkpt>
      <trkpt lat="43.857517" lon="5.040320">
        <ele>57.98608</ele>
        <time>2021-06-30T19:49:26Z</time>
      </trkpt>
      <trkpt lat="43.857349" lon="5.040248">
        <ele>58.94476</ele>
        <time>2021-06-30T19:49:27Z</time>
      </trkpt>
      <trkpt lat="43.857349" lon="5.040248">
        <ele>58.49780</ele>
        <time>2021-06-30T19:49:28Z</time>
      </trkpt>
      <trkpt lat="43.857143" lon="5.040157">
        <ele>60.01849</ele>
        <time>2021-06-30T19:49:29Z</time>
      </trkpt>
      <trkpt lat="43.856930" lon="5.040063">
        <ele>60.34692</ele>
        <time>2021-06-30T19:49:30Z</time>
      </trkpt>
      <trkpt lat="43.856750" lon="5.039982">
        <ele>60.68793</ele>
        <time>2021-06-30T19:49:31Z</time>
      </trkpt>
      <trkpt lat="43.856537" lon="5.039887">
        <ele>59.47595</ele>
        <time>2021-06-30T19:49:32Z</time>
      </trkpt>
      <trkpt lat="43.856339" lon="5.039809">
        <ele>59.86603</ele>
        <time>2021-06-30T19:49:33Z</time>
      </trkpt>
      <trkpt lat="43.856140" lon="5.039732">
        <ele>60.01862</ele>
        <time>2021-06-30T19:49:34Z</time>
      </trkpt>
      <trkpt lat="43.855995" lon="5.039676">
        <ele>61.25507</ele>
        <time>2021-06-30T19:49:35Z</time>
      </trkpt>
      <trkpt lat="43.855846" lon="5.039617">
        <ele>62.26953</ele>
        <time>2021-06-30T19:49:36Z</time>
      </trkpt>
      <trkpt lat="43.855705" lon="5.039550">
        <ele>61.67834</ele>
        <time>2021-06-30T19:49:37Z</time>
      </trkpt>
      <trkpt lat="43.855553" lon="5.039443">
        <ele>61.72864</ele>
        <time>2021-06-30T19:49:38Z</time>
      </trkpt>
      <trkpt lat="43.855427" lon="5.039377">
        <ele>62.57477</ele>
        <time>2021-06-30T19:49:39Z</time>
      </trkpt>
      <trkpt lat="43.855305" lon="5.039291">
        <ele>62.82770</ele>
        <time>2021-06-30T19:49:40Z</time>
      </trkpt>
      <trkpt lat="43.855305" lon="5.039291">
        <ele>62.35522</ele>
        <time>2021-06-30T19:49:41Z</time>
      </trkpt>
      <trkpt lat="43.855106" lon="5.039146">
        <ele>62.72760</ele>
        <time>2021-06-30T19:49:42Z</time>
      </trkpt>
      <trkpt lat="43.854958" lon="5.039025">
        <ele>63.71045</ele>
        <time>2021-06-30T19:49:43Z</time>
      </trkpt>
      <trkpt lat="43.854828" lon="5.038885">
        <ele>64.50018</ele>
        <time>2021-06-30T19:49:44Z</time>
      </trkpt>
      <trkpt lat="43.854679" lon="5.038707">
        <ele>64.87427</ele>
        <time>2021-06-30T19:49:45Z</time>
      </trkpt>
      <trkpt lat="43.854568" lon="5.038550">
        <ele>65.43231</ele>
        <time>2021-06-30T19:49:46Z</time>
      </trkpt>
      <trkpt lat="43.854492" lon="5.038458">
        <ele>65.93860</ele>
        <time>2021-06-30T19:49:47Z</time>
      </trkpt>
      <trkpt lat="43.854408" lon="5.038359">
        <ele>66.38336</ele>
        <time>2021-06-30T19:49:48Z</time>
      </trkpt>
      <trkpt lat="43.854267" lon="5.038137">
        <ele>68.16638</ele>
        <time>2021-06-30T19:49:49Z</time>
      </trkpt>
      <trkpt lat="43.854111" lon="5.037947">
        <ele>68.37585</ele>
        <time>2021-06-30T19:49:50Z</time>
      </trkpt>
      <trkpt lat="43.853966" lon="5.037751">
        <ele>68.84137</ele>
        <time>2021-06-30T19:49:51Z</time>
      </trkpt>
      <trkpt lat="43.853966" lon="5.037751">
        <ele>69.88403</ele>
        <time>2021-06-30T19:49:52Z</time>
      </trkpt>
      <trkpt lat="43.853844" lon="5.037588">
        <ele>70.02448</ele>
        <time>2021-06-30T19:49:53Z</time>
      </trkpt>
      <trkpt lat="43.853725" lon="5.037430">
        <ele>69.95319</ele>
        <time>2021-06-30T19:49:54Z</time>
      </trkpt>
      <trkpt lat="43.853607" lon="5.037273">
        <ele>69.10608</ele>
        <time>2021-06-30T19:49:55Z</time>
      </trkpt>
      <trkpt lat="43.853497" lon="5.037125">
        <ele>70.35126</ele>
        <time>2021-06-30T19:49:56Z</time>
      </trkpt>
      <trkpt lat="43.853397" lon="5.037011">
        <ele>69.57410</ele>
        <time>2021-06-30T19:49:57Z</time>
      </trkpt>
      <trkpt lat="43.853336" lon="5.036950">
        <ele>68.11694</ele>
        <time>2021-06-30T19:49:58Z</time>
      </trkpt>
      <trkpt lat="43.853279" lon="5.036878">
        <ele>67.40845</ele>
        <time>2021-06-30T19:49:59Z</time>
      </trkpt>
      <trkpt lat="43.853310" lon="5.036615">
        <ele>68.09210</ele>
        <time>2021-06-30T19:50:00Z</time>
      </trkpt>
      <trkpt lat="43.853306" lon="5.036422">
        <ele>68.27826</ele>
        <time>2021-06-30T19:50:01Z</time>
      </trkpt>
      <trkpt lat="43.853306" lon="5.036422">
        <ele>69.13794</ele>
        <time>2021-06-30T19:50:02Z</time>
      </trkpt>
      <trkpt lat="43.853367" lon="5.036243">
        <ele>69.02191</ele>
        <time>2021-06-30T19:50:03Z</time>
      </trkpt>
      <trkpt lat="43.853451" lon="5.035985">
        <ele>69.30078</ele>
        <time>2021-06-30T19:50:04Z</time>
      </trkpt>
      <trkpt lat="43.853485" lon="5.035716">
        <ele>69.58179</ele>
        <time>2021-06-30T19:50:05Z</time>
      </trkpt>
      <trkpt lat="43.853477" lon="5.035452">
        <ele>68.62421</ele>
        <time>2021-06-30T19:50:06Z</time>
      </trkpt>
      <trkpt lat="43.853470" lon="5.035204">
        <ele>69.13007</ele>
        <time>2021-06-30T19:50:07Z</time>
      </trkpt>
      <trkpt lat="43.853455" lon="5.034947">
        <ele>68.74805</ele>
        <time>2021-06-30T19:50:08Z</time>
      </trkpt>
      <trkpt lat="43.853436" lon="5.034637">
        <ele>67.42096</ele>
        <time>2021-06-30T19:50:09Z</time>
      </trkpt>
      <trkpt lat="43.853451" lon="5.034346">
        <ele>66.95166</ele>
        <time>2021-06-30T19:50:10Z</time>
      </trkpt>
      <trkpt lat="43.853462" lon="5.034050">
        <ele>66.24609</ele>
        <time>2021-06-30T19:50:11Z</time>
      </trkpt>
      <trkpt lat="43.853470" lon="5.033764">
        <ele>66.69153</ele>
        <time>2021-06-30T19:50:12Z</time>
      </trkpt>
      <trkpt lat="43.853493" lon="5.033510">
        <ele>66.90167</ele>
        <time>2021-06-30T19:50:13Z</time>
      </trkpt>
      <trkpt lat="43.853519" lon="5.033250">
        <ele>65.86700</ele>
        <time>2021-06-30T19:50:14Z</time>
      </trkpt>
      <trkpt lat="43.853546" lon="5.033011">
        <ele>66.88361</ele>
        <time>2021-06-30T19:50:15Z</time>
      </trkpt>
      <trkpt lat="43.853577" lon="5.032743">
        <ele>65.77435</ele>
        <time>2021-06-30T19:50:16Z</time>
      </trkpt>
      <trkpt lat="43.853577" lon="5.032743">
        <ele>64.87378</ele>
        <time>2021-06-30T19:50:17Z</time>
      </trkpt>
      <trkpt lat="43.853607" lon="5.032449">
        <ele>64.77643</ele>
        <time>2021-06-30T19:50:18Z</time>
      </trkpt>
      <trkpt lat="43.853638" lon="5.032197">
        <ele>64.26141</ele>
        <time>2021-06-30T19:50:19Z</time>
      </trkpt>
      <trkpt lat="43.853687" lon="5.031860">
        <ele>63.20740</ele>
        <time>2021-06-30T19:50:20Z</time>
      </trkpt>
      <trkpt lat="43.853733" lon="5.031545">
        <ele>62.61664</ele>
        <time>2021-06-30T19:50:21Z</time>
      </trkpt>
      <trkpt lat="43.853779" lon="5.031233">
        <ele>63.16998</ele>
        <time>2021-06-30T19:50:22Z</time>
      </trkpt>
      <trkpt lat="43.853809" lon="5.030951">
        <ele>63.19037</ele>
        <time>2021-06-30T19:50:23Z</time>
      </trkpt>
      <trkpt lat="43.853806" lon="5.030607">
        <ele>63.87604</ele>
        <time>2021-06-30T19:50:24Z</time>
      </trkpt>
      <trkpt lat="43.853844" lon="5.030301">
        <ele>64.36633</ele>
        <time>2021-06-30T19:50:25Z</time>
      </trkpt>
      <trkpt lat="43.853878" lon="5.030007">
        <ele>64.74426</ele>
        <time>2021-06-30T19:50:26Z</time>
      </trkpt>
      <trkpt lat="43.853924" lon="5.029719">
        <ele>64.56134</ele>
        <time>2021-06-30T19:50:27Z</time>
      </trkpt>
      <trkpt lat="43.853970" lon="5.029436">
        <ele>64.78613</ele>
        <time>2021-06-30T19:50:28Z</time>
      </trkpt>
      <trkpt lat="43.854019" lon="5.029150">
        <ele>66.21918</ele>
        <time>2021-06-30T19:50:29Z</time>
      </trkpt>
      <trkpt lat="43.854057" lon="5.028878">
        <ele>65.92822</ele>
        <time>2021-06-30T19:50:30Z</time>
      </trkpt>
      <trkpt lat="43.854080" lon="5.028674">
        <ele>65.75348</ele>
        <time>2021-06-30T19:50:31Z</time>
      </trkpt>
      <trkpt lat="43.854080" lon="5.028674">
        <ele>65.52148</ele>
        <time>2021-06-30T19:50:32Z</time>
      </trkpt>
      <trkpt lat="43.854115" lon="5.028394">
        <ele>65.99976</ele>
        <time>2021-06-30T19:50:33Z</time>
      </trkpt>
      <trkpt lat="43.854130" lon="5.028145">
        <ele>66.32251</ele>
        <time>2021-06-30T19:50:34Z</time>
      </trkpt>
      <trkpt lat="43.854137" lon="5.027893">
        <ele>66.51758</ele>
        <time>2021-06-30T19:50:35Z</time>
      </trkpt>
      <trkpt lat="43.854122" lon="5.027638">
        <ele>66.18829</ele>
        <time>2021-06-30T19:50:36Z</time>
      </trkpt>
      <trkpt lat="43.854088" lon="5.027413">
        <ele>66.07343</ele>
        <time>2021-06-30T19:50:37Z</time>
      </trkpt>
      <trkpt lat="43.854038" lon="5.027199">
        <ele>66.00037</ele>
        <time>2021-06-30T19:50:38Z</time>
      </trkpt>
      <trkpt lat="43.853939" lon="5.026916">
        <ele>65.68280</ele>
        <time>2021-06-30T19:50:39Z</time>
      </trkpt>
      <trkpt lat="43.853851" lon="5.026693">
        <ele>65.76538</ele>
        <time>2021-06-30T19:50:40Z</time>
      </trkpt>
      <trkpt lat="43.853771" lon="5.026524">
        <ele>65.95862</ele>
        <time>2021-06-30T19:50:41Z</time>
      </trkpt>
      <trkpt lat="43.853687" lon="5.026391">
        <ele>66.10321</ele>
        <time>2021-06-30T19:50:42Z</time>
      </trkpt>
      <trkpt lat="43.853622" lon="5.026289">
        <ele>66.33270</ele>
        <time>2021-06-30T19:50:43Z</time>
      </trkpt>
      <trkpt lat="43.853622" lon="5.026289">
        <ele>66.53809</ele>
        <time>2021-06-30T19:50:44Z</time>
      </trkpt>
      <trkpt lat="43.853539" lon="5.026198">
        <ele>66.91736</ele>
        <time>2021-06-30T19:50:45Z</time>
      </trkpt>
      <trkpt lat="43.853455" lon="5.026120">
        <ele>67.14465</ele>
        <time>2021-06-30T19:50:46Z</time>
      </trkpt>
      <trkpt lat="43.853390" lon="5.026054">
        <ele>67.69330</ele>
        <time>2021-06-30T19:50:47Z</time>
      </trkpt>
      <trkpt lat="43.853359" lon="5.025975">
        <ele>68.00909</ele>
        <time>2021-06-30T19:50:48Z</time>
      </trkpt>
      <trkpt lat="43.853333" lon="5.025852">
        <ele>67.34521</ele>
        <time>2021-06-30T19:50:49Z</time>
      </trkpt>
      <trkpt lat="43.853291" lon="5.025769">
        <ele>67.50354</ele>
        <time>2021-06-30T19:50:50Z</time>
      </trkpt>
      <trkpt lat="43.853210" lon="5.025689">
        <ele>65.65100</ele>
        <time>2021-06-30T19:50:51Z</time>
      </trkpt>
      <trkpt lat="43.853104" lon="5.025649">
        <ele>66.29779</ele>
        <time>2021-06-30T19:50:52Z</time>
      </trkpt>
      <trkpt lat="43.852985" lon="5.025670">
        <ele>66.06403</ele>
        <time>2021-06-30T19:50:53Z</time>
      </trkpt>
      <trkpt lat="43.852879" lon="5.025754">
        <ele>66.27020</ele>
        <time>2021-06-30T19:50:54Z</time>
      </trkpt>
      <trkpt lat="43.852791" lon="5.025780">
        <ele>67.03253</ele>
        <time>2021-06-30T19:50:55Z</time>
      </trkpt>
      <trkpt lat="43.852654" lon="5.025705">
        <ele>69.63879</ele>
        <time>2021-06-30T19:50:56Z</time>
      </trkpt>
      <trkpt lat="43.852486" lon="5.025617">
        <ele>69.64801</ele>
        <time>2021-06-30T19:50:57Z</time>
      </trkpt>
      <trkpt lat="43.852486" lon="5.025617">
        <ele>71.11694</ele>
        <time>2021-06-30T19:50:58Z</time>
      </trkpt>
      <trkpt lat="43.852318" lon="5.025525">
        <ele>72.45123</ele>
        <time>2021-06-30T19:50:59Z</time>
      </trkpt>
      <trkpt lat="43.852161" lon="5.025418">
        <ele>72.47784</ele>
        <time>2021-06-30T19:51:00Z</time>
      </trkpt>
      <trkpt lat="43.852013" lon="5.025289">
        <ele>72.73724</ele>
        <time>2021-06-30T19:51:01Z</time>
      </trkpt>
      <trkpt lat="43.851891" lon="5.025186">
        <ele>72.80353</ele>
        <time>2021-06-30T19:51:02Z</time>
      </trkpt>
      <trkpt lat="43.851765" lon="5.025052">
        <ele>73.54694</ele>
        <time>2021-06-30T19:51:03Z</time>
      </trkpt>
      <trkpt lat="43.851662" lon="5.024891">
        <ele>73.67590</ele>
        <time>2021-06-30T19:51:04Z</time>
      </trkpt>
      <trkpt lat="43.851589" lon="5.024757">
        <ele>73.32349</ele>
        <time>2021-06-30T19:51:05Z</time>
      </trkpt>
      <trkpt lat="43.851494" lon="5.024539">
        <ele>72.92578</ele>
        <time>2021-06-30T19:51:06Z</time>
      </trkpt>
      <trkpt lat="43.851429" lon="5.024318">
        <ele>73.63525</ele>
        <time>2021-06-30T19:51:07Z</time>
      </trkpt>
      <trkpt lat="43.851395" lon="5.024105">
        <ele>73.66345</ele>
        <time>2021-06-30T19:51:08Z</time>
      </trkpt>
      <trkpt lat="43.851395" lon="5.024105">
        <ele>75.47748</ele>
        <time>2021-06-30T19:51:09Z</time>
      </trkpt>
      <trkpt lat="43.851357" lon="5.023875">
        <ele>75.89111</ele>
        <time>2021-06-30T19:51:10Z</time>
      </trkpt>
      <trkpt lat="43.851330" lon="5.023687">
        <ele>74.47296</ele>
        <time>2021-06-30T19:51:11Z</time>
      </trkpt>
      <trkpt lat="43.851284" lon="5.023406">
        <ele>72.77869</ele>
        <time>2021-06-30T19:51:12Z</time>
      </trkpt>
      <trkpt lat="43.851257" lon="5.023252">
        <ele>72.45013</ele>
        <time>2021-06-30T19:51:13Z</time>
      </trkpt>
      <trkpt lat="43.851261" lon="5.023090">
        <ele>72.30853</ele>
        <time>2021-06-30T19:51:14Z</time>
      </trkpt>
      <trkpt lat="43.851242" lon="5.022902">
        <ele>72.51361</ele>
        <time>2021-06-30T19:51:15Z</time>
      </trkpt>
      <trkpt lat="43.851215" lon="5.022726">
        <ele>72.73724</ele>
        <time>2021-06-30T19:51:16Z</time>
      </trkpt>
      <trkpt lat="43.851192" lon="5.022593">
        <ele>74.03625</ele>
        <time>2021-06-30T19:51:17Z</time>
      </trkpt>
      <trkpt lat="43.851166" lon="5.022451">
        <ele>74.01929</ele>
        <time>2021-06-30T19:51:18Z</time>
      </trkpt>
      <trkpt lat="43.851143" lon="5.022262">
        <ele>73.88147</ele>
        <time>2021-06-30T19:51:19Z</time>
      </trkpt>
      <trkpt lat="43.851135" lon="5.022142">
        <ele>73.58710</ele>
        <time>2021-06-30T19:51:20Z</time>
      </trkpt>
      <trkpt lat="43.851124" lon="5.022013">
        <ele>75.39905</ele>
        <time>2021-06-30T19:51:21Z</time>
      </trkpt>
      <trkpt lat="43.851124" lon="5.022013">
        <ele>76.80219</ele>
        <time>2021-06-30T19:51:22Z</time>
      </trkpt>
      <trkpt lat="43.851109" lon="5.021886">
        <ele>75.61951</ele>
        <time>2021-06-30T19:51:23Z</time>
      </trkpt>
      <trkpt lat="43.851093" lon="5.021786">
        <ele>76.16028</ele>
        <time>2021-06-30T19:51:24Z</time>
      </trkpt>
      <trkpt lat="43.851162" lon="5.021734">
        <ele>75.23950</ele>
        <time>2021-06-30T19:51:25Z</time>
      </trkpt>
      <trkpt lat="43.851215" lon="5.021651">
        <ele>74.34283</ele>
        <time>2021-06-30T19:51:26Z</time>
      </trkpt>
      <trkpt lat="43.851162" lon="5.021400">
        <ele>75.44476</ele>
        <time>2021-06-30T19:51:27Z</time>
      </trkpt>
      <trkpt lat="43.851109" lon="5.021376">
        <ele>75.35522</ele>
        <time>2021-06-30T19:51:28Z</time>
      </trkpt>
      <trkpt lat="43.851013" lon="5.021391">
        <ele>75.06836</ele>
        <time>2021-06-30T19:51:29Z</time>
      </trkpt>
      <trkpt lat="43.850929" lon="5.021456">
        <ele>75.10474</ele>
        <time>2021-06-30T19:51:30Z</time>
      </trkpt>
      <trkpt lat="43.850853" lon="5.021182">
        <ele>75.82959</ele>
        <time>2021-06-30T19:51:31Z</time>
      </trkpt>
      <trkpt lat="43.850807" lon="5.020908">
        <ele>75.32440</ele>
        <time>2021-06-30T19:51:32Z</time>
      </trkpt>
      <trkpt lat="43.850807" lon="5.020908">
        <ele>75.45502</ele>
        <time>2021-06-30T19:51:33Z</time>
      </trkpt>
      <trkpt lat="43.850777" lon="5.020732">
        <ele>75.59155</ele>
        <time>2021-06-30T19:51:34Z</time>
      </trkpt>
      <trkpt lat="43.850754" lon="5.020470">
        <ele>73.51611</ele>
        <time>2021-06-30T19:51:35Z</time>
      </trkpt>
      <trkpt lat="43.850746" lon="5.020215">
        <ele>72.60205</ele>
        <time>2021-06-30T19:51:36Z</time>
      </trkpt>
      <trkpt lat="43.850739" lon="5.020030">
        <ele>72.12885</ele>
        <time>2021-06-30T19:51:37Z</time>
      </trkpt>
      <trkpt lat="43.850719" lon="5.019690">
        <ele>71.74719</ele>
        <time>2021-06-30T19:51:38Z</time>
      </trkpt>
      <trkpt lat="43.850708" lon="5.019429">
        <ele>71.78912</ele>
        <time>2021-06-30T19:51:39Z</time>
      </trkpt>
      <trkpt lat="43.850697" lon="5.019179">
        <ele>71.59613</ele>
        <time>2021-06-30T19:51:40Z</time>
      </trkpt>
      <trkpt lat="43.850685" lon="5.018954">
        <ele>72.30200</ele>
        <time>2021-06-30T19:51:41Z</time>
      </trkpt>
      <trkpt lat="43.850666" lon="5.018677">
        <ele>70.82355</ele>
        <time>2021-06-30T19:51:42Z</time>
      </trkpt>
      <trkpt lat="43.850647" lon="5.018412">
        <ele>70.76886</ele>
        <time>2021-06-30T19:51:43Z</time>
      </trkpt>
      <trkpt lat="43.850636" lon="5.018208">
        <ele>70.33337</ele>
        <time>2021-06-30T19:51:44Z</time>
      </trkpt>
      <trkpt lat="43.850613" lon="5.017977">
        <ele>68.58887</ele>
        <time>2021-06-30T19:51:45Z</time>
      </trkpt>
      <trkpt lat="43.850567" lon="5.017756">
        <ele>67.82642</ele>
        <time>2021-06-30T19:51:46Z</time>
      </trkpt>
      <trkpt lat="43.850567" lon="5.017756">
        <ele>67.46143</ele>
        <time>2021-06-30T19:51:47Z</time>
      </trkpt>
      <trkpt lat="43.850506" lon="5.017499">
        <ele>66.56726</ele>
        <time>2021-06-30T19:51:48Z</time>
      </trkpt>
      <trkpt lat="43.850456" lon="5.017306">
        <ele>66.31885</ele>
        <time>2021-06-30T19:51:49Z</time>
      </trkpt>
      <trkpt lat="43.850403" lon="5.017089">
        <ele>64.98383</ele>
        <time>2021-06-30T19:51:50Z</time>
      </trkpt>
      <trkpt lat="43.850311" lon="5.016946">
        <ele>63.53625</ele>
        <time>2021-06-30T19:51:51Z</time>
      </trkpt>
      <trkpt lat="43.850166" lon="5.016752">
        <ele>63.37921</ele>
        <time>2021-06-30T19:51:52Z</time>
      </trkpt>
      <trkpt lat="43.850014" lon="5.016663">
        <ele>61.79053</ele>
        <time>2021-06-30T19:51:53Z</time>
      </trkpt>
      <trkpt lat="43.849869" lon="5.016645">
        <ele>61.88293</ele>
        <time>2021-06-30T19:51:54Z</time>
      </trkpt>
      <trkpt lat="43.849728" lon="5.016647">
        <ele>62.38470</ele>
        <time>2021-06-30T19:51:55Z</time>
      </trkpt>
      <trkpt lat="43.849606" lon="5.016665">
        <ele>62.57745</ele>
        <time>2021-06-30T19:51:56Z</time>
      </trkpt>
      <trkpt lat="43.849384" lon="5.016721">
        <ele>61.80957</ele>
        <time>2021-06-30T19:51:57Z</time>
      </trkpt>
      <trkpt lat="43.849190" lon="5.016774">
        <ele>59.89679</ele>
        <time>2021-06-30T19:51:58Z</time>
      </trkpt>
      <trkpt lat="43.848873" lon="5.016847">
        <ele>57.64673</ele>
        <time>2021-06-30T19:51:59Z</time>
      </trkpt>
      <trkpt lat="43.848873" lon="5.016847">
        <ele>56.18176</ele>
        <time>2021-06-30T19:52:00Z</time>
      </trkpt>
      <trkpt lat="43.848602" lon="5.016916">
        <ele>56.58905</ele>
        <time>2021-06-30T19:52:01Z</time>
      </trkpt>
      <trkpt lat="43.848370" lon="5.016976">
        <ele>55.49268</ele>
        <time>2021-06-30T19:52:02Z</time>
      </trkpt>
      <trkpt lat="43.848091" lon="5.017048">
        <ele>55.59003</ele>
        <time>2021-06-30T19:52:03Z</time>
      </trkpt>
      <trkpt lat="43.847843" lon="5.017085">
        <ele>55.61658</ele>
        <time>2021-06-30T19:52:04Z</time>
      </trkpt>
      <trkpt lat="43.847538" lon="5.017109">
        <ele>55.83551</ele>
        <time>2021-06-30T19:52:05Z</time>
      </trkpt>
      <trkpt lat="43.847279" lon="5.017129">
        <ele>55.37469</ele>
        <time>2021-06-30T19:52:06Z</time>
      </trkpt>
      <trkpt lat="43.847027" lon="5.017127">
        <ele>55.18628</ele>
        <time>2021-06-30T19:52:07Z</time>
      </trkpt>
      <trkpt lat="43.846760" lon="5.017065">
        <ele>56.87128</ele>
        <time>2021-06-30T19:52:08Z</time>
      </trkpt>
      <trkpt lat="43.846527" lon="5.016998">
        <ele>56.94482</ele>
        <time>2021-06-30T19:52:09Z</time>
      </trkpt>
      <trkpt lat="43.846291" lon="5.016921">
        <ele>59.31787</ele>
        <time>2021-06-30T19:52:10Z</time>
      </trkpt>
      <trkpt lat="43.846012" lon="5.016847">
        <ele>59.27576</ele>
        <time>2021-06-30T19:52:11Z</time>
      </trkpt>
      <trkpt lat="43.846012" lon="5.016847">
        <ele>54.96661</ele>
        <time>2021-06-30T19:52:12Z</time>
      </trkpt>
      <trkpt lat="43.845764" lon="5.016814">
        <ele>55.88855</ele>
        <time>2021-06-30T19:52:13Z</time>
      </trkpt>
      <trkpt lat="43.845470" lon="5.016778">
        <ele>56.61230</ele>
        <time>2021-06-30T19:52:14Z</time>
      </trkpt>
      <trkpt lat="43.845245" lon="5.016752">
        <ele>56.21704</ele>
        <time>2021-06-30T19:52:15Z</time>
      </trkpt>
      <trkpt lat="43.845009" lon="5.016747">
        <ele>53.79010</ele>
        <time>2021-06-30T19:52:16Z</time>
      </trkpt>
      <trkpt lat="43.844757" lon="5.016740">
        <ele>52.63989</ele>
        <time>2021-06-30T19:52:17Z</time>
      </trkpt>
      <trkpt lat="43.844501" lon="5.016733">
        <ele>53.71124</ele>
        <time>2021-06-30T19:52:18Z</time>
      </trkpt>
      <trkpt lat="43.844231" lon="5.016772">
        <ele>53.74524</ele>
        <time>2021-06-30T19:52:19Z</time>
      </trkpt>
      <trkpt lat="43.844032" lon="5.016781">
        <ele>54.43170</ele>
        <time>2021-06-30T19:52:20Z</time>
      </trkpt>
      <trkpt lat="43.843758" lon="5.016792">
        <ele>54.83588</ele>
        <time>2021-06-30T19:52:21Z</time>
      </trkpt>
      <trkpt lat="43.843464" lon="5.016811">
        <ele>55.90680</ele>
        <time>2021-06-30T19:52:22Z</time>
      </trkpt>
      <trkpt lat="43.843227" lon="5.016837">
        <ele>56.13220</ele>
        <time>2021-06-30T19:52:23Z</time>
      </trkpt>
      <trkpt lat="43.843002" lon="5.016862">
        <ele>55.18781</ele>
        <time>2021-06-30T19:52:24Z</time>
      </trkpt>
      <trkpt lat="43.843002" lon="5.016862">
        <ele>55.13489</ele>
        <time>2021-06-30T19:52:25Z</time>
      </trkpt>
      <trkpt lat="43.842777" lon="5.016887">
        <ele>54.30450</ele>
        <time>2021-06-30T19:52:26Z</time>
      </trkpt>
      <trkpt lat="43.842533" lon="5.016896">
        <ele>54.14130</ele>
        <time>2021-06-30T19:52:27Z</time>
      </trkpt>
      <trkpt lat="43.842300" lon="5.016898">
        <ele>54.00079</ele>
        <time>2021-06-30T19:52:28Z</time>
      </trkpt>
      <trkpt lat="43.842064" lon="5.016899">
        <ele>51.87390</ele>
        <time>2021-06-30T19:52:29Z</time>
      </trkpt>
      <trkpt lat="43.841805" lon="5.016890">
        <ele>49.91895</ele>
        <time>2021-06-30T19:52:30Z</time>
      </trkpt>
      <trkpt lat="43.841560" lon="5.016882">
        <ele>50.44360</ele>
        <time>2021-06-30T19:52:31Z</time>
      </trkpt>
      <trkpt lat="43.841316" lon="5.016791">
        <ele>50.50549</ele>
        <time>2021-06-30T19:52:32Z</time>
      </trkpt>
      <trkpt lat="43.841099" lon="5.016722">
        <ele>51.37732</ele>
        <time>2021-06-30T19:52:33Z</time>
      </trkpt>
      <trkpt lat="43.840878" lon="5.016631">
        <ele>51.12646</ele>
        <time>2021-06-30T19:52:34Z</time>
      </trkpt>
      <trkpt lat="43.840679" lon="5.016535">
        <ele>50.36481</ele>
        <time>2021-06-30T19:52:35Z</time>
      </trkpt>
      <trkpt lat="43.840477" lon="5.016439">
        <ele>51.14990</ele>
        <time>2021-06-30T19:52:36Z</time>
      </trkpt>
      <trkpt lat="43.840282" lon="5.016347">
        <ele>52.06042</ele>
        <time>2021-06-30T19:52:37Z</time>
      </trkpt>
      <trkpt lat="43.840084" lon="5.016260">
        <ele>53.27240</ele>
        <time>2021-06-30T19:52:38Z</time>
      </trkpt>
      <trkpt lat="43.840084" lon="5.016260">
        <ele>54.73059</ele>
        <time>2021-06-30T19:52:39Z</time>
      </trkpt>
      <trkpt lat="43.839855" lon="5.016160">
        <ele>55.32239</ele>
        <time>2021-06-30T19:52:40Z</time>
      </trkpt>
      <trkpt lat="43.839676" lon="5.016081">
        <ele>54.25745</ele>
        <time>2021-06-30T19:52:41Z</time>
      </trkpt>
      <trkpt lat="43.839481" lon="5.016026">
        <ele>54.75305</ele>
        <time>2021-06-30T19:52:42Z</time>
      </trkpt>
      <trkpt lat="43.839283" lon="5.015976">
        <ele>54.86768</ele>
        <time>2021-06-30T19:52:43Z</time>
      </trkpt>
      <trkpt lat="43.839077" lon="5.015934">
        <ele>55.82184</ele>
        <time>2021-06-30T19:52:44Z</time>
      </trkpt>
      <trkpt lat="43.838882" lon="5.015943">
        <ele>55.97089</ele>
        <time>2021-06-30T19:52:45Z</time>
      </trkpt>
      <trkpt lat="43.838676" lon="5.015972">
        <ele>55.88123</ele>
        <time>2021-06-30T19:52:46Z</time>
      </trkpt>
      <trkpt lat="43.838497" lon="5.016026">
        <ele>56.31750</ele>
        <time>2021-06-30T19:52:47Z</time>
      </trkpt>
      <trkpt lat="43.838310" lon="5.016085">
        <ele>57.70538</ele>
        <time>2021-06-30T19:52:48Z</time>
      </trkpt>
      <trkpt lat="43.838135" lon="5.016171">
        <ele>58.93677</ele>
        <time>2021-06-30T19:52:49Z</time>
      </trkpt>
      <trkpt lat="43.837975" lon="5.016270">
        <ele>59.47504</ele>
        <time>2021-06-30T19:52:50Z</time>
      </trkpt>
      <trkpt lat="43.837818" lon="5.016387">
        <ele>60.06384</ele>
        <time>2021-06-30T19:52:51Z</time>
      </trkpt>
      <trkpt lat="43.837673" lon="5.016530">
        <ele>60.99976</ele>
        <time>2021-06-30T19:52:52Z</time>
      </trkpt>
      <trkpt lat="43.837543" lon="5.016679">
        <ele>62.80768</ele>
        <time>2021-06-30T19:52:53Z</time>
      </trkpt>
      <trkpt lat="43.837433" lon="5.016837">
        <ele>62.45825</ele>
        <time>2021-06-30T19:52:54Z</time>
      </trkpt>
      <trkpt lat="43.837334" lon="5.016988">
        <ele>62.12012</ele>
        <time>2021-06-30T19:52:55Z</time>
      </trkpt>
      <trkpt lat="43.837334" lon="5.016988">
        <ele>61.05316</ele>
        <time>2021-06-30T19:52:56Z</time>
      </trkpt>
      <trkpt lat="43.837234" lon="5.017158">
        <ele>59.07318</ele>
        <time>2021-06-30T19:52:57Z</time>
      </trkpt>
      <trkpt lat="43.837120" lon="5.017352">
        <ele>59.74219</ele>
        <time>2021-06-30T19:52:58Z</time>
      </trkpt>
      <trkpt lat="43.837017" lon="5.017534">
        <ele>59.72974</ele>
        <time>2021-06-30T19:52:59Z</time>
      </trkpt>
      <trkpt lat="43.836849" lon="5.017824">
        <ele>60.21063</ele>
        <time>2021-06-30T19:53:00Z</time>
      </trkpt>
      <trkpt lat="43.836678" lon="5.018122">
        <ele>61.16821</ele>
        <time>2021-06-30T19:53:01Z</time>
      </trkpt>
      <trkpt lat="43.836517" lon="5.018398">
        <ele>60.44812</ele>
        <time>2021-06-30T19:53:02Z</time>
      </trkpt>
      <trkpt lat="43.836349" lon="5.018675">
        <ele>60.65778</ele>
        <time>2021-06-30T19:53:03Z</time>
      </trkpt>
      <trkpt lat="43.836212" lon="5.018905">
        <ele>60.74548</ele>
        <time>2021-06-30T19:53:04Z</time>
      </trkpt>
      <trkpt lat="43.836033" lon="5.019199">
        <ele>60.62555</ele>
        <time>2021-06-30T19:53:05Z</time>
      </trkpt>
      <trkpt lat="43.835865" lon="5.019479">
        <ele>61.60999</ele>
        <time>2021-06-30T19:53:06Z</time>
      </trkpt>
      <trkpt lat="43.835865" lon="5.019479">
        <ele>62.48218</ele>
        <time>2021-06-30T19:53:07Z</time>
      </trkpt>
      <trkpt lat="43.835690" lon="5.019775">
        <ele>62.27557</ele>
        <time>2021-06-30T19:53:08Z</time>
      </trkpt>
      <trkpt lat="43.835571" lon="5.020039">
        <ele>62.91595</ele>
        <time>2021-06-30T19:53:09Z</time>
      </trkpt>
      <trkpt lat="43.835430" lon="5.020272">
        <ele>63.58582</ele>
        <time>2021-06-30T19:53:10Z</time>
      </trkpt>
      <trkpt lat="43.835255" lon="5.020571">
        <ele>63.66925</ele>
        <time>2021-06-30T19:53:11Z</time>
      </trkpt>
      <trkpt lat="43.835072" lon="5.020876">
        <ele>64.10522</ele>
        <time>2021-06-30T19:53:12Z</time>
      </trkpt>
      <trkpt lat="43.834892" lon="5.021174">
        <ele>64.76575</ele>
        <time>2021-06-30T19:53:13Z</time>
      </trkpt>
      <trkpt lat="43.834713" lon="5.021472">
        <ele>64.85059</ele>
        <time>2021-06-30T19:53:14Z</time>
      </trkpt>
      <trkpt lat="43.834553" lon="5.021745">
        <ele>64.65198</ele>
        <time>2021-06-30T19:53:15Z</time>
      </trkpt>
      <trkpt lat="43.834389" lon="5.022019">
        <ele>64.88843</ele>
        <time>2021-06-30T19:53:16Z</time>
      </trkpt>
      <trkpt lat="43.834213" lon="5.022309">
        <ele>64.67017</ele>
        <time>2021-06-30T19:53:17Z</time>
      </trkpt>
      <trkpt lat="43.834057" lon="5.022571">
        <ele>65.59760</ele>
        <time>2021-06-30T19:53:18Z</time>
      </trkpt>
      <trkpt lat="43.834057" lon="5.022571">
        <ele>65.38159</ele>
        <time>2021-06-30T19:53:19Z</time>
      </trkpt>
      <trkpt lat="43.833897" lon="5.022841">
        <ele>65.75531</ele>
        <time>2021-06-30T19:53:20Z</time>
      </trkpt>
      <trkpt lat="43.833729" lon="5.023117">
        <ele>66.17181</ele>
        <time>2021-06-30T19:53:21Z</time>
      </trkpt>
      <trkpt lat="43.833572" lon="5.023380">
        <ele>66.74530</ele>
        <time>2021-06-30T19:53:22Z</time>
      </trkpt>
      <trkpt lat="43.833412" lon="5.023648">
        <ele>67.30084</ele>
        <time>2021-06-30T19:53:23Z</time>
      </trkpt>
      <trkpt lat="43.833252" lon="5.023918">
        <ele>68.41980</ele>
        <time>2021-06-30T19:53:24Z</time>
      </trkpt>
      <trkpt lat="43.833065" lon="5.024234">
        <ele>68.38007</ele>
        <time>2021-06-30T19:53:25Z</time>
      </trkpt>
      <trkpt lat="43.832893" lon="5.024498">
        <ele>67.49414</ele>
        <time>2021-06-30T19:53:26Z</time>
      </trkpt>
      <trkpt lat="43.832745" lon="5.024738">
        <ele>66.43518</ele>
        <time>2021-06-30T19:53:27Z</time>
      </trkpt>
      <trkpt lat="43.832607" lon="5.024963">
        <ele>66.19617</ele>
        <time>2021-06-30T19:53:28Z</time>
      </trkpt>
      <trkpt lat="43.832424" lon="5.025257">
        <ele>66.37079</ele>
        <time>2021-06-30T19:53:29Z</time>
      </trkpt>
      <trkpt lat="43.832245" lon="5.025550">
        <ele>65.60767</ele>
        <time>2021-06-30T19:53:30Z</time>
      </trkpt>
      <trkpt lat="43.832085" lon="5.025807">
        <ele>65.51239</ele>
        <time>2021-06-30T19:53:31Z</time>
      </trkpt>
      <trkpt lat="43.831909" lon="5.026084">
        <ele>67.26825</ele>
        <time>2021-06-30T19:53:32Z</time>
      </trkpt>
      <trkpt lat="43.831757" lon="5.026333">
        <ele>68.16486</ele>
        <time>2021-06-30T19:53:33Z</time>
      </trkpt>
      <trkpt lat="43.831608" lon="5.026569">
        <ele>68.60632</ele>
        <time>2021-06-30T19:53:34Z</time>
      </trkpt>
      <trkpt lat="43.831478" lon="5.026791">
        <ele>69.17761</ele>
        <time>2021-06-30T19:53:35Z</time>
      </trkpt>
      <trkpt lat="43.831478" lon="5.026791">
        <ele>69.16931</ele>
        <time>2021-06-30T19:53:36Z</time>
      </trkpt>
      <trkpt lat="43.831326" lon="5.027014">
        <ele>68.85999</ele>
        <time>2021-06-30T19:53:37Z</time>
      </trkpt>
      <trkpt lat="43.831196" lon="5.027225">
        <ele>69.13074</ele>
        <time>2021-06-30T19:53:38Z</time>
      </trkpt>
      <trkpt lat="43.831085" lon="5.027404">
        <ele>68.12170</ele>
        <time>2021-06-30T19:53:39Z</time>
      </trkpt>
      <trkpt lat="43.830975" lon="5.027587">
        <ele>67.42932</ele>
        <time>2021-06-30T19:53:40Z</time>
      </trkpt>
      <trkpt lat="43.830894" lon="5.027721">
        <ele>67.64508</ele>
        <time>2021-06-30T19:53:41Z</time>
      </trkpt>
      <trkpt lat="43.830830" lon="5.027832">
        <ele>67.92560</ele>
        <time>2021-06-30T19:53:42Z</time>
      </trkpt>
      <trkpt lat="43.830776" lon="5.027922">
        <ele>67.83063</ele>
        <time>2021-06-30T19:53:43Z</time>
      </trkpt>
      <trkpt lat="43.830719" lon="5.027986">
        <ele>67.91113</ele>
        <time>2021-06-30T19:53:44Z</time>
      </trkpt>
      <trkpt lat="43.830677" lon="5.028148">
        <ele>68.57471</ele>
        <time>2021-06-30T19:53:45Z</time>
      </trkpt>
      <trkpt lat="43.830452" lon="5.028276">
        <ele>69.84790</ele>
        <time>2021-06-30T19:53:46Z</time>
      </trkpt>
      <trkpt lat="43.830269" lon="5.028459">
        <ele>71.37982</ele>
        <time>2021-06-30T19:53:47Z</time>
      </trkpt>
      <trkpt lat="43.830151" lon="5.028619">
        <ele>71.25397</ele>
        <time>2021-06-30T19:53:48Z</time>
      </trkpt>
      <trkpt lat="43.830151" lon="5.028619">
        <ele>71.74542</ele>
        <time>2021-06-30T19:53:49Z</time>
      </trkpt>
      <trkpt lat="43.830029" lon="5.028798">
        <ele>71.20087</ele>
        <time>2021-06-30T19:53:50Z</time>
      </trkpt>
      <trkpt lat="43.829834" lon="5.029088">
        <ele>70.55585</ele>
        <time>2021-06-30T19:53:51Z</time>
      </trkpt>
      <trkpt lat="43.829674" lon="5.029326">
        <ele>70.18689</ele>
        <time>2021-06-30T19:53:52Z</time>
      </trkpt>
      <trkpt lat="43.829514" lon="5.029569">
        <ele>69.55328</ele>
        <time>2021-06-30T19:53:53Z</time>
      </trkpt>
      <trkpt lat="43.829361" lon="5.029800">
        <ele>68.80731</ele>
        <time>2021-06-30T19:53:54Z</time>
      </trkpt>
      <trkpt lat="43.829189" lon="5.030059">
        <ele>68.89563</ele>
        <time>2021-06-30T19:53:55Z</time>
      </trkpt>
      <trkpt lat="43.829029" lon="5.030298">
        <ele>68.96655</ele>
        <time>2021-06-30T19:53:56Z</time>
      </trkpt>
      <trkpt lat="43.828896" lon="5.030501">
        <ele>69.95825</ele>
        <time>2021-06-30T19:53:57Z</time>
      </trkpt>
      <trkpt lat="43.828735" lon="5.030744">
        <ele>70.10913</ele>
        <time>2021-06-30T19:53:58Z</time>
      </trkpt>
      <trkpt lat="43.828594" lon="5.030955">
        <ele>70.51367</ele>
        <time>2021-06-30T19:53:59Z</time>
      </trkpt>
      <trkpt lat="43.828457" lon="5.031161">
        <ele>70.83380</ele>
        <time>2021-06-30T19:54:00Z</time>
      </trkpt>
      <trkpt lat="43.828327" lon="5.031359">
        <ele>71.47003</ele>
        <time>2021-06-30T19:54:01Z</time>
      </trkpt>
      <trkpt lat="43.828327" lon="5.031359">
        <ele>72.26099</ele>
        <time>2021-06-30T19:54:02Z</time>
      </trkpt>
      <trkpt lat="43.828209" lon="5.031536">
        <ele>71.61279</ele>
        <time>2021-06-30T19:54:03Z</time>
      </trkpt>
      <trkpt lat="43.828110" lon="5.031679">
        <ele>71.46521</ele>
        <time>2021-06-30T19:54:04Z</time>
      </trkpt>
      <trkpt lat="43.828030" lon="5.031822">
        <ele>71.46057</ele>
        <time>2021-06-30T19:54:05Z</time>
      </trkpt>
      <trkpt lat="43.827965" lon="5.031982">
        <ele>71.84338</ele>
        <time>2021-06-30T19:54:06Z</time>
      </trkpt>
      <trkpt lat="43.827919" lon="5.032223">
        <ele>71.94537</ele>
        <time>2021-06-30T19:54:07Z</time>
      </trkpt>
      <trkpt lat="43.827892" lon="5.032434">
        <ele>73.05780</ele>
        <time>2021-06-30T19:54:08Z</time>
      </trkpt>
      <trkpt lat="43.827900" lon="5.032608">
        <ele>73.04004</ele>
        <time>2021-06-30T19:54:09Z</time>
      </trkpt>
      <trkpt lat="43.827930" lon="5.032856">
        <ele>72.49524</ele>
        <time>2021-06-30T19:54:10Z</time>
      </trkpt>
      <trkpt lat="43.827988" lon="5.033069">
        <ele>72.19031</ele>
        <time>2021-06-30T19:54:11Z</time>
      </trkpt>
      <trkpt lat="43.828018" lon="5.033191">
        <ele>72.71289</ele>
        <time>2021-06-30T19:54:12Z</time>
      </trkpt>
      <trkpt lat="43.828053" lon="5.033338">
        <ele>72.77350</ele>
        <time>2021-06-30T19:54:13Z</time>
      </trkpt>
      <trkpt lat="43.828060" lon="5.033434">
        <ele>73.42383</ele>
        <time>2021-06-30T19:54:14Z</time>
      </trkpt>
      <trkpt lat="43.828049" lon="5.033546">
        <ele>73.17035</ele>
        <time>2021-06-30T19:54:15Z</time>
      </trkpt>
      <trkpt lat="43.828026" lon="5.033641">
        <ele>72.20288</ele>
        <time>2021-06-30T19:54:16Z</time>
      </trkpt>
      <trkpt lat="43.828011" lon="5.033729">
        <ele>73.54791</ele>
        <time>2021-06-30T19:54:17Z</time>
      </trkpt>
      <trkpt lat="43.828011" lon="5.033729">
        <ele>73.11682</ele>
        <time>2021-06-30T19:54:18Z</time>
      </trkpt>
      <trkpt lat="43.827976" lon="5.033778">
        <ele>73.10065</ele>
        <time>2021-06-30T19:54:19Z</time>
      </trkpt>
      <trkpt lat="43.827839" lon="5.033819">
        <ele>74.00885</ele>
        <time>2021-06-30T19:54:20Z</time>
      </trkpt>
      <trkpt lat="43.827759" lon="5.033749">
        <ele>74.13220</ele>
        <time>2021-06-30T19:54:21Z</time>
      </trkpt>
      <trkpt lat="43.827717" lon="5.033641">
        <ele>72.47644</ele>
        <time>2021-06-30T19:54:22Z</time>
      </trkpt>
      <trkpt lat="43.827709" lon="5.033562">
        <ele>72.66809</ele>
        <time>2021-06-30T19:54:23Z</time>
      </trkpt>
      <trkpt lat="43.827717" lon="5.033433">
        <ele>73.53906</ele>
        <time>2021-06-30T19:54:24Z</time>
      </trkpt>
      <trkpt lat="43.827724" lon="5.033224">
        <ele>74.84277</ele>
        <time>2021-06-30T19:54:25Z</time>
      </trkpt>
      <trkpt lat="43.827698" lon="5.033037">
        <ele>73.65833</ele>
        <time>2021-06-30T19:54:26Z</time>
      </trkpt>
      <trkpt lat="43.827709" lon="5.032822">
        <ele>71.83057</ele>
        <time>2021-06-30T19:54:27Z</time>
      </trkpt>
      <trkpt lat="43.827702" lon="5.032627">
        <ele>71.75232</ele>
        <time>2021-06-30T19:54:28Z</time>
      </trkpt>
      <trkpt lat="43.827702" lon="5.032627">
        <ele>71.75555</ele>
        <time>2021-06-30T19:54:29Z</time>
      </trkpt>
      <trkpt lat="43.827621" lon="5.032480">
        <ele>71.88733</ele>
        <time>2021-06-30T19:54:30Z</time>
      </trkpt>
      <trkpt lat="43.827534" lon="5.032324">
        <ele>72.82843</ele>
        <time>2021-06-30T19:54:31Z</time>
      </trkpt>
      <trkpt lat="43.827415" lon="5.032115">
        <ele>74.17487</ele>
        <time>2021-06-30T19:54:32Z</time>
      </trkpt>
      <trkpt lat="43.827309" lon="5.031923">
        <ele>73.88000</ele>
        <time>2021-06-30T19:54:33Z</time>
      </trkpt>
      <trkpt lat="43.827171" lon="5.031684">
        <ele>73.78467</ele>
        <time>2021-06-30T19:54:34Z</time>
      </trkpt>
      <trkpt lat="43.827061" lon="5.031481">
        <ele>74.78638</ele>
        <time>2021-06-30T19:54:35Z</time>
      </trkpt>
      <trkpt lat="43.826927" lon="5.031245">
        <ele>74.72296</ele>
        <time>2021-06-30T19:54:36Z</time>
      </trkpt>
      <trkpt lat="43.826790" lon="5.031000">
        <ele>74.23047</ele>
        <time>2021-06-30T19:54:37Z</time>
      </trkpt>
      <trkpt lat="43.826649" lon="5.030754">
        <ele>74.94360</ele>
        <time>2021-06-30T19:54:38Z</time>
      </trkpt>
      <trkpt lat="43.826511" lon="5.030511">
        <ele>74.83765</ele>
        <time>2021-06-30T19:54:39Z</time>
      </trkpt>
      <trkpt lat="43.826378" lon="5.030268">
        <ele>74.51868</ele>
        <time>2021-06-30T19:54:40Z</time>
      </trkpt>
      <trkpt lat="43.826225" lon="5.029990">
        <ele>73.93365</ele>
        <time>2021-06-30T19:54:41Z</time>
      </trkpt>
      <trkpt lat="43.826099" lon="5.029765">
        <ele>73.64673</ele>
        <time>2021-06-30T19:54:42Z</time>
      </trkpt>
      <trkpt lat="43.825985" lon="5.029551">
        <ele>72.34583</ele>
        <time>2021-06-30T19:54:43Z</time>
      </trkpt>
      <trkpt lat="43.825874" lon="5.029356">
        <ele>72.31647</ele>
        <time>2021-06-30T19:54:44Z</time>
      </trkpt>
      <trkpt lat="43.825874" lon="5.029356">
        <ele>72.16553</ele>
        <time>2021-06-30T19:54:45Z</time>
      </trkpt>
      <trkpt lat="43.825764" lon="5.029156">
        <ele>72.42310</ele>
        <time>2021-06-30T19:54:46Z</time>
      </trkpt>
      <trkpt lat="43.825691" lon="5.028990">
        <ele>72.83459</ele>
        <time>2021-06-30T19:54:47Z</time>
      </trkpt>
      <trkpt lat="43.825615" lon="5.028838">
        <ele>73.00781</ele>
        <time>2021-06-30T19:54:48Z</time>
      </trkpt>
      <trkpt lat="43.825485" lon="5.028678">
        <ele>73.03992</ele>
        <time>2021-06-30T19:54:49Z</time>
      </trkpt>
      <trkpt lat="43.825390" lon="5.028581">
        <ele>73.20074</ele>
        <time>2021-06-30T19:54:50Z</time>
      </trkpt>
      <trkpt lat="43.825161" lon="5.028425">
        <ele>73.34869</ele>
        <time>2021-06-30T19:54:51Z</time>
      </trkpt>
      <trkpt lat="43.824978" lon="5.028354">
        <ele>73.87500</ele>
        <time>2021-06-30T19:54:52Z</time>
      </trkpt>
      <trkpt lat="43.824799" lon="5.028330">
        <ele>74.17493</ele>
        <time>2021-06-30T19:54:53Z</time>
      </trkpt>
      <trkpt lat="43.824680" lon="5.028334">
        <ele>75.33636</ele>
        <time>2021-06-30T19:54:54Z</time>
      </trkpt>
      <trkpt lat="43.824585" lon="5.028347">
        <ele>75.78369</ele>
        <time>2021-06-30T19:54:55Z</time>
      </trkpt>
      <trkpt lat="43.824444" lon="5.028391">
        <ele>75.66791</ele>
        <time>2021-06-30T19:54:56Z</time>
      </trkpt>
      <trkpt lat="43.824287" lon="5.028454">
        <ele>75.62817</ele>
        <time>2021-06-30T19:54:57Z</time>
      </trkpt>
      <trkpt lat="43.824131" lon="5.028535">
        <ele>76.21954</ele>
        <time>2021-06-30T19:54:58Z</time>
      </trkpt>
      <trkpt lat="43.824131" lon="5.028535">
        <ele>77.37061</ele>
        <time>2021-06-30T19:54:59Z</time>
      </trkpt>
      <trkpt lat="43.823967" lon="5.028620">
        <ele>77.98401</ele>
        <time>2021-06-30T19:55:00Z</time>
      </trkpt>
      <trkpt lat="43.823822" lon="5.028693">
        <ele>78.35254</ele>
        <time>2021-06-30T19:55:01Z</time>
      </trkpt>
      <trkpt lat="43.823673" lon="5.028751">
        <ele>78.93945</ele>
        <time>2021-06-30T19:55:02Z</time>
      </trkpt>
      <trkpt lat="43.823528" lon="5.028796">
        <ele>79.39471</ele>
        <time>2021-06-30T19:55:03Z</time>
      </trkpt>
      <trkpt lat="43.823410" lon="5.028789">
        <ele>79.59338</ele>
        <time>2021-06-30T19:55:04Z</time>
      </trkpt>
      <trkpt lat="43.823288" lon="5.028744">
        <ele>79.77258</ele>
        <time>2021-06-30T19:55:05Z</time>
      </trkpt>
      <trkpt lat="43.823170" lon="5.028627">
        <ele>79.99121</ele>
        <time>2021-06-30T19:55:06Z</time>
      </trkpt>
      <trkpt lat="43.823086" lon="5.028458">
        <ele>79.66199</ele>
        <time>2021-06-30T19:55:07Z</time>
      </trkpt>
      <trkpt lat="43.823029" lon="5.028261">
        <ele>81.01135</ele>
        <time>2021-06-30T19:55:08Z</time>
      </trkpt>
      <trkpt lat="43.822948" lon="5.028037">
        <ele>80.42694</ele>
        <time>2021-06-30T19:55:09Z</time>
      </trkpt>
      <trkpt lat="43.822948" lon="5.028037">
        <ele>79.82855</ele>
        <time>2021-06-30T19:55:10Z</time>
      </trkpt>
      <trkpt lat="43.822891" lon="5.027777">
        <ele>79.27454</ele>
        <time>2021-06-30T19:55:11Z</time>
      </trkpt>
      <trkpt lat="43.822834" lon="5.027503">
        <ele>80.15002</ele>
        <time>2021-06-30T19:55:12Z</time>
      </trkpt>
      <trkpt lat="43.822777" lon="5.027253">
        <ele>80.31891</ele>
        <time>2021-06-30T19:55:13Z</time>
      </trkpt>
      <trkpt lat="43.822716" lon="5.026974">
        <ele>79.70508</ele>
        <time>2021-06-30T19:55:14Z</time>
      </trkpt>
      <trkpt lat="43.822647" lon="5.026637">
        <ele>78.99902</ele>
        <time>2021-06-30T19:55:15Z</time>
      </trkpt>
      <trkpt lat="43.822582" lon="5.026325">
        <ele>78.14221</ele>
        <time>2021-06-30T19:55:16Z</time>
      </trkpt>
      <trkpt lat="43.822510" lon="5.025976">
        <ele>77.33386</ele>
        <time>2021-06-30T19:55:17Z</time>
      </trkpt>
      <trkpt lat="43.822433" lon="5.025618">
        <ele>76.14844</ele>
        <time>2021-06-30T19:55:18Z</time>
      </trkpt>
      <trkpt lat="43.822353" lon="5.025253">
        <ele>74.85468</ele>
        <time>2021-06-30T19:55:19Z</time>
      </trkpt>
      <trkpt lat="43.822277" lon="5.024912">
        <ele>73.90253</ele>
        <time>2021-06-30T19:55:20Z</time>
      </trkpt>
      <trkpt lat="43.822205" lon="5.024588">
        <ele>73.25653</ele>
        <time>2021-06-30T19:55:21Z</time>
      </trkpt>
      <trkpt lat="43.822124" lon="5.024245">
        <ele>71.94885</ele>
        <time>2021-06-30T19:55:22Z</time>
      </trkpt>
      <trkpt lat="43.822052" lon="5.023925">
        <ele>71.63910</ele>
        <time>2021-06-30T19:55:23Z</time>
      </trkpt>
      <trkpt lat="43.821980" lon="5.023610">
        <ele>72.51953</ele>
        <time>2021-06-30T19:55:24Z</time>
      </trkpt>
      <trkpt lat="43.821915" lon="5.023313">
        <ele>71.93622</ele>
        <time>2021-06-30T19:55:25Z</time>
      </trkpt>
      <trkpt lat="43.821915" lon="5.023313">
        <ele>71.88556</ele>
        <time>2021-06-30T19:55:26Z</time>
      </trkpt>
      <trkpt lat="43.821850" lon="5.023002">
        <ele>72.74445</ele>
        <time>2021-06-30T19:55:27Z</time>
      </trkpt>
      <trkpt lat="43.821808" lon="5.022794">
        <ele>72.86420</ele>
        <time>2021-06-30T19:55:28Z</time>
      </trkpt>
      <trkpt lat="43.821762" lon="5.022583">
        <ele>73.27374</ele>
        <time>2021-06-30T19:55:29Z</time>
      </trkpt>
      <trkpt lat="43.821728" lon="5.022413">
        <ele>73.89404</ele>
        <time>2021-06-30T19:55:30Z</time>
      </trkpt>
      <trkpt lat="43.821686" lon="5.022225">
        <ele>74.56848</ele>
        <time>2021-06-30T19:55:31Z</time>
      </trkpt>
      <trkpt lat="43.821659" lon="5.022075">
        <ele>74.80908</ele>
        <time>2021-06-30T19:55:32Z</time>
      </trkpt>
      <trkpt lat="43.821651" lon="5.021940">
        <ele>74.87427</ele>
        <time>2021-06-30T19:55:33Z</time>
      </trkpt>
      <trkpt lat="43.821716" lon="5.021818">
        <ele>75.22614</ele>
        <time>2021-06-30T19:55:34Z</time>
      </trkpt>
      <trkpt lat="43.821766" lon="5.021689">
        <ele>75.60565</ele>
        <time>2021-06-30T19:55:35Z</time>
      </trkpt>
      <trkpt lat="43.821770" lon="5.021547">
        <ele>77.13422</ele>
        <time>2021-06-30T19:55:36Z</time>
      </trkpt>
      <trkpt lat="43.821739" lon="5.021424">
        <ele>77.46545</ele>
        <time>2021-06-30T19:55:37Z</time>
      </trkpt>
      <trkpt lat="43.821674" lon="5.021329">
        <ele>76.54663</ele>
        <time>2021-06-30T19:55:38Z</time>
      </trkpt>
      <trkpt lat="43.821529" lon="5.021260">
        <ele>75.07959</ele>
        <time>2021-06-30T19:55:39Z</time>
      </trkpt>
      <trkpt lat="43.821339" lon="5.021165">
        <ele>74.59723</ele>
        <time>2021-06-30T19:55:40Z</time>
      </trkpt>
      <trkpt lat="43.821339" lon="5.021165">
        <ele>73.98468</ele>
        <time>2021-06-30T19:55:41Z</time>
      </trkpt>
      <trkpt lat="43.821243" lon="5.021024">
        <ele>72.74274</ele>
        <time>2021-06-30T19:55:42Z</time>
      </trkpt>
      <trkpt lat="43.821136" lon="5.020864">
        <ele>72.46252</ele>
        <time>2021-06-30T19:55:43Z</time>
      </trkpt>
      <trkpt lat="43.821007" lon="5.020644">
        <ele>73.21423</ele>
        <time>2021-06-30T19:55:44Z</time>
      </trkpt>
      <trkpt lat="43.820877" lon="5.020415">
        <ele>73.17786</ele>
        <time>2021-06-30T19:55:45Z</time>
      </trkpt>
      <trkpt lat="43.820759" lon="5.020194">
        <ele>72.75470</ele>
        <time>2021-06-30T19:55:46Z</time>
      </trkpt>
      <trkpt lat="43.820606" lon="5.019928">
        <ele>71.97821</ele>
        <time>2021-06-30T19:55:47Z</time>
      </trkpt>
      <trkpt lat="43.820465" lon="5.019677">
        <ele>71.65631</ele>
        <time>2021-06-30T19:55:48Z</time>
      </trkpt>
      <trkpt lat="43.820301" lon="5.019389">
        <ele>71.30920</ele>
        <time>2021-06-30T19:55:49Z</time>
      </trkpt>
      <trkpt lat="43.820137" lon="5.019100">
        <ele>70.96735</ele>
        <time>2021-06-30T19:55:50Z</time>
      </trkpt>
      <trkpt lat="43.819969" lon="5.018809">
        <ele>71.97333</ele>
        <time>2021-06-30T19:55:51Z</time>
      </trkpt>
      <trkpt lat="43.819839" lon="5.018557">
        <ele>70.87659</ele>
        <time>2021-06-30T19:55:52Z</time>
      </trkpt>
      <trkpt lat="43.819695" lon="5.018271">
        <ele>70.44135</ele>
        <time>2021-06-30T19:55:53Z</time>
      </trkpt>
      <trkpt lat="43.819695" lon="5.018271">
        <ele>69.99561</ele>
        <time>2021-06-30T19:55:54Z</time>
      </trkpt>
      <trkpt lat="43.819569" lon="5.017994">
        <ele>70.30103</ele>
        <time>2021-06-30T19:55:55Z</time>
      </trkpt>
      <trkpt lat="43.819447" lon="5.017712">
        <ele>70.61560</ele>
        <time>2021-06-30T19:55:56Z</time>
      </trkpt>
      <trkpt lat="43.819347" lon="5.017480">
        <ele>70.27252</ele>
        <time>2021-06-30T19:55:57Z</time>
      </trkpt>
      <trkpt lat="43.819244" lon="5.017235">
        <ele>70.10706</ele>
        <time>2021-06-30T19:55:58Z</time>
      </trkpt>
      <trkpt lat="43.819122" lon="5.016951">
        <ele>69.82831</ele>
        <time>2021-06-30T19:55:59Z</time>
      </trkpt>
      <trkpt lat="43.819023" lon="5.016724">
        <ele>69.47113</ele>
        <time>2021-06-30T19:56:00Z</time>
      </trkpt>
      <trkpt lat="43.818924" lon="5.016529">
        <ele>70.10614</ele>
        <time>2021-06-30T19:56:01Z</time>
      </trkpt>
      <trkpt lat="43.818832" lon="5.016348">
        <ele>70.34009</ele>
        <time>2021-06-30T19:56:02Z</time>
      </trkpt>
      <trkpt lat="43.818752" lon="5.016189">
        <ele>71.54114</ele>
        <time>2021-06-30T19:56:03Z</time>
      </trkpt>
      <trkpt lat="43.818703" lon="5.016077">
        <ele>71.35229</ele>
        <time>2021-06-30T19:56:04Z</time>
      </trkpt>
      <trkpt lat="43.818653" lon="5.015958">
        <ele>70.64862</ele>
        <time>2021-06-30T19:56:05Z</time>
      </trkpt>
      <trkpt lat="43.818626" lon="5.015809">
        <ele>71.96802</ele>
        <time>2021-06-30T19:56:06Z</time>
      </trkpt>
      <trkpt lat="43.818626" lon="5.015809">
        <ele>70.58911</ele>
        <time>2021-06-30T19:56:07Z</time>
      </trkpt>
      <trkpt lat="43.818615" lon="5.015636">
        <ele>70.62622</ele>
        <time>2021-06-30T19:56:08Z</time>
      </trkpt>
      <trkpt lat="43.818588" lon="5.015577">
        <ele>71.01086</ele>
        <time>2021-06-30T19:56:09Z</time>
      </trkpt>
      <trkpt lat="43.818546" lon="5.015527">
        <ele>70.30695</ele>
        <time>2021-06-30T19:56:10Z</time>
      </trkpt>
      <trkpt lat="43.818439" lon="5.015496">
        <ele>70.06348</ele>
        <time>2021-06-30T19:56:11Z</time>
      </trkpt>
      <trkpt lat="43.818367" lon="5.015518">
        <ele>71.00146</ele>
        <time>2021-06-30T19:56:12Z</time>
      </trkpt>
      <trkpt lat="43.818310" lon="5.015587">
        <ele>70.77386</ele>
        <time>2021-06-30T19:56:13Z</time>
      </trkpt>
      <trkpt lat="43.818272" lon="5.015722">
        <ele>71.22272</ele>
        <time>2021-06-30T19:56:14Z</time>
      </trkpt>
      <trkpt lat="43.818302" lon="5.015879">
        <ele>72.96857</ele>
        <time>2021-06-30T19:56:15Z</time>
      </trkpt>
      <trkpt lat="43.818226" lon="5.015971">
        <ele>72.99744</ele>
        <time>2021-06-30T19:56:16Z</time>
      </trkpt>
      <trkpt lat="43.818050" lon="5.016088">
        <ele>72.29840</ele>
        <time>2021-06-30T19:56:17Z</time>
      </trkpt>
      <trkpt lat="43.818050" lon="5.016088">
        <ele>72.37140</ele>
        <time>2021-06-30T19:56:18Z</time>
      </trkpt>
      <trkpt lat="43.817871" lon="5.016185">
        <ele>72.80548</ele>
        <time>2021-06-30T19:56:19Z</time>
      </trkpt>
      <trkpt lat="43.817524" lon="5.016362">
        <ele>71.04016</ele>
        <time>2021-06-30T19:56:20Z</time>
      </trkpt>
      <trkpt lat="43.817360" lon="5.016444">
        <ele>72.41296</ele>
        <time>2021-06-30T19:56:21Z</time>
      </trkpt>
      <trkpt lat="43.816971" lon="5.016640">
        <ele>73.65656</ele>
        <time>2021-06-30T19:56:22Z</time>
      </trkpt>
      <trkpt lat="43.816753" lon="5.016749">
        <ele>74.64117</ele>
        <time>2021-06-30T19:56:23Z</time>
      </trkpt>
      <trkpt lat="43.816471" lon="5.016891">
        <ele>74.80878</ele>
        <time>2021-06-30T19:56:24Z</time>
      </trkpt>
      <trkpt lat="43.816185" lon="5.017033">
        <ele>74.39209</ele>
        <time>2021-06-30T19:56:25Z</time>
      </trkpt>
      <trkpt lat="43.815891" lon="5.017178">
        <ele>73.85132</ele>
        <time>2021-06-30T19:56:26Z</time>
      </trkpt>
      <trkpt lat="43.815620" lon="5.017317">
        <ele>73.96692</ele>
        <time>2021-06-30T19:56:27Z</time>
      </trkpt>
      <trkpt lat="43.815334" lon="5.017469">
        <ele>74.78516</ele>
        <time>2021-06-30T19:56:28Z</time>
      </trkpt>
      <trkpt lat="43.815334" lon="5.017469">
        <ele>74.73370</ele>
        <time>2021-06-30T19:56:29Z</time>
      </trkpt>
      <trkpt lat="43.815102" lon="5.017636">
        <ele>76.34106</ele>
        <time>2021-06-30T19:56:30Z</time>
      </trkpt>
      <trkpt lat="43.814972" lon="5.017759">
        <ele>77.37134</ele>
        <time>2021-06-30T19:56:31Z</time>
      </trkpt>
      <trkpt lat="43.814789" lon="5.017966">
        <ele>78.69977</ele>
        <time>2021-06-30T19:56:32Z</time>
      </trkpt>
      <trkpt lat="43.814754" lon="5.018006">
        <ele>79.14282</ele>
        <time>2021-06-30T19:56:33Z</time>
      </trkpt>
      <trkpt lat="43.814545" lon="5.018289">
        <ele>80.27557</ele>
        <time>2021-06-30T19:56:34Z</time>
      </trkpt>
      <trkpt lat="43.814400" lon="5.018550">
        <ele>79.85205</ele>
        <time>2021-06-30T19:56:35Z</time>
      </trkpt>
      <trkpt lat="43.814262" lon="5.018819">
        <ele>79.68176</ele>
        <time>2021-06-30T19:56:36Z</time>
      </trkpt>
      <trkpt lat="43.814072" lon="5.019196">
        <ele>79.69189</ele>
        <time>2021-06-30T19:56:37Z</time>
      </trkpt>
      <trkpt lat="43.813934" lon="5.019450">
        <ele>78.37836</ele>
        <time>2021-06-30T19:56:38Z</time>
      </trkpt>
      <trkpt lat="43.813812" lon="5.019658">
        <ele>78.02917</ele>
        <time>2021-06-30T19:56:39Z</time>
      </trkpt>
      <trkpt lat="43.813667" lon="5.019881">
        <ele>77.84058</ele>
        <time>2021-06-30T19:56:40Z</time>
      </trkpt>
      <trkpt lat="43.813667" lon="5.019881">
        <ele>78.26819</ele>
        <time>2021-06-30T19:56:41Z</time>
      </trkpt>
      <trkpt lat="43.813560" lon="5.020029">
        <ele>79.06561</ele>
        <time>2021-06-30T19:56:42Z</time>
      </trkpt>
      <trkpt lat="43.813404" lon="5.020236">
        <ele>79.74127</ele>
        <time>2021-06-30T19:56:43Z</time>
      </trkpt>
      <trkpt lat="43.813271" lon="5.020397">
        <ele>79.60303</ele>
        <time>2021-06-30T19:56:44Z</time>
      </trkpt>
      <trkpt lat="43.813129" lon="5.020564">
        <ele>79.70306</ele>
        <time>2021-06-30T19:56:45Z</time>
      </trkpt>
      <trkpt lat="43.812965" lon="5.020757">
        <ele>80.80371</ele>
        <time>2021-06-30T19:56:46Z</time>
      </trkpt>
      <trkpt lat="43.812801" lon="5.020946">
        <ele>81.60278</ele>
        <time>2021-06-30T19:56:47Z</time>
      </trkpt>
      <trkpt lat="43.812634" lon="5.021146">
        <ele>82.98364</ele>
        <time>2021-06-30T19:56:48Z</time>
      </trkpt>
      <trkpt lat="43.812485" lon="5.021325">
        <ele>82.69025</ele>
        <time>2021-06-30T19:56:49Z</time>
      </trkpt>
      <trkpt lat="43.812344" lon="5.021489">
        <ele>83.16626</ele>
        <time>2021-06-30T19:56:50Z</time>
      </trkpt>
      <trkpt lat="43.812222" lon="5.021635">
        <ele>83.90271</ele>
        <time>2021-06-30T19:56:51Z</time>
      </trkpt>
      <trkpt lat="43.812061" lon="5.021825">
        <ele>84.15161</ele>
        <time>2021-06-30T19:56:52Z</time>
      </trkpt>
      <trkpt lat="43.811924" lon="5.021989">
        <ele>88.21167</ele>
        <time>2021-06-30T19:56:53Z</time>
      </trkpt>
      <trkpt lat="43.811924" lon="5.021989">
        <ele>87.91864</ele>
        <time>2021-06-30T19:56:54Z</time>
      </trkpt>
      <trkpt lat="43.811775" lon="5.022165">
        <ele>89.34546</ele>
        <time>2021-06-30T19:56:55Z</time>
      </trkpt>
      <trkpt lat="43.811619" lon="5.022349">
        <ele>89.67175</ele>
        <time>2021-06-30T19:56:56Z</time>
      </trkpt>
      <trkpt lat="43.811466" lon="5.022531">
        <ele>87.79016</ele>
        <time>2021-06-30T19:56:57Z</time>
      </trkpt>
      <trkpt lat="43.811298" lon="5.022730">
        <ele>88.21466</ele>
        <time>2021-06-30T19:56:58Z</time>
      </trkpt>
      <trkpt lat="43.811138" lon="5.022918">
        <ele>89.10382</ele>
        <time>2021-06-30T19:56:59Z</time>
      </trkpt>
      <trkpt lat="43.810966" lon="5.023125">
        <ele>89.85730</ele>
        <time>2021-06-30T19:57:00Z</time>
      </trkpt>
      <trkpt lat="43.810829" lon="5.023286">
        <ele>89.76685</ele>
        <time>2021-06-30T19:57:01Z</time>
      </trkpt>
      <trkpt lat="43.810638" lon="5.023513">
        <ele>91.41510</ele>
        <time>2021-06-30T19:57:02Z</time>
      </trkpt>
      <trkpt lat="43.810463" lon="5.023721">
        <ele>92.44818</ele>
        <time>2021-06-30T19:57:03Z</time>
      </trkpt>
      <trkpt lat="43.810463" lon="5.023721">
        <ele>94.37836</ele>
        <time>2021-06-30T19:57:04Z</time>
      </trkpt>
      <trkpt lat="43.810295" lon="5.023909">
        <ele>92.64941</ele>
        <time>2021-06-30T19:57:05Z</time>
      </trkpt>
      <trkpt lat="43.810146" lon="5.024071">
        <ele>92.53418</ele>
        <time>2021-06-30T19:57:06Z</time>
      </trkpt>
      <trkpt lat="43.810001" lon="5.024233">
        <ele>93.97424</ele>
        <time>2021-06-30T19:57:07Z</time>
      </trkpt>
      <trkpt lat="43.809807" lon="5.024434">
        <ele>94.36340</ele>
        <time>2021-06-30T19:57:08Z</time>
      </trkpt>
      <trkpt lat="43.809643" lon="5.024598">
        <ele>94.26709</ele>
        <time>2021-06-30T19:57:09Z</time>
      </trkpt>
      <trkpt lat="43.809452" lon="5.024784">
        <ele>94.11707</ele>
        <time>2021-06-30T19:57:10Z</time>
      </trkpt>
      <trkpt lat="43.809288" lon="5.024930">
        <ele>92.16400</ele>
        <time>2021-06-30T19:57:11Z</time>
      </trkpt>
      <trkpt lat="43.809101" lon="5.025086">
        <ele>92.21216</ele>
        <time>2021-06-30T19:57:12Z</time>
      </trkpt>
      <trkpt lat="43.808880" lon="5.025217">
        <ele>91.92450</ele>
        <time>2021-06-30T19:57:13Z</time>
      </trkpt>
      <trkpt lat="43.808670" lon="5.025330">
        <ele>90.64386</ele>
        <time>2021-06-30T19:57:14Z</time>
      </trkpt>
      <trkpt lat="43.808460" lon="5.025423">
        <ele>90.57111</ele>
        <time>2021-06-30T19:57:15Z</time>
      </trkpt>
      <trkpt lat="43.808460" lon="5.025423">
        <ele>89.74561</ele>
        <time>2021-06-30T19:57:16Z</time>
      </trkpt>
      <trkpt lat="43.808235" lon="5.025523">
        <ele>89.84772</ele>
        <time>2021-06-30T19:57:17Z</time>
      </trkpt>
      <trkpt lat="43.808033" lon="5.025604">
        <ele>87.48486</ele>
        <time>2021-06-30T19:57:18Z</time>
      </trkpt>
      <trkpt lat="43.807846" lon="5.025674">
        <ele>86.91455</ele>
        <time>2021-06-30T19:57:19Z</time>
      </trkpt>
      <trkpt lat="43.807613" lon="5.025760">
        <ele>84.21906</ele>
        <time>2021-06-30T19:57:20Z</time>
      </trkpt>
      <trkpt lat="43.807369" lon="5.025849">
        <ele>84.02441</ele>
        <time>2021-06-30T19:57:21Z</time>
      </trkpt>
      <trkpt lat="43.807152" lon="5.025915">
        <ele>83.64685</ele>
        <time>2021-06-30T19:57:22Z</time>
      </trkpt>
      <trkpt lat="43.806812" lon="5.026015">
        <ele>83.51782</ele>
        <time>2021-06-30T19:57:23Z</time>
      </trkpt>
      <trkpt lat="43.806469" lon="5.026111">
        <ele>82.61670</ele>
        <time>2021-06-30T19:57:24Z</time>
      </trkpt>
      <trkpt lat="43.806225" lon="5.026171">
        <ele>82.59204</ele>
        <time>2021-06-30T19:57:25Z</time>
      </trkpt>
      <trkpt lat="43.805916" lon="5.026236">
        <ele>82.28851</ele>
        <time>2021-06-30T19:57:26Z</time>
      </trkpt>
      <trkpt lat="43.805595" lon="5.026303">
        <ele>82.90369</ele>
        <time>2021-06-30T19:57:27Z</time>
      </trkpt>
      <trkpt lat="43.805279" lon="5.026370">
        <ele>83.10126</ele>
        <time>2021-06-30T19:57:28Z</time>
      </trkpt>
      <trkpt lat="43.804951" lon="5.026422">
        <ele>79.32324</ele>
        <time>2021-06-30T19:57:29Z</time>
      </trkpt>
      <trkpt lat="43.804680" lon="5.026463">
        <ele>82.20850</ele>
        <time>2021-06-30T19:57:30Z</time>
      </trkpt>
      <trkpt lat="43.804680" lon="5.026463">
        <ele>82.34570</ele>
        <time>2021-06-30T19:57:31Z</time>
      </trkpt>
      <trkpt lat="43.804142" lon="5.026580">
        <ele>81.41919</ele>
        <time>2021-06-30T19:57:32Z</time>
      </trkpt>
      <trkpt lat="43.804142" lon="5.026580">
        <ele>81.20221</ele>
        <time>2021-06-30T19:57:33Z</time>
      </trkpt>
      <trkpt lat="43.803909" lon="5.026630">
        <ele>82.50665</ele>
        <time>2021-06-30T19:57:34Z</time>
      </trkpt>
      <trkpt lat="43.803627" lon="5.026677">
        <ele>82.93079</ele>
        <time>2021-06-30T19:57:35Z</time>
      </trkpt>
      <trkpt lat="43.803375" lon="5.026714">
        <ele>83.76306</ele>
        <time>2021-06-30T19:57:36Z</time>
      </trkpt>
      <trkpt lat="43.803097" lon="5.026736">
        <ele>83.58807</ele>
        <time>2021-06-30T19:57:37Z</time>
      </trkpt>
      <trkpt lat="43.802826" lon="5.026758">
        <ele>83.54803</ele>
        <time>2021-06-30T19:57:38Z</time>
      </trkpt>
      <trkpt lat="43.802517" lon="5.026783">
        <ele>83.61414</ele>
        <time>2021-06-30T19:57:39Z</time>
      </trkpt>
      <trkpt lat="43.802265" lon="5.026803">
        <ele>83.46118</ele>
        <time>2021-06-30T19:57:40Z</time>
      </trkpt>
      <trkpt lat="43.801991" lon="5.026825">
        <ele>83.46283</ele>
        <time>2021-06-30T19:57:41Z</time>
      </trkpt>
      <trkpt lat="43.801682" lon="5.026865">
        <ele>85.83710</ele>
        <time>2021-06-30T19:57:42Z</time>
      </trkpt>
      <trkpt lat="43.801365" lon="5.026935">
        <ele>86.11041</ele>
        <time>2021-06-30T19:57:43Z</time>
      </trkpt>
      <trkpt lat="43.801064" lon="5.027019">
        <ele>80.39099</ele>
        <time>2021-06-30T19:57:44Z</time>
      </trkpt>
      <trkpt lat="43.801064" lon="5.027019">
        <ele>80.40161</ele>
        <time>2021-06-30T19:57:45Z</time>
      </trkpt>
      <trkpt lat="43.800777" lon="5.027121">
        <ele>81.11194</ele>
        <time>2021-06-30T19:57:46Z</time>
      </trkpt>
      <trkpt lat="43.800423" lon="5.027270">
        <ele>82.51624</ele>
        <time>2021-06-30T19:57:47Z</time>
      </trkpt>
      <trkpt lat="43.800110" lon="5.027393">
        <ele>82.87909</ele>
        <time>2021-06-30T19:57:48Z</time>
      </trkpt>
      <trkpt lat="43.799812" lon="5.027510">
        <ele>83.05640</ele>
        <time>2021-06-30T19:57:49Z</time>
      </trkpt>
      <trkpt lat="43.799522" lon="5.027623">
        <ele>83.72040</ele>
        <time>2021-06-30T19:57:50Z</time>
      </trkpt>
      <trkpt lat="43.799236" lon="5.027736">
        <ele>85.13245</ele>
        <time>2021-06-30T19:57:51Z</time>
      </trkpt>
      <trkpt lat="43.798931" lon="5.027862">
        <ele>85.19629</ele>
        <time>2021-06-30T19:57:52Z</time>
      </trkpt>
      <trkpt lat="43.798634" lon="5.027984">
        <ele>85.63403</ele>
        <time>2021-06-30T19:57:53Z</time>
      </trkpt>
      <trkpt lat="43.798309" lon="5.028116">
        <ele>85.93866</ele>
        <time>2021-06-30T19:57:54Z</time>
      </trkpt>
      <trkpt lat="43.798023" lon="5.028232">
        <ele>85.89661</ele>
        <time>2021-06-30T19:57:55Z</time>
      </trkpt>
      <trkpt lat="43.797729" lon="5.028351">
        <ele>85.31696</ele>
        <time>2021-06-30T19:57:56Z</time>
      </trkpt>
      <trkpt lat="43.797421" lon="5.028475">
        <ele>85.20642</ele>
        <time>2021-06-30T19:57:57Z</time>
      </trkpt>
      <trkpt lat="43.797188" lon="5.028571">
        <ele>84.13049</ele>
        <time>2021-06-30T19:57:58Z</time>
      </trkpt>
      <trkpt lat="43.797188" lon="5.028571">
        <ele>84.06091</ele>
        <time>2021-06-30T19:57:59Z</time>
      </trkpt>
      <trkpt lat="43.796913" lon="5.028681">
        <ele>84.82025</ele>
        <time>2021-06-30T19:58:00Z</time>
      </trkpt>
      <trkpt lat="43.796680" lon="5.028775">
        <ele>86.12073</ele>
        <time>2021-06-30T19:58:01Z</time>
      </trkpt>
      <trkpt lat="43.796421" lon="5.028884">
        <ele>86.09845</ele>
        <time>2021-06-30T19:58:02Z</time>
      </trkpt>
      <trkpt lat="43.796234" lon="5.028966">
        <ele>85.97211</ele>
        <time>2021-06-30T19:58:03Z</time>
      </trkpt>
      <trkpt lat="43.795998" lon="5.029078">
        <ele>87.33008</ele>
        <time>2021-06-30T19:58:04Z</time>
      </trkpt>
      <trkpt lat="43.795750" lon="5.029194">
        <ele>87.15997</ele>
        <time>2021-06-30T19:58:05Z</time>
      </trkpt>
      <trkpt lat="43.795589" lon="5.029270">
        <ele>86.40479</ele>
        <time>2021-06-30T19:58:06Z</time>
      </trkpt>
      <trkpt lat="43.795399" lon="5.029365">
        <ele>85.61871</ele>
        <time>2021-06-30T19:58:07Z</time>
      </trkpt>
      <trkpt lat="43.795242" lon="5.029438">
        <ele>84.18994</ele>
        <time>2021-06-30T19:58:08Z</time>
      </trkpt>
      <trkpt lat="43.795033" lon="5.029487">
        <ele>82.75720</ele>
        <time>2021-06-30T19:58:09Z</time>
      </trkpt>
      <trkpt lat="43.794849" lon="5.029480">
        <ele>84.08154</ele>
        <time>2021-06-30T19:58:10Z</time>
      </trkpt>
      <trkpt lat="43.794682" lon="5.029443">
        <ele>84.95178</ele>
        <time>2021-06-30T19:58:11Z</time>
      </trkpt>
      <trkpt lat="43.794682" lon="5.029443">
        <ele>84.56628</ele>
        <time>2021-06-30T19:58:12Z</time>
      </trkpt>
      <trkpt lat="43.794514" lon="5.029401">
        <ele>85.03448</ele>
        <time>2021-06-30T19:58:13Z</time>
      </trkpt>
      <trkpt lat="43.794350" lon="5.029355">
        <ele>86.42859</ele>
        <time>2021-06-30T19:58:14Z</time>
      </trkpt>
      <trkpt lat="43.794205" lon="5.029314">
        <ele>87.07788</ele>
        <time>2021-06-30T19:58:15Z</time>
      </trkpt>
      <trkpt lat="43.794052" lon="5.029270">
        <ele>84.49646</ele>
        <time>2021-06-30T19:58:16Z</time>
      </trkpt>
      <trkpt lat="43.793880" lon="5.029222">
        <ele>84.47620</ele>
        <time>2021-06-30T19:58:17Z</time>
      </trkpt>
      <trkpt lat="43.793713" lon="5.029173">
        <ele>84.61182</ele>
        <time>2021-06-30T19:58:18Z</time>
      </trkpt>
      <trkpt lat="43.793579" lon="5.029135">
        <ele>84.03003</ele>
        <time>2021-06-30T19:58:19Z</time>
      </trkpt>
      <trkpt lat="43.793461" lon="5.029102">
        <ele>82.40112</ele>
        <time>2021-06-30T19:58:20Z</time>
      </trkpt>
      <trkpt lat="43.793358" lon="5.029034">
        <ele>83.83203</ele>
        <time>2021-06-30T19:58:21Z</time>
      </trkpt>
      <trkpt lat="43.793262" lon="5.029007">
        <ele>84.73657</ele>
        <time>2021-06-30T19:58:22Z</time>
      </trkpt>
      <trkpt lat="43.793152" lon="5.028977">
        <ele>86.02002</ele>
        <time>2021-06-30T19:58:23Z</time>
      </trkpt>
      <trkpt lat="43.793152" lon="5.028977">
        <ele>87.53082</ele>
        <time>2021-06-30T19:58:24Z</time>
      </trkpt>
      <trkpt lat="43.793041" lon="5.028949">
        <ele>87.42645</ele>
        <time>2021-06-30T19:58:25Z</time>
      </trkpt>
      <trkpt lat="43.792931" lon="5.028935">
        <ele>85.56854</ele>
        <time>2021-06-30T19:58:26Z</time>
      </trkpt>
      <trkpt lat="43.792831" lon="5.028919">
        <ele>86.25067</ele>
        <time>2021-06-30T19:58:27Z</time>
      </trkpt>
      <trkpt lat="43.792755" lon="5.028830">
        <ele>86.53430</ele>
        <time>2021-06-30T19:58:28Z</time>
      </trkpt>
      <trkpt lat="43.792690" lon="5.028792">
        <ele>87.11462</ele>
        <time>2021-06-30T19:58:29Z</time>
      </trkpt>
      <trkpt lat="43.792618" lon="5.028766">
        <ele>88.53699</ele>
        <time>2021-06-30T19:58:30Z</time>
      </trkpt>
      <trkpt lat="43.792549" lon="5.028775">
        <ele>89.62329</ele>
        <time>2021-06-30T19:58:31Z</time>
      </trkpt>
      <trkpt lat="43.792439" lon="5.028856">
        <ele>88.34144</ele>
        <time>2021-06-30T19:58:32Z</time>
      </trkpt>
      <trkpt lat="43.792377" lon="5.028970">
        <ele>89.08228</ele>
        <time>2021-06-30T19:58:33Z</time>
      </trkpt>
      <trkpt lat="43.792355" lon="5.029106">
        <ele>89.88055</ele>
        <time>2021-06-30T19:58:34Z</time>
      </trkpt>
      <trkpt lat="43.792355" lon="5.029106">
        <ele>90.59814</ele>
        <time>2021-06-30T19:58:35Z</time>
      </trkpt>
      <trkpt lat="43.792381" lon="5.029274">
        <ele>90.93811</ele>
        <time>2021-06-30T19:58:36Z</time>
      </trkpt>
      <trkpt lat="43.792454" lon="5.029429">
        <ele>91.68085</ele>
        <time>2021-06-30T19:58:37Z</time>
      </trkpt>
      <trkpt lat="43.792419" lon="5.029587">
        <ele>92.31213</ele>
        <time>2021-06-30T19:58:38Z</time>
      </trkpt>
      <trkpt lat="43.792351" lon="5.029831">
        <ele>92.73889</ele>
        <time>2021-06-30T19:58:39Z</time>
      </trkpt>
      <trkpt lat="43.792286" lon="5.030050">
        <ele>93.03491</ele>
        <time>2021-06-30T19:58:40Z</time>
      </trkpt>
      <trkpt lat="43.792221" lon="5.030280">
        <ele>92.54297</ele>
        <time>2021-06-30T19:58:41Z</time>
      </trkpt>
      <trkpt lat="43.792145" lon="5.030549">
        <ele>93.45892</ele>
        <time>2021-06-30T19:58:42Z</time>
      </trkpt>
      <trkpt lat="43.792126" lon="5.030718">
        <ele>92.78290</ele>
        <time>2021-06-30T19:58:43Z</time>
      </trkpt>
      <trkpt lat="43.792088" lon="5.030929">
        <ele>92.87628</ele>
        <time>2021-06-30T19:58:44Z</time>
      </trkpt>
      <trkpt lat="43.792049" lon="5.031151">
        <ele>92.89172</ele>
        <time>2021-06-30T19:58:45Z</time>
      </trkpt>
      <trkpt lat="43.792011" lon="5.031390">
        <ele>91.62244</ele>
        <time>2021-06-30T19:58:46Z</time>
      </trkpt>
      <trkpt lat="43.791973" lon="5.031617">
        <ele>90.77972</ele>
        <time>2021-06-30T19:58:47Z</time>
      </trkpt>
      <trkpt lat="43.791939" lon="5.031837">
        <ele>90.58960</ele>
        <time>2021-06-30T19:58:48Z</time>
      </trkpt>
      <trkpt lat="43.791901" lon="5.032061">
        <ele>91.30328</ele>
        <time>2021-06-30T19:58:49Z</time>
      </trkpt>
      <trkpt lat="43.791862" lon="5.032292">
        <ele>92.09851</ele>
        <time>2021-06-30T19:58:50Z</time>
      </trkpt>
      <trkpt lat="43.791862" lon="5.032292">
        <ele>91.92560</ele>
        <time>2021-06-30T19:58:51Z</time>
      </trkpt>
      <trkpt lat="43.791840" lon="5.032431">
        <ele>92.66455</ele>
        <time>2021-06-30T19:58:52Z</time>
      </trkpt>
      <trkpt lat="43.791813" lon="5.032610">
        <ele>92.03003</ele>
        <time>2021-06-30T19:58:53Z</time>
      </trkpt>
      <trkpt lat="43.791779" lon="5.032814">
        <ele>92.15173</ele>
        <time>2021-06-30T19:58:54Z</time>
      </trkpt>
      <trkpt lat="43.791763" lon="5.032891">
        <ele>92.41821</ele>
        <time>2021-06-30T19:58:55Z</time>
      </trkpt>
      <trkpt lat="43.791744" lon="5.033016">
        <ele>89.14734</ele>
        <time>2021-06-30T19:58:56Z</time>
      </trkpt>
      <trkpt lat="43.791725" lon="5.033141">
        <ele>88.76727</ele>
        <time>2021-06-30T19:58:57Z</time>
      </trkpt>
      <trkpt lat="43.791702" lon="5.033286">
        <ele>86.88025</ele>
        <time>2021-06-30T19:58:58Z</time>
      </trkpt>
      <trkpt lat="43.791691" lon="5.033342">
        <ele>87.27289</ele>
        <time>2021-06-30T19:58:59Z</time>
      </trkpt>
      <trkpt lat="43.791668" lon="5.033477">
        <ele>87.21680</ele>
        <time>2021-06-30T19:59:00Z</time>
      </trkpt>
      <trkpt lat="43.791649" lon="5.033603">
        <ele>87.04663</ele>
        <time>2021-06-30T19:59:01Z</time>
      </trkpt>
      <trkpt lat="43.791626" lon="5.033741">
        <ele>87.25879</ele>
        <time>2021-06-30T19:59:02Z</time>
      </trkpt>
      <trkpt lat="43.791603" lon="5.033873">
        <ele>87.18359</ele>
        <time>2021-06-30T19:59:03Z</time>
      </trkpt>
      <trkpt lat="43.791580" lon="5.034004">
        <ele>87.40186</ele>
        <time>2021-06-30T19:59:04Z</time>
      </trkpt>
      <trkpt lat="43.791553" lon="5.034154">
        <ele>87.30206</ele>
        <time>2021-06-30T19:59:05Z</time>
      </trkpt>
      <trkpt lat="43.791527" lon="5.034324">
        <ele>87.40515</ele>
        <time>2021-06-30T19:59:06Z</time>
      </trkpt>
      <trkpt lat="43.791527" lon="5.034324">
        <ele>87.24561</ele>
        <time>2021-06-30T19:59:07Z</time>
      </trkpt>
      <trkpt lat="43.791500" lon="5.034480">
        <ele>83.88574</ele>
        <time>2021-06-30T19:59:08Z</time>
      </trkpt>
      <trkpt lat="43.791470" lon="5.034655">
        <ele>83.84467</ele>
        <time>2021-06-30T19:59:09Z</time>
      </trkpt>
      <trkpt lat="43.791439" lon="5.034814">
        <ele>85.03723</ele>
        <time>2021-06-30T19:59:10Z</time>
      </trkpt>
      <trkpt lat="43.791416" lon="5.034949">
        <ele>86.00897</ele>
        <time>2021-06-30T19:59:11Z</time>
      </trkpt>
      <trkpt lat="43.791405" lon="5.035100">
        <ele>85.43964</ele>
        <time>2021-06-30T19:59:12Z</time>
      </trkpt>
      <trkpt lat="43.791428" lon="5.035215">
        <ele>85.60083</ele>
        <time>2021-06-30T19:59:13Z</time>
      </trkpt>
      <trkpt lat="43.791462" lon="5.035358">
        <ele>85.54333</ele>
        <time>2021-06-30T19:59:14Z</time>
      </trkpt>
      <trkpt lat="43.791527" lon="5.035562">
        <ele>85.17078</ele>
        <time>2021-06-30T19:59:15Z</time>
      </trkpt>
      <trkpt lat="43.791573" lon="5.035730">
        <ele>84.79260</ele>
        <time>2021-06-30T19:59:16Z</time>
      </trkpt>
      <trkpt lat="43.791622" lon="5.035913">
        <ele>85.39221</ele>
        <time>2021-06-30T19:59:17Z</time>
      </trkpt>
      <trkpt lat="43.791664" lon="5.036063">
        <ele>85.29022</ele>
        <time>2021-06-30T19:59:18Z</time>
      </trkpt>
      <trkpt lat="43.791702" lon="5.036197">
        <ele>86.07562</ele>
        <time>2021-06-30T19:59:19Z</time>
      </trkpt>
      <trkpt lat="43.791740" lon="5.036334">
        <ele>86.07562</ele>
        <time>2021-06-30T19:59:20Z</time>
      </trkpt>
      <trkpt lat="43.791740" lon="5.036334">
        <ele>86.94092</ele>
        <time>2021-06-30T19:59:21Z</time>
      </trkpt>
      <trkpt lat="43.791775" lon="5.036449">
        <ele>86.93781</ele>
        <time>2021-06-30T19:59:22Z</time>
      </trkpt>
      <trkpt lat="43.791805" lon="5.036560">
        <ele>86.66919</ele>
        <time>2021-06-30T19:59:23Z</time>
      </trkpt>
      <trkpt lat="43.791843" lon="5.036685">
        <ele>86.64612</ele>
        <time>2021-06-30T19:59:24Z</time>
      </trkpt>
      <trkpt lat="43.791878" lon="5.036795">
        <ele>86.60449</ele>
        <time>2021-06-30T19:59:25Z</time>
      </trkpt>
      <trkpt lat="43.791908" lon="5.036900">
        <ele>86.94171</ele>
        <time>2021-06-30T19:59:26Z</time>
      </trkpt>
      <trkpt lat="43.791943" lon="5.037026">
        <ele>86.94171</ele>
        <time>2021-06-30T19:59:27Z</time>
      </trkpt>
      <trkpt lat="43.791973" lon="5.037155">
        <ele>86.11029</ele>
        <time>2021-06-30T19:59:28Z</time>
      </trkpt>
      <trkpt lat="43.792000" lon="5.037280">
        <ele>85.82483</ele>
        <time>2021-06-30T19:59:29Z</time>
      </trkpt>
      <trkpt lat="43.792023" lon="5.037437">
        <ele>85.66882</ele>
        <time>2021-06-30T19:59:30Z</time>
      </trkpt>
      <trkpt lat="43.792046" lon="5.037589">
        <ele>86.59961</ele>
        <time>2021-06-30T19:59:31Z</time>
      </trkpt>
      <trkpt lat="43.792057" lon="5.037744">
        <ele>86.67523</ele>
        <time>2021-06-30T19:59:32Z</time>
      </trkpt>
      <trkpt lat="43.792061" lon="5.037960">
        <ele>84.84003</ele>
        <time>2021-06-30T19:59:33Z</time>
      </trkpt>
      <trkpt lat="43.792065" lon="5.038112">
        <ele>85.09741</ele>
        <time>2021-06-30T19:59:34Z</time>
      </trkpt>
      <trkpt lat="43.792065" lon="5.038112">
        <ele>85.29169</ele>
        <time>2021-06-30T19:59:35Z</time>
      </trkpt>
      <trkpt lat="43.792065" lon="5.038233">
        <ele>85.29169</ele>
        <time>2021-06-30T19:59:36Z</time>
      </trkpt>
      <trkpt lat="43.792057" lon="5.038392">
        <ele>84.61133</ele>
        <time>2021-06-30T19:59:37Z</time>
      </trkpt>
      <trkpt lat="43.792046" lon="5.038584">
        <ele>84.40747</ele>
        <time>2021-06-30T19:59:38Z</time>
      </trkpt>
      <trkpt lat="43.792038" lon="5.038748">
        <ele>84.84277</ele>
        <time>2021-06-30T19:59:39Z</time>
      </trkpt>
      <trkpt lat="43.792023" lon="5.038908">
        <ele>83.34802</ele>
        <time>2021-06-30T19:59:40Z</time>
      </trkpt>
      <trkpt lat="43.792011" lon="5.039038">
        <ele>83.34802</ele>
        <time>2021-06-30T19:59:41Z</time>
      </trkpt>
      <trkpt lat="43.791988" lon="5.039179">
        <ele>86.07605</ele>
        <time>2021-06-30T19:59:42Z</time>
      </trkpt>
      <trkpt lat="43.791965" lon="5.039312">
        <ele>86.42139</ele>
        <time>2021-06-30T19:59:43Z</time>
      </trkpt>
      <trkpt lat="43.791950" lon="5.039414">
        <ele>86.78894</ele>
        <time>2021-06-30T19:59:44Z</time>
      </trkpt>
      <trkpt lat="43.791927" lon="5.039540">
        <ele>84.25787</ele>
        <time>2021-06-30T19:59:45Z</time>
      </trkpt>
      <trkpt lat="43.791904" lon="5.039672">
        <ele>80.21631</ele>
        <time>2021-06-30T19:59:46Z</time>
      </trkpt>
      <trkpt lat="43.791904" lon="5.039672">
        <ele>79.83130</ele>
        <time>2021-06-30T19:59:47Z</time>
      </trkpt>
      <trkpt lat="43.791885" lon="5.039795">
        <ele>81.40021</ele>
        <time>2021-06-30T19:59:48Z</time>
      </trkpt>
      <trkpt lat="43.791862" lon="5.039929">
        <ele>81.41370</ele>
        <time>2021-06-30T19:59:49Z</time>
      </trkpt>
      <trkpt lat="43.791840" lon="5.040068">
        <ele>80.94244</ele>
        <time>2021-06-30T19:59:50Z</time>
      </trkpt>
      <trkpt lat="43.791821" lon="5.040200">
        <ele>80.93304</ele>
        <time>2021-06-30T19:59:51Z</time>
      </trkpt>
      <trkpt lat="43.791805" lon="5.040295">
        <ele>82.07135</ele>
        <time>2021-06-30T19:59:52Z</time>
      </trkpt>
      <trkpt lat="43.791790" lon="5.040385">
        <ele>81.62561</ele>
        <time>2021-06-30T19:59:53Z</time>
      </trkpt>
      <trkpt lat="43.791775" lon="5.040507">
        <ele>82.20056</ele>
        <time>2021-06-30T19:59:54Z</time>
      </trkpt>
      <trkpt lat="43.791759" lon="5.040591">
        <ele>82.22369</ele>
        <time>2021-06-30T19:59:55Z</time>
      </trkpt>
      <trkpt lat="43.791744" lon="5.040681">
        <ele>83.04523</ele>
        <time>2021-06-30T19:59:56Z</time>
      </trkpt>
      <trkpt lat="43.791714" lon="5.040866">
        <ele>83.13599</ele>
        <time>2021-06-30T19:59:57Z</time>
      </trkpt>
      <trkpt lat="43.791679" lon="5.041024">
        <ele>84.60425</ele>
        <time>2021-06-30T19:59:58Z</time>
      </trkpt>
      <trkpt lat="43.791679" lon="5.041024">
        <ele>82.31268</ele>
        <time>2021-06-30T19:59:59Z</time>
      </trkpt>
      <trkpt lat="43.791637" lon="5.041158">
        <ele>82.23187</ele>
        <time>2021-06-30T20:00:00Z</time>
      </trkpt>
      <trkpt lat="43.791599" lon="5.041267">
        <ele>82.70081</ele>
        <time>2021-06-30T20:00:01Z</time>
      </trkpt>
      <trkpt lat="43.791534" lon="5.041430">
        <ele>82.63898</ele>
        <time>2021-06-30T20:00:02Z</time>
      </trkpt>
      <trkpt lat="43.791466" lon="5.041587">
        <ele>82.45044</ele>
        <time>2021-06-30T20:00:03Z</time>
      </trkpt>
      <trkpt lat="43.791374" lon="5.041789">
        <ele>82.37561</ele>
        <time>2021-06-30T20:00:04Z</time>
      </trkpt>
      <trkpt lat="43.791317" lon="5.041913">
        <ele>82.32574</ele>
        <time>2021-06-30T20:00:05Z</time>
      </trkpt>
      <trkpt lat="43.791248" lon="5.042060">
        <ele>82.25159</ele>
        <time>2021-06-30T20:00:06Z</time>
      </trkpt>
      <trkpt lat="43.791172" lon="5.042222">
        <ele>81.99030</ele>
        <time>2021-06-30T20:00:07Z</time>
      </trkpt>
      <trkpt lat="43.791092" lon="5.042383">
        <ele>82.64972</ele>
        <time>2021-06-30T20:00:08Z</time>
      </trkpt>
      <trkpt lat="43.791031" lon="5.042505">
        <ele>81.34265</ele>
        <time>2021-06-30T20:00:09Z</time>
      </trkpt>
      <trkpt lat="43.790993" lon="5.042570">
        <ele>81.83728</ele>
        <time>2021-06-30T20:00:10Z</time>
      </trkpt>
      <trkpt lat="43.790970" lon="5.042614">
        <ele>82.87781</ele>
        <time>2021-06-30T20:00:11Z</time>
      </trkpt>
      <trkpt lat="43.790916" lon="5.042707">
        <ele>83.08026</ele>
        <time>2021-06-30T20:00:12Z</time>
      </trkpt>
      <trkpt lat="43.790916" lon="5.042707">
        <ele>83.94000</ele>
        <time>2021-06-30T20:00:13Z</time>
      </trkpt>
      <trkpt lat="43.790871" lon="5.042791">
        <ele>84.11755</ele>
        <time>2021-06-30T20:00:14Z</time>
      </trkpt>
      <trkpt lat="43.790817" lon="5.042879">
        <ele>84.40369</ele>
        <time>2021-06-30T20:00:15Z</time>
      </trkpt>
      <trkpt lat="43.790756" lon="5.042978">
        <ele>84.38226</ele>
        <time>2021-06-30T20:00:16Z</time>
      </trkpt>
      <trkpt lat="43.790699" lon="5.043068">
        <ele>84.38226</ele>
        <time>2021-06-30T20:00:17Z</time>
      </trkpt>
      <trkpt lat="43.790638" lon="5.043168">
        <ele>82.69373</ele>
        <time>2021-06-30T20:00:18Z</time>
      </trkpt>
      <trkpt lat="43.790588" lon="5.043247">
        <ele>82.81140</ele>
        <time>2021-06-30T20:00:19Z</time>
      </trkpt>
      <trkpt lat="43.790489" lon="5.043406">
        <ele>82.77740</ele>
        <time>2021-06-30T20:00:20Z</time>
      </trkpt>
      <trkpt lat="43.790398" lon="5.043548">
        <ele>82.94226</ele>
        <time>2021-06-30T20:00:21Z</time>
      </trkpt>
      <trkpt lat="43.790302" lon="5.043693">
        <ele>82.79437</ele>
        <time>2021-06-30T20:00:22Z</time>
      </trkpt>
      <trkpt lat="43.790222" lon="5.043810">
        <ele>83.75690</ele>
        <time>2021-06-30T20:00:23Z</time>
      </trkpt>
      <trkpt lat="43.790062" lon="5.044016">
        <ele>84.01440</ele>
        <time>2021-06-30T20:00:24Z</time>
      </trkpt>
      <trkpt lat="43.789925" lon="5.044179">
        <ele>84.69836</ele>
        <time>2021-06-30T20:00:25Z</time>
      </trkpt>
      <trkpt lat="43.789768" lon="5.044359">
        <ele>84.84021</ele>
        <time>2021-06-30T20:00:26Z</time>
      </trkpt>
      <trkpt lat="43.789608" lon="5.044542">
        <ele>84.98395</ele>
        <time>2021-06-30T20:00:27Z</time>
      </trkpt>
      <trkpt lat="43.789608" lon="5.044542">
        <ele>86.42877</ele>
        <time>2021-06-30T20:00:28Z</time>
      </trkpt>
      <trkpt lat="43.789371" lon="5.044778">
        <ele>87.94714</ele>
        <time>2021-06-30T20:00:29Z</time>
      </trkpt>
      <trkpt lat="43.789192" lon="5.044954">
        <ele>89.91992</ele>
        <time>2021-06-30T20:00:30Z</time>
      </trkpt>
      <trkpt lat="43.788910" lon="5.045229">
        <ele>90.44910</ele>
        <time>2021-06-30T20:00:31Z</time>
      </trkpt>
      <trkpt lat="43.788731" lon="5.045398">
        <ele>87.93762</ele>
        <time>2021-06-30T20:00:32Z</time>
      </trkpt>
      <trkpt lat="43.788498" lon="5.045612">
        <ele>88.54407</ele>
        <time>2021-06-30T20:00:33Z</time>
      </trkpt>
      <trkpt lat="43.788277" lon="5.045807">
        <ele>89.29773</ele>
        <time>2021-06-30T20:00:34Z</time>
      </trkpt>
      <trkpt lat="43.788036" lon="5.046008">
        <ele>86.93945</ele>
        <time>2021-06-30T20:00:35Z</time>
      </trkpt>
      <trkpt lat="43.787811" lon="5.046190">
        <ele>84.00354</ele>
        <time>2021-06-30T20:00:36Z</time>
      </trkpt>
      <trkpt lat="43.787590" lon="5.046353">
        <ele>81.43878</ele>
        <time>2021-06-30T20:00:37Z</time>
      </trkpt>
      <trkpt lat="43.787361" lon="5.046519">
        <ele>80.30328</ele>
        <time>2021-06-30T20:00:38Z</time>
      </trkpt>
      <trkpt lat="43.787167" lon="5.046667">
        <ele>79.54163</ele>
        <time>2021-06-30T20:00:39Z</time>
      </trkpt>
      <trkpt lat="43.786964" lon="5.046821">
        <ele>79.60388</ele>
        <time>2021-06-30T20:00:40Z</time>
      </trkpt>
      <trkpt lat="43.786789" lon="5.046953">
        <ele>79.23962</ele>
        <time>2021-06-30T20:00:41Z</time>
      </trkpt>
      <trkpt lat="43.786789" lon="5.046953">
        <ele>79.93427</ele>
        <time>2021-06-30T20:00:42Z</time>
      </trkpt>
      <trkpt lat="43.786610" lon="5.047088">
        <ele>78.31592</ele>
        <time>2021-06-30T20:00:43Z</time>
      </trkpt>
      <trkpt lat="43.786423" lon="5.047231">
        <ele>77.31061</ele>
        <time>2021-06-30T20:00:44Z</time>
      </trkpt>
      <trkpt lat="43.786228" lon="5.047377">
        <ele>77.17499</ele>
        <time>2021-06-30T20:00:45Z</time>
      </trkpt>
      <trkpt lat="43.786037" lon="5.047516">
        <ele>77.30035</ele>
        <time>2021-06-30T20:00:46Z</time>
      </trkpt>
      <trkpt lat="43.785824" lon="5.047674">
        <ele>77.83386</ele>
        <time>2021-06-30T20:00:47Z</time>
      </trkpt>
      <trkpt lat="43.785606" lon="5.047829">
        <ele>81.40710</ele>
        <time>2021-06-30T20:00:48Z</time>
      </trkpt>
      <trkpt lat="43.785362" lon="5.047995">
        <ele>80.62036</ele>
        <time>2021-06-30T20:00:49Z</time>
      </trkpt>
      <trkpt lat="43.785130" lon="5.048149">
        <ele>81.83649</ele>
        <time>2021-06-30T20:00:50Z</time>
      </trkpt>
      <trkpt lat="43.784901" lon="5.048299">
        <ele>81.83649</ele>
        <time>2021-06-30T20:00:51Z</time>
      </trkpt>
      <trkpt lat="43.784584" lon="5.048508">
        <ele>82.98035</ele>
        <time>2021-06-30T20:00:52Z</time>
      </trkpt>
      <trkpt lat="43.784351" lon="5.048659">
        <ele>84.81049</ele>
        <time>2021-06-30T20:00:53Z</time>
      </trkpt>
      <trkpt lat="43.784092" lon="5.048831">
        <ele>84.87463</ele>
        <time>2021-06-30T20:00:54Z</time>
      </trkpt>
      <trkpt lat="43.783775" lon="5.049042">
        <ele>82.33008</ele>
        <time>2021-06-30T20:00:55Z</time>
      </trkpt>
      <trkpt lat="43.783504" lon="5.049224">
        <ele>81.63733</ele>
        <time>2021-06-30T20:00:56Z</time>
      </trkpt>
      <trkpt lat="43.783504" lon="5.049224">
        <ele>82.84802</ele>
        <time>2021-06-30T20:00:57Z</time>
      </trkpt>
      <trkpt lat="43.783218" lon="5.049417">
        <ele>83.43835</ele>
        <time>2021-06-30T20:00:58Z</time>
      </trkpt>
      <trkpt lat="43.782951" lon="5.049598">
        <ele>82.94202</ele>
        <time>2021-06-30T20:00:59Z</time>
      </trkpt>
      <trkpt lat="43.782658" lon="5.049795">
        <ele>82.68335</ele>
        <time>2021-06-30T20:01:00Z</time>
      </trkpt>
      <trkpt lat="43.782345" lon="5.050005">
        <ele>82.55066</ele>
        <time>2021-06-30T20:01:01Z</time>
      </trkpt>
      <trkpt lat="43.782055" lon="5.050201">
        <ele>82.43408</ele>
        <time>2021-06-30T20:01:02Z</time>
      </trkpt>
      <trkpt lat="43.781761" lon="5.050396">
        <ele>82.92590</ele>
        <time>2021-06-30T20:01:03Z</time>
      </trkpt>
      <trkpt lat="43.781452" lon="5.050606">
        <ele>82.64978</ele>
        <time>2021-06-30T20:01:04Z</time>
      </trkpt>
      <trkpt lat="43.781189" lon="5.050785">
        <ele>83.21442</ele>
        <time>2021-06-30T20:01:05Z</time>
      </trkpt>
      <trkpt lat="43.780895" lon="5.050985">
        <ele>81.28210</ele>
        <time>2021-06-30T20:01:06Z</time>
      </trkpt>
      <trkpt lat="43.780567" lon="5.051209">
        <ele>80.16333</ele>
        <time>2021-06-30T20:01:07Z</time>
      </trkpt>
      <trkpt lat="43.780266" lon="5.051414">
        <ele>79.76062</ele>
        <time>2021-06-30T20:01:08Z</time>
      </trkpt>
      <trkpt lat="43.780266" lon="5.051414">
        <ele>79.51141</ele>
        <time>2021-06-30T20:01:09Z</time>
      </trkpt>
      <trkpt lat="43.779980" lon="5.051609">
        <ele>79.73865</ele>
        <time>2021-06-30T20:01:10Z</time>
      </trkpt>
      <trkpt lat="43.779682" lon="5.051812">
        <ele>80.35999</ele>
        <time>2021-06-30T20:01:11Z</time>
      </trkpt>
      <trkpt lat="43.779354" lon="5.052032">
        <ele>80.98883</ele>
        <time>2021-06-30T20:01:12Z</time>
      </trkpt>
      <trkpt lat="43.779079" lon="5.052216">
        <ele>81.42480</ele>
        <time>2021-06-30T20:01:13Z</time>
      </trkpt>
      <trkpt lat="43.778778" lon="5.052415">
        <ele>82.37256</ele>
        <time>2021-06-30T20:01:14Z</time>
      </trkpt>
      <trkpt lat="43.778439" lon="5.052641">
        <ele>82.21741</ele>
        <time>2021-06-30T20:01:15Z</time>
      </trkpt>
      <trkpt lat="43.778137" lon="5.052841">
        <ele>81.58167</ele>
        <time>2021-06-30T20:01:16Z</time>
      </trkpt>
      <trkpt lat="43.777855" lon="5.053028">
        <ele>82.37708</ele>
        <time>2021-06-30T20:01:17Z</time>
      </trkpt>
      <trkpt lat="43.777546" lon="5.053232">
        <ele>84.19501</ele>
        <time>2021-06-30T20:01:18Z</time>
      </trkpt>
      <trkpt lat="43.777233" lon="5.053440">
        <ele>84.04150</ele>
        <time>2021-06-30T20:01:19Z</time>
      </trkpt>
      <trkpt lat="43.776951" lon="5.053626">
        <ele>84.14441</ele>
        <time>2021-06-30T20:01:20Z</time>
      </trkpt>
      <trkpt lat="43.776951" lon="5.053626">
        <ele>84.07654</ele>
        <time>2021-06-30T20:01:21Z</time>
      </trkpt>
      <trkpt lat="43.776684" lon="5.053802">
        <ele>83.97491</ele>
        <time>2021-06-30T20:01:22Z</time>
      </trkpt>
      <trkpt lat="43.776451" lon="5.053954">
        <ele>84.02246</ele>
        <time>2021-06-30T20:01:23Z</time>
      </trkpt>
      <trkpt lat="43.776215" lon="5.054107">
        <ele>85.08374</ele>
        <time>2021-06-30T20:01:24Z</time>
      </trkpt>
      <trkpt lat="43.775936" lon="5.054288">
        <ele>85.12738</ele>
        <time>2021-06-30T20:01:25Z</time>
      </trkpt>
      <trkpt lat="43.775661" lon="5.054467">
        <ele>83.84668</ele>
        <time>2021-06-30T20:01:26Z</time>
      </trkpt>
      <trkpt lat="43.775394" lon="5.054639">
        <ele>83.73676</ele>
        <time>2021-06-30T20:01:27Z</time>
      </trkpt>
      <trkpt lat="43.775112" lon="5.054823">
        <ele>81.73596</ele>
        <time>2021-06-30T20:01:28Z</time>
      </trkpt>
      <trkpt lat="43.774876" lon="5.054977">
        <ele>80.92694</ele>
        <time>2021-06-30T20:01:29Z</time>
      </trkpt>
      <trkpt lat="43.774635" lon="5.055133">
        <ele>80.12177</ele>
        <time>2021-06-30T20:01:30Z</time>
      </trkpt>
      <trkpt lat="43.774433" lon="5.055264">
        <ele>80.20044</ele>
        <time>2021-06-30T20:01:31Z</time>
      </trkpt>
      <trkpt lat="43.774235" lon="5.055392">
        <ele>80.49237</ele>
        <time>2021-06-30T20:01:32Z</time>
      </trkpt>
      <trkpt lat="43.774021" lon="5.055530">
        <ele>80.48505</ele>
        <time>2021-06-30T20:01:33Z</time>
      </trkpt>
      <trkpt lat="43.773842" lon="5.055647">
        <ele>80.93439</ele>
        <time>2021-06-30T20:01:34Z</time>
      </trkpt>
      <trkpt lat="43.773678" lon="5.055753">
        <ele>81.78571</ele>
        <time>2021-06-30T20:01:35Z</time>
      </trkpt>
      <trkpt lat="43.773678" lon="5.055753">
        <ele>83.89490</ele>
        <time>2021-06-30T20:01:36Z</time>
      </trkpt>
      <trkpt lat="43.773460" lon="5.055896">
        <ele>83.89490</ele>
        <time>2021-06-30T20:01:37Z</time>
      </trkpt>
      <trkpt lat="43.773258" lon="5.056028">
        <ele>83.23792</ele>
        <time>2021-06-30T20:01:38Z</time>
      </trkpt>
      <trkpt lat="43.773067" lon="5.056150">
        <ele>81.94464</ele>
        <time>2021-06-30T20:01:39Z</time>
      </trkpt>
      <trkpt lat="43.772865" lon="5.056281">
        <ele>80.69946</ele>
        <time>2021-06-30T20:01:40Z</time>
      </trkpt>
      <trkpt lat="43.772682" lon="5.056405">
        <ele>80.68188</ele>
        <time>2021-06-30T20:01:41Z</time>
      </trkpt>
      <trkpt lat="43.772610" lon="5.056454">
        <ele>81.75391</ele>
        <time>2021-06-30T20:01:42Z</time>
      </trkpt>
      <trkpt lat="43.772400" lon="5.056574">
        <ele>82.00543</ele>
        <time>2021-06-30T20:01:43Z</time>
      </trkpt>
      <trkpt lat="43.772228" lon="5.056679">
        <ele>81.60663</ele>
        <time>2021-06-30T20:01:44Z</time>
      </trkpt>
      <trkpt lat="43.772099" lon="5.056760">
        <ele>81.41260</ele>
        <time>2021-06-30T20:01:45Z</time>
      </trkpt>
      <trkpt lat="43.771957" lon="5.056847">
        <ele>80.98730</ele>
        <time>2021-06-30T20:01:46Z</time>
      </trkpt>
      <trkpt lat="43.771816" lon="5.056934">
        <ele>80.92670</ele>
        <time>2021-06-30T20:01:47Z</time>
      </trkpt>
      <trkpt lat="43.771671" lon="5.057027">
        <ele>81.61072</ele>
        <time>2021-06-30T20:01:48Z</time>
      </trkpt>
      <trkpt lat="43.771534" lon="5.057110">
        <ele>81.04834</ele>
        <time>2021-06-30T20:01:49Z</time>
      </trkpt>
      <trkpt lat="43.771534" lon="5.057110">
        <ele>80.85571</ele>
        <time>2021-06-30T20:01:50Z</time>
      </trkpt>
      <trkpt lat="43.771412" lon="5.057187">
        <ele>80.25049</ele>
        <time>2021-06-30T20:01:51Z</time>
      </trkpt>
      <trkpt lat="43.771297" lon="5.057261">
        <ele>80.93066</ele>
        <time>2021-06-30T20:01:52Z</time>
      </trkpt>
      <trkpt lat="43.771187" lon="5.057340">
        <ele>81.57251</ele>
        <time>2021-06-30T20:01:53Z</time>
      </trkpt>
      <trkpt lat="43.771084" lon="5.057412">
        <ele>82.52942</ele>
        <time>2021-06-30T20:01:54Z</time>
      </trkpt>
      <trkpt lat="43.771004" lon="5.057471">
        <ele>82.73627</ele>
        <time>2021-06-30T20:01:55Z</time>
      </trkpt>
      <trkpt lat="43.770901" lon="5.057545">
        <ele>83.72656</ele>
        <time>2021-06-30T20:01:56Z</time>
      </trkpt>
      <trkpt lat="43.770805" lon="5.057612">
        <ele>83.67834</ele>
        <time>2021-06-30T20:01:57Z</time>
      </trkpt>
      <trkpt lat="43.770737" lon="5.057405">
        <ele>84.44501</ele>
        <time>2021-06-30T20:01:58Z</time>
      </trkpt>
      <trkpt lat="43.770706" lon="5.057331">
        <ele>85.39526</ele>
        <time>2021-06-30T20:01:59Z</time>
      </trkpt>
      <trkpt lat="43.770695" lon="5.057300">
        <ele>83.85034</ele>
        <time>2021-06-30T20:02:00Z</time>
      </trkpt>
      <trkpt lat="43.770679" lon="5.057269">
        <ele>84.37445</ele>
        <time>2021-06-30T20:02:01Z</time>
      </trkpt>
      <trkpt lat="43.770679" lon="5.057269">
        <ele>84.26611</ele>
        <time>2021-06-30T20:02:02Z</time>
      </trkpt>
      <trkpt lat="43.770672" lon="5.057251">
        <ele>82.85931</ele>
        <time>2021-06-30T20:02:03Z</time>
      </trkpt>
      <trkpt lat="43.770672" lon="5.057251">
        <ele>82.90088</ele>
        <time>2021-06-30T20:02:04Z</time>
      </trkpt>
      <trkpt lat="43.770672" lon="5.057251">
        <ele>81.83044</ele>
        <time>2021-06-30T20:02:05Z</time>
      </trkpt>
      <trkpt lat="43.770672" lon="5.057251">
        <ele>81.70319</ele>
        <time>2021-06-30T20:02:06Z</time>
      </trkpt>
      <trkpt lat="43.770672" lon="5.057251">
        <ele>81.55463</ele>
        <time>2021-06-30T20:02:07Z</time>
      </trkpt>
      <trkpt lat="43.770672" lon="5.057251">
        <ele>80.35956</ele>
        <time>2021-06-30T20:02:08Z</time>
      </trkpt>
      <trkpt lat="43.770672" lon="5.057251">
        <ele>81.07990</ele>
        <time>2021-06-30T20:02:09Z</time>
      </trkpt>
      <trkpt lat="43.770672" lon="5.057251">
        <ele>80.29950</ele>
        <time>2021-06-30T20:02:10Z</time>
      </trkpt>
      <trkpt lat="43.770672" lon="5.057251">
        <ele>80.72363</ele>
        <time>2021-06-30T20:02:11Z</time>
      </trkpt>
      <trkpt lat="43.770672" lon="5.057251">
        <ele>81.44958</ele>
        <time>2021-06-30T20:02:12Z</time>
      </trkpt>
      <trkpt lat="43.770672" lon="5.057251">
        <ele>81.01904</ele>
        <time>2021-06-30T20:02:13Z</time>
      </trkpt>
      <trkpt lat="43.770672" lon="5.057251">
        <ele>82.13478</ele>
        <time>2021-06-30T20:02:14Z</time>
      </trkpt>
      <trkpt lat="43.770672" lon="5.057251">
        <ele>82.19068</ele>
        <time>2021-06-30T20:02:15Z</time>
      </trkpt>
      <trkpt lat="43.770672" lon="5.057251">
        <ele>81.65997</ele>
        <time>2021-06-30T20:02:16Z</time>
      </trkpt>
      <trkpt lat="43.770672" lon="5.057251">
        <ele>81.41888</ele>
        <time>2021-06-30T20:02:17Z</time>
      </trkpt>
      <trkpt lat="43.770672" lon="5.057251">
        <ele>81.77679</ele>
        <time>2021-06-30T20:02:18Z</time>
      </trkpt>
      <trkpt lat="43.770672" lon="5.057251">
        <ele>81.05286</ele>
        <time>2021-06-30T20:02:19Z</time>
      </trkpt>
      <trkpt lat="43.770672" lon="5.057251">
        <ele>81.13165</ele>
        <time>2021-06-30T20:02:20Z</time>
      </trkpt>
      <trkpt lat="43.770672" lon="5.057251">
        <ele>80.31525</ele>
        <time>2021-06-30T20:02:21Z</time>
      </trkpt>
      <trkpt lat="43.770672" lon="5.057251">
        <ele>79.61096</ele>
        <time>2021-06-30T20:02:22Z</time>
      </trkpt>
      <trkpt lat="43.770672" lon="5.057251">
        <ele>79.63171</ele>
        <time>2021-06-30T20:02:23Z</time>
      </trkpt>
      <trkpt lat="43.770672" lon="5.057251">
        <ele>81.94125</ele>
        <time>2021-06-30T20:02:24Z</time>
      </trkpt>
      <trkpt lat="43.770672" lon="5.057251">
        <ele>81.96280</ele>
        <time>2021-06-30T20:02:25Z</time>
      </trkpt>
      <trkpt lat="43.770672" lon="5.057251">
        <ele>81.92445</ele>
        <time>2021-06-30T20:02:26Z</time>
      </trkpt>
      <trkpt lat="43.770672" lon="5.057251">
        <ele>80.61615</ele>
        <time>2021-06-30T20:02:27Z</time>
      </trkpt>
      <trkpt lat="43.770672" lon="5.057251">
        <ele>80.36841</ele>
        <time>2021-06-30T20:02:28Z</time>
      </trkpt>
      <trkpt lat="43.770672" lon="5.057251">
        <ele>80.20251</ele>
        <time>2021-06-30T20:02:29Z</time>
      </trkpt>
      <trkpt lat="43.770672" lon="5.057251">
        <ele>80.92981</ele>
        <time>2021-06-30T20:02:30Z</time>
      </trkpt>
      <trkpt lat="43.770672" lon="5.057251">
        <ele>80.54327</ele>
        <time>2021-06-30T20:02:31Z</time>
      </trkpt>
      <trkpt lat="43.770672" lon="5.057251">
        <ele>80.34863</ele>
        <time>2021-06-30T20:02:32Z</time>
      </trkpt>
      <trkpt lat="43.770668" lon="5.057239">
        <ele>80.22791</ele>
        <time>2021-06-30T20:02:33Z</time>
      </trkpt>
      <trkpt lat="43.770638" lon="5.057164">
        <ele>80.48181</ele>
        <time>2021-06-30T20:02:34Z</time>
      </trkpt>
      <trkpt lat="43.770599" lon="5.057074">
        <ele>80.08551</ele>
        <time>2021-06-30T20:02:35Z</time>
      </trkpt>
      <trkpt lat="43.770554" lon="5.056966">
        <ele>79.90417</ele>
        <time>2021-06-30T20:02:36Z</time>
      </trkpt>
      <trkpt lat="43.770500" lon="5.056839">
        <ele>80.39697</ele>
        <time>2021-06-30T20:02:37Z</time>
      </trkpt>
      <trkpt lat="43.770500" lon="5.056839">
        <ele>81.00116</ele>
        <time>2021-06-30T20:02:38Z</time>
      </trkpt>
      <trkpt lat="43.770443" lon="5.056696">
        <ele>81.28906</ele>
        <time>2021-06-30T20:02:39Z</time>
      </trkpt>
      <trkpt lat="43.770401" lon="5.056599">
        <ele>81.04700</ele>
        <time>2021-06-30T20:02:40Z</time>
      </trkpt>
      <trkpt lat="43.770363" lon="5.056501">
        <ele>80.51562</ele>
        <time>2021-06-30T20:02:41Z</time>
      </trkpt>
      <trkpt lat="43.770321" lon="5.056392">
        <ele>80.84991</ele>
        <time>2021-06-30T20:02:42Z</time>
      </trkpt>
      <trkpt lat="43.770267" lon="5.056273">
        <ele>80.56110</ele>
        <time>2021-06-30T20:02:43Z</time>
      </trkpt>
      <trkpt lat="43.770229" lon="5.056170">
        <ele>80.71484</ele>
        <time>2021-06-30T20:02:44Z</time>
      </trkpt>
      <trkpt lat="43.770168" lon="5.056013">
        <ele>80.01544</ele>
        <time>2021-06-30T20:02:45Z</time>
      </trkpt>
      <trkpt lat="43.770111" lon="5.055881">
        <ele>79.83356</ele>
        <time>2021-06-30T20:02:46Z</time>
      </trkpt>
      <trkpt lat="43.770069" lon="5.055780">
        <ele>79.83997</ele>
        <time>2021-06-30T20:02:47Z</time>
      </trkpt>
      <trkpt lat="43.769981" lon="5.055544">
        <ele>79.23871</ele>
        <time>2021-06-30T20:02:48Z</time>
      </trkpt>
      <trkpt lat="43.769882" lon="5.055302">
        <ele>78.14270</ele>
        <time>2021-06-30T20:02:49Z</time>
      </trkpt>
      <trkpt lat="43.769791" lon="5.055092">
        <ele>78.04407</ele>
        <time>2021-06-30T20:02:50Z</time>
      </trkpt>
      <trkpt lat="43.769791" lon="5.055092">
        <ele>78.22668</ele>
        <time>2021-06-30T20:02:51Z</time>
      </trkpt>
      <trkpt lat="43.769722" lon="5.054938">
        <ele>78.22510</ele>
        <time>2021-06-30T20:02:52Z</time>
      </trkpt>
      <trkpt lat="43.769642" lon="5.054765">
        <ele>78.29779</ele>
        <time>2021-06-30T20:02:53Z</time>
      </trkpt>
      <trkpt lat="43.769554" lon="5.054610">
        <ele>76.96832</ele>
        <time>2021-06-30T20:02:54Z</time>
      </trkpt>
      <trkpt lat="43.769470" lon="5.054465">
        <ele>77.27179</ele>
        <time>2021-06-30T20:02:55Z</time>
      </trkpt>
      <trkpt lat="43.769371" lon="5.054307">
        <ele>77.66632</ele>
        <time>2021-06-30T20:02:56Z</time>
      </trkpt>
      <trkpt lat="43.769279" lon="5.054161">
        <ele>76.72357</ele>
        <time>2021-06-30T20:02:57Z</time>
      </trkpt>
      <trkpt lat="43.769199" lon="5.054032">
        <ele>76.65826</ele>
        <time>2021-06-30T20:02:58Z</time>
      </trkpt>
      <trkpt lat="43.769104" lon="5.053906">
        <ele>76.98578</ele>
        <time>2021-06-30T20:02:59Z</time>
      </trkpt>
      <trkpt lat="43.768978" lon="5.053746">
        <ele>76.51801</ele>
        <time>2021-06-30T20:03:00Z</time>
      </trkpt>
      <trkpt lat="43.768837" lon="5.053593">
        <ele>75.51270</ele>
        <time>2021-06-30T20:03:01Z</time>
      </trkpt>
      <trkpt lat="43.768677" lon="5.053416">
        <ele>75.82629</ele>
        <time>2021-06-30T20:03:02Z</time>
      </trkpt>
      <trkpt lat="43.768677" lon="5.053416">
        <ele>75.66351</ele>
        <time>2021-06-30T20:03:03Z</time>
      </trkpt>
      <trkpt lat="43.768497" lon="5.053252">
        <ele>74.61493</ele>
        <time>2021-06-30T20:03:04Z</time>
      </trkpt>
      <trkpt lat="43.768288" lon="5.053068">
        <ele>74.64575</ele>
        <time>2021-06-30T20:03:05Z</time>
      </trkpt>
      <trkpt lat="43.768127" lon="5.052952">
        <ele>75.92889</ele>
        <time>2021-06-30T20:03:06Z</time>
      </trkpt>
      <trkpt lat="43.767830" lon="5.052770">
        <ele>76.96179</ele>
        <time>2021-06-30T20:03:07Z</time>
      </trkpt>
      <trkpt lat="43.767536" lon="5.052630">
        <ele>77.68658</ele>
        <time>2021-06-30T20:03:08Z</time>
      </trkpt>
      <trkpt lat="43.767269" lon="5.052529">
        <ele>78.68298</ele>
        <time>2021-06-30T20:03:09Z</time>
      </trkpt>
      <trkpt lat="43.767010" lon="5.052463">
        <ele>79.42279</ele>
        <time>2021-06-30T20:03:10Z</time>
      </trkpt>
      <trkpt lat="43.766727" lon="5.052406">
        <ele>79.25690</ele>
        <time>2021-06-30T20:03:11Z</time>
      </trkpt>
      <trkpt lat="43.766727" lon="5.052406">
        <ele>79.94092</ele>
        <time>2021-06-30T20:03:12Z</time>
      </trkpt>
      <trkpt lat="43.766457" lon="5.052392">
        <ele>80.49762</ele>
        <time>2021-06-30T20:03:13Z</time>
      </trkpt>
      <trkpt lat="43.766144" lon="5.052391">
        <ele>80.86304</ele>
        <time>2021-06-30T20:03:14Z</time>
      </trkpt>
      <trkpt lat="43.765888" lon="5.052428">
        <ele>80.69678</ele>
        <time>2021-06-30T20:03:15Z</time>
      </trkpt>
      <trkpt lat="43.765587" lon="5.052493">
        <ele>82.05334</ele>
        <time>2021-06-30T20:03:16Z</time>
      </trkpt>
      <trkpt lat="43.765270" lon="5.052583">
        <ele>80.28796</ele>
        <time>2021-06-30T20:03:17Z</time>
      </trkpt>
      <trkpt lat="43.764996" lon="5.052666">
        <ele>80.90698</ele>
        <time>2021-06-30T20:03:18Z</time>
      </trkpt>
      <trkpt lat="43.764668" lon="5.052756">
        <ele>80.85327</ele>
        <time>2021-06-30T20:03:19Z</time>
      </trkpt>
      <trkpt lat="43.764416" lon="5.052824">
        <ele>79.11774</ele>
        <time>2021-06-30T20:03:20Z</time>
      </trkpt>
      <trkpt lat="43.764133" lon="5.052896">
        <ele>79.57648</ele>
        <time>2021-06-30T20:03:21Z</time>
      </trkpt>
      <trkpt lat="43.763863" lon="5.052932">
        <ele>79.68158</ele>
        <time>2021-06-30T20:03:22Z</time>
      </trkpt>
      <trkpt lat="43.763863" lon="5.052932">
        <ele>80.21423</ele>
        <time>2021-06-30T20:03:23Z</time>
      </trkpt>
      <trkpt lat="43.763550" lon="5.052961">
        <ele>80.97168</ele>
        <time>2021-06-30T20:03:24Z</time>
      </trkpt>
      <trkpt lat="43.763275" lon="5.052985">
        <ele>81.36707</ele>
        <time>2021-06-30T20:03:25Z</time>
      </trkpt>
      <trkpt lat="43.763008" lon="5.053009">
        <ele>82.40564</ele>
        <time>2021-06-30T20:03:26Z</time>
      </trkpt>
      <trkpt lat="43.762749" lon="5.053033">
        <ele>82.33118</ele>
        <time>2021-06-30T20:03:27Z</time>
      </trkpt>
      <trkpt lat="43.762474" lon="5.053058">
        <ele>81.74084</ele>
        <time>2021-06-30T20:03:28Z</time>
      </trkpt>
      <trkpt lat="43.762188" lon="5.053084">
        <ele>81.91187</ele>
        <time>2021-06-30T20:03:29Z</time>
      </trkpt>
      <trkpt lat="43.761875" lon="5.053112">
        <ele>81.83569</ele>
        <time>2021-06-30T20:03:30Z</time>
      </trkpt>
      <trkpt lat="43.761566" lon="5.053140">
        <ele>80.84119</ele>
        <time>2021-06-30T20:03:31Z</time>
      </trkpt>
      <trkpt lat="43.761322" lon="5.053162">
        <ele>80.73682</ele>
        <time>2021-06-30T20:03:32Z</time>
      </trkpt>
      <trkpt lat="43.761013" lon="5.053190">
        <ele>81.32269</ele>
        <time>2021-06-30T20:03:33Z</time>
      </trkpt>
      <trkpt lat="43.760685" lon="5.053220">
        <ele>81.23944</ele>
        <time>2021-06-30T20:03:34Z</time>
      </trkpt>
      <trkpt lat="43.760418" lon="5.053244">
        <ele>81.70953</ele>
        <time>2021-06-30T20:03:35Z</time>
      </trkpt>
      <trkpt lat="43.760128" lon="5.053270">
        <ele>82.53400</ele>
        <time>2021-06-30T20:03:36Z</time>
      </trkpt>
      <trkpt lat="43.759830" lon="5.053297">
        <ele>76.89514</ele>
        <time>2021-06-30T20:03:37Z</time>
      </trkpt>
      <trkpt lat="43.759510" lon="5.053322">
        <ele>77.87579</ele>
        <time>2021-06-30T20:03:38Z</time>
      </trkpt>
      <trkpt lat="43.759247" lon="5.053342">
        <ele>78.12756</ele>
        <time>2021-06-30T20:03:39Z</time>
      </trkpt>
      <trkpt lat="43.759247" lon="5.053342">
        <ele>77.75299</ele>
        <time>2021-06-30T20:03:40Z</time>
      </trkpt>
      <trkpt lat="43.758987" lon="5.053362">
        <ele>78.21802</ele>
        <time>2021-06-30T20:03:41Z</time>
      </trkpt>
      <trkpt lat="43.758701" lon="5.053384">
        <ele>79.56775</ele>
        <time>2021-06-30T20:03:42Z</time>
      </trkpt>
      <trkpt lat="43.758495" lon="5.053372">
        <ele>80.51648</ele>
        <time>2021-06-30T20:03:43Z</time>
      </trkpt>
      <trkpt lat="43.758347" lon="5.053337">
        <ele>81.66559</ele>
        <time>2021-06-30T20:03:44Z</time>
      </trkpt>
      <trkpt lat="43.758114" lon="5.053242">
        <ele>83.19202</ele>
        <time>2021-06-30T20:03:45Z</time>
      </trkpt>
      <trkpt lat="43.757904" lon="5.053130">
        <ele>84.33099</ele>
        <time>2021-06-30T20:03:46Z</time>
      </trkpt>
      <trkpt lat="43.757641" lon="5.052988">
        <ele>85.25397</ele>
        <time>2021-06-30T20:03:47Z</time>
      </trkpt>
      <trkpt lat="43.757393" lon="5.052854">
        <ele>85.70709</ele>
        <time>2021-06-30T20:03:48Z</time>
      </trkpt>
      <trkpt lat="43.757130" lon="5.052711">
        <ele>88.57562</ele>
        <time>2021-06-30T20:03:49Z</time>
      </trkpt>
      <trkpt lat="43.756916" lon="5.052603">
        <ele>90.49042</ele>
        <time>2021-06-30T20:03:50Z</time>
      </trkpt>
      <trkpt lat="43.756699" lon="5.052497">
        <ele>92.88544</ele>
        <time>2021-06-30T20:03:51Z</time>
      </trkpt>
      <trkpt lat="43.756516" lon="5.052455">
        <ele>94.06171</ele>
        <time>2021-06-30T20:03:52Z</time>
      </trkpt>
      <trkpt lat="43.756252" lon="5.052431">
        <ele>93.80634</ele>
        <time>2021-06-30T20:03:53Z</time>
      </trkpt>
      <trkpt lat="43.755970" lon="5.052410">
        <ele>96.13153</ele>
        <time>2021-06-30T20:03:54Z</time>
      </trkpt>
      <trkpt lat="43.755707" lon="5.052390">
        <ele>96.77863</ele>
        <time>2021-06-30T20:03:55Z</time>
      </trkpt>
      <trkpt lat="43.755707" lon="5.052390">
        <ele>97.21552</ele>
        <time>2021-06-30T20:03:56Z</time>
      </trkpt>
      <trkpt lat="43.755459" lon="5.052372">
        <ele>98.54254</ele>
        <time>2021-06-30T20:03:57Z</time>
      </trkpt>
      <trkpt lat="43.755219" lon="5.052340">
        <ele>99.81189</ele>
        <time>2021-06-30T20:03:58Z</time>
      </trkpt>
      <trkpt lat="43.754986" lon="5.052297">
        <ele>102.33514</ele>
        <time>2021-06-30T20:03:59Z</time>
      </trkpt>
      <trkpt lat="43.754738" lon="5.052214">
        <ele>101.40466</ele>
        <time>2021-06-30T20:04:00Z</time>
      </trkpt>
      <trkpt lat="43.754440" lon="5.052080">
        <ele>100.73938</ele>
        <time>2021-06-30T20:04:01Z</time>
      </trkpt>
      <trkpt lat="43.754128" lon="5.051940">
        <ele>100.55322</ele>
        <time>2021-06-30T20:04:02Z</time>
      </trkpt>
      <trkpt lat="43.753853" lon="5.051814">
        <ele>101.32458</ele>
        <time>2021-06-30T20:04:03Z</time>
      </trkpt>
      <trkpt lat="43.753613" lon="5.051687">
        <ele>103.39569</ele>
        <time>2021-06-30T20:04:04Z</time>
      </trkpt>
      <trkpt lat="43.753368" lon="5.051518">
        <ele>104.55804</ele>
        <time>2021-06-30T20:04:05Z</time>
      </trkpt>
      <trkpt lat="43.753139" lon="5.051323">
        <ele>104.84778</ele>
        <time>2021-06-30T20:04:06Z</time>
      </trkpt>
      <trkpt lat="43.752899" lon="5.051120">
        <ele>105.84344</ele>
        <time>2021-06-30T20:04:07Z</time>
      </trkpt>
      <trkpt lat="43.752899" lon="5.051120">
        <ele>107.54553</ele>
        <time>2021-06-30T20:04:08Z</time>
      </trkpt>
      <trkpt lat="43.752655" lon="5.050914">
        <ele>108.34515</ele>
        <time>2021-06-30T20:04:09Z</time>
      </trkpt>
      <trkpt lat="43.752369" lon="5.050670">
        <ele>108.34515</ele>
        <time>2021-06-30T20:04:10Z</time>
      </trkpt>
      <trkpt lat="43.752068" lon="5.050414">
        <ele>111.43536</ele>
        <time>2021-06-30T20:04:11Z</time>
      </trkpt>
      <trkpt lat="43.751820" lon="5.050203">
        <ele>113.31091</ele>
        <time>2021-06-30T20:04:12Z</time>
      </trkpt>
      <trkpt lat="43.751572" lon="5.049993">
        <ele>113.72961</ele>
        <time>2021-06-30T20:04:13Z</time>
      </trkpt>
      <trkpt lat="43.751259" lon="5.049731">
        <ele>114.74658</ele>
        <time>2021-06-30T20:04:14Z</time>
      </trkpt>
      <trkpt lat="43.750988" lon="5.049504">
        <ele>114.94580</ele>
        <time>2021-06-30T20:04:15Z</time>
      </trkpt>
      <trkpt lat="43.750729" lon="5.049284">
        <ele>117.15582</ele>
        <time>2021-06-30T20:04:16Z</time>
      </trkpt>
      <trkpt lat="43.750435" lon="5.049036">
        <ele>118.29846</ele>
        <time>2021-06-30T20:04:17Z</time>
      </trkpt>
      <trkpt lat="43.750160" lon="5.048807">
        <ele>118.39294</ele>
        <time>2021-06-30T20:04:18Z</time>
      </trkpt>
      <trkpt lat="43.749863" lon="5.048555">
        <ele>119.36865</ele>
        <time>2021-06-30T20:04:19Z</time>
      </trkpt>
      <trkpt lat="43.749542" lon="5.048284">
        <ele>119.35596</ele>
        <time>2021-06-30T20:04:20Z</time>
      </trkpt>
      <trkpt lat="43.749542" lon="5.048284">
        <ele>120.15582</ele>
        <time>2021-06-30T20:04:21Z</time>
      </trkpt>
      <trkpt lat="43.749237" lon="5.048027">
        <ele>121.61444</ele>
        <time>2021-06-30T20:04:22Z</time>
      </trkpt>
      <trkpt lat="43.748920" lon="5.047762">
        <ele>121.11505</ele>
        <time>2021-06-30T20:04:23Z</time>
      </trkpt>
      <trkpt lat="43.748646" lon="5.047527">
        <ele>120.23230</ele>
        <time>2021-06-30T20:04:24Z</time>
      </trkpt>
      <trkpt lat="43.748367" lon="5.047288">
        <ele>119.44611</ele>
        <time>2021-06-30T20:04:25Z</time>
      </trkpt>
      <trkpt lat="43.748127" lon="5.047078">
        <ele>117.30658</ele>
        <time>2021-06-30T20:04:26Z</time>
      </trkpt>
      <trkpt lat="43.747883" lon="5.046869">
        <ele>117.30951</ele>
        <time>2021-06-30T20:04:27Z</time>
      </trkpt>
      <trkpt lat="43.747601" lon="5.046625">
        <ele>116.75745</ele>
        <time>2021-06-30T20:04:28Z</time>
      </trkpt>
      <trkpt lat="43.747292" lon="5.046362">
        <ele>117.02539</ele>
        <time>2021-06-30T20:04:29Z</time>
      </trkpt>
      <trkpt lat="43.746990" lon="5.046101">
        <ele>117.41473</ele>
        <time>2021-06-30T20:04:30Z</time>
      </trkpt>
      <trkpt lat="43.746716" lon="5.045864">
        <ele>115.97968</ele>
        <time>2021-06-30T20:04:31Z</time>
      </trkpt>
      <trkpt lat="43.746716" lon="5.045864">
        <ele>115.30566</ele>
        <time>2021-06-30T20:04:32Z</time>
      </trkpt>
      <trkpt lat="43.746437" lon="5.045617">
        <ele>114.26416</ele>
        <time>2021-06-30T20:04:33Z</time>
      </trkpt>
      <trkpt lat="43.746166" lon="5.045373">
        <ele>113.78613</ele>
        <time>2021-06-30T20:04:34Z</time>
      </trkpt>
      <trkpt lat="43.745914" lon="5.045157">
        <ele>114.00433</ele>
        <time>2021-06-30T20:04:35Z</time>
      </trkpt>
      <trkpt lat="43.745678" lon="5.044953">
        <ele>113.52747</ele>
        <time>2021-06-30T20:04:36Z</time>
      </trkpt>
      <trkpt lat="43.745396" lon="5.044703">
        <ele>113.91705</ele>
        <time>2021-06-30T20:04:37Z</time>
      </trkpt>
      <trkpt lat="43.745075" lon="5.044425">
        <ele>112.65704</ele>
        <time>2021-06-30T20:04:38Z</time>
      </trkpt>
      <trkpt lat="43.744839" lon="5.044217">
        <ele>112.66534</ele>
        <time>2021-06-30T20:04:39Z</time>
      </trkpt>
      <trkpt lat="43.744583" lon="5.043996">
        <ele>112.63171</ele>
        <time>2021-06-30T20:04:40Z</time>
      </trkpt>
      <trkpt lat="43.744305" lon="5.043758">
        <ele>112.58752</ele>
        <time>2021-06-30T20:04:41Z</time>
      </trkpt>
      <trkpt lat="43.744049" lon="5.043542">
        <ele>111.71112</ele>
        <time>2021-06-30T20:04:42Z</time>
      </trkpt>
      <trkpt lat="43.743797" lon="5.043329">
        <ele>112.45001</ele>
        <time>2021-06-30T20:04:43Z</time>
      </trkpt>
      <trkpt lat="43.743530" lon="5.043106">
        <ele>113.41461</ele>
        <time>2021-06-30T20:04:44Z</time>
      </trkpt>
      <trkpt lat="43.743252" lon="5.042883">
        <ele>113.14337</ele>
        <time>2021-06-30T20:04:45Z</time>
      </trkpt>
      <trkpt lat="43.743252" lon="5.042883">
        <ele>113.97302</ele>
        <time>2021-06-30T20:04:46Z</time>
      </trkpt>
      <trkpt lat="43.742950" lon="5.042643">
        <ele>112.20404</ele>
        <time>2021-06-30T20:04:47Z</time>
      </trkpt>
      <trkpt lat="43.742676" lon="5.042425">
        <ele>112.89990</ele>
        <time>2021-06-30T20:04:48Z</time>
      </trkpt>
      <trkpt lat="43.742413" lon="5.042219">
        <ele>111.66699</ele>
        <time>2021-06-30T20:04:49Z</time>
      </trkpt>
      <trkpt lat="43.742111" lon="5.041980">
        <ele>111.65454</ele>
        <time>2021-06-30T20:04:50Z</time>
      </trkpt>
      <trkpt lat="43.741787" lon="5.041725">
        <ele>112.01892</ele>
        <time>2021-06-30T20:04:51Z</time>
      </trkpt>
      <trkpt lat="43.741505" lon="5.041500">
        <ele>112.93225</ele>
        <time>2021-06-30T20:04:52Z</time>
      </trkpt>
      <trkpt lat="43.741226" lon="5.041282">
        <ele>112.83130</ele>
        <time>2021-06-30T20:04:53Z</time>
      </trkpt>
      <trkpt lat="43.740936" lon="5.041052">
        <ele>113.28229</ele>
        <time>2021-06-30T20:04:54Z</time>
      </trkpt>
      <trkpt lat="43.740650" lon="5.040825">
        <ele>113.28229</ele>
        <time>2021-06-30T20:04:55Z</time>
      </trkpt>
      <trkpt lat="43.740387" lon="5.040618">
        <ele>113.49231</ele>
        <time>2021-06-30T20:04:56Z</time>
      </trkpt>
      <trkpt lat="43.740082" lon="5.040375">
        <ele>112.38483</ele>
        <time>2021-06-30T20:04:57Z</time>
      </trkpt>
      <trkpt lat="43.739799" lon="5.040152">
        <ele>112.63843</ele>
        <time>2021-06-30T20:04:58Z</time>
      </trkpt>
      <trkpt lat="43.739525" lon="5.039936">
        <ele>112.40869</ele>
        <time>2021-06-30T20:04:59Z</time>
      </trkpt>
      <trkpt lat="43.739525" lon="5.039936">
        <ele>113.50763</ele>
        <time>2021-06-30T20:05:00Z</time>
      </trkpt>
      <trkpt lat="43.739220" lon="5.039694">
        <ele>113.50763</ele>
        <time>2021-06-30T20:05:01Z</time>
      </trkpt>
      <trkpt lat="43.738914" lon="5.039453">
        <ele>115.33331</ele>
        <time>2021-06-30T20:05:02Z</time>
      </trkpt>
      <trkpt lat="43.738613" lon="5.039216">
        <ele>115.98669</ele>
        <time>2021-06-30T20:05:03Z</time>
      </trkpt>
      <trkpt lat="43.738335" lon="5.038997">
        <ele>117.26453</ele>
        <time>2021-06-30T20:05:04Z</time>
      </trkpt>
      <trkpt lat="43.738010" lon="5.038738">
        <ele>118.25732</ele>
        <time>2021-06-30T20:05:05Z</time>
      </trkpt>
      <trkpt lat="43.737728" lon="5.038515">
        <ele>118.12592</ele>
        <time>2021-06-30T20:05:06Z</time>
      </trkpt>
      <trkpt lat="43.737438" lon="5.038291">
        <ele>117.74231</ele>
        <time>2021-06-30T20:05:07Z</time>
      </trkpt>
      <trkpt lat="43.737106" lon="5.038030">
        <ele>117.79541</ele>
        <time>2021-06-30T20:05:08Z</time>
      </trkpt>
      <trkpt lat="43.736824" lon="5.037812">
        <ele>117.98871</ele>
        <time>2021-06-30T20:05:09Z</time>
      </trkpt>
      <trkpt lat="43.736526" lon="5.037581">
        <ele>118.91724</ele>
        <time>2021-06-30T20:05:10Z</time>
      </trkpt>
      <trkpt lat="43.736221" lon="5.037345">
        <ele>118.08826</ele>
        <time>2021-06-30T20:05:11Z</time>
      </trkpt>
      <trkpt lat="43.735943" lon="5.037125">
        <ele>117.65009</ele>
        <time>2021-06-30T20:05:12Z</time>
      </trkpt>
      <trkpt lat="43.735641" lon="5.036887">
        <ele>117.14856</ele>
        <time>2021-06-30T20:05:13Z</time>
      </trkpt>
      <trkpt lat="43.735641" lon="5.036887">
        <ele>116.80664</ele>
        <time>2021-06-30T20:05:14Z</time>
      </trkpt>
      <trkpt lat="43.735294" lon="5.036611">
        <ele>117.33051</ele>
        <time>2021-06-30T20:05:15Z</time>
      </trkpt>
      <trkpt lat="43.734989" lon="5.036368">
        <ele>117.20654</ele>
        <time>2021-06-30T20:05:16Z</time>
      </trkpt>
      <trkpt lat="43.734661" lon="5.036108">
        <ele>117.15082</ele>
        <time>2021-06-30T20:05:17Z</time>
      </trkpt>
      <trkpt lat="43.734337" lon="5.035854">
        <ele>117.29590</ele>
        <time>2021-06-30T20:05:18Z</time>
      </trkpt>
      <trkpt lat="43.734001" lon="5.035587">
        <ele>116.94269</ele>
        <time>2021-06-30T20:05:19Z</time>
      </trkpt>
      <trkpt lat="43.733662" lon="5.035319">
        <ele>116.91125</ele>
        <time>2021-06-30T20:05:20Z</time>
      </trkpt>
      <trkpt lat="43.733364" lon="5.035087">
        <ele>117.16101</ele>
        <time>2021-06-30T20:05:21Z</time>
      </trkpt>
      <trkpt lat="43.733089" lon="5.034867">
        <ele>116.77832</ele>
        <time>2021-06-30T20:05:22Z</time>
      </trkpt>
      <trkpt lat="43.732738" lon="5.034591">
        <ele>117.12274</ele>
        <time>2021-06-30T20:05:23Z</time>
      </trkpt>
      <trkpt lat="43.732738" lon="5.034591">
        <ele>117.17609</ele>
        <time>2021-06-30T20:05:24Z</time>
      </trkpt>
      <trkpt lat="43.732391" lon="5.034318">
        <ele>116.71503</ele>
        <time>2021-06-30T20:05:25Z</time>
      </trkpt>
      <trkpt lat="43.732098" lon="5.034085">
        <ele>116.71851</ele>
        <time>2021-06-30T20:05:26Z</time>
      </trkpt>
      <trkpt lat="43.731796" lon="5.033849">
        <ele>116.74841</ele>
        <time>2021-06-30T20:05:27Z</time>
      </trkpt>
      <trkpt lat="43.731483" lon="5.033601">
        <ele>116.76758</ele>
        <time>2021-06-30T20:05:28Z</time>
      </trkpt>
      <trkpt lat="43.731167" lon="5.033351">
        <ele>117.49860</ele>
        <time>2021-06-30T20:05:29Z</time>
      </trkpt>
      <trkpt lat="43.730877" lon="5.033121">
        <ele>118.04370</ele>
        <time>2021-06-30T20:05:30Z</time>
      </trkpt>
      <trkpt lat="43.730576" lon="5.032885">
        <ele>117.81732</ele>
        <time>2021-06-30T20:05:31Z</time>
      </trkpt>
      <trkpt lat="43.730274" lon="5.032646">
        <ele>117.01740</ele>
        <time>2021-06-30T20:05:32Z</time>
      </trkpt>
      <trkpt lat="43.729912" lon="5.032361">
        <ele>116.48395</ele>
        <time>2021-06-30T20:05:33Z</time>
      </trkpt>
      <trkpt lat="43.729599" lon="5.032113">
        <ele>115.75763</ele>
        <time>2021-06-30T20:05:34Z</time>
      </trkpt>
      <trkpt lat="43.729286" lon="5.031868">
        <ele>115.43085</ele>
        <time>2021-06-30T20:05:35Z</time>
      </trkpt>
      <trkpt lat="43.728958" lon="5.031608">
        <ele>115.29913</ele>
        <time>2021-06-30T20:05:36Z</time>
      </trkpt>
      <trkpt lat="43.728642" lon="5.031358">
        <ele>115.26227</ele>
        <time>2021-06-30T20:05:37Z</time>
      </trkpt>
      <trkpt lat="43.728642" lon="5.031358">
        <ele>114.83569</ele>
        <time>2021-06-30T20:05:38Z</time>
      </trkpt>
      <trkpt lat="43.728310" lon="5.031094">
        <ele>116.01959</ele>
        <time>2021-06-30T20:05:39Z</time>
      </trkpt>
      <trkpt lat="43.728008" lon="5.030857">
        <ele>117.24927</ele>
        <time>2021-06-30T20:05:40Z</time>
      </trkpt>
      <trkpt lat="43.727711" lon="5.030620">
        <ele>116.74817</ele>
        <time>2021-06-30T20:05:41Z</time>
      </trkpt>
      <trkpt lat="43.727421" lon="5.030392">
        <ele>117.31915</ele>
        <time>2021-06-30T20:05:42Z</time>
      </trkpt>
      <trkpt lat="43.727127" lon="5.030160">
        <ele>117.39343</ele>
        <time>2021-06-30T20:05:43Z</time>
      </trkpt>
      <trkpt lat="43.726761" lon="5.029870">
        <ele>117.05084</ele>
        <time>2021-06-30T20:05:44Z</time>
      </trkpt>
      <trkpt lat="43.726490" lon="5.029654">
        <ele>117.28796</ele>
        <time>2021-06-30T20:05:45Z</time>
      </trkpt>
      <trkpt lat="43.726185" lon="5.029413">
        <ele>117.22485</ele>
        <time>2021-06-30T20:05:46Z</time>
      </trkpt>
      <trkpt lat="43.725868" lon="5.029165">
        <ele>117.10297</ele>
        <time>2021-06-30T20:05:47Z</time>
      </trkpt>
      <trkpt lat="43.725574" lon="5.028932">
        <ele>117.63715</ele>
        <time>2021-06-30T20:05:48Z</time>
      </trkpt>
      <trkpt lat="43.725292" lon="5.028710">
        <ele>117.78156</ele>
        <time>2021-06-30T20:05:49Z</time>
      </trkpt>
      <trkpt lat="43.724968" lon="5.028458">
        <ele>116.36218</ele>
        <time>2021-06-30T20:05:50Z</time>
      </trkpt>
      <trkpt lat="43.724968" lon="5.028458">
        <ele>117.63049</ele>
        <time>2021-06-30T20:05:51Z</time>
      </trkpt>
      <trkpt lat="43.724644" lon="5.028204">
        <ele>117.62018</ele>
        <time>2021-06-30T20:05:52Z</time>
      </trkpt>
      <trkpt lat="43.724342" lon="5.027972">
        <ele>117.32831</ele>
        <time>2021-06-30T20:05:53Z</time>
      </trkpt>
      <trkpt lat="43.724068" lon="5.027757">
        <ele>116.67700</ele>
        <time>2021-06-30T20:05:54Z</time>
      </trkpt>
      <trkpt lat="43.723820" lon="5.027566">
        <ele>116.48853</ele>
        <time>2021-06-30T20:05:55Z</time>
      </trkpt>
      <trkpt lat="43.723595" lon="5.027384">
        <ele>116.67291</ele>
        <time>2021-06-30T20:05:56Z</time>
      </trkpt>
      <trkpt lat="43.723366" lon="5.027196">
        <ele>116.83209</ele>
        <time>2021-06-30T20:05:57Z</time>
      </trkpt>
      <trkpt lat="43.723160" lon="5.027039">
        <ele>116.58868</ele>
        <time>2021-06-30T20:05:58Z</time>
      </trkpt>
      <trkpt lat="43.722912" lon="5.026852">
        <ele>117.04913</ele>
        <time>2021-06-30T20:05:59Z</time>
      </trkpt>
      <trkpt lat="43.722706" lon="5.026696">
        <ele>117.22034</ele>
        <time>2021-06-30T20:06:00Z</time>
      </trkpt>
      <trkpt lat="43.722523" lon="5.026549">
        <ele>117.21320</ele>
        <time>2021-06-30T20:06:01Z</time>
      </trkpt>
      <trkpt lat="43.722363" lon="5.026410">
        <ele>117.21320</ele>
        <time>2021-06-30T20:06:02Z</time>
      </trkpt>
      <trkpt lat="43.722363" lon="5.026410">
        <ele>117.95258</ele>
        <time>2021-06-30T20:06:03Z</time>
      </trkpt>
      <trkpt lat="43.722198" lon="5.026249">
        <ele>118.18402</ele>
        <time>2021-06-30T20:06:04Z</time>
      </trkpt>
      <trkpt lat="43.722073" lon="5.026087">
        <ele>115.96222</ele>
        <time>2021-06-30T20:06:05Z</time>
      </trkpt>
      <trkpt lat="43.721962" lon="5.025929">
        <ele>115.34717</ele>
        <time>2021-06-30T20:06:06Z</time>
      </trkpt>
      <trkpt lat="43.721825" lon="5.025730">
        <ele>114.71643</ele>
        <time>2021-06-30T20:06:07Z</time>
      </trkpt>
      <trkpt lat="43.721718" lon="5.025573">
        <ele>115.85175</ele>
        <time>2021-06-30T20:06:08Z</time>
      </trkpt>
      <trkpt lat="43.721615" lon="5.025428">
        <ele>116.13489</ele>
        <time>2021-06-30T20:06:09Z</time>
      </trkpt>
      <trkpt lat="43.721508" lon="5.025285">
        <ele>116.47321</ele>
        <time>2021-06-30T20:06:10Z</time>
      </trkpt>
      <trkpt lat="43.721371" lon="5.025143">
        <ele>117.28668</ele>
        <time>2021-06-30T20:06:11Z</time>
      </trkpt>
      <trkpt lat="43.721233" lon="5.025050">
        <ele>117.85730</ele>
        <time>2021-06-30T20:06:12Z</time>
      </trkpt>
      <trkpt lat="43.721107" lon="5.024989">
        <ele>117.86987</ele>
        <time>2021-06-30T20:06:13Z</time>
      </trkpt>
      <trkpt lat="43.720947" lon="5.024941">
        <ele>119.87524</ele>
        <time>2021-06-30T20:06:14Z</time>
      </trkpt>
      <trkpt lat="43.720814" lon="5.024914">
        <ele>119.69360</ele>
        <time>2021-06-30T20:06:15Z</time>
      </trkpt>
      <trkpt lat="43.720505" lon="5.024865">
        <ele>117.28809</ele>
        <time>2021-06-30T20:06:16Z</time>
      </trkpt>
      <trkpt lat="43.720505" lon="5.024865">
        <ele>118.20349</ele>
        <time>2021-06-30T20:06:17Z</time>
      </trkpt>
      <trkpt lat="43.720242" lon="5.024823">
        <ele>118.14563</ele>
        <time>2021-06-30T20:06:18Z</time>
      </trkpt>
      <trkpt lat="43.719959" lon="5.024778">
        <ele>118.99377</ele>
        <time>2021-06-30T20:06:19Z</time>
      </trkpt>
      <trkpt lat="43.719688" lon="5.024740">
        <ele>118.77704</ele>
        <time>2021-06-30T20:06:20Z</time>
      </trkpt>
      <trkpt lat="43.719452" lon="5.024751">
        <ele>116.26154</ele>
        <time>2021-06-30T20:06:21Z</time>
      </trkpt>
      <trkpt lat="43.719196" lon="5.024802">
        <ele>116.18225</ele>
        <time>2021-06-30T20:06:22Z</time>
      </trkpt>
      <trkpt lat="43.718956" lon="5.024869">
        <ele>116.18225</ele>
        <time>2021-06-30T20:06:23Z</time>
      </trkpt>
      <trkpt lat="43.718575" lon="5.024975">
        <ele>117.31958</ele>
        <time>2021-06-30T20:06:24Z</time>
      </trkpt>
      <trkpt lat="43.718250" lon="5.025065">
        <ele>117.05872</ele>
        <time>2021-06-30T20:06:25Z</time>
      </trkpt>
      <trkpt lat="43.717918" lon="5.025158">
        <ele>117.43402</ele>
        <time>2021-06-30T20:06:26Z</time>
      </trkpt>
      <trkpt lat="43.717644" lon="5.025234">
        <ele>117.19348</ele>
        <time>2021-06-30T20:06:27Z</time>
      </trkpt>
      <trkpt lat="43.717339" lon="5.025318">
        <ele>116.07953</ele>
        <time>2021-06-30T20:06:28Z</time>
      </trkpt>
      <trkpt lat="43.717049" lon="5.025399">
        <ele>115.94006</ele>
        <time>2021-06-30T20:06:29Z</time>
      </trkpt>
      <trkpt lat="43.716774" lon="5.025475">
        <ele>114.72644</ele>
        <time>2021-06-30T20:06:30Z</time>
      </trkpt>
      <trkpt lat="43.716774" lon="5.025475">
        <ele>114.89520</ele>
        <time>2021-06-30T20:06:31Z</time>
      </trkpt>
      <trkpt lat="43.716484" lon="5.025556">
        <ele>114.84637</ele>
        <time>2021-06-30T20:06:32Z</time>
      </trkpt>
      <trkpt lat="43.716171" lon="5.025642">
        <ele>113.72522</ele>
        <time>2021-06-30T20:06:33Z</time>
      </trkpt>
      <trkpt lat="43.715847" lon="5.025732">
        <ele>114.05750</ele>
        <time>2021-06-30T20:06:34Z</time>
      </trkpt>
      <trkpt lat="43.715546" lon="5.025816">
        <ele>114.23792</ele>
        <time>2021-06-30T20:06:35Z</time>
      </trkpt>
      <trkpt lat="43.715294" lon="5.025886">
        <ele>113.83270</ele>
        <time>2021-06-30T20:06:36Z</time>
      </trkpt>
      <trkpt lat="43.715031" lon="5.025959">
        <ele>113.74097</ele>
        <time>2021-06-30T20:06:37Z</time>
      </trkpt>
      <trkpt lat="43.714809" lon="5.026020">
        <ele>112.20740</ele>
        <time>2021-06-30T20:06:38Z</time>
      </trkpt>
      <trkpt lat="43.714546" lon="5.026092">
        <ele>112.52234</ele>
        <time>2021-06-30T20:06:39Z</time>
      </trkpt>
      <trkpt lat="43.714306" lon="5.026166">
        <ele>112.36951</ele>
        <time>2021-06-30T20:06:40Z</time>
      </trkpt>
      <trkpt lat="43.714043" lon="5.026249">
        <ele>111.69177</ele>
        <time>2021-06-30T20:06:41Z</time>
      </trkpt>
      <trkpt lat="43.713753" lon="5.026358">
        <ele>110.85858</ele>
        <time>2021-06-30T20:06:42Z</time>
      </trkpt>
      <trkpt lat="43.713448" lon="5.026514">
        <ele>110.80792</ele>
        <time>2021-06-30T20:06:43Z</time>
      </trkpt>
      <trkpt lat="43.713116" lon="5.026683">
        <ele>110.38635</ele>
        <time>2021-06-30T20:06:44Z</time>
      </trkpt>
      <trkpt lat="43.713116" lon="5.026683">
        <ele>108.68091</ele>
        <time>2021-06-30T20:06:45Z</time>
      </trkpt>
      <trkpt lat="43.712784" lon="5.026850">
        <ele>108.40845</ele>
        <time>2021-06-30T20:06:46Z</time>
      </trkpt>
      <trkpt lat="43.712444" lon="5.027025">
        <ele>107.84802</ele>
        <time>2021-06-30T20:06:47Z</time>
      </trkpt>
      <trkpt lat="43.712120" lon="5.027189">
        <ele>107.80603</ele>
        <time>2021-06-30T20:06:48Z</time>
      </trkpt>
      <trkpt lat="43.711834" lon="5.027315">
        <ele>108.00330</ele>
        <time>2021-06-30T20:06:49Z</time>
      </trkpt>
      <trkpt lat="43.711639" lon="5.027395">
        <ele>105.76642</ele>
        <time>2021-06-30T20:06:50Z</time>
      </trkpt>
      <trkpt lat="43.711338" lon="5.027452">
        <ele>105.32928</ele>
        <time>2021-06-30T20:06:51Z</time>
      </trkpt>
      <trkpt lat="43.710964" lon="5.027512">
        <ele>105.32928</ele>
        <time>2021-06-30T20:06:52Z</time>
      </trkpt>
      <trkpt lat="43.710609" lon="5.027575">
        <ele>105.00110</ele>
        <time>2021-06-30T20:06:53Z</time>
      </trkpt>
      <trkpt lat="43.710609" lon="5.027575">
        <ele>104.47339</ele>
        <time>2021-06-30T20:06:54Z</time>
      </trkpt>
      <trkpt lat="43.710316" lon="5.027627">
        <ele>104.32501</ele>
        <time>2021-06-30T20:06:55Z</time>
      </trkpt>
      <trkpt lat="43.709961" lon="5.027691">
        <ele>104.13489</ele>
        <time>2021-06-30T20:06:56Z</time>
      </trkpt>
      <trkpt lat="43.709625" lon="5.027752">
        <ele>104.03088</ele>
        <time>2021-06-30T20:06:57Z</time>
      </trkpt>
      <trkpt lat="43.709324" lon="5.027806">
        <ele>103.78436</ele>
        <time>2021-06-30T20:06:58Z</time>
      </trkpt>
      <trkpt lat="43.708977" lon="5.027869">
        <ele>105.09845</ele>
        <time>2021-06-30T20:06:59Z</time>
      </trkpt>
      <trkpt lat="43.708641" lon="5.027932">
        <ele>105.34644</ele>
        <time>2021-06-30T20:07:00Z</time>
      </trkpt>
      <trkpt lat="43.708355" lon="5.027994">
        <ele>105.33307</ele>
        <time>2021-06-30T20:07:01Z</time>
      </trkpt>
      <trkpt lat="43.708092" lon="5.028029">
        <ele>105.34070</ele>
        <time>2021-06-30T20:07:02Z</time>
      </trkpt>
      <trkpt lat="43.707832" lon="5.028051">
        <ele>102.97095</ele>
        <time>2021-06-30T20:07:03Z</time>
      </trkpt>
      <trkpt lat="43.707466" lon="5.028056">
        <ele>102.61389</ele>
        <time>2021-06-30T20:07:04Z</time>
      </trkpt>
      <trkpt lat="43.707142" lon="5.028053">
        <ele>102.81384</ele>
        <time>2021-06-30T20:07:05Z</time>
      </trkpt>
      <trkpt lat="43.706772" lon="5.028052">
        <ele>101.76733</ele>
        <time>2021-06-30T20:07:06Z</time>
      </trkpt>
      <trkpt lat="43.706772" lon="5.028052">
        <ele>101.75336</ele>
        <time>2021-06-30T20:07:07Z</time>
      </trkpt>
      <trkpt lat="43.706440" lon="5.028049">
        <ele>101.99213</ele>
        <time>2021-06-30T20:07:08Z</time>
      </trkpt>
      <trkpt lat="43.706184" lon="5.028038">
        <ele>102.11517</ele>
        <time>2021-06-30T20:07:09Z</time>
      </trkpt>
      <trkpt lat="43.705967" lon="5.028009">
        <ele>102.04895</ele>
        <time>2021-06-30T20:07:10Z</time>
      </trkpt>
      <trkpt lat="43.705711" lon="5.027956">
        <ele>101.22803</ele>
        <time>2021-06-30T20:07:11Z</time>
      </trkpt>
      <trkpt lat="43.705460" lon="5.027891">
        <ele>101.09692</ele>
        <time>2021-06-30T20:07:12Z</time>
      </trkpt>
      <trkpt lat="43.705189" lon="5.027817">
        <ele>100.51245</ele>
        <time>2021-06-30T20:07:13Z</time>
      </trkpt>
      <trkpt lat="43.704830" lon="5.027718">
        <ele>100.12299</ele>
        <time>2021-06-30T20:07:14Z</time>
      </trkpt>
      <trkpt lat="43.704521" lon="5.027630">
        <ele>99.96021</ele>
        <time>2021-06-30T20:07:15Z</time>
      </trkpt>
      <trkpt lat="43.704258" lon="5.027570">
        <ele>99.80432</ele>
        <time>2021-06-30T20:07:16Z</time>
      </trkpt>
      <trkpt lat="43.703991" lon="5.027524">
        <ele>99.26410</ele>
        <time>2021-06-30T20:07:17Z</time>
      </trkpt>
      <trkpt lat="43.703606" lon="5.027481">
        <ele>99.39697</ele>
        <time>2021-06-30T20:07:18Z</time>
      </trkpt>
      <trkpt lat="43.703251" lon="5.027445">
        <ele>99.10980</ele>
        <time>2021-06-30T20:07:19Z</time>
      </trkpt>
      <trkpt lat="43.702995" lon="5.027420">
        <ele>99.61517</ele>
        <time>2021-06-30T20:07:20Z</time>
      </trkpt>
      <trkpt lat="43.702995" lon="5.027420">
        <ele>99.56012</ele>
        <time>2021-06-30T20:07:21Z</time>
      </trkpt>
      <trkpt lat="43.702694" lon="5.027385">
        <ele>99.24200</ele>
        <time>2021-06-30T20:07:22Z</time>
      </trkpt>
      <trkpt lat="43.702518" lon="5.027375">
        <ele>99.49097</ele>
        <time>2021-06-30T20:07:23Z</time>
      </trkpt>
      <trkpt lat="43.702354" lon="5.027366">
        <ele>99.66498</ele>
        <time>2021-06-30T20:07:24Z</time>
      </trkpt>
      <trkpt lat="43.702202" lon="5.027369">
        <ele>99.30017</ele>
        <time>2021-06-30T20:07:25Z</time>
      </trkpt>
      <trkpt lat="43.701996" lon="5.027385">
        <ele>99.53894</ele>
        <time>2021-06-30T20:07:26Z</time>
      </trkpt>
      <trkpt lat="43.701767" lon="5.027436">
        <ele>98.22107</ele>
        <time>2021-06-30T20:07:27Z</time>
      </trkpt>
      <trkpt lat="43.701565" lon="5.027487">
        <ele>97.59351</ele>
        <time>2021-06-30T20:07:28Z</time>
      </trkpt>
      <trkpt lat="43.701385" lon="5.027552">
        <ele>98.02740</ele>
        <time>2021-06-30T20:07:29Z</time>
      </trkpt>
      <trkpt lat="43.701191" lon="5.027637">
        <ele>97.77966</ele>
        <time>2021-06-30T20:07:30Z</time>
      </trkpt>
      <trkpt lat="43.701027" lon="5.027715">
        <ele>98.04773</ele>
        <time>2021-06-30T20:07:31Z</time>
      </trkpt>
      <trkpt lat="43.701027" lon="5.027715">
        <ele>98.37799</ele>
        <time>2021-06-30T20:07:32Z</time>
      </trkpt>
      <trkpt lat="43.700871" lon="5.027795">
        <ele>99.04675</ele>
        <time>2021-06-30T20:07:33Z</time>
      </trkpt>
      <trkpt lat="43.700752" lon="5.027871">
        <ele>97.82727</ele>
        <time>2021-06-30T20:07:34Z</time>
      </trkpt>
      <trkpt lat="43.700649" lon="5.027941">
        <ele>98.23975</ele>
        <time>2021-06-30T20:07:35Z</time>
      </trkpt>
      <trkpt lat="43.700573" lon="5.027992">
        <ele>98.20245</ele>
        <time>2021-06-30T20:07:36Z</time>
      </trkpt>
      <trkpt lat="43.700485" lon="5.028063">
        <ele>98.30023</ele>
        <time>2021-06-30T20:07:37Z</time>
      </trkpt>
      <trkpt lat="43.700417" lon="5.028118">
        <ele>98.32410</ele>
        <time>2021-06-30T20:07:38Z</time>
      </trkpt>
      <trkpt lat="43.700302" lon="5.028212">
        <ele>98.51813</ele>
        <time>2021-06-30T20:07:39Z</time>
      </trkpt>
      <trkpt lat="43.700188" lon="5.028307">
        <ele>97.34265</ele>
        <time>2021-06-30T20:07:40Z</time>
      </trkpt>
      <trkpt lat="43.700073" lon="5.028401">
        <ele>97.68170</ele>
        <time>2021-06-30T20:07:41Z</time>
      </trkpt>
      <trkpt lat="43.700073" lon="5.028401">
        <ele>97.73694</ele>
        <time>2021-06-30T20:07:42Z</time>
      </trkpt>
      <trkpt lat="43.699947" lon="5.028508">
        <ele>98.92175</ele>
        <time>2021-06-30T20:07:43Z</time>
      </trkpt>
      <trkpt lat="43.699825" lon="5.028611">
        <ele>96.92474</ele>
        <time>2021-06-30T20:07:44Z</time>
      </trkpt>
      <trkpt lat="43.699718" lon="5.028699">
        <ele>96.68231</ele>
        <time>2021-06-30T20:07:45Z</time>
      </trkpt>
      <trkpt lat="43.699604" lon="5.028793">
        <ele>97.82605</ele>
        <time>2021-06-30T20:07:46Z</time>
      </trkpt>
      <trkpt lat="43.699539" lon="5.028847">
        <ele>94.02466</ele>
        <time>2021-06-30T20:07:47Z</time>
      </trkpt>
      <trkpt lat="43.699448" lon="5.028925">
        <ele>93.58386</ele>
        <time>2021-06-30T20:07:48Z</time>
      </trkpt>
      <trkpt lat="43.699436" lon="5.028934">
        <ele>92.17029</ele>
        <time>2021-06-30T20:07:49Z</time>
      </trkpt>
      <trkpt lat="43.699379" lon="5.028980">
        <ele>92.55450</ele>
        <time>2021-06-30T20:07:50Z</time>
      </trkpt>
      <trkpt lat="43.699299" lon="5.029045">
        <ele>90.53668</ele>
        <time>2021-06-30T20:07:51Z</time>
      </trkpt>
      <trkpt lat="43.699196" lon="5.029126">
        <ele>90.50208</ele>
        <time>2021-06-30T20:07:52Z</time>
      </trkpt>
      <trkpt lat="43.699093" lon="5.029210">
        <ele>90.50208</ele>
        <time>2021-06-30T20:07:53Z</time>
      </trkpt>
      <trkpt lat="43.698952" lon="5.029325">
        <ele>91.55872</ele>
        <time>2021-06-30T20:07:54Z</time>
      </trkpt>
      <trkpt lat="43.698853" lon="5.029409">
        <ele>91.21588</ele>
        <time>2021-06-30T20:07:55Z</time>
      </trkpt>
      <trkpt lat="43.698853" lon="5.029409">
        <ele>90.48456</ele>
        <time>2021-06-30T20:07:56Z</time>
      </trkpt>
      <trkpt lat="43.698730" lon="5.029515">
        <ele>91.63409</ele>
        <time>2021-06-30T20:07:57Z</time>
      </trkpt>
      <trkpt lat="43.698624" lon="5.029605">
        <ele>92.00293</ele>
        <time>2021-06-30T20:07:58Z</time>
      </trkpt>
      <trkpt lat="43.698582" lon="5.029643">
        <ele>92.13281</ele>
        <time>2021-06-30T20:07:59Z</time>
      </trkpt>
      <trkpt lat="43.698498" lon="5.029717">
        <ele>92.04199</ele>
        <time>2021-06-30T20:08:00Z</time>
      </trkpt>
      <trkpt lat="43.698429" lon="5.029778">
        <ele>92.09186</ele>
        <time>2021-06-30T20:08:01Z</time>
      </trkpt>
      <trkpt lat="43.698353" lon="5.029849">
        <ele>93.07288</ele>
        <time>2021-06-30T20:08:02Z</time>
      </trkpt>
      <trkpt lat="43.698315" lon="5.029872">
        <ele>93.23419</ele>
        <time>2021-06-30T20:08:03Z</time>
      </trkpt>
      <trkpt lat="43.698265" lon="5.029879">
        <ele>90.73523</ele>
        <time>2021-06-30T20:08:04Z</time>
      </trkpt>
      <trkpt lat="43.698215" lon="5.029870">
        <ele>90.34875</ele>
        <time>2021-06-30T20:08:05Z</time>
      </trkpt>
      <trkpt lat="43.698208" lon="5.029852">
        <ele>91.43750</ele>
        <time>2021-06-30T20:08:06Z</time>
      </trkpt>
      <trkpt lat="43.698193" lon="5.029782">
        <ele>92.46997</ele>
        <time>2021-06-30T20:08:07Z</time>
      </trkpt>
      <trkpt lat="43.698143" lon="5.029724">
        <ele>92.30566</ele>
        <time>2021-06-30T20:08:08Z</time>
      </trkpt>
      <trkpt lat="43.698154" lon="5.029558">
        <ele>94.43030</ele>
        <time>2021-06-30T20:08:09Z</time>
      </trkpt>
      <trkpt lat="43.698154" lon="5.029558">
        <ele>95.80829</ele>
        <time>2021-06-30T20:08:10Z</time>
      </trkpt>
      <trkpt lat="43.698112" lon="5.029357">
        <ele>94.73657</ele>
        <time>2021-06-30T20:08:11Z</time>
      </trkpt>
      <trkpt lat="43.698067" lon="5.029244">
        <ele>94.37952</ele>
        <time>2021-06-30T20:08:12Z</time>
      </trkpt>
      <trkpt lat="43.697994" lon="5.029112">
        <ele>94.14252</ele>
        <time>2021-06-30T20:08:13Z</time>
      </trkpt>
      <trkpt lat="43.697887" lon="5.028972">
        <ele>94.87445</ele>
        <time>2021-06-30T20:08:14Z</time>
      </trkpt>
      <trkpt lat="43.697842" lon="5.028908">
        <ele>93.66467</ele>
        <time>2021-06-30T20:08:15Z</time>
      </trkpt>
      <trkpt lat="43.697796" lon="5.028847">
        <ele>93.70483</ele>
        <time>2021-06-30T20:08:16Z</time>
      </trkpt>
      <trkpt lat="43.697731" lon="5.028756">
        <ele>95.11597</ele>
        <time>2021-06-30T20:08:17Z</time>
      </trkpt>
      <trkpt lat="43.697685" lon="5.028693">
        <ele>93.84332</ele>
        <time>2021-06-30T20:08:18Z</time>
      </trkpt>
      <trkpt lat="43.697662" lon="5.028664">
        <ele>94.41541</ele>
        <time>2021-06-30T20:08:19Z</time>
      </trkpt>
      <trkpt lat="43.697586" lon="5.028553">
        <ele>95.47168</ele>
        <time>2021-06-30T20:08:20Z</time>
      </trkpt>
      <trkpt lat="43.697514" lon="5.028452">
        <ele>95.10455</ele>
        <time>2021-06-30T20:08:21Z</time>
      </trkpt>
      <trkpt lat="43.697441" lon="5.028356">
        <ele>95.42969</ele>
        <time>2021-06-30T20:08:22Z</time>
      </trkpt>
      <trkpt lat="43.697365" lon="5.028244">
        <ele>95.64441</ele>
        <time>2021-06-30T20:08:23Z</time>
      </trkpt>
      <trkpt lat="43.697365" lon="5.028244">
        <ele>97.18536</ele>
        <time>2021-06-30T20:08:24Z</time>
      </trkpt>
      <trkpt lat="43.697296" lon="5.028136">
        <ele>97.79028</ele>
        <time>2021-06-30T20:08:25Z</time>
      </trkpt>
      <trkpt lat="43.697254" lon="5.028068">
        <ele>97.22247</ele>
        <time>2021-06-30T20:08:26Z</time>
      </trkpt>
      <trkpt lat="43.697235" lon="5.028034">
        <ele>95.97888</ele>
        <time>2021-06-30T20:08:27Z</time>
      </trkpt>
      <trkpt lat="43.697201" lon="5.027951">
        <ele>95.53522</ele>
        <time>2021-06-30T20:08:28Z</time>
      </trkpt>
      <trkpt lat="43.697166" lon="5.027834">
        <ele>94.57275</ele>
        <time>2021-06-30T20:08:29Z</time>
      </trkpt>
      <trkpt lat="43.697136" lon="5.027673">
        <ele>94.67859</ele>
        <time>2021-06-30T20:08:30Z</time>
      </trkpt>
      <trkpt lat="43.697117" lon="5.027555">
        <ele>94.98706</ele>
        <time>2021-06-30T20:08:31Z</time>
      </trkpt>
      <trkpt lat="43.697098" lon="5.027427">
        <ele>95.36884</ele>
        <time>2021-06-30T20:08:32Z</time>
      </trkpt>
      <trkpt lat="43.697079" lon="5.027314">
        <ele>95.79437</ele>
        <time>2021-06-30T20:08:33Z</time>
      </trkpt>
      <trkpt lat="43.697067" lon="5.027225">
        <ele>96.24060</ele>
        <time>2021-06-30T20:08:34Z</time>
      </trkpt>
      <trkpt lat="43.697041" lon="5.027061">
        <ele>96.70636</ele>
        <time>2021-06-30T20:08:35Z</time>
      </trkpt>
      <trkpt lat="43.697018" lon="5.026922">
        <ele>96.77240</ele>
        <time>2021-06-30T20:08:36Z</time>
      </trkpt>
      <trkpt lat="43.696999" lon="5.026799">
        <ele>97.85376</ele>
        <time>2021-06-30T20:08:37Z</time>
      </trkpt>
      <trkpt lat="43.696999" lon="5.026799">
        <ele>96.86444</ele>
        <time>2021-06-30T20:08:38Z</time>
      </trkpt>
      <trkpt lat="43.696983" lon="5.026712">
        <ele>96.97888</ele>
        <time>2021-06-30T20:08:39Z</time>
      </trkpt>
      <trkpt lat="43.696972" lon="5.026629">
        <ele>96.99927</ele>
        <time>2021-06-30T20:08:40Z</time>
      </trkpt>
      <trkpt lat="43.696957" lon="5.026532">
        <ele>97.13318</ele>
        <time>2021-06-30T20:08:41Z</time>
      </trkpt>
      <trkpt lat="43.696938" lon="5.026426">
        <ele>96.89178</ele>
        <time>2021-06-30T20:08:42Z</time>
      </trkpt>
      <trkpt lat="43.696915" lon="5.026275">
        <ele>96.35492</ele>
        <time>2021-06-30T20:08:43Z</time>
      </trkpt>
      <trkpt lat="43.696888" lon="5.026130">
        <ele>96.55487</ele>
        <time>2021-06-30T20:08:44Z</time>
      </trkpt>
      <trkpt lat="43.696865" lon="5.025995">
        <ele>96.45923</ele>
        <time>2021-06-30T20:08:45Z</time>
      </trkpt>
      <trkpt lat="43.696823" lon="5.025877">
        <ele>95.50293</ele>
        <time>2021-06-30T20:08:46Z</time>
      </trkpt>
      <trkpt lat="43.696766" lon="5.025771">
        <ele>94.56799</ele>
        <time>2021-06-30T20:08:47Z</time>
      </trkpt>
      <trkpt lat="43.696690" lon="5.025663">
        <ele>94.39984</ele>
        <time>2021-06-30T20:08:48Z</time>
      </trkpt>
      <trkpt lat="43.696602" lon="5.025617">
        <ele>94.03442</ele>
        <time>2021-06-30T20:08:49Z</time>
      </trkpt>
      <trkpt lat="43.696507" lon="5.025614">
        <ele>93.22809</ele>
        <time>2021-06-30T20:08:50Z</time>
      </trkpt>
      <trkpt lat="43.696507" lon="5.025614">
        <ele>91.90881</ele>
        <time>2021-06-30T20:08:51Z</time>
      </trkpt>
      <trkpt lat="43.696404" lon="5.025630">
        <ele>91.84229</ele>
        <time>2021-06-30T20:08:52Z</time>
      </trkpt>
      <trkpt lat="43.696320" lon="5.025643">
        <ele>92.05719</ele>
        <time>2021-06-30T20:08:53Z</time>
      </trkpt>
      <trkpt lat="43.696220" lon="5.025659">
        <ele>92.76489</ele>
        <time>2021-06-30T20:08:54Z</time>
      </trkpt>
      <trkpt lat="43.696129" lon="5.025673">
        <ele>93.51984</ele>
        <time>2021-06-30T20:08:55Z</time>
      </trkpt>
      <trkpt lat="43.696083" lon="5.025680">
        <ele>93.47742</ele>
        <time>2021-06-30T20:08:56Z</time>
      </trkpt>
      <trkpt lat="43.696011" lon="5.025695">
        <ele>94.33557</ele>
        <time>2021-06-30T20:08:57Z</time>
      </trkpt>
      <trkpt lat="43.695915" lon="5.025715">
        <ele>93.43701</ele>
        <time>2021-06-30T20:08:58Z</time>
      </trkpt>
      <trkpt lat="43.695789" lon="5.025739">
        <ele>93.07446</ele>
        <time>2021-06-30T20:08:59Z</time>
      </trkpt>
      <trkpt lat="43.695702" lon="5.025758">
        <ele>93.02905</ele>
        <time>2021-06-30T20:09:00Z</time>
      </trkpt>
      <trkpt lat="43.695576" lon="5.025792">
        <ele>92.17419</ele>
        <time>2021-06-30T20:09:01Z</time>
      </trkpt>
      <trkpt lat="43.695454" lon="5.025840">
        <ele>92.35156</ele>
        <time>2021-06-30T20:09:02Z</time>
      </trkpt>
      <trkpt lat="43.695370" lon="5.025887">
        <ele>91.92902</ele>
        <time>2021-06-30T20:09:03Z</time>
      </trkpt>
      <trkpt lat="43.695370" lon="5.025887">
        <ele>91.18658</ele>
        <time>2021-06-30T20:09:04Z</time>
      </trkpt>
      <trkpt lat="43.695324" lon="5.025916">
        <ele>91.54333</ele>
        <time>2021-06-30T20:09:05Z</time>
      </trkpt>
      <trkpt lat="43.695286" lon="5.025939">
        <ele>91.71619</ele>
        <time>2021-06-30T20:09:06Z</time>
      </trkpt>
      <trkpt lat="43.695236" lon="5.025967">
        <ele>90.09717</ele>
        <time>2021-06-30T20:09:07Z</time>
      </trkpt>
      <trkpt lat="43.695145" lon="5.025995">
        <ele>89.79462</ele>
        <time>2021-06-30T20:09:08Z</time>
      </trkpt>
      <trkpt lat="43.695038" lon="5.026036">
        <ele>89.19171</ele>
        <time>2021-06-30T20:09:09Z</time>
      </trkpt>
      <trkpt lat="43.695011" lon="5.026054">
        <ele>89.61389</ele>
        <time>2021-06-30T20:09:10Z</time>
      </trkpt>
      <trkpt lat="43.694942" lon="5.026101">
        <ele>89.45868</ele>
        <time>2021-06-30T20:09:11Z</time>
      </trkpt>
      <trkpt lat="43.694836" lon="5.026154">
        <ele>89.43555</ele>
        <time>2021-06-30T20:09:12Z</time>
      </trkpt>
      <trkpt lat="43.694748" lon="5.026175">
        <ele>89.30371</ele>
        <time>2021-06-30T20:09:13Z</time>
      </trkpt>
      <trkpt lat="43.694660" lon="5.026197">
        <ele>88.93933</ele>
        <time>2021-06-30T20:09:14Z</time>
      </trkpt>
      <trkpt lat="43.694530" lon="5.026266">
        <ele>89.62659</ele>
        <time>2021-06-30T20:09:15Z</time>
      </trkpt>
      <trkpt lat="43.694420" lon="5.026333">
        <ele>90.21143</ele>
        <time>2021-06-30T20:09:16Z</time>
      </trkpt>
      <trkpt lat="43.694290" lon="5.026411">
        <ele>90.48914</ele>
        <time>2021-06-30T20:09:17Z</time>
      </trkpt>
      <trkpt lat="43.694290" lon="5.026411">
        <ele>91.28510</ele>
        <time>2021-06-30T20:09:18Z</time>
      </trkpt>
      <trkpt lat="43.694187" lon="5.026512">
        <ele>90.92505</ele>
        <time>2021-06-30T20:09:19Z</time>
      </trkpt>
      <trkpt lat="43.694073" lon="5.026584">
        <ele>90.10571</ele>
        <time>2021-06-30T20:09:20Z</time>
      </trkpt>
      <trkpt lat="43.693954" lon="5.026656">
        <ele>89.41162</ele>
        <time>2021-06-30T20:09:21Z</time>
      </trkpt>
      <trkpt lat="43.693840" lon="5.026723">
        <ele>89.21655</ele>
        <time>2021-06-30T20:09:22Z</time>
      </trkpt>
      <trkpt lat="43.693737" lon="5.026776">
        <ele>89.41547</ele>
        <time>2021-06-30T20:09:23Z</time>
      </trkpt>
      <trkpt lat="43.693684" lon="5.026794">
        <ele>89.56616</ele>
        <time>2021-06-30T20:09:24Z</time>
      </trkpt>
      <trkpt lat="43.693539" lon="5.026833">
        <ele>86.88885</ele>
        <time>2021-06-30T20:09:25Z</time>
      </trkpt>
      <trkpt lat="43.693413" lon="5.026858">
        <ele>87.16504</ele>
        <time>2021-06-30T20:09:26Z</time>
      </trkpt>
      <trkpt lat="43.693298" lon="5.026917">
        <ele>87.63489</ele>
        <time>2021-06-30T20:09:27Z</time>
      </trkpt>
      <trkpt lat="43.693214" lon="5.026982">
        <ele>87.53992</ele>
        <time>2021-06-30T20:09:28Z</time>
      </trkpt>
      <trkpt lat="43.693108" lon="5.027073">
        <ele>87.26660</ele>
        <time>2021-06-30T20:09:29Z</time>
      </trkpt>
      <trkpt lat="43.693039" lon="5.027123">
        <ele>86.40320</ele>
        <time>2021-06-30T20:09:30Z</time>
      </trkpt>
      <trkpt lat="43.693005" lon="5.027134">
        <ele>86.42975</ele>
        <time>2021-06-30T20:09:31Z</time>
      </trkpt>
      <trkpt lat="43.693001" lon="5.027136">
        <ele>86.11487</ele>
        <time>2021-06-30T20:09:32Z</time>
      </trkpt>
      <trkpt lat="43.693001" lon="5.027136">
        <ele>85.99463</ele>
        <time>2021-06-30T20:09:33Z</time>
      </trkpt>
      <trkpt lat="43.692944" lon="5.027151">
        <ele>84.41187</ele>
        <time>2021-06-30T20:09:34Z</time>
      </trkpt>
      <trkpt lat="43.692883" lon="5.027068">
        <ele>84.71405</ele>
        <time>2021-06-30T20:09:35Z</time>
      </trkpt>
      <trkpt lat="43.692814" lon="5.027005">
        <ele>84.90594</ele>
        <time>2021-06-30T20:09:36Z</time>
      </trkpt>
      <trkpt lat="43.692757" lon="5.026989">
        <ele>85.63342</ele>
        <time>2021-06-30T20:09:37Z</time>
      </trkpt>
      <trkpt lat="43.692722" lon="5.027025">
        <ele>86.82654</ele>
        <time>2021-06-30T20:09:38Z</time>
      </trkpt>
      <trkpt lat="43.692696" lon="5.027073">
        <ele>87.81354</ele>
        <time>2021-06-30T20:09:39Z</time>
      </trkpt>
      <trkpt lat="43.692699" lon="5.027127">
        <ele>88.17981</ele>
        <time>2021-06-30T20:09:40Z</time>
      </trkpt>
      <trkpt lat="43.692711" lon="5.027171">
        <ele>88.87842</ele>
        <time>2021-06-30T20:09:41Z</time>
      </trkpt>
      <trkpt lat="43.692757" lon="5.027258">
        <ele>88.28955</ele>
        <time>2021-06-30T20:09:42Z</time>
      </trkpt>
      <trkpt lat="43.692852" lon="5.027340">
        <ele>88.48236</ele>
        <time>2021-06-30T20:09:43Z</time>
      </trkpt>
      <trkpt lat="43.692867" lon="5.027469">
        <ele>87.20789</ele>
        <time>2021-06-30T20:09:44Z</time>
      </trkpt>
      <trkpt lat="43.692921" lon="5.027619">
        <ele>87.29932</ele>
        <time>2021-06-30T20:09:45Z</time>
      </trkpt>
      <trkpt lat="43.692921" lon="5.027619">
        <ele>87.47980</ele>
        <time>2021-06-30T20:09:46Z</time>
      </trkpt>
      <trkpt lat="43.692982" lon="5.027784">
        <ele>87.14227</ele>
        <time>2021-06-30T20:09:47Z</time>
      </trkpt>
      <trkpt lat="43.693008" lon="5.027852">
        <ele>86.86633</ele>
        <time>2021-06-30T20:09:48Z</time>
      </trkpt>
      <trkpt lat="43.693039" lon="5.027941">
        <ele>86.84723</ele>
        <time>2021-06-30T20:09:49Z</time>
      </trkpt>
      <trkpt lat="43.693058" lon="5.027991">
        <ele>84.55914</ele>
        <time>2021-06-30T20:09:50Z</time>
      </trkpt>
      <trkpt lat="43.693104" lon="5.028109">
        <ele>84.27148</ele>
        <time>2021-06-30T20:09:51Z</time>
      </trkpt>
      <trkpt lat="43.693161" lon="5.028187">
        <ele>80.32574</ele>
        <time>2021-06-30T20:09:52Z</time>
      </trkpt>
      <trkpt lat="43.693211" lon="5.028309">
        <ele>80.63416</ele>
        <time>2021-06-30T20:09:53Z</time>
      </trkpt>
      <trkpt lat="43.693249" lon="5.028408">
        <ele>76.87311</ele>
        <time>2021-06-30T20:09:54Z</time>
      </trkpt>
      <trkpt lat="43.693268" lon="5.028454">
        <ele>76.90790</ele>
        <time>2021-06-30T20:09:55Z</time>
      </trkpt>
      <trkpt lat="43.693268" lon="5.028454">
        <ele>77.53296</ele>
        <time>2021-06-30T20:09:56Z</time>
      </trkpt>
      <trkpt lat="43.693287" lon="5.028511">
        <ele>74.91583</ele>
        <time>2021-06-30T20:09:57Z</time>
      </trkpt>
      <trkpt lat="43.693287" lon="5.028511">
        <ele>74.85370</ele>
        <time>2021-06-30T20:09:58Z</time>
      </trkpt>
      <trkpt lat="43.693336" lon="5.028638">
        <ele>75.10291</ele>
        <time>2021-06-30T20:09:59Z</time>
      </trkpt>
      <trkpt lat="43.693359" lon="5.028697">
        <ele>76.17090</ele>
        <time>2021-06-30T20:10:00Z</time>
      </trkpt>
      <trkpt lat="43.693398" lon="5.028787">
        <ele>77.53790</ele>
        <time>2021-06-30T20:10:01Z</time>
      </trkpt>
      <trkpt lat="43.693455" lon="5.028939">
        <ele>81.46594</ele>
        <time>2021-06-30T20:10:02Z</time>
      </trkpt>
      <trkpt lat="43.693493" lon="5.029027">
        <ele>81.58252</ele>
        <time>2021-06-30T20:10:03Z</time>
      </trkpt>
      <trkpt lat="43.693542" lon="5.029151">
        <ele>81.99963</ele>
        <time>2021-06-30T20:10:04Z</time>
      </trkpt>
      <trkpt lat="43.693573" lon="5.029232">
        <ele>82.81714</ele>
        <time>2021-06-30T20:10:05Z</time>
      </trkpt>
      <trkpt lat="43.693577" lon="5.029240">
        <ele>82.16467</ele>
        <time>2021-06-30T20:10:06Z</time>
      </trkpt>
      <trkpt lat="43.693588" lon="5.029270">
        <ele>83.10840</ele>
        <time>2021-06-30T20:10:07Z</time>
      </trkpt>
      <trkpt lat="43.693596" lon="5.029285">
        <ele>83.49652</ele>
        <time>2021-06-30T20:10:08Z</time>
      </trkpt>
      <trkpt lat="43.693569" lon="5.029384">
        <ele>83.47412</ele>
        <time>2021-06-30T20:10:09Z</time>
      </trkpt>
      <trkpt lat="43.693455" lon="5.029408">
        <ele>82.56451</ele>
        <time>2021-06-30T20:10:10Z</time>
      </trkpt>
      <trkpt lat="43.693424" lon="5.029414">
        <ele>82.20215</ele>
        <time>2021-06-30T20:10:11Z</time>
      </trkpt>
      <trkpt lat="43.693424" lon="5.029414">
        <ele>82.18866</ele>
        <time>2021-06-30T20:10:12Z</time>
      </trkpt>
      <trkpt lat="43.693336" lon="5.029433">
        <ele>82.57886</ele>
        <time>2021-06-30T20:10:13Z</time>
      </trkpt>
      <trkpt lat="43.693233" lon="5.029454">
        <ele>81.51135</ele>
        <time>2021-06-30T20:10:14Z</time>
      </trkpt>
      <trkpt lat="43.693157" lon="5.029469">
        <ele>81.37384</ele>
        <time>2021-06-30T20:10:15Z</time>
      </trkpt>
      <trkpt lat="43.692928" lon="5.029517">
        <ele>82.50110</ele>
        <time>2021-06-30T20:10:16Z</time>
      </trkpt>
      <trkpt lat="43.692814" lon="5.029540">
        <ele>80.48883</ele>
        <time>2021-06-30T20:10:17Z</time>
      </trkpt>
      <trkpt lat="43.692711" lon="5.029567">
        <ele>79.70636</ele>
        <time>2021-06-30T20:10:18Z</time>
      </trkpt>
      <trkpt lat="43.692600" lon="5.029597">
        <ele>81.01715</ele>
        <time>2021-06-30T20:10:19Z</time>
      </trkpt>
      <trkpt lat="43.692493" lon="5.029626">
        <ele>80.87610</ele>
        <time>2021-06-30T20:10:20Z</time>
      </trkpt>
      <trkpt lat="43.692379" lon="5.029657">
        <ele>81.98077</ele>
        <time>2021-06-30T20:10:21Z</time>
      </trkpt>
      <trkpt lat="43.692257" lon="5.029690">
        <ele>81.42981</ele>
        <time>2021-06-30T20:10:22Z</time>
      </trkpt>
      <trkpt lat="43.692257" lon="5.029690">
        <ele>82.50708</ele>
        <time>2021-06-30T20:10:23Z</time>
      </trkpt>
      <trkpt lat="43.692150" lon="5.029720">
        <ele>84.74456</ele>
        <time>2021-06-30T20:10:24Z</time>
      </trkpt>
      <trkpt lat="43.692070" lon="5.029740">
        <ele>84.64289</ele>
        <time>2021-06-30T20:10:25Z</time>
      </trkpt>
      <trkpt lat="43.691963" lon="5.029766">
        <ele>84.26617</ele>
        <time>2021-06-30T20:10:26Z</time>
      </trkpt>
      <trkpt lat="43.691883" lon="5.029786">
        <ele>83.90751</ele>
        <time>2021-06-30T20:10:27Z</time>
      </trkpt>
      <trkpt lat="43.691776" lon="5.029811">
        <ele>83.69444</ele>
        <time>2021-06-30T20:10:28Z</time>
      </trkpt>
      <trkpt lat="43.691757" lon="5.029817">
        <ele>83.58826</ele>
        <time>2021-06-30T20:10:29Z</time>
      </trkpt>
      <trkpt lat="43.691719" lon="5.029826">
        <ele>83.96916</ele>
        <time>2021-06-30T20:10:30Z</time>
      </trkpt>
      <trkpt lat="43.691677" lon="5.029836">
        <ele>83.69813</ele>
        <time>2021-06-30T20:10:31Z</time>
      </trkpt>
      <trkpt lat="43.691677" lon="5.029836">
        <ele>83.69813</ele>
        <time>2021-06-30T20:10:32Z</time>
      </trkpt>
      <trkpt lat="43.691616" lon="5.029851">
        <ele>83.68218</ele>
        <time>2021-06-30T20:10:33Z</time>
      </trkpt>
      <trkpt lat="43.691547" lon="5.029868">
        <ele>83.76146</ele>
        <time>2021-06-30T20:10:34Z</time>
      </trkpt>
      <trkpt lat="43.691456" lon="5.029890">
        <ele>83.74561</ele>
        <time>2021-06-30T20:10:35Z</time>
      </trkpt>
      <trkpt lat="43.691380" lon="5.029909">
        <ele>83.58168</ele>
        <time>2021-06-30T20:10:36Z</time>
      </trkpt>
      <trkpt lat="43.691292" lon="5.029931">
        <ele>83.32815</ele>
        <time>2021-06-30T20:10:37Z</time>
      </trkpt>
      <trkpt lat="43.691208" lon="5.029952">
        <ele>83.42094</ele>
        <time>2021-06-30T20:10:38Z</time>
      </trkpt>
      <trkpt lat="43.691189" lon="5.029956">
        <ele>83.64736</ele>
        <time>2021-06-30T20:10:39Z</time>
      </trkpt>
      <trkpt lat="43.691097" lon="5.029979">
        <ele>83.55812</ele>
        <time>2021-06-30T20:10:40Z</time>
      </trkpt>
      <trkpt lat="43.690987" lon="5.030007">
        <ele>83.88403</ele>
        <time>2021-06-30T20:10:41Z</time>
      </trkpt>
      <trkpt lat="43.690887" lon="5.030033">
        <ele>83.80429</ele>
        <time>2021-06-30T20:10:42Z</time>
      </trkpt>
      <trkpt lat="43.690796" lon="5.030057">
        <ele>84.06315</ele>
        <time>2021-06-30T20:10:43Z</time>
      </trkpt>
      <trkpt lat="43.690666" lon="5.030091">
        <ele>83.77040</ele>
        <time>2021-06-30T20:10:44Z</time>
      </trkpt>
      <trkpt lat="43.690666" lon="5.030091">
        <ele>83.69736</ele>
        <time>2021-06-30T20:10:45Z</time>
      </trkpt>
      <trkpt lat="43.690552" lon="5.030122">
        <ele>83.55592</ele>
        <time>2021-06-30T20:10:46Z</time>
      </trkpt>
      <trkpt lat="43.690464" lon="5.030145">
        <ele>83.58366</ele>
        <time>2021-06-30T20:10:47Z</time>
      </trkpt>
      <trkpt lat="43.690384" lon="5.030166">
        <ele>83.75644</ele>
        <time>2021-06-30T20:10:48Z</time>
      </trkpt>
      <trkpt lat="43.690300" lon="5.030187">
        <ele>83.84515</ele>
        <time>2021-06-30T20:10:49Z</time>
      </trkpt>
      <trkpt lat="43.690205" lon="5.030210">
        <ele>83.82869</ele>
        <time>2021-06-30T20:10:50Z</time>
      </trkpt>
      <trkpt lat="43.690056" lon="5.030247">
        <ele>86.47083</ele>
        <time>2021-06-30T20:10:51Z</time>
      </trkpt>
      <trkpt lat="43.689957" lon="5.030272">
        <ele>87.17725</ele>
        <time>2021-06-30T20:10:52Z</time>
      </trkpt>
      <trkpt lat="43.689854" lon="5.030298">
        <ele>86.99792</ele>
        <time>2021-06-30T20:10:53Z</time>
      </trkpt>
      <trkpt lat="43.689774" lon="5.030317">
        <ele>87.15918</ele>
        <time>2021-06-30T20:10:54Z</time>
      </trkpt>
      <trkpt lat="43.689678" lon="5.030341">
        <ele>87.32715</ele>
        <time>2021-06-30T20:10:55Z</time>
      </trkpt>
      <trkpt lat="43.689587" lon="5.030364">
        <ele>86.48871</ele>
        <time>2021-06-30T20:10:56Z</time>
      </trkpt>
      <trkpt lat="43.689480" lon="5.030393">
        <ele>86.29407</ele>
        <time>2021-06-30T20:10:57Z</time>
      </trkpt>
      <trkpt lat="43.689396" lon="5.030418">
        <ele>86.60730</ele>
        <time>2021-06-30T20:10:58Z</time>
      </trkpt>
      <trkpt lat="43.689396" lon="5.030418">
        <ele>86.44128</ele>
        <time>2021-06-30T20:10:59Z</time>
      </trkpt>
      <trkpt lat="43.689308" lon="5.030441">
        <ele>87.14124</ele>
        <time>2021-06-30T20:11:00Z</time>
      </trkpt>
      <trkpt lat="43.689247" lon="5.030429">
        <ele>86.96222</ele>
        <time>2021-06-30T20:11:01Z</time>
      </trkpt>
      <trkpt lat="43.689190" lon="5.030380">
        <ele>86.36011</ele>
        <time>2021-06-30T20:11:02Z</time>
      </trkpt>
      <trkpt lat="43.689095" lon="5.030372">
        <ele>86.32019</ele>
        <time>2021-06-30T20:11:03Z</time>
      </trkpt>
      <trkpt lat="43.689018" lon="5.030436">
        <ele>85.34314</ele>
        <time>2021-06-30T20:11:04Z</time>
      </trkpt>
      <trkpt lat="43.688854" lon="5.030557">
        <ele>85.16736</ele>
        <time>2021-06-30T20:11:05Z</time>
      </trkpt>
      <trkpt lat="43.688728" lon="5.030581">
        <ele>83.12854</ele>
        <time>2021-06-30T20:11:06Z</time>
      </trkpt>
      <trkpt lat="43.688580" lon="5.030610">
        <ele>82.92126</ele>
        <time>2021-06-30T20:11:07Z</time>
      </trkpt>
      <trkpt lat="43.688438" lon="5.030638">
        <ele>82.11389</ele>
        <time>2021-06-30T20:11:08Z</time>
      </trkpt>
      <trkpt lat="43.688438" lon="5.030638">
        <ele>81.03156</ele>
        <time>2021-06-30T20:11:09Z</time>
      </trkpt>
      <trkpt lat="43.688297" lon="5.030665">
        <ele>80.90387</ele>
        <time>2021-06-30T20:11:10Z</time>
      </trkpt>
      <trkpt lat="43.688129" lon="5.030697">
        <ele>80.59668</ele>
        <time>2021-06-30T20:11:11Z</time>
      </trkpt>
      <trkpt lat="43.687984" lon="5.030724">
        <ele>80.54565</ele>
        <time>2021-06-30T20:11:12Z</time>
      </trkpt>
      <trkpt lat="43.687847" lon="5.030748">
        <ele>82.24200</ele>
        <time>2021-06-30T20:11:13Z</time>
      </trkpt>
      <trkpt lat="43.687729" lon="5.030770">
        <ele>82.44788</ele>
        <time>2021-06-30T20:11:14Z</time>
      </trkpt>
      <trkpt lat="43.687607" lon="5.030789">
        <ele>82.60394</ele>
        <time>2021-06-30T20:11:15Z</time>
      </trkpt>
      <trkpt lat="43.687534" lon="5.030801">
        <ele>82.65894</ele>
        <time>2021-06-30T20:11:16Z</time>
      </trkpt>
      <trkpt lat="43.687408" lon="5.030821">
        <ele>81.91382</ele>
        <time>2021-06-30T20:11:17Z</time>
      </trkpt>
      <trkpt lat="43.687317" lon="5.030835">
        <ele>81.95404</ele>
        <time>2021-06-30T20:11:18Z</time>
      </trkpt>
      <trkpt lat="43.687267" lon="5.030843">
        <ele>81.90625</ele>
        <time>2021-06-30T20:11:19Z</time>
      </trkpt>
      <trkpt lat="43.687187" lon="5.030856">
        <ele>83.32703</ele>
        <time>2021-06-30T20:11:20Z</time>
      </trkpt>
      <trkpt lat="43.687187" lon="5.030856">
        <ele>84.34778</ele>
        <time>2021-06-30T20:11:21Z</time>
      </trkpt>
      <trkpt lat="43.687138" lon="5.030864">
        <ele>84.64868</ele>
        <time>2021-06-30T20:11:22Z</time>
      </trkpt>
      <trkpt lat="43.687065" lon="5.030877">
        <ele>85.11212</ele>
        <time>2021-06-30T20:11:23Z</time>
      </trkpt>
      <trkpt lat="43.687027" lon="5.030883">
        <ele>83.02502</ele>
        <time>2021-06-30T20:11:24Z</time>
      </trkpt>
      <trkpt lat="43.686928" lon="5.030901">
        <ele>83.02545</ele>
        <time>2021-06-30T20:11:25Z</time>
      </trkpt>
      <trkpt lat="43.686848" lon="5.030915">
        <ele>84.19196</ele>
        <time>2021-06-30T20:11:26Z</time>
      </trkpt>
      <trkpt lat="43.686768" lon="5.030929">
        <ele>84.28156</ele>
        <time>2021-06-30T20:11:27Z</time>
      </trkpt>
      <trkpt lat="43.686703" lon="5.030941">
        <ele>82.56128</ele>
        <time>2021-06-30T20:11:28Z</time>
      </trkpt>
      <trkpt lat="43.686668" lon="5.030947">
        <ele>81.92413</ele>
        <time>2021-06-30T20:11:29Z</time>
      </trkpt>
      <trkpt lat="43.686584" lon="5.030961">
        <ele>82.03339</ele>
        <time>2021-06-30T20:11:30Z</time>
      </trkpt>
      <trkpt lat="43.686512" lon="5.030974">
        <ele>82.62585</ele>
        <time>2021-06-30T20:11:31Z</time>
      </trkpt>
      <trkpt lat="43.686432" lon="5.030989">
        <ele>82.46088</ele>
        <time>2021-06-30T20:11:32Z</time>
      </trkpt>
      <trkpt lat="43.686359" lon="5.031001">
        <ele>81.40338</ele>
        <time>2021-06-30T20:11:33Z</time>
      </trkpt>
      <trkpt lat="43.686283" lon="5.031015">
        <ele>81.41010</ele>
        <time>2021-06-30T20:11:34Z</time>
      </trkpt>
      <trkpt lat="43.686195" lon="5.031030">
        <ele>80.03278</ele>
        <time>2021-06-30T20:11:35Z</time>
      </trkpt>
      <trkpt lat="43.686195" lon="5.031030">
        <ele>78.63336</ele>
        <time>2021-06-30T20:11:36Z</time>
      </trkpt>
      <trkpt lat="43.686104" lon="5.031047">
        <ele>75.55658</ele>
        <time>2021-06-30T20:11:37Z</time>
      </trkpt>
      <trkpt lat="43.685982" lon="5.031069">
        <ele>75.94989</ele>
        <time>2021-06-30T20:11:38Z</time>
      </trkpt>
      <trkpt lat="43.685844" lon="5.031092">
        <ele>73.79382</ele>
        <time>2021-06-30T20:11:39Z</time>
      </trkpt>
      <trkpt lat="43.685719" lon="5.031115">
        <ele>73.67102</ele>
        <time>2021-06-30T20:11:40Z</time>
      </trkpt>
      <trkpt lat="43.685574" lon="5.031141">
        <ele>74.57678</ele>
        <time>2021-06-30T20:11:41Z</time>
      </trkpt>
      <trkpt lat="43.685444" lon="5.031163">
        <ele>74.69946</ele>
        <time>2021-06-30T20:11:42Z</time>
      </trkpt>
      <trkpt lat="43.685314" lon="5.031187">
        <ele>73.60199</ele>
        <time>2021-06-30T20:11:43Z</time>
      </trkpt>
      <trkpt lat="43.685215" lon="5.031205">
        <ele>73.06799</ele>
        <time>2021-06-30T20:11:44Z</time>
      </trkpt>
      <trkpt lat="43.685112" lon="5.031223">
        <ele>74.18567</ele>
        <time>2021-06-30T20:11:45Z</time>
      </trkpt>
      <trkpt lat="43.685062" lon="5.031232">
        <ele>73.05627</ele>
        <time>2021-06-30T20:11:46Z</time>
      </trkpt>
      <trkpt lat="43.685032" lon="5.031238">
        <ele>73.06830</ele>
        <time>2021-06-30T20:11:47Z</time>
      </trkpt>
      <trkpt lat="43.684971" lon="5.031249">
        <ele>74.70496</ele>
        <time>2021-06-30T20:11:48Z</time>
      </trkpt>
      <trkpt lat="43.684917" lon="5.031258">
        <ele>75.79163</ele>
        <time>2021-06-30T20:11:49Z</time>
      </trkpt>
      <trkpt lat="43.684917" lon="5.031258">
        <ele>75.72791</ele>
        <time>2021-06-30T20:11:50Z</time>
      </trkpt>
      <trkpt lat="43.684849" lon="5.031271">
        <ele>77.35675</ele>
        <time>2021-06-30T20:11:51Z</time>
      </trkpt>
      <trkpt lat="43.684727" lon="5.031293">
        <ele>77.47516</ele>
        <time>2021-06-30T20:11:52Z</time>
      </trkpt>
      <trkpt lat="43.684605" lon="5.031314">
        <ele>77.53961</ele>
        <time>2021-06-30T20:11:53Z</time>
      </trkpt>
      <trkpt lat="43.684517" lon="5.031330">
        <ele>79.50806</ele>
        <time>2021-06-30T20:11:54Z</time>
      </trkpt>
      <trkpt lat="43.684410" lon="5.031349">
        <ele>79.46826</ele>
        <time>2021-06-30T20:11:55Z</time>
      </trkpt>
      <trkpt lat="43.684311" lon="5.031367">
        <ele>79.48029</ele>
        <time>2021-06-30T20:11:56Z</time>
      </trkpt>
      <trkpt lat="43.684158" lon="5.031395">
        <ele>82.06586</ele>
        <time>2021-06-30T20:11:57Z</time>
      </trkpt>
      <trkpt lat="43.684029" lon="5.031417">
        <ele>79.17310</ele>
        <time>2021-06-30T20:11:58Z</time>
      </trkpt>
      <trkpt lat="43.683910" lon="5.031438">
        <ele>79.20795</ele>
        <time>2021-06-30T20:11:59Z</time>
      </trkpt>
      <trkpt lat="43.683853" lon="5.031448">
        <ele>79.65649</ele>
        <time>2021-06-30T20:12:00Z</time>
      </trkpt>
      <trkpt lat="43.683853" lon="5.031448">
        <ele>80.12732</ele>
        <time>2021-06-30T20:12:01Z</time>
      </trkpt>
      <trkpt lat="43.683765" lon="5.031463">
        <ele>79.89758</ele>
        <time>2021-06-30T20:12:02Z</time>
      </trkpt>
      <trkpt lat="43.683735" lon="5.031469">
        <ele>78.85071</ele>
        <time>2021-06-30T20:12:03Z</time>
      </trkpt>
      <trkpt lat="43.683651" lon="5.031484">
        <ele>78.74213</ele>
        <time>2021-06-30T20:12:04Z</time>
      </trkpt>
      <trkpt lat="43.683548" lon="5.031502">
        <ele>80.24103</ele>
        <time>2021-06-30T20:12:05Z</time>
      </trkpt>
      <trkpt lat="43.683430" lon="5.031519">
        <ele>80.03827</ele>
        <time>2021-06-30T20:12:06Z</time>
      </trkpt>
      <trkpt lat="43.683292" lon="5.031522">
        <ele>79.85809</ele>
        <time>2021-06-30T20:12:07Z</time>
      </trkpt>
      <trkpt lat="43.683128" lon="5.031507">
        <ele>81.87866</ele>
        <time>2021-06-30T20:12:08Z</time>
      </trkpt>
      <trkpt lat="43.682987" lon="5.031486">
        <ele>82.23138</ele>
        <time>2021-06-30T20:12:09Z</time>
      </trkpt>
      <trkpt lat="43.682835" lon="5.031448">
        <ele>80.36523</ele>
        <time>2021-06-30T20:12:10Z</time>
      </trkpt>
      <trkpt lat="43.682598" lon="5.031362">
        <ele>82.43805</ele>
        <time>2021-06-30T20:12:11Z</time>
      </trkpt>
      <trkpt lat="43.682419" lon="5.031287">
        <ele>81.73492</ele>
        <time>2021-06-30T20:12:12Z</time>
      </trkpt>
      <trkpt lat="43.682419" lon="5.031287">
        <ele>81.48047</ele>
        <time>2021-06-30T20:12:13Z</time>
      </trkpt>
      <trkpt lat="43.682259" lon="5.031195">
        <ele>81.37732</ele>
        <time>2021-06-30T20:12:14Z</time>
      </trkpt>
      <trkpt lat="43.682076" lon="5.031066">
        <ele>81.55493</ele>
        <time>2021-06-30T20:12:15Z</time>
      </trkpt>
      <trkpt lat="43.681889" lon="5.030908">
        <ele>80.61914</ele>
        <time>2021-06-30T20:12:16Z</time>
      </trkpt>
      <trkpt lat="43.681725" lon="5.030752">
        <ele>80.49738</ele>
        <time>2021-06-30T20:12:17Z</time>
      </trkpt>
      <trkpt lat="43.681477" lon="5.030504">
        <ele>80.03076</ele>
        <time>2021-06-30T20:12:18Z</time>
      </trkpt>
      <trkpt lat="43.681297" lon="5.030316">
        <ele>79.18671</ele>
        <time>2021-06-30T20:12:19Z</time>
      </trkpt>
      <trkpt lat="43.681122" lon="5.030127">
        <ele>79.03882</ele>
        <time>2021-06-30T20:12:20Z</time>
      </trkpt>
      <trkpt lat="43.680912" lon="5.029904">
        <ele>78.49115</ele>
        <time>2021-06-30T20:12:21Z</time>
      </trkpt>
      <trkpt lat="43.680679" lon="5.029659">
        <ele>77.88086</ele>
        <time>2021-06-30T20:12:22Z</time>
      </trkpt>
      <trkpt lat="43.680454" lon="5.029404">
        <ele>78.29254</ele>
        <time>2021-06-30T20:12:23Z</time>
      </trkpt>
      <trkpt lat="43.680244" lon="5.029169">
        <ele>78.93774</ele>
        <time>2021-06-30T20:12:24Z</time>
      </trkpt>
      <trkpt lat="43.680008" lon="5.028908">
        <ele>79.68280</ele>
        <time>2021-06-30T20:12:25Z</time>
      </trkpt>
      <trkpt lat="43.680008" lon="5.028908">
        <ele>79.67139</ele>
        <time>2021-06-30T20:12:26Z</time>
      </trkpt>
      <trkpt lat="43.679642" lon="5.028549">
        <ele>79.59613</ele>
        <time>2021-06-30T20:12:27Z</time>
      </trkpt>
      <trkpt lat="43.679642" lon="5.028549">
        <ele>80.15875</ele>
        <time>2021-06-30T20:12:28Z</time>
      </trkpt>
      <trkpt lat="43.679424" lon="5.028371">
        <ele>79.89551</ele>
        <time>2021-06-30T20:12:29Z</time>
      </trkpt>
      <trkpt lat="43.679192" lon="5.028212">
        <ele>78.94348</ele>
        <time>2021-06-30T20:12:30Z</time>
      </trkpt>
      <trkpt lat="43.678898" lon="5.028026">
        <ele>78.47223</ele>
        <time>2021-06-30T20:12:31Z</time>
      </trkpt>
      <trkpt lat="43.678570" lon="5.027819">
        <ele>79.74304</ele>
        <time>2021-06-30T20:12:32Z</time>
      </trkpt>
      <trkpt lat="43.678333" lon="5.027669">
        <ele>80.63422</ele>
        <time>2021-06-30T20:12:33Z</time>
      </trkpt>
      <trkpt lat="43.678059" lon="5.027489">
        <ele>79.46594</ele>
        <time>2021-06-30T20:12:34Z</time>
      </trkpt>
      <trkpt lat="43.677814" lon="5.027329">
        <ele>79.86578</ele>
        <time>2021-06-30T20:12:35Z</time>
      </trkpt>
      <trkpt lat="43.677540" lon="5.027150">
        <ele>79.66406</ele>
        <time>2021-06-30T20:12:36Z</time>
      </trkpt>
      <trkpt lat="43.677284" lon="5.027005">
        <ele>79.93939</ele>
        <time>2021-06-30T20:12:37Z</time>
      </trkpt>
      <trkpt lat="43.677029" lon="5.026872">
        <ele>80.63074</ele>
        <time>2021-06-30T20:12:38Z</time>
      </trkpt>
      <trkpt lat="43.676792" lon="5.026766">
        <ele>79.13666</ele>
        <time>2021-06-30T20:12:39Z</time>
      </trkpt>
      <trkpt lat="43.676792" lon="5.026766">
        <ele>79.13666</ele>
        <time>2021-06-30T20:12:40Z</time>
      </trkpt>
      <trkpt lat="43.676590" lon="5.026704">
        <ele>81.48077</ele>
        <time>2021-06-30T20:12:41Z</time>
      </trkpt>
      <trkpt lat="43.676407" lon="5.026654">
        <ele>81.47449</ele>
        <time>2021-06-30T20:12:42Z</time>
      </trkpt>
      <trkpt lat="43.676125" lon="5.026574">
        <ele>80.69128</ele>
        <time>2021-06-30T20:12:43Z</time>
      </trkpt>
      <trkpt lat="43.675804" lon="5.026480">
        <ele>81.60828</ele>
        <time>2021-06-30T20:12:44Z</time>
      </trkpt>
      <trkpt lat="43.675442" lon="5.026344">
        <ele>81.83197</ele>
        <time>2021-06-30T20:12:45Z</time>
      </trkpt>
      <trkpt lat="43.675091" lon="5.026199">
        <ele>82.05957</ele>
        <time>2021-06-30T20:12:46Z</time>
      </trkpt>
      <trkpt lat="43.674732" lon="5.026049">
        <ele>81.85767</ele>
        <time>2021-06-30T20:12:47Z</time>
      </trkpt>
      <trkpt lat="43.674328" lon="5.025881">
        <ele>81.97601</ele>
        <time>2021-06-30T20:12:48Z</time>
      </trkpt>
      <trkpt lat="43.673935" lon="5.025719">
        <ele>81.07861</ele>
        <time>2021-06-30T20:12:49Z</time>
      </trkpt>
      <trkpt lat="43.673512" lon="5.025543">
        <ele>80.65442</ele>
        <time>2021-06-30T20:12:50Z</time>
      </trkpt>
      <trkpt lat="43.673092" lon="5.025369">
        <ele>81.54626</ele>
        <time>2021-06-30T20:12:51Z</time>
      </trkpt>
      <trkpt lat="43.673092" lon="5.025369">
        <ele>82.59448</ele>
        <time>2021-06-30T20:12:52Z</time>
      </trkpt>
      <trkpt lat="43.672668" lon="5.025193">
        <ele>82.88416</ele>
        <time>2021-06-30T20:12:53Z</time>
      </trkpt>
      <trkpt lat="43.672241" lon="5.025015">
        <ele>83.54578</ele>
        <time>2021-06-30T20:12:54Z</time>
      </trkpt>
      <trkpt lat="43.671875" lon="5.024861">
        <ele>83.54578</ele>
        <time>2021-06-30T20:12:55Z</time>
      </trkpt>
      <trkpt lat="43.671482" lon="5.024696">
        <ele>82.20874</ele>
        <time>2021-06-30T20:12:56Z</time>
      </trkpt>
      <trkpt lat="43.671124" lon="5.024546">
        <ele>80.57422</ele>
        <time>2021-06-30T20:12:57Z</time>
      </trkpt>
      <trkpt lat="43.670704" lon="5.024370">
        <ele>79.86145</ele>
        <time>2021-06-30T20:12:58Z</time>
      </trkpt>
      <trkpt lat="43.670307" lon="5.024204">
        <ele>79.90680</ele>
        <time>2021-06-30T20:12:59Z</time>
      </trkpt>
      <trkpt lat="43.669941" lon="5.024050">
        <ele>80.08228</ele>
        <time>2021-06-30T20:13:00Z</time>
      </trkpt>
      <trkpt lat="43.669617" lon="5.023913">
        <ele>80.68286</ele>
        <time>2021-06-30T20:13:01Z</time>
      </trkpt>
      <trkpt lat="43.669243" lon="5.023756">
        <ele>79.75000</ele>
        <time>2021-06-30T20:13:02Z</time>
      </trkpt>
      <trkpt lat="43.668915" lon="5.023619">
        <ele>78.71698</ele>
        <time>2021-06-30T20:13:03Z</time>
      </trkpt>
      <trkpt lat="43.668625" lon="5.023499">
        <ele>78.62347</ele>
        <time>2021-06-30T20:13:04Z</time>
      </trkpt>
      <trkpt lat="43.668350" lon="5.023383">
        <ele>78.12555</ele>
        <time>2021-06-30T20:13:05Z</time>
      </trkpt>
      <trkpt lat="43.668350" lon="5.023383">
        <ele>77.74951</ele>
        <time>2021-06-30T20:13:06Z</time>
      </trkpt>
      <trkpt lat="43.668015" lon="5.023243">
        <ele>77.38330</ele>
        <time>2021-06-30T20:13:07Z</time>
      </trkpt>
      <trkpt lat="43.667774" lon="5.023142">
        <ele>77.59460</ele>
        <time>2021-06-30T20:13:08Z</time>
      </trkpt>
      <trkpt lat="43.667568" lon="5.023055">
        <ele>77.43982</ele>
        <time>2021-06-30T20:13:09Z</time>
      </trkpt>
      <trkpt lat="43.667324" lon="5.022953">
        <ele>76.36981</ele>
        <time>2021-06-30T20:13:10Z</time>
      </trkpt>
      <trkpt lat="43.667149" lon="5.022880">
        <ele>76.82819</ele>
        <time>2021-06-30T20:13:11Z</time>
      </trkpt>
      <trkpt lat="43.666901" lon="5.022776">
        <ele>76.71265</ele>
        <time>2021-06-30T20:13:12Z</time>
      </trkpt>
      <trkpt lat="43.666687" lon="5.022689">
        <ele>77.32257</ele>
        <time>2021-06-30T20:13:13Z</time>
      </trkpt>
      <trkpt lat="43.666500" lon="5.022613">
        <ele>77.03644</ele>
        <time>2021-06-30T20:13:14Z</time>
      </trkpt>
      <trkpt lat="43.666294" lon="5.022529">
        <ele>76.65588</ele>
        <time>2021-06-30T20:13:15Z</time>
      </trkpt>
      <trkpt lat="43.666046" lon="5.022440">
        <ele>75.82050</ele>
        <time>2021-06-30T20:13:16Z</time>
      </trkpt>
      <trkpt lat="43.666046" lon="5.022440">
        <ele>76.18073</ele>
        <time>2021-06-30T20:13:17Z</time>
      </trkpt>
      <trkpt lat="43.665813" lon="5.022365">
        <ele>75.60736</ele>
        <time>2021-06-30T20:13:18Z</time>
      </trkpt>
      <trkpt lat="43.665577" lon="5.022302">
        <ele>72.70471</ele>
        <time>2021-06-30T20:13:19Z</time>
      </trkpt>
      <trkpt lat="43.665325" lon="5.022251">
        <ele>73.14355</ele>
        <time>2021-06-30T20:13:20Z</time>
      </trkpt>
      <trkpt lat="43.665089" lon="5.022208">
        <ele>73.74323</ele>
        <time>2021-06-30T20:13:21Z</time>
      </trkpt>
      <trkpt lat="43.664871" lon="5.022168">
        <ele>74.11292</ele>
        <time>2021-06-30T20:13:22Z</time>
      </trkpt>
      <trkpt lat="43.664680" lon="5.022133">
        <ele>72.61292</ele>
        <time>2021-06-30T20:13:23Z</time>
      </trkpt>
      <trkpt lat="43.664440" lon="5.022089">
        <ele>72.91394</ele>
        <time>2021-06-30T20:13:24Z</time>
      </trkpt>
      <trkpt lat="43.664219" lon="5.022048">
        <ele>73.03259</ele>
        <time>2021-06-30T20:13:25Z</time>
      </trkpt>
      <trkpt lat="43.664028" lon="5.022013">
        <ele>73.71259</ele>
        <time>2021-06-30T20:13:26Z</time>
      </trkpt>
      <trkpt lat="43.664028" lon="5.022013">
        <ele>74.11658</ele>
        <time>2021-06-30T20:13:27Z</time>
      </trkpt>
      <trkpt lat="43.663792" lon="5.021970">
        <ele>74.59290</ele>
        <time>2021-06-30T20:13:28Z</time>
      </trkpt>
      <trkpt lat="43.663570" lon="5.021929">
        <ele>74.78052</ele>
        <time>2021-06-30T20:13:29Z</time>
      </trkpt>
      <trkpt lat="43.663361" lon="5.021891">
        <ele>74.42303</ele>
        <time>2021-06-30T20:13:30Z</time>
      </trkpt>
      <trkpt lat="43.663086" lon="5.021840">
        <ele>73.12347</ele>
        <time>2021-06-30T20:13:31Z</time>
      </trkpt>
      <trkpt lat="43.662727" lon="5.021774">
        <ele>73.10205</ele>
        <time>2021-06-30T20:13:32Z</time>
      </trkpt>
      <trkpt lat="43.662312" lon="5.021698">
        <ele>73.63232</ele>
        <time>2021-06-30T20:13:33Z</time>
      </trkpt>
      <trkpt lat="43.661942" lon="5.021630">
        <ele>74.38025</ele>
        <time>2021-06-30T20:13:34Z</time>
      </trkpt>
      <trkpt lat="43.661610" lon="5.021569">
        <ele>73.03387</ele>
        <time>2021-06-30T20:13:35Z</time>
      </trkpt>
      <trkpt lat="43.661259" lon="5.021504">
        <ele>73.03387</ele>
        <time>2021-06-30T20:13:36Z</time>
      </trkpt>
      <trkpt lat="43.660877" lon="5.021434">
        <ele>72.83673</ele>
        <time>2021-06-30T20:13:37Z</time>
      </trkpt>
      <trkpt lat="43.660553" lon="5.021374">
        <ele>72.02484</ele>
        <time>2021-06-30T20:13:38Z</time>
      </trkpt>
      <trkpt lat="43.660080" lon="5.021287">
        <ele>71.39520</ele>
        <time>2021-06-30T20:13:39Z</time>
      </trkpt>
      <trkpt lat="43.659618" lon="5.021202">
        <ele>71.23407</ele>
        <time>2021-06-30T20:13:40Z</time>
      </trkpt>
      <trkpt lat="43.659214" lon="5.021128">
        <ele>70.98242</ele>
        <time>2021-06-30T20:13:41Z</time>
      </trkpt>
      <trkpt lat="43.659214" lon="5.021128">
        <ele>71.93225</ele>
        <time>2021-06-30T20:13:42Z</time>
      </trkpt>
      <trkpt lat="43.658798" lon="5.021052">
        <ele>72.13580</ele>
        <time>2021-06-30T20:13:43Z</time>
      </trkpt>
      <trkpt lat="43.658398" lon="5.020980">
        <ele>71.40668</ele>
        <time>2021-06-30T20:13:44Z</time>
      </trkpt>
      <trkpt lat="43.658005" lon="5.020909">
        <ele>71.64026</ele>
        <time>2021-06-30T20:13:45Z</time>
      </trkpt>
      <trkpt lat="43.657619" lon="5.020839">
        <ele>71.68335</ele>
        <time>2021-06-30T20:13:46Z</time>
      </trkpt>
      <trkpt lat="43.657242" lon="5.020771">
        <ele>71.84131</ele>
        <time>2021-06-30T20:13:47Z</time>
      </trkpt>
      <trkpt lat="43.656864" lon="5.020703">
        <ele>71.15759</ele>
        <time>2021-06-30T20:13:48Z</time>
      </trkpt>
      <trkpt lat="43.656521" lon="5.020640">
        <ele>71.06042</ele>
        <time>2021-06-30T20:13:49Z</time>
      </trkpt>
      <trkpt lat="43.656189" lon="5.020577">
        <ele>71.04376</ele>
        <time>2021-06-30T20:13:50Z</time>
      </trkpt>
      <trkpt lat="43.655880" lon="5.020520">
        <ele>71.08344</ele>
        <time>2021-06-30T20:13:51Z</time>
      </trkpt>
      <trkpt lat="43.655590" lon="5.020467">
        <ele>70.96942</ele>
        <time>2021-06-30T20:13:52Z</time>
      </trkpt>
      <trkpt lat="43.655590" lon="5.020467">
        <ele>69.06799</ele>
        <time>2021-06-30T20:13:53Z</time>
      </trkpt>
      <trkpt lat="43.655266" lon="5.020402">
        <ele>68.40839</ele>
        <time>2021-06-30T20:13:54Z</time>
      </trkpt>
      <trkpt lat="43.654945" lon="5.020337">
        <ele>67.86890</ele>
        <time>2021-06-30T20:13:55Z</time>
      </trkpt>
      <trkpt lat="43.654606" lon="5.020271">
        <ele>68.34235</ele>
        <time>2021-06-30T20:13:56Z</time>
      </trkpt>
      <trkpt lat="43.654243" lon="5.020201">
        <ele>68.24231</ele>
        <time>2021-06-30T20:13:57Z</time>
      </trkpt>
      <trkpt lat="43.653831" lon="5.020120">
        <ele>68.85089</ele>
        <time>2021-06-30T20:13:58Z</time>
      </trkpt>
      <trkpt lat="43.653400" lon="5.020040">
        <ele>68.14355</ele>
        <time>2021-06-30T20:13:59Z</time>
      </trkpt>
      <trkpt lat="43.653015" lon="5.019971">
        <ele>68.36298</ele>
        <time>2021-06-30T20:14:00Z</time>
      </trkpt>
      <trkpt lat="43.652637" lon="5.019903">
        <ele>69.13928</ele>
        <time>2021-06-30T20:14:01Z</time>
      </trkpt>
      <trkpt lat="43.652210" lon="5.019827">
        <ele>68.65833</ele>
        <time>2021-06-30T20:14:02Z</time>
      </trkpt>
      <trkpt lat="43.651814" lon="5.019756">
        <ele>68.64111</ele>
        <time>2021-06-30T20:14:03Z</time>
      </trkpt>
      <trkpt lat="43.651421" lon="5.019686">
        <ele>68.99951</ele>
        <time>2021-06-30T20:14:04Z</time>
      </trkpt>
      <trkpt lat="43.651085" lon="5.019625">
        <ele>68.81525</ele>
        <time>2021-06-30T20:14:05Z</time>
      </trkpt>
      <trkpt lat="43.651085" lon="5.019625">
        <ele>68.72516</ele>
        <time>2021-06-30T20:14:06Z</time>
      </trkpt>
      <trkpt lat="43.650700" lon="5.019557">
        <ele>69.08002</ele>
        <time>2021-06-30T20:14:07Z</time>
      </trkpt>
      <trkpt lat="43.650383" lon="5.019499">
        <ele>69.33594</ele>
        <time>2021-06-30T20:14:08Z</time>
      </trkpt>
      <trkpt lat="43.650051" lon="5.019436">
        <ele>69.33643</ele>
        <time>2021-06-30T20:14:09Z</time>
      </trkpt>
      <trkpt lat="43.649700" lon="5.019369">
        <ele>69.08618</ele>
        <time>2021-06-30T20:14:10Z</time>
      </trkpt>
      <trkpt lat="43.649387" lon="5.019311">
        <ele>69.01794</ele>
        <time>2021-06-30T20:14:11Z</time>
      </trkpt>
      <trkpt lat="43.649036" lon="5.019252">
        <ele>68.84491</ele>
        <time>2021-06-30T20:14:12Z</time>
      </trkpt>
      <trkpt lat="43.648727" lon="5.019206">
        <ele>69.14935</ele>
        <time>2021-06-30T20:14:13Z</time>
      </trkpt>
      <trkpt lat="43.648445" lon="5.019168">
        <ele>69.94629</ele>
        <time>2021-06-30T20:14:14Z</time>
      </trkpt>
      <trkpt lat="43.648178" lon="5.019153">
        <ele>69.63647</ele>
        <time>2021-06-30T20:14:15Z</time>
      </trkpt>
      <trkpt lat="43.647926" lon="5.019157">
        <ele>70.23572</ele>
        <time>2021-06-30T20:14:16Z</time>
      </trkpt>
      <trkpt lat="43.647659" lon="5.019172">
        <ele>70.97522</ele>
        <time>2021-06-30T20:14:17Z</time>
      </trkpt>
      <trkpt lat="43.647350" lon="5.019215">
        <ele>71.75208</ele>
        <time>2021-06-30T20:14:18Z</time>
      </trkpt>
      <trkpt lat="43.647011" lon="5.019270">
        <ele>72.12549</ele>
        <time>2021-06-30T20:14:19Z</time>
      </trkpt>
      <trkpt lat="43.647011" lon="5.019270">
        <ele>72.43237</ele>
        <time>2021-06-30T20:14:20Z</time>
      </trkpt>
      <trkpt lat="43.646664" lon="5.019334">
        <ele>72.90405</ele>
        <time>2021-06-30T20:14:21Z</time>
      </trkpt>
      <trkpt lat="43.646343" lon="5.019395">
        <ele>72.12085</ele>
        <time>2021-06-30T20:14:22Z</time>
      </trkpt>
      <trkpt lat="43.645996" lon="5.019462">
        <ele>71.77551</ele>
        <time>2021-06-30T20:14:23Z</time>
      </trkpt>
      <trkpt lat="43.645676" lon="5.019529">
        <ele>71.03113</ele>
        <time>2021-06-30T20:14:24Z</time>
      </trkpt>
      <trkpt lat="43.645386" lon="5.019576">
        <ele>70.31799</ele>
        <time>2021-06-30T20:14:25Z</time>
      </trkpt>
      <trkpt lat="43.645077" lon="5.019657">
        <ele>70.75299</ele>
        <time>2021-06-30T20:14:26Z</time>
      </trkpt>
      <trkpt lat="43.644798" lon="5.019731">
        <ele>68.74756</ele>
        <time>2021-06-30T20:14:27Z</time>
      </trkpt>
      <trkpt lat="43.644497" lon="5.019811">
        <ele>69.00671</ele>
        <time>2021-06-30T20:14:28Z</time>
      </trkpt>
      <trkpt lat="43.644238" lon="5.019916">
        <ele>69.66125</ele>
        <time>2021-06-30T20:14:29Z</time>
      </trkpt>
      <trkpt lat="43.644001" lon="5.020021">
        <ele>69.97076</ele>
        <time>2021-06-30T20:14:30Z</time>
      </trkpt>
      <trkpt lat="43.643719" lon="5.020190">
        <ele>68.87891</ele>
        <time>2021-06-30T20:14:31Z</time>
      </trkpt>
      <trkpt lat="43.643471" lon="5.020373">
        <ele>68.39398</ele>
        <time>2021-06-30T20:14:32Z</time>
      </trkpt>
      <trkpt lat="43.643246" lon="5.020567">
        <ele>67.32782</ele>
        <time>2021-06-30T20:14:33Z</time>
      </trkpt>
      <trkpt lat="43.643066" lon="5.020737">
        <ele>66.91931</ele>
        <time>2021-06-30T20:14:34Z</time>
      </trkpt>
      <trkpt lat="43.642883" lon="5.020945">
        <ele>67.88782</ele>
        <time>2021-06-30T20:14:35Z</time>
      </trkpt>
      <trkpt lat="43.642708" lon="5.021173">
        <ele>65.78058</ele>
        <time>2021-06-30T20:14:36Z</time>
      </trkpt>
      <trkpt lat="43.642567" lon="5.021360">
        <ele>64.36182</ele>
        <time>2021-06-30T20:14:37Z</time>
      </trkpt>
      <trkpt lat="43.642567" lon="5.021360">
        <ele>64.77515</ele>
        <time>2021-06-30T20:14:38Z</time>
      </trkpt>
      <trkpt lat="43.642452" lon="5.021530">
        <ele>63.95636</ele>
        <time>2021-06-30T20:14:39Z</time>
      </trkpt>
      <trkpt lat="43.642349" lon="5.021689">
        <ele>64.34045</ele>
        <time>2021-06-30T20:14:40Z</time>
      </trkpt>
      <trkpt lat="43.642235" lon="5.021819">
        <ele>65.04596</ele>
        <time>2021-06-30T20:14:41Z</time>
      </trkpt>
      <trkpt lat="43.642128" lon="5.021895">
        <ele>65.99451</ele>
        <time>2021-06-30T20:14:42Z</time>
      </trkpt>
      <trkpt lat="43.642033" lon="5.021934">
        <ele>66.76489</ele>
        <time>2021-06-30T20:14:43Z</time>
      </trkpt>
      <trkpt lat="43.641937" lon="5.021947">
        <ele>66.67944</ele>
        <time>2021-06-30T20:14:44Z</time>
      </trkpt>
      <trkpt lat="43.641827" lon="5.021935">
        <ele>66.07202</ele>
        <time>2021-06-30T20:14:45Z</time>
      </trkpt>
      <trkpt lat="43.641743" lon="5.021838">
        <ele>65.28333</ele>
        <time>2021-06-30T20:14:46Z</time>
      </trkpt>
      <trkpt lat="43.641605" lon="5.021783">
        <ele>66.05768</ele>
        <time>2021-06-30T20:14:47Z</time>
      </trkpt>
      <trkpt lat="43.641537" lon="5.021790">
        <ele>66.31677</ele>
        <time>2021-06-30T20:14:48Z</time>
      </trkpt>
      <trkpt lat="43.641441" lon="5.021834">
        <ele>65.48767</ele>
        <time>2021-06-30T20:14:49Z</time>
      </trkpt>
      <trkpt lat="43.641331" lon="5.021983">
        <ele>65.69257</ele>
        <time>2021-06-30T20:14:50Z</time>
      </trkpt>
      <trkpt lat="43.641331" lon="5.021983">
        <ele>65.10492</ele>
        <time>2021-06-30T20:14:51Z</time>
      </trkpt>
      <trkpt lat="43.641289" lon="5.022166">
        <ele>64.95001</ele>
        <time>2021-06-30T20:14:52Z</time>
      </trkpt>
      <trkpt lat="43.641209" lon="5.022226">
        <ele>64.93036</ele>
        <time>2021-06-30T20:14:53Z</time>
      </trkpt>
      <trkpt lat="43.641064" lon="5.022303">
        <ele>63.82837</ele>
        <time>2021-06-30T20:14:54Z</time>
      </trkpt>
      <trkpt lat="43.640900" lon="5.022355">
        <ele>65.94592</ele>
        <time>2021-06-30T20:14:55Z</time>
      </trkpt>
      <trkpt lat="43.640629" lon="5.022426">
        <ele>67.50165</ele>
        <time>2021-06-30T20:14:56Z</time>
      </trkpt>
      <trkpt lat="43.640423" lon="5.022479">
        <ele>68.61816</ele>
        <time>2021-06-30T20:14:57Z</time>
      </trkpt>
      <trkpt lat="43.640152" lon="5.022463">
        <ele>70.12268</ele>
        <time>2021-06-30T20:14:58Z</time>
      </trkpt>
      <trkpt lat="43.639927" lon="5.022414">
        <ele>69.48975</ele>
        <time>2021-06-30T20:14:59Z</time>
      </trkpt>
      <trkpt lat="43.639668" lon="5.022324">
        <ele>69.54315</ele>
        <time>2021-06-30T20:15:00Z</time>
      </trkpt>
      <trkpt lat="43.639435" lon="5.022242">
        <ele>70.09088</ele>
        <time>2021-06-30T20:15:01Z</time>
      </trkpt>
      <trkpt lat="43.639168" lon="5.022125">
        <ele>70.02625</ele>
        <time>2021-06-30T20:15:02Z</time>
      </trkpt>
      <trkpt lat="43.638908" lon="5.022021">
        <ele>69.83496</ele>
        <time>2021-06-30T20:15:03Z</time>
      </trkpt>
      <trkpt lat="43.638908" lon="5.022021">
        <ele>68.57373</ele>
        <time>2021-06-30T20:15:04Z</time>
      </trkpt>
      <trkpt lat="43.638626" lon="5.021906">
        <ele>67.24823</ele>
        <time>2021-06-30T20:15:05Z</time>
      </trkpt>
      <trkpt lat="43.638390" lon="5.021809">
        <ele>66.96069</ele>
        <time>2021-06-30T20:15:06Z</time>
      </trkpt>
      <trkpt lat="43.638199" lon="5.021693">
        <ele>65.02679</ele>
        <time>2021-06-30T20:15:07Z</time>
      </trkpt>
      <trkpt lat="43.637970" lon="5.021587">
        <ele>63.82983</ele>
        <time>2021-06-30T20:15:08Z</time>
      </trkpt>
      <trkpt lat="43.637764" lon="5.021499">
        <ele>63.85974</ele>
        <time>2021-06-30T20:15:09Z</time>
      </trkpt>
      <trkpt lat="43.637550" lon="5.021411">
        <ele>63.30640</ele>
        <time>2021-06-30T20:15:10Z</time>
      </trkpt>
      <trkpt lat="43.637337" lon="5.021323">
        <ele>63.08527</ele>
        <time>2021-06-30T20:15:11Z</time>
      </trkpt>
      <trkpt lat="43.637081" lon="5.021217">
        <ele>63.22076</ele>
        <time>2021-06-30T20:15:12Z</time>
      </trkpt>
      <trkpt lat="43.636803" lon="5.021101">
        <ele>63.14783</ele>
        <time>2021-06-30T20:15:13Z</time>
      </trkpt>
      <trkpt lat="43.636539" lon="5.020985">
        <ele>62.61090</ele>
        <time>2021-06-30T20:15:14Z</time>
      </trkpt>
      <trkpt lat="43.636295" lon="5.020875">
        <ele>63.09943</ele>
        <time>2021-06-30T20:15:15Z</time>
      </trkpt>
      <trkpt lat="43.636295" lon="5.020875">
        <ele>63.47369</ele>
        <time>2021-06-30T20:15:16Z</time>
      </trkpt>
      <trkpt lat="43.636051" lon="5.020739">
        <ele>62.33484</ele>
        <time>2021-06-30T20:15:17Z</time>
      </trkpt>
      <trkpt lat="43.635853" lon="5.020603">
        <ele>61.91864</ele>
        <time>2021-06-30T20:15:18Z</time>
      </trkpt>
      <trkpt lat="43.635658" lon="5.020470">
        <ele>62.53528</ele>
        <time>2021-06-30T20:15:19Z</time>
      </trkpt>
      <trkpt lat="43.635487" lon="5.020367">
        <ele>62.68451</ele>
        <time>2021-06-30T20:15:20Z</time>
      </trkpt>
      <trkpt lat="43.635300" lon="5.020344">
        <ele>62.46387</ele>
        <time>2021-06-30T20:15:21Z</time>
      </trkpt>
      <trkpt lat="43.635262" lon="5.020354">
        <ele>60.98804</ele>
        <time>2021-06-30T20:15:22Z</time>
      </trkpt>
      <trkpt lat="43.635094" lon="5.020423">
        <ele>62.15558</ele>
        <time>2021-06-30T20:15:23Z</time>
      </trkpt>
      <trkpt lat="43.634979" lon="5.020481">
        <ele>62.15558</ele>
        <time>2021-06-30T20:15:24Z</time>
      </trkpt>
      <trkpt lat="43.634876" lon="5.020534">
        <ele>64.02185</ele>
        <time>2021-06-30T20:15:25Z</time>
      </trkpt>
      <trkpt lat="43.634876" lon="5.020534">
        <ele>63.96814</ele>
        <time>2021-06-30T20:15:26Z</time>
      </trkpt>
      <trkpt lat="43.634773" lon="5.020510">
        <ele>64.31409</ele>
        <time>2021-06-30T20:15:27Z</time>
      </trkpt>
      <trkpt lat="43.634598" lon="5.020527">
        <ele>63.51318</ele>
        <time>2021-06-30T20:15:28Z</time>
      </trkpt>
      <trkpt lat="43.634487" lon="5.020470">
        <ele>63.57404</ele>
        <time>2021-06-30T20:15:29Z</time>
      </trkpt>
      <trkpt lat="43.634396" lon="5.020379">
        <ele>63.13470</ele>
        <time>2021-06-30T20:15:30Z</time>
      </trkpt>
      <trkpt lat="43.634247" lon="5.020220">
        <ele>62.96631</ele>
        <time>2021-06-30T20:15:31Z</time>
      </trkpt>
      <trkpt lat="43.634052" lon="5.020031">
        <ele>62.42712</ele>
        <time>2021-06-30T20:15:32Z</time>
      </trkpt>
      <trkpt lat="43.633793" lon="5.019848">
        <ele>59.69720</ele>
        <time>2021-06-30T20:15:33Z</time>
      </trkpt>
      <trkpt lat="43.633610" lon="5.019746">
        <ele>59.31842</ele>
        <time>2021-06-30T20:15:34Z</time>
      </trkpt>
      <trkpt lat="43.633343" lon="5.019633">
        <ele>59.60962</ele>
        <time>2021-06-30T20:15:35Z</time>
      </trkpt>
      <trkpt lat="43.632996" lon="5.019505">
        <ele>60.06287</ele>
        <time>2021-06-30T20:15:36Z</time>
      </trkpt>
      <trkpt lat="43.632660" lon="5.019388">
        <ele>59.45679</ele>
        <time>2021-06-30T20:15:37Z</time>
      </trkpt>
      <trkpt lat="43.632320" lon="5.019270">
        <ele>60.55731</ele>
        <time>2021-06-30T20:15:38Z</time>
      </trkpt>
      <trkpt lat="43.631989" lon="5.019154">
        <ele>60.88586</ele>
        <time>2021-06-30T20:15:39Z</time>
      </trkpt>
      <trkpt lat="43.631989" lon="5.019154">
        <ele>60.90631</ele>
        <time>2021-06-30T20:15:40Z</time>
      </trkpt>
      <trkpt lat="43.631565" lon="5.019006">
        <ele>61.79126</ele>
        <time>2021-06-30T20:15:41Z</time>
      </trkpt>
      <trkpt lat="43.631176" lon="5.018870">
        <ele>61.62842</ele>
        <time>2021-06-30T20:15:42Z</time>
      </trkpt>
      <trkpt lat="43.630833" lon="5.018751">
        <ele>61.87146</ele>
        <time>2021-06-30T20:15:43Z</time>
      </trkpt>
      <trkpt lat="43.630489" lon="5.018631">
        <ele>61.86139</ele>
        <time>2021-06-30T20:15:44Z</time>
      </trkpt>
      <trkpt lat="43.630207" lon="5.018532">
        <ele>61.95239</ele>
        <time>2021-06-30T20:15:45Z</time>
      </trkpt>
      <trkpt lat="43.629913" lon="5.018431">
        <ele>62.71472</ele>
        <time>2021-06-30T20:15:46Z</time>
      </trkpt>
      <trkpt lat="43.629646" lon="5.018339">
        <ele>62.63245</ele>
        <time>2021-06-30T20:15:47Z</time>
      </trkpt>
      <trkpt lat="43.629356" lon="5.018242">
        <ele>62.71631</ele>
        <time>2021-06-30T20:15:48Z</time>
      </trkpt>
      <trkpt lat="43.629059" lon="5.018141">
        <ele>62.71631</ele>
        <time>2021-06-30T20:15:49Z</time>
      </trkpt>
      <trkpt lat="43.628746" lon="5.018036">
        <ele>63.82477</ele>
        <time>2021-06-30T20:15:50Z</time>
      </trkpt>
      <trkpt lat="43.628746" lon="5.018036">
        <ele>64.13763</ele>
        <time>2021-06-30T20:15:51Z</time>
      </trkpt>
      <trkpt lat="43.628437" lon="5.017932">
        <ele>64.59271</ele>
        <time>2021-06-30T20:15:52Z</time>
      </trkpt>
      <trkpt lat="43.628166" lon="5.017840">
        <ele>64.52045</ele>
        <time>2021-06-30T20:15:53Z</time>
      </trkpt>
      <trkpt lat="43.627884" lon="5.017744">
        <ele>64.49994</ele>
        <time>2021-06-30T20:15:54Z</time>
      </trkpt>
      <trkpt lat="43.627583" lon="5.017640">
        <ele>64.23730</ele>
        <time>2021-06-30T20:15:55Z</time>
      </trkpt>
      <trkpt lat="43.627266" lon="5.017532">
        <ele>64.14618</ele>
        <time>2021-06-30T20:15:56Z</time>
      </trkpt>
      <trkpt lat="43.626957" lon="5.017427">
        <ele>63.98334</ele>
        <time>2021-06-30T20:15:57Z</time>
      </trkpt>
      <trkpt lat="43.626640" lon="5.017316">
        <ele>63.33191</ele>
        <time>2021-06-30T20:15:58Z</time>
      </trkpt>
      <trkpt lat="43.626354" lon="5.017213">
        <ele>63.49664</ele>
        <time>2021-06-30T20:15:59Z</time>
      </trkpt>
      <trkpt lat="43.626060" lon="5.017109">
        <ele>63.96008</ele>
        <time>2021-06-30T20:16:00Z</time>
      </trkpt>
      <trkpt lat="43.625793" lon="5.017014">
        <ele>64.25757</ele>
        <time>2021-06-30T20:16:01Z</time>
      </trkpt>
      <trkpt lat="43.625515" lon="5.016914">
        <ele>64.05157</ele>
        <time>2021-06-30T20:16:02Z</time>
      </trkpt>
      <trkpt lat="43.625214" lon="5.016809">
        <ele>64.49323</ele>
        <time>2021-06-30T20:16:03Z</time>
      </trkpt>
      <trkpt lat="43.624882" lon="5.016693">
        <ele>64.87933</ele>
        <time>2021-06-30T20:16:04Z</time>
      </trkpt>
      <trkpt lat="43.624580" lon="5.016590">
        <ele>64.84637</ele>
        <time>2021-06-30T20:16:05Z</time>
      </trkpt>
      <trkpt lat="43.624580" lon="5.016590">
        <ele>64.74268</ele>
        <time>2021-06-30T20:16:06Z</time>
      </trkpt>
      <trkpt lat="43.624275" lon="5.016483">
        <ele>65.36279</ele>
        <time>2021-06-30T20:16:07Z</time>
      </trkpt>
      <trkpt lat="43.623936" lon="5.016366">
        <ele>65.12134</ele>
        <time>2021-06-30T20:16:08Z</time>
      </trkpt>
      <trkpt lat="43.623623" lon="5.016258">
        <ele>65.19104</ele>
        <time>2021-06-30T20:16:09Z</time>
      </trkpt>
      <trkpt lat="43.623318" lon="5.016153">
        <ele>65.79120</ele>
        <time>2021-06-30T20:16:10Z</time>
      </trkpt>
      <trkpt lat="43.623013" lon="5.016047">
        <ele>66.00592</ele>
        <time>2021-06-30T20:16:11Z</time>
      </trkpt>
      <trkpt lat="43.622715" lon="5.015944">
        <ele>65.44312</ele>
        <time>2021-06-30T20:16:12Z</time>
      </trkpt>
      <trkpt lat="43.622440" lon="5.015849">
        <ele>65.84338</ele>
        <time>2021-06-30T20:16:13Z</time>
      </trkpt>
      <trkpt lat="43.622116" lon="5.015737">
        <ele>65.37061</ele>
        <time>2021-06-30T20:16:14Z</time>
      </trkpt>
      <trkpt lat="43.621868" lon="5.015651">
        <ele>64.76569</ele>
        <time>2021-06-30T20:16:15Z</time>
      </trkpt>
      <trkpt lat="43.621563" lon="5.015545">
        <ele>65.09943</ele>
        <time>2021-06-30T20:16:16Z</time>
      </trkpt>
      <trkpt lat="43.621250" lon="5.015438">
        <ele>64.90228</ele>
        <time>2021-06-30T20:16:17Z</time>
      </trkpt>
      <trkpt lat="43.620968" lon="5.015340">
        <ele>64.68958</ele>
        <time>2021-06-30T20:16:18Z</time>
      </trkpt>
      <trkpt lat="43.620689" lon="5.015246">
        <ele>64.90887</ele>
        <time>2021-06-30T20:16:19Z</time>
      </trkpt>
      <trkpt lat="43.620411" lon="5.015150">
        <ele>64.36047</ele>
        <time>2021-06-30T20:16:20Z</time>
      </trkpt>
      <trkpt lat="43.620090" lon="5.015039">
        <ele>64.77844</ele>
        <time>2021-06-30T20:16:21Z</time>
      </trkpt>
      <trkpt lat="43.620090" lon="5.015039">
        <ele>64.71667</ele>
        <time>2021-06-30T20:16:22Z</time>
      </trkpt>
      <trkpt lat="43.619820" lon="5.014946">
        <ele>64.42773</ele>
        <time>2021-06-30T20:16:23Z</time>
      </trkpt>
      <trkpt lat="43.619541" lon="5.014834">
        <ele>63.40295</ele>
        <time>2021-06-30T20:16:24Z</time>
      </trkpt>
      <trkpt lat="43.619232" lon="5.014697">
        <ele>63.19043</ele>
        <time>2021-06-30T20:16:25Z</time>
      </trkpt>
      <trkpt lat="43.618977" lon="5.014582">
        <ele>62.93054</ele>
        <time>2021-06-30T20:16:26Z</time>
      </trkpt>
      <trkpt lat="43.618584" lon="5.014402">
        <ele>61.85120</ele>
        <time>2021-06-30T20:16:27Z</time>
      </trkpt>
      <trkpt lat="43.618256" lon="5.014250">
        <ele>61.71008</ele>
        <time>2021-06-30T20:16:28Z</time>
      </trkpt>
      <trkpt lat="43.617928" lon="5.014100">
        <ele>60.88959</ele>
        <time>2021-06-30T20:16:29Z</time>
      </trkpt>
      <trkpt lat="43.617577" lon="5.013940">
        <ele>60.56366</ele>
        <time>2021-06-30T20:16:30Z</time>
      </trkpt>
      <trkpt lat="43.617260" lon="5.013795">
        <ele>57.95917</ele>
        <time>2021-06-30T20:16:31Z</time>
      </trkpt>
      <trkpt lat="43.616959" lon="5.013657">
        <ele>57.82678</ele>
        <time>2021-06-30T20:16:32Z</time>
      </trkpt>
      <trkpt lat="43.616638" lon="5.013510">
        <ele>56.01147</ele>
        <time>2021-06-30T20:16:33Z</time>
      </trkpt>
      <trkpt lat="43.616638" lon="5.013510">
        <ele>56.07587</ele>
        <time>2021-06-30T20:16:34Z</time>
      </trkpt>
      <trkpt lat="43.616264" lon="5.013340">
        <ele>56.01379</ele>
        <time>2021-06-30T20:16:35Z</time>
      </trkpt>
      <trkpt lat="43.615967" lon="5.013203">
        <ele>55.07233</ele>
        <time>2021-06-30T20:16:36Z</time>
      </trkpt>
      <trkpt lat="43.615665" lon="5.013065">
        <ele>56.02820</ele>
        <time>2021-06-30T20:16:37Z</time>
      </trkpt>
      <trkpt lat="43.615330" lon="5.012913">
        <ele>55.48041</ele>
        <time>2021-06-30T20:16:38Z</time>
      </trkpt>
      <trkpt lat="43.615070" lon="5.012794">
        <ele>55.81409</ele>
        <time>2021-06-30T20:16:39Z</time>
      </trkpt>
      <trkpt lat="43.614777" lon="5.012661">
        <ele>55.74261</ele>
        <time>2021-06-30T20:16:40Z</time>
      </trkpt>
      <trkpt lat="43.614487" lon="5.012528">
        <ele>55.78162</ele>
        <time>2021-06-30T20:16:41Z</time>
      </trkpt>
      <trkpt lat="43.614185" lon="5.012391">
        <ele>55.63171</ele>
        <time>2021-06-30T20:16:42Z</time>
      </trkpt>
      <trkpt lat="43.613827" lon="5.012229">
        <ele>55.28149</ele>
        <time>2021-06-30T20:16:43Z</time>
      </trkpt>
      <trkpt lat="43.613491" lon="5.012077">
        <ele>55.77100</ele>
        <time>2021-06-30T20:16:44Z</time>
      </trkpt>
      <trkpt lat="43.613235" lon="5.011962">
        <ele>55.36865</ele>
        <time>2021-06-30T20:16:45Z</time>
      </trkpt>
      <trkpt lat="43.613235" lon="5.011962">
        <ele>54.82983</ele>
        <time>2021-06-30T20:16:46Z</time>
      </trkpt>
      <trkpt lat="43.612881" lon="5.011802">
        <ele>54.61011</ele>
        <time>2021-06-30T20:16:47Z</time>
      </trkpt>
      <trkpt lat="43.612568" lon="5.011656">
        <ele>54.04810</ele>
        <time>2021-06-30T20:16:48Z</time>
      </trkpt>
      <trkpt lat="43.612186" lon="5.011480">
        <ele>53.93475</ele>
        <time>2021-06-30T20:16:49Z</time>
      </trkpt>
      <trkpt lat="43.611881" lon="5.011336">
        <ele>53.58838</ele>
        <time>2021-06-30T20:16:50Z</time>
      </trkpt>
      <trkpt lat="43.611572" lon="5.011199">
        <ele>51.35370</ele>
        <time>2021-06-30T20:16:51Z</time>
      </trkpt>
      <trkpt lat="43.611252" lon="5.011055">
        <ele>51.13434</ele>
        <time>2021-06-30T20:16:52Z</time>
      </trkpt>
      <trkpt lat="43.610931" lon="5.010912">
        <ele>49.11688</ele>
        <time>2021-06-30T20:16:53Z</time>
      </trkpt>
      <trkpt lat="43.610619" lon="5.010773">
        <ele>49.18628</ele>
        <time>2021-06-30T20:16:54Z</time>
      </trkpt>
      <trkpt lat="43.610371" lon="5.010659">
        <ele>49.09601</ele>
        <time>2021-06-30T20:16:55Z</time>
      </trkpt>
      <trkpt lat="43.610172" lon="5.010568">
        <ele>47.86652</ele>
        <time>2021-06-30T20:16:56Z</time>
      </trkpt>
      <trkpt lat="43.609882" lon="5.010433">
        <ele>48.52887</ele>
        <time>2021-06-30T20:16:57Z</time>
      </trkpt>
      <trkpt lat="43.609783" lon="5.010385">
        <ele>46.12732</ele>
        <time>2021-06-30T20:16:58Z</time>
      </trkpt>
      <trkpt lat="43.609783" lon="5.010385">
        <ele>47.23010</ele>
        <time>2021-06-30T20:16:59Z</time>
      </trkpt>
      <trkpt lat="43.609619" lon="5.010307">
        <ele>47.18781</ele>
        <time>2021-06-30T20:17:00Z</time>
      </trkpt>
      <trkpt lat="43.609482" lon="5.010258">
        <ele>47.74756</ele>
        <time>2021-06-30T20:17:01Z</time>
      </trkpt>
      <trkpt lat="43.609333" lon="5.010222">
        <ele>48.79138</ele>
        <time>2021-06-30T20:17:02Z</time>
      </trkpt>
      <trkpt lat="43.609154" lon="5.010206">
        <ele>50.38367</ele>
        <time>2021-06-30T20:17:03Z</time>
      </trkpt>
      <trkpt lat="43.608940" lon="5.010236">
        <ele>51.12463</ele>
        <time>2021-06-30T20:17:04Z</time>
      </trkpt>
      <trkpt lat="43.608700" lon="5.010325">
        <ele>50.23120</ele>
        <time>2021-06-30T20:17:05Z</time>
      </trkpt>
      <trkpt lat="43.608543" lon="5.010390">
        <ele>50.55792</ele>
        <time>2021-06-30T20:17:06Z</time>
      </trkpt>
      <trkpt lat="43.608349" lon="5.010472">
        <ele>50.01758</ele>
        <time>2021-06-30T20:17:07Z</time>
      </trkpt>
      <trkpt lat="43.608181" lon="5.010543">
        <ele>49.85095</ele>
        <time>2021-06-30T20:17:08Z</time>
      </trkpt>
      <trkpt lat="43.608006" lon="5.010581">
        <ele>48.80249</ele>
        <time>2021-06-30T20:17:09Z</time>
      </trkpt>
      <trkpt lat="43.607838" lon="5.010599">
        <ele>49.18268</ele>
        <time>2021-06-30T20:17:10Z</time>
      </trkpt>
      <trkpt lat="43.607838" lon="5.010599">
        <ele>49.98285</ele>
        <time>2021-06-30T20:17:11Z</time>
      </trkpt>
      <trkpt lat="43.607697" lon="5.010578">
        <ele>51.53638</ele>
        <time>2021-06-30T20:17:12Z</time>
      </trkpt>
      <trkpt lat="43.607609" lon="5.010547">
        <ele>53.01508</ele>
        <time>2021-06-30T20:17:13Z</time>
      </trkpt>
      <trkpt lat="43.607494" lon="5.010492">
        <ele>54.62921</ele>
        <time>2021-06-30T20:17:14Z</time>
      </trkpt>
      <trkpt lat="43.607418" lon="5.010442">
        <ele>56.09607</ele>
        <time>2021-06-30T20:17:15Z</time>
      </trkpt>
      <trkpt lat="43.607388" lon="5.010269">
        <ele>56.80383</ele>
        <time>2021-06-30T20:17:16Z</time>
      </trkpt>
      <trkpt lat="43.607300" lon="5.010103">
        <ele>57.14929</ele>
        <time>2021-06-30T20:17:17Z</time>
      </trkpt>
      <trkpt lat="43.607220" lon="5.010019">
        <ele>57.14709</ele>
        <time>2021-06-30T20:17:18Z</time>
      </trkpt>
      <trkpt lat="43.607113" lon="5.009969">
        <ele>56.94733</ele>
        <time>2021-06-30T20:17:19Z</time>
      </trkpt>
      <trkpt lat="43.606983" lon="5.009956">
        <ele>56.09222</ele>
        <time>2021-06-30T20:17:20Z</time>
      </trkpt>
      <trkpt lat="43.606850" lon="5.010014">
        <ele>55.80078</ele>
        <time>2021-06-30T20:17:21Z</time>
      </trkpt>
      <trkpt lat="43.606773" lon="5.009887">
        <ele>56.14905</ele>
        <time>2021-06-30T20:17:22Z</time>
      </trkpt>
      <trkpt lat="43.606773" lon="5.009887">
        <ele>54.87677</ele>
        <time>2021-06-30T20:17:23Z</time>
      </trkpt>
      <trkpt lat="43.606701" lon="5.009771">
        <ele>54.91168</ele>
        <time>2021-06-30T20:17:24Z</time>
      </trkpt>
      <trkpt lat="43.606606" lon="5.009610">
        <ele>55.29559</ele>
        <time>2021-06-30T20:17:25Z</time>
      </trkpt>
      <trkpt lat="43.606491" lon="5.009414">
        <ele>55.74487</ele>
        <time>2021-06-30T20:17:26Z</time>
      </trkpt>
      <trkpt lat="43.606365" lon="5.009186">
        <ele>55.90674</ele>
        <time>2021-06-30T20:17:27Z</time>
      </trkpt>
      <trkpt lat="43.606236" lon="5.008953">
        <ele>55.58893</ele>
        <time>2021-06-30T20:17:28Z</time>
      </trkpt>
      <trkpt lat="43.606121" lon="5.008755">
        <ele>55.52087</ele>
        <time>2021-06-30T20:17:29Z</time>
      </trkpt>
      <trkpt lat="43.606030" lon="5.008597">
        <ele>55.93854</ele>
        <time>2021-06-30T20:17:30Z</time>
      </trkpt>
      <trkpt lat="43.605934" lon="5.008428">
        <ele>53.96539</ele>
        <time>2021-06-30T20:17:31Z</time>
      </trkpt>
      <trkpt lat="43.605854" lon="5.008284">
        <ele>54.04803</ele>
        <time>2021-06-30T20:17:32Z</time>
      </trkpt>
      <trkpt lat="43.605774" lon="5.008145">
        <ele>54.17511</ele>
        <time>2021-06-30T20:17:33Z</time>
      </trkpt>
      <trkpt lat="43.605679" lon="5.007977">
        <ele>54.62073</ele>
        <time>2021-06-30T20:17:34Z</time>
      </trkpt>
      <trkpt lat="43.605598" lon="5.007837">
        <ele>54.41302</ele>
        <time>2021-06-30T20:17:35Z</time>
      </trkpt>
      <trkpt lat="43.605598" lon="5.007837">
        <ele>54.34045</ele>
        <time>2021-06-30T20:17:36Z</time>
      </trkpt>
      <trkpt lat="43.605511" lon="5.007683">
        <ele>53.59998</ele>
        <time>2021-06-30T20:17:37Z</time>
      </trkpt>
      <trkpt lat="43.605412" lon="5.007505">
        <ele>54.29065</ele>
        <time>2021-06-30T20:17:38Z</time>
      </trkpt>
      <trkpt lat="43.605286" lon="5.007283">
        <ele>54.17877</ele>
        <time>2021-06-30T20:17:39Z</time>
      </trkpt>
      <trkpt lat="43.605164" lon="5.007067">
        <ele>52.42865</ele>
        <time>2021-06-30T20:17:40Z</time>
      </trkpt>
      <trkpt lat="43.605000" lon="5.006775">
        <ele>51.65125</ele>
        <time>2021-06-30T20:17:41Z</time>
      </trkpt>
      <trkpt lat="43.604847" lon="5.006505">
        <ele>51.66705</ele>
        <time>2021-06-30T20:17:42Z</time>
      </trkpt>
      <trkpt lat="43.604691" lon="5.006227">
        <ele>50.59033</ele>
        <time>2021-06-30T20:17:43Z</time>
      </trkpt>
      <trkpt lat="43.604534" lon="5.005954">
        <ele>50.53967</ele>
        <time>2021-06-30T20:17:44Z</time>
      </trkpt>
      <trkpt lat="43.604382" lon="5.005683">
        <ele>50.02679</ele>
        <time>2021-06-30T20:17:45Z</time>
      </trkpt>
      <trkpt lat="43.604206" lon="5.005370">
        <ele>48.70007</ele>
        <time>2021-06-30T20:17:46Z</time>
      </trkpt>
      <trkpt lat="43.604012" lon="5.005024">
        <ele>49.60870</ele>
        <time>2021-06-30T20:17:47Z</time>
      </trkpt>
      <trkpt lat="43.604012" lon="5.005024">
        <ele>48.73688</ele>
        <time>2021-06-30T20:17:48Z</time>
      </trkpt>
      <trkpt lat="43.603840" lon="5.004720">
        <ele>48.25214</ele>
        <time>2021-06-30T20:17:49Z</time>
      </trkpt>
      <trkpt lat="43.603645" lon="5.004357">
        <ele>47.85406</ele>
        <time>2021-06-30T20:17:50Z</time>
      </trkpt>
      <trkpt lat="43.603470" lon="5.004001">
        <ele>47.47314</ele>
        <time>2021-06-30T20:17:51Z</time>
      </trkpt>
      <trkpt lat="43.603283" lon="5.003619">
        <ele>46.75916</ele>
        <time>2021-06-30T20:17:52Z</time>
      </trkpt>
      <trkpt lat="43.603111" lon="5.003246">
        <ele>46.75916</ele>
        <time>2021-06-30T20:17:53Z</time>
      </trkpt>
      <trkpt lat="43.602928" lon="5.002851">
        <ele>46.55127</ele>
        <time>2021-06-30T20:17:54Z</time>
      </trkpt>
      <trkpt lat="43.602760" lon="5.002478">
        <ele>45.07745</ele>
        <time>2021-06-30T20:17:55Z</time>
      </trkpt>
      <trkpt lat="43.602612" lon="5.002115">
        <ele>45.33136</ele>
        <time>2021-06-30T20:17:56Z</time>
      </trkpt>
      <trkpt lat="43.602436" lon="5.001688">
        <ele>44.89642</ele>
        <time>2021-06-30T20:17:57Z</time>
      </trkpt>
      <trkpt lat="43.602264" lon="5.001228">
        <ele>45.80664</ele>
        <time>2021-06-30T20:17:58Z</time>
      </trkpt>
      <trkpt lat="43.602089" lon="5.000773">
        <ele>44.72058</ele>
        <time>2021-06-30T20:17:59Z</time>
      </trkpt>
      <trkpt lat="43.601902" lon="5.000274">
        <ele>44.09973</ele>
        <time>2021-06-30T20:18:00Z</time>
      </trkpt>
      <trkpt lat="43.601734" lon="4.999831">
        <ele>44.13269</ele>
        <time>2021-06-30T20:18:01Z</time>
      </trkpt>
      <trkpt lat="43.601734" lon="4.999831">
        <ele>43.07526</ele>
        <time>2021-06-30T20:18:02Z</time>
      </trkpt>
      <trkpt lat="43.601562" lon="4.999374">
        <ele>43.48657</ele>
        <time>2021-06-30T20:18:03Z</time>
      </trkpt>
      <trkpt lat="43.601418" lon="4.998996">
        <ele>43.87396</ele>
        <time>2021-06-30T20:18:04Z</time>
      </trkpt>
      <trkpt lat="43.601261" lon="4.998574">
        <ele>44.28827</ele>
        <time>2021-06-30T20:18:05Z</time>
      </trkpt>
      <trkpt lat="43.601105" lon="4.998148">
        <ele>44.37274</ele>
        <time>2021-06-30T20:18:06Z</time>
      </trkpt>
      <trkpt lat="43.600948" lon="4.997697">
        <ele>44.59290</ele>
        <time>2021-06-30T20:18:07Z</time>
      </trkpt>
      <trkpt lat="43.600830" lon="4.997296">
        <ele>44.38062</ele>
        <time>2021-06-30T20:18:08Z</time>
      </trkpt>
      <trkpt lat="43.600716" lon="4.996850">
        <ele>44.01367</ele>
        <time>2021-06-30T20:18:09Z</time>
      </trkpt>
      <trkpt lat="43.600597" lon="4.996362">
        <ele>43.54175</ele>
        <time>2021-06-30T20:18:10Z</time>
      </trkpt>
      <trkpt lat="43.600491" lon="4.995906">
        <ele>42.99591</ele>
        <time>2021-06-30T20:18:11Z</time>
      </trkpt>
      <trkpt lat="43.600391" lon="4.995452">
        <ele>43.56293</ele>
        <time>2021-06-30T20:18:12Z</time>
      </trkpt>
      <trkpt lat="43.600285" lon="4.994980">
        <ele>43.56293</ele>
        <time>2021-06-30T20:18:13Z</time>
      </trkpt>
      <trkpt lat="43.600178" lon="4.994522">
        <ele>44.03925</ele>
        <time>2021-06-30T20:18:14Z</time>
      </trkpt>
      <trkpt lat="43.600063" lon="4.994105">
        <ele>44.04224</ele>
        <time>2021-06-30T20:18:15Z</time>
      </trkpt>
      <trkpt lat="43.599911" lon="4.993633">
        <ele>44.13800</ele>
        <time>2021-06-30T20:18:16Z</time>
      </trkpt>
      <trkpt lat="43.599911" lon="4.993633">
        <ele>45.96307</ele>
        <time>2021-06-30T20:18:17Z</time>
      </trkpt>
      <trkpt lat="43.599743" lon="4.993197">
        <ele>48.25159</ele>
        <time>2021-06-30T20:18:18Z</time>
      </trkpt>
      <trkpt lat="43.599560" lon="4.992782">
        <ele>48.86395</ele>
        <time>2021-06-30T20:18:19Z</time>
      </trkpt>
      <trkpt lat="43.599358" lon="4.992390">
        <ele>51.07996</ele>
        <time>2021-06-30T20:18:20Z</time>
      </trkpt>
      <trkpt lat="43.599148" lon="4.992011">
        <ele>51.79895</ele>
        <time>2021-06-30T20:18:21Z</time>
      </trkpt>
      <trkpt lat="43.598885" lon="4.991598">
        <ele>52.99658</ele>
        <time>2021-06-30T20:18:22Z</time>
      </trkpt>
      <trkpt lat="43.598606" lon="4.991227">
        <ele>54.42151</ele>
        <time>2021-06-30T20:18:23Z</time>
      </trkpt>
      <trkpt lat="43.598312" lon="4.990880">
        <ele>55.65485</ele>
        <time>2021-06-30T20:18:24Z</time>
      </trkpt>
      <trkpt lat="43.598076" lon="4.990621">
        <ele>55.85889</ele>
        <time>2021-06-30T20:18:25Z</time>
      </trkpt>
      <trkpt lat="43.597748" lon="4.990318">
        <ele>56.12292</ele>
        <time>2021-06-30T20:18:26Z</time>
      </trkpt>
      <trkpt lat="43.597435" lon="4.990069">
        <ele>56.14471</ele>
        <time>2021-06-30T20:18:27Z</time>
      </trkpt>
      <trkpt lat="43.597111" lon="4.989833">
        <ele>56.29480</ele>
        <time>2021-06-30T20:18:28Z</time>
      </trkpt>
      <trkpt lat="43.596748" lon="4.989629">
        <ele>55.49872</ele>
        <time>2021-06-30T20:18:29Z</time>
      </trkpt>
      <trkpt lat="43.596405" lon="4.989455">
        <ele>55.81024</ele>
        <time>2021-06-30T20:18:30Z</time>
      </trkpt>
      <trkpt lat="43.596054" lon="4.989319">
        <ele>55.75269</ele>
        <time>2021-06-30T20:18:31Z</time>
      </trkpt>
      <trkpt lat="43.596054" lon="4.989319">
        <ele>55.64709</ele>
        <time>2021-06-30T20:18:32Z</time>
      </trkpt>
      <trkpt lat="43.595684" lon="4.989204">
        <ele>54.27454</ele>
        <time>2021-06-30T20:18:33Z</time>
      </trkpt>
      <trkpt lat="43.595303" lon="4.989115">
        <ele>54.27454</ele>
        <time>2021-06-30T20:18:34Z</time>
      </trkpt>
      <trkpt lat="43.594917" lon="4.989077">
        <ele>51.97546</ele>
        <time>2021-06-30T20:18:35Z</time>
      </trkpt>
      <trkpt lat="43.594563" lon="4.989063">
        <ele>50.52124</ele>
        <time>2021-06-30T20:18:36Z</time>
      </trkpt>
      <trkpt lat="43.594215" lon="4.989069">
        <ele>48.60193</ele>
        <time>2021-06-30T20:18:37Z</time>
      </trkpt>
      <trkpt lat="43.593884" lon="4.989084">
        <ele>47.86163</ele>
        <time>2021-06-30T20:18:38Z</time>
      </trkpt>
      <trkpt lat="43.593487" lon="4.989103">
        <ele>46.81793</ele>
        <time>2021-06-30T20:18:39Z</time>
      </trkpt>
      <trkpt lat="43.593136" lon="4.989119">
        <ele>45.27936</ele>
        <time>2021-06-30T20:18:40Z</time>
      </trkpt>
      <trkpt lat="43.592796" lon="4.989135">
        <ele>44.30066</ele>
        <time>2021-06-30T20:18:41Z</time>
      </trkpt>
      <trkpt lat="43.592403" lon="4.989153">
        <ele>43.64172</ele>
        <time>2021-06-30T20:18:42Z</time>
      </trkpt>
      <trkpt lat="43.591995" lon="4.989172">
        <ele>43.43231</ele>
        <time>2021-06-30T20:18:43Z</time>
      </trkpt>
      <trkpt lat="43.591633" lon="4.989194">
        <ele>42.75446</ele>
        <time>2021-06-30T20:18:44Z</time>
      </trkpt>
      <trkpt lat="43.591335" lon="4.989212">
        <ele>43.63208</ele>
        <time>2021-06-30T20:18:45Z</time>
      </trkpt>
      <trkpt lat="43.591335" lon="4.989212">
        <ele>43.58698</ele>
        <time>2021-06-30T20:18:46Z</time>
      </trkpt>
      <trkpt lat="43.591015" lon="4.989231">
        <ele>42.64136</ele>
        <time>2021-06-30T20:18:47Z</time>
      </trkpt>
      <trkpt lat="43.590733" lon="4.989248">
        <ele>42.01270</ele>
        <time>2021-06-30T20:18:48Z</time>
      </trkpt>
      <trkpt lat="43.590466" lon="4.989264">
        <ele>42.34741</ele>
        <time>2021-06-30T20:18:49Z</time>
      </trkpt>
      <trkpt lat="43.590191" lon="4.989280">
        <ele>42.00385</ele>
        <time>2021-06-30T20:18:50Z</time>
      </trkpt>
      <trkpt lat="43.589909" lon="4.989297">
        <ele>42.61780</ele>
        <time>2021-06-30T20:18:51Z</time>
      </trkpt>
      <trkpt lat="43.589642" lon="4.989313">
        <ele>42.75018</ele>
        <time>2021-06-30T20:18:52Z</time>
      </trkpt>
      <trkpt lat="43.589359" lon="4.989329">
        <ele>42.92957</ele>
        <time>2021-06-30T20:18:53Z</time>
      </trkpt>
      <trkpt lat="43.589092" lon="4.989345">
        <ele>43.31763</ele>
        <time>2021-06-30T20:18:54Z</time>
      </trkpt>
      <trkpt lat="43.588902" lon="4.989357">
        <ele>43.59363</ele>
        <time>2021-06-30T20:18:55Z</time>
      </trkpt>
      <trkpt lat="43.588726" lon="4.989369">
        <ele>43.15350</ele>
        <time>2021-06-30T20:18:56Z</time>
      </trkpt>
      <trkpt lat="43.588638" lon="4.989360">
        <ele>42.35425</ele>
        <time>2021-06-30T20:18:57Z</time>
      </trkpt>
      <trkpt lat="43.588638" lon="4.989360">
        <ele>42.51990</ele>
        <time>2021-06-30T20:18:58Z</time>
      </trkpt>
      <trkpt lat="43.588543" lon="4.989343">
        <ele>42.39520</ele>
        <time>2021-06-30T20:18:59Z</time>
      </trkpt>
      <trkpt lat="43.588432" lon="4.989170">
        <ele>42.32983</ele>
        <time>2021-06-30T20:19:00Z</time>
      </trkpt>
      <trkpt lat="43.588291" lon="4.989155">
        <ele>42.28851</ele>
        <time>2021-06-30T20:19:01Z</time>
      </trkpt>
      <trkpt lat="43.588150" lon="4.989238">
        <ele>42.70868</ele>
        <time>2021-06-30T20:19:02Z</time>
      </trkpt>
      <trkpt lat="43.588043" lon="4.989285">
        <ele>42.85956</ele>
        <time>2021-06-30T20:19:03Z</time>
      </trkpt>
      <trkpt lat="43.587872" lon="4.989359">
        <ele>43.13647</ele>
        <time>2021-06-30T20:19:04Z</time>
      </trkpt>
      <trkpt lat="43.587711" lon="4.989373">
        <ele>42.83307</ele>
        <time>2021-06-30T20:19:05Z</time>
      </trkpt>
      <trkpt lat="43.587509" lon="4.989353">
        <ele>44.26312</ele>
        <time>2021-06-30T20:19:06Z</time>
      </trkpt>
      <trkpt lat="43.587250" lon="4.989313">
        <ele>44.25940</ele>
        <time>2021-06-30T20:19:07Z</time>
      </trkpt>
      <trkpt lat="43.587250" lon="4.989313">
        <ele>44.86499</ele>
        <time>2021-06-30T20:19:08Z</time>
      </trkpt>
      <trkpt lat="43.586956" lon="4.989238">
        <ele>44.82965</ele>
        <time>2021-06-30T20:19:09Z</time>
      </trkpt>
      <trkpt lat="43.586723" lon="4.989161">
        <ele>45.87952</ele>
        <time>2021-06-30T20:19:10Z</time>
      </trkpt>
      <trkpt lat="43.586407" lon="4.989016">
        <ele>48.09473</ele>
        <time>2021-06-30T20:19:11Z</time>
      </trkpt>
      <trkpt lat="43.586136" lon="4.988858">
        <ele>47.98334</ele>
        <time>2021-06-30T20:19:12Z</time>
      </trkpt>
      <trkpt lat="43.585850" lon="4.988646">
        <ele>48.27881</ele>
        <time>2021-06-30T20:19:13Z</time>
      </trkpt>
      <trkpt lat="43.585571" lon="4.988434">
        <ele>49.89648</ele>
        <time>2021-06-30T20:19:14Z</time>
      </trkpt>
      <trkpt lat="43.585281" lon="4.988180">
        <ele>50.69598</ele>
        <time>2021-06-30T20:19:15Z</time>
      </trkpt>
      <trkpt lat="43.584995" lon="4.987920">
        <ele>51.85138</ele>
        <time>2021-06-30T20:19:16Z</time>
      </trkpt>
      <trkpt lat="43.584732" lon="4.987635">
        <ele>53.02100</ele>
        <time>2021-06-30T20:19:17Z</time>
      </trkpt>
      <trkpt lat="43.584454" lon="4.987327">
        <ele>54.56708</ele>
        <time>2021-06-30T20:19:18Z</time>
      </trkpt>
      <trkpt lat="43.584190" lon="4.987020">
        <ele>55.14191</ele>
        <time>2021-06-30T20:19:19Z</time>
      </trkpt>
      <trkpt lat="43.584190" lon="4.987020">
        <ele>55.14191</ele>
        <time>2021-06-30T20:19:20Z</time>
      </trkpt>
      <trkpt lat="43.583958" lon="4.986754">
        <ele>56.43390</ele>
        <time>2021-06-30T20:19:21Z</time>
      </trkpt>
      <trkpt lat="43.583729" lon="4.986489">
        <ele>56.00989</ele>
        <time>2021-06-30T20:19:22Z</time>
      </trkpt>
      <trkpt lat="43.583519" lon="4.986258">
        <ele>56.13336</ele>
        <time>2021-06-30T20:19:23Z</time>
      </trkpt>
      <trkpt lat="43.583279" lon="4.986001">
        <ele>56.34918</ele>
        <time>2021-06-30T20:19:24Z</time>
      </trkpt>
      <trkpt lat="43.583027" lon="4.985765">
        <ele>56.32330</ele>
        <time>2021-06-30T20:19:25Z</time>
      </trkpt>
      <trkpt lat="43.582737" lon="4.985521">
        <ele>56.28845</ele>
        <time>2021-06-30T20:19:26Z</time>
      </trkpt>
      <trkpt lat="43.582481" lon="4.985325">
        <ele>56.66406</ele>
        <time>2021-06-30T20:19:27Z</time>
      </trkpt>
      <trkpt lat="43.582188" lon="4.985148">
        <ele>57.84546</ele>
        <time>2021-06-30T20:19:28Z</time>
      </trkpt>
      <trkpt lat="43.581852" lon="4.984955">
        <ele>57.00891</ele>
        <time>2021-06-30T20:19:29Z</time>
      </trkpt>
      <trkpt lat="43.581596" lon="4.984814">
        <ele>56.99829</ele>
        <time>2021-06-30T20:19:30Z</time>
      </trkpt>
      <trkpt lat="43.581272" lon="4.984680">
        <ele>57.78137</ele>
        <time>2021-06-30T20:19:31Z</time>
      </trkpt>
      <trkpt lat="43.580925" lon="4.984576">
        <ele>57.89331</ele>
        <time>2021-06-30T20:19:32Z</time>
      </trkpt>
      <trkpt lat="43.580585" lon="4.984479">
        <ele>59.68042</ele>
        <time>2021-06-30T20:19:33Z</time>
      </trkpt>
      <trkpt lat="43.580254" lon="4.984438">
        <ele>60.28632</ele>
        <time>2021-06-30T20:19:34Z</time>
      </trkpt>
      <trkpt lat="43.579876" lon="4.984391">
        <ele>57.00867</ele>
        <time>2021-06-30T20:19:35Z</time>
      </trkpt>
      <trkpt lat="43.579876" lon="4.984391">
        <ele>56.80396</ele>
        <time>2021-06-30T20:19:36Z</time>
      </trkpt>
      <trkpt lat="43.579525" lon="4.984390">
        <ele>55.33771</ele>
        <time>2021-06-30T20:19:37Z</time>
      </trkpt>
      <trkpt lat="43.579132" lon="4.984411">
        <ele>53.36975</ele>
        <time>2021-06-30T20:19:38Z</time>
      </trkpt>
      <trkpt lat="43.578758" lon="4.984430">
        <ele>52.07129</ele>
        <time>2021-06-30T20:19:39Z</time>
      </trkpt>
      <trkpt lat="43.578415" lon="4.984448">
        <ele>49.89612</ele>
        <time>2021-06-30T20:19:40Z</time>
      </trkpt>
      <trkpt lat="43.578133" lon="4.984463">
        <ele>47.28809</ele>
        <time>2021-06-30T20:19:41Z</time>
      </trkpt>
      <trkpt lat="43.577785" lon="4.984466">
        <ele>46.18024</ele>
        <time>2021-06-30T20:19:42Z</time>
      </trkpt>
      <trkpt lat="43.577435" lon="4.984460">
        <ele>46.02832</ele>
        <time>2021-06-30T20:19:43Z</time>
      </trkpt>
      <trkpt lat="43.577129" lon="4.984454">
        <ele>45.85913</ele>
        <time>2021-06-30T20:19:44Z</time>
      </trkpt>
      <trkpt lat="43.576710" lon="4.984425">
        <ele>42.97516</ele>
        <time>2021-06-30T20:19:45Z</time>
      </trkpt>
      <trkpt lat="43.576363" lon="4.984380">
        <ele>41.50940</ele>
        <time>2021-06-30T20:19:46Z</time>
      </trkpt>
      <trkpt lat="43.576015" lon="4.984316">
        <ele>40.91833</ele>
        <time>2021-06-30T20:19:47Z</time>
      </trkpt>
      <trkpt lat="43.575626" lon="4.984235">
        <ele>40.46521</ele>
        <time>2021-06-30T20:19:48Z</time>
      </trkpt>
      <trkpt lat="43.575256" lon="4.984125">
        <ele>40.61432</ele>
        <time>2021-06-30T20:19:49Z</time>
      </trkpt>
      <trkpt lat="43.574905" lon="4.984020">
        <ele>40.72107</ele>
        <time>2021-06-30T20:19:50Z</time>
      </trkpt>
      <trkpt lat="43.574562" lon="4.983910">
        <ele>41.61652</ele>
        <time>2021-06-30T20:19:51Z</time>
      </trkpt>
      <trkpt lat="43.574207" lon="4.983760">
        <ele>40.59119</ele>
        <time>2021-06-30T20:19:52Z</time>
      </trkpt>
      <trkpt lat="43.574207" lon="4.983760">
        <ele>40.96997</ele>
        <time>2021-06-30T20:19:53Z</time>
      </trkpt>
      <trkpt lat="43.573853" lon="4.983603">
        <ele>40.55951</ele>
        <time>2021-06-30T20:19:54Z</time>
      </trkpt>
      <trkpt lat="43.573467" lon="4.983417">
        <ele>39.54431</ele>
        <time>2021-06-30T20:19:55Z</time>
      </trkpt>
      <trkpt lat="43.573101" lon="4.983213">
        <ele>39.63348</ele>
        <time>2021-06-30T20:19:56Z</time>
      </trkpt>
      <trkpt lat="43.572739" lon="4.982985">
        <ele>39.27765</ele>
        <time>2021-06-30T20:19:57Z</time>
      </trkpt>
      <trkpt lat="43.572365" lon="4.982747">
        <ele>39.47699</ele>
        <time>2021-06-30T20:19:58Z</time>
      </trkpt>
      <trkpt lat="43.572063" lon="4.982533">
        <ele>37.24518</ele>
        <time>2021-06-30T20:19:59Z</time>
      </trkpt>
      <trkpt lat="43.571720" lon="4.982255">
        <ele>37.97858</ele>
        <time>2021-06-30T20:20:00Z</time>
      </trkpt>
      <trkpt lat="43.571373" lon="4.981981">
        <ele>37.97858</ele>
        <time>2021-06-30T20:20:01Z</time>
      </trkpt>
      <trkpt lat="43.571373" lon="4.981981">
        <ele>37.58563</ele>
        <time>2021-06-30T20:20:02Z</time>
      </trkpt>
      <trkpt lat="43.571060" lon="4.981695">
        <ele>36.36621</ele>
        <time>2021-06-30T20:20:03Z</time>
      </trkpt>
      <trkpt lat="43.570766" lon="4.981405">
        <ele>35.88519</ele>
        <time>2021-06-30T20:20:04Z</time>
      </trkpt>
      <trkpt lat="43.570465" lon="4.981100">
        <ele>33.91559</ele>
        <time>2021-06-30T20:20:05Z</time>
      </trkpt>
      <trkpt lat="43.570210" lon="4.980835">
        <ele>34.46545</ele>
        <time>2021-06-30T20:20:06Z</time>
      </trkpt>
      <trkpt lat="43.569942" lon="4.980524">
        <ele>33.84314</ele>
        <time>2021-06-30T20:20:07Z</time>
      </trkpt>
      <trkpt lat="43.569702" lon="4.980234">
        <ele>32.62811</ele>
        <time>2021-06-30T20:20:08Z</time>
      </trkpt>
      <trkpt lat="43.569405" lon="4.979877">
        <ele>32.05341</ele>
        <time>2021-06-30T20:20:09Z</time>
      </trkpt>
      <trkpt lat="43.569176" lon="4.979604">
        <ele>30.58136</ele>
        <time>2021-06-30T20:20:10Z</time>
      </trkpt>
      <trkpt lat="43.568905" lon="4.979283">
        <ele>30.28613</ele>
        <time>2021-06-30T20:20:11Z</time>
      </trkpt>
      <trkpt lat="43.568680" lon="4.979012">
        <ele>29.95941</ele>
        <time>2021-06-30T20:20:12Z</time>
      </trkpt>
      <trkpt lat="43.568443" lon="4.978736">
        <ele>29.86652</ele>
        <time>2021-06-30T20:20:13Z</time>
      </trkpt>
      <trkpt lat="43.568188" lon="4.978439">
        <ele>28.96246</ele>
        <time>2021-06-30T20:20:14Z</time>
      </trkpt>
      <trkpt lat="43.567924" lon="4.978131">
        <ele>29.04761</ele>
        <time>2021-06-30T20:20:15Z</time>
      </trkpt>
      <trkpt lat="43.567680" lon="4.977841">
        <ele>28.74316</ele>
        <time>2021-06-30T20:20:16Z</time>
      </trkpt>
      <trkpt lat="43.567680" lon="4.977841">
        <ele>27.96893</ele>
        <time>2021-06-30T20:20:17Z</time>
      </trkpt>
      <trkpt lat="43.567432" lon="4.977545">
        <ele>28.48633</ele>
        <time>2021-06-30T20:20:18Z</time>
      </trkpt>
      <trkpt lat="43.567200" lon="4.977265">
        <ele>29.00598</ele>
        <time>2021-06-30T20:20:19Z</time>
      </trkpt>
      <trkpt lat="43.566936" lon="4.976950">
        <ele>28.59149</ele>
        <time>2021-06-30T20:20:20Z</time>
      </trkpt>
      <trkpt lat="43.566711" lon="4.976680">
        <ele>28.68909</ele>
        <time>2021-06-30T20:20:21Z</time>
      </trkpt>
      <trkpt lat="43.566509" lon="4.976438">
        <ele>28.75342</ele>
        <time>2021-06-30T20:20:22Z</time>
      </trkpt>
      <trkpt lat="43.566284" lon="4.976170">
        <ele>27.80774</ele>
        <time>2021-06-30T20:20:23Z</time>
      </trkpt>
      <trkpt lat="43.566090" lon="4.975938">
        <ele>28.16809</ele>
        <time>2021-06-30T20:20:24Z</time>
      </trkpt>
      <trkpt lat="43.565880" lon="4.975683">
        <ele>27.93866</ele>
        <time>2021-06-30T20:20:25Z</time>
      </trkpt>
      <trkpt lat="43.565647" lon="4.975409">
        <ele>27.98108</ele>
        <time>2021-06-30T20:20:26Z</time>
      </trkpt>
      <trkpt lat="43.565376" lon="4.975090">
        <ele>27.72675</ele>
        <time>2021-06-30T20:20:27Z</time>
      </trkpt>
      <trkpt lat="43.565376" lon="4.975090">
        <ele>28.05591</ele>
        <time>2021-06-30T20:20:28Z</time>
      </trkpt>
      <trkpt lat="43.565109" lon="4.974778">
        <ele>26.70575</ele>
        <time>2021-06-30T20:20:29Z</time>
      </trkpt>
      <trkpt lat="43.564880" lon="4.974503">
        <ele>28.26556</ele>
        <time>2021-06-30T20:20:30Z</time>
      </trkpt>
      <trkpt lat="43.564659" lon="4.974242">
        <ele>26.55157</ele>
        <time>2021-06-30T20:20:31Z</time>
      </trkpt>
      <trkpt lat="43.564388" lon="4.973916">
        <ele>28.13861</ele>
        <time>2021-06-30T20:20:32Z</time>
      </trkpt>
      <trkpt lat="43.564125" lon="4.973605">
        <ele>27.22266</ele>
        <time>2021-06-30T20:20:33Z</time>
      </trkpt>
      <trkpt lat="43.563873" lon="4.973306">
        <ele>27.17267</ele>
        <time>2021-06-30T20:20:34Z</time>
      </trkpt>
      <trkpt lat="43.563641" lon="4.973029">
        <ele>26.99402</ele>
        <time>2021-06-30T20:20:35Z</time>
      </trkpt>
      <trkpt lat="43.563362" lon="4.972695">
        <ele>25.91681</ele>
        <time>2021-06-30T20:20:36Z</time>
      </trkpt>
      <trkpt lat="43.563122" lon="4.972397">
        <ele>26.14764</ele>
        <time>2021-06-30T20:20:37Z</time>
      </trkpt>
      <trkpt lat="43.562866" lon="4.972084">
        <ele>26.14941</ele>
        <time>2021-06-30T20:20:38Z</time>
      </trkpt>
      <trkpt lat="43.562603" lon="4.971756">
        <ele>25.59003</ele>
        <time>2021-06-30T20:20:39Z</time>
      </trkpt>
      <trkpt lat="43.562344" lon="4.971412">
        <ele>23.70404</ele>
        <time>2021-06-30T20:20:40Z</time>
      </trkpt>
      <trkpt lat="43.562344" lon="4.971412">
        <ele>23.91119</ele>
        <time>2021-06-30T20:20:41Z</time>
      </trkpt>
      <trkpt lat="43.562107" lon="4.971101">
        <ele>23.90594</ele>
        <time>2021-06-30T20:20:42Z</time>
      </trkpt>
      <trkpt lat="43.561890" lon="4.970794">
        <ele>23.29083</ele>
        <time>2021-06-30T20:20:43Z</time>
      </trkpt>
      <trkpt lat="43.561707" lon="4.970527">
        <ele>22.50702</ele>
        <time>2021-06-30T20:20:44Z</time>
      </trkpt>
      <trkpt lat="43.561527" lon="4.970263">
        <ele>22.02887</ele>
        <time>2021-06-30T20:20:45Z</time>
      </trkpt>
      <trkpt lat="43.561359" lon="4.970012">
        <ele>22.03400</ele>
        <time>2021-06-30T20:20:46Z</time>
      </trkpt>
      <trkpt lat="43.561211" lon="4.969794">
        <ele>21.75330</ele>
        <time>2021-06-30T20:20:47Z</time>
      </trkpt>
      <trkpt lat="43.561062" lon="4.969560">
        <ele>21.52167</ele>
        <time>2021-06-30T20:20:48Z</time>
      </trkpt>
      <trkpt lat="43.560886" lon="4.969279">
        <ele>21.95868</ele>
        <time>2021-06-30T20:20:49Z</time>
      </trkpt>
      <trkpt lat="43.560818" lon="4.969171">
        <ele>21.28967</ele>
        <time>2021-06-30T20:20:50Z</time>
      </trkpt>
      <trkpt lat="43.560627" lon="4.968874">
        <ele>21.30389</ele>
        <time>2021-06-30T20:20:51Z</time>
      </trkpt>
      <trkpt lat="43.560543" lon="4.968739">
        <ele>21.13422</ele>
        <time>2021-06-30T20:20:52Z</time>
      </trkpt>
      <trkpt lat="43.560402" lon="4.968520">
        <ele>20.89600</ele>
        <time>2021-06-30T20:20:53Z</time>
      </trkpt>
      <trkpt lat="43.560249" lon="4.968279">
        <ele>20.75995</ele>
        <time>2021-06-30T20:20:54Z</time>
      </trkpt>
      <trkpt lat="43.560120" lon="4.968073">
        <ele>20.90900</ele>
        <time>2021-06-30T20:20:55Z</time>
      </trkpt>
      <trkpt lat="43.559956" lon="4.967814">
        <ele>21.01984</ele>
        <time>2021-06-30T20:20:56Z</time>
      </trkpt>
      <trkpt lat="43.559803" lon="4.967578">
        <ele>20.72510</ele>
        <time>2021-06-30T20:20:57Z</time>
      </trkpt>
      <trkpt lat="43.559628" lon="4.967303">
        <ele>20.26599</ele>
        <time>2021-06-30T20:20:58Z</time>
      </trkpt>
      <trkpt lat="43.559479" lon="4.967065">
        <ele>19.66711</ele>
        <time>2021-06-30T20:20:59Z</time>
      </trkpt>
      <trkpt lat="43.559479" lon="4.967065">
        <ele>19.85706</ele>
        <time>2021-06-30T20:21:00Z</time>
      </trkpt>
      <trkpt lat="43.559299" lon="4.966783">
        <ele>18.92804</ele>
        <time>2021-06-30T20:21:01Z</time>
      </trkpt>
      <trkpt lat="43.559151" lon="4.966548">
        <ele>18.64642</ele>
        <time>2021-06-30T20:21:02Z</time>
      </trkpt>
      <trkpt lat="43.558941" lon="4.966219">
        <ele>17.79822</ele>
        <time>2021-06-30T20:21:03Z</time>
      </trkpt>
      <trkpt lat="43.558762" lon="4.965937">
        <ele>17.00098</ele>
        <time>2021-06-30T20:21:04Z</time>
      </trkpt>
      <trkpt lat="43.558582" lon="4.965652">
        <ele>16.70990</ele>
        <time>2021-06-30T20:21:05Z</time>
      </trkpt>
      <trkpt lat="43.558414" lon="4.965385">
        <ele>16.54596</ele>
        <time>2021-06-30T20:21:06Z</time>
      </trkpt>
      <trkpt lat="43.558224" lon="4.965104">
        <ele>15.61902</ele>
        <time>2021-06-30T20:21:07Z</time>
      </trkpt>
      <trkpt lat="43.558044" lon="4.964848">
        <ele>16.79553</ele>
        <time>2021-06-30T20:21:08Z</time>
      </trkpt>
      <trkpt lat="43.558044" lon="4.964848">
        <ele>16.79553</ele>
        <time>2021-06-30T20:21:09Z</time>
      </trkpt>
      <trkpt lat="43.557652" lon="4.964279">
        <ele>16.63403</ele>
        <time>2021-06-30T20:21:10Z</time>
      </trkpt>
      <trkpt lat="43.557652" lon="4.964279">
        <ele>15.47510</ele>
        <time>2021-06-30T20:21:11Z</time>
      </trkpt>
      <trkpt lat="43.557465" lon="4.964007">
        <ele>15.48138</ele>
        <time>2021-06-30T20:21:12Z</time>
      </trkpt>
      <trkpt lat="43.557278" lon="4.963732">
        <ele>15.83972</ele>
        <time>2021-06-30T20:21:13Z</time>
      </trkpt>
      <trkpt lat="43.557068" lon="4.963425">
        <ele>15.21765</ele>
        <time>2021-06-30T20:21:14Z</time>
      </trkpt>
      <trkpt lat="43.556824" lon="4.963119">
        <ele>15.29492</ele>
        <time>2021-06-30T20:21:15Z</time>
      </trkpt>
      <trkpt lat="43.556595" lon="4.962843">
        <ele>15.37695</ele>
        <time>2021-06-30T20:21:16Z</time>
      </trkpt>
      <trkpt lat="43.556381" lon="4.962580">
        <ele>14.86499</ele>
        <time>2021-06-30T20:21:17Z</time>
      </trkpt>
      <trkpt lat="43.556190" lon="4.962348">
        <ele>14.19122</ele>
        <time>2021-06-30T20:21:18Z</time>
      </trkpt>
      <trkpt lat="43.555962" lon="4.962076">
        <ele>14.79865</ele>
        <time>2021-06-30T20:21:19Z</time>
      </trkpt>
      <trkpt lat="43.555729" lon="4.961815">
        <ele>14.01648</ele>
        <time>2021-06-30T20:21:20Z</time>
      </trkpt>
      <trkpt lat="43.555481" lon="4.961537">
        <ele>12.52734</ele>
        <time>2021-06-30T20:21:21Z</time>
      </trkpt>
      <trkpt lat="43.555222" lon="4.961251">
        <ele>13.07507</ele>
        <time>2021-06-30T20:21:22Z</time>
      </trkpt>
      <trkpt lat="43.555222" lon="4.961251">
        <ele>12.58704</ele>
        <time>2021-06-30T20:21:23Z</time>
      </trkpt>
      <trkpt lat="43.554985" lon="4.960988">
        <ele>12.30524</ele>
        <time>2021-06-30T20:21:24Z</time>
      </trkpt>
      <trkpt lat="43.554745" lon="4.960751">
        <ele>11.54675</ele>
        <time>2021-06-30T20:21:25Z</time>
      </trkpt>
      <trkpt lat="43.554516" lon="4.960523">
        <ele>12.00635</ele>
        <time>2021-06-30T20:21:26Z</time>
      </trkpt>
      <trkpt lat="43.554314" lon="4.960321">
        <ele>13.02307</ele>
        <time>2021-06-30T20:21:27Z</time>
      </trkpt>
      <trkpt lat="43.554096" lon="4.960121">
        <ele>13.09503</ele>
        <time>2021-06-30T20:21:28Z</time>
      </trkpt>
      <trkpt lat="43.553860" lon="4.959903">
        <ele>13.13220</ele>
        <time>2021-06-30T20:21:29Z</time>
      </trkpt>
      <trkpt lat="43.553650" lon="4.959713">
        <ele>14.23267</ele>
        <time>2021-06-30T20:21:30Z</time>
      </trkpt>
      <trkpt lat="43.553432" lon="4.959524">
        <ele>15.29749</ele>
        <time>2021-06-30T20:21:31Z</time>
      </trkpt>
      <trkpt lat="43.553223" lon="4.959348">
        <ele>15.86218</ele>
        <time>2021-06-30T20:21:32Z</time>
      </trkpt>
      <trkpt lat="43.552956" lon="4.959140">
        <ele>16.17108</ele>
        <time>2021-06-30T20:21:33Z</time>
      </trkpt>
      <trkpt lat="43.552746" lon="4.958975">
        <ele>16.27710</ele>
        <time>2021-06-30T20:21:34Z</time>
      </trkpt>
      <trkpt lat="43.552532" lon="4.958807">
        <ele>16.08563</ele>
        <time>2021-06-30T20:21:35Z</time>
      </trkpt>
      <trkpt lat="43.552299" lon="4.958623">
        <ele>16.28864</ele>
        <time>2021-06-30T20:21:36Z</time>
      </trkpt>
      <trkpt lat="43.552078" lon="4.958456">
        <ele>16.06952</ele>
        <time>2021-06-30T20:21:37Z</time>
      </trkpt>
      <trkpt lat="43.551865" lon="4.958303">
        <ele>15.79260</ele>
        <time>2021-06-30T20:21:38Z</time>
      </trkpt>
      <trkpt lat="43.551636" lon="4.958136">
        <ele>15.81671</ele>
        <time>2021-06-30T20:21:39Z</time>
      </trkpt>
      <trkpt lat="43.551392" lon="4.957975">
        <ele>17.51013</ele>
        <time>2021-06-30T20:21:40Z</time>
      </trkpt>
      <trkpt lat="43.551392" lon="4.957975">
        <ele>18.94452</ele>
        <time>2021-06-30T20:21:41Z</time>
      </trkpt>
      <trkpt lat="43.551155" lon="4.957823">
        <ele>19.32758</ele>
        <time>2021-06-30T20:21:42Z</time>
      </trkpt>
      <trkpt lat="43.550953" lon="4.957694">
        <ele>20.23175</ele>
        <time>2021-06-30T20:21:43Z</time>
      </trkpt>
      <trkpt lat="43.550705" lon="4.957542">
        <ele>20.61200</ele>
        <time>2021-06-30T20:21:44Z</time>
      </trkpt>
      <trkpt lat="43.550449" lon="4.957398">
        <ele>21.08649</ele>
        <time>2021-06-30T20:21:45Z</time>
      </trkpt>
      <trkpt lat="43.550243" lon="4.957280">
        <ele>21.66638</ele>
        <time>2021-06-30T20:21:46Z</time>
      </trkpt>
      <trkpt lat="43.549992" lon="4.957137">
        <ele>22.38928</ele>
        <time>2021-06-30T20:21:47Z</time>
      </trkpt>
      <trkpt lat="43.549759" lon="4.957006">
        <ele>23.03870</ele>
        <time>2021-06-30T20:21:48Z</time>
      </trkpt>
      <trkpt lat="43.549526" lon="4.956882">
        <ele>23.79559</ele>
        <time>2021-06-30T20:21:49Z</time>
      </trkpt>
      <trkpt lat="43.549301" lon="4.956760">
        <ele>24.96930</ele>
        <time>2021-06-30T20:21:50Z</time>
      </trkpt>
      <trkpt lat="43.549088" lon="4.956657">
        <ele>24.93445</ele>
        <time>2021-06-30T20:21:51Z</time>
      </trkpt>
      <trkpt lat="43.548813" lon="4.956537">
        <ele>25.17072</ele>
        <time>2021-06-30T20:21:52Z</time>
      </trkpt>
      <trkpt lat="43.548569" lon="4.956430">
        <ele>25.97809</ele>
        <time>2021-06-30T20:21:53Z</time>
      </trkpt>
      <trkpt lat="43.548328" lon="4.956325">
        <ele>25.88739</ele>
        <time>2021-06-30T20:21:54Z</time>
      </trkpt>
      <trkpt lat="43.548077" lon="4.956219">
        <ele>25.94507</ele>
        <time>2021-06-30T20:21:55Z</time>
      </trkpt>
      <trkpt lat="43.547855" lon="4.956132">
        <ele>25.99713</ele>
        <time>2021-06-30T20:21:56Z</time>
      </trkpt>
      <trkpt lat="43.547855" lon="4.956132">
        <ele>25.93396</ele>
        <time>2021-06-30T20:21:57Z</time>
      </trkpt>
      <trkpt lat="43.547619" lon="4.956037">
        <ele>26.20551</ele>
        <time>2021-06-30T20:21:58Z</time>
      </trkpt>
      <trkpt lat="43.547382" lon="4.955958">
        <ele>26.64716</ele>
        <time>2021-06-30T20:21:59Z</time>
      </trkpt>
      <trkpt lat="43.547153" lon="4.955884">
        <ele>27.48669</ele>
        <time>2021-06-30T20:22:00Z</time>
      </trkpt>
      <trkpt lat="43.546909" lon="4.955805">
        <ele>27.77338</ele>
        <time>2021-06-30T20:22:01Z</time>
      </trkpt>
      <trkpt lat="43.546669" lon="4.955728">
        <ele>28.29364</ele>
        <time>2021-06-30T20:22:02Z</time>
      </trkpt>
      <trkpt lat="43.546452" lon="4.955664">
        <ele>27.49463</ele>
        <time>2021-06-30T20:22:03Z</time>
      </trkpt>
      <trkpt lat="43.546227" lon="4.955613">
        <ele>27.50641</ele>
        <time>2021-06-30T20:22:04Z</time>
      </trkpt>
      <trkpt lat="43.546028" lon="4.955568">
        <ele>27.27844</ele>
        <time>2021-06-30T20:22:05Z</time>
      </trkpt>
      <trkpt lat="43.545830" lon="4.955526">
        <ele>27.43695</ele>
        <time>2021-06-30T20:22:06Z</time>
      </trkpt>
      <trkpt lat="43.545616" lon="4.955500">
        <ele>27.61237</ele>
        <time>2021-06-30T20:22:07Z</time>
      </trkpt>
      <trkpt lat="43.545414" lon="4.955476">
        <ele>27.23474</ele>
        <time>2021-06-30T20:22:08Z</time>
      </trkpt>
      <trkpt lat="43.545170" lon="4.955447">
        <ele>27.93372</ele>
        <time>2021-06-30T20:22:09Z</time>
      </trkpt>
      <trkpt lat="43.545170" lon="4.955447">
        <ele>28.09625</ele>
        <time>2021-06-30T20:22:10Z</time>
      </trkpt>
      <trkpt lat="43.544964" lon="4.955437">
        <ele>27.61304</ele>
        <time>2021-06-30T20:22:11Z</time>
      </trkpt>
      <trkpt lat="43.544769" lon="4.955437">
        <ele>28.08636</ele>
        <time>2021-06-30T20:22:12Z</time>
      </trkpt>
      <trkpt lat="43.544567" lon="4.955437">
        <ele>28.25690</ele>
        <time>2021-06-30T20:22:13Z</time>
      </trkpt>
      <trkpt lat="43.544319" lon="4.955446">
        <ele>28.62946</ele>
        <time>2021-06-30T20:22:14Z</time>
      </trkpt>
      <trkpt lat="43.544113" lon="4.955467">
        <ele>28.71918</ele>
        <time>2021-06-30T20:22:15Z</time>
      </trkpt>
      <trkpt lat="43.543907" lon="4.955490">
        <ele>28.86578</ele>
        <time>2021-06-30T20:22:16Z</time>
      </trkpt>
      <trkpt lat="43.543724" lon="4.955523">
        <ele>28.97845</ele>
        <time>2021-06-30T20:22:17Z</time>
      </trkpt>
      <trkpt lat="43.543533" lon="4.955560">
        <ele>29.33533</ele>
        <time>2021-06-30T20:22:18Z</time>
      </trkpt>
      <trkpt lat="43.543327" lon="4.955626">
        <ele>29.49207</ele>
        <time>2021-06-30T20:22:19Z</time>
      </trkpt>
      <trkpt lat="43.543125" lon="4.955691">
        <ele>30.10431</ele>
        <time>2021-06-30T20:22:20Z</time>
      </trkpt>
      <trkpt lat="43.542938" lon="4.955751">
        <ele>29.42273</ele>
        <time>2021-06-30T20:22:21Z</time>
      </trkpt>
      <trkpt lat="43.542740" lon="4.955814">
        <ele>29.94910</ele>
        <time>2021-06-30T20:22:22Z</time>
      </trkpt>
      <trkpt lat="43.542538" lon="4.955880">
        <ele>30.25049</ele>
        <time>2021-06-30T20:22:23Z</time>
      </trkpt>
      <trkpt lat="43.542538" lon="4.955880">
        <ele>29.45636</ele>
        <time>2021-06-30T20:22:24Z</time>
      </trkpt>
      <trkpt lat="43.542320" lon="4.955948">
        <ele>29.38269</ele>
        <time>2021-06-30T20:22:25Z</time>
      </trkpt>
      <trkpt lat="43.542061" lon="4.956032">
        <ele>28.95612</ele>
        <time>2021-06-30T20:22:26Z</time>
      </trkpt>
      <trkpt lat="43.541824" lon="4.956108">
        <ele>28.98260</ele>
        <time>2021-06-30T20:22:27Z</time>
      </trkpt>
      <trkpt lat="43.541569" lon="4.956189">
        <ele>29.09949</ele>
        <time>2021-06-30T20:22:28Z</time>
      </trkpt>
      <trkpt lat="43.541359" lon="4.956257">
        <ele>29.33344</ele>
        <time>2021-06-30T20:22:29Z</time>
      </trkpt>
      <trkpt lat="43.541080" lon="4.956346">
        <ele>29.67664</ele>
        <time>2021-06-30T20:22:30Z</time>
      </trkpt>
      <trkpt lat="43.540794" lon="4.956440">
        <ele>28.99768</ele>
        <time>2021-06-30T20:22:31Z</time>
      </trkpt>
      <trkpt lat="43.540554" lon="4.956519">
        <ele>28.48547</ele>
        <time>2021-06-30T20:22:32Z</time>
      </trkpt>
      <trkpt lat="43.540333" lon="4.956592">
        <ele>28.04749</ele>
        <time>2021-06-30T20:22:33Z</time>
      </trkpt>
      <trkpt lat="43.540104" lon="4.956667">
        <ele>28.95294</ele>
        <time>2021-06-30T20:22:34Z</time>
      </trkpt>
      <trkpt lat="43.540104" lon="4.956667">
        <ele>28.74280</ele>
        <time>2021-06-30T20:22:35Z</time>
      </trkpt>
      <trkpt lat="43.539867" lon="4.956744">
        <ele>27.81604</ele>
        <time>2021-06-30T20:22:36Z</time>
      </trkpt>
      <trkpt lat="43.539631" lon="4.956822">
        <ele>27.80896</ele>
        <time>2021-06-30T20:22:37Z</time>
      </trkpt>
      <trkpt lat="43.539455" lon="4.956879">
        <ele>28.18909</ele>
        <time>2021-06-30T20:22:38Z</time>
      </trkpt>
      <trkpt lat="43.539227" lon="4.956954">
        <ele>28.45624</ele>
        <time>2021-06-30T20:22:39Z</time>
      </trkpt>
      <trkpt lat="43.539005" lon="4.957026">
        <ele>27.45398</ele>
        <time>2021-06-30T20:22:40Z</time>
      </trkpt>
      <trkpt lat="43.538784" lon="4.957099">
        <ele>27.22803</ele>
        <time>2021-06-30T20:22:41Z</time>
      </trkpt>
      <trkpt lat="43.538593" lon="4.957165">
        <ele>26.98730</ele>
        <time>2021-06-30T20:22:42Z</time>
      </trkpt>
      <trkpt lat="43.538410" lon="4.957228">
        <ele>27.23669</ele>
        <time>2021-06-30T20:22:43Z</time>
      </trkpt>
      <trkpt lat="43.538216" lon="4.957297">
        <ele>27.11841</ele>
        <time>2021-06-30T20:22:44Z</time>
      </trkpt>
      <trkpt lat="43.537979" lon="4.957379">
        <ele>26.27283</ele>
        <time>2021-06-30T20:22:45Z</time>
      </trkpt>
      <trkpt lat="43.537785" lon="4.957447">
        <ele>25.70795</ele>
        <time>2021-06-30T20:22:46Z</time>
      </trkpt>
      <trkpt lat="43.537594" lon="4.957517">
        <ele>26.15326</ele>
        <time>2021-06-30T20:22:47Z</time>
      </trkpt>
      <trkpt lat="43.537594" lon="4.957517">
        <ele>26.18323</ele>
        <time>2021-06-30T20:22:48Z</time>
      </trkpt>
      <trkpt lat="43.537373" lon="4.957598">
        <ele>26.40216</ele>
        <time>2021-06-30T20:22:49Z</time>
      </trkpt>
      <trkpt lat="43.537197" lon="4.957662">
        <ele>26.87140</ele>
        <time>2021-06-30T20:22:50Z</time>
      </trkpt>
      <trkpt lat="43.536999" lon="4.957736">
        <ele>27.01270</ele>
        <time>2021-06-30T20:22:51Z</time>
      </trkpt>
      <trkpt lat="43.536797" lon="4.957811">
        <ele>27.52032</ele>
        <time>2021-06-30T20:22:52Z</time>
      </trkpt>
      <trkpt lat="43.536594" lon="4.957885">
        <ele>27.61298</ele>
        <time>2021-06-30T20:22:53Z</time>
      </trkpt>
      <trkpt lat="43.536385" lon="4.957963">
        <ele>27.74902</ele>
        <time>2021-06-30T20:22:54Z</time>
      </trkpt>
      <trkpt lat="43.536194" lon="4.958032">
        <ele>27.58643</ele>
        <time>2021-06-30T20:22:55Z</time>
      </trkpt>
      <trkpt lat="43.536011" lon="4.958101">
        <ele>27.41589</ele>
        <time>2021-06-30T20:22:56Z</time>
      </trkpt>
      <trkpt lat="43.535809" lon="4.958175">
        <ele>27.86212</ele>
        <time>2021-06-30T20:22:57Z</time>
      </trkpt>
      <trkpt lat="43.535599" lon="4.958252">
        <ele>27.34546</ele>
        <time>2021-06-30T20:22:58Z</time>
      </trkpt>
      <trkpt lat="43.535404" lon="4.958315">
        <ele>27.11145</ele>
        <time>2021-06-30T20:22:59Z</time>
      </trkpt>
      <trkpt lat="43.535404" lon="4.958315">
        <ele>27.41278</ele>
        <time>2021-06-30T20:23:00Z</time>
      </trkpt>
      <trkpt lat="43.535187" lon="4.958397">
        <ele>27.31653</ele>
        <time>2021-06-30T20:23:01Z</time>
      </trkpt>
      <trkpt lat="43.534943" lon="4.958488">
        <ele>26.84088</ele>
        <time>2021-06-30T20:23:02Z</time>
      </trkpt>
      <trkpt lat="43.534756" lon="4.958559">
        <ele>25.79773</ele>
        <time>2021-06-30T20:23:03Z</time>
      </trkpt>
      <trkpt lat="43.534576" lon="4.958627">
        <ele>25.64349</ele>
        <time>2021-06-30T20:23:04Z</time>
      </trkpt>
      <trkpt lat="43.534393" lon="4.958695">
        <ele>25.44745</ele>
        <time>2021-06-30T20:23:05Z</time>
      </trkpt>
      <trkpt lat="43.534180" lon="4.958776">
        <ele>24.48560</ele>
        <time>2021-06-30T20:23:06Z</time>
      </trkpt>
      <trkpt lat="43.533985" lon="4.958849">
        <ele>23.62671</ele>
        <time>2021-06-30T20:23:07Z</time>
      </trkpt>
      <trkpt lat="43.533783" lon="4.958925">
        <ele>22.15192</ele>
        <time>2021-06-30T20:23:08Z</time>
      </trkpt>
      <trkpt lat="43.533566" lon="4.959006">
        <ele>21.78583</ele>
        <time>2021-06-30T20:23:09Z</time>
      </trkpt>
      <trkpt lat="43.533333" lon="4.959094">
        <ele>22.14880</ele>
        <time>2021-06-30T20:23:10Z</time>
      </trkpt>
      <trkpt lat="43.533112" lon="4.959177">
        <ele>22.74713</ele>
        <time>2021-06-30T20:23:11Z</time>
      </trkpt>
      <trkpt lat="43.532917" lon="4.959252">
        <ele>22.30872</ele>
        <time>2021-06-30T20:23:12Z</time>
      </trkpt>
      <trkpt lat="43.532917" lon="4.959252">
        <ele>20.39795</ele>
        <time>2021-06-30T20:23:13Z</time>
      </trkpt>
      <trkpt lat="43.532707" lon="4.959331">
        <ele>20.74023</ele>
        <time>2021-06-30T20:23:14Z</time>
      </trkpt>
      <trkpt lat="43.532520" lon="4.959400">
        <ele>21.06354</ele>
        <time>2021-06-30T20:23:15Z</time>
      </trkpt>
      <trkpt lat="43.532326" lon="4.959474">
        <ele>21.21857</ele>
        <time>2021-06-30T20:23:16Z</time>
      </trkpt>
      <trkpt lat="43.532131" lon="4.959547">
        <ele>21.53357</ele>
        <time>2021-06-30T20:23:17Z</time>
      </trkpt>
      <trkpt lat="43.531925" lon="4.959625">
        <ele>21.58276</ele>
        <time>2021-06-30T20:23:18Z</time>
      </trkpt>
      <trkpt lat="43.531719" lon="4.959698">
        <ele>21.97076</ele>
        <time>2021-06-30T20:23:19Z</time>
      </trkpt>
      <trkpt lat="43.531513" lon="4.959773">
        <ele>21.70508</ele>
        <time>2021-06-30T20:23:20Z</time>
      </trkpt>
      <trkpt lat="43.531349" lon="4.959833">
        <ele>20.93121</ele>
        <time>2021-06-30T20:23:21Z</time>
      </trkpt>
      <trkpt lat="43.531197" lon="4.959888">
        <ele>20.42029</ele>
        <time>2021-06-30T20:23:22Z</time>
      </trkpt>
      <trkpt lat="43.531048" lon="4.959942">
        <ele>20.32709</ele>
        <time>2021-06-30T20:23:23Z</time>
      </trkpt>
      <trkpt lat="43.530853" lon="4.960013">
        <ele>20.33398</ele>
        <time>2021-06-30T20:23:24Z</time>
      </trkpt>
      <trkpt lat="43.530674" lon="4.960078">
        <ele>20.28644</ele>
        <time>2021-06-30T20:23:25Z</time>
      </trkpt>
      <trkpt lat="43.530502" lon="4.960139">
        <ele>20.52051</ele>
        <time>2021-06-30T20:23:26Z</time>
      </trkpt>
      <trkpt lat="43.530327" lon="4.960204">
        <ele>19.90643</ele>
        <time>2021-06-30T20:23:27Z</time>
      </trkpt>
      <trkpt lat="43.530327" lon="4.960204">
        <ele>19.94965</ele>
        <time>2021-06-30T20:23:28Z</time>
      </trkpt>
      <trkpt lat="43.530159" lon="4.960267">
        <ele>19.76746</ele>
        <time>2021-06-30T20:23:29Z</time>
      </trkpt>
      <trkpt lat="43.529999" lon="4.960327">
        <ele>18.47986</ele>
        <time>2021-06-30T20:23:30Z</time>
      </trkpt>
      <trkpt lat="43.529842" lon="4.960385">
        <ele>18.49341</ele>
        <time>2021-06-30T20:23:31Z</time>
      </trkpt>
      <trkpt lat="43.529655" lon="4.960454">
        <ele>18.34601</ele>
        <time>2021-06-30T20:23:32Z</time>
      </trkpt>
      <trkpt lat="43.529469" lon="4.960525">
        <ele>18.31866</ele>
        <time>2021-06-30T20:23:33Z</time>
      </trkpt>
      <trkpt lat="43.529282" lon="4.960596">
        <ele>18.55176</ele>
        <time>2021-06-30T20:23:34Z</time>
      </trkpt>
      <trkpt lat="43.529102" lon="4.960663">
        <ele>17.96582</ele>
        <time>2021-06-30T20:23:35Z</time>
      </trkpt>
      <trkpt lat="43.528896" lon="4.960739">
        <ele>18.18231</ele>
        <time>2021-06-30T20:23:36Z</time>
      </trkpt>
      <trkpt lat="43.528725" lon="4.960805">
        <ele>17.93243</ele>
        <time>2021-06-30T20:23:37Z</time>
      </trkpt>
      <trkpt lat="43.528564" lon="4.960868">
        <ele>18.12646</ele>
        <time>2021-06-30T20:23:38Z</time>
      </trkpt>
      <trkpt lat="43.528412" lon="4.960933">
        <ele>18.14050</ele>
        <time>2021-06-30T20:23:39Z</time>
      </trkpt>
      <trkpt lat="43.528305" lon="4.960991">
        <ele>19.16998</ele>
        <time>2021-06-30T20:23:40Z</time>
      </trkpt>
      <trkpt lat="43.528229" lon="4.961025">
        <ele>18.29230</ele>
        <time>2021-06-30T20:23:41Z</time>
      </trkpt>
      <trkpt lat="43.528130" lon="4.961102">
        <ele>18.67389</ele>
        <time>2021-06-30T20:23:42Z</time>
      </trkpt>
      <trkpt lat="43.528049" lon="4.961167">
        <ele>18.42444</ele>
        <time>2021-06-30T20:23:43Z</time>
      </trkpt>
      <trkpt lat="43.528049" lon="4.961167">
        <ele>18.94824</ele>
        <time>2021-06-30T20:23:44Z</time>
      </trkpt>
      <trkpt lat="43.527985" lon="4.961216">
        <ele>19.94012</ele>
        <time>2021-06-30T20:23:45Z</time>
      </trkpt>
      <trkpt lat="43.527893" lon="4.961215">
        <ele>20.92657</ele>
        <time>2021-06-30T20:23:46Z</time>
      </trkpt>
      <trkpt lat="43.527702" lon="4.961052">
        <ele>20.81598</ele>
        <time>2021-06-30T20:23:47Z</time>
      </trkpt>
      <trkpt lat="43.527611" lon="4.961053">
        <ele>19.56494</ele>
        <time>2021-06-30T20:23:48Z</time>
      </trkpt>
      <trkpt lat="43.527512" lon="4.961136">
        <ele>19.89941</ele>
        <time>2021-06-30T20:23:49Z</time>
      </trkpt>
      <trkpt lat="43.527458" lon="4.961264">
        <ele>20.28314</ele>
        <time>2021-06-30T20:23:50Z</time>
      </trkpt>
      <trkpt lat="43.527431" lon="4.961414">
        <ele>20.12872</ele>
        <time>2021-06-30T20:23:51Z</time>
      </trkpt>
      <trkpt lat="43.527435" lon="4.961545">
        <ele>19.72784</ele>
        <time>2021-06-30T20:23:52Z</time>
      </trkpt>
      <trkpt lat="43.527493" lon="4.961668">
        <ele>18.68036</ele>
        <time>2021-06-30T20:23:53Z</time>
      </trkpt>
      <trkpt lat="43.527493" lon="4.961668">
        <ele>18.45087</ele>
        <time>2021-06-30T20:23:54Z</time>
      </trkpt>
      <trkpt lat="43.527683" lon="4.961814">
        <ele>18.09613</ele>
        <time>2021-06-30T20:23:55Z</time>
      </trkpt>
      <trkpt lat="43.527683" lon="4.961814">
        <ele>18.54327</ele>
        <time>2021-06-30T20:23:56Z</time>
      </trkpt>
      <trkpt lat="43.527695" lon="4.961942">
        <ele>19.73090</ele>
        <time>2021-06-30T20:23:57Z</time>
      </trkpt>
      <trkpt lat="43.527721" lon="4.962258">
        <ele>19.90747</ele>
        <time>2021-06-30T20:23:58Z</time>
      </trkpt>
      <trkpt lat="43.527737" lon="4.962500">
        <ele>20.79553</ele>
        <time>2021-06-30T20:23:59Z</time>
      </trkpt>
      <trkpt lat="43.527748" lon="4.962706">
        <ele>21.33124</ele>
        <time>2021-06-30T20:24:00Z</time>
      </trkpt>
      <trkpt lat="43.527760" lon="4.962880">
        <ele>22.06506</ele>
        <time>2021-06-30T20:24:01Z</time>
      </trkpt>
      <trkpt lat="43.527710" lon="4.962993">
        <ele>21.86420</ele>
        <time>2021-06-30T20:24:02Z</time>
      </trkpt>
      <trkpt lat="43.527637" lon="4.963065">
        <ele>22.37610</ele>
        <time>2021-06-30T20:24:03Z</time>
      </trkpt>
      <trkpt lat="43.527611" lon="4.963070">
        <ele>20.59760</ele>
        <time>2021-06-30T20:24:04Z</time>
      </trkpt>
      <trkpt lat="43.527782" lon="4.963272">
        <ele>21.35968</ele>
        <time>2021-06-30T20:24:05Z</time>
      </trkpt>
      <trkpt lat="43.527699" lon="4.963327">
        <ele>19.64410</ele>
        <time>2021-06-30T20:24:06Z</time>
      </trkpt>
      <trkpt lat="43.527699" lon="4.963452">
        <ele>19.74677</ele>
        <time>2021-06-30T20:24:07Z</time>
      </trkpt>
      <trkpt lat="43.527725" lon="4.963496">
        <ele>19.32727</ele>
        <time>2021-06-30T20:24:08Z</time>
      </trkpt>
      <trkpt lat="43.527798" lon="4.963526">
        <ele>18.68597</ele>
        <time>2021-06-30T20:24:09Z</time>
      </trkpt>
      <trkpt lat="43.527805" lon="4.963596">
        <ele>20.03064</ele>
        <time>2021-06-30T20:24:10Z</time>
      </trkpt>
      <trkpt lat="43.527821" lon="4.963818">
        <ele>20.57227</ele>
        <time>2021-06-30T20:24:11Z</time>
      </trkpt>
      <trkpt lat="43.527821" lon="4.963818">
        <ele>20.20636</ele>
        <time>2021-06-30T20:24:12Z</time>
      </trkpt>
      <trkpt lat="43.527840" lon="4.964091">
        <ele>19.27502</ele>
        <time>2021-06-30T20:24:13Z</time>
      </trkpt>
      <trkpt lat="43.527859" lon="4.964373">
        <ele>18.27374</ele>
        <time>2021-06-30T20:24:14Z</time>
      </trkpt>
      <trkpt lat="43.527878" lon="4.964652">
        <ele>19.45416</ele>
        <time>2021-06-30T20:24:15Z</time>
      </trkpt>
      <trkpt lat="43.527897" lon="4.964898">
        <ele>19.48334</ele>
        <time>2021-06-30T20:24:16Z</time>
      </trkpt>
      <trkpt lat="43.527916" lon="4.965245">
        <ele>19.19110</ele>
        <time>2021-06-30T20:24:17Z</time>
      </trkpt>
      <trkpt lat="43.527935" lon="4.965526">
        <ele>18.41559</ele>
        <time>2021-06-30T20:24:18Z</time>
      </trkpt>
      <trkpt lat="43.527958" lon="4.965823">
        <ele>18.56970</ele>
        <time>2021-06-30T20:24:19Z</time>
      </trkpt>
      <trkpt lat="43.527981" lon="4.966145">
        <ele>18.80585</ele>
        <time>2021-06-30T20:24:20Z</time>
      </trkpt>
      <trkpt lat="43.528004" lon="4.966454">
        <ele>18.83221</ele>
        <time>2021-06-30T20:24:21Z</time>
      </trkpt>
      <trkpt lat="43.528019" lon="4.966702">
        <ele>18.59393</ele>
        <time>2021-06-30T20:24:22Z</time>
      </trkpt>
      <trkpt lat="43.528019" lon="4.966702">
        <ele>18.11230</ele>
        <time>2021-06-30T20:24:23Z</time>
      </trkpt>
      <trkpt lat="43.528042" lon="4.967003">
        <ele>17.71881</ele>
        <time>2021-06-30T20:24:24Z</time>
      </trkpt>
      <trkpt lat="43.528061" lon="4.967255">
        <ele>19.93152</ele>
        <time>2021-06-30T20:24:25Z</time>
      </trkpt>
      <trkpt lat="43.528080" lon="4.967539">
        <ele>18.67236</ele>
        <time>2021-06-30T20:24:26Z</time>
      </trkpt>
      <trkpt lat="43.528103" lon="4.967798">
        <ele>19.39960</ele>
        <time>2021-06-30T20:24:27Z</time>
      </trkpt>
      <trkpt lat="43.528118" lon="4.968082">
        <ele>20.09302</ele>
        <time>2021-06-30T20:24:28Z</time>
      </trkpt>
      <trkpt lat="43.528126" lon="4.968373">
        <ele>21.50592</ele>
        <time>2021-06-30T20:24:29Z</time>
      </trkpt>
      <trkpt lat="43.528122" lon="4.968663">
        <ele>21.90356</ele>
        <time>2021-06-30T20:24:30Z</time>
      </trkpt>
      <trkpt lat="43.528099" lon="4.968947">
        <ele>21.85864</ele>
        <time>2021-06-30T20:24:31Z</time>
      </trkpt>
      <trkpt lat="43.528084" lon="4.969166">
        <ele>20.99884</ele>
        <time>2021-06-30T20:24:32Z</time>
      </trkpt>
      <trkpt lat="43.528103" lon="4.969391">
        <ele>21.65033</ele>
        <time>2021-06-30T20:24:33Z</time>
      </trkpt>
      <trkpt lat="43.528160" lon="4.969627">
        <ele>24.25171</ele>
        <time>2021-06-30T20:24:34Z</time>
      </trkpt>
      <trkpt lat="43.528225" lon="4.969874">
        <ele>25.19708</ele>
        <time>2021-06-30T20:24:35Z</time>
      </trkpt>
      <trkpt lat="43.528278" lon="4.970073">
        <ele>23.50299</ele>
        <time>2021-06-30T20:24:36Z</time>
      </trkpt>
      <trkpt lat="43.528278" lon="4.970073">
        <ele>25.29285</ele>
        <time>2021-06-30T20:24:37Z</time>
      </trkpt>
      <trkpt lat="43.528347" lon="4.970283">
        <ele>25.29321</ele>
        <time>2021-06-30T20:24:38Z</time>
      </trkpt>
      <trkpt lat="43.528416" lon="4.970502">
        <ele>26.68512</ele>
        <time>2021-06-30T20:24:39Z</time>
      </trkpt>
      <trkpt lat="43.528477" lon="4.970691">
        <ele>26.37708</ele>
        <time>2021-06-30T20:24:40Z</time>
      </trkpt>
      <trkpt lat="43.528526" lon="4.970860">
        <ele>25.23480</ele>
        <time>2021-06-30T20:24:41Z</time>
      </trkpt>
      <trkpt lat="43.528610" lon="4.971022">
        <ele>25.99475</ele>
        <time>2021-06-30T20:24:42Z</time>
      </trkpt>
      <trkpt lat="43.528660" lon="4.971146">
        <ele>25.98633</ele>
        <time>2021-06-30T20:24:43Z</time>
      </trkpt>
      <trkpt lat="43.528728" lon="4.971350">
        <ele>27.62500</ele>
        <time>2021-06-30T20:24:44Z</time>
      </trkpt>
      <trkpt lat="43.528786" lon="4.971525">
        <ele>28.14026</ele>
        <time>2021-06-30T20:24:45Z</time>
      </trkpt>
      <trkpt lat="43.528839" lon="4.971679">
        <ele>27.79590</ele>
        <time>2021-06-30T20:24:46Z</time>
      </trkpt>
      <trkpt lat="43.528893" lon="4.971841">
        <ele>29.67114</ele>
        <time>2021-06-30T20:24:47Z</time>
      </trkpt>
      <trkpt lat="43.528965" lon="4.972049">
        <ele>29.49213</ele>
        <time>2021-06-30T20:24:48Z</time>
      </trkpt>
      <trkpt lat="43.529018" lon="4.972204">
        <ele>28.80524</ele>
        <time>2021-06-30T20:24:49Z</time>
      </trkpt>
      <trkpt lat="43.529064" lon="4.972331">
        <ele>28.85950</ele>
        <time>2021-06-30T20:24:50Z</time>
      </trkpt>
      <trkpt lat="43.529099" lon="4.972438">
        <ele>26.87207</ele>
        <time>2021-06-30T20:24:51Z</time>
      </trkpt>
      <trkpt lat="43.529140" lon="4.972559">
        <ele>27.76404</ele>
        <time>2021-06-30T20:24:52Z</time>
      </trkpt>
      <trkpt lat="43.529140" lon="4.972559">
        <ele>25.58832</ele>
        <time>2021-06-30T20:24:53Z</time>
      </trkpt>
      <trkpt lat="43.529156" lon="4.972607">
        <ele>24.87561</ele>
        <time>2021-06-30T20:24:54Z</time>
      </trkpt>
      <trkpt lat="43.529205" lon="4.972722">
        <ele>23.75647</ele>
        <time>2021-06-30T20:24:55Z</time>
      </trkpt>
      <trkpt lat="43.529255" lon="4.972850">
        <ele>24.05054</ele>
        <time>2021-06-30T20:24:56Z</time>
      </trkpt>
      <trkpt lat="43.529293" lon="4.972943">
        <ele>23.97461</ele>
        <time>2021-06-30T20:24:57Z</time>
      </trkpt>
      <trkpt lat="43.529331" lon="4.973038">
        <ele>23.34906</ele>
        <time>2021-06-30T20:24:58Z</time>
      </trkpt>
      <trkpt lat="43.529388" lon="4.973176">
        <ele>23.43567</ele>
        <time>2021-06-30T20:24:59Z</time>
      </trkpt>
      <trkpt lat="43.529449" lon="4.973329">
        <ele>21.93127</ele>
        <time>2021-06-30T20:25:00Z</time>
      </trkpt>
      <trkpt lat="43.529499" lon="4.973450">
        <ele>22.28882</ele>
        <time>2021-06-30T20:25:01Z</time>
      </trkpt>
      <trkpt lat="43.529556" lon="4.973596">
        <ele>23.09326</ele>
        <time>2021-06-30T20:25:02Z</time>
      </trkpt>
      <trkpt lat="43.529613" lon="4.973738">
        <ele>22.49762</ele>
        <time>2021-06-30T20:25:03Z</time>
      </trkpt>
      <trkpt lat="43.529686" lon="4.973913">
        <ele>23.76532</ele>
        <time>2021-06-30T20:25:04Z</time>
      </trkpt>
      <trkpt lat="43.529758" lon="4.974080">
        <ele>23.36664</ele>
        <time>2021-06-30T20:25:05Z</time>
      </trkpt>
      <trkpt lat="43.529827" lon="4.974267">
        <ele>23.42163</ele>
        <time>2021-06-30T20:25:06Z</time>
      </trkpt>
      <trkpt lat="43.529827" lon="4.974267">
        <ele>22.87097</ele>
        <time>2021-06-30T20:25:07Z</time>
      </trkpt>
      <trkpt lat="43.529892" lon="4.974435">
        <ele>23.55548</ele>
        <time>2021-06-30T20:25:08Z</time>
      </trkpt>
      <trkpt lat="43.529945" lon="4.974554">
        <ele>22.51270</ele>
        <time>2021-06-30T20:25:09Z</time>
      </trkpt>
      <trkpt lat="43.529991" lon="4.974656">
        <ele>21.73895</ele>
        <time>2021-06-30T20:25:10Z</time>
      </trkpt>
      <trkpt lat="43.529995" lon="4.974669">
        <ele>20.44275</ele>
        <time>2021-06-30T20:25:11Z</time>
      </trkpt>
      <trkpt lat="43.530029" lon="4.974737">
        <ele>21.09766</ele>
        <time>2021-06-30T20:25:12Z</time>
      </trkpt>
      <trkpt lat="43.530018" lon="4.974827">
        <ele>19.06537</ele>
        <time>2021-06-30T20:25:13Z</time>
      </trkpt>
      <trkpt lat="43.530014" lon="4.974872">
        <ele>20.22504</ele>
        <time>2021-06-30T20:25:14Z</time>
      </trkpt>
      <trkpt lat="43.529984" lon="4.974881">
        <ele>20.42773</ele>
        <time>2021-06-30T20:25:15Z</time>
      </trkpt>
      <trkpt lat="43.529869" lon="4.974969">
        <ele>20.18530</ele>
        <time>2021-06-30T20:25:16Z</time>
      </trkpt>
      <trkpt lat="43.529713" lon="4.975070">
        <ele>20.15509</ele>
        <time>2021-06-30T20:25:17Z</time>
      </trkpt>
      <trkpt lat="43.529602" lon="4.975141">
        <ele>18.96222</ele>
        <time>2021-06-30T20:25:18Z</time>
      </trkpt>
      <trkpt lat="43.529469" lon="4.975225">
        <ele>18.88879</ele>
        <time>2021-06-30T20:25:19Z</time>
      </trkpt>
      <trkpt lat="43.529469" lon="4.975225">
        <ele>19.20715</ele>
        <time>2021-06-30T20:25:20Z</time>
      </trkpt>
      <trkpt lat="43.529366" lon="4.975291">
        <ele>19.74878</ele>
        <time>2021-06-30T20:25:21Z</time>
      </trkpt>
      <trkpt lat="43.529266" lon="4.975355">
        <ele>19.46472</ele>
        <time>2021-06-30T20:25:22Z</time>
      </trkpt>
      <trkpt lat="43.529156" lon="4.975426">
        <ele>18.92780</ele>
        <time>2021-06-30T20:25:23Z</time>
      </trkpt>
      <trkpt lat="43.529041" lon="4.975498">
        <ele>19.60876</ele>
        <time>2021-06-30T20:25:24Z</time>
      </trkpt>
      <trkpt lat="43.528946" lon="4.975556">
        <ele>18.64893</ele>
        <time>2021-06-30T20:25:25Z</time>
      </trkpt>
      <trkpt lat="43.528938" lon="4.975561">
        <ele>17.98724</ele>
        <time>2021-06-30T20:25:26Z</time>
      </trkpt>
      <trkpt lat="43.528889" lon="4.975592">
        <ele>16.90265</ele>
        <time>2021-06-30T20:25:27Z</time>
      </trkpt>
      <trkpt lat="43.528835" lon="4.975624">
        <ele>17.66632</ele>
        <time>2021-06-30T20:25:28Z</time>
      </trkpt>
      <trkpt lat="43.528782" lon="4.975658">
        <ele>17.69141</ele>
        <time>2021-06-30T20:25:29Z</time>
      </trkpt>
      <trkpt lat="43.528728" lon="4.975691">
        <ele>18.09167</ele>
        <time>2021-06-30T20:25:30Z</time>
      </trkpt>
      <trkpt lat="43.528656" lon="4.975734">
        <ele>18.23157</ele>
        <time>2021-06-30T20:25:31Z</time>
      </trkpt>
      <trkpt lat="43.528591" lon="4.975775">
        <ele>18.26782</ele>
        <time>2021-06-30T20:25:32Z</time>
      </trkpt>
      <trkpt lat="43.528542" lon="4.975805">
        <ele>15.78479</ele>
        <time>2021-06-30T20:25:33Z</time>
      </trkpt>
      <trkpt lat="43.528542" lon="4.975805">
        <ele>16.30322</ele>
        <time>2021-06-30T20:25:34Z</time>
      </trkpt>
      <trkpt lat="43.528435" lon="4.975872">
        <ele>15.40991</ele>
        <time>2021-06-30T20:25:35Z</time>
      </trkpt>
      <trkpt lat="43.528358" lon="4.975919">
        <ele>16.06989</ele>
        <time>2021-06-30T20:25:36Z</time>
      </trkpt>
      <trkpt lat="43.528275" lon="4.975973">
        <ele>15.99463</ele>
        <time>2021-06-30T20:25:37Z</time>
      </trkpt>
      <trkpt lat="43.528172" lon="4.976036">
        <ele>15.83978</ele>
        <time>2021-06-30T20:25:38Z</time>
      </trkpt>
      <trkpt lat="43.528072" lon="4.976092">
        <ele>16.33875</ele>
        <time>2021-06-30T20:25:39Z</time>
      </trkpt>
      <trkpt lat="43.528008" lon="4.976109">
        <ele>16.48254</ele>
        <time>2021-06-30T20:25:40Z</time>
      </trkpt>
      <trkpt lat="43.527927" lon="4.976127">
        <ele>17.46320</ele>
        <time>2021-06-30T20:25:41Z</time>
      </trkpt>
      <trkpt lat="43.527836" lon="4.976125">
        <ele>19.53674</ele>
        <time>2021-06-30T20:25:42Z</time>
      </trkpt>
      <trkpt lat="43.527752" lon="4.976113">
        <ele>20.63129</ele>
        <time>2021-06-30T20:25:43Z</time>
      </trkpt>
      <trkpt lat="43.527699" lon="4.976052">
        <ele>21.14551</ele>
        <time>2021-06-30T20:25:44Z</time>
      </trkpt>
      <trkpt lat="43.527657" lon="4.975973">
        <ele>21.21484</ele>
        <time>2021-06-30T20:25:45Z</time>
      </trkpt>
      <trkpt lat="43.527588" lon="4.975946">
        <ele>21.30420</ele>
        <time>2021-06-30T20:25:46Z</time>
      </trkpt>
      <trkpt lat="43.527504" lon="4.975946">
        <ele>21.04095</ele>
        <time>2021-06-30T20:25:47Z</time>
      </trkpt>
      <trkpt lat="43.527435" lon="4.975996">
        <ele>21.23291</ele>
        <time>2021-06-30T20:25:48Z</time>
      </trkpt>
      <trkpt lat="43.527409" lon="4.976053">
        <ele>20.99146</ele>
        <time>2021-06-30T20:25:49Z</time>
      </trkpt>
      <trkpt lat="43.527409" lon="4.976053">
        <ele>21.04529</ele>
        <time>2021-06-30T20:25:50Z</time>
      </trkpt>
      <trkpt lat="43.527393" lon="4.976195">
        <ele>20.96356</ele>
        <time>2021-06-30T20:25:51Z</time>
      </trkpt>
      <trkpt lat="43.527405" lon="4.976273">
        <ele>20.75537</ele>
        <time>2021-06-30T20:25:52Z</time>
      </trkpt>
      <trkpt lat="43.527374" lon="4.976410">
        <ele>20.57416</ele>
        <time>2021-06-30T20:25:53Z</time>
      </trkpt>
      <trkpt lat="43.527309" lon="4.976532">
        <ele>18.49603</ele>
        <time>2021-06-30T20:25:54Z</time>
      </trkpt>
      <trkpt lat="43.527229" lon="4.976618">
        <ele>18.08691</ele>
        <time>2021-06-30T20:25:55Z</time>
      </trkpt>
      <trkpt lat="43.527119" lon="4.976707">
        <ele>18.59082</ele>
        <time>2021-06-30T20:25:56Z</time>
      </trkpt>
      <trkpt lat="43.526989" lon="4.976786">
        <ele>18.98578</ele>
        <time>2021-06-30T20:25:57Z</time>
      </trkpt>
      <trkpt lat="43.526886" lon="4.976852">
        <ele>19.68475</ele>
        <time>2021-06-30T20:25:58Z</time>
      </trkpt>
      <trkpt lat="43.526752" lon="4.976933">
        <ele>20.02014</ele>
        <time>2021-06-30T20:25:59Z</time>
      </trkpt>
      <trkpt lat="43.526752" lon="4.976933">
        <ele>20.14398</ele>
        <time>2021-06-30T20:26:00Z</time>
      </trkpt>
      <trkpt lat="43.526630" lon="4.977009">
        <ele>19.69373</ele>
        <time>2021-06-30T20:26:01Z</time>
      </trkpt>
      <trkpt lat="43.526524" lon="4.977075">
        <ele>20.36615</ele>
        <time>2021-06-30T20:26:02Z</time>
      </trkpt>
      <trkpt lat="43.526402" lon="4.977152">
        <ele>20.50787</ele>
        <time>2021-06-30T20:26:03Z</time>
      </trkpt>
      <trkpt lat="43.526314" lon="4.977206">
        <ele>20.52777</ele>
        <time>2021-06-30T20:26:04Z</time>
      </trkpt>
      <trkpt lat="43.526176" lon="4.977292">
        <ele>19.17322</ele>
        <time>2021-06-30T20:26:05Z</time>
      </trkpt>
      <trkpt lat="43.526066" lon="4.977361">
        <ele>18.79572</ele>
        <time>2021-06-30T20:26:06Z</time>
      </trkpt>
      <trkpt lat="43.525963" lon="4.977423">
        <ele>19.50299</ele>
        <time>2021-06-30T20:26:07Z</time>
      </trkpt>
      <trkpt lat="43.525879" lon="4.977474">
        <ele>19.06757</ele>
        <time>2021-06-30T20:26:08Z</time>
      </trkpt>
      <trkpt lat="43.525803" lon="4.977521">
        <ele>16.92664</ele>
        <time>2021-06-30T20:26:09Z</time>
      </trkpt>
      <trkpt lat="43.525738" lon="4.977562">
        <ele>15.98737</ele>
        <time>2021-06-30T20:26:10Z</time>
      </trkpt>
      <trkpt lat="43.525688" lon="4.977592">
        <ele>16.24896</ele>
        <time>2021-06-30T20:26:11Z</time>
      </trkpt>
      <trkpt lat="43.525639" lon="4.977624">
        <ele>16.00092</ele>
        <time>2021-06-30T20:26:12Z</time>
      </trkpt>
      <trkpt lat="43.525566" lon="4.977667">
        <ele>15.95282</ele>
        <time>2021-06-30T20:26:13Z</time>
      </trkpt>
      <trkpt lat="43.525494" lon="4.977713">
        <ele>14.86066</ele>
        <time>2021-06-30T20:26:14Z</time>
      </trkpt>
      <trkpt lat="43.525494" lon="4.977713">
        <ele>15.58228</ele>
        <time>2021-06-30T20:26:15Z</time>
      </trkpt>
      <trkpt lat="43.525421" lon="4.977755">
        <ele>15.78290</ele>
        <time>2021-06-30T20:26:16Z</time>
      </trkpt>
      <trkpt lat="43.525314" lon="4.977819">
        <ele>14.48859</ele>
        <time>2021-06-30T20:26:17Z</time>
      </trkpt>
      <trkpt lat="43.525200" lon="4.977884">
        <ele>14.64166</ele>
        <time>2021-06-30T20:26:18Z</time>
      </trkpt>
      <trkpt lat="43.525078" lon="4.977957">
        <ele>15.08746</ele>
        <time>2021-06-30T20:26:19Z</time>
      </trkpt>
      <trkpt lat="43.524998" lon="4.978000">
        <ele>15.10498</ele>
        <time>2021-06-30T20:26:20Z</time>
      </trkpt>
      <trkpt lat="43.524872" lon="4.978055">
        <ele>17.28345</ele>
        <time>2021-06-30T20:26:21Z</time>
      </trkpt>
      <trkpt lat="43.524754" lon="4.978108">
        <ele>17.12634</ele>
        <time>2021-06-30T20:26:22Z</time>
      </trkpt>
      <trkpt lat="43.524590" lon="4.978182">
        <ele>18.03870</ele>
        <time>2021-06-30T20:26:23Z</time>
      </trkpt>
      <trkpt lat="43.524464" lon="4.978238">
        <ele>17.68884</ele>
        <time>2021-06-30T20:26:24Z</time>
      </trkpt>
      <trkpt lat="43.524323" lon="4.978301">
        <ele>17.98962</ele>
        <time>2021-06-30T20:26:25Z</time>
      </trkpt>
      <trkpt lat="43.524185" lon="4.978369">
        <ele>17.94379</ele>
        <time>2021-06-30T20:26:26Z</time>
      </trkpt>
      <trkpt lat="43.524052" lon="4.978420">
        <ele>16.70581</ele>
        <time>2021-06-30T20:26:27Z</time>
      </trkpt>
      <trkpt lat="43.524052" lon="4.978420">
        <ele>16.23035</ele>
        <time>2021-06-30T20:26:28Z</time>
      </trkpt>
      <trkpt lat="43.523907" lon="4.978488">
        <ele>15.23236</ele>
        <time>2021-06-30T20:26:29Z</time>
      </trkpt>
      <trkpt lat="43.523754" lon="4.978563">
        <ele>14.57812</ele>
        <time>2021-06-30T20:26:30Z</time>
      </trkpt>
      <trkpt lat="43.523617" lon="4.978630">
        <ele>14.89874</ele>
        <time>2021-06-30T20:26:31Z</time>
      </trkpt>
      <trkpt lat="43.523495" lon="4.978689">
        <ele>13.99023</ele>
        <time>2021-06-30T20:26:32Z</time>
      </trkpt>
      <trkpt lat="43.523384" lon="4.978743">
        <ele>14.85803</ele>
        <time>2021-06-30T20:26:33Z</time>
      </trkpt>
      <trkpt lat="43.523251" lon="4.978812">
        <ele>16.33429</ele>
        <time>2021-06-30T20:26:34Z</time>
      </trkpt>
      <trkpt lat="43.523102" lon="4.978896">
        <ele>19.02094</ele>
        <time>2021-06-30T20:26:35Z</time>
      </trkpt>
      <trkpt lat="43.522961" lon="4.978978">
        <ele>21.72369</ele>
        <time>2021-06-30T20:26:36Z</time>
      </trkpt>
      <trkpt lat="43.522823" lon="4.979061">
        <ele>21.90692</ele>
        <time>2021-06-30T20:26:37Z</time>
      </trkpt>
      <trkpt lat="43.522701" lon="4.979135">
        <ele>21.93835</ele>
        <time>2021-06-30T20:26:38Z</time>
      </trkpt>
      <trkpt lat="43.522583" lon="4.979214">
        <ele>22.92828</ele>
        <time>2021-06-30T20:26:39Z</time>
      </trkpt>
      <trkpt lat="43.522453" lon="4.979299">
        <ele>22.95050</ele>
        <time>2021-06-30T20:26:40Z</time>
      </trkpt>
      <trkpt lat="43.522453" lon="4.979299">
        <ele>21.54523</ele>
        <time>2021-06-30T20:26:41Z</time>
      </trkpt>
      <trkpt lat="43.522305" lon="4.979399">
        <ele>23.86566</ele>
        <time>2021-06-30T20:26:42Z</time>
      </trkpt>
      <trkpt lat="43.522152" lon="4.979503">
        <ele>23.17615</ele>
        <time>2021-06-30T20:26:43Z</time>
      </trkpt>
      <trkpt lat="43.522053" lon="4.979568">
        <ele>22.24719</ele>
        <time>2021-06-30T20:26:44Z</time>
      </trkpt>
      <trkpt lat="43.521931" lon="4.979645">
        <ele>21.61481</ele>
        <time>2021-06-30T20:26:45Z</time>
      </trkpt>
      <trkpt lat="43.521851" lon="4.979701">
        <ele>19.37549</ele>
        <time>2021-06-30T20:26:46Z</time>
      </trkpt>
      <trkpt lat="43.521790" lon="4.979741">
        <ele>18.07141</ele>
        <time>2021-06-30T20:26:47Z</time>
      </trkpt>
      <trkpt lat="43.521740" lon="4.979774">
        <ele>19.13171</ele>
        <time>2021-06-30T20:26:48Z</time>
      </trkpt>
      <trkpt lat="43.521698" lon="4.979806">
        <ele>18.67010</ele>
        <time>2021-06-30T20:26:49Z</time>
      </trkpt>
      <trkpt lat="43.521667" lon="4.979831">
        <ele>17.43091</ele>
        <time>2021-06-30T20:26:50Z</time>
      </trkpt>
      <trkpt lat="43.521603" lon="4.979888">
        <ele>17.87256</ele>
        <time>2021-06-30T20:26:51Z</time>
      </trkpt>
      <trkpt lat="43.521553" lon="4.979934">
        <ele>17.12653</ele>
        <time>2021-06-30T20:26:52Z</time>
      </trkpt>
      <trkpt lat="43.521553" lon="4.979934">
        <ele>16.09845</ele>
        <time>2021-06-30T20:26:53Z</time>
      </trkpt>
      <trkpt lat="43.521496" lon="4.979960">
        <ele>15.99506</ele>
        <time>2021-06-30T20:26:54Z</time>
      </trkpt>
      <trkpt lat="43.521446" lon="4.979942">
        <ele>17.18195</ele>
        <time>2021-06-30T20:26:55Z</time>
      </trkpt>
      <trkpt lat="43.521381" lon="4.980023">
        <ele>17.56543</ele>
        <time>2021-06-30T20:26:56Z</time>
      </trkpt>
      <trkpt lat="43.521389" lon="4.980078">
        <ele>17.48370</ele>
        <time>2021-06-30T20:26:57Z</time>
      </trkpt>
      <trkpt lat="43.521435" lon="4.980120">
        <ele>17.14984</ele>
        <time>2021-06-30T20:26:58Z</time>
      </trkpt>
      <trkpt lat="43.521477" lon="4.980117">
        <ele>16.82605</ele>
        <time>2021-06-30T20:26:59Z</time>
      </trkpt>
      <trkpt lat="43.521526" lon="4.980132">
        <ele>18.59967</ele>
        <time>2021-06-30T20:27:00Z</time>
      </trkpt>
      <trkpt lat="43.521687" lon="4.980270">
        <ele>17.74438</ele>
        <time>2021-06-30T20:27:01Z</time>
      </trkpt>
      <trkpt lat="43.521824" lon="4.980376">
        <ele>19.92188</ele>
        <time>2021-06-30T20:27:02Z</time>
      </trkpt>
      <trkpt lat="43.521942" lon="4.980463">
        <ele>19.08575</ele>
        <time>2021-06-30T20:27:03Z</time>
      </trkpt>
      <trkpt lat="43.522072" lon="4.980499">
        <ele>18.94556</ele>
        <time>2021-06-30T20:27:04Z</time>
      </trkpt>
      <trkpt lat="43.522072" lon="4.980499">
        <ele>18.86237</ele>
        <time>2021-06-30T20:27:05Z</time>
      </trkpt>
      <trkpt lat="43.522182" lon="4.980497">
        <ele>18.86511</ele>
        <time>2021-06-30T20:27:06Z</time>
      </trkpt>
      <trkpt lat="43.522358" lon="4.980463">
        <ele>19.33862</ele>
        <time>2021-06-30T20:27:07Z</time>
      </trkpt>
      <trkpt lat="43.522514" lon="4.980427">
        <ele>17.74530</ele>
        <time>2021-06-30T20:27:08Z</time>
      </trkpt>
      <trkpt lat="43.522629" lon="4.980397">
        <ele>17.93097</ele>
        <time>2021-06-30T20:27:09Z</time>
      </trkpt>
      <trkpt lat="43.522732" lon="4.980361">
        <ele>17.80865</ele>
        <time>2021-06-30T20:27:10Z</time>
      </trkpt>
      <trkpt lat="43.522831" lon="4.980326">
        <ele>16.99445</ele>
        <time>2021-06-30T20:27:11Z</time>
      </trkpt>
      <trkpt lat="43.522949" lon="4.980284">
        <ele>16.75378</ele>
        <time>2021-06-30T20:27:12Z</time>
      </trkpt>
      <trkpt lat="43.523087" lon="4.980234">
        <ele>16.57037</ele>
        <time>2021-06-30T20:27:13Z</time>
      </trkpt>
      <trkpt lat="43.523216" lon="4.980187">
        <ele>15.63287</ele>
        <time>2021-06-30T20:27:14Z</time>
      </trkpt>
      <trkpt lat="43.523365" lon="4.980132">
        <ele>15.52643</ele>
        <time>2021-06-30T20:27:15Z</time>
      </trkpt>
      <trkpt lat="43.523365" lon="4.980132">
        <ele>14.46021</ele>
        <time>2021-06-30T20:27:16Z</time>
      </trkpt>
      <trkpt lat="43.523537" lon="4.980070">
        <ele>13.66193</ele>
        <time>2021-06-30T20:27:17Z</time>
      </trkpt>
      <trkpt lat="43.523685" lon="4.980016">
        <ele>12.80194</ele>
        <time>2021-06-30T20:27:18Z</time>
      </trkpt>
      <trkpt lat="43.523838" lon="4.979961">
        <ele>12.48102</ele>
        <time>2021-06-30T20:27:19Z</time>
      </trkpt>
      <trkpt lat="43.523979" lon="4.979909">
        <ele>12.18671</ele>
        <time>2021-06-30T20:27:20Z</time>
      </trkpt>
      <trkpt lat="43.524117" lon="4.979860">
        <ele>10.02405</ele>
        <time>2021-06-30T20:27:21Z</time>
      </trkpt>
      <trkpt lat="43.524273" lon="4.979803">
        <ele>9.54993</ele>
        <time>2021-06-30T20:27:22Z</time>
      </trkpt>
      <trkpt lat="43.524441" lon="4.979742">
        <ele>8.43060</ele>
        <time>2021-06-30T20:27:23Z</time>
      </trkpt>
      <trkpt lat="43.524582" lon="4.979689">
        <ele>8.44293</ele>
        <time>2021-06-30T20:27:24Z</time>
      </trkpt>
      <trkpt lat="43.524761" lon="4.979622">
        <ele>7.66626</ele>
        <time>2021-06-30T20:27:25Z</time>
      </trkpt>
      <trkpt lat="43.524937" lon="4.979556">
        <ele>6.52661</ele>
        <time>2021-06-30T20:27:26Z</time>
      </trkpt>
      <trkpt lat="43.525097" lon="4.979499">
        <ele>6.40753</ele>
        <time>2021-06-30T20:27:27Z</time>
      </trkpt>
      <trkpt lat="43.525242" lon="4.979446">
        <ele>5.71881</ele>
        <time>2021-06-30T20:27:28Z</time>
      </trkpt>
      <trkpt lat="43.525414" lon="4.979383">
        <ele>3.34589</ele>
        <time>2021-06-30T20:27:29Z</time>
      </trkpt>
      <trkpt lat="43.525600" lon="4.979311">
        <ele>3.63464</ele>
        <time>2021-06-30T20:27:30Z</time>
      </trkpt>
      <trkpt lat="43.525600" lon="4.979311">
        <ele>4.51318</ele>
        <time>2021-06-30T20:27:31Z</time>
      </trkpt>
      <trkpt lat="43.525761" lon="4.979250">
        <ele>5.29651</ele>
        <time>2021-06-30T20:27:32Z</time>
      </trkpt>
      <trkpt lat="43.525921" lon="4.979190">
        <ele>5.20026</ele>
        <time>2021-06-30T20:27:33Z</time>
      </trkpt>
      <trkpt lat="43.526073" lon="4.979132">
        <ele>5.03741</ele>
        <time>2021-06-30T20:27:34Z</time>
      </trkpt>
      <trkpt lat="43.526215" lon="4.979079">
        <ele>4.60223</ele>
        <time>2021-06-30T20:27:35Z</time>
      </trkpt>
      <trkpt lat="43.526363" lon="4.979022">
        <ele>4.19537</ele>
        <time>2021-06-30T20:27:36Z</time>
      </trkpt>
      <trkpt lat="43.526485" lon="4.978972">
        <ele>5.90503</ele>
        <time>2021-06-30T20:27:37Z</time>
      </trkpt>
      <trkpt lat="43.526634" lon="4.978907">
        <ele>4.64246</ele>
        <time>2021-06-30T20:27:38Z</time>
      </trkpt>
      <trkpt lat="43.526760" lon="4.978846">
        <ele>3.60883</ele>
        <time>2021-06-30T20:27:39Z</time>
      </trkpt>
      <trkpt lat="43.526894" lon="4.978778">
        <ele>2.99634</ele>
        <time>2021-06-30T20:27:40Z</time>
      </trkpt>
      <trkpt lat="43.527050" lon="4.978700">
        <ele>2.95105</ele>
        <time>2021-06-30T20:27:41Z</time>
      </trkpt>
      <trkpt lat="43.527199" lon="4.978648">
        <ele>2.93201</ele>
        <time>2021-06-30T20:27:42Z</time>
      </trkpt>
      <trkpt lat="43.527325" lon="4.978625">
        <ele>2.73419</ele>
        <time>2021-06-30T20:27:43Z</time>
      </trkpt>
      <trkpt lat="43.527454" lon="4.978606">
        <ele>2.73120</ele>
        <time>2021-06-30T20:27:44Z</time>
      </trkpt>
      <trkpt lat="43.527607" lon="4.978606">
        <ele>2.45801</ele>
        <time>2021-06-30T20:27:45Z</time>
      </trkpt>
      <trkpt lat="43.527607" lon="4.978606">
        <ele>2.55786</ele>
        <time>2021-06-30T20:27:46Z</time>
      </trkpt>
      <trkpt lat="43.527767" lon="4.978620">
        <ele>1.95776</ele>
        <time>2021-06-30T20:27:47Z</time>
      </trkpt>
      <trkpt lat="43.527924" lon="4.978633">
        <ele>3.06378</ele>
        <time>2021-06-30T20:27:48Z</time>
      </trkpt>
      <trkpt lat="43.528069" lon="4.978655">
        <ele>3.28101</ele>
        <time>2021-06-30T20:27:49Z</time>
      </trkpt>
      <trkpt lat="43.528187" lon="4.978679">
        <ele>3.41833</ele>
        <time>2021-06-30T20:27:50Z</time>
      </trkpt>
      <trkpt lat="43.528336" lon="4.978750">
        <ele>3.78699</ele>
        <time>2021-06-30T20:27:51Z</time>
      </trkpt>
      <trkpt lat="43.528461" lon="4.978838">
        <ele>4.38879</ele>
        <time>2021-06-30T20:27:52Z</time>
      </trkpt>
      <trkpt lat="43.528625" lon="4.978953">
        <ele>4.75684</ele>
        <time>2021-06-30T20:27:53Z</time>
      </trkpt>
      <trkpt lat="43.528755" lon="4.979046">
        <ele>4.60944</ele>
        <time>2021-06-30T20:27:54Z</time>
      </trkpt>
      <trkpt lat="43.528915" lon="4.979162">
        <ele>4.83820</ele>
        <time>2021-06-30T20:27:55Z</time>
      </trkpt>
      <trkpt lat="43.529053" lon="4.979263">
        <ele>4.93536</ele>
        <time>2021-06-30T20:27:56Z</time>
      </trkpt>
      <trkpt lat="43.529179" lon="4.979357">
        <ele>5.09247</ele>
        <time>2021-06-30T20:27:57Z</time>
      </trkpt>
      <trkpt lat="43.529301" lon="4.979450">
        <ele>4.96271</ele>
        <time>2021-06-30T20:27:58Z</time>
      </trkpt>
      <trkpt lat="43.529453" lon="4.979563">
        <ele>5.10614</ele>
        <time>2021-06-30T20:27:59Z</time>
      </trkpt>
      <trkpt lat="43.529591" lon="4.979666">
        <ele>5.20435</ele>
        <time>2021-06-30T20:28:00Z</time>
      </trkpt>
      <trkpt lat="43.529591" lon="4.979666">
        <ele>5.78888</ele>
        <time>2021-06-30T20:28:01Z</time>
      </trkpt>
      <trkpt lat="43.529716" lon="4.979762">
        <ele>5.33441</ele>
        <time>2021-06-30T20:28:02Z</time>
      </trkpt>
      <trkpt lat="43.529873" lon="4.979879">
        <ele>5.04645</ele>
        <time>2021-06-30T20:28:03Z</time>
      </trkpt>
      <trkpt lat="43.530003" lon="4.979977">
        <ele>5.62372</ele>
        <time>2021-06-30T20:28:04Z</time>
      </trkpt>
      <trkpt lat="43.530144" lon="4.980084">
        <ele>6.06891</ele>
        <time>2021-06-30T20:28:05Z</time>
      </trkpt>
      <trkpt lat="43.530258" lon="4.980189">
        <ele>3.50507</ele>
        <time>2021-06-30T20:28:06Z</time>
      </trkpt>
      <trkpt lat="43.530342" lon="4.980316">
        <ele>3.32623</ele>
        <time>2021-06-30T20:28:07Z</time>
      </trkpt>
      <trkpt lat="43.530445" lon="4.980465">
        <ele>2.67249</ele>
        <time>2021-06-30T20:28:08Z</time>
      </trkpt>
      <trkpt lat="43.530594" lon="4.980672">
        <ele>2.38733</ele>
        <time>2021-06-30T20:28:09Z</time>
      </trkpt>
      <trkpt lat="43.530746" lon="4.980879">
        <ele>2.49347</ele>
        <time>2021-06-30T20:28:10Z</time>
      </trkpt>
      <trkpt lat="43.530746" lon="4.980879">
        <ele>2.84827</ele>
        <time>2021-06-30T20:28:11Z</time>
      </trkpt>
      <trkpt lat="43.530876" lon="4.981047">
        <ele>1.25238</ele>
        <time>2021-06-30T20:28:12Z</time>
      </trkpt>
      <trkpt lat="43.531006" lon="4.981166">
        <ele>1.73291</ele>
        <time>2021-06-30T20:28:13Z</time>
      </trkpt>
      <trkpt lat="43.531128" lon="4.981267">
        <ele>1.83417</ele>
        <time>2021-06-30T20:28:14Z</time>
      </trkpt>
      <trkpt lat="43.531250" lon="4.981353">
        <ele>2.12878</ele>
        <time>2021-06-30T20:28:15Z</time>
      </trkpt>
      <trkpt lat="43.531429" lon="4.981456">
        <ele>1.44910</ele>
        <time>2021-06-30T20:28:16Z</time>
      </trkpt>
      <trkpt lat="43.531567" lon="4.981526">
        <ele>1.50897</ele>
        <time>2021-06-30T20:28:17Z</time>
      </trkpt>
      <trkpt lat="43.531712" lon="4.981599">
        <ele>2.00336</ele>
        <time>2021-06-30T20:28:18Z</time>
      </trkpt>
      <trkpt lat="43.531826" lon="4.981679">
        <ele>1.57104</ele>
        <time>2021-06-30T20:28:19Z</time>
      </trkpt>
      <trkpt lat="43.531910" lon="4.981778">
        <ele>1.58893</ele>
        <time>2021-06-30T20:28:20Z</time>
      </trkpt>
      <trkpt lat="43.531990" lon="4.981900">
        <ele>2.01166</ele>
        <time>2021-06-30T20:28:21Z</time>
      </trkpt>
      <trkpt lat="43.532047" lon="4.982053">
        <ele>3.15997</ele>
        <time>2021-06-30T20:28:22Z</time>
      </trkpt>
      <trkpt lat="43.532047" lon="4.982053">
        <ele>2.39343</ele>
        <time>2021-06-30T20:28:23Z</time>
      </trkpt>
      <trkpt lat="43.532112" lon="4.982201">
        <ele>2.58435</ele>
        <time>2021-06-30T20:28:24Z</time>
      </trkpt>
      <trkpt lat="43.532185" lon="4.982352">
        <ele>2.50897</ele>
        <time>2021-06-30T20:28:25Z</time>
      </trkpt>
      <trkpt lat="43.532253" lon="4.982480">
        <ele>2.00153</ele>
        <time>2021-06-30T20:28:26Z</time>
      </trkpt>
      <trkpt lat="43.532372" lon="4.982645">
        <ele>1.98413</ele>
        <time>2021-06-30T20:28:27Z</time>
      </trkpt>
      <trkpt lat="43.532501" lon="4.982782">
        <ele>2.27966</ele>
        <time>2021-06-30T20:28:28Z</time>
      </trkpt>
      <trkpt lat="43.532646" lon="4.982933">
        <ele>1.23627</ele>
        <time>2021-06-30T20:28:29Z</time>
      </trkpt>
      <trkpt lat="43.532768" lon="4.983052">
        <ele>0.68011</ele>
        <time>2021-06-30T20:28:30Z</time>
      </trkpt>
      <trkpt lat="43.532913" lon="4.983160">
        <ele>0.99194</ele>
        <time>2021-06-30T20:28:31Z</time>
      </trkpt>
      <trkpt lat="43.533096" lon="4.983284">
        <ele>0.24634</ele>
        <time>2021-06-30T20:28:32Z</time>
      </trkpt>
      <trkpt lat="43.533226" lon="4.983371">
        <ele>-0.14966</ele>
        <time>2021-06-30T20:28:33Z</time>
      </trkpt>
      <trkpt lat="43.533352" lon="4.983451">
        <ele>1.03882</ele>
        <time>2021-06-30T20:28:34Z</time>
      </trkpt>
      <trkpt lat="43.533508" lon="4.983545">
        <ele>1.08887</ele>
        <time>2021-06-30T20:28:35Z</time>
      </trkpt>
      <trkpt lat="43.533657" lon="4.983631">
        <ele>0.76819</ele>
        <time>2021-06-30T20:28:36Z</time>
      </trkpt>
      <trkpt lat="43.533794" lon="4.983712">
        <ele>0.75848</ele>
        <time>2021-06-30T20:28:37Z</time>
      </trkpt>
      <trkpt lat="43.533955" lon="4.983807">
        <ele>0.43903</ele>
        <time>2021-06-30T20:28:38Z</time>
      </trkpt>
      <trkpt lat="43.533955" lon="4.983807">
        <ele>0.12146</ele>
        <time>2021-06-30T20:28:39Z</time>
      </trkpt>
      <trkpt lat="43.534111" lon="4.983924">
        <ele>0.37616</ele>
        <time>2021-06-30T20:28:40Z</time>
      </trkpt>
      <trkpt lat="43.534264" lon="4.984042">
        <ele>-1.20905</ele>
        <time>2021-06-30T20:28:41Z</time>
      </trkpt>
      <trkpt lat="43.534397" lon="4.984179">
        <ele>-1.34564</ele>
        <time>2021-06-30T20:28:42Z</time>
      </trkpt>
      <trkpt lat="43.534492" lon="4.984283">
        <ele>-1.52246</ele>
        <time>2021-06-30T20:28:43Z</time>
      </trkpt>
      <trkpt lat="43.534584" lon="4.984382">
        <ele>-1.41479</ele>
        <time>2021-06-30T20:28:44Z</time>
      </trkpt>
      <trkpt lat="43.534645" lon="4.984457">
        <ele>-1.54333</ele>
        <time>2021-06-30T20:28:45Z</time>
      </trkpt>
      <trkpt lat="43.534702" lon="4.984533">
        <ele>-2.60468</ele>
        <time>2021-06-30T20:28:46Z</time>
      </trkpt>
      <trkpt lat="43.534748" lon="4.984598">
        <ele>-2.48431</ele>
        <time>2021-06-30T20:28:47Z</time>
      </trkpt>
      <trkpt lat="43.534794" lon="4.984667">
        <ele>-3.35248</ele>
        <time>2021-06-30T20:28:48Z</time>
      </trkpt>
      <trkpt lat="43.534843" lon="4.984736">
        <ele>-3.69250</ele>
        <time>2021-06-30T20:28:49Z</time>
      </trkpt>
      <trkpt lat="43.534885" lon="4.984810">
        <ele>-3.23541</ele>
        <time>2021-06-30T20:28:50Z</time>
      </trkpt>
      <trkpt lat="43.534939" lon="4.984899">
        <ele>-3.21021</ele>
        <time>2021-06-30T20:28:51Z</time>
      </trkpt>
      <trkpt lat="43.535011" lon="4.985034">
        <ele>-3.42041</ele>
        <time>2021-06-30T20:28:52Z</time>
      </trkpt>
      <trkpt lat="43.535072" lon="4.985139">
        <ele>-3.42578</ele>
        <time>2021-06-30T20:28:53Z</time>
      </trkpt>
      <trkpt lat="43.535183" lon="4.985309">
        <ele>-3.32446</ele>
        <time>2021-06-30T20:28:54Z</time>
      </trkpt>
      <trkpt lat="43.535183" lon="4.985309">
        <ele>-3.70490</ele>
        <time>2021-06-30T20:28:55Z</time>
      </trkpt>
      <trkpt lat="43.535282" lon="4.985437">
        <ele>-3.50476</ele>
        <time>2021-06-30T20:28:56Z</time>
      </trkpt>
      <trkpt lat="43.535404" lon="4.985537">
        <ele>-3.78253</ele>
        <time>2021-06-30T20:28:57Z</time>
      </trkpt>
      <trkpt lat="43.535530" lon="4.985606">
        <ele>-2.91357</ele>
        <time>2021-06-30T20:28:58Z</time>
      </trkpt>
      <trkpt lat="43.535614" lon="4.985653">
        <ele>-1.92737</ele>
        <time>2021-06-30T20:28:59Z</time>
      </trkpt>
      <trkpt lat="43.535671" lon="4.985684">
        <ele>-2.17590</ele>
        <time>2021-06-30T20:29:00Z</time>
      </trkpt>
      <trkpt lat="43.535713" lon="4.985708">
        <ele>-1.88672</ele>
        <time>2021-06-30T20:29:01Z</time>
      </trkpt>
      <trkpt lat="43.535801" lon="4.985759">
        <ele>-1.47845</ele>
        <time>2021-06-30T20:29:02Z</time>
      </trkpt>
      <trkpt lat="43.535873" lon="4.985815">
        <ele>-1.60950</ele>
        <time>2021-06-30T20:29:03Z</time>
      </trkpt>
      <trkpt lat="43.535873" lon="4.985815">
        <ele>-1.69641</ele>
        <time>2021-06-30T20:29:04Z</time>
      </trkpt>
      <trkpt lat="43.535988" lon="4.985969">
        <ele>-1.82849</ele>
        <time>2021-06-30T20:29:05Z</time>
      </trkpt>
      <trkpt lat="43.536049" lon="4.986103">
        <ele>-2.22345</ele>
        <time>2021-06-30T20:29:06Z</time>
      </trkpt>
      <trkpt lat="43.536087" lon="4.986218">
        <ele>-1.82648</ele>
        <time>2021-06-30T20:29:07Z</time>
      </trkpt>
      <trkpt lat="43.536125" lon="4.986388">
        <ele>-1.27997</ele>
        <time>2021-06-30T20:29:08Z</time>
      </trkpt>
      <trkpt lat="43.536163" lon="4.986649">
        <ele>-0.42676</ele>
        <time>2021-06-30T20:29:09Z</time>
      </trkpt>
      <trkpt lat="43.536182" lon="4.986782">
        <ele>1.03455</ele>
        <time>2021-06-30T20:29:10Z</time>
      </trkpt>
      <trkpt lat="43.536198" lon="4.986906">
        <ele>-2.94522</ele>
        <time>2021-06-30T20:29:11Z</time>
      </trkpt>
      <trkpt lat="43.536201" lon="4.986973">
        <ele>-2.58409</ele>
        <time>2021-06-30T20:29:12Z</time>
      </trkpt>
      <trkpt lat="43.536213" lon="4.987103">
        <ele>-2.52232</ele>
        <time>2021-06-30T20:29:13Z</time>
      </trkpt>
      <trkpt lat="43.536232" lon="4.987323">
        <ele>-2.84745</ele>
        <time>2021-06-30T20:29:14Z</time>
      </trkpt>
      <trkpt lat="43.536224" lon="4.987478">
        <ele>-2.96530</ele>
        <time>2021-06-30T20:29:15Z</time>
      </trkpt>
      <trkpt lat="43.536205" lon="4.987586">
        <ele>-2.53028</ele>
        <time>2021-06-30T20:29:16Z</time>
      </trkpt>
      <trkpt lat="43.536205" lon="4.987586">
        <ele>-2.24699</ele>
        <time>2021-06-30T20:29:17Z</time>
      </trkpt>
      <trkpt lat="43.536179" lon="4.987748">
        <ele>-2.21953</ele>
        <time>2021-06-30T20:29:18Z</time>
      </trkpt>
      <trkpt lat="43.536129" lon="4.987911">
        <ele>-2.23235</ele>
        <time>2021-06-30T20:29:19Z</time>
      </trkpt>
      <trkpt lat="43.536037" lon="4.988082">
        <ele>-2.02176</ele>
        <time>2021-06-30T20:29:20Z</time>
      </trkpt>
      <trkpt lat="43.535908" lon="4.988265">
        <ele>-1.80750</ele>
        <time>2021-06-30T20:29:21Z</time>
      </trkpt>
      <trkpt lat="43.535812" lon="4.988402">
        <ele>-1.88153</ele>
        <time>2021-06-30T20:29:22Z</time>
      </trkpt>
      <trkpt lat="43.535690" lon="4.988539">
        <ele>-2.18068</ele>
        <time>2021-06-30T20:29:23Z</time>
      </trkpt>
      <trkpt lat="43.535587" lon="4.988623">
        <ele>-1.28739</ele>
        <time>2021-06-30T20:29:24Z</time>
      </trkpt>
      <trkpt lat="43.535492" lon="4.988679">
        <ele>-1.57218</ele>
        <time>2021-06-30T20:29:25Z</time>
      </trkpt>
      <trkpt lat="43.535347" lon="4.988763">
        <ele>-1.32406</ele>
        <time>2021-06-30T20:29:26Z</time>
      </trkpt>
      <trkpt lat="43.535213" lon="4.988882">
        <ele>-1.01391</ele>
        <time>2021-06-30T20:29:27Z</time>
      </trkpt>
      <trkpt lat="43.535213" lon="4.988882">
        <ele>-0.88554</ele>
        <time>2021-06-30T20:29:28Z</time>
      </trkpt>
      <trkpt lat="43.535091" lon="4.988998">
        <ele>-0.90038</ele>
        <time>2021-06-30T20:29:29Z</time>
      </trkpt>
      <trkpt lat="43.534943" lon="4.989191">
        <ele>-2.15041</ele>
        <time>2021-06-30T20:29:30Z</time>
      </trkpt>
      <trkpt lat="43.534817" lon="4.989355">
        <ele>-2.77454</ele>
        <time>2021-06-30T20:29:31Z</time>
      </trkpt>
      <trkpt lat="43.534706" lon="4.989496">
        <ele>-3.29536</ele>
        <time>2021-06-30T20:29:32Z</time>
      </trkpt>
      <trkpt lat="43.534657" lon="4.989558">
        <ele>-3.57964</ele>
        <time>2021-06-30T20:29:33Z</time>
      </trkpt>
      <trkpt lat="43.534607" lon="4.989623">
        <ele>-3.60728</ele>
        <time>2021-06-30T20:29:34Z</time>
      </trkpt>
      <trkpt lat="43.534588" lon="4.989648">
        <ele>-3.08364</ele>
        <time>2021-06-30T20:29:35Z</time>
      </trkpt>
      <trkpt lat="43.534523" lon="4.989726">
        <ele>-2.88632</ele>
        <time>2021-06-30T20:29:36Z</time>
      </trkpt>
      <trkpt lat="43.534447" lon="4.989822">
        <ele>-2.80452</ele>
        <time>2021-06-30T20:29:37Z</time>
      </trkpt>
      <trkpt lat="43.534355" lon="4.989940">
        <ele>-2.54528</ele>
        <time>2021-06-30T20:29:38Z</time>
      </trkpt>
      <trkpt lat="43.534355" lon="4.989940">
        <ele>-2.33629</ele>
        <time>2021-06-30T20:29:39Z</time>
      </trkpt>
      <trkpt lat="43.534260" lon="4.990060">
        <ele>-2.22382</ele>
        <time>2021-06-30T20:29:40Z</time>
      </trkpt>
      <trkpt lat="43.534168" lon="4.990182">
        <ele>-2.13316</ele>
        <time>2021-06-30T20:29:41Z</time>
      </trkpt>
      <trkpt lat="43.534088" lon="4.990292">
        <ele>-2.07721</ele>
        <time>2021-06-30T20:29:42Z</time>
      </trkpt>
      <trkpt lat="43.533997" lon="4.990414">
        <ele>-1.90251</ele>
        <time>2021-06-30T20:29:43Z</time>
      </trkpt>
      <trkpt lat="43.533916" lon="4.990528">
        <ele>-1.73600</ele>
        <time>2021-06-30T20:29:44Z</time>
      </trkpt>
      <trkpt lat="43.533852" lon="4.990658">
        <ele>-1.43079</ele>
        <time>2021-06-30T20:29:45Z</time>
      </trkpt>
      <trkpt lat="43.533794" lon="4.990801">
        <ele>0.23068</ele>
        <time>2021-06-30T20:29:46Z</time>
      </trkpt>
      <trkpt lat="43.533752" lon="4.990925">
        <ele>0.81571</ele>
        <time>2021-06-30T20:29:47Z</time>
      </trkpt>
      <trkpt lat="43.533714" lon="4.991092">
        <ele>1.72333</ele>
        <time>2021-06-30T20:29:48Z</time>
      </trkpt>
      <trkpt lat="43.533672" lon="4.991300">
        <ele>2.77555</ele>
        <time>2021-06-30T20:29:49Z</time>
      </trkpt>
      <trkpt lat="43.533623" lon="4.991442">
        <ele>2.91213</ele>
        <time>2021-06-30T20:29:50Z</time>
      </trkpt>
      <trkpt lat="43.533554" lon="4.991593">
        <ele>3.61032</ele>
        <time>2021-06-30T20:29:51Z</time>
      </trkpt>
      <trkpt lat="43.533485" lon="4.991669">
        <ele>5.26229</ele>
        <time>2021-06-30T20:29:52Z</time>
      </trkpt>
      <trkpt lat="43.533417" lon="4.991724">
        <ele>5.72881</ele>
        <time>2021-06-30T20:29:53Z</time>
      </trkpt>
      <trkpt lat="43.533295" lon="4.991843">
        <ele>6.67471</ele>
        <time>2021-06-30T20:29:54Z</time>
      </trkpt>
      <trkpt lat="43.533157" lon="4.992004">
        <ele>7.64092</ele>
        <time>2021-06-30T20:29:55Z</time>
      </trkpt>
      <trkpt lat="43.533058" lon="4.992136">
        <ele>8.63592</ele>
        <time>2021-06-30T20:29:56Z</time>
      </trkpt>
      <trkpt lat="43.532936" lon="4.992303">
        <ele>9.18047</ele>
        <time>2021-06-30T20:29:57Z</time>
      </trkpt>
      <trkpt lat="43.532829" lon="4.992446">
        <ele>9.18834</ele>
        <time>2021-06-30T20:29:58Z</time>
      </trkpt>
      <trkpt lat="43.532829" lon="4.992446">
        <ele>9.26599</ele>
        <time>2021-06-30T20:29:59Z</time>
      </trkpt>
      <trkpt lat="43.532711" lon="4.992570">
        <ele>11.52185</ele>
        <time>2021-06-30T20:30:00Z</time>
      </trkpt>
      <trkpt lat="43.532627" lon="4.992645">
        <ele>11.91241</ele>
        <time>2021-06-30T20:30:01Z</time>
      </trkpt>
      <trkpt lat="43.532539" lon="4.992723">
        <ele>12.84381</ele>
        <time>2021-06-30T20:30:02Z</time>
      </trkpt>
      <trkpt lat="43.532387" lon="4.992865">
        <ele>13.07611</ele>
        <time>2021-06-30T20:30:03Z</time>
      </trkpt>
      <trkpt lat="43.532265" lon="4.992974">
        <ele>12.74359</ele>
        <time>2021-06-30T20:30:04Z</time>
      </trkpt>
      <trkpt lat="43.532124" lon="4.993106">
        <ele>13.26990</ele>
        <time>2021-06-30T20:30:05Z</time>
      </trkpt>
      <trkpt lat="43.531960" lon="4.993251">
        <ele>14.07977</ele>
        <time>2021-06-30T20:30:06Z</time>
      </trkpt>
      <trkpt lat="43.531784" lon="4.993400">
        <ele>14.62164</ele>
        <time>2021-06-30T20:30:07Z</time>
      </trkpt>
      <trkpt lat="43.531658" lon="4.993541">
        <ele>15.13983</ele>
        <time>2021-06-30T20:30:08Z</time>
      </trkpt>
      <trkpt lat="43.531658" lon="4.993541">
        <ele>15.75000</ele>
        <time>2021-06-30T20:30:09Z</time>
      </trkpt>
      <trkpt lat="43.531578" lon="4.993657">
        <ele>15.85992</ele>
        <time>2021-06-30T20:30:10Z</time>
      </trkpt>
      <trkpt lat="43.531517" lon="4.993818">
        <ele>15.49878</ele>
        <time>2021-06-30T20:30:11Z</time>
      </trkpt>
      <trkpt lat="43.531456" lon="4.994015">
        <ele>14.25415</ele>
        <time>2021-06-30T20:30:12Z</time>
      </trkpt>
      <trkpt lat="43.531433" lon="4.994163">
        <ele>12.24884</ele>
        <time>2021-06-30T20:30:13Z</time>
      </trkpt>
      <trkpt lat="43.531418" lon="4.994401">
        <ele>12.52423</ele>
        <time>2021-06-30T20:30:14Z</time>
      </trkpt>
      <trkpt lat="43.531403" lon="4.994700">
        <ele>12.77783</ele>
        <time>2021-06-30T20:30:15Z</time>
      </trkpt>
      <trkpt lat="43.531395" lon="4.995026">
        <ele>14.03723</ele>
        <time>2021-06-30T20:30:16Z</time>
      </trkpt>
      <trkpt lat="43.531387" lon="4.995282">
        <ele>13.37561</ele>
        <time>2021-06-30T20:30:17Z</time>
      </trkpt>
      <trkpt lat="43.531384" lon="4.995522">
        <ele>13.59302</ele>
        <time>2021-06-30T20:30:18Z</time>
      </trkpt>
      <trkpt lat="43.531380" lon="4.995748">
        <ele>14.59814</ele>
        <time>2021-06-30T20:30:19Z</time>
      </trkpt>
      <trkpt lat="43.531391" lon="4.996021">
        <ele>14.90167</ele>
        <time>2021-06-30T20:30:20Z</time>
      </trkpt>
      <trkpt lat="43.531425" lon="4.996265">
        <ele>15.63641</ele>
        <time>2021-06-30T20:30:21Z</time>
      </trkpt>
      <trkpt lat="43.531464" lon="4.996516">
        <ele>17.20685</ele>
        <time>2021-06-30T20:30:22Z</time>
      </trkpt>
      <trkpt lat="43.531464" lon="4.996516">
        <ele>18.31165</ele>
        <time>2021-06-30T20:30:23Z</time>
      </trkpt>
      <trkpt lat="43.531502" lon="4.996776">
        <ele>17.56177</ele>
        <time>2021-06-30T20:30:24Z</time>
      </trkpt>
      <trkpt lat="43.531540" lon="4.996992">
        <ele>17.79858</ele>
        <time>2021-06-30T20:30:25Z</time>
      </trkpt>
      <trkpt lat="43.531563" lon="4.997133">
        <ele>17.02490</ele>
        <time>2021-06-30T20:30:26Z</time>
      </trkpt>
      <trkpt lat="43.531582" lon="4.997282">
        <ele>22.48707</ele>
        <time>2021-06-30T20:30:27Z</time>
      </trkpt>
      <trkpt lat="43.531597" lon="4.997413">
        <ele>21.13605</ele>
        <time>2021-06-30T20:30:28Z</time>
      </trkpt>
      <trkpt lat="43.531612" lon="4.997546">
        <ele>20.37207</ele>
        <time>2021-06-30T20:30:29Z</time>
      </trkpt>
      <trkpt lat="43.531628" lon="4.997639">
        <ele>19.07336</ele>
        <time>2021-06-30T20:30:30Z</time>
      </trkpt>
      <trkpt lat="43.531631" lon="4.997679">
        <ele>18.32654</ele>
        <time>2021-06-30T20:30:31Z</time>
      </trkpt>
      <trkpt lat="43.531647" lon="4.997810">
        <ele>17.84827</ele>
        <time>2021-06-30T20:30:32Z</time>
      </trkpt>
      <trkpt lat="43.531662" lon="4.997924">
        <ele>18.13306</ele>
        <time>2021-06-30T20:30:33Z</time>
      </trkpt>
      <trkpt lat="43.531673" lon="4.998023">
        <ele>17.19086</ele>
        <time>2021-06-30T20:30:34Z</time>
      </trkpt>
      <trkpt lat="43.531673" lon="4.998023">
        <ele>16.04419</ele>
        <time>2021-06-30T20:30:35Z</time>
      </trkpt>
      <trkpt lat="43.531681" lon="4.998074">
        <ele>16.64935</ele>
        <time>2021-06-30T20:30:36Z</time>
      </trkpt>
      <trkpt lat="43.531704" lon="4.998267">
        <ele>16.59436</ele>
        <time>2021-06-30T20:30:37Z</time>
      </trkpt>
      <trkpt lat="43.531727" lon="4.998427">
        <ele>16.11365</ele>
        <time>2021-06-30T20:30:38Z</time>
      </trkpt>
      <trkpt lat="43.531738" lon="4.998531">
        <ele>14.97253</ele>
        <time>2021-06-30T20:30:39Z</time>
      </trkpt>
      <trkpt lat="43.531754" lon="4.998641">
        <ele>13.02576</ele>
        <time>2021-06-30T20:30:40Z</time>
      </trkpt>
      <trkpt lat="43.531769" lon="4.998752">
        <ele>12.31195</ele>
        <time>2021-06-30T20:30:41Z</time>
      </trkpt>
      <trkpt lat="43.531780" lon="4.998860">
        <ele>11.95410</ele>
        <time>2021-06-30T20:30:42Z</time>
      </trkpt>
      <trkpt lat="43.531788" lon="4.998952">
        <ele>12.14948</ele>
        <time>2021-06-30T20:30:43Z</time>
      </trkpt>
      <trkpt lat="43.531799" lon="4.999055">
        <ele>13.50934</ele>
        <time>2021-06-30T20:30:44Z</time>
      </trkpt>
      <trkpt lat="43.531811" lon="4.999165">
        <ele>13.24518</ele>
        <time>2021-06-30T20:30:45Z</time>
      </trkpt>
      <trkpt lat="43.531818" lon="4.999237">
        <ele>11.26477</ele>
        <time>2021-06-30T20:30:46Z</time>
      </trkpt>
      <trkpt lat="43.531818" lon="4.999267">
        <ele>11.18195</ele>
        <time>2021-06-30T20:30:47Z</time>
      </trkpt>
      <trkpt lat="43.531818" lon="4.999267">
        <ele>11.23779</ele>
        <time>2021-06-30T20:30:48Z</time>
      </trkpt>
      <trkpt lat="43.531910" lon="4.999307">
        <ele>12.43457</ele>
        <time>2021-06-30T20:30:49Z</time>
      </trkpt>
      <trkpt lat="43.531933" lon="4.999388">
        <ele>13.20416</ele>
        <time>2021-06-30T20:30:50Z</time>
      </trkpt>
      <trkpt lat="43.531940" lon="4.999421">
        <ele>12.92371</ele>
        <time>2021-06-30T20:30:51Z</time>
      </trkpt>
      <trkpt lat="43.531948" lon="4.999450">
        <ele>13.43445</ele>
        <time>2021-06-30T20:30:52Z</time>
      </trkpt>
      <trkpt lat="43.531952" lon="4.999464">
        <ele>14.84619</ele>
        <time>2021-06-30T20:30:53Z</time>
      </trkpt>
      <trkpt lat="43.531952" lon="4.999465">
        <ele>16.10260</ele>
        <time>2021-06-30T20:30:54Z</time>
      </trkpt>
      <trkpt lat="43.531952" lon="4.999465">
        <ele>16.17426</ele>
        <time>2021-06-30T20:30:55Z</time>
      </trkpt>
      <trkpt lat="43.531952" lon="4.999465">
        <ele>16.69604</ele>
        <time>2021-06-30T20:30:56Z</time>
      </trkpt>
      <trkpt lat="43.531952" lon="4.999465">
        <ele>17.80078</ele>
        <time>2021-06-30T20:30:57Z</time>
      </trkpt>
      <trkpt lat="43.531952" lon="4.999465">
        <ele>20.59375</ele>
        <time>2021-06-30T20:30:58Z</time>
      </trkpt>
      <trkpt lat="43.531952" lon="4.999465">
        <ele>19.52753</ele>
        <time>2021-06-30T20:30:59Z</time>
      </trkpt>
      <trkpt lat="43.531952" lon="4.999465">
        <ele>20.02502</ele>
        <time>2021-06-30T20:31:00Z</time>
      </trkpt>
      <trkpt lat="43.531952" lon="4.999465">
        <ele>20.83606</ele>
        <time>2021-06-30T20:31:01Z</time>
      </trkpt>
      <trkpt lat="43.531952" lon="4.999465">
        <ele>21.04468</ele>
        <time>2021-06-30T20:31:02Z</time>
      </trkpt>
      <trkpt lat="43.531952" lon="4.999465">
        <ele>21.99615</ele>
        <time>2021-06-30T20:31:03Z</time>
      </trkpt>
      <trkpt lat="43.531952" lon="4.999465">
        <ele>23.58698</ele>
        <time>2021-06-30T20:31:04Z</time>
      </trkpt>
      <trkpt lat="43.531952" lon="4.999465">
        <ele>24.79059</ele>
        <time>2021-06-30T20:31:05Z</time>
      </trkpt>
      <trkpt lat="43.531952" lon="4.999465">
        <ele>24.77228</ele>
        <time>2021-06-30T20:31:06Z</time>
      </trkpt>
      <trkpt lat="43.531952" lon="4.999465">
        <ele>26.38330</ele>
        <time>2021-06-30T20:31:07Z</time>
      </trkpt>
      <trkpt lat="43.531952" lon="4.999465">
        <ele>27.58612</ele>
        <time>2021-06-30T20:31:08Z</time>
      </trkpt>
      <trkpt lat="43.531952" lon="4.999465">
        <ele>28.17834</ele>
        <time>2021-06-30T20:31:09Z</time>
      </trkpt>
      <trkpt lat="43.531952" lon="4.999465">
        <ele>27.28796</ele>
        <time>2021-06-30T20:31:10Z</time>
      </trkpt>
      <trkpt lat="43.531952" lon="4.999465">
        <ele>24.83295</ele>
        <time>2021-06-30T20:31:11Z</time>
      </trkpt>
      <trkpt lat="43.531952" lon="4.999465">
        <ele>21.84900</ele>
        <time>2021-06-30T20:31:12Z</time>
      </trkpt>
      <trkpt lat="43.531952" lon="4.999465">
        <ele>20.05014</ele>
        <time>2021-06-30T20:31:13Z</time>
      </trkpt>
      <trkpt lat="43.531952" lon="4.999465">
        <ele>19.98811</ele>
        <time>2021-06-30T20:31:14Z</time>
      </trkpt>
      <trkpt lat="43.531952" lon="4.999465">
        <ele>20.90869</ele>
        <time>2021-06-30T20:31:15Z</time>
      </trkpt>
      <trkpt lat="43.531952" lon="4.999465">
        <ele>21.70593</ele>
        <time>2021-06-30T20:31:16Z</time>
      </trkpt>
      <trkpt lat="43.531952" lon="4.999465">
        <ele>22.20331</ele>
        <time>2021-06-30T20:31:17Z</time>
      </trkpt>
      <trkpt lat="43.531952" lon="4.999465">
        <ele>22.70856</ele>
        <time>2021-06-30T20:31:18Z</time>
      </trkpt>
      <trkpt lat="43.531952" lon="4.999465">
        <ele>23.04974</ele>
        <time>2021-06-30T20:31:19Z</time>
      </trkpt>
      <trkpt lat="43.531952" lon="4.999465">
        <ele>24.12805</ele>
        <time>2021-06-30T20:31:20Z</time>
      </trkpt>
      <trkpt lat="43.531952" lon="4.999465">
        <ele>18.84363</ele>
        <time>2021-06-30T20:31:21Z</time>
      </trkpt>
      <trkpt lat="43.531952" lon="4.999465">
        <ele>19.51263</ele>
        <time>2021-06-30T20:31:22Z</time>
      </trkpt>
      <trkpt lat="43.531952" lon="4.999465">
        <ele>21.39496</ele>
        <time>2021-06-30T20:31:23Z</time>
      </trkpt>
      <trkpt lat="43.531952" lon="4.999465">
        <ele>19.82361</ele>
        <time>2021-06-30T20:31:24Z</time>
      </trkpt>
      <trkpt lat="43.531952" lon="4.999465">
        <ele>18.88556</ele>
        <time>2021-06-30T20:31:25Z</time>
      </trkpt>
      <trkpt lat="43.531952" lon="4.999465">
        <ele>20.50909</ele>
        <time>2021-06-30T20:31:26Z</time>
      </trkpt>
      <trkpt lat="43.531952" lon="4.999465">
        <ele>20.31891</ele>
        <time>2021-06-30T20:31:27Z</time>
      </trkpt>
      <trkpt lat="43.531952" lon="4.999465">
        <ele>20.78906</ele>
        <time>2021-06-30T20:31:28Z</time>
      </trkpt>
      <trkpt lat="43.531952" lon="4.999465">
        <ele>19.89976</ele>
        <time>2021-06-30T20:31:29Z</time>
      </trkpt>
      <trkpt lat="43.531952" lon="4.999465">
        <ele>20.44019</ele>
        <time>2021-06-30T20:31:30Z</time>
      </trkpt>
      <trkpt lat="43.531952" lon="4.999465">
        <ele>21.26196</ele>
        <time>2021-06-30T20:31:31Z</time>
      </trkpt>
      <trkpt lat="43.531952" lon="4.999465">
        <ele>22.46820</ele>
        <time>2021-06-30T20:31:32Z</time>
      </trkpt>
      <trkpt lat="43.531952" lon="4.999465">
        <ele>23.18640</ele>
        <time>2021-06-30T20:31:33Z</time>
      </trkpt>
      <trkpt lat="43.531952" lon="4.999465">
        <ele>22.97272</ele>
        <time>2021-06-30T20:31:34Z</time>
      </trkpt>
      <trkpt lat="43.531952" lon="4.999465">
        <ele>22.98499</ele>
        <time>2021-06-30T20:31:35Z</time>
      </trkpt>
      <trkpt lat="43.531952" lon="4.999465">
        <ele>23.15967</ele>
        <time>2021-06-30T20:31:36Z</time>
      </trkpt>
      <trkpt lat="43.531952" lon="4.999465">
        <ele>22.64429</ele>
        <time>2021-06-30T20:31:37Z</time>
      </trkpt>
      <trkpt lat="43.531963" lon="4.999502">
        <ele>23.39185</ele>
        <time>2021-06-30T20:31:38Z</time>
      </trkpt>
      <trkpt lat="43.531967" lon="4.999514">
        <ele>23.17957</ele>
        <time>2021-06-30T20:31:39Z</time>
      </trkpt>
      <trkpt lat="43.531967" lon="4.999514">
        <ele>22.87500</ele>
        <time>2021-06-30T20:31:40Z</time>
      </trkpt>
      <trkpt lat="43.531967" lon="4.999514">
        <ele>24.07764</ele>
        <time>2021-06-30T20:31:41Z</time>
      </trkpt>
      <trkpt lat="43.531967" lon="4.999514">
        <ele>23.80994</ele>
        <time>2021-06-30T20:31:42Z</time>
      </trkpt>
      <trkpt lat="43.531967" lon="4.999514">
        <ele>22.72803</ele>
        <time>2021-06-30T20:31:43Z</time>
      </trkpt>
      <trkpt lat="43.531967" lon="4.999514">
        <ele>23.71436</ele>
        <time>2021-06-30T20:31:44Z</time>
      </trkpt>
      <trkpt lat="43.531967" lon="4.999514">
        <ele>20.36887</ele>
        <time>2021-06-30T20:31:45Z</time>
      </trkpt>
      <trkpt lat="43.531967" lon="4.999514">
        <ele>21.99786</ele>
        <time>2021-06-30T20:31:46Z</time>
      </trkpt>
      <trkpt lat="43.531967" lon="4.999514">
        <ele>22.56604</ele>
        <time>2021-06-30T20:31:47Z</time>
      </trkpt>
      <trkpt lat="43.531967" lon="4.999514">
        <ele>23.09662</ele>
        <time>2021-06-30T20:31:48Z</time>
      </trkpt>
      <trkpt lat="43.531967" lon="4.999514">
        <ele>22.57587</ele>
        <time>2021-06-30T20:31:49Z</time>
      </trkpt>
      <trkpt lat="43.531967" lon="4.999514">
        <ele>22.49249</ele>
        <time>2021-06-30T20:31:50Z</time>
      </trkpt>
      <trkpt lat="43.531967" lon="4.999514">
        <ele>22.42499</ele>
        <time>2021-06-30T20:31:51Z</time>
      </trkpt>
      <trkpt lat="43.531967" lon="4.999514">
        <ele>22.50537</ele>
        <time>2021-06-30T20:31:52Z</time>
      </trkpt>
      <trkpt lat="43.531967" lon="4.999514">
        <ele>21.41437</ele>
        <time>2021-06-30T20:31:53Z</time>
      </trkpt>
      <trkpt lat="43.531971" lon="4.999531">
        <ele>21.45496</ele>
        <time>2021-06-30T20:31:54Z</time>
      </trkpt>
      <trkpt lat="43.531982" lon="4.999576">
        <ele>21.44653</ele>
        <time>2021-06-30T20:31:55Z</time>
      </trkpt>
      <trkpt lat="43.531994" lon="4.999609">
        <ele>21.21619</ele>
        <time>2021-06-30T20:31:56Z</time>
      </trkpt>
      <trkpt lat="43.531998" lon="4.999627">
        <ele>21.27631</ele>
        <time>2021-06-30T20:31:57Z</time>
      </trkpt>
      <trkpt lat="43.532005" lon="4.999661">
        <ele>20.96228</ele>
        <time>2021-06-30T20:31:58Z</time>
      </trkpt>
      <trkpt lat="43.532017" lon="4.999695">
        <ele>21.97455</ele>
        <time>2021-06-30T20:31:59Z</time>
      </trkpt>
      <trkpt lat="43.532021" lon="4.999702">
        <ele>21.85931</ele>
        <time>2021-06-30T20:32:00Z</time>
      </trkpt>
      <trkpt lat="43.532021" lon="4.999702">
        <ele>20.17944</ele>
        <time>2021-06-30T20:32:01Z</time>
      </trkpt>
      <trkpt lat="43.532021" lon="4.999702">
        <ele>20.55555</ele>
        <time>2021-06-30T20:32:02Z</time>
      </trkpt>
      <trkpt lat="43.532021" lon="4.999702">
        <ele>20.08429</ele>
        <time>2021-06-30T20:32:03Z</time>
      </trkpt>
      <trkpt lat="43.532021" lon="4.999702">
        <ele>19.95190</ele>
        <time>2021-06-30T20:32:04Z</time>
      </trkpt>
      <trkpt lat="43.532021" lon="4.999702">
        <ele>20.44843</ele>
        <time>2021-06-30T20:32:05Z</time>
      </trkpt>
      <trkpt lat="43.532021" lon="4.999702">
        <ele>19.59766</ele>
        <time>2021-06-30T20:32:06Z</time>
      </trkpt>
      <trkpt lat="43.532021" lon="4.999702">
        <ele>18.48737</ele>
        <time>2021-06-30T20:32:07Z</time>
      </trkpt>
      <trkpt lat="43.532021" lon="4.999707">
        <ele>18.44751</ele>
        <time>2021-06-30T20:32:08Z</time>
      </trkpt>
      <trkpt lat="43.532028" lon="4.999731">
        <ele>18.06256</ele>
        <time>2021-06-30T20:32:09Z</time>
      </trkpt>
      <trkpt lat="43.531815" lon="4.999201">
        <ele>18.36578</ele>
        <time>2021-06-30T20:32:10Z</time>
      </trkpt>
      <trkpt lat="43.531815" lon="4.999197">
        <ele>18.24780</ele>
        <time>2021-06-30T20:32:11Z</time>
      </trkpt>
      <trkpt lat="43.531815" lon="4.999197">
        <ele>17.99884</ele>
        <time>2021-06-30T20:32:12Z</time>
      </trkpt>
      <trkpt lat="43.531815" lon="4.999197">
        <ele>19.30994</ele>
        <time>2021-06-30T20:32:13Z</time>
      </trkpt>
      <trkpt lat="43.531815" lon="4.999197">
        <ele>21.75482</ele>
        <time>2021-06-30T20:32:14Z</time>
      </trkpt>
      <trkpt lat="43.531815" lon="4.999197">
        <ele>22.45435</ele>
        <time>2021-06-30T20:32:15Z</time>
      </trkpt>
      <trkpt lat="43.531815" lon="4.999197">
        <ele>22.28864</ele>
        <time>2021-06-30T20:32:16Z</time>
      </trkpt>
      <trkpt lat="43.531815" lon="4.999197">
        <ele>22.00085</ele>
        <time>2021-06-30T20:32:17Z</time>
      </trkpt>
      <trkpt lat="43.531815" lon="4.999197">
        <ele>22.57867</ele>
        <time>2021-06-30T20:32:18Z</time>
      </trkpt>
      <trkpt lat="43.531815" lon="4.999197">
        <ele>22.53809</ele>
        <time>2021-06-30T20:32:19Z</time>
      </trkpt>
      <trkpt lat="43.531815" lon="4.999197">
        <ele>22.56390</ele>
        <time>2021-06-30T20:32:20Z</time>
      </trkpt>
      <trkpt lat="43.531815" lon="4.999197">
        <ele>23.23236</ele>
        <time>2021-06-30T20:32:21Z</time>
      </trkpt>
      <trkpt lat="43.531815" lon="4.999197">
        <ele>23.11731</ele>
        <time>2021-06-30T20:32:22Z</time>
      </trkpt>
      <trkpt lat="43.531815" lon="4.999197">
        <ele>25.09338</ele>
        <time>2021-06-30T20:32:23Z</time>
      </trkpt>
      <trkpt lat="43.531815" lon="4.999197">
        <ele>25.76190</ele>
        <time>2021-06-30T20:32:24Z</time>
      </trkpt>
      <trkpt lat="43.531815" lon="4.999197">
        <ele>26.43207</ele>
        <time>2021-06-30T20:32:25Z</time>
      </trkpt>
      <trkpt lat="43.531815" lon="4.999197">
        <ele>27.39288</ele>
        <time>2021-06-30T20:32:26Z</time>
      </trkpt>
      <trkpt lat="43.531815" lon="4.999197">
        <ele>26.74927</ele>
        <time>2021-06-30T20:32:27Z</time>
      </trkpt>
      <trkpt lat="43.531815" lon="4.999197">
        <ele>21.23751</ele>
        <time>2021-06-30T20:32:28Z</time>
      </trkpt>
      <trkpt lat="43.531815" lon="4.999197">
        <ele>21.23751</ele>
        <time>2021-06-30T20:32:29Z</time>
      </trkpt>
      <trkpt lat="43.531815" lon="4.999197">
        <ele>21.26500</ele>
        <time>2021-06-30T20:32:31Z</time>
      </trkpt>
      <trkpt lat="43.531815" lon="4.999197">
        <ele>21.67906</ele>
        <time>2021-06-30T20:32:32Z</time>
      </trkpt>
      <trkpt lat="43.531815" lon="4.999197">
        <ele>21.67906</ele>
        <time>2021-06-30T20:32:33Z</time>
      </trkpt>
      <trkpt lat="43.531815" lon="4.999197">
        <ele>21.92307</ele>
        <time>2021-06-30T20:32:34Z</time>
      </trkpt>
      <trkpt lat="43.531815" lon="4.999197">
        <ele>21.92307</ele>
        <time>2021-06-30T20:32:34Z</time>
      </trkpt>
      <trkpt lat="43.531849" lon="4.999457">
        <ele>31.14798</ele>
        <time>2021-06-30T20:43:29Z</time>
      </trkpt>
      <trkpt lat="43.531769" lon="4.999597">
        <ele>31.14798</ele>
        <time>2021-06-30T20:43:30Z</time>
      </trkpt>
      <trkpt lat="43.531769" lon="4.999597">
        <ele>25.06631</ele>
        <time>2021-06-30T20:43:31Z</time>
      </trkpt>
      <trkpt lat="43.531742" lon="4.999589">
        <ele>27.25406</ele>
        <time>2021-06-30T20:43:32Z</time>
      </trkpt>
      <trkpt lat="43.531666" lon="4.999525">
        <ele>27.25723</ele>
        <time>2021-06-30T20:43:33Z</time>
      </trkpt>
      <trkpt lat="43.531788" lon="4.999527">
        <ele>27.14199</ele>
        <time>2021-06-30T20:43:34Z</time>
      </trkpt>
      <trkpt lat="43.531788" lon="4.999527">
        <ele>27.41842</ele>
        <time>2021-06-30T20:43:35Z</time>
      </trkpt>
      <trkpt lat="43.531818" lon="4.999576">
        <ele>27.40457</ele>
        <time>2021-06-30T20:43:36Z</time>
      </trkpt>
      <trkpt lat="43.531818" lon="4.999559">
        <ele>26.96041</ele>
        <time>2021-06-30T20:43:37Z</time>
      </trkpt>
      <trkpt lat="43.531822" lon="4.999591">
        <ele>27.37637</ele>
        <time>2021-06-30T20:43:38Z</time>
      </trkpt>
      <trkpt lat="43.531822" lon="4.999591">
        <ele>27.22750</ele>
        <time>2021-06-30T20:43:39Z</time>
      </trkpt>
      <trkpt lat="43.531837" lon="4.999576">
        <ele>27.02578</ele>
        <time>2021-06-30T20:43:40Z</time>
      </trkpt>
      <trkpt lat="43.531837" lon="4.999576">
        <ele>27.02023</ele>
        <time>2021-06-30T20:43:41Z</time>
      </trkpt>
      <trkpt lat="43.531853" lon="4.999539">
        <ele>27.51034</ele>
        <time>2021-06-30T20:43:42Z</time>
      </trkpt>
      <trkpt lat="43.531853" lon="4.999539">
        <ele>27.25412</ele>
        <time>2021-06-30T20:43:43Z</time>
      </trkpt>
      <trkpt lat="43.531853" lon="4.999539">
        <ele>26.81546</ele>
        <time>2021-06-30T20:43:44Z</time>
      </trkpt>
      <trkpt lat="43.531853" lon="4.999539">
        <ele>26.50198</ele>
        <time>2021-06-30T20:43:45Z</time>
      </trkpt>
      <trkpt lat="43.531853" lon="4.999539">
        <ele>26.64291</ele>
        <time>2021-06-30T20:43:46Z</time>
      </trkpt>
      <trkpt lat="43.531853" lon="4.999539">
        <ele>26.51944</ele>
        <time>2021-06-30T20:43:47Z</time>
      </trkpt>
      <trkpt lat="43.531853" lon="4.999539">
        <ele>26.48196</ele>
        <time>2021-06-30T20:43:48Z</time>
      </trkpt>
      <trkpt lat="43.531853" lon="4.999539">
        <ele>26.49874</ele>
        <time>2021-06-30T20:43:49Z</time>
      </trkpt>
      <trkpt lat="43.531853" lon="4.999539">
        <ele>26.15377</ele>
        <time>2021-06-30T20:43:50Z</time>
      </trkpt>
      <trkpt lat="43.531853" lon="4.999539">
        <ele>26.19070</ele>
        <time>2021-06-30T20:43:51Z</time>
      </trkpt>
      <trkpt lat="43.531853" lon="4.999539">
        <ele>26.33157</ele>
        <time>2021-06-30T20:43:52Z</time>
      </trkpt>
      <trkpt lat="43.531853" lon="4.999539">
        <ele>26.89804</ele>
        <time>2021-06-30T20:43:53Z</time>
      </trkpt>
      <trkpt lat="43.531853" lon="4.999539">
        <ele>26.50094</ele>
        <time>2021-06-30T20:43:54Z</time>
      </trkpt>
      <trkpt lat="43.531853" lon="4.999539">
        <ele>26.35440</ele>
        <time>2021-06-30T20:43:55Z</time>
      </trkpt>
      <trkpt lat="43.531853" lon="4.999539">
        <ele>26.35818</ele>
        <time>2021-06-30T20:43:56Z</time>
      </trkpt>
      <trkpt lat="43.531803" lon="4.999532">
        <ele>26.35818</ele>
        <time>2021-06-30T20:43:57Z</time>
      </trkpt>
      <trkpt lat="43.531803" lon="4.999532">
        <ele>25.83895</ele>
        <time>2021-06-30T20:43:58Z</time>
      </trkpt>
      <trkpt lat="43.531792" lon="4.999541">
        <ele>26.24789</ele>
        <time>2021-06-30T20:43:59Z</time>
      </trkpt>
      <trkpt lat="43.531780" lon="4.999547">
        <ele>26.39975</ele>
        <time>2021-06-30T20:44:00Z</time>
      </trkpt>
      <trkpt lat="43.531780" lon="4.999547">
        <ele>26.14853</ele>
        <time>2021-06-30T20:44:01Z</time>
      </trkpt>
      <trkpt lat="43.531776" lon="4.999540">
        <ele>26.31564</ele>
        <time>2021-06-30T20:44:02Z</time>
      </trkpt>
      <trkpt lat="43.531776" lon="4.999540">
        <ele>26.62875</ele>
        <time>2021-06-30T20:44:03Z</time>
      </trkpt>
      <trkpt lat="43.531776" lon="4.999540">
        <ele>26.89029</ele>
        <time>2021-06-30T20:44:04Z</time>
      </trkpt>
      <trkpt lat="43.531776" lon="4.999540">
        <ele>27.14846</ele>
        <time>2021-06-30T20:44:05Z</time>
      </trkpt>
      <trkpt lat="43.531776" lon="4.999540">
        <ele>27.16336</ele>
        <time>2021-06-30T20:44:06Z</time>
      </trkpt>
      <trkpt lat="43.531776" lon="4.999540">
        <ele>27.38211</ele>
        <time>2021-06-30T20:44:07Z</time>
      </trkpt>
      <trkpt lat="43.531776" lon="4.999540">
        <ele>27.08712</ele>
        <time>2021-06-30T20:44:08Z</time>
      </trkpt>
      <trkpt lat="43.531776" lon="4.999540">
        <ele>26.78762</ele>
        <time>2021-06-30T20:44:09Z</time>
      </trkpt>
      <trkpt lat="43.531776" lon="4.999540">
        <ele>26.55819</ele>
        <time>2021-06-30T20:44:10Z</time>
      </trkpt>
      <trkpt lat="43.531776" lon="4.999540">
        <ele>26.52121</ele>
        <time>2021-06-30T20:44:11Z</time>
      </trkpt>
      <trkpt lat="43.531776" lon="4.999540">
        <ele>26.55014</ele>
        <time>2021-06-30T20:44:12Z</time>
      </trkpt>
      <trkpt lat="43.531776" lon="4.999540">
        <ele>26.55014</ele>
        <time>2021-06-30T20:44:13Z</time>
      </trkpt>
      <trkpt lat="43.531776" lon="4.999540">
        <ele>26.63058</ele>
        <time>2021-06-30T20:44:14Z</time>
      </trkpt>
      <trkpt lat="43.531776" lon="4.999540">
        <ele>27.17154</ele>
        <time>2021-06-30T20:44:15Z</time>
      </trkpt>
      <trkpt lat="43.531776" lon="4.999540">
        <ele>27.43454</ele>
        <time>2021-06-30T20:44:16Z</time>
      </trkpt>
      <trkpt lat="43.531780" lon="4.999495">
        <ele>27.43454</ele>
        <time>2021-06-30T20:44:17Z</time>
      </trkpt>
      <trkpt lat="43.531780" lon="4.999495">
        <ele>27.68924</ele>
        <time>2021-06-30T20:44:18Z</time>
      </trkpt>
      <trkpt lat="43.531780" lon="4.999495">
        <ele>27.75717</ele>
        <time>2021-06-30T20:44:19Z</time>
      </trkpt>
      <trkpt lat="43.531780" lon="4.999495">
        <ele>27.31057</ele>
        <time>2021-06-30T20:44:21Z</time>
      </trkpt>
      <trkpt lat="43.531780" lon="4.999495">
        <ele>27.31057</ele>
        <time>2021-06-30T20:44:21Z</time>
      </trkpt>
      <trkpt lat="43.531780" lon="4.999495">
        <ele>27.22506</ele>
        <time>2021-06-30T20:44:22Z</time>
      </trkpt>
    </trkseg>
  </trk>
</gpx>
